<?xml version="1.0" encoding="UTF-8" standalone="no" ?>
<gpx xmlns="http://www.topografix.com/GPX/1/1" xmlns:xsi="http://www.w3.org/2001/XMLSchema-instance" xsi:schemaLocation="http://www.topografix.com/GPX/1/1 http://www.topografix.com/GPX/1/1/gpx.xsd" version="1.1" creator="VisuGPX - https://www.visugpx.com">
  <metadata>
    <name>voyage total </name>
  </metadata>
  <trk>
    <name><![CDATA[T25]]></name>
    <trkseg>
      <trkpt lat="48.74481" lon="7.05303">
        <ele>246.9</ele>
        <time>2020-06-29T06:42:53Z</time>
      </trkpt>
      <trkpt lat="48.74485" lon="7.05304">
        <ele>246.9</ele>
        <time>2020-06-29T06:42:59Z</time>
      </trkpt>
      <trkpt lat="48.74489" lon="7.05305">
        <ele>246.9</ele>
        <time>2020-06-29T06:53:12Z</time>
      </trkpt>
      <trkpt lat="48.74493" lon="7.05306">
        <ele>246.9</ele>
        <time>2020-06-29T06:53:13Z</time>
      </trkpt>
      <trkpt lat="48.74489" lon="7.05305">
        <ele>246.9</ele>
        <time>2020-06-29T06:53:14Z</time>
      </trkpt>
      <trkpt lat="48.74486" lon="7.05303">
        <ele>246.9</ele>
        <time>2020-06-29T06:53:15Z</time>
      </trkpt>
      <trkpt lat="48.74483" lon="7.053">
        <ele>246.9</ele>
        <time>2020-06-29T06:53:16Z</time>
      </trkpt>
      <trkpt lat="48.7448" lon="7.05298">
        <ele>246.9</ele>
        <time>2020-06-29T06:53:17Z</time>
      </trkpt>
      <trkpt lat="48.74476" lon="7.05296">
        <ele>246.9</ele>
        <time>2020-06-29T06:53:18Z</time>
      </trkpt>
      <trkpt lat="48.74472" lon="7.05294">
        <ele>246.9</ele>
        <time>2020-06-29T06:53:19Z</time>
      </trkpt>
      <trkpt lat="48.74468" lon="7.05291">
        <ele>246.9</ele>
        <time>2020-06-29T06:53:20Z</time>
      </trkpt>
      <trkpt lat="48.74463" lon="7.05287">
        <ele>246.9</ele>
        <time>2020-06-29T06:53:21Z</time>
      </trkpt>
      <trkpt lat="48.74458" lon="7.05281">
        <ele>246.9</ele>
        <time>2020-06-29T06:53:22Z</time>
      </trkpt>
      <trkpt lat="48.74456" lon="7.05279">
        <ele>246.9</ele>
        <time>2020-06-29T06:53:23Z</time>
      </trkpt>
      <trkpt lat="48.74453" lon="7.05276">
        <ele>246.9</ele>
        <time>2020-06-29T06:53:24Z</time>
      </trkpt>
      <trkpt lat="48.74448" lon="7.05275">
        <ele>246.9</ele>
        <time>2020-06-29T06:53:25Z</time>
      </trkpt>
      <trkpt lat="48.74444" lon="7.05272">
        <ele>246.9</ele>
        <time>2020-06-29T06:53:26Z</time>
      </trkpt>
      <trkpt lat="48.7444" lon="7.05269">
        <ele>247</ele>
        <time>2020-06-29T06:53:27Z</time>
      </trkpt>
      <trkpt lat="48.74437" lon="7.05266">
        <ele>246.9</ele>
        <time>2020-06-29T06:53:28Z</time>
      </trkpt>
      <trkpt lat="48.74433" lon="7.05262">
        <ele>246.9</ele>
        <time>2020-06-29T06:53:29Z</time>
      </trkpt>
      <trkpt lat="48.74429" lon="7.05259">
        <ele>246.9</ele>
        <time>2020-06-29T06:53:30Z</time>
      </trkpt>
      <trkpt lat="48.74426" lon="7.05255">
        <ele>246.9</ele>
        <time>2020-06-29T06:53:31Z</time>
      </trkpt>
      <trkpt lat="48.74422" lon="7.05252">
        <ele>246.9</ele>
        <time>2020-06-29T06:53:32Z</time>
      </trkpt>
      <trkpt lat="48.74419" lon="7.05249">
        <ele>246.9</ele>
        <time>2020-06-29T06:53:33Z</time>
      </trkpt>
      <trkpt lat="48.74414" lon="7.05247">
        <ele>246.9</ele>
        <time>2020-06-29T06:53:34Z</time>
      </trkpt>
      <trkpt lat="48.74411" lon="7.05243">
        <ele>246.9</ele>
        <time>2020-06-29T06:53:35Z</time>
      </trkpt>
      <trkpt lat="48.74409" lon="7.05238">
        <ele>246.9</ele>
        <time>2020-06-29T06:53:36Z</time>
      </trkpt>
      <trkpt lat="48.74406" lon="7.05234">
        <ele>246.9</ele>
        <time>2020-06-29T06:53:37Z</time>
      </trkpt>
      <trkpt lat="48.74403" lon="7.0523">
        <ele>246.9</ele>
        <time>2020-06-29T06:53:38Z</time>
      </trkpt>
      <trkpt lat="48.74401" lon="7.05227">
        <ele>246.9</ele>
        <time>2020-06-29T06:53:39Z</time>
      </trkpt>
      <trkpt lat="48.74397" lon="7.05224">
        <ele>246.9</ele>
        <time>2020-06-29T06:53:40Z</time>
      </trkpt>
      <trkpt lat="48.74393" lon="7.05221">
        <ele>246.9</ele>
        <time>2020-06-29T06:53:41Z</time>
      </trkpt>
      <trkpt lat="48.7439" lon="7.05218">
        <ele>246.9</ele>
        <time>2020-06-29T06:53:42Z</time>
      </trkpt>
      <trkpt lat="48.74387" lon="7.05214">
        <ele>246.9</ele>
        <time>2020-06-29T06:53:43Z</time>
      </trkpt>
      <trkpt lat="48.74383" lon="7.05211">
        <ele>246.9</ele>
        <time>2020-06-29T06:53:44Z</time>
      </trkpt>
      <trkpt lat="48.74379" lon="7.05206">
        <ele>246.9</ele>
        <time>2020-06-29T06:53:45Z</time>
      </trkpt>
      <trkpt lat="48.74376" lon="7.05201">
        <ele>246.9</ele>
        <time>2020-06-29T06:53:46Z</time>
      </trkpt>
      <trkpt lat="48.74374" lon="7.05196">
        <ele>246.9</ele>
        <time>2020-06-29T06:53:47Z</time>
      </trkpt>
      <trkpt lat="48.7437" lon="7.05193">
        <ele>246.9</ele>
        <time>2020-06-29T06:53:48Z</time>
      </trkpt>
      <trkpt lat="48.74367" lon="7.05189">
        <ele>246.9</ele>
        <time>2020-06-29T06:53:49Z</time>
      </trkpt>
      <trkpt lat="48.74364" lon="7.05186">
        <ele>246.9</ele>
        <time>2020-06-29T06:53:50Z</time>
      </trkpt>
      <trkpt lat="48.74361" lon="7.05182">
        <ele>246.9</ele>
        <time>2020-06-29T06:53:51Z</time>
      </trkpt>
      <trkpt lat="48.74358" lon="7.0518">
        <ele>246.9</ele>
        <time>2020-06-29T06:53:52Z</time>
      </trkpt>
      <trkpt lat="48.74354" lon="7.05177">
        <ele>246.9</ele>
        <time>2020-06-29T06:53:53Z</time>
      </trkpt>
      <trkpt lat="48.74351" lon="7.05172">
        <ele>246.9</ele>
        <time>2020-06-29T06:53:54Z</time>
      </trkpt>
      <trkpt lat="48.74347" lon="7.05168">
        <ele>246.9</ele>
        <time>2020-06-29T06:53:55Z</time>
      </trkpt>
      <trkpt lat="48.74342" lon="7.05165">
        <ele>246.9</ele>
        <time>2020-06-29T06:53:56Z</time>
      </trkpt>
      <trkpt lat="48.74338" lon="7.05163">
        <ele>246.9</ele>
        <time>2020-06-29T06:53:57Z</time>
      </trkpt>
      <trkpt lat="48.74334" lon="7.0516">
        <ele>246.9</ele>
        <time>2020-06-29T06:53:58Z</time>
      </trkpt>
      <trkpt lat="48.7433" lon="7.05157">
        <ele>246.9</ele>
        <time>2020-06-29T06:53:59Z</time>
      </trkpt>
      <trkpt lat="48.74327" lon="7.05155">
        <ele>246.9</ele>
        <time>2020-06-29T06:54:00Z</time>
      </trkpt>
      <trkpt lat="48.74322" lon="7.05152">
        <ele>246.9</ele>
        <time>2020-06-29T06:54:01Z</time>
      </trkpt>
      <trkpt lat="48.74318" lon="7.0515">
        <ele>246.9</ele>
        <time>2020-06-29T06:54:02Z</time>
      </trkpt>
      <trkpt lat="48.74314" lon="7.05148">
        <ele>246.9</ele>
        <time>2020-06-29T06:54:03Z</time>
      </trkpt>
      <trkpt lat="48.7431" lon="7.05145">
        <ele>246.8</ele>
        <time>2020-06-29T06:54:04Z</time>
      </trkpt>
      <trkpt lat="48.74306" lon="7.05142">
        <ele>246.8</ele>
        <time>2020-06-29T06:54:05Z</time>
      </trkpt>
      <trkpt lat="48.74302" lon="7.05139">
        <ele>246.8</ele>
        <time>2020-06-29T06:54:06Z</time>
      </trkpt>
      <trkpt lat="48.74297" lon="7.05136">
        <ele>246.8</ele>
        <time>2020-06-29T06:54:07Z</time>
      </trkpt>
      <trkpt lat="48.74293" lon="7.05133">
        <ele>246.8</ele>
        <time>2020-06-29T06:54:08Z</time>
      </trkpt>
      <trkpt lat="48.74289" lon="7.05129">
        <ele>246.8</ele>
        <time>2020-06-29T06:54:09Z</time>
      </trkpt>
      <trkpt lat="48.74285" lon="7.05126">
        <ele>246.8</ele>
        <time>2020-06-29T06:54:10Z</time>
      </trkpt>
      <trkpt lat="48.74282" lon="7.05123">
        <ele>246.9</ele>
        <time>2020-06-29T06:54:11Z</time>
      </trkpt>
      <trkpt lat="48.74278" lon="7.05122">
        <ele>246.9</ele>
        <time>2020-06-29T06:54:12Z</time>
      </trkpt>
      <trkpt lat="48.74275" lon="7.0512">
        <ele>246.9</ele>
        <time>2020-06-29T06:54:13Z</time>
      </trkpt>
      <trkpt lat="48.74271" lon="7.05118">
        <ele>247</ele>
        <time>2020-06-29T06:54:14Z</time>
      </trkpt>
      <trkpt lat="48.74267" lon="7.05115">
        <ele>247</ele>
        <time>2020-06-29T06:54:15Z</time>
      </trkpt>
      <trkpt lat="48.74265" lon="7.05112">
        <ele>247</ele>
        <time>2020-06-29T06:54:16Z</time>
      </trkpt>
      <trkpt lat="48.74261" lon="7.05108">
        <ele>247.1</ele>
        <time>2020-06-29T06:54:17Z</time>
      </trkpt>
      <trkpt lat="48.74257" lon="7.05103">
        <ele>247.2</ele>
        <time>2020-06-29T06:54:18Z</time>
      </trkpt>
      <trkpt lat="48.74254" lon="7.05099">
        <ele>247.2</ele>
        <time>2020-06-29T06:54:19Z</time>
      </trkpt>
      <trkpt lat="48.7425" lon="7.05095">
        <ele>247.2</ele>
        <time>2020-06-29T06:54:20Z</time>
      </trkpt>
      <trkpt lat="48.74247" lon="7.0509">
        <ele>247.3</ele>
        <time>2020-06-29T06:54:21Z</time>
      </trkpt>
      <trkpt lat="48.74245" lon="7.05086">
        <ele>247.3</ele>
        <time>2020-06-29T06:54:22Z</time>
      </trkpt>
      <trkpt lat="48.74242" lon="7.05081">
        <ele>247.3</ele>
        <time>2020-06-29T06:54:23Z</time>
      </trkpt>
      <trkpt lat="48.74238" lon="7.05076">
        <ele>247.3</ele>
        <time>2020-06-29T06:54:24Z</time>
      </trkpt>
      <trkpt lat="48.74236" lon="7.05071">
        <ele>247.4</ele>
        <time>2020-06-29T06:54:25Z</time>
      </trkpt>
      <trkpt lat="48.74234" lon="7.05065">
        <ele>247.4</ele>
        <time>2020-06-29T06:54:26Z</time>
      </trkpt>
      <trkpt lat="48.74231" lon="7.0506">
        <ele>247.5</ele>
        <time>2020-06-29T06:54:27Z</time>
      </trkpt>
      <trkpt lat="48.74229" lon="7.05055">
        <ele>247.5</ele>
        <time>2020-06-29T06:54:28Z</time>
      </trkpt>
      <trkpt lat="48.74226" lon="7.0505">
        <ele>247.6</ele>
        <time>2020-06-29T06:54:29Z</time>
      </trkpt>
      <trkpt lat="48.74222" lon="7.05045">
        <ele>247.6</ele>
        <time>2020-06-29T06:54:30Z</time>
      </trkpt>
      <trkpt lat="48.74219" lon="7.0504">
        <ele>247.7</ele>
        <time>2020-06-29T06:54:31Z</time>
      </trkpt>
      <trkpt lat="48.74215" lon="7.05034">
        <ele>247.8</ele>
        <time>2020-06-29T06:54:32Z</time>
      </trkpt>
      <trkpt lat="48.74211" lon="7.05028">
        <ele>247.9</ele>
        <time>2020-06-29T06:54:33Z</time>
      </trkpt>
      <trkpt lat="48.74208" lon="7.05022">
        <ele>247.9</ele>
        <time>2020-06-29T06:54:34Z</time>
      </trkpt>
      <trkpt lat="48.74205" lon="7.05016">
        <ele>248</ele>
        <time>2020-06-29T06:54:35Z</time>
      </trkpt>
      <trkpt lat="48.74202" lon="7.0501">
        <ele>248.1</ele>
        <time>2020-06-29T06:54:36Z</time>
      </trkpt>
      <trkpt lat="48.74199" lon="7.05005">
        <ele>248.1</ele>
        <time>2020-06-29T06:54:37Z</time>
      </trkpt>
      <trkpt lat="48.74196" lon="7.05">
        <ele>248.2</ele>
        <time>2020-06-29T06:54:38Z</time>
      </trkpt>
      <trkpt lat="48.74193" lon="7.04995">
        <ele>248.3</ele>
        <time>2020-06-29T06:54:39Z</time>
      </trkpt>
      <trkpt lat="48.7419" lon="7.0499">
        <ele>248.4</ele>
        <time>2020-06-29T06:54:40Z</time>
      </trkpt>
      <trkpt lat="48.74187" lon="7.04985">
        <ele>248.5</ele>
        <time>2020-06-29T06:54:41Z</time>
      </trkpt>
      <trkpt lat="48.74184" lon="7.04981">
        <ele>248.6</ele>
        <time>2020-06-29T06:54:42Z</time>
      </trkpt>
      <trkpt lat="48.74181" lon="7.04976">
        <ele>248.7</ele>
        <time>2020-06-29T06:54:43Z</time>
      </trkpt>
      <trkpt lat="48.74177" lon="7.04971">
        <ele>248.8</ele>
        <time>2020-06-29T06:54:44Z</time>
      </trkpt>
      <trkpt lat="48.74174" lon="7.04966">
        <ele>249</ele>
        <time>2020-06-29T06:54:45Z</time>
      </trkpt>
      <trkpt lat="48.7417" lon="7.04962">
        <ele>249.1</ele>
        <time>2020-06-29T06:54:46Z</time>
      </trkpt>
      <trkpt lat="48.74167" lon="7.04958">
        <ele>249.3</ele>
        <time>2020-06-29T06:54:47Z</time>
      </trkpt>
      <trkpt lat="48.74164" lon="7.04953">
        <ele>249.4</ele>
        <time>2020-06-29T06:54:48Z</time>
      </trkpt>
      <trkpt lat="48.74161" lon="7.04949">
        <ele>249.6</ele>
        <time>2020-06-29T06:54:49Z</time>
      </trkpt>
      <trkpt lat="48.74158" lon="7.04945">
        <ele>249.7</ele>
        <time>2020-06-29T06:54:50Z</time>
      </trkpt>
      <trkpt lat="48.74155" lon="7.04941">
        <ele>249.9</ele>
        <time>2020-06-29T06:54:51Z</time>
      </trkpt>
      <trkpt lat="48.74153" lon="7.04936">
        <ele>250.1</ele>
        <time>2020-06-29T06:54:52Z</time>
      </trkpt>
      <trkpt lat="48.7415" lon="7.04931">
        <ele>250.2</ele>
        <time>2020-06-29T06:54:53Z</time>
      </trkpt>
      <trkpt lat="48.74147" lon="7.04926">
        <ele>250.4</ele>
        <time>2020-06-29T06:54:54Z</time>
      </trkpt>
      <trkpt lat="48.74144" lon="7.0492">
        <ele>250.6</ele>
        <time>2020-06-29T06:54:55Z</time>
      </trkpt>
      <trkpt lat="48.74141" lon="7.04914">
        <ele>250.8</ele>
        <time>2020-06-29T06:54:56Z</time>
      </trkpt>
      <trkpt lat="48.74139" lon="7.04909">
        <ele>250.9</ele>
        <time>2020-06-29T06:54:57Z</time>
      </trkpt>
      <trkpt lat="48.74136" lon="7.04904">
        <ele>251</ele>
        <time>2020-06-29T06:54:58Z</time>
      </trkpt>
      <trkpt lat="48.74134" lon="7.049">
        <ele>251.2</ele>
        <time>2020-06-29T06:54:59Z</time>
      </trkpt>
      <trkpt lat="48.74132" lon="7.04896">
        <ele>251.3</ele>
        <time>2020-06-29T06:55:00Z</time>
      </trkpt>
      <trkpt lat="48.7413" lon="7.04892">
        <ele>251.4</ele>
        <time>2020-06-29T06:55:01Z</time>
      </trkpt>
      <trkpt lat="48.74127" lon="7.04889">
        <ele>251.5</ele>
        <time>2020-06-29T06:55:02Z</time>
      </trkpt>
      <trkpt lat="48.74123" lon="7.04884">
        <ele>251.6</ele>
        <time>2020-06-29T06:55:03Z</time>
      </trkpt>
      <trkpt lat="48.7412" lon="7.0488">
        <ele>251.7</ele>
        <time>2020-06-29T06:55:04Z</time>
      </trkpt>
      <trkpt lat="48.74117" lon="7.04876">
        <ele>251.8</ele>
        <time>2020-06-29T06:55:05Z</time>
      </trkpt>
      <trkpt lat="48.74113" lon="7.04873">
        <ele>251.9</ele>
        <time>2020-06-29T06:55:06Z</time>
      </trkpt>
      <trkpt lat="48.7411" lon="7.04868">
        <ele>252.1</ele>
        <time>2020-06-29T06:55:07Z</time>
      </trkpt>
      <trkpt lat="48.74106" lon="7.04864">
        <ele>252.2</ele>
        <time>2020-06-29T06:55:08Z</time>
      </trkpt>
      <trkpt lat="48.74103" lon="7.0486">
        <ele>252.3</ele>
        <time>2020-06-29T06:55:09Z</time>
      </trkpt>
      <trkpt lat="48.741" lon="7.04856">
        <ele>252.5</ele>
        <time>2020-06-29T06:55:10Z</time>
      </trkpt>
      <trkpt lat="48.74096" lon="7.04852">
        <ele>252.6</ele>
        <time>2020-06-29T06:55:11Z</time>
      </trkpt>
      <trkpt lat="48.74092" lon="7.04847">
        <ele>252.8</ele>
        <time>2020-06-29T06:55:12Z</time>
      </trkpt>
      <trkpt lat="48.74089" lon="7.04845">
        <ele>252.9</ele>
        <time>2020-06-29T06:55:13Z</time>
      </trkpt>
      <trkpt lat="48.74086" lon="7.04842">
        <ele>253</ele>
        <time>2020-06-29T06:55:14Z</time>
      </trkpt>
      <trkpt lat="48.74084" lon="7.04837">
        <ele>253.1</ele>
        <time>2020-06-29T06:55:15Z</time>
      </trkpt>
      <trkpt lat="48.74081" lon="7.04834">
        <ele>253.1</ele>
        <time>2020-06-29T06:55:16Z</time>
      </trkpt>
      <trkpt lat="48.74079" lon="7.04831">
        <ele>253.2</ele>
        <time>2020-06-29T06:55:17Z</time>
      </trkpt>
      <trkpt lat="48.74075" lon="7.04827">
        <ele>253.3</ele>
        <time>2020-06-29T06:55:18Z</time>
      </trkpt>
      <trkpt lat="48.74071" lon="7.04822">
        <ele>253.4</ele>
        <time>2020-06-29T06:55:19Z</time>
      </trkpt>
      <trkpt lat="48.74067" lon="7.04818">
        <ele>253.5</ele>
        <time>2020-06-29T06:55:20Z</time>
      </trkpt>
      <trkpt lat="48.74063" lon="7.04813">
        <ele>253.6</ele>
        <time>2020-06-29T06:55:21Z</time>
      </trkpt>
      <trkpt lat="48.74059" lon="7.04809">
        <ele>253.6</ele>
        <time>2020-06-29T06:55:22Z</time>
      </trkpt>
      <trkpt lat="48.74056" lon="7.04804">
        <ele>253.7</ele>
        <time>2020-06-29T06:55:23Z</time>
      </trkpt>
      <trkpt lat="48.74053" lon="7.048">
        <ele>253.8</ele>
        <time>2020-06-29T06:55:24Z</time>
      </trkpt>
      <trkpt lat="48.7405" lon="7.04796">
        <ele>253.8</ele>
        <time>2020-06-29T06:55:25Z</time>
      </trkpt>
      <trkpt lat="48.74046" lon="7.04792">
        <ele>253.9</ele>
        <time>2020-06-29T06:55:26Z</time>
      </trkpt>
      <trkpt lat="48.74042" lon="7.04789">
        <ele>254</ele>
        <time>2020-06-29T06:55:27Z</time>
      </trkpt>
      <trkpt lat="48.7404" lon="7.04787">
        <ele>254</ele>
        <time>2020-06-29T06:55:28Z</time>
      </trkpt>
      <trkpt lat="48.74036" lon="7.04785">
        <ele>254</ele>
        <time>2020-06-29T06:55:29Z</time>
      </trkpt>
      <trkpt lat="48.74033" lon="7.04784">
        <ele>254.1</ele>
        <time>2020-06-29T06:55:30Z</time>
      </trkpt>
      <trkpt lat="48.74029" lon="7.04782">
        <ele>254.1</ele>
        <time>2020-06-29T06:55:31Z</time>
      </trkpt>
      <trkpt lat="48.74026" lon="7.04782">
        <ele>254.1</ele>
        <time>2020-06-29T06:55:32Z</time>
      </trkpt>
      <trkpt lat="48.74022" lon="7.04781">
        <ele>254.2</ele>
        <time>2020-06-29T06:55:33Z</time>
      </trkpt>
      <trkpt lat="48.7402" lon="7.0478">
        <ele>254.2</ele>
        <time>2020-06-29T06:55:34Z</time>
      </trkpt>
      <trkpt lat="48.74016" lon="7.04779">
        <ele>254.3</ele>
        <time>2020-06-29T06:55:35Z</time>
      </trkpt>
      <trkpt lat="48.74012" lon="7.04779">
        <ele>254.3</ele>
        <time>2020-06-29T06:55:36Z</time>
      </trkpt>
      <trkpt lat="48.74007" lon="7.04779">
        <ele>254.3</ele>
        <time>2020-06-29T06:55:37Z</time>
      </trkpt>
      <trkpt lat="48.74002" lon="7.0478">
        <ele>254.3</ele>
        <time>2020-06-29T06:55:38Z</time>
      </trkpt>
      <trkpt lat="48.73998" lon="7.0478">
        <ele>254.3</ele>
        <time>2020-06-29T06:55:39Z</time>
      </trkpt>
      <trkpt lat="48.73993" lon="7.0478">
        <ele>254.3</ele>
        <time>2020-06-29T06:55:40Z</time>
      </trkpt>
      <trkpt lat="48.7399" lon="7.04778">
        <ele>254.3</ele>
        <time>2020-06-29T06:55:41Z</time>
      </trkpt>
      <trkpt lat="48.73986" lon="7.04777">
        <ele>254.3</ele>
        <time>2020-06-29T06:55:42Z</time>
      </trkpt>
      <trkpt lat="48.73981" lon="7.04778">
        <ele>254.3</ele>
        <time>2020-06-29T06:55:43Z</time>
      </trkpt>
      <trkpt lat="48.73976" lon="7.04776">
        <ele>254.3</ele>
        <time>2020-06-29T06:55:44Z</time>
      </trkpt>
      <trkpt lat="48.7397" lon="7.04776">
        <ele>254.3</ele>
        <time>2020-06-29T06:55:45Z</time>
      </trkpt>
      <trkpt lat="48.73965" lon="7.04777">
        <ele>254.3</ele>
        <time>2020-06-29T06:55:46Z</time>
      </trkpt>
      <trkpt lat="48.7396" lon="7.04779">
        <ele>254.3</ele>
        <time>2020-06-29T06:55:47Z</time>
      </trkpt>
      <trkpt lat="48.73954" lon="7.04781">
        <ele>254.3</ele>
        <time>2020-06-29T06:55:48Z</time>
      </trkpt>
      <trkpt lat="48.73949" lon="7.04783">
        <ele>254.3</ele>
        <time>2020-06-29T06:55:49Z</time>
      </trkpt>
      <trkpt lat="48.73944" lon="7.04788">
        <ele>254.4</ele>
        <time>2020-06-29T06:55:50Z</time>
      </trkpt>
      <trkpt lat="48.7394" lon="7.04794">
        <ele>254.4</ele>
        <time>2020-06-29T06:55:51Z</time>
      </trkpt>
      <trkpt lat="48.73935" lon="7.04799">
        <ele>254.4</ele>
        <time>2020-06-29T06:55:52Z</time>
      </trkpt>
      <trkpt lat="48.73931" lon="7.04804">
        <ele>254.5</ele>
        <time>2020-06-29T06:55:53Z</time>
      </trkpt>
      <trkpt lat="48.73926" lon="7.04808">
        <ele>254.5</ele>
        <time>2020-06-29T06:55:54Z</time>
      </trkpt>
      <trkpt lat="48.73922" lon="7.04812">
        <ele>254.6</ele>
        <time>2020-06-29T06:55:55Z</time>
      </trkpt>
      <trkpt lat="48.73918" lon="7.04815">
        <ele>254.7</ele>
        <time>2020-06-29T06:55:56Z</time>
      </trkpt>
      <trkpt lat="48.73915" lon="7.04819">
        <ele>254.8</ele>
        <time>2020-06-29T06:55:57Z</time>
      </trkpt>
      <trkpt lat="48.73911" lon="7.04823">
        <ele>254.9</ele>
        <time>2020-06-29T06:55:58Z</time>
      </trkpt>
      <trkpt lat="48.73907" lon="7.04826">
        <ele>255</ele>
        <time>2020-06-29T06:55:59Z</time>
      </trkpt>
      <trkpt lat="48.73903" lon="7.04829">
        <ele>255.1</ele>
        <time>2020-06-29T06:56:00Z</time>
      </trkpt>
      <trkpt lat="48.73898" lon="7.04833">
        <ele>255.2</ele>
        <time>2020-06-29T06:56:01Z</time>
      </trkpt>
      <trkpt lat="48.73894" lon="7.04836">
        <ele>255.3</ele>
        <time>2020-06-29T06:56:02Z</time>
      </trkpt>
      <trkpt lat="48.73888" lon="7.04839">
        <ele>255.4</ele>
        <time>2020-06-29T06:56:03Z</time>
      </trkpt>
      <trkpt lat="48.73883" lon="7.04842">
        <ele>255.6</ele>
        <time>2020-06-29T06:56:04Z</time>
      </trkpt>
      <trkpt lat="48.73878" lon="7.04845">
        <ele>255.7</ele>
        <time>2020-06-29T06:56:05Z</time>
      </trkpt>
      <trkpt lat="48.73874" lon="7.04847">
        <ele>255.8</ele>
        <time>2020-06-29T06:56:06Z</time>
      </trkpt>
      <trkpt lat="48.73869" lon="7.04849">
        <ele>255.9</ele>
        <time>2020-06-29T06:56:07Z</time>
      </trkpt>
      <trkpt lat="48.73864" lon="7.0485">
        <ele>256.1</ele>
        <time>2020-06-29T06:56:08Z</time>
      </trkpt>
      <trkpt lat="48.7386" lon="7.04851">
        <ele>256.3</ele>
        <time>2020-06-29T06:56:09Z</time>
      </trkpt>
      <trkpt lat="48.73855" lon="7.04851">
        <ele>256.5</ele>
        <time>2020-06-29T06:56:10Z</time>
      </trkpt>
      <trkpt lat="48.73851" lon="7.04849">
        <ele>256.7</ele>
        <time>2020-06-29T06:56:11Z</time>
      </trkpt>
      <trkpt lat="48.73848" lon="7.04848">
        <ele>256.8</ele>
        <time>2020-06-29T06:56:12Z</time>
      </trkpt>
      <trkpt lat="48.73845" lon="7.04845">
        <ele>257</ele>
        <time>2020-06-29T06:56:13Z</time>
      </trkpt>
      <trkpt lat="48.7384" lon="7.04844">
        <ele>257.2</ele>
        <time>2020-06-29T06:56:14Z</time>
      </trkpt>
      <trkpt lat="48.73836" lon="7.04841">
        <ele>257.4</ele>
        <time>2020-06-29T06:56:15Z</time>
      </trkpt>
      <trkpt lat="48.73833" lon="7.0484">
        <ele>257.6</ele>
        <time>2020-06-29T06:56:16Z</time>
      </trkpt>
      <trkpt lat="48.73829" lon="7.04836">
        <ele>257.8</ele>
        <time>2020-06-29T06:56:17Z</time>
      </trkpt>
      <trkpt lat="48.73825" lon="7.04834">
        <ele>258.1</ele>
        <time>2020-06-29T06:56:18Z</time>
      </trkpt>
      <trkpt lat="48.73821" lon="7.0483">
        <ele>258.4</ele>
        <time>2020-06-29T06:56:19Z</time>
      </trkpt>
      <trkpt lat="48.73817" lon="7.04828">
        <ele>258.6</ele>
        <time>2020-06-29T06:56:20Z</time>
      </trkpt>
      <trkpt lat="48.73814" lon="7.04825">
        <ele>258.8</ele>
        <time>2020-06-29T06:56:21Z</time>
      </trkpt>
      <trkpt lat="48.7381" lon="7.04823">
        <ele>259</ele>
        <time>2020-06-29T06:56:22Z</time>
      </trkpt>
      <trkpt lat="48.73806" lon="7.04821">
        <ele>259.2</ele>
        <time>2020-06-29T06:56:23Z</time>
      </trkpt>
      <trkpt lat="48.73802" lon="7.04819">
        <ele>259.4</ele>
        <time>2020-06-29T06:56:24Z</time>
      </trkpt>
      <trkpt lat="48.73799" lon="7.04815">
        <ele>259.6</ele>
        <time>2020-06-29T06:56:25Z</time>
      </trkpt>
      <trkpt lat="48.73796" lon="7.04813">
        <ele>259.8</ele>
        <time>2020-06-29T06:56:26Z</time>
      </trkpt>
      <trkpt lat="48.73792" lon="7.0481">
        <ele>259.9</ele>
        <time>2020-06-29T06:56:27Z</time>
      </trkpt>
      <trkpt lat="48.73789" lon="7.04805">
        <ele>260.1</ele>
        <time>2020-06-29T06:56:28Z</time>
      </trkpt>
      <trkpt lat="48.73786" lon="7.04801">
        <ele>260.2</ele>
        <time>2020-06-29T06:56:29Z</time>
      </trkpt>
      <trkpt lat="48.73783" lon="7.04797">
        <ele>260.4</ele>
        <time>2020-06-29T06:56:30Z</time>
      </trkpt>
      <trkpt lat="48.7378" lon="7.04793">
        <ele>260.5</ele>
        <time>2020-06-29T06:56:31Z</time>
      </trkpt>
      <trkpt lat="48.73777" lon="7.04789">
        <ele>260.6</ele>
        <time>2020-06-29T06:56:32Z</time>
      </trkpt>
      <trkpt lat="48.73774" lon="7.04785">
        <ele>260.7</ele>
        <time>2020-06-29T06:56:33Z</time>
      </trkpt>
      <trkpt lat="48.73771" lon="7.04781">
        <ele>260.8</ele>
        <time>2020-06-29T06:56:34Z</time>
      </trkpt>
      <trkpt lat="48.73768" lon="7.04778">
        <ele>260.8</ele>
        <time>2020-06-29T06:56:35Z</time>
      </trkpt>
      <trkpt lat="48.73762" lon="7.04774">
        <ele>260.8</ele>
        <time>2020-06-29T06:56:36Z</time>
      </trkpt>
      <trkpt lat="48.73759" lon="7.04769">
        <ele>260.8</ele>
        <time>2020-06-29T06:56:37Z</time>
      </trkpt>
      <trkpt lat="48.73755" lon="7.04764">
        <ele>260.8</ele>
        <time>2020-06-29T06:56:38Z</time>
      </trkpt>
      <trkpt lat="48.73752" lon="7.04759">
        <ele>260.8</ele>
        <time>2020-06-29T06:56:39Z</time>
      </trkpt>
      <trkpt lat="48.7375" lon="7.04756">
        <ele>260.8</ele>
        <time>2020-06-29T06:56:40Z</time>
      </trkpt>
      <trkpt lat="48.73745" lon="7.0475">
        <ele>260.8</ele>
        <time>2020-06-29T06:56:41Z</time>
      </trkpt>
      <trkpt lat="48.73741" lon="7.04744">
        <ele>260.8</ele>
        <time>2020-06-29T06:56:42Z</time>
      </trkpt>
      <trkpt lat="48.73736" lon="7.04739">
        <ele>260.8</ele>
        <time>2020-06-29T06:56:43Z</time>
      </trkpt>
      <trkpt lat="48.73732" lon="7.04733">
        <ele>260.7</ele>
        <time>2020-06-29T06:56:44Z</time>
      </trkpt>
      <trkpt lat="48.73729" lon="7.04728">
        <ele>260.7</ele>
        <time>2020-06-29T06:56:45Z</time>
      </trkpt>
      <trkpt lat="48.73726" lon="7.04724">
        <ele>260.6</ele>
        <time>2020-06-29T06:56:46Z</time>
      </trkpt>
      <trkpt lat="48.73722" lon="7.04719">
        <ele>260.6</ele>
        <time>2020-06-29T06:56:47Z</time>
      </trkpt>
      <trkpt lat="48.73718" lon="7.04714">
        <ele>260.5</ele>
        <time>2020-06-29T06:56:48Z</time>
      </trkpt>
      <trkpt lat="48.73714" lon="7.04708">
        <ele>260.4</ele>
        <time>2020-06-29T06:56:49Z</time>
      </trkpt>
      <trkpt lat="48.7371" lon="7.04703">
        <ele>260.3</ele>
        <time>2020-06-29T06:56:50Z</time>
      </trkpt>
      <trkpt lat="48.73709" lon="7.04699">
        <ele>260.2</ele>
        <time>2020-06-29T06:56:51Z</time>
      </trkpt>
      <trkpt lat="48.73705" lon="7.04695">
        <ele>260.1</ele>
        <time>2020-06-29T06:56:52Z</time>
      </trkpt>
      <trkpt lat="48.73702" lon="7.0469">
        <ele>260</ele>
        <time>2020-06-29T06:56:53Z</time>
      </trkpt>
      <trkpt lat="48.73699" lon="7.04686">
        <ele>259.9</ele>
        <time>2020-06-29T06:56:54Z</time>
      </trkpt>
      <trkpt lat="48.73696" lon="7.04682">
        <ele>259.8</ele>
        <time>2020-06-29T06:56:55Z</time>
      </trkpt>
      <trkpt lat="48.73693" lon="7.04678">
        <ele>259.7</ele>
        <time>2020-06-29T06:56:56Z</time>
      </trkpt>
      <trkpt lat="48.7369" lon="7.04673">
        <ele>259.6</ele>
        <time>2020-06-29T06:56:57Z</time>
      </trkpt>
      <trkpt lat="48.73688" lon="7.04669">
        <ele>259.5</ele>
        <time>2020-06-29T06:56:58Z</time>
      </trkpt>
      <trkpt lat="48.73685" lon="7.04665">
        <ele>259.4</ele>
        <time>2020-06-29T06:56:59Z</time>
      </trkpt>
      <trkpt lat="48.73682" lon="7.0466">
        <ele>259.3</ele>
        <time>2020-06-29T06:57:00Z</time>
      </trkpt>
      <trkpt lat="48.73681" lon="7.04656">
        <ele>259.2</ele>
        <time>2020-06-29T06:57:01Z</time>
      </trkpt>
      <trkpt lat="48.73678" lon="7.04651">
        <ele>259</ele>
        <time>2020-06-29T06:57:02Z</time>
      </trkpt>
      <trkpt lat="48.73675" lon="7.04645">
        <ele>258.9</ele>
        <time>2020-06-29T06:57:03Z</time>
      </trkpt>
      <trkpt lat="48.73672" lon="7.04638">
        <ele>258.7</ele>
        <time>2020-06-29T06:57:04Z</time>
      </trkpt>
      <trkpt lat="48.73668" lon="7.04633">
        <ele>258.5</ele>
        <time>2020-06-29T06:57:05Z</time>
      </trkpt>
      <trkpt lat="48.73664" lon="7.04627">
        <ele>258.3</ele>
        <time>2020-06-29T06:57:06Z</time>
      </trkpt>
      <trkpt lat="48.73661" lon="7.04619">
        <ele>258.3</ele>
        <time>2020-06-29T06:57:07Z</time>
      </trkpt>
      <trkpt lat="48.73657" lon="7.04611">
        <ele>258.4</ele>
        <time>2020-06-29T06:57:08Z</time>
      </trkpt>
      <trkpt lat="48.73652" lon="7.04607">
        <ele>258.5</ele>
        <time>2020-06-29T06:57:09Z</time>
      </trkpt>
      <trkpt lat="48.73647" lon="7.04604">
        <ele>259.3</ele>
        <time>2020-06-29T06:57:10Z</time>
      </trkpt>
      <trkpt lat="48.7364" lon="7.04601">
        <ele>258.7</ele>
        <time>2020-06-29T06:57:11Z</time>
      </trkpt>
      <trkpt lat="48.73635" lon="7.04598">
        <ele>258.1</ele>
        <time>2020-06-29T06:57:12Z</time>
      </trkpt>
      <trkpt lat="48.73631" lon="7.04592">
        <ele>257.5</ele>
        <time>2020-06-29T06:57:13Z</time>
      </trkpt>
      <trkpt lat="48.73627" lon="7.04585">
        <ele>256.9</ele>
        <time>2020-06-29T06:57:14Z</time>
      </trkpt>
      <trkpt lat="48.73623" lon="7.04578">
        <ele>256.2</ele>
        <time>2020-06-29T06:57:15Z</time>
      </trkpt>
      <trkpt lat="48.7362" lon="7.04569">
        <ele>255.6</ele>
        <time>2020-06-29T06:57:16Z</time>
      </trkpt>
      <trkpt lat="48.73617" lon="7.04562">
        <ele>255.5</ele>
        <time>2020-06-29T06:57:17Z</time>
      </trkpt>
      <trkpt lat="48.73613" lon="7.04555">
        <ele>255.5</ele>
        <time>2020-06-29T06:57:18Z</time>
      </trkpt>
      <trkpt lat="48.7361" lon="7.04548">
        <ele>255.4</ele>
        <time>2020-06-29T06:57:19Z</time>
      </trkpt>
      <trkpt lat="48.73606" lon="7.0454">
        <ele>255.3</ele>
        <time>2020-06-29T06:57:20Z</time>
      </trkpt>
      <trkpt lat="48.73601" lon="7.04533">
        <ele>255.2</ele>
        <time>2020-06-29T06:57:21Z</time>
      </trkpt>
      <trkpt lat="48.73597" lon="7.04526">
        <ele>255.1</ele>
        <time>2020-06-29T06:57:22Z</time>
      </trkpt>
      <trkpt lat="48.73593" lon="7.04519">
        <ele>255</ele>
        <time>2020-06-29T06:57:23Z</time>
      </trkpt>
      <trkpt lat="48.73589" lon="7.04512">
        <ele>254.9</ele>
        <time>2020-06-29T06:57:24Z</time>
      </trkpt>
      <trkpt lat="48.73586" lon="7.04504">
        <ele>254.9</ele>
        <time>2020-06-29T06:57:25Z</time>
      </trkpt>
      <trkpt lat="48.73581" lon="7.04497">
        <ele>254.8</ele>
        <time>2020-06-29T06:57:26Z</time>
      </trkpt>
      <trkpt lat="48.73576" lon="7.04489">
        <ele>254.8</ele>
        <time>2020-06-29T06:57:27Z</time>
      </trkpt>
      <trkpt lat="48.73572" lon="7.04482">
        <ele>254.8</ele>
        <time>2020-06-29T06:57:28Z</time>
      </trkpt>
      <trkpt lat="48.73568" lon="7.04474">
        <ele>254.8</ele>
        <time>2020-06-29T06:57:29Z</time>
      </trkpt>
      <trkpt lat="48.73564" lon="7.04466">
        <ele>254.8</ele>
        <time>2020-06-29T06:57:30Z</time>
      </trkpt>
      <trkpt lat="48.73561" lon="7.04457">
        <ele>254.8</ele>
        <time>2020-06-29T06:57:31Z</time>
      </trkpt>
      <trkpt lat="48.73558" lon="7.0445">
        <ele>254.8</ele>
        <time>2020-06-29T06:57:32Z</time>
      </trkpt>
      <trkpt lat="48.73555" lon="7.04442">
        <ele>254.8</ele>
        <time>2020-06-29T06:57:33Z</time>
      </trkpt>
      <trkpt lat="48.73553" lon="7.04435">
        <ele>254.8</ele>
        <time>2020-06-29T06:57:34Z</time>
      </trkpt>
      <trkpt lat="48.73549" lon="7.04429">
        <ele>254.8</ele>
        <time>2020-06-29T06:57:35Z</time>
      </trkpt>
      <trkpt lat="48.73546" lon="7.04423">
        <ele>254.8</ele>
        <time>2020-06-29T06:57:36Z</time>
      </trkpt>
      <trkpt lat="48.73544" lon="7.04415">
        <ele>254.8</ele>
        <time>2020-06-29T06:57:37Z</time>
      </trkpt>
      <trkpt lat="48.7354" lon="7.04408">
        <ele>254.8</ele>
        <time>2020-06-29T06:57:38Z</time>
      </trkpt>
      <trkpt lat="48.73538" lon="7.04401">
        <ele>254.8</ele>
        <time>2020-06-29T06:57:39Z</time>
      </trkpt>
      <trkpt lat="48.73534" lon="7.04394">
        <ele>254.9</ele>
        <time>2020-06-29T06:57:40Z</time>
      </trkpt>
      <trkpt lat="48.73531" lon="7.04387">
        <ele>254.9</ele>
        <time>2020-06-29T06:57:41Z</time>
      </trkpt>
      <trkpt lat="48.73528" lon="7.0438">
        <ele>254.9</ele>
        <time>2020-06-29T06:57:42Z</time>
      </trkpt>
      <trkpt lat="48.73525" lon="7.04375">
        <ele>255</ele>
        <time>2020-06-29T06:57:43Z</time>
      </trkpt>
      <trkpt lat="48.73522" lon="7.0437">
        <ele>255</ele>
        <time>2020-06-29T06:57:44Z</time>
      </trkpt>
      <trkpt lat="48.73519" lon="7.04364">
        <ele>255</ele>
        <time>2020-06-29T06:57:45Z</time>
      </trkpt>
      <trkpt lat="48.73515" lon="7.04358">
        <ele>255</ele>
        <time>2020-06-29T06:57:46Z</time>
      </trkpt>
      <trkpt lat="48.73512" lon="7.04352">
        <ele>255</ele>
        <time>2020-06-29T06:57:47Z</time>
      </trkpt>
      <trkpt lat="48.73509" lon="7.04346">
        <ele>255</ele>
        <time>2020-06-29T06:57:48Z</time>
      </trkpt>
      <trkpt lat="48.73506" lon="7.0434">
        <ele>255</ele>
        <time>2020-06-29T06:57:49Z</time>
      </trkpt>
      <trkpt lat="48.73504" lon="7.04334">
        <ele>255</ele>
        <time>2020-06-29T06:57:50Z</time>
      </trkpt>
      <trkpt lat="48.73502" lon="7.04328">
        <ele>255</ele>
        <time>2020-06-29T06:57:51Z</time>
      </trkpt>
      <trkpt lat="48.735" lon="7.04322">
        <ele>255.1</ele>
        <time>2020-06-29T06:57:52Z</time>
      </trkpt>
      <trkpt lat="48.73498" lon="7.04317">
        <ele>255.1</ele>
        <time>2020-06-29T06:57:53Z</time>
      </trkpt>
      <trkpt lat="48.73495" lon="7.0431">
        <ele>255.1</ele>
        <time>2020-06-29T06:57:54Z</time>
      </trkpt>
      <trkpt lat="48.73494" lon="7.04305">
        <ele>255.1</ele>
        <time>2020-06-29T06:57:55Z</time>
      </trkpt>
      <trkpt lat="48.73494" lon="7.04299">
        <ele>255.1</ele>
        <time>2020-06-29T06:57:56Z</time>
      </trkpt>
      <trkpt lat="48.73494" lon="7.04291">
        <ele>255.1</ele>
        <time>2020-06-29T06:57:57Z</time>
      </trkpt>
      <trkpt lat="48.73493" lon="7.04285">
        <ele>255.1</ele>
        <time>2020-06-29T06:57:58Z</time>
      </trkpt>
      <trkpt lat="48.73491" lon="7.04278">
        <ele>255</ele>
        <time>2020-06-29T06:57:59Z</time>
      </trkpt>
      <trkpt lat="48.73488" lon="7.04273">
        <ele>255.2</ele>
        <time>2020-06-29T06:58:00Z</time>
      </trkpt>
      <trkpt lat="48.73483" lon="7.04271">
        <ele>255.5</ele>
        <time>2020-06-29T06:58:01Z</time>
      </trkpt>
      <trkpt lat="48.73479" lon="7.0427">
        <ele>255.7</ele>
        <time>2020-06-29T06:58:02Z</time>
      </trkpt>
      <trkpt lat="48.73474" lon="7.04271">
        <ele>255.6</ele>
        <time>2020-06-29T06:58:03Z</time>
      </trkpt>
      <trkpt lat="48.7347" lon="7.04272">
        <ele>255.5</ele>
        <time>2020-06-29T06:58:04Z</time>
      </trkpt>
      <trkpt lat="48.73466" lon="7.04271">
        <ele>255.3</ele>
        <time>2020-06-29T06:58:05Z</time>
      </trkpt>
      <trkpt lat="48.73462" lon="7.04269">
        <ele>255.1</ele>
        <time>2020-06-29T06:58:06Z</time>
      </trkpt>
      <trkpt lat="48.73458" lon="7.04263">
        <ele>254.9</ele>
        <time>2020-06-29T06:58:07Z</time>
      </trkpt>
      <trkpt lat="48.73455" lon="7.04258">
        <ele>254.7</ele>
        <time>2020-06-29T06:58:08Z</time>
      </trkpt>
      <trkpt lat="48.73452" lon="7.04252">
        <ele>254.5</ele>
        <time>2020-06-29T06:58:09Z</time>
      </trkpt>
      <trkpt lat="48.73449" lon="7.04247">
        <ele>254.3</ele>
        <time>2020-06-29T06:58:10Z</time>
      </trkpt>
      <trkpt lat="48.73446" lon="7.04241">
        <ele>254.1</ele>
        <time>2020-06-29T06:58:11Z</time>
      </trkpt>
      <trkpt lat="48.73442" lon="7.04235">
        <ele>253.9</ele>
        <time>2020-06-29T06:58:12Z</time>
      </trkpt>
      <trkpt lat="48.73439" lon="7.04228">
        <ele>253.6</ele>
        <time>2020-06-29T06:58:13Z</time>
      </trkpt>
      <trkpt lat="48.73436" lon="7.04222">
        <ele>253.4</ele>
        <time>2020-06-29T06:58:14Z</time>
      </trkpt>
      <trkpt lat="48.73433" lon="7.04216">
        <ele>253.2</ele>
        <time>2020-06-29T06:58:15Z</time>
      </trkpt>
      <trkpt lat="48.7343" lon="7.0421">
        <ele>253</ele>
        <time>2020-06-29T06:58:16Z</time>
      </trkpt>
      <trkpt lat="48.73427" lon="7.04204">
        <ele>252.8</ele>
        <time>2020-06-29T06:58:17Z</time>
      </trkpt>
      <trkpt lat="48.73424" lon="7.04198">
        <ele>252.6</ele>
        <time>2020-06-29T06:58:18Z</time>
      </trkpt>
      <trkpt lat="48.7342" lon="7.04192">
        <ele>252.4</ele>
        <time>2020-06-29T06:58:19Z</time>
      </trkpt>
      <trkpt lat="48.73416" lon="7.04187">
        <ele>252.2</ele>
        <time>2020-06-29T06:58:20Z</time>
      </trkpt>
      <trkpt lat="48.73411" lon="7.0418">
        <ele>252</ele>
        <time>2020-06-29T06:58:21Z</time>
      </trkpt>
      <trkpt lat="48.73407" lon="7.04174">
        <ele>251.8</ele>
        <time>2020-06-29T06:58:22Z</time>
      </trkpt>
      <trkpt lat="48.73403" lon="7.04168">
        <ele>251.6</ele>
        <time>2020-06-29T06:58:23Z</time>
      </trkpt>
      <trkpt lat="48.73399" lon="7.04161">
        <ele>251.3</ele>
        <time>2020-06-29T06:58:24Z</time>
      </trkpt>
      <trkpt lat="48.73396" lon="7.04154">
        <ele>251.1</ele>
        <time>2020-06-29T06:58:25Z</time>
      </trkpt>
      <trkpt lat="48.73391" lon="7.04147">
        <ele>251</ele>
        <time>2020-06-29T06:58:26Z</time>
      </trkpt>
      <trkpt lat="48.73387" lon="7.04141">
        <ele>250.8</ele>
        <time>2020-06-29T06:58:27Z</time>
      </trkpt>
      <trkpt lat="48.73383" lon="7.04134">
        <ele>250.7</ele>
        <time>2020-06-29T06:58:28Z</time>
      </trkpt>
      <trkpt lat="48.73378" lon="7.04128">
        <ele>250.5</ele>
        <time>2020-06-29T06:58:29Z</time>
      </trkpt>
      <trkpt lat="48.73373" lon="7.04122">
        <ele>250.4</ele>
        <time>2020-06-29T06:58:30Z</time>
      </trkpt>
      <trkpt lat="48.73368" lon="7.04117">
        <ele>250.3</ele>
        <time>2020-06-29T06:58:31Z</time>
      </trkpt>
      <trkpt lat="48.73364" lon="7.0411">
        <ele>250.2</ele>
        <time>2020-06-29T06:58:32Z</time>
      </trkpt>
      <trkpt lat="48.73359" lon="7.04103">
        <ele>250.1</ele>
        <time>2020-06-29T06:58:33Z</time>
      </trkpt>
      <trkpt lat="48.73355" lon="7.04098">
        <ele>250</ele>
        <time>2020-06-29T06:58:34Z</time>
      </trkpt>
      <trkpt lat="48.7335" lon="7.04093">
        <ele>250.1</ele>
        <time>2020-06-29T06:58:35Z</time>
      </trkpt>
      <trkpt lat="48.73346" lon="7.04088">
        <ele>250.2</ele>
        <time>2020-06-29T06:58:36Z</time>
      </trkpt>
      <trkpt lat="48.73341" lon="7.04084">
        <ele>250.3</ele>
        <time>2020-06-29T06:58:37Z</time>
      </trkpt>
      <trkpt lat="48.73338" lon="7.04079">
        <ele>250.3</ele>
        <time>2020-06-29T06:58:38Z</time>
      </trkpt>
      <trkpt lat="48.73334" lon="7.04075">
        <ele>250.2</ele>
        <time>2020-06-29T06:58:39Z</time>
      </trkpt>
      <trkpt lat="48.73331" lon="7.04069">
        <ele>250.2</ele>
        <time>2020-06-29T06:58:40Z</time>
      </trkpt>
      <trkpt lat="48.73327" lon="7.04062">
        <ele>250.1</ele>
        <time>2020-06-29T06:58:41Z</time>
      </trkpt>
      <trkpt lat="48.73324" lon="7.04056">
        <ele>250</ele>
        <time>2020-06-29T06:58:42Z</time>
      </trkpt>
      <trkpt lat="48.7332" lon="7.04048">
        <ele>249.9</ele>
        <time>2020-06-29T06:58:43Z</time>
      </trkpt>
      <trkpt lat="48.73316" lon="7.04042">
        <ele>249.9</ele>
        <time>2020-06-29T06:58:44Z</time>
      </trkpt>
      <trkpt lat="48.73313" lon="7.04035">
        <ele>249.8</ele>
        <time>2020-06-29T06:58:45Z</time>
      </trkpt>
      <trkpt lat="48.73308" lon="7.04027">
        <ele>249.8</ele>
        <time>2020-06-29T06:58:46Z</time>
      </trkpt>
      <trkpt lat="48.73304" lon="7.04021">
        <ele>249.8</ele>
        <time>2020-06-29T06:58:47Z</time>
      </trkpt>
      <trkpt lat="48.73301" lon="7.04014">
        <ele>249.8</ele>
        <time>2020-06-29T06:58:48Z</time>
      </trkpt>
      <trkpt lat="48.73298" lon="7.04009">
        <ele>249.7</ele>
        <time>2020-06-29T06:58:49Z</time>
      </trkpt>
      <trkpt lat="48.73294" lon="7.04004">
        <ele>249.7</ele>
        <time>2020-06-29T06:58:50Z</time>
      </trkpt>
      <trkpt lat="48.7329" lon="7.03999">
        <ele>249.7</ele>
        <time>2020-06-29T06:58:51Z</time>
      </trkpt>
      <trkpt lat="48.73287" lon="7.03993">
        <ele>249.7</ele>
        <time>2020-06-29T06:58:52Z</time>
      </trkpt>
      <trkpt lat="48.73284" lon="7.03987">
        <ele>249.8</ele>
        <time>2020-06-29T06:58:53Z</time>
      </trkpt>
      <trkpt lat="48.7328" lon="7.0398">
        <ele>249.8</ele>
        <time>2020-06-29T06:58:54Z</time>
      </trkpt>
      <trkpt lat="48.73277" lon="7.03973">
        <ele>249.8</ele>
        <time>2020-06-29T06:58:55Z</time>
      </trkpt>
      <trkpt lat="48.73273" lon="7.03967">
        <ele>249.8</ele>
        <time>2020-06-29T06:58:56Z</time>
      </trkpt>
      <trkpt lat="48.73271" lon="7.0396">
        <ele>249.8</ele>
        <time>2020-06-29T06:58:57Z</time>
      </trkpt>
      <trkpt lat="48.73268" lon="7.03953">
        <ele>249.8</ele>
        <time>2020-06-29T06:58:58Z</time>
      </trkpt>
      <trkpt lat="48.73264" lon="7.03947">
        <ele>249.9</ele>
        <time>2020-06-29T06:58:59Z</time>
      </trkpt>
      <trkpt lat="48.73263" lon="7.0394">
        <ele>249.9</ele>
        <time>2020-06-29T06:59:00Z</time>
      </trkpt>
      <trkpt lat="48.73259" lon="7.03934">
        <ele>249.9</ele>
        <time>2020-06-29T06:59:01Z</time>
      </trkpt>
      <trkpt lat="48.73256" lon="7.03927">
        <ele>250</ele>
        <time>2020-06-29T06:59:02Z</time>
      </trkpt>
      <trkpt lat="48.73253" lon="7.03919">
        <ele>250</ele>
        <time>2020-06-29T06:59:03Z</time>
      </trkpt>
      <trkpt lat="48.73249" lon="7.03912">
        <ele>250</ele>
        <time>2020-06-29T06:59:04Z</time>
      </trkpt>
      <trkpt lat="48.73245" lon="7.03906">
        <ele>250.1</ele>
        <time>2020-06-29T06:59:05Z</time>
      </trkpt>
      <trkpt lat="48.73241" lon="7.039">
        <ele>250.1</ele>
        <time>2020-06-29T06:59:06Z</time>
      </trkpt>
      <trkpt lat="48.73237" lon="7.03894">
        <ele>250.1</ele>
        <time>2020-06-29T06:59:07Z</time>
      </trkpt>
      <trkpt lat="48.73234" lon="7.03888">
        <ele>250.2</ele>
        <time>2020-06-29T06:59:08Z</time>
      </trkpt>
      <trkpt lat="48.7323" lon="7.03882">
        <ele>250.2</ele>
        <time>2020-06-29T06:59:09Z</time>
      </trkpt>
      <trkpt lat="48.73227" lon="7.03876">
        <ele>250.3</ele>
        <time>2020-06-29T06:59:10Z</time>
      </trkpt>
      <trkpt lat="48.73223" lon="7.03869">
        <ele>250.4</ele>
        <time>2020-06-29T06:59:11Z</time>
      </trkpt>
      <trkpt lat="48.73221" lon="7.03862">
        <ele>250.4</ele>
        <time>2020-06-29T06:59:12Z</time>
      </trkpt>
      <trkpt lat="48.73217" lon="7.03855">
        <ele>250.5</ele>
        <time>2020-06-29T06:59:13Z</time>
      </trkpt>
      <trkpt lat="48.73214" lon="7.03848">
        <ele>250.5</ele>
        <time>2020-06-29T06:59:14Z</time>
      </trkpt>
      <trkpt lat="48.73211" lon="7.03841">
        <ele>250.6</ele>
        <time>2020-06-29T06:59:15Z</time>
      </trkpt>
      <trkpt lat="48.73208" lon="7.03834">
        <ele>250.6</ele>
        <time>2020-06-29T06:59:16Z</time>
      </trkpt>
      <trkpt lat="48.73205" lon="7.03827">
        <ele>250.7</ele>
        <time>2020-06-29T06:59:17Z</time>
      </trkpt>
      <trkpt lat="48.73201" lon="7.03822">
        <ele>250.9</ele>
        <time>2020-06-29T06:59:18Z</time>
      </trkpt>
      <trkpt lat="48.73198" lon="7.03815">
        <ele>251</ele>
        <time>2020-06-29T06:59:19Z</time>
      </trkpt>
      <trkpt lat="48.73195" lon="7.03809">
        <ele>251.1</ele>
        <time>2020-06-29T06:59:20Z</time>
      </trkpt>
      <trkpt lat="48.73192" lon="7.03803">
        <ele>251.2</ele>
        <time>2020-06-29T06:59:21Z</time>
      </trkpt>
      <trkpt lat="48.73189" lon="7.03796">
        <ele>251.4</ele>
        <time>2020-06-29T06:59:22Z</time>
      </trkpt>
      <trkpt lat="48.73187" lon="7.0379">
        <ele>251.6</ele>
        <time>2020-06-29T06:59:23Z</time>
      </trkpt>
      <trkpt lat="48.73184" lon="7.03784">
        <ele>251.7</ele>
        <time>2020-06-29T06:59:24Z</time>
      </trkpt>
      <trkpt lat="48.73181" lon="7.03777">
        <ele>251.9</ele>
        <time>2020-06-29T06:59:25Z</time>
      </trkpt>
      <trkpt lat="48.73178" lon="7.03771">
        <ele>252</ele>
        <time>2020-06-29T06:59:26Z</time>
      </trkpt>
      <trkpt lat="48.73176" lon="7.03765">
        <ele>252.1</ele>
        <time>2020-06-29T06:59:27Z</time>
      </trkpt>
      <trkpt lat="48.73172" lon="7.0376">
        <ele>252.3</ele>
        <time>2020-06-29T06:59:28Z</time>
      </trkpt>
      <trkpt lat="48.73169" lon="7.03755">
        <ele>252.4</ele>
        <time>2020-06-29T06:59:29Z</time>
      </trkpt>
      <trkpt lat="48.73168" lon="7.03749">
        <ele>252.6</ele>
        <time>2020-06-29T06:59:30Z</time>
      </trkpt>
      <trkpt lat="48.73166" lon="7.03743">
        <ele>252.8</ele>
        <time>2020-06-29T06:59:31Z</time>
      </trkpt>
      <trkpt lat="48.73163" lon="7.03737">
        <ele>252.9</ele>
        <time>2020-06-29T06:59:32Z</time>
      </trkpt>
      <trkpt lat="48.73161" lon="7.03732">
        <ele>253.1</ele>
        <time>2020-06-29T06:59:33Z</time>
      </trkpt>
      <trkpt lat="48.73159" lon="7.03725">
        <ele>253.3</ele>
        <time>2020-06-29T06:59:34Z</time>
      </trkpt>
      <trkpt lat="48.73155" lon="7.03719">
        <ele>253.5</ele>
        <time>2020-06-29T06:59:35Z</time>
      </trkpt>
      <trkpt lat="48.73152" lon="7.03714">
        <ele>253.6</ele>
        <time>2020-06-29T06:59:36Z</time>
      </trkpt>
      <trkpt lat="48.73149" lon="7.03708">
        <ele>253.8</ele>
        <time>2020-06-29T06:59:37Z</time>
      </trkpt>
      <trkpt lat="48.73146" lon="7.03702">
        <ele>254</ele>
        <time>2020-06-29T06:59:38Z</time>
      </trkpt>
      <trkpt lat="48.73143" lon="7.03697">
        <ele>254.2</ele>
        <time>2020-06-29T06:59:39Z</time>
      </trkpt>
      <trkpt lat="48.73141" lon="7.03692">
        <ele>254.4</ele>
        <time>2020-06-29T06:59:40Z</time>
      </trkpt>
      <trkpt lat="48.73138" lon="7.03687">
        <ele>254.6</ele>
        <time>2020-06-29T06:59:41Z</time>
      </trkpt>
      <trkpt lat="48.73135" lon="7.03682">
        <ele>254.8</ele>
        <time>2020-06-29T06:59:42Z</time>
      </trkpt>
      <trkpt lat="48.73133" lon="7.03676">
        <ele>255</ele>
        <time>2020-06-29T06:59:43Z</time>
      </trkpt>
      <trkpt lat="48.7313" lon="7.03672">
        <ele>255.2</ele>
        <time>2020-06-29T06:59:44Z</time>
      </trkpt>
      <trkpt lat="48.73128" lon="7.03667">
        <ele>255.4</ele>
        <time>2020-06-29T06:59:45Z</time>
      </trkpt>
      <trkpt lat="48.73126" lon="7.03662">
        <ele>255.6</ele>
        <time>2020-06-29T06:59:46Z</time>
      </trkpt>
      <trkpt lat="48.73123" lon="7.03657">
        <ele>255.8</ele>
        <time>2020-06-29T06:59:47Z</time>
      </trkpt>
      <trkpt lat="48.7312" lon="7.03653">
        <ele>256</ele>
        <time>2020-06-29T06:59:48Z</time>
      </trkpt>
      <trkpt lat="48.73118" lon="7.03649">
        <ele>256.1</ele>
        <time>2020-06-29T06:59:49Z</time>
      </trkpt>
      <trkpt lat="48.73117" lon="7.03643">
        <ele>256.3</ele>
        <time>2020-06-29T06:59:50Z</time>
      </trkpt>
      <trkpt lat="48.73115" lon="7.03639">
        <ele>256.4</ele>
        <time>2020-06-29T06:59:51Z</time>
      </trkpt>
      <trkpt lat="48.73113" lon="7.03634">
        <ele>256.5</ele>
        <time>2020-06-29T06:59:52Z</time>
      </trkpt>
      <trkpt lat="48.7311" lon="7.03629">
        <ele>256.7</ele>
        <time>2020-06-29T06:59:53Z</time>
      </trkpt>
      <trkpt lat="48.73108" lon="7.03625">
        <ele>256.9</ele>
        <time>2020-06-29T06:59:54Z</time>
      </trkpt>
      <trkpt lat="48.73106" lon="7.0362">
        <ele>257.1</ele>
        <time>2020-06-29T06:59:55Z</time>
      </trkpt>
      <trkpt lat="48.73103" lon="7.03615">
        <ele>257.3</ele>
        <time>2020-06-29T06:59:56Z</time>
      </trkpt>
      <trkpt lat="48.731" lon="7.03611">
        <ele>257.5</ele>
        <time>2020-06-29T06:59:57Z</time>
      </trkpt>
      <trkpt lat="48.73098" lon="7.03605">
        <ele>257.7</ele>
        <time>2020-06-29T06:59:58Z</time>
      </trkpt>
      <trkpt lat="48.73096" lon="7.036">
        <ele>257.8</ele>
        <time>2020-06-29T06:59:59Z</time>
      </trkpt>
      <trkpt lat="48.73093" lon="7.03596">
        <ele>258</ele>
        <time>2020-06-29T07:00:00Z</time>
      </trkpt>
      <trkpt lat="48.73091" lon="7.03589">
        <ele>258.2</ele>
        <time>2020-06-29T07:00:01Z</time>
      </trkpt>
      <trkpt lat="48.73089" lon="7.03583">
        <ele>258.4</ele>
        <time>2020-06-29T07:00:02Z</time>
      </trkpt>
      <trkpt lat="48.73087" lon="7.03578">
        <ele>258.5</ele>
        <time>2020-06-29T07:00:03Z</time>
      </trkpt>
      <trkpt lat="48.73085" lon="7.03572">
        <ele>258.7</ele>
        <time>2020-06-29T07:00:04Z</time>
      </trkpt>
      <trkpt lat="48.73083" lon="7.03566">
        <ele>258.8</ele>
        <time>2020-06-29T07:00:05Z</time>
      </trkpt>
      <trkpt lat="48.7308" lon="7.03561">
        <ele>258.9</ele>
        <time>2020-06-29T07:00:06Z</time>
      </trkpt>
      <trkpt lat="48.73078" lon="7.03556">
        <ele>259</ele>
        <time>2020-06-29T07:00:07Z</time>
      </trkpt>
      <trkpt lat="48.73076" lon="7.03551">
        <ele>259.2</ele>
        <time>2020-06-29T07:00:08Z</time>
      </trkpt>
      <trkpt lat="48.73074" lon="7.03545">
        <ele>259.4</ele>
        <time>2020-06-29T07:00:09Z</time>
      </trkpt>
      <trkpt lat="48.73072" lon="7.03539">
        <ele>259.6</ele>
        <time>2020-06-29T07:00:10Z</time>
      </trkpt>
      <trkpt lat="48.73069" lon="7.03534">
        <ele>259.7</ele>
        <time>2020-06-29T07:00:11Z</time>
      </trkpt>
      <trkpt lat="48.73067" lon="7.03529">
        <ele>259.9</ele>
        <time>2020-06-29T07:00:12Z</time>
      </trkpt>
      <trkpt lat="48.73065" lon="7.03524">
        <ele>260.1</ele>
        <time>2020-06-29T07:00:13Z</time>
      </trkpt>
      <trkpt lat="48.73063" lon="7.03518">
        <ele>260.3</ele>
        <time>2020-06-29T07:00:14Z</time>
      </trkpt>
      <trkpt lat="48.73061" lon="7.03512">
        <ele>260.4</ele>
        <time>2020-06-29T07:00:15Z</time>
      </trkpt>
      <trkpt lat="48.73059" lon="7.03507">
        <ele>260.6</ele>
        <time>2020-06-29T07:00:16Z</time>
      </trkpt>
      <trkpt lat="48.73057" lon="7.03502">
        <ele>260.8</ele>
        <time>2020-06-29T07:00:17Z</time>
      </trkpt>
      <trkpt lat="48.73054" lon="7.03497">
        <ele>260.9</ele>
        <time>2020-06-29T07:00:18Z</time>
      </trkpt>
      <trkpt lat="48.73052" lon="7.03492">
        <ele>261.1</ele>
        <time>2020-06-29T07:00:19Z</time>
      </trkpt>
      <trkpt lat="48.7305" lon="7.03487">
        <ele>261.2</ele>
        <time>2020-06-29T07:00:20Z</time>
      </trkpt>
      <trkpt lat="48.73048" lon="7.03482">
        <ele>261.3</ele>
        <time>2020-06-29T07:00:21Z</time>
      </trkpt>
      <trkpt lat="48.73047" lon="7.03477">
        <ele>261.5</ele>
        <time>2020-06-29T07:00:22Z</time>
      </trkpt>
      <trkpt lat="48.73045" lon="7.03471">
        <ele>261.6</ele>
        <time>2020-06-29T07:00:23Z</time>
      </trkpt>
      <trkpt lat="48.73044" lon="7.03466">
        <ele>261.8</ele>
        <time>2020-06-29T07:00:24Z</time>
      </trkpt>
      <trkpt lat="48.73042" lon="7.03461">
        <ele>261.9</ele>
        <time>2020-06-29T07:00:25Z</time>
      </trkpt>
      <trkpt lat="48.73039" lon="7.03455">
        <ele>262</ele>
        <time>2020-06-29T07:00:26Z</time>
      </trkpt>
      <trkpt lat="48.73037" lon="7.0345">
        <ele>262.1</ele>
        <time>2020-06-29T07:00:27Z</time>
      </trkpt>
      <trkpt lat="48.73035" lon="7.03444">
        <ele>262.3</ele>
        <time>2020-06-29T07:00:28Z</time>
      </trkpt>
      <trkpt lat="48.73033" lon="7.03438">
        <ele>262.4</ele>
        <time>2020-06-29T07:00:29Z</time>
      </trkpt>
      <trkpt lat="48.73031" lon="7.03431">
        <ele>262.6</ele>
        <time>2020-06-29T07:00:30Z</time>
      </trkpt>
      <trkpt lat="48.73029" lon="7.03426">
        <ele>262.7</ele>
        <time>2020-06-29T07:00:31Z</time>
      </trkpt>
      <trkpt lat="48.73027" lon="7.0342">
        <ele>262.8</ele>
        <time>2020-06-29T07:00:32Z</time>
      </trkpt>
      <trkpt lat="48.73025" lon="7.03415">
        <ele>262.8</ele>
        <time>2020-06-29T07:00:33Z</time>
      </trkpt>
      <trkpt lat="48.73023" lon="7.0341">
        <ele>262.8</ele>
        <time>2020-06-29T07:00:34Z</time>
      </trkpt>
      <trkpt lat="48.73022" lon="7.03406">
        <ele>262.8</ele>
        <time>2020-06-29T07:00:35Z</time>
      </trkpt>
      <trkpt lat="48.7302" lon="7.03403">
        <ele>262.8</ele>
        <time>2020-06-29T07:00:36Z</time>
      </trkpt>
      <trkpt lat="48.73019" lon="7.034">
        <ele>262.8</ele>
        <time>2020-06-29T07:00:37Z</time>
      </trkpt>
      <trkpt lat="48.73018" lon="7.03399">
        <ele>262.8</ele>
        <time>2020-06-29T07:00:38Z</time>
      </trkpt>
      <trkpt lat="48.73018" lon="7.03397">
        <ele>262.8</ele>
        <time>2020-06-29T07:00:39Z</time>
      </trkpt>
      <trkpt lat="48.73018" lon="7.03395">
        <ele>262.8</ele>
        <time>2020-06-29T07:00:40Z</time>
      </trkpt>
      <trkpt lat="48.73018" lon="7.03394">
        <ele>262.8</ele>
        <time>2020-06-29T07:00:41Z</time>
      </trkpt>
      <trkpt lat="48.73018" lon="7.03393">
        <ele>262.8</ele>
        <time>2020-06-29T07:00:42Z</time>
      </trkpt>
      <trkpt lat="48.73017" lon="7.03388">
        <ele>262.8</ele>
        <time>2020-06-29T07:00:43Z</time>
      </trkpt>
      <trkpt lat="48.73016" lon="7.03387">
        <ele>262.8</ele>
        <time>2020-06-29T07:00:44Z</time>
      </trkpt>
      <trkpt lat="48.73013" lon="7.03385">
        <ele>262.8</ele>
        <time>2020-06-29T07:00:45Z</time>
      </trkpt>
      <trkpt lat="48.7301" lon="7.03385">
        <ele>262.8</ele>
        <time>2020-06-29T07:00:46Z</time>
      </trkpt>
      <trkpt lat="48.73006" lon="7.03383">
        <ele>262.8</ele>
        <time>2020-06-29T07:00:47Z</time>
      </trkpt>
      <trkpt lat="48.73003" lon="7.03382">
        <ele>262.8</ele>
        <time>2020-06-29T07:00:48Z</time>
      </trkpt>
      <trkpt lat="48.73" lon="7.0338">
        <ele>262.7</ele>
        <time>2020-06-29T07:00:49Z</time>
      </trkpt>
      <trkpt lat="48.72997" lon="7.03378">
        <ele>262.8</ele>
        <time>2020-06-29T07:00:50Z</time>
      </trkpt>
      <trkpt lat="48.72994" lon="7.03374">
        <ele>262.8</ele>
        <time>2020-06-29T07:00:51Z</time>
      </trkpt>
      <trkpt lat="48.72992" lon="7.03368">
        <ele>262.8</ele>
        <time>2020-06-29T07:00:52Z</time>
      </trkpt>
      <trkpt lat="48.7299" lon="7.03361">
        <ele>262.9</ele>
        <time>2020-06-29T07:00:53Z</time>
      </trkpt>
      <trkpt lat="48.72989" lon="7.03355">
        <ele>262.9</ele>
        <time>2020-06-29T07:00:54Z</time>
      </trkpt>
      <trkpt lat="48.72987" lon="7.03348">
        <ele>262.9</ele>
        <time>2020-06-29T07:00:55Z</time>
      </trkpt>
      <trkpt lat="48.72985" lon="7.03341">
        <ele>262.9</ele>
        <time>2020-06-29T07:00:56Z</time>
      </trkpt>
      <trkpt lat="48.72983" lon="7.03334">
        <ele>262.9</ele>
        <time>2020-06-29T07:00:57Z</time>
      </trkpt>
      <trkpt lat="48.72983" lon="7.03327">
        <ele>262.9</ele>
        <time>2020-06-29T07:00:58Z</time>
      </trkpt>
      <trkpt lat="48.72982" lon="7.03321">
        <ele>262.9</ele>
        <time>2020-06-29T07:00:59Z</time>
      </trkpt>
      <trkpt lat="48.72981" lon="7.03315">
        <ele>262.9</ele>
        <time>2020-06-29T07:01:00Z</time>
      </trkpt>
      <trkpt lat="48.7298" lon="7.03308">
        <ele>262.9</ele>
        <time>2020-06-29T07:01:01Z</time>
      </trkpt>
      <trkpt lat="48.72979" lon="7.03302">
        <ele>262.9</ele>
        <time>2020-06-29T07:01:02Z</time>
      </trkpt>
      <trkpt lat="48.72977" lon="7.03295">
        <ele>262.9</ele>
        <time>2020-06-29T07:01:03Z</time>
      </trkpt>
      <trkpt lat="48.72976" lon="7.03288">
        <ele>262.9</ele>
        <time>2020-06-29T07:01:04Z</time>
      </trkpt>
      <trkpt lat="48.72974" lon="7.03282">
        <ele>262.8</ele>
        <time>2020-06-29T07:01:05Z</time>
      </trkpt>
      <trkpt lat="48.72972" lon="7.03275">
        <ele>262.8</ele>
        <time>2020-06-29T07:01:06Z</time>
      </trkpt>
      <trkpt lat="48.7297" lon="7.03268">
        <ele>262.8</ele>
        <time>2020-06-29T07:01:07Z</time>
      </trkpt>
      <trkpt lat="48.72968" lon="7.03262">
        <ele>262.8</ele>
        <time>2020-06-29T07:01:08Z</time>
      </trkpt>
      <trkpt lat="48.72967" lon="7.03256">
        <ele>262.8</ele>
        <time>2020-06-29T07:01:09Z</time>
      </trkpt>
      <trkpt lat="48.72965" lon="7.03251">
        <ele>262.8</ele>
        <time>2020-06-29T07:01:10Z</time>
      </trkpt>
      <trkpt lat="48.72963" lon="7.03245">
        <ele>262.8</ele>
        <time>2020-06-29T07:01:11Z</time>
      </trkpt>
      <trkpt lat="48.72962" lon="7.0324">
        <ele>262.7</ele>
        <time>2020-06-29T07:01:12Z</time>
      </trkpt>
      <trkpt lat="48.72961" lon="7.03235">
        <ele>262.7</ele>
        <time>2020-06-29T07:01:13Z</time>
      </trkpt>
      <trkpt lat="48.7296" lon="7.03229">
        <ele>262.7</ele>
        <time>2020-06-29T07:01:14Z</time>
      </trkpt>
      <trkpt lat="48.72959" lon="7.03224">
        <ele>262.7</ele>
        <time>2020-06-29T07:01:15Z</time>
      </trkpt>
      <trkpt lat="48.72957" lon="7.03218">
        <ele>262.6</ele>
        <time>2020-06-29T07:01:16Z</time>
      </trkpt>
      <trkpt lat="48.72955" lon="7.03212">
        <ele>262.6</ele>
        <time>2020-06-29T07:01:17Z</time>
      </trkpt>
      <trkpt lat="48.72952" lon="7.03205">
        <ele>262.6</ele>
        <time>2020-06-29T07:01:18Z</time>
      </trkpt>
      <trkpt lat="48.72949" lon="7.03198">
        <ele>262.5</ele>
        <time>2020-06-29T07:01:19Z</time>
      </trkpt>
      <trkpt lat="48.72947" lon="7.03191">
        <ele>262.5</ele>
        <time>2020-06-29T07:01:20Z</time>
      </trkpt>
      <trkpt lat="48.72945" lon="7.03185">
        <ele>262.5</ele>
        <time>2020-06-29T07:01:21Z</time>
      </trkpt>
      <trkpt lat="48.72942" lon="7.03179">
        <ele>262.4</ele>
        <time>2020-06-29T07:01:22Z</time>
      </trkpt>
      <trkpt lat="48.72941" lon="7.03173">
        <ele>262.4</ele>
        <time>2020-06-29T07:01:23Z</time>
      </trkpt>
      <trkpt lat="48.72939" lon="7.03166">
        <ele>262.4</ele>
        <time>2020-06-29T07:01:24Z</time>
      </trkpt>
      <trkpt lat="48.72937" lon="7.0316">
        <ele>262.4</ele>
        <time>2020-06-29T07:01:25Z</time>
      </trkpt>
      <trkpt lat="48.72935" lon="7.03153">
        <ele>262.4</ele>
        <time>2020-06-29T07:01:26Z</time>
      </trkpt>
      <trkpt lat="48.72933" lon="7.03147">
        <ele>262.3</ele>
        <time>2020-06-29T07:01:27Z</time>
      </trkpt>
      <trkpt lat="48.72931" lon="7.03138">
        <ele>262.3</ele>
        <time>2020-06-29T07:01:28Z</time>
      </trkpt>
      <trkpt lat="48.72928" lon="7.03131">
        <ele>262.2</ele>
        <time>2020-06-29T07:01:29Z</time>
      </trkpt>
      <trkpt lat="48.72927" lon="7.03125">
        <ele>262.2</ele>
        <time>2020-06-29T07:01:30Z</time>
      </trkpt>
      <trkpt lat="48.72924" lon="7.03119">
        <ele>262.1</ele>
        <time>2020-06-29T07:01:31Z</time>
      </trkpt>
      <trkpt lat="48.72922" lon="7.03113">
        <ele>262.1</ele>
        <time>2020-06-29T07:01:32Z</time>
      </trkpt>
      <trkpt lat="48.72919" lon="7.03107">
        <ele>262</ele>
        <time>2020-06-29T07:01:33Z</time>
      </trkpt>
      <trkpt lat="48.72917" lon="7.03101">
        <ele>262</ele>
        <time>2020-06-29T07:01:34Z</time>
      </trkpt>
      <trkpt lat="48.72915" lon="7.03094">
        <ele>261.9</ele>
        <time>2020-06-29T07:01:35Z</time>
      </trkpt>
      <trkpt lat="48.72913" lon="7.03086">
        <ele>261.9</ele>
        <time>2020-06-29T07:01:36Z</time>
      </trkpt>
      <trkpt lat="48.72911" lon="7.03078">
        <ele>261.8</ele>
        <time>2020-06-29T07:01:37Z</time>
      </trkpt>
      <trkpt lat="48.72908" lon="7.03071">
        <ele>261.7</ele>
        <time>2020-06-29T07:01:38Z</time>
      </trkpt>
      <trkpt lat="48.72905" lon="7.03063">
        <ele>261.6</ele>
        <time>2020-06-29T07:01:39Z</time>
      </trkpt>
      <trkpt lat="48.72903" lon="7.03055">
        <ele>261.5</ele>
        <time>2020-06-29T07:01:40Z</time>
      </trkpt>
      <trkpt lat="48.72901" lon="7.03048">
        <ele>261.4</ele>
        <time>2020-06-29T07:01:41Z</time>
      </trkpt>
      <trkpt lat="48.72898" lon="7.0304">
        <ele>261.3</ele>
        <time>2020-06-29T07:01:42Z</time>
      </trkpt>
      <trkpt lat="48.72896" lon="7.03033">
        <ele>261.2</ele>
        <time>2020-06-29T07:01:43Z</time>
      </trkpt>
      <trkpt lat="48.72893" lon="7.03026">
        <ele>261.1</ele>
        <time>2020-06-29T07:01:44Z</time>
      </trkpt>
      <trkpt lat="48.72891" lon="7.03019">
        <ele>261</ele>
        <time>2020-06-29T07:01:45Z</time>
      </trkpt>
      <trkpt lat="48.72888" lon="7.03012">
        <ele>260.9</ele>
        <time>2020-06-29T07:01:46Z</time>
      </trkpt>
      <trkpt lat="48.72886" lon="7.03005">
        <ele>260.8</ele>
        <time>2020-06-29T07:01:47Z</time>
      </trkpt>
      <trkpt lat="48.72883" lon="7.02998">
        <ele>260.7</ele>
        <time>2020-06-29T07:01:48Z</time>
      </trkpt>
      <trkpt lat="48.72881" lon="7.0299">
        <ele>260.6</ele>
        <time>2020-06-29T07:01:49Z</time>
      </trkpt>
      <trkpt lat="48.72879" lon="7.02983">
        <ele>260.5</ele>
        <time>2020-06-29T07:01:50Z</time>
      </trkpt>
      <trkpt lat="48.72877" lon="7.02976">
        <ele>260.4</ele>
        <time>2020-06-29T07:01:51Z</time>
      </trkpt>
      <trkpt lat="48.72874" lon="7.02969">
        <ele>260.3</ele>
        <time>2020-06-29T07:01:52Z</time>
      </trkpt>
      <trkpt lat="48.72872" lon="7.02961">
        <ele>260.1</ele>
        <time>2020-06-29T07:01:53Z</time>
      </trkpt>
      <trkpt lat="48.72869" lon="7.02953">
        <ele>260</ele>
        <time>2020-06-29T07:01:54Z</time>
      </trkpt>
      <trkpt lat="48.72867" lon="7.02945">
        <ele>259.8</ele>
        <time>2020-06-29T07:01:55Z</time>
      </trkpt>
      <trkpt lat="48.72864" lon="7.02938">
        <ele>259.7</ele>
        <time>2020-06-29T07:01:56Z</time>
      </trkpt>
      <trkpt lat="48.7286" lon="7.0293">
        <ele>259.5</ele>
        <time>2020-06-29T07:01:57Z</time>
      </trkpt>
      <trkpt lat="48.72857" lon="7.02921">
        <ele>259.4</ele>
        <time>2020-06-29T07:01:58Z</time>
      </trkpt>
      <trkpt lat="48.72855" lon="7.02913">
        <ele>259.2</ele>
        <time>2020-06-29T07:01:59Z</time>
      </trkpt>
      <trkpt lat="48.72852" lon="7.02905">
        <ele>259.1</ele>
        <time>2020-06-29T07:02:00Z</time>
      </trkpt>
      <trkpt lat="48.7285" lon="7.02896">
        <ele>259.1</ele>
        <time>2020-06-29T07:02:01Z</time>
      </trkpt>
      <trkpt lat="48.72848" lon="7.02888">
        <ele>259</ele>
        <time>2020-06-29T07:02:02Z</time>
      </trkpt>
      <trkpt lat="48.72846" lon="7.0288">
        <ele>258.8</ele>
        <time>2020-06-29T07:02:03Z</time>
      </trkpt>
      <trkpt lat="48.72844" lon="7.02873">
        <ele>258.7</ele>
        <time>2020-06-29T07:02:04Z</time>
      </trkpt>
      <trkpt lat="48.72842" lon="7.02865">
        <ele>258.5</ele>
        <time>2020-06-29T07:02:05Z</time>
      </trkpt>
      <trkpt lat="48.7284" lon="7.02858">
        <ele>258.4</ele>
        <time>2020-06-29T07:02:06Z</time>
      </trkpt>
      <trkpt lat="48.72838" lon="7.0285">
        <ele>258.2</ele>
        <time>2020-06-29T07:02:07Z</time>
      </trkpt>
      <trkpt lat="48.72836" lon="7.02842">
        <ele>258.1</ele>
        <time>2020-06-29T07:02:08Z</time>
      </trkpt>
      <trkpt lat="48.72833" lon="7.02834">
        <ele>257.9</ele>
        <time>2020-06-29T07:02:09Z</time>
      </trkpt>
      <trkpt lat="48.7283" lon="7.02826">
        <ele>257.7</ele>
        <time>2020-06-29T07:02:10Z</time>
      </trkpt>
      <trkpt lat="48.72827" lon="7.02819">
        <ele>257.5</ele>
        <time>2020-06-29T07:02:11Z</time>
      </trkpt>
      <trkpt lat="48.72824" lon="7.02811">
        <ele>257.3</ele>
        <time>2020-06-29T07:02:12Z</time>
      </trkpt>
      <trkpt lat="48.72822" lon="7.02802">
        <ele>257.1</ele>
        <time>2020-06-29T07:02:13Z</time>
      </trkpt>
      <trkpt lat="48.7282" lon="7.02793">
        <ele>256.9</ele>
        <time>2020-06-29T07:02:14Z</time>
      </trkpt>
      <trkpt lat="48.72817" lon="7.02784">
        <ele>256.7</ele>
        <time>2020-06-29T07:02:15Z</time>
      </trkpt>
      <trkpt lat="48.72813" lon="7.02772">
        <ele>256.3</ele>
        <time>2020-06-29T07:02:16Z</time>
      </trkpt>
      <trkpt lat="48.72811" lon="7.02764">
        <ele>256.2</ele>
        <time>2020-06-29T07:02:17Z</time>
      </trkpt>
      <trkpt lat="48.72807" lon="7.02755">
        <ele>256</ele>
        <time>2020-06-29T07:02:18Z</time>
      </trkpt>
      <trkpt lat="48.72804" lon="7.02747">
        <ele>255.8</ele>
        <time>2020-06-29T07:02:19Z</time>
      </trkpt>
      <trkpt lat="48.72802" lon="7.02738">
        <ele>255.6</ele>
        <time>2020-06-29T07:02:20Z</time>
      </trkpt>
      <trkpt lat="48.72799" lon="7.0273">
        <ele>255.4</ele>
        <time>2020-06-29T07:02:21Z</time>
      </trkpt>
      <trkpt lat="48.72796" lon="7.0272">
        <ele>255.2</ele>
        <time>2020-06-29T07:02:22Z</time>
      </trkpt>
      <trkpt lat="48.72793" lon="7.02711">
        <ele>255</ele>
        <time>2020-06-29T07:02:23Z</time>
      </trkpt>
      <trkpt lat="48.7279" lon="7.02702">
        <ele>254.8</ele>
        <time>2020-06-29T07:02:24Z</time>
      </trkpt>
      <trkpt lat="48.72787" lon="7.02694">
        <ele>254.7</ele>
        <time>2020-06-29T07:02:25Z</time>
      </trkpt>
      <trkpt lat="48.72784" lon="7.02686">
        <ele>254.5</ele>
        <time>2020-06-29T07:02:26Z</time>
      </trkpt>
      <trkpt lat="48.72782" lon="7.02677">
        <ele>254.4</ele>
        <time>2020-06-29T07:02:27Z</time>
      </trkpt>
      <trkpt lat="48.72779" lon="7.02668">
        <ele>254.3</ele>
        <time>2020-06-29T07:02:28Z</time>
      </trkpt>
      <trkpt lat="48.72777" lon="7.02659">
        <ele>254.2</ele>
        <time>2020-06-29T07:02:29Z</time>
      </trkpt>
      <trkpt lat="48.72775" lon="7.02652">
        <ele>254.2</ele>
        <time>2020-06-29T07:02:30Z</time>
      </trkpt>
      <trkpt lat="48.72773" lon="7.02645">
        <ele>254.1</ele>
        <time>2020-06-29T07:02:31Z</time>
      </trkpt>
      <trkpt lat="48.7277" lon="7.02637">
        <ele>254</ele>
        <time>2020-06-29T07:02:32Z</time>
      </trkpt>
      <trkpt lat="48.72767" lon="7.02629">
        <ele>254</ele>
        <time>2020-06-29T07:02:33Z</time>
      </trkpt>
      <trkpt lat="48.72765" lon="7.02621">
        <ele>253.9</ele>
        <time>2020-06-29T07:02:34Z</time>
      </trkpt>
      <trkpt lat="48.72762" lon="7.02613">
        <ele>253.9</ele>
        <time>2020-06-29T07:02:35Z</time>
      </trkpt>
      <trkpt lat="48.72759" lon="7.02604">
        <ele>253.9</ele>
        <time>2020-06-29T07:02:36Z</time>
      </trkpt>
      <trkpt lat="48.72756" lon="7.02596">
        <ele>253.9</ele>
        <time>2020-06-29T07:02:37Z</time>
      </trkpt>
      <trkpt lat="48.72753" lon="7.02586">
        <ele>253.8</ele>
        <time>2020-06-29T07:02:38Z</time>
      </trkpt>
      <trkpt lat="48.7275" lon="7.02579">
        <ele>253.8</ele>
        <time>2020-06-29T07:02:39Z</time>
      </trkpt>
      <trkpt lat="48.72746" lon="7.02571">
        <ele>253.7</ele>
        <time>2020-06-29T07:02:40Z</time>
      </trkpt>
      <trkpt lat="48.72742" lon="7.02563">
        <ele>253.6</ele>
        <time>2020-06-29T07:02:41Z</time>
      </trkpt>
      <trkpt lat="48.72738" lon="7.02555">
        <ele>253.5</ele>
        <time>2020-06-29T07:02:42Z</time>
      </trkpt>
      <trkpt lat="48.72733" lon="7.02547">
        <ele>253.5</ele>
        <time>2020-06-29T07:02:43Z</time>
      </trkpt>
      <trkpt lat="48.72729" lon="7.02539">
        <ele>253.4</ele>
        <time>2020-06-29T07:02:44Z</time>
      </trkpt>
      <trkpt lat="48.72724" lon="7.02531">
        <ele>253.3</ele>
        <time>2020-06-29T07:02:45Z</time>
      </trkpt>
      <trkpt lat="48.72719" lon="7.02524">
        <ele>253.2</ele>
        <time>2020-06-29T07:02:46Z</time>
      </trkpt>
      <trkpt lat="48.72715" lon="7.02517">
        <ele>253.2</ele>
        <time>2020-06-29T07:02:47Z</time>
      </trkpt>
      <trkpt lat="48.72711" lon="7.02511">
        <ele>253.1</ele>
        <time>2020-06-29T07:02:48Z</time>
      </trkpt>
      <trkpt lat="48.72707" lon="7.02504">
        <ele>253.1</ele>
        <time>2020-06-29T07:02:49Z</time>
      </trkpt>
      <trkpt lat="48.72703" lon="7.02497">
        <ele>253</ele>
        <time>2020-06-29T07:02:50Z</time>
      </trkpt>
      <trkpt lat="48.72699" lon="7.02491">
        <ele>253</ele>
        <time>2020-06-29T07:02:51Z</time>
      </trkpt>
      <trkpt lat="48.72695" lon="7.02483">
        <ele>252.9</ele>
        <time>2020-06-29T07:02:52Z</time>
      </trkpt>
      <trkpt lat="48.7269" lon="7.02476">
        <ele>252.9</ele>
        <time>2020-06-29T07:02:53Z</time>
      </trkpt>
      <trkpt lat="48.72686" lon="7.02468">
        <ele>252.9</ele>
        <time>2020-06-29T07:02:54Z</time>
      </trkpt>
      <trkpt lat="48.72681" lon="7.0246">
        <ele>252.9</ele>
        <time>2020-06-29T07:02:55Z</time>
      </trkpt>
      <trkpt lat="48.72676" lon="7.02453">
        <ele>252.9</ele>
        <time>2020-06-29T07:02:56Z</time>
      </trkpt>
      <trkpt lat="48.72673" lon="7.02446">
        <ele>252.8</ele>
        <time>2020-06-29T07:02:57Z</time>
      </trkpt>
      <trkpt lat="48.72669" lon="7.02439">
        <ele>252.8</ele>
        <time>2020-06-29T07:02:58Z</time>
      </trkpt>
      <trkpt lat="48.72665" lon="7.02433">
        <ele>252.8</ele>
        <time>2020-06-29T07:02:59Z</time>
      </trkpt>
      <trkpt lat="48.72662" lon="7.02425">
        <ele>252.7</ele>
        <time>2020-06-29T07:03:00Z</time>
      </trkpt>
      <trkpt lat="48.72658" lon="7.02419">
        <ele>252.6</ele>
        <time>2020-06-29T07:03:01Z</time>
      </trkpt>
      <trkpt lat="48.72654" lon="7.02411">
        <ele>252.6</ele>
        <time>2020-06-29T07:03:02Z</time>
      </trkpt>
      <trkpt lat="48.72651" lon="7.02402">
        <ele>252.6</ele>
        <time>2020-06-29T07:03:03Z</time>
      </trkpt>
      <trkpt lat="48.72647" lon="7.02394">
        <ele>252.5</ele>
        <time>2020-06-29T07:03:04Z</time>
      </trkpt>
      <trkpt lat="48.72643" lon="7.02387">
        <ele>252.5</ele>
        <time>2020-06-29T07:03:05Z</time>
      </trkpt>
      <trkpt lat="48.72638" lon="7.02379">
        <ele>252.5</ele>
        <time>2020-06-29T07:03:06Z</time>
      </trkpt>
      <trkpt lat="48.72634" lon="7.02372">
        <ele>252.6</ele>
        <time>2020-06-29T07:03:07Z</time>
      </trkpt>
      <trkpt lat="48.7263" lon="7.02366">
        <ele>252.6</ele>
        <time>2020-06-29T07:03:08Z</time>
      </trkpt>
      <trkpt lat="48.72626" lon="7.02359">
        <ele>252.6</ele>
        <time>2020-06-29T07:03:09Z</time>
      </trkpt>
      <trkpt lat="48.72622" lon="7.02353">
        <ele>252.6</ele>
        <time>2020-06-29T07:03:10Z</time>
      </trkpt>
      <trkpt lat="48.72618" lon="7.02345">
        <ele>252.6</ele>
        <time>2020-06-29T07:03:11Z</time>
      </trkpt>
      <trkpt lat="48.72614" lon="7.02339">
        <ele>252.6</ele>
        <time>2020-06-29T07:03:12Z</time>
      </trkpt>
      <trkpt lat="48.7261" lon="7.02332">
        <ele>252.6</ele>
        <time>2020-06-29T07:03:13Z</time>
      </trkpt>
      <trkpt lat="48.72606" lon="7.02326">
        <ele>252.6</ele>
        <time>2020-06-29T07:03:14Z</time>
      </trkpt>
      <trkpt lat="48.72602" lon="7.0232">
        <ele>252.5</ele>
        <time>2020-06-29T07:03:15Z</time>
      </trkpt>
      <trkpt lat="48.72598" lon="7.02313">
        <ele>252.5</ele>
        <time>2020-06-29T07:03:16Z</time>
      </trkpt>
      <trkpt lat="48.72595" lon="7.02308">
        <ele>252.4</ele>
        <time>2020-06-29T07:03:17Z</time>
      </trkpt>
      <trkpt lat="48.72592" lon="7.02302">
        <ele>252.4</ele>
        <time>2020-06-29T07:03:18Z</time>
      </trkpt>
      <trkpt lat="48.72588" lon="7.02296">
        <ele>252.4</ele>
        <time>2020-06-29T07:03:19Z</time>
      </trkpt>
      <trkpt lat="48.72584" lon="7.0229">
        <ele>252.4</ele>
        <time>2020-06-29T07:03:20Z</time>
      </trkpt>
      <trkpt lat="48.72581" lon="7.02284">
        <ele>252.4</ele>
        <time>2020-06-29T07:03:21Z</time>
      </trkpt>
      <trkpt lat="48.72577" lon="7.02278">
        <ele>252.4</ele>
        <time>2020-06-29T07:03:22Z</time>
      </trkpt>
      <trkpt lat="48.72573" lon="7.02273">
        <ele>252.4</ele>
        <time>2020-06-29T07:03:23Z</time>
      </trkpt>
      <trkpt lat="48.72569" lon="7.02267">
        <ele>252.4</ele>
        <time>2020-06-29T07:03:24Z</time>
      </trkpt>
      <trkpt lat="48.72567" lon="7.02262">
        <ele>252.4</ele>
        <time>2020-06-29T07:03:25Z</time>
      </trkpt>
      <trkpt lat="48.72564" lon="7.02256">
        <ele>252.4</ele>
        <time>2020-06-29T07:03:26Z</time>
      </trkpt>
      <trkpt lat="48.7256" lon="7.0225">
        <ele>252.3</ele>
        <time>2020-06-29T07:03:27Z</time>
      </trkpt>
      <trkpt lat="48.72556" lon="7.02244">
        <ele>252.3</ele>
        <time>2020-06-29T07:03:28Z</time>
      </trkpt>
      <trkpt lat="48.72552" lon="7.02237">
        <ele>252.3</ele>
        <time>2020-06-29T07:03:29Z</time>
      </trkpt>
      <trkpt lat="48.72548" lon="7.0223">
        <ele>252.3</ele>
        <time>2020-06-29T07:03:30Z</time>
      </trkpt>
      <trkpt lat="48.72545" lon="7.02223">
        <ele>252.3</ele>
        <time>2020-06-29T07:03:31Z</time>
      </trkpt>
      <trkpt lat="48.72539" lon="7.02215">
        <ele>252.3</ele>
        <time>2020-06-29T07:03:32Z</time>
      </trkpt>
      <trkpt lat="48.72535" lon="7.02208">
        <ele>252.3</ele>
        <time>2020-06-29T07:03:33Z</time>
      </trkpt>
      <trkpt lat="48.72531" lon="7.02202">
        <ele>252.3</ele>
        <time>2020-06-29T07:03:34Z</time>
      </trkpt>
      <trkpt lat="48.72526" lon="7.02196">
        <ele>252.3</ele>
        <time>2020-06-29T07:03:35Z</time>
      </trkpt>
      <trkpt lat="48.72523" lon="7.02189">
        <ele>252.3</ele>
        <time>2020-06-29T07:03:36Z</time>
      </trkpt>
      <trkpt lat="48.72519" lon="7.02183">
        <ele>252.2</ele>
        <time>2020-06-29T07:03:37Z</time>
      </trkpt>
      <trkpt lat="48.72515" lon="7.02176">
        <ele>252.2</ele>
        <time>2020-06-29T07:03:38Z</time>
      </trkpt>
      <trkpt lat="48.72511" lon="7.0217">
        <ele>252.2</ele>
        <time>2020-06-29T07:03:39Z</time>
      </trkpt>
      <trkpt lat="48.72507" lon="7.02164">
        <ele>252.3</ele>
        <time>2020-06-29T07:03:40Z</time>
      </trkpt>
      <trkpt lat="48.72503" lon="7.02158">
        <ele>252.3</ele>
        <time>2020-06-29T07:03:41Z</time>
      </trkpt>
      <trkpt lat="48.72499" lon="7.02152">
        <ele>252.4</ele>
        <time>2020-06-29T07:03:42Z</time>
      </trkpt>
      <trkpt lat="48.72495" lon="7.02146">
        <ele>252.4</ele>
        <time>2020-06-29T07:03:43Z</time>
      </trkpt>
      <trkpt lat="48.72492" lon="7.0214">
        <ele>252.4</ele>
        <time>2020-06-29T07:03:44Z</time>
      </trkpt>
      <trkpt lat="48.72488" lon="7.02135">
        <ele>252.5</ele>
        <time>2020-06-29T07:03:45Z</time>
      </trkpt>
      <trkpt lat="48.72485" lon="7.02128">
        <ele>252.5</ele>
        <time>2020-06-29T07:03:46Z</time>
      </trkpt>
      <trkpt lat="48.72481" lon="7.02122">
        <ele>252.6</ele>
        <time>2020-06-29T07:03:47Z</time>
      </trkpt>
      <trkpt lat="48.72477" lon="7.02115">
        <ele>252.6</ele>
        <time>2020-06-29T07:03:48Z</time>
      </trkpt>
      <trkpt lat="48.72472" lon="7.02107">
        <ele>252.7</ele>
        <time>2020-06-29T07:03:49Z</time>
      </trkpt>
      <trkpt lat="48.72468" lon="7.02101">
        <ele>252.7</ele>
        <time>2020-06-29T07:03:50Z</time>
      </trkpt>
      <trkpt lat="48.72464" lon="7.02095">
        <ele>252.8</ele>
        <time>2020-06-29T07:03:51Z</time>
      </trkpt>
      <trkpt lat="48.7246" lon="7.02088">
        <ele>252.8</ele>
        <time>2020-06-29T07:03:52Z</time>
      </trkpt>
      <trkpt lat="48.72457" lon="7.02081">
        <ele>252.8</ele>
        <time>2020-06-29T07:03:53Z</time>
      </trkpt>
      <trkpt lat="48.72452" lon="7.02074">
        <ele>252.8</ele>
        <time>2020-06-29T07:03:54Z</time>
      </trkpt>
      <trkpt lat="48.72448" lon="7.02066">
        <ele>252.8</ele>
        <time>2020-06-29T07:03:55Z</time>
      </trkpt>
      <trkpt lat="48.72445" lon="7.02059">
        <ele>252.8</ele>
        <time>2020-06-29T07:03:56Z</time>
      </trkpt>
      <trkpt lat="48.72441" lon="7.02053">
        <ele>252.8</ele>
        <time>2020-06-29T07:03:57Z</time>
      </trkpt>
      <trkpt lat="48.72437" lon="7.02046">
        <ele>252.9</ele>
        <time>2020-06-29T07:03:58Z</time>
      </trkpt>
      <trkpt lat="48.72433" lon="7.0204">
        <ele>252.9</ele>
        <time>2020-06-29T07:03:59Z</time>
      </trkpt>
      <trkpt lat="48.7243" lon="7.02034">
        <ele>252.9</ele>
        <time>2020-06-29T07:04:00Z</time>
      </trkpt>
      <trkpt lat="48.72427" lon="7.02028">
        <ele>252.9</ele>
        <time>2020-06-29T07:04:01Z</time>
      </trkpt>
      <trkpt lat="48.72424" lon="7.02022">
        <ele>252.9</ele>
        <time>2020-06-29T07:04:02Z</time>
      </trkpt>
      <trkpt lat="48.7242" lon="7.02015">
        <ele>252.9</ele>
        <time>2020-06-29T07:04:03Z</time>
      </trkpt>
      <trkpt lat="48.72417" lon="7.02009">
        <ele>252.9</ele>
        <time>2020-06-29T07:04:04Z</time>
      </trkpt>
      <trkpt lat="48.72413" lon="7.02002">
        <ele>253</ele>
        <time>2020-06-29T07:04:05Z</time>
      </trkpt>
      <trkpt lat="48.72409" lon="7.01993">
        <ele>253</ele>
        <time>2020-06-29T07:04:06Z</time>
      </trkpt>
      <trkpt lat="48.72406" lon="7.01987">
        <ele>253</ele>
        <time>2020-06-29T07:04:07Z</time>
      </trkpt>
      <trkpt lat="48.72402" lon="7.01981">
        <ele>253.1</ele>
        <time>2020-06-29T07:04:08Z</time>
      </trkpt>
      <trkpt lat="48.72398" lon="7.01974">
        <ele>253.1</ele>
        <time>2020-06-29T07:04:09Z</time>
      </trkpt>
      <trkpt lat="48.72394" lon="7.01967">
        <ele>253.2</ele>
        <time>2020-06-29T07:04:10Z</time>
      </trkpt>
      <trkpt lat="48.7239" lon="7.01961">
        <ele>253.3</ele>
        <time>2020-06-29T07:04:11Z</time>
      </trkpt>
      <trkpt lat="48.72387" lon="7.01955">
        <ele>253.4</ele>
        <time>2020-06-29T07:04:12Z</time>
      </trkpt>
      <trkpt lat="48.72383" lon="7.01948">
        <ele>253.4</ele>
        <time>2020-06-29T07:04:13Z</time>
      </trkpt>
      <trkpt lat="48.7238" lon="7.01941">
        <ele>253.4</ele>
        <time>2020-06-29T07:04:14Z</time>
      </trkpt>
      <trkpt lat="48.72377" lon="7.01935">
        <ele>253.4</ele>
        <time>2020-06-29T07:04:15Z</time>
      </trkpt>
      <trkpt lat="48.72373" lon="7.01929">
        <ele>253.5</ele>
        <time>2020-06-29T07:04:16Z</time>
      </trkpt>
      <trkpt lat="48.7237" lon="7.01923">
        <ele>253.6</ele>
        <time>2020-06-29T07:04:17Z</time>
      </trkpt>
      <trkpt lat="48.72367" lon="7.01918">
        <ele>253.7</ele>
        <time>2020-06-29T07:04:18Z</time>
      </trkpt>
      <trkpt lat="48.72363" lon="7.01912">
        <ele>253.8</ele>
        <time>2020-06-29T07:04:19Z</time>
      </trkpt>
      <trkpt lat="48.72359" lon="7.01906">
        <ele>254</ele>
        <time>2020-06-29T07:04:20Z</time>
      </trkpt>
      <trkpt lat="48.72356" lon="7.019">
        <ele>254.1</ele>
        <time>2020-06-29T07:04:21Z</time>
      </trkpt>
      <trkpt lat="48.72352" lon="7.01894">
        <ele>254.3</ele>
        <time>2020-06-29T07:04:22Z</time>
      </trkpt>
      <trkpt lat="48.72348" lon="7.01888">
        <ele>254.5</ele>
        <time>2020-06-29T07:04:23Z</time>
      </trkpt>
      <trkpt lat="48.72345" lon="7.01881">
        <ele>254.7</ele>
        <time>2020-06-29T07:04:24Z</time>
      </trkpt>
      <trkpt lat="48.72342" lon="7.01875">
        <ele>254.9</ele>
        <time>2020-06-29T07:04:25Z</time>
      </trkpt>
      <trkpt lat="48.72338" lon="7.01868">
        <ele>254.2</ele>
        <time>2020-06-29T07:04:26Z</time>
      </trkpt>
      <trkpt lat="48.72335" lon="7.01862">
        <ele>254.4</ele>
        <time>2020-06-29T07:04:27Z</time>
      </trkpt>
      <trkpt lat="48.72332" lon="7.01855">
        <ele>254.6</ele>
        <time>2020-06-29T07:04:28Z</time>
      </trkpt>
      <trkpt lat="48.72328" lon="7.01848">
        <ele>254.8</ele>
        <time>2020-06-29T07:04:29Z</time>
      </trkpt>
      <trkpt lat="48.72324" lon="7.01842">
        <ele>255.1</ele>
        <time>2020-06-29T07:04:30Z</time>
      </trkpt>
      <trkpt lat="48.72321" lon="7.01836">
        <ele>255.3</ele>
        <time>2020-06-29T07:04:31Z</time>
      </trkpt>
      <trkpt lat="48.72317" lon="7.01831">
        <ele>255.6</ele>
        <time>2020-06-29T07:04:32Z</time>
      </trkpt>
      <trkpt lat="48.72314" lon="7.01826">
        <ele>255.8</ele>
        <time>2020-06-29T07:04:33Z</time>
      </trkpt>
      <trkpt lat="48.7231" lon="7.01821">
        <ele>256.1</ele>
        <time>2020-06-29T07:04:34Z</time>
      </trkpt>
      <trkpt lat="48.72307" lon="7.01816">
        <ele>256.3</ele>
        <time>2020-06-29T07:04:35Z</time>
      </trkpt>
      <trkpt lat="48.72304" lon="7.0181">
        <ele>256.6</ele>
        <time>2020-06-29T07:04:36Z</time>
      </trkpt>
      <trkpt lat="48.723" lon="7.01805">
        <ele>256.9</ele>
        <time>2020-06-29T07:04:37Z</time>
      </trkpt>
      <trkpt lat="48.72297" lon="7.01799">
        <ele>257.2</ele>
        <time>2020-06-29T07:04:38Z</time>
      </trkpt>
      <trkpt lat="48.72294" lon="7.01793">
        <ele>257.4</ele>
        <time>2020-06-29T07:04:39Z</time>
      </trkpt>
      <trkpt lat="48.72292" lon="7.01788">
        <ele>257.7</ele>
        <time>2020-06-29T07:04:40Z</time>
      </trkpt>
      <trkpt lat="48.72289" lon="7.01782">
        <ele>258</ele>
        <time>2020-06-29T07:04:41Z</time>
      </trkpt>
      <trkpt lat="48.72286" lon="7.01778">
        <ele>258.2</ele>
        <time>2020-06-29T07:04:42Z</time>
      </trkpt>
      <trkpt lat="48.72283" lon="7.01773">
        <ele>258.4</ele>
        <time>2020-06-29T07:04:43Z</time>
      </trkpt>
      <trkpt lat="48.7228" lon="7.01768">
        <ele>258.4</ele>
        <time>2020-06-29T07:04:44Z</time>
      </trkpt>
      <trkpt lat="48.72277" lon="7.01764">
        <ele>258.6</ele>
        <time>2020-06-29T07:04:45Z</time>
      </trkpt>
      <trkpt lat="48.72275" lon="7.01758">
        <ele>258.8</ele>
        <time>2020-06-29T07:04:46Z</time>
      </trkpt>
      <trkpt lat="48.72271" lon="7.01754">
        <ele>258.9</ele>
        <time>2020-06-29T07:04:47Z</time>
      </trkpt>
      <trkpt lat="48.72268" lon="7.01751">
        <ele>259.1</ele>
        <time>2020-06-29T07:04:48Z</time>
      </trkpt>
      <trkpt lat="48.72264" lon="7.01747">
        <ele>259.2</ele>
        <time>2020-06-29T07:04:49Z</time>
      </trkpt>
      <trkpt lat="48.72261" lon="7.01743">
        <ele>259.3</ele>
        <time>2020-06-29T07:04:50Z</time>
      </trkpt>
      <trkpt lat="48.72257" lon="7.01738">
        <ele>259.5</ele>
        <time>2020-06-29T07:04:51Z</time>
      </trkpt>
      <trkpt lat="48.72255" lon="7.01733">
        <ele>259.6</ele>
        <time>2020-06-29T07:04:52Z</time>
      </trkpt>
      <trkpt lat="48.72252" lon="7.01729">
        <ele>259.7</ele>
        <time>2020-06-29T07:04:53Z</time>
      </trkpt>
      <trkpt lat="48.7225" lon="7.01724">
        <ele>259.9</ele>
        <time>2020-06-29T07:04:54Z</time>
      </trkpt>
      <trkpt lat="48.72246" lon="7.01718">
        <ele>260</ele>
        <time>2020-06-29T07:04:55Z</time>
      </trkpt>
      <trkpt lat="48.72243" lon="7.01713">
        <ele>260.2</ele>
        <time>2020-06-29T07:04:56Z</time>
      </trkpt>
      <trkpt lat="48.72241" lon="7.01707">
        <ele>260.4</ele>
        <time>2020-06-29T07:04:57Z</time>
      </trkpt>
      <trkpt lat="48.72239" lon="7.01701">
        <ele>260.6</ele>
        <time>2020-06-29T07:04:58Z</time>
      </trkpt>
      <trkpt lat="48.72236" lon="7.01697">
        <ele>260.8</ele>
        <time>2020-06-29T07:04:59Z</time>
      </trkpt>
      <trkpt lat="48.72233" lon="7.01692">
        <ele>261</ele>
        <time>2020-06-29T07:05:00Z</time>
      </trkpt>
      <trkpt lat="48.72231" lon="7.01687">
        <ele>261.2</ele>
        <time>2020-06-29T07:05:01Z</time>
      </trkpt>
      <trkpt lat="48.72227" lon="7.01681">
        <ele>261.4</ele>
        <time>2020-06-29T07:05:02Z</time>
      </trkpt>
      <trkpt lat="48.72224" lon="7.01677">
        <ele>261.6</ele>
        <time>2020-06-29T07:05:03Z</time>
      </trkpt>
      <trkpt lat="48.72221" lon="7.01672">
        <ele>261.9</ele>
        <time>2020-06-29T07:05:04Z</time>
      </trkpt>
      <trkpt lat="48.72219" lon="7.01668">
        <ele>262.1</ele>
        <time>2020-06-29T07:05:05Z</time>
      </trkpt>
      <trkpt lat="48.72216" lon="7.01663">
        <ele>262.3</ele>
        <time>2020-06-29T07:05:06Z</time>
      </trkpt>
      <trkpt lat="48.72212" lon="7.01658">
        <ele>262.6</ele>
        <time>2020-06-29T07:05:07Z</time>
      </trkpt>
      <trkpt lat="48.7221" lon="7.01653">
        <ele>262.8</ele>
        <time>2020-06-29T07:05:08Z</time>
      </trkpt>
      <trkpt lat="48.72207" lon="7.01649">
        <ele>263</ele>
        <time>2020-06-29T07:05:09Z</time>
      </trkpt>
      <trkpt lat="48.72205" lon="7.01645">
        <ele>263.2</ele>
        <time>2020-06-29T07:05:10Z</time>
      </trkpt>
      <trkpt lat="48.72202" lon="7.0164">
        <ele>263.5</ele>
        <time>2020-06-29T07:05:11Z</time>
      </trkpt>
      <trkpt lat="48.722" lon="7.01635">
        <ele>263.7</ele>
        <time>2020-06-29T07:05:12Z</time>
      </trkpt>
      <trkpt lat="48.72198" lon="7.01631">
        <ele>263.9</ele>
        <time>2020-06-29T07:05:13Z</time>
      </trkpt>
      <trkpt lat="48.72195" lon="7.01627">
        <ele>264.2</ele>
        <time>2020-06-29T07:05:14Z</time>
      </trkpt>
      <trkpt lat="48.72193" lon="7.01623">
        <ele>264.4</ele>
        <time>2020-06-29T07:05:15Z</time>
      </trkpt>
      <trkpt lat="48.72191" lon="7.01617">
        <ele>264.6</ele>
        <time>2020-06-29T07:05:16Z</time>
      </trkpt>
      <trkpt lat="48.72188" lon="7.01614">
        <ele>264.9</ele>
        <time>2020-06-29T07:05:17Z</time>
      </trkpt>
      <trkpt lat="48.72186" lon="7.0161">
        <ele>265.1</ele>
        <time>2020-06-29T07:05:18Z</time>
      </trkpt>
      <trkpt lat="48.72183" lon="7.01606">
        <ele>265.3</ele>
        <time>2020-06-29T07:05:19Z</time>
      </trkpt>
      <trkpt lat="48.7218" lon="7.01602">
        <ele>265.6</ele>
        <time>2020-06-29T07:05:20Z</time>
      </trkpt>
      <trkpt lat="48.72176" lon="7.01597">
        <ele>265.9</ele>
        <time>2020-06-29T07:05:21Z</time>
      </trkpt>
      <trkpt lat="48.72172" lon="7.01592">
        <ele>266.2</ele>
        <time>2020-06-29T07:05:22Z</time>
      </trkpt>
      <trkpt lat="48.72169" lon="7.01587">
        <ele>266.5</ele>
        <time>2020-06-29T07:05:23Z</time>
      </trkpt>
      <trkpt lat="48.72166" lon="7.01582">
        <ele>266.8</ele>
        <time>2020-06-29T07:05:24Z</time>
      </trkpt>
      <trkpt lat="48.72163" lon="7.01577">
        <ele>267.1</ele>
        <time>2020-06-29T07:05:25Z</time>
      </trkpt>
      <trkpt lat="48.7216" lon="7.01571">
        <ele>267.4</ele>
        <time>2020-06-29T07:05:26Z</time>
      </trkpt>
      <trkpt lat="48.72156" lon="7.01568">
        <ele>267.7</ele>
        <time>2020-06-29T07:05:27Z</time>
      </trkpt>
      <trkpt lat="48.72154" lon="7.01563">
        <ele>267.9</ele>
        <time>2020-06-29T07:05:28Z</time>
      </trkpt>
      <trkpt lat="48.72152" lon="7.01559">
        <ele>268.1</ele>
        <time>2020-06-29T07:05:29Z</time>
      </trkpt>
      <trkpt lat="48.7215" lon="7.01555">
        <ele>268.3</ele>
        <time>2020-06-29T07:05:30Z</time>
      </trkpt>
      <trkpt lat="48.72147" lon="7.01551">
        <ele>268.5</ele>
        <time>2020-06-29T07:05:31Z</time>
      </trkpt>
      <trkpt lat="48.72146" lon="7.01545">
        <ele>268.7</ele>
        <time>2020-06-29T07:05:32Z</time>
      </trkpt>
      <trkpt lat="48.72143" lon="7.01541">
        <ele>268.9</ele>
        <time>2020-06-29T07:05:33Z</time>
      </trkpt>
      <trkpt lat="48.7214" lon="7.01535">
        <ele>269.1</ele>
        <time>2020-06-29T07:05:34Z</time>
      </trkpt>
      <trkpt lat="48.72137" lon="7.0153">
        <ele>269.3</ele>
        <time>2020-06-29T07:05:35Z</time>
      </trkpt>
      <trkpt lat="48.72133" lon="7.01524">
        <ele>269.5</ele>
        <time>2020-06-29T07:05:36Z</time>
      </trkpt>
      <trkpt lat="48.72132" lon="7.0152">
        <ele>269.7</ele>
        <time>2020-06-29T07:05:37Z</time>
      </trkpt>
      <trkpt lat="48.72129" lon="7.01516">
        <ele>269.8</ele>
        <time>2020-06-29T07:05:38Z</time>
      </trkpt>
      <trkpt lat="48.72126" lon="7.01512">
        <ele>269.9</ele>
        <time>2020-06-29T07:05:39Z</time>
      </trkpt>
      <trkpt lat="48.72123" lon="7.01508">
        <ele>270.1</ele>
        <time>2020-06-29T07:05:40Z</time>
      </trkpt>
      <trkpt lat="48.72121" lon="7.01504">
        <ele>270.2</ele>
        <time>2020-06-29T07:05:41Z</time>
      </trkpt>
      <trkpt lat="48.72119" lon="7.01499">
        <ele>270.3</ele>
        <time>2020-06-29T07:05:42Z</time>
      </trkpt>
      <trkpt lat="48.72117" lon="7.01495">
        <ele>270.3</ele>
        <time>2020-06-29T07:05:43Z</time>
      </trkpt>
      <trkpt lat="48.72114" lon="7.0149">
        <ele>270.5</ele>
        <time>2020-06-29T07:05:44Z</time>
      </trkpt>
      <trkpt lat="48.72113" lon="7.01485">
        <ele>270.5</ele>
        <time>2020-06-29T07:05:45Z</time>
      </trkpt>
      <trkpt lat="48.7211" lon="7.01482">
        <ele>270.6</ele>
        <time>2020-06-29T07:05:46Z</time>
      </trkpt>
      <trkpt lat="48.72108" lon="7.01478">
        <ele>270.7</ele>
        <time>2020-06-29T07:05:47Z</time>
      </trkpt>
      <trkpt lat="48.72105" lon="7.01474">
        <ele>270.8</ele>
        <time>2020-06-29T07:05:48Z</time>
      </trkpt>
      <trkpt lat="48.72102" lon="7.01469">
        <ele>270.9</ele>
        <time>2020-06-29T07:05:49Z</time>
      </trkpt>
      <trkpt lat="48.721" lon="7.01464">
        <ele>271</ele>
        <time>2020-06-29T07:05:50Z</time>
      </trkpt>
      <trkpt lat="48.72098" lon="7.01459">
        <ele>271</ele>
        <time>2020-06-29T07:05:51Z</time>
      </trkpt>
      <trkpt lat="48.72096" lon="7.01455">
        <ele>271.1</ele>
        <time>2020-06-29T07:05:52Z</time>
      </trkpt>
      <trkpt lat="48.72093" lon="7.0145">
        <ele>271.2</ele>
        <time>2020-06-29T07:05:53Z</time>
      </trkpt>
      <trkpt lat="48.72089" lon="7.01445">
        <ele>271.2</ele>
        <time>2020-06-29T07:05:54Z</time>
      </trkpt>
      <trkpt lat="48.72087" lon="7.01442">
        <ele>271.2</ele>
        <time>2020-06-29T07:05:55Z</time>
      </trkpt>
      <trkpt lat="48.72085" lon="7.01438">
        <ele>271.4</ele>
        <time>2020-06-29T07:05:56Z</time>
      </trkpt>
      <trkpt lat="48.72083" lon="7.01434">
        <ele>271.5</ele>
        <time>2020-06-29T07:05:57Z</time>
      </trkpt>
      <trkpt lat="48.7208" lon="7.0143">
        <ele>271.6</ele>
        <time>2020-06-29T07:05:58Z</time>
      </trkpt>
      <trkpt lat="48.72078" lon="7.01426">
        <ele>271.8</ele>
        <time>2020-06-29T07:05:59Z</time>
      </trkpt>
      <trkpt lat="48.72075" lon="7.01422">
        <ele>271.8</ele>
        <time>2020-06-29T07:06:00Z</time>
      </trkpt>
      <trkpt lat="48.72073" lon="7.01417">
        <ele>271.9</ele>
        <time>2020-06-29T07:06:01Z</time>
      </trkpt>
      <trkpt lat="48.72071" lon="7.01412">
        <ele>272</ele>
        <time>2020-06-29T07:06:02Z</time>
      </trkpt>
      <trkpt lat="48.72068" lon="7.01407">
        <ele>272.1</ele>
        <time>2020-06-29T07:06:03Z</time>
      </trkpt>
      <trkpt lat="48.72066" lon="7.01401">
        <ele>272.1</ele>
        <time>2020-06-29T07:06:04Z</time>
      </trkpt>
      <trkpt lat="48.72064" lon="7.01396">
        <ele>272.2</ele>
        <time>2020-06-29T07:06:05Z</time>
      </trkpt>
      <trkpt lat="48.72061" lon="7.01391">
        <ele>272.3</ele>
        <time>2020-06-29T07:06:06Z</time>
      </trkpt>
      <trkpt lat="48.72058" lon="7.01385">
        <ele>272.3</ele>
        <time>2020-06-29T07:06:07Z</time>
      </trkpt>
      <trkpt lat="48.72055" lon="7.0138">
        <ele>272.4</ele>
        <time>2020-06-29T07:06:08Z</time>
      </trkpt>
      <trkpt lat="48.72052" lon="7.01376">
        <ele>272.5</ele>
        <time>2020-06-29T07:06:09Z</time>
      </trkpt>
      <trkpt lat="48.72049" lon="7.01371">
        <ele>272.5</ele>
        <time>2020-06-29T07:06:10Z</time>
      </trkpt>
      <trkpt lat="48.72046" lon="7.01366">
        <ele>272.6</ele>
        <time>2020-06-29T07:06:11Z</time>
      </trkpt>
      <trkpt lat="48.72044" lon="7.01362">
        <ele>272.6</ele>
        <time>2020-06-29T07:06:12Z</time>
      </trkpt>
      <trkpt lat="48.72041" lon="7.01357">
        <ele>272.7</ele>
        <time>2020-06-29T07:06:13Z</time>
      </trkpt>
      <trkpt lat="48.72038" lon="7.01352">
        <ele>272.7</ele>
        <time>2020-06-29T07:06:14Z</time>
      </trkpt>
      <trkpt lat="48.72035" lon="7.01347">
        <ele>272.8</ele>
        <time>2020-06-29T07:06:15Z</time>
      </trkpt>
      <trkpt lat="48.72032" lon="7.01342">
        <ele>272.9</ele>
        <time>2020-06-29T07:06:16Z</time>
      </trkpt>
      <trkpt lat="48.72029" lon="7.01336">
        <ele>272.9</ele>
        <time>2020-06-29T07:06:17Z</time>
      </trkpt>
      <trkpt lat="48.72026" lon="7.01331">
        <ele>273</ele>
        <time>2020-06-29T07:06:18Z</time>
      </trkpt>
      <trkpt lat="48.72023" lon="7.01326">
        <ele>273.1</ele>
        <time>2020-06-29T07:06:19Z</time>
      </trkpt>
      <trkpt lat="48.7202" lon="7.01321">
        <ele>273.2</ele>
        <time>2020-06-29T07:06:20Z</time>
      </trkpt>
      <trkpt lat="48.72016" lon="7.01315">
        <ele>273.2</ele>
        <time>2020-06-29T07:06:21Z</time>
      </trkpt>
      <trkpt lat="48.72014" lon="7.0131">
        <ele>273.3</ele>
        <time>2020-06-29T07:06:22Z</time>
      </trkpt>
      <trkpt lat="48.72011" lon="7.01304">
        <ele>273.3</ele>
        <time>2020-06-29T07:06:23Z</time>
      </trkpt>
      <trkpt lat="48.72008" lon="7.01299">
        <ele>273.4</ele>
        <time>2020-06-29T07:06:24Z</time>
      </trkpt>
      <trkpt lat="48.72006" lon="7.01294">
        <ele>273.4</ele>
        <time>2020-06-29T07:06:25Z</time>
      </trkpt>
      <trkpt lat="48.72003" lon="7.01289">
        <ele>273.5</ele>
        <time>2020-06-29T07:06:26Z</time>
      </trkpt>
      <trkpt lat="48.72001" lon="7.01284">
        <ele>273.6</ele>
        <time>2020-06-29T07:06:27Z</time>
      </trkpt>
      <trkpt lat="48.71998" lon="7.01279">
        <ele>273.7</ele>
        <time>2020-06-29T07:06:28Z</time>
      </trkpt>
      <trkpt lat="48.71996" lon="7.01274">
        <ele>273.8</ele>
        <time>2020-06-29T07:06:29Z</time>
      </trkpt>
      <trkpt lat="48.71993" lon="7.01268">
        <ele>273.9</ele>
        <time>2020-06-29T07:06:30Z</time>
      </trkpt>
      <trkpt lat="48.7199" lon="7.01263">
        <ele>274</ele>
        <time>2020-06-29T07:06:31Z</time>
      </trkpt>
      <trkpt lat="48.71987" lon="7.01257">
        <ele>274.1</ele>
        <time>2020-06-29T07:06:32Z</time>
      </trkpt>
      <trkpt lat="48.71984" lon="7.01252">
        <ele>274.1</ele>
        <time>2020-06-29T07:06:33Z</time>
      </trkpt>
      <trkpt lat="48.71981" lon="7.01247">
        <ele>274.2</ele>
        <time>2020-06-29T07:06:34Z</time>
      </trkpt>
      <trkpt lat="48.71978" lon="7.01242">
        <ele>274.3</ele>
        <time>2020-06-29T07:06:35Z</time>
      </trkpt>
      <trkpt lat="48.71976" lon="7.01237">
        <ele>274.4</ele>
        <time>2020-06-29T07:06:36Z</time>
      </trkpt>
      <trkpt lat="48.71972" lon="7.01232">
        <ele>274.5</ele>
        <time>2020-06-29T07:06:37Z</time>
      </trkpt>
      <trkpt lat="48.7197" lon="7.01227">
        <ele>274.6</ele>
        <time>2020-06-29T07:06:38Z</time>
      </trkpt>
      <trkpt lat="48.71967" lon="7.01222">
        <ele>274.6</ele>
        <time>2020-06-29T07:06:39Z</time>
      </trkpt>
      <trkpt lat="48.71963" lon="7.01217">
        <ele>274.7</ele>
        <time>2020-06-29T07:06:40Z</time>
      </trkpt>
      <trkpt lat="48.7196" lon="7.01213">
        <ele>274.8</ele>
        <time>2020-06-29T07:06:41Z</time>
      </trkpt>
      <trkpt lat="48.71957" lon="7.01208">
        <ele>274.9</ele>
        <time>2020-06-29T07:06:42Z</time>
      </trkpt>
      <trkpt lat="48.71954" lon="7.01203">
        <ele>275</ele>
        <time>2020-06-29T07:06:43Z</time>
      </trkpt>
      <trkpt lat="48.71951" lon="7.01198">
        <ele>275.1</ele>
        <time>2020-06-29T07:06:44Z</time>
      </trkpt>
      <trkpt lat="48.71948" lon="7.01193">
        <ele>275.2</ele>
        <time>2020-06-29T07:06:45Z</time>
      </trkpt>
      <trkpt lat="48.71945" lon="7.01188">
        <ele>275.3</ele>
        <time>2020-06-29T07:06:46Z</time>
      </trkpt>
      <trkpt lat="48.71942" lon="7.01184">
        <ele>275.3</ele>
        <time>2020-06-29T07:06:47Z</time>
      </trkpt>
      <trkpt lat="48.7194" lon="7.01179">
        <ele>275.4</ele>
        <time>2020-06-29T07:06:48Z</time>
      </trkpt>
      <trkpt lat="48.71937" lon="7.01174">
        <ele>275.4</ele>
        <time>2020-06-29T07:06:49Z</time>
      </trkpt>
      <trkpt lat="48.71934" lon="7.01168">
        <ele>275.5</ele>
        <time>2020-06-29T07:06:50Z</time>
      </trkpt>
      <trkpt lat="48.71931" lon="7.01164">
        <ele>275.6</ele>
        <time>2020-06-29T07:06:51Z</time>
      </trkpt>
      <trkpt lat="48.71929" lon="7.01158">
        <ele>275.6</ele>
        <time>2020-06-29T07:06:52Z</time>
      </trkpt>
      <trkpt lat="48.71926" lon="7.01153">
        <ele>275.7</ele>
        <time>2020-06-29T07:06:53Z</time>
      </trkpt>
      <trkpt lat="48.71923" lon="7.01147">
        <ele>275.7</ele>
        <time>2020-06-29T07:06:54Z</time>
      </trkpt>
      <trkpt lat="48.71921" lon="7.01142">
        <ele>275.8</ele>
        <time>2020-06-29T07:06:55Z</time>
      </trkpt>
      <trkpt lat="48.71918" lon="7.01137">
        <ele>275.9</ele>
        <time>2020-06-29T07:06:56Z</time>
      </trkpt>
      <trkpt lat="48.71916" lon="7.01132">
        <ele>275.9</ele>
        <time>2020-06-29T07:06:57Z</time>
      </trkpt>
      <trkpt lat="48.71913" lon="7.01127">
        <ele>276</ele>
        <time>2020-06-29T07:06:58Z</time>
      </trkpt>
      <trkpt lat="48.7191" lon="7.01122">
        <ele>276.1</ele>
        <time>2020-06-29T07:06:59Z</time>
      </trkpt>
      <trkpt lat="48.71908" lon="7.01118">
        <ele>276.1</ele>
        <time>2020-06-29T07:07:00Z</time>
      </trkpt>
      <trkpt lat="48.71905" lon="7.01113">
        <ele>276.2</ele>
        <time>2020-06-29T07:07:01Z</time>
      </trkpt>
      <trkpt lat="48.71902" lon="7.01107">
        <ele>276.3</ele>
        <time>2020-06-29T07:07:02Z</time>
      </trkpt>
      <trkpt lat="48.71899" lon="7.01103">
        <ele>276.4</ele>
        <time>2020-06-29T07:07:03Z</time>
      </trkpt>
      <trkpt lat="48.71896" lon="7.01098">
        <ele>276.3</ele>
        <time>2020-06-29T07:07:04Z</time>
      </trkpt>
      <trkpt lat="48.71893" lon="7.01093">
        <ele>276.3</ele>
        <time>2020-06-29T07:07:05Z</time>
      </trkpt>
      <trkpt lat="48.71891" lon="7.01088">
        <ele>276.2</ele>
        <time>2020-06-29T07:07:06Z</time>
      </trkpt>
      <trkpt lat="48.71887" lon="7.01082">
        <ele>276.2</ele>
        <time>2020-06-29T07:07:07Z</time>
      </trkpt>
      <trkpt lat="48.71884" lon="7.01077">
        <ele>276.2</ele>
        <time>2020-06-29T07:07:08Z</time>
      </trkpt>
      <trkpt lat="48.7188" lon="7.01072">
        <ele>276.2</ele>
        <time>2020-06-29T07:07:09Z</time>
      </trkpt>
      <trkpt lat="48.71877" lon="7.01066">
        <ele>276.2</ele>
        <time>2020-06-29T07:07:10Z</time>
      </trkpt>
      <trkpt lat="48.71873" lon="7.0106">
        <ele>276.2</ele>
        <time>2020-06-29T07:07:11Z</time>
      </trkpt>
      <trkpt lat="48.71869" lon="7.01054">
        <ele>276.2</ele>
        <time>2020-06-29T07:07:12Z</time>
      </trkpt>
      <trkpt lat="48.71866" lon="7.01048">
        <ele>276.2</ele>
        <time>2020-06-29T07:07:13Z</time>
      </trkpt>
      <trkpt lat="48.71863" lon="7.01042">
        <ele>276.2</ele>
        <time>2020-06-29T07:07:14Z</time>
      </trkpt>
      <trkpt lat="48.7186" lon="7.01037">
        <ele>276.3</ele>
        <time>2020-06-29T07:07:15Z</time>
      </trkpt>
      <trkpt lat="48.71857" lon="7.01032">
        <ele>276.3</ele>
        <time>2020-06-29T07:07:16Z</time>
      </trkpt>
      <trkpt lat="48.71855" lon="7.01027">
        <ele>276.3</ele>
        <time>2020-06-29T07:07:17Z</time>
      </trkpt>
      <trkpt lat="48.71851" lon="7.01022">
        <ele>276.3</ele>
        <time>2020-06-29T07:07:18Z</time>
      </trkpt>
      <trkpt lat="48.71848" lon="7.01016">
        <ele>276.4</ele>
        <time>2020-06-29T07:07:19Z</time>
      </trkpt>
      <trkpt lat="48.71845" lon="7.0101">
        <ele>276.5</ele>
        <time>2020-06-29T07:07:20Z</time>
      </trkpt>
      <trkpt lat="48.71841" lon="7.01004">
        <ele>276.6</ele>
        <time>2020-06-29T07:07:21Z</time>
      </trkpt>
      <trkpt lat="48.71838" lon="7.00998">
        <ele>276.7</ele>
        <time>2020-06-29T07:07:22Z</time>
      </trkpt>
      <trkpt lat="48.71835" lon="7.00992">
        <ele>276.8</ele>
        <time>2020-06-29T07:07:23Z</time>
      </trkpt>
      <trkpt lat="48.71831" lon="7.00987">
        <ele>276.9</ele>
        <time>2020-06-29T07:07:24Z</time>
      </trkpt>
      <trkpt lat="48.71828" lon="7.00981">
        <ele>277</ele>
        <time>2020-06-29T07:07:25Z</time>
      </trkpt>
      <trkpt lat="48.71825" lon="7.00974">
        <ele>277.1</ele>
        <time>2020-06-29T07:07:26Z</time>
      </trkpt>
      <trkpt lat="48.71822" lon="7.00967">
        <ele>277.1</ele>
        <time>2020-06-29T07:07:27Z</time>
      </trkpt>
      <trkpt lat="48.71818" lon="7.00961">
        <ele>277.2</ele>
        <time>2020-06-29T07:07:28Z</time>
      </trkpt>
      <trkpt lat="48.71815" lon="7.00956">
        <ele>277.3</ele>
        <time>2020-06-29T07:07:29Z</time>
      </trkpt>
      <trkpt lat="48.71812" lon="7.0095">
        <ele>277.4</ele>
        <time>2020-06-29T07:07:30Z</time>
      </trkpt>
      <trkpt lat="48.71808" lon="7.00944">
        <ele>277.5</ele>
        <time>2020-06-29T07:07:31Z</time>
      </trkpt>
      <trkpt lat="48.71804" lon="7.00938">
        <ele>277.6</ele>
        <time>2020-06-29T07:07:32Z</time>
      </trkpt>
      <trkpt lat="48.71801" lon="7.00933">
        <ele>277.7</ele>
        <time>2020-06-29T07:07:33Z</time>
      </trkpt>
      <trkpt lat="48.71798" lon="7.00927">
        <ele>277.8</ele>
        <time>2020-06-29T07:07:34Z</time>
      </trkpt>
      <trkpt lat="48.71794" lon="7.00921">
        <ele>277.9</ele>
        <time>2020-06-29T07:07:35Z</time>
      </trkpt>
      <trkpt lat="48.71791" lon="7.00915">
        <ele>278.1</ele>
        <time>2020-06-29T07:07:36Z</time>
      </trkpt>
      <trkpt lat="48.71788" lon="7.0091">
        <ele>278.2</ele>
        <time>2020-06-29T07:07:37Z</time>
      </trkpt>
      <trkpt lat="48.71785" lon="7.00905">
        <ele>278.4</ele>
        <time>2020-06-29T07:07:38Z</time>
      </trkpt>
      <trkpt lat="48.71782" lon="7.00899">
        <ele>278.6</ele>
        <time>2020-06-29T07:07:39Z</time>
      </trkpt>
      <trkpt lat="48.71779" lon="7.00893">
        <ele>278.8</ele>
        <time>2020-06-29T07:07:40Z</time>
      </trkpt>
      <trkpt lat="48.71775" lon="7.00888">
        <ele>279</ele>
        <time>2020-06-29T07:07:41Z</time>
      </trkpt>
      <trkpt lat="48.71772" lon="7.00882">
        <ele>279.2</ele>
        <time>2020-06-29T07:07:42Z</time>
      </trkpt>
      <trkpt lat="48.71769" lon="7.00876">
        <ele>279.4</ele>
        <time>2020-06-29T07:07:43Z</time>
      </trkpt>
      <trkpt lat="48.71766" lon="7.00871">
        <ele>279.7</ele>
        <time>2020-06-29T07:07:44Z</time>
      </trkpt>
      <trkpt lat="48.71763" lon="7.00865">
        <ele>279.9</ele>
        <time>2020-06-29T07:07:45Z</time>
      </trkpt>
      <trkpt lat="48.71761" lon="7.00861">
        <ele>280</ele>
        <time>2020-06-29T07:07:46Z</time>
      </trkpt>
      <trkpt lat="48.71757" lon="7.00854">
        <ele>280.3</ele>
        <time>2020-06-29T07:07:47Z</time>
      </trkpt>
      <trkpt lat="48.71755" lon="7.0085">
        <ele>280.5</ele>
        <time>2020-06-29T07:07:48Z</time>
      </trkpt>
      <trkpt lat="48.71752" lon="7.00846">
        <ele>280.7</ele>
        <time>2020-06-29T07:07:49Z</time>
      </trkpt>
      <trkpt lat="48.7175" lon="7.00841">
        <ele>280.8</ele>
        <time>2020-06-29T07:07:50Z</time>
      </trkpt>
      <trkpt lat="48.71747" lon="7.00837">
        <ele>281</ele>
        <time>2020-06-29T07:07:51Z</time>
      </trkpt>
      <trkpt lat="48.71745" lon="7.00832">
        <ele>281.3</ele>
        <time>2020-06-29T07:07:52Z</time>
      </trkpt>
      <trkpt lat="48.71743" lon="7.00827">
        <ele>281.5</ele>
        <time>2020-06-29T07:07:53Z</time>
      </trkpt>
      <trkpt lat="48.7174" lon="7.00822">
        <ele>281.7</ele>
        <time>2020-06-29T07:07:54Z</time>
      </trkpt>
      <trkpt lat="48.71738" lon="7.00818">
        <ele>281.9</ele>
        <time>2020-06-29T07:07:55Z</time>
      </trkpt>
      <trkpt lat="48.71736" lon="7.00813">
        <ele>282.1</ele>
        <time>2020-06-29T07:07:56Z</time>
      </trkpt>
      <trkpt lat="48.71733" lon="7.00809">
        <ele>282.3</ele>
        <time>2020-06-29T07:07:57Z</time>
      </trkpt>
      <trkpt lat="48.71732" lon="7.00805">
        <ele>282.5</ele>
        <time>2020-06-29T07:07:58Z</time>
      </trkpt>
      <trkpt lat="48.71729" lon="7.008">
        <ele>282.7</ele>
        <time>2020-06-29T07:07:59Z</time>
      </trkpt>
      <trkpt lat="48.71727" lon="7.00795">
        <ele>282.9</ele>
        <time>2020-06-29T07:08:00Z</time>
      </trkpt>
      <trkpt lat="48.71724" lon="7.00791">
        <ele>283.1</ele>
        <time>2020-06-29T07:08:01Z</time>
      </trkpt>
      <trkpt lat="48.71723" lon="7.00787">
        <ele>283.2</ele>
        <time>2020-06-29T07:08:02Z</time>
      </trkpt>
      <trkpt lat="48.71721" lon="7.00783">
        <ele>283.3</ele>
        <time>2020-06-29T07:08:03Z</time>
      </trkpt>
      <trkpt lat="48.71719" lon="7.00778">
        <ele>283.4</ele>
        <time>2020-06-29T07:08:04Z</time>
      </trkpt>
      <trkpt lat="48.71717" lon="7.00775">
        <ele>283.4</ele>
        <time>2020-06-29T07:08:05Z</time>
      </trkpt>
      <trkpt lat="48.71715" lon="7.00772">
        <ele>283.4</ele>
        <time>2020-06-29T07:08:06Z</time>
      </trkpt>
      <trkpt lat="48.71712" lon="7.00768">
        <ele>283.7</ele>
        <time>2020-06-29T07:08:07Z</time>
      </trkpt>
      <trkpt lat="48.71709" lon="7.00764">
        <ele>284</ele>
        <time>2020-06-29T07:08:08Z</time>
      </trkpt>
      <trkpt lat="48.71707" lon="7.0076">
        <ele>284.3</ele>
        <time>2020-06-29T07:08:09Z</time>
      </trkpt>
      <trkpt lat="48.71704" lon="7.00756">
        <ele>284.6</ele>
        <time>2020-06-29T07:08:10Z</time>
      </trkpt>
      <trkpt lat="48.71702" lon="7.00752">
        <ele>284.9</ele>
        <time>2020-06-29T07:08:11Z</time>
      </trkpt>
      <trkpt lat="48.71699" lon="7.00748">
        <ele>285.3</ele>
        <time>2020-06-29T07:08:12Z</time>
      </trkpt>
      <trkpt lat="48.71696" lon="7.00744">
        <ele>285.6</ele>
        <time>2020-06-29T07:08:13Z</time>
      </trkpt>
      <trkpt lat="48.71693" lon="7.00741">
        <ele>286</ele>
        <time>2020-06-29T07:08:14Z</time>
      </trkpt>
      <trkpt lat="48.71692" lon="7.00739">
        <ele>286.1</ele>
        <time>2020-06-29T07:08:15Z</time>
      </trkpt>
      <trkpt lat="48.7169" lon="7.00736">
        <ele>286.4</ele>
        <time>2020-06-29T07:08:16Z</time>
      </trkpt>
      <trkpt lat="48.71688" lon="7.00731">
        <ele>286.7</ele>
        <time>2020-06-29T07:08:17Z</time>
      </trkpt>
      <trkpt lat="48.71686" lon="7.00728">
        <ele>287.1</ele>
        <time>2020-06-29T07:08:18Z</time>
      </trkpt>
      <trkpt lat="48.71684" lon="7.00723">
        <ele>287.4</ele>
        <time>2020-06-29T07:08:19Z</time>
      </trkpt>
      <trkpt lat="48.71682" lon="7.0072">
        <ele>287.7</ele>
        <time>2020-06-29T07:08:20Z</time>
      </trkpt>
      <trkpt lat="48.7168" lon="7.00716">
        <ele>288</ele>
        <time>2020-06-29T07:08:21Z</time>
      </trkpt>
      <trkpt lat="48.71678" lon="7.00712">
        <ele>288.3</ele>
        <time>2020-06-29T07:08:22Z</time>
      </trkpt>
      <trkpt lat="48.71675" lon="7.00708">
        <ele>288.7</ele>
        <time>2020-06-29T07:08:23Z</time>
      </trkpt>
      <trkpt lat="48.71673" lon="7.00704">
        <ele>289</ele>
        <time>2020-06-29T07:08:24Z</time>
      </trkpt>
      <trkpt lat="48.71671" lon="7.00701">
        <ele>289.3</ele>
        <time>2020-06-29T07:08:25Z</time>
      </trkpt>
      <trkpt lat="48.71668" lon="7.00697">
        <ele>289.7</ele>
        <time>2020-06-29T07:08:26Z</time>
      </trkpt>
      <trkpt lat="48.71666" lon="7.00693">
        <ele>290.1</ele>
        <time>2020-06-29T07:08:27Z</time>
      </trkpt>
      <trkpt lat="48.71664" lon="7.00688">
        <ele>290.4</ele>
        <time>2020-06-29T07:08:28Z</time>
      </trkpt>
      <trkpt lat="48.71662" lon="7.00684">
        <ele>290.7</ele>
        <time>2020-06-29T07:08:29Z</time>
      </trkpt>
      <trkpt lat="48.7166" lon="7.0068">
        <ele>291</ele>
        <time>2020-06-29T07:08:30Z</time>
      </trkpt>
      <trkpt lat="48.71658" lon="7.00677">
        <ele>291.4</ele>
        <time>2020-06-29T07:08:31Z</time>
      </trkpt>
      <trkpt lat="48.71655" lon="7.00673">
        <ele>291.7</ele>
        <time>2020-06-29T07:08:32Z</time>
      </trkpt>
      <trkpt lat="48.71653" lon="7.0067">
        <ele>292</ele>
        <time>2020-06-29T07:08:33Z</time>
      </trkpt>
      <trkpt lat="48.71651" lon="7.00666">
        <ele>292.3</ele>
        <time>2020-06-29T07:08:34Z</time>
      </trkpt>
      <trkpt lat="48.71649" lon="7.00662">
        <ele>292.6</ele>
        <time>2020-06-29T07:08:35Z</time>
      </trkpt>
      <trkpt lat="48.71648" lon="7.00658">
        <ele>292.9</ele>
        <time>2020-06-29T07:08:36Z</time>
      </trkpt>
      <trkpt lat="48.71646" lon="7.00654">
        <ele>293.2</ele>
        <time>2020-06-29T07:08:37Z</time>
      </trkpt>
      <trkpt lat="48.71644" lon="7.0065">
        <ele>293.5</ele>
        <time>2020-06-29T07:08:38Z</time>
      </trkpt>
      <trkpt lat="48.71641" lon="7.00645">
        <ele>293.8</ele>
        <time>2020-06-29T07:08:39Z</time>
      </trkpt>
      <trkpt lat="48.71639" lon="7.00642">
        <ele>294.1</ele>
        <time>2020-06-29T07:08:40Z</time>
      </trkpt>
      <trkpt lat="48.71637" lon="7.00638">
        <ele>294.3</ele>
        <time>2020-06-29T07:08:41Z</time>
      </trkpt>
      <trkpt lat="48.71635" lon="7.00635">
        <ele>294.5</ele>
        <time>2020-06-29T07:08:42Z</time>
      </trkpt>
      <trkpt lat="48.71634" lon="7.00631">
        <ele>294.7</ele>
        <time>2020-06-29T07:08:43Z</time>
      </trkpt>
      <trkpt lat="48.71632" lon="7.00627">
        <ele>294.9</ele>
        <time>2020-06-29T07:08:44Z</time>
      </trkpt>
      <trkpt lat="48.7163" lon="7.00624">
        <ele>295.1</ele>
        <time>2020-06-29T07:08:45Z</time>
      </trkpt>
      <trkpt lat="48.71627" lon="7.0062">
        <ele>295.3</ele>
        <time>2020-06-29T07:08:46Z</time>
      </trkpt>
      <trkpt lat="48.71625" lon="7.00616">
        <ele>295.5</ele>
        <time>2020-06-29T07:08:47Z</time>
      </trkpt>
      <trkpt lat="48.71623" lon="7.00612">
        <ele>295.7</ele>
        <time>2020-06-29T07:08:48Z</time>
      </trkpt>
      <trkpt lat="48.71621" lon="7.00607">
        <ele>295.9</ele>
        <time>2020-06-29T07:08:49Z</time>
      </trkpt>
      <trkpt lat="48.71619" lon="7.00603">
        <ele>296.1</ele>
        <time>2020-06-29T07:08:50Z</time>
      </trkpt>
      <trkpt lat="48.71617" lon="7.006">
        <ele>296.3</ele>
        <time>2020-06-29T07:08:51Z</time>
      </trkpt>
      <trkpt lat="48.71615" lon="7.00596">
        <ele>296.4</ele>
        <time>2020-06-29T07:08:52Z</time>
      </trkpt>
      <trkpt lat="48.71613" lon="7.00591">
        <ele>296.7</ele>
        <time>2020-06-29T07:08:53Z</time>
      </trkpt>
      <trkpt lat="48.71611" lon="7.00588">
        <ele>296.9</ele>
        <time>2020-06-29T07:08:54Z</time>
      </trkpt>
      <trkpt lat="48.71609" lon="7.00583">
        <ele>297</ele>
        <time>2020-06-29T07:08:55Z</time>
      </trkpt>
      <trkpt lat="48.71606" lon="7.00579">
        <ele>297.2</ele>
        <time>2020-06-29T07:08:56Z</time>
      </trkpt>
      <trkpt lat="48.71604" lon="7.00575">
        <ele>297.3</ele>
        <time>2020-06-29T07:08:57Z</time>
      </trkpt>
      <trkpt lat="48.71602" lon="7.00571">
        <ele>297.5</ele>
        <time>2020-06-29T07:08:58Z</time>
      </trkpt>
      <trkpt lat="48.71599" lon="7.00567">
        <ele>297.6</ele>
        <time>2020-06-29T07:08:59Z</time>
      </trkpt>
      <trkpt lat="48.71597" lon="7.00563">
        <ele>297.8</ele>
        <time>2020-06-29T07:09:00Z</time>
      </trkpt>
      <trkpt lat="48.71595" lon="7.00559">
        <ele>297.9</ele>
        <time>2020-06-29T07:09:01Z</time>
      </trkpt>
      <trkpt lat="48.71592" lon="7.00554">
        <ele>298.1</ele>
        <time>2020-06-29T07:09:02Z</time>
      </trkpt>
      <trkpt lat="48.7159" lon="7.00549">
        <ele>298.2</ele>
        <time>2020-06-29T07:09:03Z</time>
      </trkpt>
      <trkpt lat="48.71587" lon="7.00545">
        <ele>298.4</ele>
        <time>2020-06-29T07:09:04Z</time>
      </trkpt>
      <trkpt lat="48.71586" lon="7.00541">
        <ele>298.5</ele>
        <time>2020-06-29T07:09:05Z</time>
      </trkpt>
      <trkpt lat="48.71584" lon="7.00538">
        <ele>298.6</ele>
        <time>2020-06-29T07:09:06Z</time>
      </trkpt>
      <trkpt lat="48.71582" lon="7.00534">
        <ele>298.7</ele>
        <time>2020-06-29T07:09:07Z</time>
      </trkpt>
      <trkpt lat="48.71579" lon="7.0053">
        <ele>298.7</ele>
        <time>2020-06-29T07:09:08Z</time>
      </trkpt>
      <trkpt lat="48.71577" lon="7.00527">
        <ele>298.8</ele>
        <time>2020-06-29T07:09:09Z</time>
      </trkpt>
      <trkpt lat="48.71575" lon="7.00523">
        <ele>298.8</ele>
        <time>2020-06-29T07:09:10Z</time>
      </trkpt>
      <trkpt lat="48.71572" lon="7.0052">
        <ele>298.8</ele>
        <time>2020-06-29T07:09:11Z</time>
      </trkpt>
      <trkpt lat="48.71569" lon="7.00516">
        <ele>298.9</ele>
        <time>2020-06-29T07:09:12Z</time>
      </trkpt>
      <trkpt lat="48.71567" lon="7.00513">
        <ele>298.9</ele>
        <time>2020-06-29T07:09:13Z</time>
      </trkpt>
      <trkpt lat="48.71564" lon="7.00509">
        <ele>299</ele>
        <time>2020-06-29T07:09:14Z</time>
      </trkpt>
      <trkpt lat="48.71562" lon="7.00504">
        <ele>299.2</ele>
        <time>2020-06-29T07:09:15Z</time>
      </trkpt>
      <trkpt lat="48.71559" lon="7.00499">
        <ele>299.3</ele>
        <time>2020-06-29T07:09:16Z</time>
      </trkpt>
      <trkpt lat="48.71557" lon="7.00495">
        <ele>299.5</ele>
        <time>2020-06-29T07:09:17Z</time>
      </trkpt>
      <trkpt lat="48.71555" lon="7.00489">
        <ele>299.7</ele>
        <time>2020-06-29T07:09:18Z</time>
      </trkpt>
      <trkpt lat="48.71553" lon="7.00484">
        <ele>299.9</ele>
        <time>2020-06-29T07:09:19Z</time>
      </trkpt>
      <trkpt lat="48.71551" lon="7.00479">
        <ele>300</ele>
        <time>2020-06-29T07:09:20Z</time>
      </trkpt>
      <trkpt lat="48.71548" lon="7.00473">
        <ele>300.1</ele>
        <time>2020-06-29T07:09:21Z</time>
      </trkpt>
      <trkpt lat="48.71546" lon="7.00468">
        <ele>300.2</ele>
        <time>2020-06-29T07:09:22Z</time>
      </trkpt>
      <trkpt lat="48.71544" lon="7.00464">
        <ele>300.2</ele>
        <time>2020-06-29T07:09:23Z</time>
      </trkpt>
      <trkpt lat="48.71541" lon="7.00459">
        <ele>300.3</ele>
        <time>2020-06-29T07:09:24Z</time>
      </trkpt>
      <trkpt lat="48.71538" lon="7.00456">
        <ele>300.4</ele>
        <time>2020-06-29T07:09:25Z</time>
      </trkpt>
      <trkpt lat="48.71535" lon="7.00452">
        <ele>300.5</ele>
        <time>2020-06-29T07:09:26Z</time>
      </trkpt>
      <trkpt lat="48.71533" lon="7.00447">
        <ele>300.6</ele>
        <time>2020-06-29T07:09:27Z</time>
      </trkpt>
      <trkpt lat="48.7153" lon="7.00444">
        <ele>300.7</ele>
        <time>2020-06-29T07:09:28Z</time>
      </trkpt>
      <trkpt lat="48.71527" lon="7.00438">
        <ele>300.8</ele>
        <time>2020-06-29T07:09:29Z</time>
      </trkpt>
      <trkpt lat="48.71524" lon="7.00433">
        <ele>300.9</ele>
        <time>2020-06-29T07:09:30Z</time>
      </trkpt>
      <trkpt lat="48.71522" lon="7.00429">
        <ele>300.9</ele>
        <time>2020-06-29T07:09:31Z</time>
      </trkpt>
      <trkpt lat="48.71519" lon="7.00425">
        <ele>300.9</ele>
        <time>2020-06-29T07:09:32Z</time>
      </trkpt>
      <trkpt lat="48.71516" lon="7.00421">
        <ele>300.9</ele>
        <time>2020-06-29T07:09:33Z</time>
      </trkpt>
      <trkpt lat="48.71514" lon="7.00417">
        <ele>300.9</ele>
        <time>2020-06-29T07:09:34Z</time>
      </trkpt>
      <trkpt lat="48.71511" lon="7.00412">
        <ele>300.9</ele>
        <time>2020-06-29T07:09:35Z</time>
      </trkpt>
      <trkpt lat="48.71508" lon="7.00406">
        <ele>300.8</ele>
        <time>2020-06-29T07:09:36Z</time>
      </trkpt>
      <trkpt lat="48.71505" lon="7.004">
        <ele>300.8</ele>
        <time>2020-06-29T07:09:37Z</time>
      </trkpt>
      <trkpt lat="48.71502" lon="7.00395">
        <ele>300.8</ele>
        <time>2020-06-29T07:09:38Z</time>
      </trkpt>
      <trkpt lat="48.71499" lon="7.00391">
        <ele>300.7</ele>
        <time>2020-06-29T07:09:39Z</time>
      </trkpt>
      <trkpt lat="48.71495" lon="7.00386">
        <ele>300.7</ele>
        <time>2020-06-29T07:09:40Z</time>
      </trkpt>
      <trkpt lat="48.71492" lon="7.00381">
        <ele>300.7</ele>
        <time>2020-06-29T07:09:41Z</time>
      </trkpt>
      <trkpt lat="48.71489" lon="7.00375">
        <ele>300.6</ele>
        <time>2020-06-29T07:09:42Z</time>
      </trkpt>
      <trkpt lat="48.71486" lon="7.0037">
        <ele>300.5</ele>
        <time>2020-06-29T07:09:43Z</time>
      </trkpt>
      <trkpt lat="48.71482" lon="7.00365">
        <ele>300.4</ele>
        <time>2020-06-29T07:09:44Z</time>
      </trkpt>
      <trkpt lat="48.71479" lon="7.00359">
        <ele>300.3</ele>
        <time>2020-06-29T07:09:45Z</time>
      </trkpt>
      <trkpt lat="48.71476" lon="7.00354">
        <ele>300.2</ele>
        <time>2020-06-29T07:09:46Z</time>
      </trkpt>
      <trkpt lat="48.71473" lon="7.00348">
        <ele>300.1</ele>
        <time>2020-06-29T07:09:47Z</time>
      </trkpt>
      <trkpt lat="48.7147" lon="7.00343">
        <ele>300.1</ele>
        <time>2020-06-29T07:09:48Z</time>
      </trkpt>
      <trkpt lat="48.71466" lon="7.00337">
        <ele>300.1</ele>
        <time>2020-06-29T07:09:49Z</time>
      </trkpt>
      <trkpt lat="48.71463" lon="7.00331">
        <ele>300.1</ele>
        <time>2020-06-29T07:09:50Z</time>
      </trkpt>
      <trkpt lat="48.71459" lon="7.00325">
        <ele>300.1</ele>
        <time>2020-06-29T07:09:51Z</time>
      </trkpt>
      <trkpt lat="48.71454" lon="7.00318">
        <ele>299.9</ele>
        <time>2020-06-29T07:09:52Z</time>
      </trkpt>
      <trkpt lat="48.7145" lon="7.00311">
        <ele>299.8</ele>
        <time>2020-06-29T07:09:53Z</time>
      </trkpt>
      <trkpt lat="48.71446" lon="7.00304">
        <ele>299.6</ele>
        <time>2020-06-29T07:09:54Z</time>
      </trkpt>
      <trkpt lat="48.71442" lon="7.00298">
        <ele>299.5</ele>
        <time>2020-06-29T07:09:55Z</time>
      </trkpt>
      <trkpt lat="48.71439" lon="7.00291">
        <ele>299.3</ele>
        <time>2020-06-29T07:09:56Z</time>
      </trkpt>
      <trkpt lat="48.71435" lon="7.00285">
        <ele>299.2</ele>
        <time>2020-06-29T07:09:57Z</time>
      </trkpt>
      <trkpt lat="48.71432" lon="7.00278">
        <ele>299.1</ele>
        <time>2020-06-29T07:09:58Z</time>
      </trkpt>
      <trkpt lat="48.71429" lon="7.00271">
        <ele>298.9</ele>
        <time>2020-06-29T07:09:59Z</time>
      </trkpt>
      <trkpt lat="48.71426" lon="7.00265">
        <ele>298.7</ele>
        <time>2020-06-29T07:10:00Z</time>
      </trkpt>
      <trkpt lat="48.71423" lon="7.00259">
        <ele>298.5</ele>
        <time>2020-06-29T07:10:01Z</time>
      </trkpt>
      <trkpt lat="48.7142" lon="7.00252">
        <ele>298.2</ele>
        <time>2020-06-29T07:10:02Z</time>
      </trkpt>
      <trkpt lat="48.71415" lon="7.00244">
        <ele>298</ele>
        <time>2020-06-29T07:10:03Z</time>
      </trkpt>
      <trkpt lat="48.71411" lon="7.00236">
        <ele>297.8</ele>
        <time>2020-06-29T07:10:04Z</time>
      </trkpt>
      <trkpt lat="48.71405" lon="7.00229">
        <ele>297.6</ele>
        <time>2020-06-29T07:10:05Z</time>
      </trkpt>
      <trkpt lat="48.714" lon="7.00221">
        <ele>297.4</ele>
        <time>2020-06-29T07:10:06Z</time>
      </trkpt>
      <trkpt lat="48.71396" lon="7.00214">
        <ele>297.1</ele>
        <time>2020-06-29T07:10:07Z</time>
      </trkpt>
      <trkpt lat="48.71391" lon="7.00207">
        <ele>296.7</ele>
        <time>2020-06-29T07:10:08Z</time>
      </trkpt>
      <trkpt lat="48.71386" lon="7.002">
        <ele>296</ele>
        <time>2020-06-29T07:10:09Z</time>
      </trkpt>
      <trkpt lat="48.71381" lon="7.00192">
        <ele>294.9</ele>
        <time>2020-06-29T07:10:10Z</time>
      </trkpt>
      <trkpt lat="48.71376" lon="7.00183">
        <ele>292.9</ele>
        <time>2020-06-29T07:10:11Z</time>
      </trkpt>
      <trkpt lat="48.71371" lon="7.00175">
        <ele>290</ele>
        <time>2020-06-29T07:10:12Z</time>
      </trkpt>
      <trkpt lat="48.71366" lon="7.00165">
        <ele>288.2</ele>
        <time>2020-06-29T07:10:13Z</time>
      </trkpt>
      <trkpt lat="48.71361" lon="7.00156">
        <ele>287.5</ele>
        <time>2020-06-29T07:10:14Z</time>
      </trkpt>
      <trkpt lat="48.71355" lon="7.00148">
        <ele>286.9</ele>
        <time>2020-06-29T07:10:15Z</time>
      </trkpt>
      <trkpt lat="48.71349" lon="7.00139">
        <ele>286.3</ele>
        <time>2020-06-29T07:10:16Z</time>
      </trkpt>
      <trkpt lat="48.71344" lon="7.0013">
        <ele>285.7</ele>
        <time>2020-06-29T07:10:17Z</time>
      </trkpt>
      <trkpt lat="48.71338" lon="7.00121">
        <ele>285.1</ele>
        <time>2020-06-29T07:10:18Z</time>
      </trkpt>
      <trkpt lat="48.71332" lon="7.00111">
        <ele>284.4</ele>
        <time>2020-06-29T07:10:19Z</time>
      </trkpt>
      <trkpt lat="48.71326" lon="7.00101">
        <ele>283.8</ele>
        <time>2020-06-29T07:10:20Z</time>
      </trkpt>
      <trkpt lat="48.7132" lon="7.00091">
        <ele>283.2</ele>
        <time>2020-06-29T07:10:21Z</time>
      </trkpt>
      <trkpt lat="48.71314" lon="7.00081">
        <ele>282.5</ele>
        <time>2020-06-29T07:10:22Z</time>
      </trkpt>
      <trkpt lat="48.71307" lon="7.0007">
        <ele>281.8</ele>
        <time>2020-06-29T07:10:23Z</time>
      </trkpt>
      <trkpt lat="48.71301" lon="7.00059">
        <ele>281.2</ele>
        <time>2020-06-29T07:10:24Z</time>
      </trkpt>
      <trkpt lat="48.71294" lon="7.00049">
        <ele>280.6</ele>
        <time>2020-06-29T07:10:25Z</time>
      </trkpt>
      <trkpt lat="48.71288" lon="7.00037">
        <ele>280</ele>
        <time>2020-06-29T07:10:26Z</time>
      </trkpt>
      <trkpt lat="48.71281" lon="7.00026">
        <ele>279.3</ele>
        <time>2020-06-29T07:10:27Z</time>
      </trkpt>
      <trkpt lat="48.71275" lon="7.00015">
        <ele>278.6</ele>
        <time>2020-06-29T07:10:28Z</time>
      </trkpt>
      <trkpt lat="48.71269" lon="7.00004">
        <ele>278</ele>
        <time>2020-06-29T07:10:29Z</time>
      </trkpt>
      <trkpt lat="48.71262" lon="6.99993">
        <ele>277.4</ele>
        <time>2020-06-29T07:10:30Z</time>
      </trkpt>
      <trkpt lat="48.71255" lon="6.99982">
        <ele>276.8</ele>
        <time>2020-06-29T07:10:31Z</time>
      </trkpt>
      <trkpt lat="48.71249" lon="6.9997">
        <ele>276.3</ele>
        <time>2020-06-29T07:10:32Z</time>
      </trkpt>
      <trkpt lat="48.71242" lon="6.99959">
        <ele>275.8</ele>
        <time>2020-06-29T07:10:33Z</time>
      </trkpt>
      <trkpt lat="48.71236" lon="6.99947">
        <ele>275.4</ele>
        <time>2020-06-29T07:10:34Z</time>
      </trkpt>
      <trkpt lat="48.7123" lon="6.99936">
        <ele>275</ele>
        <time>2020-06-29T07:10:35Z</time>
      </trkpt>
      <trkpt lat="48.71224" lon="6.99925">
        <ele>274.5</ele>
        <time>2020-06-29T07:10:36Z</time>
      </trkpt>
      <trkpt lat="48.71218" lon="6.99915">
        <ele>274.3</ele>
        <time>2020-06-29T07:10:37Z</time>
      </trkpt>
      <trkpt lat="48.71212" lon="6.99904">
        <ele>274.1</ele>
        <time>2020-06-29T07:10:38Z</time>
      </trkpt>
      <trkpt lat="48.71206" lon="6.99894">
        <ele>273.9</ele>
        <time>2020-06-29T07:10:39Z</time>
      </trkpt>
      <trkpt lat="48.71201" lon="6.99884">
        <ele>273.7</ele>
        <time>2020-06-29T07:10:40Z</time>
      </trkpt>
      <trkpt lat="48.71195" lon="6.99875">
        <ele>273.6</ele>
        <time>2020-06-29T07:10:41Z</time>
      </trkpt>
      <trkpt lat="48.71189" lon="6.99866">
        <ele>273.5</ele>
        <time>2020-06-29T07:10:42Z</time>
      </trkpt>
      <trkpt lat="48.71184" lon="6.99857">
        <ele>273.4</ele>
        <time>2020-06-29T07:10:43Z</time>
      </trkpt>
      <trkpt lat="48.71179" lon="6.99847">
        <ele>273.3</ele>
        <time>2020-06-29T07:10:44Z</time>
      </trkpt>
      <trkpt lat="48.71174" lon="6.99838">
        <ele>273.2</ele>
        <time>2020-06-29T07:10:45Z</time>
      </trkpt>
      <trkpt lat="48.71169" lon="6.99829">
        <ele>273.2</ele>
        <time>2020-06-29T07:10:46Z</time>
      </trkpt>
      <trkpt lat="48.71164" lon="6.99819">
        <ele>273.1</ele>
        <time>2020-06-29T07:10:47Z</time>
      </trkpt>
      <trkpt lat="48.7116" lon="6.99811">
        <ele>273</ele>
        <time>2020-06-29T07:10:48Z</time>
      </trkpt>
      <trkpt lat="48.71155" lon="6.99802">
        <ele>272.9</ele>
        <time>2020-06-29T07:10:49Z</time>
      </trkpt>
      <trkpt lat="48.7115" lon="6.99793">
        <ele>272.9</ele>
        <time>2020-06-29T07:10:50Z</time>
      </trkpt>
      <trkpt lat="48.71145" lon="6.99785">
        <ele>272.9</ele>
        <time>2020-06-29T07:10:51Z</time>
      </trkpt>
      <trkpt lat="48.71141" lon="6.99777">
        <ele>272.9</ele>
        <time>2020-06-29T07:10:52Z</time>
      </trkpt>
      <trkpt lat="48.71136" lon="6.99768">
        <ele>273</ele>
        <time>2020-06-29T07:10:53Z</time>
      </trkpt>
      <trkpt lat="48.71131" lon="6.99759">
        <ele>273.1</ele>
        <time>2020-06-29T07:10:54Z</time>
      </trkpt>
      <trkpt lat="48.71127" lon="6.99751">
        <ele>273.1</ele>
        <time>2020-06-29T07:10:55Z</time>
      </trkpt>
      <trkpt lat="48.71122" lon="6.99743">
        <ele>273.2</ele>
        <time>2020-06-29T07:10:56Z</time>
      </trkpt>
      <trkpt lat="48.71117" lon="6.99735">
        <ele>273.2</ele>
        <time>2020-06-29T07:10:57Z</time>
      </trkpt>
      <trkpt lat="48.71111" lon="6.99727">
        <ele>273.3</ele>
        <time>2020-06-29T07:10:58Z</time>
      </trkpt>
      <trkpt lat="48.71106" lon="6.99719">
        <ele>273.3</ele>
        <time>2020-06-29T07:10:59Z</time>
      </trkpt>
      <trkpt lat="48.71101" lon="6.99711">
        <ele>273.2</ele>
        <time>2020-06-29T07:11:00Z</time>
      </trkpt>
      <trkpt lat="48.71096" lon="6.99703">
        <ele>273</ele>
        <time>2020-06-29T07:11:01Z</time>
      </trkpt>
      <trkpt lat="48.71091" lon="6.99695">
        <ele>271.9</ele>
        <time>2020-06-29T07:11:02Z</time>
      </trkpt>
      <trkpt lat="48.71087" lon="6.99686">
        <ele>271</ele>
        <time>2020-06-29T07:11:03Z</time>
      </trkpt>
      <trkpt lat="48.71083" lon="6.99678">
        <ele>270.7</ele>
        <time>2020-06-29T07:11:04Z</time>
      </trkpt>
      <trkpt lat="48.71078" lon="6.9967">
        <ele>271.2</ele>
        <time>2020-06-29T07:11:05Z</time>
      </trkpt>
      <trkpt lat="48.71073" lon="6.99663">
        <ele>271.7</ele>
        <time>2020-06-29T07:11:06Z</time>
      </trkpt>
      <trkpt lat="48.71069" lon="6.99655">
        <ele>272.2</ele>
        <time>2020-06-29T07:11:07Z</time>
      </trkpt>
      <trkpt lat="48.71065" lon="6.99649">
        <ele>272.7</ele>
        <time>2020-06-29T07:11:08Z</time>
      </trkpt>
      <trkpt lat="48.71061" lon="6.99643">
        <ele>273.2</ele>
        <time>2020-06-29T07:11:09Z</time>
      </trkpt>
      <trkpt lat="48.71057" lon="6.99636">
        <ele>273.5</ele>
        <time>2020-06-29T07:11:10Z</time>
      </trkpt>
      <trkpt lat="48.71052" lon="6.99629">
        <ele>273.7</ele>
        <time>2020-06-29T07:11:11Z</time>
      </trkpt>
      <trkpt lat="48.71048" lon="6.99623">
        <ele>273.8</ele>
        <time>2020-06-29T07:11:12Z</time>
      </trkpt>
      <trkpt lat="48.71044" lon="6.99616">
        <ele>273.5</ele>
        <time>2020-06-29T07:11:13Z</time>
      </trkpt>
      <trkpt lat="48.7104" lon="6.9961">
        <ele>272.7</ele>
        <time>2020-06-29T07:11:14Z</time>
      </trkpt>
      <trkpt lat="48.71037" lon="6.99605">
        <ele>272.2</ele>
        <time>2020-06-29T07:11:15Z</time>
      </trkpt>
      <trkpt lat="48.71033" lon="6.99599">
        <ele>272.5</ele>
        <time>2020-06-29T07:11:16Z</time>
      </trkpt>
      <trkpt lat="48.7103" lon="6.99593">
        <ele>272.8</ele>
        <time>2020-06-29T07:11:17Z</time>
      </trkpt>
      <trkpt lat="48.71026" lon="6.99588">
        <ele>273.1</ele>
        <time>2020-06-29T07:11:18Z</time>
      </trkpt>
      <trkpt lat="48.71022" lon="6.99582">
        <ele>273.4</ele>
        <time>2020-06-29T07:11:19Z</time>
      </trkpt>
      <trkpt lat="48.71019" lon="6.99576">
        <ele>273.7</ele>
        <time>2020-06-29T07:11:20Z</time>
      </trkpt>
      <trkpt lat="48.71016" lon="6.99571">
        <ele>274</ele>
        <time>2020-06-29T07:11:21Z</time>
      </trkpt>
      <trkpt lat="48.71012" lon="6.99565">
        <ele>274.3</ele>
        <time>2020-06-29T07:11:22Z</time>
      </trkpt>
      <trkpt lat="48.71009" lon="6.9956">
        <ele>274.6</ele>
        <time>2020-06-29T07:11:23Z</time>
      </trkpt>
      <trkpt lat="48.71006" lon="6.99555">
        <ele>274.9</ele>
        <time>2020-06-29T07:11:24Z</time>
      </trkpt>
      <trkpt lat="48.71003" lon="6.9955">
        <ele>275.3</ele>
        <time>2020-06-29T07:11:25Z</time>
      </trkpt>
      <trkpt lat="48.70999" lon="6.99544">
        <ele>275.6</ele>
        <time>2020-06-29T07:11:26Z</time>
      </trkpt>
      <trkpt lat="48.70997" lon="6.99539">
        <ele>275.9</ele>
        <time>2020-06-29T07:11:27Z</time>
      </trkpt>
      <trkpt lat="48.70994" lon="6.99534">
        <ele>276.2</ele>
        <time>2020-06-29T07:11:28Z</time>
      </trkpt>
      <trkpt lat="48.7099" lon="6.99531">
        <ele>276.4</ele>
        <time>2020-06-29T07:11:29Z</time>
      </trkpt>
      <trkpt lat="48.70987" lon="6.99526">
        <ele>276.7</ele>
        <time>2020-06-29T07:11:30Z</time>
      </trkpt>
      <trkpt lat="48.70984" lon="6.99522">
        <ele>277.2</ele>
        <time>2020-06-29T07:11:31Z</time>
      </trkpt>
      <trkpt lat="48.70981" lon="6.99518">
        <ele>277.3</ele>
        <time>2020-06-29T07:11:32Z</time>
      </trkpt>
      <trkpt lat="48.70978" lon="6.99513">
        <ele>277.4</ele>
        <time>2020-06-29T07:11:33Z</time>
      </trkpt>
      <trkpt lat="48.70976" lon="6.99509">
        <ele>277.6</ele>
        <time>2020-06-29T07:11:34Z</time>
      </trkpt>
      <trkpt lat="48.70972" lon="6.99505">
        <ele>277.7</ele>
        <time>2020-06-29T07:11:35Z</time>
      </trkpt>
      <trkpt lat="48.7097" lon="6.995">
        <ele>277.8</ele>
        <time>2020-06-29T07:11:36Z</time>
      </trkpt>
      <trkpt lat="48.70968" lon="6.99495">
        <ele>277.9</ele>
        <time>2020-06-29T07:11:37Z</time>
      </trkpt>
      <trkpt lat="48.70965" lon="6.99491">
        <ele>278.1</ele>
        <time>2020-06-29T07:11:38Z</time>
      </trkpt>
      <trkpt lat="48.70962" lon="6.99486">
        <ele>278.2</ele>
        <time>2020-06-29T07:11:39Z</time>
      </trkpt>
      <trkpt lat="48.7096" lon="6.99482">
        <ele>278.3</ele>
        <time>2020-06-29T07:11:40Z</time>
      </trkpt>
      <trkpt lat="48.70956" lon="6.99476">
        <ele>278.6</ele>
        <time>2020-06-29T07:11:41Z</time>
      </trkpt>
      <trkpt lat="48.70954" lon="6.99472">
        <ele>278.7</ele>
        <time>2020-06-29T07:11:42Z</time>
      </trkpt>
      <trkpt lat="48.70953" lon="6.9947">
        <ele>278.8</ele>
        <time>2020-06-29T07:11:43Z</time>
      </trkpt>
      <trkpt lat="48.7095" lon="6.99465">
        <ele>278.9</ele>
        <time>2020-06-29T07:11:44Z</time>
      </trkpt>
      <trkpt lat="48.70948" lon="6.99462">
        <ele>279.1</ele>
        <time>2020-06-29T07:11:45Z</time>
      </trkpt>
      <trkpt lat="48.70946" lon="6.99458">
        <ele>279.2</ele>
        <time>2020-06-29T07:11:46Z</time>
      </trkpt>
      <trkpt lat="48.70943" lon="6.99453">
        <ele>279.3</ele>
        <time>2020-06-29T07:11:47Z</time>
      </trkpt>
      <trkpt lat="48.7094" lon="6.99448">
        <ele>279.5</ele>
        <time>2020-06-29T07:11:48Z</time>
      </trkpt>
      <trkpt lat="48.70937" lon="6.99443">
        <ele>279.6</ele>
        <time>2020-06-29T07:11:49Z</time>
      </trkpt>
      <trkpt lat="48.70934" lon="6.99439">
        <ele>279.8</ele>
        <time>2020-06-29T07:11:50Z</time>
      </trkpt>
      <trkpt lat="48.7093" lon="6.99432">
        <ele>280</ele>
        <time>2020-06-29T07:11:51Z</time>
      </trkpt>
      <trkpt lat="48.70927" lon="6.99427">
        <ele>280.2</ele>
        <time>2020-06-29T07:11:52Z</time>
      </trkpt>
      <trkpt lat="48.70926" lon="6.99423">
        <ele>280.3</ele>
        <time>2020-06-29T07:11:53Z</time>
      </trkpt>
      <trkpt lat="48.70925" lon="6.99421">
        <ele>280.4</ele>
        <time>2020-06-29T07:11:54Z</time>
      </trkpt>
      <trkpt lat="48.70923" lon="6.99416">
        <ele>280.6</ele>
        <time>2020-06-29T07:11:55Z</time>
      </trkpt>
      <trkpt lat="48.7092" lon="6.99412">
        <ele>280.8</ele>
        <time>2020-06-29T07:11:56Z</time>
      </trkpt>
      <trkpt lat="48.70917" lon="6.99408">
        <ele>281</ele>
        <time>2020-06-29T07:11:57Z</time>
      </trkpt>
      <trkpt lat="48.70915" lon="6.99405">
        <ele>281.2</ele>
        <time>2020-06-29T07:11:58Z</time>
      </trkpt>
      <trkpt lat="48.70913" lon="6.994">
        <ele>281.4</ele>
        <time>2020-06-29T07:11:59Z</time>
      </trkpt>
      <trkpt lat="48.70911" lon="6.99396">
        <ele>281.7</ele>
        <time>2020-06-29T07:12:00Z</time>
      </trkpt>
      <trkpt lat="48.70908" lon="6.99391">
        <ele>282.1</ele>
        <time>2020-06-29T07:12:01Z</time>
      </trkpt>
      <trkpt lat="48.70905" lon="6.99386">
        <ele>282.3</ele>
        <time>2020-06-29T07:12:02Z</time>
      </trkpt>
      <trkpt lat="48.70901" lon="6.99379">
        <ele>282.6</ele>
        <time>2020-06-29T07:12:03Z</time>
      </trkpt>
      <trkpt lat="48.70898" lon="6.99376">
        <ele>282.7</ele>
        <time>2020-06-29T07:12:04Z</time>
      </trkpt>
      <trkpt lat="48.70896" lon="6.99373">
        <ele>282.9</ele>
        <time>2020-06-29T07:12:05Z</time>
      </trkpt>
      <trkpt lat="48.70893" lon="6.99369">
        <ele>283</ele>
        <time>2020-06-29T07:12:06Z</time>
      </trkpt>
      <trkpt lat="48.7089" lon="6.99365">
        <ele>283.2</ele>
        <time>2020-06-29T07:12:07Z</time>
      </trkpt>
      <trkpt lat="48.70888" lon="6.99361">
        <ele>283.4</ele>
        <time>2020-06-29T07:12:08Z</time>
      </trkpt>
      <trkpt lat="48.70886" lon="6.99357">
        <ele>283.5</ele>
        <time>2020-06-29T07:12:09Z</time>
      </trkpt>
      <trkpt lat="48.70882" lon="6.99351">
        <ele>283.8</ele>
        <time>2020-06-29T07:12:10Z</time>
      </trkpt>
      <trkpt lat="48.70881" lon="6.99347">
        <ele>283.9</ele>
        <time>2020-06-29T07:12:11Z</time>
      </trkpt>
      <trkpt lat="48.70878" lon="6.99342">
        <ele>284.1</ele>
        <time>2020-06-29T07:12:12Z</time>
      </trkpt>
      <trkpt lat="48.70876" lon="6.99338">
        <ele>284.3</ele>
        <time>2020-06-29T07:12:13Z</time>
      </trkpt>
      <trkpt lat="48.70873" lon="6.99333">
        <ele>284.5</ele>
        <time>2020-06-29T07:12:14Z</time>
      </trkpt>
      <trkpt lat="48.70871" lon="6.99329">
        <ele>284.7</ele>
        <time>2020-06-29T07:12:15Z</time>
      </trkpt>
      <trkpt lat="48.70869" lon="6.99325">
        <ele>284.8</ele>
        <time>2020-06-29T07:12:16Z</time>
      </trkpt>
      <trkpt lat="48.70867" lon="6.99321">
        <ele>285</ele>
        <time>2020-06-29T07:12:17Z</time>
      </trkpt>
      <trkpt lat="48.70866" lon="6.99317">
        <ele>285.1</ele>
        <time>2020-06-29T07:12:18Z</time>
      </trkpt>
      <trkpt lat="48.70863" lon="6.99313">
        <ele>285.3</ele>
        <time>2020-06-29T07:12:19Z</time>
      </trkpt>
      <trkpt lat="48.70861" lon="6.99308">
        <ele>285.5</ele>
        <time>2020-06-29T07:12:20Z</time>
      </trkpt>
      <trkpt lat="48.70858" lon="6.99303">
        <ele>285.7</ele>
        <time>2020-06-29T07:12:21Z</time>
      </trkpt>
      <trkpt lat="48.70856" lon="6.99299">
        <ele>285.9</ele>
        <time>2020-06-29T07:12:22Z</time>
      </trkpt>
      <trkpt lat="48.70854" lon="6.99294">
        <ele>286.1</ele>
        <time>2020-06-29T07:12:23Z</time>
      </trkpt>
      <trkpt lat="48.70851" lon="6.9929">
        <ele>286.2</ele>
        <time>2020-06-29T07:12:24Z</time>
      </trkpt>
      <trkpt lat="48.70849" lon="6.99286">
        <ele>286.4</ele>
        <time>2020-06-29T07:12:25Z</time>
      </trkpt>
      <trkpt lat="48.70846" lon="6.9928">
        <ele>286.6</ele>
        <time>2020-06-29T07:12:26Z</time>
      </trkpt>
      <trkpt lat="48.70843" lon="6.99275">
        <ele>286.8</ele>
        <time>2020-06-29T07:12:27Z</time>
      </trkpt>
      <trkpt lat="48.70841" lon="6.99272">
        <ele>287</ele>
        <time>2020-06-29T07:12:28Z</time>
      </trkpt>
      <trkpt lat="48.70839" lon="6.99267">
        <ele>287.2</ele>
        <time>2020-06-29T07:12:29Z</time>
      </trkpt>
      <trkpt lat="48.70836" lon="6.99263">
        <ele>287.4</ele>
        <time>2020-06-29T07:12:30Z</time>
      </trkpt>
      <trkpt lat="48.70833" lon="6.99258">
        <ele>287.6</ele>
        <time>2020-06-29T07:12:31Z</time>
      </trkpt>
      <trkpt lat="48.7083" lon="6.99254">
        <ele>287.8</ele>
        <time>2020-06-29T07:12:32Z</time>
      </trkpt>
      <trkpt lat="48.70829" lon="6.99252">
        <ele>287.9</ele>
        <time>2020-06-29T07:12:33Z</time>
      </trkpt>
      <trkpt lat="48.70826" lon="6.99249">
        <ele>288.1</ele>
        <time>2020-06-29T07:12:34Z</time>
      </trkpt>
      <trkpt lat="48.70824" lon="6.99245">
        <ele>288.3</ele>
        <time>2020-06-29T07:12:35Z</time>
      </trkpt>
      <trkpt lat="48.70822" lon="6.99241">
        <ele>289.1</ele>
        <time>2020-06-29T07:12:36Z</time>
      </trkpt>
      <trkpt lat="48.70819" lon="6.99237">
        <ele>289.5</ele>
        <time>2020-06-29T07:12:37Z</time>
      </trkpt>
      <trkpt lat="48.70816" lon="6.99233">
        <ele>290</ele>
        <time>2020-06-29T07:12:38Z</time>
      </trkpt>
      <trkpt lat="48.70813" lon="6.99228">
        <ele>290.5</ele>
        <time>2020-06-29T07:12:39Z</time>
      </trkpt>
      <trkpt lat="48.70811" lon="6.99226">
        <ele>290.7</ele>
        <time>2020-06-29T07:12:40Z</time>
      </trkpt>
      <trkpt lat="48.70808" lon="6.99222">
        <ele>291</ele>
        <time>2020-06-29T07:12:41Z</time>
      </trkpt>
      <trkpt lat="48.70807" lon="6.99218">
        <ele>291.2</ele>
        <time>2020-06-29T07:12:42Z</time>
      </trkpt>
      <trkpt lat="48.70804" lon="6.99214">
        <ele>291.5</ele>
        <time>2020-06-29T07:12:43Z</time>
      </trkpt>
      <trkpt lat="48.70802" lon="6.9921">
        <ele>291.6</ele>
        <time>2020-06-29T07:12:44Z</time>
      </trkpt>
      <trkpt lat="48.70799" lon="6.99206">
        <ele>291.8</ele>
        <time>2020-06-29T07:12:45Z</time>
      </trkpt>
      <trkpt lat="48.70796" lon="6.99202">
        <ele>292</ele>
        <time>2020-06-29T07:12:46Z</time>
      </trkpt>
      <trkpt lat="48.70793" lon="6.99198">
        <ele>292.2</ele>
        <time>2020-06-29T07:12:47Z</time>
      </trkpt>
      <trkpt lat="48.70792" lon="6.99195">
        <ele>292.3</ele>
        <time>2020-06-29T07:12:48Z</time>
      </trkpt>
      <trkpt lat="48.7079" lon="6.99191">
        <ele>292.4</ele>
        <time>2020-06-29T07:12:49Z</time>
      </trkpt>
      <trkpt lat="48.70787" lon="6.99186">
        <ele>292.6</ele>
        <time>2020-06-29T07:12:50Z</time>
      </trkpt>
      <trkpt lat="48.70786" lon="6.99184">
        <ele>292.7</ele>
        <time>2020-06-29T07:12:51Z</time>
      </trkpt>
      <trkpt lat="48.70784" lon="6.9918">
        <ele>292.9</ele>
        <time>2020-06-29T07:12:52Z</time>
      </trkpt>
      <trkpt lat="48.70782" lon="6.99176">
        <ele>293.1</ele>
        <time>2020-06-29T07:12:53Z</time>
      </trkpt>
      <trkpt lat="48.7078" lon="6.99172">
        <ele>293.3</ele>
        <time>2020-06-29T07:12:54Z</time>
      </trkpt>
      <trkpt lat="48.70777" lon="6.99168">
        <ele>293.5</ele>
        <time>2020-06-29T07:12:55Z</time>
      </trkpt>
      <trkpt lat="48.70774" lon="6.99163">
        <ele>293.7</ele>
        <time>2020-06-29T07:12:56Z</time>
      </trkpt>
      <trkpt lat="48.70772" lon="6.9916">
        <ele>293.9</ele>
        <time>2020-06-29T07:12:57Z</time>
      </trkpt>
      <trkpt lat="48.70769" lon="6.99156">
        <ele>294</ele>
        <time>2020-06-29T07:12:58Z</time>
      </trkpt>
      <trkpt lat="48.70767" lon="6.99151">
        <ele>294.1</ele>
        <time>2020-06-29T07:12:59Z</time>
      </trkpt>
      <trkpt lat="48.70765" lon="6.99147">
        <ele>294.2</ele>
        <time>2020-06-29T07:13:00Z</time>
      </trkpt>
      <trkpt lat="48.70763" lon="6.99143">
        <ele>294.3</ele>
        <time>2020-06-29T07:13:01Z</time>
      </trkpt>
      <trkpt lat="48.70761" lon="6.99139">
        <ele>294.4</ele>
        <time>2020-06-29T07:13:02Z</time>
      </trkpt>
      <trkpt lat="48.70759" lon="6.99135">
        <ele>294.5</ele>
        <time>2020-06-29T07:13:03Z</time>
      </trkpt>
      <trkpt lat="48.70757" lon="6.9913">
        <ele>294.7</ele>
        <time>2020-06-29T07:13:04Z</time>
      </trkpt>
      <trkpt lat="48.70754" lon="6.99126">
        <ele>294.8</ele>
        <time>2020-06-29T07:13:05Z</time>
      </trkpt>
      <trkpt lat="48.70752" lon="6.99122">
        <ele>294.9</ele>
        <time>2020-06-29T07:13:06Z</time>
      </trkpt>
      <trkpt lat="48.70749" lon="6.99118">
        <ele>295.1</ele>
        <time>2020-06-29T07:13:07Z</time>
      </trkpt>
      <trkpt lat="48.70747" lon="6.99114">
        <ele>295.2</ele>
        <time>2020-06-29T07:13:08Z</time>
      </trkpt>
      <trkpt lat="48.70745" lon="6.99109">
        <ele>295.3</ele>
        <time>2020-06-29T07:13:09Z</time>
      </trkpt>
      <trkpt lat="48.70743" lon="6.99105">
        <ele>295.4</ele>
        <time>2020-06-29T07:13:10Z</time>
      </trkpt>
      <trkpt lat="48.70741" lon="6.99101">
        <ele>295.5</ele>
        <time>2020-06-29T07:13:11Z</time>
      </trkpt>
      <trkpt lat="48.70739" lon="6.99097">
        <ele>295.6</ele>
        <time>2020-06-29T07:13:12Z</time>
      </trkpt>
      <trkpt lat="48.70737" lon="6.99093">
        <ele>295.7</ele>
        <time>2020-06-29T07:13:13Z</time>
      </trkpt>
      <trkpt lat="48.70735" lon="6.99088">
        <ele>295.8</ele>
        <time>2020-06-29T07:13:14Z</time>
      </trkpt>
      <trkpt lat="48.70734" lon="6.99086">
        <ele>295.8</ele>
        <time>2020-06-29T07:13:15Z</time>
      </trkpt>
      <trkpt lat="48.70731" lon="6.99081">
        <ele>296</ele>
        <time>2020-06-29T07:13:16Z</time>
      </trkpt>
      <trkpt lat="48.70728" lon="6.99076">
        <ele>296.1</ele>
        <time>2020-06-29T07:13:17Z</time>
      </trkpt>
      <trkpt lat="48.70725" lon="6.99072">
        <ele>296.2</ele>
        <time>2020-06-29T07:13:18Z</time>
      </trkpt>
      <trkpt lat="48.70723" lon="6.99068">
        <ele>296.3</ele>
        <time>2020-06-29T07:13:19Z</time>
      </trkpt>
      <trkpt lat="48.7072" lon="6.99064">
        <ele>296.4</ele>
        <time>2020-06-29T07:13:20Z</time>
      </trkpt>
      <trkpt lat="48.70718" lon="6.9906">
        <ele>296.5</ele>
        <time>2020-06-29T07:13:21Z</time>
      </trkpt>
      <trkpt lat="48.70715" lon="6.99055">
        <ele>296.6</ele>
        <time>2020-06-29T07:13:22Z</time>
      </trkpt>
      <trkpt lat="48.70713" lon="6.99051">
        <ele>296.7</ele>
        <time>2020-06-29T07:13:23Z</time>
      </trkpt>
      <trkpt lat="48.7071" lon="6.99047">
        <ele>296.8</ele>
        <time>2020-06-29T07:13:24Z</time>
      </trkpt>
      <trkpt lat="48.70708" lon="6.99043">
        <ele>296.9</ele>
        <time>2020-06-29T07:13:25Z</time>
      </trkpt>
      <trkpt lat="48.70706" lon="6.99038">
        <ele>297</ele>
        <time>2020-06-29T07:13:26Z</time>
      </trkpt>
      <trkpt lat="48.70704" lon="6.99035">
        <ele>297.1</ele>
        <time>2020-06-29T07:13:27Z</time>
      </trkpt>
      <trkpt lat="48.70702" lon="6.9903">
        <ele>297.3</ele>
        <time>2020-06-29T07:13:28Z</time>
      </trkpt>
      <trkpt lat="48.707" lon="6.99026">
        <ele>297.4</ele>
        <time>2020-06-29T07:13:29Z</time>
      </trkpt>
      <trkpt lat="48.70697" lon="6.99022">
        <ele>297.5</ele>
        <time>2020-06-29T07:13:30Z</time>
      </trkpt>
      <trkpt lat="48.70695" lon="6.99018">
        <ele>297.7</ele>
        <time>2020-06-29T07:13:31Z</time>
      </trkpt>
      <trkpt lat="48.70693" lon="6.99014">
        <ele>297.9</ele>
        <time>2020-06-29T07:13:32Z</time>
      </trkpt>
      <trkpt lat="48.70691" lon="6.99009">
        <ele>298.1</ele>
        <time>2020-06-29T07:13:33Z</time>
      </trkpt>
      <trkpt lat="48.70687" lon="6.99007">
        <ele>298.3</ele>
        <time>2020-06-29T07:13:34Z</time>
      </trkpt>
      <trkpt lat="48.70684" lon="6.99002">
        <ele>298.5</ele>
        <time>2020-06-29T07:13:35Z</time>
      </trkpt>
      <trkpt lat="48.70682" lon="6.98998">
        <ele>298.8</ele>
        <time>2020-06-29T07:13:36Z</time>
      </trkpt>
      <trkpt lat="48.70681" lon="6.98997">
        <ele>298.8</ele>
        <time>2020-06-29T07:13:37Z</time>
      </trkpt>
      <trkpt lat="48.70678" lon="6.98993">
        <ele>299</ele>
        <time>2020-06-29T07:13:38Z</time>
      </trkpt>
      <trkpt lat="48.70676" lon="6.9899">
        <ele>299.2</ele>
        <time>2020-06-29T07:13:39Z</time>
      </trkpt>
      <trkpt lat="48.70674" lon="6.98986">
        <ele>299.5</ele>
        <time>2020-06-29T07:13:40Z</time>
      </trkpt>
      <trkpt lat="48.70671" lon="6.98983">
        <ele>299.6</ele>
        <time>2020-06-29T07:13:41Z</time>
      </trkpt>
      <trkpt lat="48.70669" lon="6.98979">
        <ele>299.8</ele>
        <time>2020-06-29T07:13:42Z</time>
      </trkpt>
      <trkpt lat="48.70667" lon="6.98975">
        <ele>300</ele>
        <time>2020-06-29T07:13:43Z</time>
      </trkpt>
      <trkpt lat="48.70665" lon="6.98971">
        <ele>300.2</ele>
        <time>2020-06-29T07:13:44Z</time>
      </trkpt>
      <trkpt lat="48.70662" lon="6.98967">
        <ele>300.4</ele>
        <time>2020-06-29T07:13:45Z</time>
      </trkpt>
      <trkpt lat="48.7066" lon="6.98963">
        <ele>300.6</ele>
        <time>2020-06-29T07:13:46Z</time>
      </trkpt>
      <trkpt lat="48.70657" lon="6.9896">
        <ele>300.8</ele>
        <time>2020-06-29T07:13:47Z</time>
      </trkpt>
      <trkpt lat="48.70654" lon="6.98955">
        <ele>301</ele>
        <time>2020-06-29T07:13:48Z</time>
      </trkpt>
      <trkpt lat="48.70653" lon="6.98954">
        <ele>301.1</ele>
        <time>2020-06-29T07:13:49Z</time>
      </trkpt>
      <trkpt lat="48.70651" lon="6.9895">
        <ele>301.3</ele>
        <time>2020-06-29T07:13:50Z</time>
      </trkpt>
      <trkpt lat="48.70649" lon="6.98947">
        <ele>301.6</ele>
        <time>2020-06-29T07:13:51Z</time>
      </trkpt>
      <trkpt lat="48.70647" lon="6.98944">
        <ele>301.8</ele>
        <time>2020-06-29T07:13:52Z</time>
      </trkpt>
      <trkpt lat="48.70644" lon="6.98939">
        <ele>302</ele>
        <time>2020-06-29T07:13:53Z</time>
      </trkpt>
      <trkpt lat="48.70641" lon="6.98935">
        <ele>302.3</ele>
        <time>2020-06-29T07:13:54Z</time>
      </trkpt>
      <trkpt lat="48.70638" lon="6.98931">
        <ele>302.6</ele>
        <time>2020-06-29T07:13:55Z</time>
      </trkpt>
      <trkpt lat="48.70635" lon="6.98927">
        <ele>302.8</ele>
        <time>2020-06-29T07:13:56Z</time>
      </trkpt>
      <trkpt lat="48.70633" lon="6.98924">
        <ele>303.1</ele>
        <time>2020-06-29T07:13:57Z</time>
      </trkpt>
      <trkpt lat="48.70631" lon="6.98921">
        <ele>303.2</ele>
        <time>2020-06-29T07:13:58Z</time>
      </trkpt>
      <trkpt lat="48.70628" lon="6.98917">
        <ele>303.4</ele>
        <time>2020-06-29T07:13:59Z</time>
      </trkpt>
      <trkpt lat="48.70626" lon="6.98914">
        <ele>303.5</ele>
        <time>2020-06-29T07:14:00Z</time>
      </trkpt>
      <trkpt lat="48.70624" lon="6.98911">
        <ele>303.6</ele>
        <time>2020-06-29T07:14:01Z</time>
      </trkpt>
      <trkpt lat="48.70622" lon="6.98905">
        <ele>303.7</ele>
        <time>2020-06-29T07:14:02Z</time>
      </trkpt>
      <trkpt lat="48.70621" lon="6.98903">
        <ele>303.8</ele>
        <time>2020-06-29T07:14:03Z</time>
      </trkpt>
      <trkpt lat="48.7062" lon="6.98898">
        <ele>304</ele>
        <time>2020-06-29T07:14:04Z</time>
      </trkpt>
      <trkpt lat="48.70618" lon="6.98894">
        <ele>304.1</ele>
        <time>2020-06-29T07:14:05Z</time>
      </trkpt>
      <trkpt lat="48.70616" lon="6.9889">
        <ele>304.3</ele>
        <time>2020-06-29T07:14:06Z</time>
      </trkpt>
      <trkpt lat="48.70614" lon="6.98887">
        <ele>304.5</ele>
        <time>2020-06-29T07:14:07Z</time>
      </trkpt>
      <trkpt lat="48.70611" lon="6.98883">
        <ele>304.8</ele>
        <time>2020-06-29T07:14:08Z</time>
      </trkpt>
      <trkpt lat="48.70609" lon="6.98881">
        <ele>305</ele>
        <time>2020-06-29T07:14:09Z</time>
      </trkpt>
      <trkpt lat="48.70607" lon="6.98877">
        <ele>305.2</ele>
        <time>2020-06-29T07:14:10Z</time>
      </trkpt>
      <trkpt lat="48.70604" lon="6.98873">
        <ele>305.5</ele>
        <time>2020-06-29T07:14:11Z</time>
      </trkpt>
      <trkpt lat="48.70602" lon="6.98869">
        <ele>305.7</ele>
        <time>2020-06-29T07:14:12Z</time>
      </trkpt>
      <trkpt lat="48.706" lon="6.98864">
        <ele>306</ele>
        <time>2020-06-29T07:14:13Z</time>
      </trkpt>
      <trkpt lat="48.70597" lon="6.9886">
        <ele>306.3</ele>
        <time>2020-06-29T07:14:14Z</time>
      </trkpt>
      <trkpt lat="48.70595" lon="6.98856">
        <ele>306.5</ele>
        <time>2020-06-29T07:14:15Z</time>
      </trkpt>
      <trkpt lat="48.70593" lon="6.98853">
        <ele>306.8</ele>
        <time>2020-06-29T07:14:16Z</time>
      </trkpt>
      <trkpt lat="48.7059" lon="6.98849">
        <ele>307</ele>
        <time>2020-06-29T07:14:17Z</time>
      </trkpt>
      <trkpt lat="48.70588" lon="6.98846">
        <ele>307.2</ele>
        <time>2020-06-29T07:14:18Z</time>
      </trkpt>
      <trkpt lat="48.70585" lon="6.98842">
        <ele>307.4</ele>
        <time>2020-06-29T07:14:19Z</time>
      </trkpt>
      <trkpt lat="48.70583" lon="6.98838">
        <ele>307.7</ele>
        <time>2020-06-29T07:14:20Z</time>
      </trkpt>
      <trkpt lat="48.7058" lon="6.98834">
        <ele>308</ele>
        <time>2020-06-29T07:14:21Z</time>
      </trkpt>
      <trkpt lat="48.70579" lon="6.9883">
        <ele>308.2</ele>
        <time>2020-06-29T07:14:22Z</time>
      </trkpt>
      <trkpt lat="48.70576" lon="6.98826">
        <ele>308.4</ele>
        <time>2020-06-29T07:14:23Z</time>
      </trkpt>
      <trkpt lat="48.70574" lon="6.98821">
        <ele>308.7</ele>
        <time>2020-06-29T07:14:24Z</time>
      </trkpt>
      <trkpt lat="48.70572" lon="6.98817">
        <ele>309</ele>
        <time>2020-06-29T07:14:25Z</time>
      </trkpt>
      <trkpt lat="48.70569" lon="6.98813">
        <ele>309.3</ele>
        <time>2020-06-29T07:14:26Z</time>
      </trkpt>
      <trkpt lat="48.70567" lon="6.9881">
        <ele>309.6</ele>
        <time>2020-06-29T07:14:27Z</time>
      </trkpt>
      <trkpt lat="48.70565" lon="6.98806">
        <ele>309.9</ele>
        <time>2020-06-29T07:14:28Z</time>
      </trkpt>
      <trkpt lat="48.70564" lon="6.98802">
        <ele>310.2</ele>
        <time>2020-06-29T07:14:29Z</time>
      </trkpt>
      <trkpt lat="48.70561" lon="6.98799">
        <ele>310.5</ele>
        <time>2020-06-29T07:14:30Z</time>
      </trkpt>
      <trkpt lat="48.70559" lon="6.98795">
        <ele>310.8</ele>
        <time>2020-06-29T07:14:31Z</time>
      </trkpt>
      <trkpt lat="48.70557" lon="6.98791">
        <ele>311</ele>
        <time>2020-06-29T07:14:32Z</time>
      </trkpt>
      <trkpt lat="48.70554" lon="6.98787">
        <ele>311.2</ele>
        <time>2020-06-29T07:14:33Z</time>
      </trkpt>
      <trkpt lat="48.70552" lon="6.98783">
        <ele>311.3</ele>
        <time>2020-06-29T07:14:34Z</time>
      </trkpt>
      <trkpt lat="48.7055" lon="6.9878">
        <ele>311.5</ele>
        <time>2020-06-29T07:14:35Z</time>
      </trkpt>
      <trkpt lat="48.70548" lon="6.98777">
        <ele>311.6</ele>
        <time>2020-06-29T07:14:36Z</time>
      </trkpt>
      <trkpt lat="48.70546" lon="6.98773">
        <ele>311.8</ele>
        <time>2020-06-29T07:14:37Z</time>
      </trkpt>
      <trkpt lat="48.70544" lon="6.9877">
        <ele>311.9</ele>
        <time>2020-06-29T07:14:38Z</time>
      </trkpt>
      <trkpt lat="48.70541" lon="6.98766">
        <ele>312</ele>
        <time>2020-06-29T07:14:39Z</time>
      </trkpt>
      <trkpt lat="48.70539" lon="6.98762">
        <ele>312.2</ele>
        <time>2020-06-29T07:14:40Z</time>
      </trkpt>
      <trkpt lat="48.70537" lon="6.98758">
        <ele>312.3</ele>
        <time>2020-06-29T07:14:41Z</time>
      </trkpt>
      <trkpt lat="48.70535" lon="6.98755">
        <ele>312.4</ele>
        <time>2020-06-29T07:14:42Z</time>
      </trkpt>
      <trkpt lat="48.70533" lon="6.98751">
        <ele>312.6</ele>
        <time>2020-06-29T07:14:43Z</time>
      </trkpt>
      <trkpt lat="48.70531" lon="6.98748">
        <ele>312.7</ele>
        <time>2020-06-29T07:14:44Z</time>
      </trkpt>
      <trkpt lat="48.70529" lon="6.98744">
        <ele>312.8</ele>
        <time>2020-06-29T07:14:45Z</time>
      </trkpt>
      <trkpt lat="48.70527" lon="6.9874">
        <ele>312.9</ele>
        <time>2020-06-29T07:14:46Z</time>
      </trkpt>
      <trkpt lat="48.70525" lon="6.98737">
        <ele>313</ele>
        <time>2020-06-29T07:14:47Z</time>
      </trkpt>
      <trkpt lat="48.70522" lon="6.98732">
        <ele>313.1</ele>
        <time>2020-06-29T07:14:48Z</time>
      </trkpt>
      <trkpt lat="48.70521" lon="6.98728">
        <ele>313.2</ele>
        <time>2020-06-29T07:14:49Z</time>
      </trkpt>
      <trkpt lat="48.70518" lon="6.98724">
        <ele>313.3</ele>
        <time>2020-06-29T07:14:50Z</time>
      </trkpt>
      <trkpt lat="48.70516" lon="6.9872">
        <ele>313.5</ele>
        <time>2020-06-29T07:14:51Z</time>
      </trkpt>
      <trkpt lat="48.70513" lon="6.98716">
        <ele>313.6</ele>
        <time>2020-06-29T07:14:52Z</time>
      </trkpt>
      <trkpt lat="48.7051" lon="6.98712">
        <ele>313.8</ele>
        <time>2020-06-29T07:14:53Z</time>
      </trkpt>
      <trkpt lat="48.70508" lon="6.98708">
        <ele>313.9</ele>
        <time>2020-06-29T07:14:54Z</time>
      </trkpt>
      <trkpt lat="48.70505" lon="6.98703">
        <ele>314.1</ele>
        <time>2020-06-29T07:14:55Z</time>
      </trkpt>
      <trkpt lat="48.70503" lon="6.98698">
        <ele>314.2</ele>
        <time>2020-06-29T07:14:56Z</time>
      </trkpt>
      <trkpt lat="48.70501" lon="6.98695">
        <ele>314.4</ele>
        <time>2020-06-29T07:14:57Z</time>
      </trkpt>
      <trkpt lat="48.70498" lon="6.98693">
        <ele>314.5</ele>
        <time>2020-06-29T07:14:58Z</time>
      </trkpt>
      <trkpt lat="48.70496" lon="6.9869">
        <ele>314.6</ele>
        <time>2020-06-29T07:14:59Z</time>
      </trkpt>
      <trkpt lat="48.70494" lon="6.98687">
        <ele>314.7</ele>
        <time>2020-06-29T07:15:00Z</time>
      </trkpt>
      <trkpt lat="48.70493" lon="6.98683">
        <ele>314.8</ele>
        <time>2020-06-29T07:15:01Z</time>
      </trkpt>
      <trkpt lat="48.70491" lon="6.98678">
        <ele>314.9</ele>
        <time>2020-06-29T07:15:02Z</time>
      </trkpt>
      <trkpt lat="48.70488" lon="6.98674">
        <ele>315.1</ele>
        <time>2020-06-29T07:15:03Z</time>
      </trkpt>
      <trkpt lat="48.70484" lon="6.98668">
        <ele>315.4</ele>
        <time>2020-06-29T07:15:04Z</time>
      </trkpt>
      <trkpt lat="48.7048" lon="6.98664">
        <ele>315.8</ele>
        <time>2020-06-29T07:15:05Z</time>
      </trkpt>
      <trkpt lat="48.70477" lon="6.9866">
        <ele>316.2</ele>
        <time>2020-06-29T07:15:06Z</time>
      </trkpt>
      <trkpt lat="48.70474" lon="6.98656">
        <ele>316.6</ele>
        <time>2020-06-29T07:15:07Z</time>
      </trkpt>
      <trkpt lat="48.70471" lon="6.98651">
        <ele>316.4</ele>
        <time>2020-06-29T07:15:08Z</time>
      </trkpt>
      <trkpt lat="48.70468" lon="6.98647">
        <ele>316.3</ele>
        <time>2020-06-29T07:15:09Z</time>
      </trkpt>
      <trkpt lat="48.70466" lon="6.98642">
        <ele>316.2</ele>
        <time>2020-06-29T07:15:10Z</time>
      </trkpt>
      <trkpt lat="48.70463" lon="6.98638">
        <ele>316.1</ele>
        <time>2020-06-29T07:15:11Z</time>
      </trkpt>
      <trkpt lat="48.7046" lon="6.98633">
        <ele>315.9</ele>
        <time>2020-06-29T07:15:12Z</time>
      </trkpt>
      <trkpt lat="48.70458" lon="6.98628">
        <ele>315.8</ele>
        <time>2020-06-29T07:15:13Z</time>
      </trkpt>
      <trkpt lat="48.70455" lon="6.98623">
        <ele>315.7</ele>
        <time>2020-06-29T07:15:14Z</time>
      </trkpt>
      <trkpt lat="48.70453" lon="6.98617">
        <ele>315.6</ele>
        <time>2020-06-29T07:15:15Z</time>
      </trkpt>
      <trkpt lat="48.70451" lon="6.98612">
        <ele>315.5</ele>
        <time>2020-06-29T07:15:16Z</time>
      </trkpt>
      <trkpt lat="48.70448" lon="6.98607">
        <ele>315.4</ele>
        <time>2020-06-29T07:15:17Z</time>
      </trkpt>
      <trkpt lat="48.70446" lon="6.98603">
        <ele>315.3</ele>
        <time>2020-06-29T07:15:18Z</time>
      </trkpt>
      <trkpt lat="48.70444" lon="6.98599">
        <ele>315.2</ele>
        <time>2020-06-29T07:15:19Z</time>
      </trkpt>
      <trkpt lat="48.70442" lon="6.98595">
        <ele>315.1</ele>
        <time>2020-06-29T07:15:20Z</time>
      </trkpt>
      <trkpt lat="48.70439" lon="6.98591">
        <ele>315.1</ele>
        <time>2020-06-29T07:15:21Z</time>
      </trkpt>
      <trkpt lat="48.70437" lon="6.98586">
        <ele>315</ele>
        <time>2020-06-29T07:15:22Z</time>
      </trkpt>
      <trkpt lat="48.70434" lon="6.98582">
        <ele>314.9</ele>
        <time>2020-06-29T07:15:23Z</time>
      </trkpt>
      <trkpt lat="48.70433" lon="6.98577">
        <ele>314.8</ele>
        <time>2020-06-29T07:15:24Z</time>
      </trkpt>
      <trkpt lat="48.70431" lon="6.98573">
        <ele>314.7</ele>
        <time>2020-06-29T07:15:25Z</time>
      </trkpt>
      <trkpt lat="48.70428" lon="6.98568">
        <ele>314.6</ele>
        <time>2020-06-29T07:15:26Z</time>
      </trkpt>
      <trkpt lat="48.70426" lon="6.98563">
        <ele>314.5</ele>
        <time>2020-06-29T07:15:27Z</time>
      </trkpt>
      <trkpt lat="48.70424" lon="6.98558">
        <ele>314.4</ele>
        <time>2020-06-29T07:15:28Z</time>
      </trkpt>
      <trkpt lat="48.70421" lon="6.98554">
        <ele>314.3</ele>
        <time>2020-06-29T07:15:29Z</time>
      </trkpt>
      <trkpt lat="48.70419" lon="6.9855">
        <ele>314.2</ele>
        <time>2020-06-29T07:15:30Z</time>
      </trkpt>
      <trkpt lat="48.70416" lon="6.98546">
        <ele>314.1</ele>
        <time>2020-06-29T07:15:31Z</time>
      </trkpt>
      <trkpt lat="48.70413" lon="6.98541">
        <ele>314</ele>
        <time>2020-06-29T07:15:32Z</time>
      </trkpt>
      <trkpt lat="48.70411" lon="6.98536">
        <ele>313.9</ele>
        <time>2020-06-29T07:15:33Z</time>
      </trkpt>
      <trkpt lat="48.70409" lon="6.98531">
        <ele>313.8</ele>
        <time>2020-06-29T07:15:34Z</time>
      </trkpt>
      <trkpt lat="48.70405" lon="6.98527">
        <ele>313.7</ele>
        <time>2020-06-29T07:15:35Z</time>
      </trkpt>
      <trkpt lat="48.70402" lon="6.98522">
        <ele>313.5</ele>
        <time>2020-06-29T07:15:36Z</time>
      </trkpt>
      <trkpt lat="48.70399" lon="6.98517">
        <ele>313.4</ele>
        <time>2020-06-29T07:15:37Z</time>
      </trkpt>
      <trkpt lat="48.70397" lon="6.98512">
        <ele>313.3</ele>
        <time>2020-06-29T07:15:38Z</time>
      </trkpt>
      <trkpt lat="48.70395" lon="6.98508">
        <ele>313.2</ele>
        <time>2020-06-29T07:15:39Z</time>
      </trkpt>
      <trkpt lat="48.70393" lon="6.98503">
        <ele>313.1</ele>
        <time>2020-06-29T07:15:40Z</time>
      </trkpt>
      <trkpt lat="48.70392" lon="6.98498">
        <ele>313</ele>
        <time>2020-06-29T07:15:41Z</time>
      </trkpt>
      <trkpt lat="48.70389" lon="6.98493">
        <ele>313</ele>
        <time>2020-06-29T07:15:42Z</time>
      </trkpt>
      <trkpt lat="48.70387" lon="6.98489">
        <ele>312.9</ele>
        <time>2020-06-29T07:15:43Z</time>
      </trkpt>
      <trkpt lat="48.70385" lon="6.98484">
        <ele>312.8</ele>
        <time>2020-06-29T07:15:44Z</time>
      </trkpt>
      <trkpt lat="48.70383" lon="6.9848">
        <ele>312.7</ele>
        <time>2020-06-29T07:15:45Z</time>
      </trkpt>
      <trkpt lat="48.70381" lon="6.98474">
        <ele>312.6</ele>
        <time>2020-06-29T07:15:46Z</time>
      </trkpt>
      <trkpt lat="48.70378" lon="6.98469">
        <ele>312.5</ele>
        <time>2020-06-29T07:15:47Z</time>
      </trkpt>
      <trkpt lat="48.70375" lon="6.98463">
        <ele>312.3</ele>
        <time>2020-06-29T07:15:48Z</time>
      </trkpt>
      <trkpt lat="48.70373" lon="6.98458">
        <ele>312.2</ele>
        <time>2020-06-29T07:15:49Z</time>
      </trkpt>
      <trkpt lat="48.70371" lon="6.98452">
        <ele>312.1</ele>
        <time>2020-06-29T07:15:50Z</time>
      </trkpt>
      <trkpt lat="48.70369" lon="6.98446">
        <ele>312</ele>
        <time>2020-06-29T07:15:51Z</time>
      </trkpt>
      <trkpt lat="48.70367" lon="6.9844">
        <ele>311.9</ele>
        <time>2020-06-29T07:15:52Z</time>
      </trkpt>
      <trkpt lat="48.70364" lon="6.98434">
        <ele>311.8</ele>
        <time>2020-06-29T07:15:53Z</time>
      </trkpt>
      <trkpt lat="48.70362" lon="6.98429">
        <ele>311.7</ele>
        <time>2020-06-29T07:15:54Z</time>
      </trkpt>
      <trkpt lat="48.70361" lon="6.98423">
        <ele>311.6</ele>
        <time>2020-06-29T07:15:55Z</time>
      </trkpt>
      <trkpt lat="48.70358" lon="6.98419">
        <ele>311.5</ele>
        <time>2020-06-29T07:15:56Z</time>
      </trkpt>
      <trkpt lat="48.70355" lon="6.98413">
        <ele>311.3</ele>
        <time>2020-06-29T07:15:57Z</time>
      </trkpt>
      <trkpt lat="48.70354" lon="6.98406">
        <ele>311.2</ele>
        <time>2020-06-29T07:15:58Z</time>
      </trkpt>
      <trkpt lat="48.70352" lon="6.98398">
        <ele>311.1</ele>
        <time>2020-06-29T07:15:59Z</time>
      </trkpt>
      <trkpt lat="48.7035" lon="6.98391">
        <ele>310.9</ele>
        <time>2020-06-29T07:16:00Z</time>
      </trkpt>
      <trkpt lat="48.70348" lon="6.98384">
        <ele>310.8</ele>
        <time>2020-06-29T07:16:01Z</time>
      </trkpt>
      <trkpt lat="48.70346" lon="6.98376">
        <ele>310.7</ele>
        <time>2020-06-29T07:16:02Z</time>
      </trkpt>
      <trkpt lat="48.70343" lon="6.9837">
        <ele>310.5</ele>
        <time>2020-06-29T07:16:03Z</time>
      </trkpt>
      <trkpt lat="48.70341" lon="6.98363">
        <ele>310.4</ele>
        <time>2020-06-29T07:16:04Z</time>
      </trkpt>
      <trkpt lat="48.70339" lon="6.98356">
        <ele>310.3</ele>
        <time>2020-06-29T07:16:05Z</time>
      </trkpt>
      <trkpt lat="48.70338" lon="6.98349">
        <ele>310.2</ele>
        <time>2020-06-29T07:16:06Z</time>
      </trkpt>
      <trkpt lat="48.70336" lon="6.98342">
        <ele>310</ele>
        <time>2020-06-29T07:16:07Z</time>
      </trkpt>
      <trkpt lat="48.70333" lon="6.98335">
        <ele>309.9</ele>
        <time>2020-06-29T07:16:08Z</time>
      </trkpt>
      <trkpt lat="48.70332" lon="6.98328">
        <ele>309.8</ele>
        <time>2020-06-29T07:16:09Z</time>
      </trkpt>
      <trkpt lat="48.70328" lon="6.98321">
        <ele>309.6</ele>
        <time>2020-06-29T07:16:10Z</time>
      </trkpt>
      <trkpt lat="48.70326" lon="6.98314">
        <ele>309.5</ele>
        <time>2020-06-29T07:16:11Z</time>
      </trkpt>
      <trkpt lat="48.70324" lon="6.98307">
        <ele>309.4</ele>
        <time>2020-06-29T07:16:12Z</time>
      </trkpt>
      <trkpt lat="48.70321" lon="6.98298">
        <ele>309.2</ele>
        <time>2020-06-29T07:16:13Z</time>
      </trkpt>
      <trkpt lat="48.70319" lon="6.98292">
        <ele>309.1</ele>
        <time>2020-06-29T07:16:14Z</time>
      </trkpt>
      <trkpt lat="48.70316" lon="6.98285">
        <ele>308.9</ele>
        <time>2020-06-29T07:16:15Z</time>
      </trkpt>
      <trkpt lat="48.70314" lon="6.98278">
        <ele>308.8</ele>
        <time>2020-06-29T07:16:16Z</time>
      </trkpt>
      <trkpt lat="48.70312" lon="6.9827">
        <ele>308.7</ele>
        <time>2020-06-29T07:16:17Z</time>
      </trkpt>
      <trkpt lat="48.7031" lon="6.98261">
        <ele>308.5</ele>
        <time>2020-06-29T07:16:18Z</time>
      </trkpt>
      <trkpt lat="48.70309" lon="6.98253">
        <ele>308.4</ele>
        <time>2020-06-29T07:16:19Z</time>
      </trkpt>
      <trkpt lat="48.70307" lon="6.98246">
        <ele>308.2</ele>
        <time>2020-06-29T07:16:20Z</time>
      </trkpt>
      <trkpt lat="48.70304" lon="6.98238">
        <ele>308.1</ele>
        <time>2020-06-29T07:16:21Z</time>
      </trkpt>
      <trkpt lat="48.70302" lon="6.9823">
        <ele>308</ele>
        <time>2020-06-29T07:16:22Z</time>
      </trkpt>
      <trkpt lat="48.703" lon="6.98222">
        <ele>307.8</ele>
        <time>2020-06-29T07:16:23Z</time>
      </trkpt>
      <trkpt lat="48.70298" lon="6.98215">
        <ele>307.7</ele>
        <time>2020-06-29T07:16:24Z</time>
      </trkpt>
      <trkpt lat="48.70296" lon="6.98207">
        <ele>307.5</ele>
        <time>2020-06-29T07:16:25Z</time>
      </trkpt>
      <trkpt lat="48.70294" lon="6.98202">
        <ele>307.4</ele>
        <time>2020-06-29T07:16:26Z</time>
      </trkpt>
      <trkpt lat="48.70291" lon="6.98195">
        <ele>307.3</ele>
        <time>2020-06-29T07:16:27Z</time>
      </trkpt>
      <trkpt lat="48.70288" lon="6.98187">
        <ele>307.1</ele>
        <time>2020-06-29T07:16:28Z</time>
      </trkpt>
      <trkpt lat="48.70286" lon="6.98179">
        <ele>307</ele>
        <time>2020-06-29T07:16:29Z</time>
      </trkpt>
      <trkpt lat="48.70283" lon="6.98173">
        <ele>306.9</ele>
        <time>2020-06-29T07:16:30Z</time>
      </trkpt>
      <trkpt lat="48.70281" lon="6.98166">
        <ele>306.7</ele>
        <time>2020-06-29T07:16:31Z</time>
      </trkpt>
      <trkpt lat="48.70278" lon="6.98158">
        <ele>306.6</ele>
        <time>2020-06-29T07:16:32Z</time>
      </trkpt>
      <trkpt lat="48.70276" lon="6.98151">
        <ele>306.5</ele>
        <time>2020-06-29T07:16:33Z</time>
      </trkpt>
      <trkpt lat="48.70273" lon="6.98144">
        <ele>306.3</ele>
        <time>2020-06-29T07:16:34Z</time>
      </trkpt>
      <trkpt lat="48.70271" lon="6.98136">
        <ele>306.2</ele>
        <time>2020-06-29T07:16:35Z</time>
      </trkpt>
      <trkpt lat="48.70269" lon="6.98126">
        <ele>306</ele>
        <time>2020-06-29T07:16:36Z</time>
      </trkpt>
      <trkpt lat="48.70267" lon="6.98117">
        <ele>305.8</ele>
        <time>2020-06-29T07:16:37Z</time>
      </trkpt>
      <trkpt lat="48.70266" lon="6.98109">
        <ele>305.7</ele>
        <time>2020-06-29T07:16:38Z</time>
      </trkpt>
      <trkpt lat="48.70264" lon="6.981">
        <ele>305.5</ele>
        <time>2020-06-29T07:16:39Z</time>
      </trkpt>
      <trkpt lat="48.70263" lon="6.98092">
        <ele>305.4</ele>
        <time>2020-06-29T07:16:40Z</time>
      </trkpt>
      <trkpt lat="48.70263" lon="6.98084">
        <ele>305.1</ele>
        <time>2020-06-29T07:16:41Z</time>
      </trkpt>
      <trkpt lat="48.70264" lon="6.98078">
        <ele>304.9</ele>
        <time>2020-06-29T07:16:42Z</time>
      </trkpt>
      <trkpt lat="48.70265" lon="6.9807">
        <ele>304.6</ele>
        <time>2020-06-29T07:16:43Z</time>
      </trkpt>
      <trkpt lat="48.70266" lon="6.98063">
        <ele>304.4</ele>
        <time>2020-06-29T07:16:44Z</time>
      </trkpt>
      <trkpt lat="48.70266" lon="6.98054">
        <ele>304.1</ele>
        <time>2020-06-29T07:16:45Z</time>
      </trkpt>
      <trkpt lat="48.70265" lon="6.98046">
        <ele>303.9</ele>
        <time>2020-06-29T07:16:46Z</time>
      </trkpt>
      <trkpt lat="48.70264" lon="6.98038">
        <ele>303.7</ele>
        <time>2020-06-29T07:16:47Z</time>
      </trkpt>
      <trkpt lat="48.70261" lon="6.98031">
        <ele>303.6</ele>
        <time>2020-06-29T07:16:48Z</time>
      </trkpt>
      <trkpt lat="48.70257" lon="6.98024">
        <ele>303.6</ele>
        <time>2020-06-29T07:16:49Z</time>
      </trkpt>
      <trkpt lat="48.70253" lon="6.98019">
        <ele>303.5</ele>
        <time>2020-06-29T07:16:50Z</time>
      </trkpt>
      <trkpt lat="48.70248" lon="6.98016">
        <ele>303.5</ele>
        <time>2020-06-29T07:16:51Z</time>
      </trkpt>
      <trkpt lat="48.70242" lon="6.98014">
        <ele>303.5</ele>
        <time>2020-06-29T07:16:52Z</time>
      </trkpt>
      <trkpt lat="48.70236" lon="6.98014">
        <ele>303.4</ele>
        <time>2020-06-29T07:16:53Z</time>
      </trkpt>
      <trkpt lat="48.70231" lon="6.98013">
        <ele>303.9</ele>
        <time>2020-06-29T07:16:54Z</time>
      </trkpt>
      <trkpt lat="48.70226" lon="6.98012">
        <ele>304.4</ele>
        <time>2020-06-29T07:16:55Z</time>
      </trkpt>
      <trkpt lat="48.70221" lon="6.9801">
        <ele>304.8</ele>
        <time>2020-06-29T07:16:56Z</time>
      </trkpt>
      <trkpt lat="48.70215" lon="6.98006">
        <ele>305.2</ele>
        <time>2020-06-29T07:16:57Z</time>
      </trkpt>
      <trkpt lat="48.70211" lon="6.97999">
        <ele>305.6</ele>
        <time>2020-06-29T07:16:58Z</time>
      </trkpt>
      <trkpt lat="48.70207" lon="6.97992">
        <ele>306.2</ele>
        <time>2020-06-29T07:16:59Z</time>
      </trkpt>
      <trkpt lat="48.70204" lon="6.97985">
        <ele>306.7</ele>
        <time>2020-06-29T07:17:00Z</time>
      </trkpt>
      <trkpt lat="48.702" lon="6.97978">
        <ele>307.3</ele>
        <time>2020-06-29T07:17:01Z</time>
      </trkpt>
      <trkpt lat="48.70196" lon="6.97971">
        <ele>307.9</ele>
        <time>2020-06-29T07:17:02Z</time>
      </trkpt>
      <trkpt lat="48.70193" lon="6.97964">
        <ele>308.5</ele>
        <time>2020-06-29T07:17:03Z</time>
      </trkpt>
      <trkpt lat="48.70189" lon="6.97958">
        <ele>309.3</ele>
        <time>2020-06-29T07:17:04Z</time>
      </trkpt>
      <trkpt lat="48.70186" lon="6.97951">
        <ele>309.2</ele>
        <time>2020-06-29T07:17:05Z</time>
      </trkpt>
      <trkpt lat="48.70183" lon="6.97944">
        <ele>309</ele>
        <time>2020-06-29T07:17:06Z</time>
      </trkpt>
      <trkpt lat="48.7018" lon="6.97938">
        <ele>308.9</ele>
        <time>2020-06-29T07:17:07Z</time>
      </trkpt>
      <trkpt lat="48.70177" lon="6.97931">
        <ele>308.8</ele>
        <time>2020-06-29T07:17:08Z</time>
      </trkpt>
      <trkpt lat="48.70174" lon="6.97925">
        <ele>308.7</ele>
        <time>2020-06-29T07:17:09Z</time>
      </trkpt>
      <trkpt lat="48.7017" lon="6.97918">
        <ele>308.7</ele>
        <time>2020-06-29T07:17:10Z</time>
      </trkpt>
      <trkpt lat="48.70166" lon="6.97912">
        <ele>308.7</ele>
        <time>2020-06-29T07:17:11Z</time>
      </trkpt>
      <trkpt lat="48.70162" lon="6.97906">
        <ele>308.7</ele>
        <time>2020-06-29T07:17:12Z</time>
      </trkpt>
      <trkpt lat="48.70159" lon="6.979">
        <ele>308.6</ele>
        <time>2020-06-29T07:17:13Z</time>
      </trkpt>
      <trkpt lat="48.70156" lon="6.97894">
        <ele>308.6</ele>
        <time>2020-06-29T07:17:14Z</time>
      </trkpt>
      <trkpt lat="48.70153" lon="6.97887">
        <ele>308.6</ele>
        <time>2020-06-29T07:17:15Z</time>
      </trkpt>
      <trkpt lat="48.7015" lon="6.97881">
        <ele>308.6</ele>
        <time>2020-06-29T07:17:16Z</time>
      </trkpt>
      <trkpt lat="48.70147" lon="6.97874">
        <ele>308.6</ele>
        <time>2020-06-29T07:17:17Z</time>
      </trkpt>
      <trkpt lat="48.70144" lon="6.97868">
        <ele>308.6</ele>
        <time>2020-06-29T07:17:18Z</time>
      </trkpt>
      <trkpt lat="48.70141" lon="6.97862">
        <ele>308.6</ele>
        <time>2020-06-29T07:17:19Z</time>
      </trkpt>
      <trkpt lat="48.70137" lon="6.97856">
        <ele>308.6</ele>
        <time>2020-06-29T07:17:20Z</time>
      </trkpt>
      <trkpt lat="48.70133" lon="6.9785">
        <ele>308.7</ele>
        <time>2020-06-29T07:17:21Z</time>
      </trkpt>
      <trkpt lat="48.7013" lon="6.97845">
        <ele>308.7</ele>
        <time>2020-06-29T07:17:22Z</time>
      </trkpt>
      <trkpt lat="48.70127" lon="6.97839">
        <ele>308.8</ele>
        <time>2020-06-29T07:17:23Z</time>
      </trkpt>
      <trkpt lat="48.70124" lon="6.97834">
        <ele>308.8</ele>
        <time>2020-06-29T07:17:24Z</time>
      </trkpt>
      <trkpt lat="48.70121" lon="6.9783">
        <ele>308.9</ele>
        <time>2020-06-29T07:17:25Z</time>
      </trkpt>
      <trkpt lat="48.70118" lon="6.97825">
        <ele>308.9</ele>
        <time>2020-06-29T07:17:26Z</time>
      </trkpt>
      <trkpt lat="48.70116" lon="6.97819">
        <ele>308.9</ele>
        <time>2020-06-29T07:17:27Z</time>
      </trkpt>
      <trkpt lat="48.70113" lon="6.97812">
        <ele>309</ele>
        <time>2020-06-29T07:17:28Z</time>
      </trkpt>
      <trkpt lat="48.7011" lon="6.97806">
        <ele>309</ele>
        <time>2020-06-29T07:17:29Z</time>
      </trkpt>
      <trkpt lat="48.70108" lon="6.97801">
        <ele>309</ele>
        <time>2020-06-29T07:17:30Z</time>
      </trkpt>
      <trkpt lat="48.70104" lon="6.97796">
        <ele>309</ele>
        <time>2020-06-29T07:17:31Z</time>
      </trkpt>
      <trkpt lat="48.70101" lon="6.9779">
        <ele>309.1</ele>
        <time>2020-06-29T07:17:32Z</time>
      </trkpt>
      <trkpt lat="48.70097" lon="6.97785">
        <ele>309.1</ele>
        <time>2020-06-29T07:17:33Z</time>
      </trkpt>
      <trkpt lat="48.70094" lon="6.97781">
        <ele>309.1</ele>
        <time>2020-06-29T07:17:34Z</time>
      </trkpt>
      <trkpt lat="48.70091" lon="6.97776">
        <ele>309.1</ele>
        <time>2020-06-29T07:17:35Z</time>
      </trkpt>
      <trkpt lat="48.70088" lon="6.9777">
        <ele>309.1</ele>
        <time>2020-06-29T07:17:36Z</time>
      </trkpt>
      <trkpt lat="48.70084" lon="6.97765">
        <ele>309</ele>
        <time>2020-06-29T07:17:37Z</time>
      </trkpt>
      <trkpt lat="48.70079" lon="6.97761">
        <ele>309</ele>
        <time>2020-06-29T07:17:38Z</time>
      </trkpt>
      <trkpt lat="48.70076" lon="6.97758">
        <ele>308.9</ele>
        <time>2020-06-29T07:17:39Z</time>
      </trkpt>
      <trkpt lat="48.70072" lon="6.97754">
        <ele>308.9</ele>
        <time>2020-06-29T07:17:40Z</time>
      </trkpt>
      <trkpt lat="48.70068" lon="6.9775">
        <ele>308.8</ele>
        <time>2020-06-29T07:17:41Z</time>
      </trkpt>
      <trkpt lat="48.70065" lon="6.97746">
        <ele>308.8</ele>
        <time>2020-06-29T07:17:42Z</time>
      </trkpt>
      <trkpt lat="48.70061" lon="6.97741">
        <ele>308.7</ele>
        <time>2020-06-29T07:17:43Z</time>
      </trkpt>
      <trkpt lat="48.70057" lon="6.97737">
        <ele>308.7</ele>
        <time>2020-06-29T07:17:44Z</time>
      </trkpt>
      <trkpt lat="48.70054" lon="6.97734">
        <ele>308.6</ele>
        <time>2020-06-29T07:17:45Z</time>
      </trkpt>
      <trkpt lat="48.7005" lon="6.9773">
        <ele>308.5</ele>
        <time>2020-06-29T07:17:46Z</time>
      </trkpt>
      <trkpt lat="48.70047" lon="6.97727">
        <ele>308.4</ele>
        <time>2020-06-29T07:17:47Z</time>
      </trkpt>
      <trkpt lat="48.70043" lon="6.97722">
        <ele>308.2</ele>
        <time>2020-06-29T07:17:48Z</time>
      </trkpt>
      <trkpt lat="48.70039" lon="6.97718">
        <ele>308.1</ele>
        <time>2020-06-29T07:17:49Z</time>
      </trkpt>
      <trkpt lat="48.70035" lon="6.97713">
        <ele>308</ele>
        <time>2020-06-29T07:17:50Z</time>
      </trkpt>
      <trkpt lat="48.70031" lon="6.9771">
        <ele>307.8</ele>
        <time>2020-06-29T07:17:51Z</time>
      </trkpt>
      <trkpt lat="48.70027" lon="6.97706">
        <ele>307.7</ele>
        <time>2020-06-29T07:17:52Z</time>
      </trkpt>
      <trkpt lat="48.70023" lon="6.97701">
        <ele>307.6</ele>
        <time>2020-06-29T07:17:53Z</time>
      </trkpt>
      <trkpt lat="48.70019" lon="6.97697">
        <ele>307.4</ele>
        <time>2020-06-29T07:17:54Z</time>
      </trkpt>
      <trkpt lat="48.70016" lon="6.97693">
        <ele>307.1</ele>
        <time>2020-06-29T07:17:55Z</time>
      </trkpt>
      <trkpt lat="48.70012" lon="6.9769">
        <ele>306.3</ele>
        <time>2020-06-29T07:17:56Z</time>
      </trkpt>
      <trkpt lat="48.70008" lon="6.97686">
        <ele>305.6</ele>
        <time>2020-06-29T07:17:57Z</time>
      </trkpt>
      <trkpt lat="48.70003" lon="6.97683">
        <ele>304.7</ele>
        <time>2020-06-29T07:17:58Z</time>
      </trkpt>
      <trkpt lat="48.69999" lon="6.97679">
        <ele>303.9</ele>
        <time>2020-06-29T07:17:59Z</time>
      </trkpt>
      <trkpt lat="48.69994" lon="6.97675">
        <ele>303</ele>
        <time>2020-06-29T07:18:00Z</time>
      </trkpt>
      <trkpt lat="48.6999" lon="6.97671">
        <ele>302.2</ele>
        <time>2020-06-29T07:18:01Z</time>
      </trkpt>
      <trkpt lat="48.69986" lon="6.97665">
        <ele>301.3</ele>
        <time>2020-06-29T07:18:02Z</time>
      </trkpt>
      <trkpt lat="48.69982" lon="6.97659">
        <ele>300.3</ele>
        <time>2020-06-29T07:18:03Z</time>
      </trkpt>
      <trkpt lat="48.69978" lon="6.97653">
        <ele>299.3</ele>
        <time>2020-06-29T07:18:04Z</time>
      </trkpt>
      <trkpt lat="48.69975" lon="6.97647">
        <ele>298.4</ele>
        <time>2020-06-29T07:18:05Z</time>
      </trkpt>
      <trkpt lat="48.69972" lon="6.97641">
        <ele>298.2</ele>
        <time>2020-06-29T07:18:06Z</time>
      </trkpt>
      <trkpt lat="48.69969" lon="6.97635">
        <ele>298</ele>
        <time>2020-06-29T07:18:07Z</time>
      </trkpt>
      <trkpt lat="48.69966" lon="6.97631">
        <ele>297.9</ele>
        <time>2020-06-29T07:18:08Z</time>
      </trkpt>
      <trkpt lat="48.69961" lon="6.97628">
        <ele>297.8</ele>
        <time>2020-06-29T07:18:09Z</time>
      </trkpt>
      <trkpt lat="48.69956" lon="6.97625">
        <ele>297.7</ele>
        <time>2020-06-29T07:18:10Z</time>
      </trkpt>
      <trkpt lat="48.69951" lon="6.97624">
        <ele>297.7</ele>
        <time>2020-06-29T07:18:11Z</time>
      </trkpt>
      <trkpt lat="48.69944" lon="6.97622">
        <ele>299</ele>
        <time>2020-06-29T07:18:12Z</time>
      </trkpt>
      <trkpt lat="48.69939" lon="6.97617">
        <ele>299.7</ele>
        <time>2020-06-29T07:18:13Z</time>
      </trkpt>
      <trkpt lat="48.69933" lon="6.97613">
        <ele>300.4</ele>
        <time>2020-06-29T07:18:14Z</time>
      </trkpt>
      <trkpt lat="48.69927" lon="6.97609">
        <ele>301.1</ele>
        <time>2020-06-29T07:18:15Z</time>
      </trkpt>
      <trkpt lat="48.69921" lon="6.97605">
        <ele>302</ele>
        <time>2020-06-29T07:18:16Z</time>
      </trkpt>
      <trkpt lat="48.69915" lon="6.976">
        <ele>302.8</ele>
        <time>2020-06-29T07:18:17Z</time>
      </trkpt>
      <trkpt lat="48.69909" lon="6.97596">
        <ele>302.3</ele>
        <time>2020-06-29T07:18:18Z</time>
      </trkpt>
      <trkpt lat="48.69903" lon="6.97591">
        <ele>302</ele>
        <time>2020-06-29T07:18:19Z</time>
      </trkpt>
      <trkpt lat="48.69896" lon="6.97586">
        <ele>301.6</ele>
        <time>2020-06-29T07:18:20Z</time>
      </trkpt>
      <trkpt lat="48.6989" lon="6.97581">
        <ele>301.3</ele>
        <time>2020-06-29T07:18:21Z</time>
      </trkpt>
      <trkpt lat="48.69884" lon="6.97576">
        <ele>301</ele>
        <time>2020-06-29T07:18:22Z</time>
      </trkpt>
      <trkpt lat="48.69877" lon="6.9757">
        <ele>300.6</ele>
        <time>2020-06-29T07:18:23Z</time>
      </trkpt>
      <trkpt lat="48.69871" lon="6.97564">
        <ele>300.1</ele>
        <time>2020-06-29T07:18:24Z</time>
      </trkpt>
      <trkpt lat="48.69865" lon="6.97558">
        <ele>299.7</ele>
        <time>2020-06-29T07:18:25Z</time>
      </trkpt>
      <trkpt lat="48.69859" lon="6.97553">
        <ele>299.3</ele>
        <time>2020-06-29T07:18:26Z</time>
      </trkpt>
      <trkpt lat="48.69853" lon="6.97546">
        <ele>298.9</ele>
        <time>2020-06-29T07:18:27Z</time>
      </trkpt>
      <trkpt lat="48.69847" lon="6.97539">
        <ele>298.5</ele>
        <time>2020-06-29T07:18:28Z</time>
      </trkpt>
      <trkpt lat="48.69841" lon="6.97532">
        <ele>298.1</ele>
        <time>2020-06-29T07:18:29Z</time>
      </trkpt>
      <trkpt lat="48.69835" lon="6.97526">
        <ele>297.7</ele>
        <time>2020-06-29T07:18:30Z</time>
      </trkpt>
      <trkpt lat="48.69829" lon="6.97518">
        <ele>297.4</ele>
        <time>2020-06-29T07:18:31Z</time>
      </trkpt>
      <trkpt lat="48.69823" lon="6.97511">
        <ele>296.9</ele>
        <time>2020-06-29T07:18:32Z</time>
      </trkpt>
      <trkpt lat="48.69817" lon="6.97503">
        <ele>296.3</ele>
        <time>2020-06-29T07:18:33Z</time>
      </trkpt>
      <trkpt lat="48.69811" lon="6.97495">
        <ele>295.9</ele>
        <time>2020-06-29T07:18:34Z</time>
      </trkpt>
      <trkpt lat="48.69806" lon="6.97487">
        <ele>295.5</ele>
        <time>2020-06-29T07:18:35Z</time>
      </trkpt>
      <trkpt lat="48.698" lon="6.97479">
        <ele>295</ele>
        <time>2020-06-29T07:18:36Z</time>
      </trkpt>
      <trkpt lat="48.69795" lon="6.9747">
        <ele>294.5</ele>
        <time>2020-06-29T07:18:37Z</time>
      </trkpt>
      <trkpt lat="48.69789" lon="6.97462">
        <ele>294.1</ele>
        <time>2020-06-29T07:18:38Z</time>
      </trkpt>
      <trkpt lat="48.69783" lon="6.97454">
        <ele>293.6</ele>
        <time>2020-06-29T07:18:39Z</time>
      </trkpt>
      <trkpt lat="48.69778" lon="6.97445">
        <ele>293.1</ele>
        <time>2020-06-29T07:18:40Z</time>
      </trkpt>
      <trkpt lat="48.69773" lon="6.97435">
        <ele>292.5</ele>
        <time>2020-06-29T07:18:41Z</time>
      </trkpt>
      <trkpt lat="48.69767" lon="6.97426">
        <ele>291.9</ele>
        <time>2020-06-29T07:18:42Z</time>
      </trkpt>
      <trkpt lat="48.69762" lon="6.97417">
        <ele>291.3</ele>
        <time>2020-06-29T07:18:43Z</time>
      </trkpt>
      <trkpt lat="48.69755" lon="6.97406">
        <ele>290.6</ele>
        <time>2020-06-29T07:18:44Z</time>
      </trkpt>
      <trkpt lat="48.69749" lon="6.97396">
        <ele>289.9</ele>
        <time>2020-06-29T07:18:45Z</time>
      </trkpt>
      <trkpt lat="48.69742" lon="6.97384">
        <ele>289.2</ele>
        <time>2020-06-29T07:18:46Z</time>
      </trkpt>
      <trkpt lat="48.69736" lon="6.97372">
        <ele>288.5</ele>
        <time>2020-06-29T07:18:47Z</time>
      </trkpt>
      <trkpt lat="48.69729" lon="6.9736">
        <ele>287.8</ele>
        <time>2020-06-29T07:18:48Z</time>
      </trkpt>
      <trkpt lat="48.69721" lon="6.97348">
        <ele>287.1</ele>
        <time>2020-06-29T07:18:49Z</time>
      </trkpt>
      <trkpt lat="48.69713" lon="6.97336">
        <ele>286.5</ele>
        <time>2020-06-29T07:18:50Z</time>
      </trkpt>
      <trkpt lat="48.69705" lon="6.97323">
        <ele>285.8</ele>
        <time>2020-06-29T07:18:51Z</time>
      </trkpt>
      <trkpt lat="48.69697" lon="6.9731">
        <ele>285.2</ele>
        <time>2020-06-29T07:18:52Z</time>
      </trkpt>
      <trkpt lat="48.69689" lon="6.97297">
        <ele>284.5</ele>
        <time>2020-06-29T07:18:53Z</time>
      </trkpt>
      <trkpt lat="48.69682" lon="6.97283">
        <ele>283.8</ele>
        <time>2020-06-29T07:18:54Z</time>
      </trkpt>
      <trkpt lat="48.69673" lon="6.97269">
        <ele>283.1</ele>
        <time>2020-06-29T07:18:55Z</time>
      </trkpt>
      <trkpt lat="48.69665" lon="6.97255">
        <ele>282.3</ele>
        <time>2020-06-29T07:18:56Z</time>
      </trkpt>
      <trkpt lat="48.69658" lon="6.97241">
        <ele>281.6</ele>
        <time>2020-06-29T07:18:57Z</time>
      </trkpt>
      <trkpt lat="48.6965" lon="6.97227">
        <ele>280.7</ele>
        <time>2020-06-29T07:18:58Z</time>
      </trkpt>
      <trkpt lat="48.69642" lon="6.97213">
        <ele>279.7</ele>
        <time>2020-06-29T07:18:59Z</time>
      </trkpt>
      <trkpt lat="48.69635" lon="6.97198">
        <ele>278.8</ele>
        <time>2020-06-29T07:19:00Z</time>
      </trkpt>
      <trkpt lat="48.69627" lon="6.97183">
        <ele>277.7</ele>
        <time>2020-06-29T07:19:01Z</time>
      </trkpt>
      <trkpt lat="48.69619" lon="6.97169">
        <ele>276.5</ele>
        <time>2020-06-29T07:19:02Z</time>
      </trkpt>
      <trkpt lat="48.69611" lon="6.97155">
        <ele>275.4</ele>
        <time>2020-06-29T07:19:03Z</time>
      </trkpt>
      <trkpt lat="48.69602" lon="6.97141">
        <ele>274.3</ele>
        <time>2020-06-29T07:19:04Z</time>
      </trkpt>
      <trkpt lat="48.69594" lon="6.97127">
        <ele>273.2</ele>
        <time>2020-06-29T07:19:05Z</time>
      </trkpt>
      <trkpt lat="48.69587" lon="6.97113">
        <ele>272</ele>
        <time>2020-06-29T07:19:06Z</time>
      </trkpt>
      <trkpt lat="48.69579" lon="6.971">
        <ele>270.9</ele>
        <time>2020-06-29T07:19:07Z</time>
      </trkpt>
      <trkpt lat="48.69572" lon="6.97088">
        <ele>269.9</ele>
        <time>2020-06-29T07:19:08Z</time>
      </trkpt>
      <trkpt lat="48.69566" lon="6.97075">
        <ele>269.1</ele>
        <time>2020-06-29T07:19:09Z</time>
      </trkpt>
      <trkpt lat="48.69561" lon="6.97062">
        <ele>268.4</ele>
        <time>2020-06-29T07:19:10Z</time>
      </trkpt>
      <trkpt lat="48.69556" lon="6.9705">
        <ele>267.8</ele>
        <time>2020-06-29T07:19:11Z</time>
      </trkpt>
      <trkpt lat="48.69551" lon="6.97038">
        <ele>267.1</ele>
        <time>2020-06-29T07:19:12Z</time>
      </trkpt>
      <trkpt lat="48.69546" lon="6.97026">
        <ele>266.8</ele>
        <time>2020-06-29T07:19:13Z</time>
      </trkpt>
      <trkpt lat="48.69542" lon="6.97014">
        <ele>266.6</ele>
        <time>2020-06-29T07:19:14Z</time>
      </trkpt>
      <trkpt lat="48.69539" lon="6.97002">
        <ele>266.1</ele>
        <time>2020-06-29T07:19:15Z</time>
      </trkpt>
      <trkpt lat="48.69535" lon="6.9699">
        <ele>265.6</ele>
        <time>2020-06-29T07:19:16Z</time>
      </trkpt>
      <trkpt lat="48.69532" lon="6.96977">
        <ele>265.2</ele>
        <time>2020-06-29T07:19:17Z</time>
      </trkpt>
      <trkpt lat="48.69529" lon="6.96964">
        <ele>264.9</ele>
        <time>2020-06-29T07:19:18Z</time>
      </trkpt>
      <trkpt lat="48.69525" lon="6.96951">
        <ele>264.6</ele>
        <time>2020-06-29T07:19:19Z</time>
      </trkpt>
      <trkpt lat="48.69522" lon="6.96939">
        <ele>264.3</ele>
        <time>2020-06-29T07:19:20Z</time>
      </trkpt>
      <trkpt lat="48.6952" lon="6.96928">
        <ele>264.1</ele>
        <time>2020-06-29T07:19:21Z</time>
      </trkpt>
      <trkpt lat="48.69518" lon="6.96916">
        <ele>263.9</ele>
        <time>2020-06-29T07:19:22Z</time>
      </trkpt>
      <trkpt lat="48.69517" lon="6.96904">
        <ele>263.8</ele>
        <time>2020-06-29T07:19:23Z</time>
      </trkpt>
      <trkpt lat="48.69515" lon="6.96893">
        <ele>263.8</ele>
        <time>2020-06-29T07:19:24Z</time>
      </trkpt>
      <trkpt lat="48.69514" lon="6.96883">
        <ele>263.8</ele>
        <time>2020-06-29T07:19:25Z</time>
      </trkpt>
      <trkpt lat="48.69511" lon="6.96873">
        <ele>263.8</ele>
        <time>2020-06-29T07:19:26Z</time>
      </trkpt>
      <trkpt lat="48.6951" lon="6.96863">
        <ele>263.9</ele>
        <time>2020-06-29T07:19:27Z</time>
      </trkpt>
      <trkpt lat="48.69509" lon="6.96854">
        <ele>264</ele>
        <time>2020-06-29T07:19:28Z</time>
      </trkpt>
      <trkpt lat="48.69508" lon="6.96844">
        <ele>264.1</ele>
        <time>2020-06-29T07:19:29Z</time>
      </trkpt>
      <trkpt lat="48.69507" lon="6.96835">
        <ele>264.2</ele>
        <time>2020-06-29T07:19:30Z</time>
      </trkpt>
      <trkpt lat="48.69506" lon="6.96825">
        <ele>264.3</ele>
        <time>2020-06-29T07:19:31Z</time>
      </trkpt>
      <trkpt lat="48.69504" lon="6.96816">
        <ele>264.4</ele>
        <time>2020-06-29T07:19:32Z</time>
      </trkpt>
      <trkpt lat="48.69503" lon="6.96807">
        <ele>264.6</ele>
        <time>2020-06-29T07:19:33Z</time>
      </trkpt>
      <trkpt lat="48.69502" lon="6.96798">
        <ele>264.8</ele>
        <time>2020-06-29T07:19:34Z</time>
      </trkpt>
      <trkpt lat="48.69501" lon="6.96789">
        <ele>265</ele>
        <time>2020-06-29T07:19:35Z</time>
      </trkpt>
      <trkpt lat="48.69499" lon="6.96781">
        <ele>265.1</ele>
        <time>2020-06-29T07:19:36Z</time>
      </trkpt>
      <trkpt lat="48.69498" lon="6.96773">
        <ele>265.3</ele>
        <time>2020-06-29T07:19:37Z</time>
      </trkpt>
      <trkpt lat="48.69495" lon="6.96767">
        <ele>265.4</ele>
        <time>2020-06-29T07:19:38Z</time>
      </trkpt>
      <trkpt lat="48.69493" lon="6.9676">
        <ele>265.6</ele>
        <time>2020-06-29T07:19:39Z</time>
      </trkpt>
      <trkpt lat="48.69489" lon="6.96755">
        <ele>265.8</ele>
        <time>2020-06-29T07:19:40Z</time>
      </trkpt>
      <trkpt lat="48.69486" lon="6.9675">
        <ele>266</ele>
        <time>2020-06-29T07:19:41Z</time>
      </trkpt>
      <trkpt lat="48.69483" lon="6.96746">
        <ele>266.1</ele>
        <time>2020-06-29T07:19:42Z</time>
      </trkpt>
      <trkpt lat="48.6948" lon="6.96744">
        <ele>266.4</ele>
        <time>2020-06-29T07:19:43Z</time>
      </trkpt>
      <trkpt lat="48.69476" lon="6.96742">
        <ele>266.5</ele>
        <time>2020-06-29T07:19:44Z</time>
      </trkpt>
      <trkpt lat="48.69472" lon="6.9674">
        <ele>266.7</ele>
        <time>2020-06-29T07:19:45Z</time>
      </trkpt>
      <trkpt lat="48.69469" lon="6.96738">
        <ele>266.9</ele>
        <time>2020-06-29T07:19:46Z</time>
      </trkpt>
      <trkpt lat="48.69465" lon="6.96738">
        <ele>267.1</ele>
        <time>2020-06-29T07:19:47Z</time>
      </trkpt>
      <trkpt lat="48.69462" lon="6.96736">
        <ele>267.2</ele>
        <time>2020-06-29T07:19:48Z</time>
      </trkpt>
      <trkpt lat="48.69458" lon="6.96734">
        <ele>267.4</ele>
        <time>2020-06-29T07:19:49Z</time>
      </trkpt>
      <trkpt lat="48.69453" lon="6.96733">
        <ele>267.6</ele>
        <time>2020-06-29T07:19:50Z</time>
      </trkpt>
      <trkpt lat="48.69449" lon="6.96731">
        <ele>267.7</ele>
        <time>2020-06-29T07:19:51Z</time>
      </trkpt>
      <trkpt lat="48.69445" lon="6.96729">
        <ele>267.9</ele>
        <time>2020-06-29T07:19:52Z</time>
      </trkpt>
      <trkpt lat="48.69441" lon="6.96726">
        <ele>268</ele>
        <time>2020-06-29T07:19:53Z</time>
      </trkpt>
      <trkpt lat="48.69437" lon="6.96724">
        <ele>268.2</ele>
        <time>2020-06-29T07:19:54Z</time>
      </trkpt>
      <trkpt lat="48.69433" lon="6.96722">
        <ele>268.2</ele>
        <time>2020-06-29T07:19:55Z</time>
      </trkpt>
      <trkpt lat="48.69429" lon="6.96719">
        <ele>268.2</ele>
        <time>2020-06-29T07:19:56Z</time>
      </trkpt>
      <trkpt lat="48.69426" lon="6.96719">
        <ele>268.3</ele>
        <time>2020-06-29T07:19:57Z</time>
      </trkpt>
      <trkpt lat="48.69423" lon="6.96717">
        <ele>268.3</ele>
        <time>2020-06-29T07:19:58Z</time>
      </trkpt>
      <trkpt lat="48.6942" lon="6.96716">
        <ele>268.4</ele>
        <time>2020-06-29T07:19:59Z</time>
      </trkpt>
      <trkpt lat="48.69417" lon="6.96715">
        <ele>268.4</ele>
        <time>2020-06-29T07:20:00Z</time>
      </trkpt>
      <trkpt lat="48.69414" lon="6.96713">
        <ele>268.5</ele>
        <time>2020-06-29T07:20:01Z</time>
      </trkpt>
      <trkpt lat="48.69409" lon="6.96713">
        <ele>268.5</ele>
        <time>2020-06-29T07:20:02Z</time>
      </trkpt>
      <trkpt lat="48.69404" lon="6.96712">
        <ele>268.6</ele>
        <time>2020-06-29T07:20:03Z</time>
      </trkpt>
      <trkpt lat="48.69399" lon="6.9671">
        <ele>268.6</ele>
        <time>2020-06-29T07:20:04Z</time>
      </trkpt>
      <trkpt lat="48.69395" lon="6.96708">
        <ele>268.7</ele>
        <time>2020-06-29T07:20:05Z</time>
      </trkpt>
      <trkpt lat="48.69389" lon="6.96706">
        <ele>268.7</ele>
        <time>2020-06-29T07:20:06Z</time>
      </trkpt>
      <trkpt lat="48.69385" lon="6.96703">
        <ele>268.8</ele>
        <time>2020-06-29T07:20:07Z</time>
      </trkpt>
      <trkpt lat="48.69381" lon="6.96698">
        <ele>268.8</ele>
        <time>2020-06-29T07:20:08Z</time>
      </trkpt>
      <trkpt lat="48.69374" lon="6.96693">
        <ele>268.9</ele>
        <time>2020-06-29T07:20:09Z</time>
      </trkpt>
      <trkpt lat="48.69369" lon="6.96689">
        <ele>268.9</ele>
        <time>2020-06-29T07:20:10Z</time>
      </trkpt>
      <trkpt lat="48.69364" lon="6.96685">
        <ele>268.9</ele>
        <time>2020-06-29T07:20:11Z</time>
      </trkpt>
      <trkpt lat="48.6936" lon="6.96681">
        <ele>268.9</ele>
        <time>2020-06-29T07:20:12Z</time>
      </trkpt>
      <trkpt lat="48.69357" lon="6.96677">
        <ele>268.9</ele>
        <time>2020-06-29T07:20:13Z</time>
      </trkpt>
      <trkpt lat="48.69355" lon="6.96671">
        <ele>268.9</ele>
        <time>2020-06-29T07:20:14Z</time>
      </trkpt>
      <trkpt lat="48.69349" lon="6.96662">
        <ele>269</ele>
        <time>2020-06-29T07:20:15Z</time>
      </trkpt>
      <trkpt lat="48.69346" lon="6.96657">
        <ele>269</ele>
        <time>2020-06-29T07:20:16Z</time>
      </trkpt>
      <trkpt lat="48.69341" lon="6.96652">
        <ele>269.1</ele>
        <time>2020-06-29T07:20:17Z</time>
      </trkpt>
      <trkpt lat="48.69338" lon="6.96647">
        <ele>269.2</ele>
        <time>2020-06-29T07:20:18Z</time>
      </trkpt>
      <trkpt lat="48.69335" lon="6.96643">
        <ele>269.4</ele>
        <time>2020-06-29T07:20:19Z</time>
      </trkpt>
      <trkpt lat="48.6933" lon="6.96639">
        <ele>269.4</ele>
        <time>2020-06-29T07:20:20Z</time>
      </trkpt>
      <trkpt lat="48.69328" lon="6.96632">
        <ele>269.4</ele>
        <time>2020-06-29T07:20:21Z</time>
      </trkpt>
      <trkpt lat="48.69324" lon="6.96629">
        <ele>269.4</ele>
        <time>2020-06-29T07:20:22Z</time>
      </trkpt>
      <trkpt lat="48.69322" lon="6.96624">
        <ele>269.4</ele>
        <time>2020-06-29T07:20:23Z</time>
      </trkpt>
      <trkpt lat="48.69319" lon="6.96619">
        <ele>269.4</ele>
        <time>2020-06-29T07:20:24Z</time>
      </trkpt>
      <trkpt lat="48.69316" lon="6.96614">
        <ele>269.5</ele>
        <time>2020-06-29T07:20:25Z</time>
      </trkpt>
      <trkpt lat="48.69313" lon="6.96607">
        <ele>269.5</ele>
        <time>2020-06-29T07:20:26Z</time>
      </trkpt>
      <trkpt lat="48.6931" lon="6.966">
        <ele>269.5</ele>
        <time>2020-06-29T07:20:27Z</time>
      </trkpt>
      <trkpt lat="48.69307" lon="6.96594">
        <ele>269.4</ele>
        <time>2020-06-29T07:20:28Z</time>
      </trkpt>
      <trkpt lat="48.69304" lon="6.96589">
        <ele>269.4</ele>
        <time>2020-06-29T07:20:29Z</time>
      </trkpt>
      <trkpt lat="48.69302" lon="6.96582">
        <ele>269.4</ele>
        <time>2020-06-29T07:20:30Z</time>
      </trkpt>
      <trkpt lat="48.693" lon="6.96576">
        <ele>269.4</ele>
        <time>2020-06-29T07:20:31Z</time>
      </trkpt>
      <trkpt lat="48.69298" lon="6.96568">
        <ele>269.4</ele>
        <time>2020-06-29T07:20:32Z</time>
      </trkpt>
      <trkpt lat="48.69296" lon="6.96561">
        <ele>269.4</ele>
        <time>2020-06-29T07:20:33Z</time>
      </trkpt>
      <trkpt lat="48.69295" lon="6.96556">
        <ele>269.3</ele>
        <time>2020-06-29T07:20:34Z</time>
      </trkpt>
      <trkpt lat="48.69293" lon="6.9655">
        <ele>269.3</ele>
        <time>2020-06-29T07:20:35Z</time>
      </trkpt>
      <trkpt lat="48.6929" lon="6.96546">
        <ele>269.2</ele>
        <time>2020-06-29T07:20:36Z</time>
      </trkpt>
      <trkpt lat="48.69288" lon="6.96539">
        <ele>269.1</ele>
        <time>2020-06-29T07:20:37Z</time>
      </trkpt>
      <trkpt lat="48.69285" lon="6.96531">
        <ele>269.1</ele>
        <time>2020-06-29T07:20:38Z</time>
      </trkpt>
      <trkpt lat="48.69282" lon="6.96521">
        <ele>269</ele>
        <time>2020-06-29T07:20:39Z</time>
      </trkpt>
      <trkpt lat="48.6928" lon="6.96513">
        <ele>268.9</ele>
        <time>2020-06-29T07:20:40Z</time>
      </trkpt>
      <trkpt lat="48.69278" lon="6.96504">
        <ele>268.9</ele>
        <time>2020-06-29T07:20:41Z</time>
      </trkpt>
      <trkpt lat="48.69274" lon="6.96499">
        <ele>268.9</ele>
        <time>2020-06-29T07:20:42Z</time>
      </trkpt>
      <trkpt lat="48.69271" lon="6.96494">
        <ele>268.9</ele>
        <time>2020-06-29T07:20:43Z</time>
      </trkpt>
      <trkpt lat="48.69269" lon="6.96484">
        <ele>268.8</ele>
        <time>2020-06-29T07:20:44Z</time>
      </trkpt>
      <trkpt lat="48.69268" lon="6.96477">
        <ele>268.8</ele>
        <time>2020-06-29T07:20:45Z</time>
      </trkpt>
      <trkpt lat="48.69266" lon="6.96468">
        <ele>268.8</ele>
        <time>2020-06-29T07:20:46Z</time>
      </trkpt>
      <trkpt lat="48.69265" lon="6.9646">
        <ele>268.8</ele>
        <time>2020-06-29T07:20:47Z</time>
      </trkpt>
      <trkpt lat="48.69262" lon="6.9645">
        <ele>268.7</ele>
        <time>2020-06-29T07:20:48Z</time>
      </trkpt>
      <trkpt lat="48.69261" lon="6.96443">
        <ele>268.7</ele>
        <time>2020-06-29T07:20:49Z</time>
      </trkpt>
      <trkpt lat="48.69259" lon="6.96435">
        <ele>268.7</ele>
        <time>2020-06-29T07:20:50Z</time>
      </trkpt>
      <trkpt lat="48.69258" lon="6.9643">
        <ele>268.7</ele>
        <time>2020-06-29T07:20:51Z</time>
      </trkpt>
      <trkpt lat="48.69257" lon="6.96423">
        <ele>268.6</ele>
        <time>2020-06-29T07:20:52Z</time>
      </trkpt>
      <trkpt lat="48.69256" lon="6.96417">
        <ele>268.6</ele>
        <time>2020-06-29T07:20:53Z</time>
      </trkpt>
      <trkpt lat="48.69255" lon="6.9641">
        <ele>268.5</ele>
        <time>2020-06-29T07:20:54Z</time>
      </trkpt>
      <trkpt lat="48.69253" lon="6.96406">
        <ele>268.5</ele>
        <time>2020-06-29T07:20:55Z</time>
      </trkpt>
      <trkpt lat="48.69251" lon="6.96398">
        <ele>268.4</ele>
        <time>2020-06-29T07:20:56Z</time>
      </trkpt>
      <trkpt lat="48.6925" lon="6.96391">
        <ele>268.3</ele>
        <time>2020-06-29T07:20:57Z</time>
      </trkpt>
      <trkpt lat="48.69248" lon="6.96382">
        <ele>268.3</ele>
        <time>2020-06-29T07:20:58Z</time>
      </trkpt>
      <trkpt lat="48.69246" lon="6.96373">
        <ele>268.2</ele>
        <time>2020-06-29T07:20:59Z</time>
      </trkpt>
      <trkpt lat="48.69245" lon="6.96367">
        <ele>268.2</ele>
        <time>2020-06-29T07:21:00Z</time>
      </trkpt>
      <trkpt lat="48.69245" lon="6.96362">
        <ele>268.1</ele>
        <time>2020-06-29T07:21:01Z</time>
      </trkpt>
      <trkpt lat="48.69244" lon="6.96356">
        <ele>268</ele>
        <time>2020-06-29T07:21:02Z</time>
      </trkpt>
      <trkpt lat="48.69243" lon="6.96349">
        <ele>268</ele>
        <time>2020-06-29T07:21:03Z</time>
      </trkpt>
      <trkpt lat="48.6924" lon="6.96342">
        <ele>267.9</ele>
        <time>2020-06-29T07:21:04Z</time>
      </trkpt>
      <trkpt lat="48.69237" lon="6.96337">
        <ele>267.9</ele>
        <time>2020-06-29T07:21:05Z</time>
      </trkpt>
      <trkpt lat="48.69232" lon="6.96332">
        <ele>267.8</ele>
        <time>2020-06-29T07:21:06Z</time>
      </trkpt>
      <trkpt lat="48.69228" lon="6.96327">
        <ele>267.6</ele>
        <time>2020-06-29T07:21:07Z</time>
      </trkpt>
      <trkpt lat="48.69224" lon="6.96322">
        <ele>267.5</ele>
        <time>2020-06-29T07:21:08Z</time>
      </trkpt>
      <trkpt lat="48.69218" lon="6.96316">
        <ele>267.4</ele>
        <time>2020-06-29T07:21:09Z</time>
      </trkpt>
      <trkpt lat="48.69213" lon="6.96311">
        <ele>267.3</ele>
        <time>2020-06-29T07:21:10Z</time>
      </trkpt>
      <trkpt lat="48.69207" lon="6.96306">
        <ele>267.2</ele>
        <time>2020-06-29T07:21:11Z</time>
      </trkpt>
      <trkpt lat="48.69202" lon="6.96302">
        <ele>267.1</ele>
        <time>2020-06-29T07:21:12Z</time>
      </trkpt>
      <trkpt lat="48.69197" lon="6.96297">
        <ele>267</ele>
        <time>2020-06-29T07:21:13Z</time>
      </trkpt>
      <trkpt lat="48.69191" lon="6.96292">
        <ele>266.9</ele>
        <time>2020-06-29T07:21:14Z</time>
      </trkpt>
      <trkpt lat="48.69184" lon="6.96289">
        <ele>266.8</ele>
        <time>2020-06-29T07:21:15Z</time>
      </trkpt>
      <trkpt lat="48.69178" lon="6.96284">
        <ele>266.7</ele>
        <time>2020-06-29T07:21:16Z</time>
      </trkpt>
      <trkpt lat="48.69173" lon="6.9628">
        <ele>266.7</ele>
        <time>2020-06-29T07:21:17Z</time>
      </trkpt>
      <trkpt lat="48.69169" lon="6.96274">
        <ele>266.7</ele>
        <time>2020-06-29T07:21:18Z</time>
      </trkpt>
      <trkpt lat="48.69164" lon="6.96268">
        <ele>266.7</ele>
        <time>2020-06-29T07:21:19Z</time>
      </trkpt>
      <trkpt lat="48.69159" lon="6.96261">
        <ele>266.7</ele>
        <time>2020-06-29T07:21:20Z</time>
      </trkpt>
      <trkpt lat="48.69156" lon="6.96254">
        <ele>266.7</ele>
        <time>2020-06-29T07:21:21Z</time>
      </trkpt>
      <trkpt lat="48.69154" lon="6.96247">
        <ele>266.7</ele>
        <time>2020-06-29T07:21:22Z</time>
      </trkpt>
      <trkpt lat="48.69153" lon="6.96239">
        <ele>266.7</ele>
        <time>2020-06-29T07:21:23Z</time>
      </trkpt>
      <trkpt lat="48.69152" lon="6.9623">
        <ele>266.7</ele>
        <time>2020-06-29T07:21:24Z</time>
      </trkpt>
      <trkpt lat="48.69152" lon="6.96224">
        <ele>266.8</ele>
        <time>2020-06-29T07:21:25Z</time>
      </trkpt>
      <trkpt lat="48.69151" lon="6.96217">
        <ele>266.9</ele>
        <time>2020-06-29T07:21:26Z</time>
      </trkpt>
      <trkpt lat="48.6915" lon="6.96209">
        <ele>267</ele>
        <time>2020-06-29T07:21:27Z</time>
      </trkpt>
      <trkpt lat="48.69149" lon="6.96201">
        <ele>267.1</ele>
        <time>2020-06-29T07:21:28Z</time>
      </trkpt>
      <trkpt lat="48.69147" lon="6.96193">
        <ele>267.3</ele>
        <time>2020-06-29T07:21:29Z</time>
      </trkpt>
      <trkpt lat="48.69146" lon="6.96186">
        <ele>267.3</ele>
        <time>2020-06-29T07:21:30Z</time>
      </trkpt>
      <trkpt lat="48.69145" lon="6.9618">
        <ele>267.4</ele>
        <time>2020-06-29T07:21:31Z</time>
      </trkpt>
      <trkpt lat="48.69145" lon="6.96174">
        <ele>267.5</ele>
        <time>2020-06-29T07:21:32Z</time>
      </trkpt>
      <trkpt lat="48.69143" lon="6.96167">
        <ele>267.6</ele>
        <time>2020-06-29T07:21:33Z</time>
      </trkpt>
      <trkpt lat="48.69141" lon="6.96161">
        <ele>267.6</ele>
        <time>2020-06-29T07:21:34Z</time>
      </trkpt>
      <trkpt lat="48.6914" lon="6.96156">
        <ele>267.6</ele>
        <time>2020-06-29T07:21:35Z</time>
      </trkpt>
      <trkpt lat="48.69137" lon="6.96151">
        <ele>267.7</ele>
        <time>2020-06-29T07:21:36Z</time>
      </trkpt>
      <trkpt lat="48.69134" lon="6.96144">
        <ele>267.7</ele>
        <time>2020-06-29T07:21:37Z</time>
      </trkpt>
      <trkpt lat="48.69132" lon="6.96138">
        <ele>267.6</ele>
        <time>2020-06-29T07:21:38Z</time>
      </trkpt>
      <trkpt lat="48.69131" lon="6.96133">
        <ele>267.6</ele>
        <time>2020-06-29T07:21:39Z</time>
      </trkpt>
      <trkpt lat="48.69129" lon="6.96128">
        <ele>267.6</ele>
        <time>2020-06-29T07:21:40Z</time>
      </trkpt>
      <trkpt lat="48.69127" lon="6.96123">
        <ele>267.5</ele>
        <time>2020-06-29T07:21:41Z</time>
      </trkpt>
      <trkpt lat="48.69125" lon="6.96117">
        <ele>267.5</ele>
        <time>2020-06-29T07:21:42Z</time>
      </trkpt>
      <trkpt lat="48.69122" lon="6.96113">
        <ele>267.4</ele>
        <time>2020-06-29T07:21:43Z</time>
      </trkpt>
      <trkpt lat="48.69119" lon="6.96108">
        <ele>267.3</ele>
        <time>2020-06-29T07:21:44Z</time>
      </trkpt>
      <trkpt lat="48.69116" lon="6.96103">
        <ele>267.2</ele>
        <time>2020-06-29T07:21:45Z</time>
      </trkpt>
      <trkpt lat="48.69113" lon="6.96098">
        <ele>267.1</ele>
        <time>2020-06-29T07:21:46Z</time>
      </trkpt>
      <trkpt lat="48.69109" lon="6.96094">
        <ele>267</ele>
        <time>2020-06-29T07:21:47Z</time>
      </trkpt>
      <trkpt lat="48.69106" lon="6.9609">
        <ele>266.9</ele>
        <time>2020-06-29T07:21:48Z</time>
      </trkpt>
      <trkpt lat="48.69102" lon="6.96084">
        <ele>266.7</ele>
        <time>2020-06-29T07:21:49Z</time>
      </trkpt>
      <trkpt lat="48.69099" lon="6.9608">
        <ele>266.6</ele>
        <time>2020-06-29T07:21:50Z</time>
      </trkpt>
      <trkpt lat="48.69096" lon="6.96077">
        <ele>266.5</ele>
        <time>2020-06-29T07:21:51Z</time>
      </trkpt>
      <trkpt lat="48.69093" lon="6.96072">
        <ele>266.4</ele>
        <time>2020-06-29T07:21:52Z</time>
      </trkpt>
      <trkpt lat="48.69089" lon="6.96066">
        <ele>266.3</ele>
        <time>2020-06-29T07:21:53Z</time>
      </trkpt>
      <trkpt lat="48.69085" lon="6.9606">
        <ele>266.2</ele>
        <time>2020-06-29T07:21:54Z</time>
      </trkpt>
      <trkpt lat="48.6908" lon="6.96053">
        <ele>266.1</ele>
        <time>2020-06-29T07:21:55Z</time>
      </trkpt>
      <trkpt lat="48.69075" lon="6.96048">
        <ele>266</ele>
        <time>2020-06-29T07:21:56Z</time>
      </trkpt>
      <trkpt lat="48.69071" lon="6.96043">
        <ele>265.9</ele>
        <time>2020-06-29T07:21:57Z</time>
      </trkpt>
      <trkpt lat="48.69068" lon="6.96037">
        <ele>265.9</ele>
        <time>2020-06-29T07:21:58Z</time>
      </trkpt>
      <trkpt lat="48.69064" lon="6.96031">
        <ele>265.8</ele>
        <time>2020-06-29T07:21:59Z</time>
      </trkpt>
      <trkpt lat="48.6906" lon="6.96025">
        <ele>265.8</ele>
        <time>2020-06-29T07:22:00Z</time>
      </trkpt>
      <trkpt lat="48.69056" lon="6.96019">
        <ele>265.8</ele>
        <time>2020-06-29T07:22:01Z</time>
      </trkpt>
      <trkpt lat="48.69052" lon="6.96013">
        <ele>265.8</ele>
        <time>2020-06-29T07:22:02Z</time>
      </trkpt>
      <trkpt lat="48.69049" lon="6.96006">
        <ele>265.8</ele>
        <time>2020-06-29T07:22:03Z</time>
      </trkpt>
      <trkpt lat="48.69046" lon="6.95999">
        <ele>265.8</ele>
        <time>2020-06-29T07:22:04Z</time>
      </trkpt>
      <trkpt lat="48.69044" lon="6.95993">
        <ele>265.7</ele>
        <time>2020-06-29T07:22:05Z</time>
      </trkpt>
      <trkpt lat="48.69042" lon="6.95986">
        <ele>265.7</ele>
        <time>2020-06-29T07:22:06Z</time>
      </trkpt>
      <trkpt lat="48.6904" lon="6.95979">
        <ele>265.7</ele>
        <time>2020-06-29T07:22:07Z</time>
      </trkpt>
      <trkpt lat="48.69039" lon="6.9597">
        <ele>265.7</ele>
        <time>2020-06-29T07:22:08Z</time>
      </trkpt>
      <trkpt lat="48.69036" lon="6.95963">
        <ele>265.7</ele>
        <time>2020-06-29T07:22:09Z</time>
      </trkpt>
      <trkpt lat="48.69034" lon="6.95955">
        <ele>265.7</ele>
        <time>2020-06-29T07:22:10Z</time>
      </trkpt>
      <trkpt lat="48.69032" lon="6.95948">
        <ele>265.7</ele>
        <time>2020-06-29T07:22:11Z</time>
      </trkpt>
      <trkpt lat="48.69031" lon="6.95941">
        <ele>265.7</ele>
        <time>2020-06-29T07:22:12Z</time>
      </trkpt>
      <trkpt lat="48.69029" lon="6.95934">
        <ele>265.7</ele>
        <time>2020-06-29T07:22:13Z</time>
      </trkpt>
      <trkpt lat="48.69028" lon="6.95927">
        <ele>265.7</ele>
        <time>2020-06-29T07:22:14Z</time>
      </trkpt>
      <trkpt lat="48.69026" lon="6.95922">
        <ele>265.7</ele>
        <time>2020-06-29T07:22:15Z</time>
      </trkpt>
      <trkpt lat="48.69024" lon="6.95915">
        <ele>265.6</ele>
        <time>2020-06-29T07:22:16Z</time>
      </trkpt>
      <trkpt lat="48.69022" lon="6.95908">
        <ele>265.6</ele>
        <time>2020-06-29T07:22:17Z</time>
      </trkpt>
      <trkpt lat="48.69019" lon="6.95901">
        <ele>265.5</ele>
        <time>2020-06-29T07:22:18Z</time>
      </trkpt>
      <trkpt lat="48.69017" lon="6.95893">
        <ele>265.5</ele>
        <time>2020-06-29T07:22:19Z</time>
      </trkpt>
      <trkpt lat="48.69015" lon="6.95886">
        <ele>265.5</ele>
        <time>2020-06-29T07:22:20Z</time>
      </trkpt>
      <trkpt lat="48.69012" lon="6.95879">
        <ele>265.4</ele>
        <time>2020-06-29T07:22:21Z</time>
      </trkpt>
      <trkpt lat="48.69009" lon="6.95873">
        <ele>265.4</ele>
        <time>2020-06-29T07:22:22Z</time>
      </trkpt>
      <trkpt lat="48.69006" lon="6.95867">
        <ele>265.4</ele>
        <time>2020-06-29T07:22:23Z</time>
      </trkpt>
      <trkpt lat="48.69004" lon="6.95859">
        <ele>265.3</ele>
        <time>2020-06-29T07:22:24Z</time>
      </trkpt>
      <trkpt lat="48.69001" lon="6.95853">
        <ele>265.3</ele>
        <time>2020-06-29T07:22:25Z</time>
      </trkpt>
      <trkpt lat="48.68997" lon="6.95846">
        <ele>265.2</ele>
        <time>2020-06-29T07:22:26Z</time>
      </trkpt>
      <trkpt lat="48.68995" lon="6.9584">
        <ele>265.1</ele>
        <time>2020-06-29T07:22:27Z</time>
      </trkpt>
      <trkpt lat="48.68992" lon="6.95833">
        <ele>265.1</ele>
        <time>2020-06-29T07:22:28Z</time>
      </trkpt>
      <trkpt lat="48.68989" lon="6.95826">
        <ele>265</ele>
        <time>2020-06-29T07:22:29Z</time>
      </trkpt>
      <trkpt lat="48.68986" lon="6.95818">
        <ele>265</ele>
        <time>2020-06-29T07:22:30Z</time>
      </trkpt>
      <trkpt lat="48.68983" lon="6.9581">
        <ele>264.9</ele>
        <time>2020-06-29T07:22:31Z</time>
      </trkpt>
      <trkpt lat="48.6898" lon="6.95803">
        <ele>264.9</ele>
        <time>2020-06-29T07:22:32Z</time>
      </trkpt>
      <trkpt lat="48.68977" lon="6.95795">
        <ele>264.9</ele>
        <time>2020-06-29T07:22:33Z</time>
      </trkpt>
      <trkpt lat="48.68974" lon="6.95788">
        <ele>264.9</ele>
        <time>2020-06-29T07:22:34Z</time>
      </trkpt>
      <trkpt lat="48.68972" lon="6.9578">
        <ele>264.9</ele>
        <time>2020-06-29T07:22:35Z</time>
      </trkpt>
      <trkpt lat="48.68969" lon="6.95772">
        <ele>264.9</ele>
        <time>2020-06-29T07:22:36Z</time>
      </trkpt>
      <trkpt lat="48.68966" lon="6.95766">
        <ele>264.9</ele>
        <time>2020-06-29T07:22:37Z</time>
      </trkpt>
      <trkpt lat="48.68963" lon="6.95759">
        <ele>264.9</ele>
        <time>2020-06-29T07:22:38Z</time>
      </trkpt>
      <trkpt lat="48.6896" lon="6.95752">
        <ele>264.9</ele>
        <time>2020-06-29T07:22:39Z</time>
      </trkpt>
      <trkpt lat="48.68956" lon="6.95744">
        <ele>264.9</ele>
        <time>2020-06-29T07:22:40Z</time>
      </trkpt>
      <trkpt lat="48.68953" lon="6.95737">
        <ele>264.9</ele>
        <time>2020-06-29T07:22:41Z</time>
      </trkpt>
      <trkpt lat="48.68949" lon="6.95729">
        <ele>264.8</ele>
        <time>2020-06-29T07:22:42Z</time>
      </trkpt>
      <trkpt lat="48.68946" lon="6.95722">
        <ele>264.8</ele>
        <time>2020-06-29T07:22:43Z</time>
      </trkpt>
      <trkpt lat="48.68943" lon="6.95715">
        <ele>264.8</ele>
        <time>2020-06-29T07:22:44Z</time>
      </trkpt>
      <trkpt lat="48.6894" lon="6.95707">
        <ele>264.9</ele>
        <time>2020-06-29T07:22:45Z</time>
      </trkpt>
      <trkpt lat="48.68937" lon="6.957">
        <ele>264.9</ele>
        <time>2020-06-29T07:22:46Z</time>
      </trkpt>
      <trkpt lat="48.68934" lon="6.95693">
        <ele>265</ele>
        <time>2020-06-29T07:22:47Z</time>
      </trkpt>
      <trkpt lat="48.68931" lon="6.95685">
        <ele>265</ele>
        <time>2020-06-29T07:22:48Z</time>
      </trkpt>
      <trkpt lat="48.68929" lon="6.95677">
        <ele>265</ele>
        <time>2020-06-29T07:22:49Z</time>
      </trkpt>
      <trkpt lat="48.68927" lon="6.95669">
        <ele>265.1</ele>
        <time>2020-06-29T07:22:50Z</time>
      </trkpt>
      <trkpt lat="48.68925" lon="6.95661">
        <ele>265.1</ele>
        <time>2020-06-29T07:22:51Z</time>
      </trkpt>
      <trkpt lat="48.68922" lon="6.95653">
        <ele>265.2</ele>
        <time>2020-06-29T07:22:52Z</time>
      </trkpt>
      <trkpt lat="48.6892" lon="6.95647">
        <ele>265.2</ele>
        <time>2020-06-29T07:22:53Z</time>
      </trkpt>
      <trkpt lat="48.68917" lon="6.9564">
        <ele>265.3</ele>
        <time>2020-06-29T07:22:54Z</time>
      </trkpt>
      <trkpt lat="48.68916" lon="6.95633">
        <ele>265.3</ele>
        <time>2020-06-29T07:22:55Z</time>
      </trkpt>
      <trkpt lat="48.68914" lon="6.95626">
        <ele>265.3</ele>
        <time>2020-06-29T07:22:56Z</time>
      </trkpt>
      <trkpt lat="48.68912" lon="6.95619">
        <ele>265.3</ele>
        <time>2020-06-29T07:22:57Z</time>
      </trkpt>
      <trkpt lat="48.68909" lon="6.95613">
        <ele>265.4</ele>
        <time>2020-06-29T07:22:58Z</time>
      </trkpt>
      <trkpt lat="48.68906" lon="6.95607">
        <ele>265.4</ele>
        <time>2020-06-29T07:22:59Z</time>
      </trkpt>
      <trkpt lat="48.68903" lon="6.956">
        <ele>265.5</ele>
        <time>2020-06-29T07:23:00Z</time>
      </trkpt>
      <trkpt lat="48.68901" lon="6.95593">
        <ele>265.5</ele>
        <time>2020-06-29T07:23:01Z</time>
      </trkpt>
      <trkpt lat="48.68898" lon="6.95586">
        <ele>265.6</ele>
        <time>2020-06-29T07:23:02Z</time>
      </trkpt>
      <trkpt lat="48.68896" lon="6.95578">
        <ele>265.7</ele>
        <time>2020-06-29T07:23:03Z</time>
      </trkpt>
      <trkpt lat="48.68895" lon="6.95572">
        <ele>265.7</ele>
        <time>2020-06-29T07:23:04Z</time>
      </trkpt>
      <trkpt lat="48.68892" lon="6.95565">
        <ele>265.7</ele>
        <time>2020-06-29T07:23:05Z</time>
      </trkpt>
      <trkpt lat="48.6889" lon="6.95558">
        <ele>265.7</ele>
        <time>2020-06-29T07:23:06Z</time>
      </trkpt>
      <trkpt lat="48.68888" lon="6.95553">
        <ele>265.7</ele>
        <time>2020-06-29T07:23:07Z</time>
      </trkpt>
      <trkpt lat="48.68886" lon="6.95546">
        <ele>265.6</ele>
        <time>2020-06-29T07:23:08Z</time>
      </trkpt>
      <trkpt lat="48.68884" lon="6.95539">
        <ele>265.6</ele>
        <time>2020-06-29T07:23:09Z</time>
      </trkpt>
      <trkpt lat="48.68881" lon="6.95534">
        <ele>265.6</ele>
        <time>2020-06-29T07:23:10Z</time>
      </trkpt>
      <trkpt lat="48.68878" lon="6.95528">
        <ele>265.5</ele>
        <time>2020-06-29T07:23:11Z</time>
      </trkpt>
      <trkpt lat="48.68874" lon="6.95522">
        <ele>265.4</ele>
        <time>2020-06-29T07:23:12Z</time>
      </trkpt>
      <trkpt lat="48.6887" lon="6.95516">
        <ele>265.3</ele>
        <time>2020-06-29T07:23:13Z</time>
      </trkpt>
      <trkpt lat="48.68866" lon="6.9551">
        <ele>265.2</ele>
        <time>2020-06-29T07:23:14Z</time>
      </trkpt>
      <trkpt lat="48.68862" lon="6.95504">
        <ele>265.1</ele>
        <time>2020-06-29T07:23:15Z</time>
      </trkpt>
      <trkpt lat="48.68857" lon="6.95497">
        <ele>265</ele>
        <time>2020-06-29T07:23:16Z</time>
      </trkpt>
      <trkpt lat="48.68853" lon="6.9549">
        <ele>264.9</ele>
        <time>2020-06-29T07:23:17Z</time>
      </trkpt>
      <trkpt lat="48.68849" lon="6.95483">
        <ele>264.8</ele>
        <time>2020-06-29T07:23:18Z</time>
      </trkpt>
      <trkpt lat="48.68845" lon="6.95478">
        <ele>264.7</ele>
        <time>2020-06-29T07:23:19Z</time>
      </trkpt>
      <trkpt lat="48.6884" lon="6.95473">
        <ele>264.7</ele>
        <time>2020-06-29T07:23:20Z</time>
      </trkpt>
      <trkpt lat="48.68833" lon="6.95468">
        <ele>264.6</ele>
        <time>2020-06-29T07:23:21Z</time>
      </trkpt>
      <trkpt lat="48.68829" lon="6.95463">
        <ele>264.5</ele>
        <time>2020-06-29T07:23:22Z</time>
      </trkpt>
      <trkpt lat="48.68824" lon="6.95457">
        <ele>264.4</ele>
        <time>2020-06-29T07:23:23Z</time>
      </trkpt>
      <trkpt lat="48.68819" lon="6.95451">
        <ele>264.3</ele>
        <time>2020-06-29T07:23:24Z</time>
      </trkpt>
      <trkpt lat="48.68814" lon="6.95446">
        <ele>264.3</ele>
        <time>2020-06-29T07:23:25Z</time>
      </trkpt>
      <trkpt lat="48.68809" lon="6.95439">
        <ele>264.2</ele>
        <time>2020-06-29T07:23:26Z</time>
      </trkpt>
      <trkpt lat="48.68805" lon="6.95433">
        <ele>264.2</ele>
        <time>2020-06-29T07:23:27Z</time>
      </trkpt>
      <trkpt lat="48.688" lon="6.95428">
        <ele>264.2</ele>
        <time>2020-06-29T07:23:28Z</time>
      </trkpt>
      <trkpt lat="48.68795" lon="6.95422">
        <ele>264.2</ele>
        <time>2020-06-29T07:23:29Z</time>
      </trkpt>
      <trkpt lat="48.68791" lon="6.95415">
        <ele>264.2</ele>
        <time>2020-06-29T07:23:30Z</time>
      </trkpt>
      <trkpt lat="48.68786" lon="6.95408">
        <ele>264.2</ele>
        <time>2020-06-29T07:23:31Z</time>
      </trkpt>
      <trkpt lat="48.68782" lon="6.95401">
        <ele>264.3</ele>
        <time>2020-06-29T07:23:32Z</time>
      </trkpt>
      <trkpt lat="48.68779" lon="6.95394">
        <ele>264.3</ele>
        <time>2020-06-29T07:23:33Z</time>
      </trkpt>
      <trkpt lat="48.68775" lon="6.95389">
        <ele>264.4</ele>
        <time>2020-06-29T07:23:34Z</time>
      </trkpt>
      <trkpt lat="48.68772" lon="6.95383">
        <ele>264.4</ele>
        <time>2020-06-29T07:23:35Z</time>
      </trkpt>
      <trkpt lat="48.68769" lon="6.95375">
        <ele>264.4</ele>
        <time>2020-06-29T07:23:36Z</time>
      </trkpt>
      <trkpt lat="48.68767" lon="6.95368">
        <ele>264.5</ele>
        <time>2020-06-29T07:23:37Z</time>
      </trkpt>
      <trkpt lat="48.68765" lon="6.95361">
        <ele>264.6</ele>
        <time>2020-06-29T07:23:38Z</time>
      </trkpt>
      <trkpt lat="48.68763" lon="6.95354">
        <ele>264.6</ele>
        <time>2020-06-29T07:23:39Z</time>
      </trkpt>
      <trkpt lat="48.6876" lon="6.95346">
        <ele>264.7</ele>
        <time>2020-06-29T07:23:40Z</time>
      </trkpt>
      <trkpt lat="48.68759" lon="6.95338">
        <ele>264.8</ele>
        <time>2020-06-29T07:23:41Z</time>
      </trkpt>
      <trkpt lat="48.68756" lon="6.9533">
        <ele>265</ele>
        <time>2020-06-29T07:23:42Z</time>
      </trkpt>
      <trkpt lat="48.68755" lon="6.95324">
        <ele>265</ele>
        <time>2020-06-29T07:23:43Z</time>
      </trkpt>
      <trkpt lat="48.68754" lon="6.95318">
        <ele>265.1</ele>
        <time>2020-06-29T07:23:44Z</time>
      </trkpt>
      <trkpt lat="48.68753" lon="6.95311">
        <ele>265.2</ele>
        <time>2020-06-29T07:23:45Z</time>
      </trkpt>
      <trkpt lat="48.6875" lon="6.95305">
        <ele>265.3</ele>
        <time>2020-06-29T07:23:46Z</time>
      </trkpt>
      <trkpt lat="48.68749" lon="6.95298">
        <ele>265.5</ele>
        <time>2020-06-29T07:23:47Z</time>
      </trkpt>
      <trkpt lat="48.68747" lon="6.95293">
        <ele>265.6</ele>
        <time>2020-06-29T07:23:48Z</time>
      </trkpt>
      <trkpt lat="48.68744" lon="6.95286">
        <ele>265.7</ele>
        <time>2020-06-29T07:23:49Z</time>
      </trkpt>
      <trkpt lat="48.68742" lon="6.9528">
        <ele>265.8</ele>
        <time>2020-06-29T07:23:50Z</time>
      </trkpt>
      <trkpt lat="48.6874" lon="6.95272">
        <ele>265.9</ele>
        <time>2020-06-29T07:23:51Z</time>
      </trkpt>
      <trkpt lat="48.68738" lon="6.95265">
        <ele>266</ele>
        <time>2020-06-29T07:23:52Z</time>
      </trkpt>
      <trkpt lat="48.68736" lon="6.95259">
        <ele>266.2</ele>
        <time>2020-06-29T07:23:53Z</time>
      </trkpt>
      <trkpt lat="48.68734" lon="6.95254">
        <ele>266.3</ele>
        <time>2020-06-29T07:23:54Z</time>
      </trkpt>
      <trkpt lat="48.68732" lon="6.95249">
        <ele>266.4</ele>
        <time>2020-06-29T07:23:55Z</time>
      </trkpt>
      <trkpt lat="48.68731" lon="6.95243">
        <ele>266.5</ele>
        <time>2020-06-29T07:23:56Z</time>
      </trkpt>
      <trkpt lat="48.68729" lon="6.95239">
        <ele>266.6</ele>
        <time>2020-06-29T07:23:57Z</time>
      </trkpt>
      <trkpt lat="48.68726" lon="6.95234">
        <ele>266.8</ele>
        <time>2020-06-29T07:23:58Z</time>
      </trkpt>
      <trkpt lat="48.68725" lon="6.95229">
        <ele>266.8</ele>
        <time>2020-06-29T07:23:59Z</time>
      </trkpt>
      <trkpt lat="48.68723" lon="6.95225">
        <ele>266.9</ele>
        <time>2020-06-29T07:24:00Z</time>
      </trkpt>
      <trkpt lat="48.68722" lon="6.95221">
        <ele>266.9</ele>
        <time>2020-06-29T07:24:01Z</time>
      </trkpt>
      <trkpt lat="48.6872" lon="6.95216">
        <ele>267</ele>
        <time>2020-06-29T07:24:02Z</time>
      </trkpt>
      <trkpt lat="48.68716" lon="6.95213">
        <ele>267</ele>
        <time>2020-06-29T07:24:03Z</time>
      </trkpt>
      <trkpt lat="48.68715" lon="6.95208">
        <ele>267</ele>
        <time>2020-06-29T07:24:04Z</time>
      </trkpt>
      <trkpt lat="48.68714" lon="6.95204">
        <ele>267</ele>
        <time>2020-06-29T07:24:05Z</time>
      </trkpt>
      <trkpt lat="48.68712" lon="6.95201">
        <ele>267</ele>
        <time>2020-06-29T07:24:06Z</time>
      </trkpt>
      <trkpt lat="48.6871" lon="6.95197">
        <ele>267</ele>
        <time>2020-06-29T07:24:07Z</time>
      </trkpt>
      <trkpt lat="48.68707" lon="6.95194">
        <ele>267</ele>
        <time>2020-06-29T07:24:08Z</time>
      </trkpt>
      <trkpt lat="48.68703" lon="6.95189">
        <ele>266.9</ele>
        <time>2020-06-29T07:24:09Z</time>
      </trkpt>
      <trkpt lat="48.687" lon="6.95185">
        <ele>266.9</ele>
        <time>2020-06-29T07:24:10Z</time>
      </trkpt>
      <trkpt lat="48.68697" lon="6.95179">
        <ele>266.8</ele>
        <time>2020-06-29T07:24:11Z</time>
      </trkpt>
      <trkpt lat="48.68692" lon="6.95172">
        <ele>266.6</ele>
        <time>2020-06-29T07:24:12Z</time>
      </trkpt>
      <trkpt lat="48.68689" lon="6.95167">
        <ele>266.5</ele>
        <time>2020-06-29T07:24:13Z</time>
      </trkpt>
      <trkpt lat="48.68685" lon="6.95161">
        <ele>266.5</ele>
        <time>2020-06-29T07:24:14Z</time>
      </trkpt>
      <trkpt lat="48.68682" lon="6.95157">
        <ele>266.4</ele>
        <time>2020-06-29T07:24:15Z</time>
      </trkpt>
      <trkpt lat="48.68678" lon="6.95153">
        <ele>266.3</ele>
        <time>2020-06-29T07:24:16Z</time>
      </trkpt>
      <trkpt lat="48.68673" lon="6.95148">
        <ele>266.2</ele>
        <time>2020-06-29T07:24:17Z</time>
      </trkpt>
      <trkpt lat="48.68669" lon="6.95143">
        <ele>266.2</ele>
        <time>2020-06-29T07:24:18Z</time>
      </trkpt>
      <trkpt lat="48.68666" lon="6.95137">
        <ele>266.1</ele>
        <time>2020-06-29T07:24:19Z</time>
      </trkpt>
      <trkpt lat="48.68662" lon="6.9513">
        <ele>266</ele>
        <time>2020-06-29T07:24:20Z</time>
      </trkpt>
      <trkpt lat="48.68659" lon="6.95124">
        <ele>265.9</ele>
        <time>2020-06-29T07:24:21Z</time>
      </trkpt>
      <trkpt lat="48.68654" lon="6.95118">
        <ele>265.7</ele>
        <time>2020-06-29T07:24:22Z</time>
      </trkpt>
      <trkpt lat="48.6865" lon="6.95113">
        <ele>265.6</ele>
        <time>2020-06-29T07:24:23Z</time>
      </trkpt>
      <trkpt lat="48.68647" lon="6.95106">
        <ele>265.4</ele>
        <time>2020-06-29T07:24:24Z</time>
      </trkpt>
      <trkpt lat="48.68648" lon="6.95101">
        <ele>265.3</ele>
        <time>2020-06-29T07:24:25Z</time>
      </trkpt>
      <trkpt lat="48.68645" lon="6.95094">
        <ele>265.1</ele>
        <time>2020-06-29T07:24:26Z</time>
      </trkpt>
      <trkpt lat="48.68642" lon="6.95089">
        <ele>264.9</ele>
        <time>2020-06-29T07:24:27Z</time>
      </trkpt>
      <trkpt lat="48.68639" lon="6.95083">
        <ele>264.8</ele>
        <time>2020-06-29T07:24:28Z</time>
      </trkpt>
      <trkpt lat="48.68637" lon="6.95075">
        <ele>264.5</ele>
        <time>2020-06-29T07:24:29Z</time>
      </trkpt>
      <trkpt lat="48.68632" lon="6.95068">
        <ele>264.2</ele>
        <time>2020-06-29T07:24:30Z</time>
      </trkpt>
      <trkpt lat="48.68627" lon="6.95062">
        <ele>264</ele>
        <time>2020-06-29T07:24:31Z</time>
      </trkpt>
      <trkpt lat="48.68623" lon="6.95054">
        <ele>263.7</ele>
        <time>2020-06-29T07:24:32Z</time>
      </trkpt>
      <trkpt lat="48.68618" lon="6.95047">
        <ele>263.5</ele>
        <time>2020-06-29T07:24:33Z</time>
      </trkpt>
      <trkpt lat="48.68613" lon="6.95039">
        <ele>263.2</ele>
        <time>2020-06-29T07:24:34Z</time>
      </trkpt>
      <trkpt lat="48.68608" lon="6.95032">
        <ele>263.1</ele>
        <time>2020-06-29T07:24:35Z</time>
      </trkpt>
      <trkpt lat="48.68603" lon="6.95023">
        <ele>262.9</ele>
        <time>2020-06-29T07:24:36Z</time>
      </trkpt>
      <trkpt lat="48.68598" lon="6.95015">
        <ele>262.8</ele>
        <time>2020-06-29T07:24:37Z</time>
      </trkpt>
      <trkpt lat="48.68594" lon="6.95006">
        <ele>262.7</ele>
        <time>2020-06-29T07:24:38Z</time>
      </trkpt>
      <trkpt lat="48.6859" lon="6.94997">
        <ele>262.6</ele>
        <time>2020-06-29T07:24:39Z</time>
      </trkpt>
      <trkpt lat="48.68586" lon="6.94988">
        <ele>262.5</ele>
        <time>2020-06-29T07:24:40Z</time>
      </trkpt>
      <trkpt lat="48.68583" lon="6.94981">
        <ele>262.5</ele>
        <time>2020-06-29T07:24:41Z</time>
      </trkpt>
      <trkpt lat="48.68579" lon="6.94973">
        <ele>262.5</ele>
        <time>2020-06-29T07:24:42Z</time>
      </trkpt>
      <trkpt lat="48.68576" lon="6.94965">
        <ele>262.5</ele>
        <time>2020-06-29T07:24:43Z</time>
      </trkpt>
      <trkpt lat="48.68574" lon="6.94957">
        <ele>262.6</ele>
        <time>2020-06-29T07:24:44Z</time>
      </trkpt>
      <trkpt lat="48.68572" lon="6.94949">
        <ele>262.7</ele>
        <time>2020-06-29T07:24:45Z</time>
      </trkpt>
      <trkpt lat="48.68571" lon="6.9494">
        <ele>262.8</ele>
        <time>2020-06-29T07:24:46Z</time>
      </trkpt>
      <trkpt lat="48.68568" lon="6.94933">
        <ele>262.8</ele>
        <time>2020-06-29T07:24:47Z</time>
      </trkpt>
      <trkpt lat="48.68567" lon="6.94925">
        <ele>262.8</ele>
        <time>2020-06-29T07:24:48Z</time>
      </trkpt>
      <trkpt lat="48.68565" lon="6.94918">
        <ele>262.7</ele>
        <time>2020-06-29T07:24:49Z</time>
      </trkpt>
      <trkpt lat="48.68563" lon="6.9491">
        <ele>262.7</ele>
        <time>2020-06-29T07:24:50Z</time>
      </trkpt>
      <trkpt lat="48.68561" lon="6.94902">
        <ele>262.7</ele>
        <time>2020-06-29T07:24:51Z</time>
      </trkpt>
      <trkpt lat="48.68559" lon="6.94893">
        <ele>262.7</ele>
        <time>2020-06-29T07:24:52Z</time>
      </trkpt>
      <trkpt lat="48.68558" lon="6.94885">
        <ele>262.8</ele>
        <time>2020-06-29T07:24:53Z</time>
      </trkpt>
      <trkpt lat="48.68555" lon="6.94877">
        <ele>262.9</ele>
        <time>2020-06-29T07:24:54Z</time>
      </trkpt>
      <trkpt lat="48.68552" lon="6.9487">
        <ele>263</ele>
        <time>2020-06-29T07:24:55Z</time>
      </trkpt>
      <trkpt lat="48.6855" lon="6.94862">
        <ele>263.2</ele>
        <time>2020-06-29T07:24:56Z</time>
      </trkpt>
      <trkpt lat="48.68548" lon="6.94855">
        <ele>263.3</ele>
        <time>2020-06-29T07:24:57Z</time>
      </trkpt>
      <trkpt lat="48.68547" lon="6.94848">
        <ele>263.5</ele>
        <time>2020-06-29T07:24:58Z</time>
      </trkpt>
      <trkpt lat="48.68545" lon="6.9484">
        <ele>263.7</ele>
        <time>2020-06-29T07:24:59Z</time>
      </trkpt>
      <trkpt lat="48.68544" lon="6.94833">
        <ele>263.9</ele>
        <time>2020-06-29T07:25:00Z</time>
      </trkpt>
      <trkpt lat="48.68543" lon="6.94825">
        <ele>264.1</ele>
        <time>2020-06-29T07:25:01Z</time>
      </trkpt>
      <trkpt lat="48.68542" lon="6.94817">
        <ele>264.3</ele>
        <time>2020-06-29T07:25:02Z</time>
      </trkpt>
      <trkpt lat="48.68541" lon="6.9481">
        <ele>264.5</ele>
        <time>2020-06-29T07:25:03Z</time>
      </trkpt>
      <trkpt lat="48.68541" lon="6.94802">
        <ele>264.7</ele>
        <time>2020-06-29T07:25:04Z</time>
      </trkpt>
      <trkpt lat="48.6854" lon="6.94795">
        <ele>265</ele>
        <time>2020-06-29T07:25:05Z</time>
      </trkpt>
      <trkpt lat="48.68537" lon="6.94789">
        <ele>265.2</ele>
        <time>2020-06-29T07:25:06Z</time>
      </trkpt>
      <trkpt lat="48.68536" lon="6.94782">
        <ele>265.5</ele>
        <time>2020-06-29T07:25:07Z</time>
      </trkpt>
      <trkpt lat="48.68535" lon="6.94774">
        <ele>265.8</ele>
        <time>2020-06-29T07:25:08Z</time>
      </trkpt>
      <trkpt lat="48.68534" lon="6.94767">
        <ele>266.1</ele>
        <time>2020-06-29T07:25:09Z</time>
      </trkpt>
      <trkpt lat="48.68532" lon="6.9476">
        <ele>266.4</ele>
        <time>2020-06-29T07:25:10Z</time>
      </trkpt>
      <trkpt lat="48.68531" lon="6.94753">
        <ele>266.7</ele>
        <time>2020-06-29T07:25:11Z</time>
      </trkpt>
      <trkpt lat="48.68529" lon="6.94747">
        <ele>266.9</ele>
        <time>2020-06-29T07:25:12Z</time>
      </trkpt>
      <trkpt lat="48.68527" lon="6.94741">
        <ele>267.2</ele>
        <time>2020-06-29T07:25:13Z</time>
      </trkpt>
      <trkpt lat="48.68525" lon="6.94734">
        <ele>267.5</ele>
        <time>2020-06-29T07:25:14Z</time>
      </trkpt>
      <trkpt lat="48.68524" lon="6.94727">
        <ele>267.8</ele>
        <time>2020-06-29T07:25:15Z</time>
      </trkpt>
      <trkpt lat="48.68523" lon="6.9472">
        <ele>268.1</ele>
        <time>2020-06-29T07:25:16Z</time>
      </trkpt>
      <trkpt lat="48.68521" lon="6.94714">
        <ele>268.3</ele>
        <time>2020-06-29T07:25:17Z</time>
      </trkpt>
      <trkpt lat="48.6852" lon="6.94708">
        <ele>268.6</ele>
        <time>2020-06-29T07:25:18Z</time>
      </trkpt>
      <trkpt lat="48.68518" lon="6.94702">
        <ele>268.9</ele>
        <time>2020-06-29T07:25:19Z</time>
      </trkpt>
      <trkpt lat="48.68515" lon="6.94696">
        <ele>269.1</ele>
        <time>2020-06-29T07:25:20Z</time>
      </trkpt>
      <trkpt lat="48.68515" lon="6.9469">
        <ele>269.4</ele>
        <time>2020-06-29T07:25:21Z</time>
      </trkpt>
      <trkpt lat="48.68513" lon="6.94684">
        <ele>269.6</ele>
        <time>2020-06-29T07:25:22Z</time>
      </trkpt>
      <trkpt lat="48.68513" lon="6.94679">
        <ele>269.7</ele>
        <time>2020-06-29T07:25:23Z</time>
      </trkpt>
      <trkpt lat="48.68512" lon="6.94674">
        <ele>269.9</ele>
        <time>2020-06-29T07:25:24Z</time>
      </trkpt>
      <trkpt lat="48.68511" lon="6.94668">
        <ele>270.1</ele>
        <time>2020-06-29T07:25:25Z</time>
      </trkpt>
      <trkpt lat="48.6851" lon="6.94662">
        <ele>270.2</ele>
        <time>2020-06-29T07:25:26Z</time>
      </trkpt>
      <trkpt lat="48.6851" lon="6.94656">
        <ele>270.4</ele>
        <time>2020-06-29T07:25:27Z</time>
      </trkpt>
      <trkpt lat="48.68509" lon="6.94651">
        <ele>270.6</ele>
        <time>2020-06-29T07:25:28Z</time>
      </trkpt>
      <trkpt lat="48.68508" lon="6.94645">
        <ele>270.7</ele>
        <time>2020-06-29T07:25:29Z</time>
      </trkpt>
      <trkpt lat="48.68507" lon="6.94639">
        <ele>270.9</ele>
        <time>2020-06-29T07:25:30Z</time>
      </trkpt>
      <trkpt lat="48.68507" lon="6.94634">
        <ele>271</ele>
        <time>2020-06-29T07:25:31Z</time>
      </trkpt>
      <trkpt lat="48.68506" lon="6.94628">
        <ele>271.1</ele>
        <time>2020-06-29T07:25:32Z</time>
      </trkpt>
      <trkpt lat="48.68505" lon="6.94622">
        <ele>271.3</ele>
        <time>2020-06-29T07:25:33Z</time>
      </trkpt>
      <trkpt lat="48.68504" lon="6.94617">
        <ele>271.6</ele>
        <time>2020-06-29T07:25:34Z</time>
      </trkpt>
      <trkpt lat="48.68503" lon="6.94613">
        <ele>271.7</ele>
        <time>2020-06-29T07:25:35Z</time>
      </trkpt>
      <trkpt lat="48.68502" lon="6.94607">
        <ele>271.8</ele>
        <time>2020-06-29T07:25:36Z</time>
      </trkpt>
      <trkpt lat="48.68501" lon="6.94601">
        <ele>271.9</ele>
        <time>2020-06-29T07:25:37Z</time>
      </trkpt>
      <trkpt lat="48.68501" lon="6.94596">
        <ele>272</ele>
        <time>2020-06-29T07:25:38Z</time>
      </trkpt>
      <trkpt lat="48.685" lon="6.94592">
        <ele>272.1</ele>
        <time>2020-06-29T07:25:39Z</time>
      </trkpt>
      <trkpt lat="48.68499" lon="6.94588">
        <ele>272.2</ele>
        <time>2020-06-29T07:25:40Z</time>
      </trkpt>
      <trkpt lat="48.68498" lon="6.94581">
        <ele>272.4</ele>
        <time>2020-06-29T07:25:41Z</time>
      </trkpt>
      <trkpt lat="48.68497" lon="6.94575">
        <ele>272.6</ele>
        <time>2020-06-29T07:25:42Z</time>
      </trkpt>
      <trkpt lat="48.68495" lon="6.94569">
        <ele>272.7</ele>
        <time>2020-06-29T07:25:43Z</time>
      </trkpt>
      <trkpt lat="48.68495" lon="6.94564">
        <ele>272.9</ele>
        <time>2020-06-29T07:25:44Z</time>
      </trkpt>
      <trkpt lat="48.68494" lon="6.94559">
        <ele>273</ele>
        <time>2020-06-29T07:25:45Z</time>
      </trkpt>
      <trkpt lat="48.68493" lon="6.94553">
        <ele>273.1</ele>
        <time>2020-06-29T07:25:46Z</time>
      </trkpt>
      <trkpt lat="48.68492" lon="6.94546">
        <ele>273.2</ele>
        <time>2020-06-29T07:25:47Z</time>
      </trkpt>
      <trkpt lat="48.68491" lon="6.9454">
        <ele>273.2</ele>
        <time>2020-06-29T07:25:48Z</time>
      </trkpt>
      <trkpt lat="48.68491" lon="6.94537">
        <ele>273.3</ele>
        <time>2020-06-29T07:25:49Z</time>
      </trkpt>
      <trkpt lat="48.6849" lon="6.9453">
        <ele>273.3</ele>
        <time>2020-06-29T07:25:50Z</time>
      </trkpt>
      <trkpt lat="48.68489" lon="6.94523">
        <ele>273.4</ele>
        <time>2020-06-29T07:25:51Z</time>
      </trkpt>
      <trkpt lat="48.68488" lon="6.94517">
        <ele>273.5</ele>
        <time>2020-06-29T07:25:52Z</time>
      </trkpt>
      <trkpt lat="48.68487" lon="6.94511">
        <ele>273.6</ele>
        <time>2020-06-29T07:25:53Z</time>
      </trkpt>
      <trkpt lat="48.68486" lon="6.94503">
        <ele>273.7</ele>
        <time>2020-06-29T07:25:54Z</time>
      </trkpt>
      <trkpt lat="48.68486" lon="6.94498">
        <ele>273.8</ele>
        <time>2020-06-29T07:25:55Z</time>
      </trkpt>
      <trkpt lat="48.68485" lon="6.9449">
        <ele>273.8</ele>
        <time>2020-06-29T07:25:56Z</time>
      </trkpt>
      <trkpt lat="48.68484" lon="6.94484">
        <ele>273.8</ele>
        <time>2020-06-29T07:25:57Z</time>
      </trkpt>
      <trkpt lat="48.68483" lon="6.94478">
        <ele>273.9</ele>
        <time>2020-06-29T07:25:58Z</time>
      </trkpt>
      <trkpt lat="48.68482" lon="6.94474">
        <ele>273.9</ele>
        <time>2020-06-29T07:25:59Z</time>
      </trkpt>
      <trkpt lat="48.6848" lon="6.94467">
        <ele>273.9</ele>
        <time>2020-06-29T07:26:00Z</time>
      </trkpt>
      <trkpt lat="48.68479" lon="6.94461">
        <ele>273.9</ele>
        <time>2020-06-29T07:26:01Z</time>
      </trkpt>
      <trkpt lat="48.68477" lon="6.94454">
        <ele>274</ele>
        <time>2020-06-29T07:26:02Z</time>
      </trkpt>
      <trkpt lat="48.68475" lon="6.94447">
        <ele>274</ele>
        <time>2020-06-29T07:26:03Z</time>
      </trkpt>
      <trkpt lat="48.68474" lon="6.9444">
        <ele>274</ele>
        <time>2020-06-29T07:26:04Z</time>
      </trkpt>
      <trkpt lat="48.68472" lon="6.94432">
        <ele>274.1</ele>
        <time>2020-06-29T07:26:05Z</time>
      </trkpt>
      <trkpt lat="48.6847" lon="6.94424">
        <ele>274</ele>
        <time>2020-06-29T07:26:06Z</time>
      </trkpt>
      <trkpt lat="48.68469" lon="6.94417">
        <ele>274</ele>
        <time>2020-06-29T07:26:07Z</time>
      </trkpt>
      <trkpt lat="48.68468" lon="6.94414">
        <ele>274</ele>
        <time>2020-06-29T07:26:08Z</time>
      </trkpt>
      <trkpt lat="48.68466" lon="6.94406">
        <ele>273.9</ele>
        <time>2020-06-29T07:26:09Z</time>
      </trkpt>
      <trkpt lat="48.68465" lon="6.94399">
        <ele>273.9</ele>
        <time>2020-06-29T07:26:10Z</time>
      </trkpt>
      <trkpt lat="48.68461" lon="6.9439">
        <ele>273.8</ele>
        <time>2020-06-29T07:26:11Z</time>
      </trkpt>
      <trkpt lat="48.6846" lon="6.94383">
        <ele>273.7</ele>
        <time>2020-06-29T07:26:12Z</time>
      </trkpt>
      <trkpt lat="48.68461" lon="6.94377">
        <ele>273.6</ele>
        <time>2020-06-29T07:26:13Z</time>
      </trkpt>
      <trkpt lat="48.68461" lon="6.94369">
        <ele>273.5</ele>
        <time>2020-06-29T07:26:14Z</time>
      </trkpt>
      <trkpt lat="48.68459" lon="6.94362">
        <ele>273.4</ele>
        <time>2020-06-29T07:26:15Z</time>
      </trkpt>
      <trkpt lat="48.68459" lon="6.94355">
        <ele>273.3</ele>
        <time>2020-06-29T07:26:16Z</time>
      </trkpt>
      <trkpt lat="48.68456" lon="6.94347">
        <ele>273.2</ele>
        <time>2020-06-29T07:26:17Z</time>
      </trkpt>
      <trkpt lat="48.68455" lon="6.94339">
        <ele>273</ele>
        <time>2020-06-29T07:26:18Z</time>
      </trkpt>
      <trkpt lat="48.68454" lon="6.94333">
        <ele>272.9</ele>
        <time>2020-06-29T07:26:19Z</time>
      </trkpt>
      <trkpt lat="48.68453" lon="6.94325">
        <ele>272.7</ele>
        <time>2020-06-29T07:26:20Z</time>
      </trkpt>
      <trkpt lat="48.68452" lon="6.94317">
        <ele>272.5</ele>
        <time>2020-06-29T07:26:21Z</time>
      </trkpt>
      <trkpt lat="48.68454" lon="6.94306">
        <ele>272.3</ele>
        <time>2020-06-29T07:26:22Z</time>
      </trkpt>
      <trkpt lat="48.68453" lon="6.94297">
        <ele>272.2</ele>
        <time>2020-06-29T07:26:23Z</time>
      </trkpt>
      <trkpt lat="48.68452" lon="6.94289">
        <ele>272.1</ele>
        <time>2020-06-29T07:26:24Z</time>
      </trkpt>
      <trkpt lat="48.68451" lon="6.94281">
        <ele>272</ele>
        <time>2020-06-29T07:26:25Z</time>
      </trkpt>
      <trkpt lat="48.6845" lon="6.94272">
        <ele>271.9</ele>
        <time>2020-06-29T07:26:26Z</time>
      </trkpt>
      <trkpt lat="48.68449" lon="6.94264">
        <ele>271.5</ele>
        <time>2020-06-29T07:26:27Z</time>
      </trkpt>
      <trkpt lat="48.68448" lon="6.94254">
        <ele>271.2</ele>
        <time>2020-06-29T07:26:28Z</time>
      </trkpt>
      <trkpt lat="48.68447" lon="6.94245">
        <ele>270.9</ele>
        <time>2020-06-29T07:26:29Z</time>
      </trkpt>
      <trkpt lat="48.68446" lon="6.94235">
        <ele>270.5</ele>
        <time>2020-06-29T07:26:30Z</time>
      </trkpt>
      <trkpt lat="48.68446" lon="6.94223">
        <ele>270.1</ele>
        <time>2020-06-29T07:26:31Z</time>
      </trkpt>
      <trkpt lat="48.68447" lon="6.94212">
        <ele>269.7</ele>
        <time>2020-06-29T07:26:32Z</time>
      </trkpt>
      <trkpt lat="48.68448" lon="6.94199">
        <ele>269.3</ele>
        <time>2020-06-29T07:26:33Z</time>
      </trkpt>
      <trkpt lat="48.6845" lon="6.94186">
        <ele>268.8</ele>
        <time>2020-06-29T07:26:34Z</time>
      </trkpt>
      <trkpt lat="48.68452" lon="6.94174">
        <ele>268.4</ele>
        <time>2020-06-29T07:26:35Z</time>
      </trkpt>
      <trkpt lat="48.68455" lon="6.94162">
        <ele>268</ele>
        <time>2020-06-29T07:26:36Z</time>
      </trkpt>
      <trkpt lat="48.68458" lon="6.9415">
        <ele>267.7</ele>
        <time>2020-06-29T07:26:37Z</time>
      </trkpt>
      <trkpt lat="48.68461" lon="6.94139">
        <ele>267.3</ele>
        <time>2020-06-29T07:26:38Z</time>
      </trkpt>
      <trkpt lat="48.68464" lon="6.94127">
        <ele>267</ele>
        <time>2020-06-29T07:26:39Z</time>
      </trkpt>
      <trkpt lat="48.68468" lon="6.94116">
        <ele>266.6</ele>
        <time>2020-06-29T07:26:40Z</time>
      </trkpt>
      <trkpt lat="48.68471" lon="6.94104">
        <ele>269.9</ele>
        <time>2020-06-29T07:26:41Z</time>
      </trkpt>
      <trkpt lat="48.68476" lon="6.94094">
        <ele>270.7</ele>
        <time>2020-06-29T07:26:42Z</time>
      </trkpt>
      <trkpt lat="48.68479" lon="6.94083">
        <ele>270.9</ele>
        <time>2020-06-29T07:26:43Z</time>
      </trkpt>
      <trkpt lat="48.68483" lon="6.94072">
        <ele>270.8</ele>
        <time>2020-06-29T07:26:44Z</time>
      </trkpt>
      <trkpt lat="48.68487" lon="6.94062">
        <ele>270.5</ele>
        <time>2020-06-29T07:26:45Z</time>
      </trkpt>
      <trkpt lat="48.68491" lon="6.94053">
        <ele>270.3</ele>
        <time>2020-06-29T07:26:46Z</time>
      </trkpt>
      <trkpt lat="48.68494" lon="6.94043">
        <ele>270.1</ele>
        <time>2020-06-29T07:26:47Z</time>
      </trkpt>
      <trkpt lat="48.68498" lon="6.94033">
        <ele>270</ele>
        <time>2020-06-29T07:26:48Z</time>
      </trkpt>
      <trkpt lat="48.68502" lon="6.94023">
        <ele>269.8</ele>
        <time>2020-06-29T07:26:49Z</time>
      </trkpt>
      <trkpt lat="48.68505" lon="6.94014">
        <ele>269.7</ele>
        <time>2020-06-29T07:26:50Z</time>
      </trkpt>
      <trkpt lat="48.68509" lon="6.94005">
        <ele>269.5</ele>
        <time>2020-06-29T07:26:51Z</time>
      </trkpt>
      <trkpt lat="48.68513" lon="6.93996">
        <ele>269.3</ele>
        <time>2020-06-29T07:26:52Z</time>
      </trkpt>
      <trkpt lat="48.68517" lon="6.93987">
        <ele>269.1</ele>
        <time>2020-06-29T07:26:53Z</time>
      </trkpt>
      <trkpt lat="48.6852" lon="6.93978">
        <ele>269</ele>
        <time>2020-06-29T07:26:54Z</time>
      </trkpt>
      <trkpt lat="48.68523" lon="6.93968">
        <ele>268.8</ele>
        <time>2020-06-29T07:26:55Z</time>
      </trkpt>
      <trkpt lat="48.68527" lon="6.93959">
        <ele>268.7</ele>
        <time>2020-06-29T07:26:56Z</time>
      </trkpt>
      <trkpt lat="48.6853" lon="6.93951">
        <ele>268.6</ele>
        <time>2020-06-29T07:26:57Z</time>
      </trkpt>
      <trkpt lat="48.68533" lon="6.93942">
        <ele>268.5</ele>
        <time>2020-06-29T07:26:58Z</time>
      </trkpt>
      <trkpt lat="48.68537" lon="6.93933">
        <ele>268.4</ele>
        <time>2020-06-29T07:26:59Z</time>
      </trkpt>
      <trkpt lat="48.68541" lon="6.93925">
        <ele>268.3</ele>
        <time>2020-06-29T07:27:00Z</time>
      </trkpt>
      <trkpt lat="48.68544" lon="6.93917">
        <ele>268.3</ele>
        <time>2020-06-29T07:27:01Z</time>
      </trkpt>
      <trkpt lat="48.68547" lon="6.93908">
        <ele>268.2</ele>
        <time>2020-06-29T07:27:02Z</time>
      </trkpt>
      <trkpt lat="48.68551" lon="6.939">
        <ele>268.2</ele>
        <time>2020-06-29T07:27:03Z</time>
      </trkpt>
      <trkpt lat="48.68554" lon="6.93892">
        <ele>268.1</ele>
        <time>2020-06-29T07:27:04Z</time>
      </trkpt>
      <trkpt lat="48.68557" lon="6.93884">
        <ele>268.1</ele>
        <time>2020-06-29T07:27:05Z</time>
      </trkpt>
      <trkpt lat="48.6856" lon="6.93876">
        <ele>268.1</ele>
        <time>2020-06-29T07:27:06Z</time>
      </trkpt>
      <trkpt lat="48.68563" lon="6.93868">
        <ele>268</ele>
        <time>2020-06-29T07:27:07Z</time>
      </trkpt>
      <trkpt lat="48.68567" lon="6.93861">
        <ele>268</ele>
        <time>2020-06-29T07:27:08Z</time>
      </trkpt>
      <trkpt lat="48.6857" lon="6.93853">
        <ele>267.9</ele>
        <time>2020-06-29T07:27:09Z</time>
      </trkpt>
      <trkpt lat="48.68573" lon="6.93845">
        <ele>267.8</ele>
        <time>2020-06-29T07:27:10Z</time>
      </trkpt>
      <trkpt lat="48.68575" lon="6.93837">
        <ele>267.8</ele>
        <time>2020-06-29T07:27:11Z</time>
      </trkpt>
      <trkpt lat="48.68578" lon="6.93828">
        <ele>267.8</ele>
        <time>2020-06-29T07:27:12Z</time>
      </trkpt>
      <trkpt lat="48.68581" lon="6.9382">
        <ele>267.8</ele>
        <time>2020-06-29T07:27:13Z</time>
      </trkpt>
      <trkpt lat="48.68584" lon="6.93812">
        <ele>267.8</ele>
        <time>2020-06-29T07:27:14Z</time>
      </trkpt>
      <trkpt lat="48.68586" lon="6.93803">
        <ele>267.8</ele>
        <time>2020-06-29T07:27:15Z</time>
      </trkpt>
      <trkpt lat="48.68588" lon="6.93793">
        <ele>267.7</ele>
        <time>2020-06-29T07:27:16Z</time>
      </trkpt>
      <trkpt lat="48.68591" lon="6.93784">
        <ele>267.7</ele>
        <time>2020-06-29T07:27:17Z</time>
      </trkpt>
      <trkpt lat="48.68594" lon="6.93775">
        <ele>267.7</ele>
        <time>2020-06-29T07:27:18Z</time>
      </trkpt>
      <trkpt lat="48.68596" lon="6.93766">
        <ele>267.7</ele>
        <time>2020-06-29T07:27:19Z</time>
      </trkpt>
      <trkpt lat="48.68599" lon="6.93757">
        <ele>267.6</ele>
        <time>2020-06-29T07:27:20Z</time>
      </trkpt>
      <trkpt lat="48.68602" lon="6.93749">
        <ele>267.6</ele>
        <time>2020-06-29T07:27:21Z</time>
      </trkpt>
      <trkpt lat="48.68605" lon="6.93741">
        <ele>267.6</ele>
        <time>2020-06-29T07:27:22Z</time>
      </trkpt>
      <trkpt lat="48.68608" lon="6.93733">
        <ele>267.6</ele>
        <time>2020-06-29T07:27:23Z</time>
      </trkpt>
      <trkpt lat="48.68611" lon="6.93725">
        <ele>267.7</ele>
        <time>2020-06-29T07:27:24Z</time>
      </trkpt>
      <trkpt lat="48.68614" lon="6.93717">
        <ele>267.7</ele>
        <time>2020-06-29T07:27:25Z</time>
      </trkpt>
      <trkpt lat="48.68618" lon="6.93709">
        <ele>267.8</ele>
        <time>2020-06-29T07:27:26Z</time>
      </trkpt>
      <trkpt lat="48.68621" lon="6.93702">
        <ele>267.8</ele>
        <time>2020-06-29T07:27:27Z</time>
      </trkpt>
      <trkpt lat="48.68624" lon="6.93695">
        <ele>267.7</ele>
        <time>2020-06-29T07:27:28Z</time>
      </trkpt>
      <trkpt lat="48.68628" lon="6.93687">
        <ele>267.7</ele>
        <time>2020-06-29T07:27:29Z</time>
      </trkpt>
      <trkpt lat="48.68631" lon="6.9368">
        <ele>267.6</ele>
        <time>2020-06-29T07:27:30Z</time>
      </trkpt>
      <trkpt lat="48.68635" lon="6.93674">
        <ele>267.6</ele>
        <time>2020-06-29T07:27:31Z</time>
      </trkpt>
      <trkpt lat="48.68639" lon="6.93668">
        <ele>267.6</ele>
        <time>2020-06-29T07:27:32Z</time>
      </trkpt>
      <trkpt lat="48.68642" lon="6.93661">
        <ele>267.6</ele>
        <time>2020-06-29T07:27:33Z</time>
      </trkpt>
      <trkpt lat="48.68646" lon="6.93654">
        <ele>267.6</ele>
        <time>2020-06-29T07:27:34Z</time>
      </trkpt>
      <trkpt lat="48.68649" lon="6.93647">
        <ele>267.6</ele>
        <time>2020-06-29T07:27:35Z</time>
      </trkpt>
      <trkpt lat="48.68652" lon="6.9364">
        <ele>267.6</ele>
        <time>2020-06-29T07:27:36Z</time>
      </trkpt>
      <trkpt lat="48.68654" lon="6.93632">
        <ele>267.5</ele>
        <time>2020-06-29T07:27:37Z</time>
      </trkpt>
      <trkpt lat="48.68657" lon="6.93624">
        <ele>267.4</ele>
        <time>2020-06-29T07:27:38Z</time>
      </trkpt>
      <trkpt lat="48.6866" lon="6.93616">
        <ele>267.2</ele>
        <time>2020-06-29T07:27:39Z</time>
      </trkpt>
      <trkpt lat="48.68662" lon="6.93609">
        <ele>266.9</ele>
        <time>2020-06-29T07:27:40Z</time>
      </trkpt>
      <trkpt lat="48.68665" lon="6.93601">
        <ele>267.2</ele>
        <time>2020-06-29T07:27:41Z</time>
      </trkpt>
      <trkpt lat="48.68666" lon="6.93592">
        <ele>267.4</ele>
        <time>2020-06-29T07:27:42Z</time>
      </trkpt>
      <trkpt lat="48.68667" lon="6.93584">
        <ele>267.5</ele>
        <time>2020-06-29T07:27:43Z</time>
      </trkpt>
      <trkpt lat="48.68668" lon="6.93576">
        <ele>267.6</ele>
        <time>2020-06-29T07:27:44Z</time>
      </trkpt>
      <trkpt lat="48.68669" lon="6.93568">
        <ele>267.7</ele>
        <time>2020-06-29T07:27:45Z</time>
      </trkpt>
      <trkpt lat="48.68671" lon="6.9356">
        <ele>267.7</ele>
        <time>2020-06-29T07:27:46Z</time>
      </trkpt>
      <trkpt lat="48.68673" lon="6.93552">
        <ele>267.8</ele>
        <time>2020-06-29T07:27:47Z</time>
      </trkpt>
      <trkpt lat="48.68673" lon="6.93543">
        <ele>267.9</ele>
        <time>2020-06-29T07:27:48Z</time>
      </trkpt>
      <trkpt lat="48.68674" lon="6.93535">
        <ele>267.9</ele>
        <time>2020-06-29T07:27:49Z</time>
      </trkpt>
      <trkpt lat="48.68675" lon="6.93527">
        <ele>268</ele>
        <time>2020-06-29T07:27:50Z</time>
      </trkpt>
      <trkpt lat="48.68676" lon="6.93519">
        <ele>268.1</ele>
        <time>2020-06-29T07:27:51Z</time>
      </trkpt>
      <trkpt lat="48.68675" lon="6.9351">
        <ele>268.2</ele>
        <time>2020-06-29T07:27:52Z</time>
      </trkpt>
      <trkpt lat="48.68676" lon="6.93502">
        <ele>268.2</ele>
        <time>2020-06-29T07:27:53Z</time>
      </trkpt>
      <trkpt lat="48.68677" lon="6.93494">
        <ele>268.3</ele>
        <time>2020-06-29T07:27:54Z</time>
      </trkpt>
      <trkpt lat="48.68677" lon="6.93486">
        <ele>268.3</ele>
        <time>2020-06-29T07:27:55Z</time>
      </trkpt>
      <trkpt lat="48.68678" lon="6.93477">
        <ele>268.3</ele>
        <time>2020-06-29T07:27:56Z</time>
      </trkpt>
      <trkpt lat="48.68679" lon="6.93469">
        <ele>268.4</ele>
        <time>2020-06-29T07:27:57Z</time>
      </trkpt>
      <trkpt lat="48.6868" lon="6.93461">
        <ele>268.4</ele>
        <time>2020-06-29T07:27:58Z</time>
      </trkpt>
      <trkpt lat="48.68681" lon="6.93453">
        <ele>268.4</ele>
        <time>2020-06-29T07:27:59Z</time>
      </trkpt>
      <trkpt lat="48.68681" lon="6.93445">
        <ele>268.4</ele>
        <time>2020-06-29T07:28:00Z</time>
      </trkpt>
      <trkpt lat="48.68683" lon="6.93436">
        <ele>268.4</ele>
        <time>2020-06-29T07:28:01Z</time>
      </trkpt>
      <trkpt lat="48.68684" lon="6.93428">
        <ele>268.4</ele>
        <time>2020-06-29T07:28:02Z</time>
      </trkpt>
      <trkpt lat="48.68685" lon="6.93419">
        <ele>268.4</ele>
        <time>2020-06-29T07:28:03Z</time>
      </trkpt>
      <trkpt lat="48.68686" lon="6.93411">
        <ele>268.4</ele>
        <time>2020-06-29T07:28:04Z</time>
      </trkpt>
      <trkpt lat="48.68687" lon="6.93402">
        <ele>268.4</ele>
        <time>2020-06-29T07:28:05Z</time>
      </trkpt>
      <trkpt lat="48.68688" lon="6.93393">
        <ele>268.5</ele>
        <time>2020-06-29T07:28:06Z</time>
      </trkpt>
      <trkpt lat="48.68689" lon="6.93385">
        <ele>268.4</ele>
        <time>2020-06-29T07:28:07Z</time>
      </trkpt>
      <trkpt lat="48.6869" lon="6.93376">
        <ele>268.4</ele>
        <time>2020-06-29T07:28:08Z</time>
      </trkpt>
      <trkpt lat="48.68691" lon="6.93368">
        <ele>268.3</ele>
        <time>2020-06-29T07:28:09Z</time>
      </trkpt>
      <trkpt lat="48.68692" lon="6.93359">
        <ele>268.2</ele>
        <time>2020-06-29T07:28:10Z</time>
      </trkpt>
      <trkpt lat="48.68694" lon="6.93351">
        <ele>268.2</ele>
        <time>2020-06-29T07:28:11Z</time>
      </trkpt>
      <trkpt lat="48.68695" lon="6.93342">
        <ele>268.2</ele>
        <time>2020-06-29T07:28:12Z</time>
      </trkpt>
      <trkpt lat="48.68697" lon="6.93333">
        <ele>268.1</ele>
        <time>2020-06-29T07:28:13Z</time>
      </trkpt>
      <trkpt lat="48.687" lon="6.93325">
        <ele>268.1</ele>
        <time>2020-06-29T07:28:14Z</time>
      </trkpt>
      <trkpt lat="48.68703" lon="6.93317">
        <ele>268</ele>
        <time>2020-06-29T07:28:15Z</time>
      </trkpt>
      <trkpt lat="48.68707" lon="6.93309">
        <ele>267.9</ele>
        <time>2020-06-29T07:28:16Z</time>
      </trkpt>
      <trkpt lat="48.68712" lon="6.93301">
        <ele>267.8</ele>
        <time>2020-06-29T07:28:17Z</time>
      </trkpt>
      <trkpt lat="48.68717" lon="6.93295">
        <ele>267.8</ele>
        <time>2020-06-29T07:28:18Z</time>
      </trkpt>
      <trkpt lat="48.68722" lon="6.93288">
        <ele>267.7</ele>
        <time>2020-06-29T07:28:19Z</time>
      </trkpt>
      <trkpt lat="48.68727" lon="6.93282">
        <ele>267.7</ele>
        <time>2020-06-29T07:28:20Z</time>
      </trkpt>
      <trkpt lat="48.68732" lon="6.93275">
        <ele>267.6</ele>
        <time>2020-06-29T07:28:21Z</time>
      </trkpt>
      <trkpt lat="48.68737" lon="6.93268">
        <ele>267.5</ele>
        <time>2020-06-29T07:28:22Z</time>
      </trkpt>
      <trkpt lat="48.68742" lon="6.93261">
        <ele>267.4</ele>
        <time>2020-06-29T07:28:23Z</time>
      </trkpt>
      <trkpt lat="48.68747" lon="6.93254">
        <ele>267.3</ele>
        <time>2020-06-29T07:28:24Z</time>
      </trkpt>
      <trkpt lat="48.68752" lon="6.93247">
        <ele>267.2</ele>
        <time>2020-06-29T07:28:25Z</time>
      </trkpt>
      <trkpt lat="48.68757" lon="6.93241">
        <ele>267.1</ele>
        <time>2020-06-29T07:28:26Z</time>
      </trkpt>
      <trkpt lat="48.68762" lon="6.93233">
        <ele>267.1</ele>
        <time>2020-06-29T07:28:27Z</time>
      </trkpt>
      <trkpt lat="48.68766" lon="6.93225">
        <ele>266.9</ele>
        <time>2020-06-29T07:28:28Z</time>
      </trkpt>
      <trkpt lat="48.68771" lon="6.93217">
        <ele>266.7</ele>
        <time>2020-06-29T07:28:29Z</time>
      </trkpt>
      <trkpt lat="48.68776" lon="6.93209">
        <ele>266.5</ele>
        <time>2020-06-29T07:28:30Z</time>
      </trkpt>
      <trkpt lat="48.68781" lon="6.93201">
        <ele>266.3</ele>
        <time>2020-06-29T07:28:31Z</time>
      </trkpt>
      <trkpt lat="48.68785" lon="6.93193">
        <ele>266.1</ele>
        <time>2020-06-29T07:28:32Z</time>
      </trkpt>
      <trkpt lat="48.6879" lon="6.93186">
        <ele>266</ele>
        <time>2020-06-29T07:28:33Z</time>
      </trkpt>
      <trkpt lat="48.68795" lon="6.93178">
        <ele>265.9</ele>
        <time>2020-06-29T07:28:34Z</time>
      </trkpt>
      <trkpt lat="48.688" lon="6.9317">
        <ele>265.8</ele>
        <time>2020-06-29T07:28:35Z</time>
      </trkpt>
      <trkpt lat="48.68805" lon="6.93163">
        <ele>265.7</ele>
        <time>2020-06-29T07:28:36Z</time>
      </trkpt>
      <trkpt lat="48.68809" lon="6.93155">
        <ele>265.6</ele>
        <time>2020-06-29T07:28:37Z</time>
      </trkpt>
      <trkpt lat="48.68814" lon="6.93147">
        <ele>265.6</ele>
        <time>2020-06-29T07:28:38Z</time>
      </trkpt>
      <trkpt lat="48.68819" lon="6.93139">
        <ele>265.6</ele>
        <time>2020-06-29T07:28:39Z</time>
      </trkpt>
      <trkpt lat="48.68823" lon="6.93131">
        <ele>265.5</ele>
        <time>2020-06-29T07:28:40Z</time>
      </trkpt>
      <trkpt lat="48.68827" lon="6.93124">
        <ele>265.5</ele>
        <time>2020-06-29T07:28:41Z</time>
      </trkpt>
      <trkpt lat="48.68832" lon="6.93116">
        <ele>265.4</ele>
        <time>2020-06-29T07:28:42Z</time>
      </trkpt>
      <trkpt lat="48.68837" lon="6.93108">
        <ele>265.4</ele>
        <time>2020-06-29T07:28:43Z</time>
      </trkpt>
      <trkpt lat="48.68841" lon="6.931">
        <ele>265.3</ele>
        <time>2020-06-29T07:28:44Z</time>
      </trkpt>
      <trkpt lat="48.68844" lon="6.93091">
        <ele>265.3</ele>
        <time>2020-06-29T07:28:45Z</time>
      </trkpt>
      <trkpt lat="48.68847" lon="6.93082">
        <ele>265.2</ele>
        <time>2020-06-29T07:28:46Z</time>
      </trkpt>
      <trkpt lat="48.68851" lon="6.93073">
        <ele>265.2</ele>
        <time>2020-06-29T07:28:47Z</time>
      </trkpt>
      <trkpt lat="48.68854" lon="6.93064">
        <ele>265.3</ele>
        <time>2020-06-29T07:28:48Z</time>
      </trkpt>
      <trkpt lat="48.68857" lon="6.93055">
        <ele>265.2</ele>
        <time>2020-06-29T07:28:49Z</time>
      </trkpt>
      <trkpt lat="48.68861" lon="6.93046">
        <ele>265.2</ele>
        <time>2020-06-29T07:28:50Z</time>
      </trkpt>
      <trkpt lat="48.68864" lon="6.93037">
        <ele>265.2</ele>
        <time>2020-06-29T07:28:51Z</time>
      </trkpt>
      <trkpt lat="48.68867" lon="6.93027">
        <ele>265.3</ele>
        <time>2020-06-29T07:28:52Z</time>
      </trkpt>
      <trkpt lat="48.6887" lon="6.93018">
        <ele>265.3</ele>
        <time>2020-06-29T07:28:53Z</time>
      </trkpt>
      <trkpt lat="48.68873" lon="6.93009">
        <ele>265.4</ele>
        <time>2020-06-29T07:28:54Z</time>
      </trkpt>
      <trkpt lat="48.68876" lon="6.92999">
        <ele>265.4</ele>
        <time>2020-06-29T07:28:55Z</time>
      </trkpt>
      <trkpt lat="48.68879" lon="6.9299">
        <ele>265.5</ele>
        <time>2020-06-29T07:28:56Z</time>
      </trkpt>
      <trkpt lat="48.68882" lon="6.92981">
        <ele>265.5</ele>
        <time>2020-06-29T07:28:57Z</time>
      </trkpt>
      <trkpt lat="48.68885" lon="6.92972">
        <ele>265.6</ele>
        <time>2020-06-29T07:28:58Z</time>
      </trkpt>
      <trkpt lat="48.68887" lon="6.92963">
        <ele>265.6</ele>
        <time>2020-06-29T07:28:59Z</time>
      </trkpt>
      <trkpt lat="48.6889" lon="6.92954">
        <ele>265.8</ele>
        <time>2020-06-29T07:29:00Z</time>
      </trkpt>
      <trkpt lat="48.68893" lon="6.92946">
        <ele>266</ele>
        <time>2020-06-29T07:29:01Z</time>
      </trkpt>
      <trkpt lat="48.68896" lon="6.92937">
        <ele>266.3</ele>
        <time>2020-06-29T07:29:02Z</time>
      </trkpt>
      <trkpt lat="48.68898" lon="6.92928">
        <ele>266.3</ele>
        <time>2020-06-29T07:29:03Z</time>
      </trkpt>
      <trkpt lat="48.68901" lon="6.92919">
        <ele>266.3</ele>
        <time>2020-06-29T07:29:04Z</time>
      </trkpt>
      <trkpt lat="48.68904" lon="6.92911">
        <ele>266.4</ele>
        <time>2020-06-29T07:29:05Z</time>
      </trkpt>
      <trkpt lat="48.68907" lon="6.92903">
        <ele>266.4</ele>
        <time>2020-06-29T07:29:06Z</time>
      </trkpt>
      <trkpt lat="48.68911" lon="6.92895">
        <ele>266.5</ele>
        <time>2020-06-29T07:29:07Z</time>
      </trkpt>
      <trkpt lat="48.68914" lon="6.92888">
        <ele>266.5</ele>
        <time>2020-06-29T07:29:08Z</time>
      </trkpt>
      <trkpt lat="48.68916" lon="6.92881">
        <ele>266.6</ele>
        <time>2020-06-29T07:29:09Z</time>
      </trkpt>
      <trkpt lat="48.68918" lon="6.92873">
        <ele>266.7</ele>
        <time>2020-06-29T07:29:10Z</time>
      </trkpt>
      <trkpt lat="48.68921" lon="6.92866">
        <ele>266.8</ele>
        <time>2020-06-29T07:29:11Z</time>
      </trkpt>
      <trkpt lat="48.68922" lon="6.9286">
        <ele>266.9</ele>
        <time>2020-06-29T07:29:12Z</time>
      </trkpt>
      <trkpt lat="48.68922" lon="6.92854">
        <ele>266.9</ele>
        <time>2020-06-29T07:29:13Z</time>
      </trkpt>
      <trkpt lat="48.68921" lon="6.92849">
        <ele>266.9</ele>
        <time>2020-06-29T07:29:14Z</time>
      </trkpt>
      <trkpt lat="48.68918" lon="6.92848">
        <ele>266.9</ele>
        <time>2020-06-29T07:29:15Z</time>
      </trkpt>
      <trkpt lat="48.68914" lon="6.92846">
        <ele>267</ele>
        <time>2020-06-29T07:29:16Z</time>
      </trkpt>
      <trkpt lat="48.6891" lon="6.92843">
        <ele>267</ele>
        <time>2020-06-29T07:29:17Z</time>
      </trkpt>
      <trkpt lat="48.68906" lon="6.92841">
        <ele>267</ele>
        <time>2020-06-29T07:29:18Z</time>
      </trkpt>
      <trkpt lat="48.68902" lon="6.92838">
        <ele>267</ele>
        <time>2020-06-29T07:29:19Z</time>
      </trkpt>
      <trkpt lat="48.68898" lon="6.92835">
        <ele>267</ele>
        <time>2020-06-29T07:29:20Z</time>
      </trkpt>
      <trkpt lat="48.68893" lon="6.92832">
        <ele>267</ele>
        <time>2020-06-29T07:29:21Z</time>
      </trkpt>
      <trkpt lat="48.68888" lon="6.92829">
        <ele>267</ele>
        <time>2020-06-29T07:29:22Z</time>
      </trkpt>
      <trkpt lat="48.68884" lon="6.92826">
        <ele>267</ele>
        <time>2020-06-29T07:29:23Z</time>
      </trkpt>
      <trkpt lat="48.68879" lon="6.92822">
        <ele>267.1</ele>
        <time>2020-06-29T07:29:24Z</time>
      </trkpt>
      <trkpt lat="48.68874" lon="6.92818">
        <ele>267.1</ele>
        <time>2020-06-29T07:29:25Z</time>
      </trkpt>
      <trkpt lat="48.68869" lon="6.92815">
        <ele>267.1</ele>
        <time>2020-06-29T07:29:26Z</time>
      </trkpt>
      <trkpt lat="48.68864" lon="6.92811">
        <ele>267.2</ele>
        <time>2020-06-29T07:29:27Z</time>
      </trkpt>
      <trkpt lat="48.68859" lon="6.92809">
        <ele>267.3</ele>
        <time>2020-06-29T07:29:28Z</time>
      </trkpt>
      <trkpt lat="48.68854" lon="6.92806">
        <ele>267.3</ele>
        <time>2020-06-29T07:29:29Z</time>
      </trkpt>
      <trkpt lat="48.68849" lon="6.92804">
        <ele>267.4</ele>
        <time>2020-06-29T07:29:30Z</time>
      </trkpt>
      <trkpt lat="48.68844" lon="6.92801">
        <ele>267.5</ele>
        <time>2020-06-29T07:29:31Z</time>
      </trkpt>
      <trkpt lat="48.68839" lon="6.92798">
        <ele>267.6</ele>
        <time>2020-06-29T07:29:32Z</time>
      </trkpt>
      <trkpt lat="48.68833" lon="6.92797">
        <ele>267.7</ele>
        <time>2020-06-29T07:29:33Z</time>
      </trkpt>
      <trkpt lat="48.68828" lon="6.92795">
        <ele>267.8</ele>
        <time>2020-06-29T07:29:34Z</time>
      </trkpt>
      <trkpt lat="48.68823" lon="6.92793">
        <ele>268</ele>
        <time>2020-06-29T07:29:35Z</time>
      </trkpt>
      <trkpt lat="48.68818" lon="6.92791">
        <ele>268.1</ele>
        <time>2020-06-29T07:29:36Z</time>
      </trkpt>
      <trkpt lat="48.68813" lon="6.92789">
        <ele>268.2</ele>
        <time>2020-06-29T07:29:37Z</time>
      </trkpt>
      <trkpt lat="48.68808" lon="6.92788">
        <ele>268.2</ele>
        <time>2020-06-29T07:29:38Z</time>
      </trkpt>
      <trkpt lat="48.68803" lon="6.92787">
        <ele>268.3</ele>
        <time>2020-06-29T07:29:39Z</time>
      </trkpt>
      <trkpt lat="48.68798" lon="6.92786">
        <ele>268.3</ele>
        <time>2020-06-29T07:29:40Z</time>
      </trkpt>
      <trkpt lat="48.68794" lon="6.92784">
        <ele>268.4</ele>
        <time>2020-06-29T07:29:41Z</time>
      </trkpt>
      <trkpt lat="48.68789" lon="6.92782">
        <ele>268.5</ele>
        <time>2020-06-29T07:29:42Z</time>
      </trkpt>
      <trkpt lat="48.68786" lon="6.9278">
        <ele>268.5</ele>
        <time>2020-06-29T07:29:43Z</time>
      </trkpt>
      <trkpt lat="48.68782" lon="6.92778">
        <ele>268.6</ele>
        <time>2020-06-29T07:29:44Z</time>
      </trkpt>
      <trkpt lat="48.68778" lon="6.92777">
        <ele>268.7</ele>
        <time>2020-06-29T07:29:45Z</time>
      </trkpt>
      <trkpt lat="48.68773" lon="6.92775">
        <ele>268.7</ele>
        <time>2020-06-29T07:29:46Z</time>
      </trkpt>
      <trkpt lat="48.68769" lon="6.92774">
        <ele>268.7</ele>
        <time>2020-06-29T07:29:47Z</time>
      </trkpt>
      <trkpt lat="48.68766" lon="6.92771">
        <ele>268.7</ele>
        <time>2020-06-29T07:29:48Z</time>
      </trkpt>
      <trkpt lat="48.68762" lon="6.92771">
        <ele>268.7</ele>
        <time>2020-06-29T07:29:49Z</time>
      </trkpt>
      <trkpt lat="48.68758" lon="6.9277">
        <ele>268.7</ele>
        <time>2020-06-29T07:29:50Z</time>
      </trkpt>
      <trkpt lat="48.68754" lon="6.92769">
        <ele>268.7</ele>
        <time>2020-06-29T07:29:51Z</time>
      </trkpt>
      <trkpt lat="48.68751" lon="6.92767">
        <ele>268.8</ele>
        <time>2020-06-29T07:29:52Z</time>
      </trkpt>
      <trkpt lat="48.68746" lon="6.92766">
        <ele>268.8</ele>
        <time>2020-06-29T07:29:53Z</time>
      </trkpt>
      <trkpt lat="48.68742" lon="6.92765">
        <ele>268.8</ele>
        <time>2020-06-29T07:29:54Z</time>
      </trkpt>
      <trkpt lat="48.68739" lon="6.92763">
        <ele>268.8</ele>
        <time>2020-06-29T07:29:55Z</time>
      </trkpt>
      <trkpt lat="48.68735" lon="6.92763">
        <ele>268.8</ele>
        <time>2020-06-29T07:29:56Z</time>
      </trkpt>
      <trkpt lat="48.68732" lon="6.92762">
        <ele>268.8</ele>
        <time>2020-06-29T07:29:57Z</time>
      </trkpt>
      <trkpt lat="48.68728" lon="6.92762">
        <ele>268.8</ele>
        <time>2020-06-29T07:29:58Z</time>
      </trkpt>
      <trkpt lat="48.68724" lon="6.92761">
        <ele>268.8</ele>
        <time>2020-06-29T07:29:59Z</time>
      </trkpt>
      <trkpt lat="48.68721" lon="6.9276">
        <ele>268.8</ele>
        <time>2020-06-29T07:30:00Z</time>
      </trkpt>
      <trkpt lat="48.68718" lon="6.92758">
        <ele>268.9</ele>
        <time>2020-06-29T07:30:01Z</time>
      </trkpt>
      <trkpt lat="48.68714" lon="6.92758">
        <ele>268.9</ele>
        <time>2020-06-29T07:30:02Z</time>
      </trkpt>
      <trkpt lat="48.6871" lon="6.92757">
        <ele>268.9</ele>
        <time>2020-06-29T07:30:03Z</time>
      </trkpt>
      <trkpt lat="48.68707" lon="6.92755">
        <ele>268.9</ele>
        <time>2020-06-29T07:30:04Z</time>
      </trkpt>
      <trkpt lat="48.68703" lon="6.92752">
        <ele>268.9</ele>
        <time>2020-06-29T07:30:05Z</time>
      </trkpt>
      <trkpt lat="48.687" lon="6.9275">
        <ele>268.9</ele>
        <time>2020-06-29T07:30:06Z</time>
      </trkpt>
      <trkpt lat="48.68697" lon="6.92747">
        <ele>269</ele>
        <time>2020-06-29T07:30:07Z</time>
      </trkpt>
      <trkpt lat="48.68695" lon="6.92746">
        <ele>269</ele>
        <time>2020-06-29T07:30:08Z</time>
      </trkpt>
      <trkpt lat="48.68691" lon="6.92745">
        <ele>269</ele>
        <time>2020-06-29T07:30:09Z</time>
      </trkpt>
      <trkpt lat="48.6869" lon="6.92745">
        <ele>269</ele>
        <time>2020-06-29T07:30:10Z</time>
      </trkpt>
      <trkpt lat="48.68688" lon="6.92743">
        <ele>269</ele>
        <time>2020-06-29T07:30:11Z</time>
      </trkpt>
      <trkpt lat="48.68687" lon="6.92744">
        <ele>269</ele>
        <time>2020-06-29T07:30:12Z</time>
      </trkpt>
      <trkpt lat="48.68687" lon="6.92744">
        <ele>269</ele>
        <time>2020-06-29T07:30:13Z</time>
      </trkpt>
      <trkpt lat="48.68687" lon="6.92744">
        <ele>269</ele>
        <time>2020-06-29T07:30:14Z</time>
      </trkpt>
      <trkpt lat="48.68687" lon="6.92744">
        <ele>269</ele>
        <time>2020-06-29T07:30:15Z</time>
      </trkpt>
      <trkpt lat="48.68687" lon="6.92744">
        <ele>269</ele>
        <time>2020-06-29T07:30:16Z</time>
      </trkpt>
      <trkpt lat="48.68687" lon="6.92744">
        <ele>269</ele>
        <time>2020-06-29T07:30:17Z</time>
      </trkpt>
      <trkpt lat="48.68687" lon="6.92744">
        <ele>269</ele>
        <time>2020-06-29T07:30:18Z</time>
      </trkpt>
      <trkpt lat="48.68687" lon="6.92745">
        <ele>269</ele>
        <time>2020-06-29T07:30:19Z</time>
      </trkpt>
      <trkpt lat="48.68687" lon="6.92745">
        <ele>269</ele>
        <time>2020-06-29T07:30:20Z</time>
      </trkpt>
      <trkpt lat="48.68688" lon="6.92745">
        <ele>269</ele>
        <time>2020-06-29T07:30:21Z</time>
      </trkpt>
      <trkpt lat="48.68688" lon="6.92745">
        <ele>269</ele>
        <time>2020-06-29T07:30:22Z</time>
      </trkpt>
      <trkpt lat="48.68688" lon="6.92745">
        <ele>269</ele>
        <time>2020-06-29T07:33:31Z</time>
      </trkpt>
      <trkpt lat="48.68688" lon="6.92745">
        <ele>269</ele>
        <time>2020-06-29T07:33:32Z</time>
      </trkpt>
      <trkpt lat="48.68691" lon="6.92745">
        <ele>269</ele>
        <time>2020-06-29T07:33:33Z</time>
      </trkpt>
      <trkpt lat="48.68694" lon="6.92745">
        <ele>268.8</ele>
        <time>2020-06-29T07:33:34Z</time>
      </trkpt>
      <trkpt lat="48.68698" lon="6.92745">
        <ele>268.8</ele>
        <time>2020-06-29T07:33:35Z</time>
      </trkpt>
      <trkpt lat="48.687" lon="6.92745">
        <ele>268.8</ele>
        <time>2020-06-29T07:33:36Z</time>
      </trkpt>
      <trkpt lat="48.68704" lon="6.92747">
        <ele>268.7</ele>
        <time>2020-06-29T07:33:37Z</time>
      </trkpt>
      <trkpt lat="48.68706" lon="6.92747">
        <ele>268.7</ele>
        <time>2020-06-29T07:33:38Z</time>
      </trkpt>
      <trkpt lat="48.68708" lon="6.92749">
        <ele>268.7</ele>
        <time>2020-06-29T07:33:39Z</time>
      </trkpt>
      <trkpt lat="48.68711" lon="6.92749">
        <ele>268.7</ele>
        <time>2020-06-29T07:33:40Z</time>
      </trkpt>
      <trkpt lat="48.68714" lon="6.9275">
        <ele>268.6</ele>
        <time>2020-06-29T07:33:41Z</time>
      </trkpt>
      <trkpt lat="48.68717" lon="6.92749">
        <ele>268.6</ele>
        <time>2020-06-29T07:33:42Z</time>
      </trkpt>
      <trkpt lat="48.6872" lon="6.92749">
        <ele>268.6</ele>
        <time>2020-06-29T07:33:43Z</time>
      </trkpt>
      <trkpt lat="48.68723" lon="6.92748">
        <ele>268.6</ele>
        <time>2020-06-29T07:33:44Z</time>
      </trkpt>
      <trkpt lat="48.68726" lon="6.92748">
        <ele>268.6</ele>
        <time>2020-06-29T07:33:45Z</time>
      </trkpt>
      <trkpt lat="48.68728" lon="6.92747">
        <ele>268.6</ele>
        <time>2020-06-29T07:33:46Z</time>
      </trkpt>
      <trkpt lat="48.68732" lon="6.92745">
        <ele>268.6</ele>
        <time>2020-06-29T07:33:47Z</time>
      </trkpt>
      <trkpt lat="48.68733" lon="6.92744">
        <ele>268.5</ele>
        <time>2020-06-29T07:33:48Z</time>
      </trkpt>
      <trkpt lat="48.68736" lon="6.92741">
        <ele>268.5</ele>
        <time>2020-06-29T07:33:49Z</time>
      </trkpt>
      <trkpt lat="48.68739" lon="6.92735">
        <ele>268.5</ele>
        <time>2020-06-29T07:33:50Z</time>
      </trkpt>
      <trkpt lat="48.68742" lon="6.9273">
        <ele>268.5</ele>
        <time>2020-06-29T07:33:51Z</time>
      </trkpt>
      <trkpt lat="48.68744" lon="6.92724">
        <ele>268.4</ele>
        <time>2020-06-29T07:33:52Z</time>
      </trkpt>
      <trkpt lat="48.68747" lon="6.92718">
        <ele>268.4</ele>
        <time>2020-06-29T07:33:53Z</time>
      </trkpt>
      <trkpt lat="48.68749" lon="6.92713">
        <ele>268.3</ele>
        <time>2020-06-29T07:33:54Z</time>
      </trkpt>
      <trkpt lat="48.68751" lon="6.92708">
        <ele>268.2</ele>
        <time>2020-06-29T07:33:55Z</time>
      </trkpt>
      <trkpt lat="48.68754" lon="6.92703">
        <ele>268.1</ele>
        <time>2020-06-29T07:33:56Z</time>
      </trkpt>
      <trkpt lat="48.68757" lon="6.92699">
        <ele>268.1</ele>
        <time>2020-06-29T07:33:57Z</time>
      </trkpt>
      <trkpt lat="48.68759" lon="6.92694">
        <ele>268</ele>
        <time>2020-06-29T07:33:58Z</time>
      </trkpt>
      <trkpt lat="48.6876" lon="6.9269">
        <ele>268</ele>
        <time>2020-06-29T07:33:59Z</time>
      </trkpt>
      <trkpt lat="48.68762" lon="6.92684">
        <ele>267.9</ele>
        <time>2020-06-29T07:34:00Z</time>
      </trkpt>
      <trkpt lat="48.68763" lon="6.92679">
        <ele>267.9</ele>
        <time>2020-06-29T07:34:01Z</time>
      </trkpt>
      <trkpt lat="48.68764" lon="6.92673">
        <ele>267.9</ele>
        <time>2020-06-29T07:34:02Z</time>
      </trkpt>
      <trkpt lat="48.68766" lon="6.92667">
        <ele>267.8</ele>
        <time>2020-06-29T07:34:03Z</time>
      </trkpt>
      <trkpt lat="48.68768" lon="6.92661">
        <ele>267.8</ele>
        <time>2020-06-29T07:34:04Z</time>
      </trkpt>
      <trkpt lat="48.6877" lon="6.92655">
        <ele>267.8</ele>
        <time>2020-06-29T07:34:05Z</time>
      </trkpt>
      <trkpt lat="48.68771" lon="6.92649">
        <ele>267.7</ele>
        <time>2020-06-29T07:34:06Z</time>
      </trkpt>
      <trkpt lat="48.68774" lon="6.92643">
        <ele>267.7</ele>
        <time>2020-06-29T07:34:07Z</time>
      </trkpt>
      <trkpt lat="48.68777" lon="6.92637">
        <ele>267.7</ele>
        <time>2020-06-29T07:34:08Z</time>
      </trkpt>
      <trkpt lat="48.68779" lon="6.9263">
        <ele>267.7</ele>
        <time>2020-06-29T07:34:09Z</time>
      </trkpt>
      <trkpt lat="48.68782" lon="6.92624">
        <ele>267.6</ele>
        <time>2020-06-29T07:34:10Z</time>
      </trkpt>
      <trkpt lat="48.68784" lon="6.92617">
        <ele>267.6</ele>
        <time>2020-06-29T07:34:11Z</time>
      </trkpt>
      <trkpt lat="48.68786" lon="6.9261">
        <ele>267.6</ele>
        <time>2020-06-29T07:34:12Z</time>
      </trkpt>
      <trkpt lat="48.68788" lon="6.92604">
        <ele>267.6</ele>
        <time>2020-06-29T07:34:13Z</time>
      </trkpt>
      <trkpt lat="48.68789" lon="6.92597">
        <ele>267.6</ele>
        <time>2020-06-29T07:34:14Z</time>
      </trkpt>
      <trkpt lat="48.68791" lon="6.92591">
        <ele>267.6</ele>
        <time>2020-06-29T07:34:15Z</time>
      </trkpt>
      <trkpt lat="48.68793" lon="6.92585">
        <ele>267.5</ele>
        <time>2020-06-29T07:34:16Z</time>
      </trkpt>
      <trkpt lat="48.68795" lon="6.92579">
        <ele>267.5</ele>
        <time>2020-06-29T07:34:17Z</time>
      </trkpt>
      <trkpt lat="48.68797" lon="6.92572">
        <ele>267.5</ele>
        <time>2020-06-29T07:34:18Z</time>
      </trkpt>
      <trkpt lat="48.68799" lon="6.92565">
        <ele>267.4</ele>
        <time>2020-06-29T07:34:19Z</time>
      </trkpt>
      <trkpt lat="48.68802" lon="6.92558">
        <ele>267.4</ele>
        <time>2020-06-29T07:34:20Z</time>
      </trkpt>
      <trkpt lat="48.68804" lon="6.92551">
        <ele>267.4</ele>
        <time>2020-06-29T07:34:21Z</time>
      </trkpt>
      <trkpt lat="48.68806" lon="6.92543">
        <ele>267.3</ele>
        <time>2020-06-29T07:34:22Z</time>
      </trkpt>
      <trkpt lat="48.68808" lon="6.92536">
        <ele>267.3</ele>
        <time>2020-06-29T07:34:23Z</time>
      </trkpt>
      <trkpt lat="48.6881" lon="6.92529">
        <ele>267.2</ele>
        <time>2020-06-29T07:34:24Z</time>
      </trkpt>
      <trkpt lat="48.68813" lon="6.92522">
        <ele>267.2</ele>
        <time>2020-06-29T07:34:25Z</time>
      </trkpt>
      <trkpt lat="48.68815" lon="6.92515">
        <ele>267.2</ele>
        <time>2020-06-29T07:34:26Z</time>
      </trkpt>
      <trkpt lat="48.68818" lon="6.92508">
        <ele>267.1</ele>
        <time>2020-06-29T07:34:27Z</time>
      </trkpt>
      <trkpt lat="48.6882" lon="6.92501">
        <ele>267.1</ele>
        <time>2020-06-29T07:34:28Z</time>
      </trkpt>
      <trkpt lat="48.68821" lon="6.92494">
        <ele>267</ele>
        <time>2020-06-29T07:34:29Z</time>
      </trkpt>
      <trkpt lat="48.68823" lon="6.92487">
        <ele>267</ele>
        <time>2020-06-29T07:34:30Z</time>
      </trkpt>
      <trkpt lat="48.68825" lon="6.92479">
        <ele>266.9</ele>
        <time>2020-06-29T07:34:31Z</time>
      </trkpt>
      <trkpt lat="48.68827" lon="6.92472">
        <ele>266.8</ele>
        <time>2020-06-29T07:34:32Z</time>
      </trkpt>
      <trkpt lat="48.68828" lon="6.92466">
        <ele>266.8</ele>
        <time>2020-06-29T07:34:33Z</time>
      </trkpt>
      <trkpt lat="48.6883" lon="6.92459">
        <ele>266.7</ele>
        <time>2020-06-29T07:34:34Z</time>
      </trkpt>
      <trkpt lat="48.68833" lon="6.92452">
        <ele>266.6</ele>
        <time>2020-06-29T07:34:35Z</time>
      </trkpt>
      <trkpt lat="48.68834" lon="6.92446">
        <ele>266.5</ele>
        <time>2020-06-29T07:34:36Z</time>
      </trkpt>
      <trkpt lat="48.68836" lon="6.9244">
        <ele>266.5</ele>
        <time>2020-06-29T07:34:37Z</time>
      </trkpt>
      <trkpt lat="48.68838" lon="6.92433">
        <ele>266.4</ele>
        <time>2020-06-29T07:34:38Z</time>
      </trkpt>
      <trkpt lat="48.68839" lon="6.92425">
        <ele>266.2</ele>
        <time>2020-06-29T07:34:39Z</time>
      </trkpt>
      <trkpt lat="48.68842" lon="6.92416">
        <ele>266</ele>
        <time>2020-06-29T07:34:40Z</time>
      </trkpt>
      <trkpt lat="48.68844" lon="6.92408">
        <ele>265.8</ele>
        <time>2020-06-29T07:34:41Z</time>
      </trkpt>
      <trkpt lat="48.68847" lon="6.92399">
        <ele>265.6</ele>
        <time>2020-06-29T07:34:42Z</time>
      </trkpt>
      <trkpt lat="48.68851" lon="6.92391">
        <ele>265.4</ele>
        <time>2020-06-29T07:34:43Z</time>
      </trkpt>
      <trkpt lat="48.68855" lon="6.92383">
        <ele>265.3</ele>
        <time>2020-06-29T07:34:44Z</time>
      </trkpt>
      <trkpt lat="48.68858" lon="6.92375">
        <ele>265.2</ele>
        <time>2020-06-29T07:34:45Z</time>
      </trkpt>
      <trkpt lat="48.68861" lon="6.92367">
        <ele>265.1</ele>
        <time>2020-06-29T07:34:46Z</time>
      </trkpt>
      <trkpt lat="48.68864" lon="6.92358">
        <ele>265.1</ele>
        <time>2020-06-29T07:34:47Z</time>
      </trkpt>
      <trkpt lat="48.68867" lon="6.9235">
        <ele>265.1</ele>
        <time>2020-06-29T07:34:48Z</time>
      </trkpt>
      <trkpt lat="48.68869" lon="6.92342">
        <ele>265</ele>
        <time>2020-06-29T07:34:49Z</time>
      </trkpt>
      <trkpt lat="48.68873" lon="6.92334">
        <ele>265</ele>
        <time>2020-06-29T07:34:50Z</time>
      </trkpt>
      <trkpt lat="48.68876" lon="6.92325">
        <ele>265</ele>
        <time>2020-06-29T07:34:51Z</time>
      </trkpt>
      <trkpt lat="48.6888" lon="6.92318">
        <ele>265.1</ele>
        <time>2020-06-29T07:34:52Z</time>
      </trkpt>
      <trkpt lat="48.68883" lon="6.9231">
        <ele>265.1</ele>
        <time>2020-06-29T07:34:53Z</time>
      </trkpt>
      <trkpt lat="48.68887" lon="6.92303">
        <ele>265.1</ele>
        <time>2020-06-29T07:34:54Z</time>
      </trkpt>
      <trkpt lat="48.6889" lon="6.92296">
        <ele>265.1</ele>
        <time>2020-06-29T07:34:55Z</time>
      </trkpt>
      <trkpt lat="48.68895" lon="6.92289">
        <ele>265.1</ele>
        <time>2020-06-29T07:34:56Z</time>
      </trkpt>
      <trkpt lat="48.68899" lon="6.92283">
        <ele>265.1</ele>
        <time>2020-06-29T07:34:57Z</time>
      </trkpt>
      <trkpt lat="48.68903" lon="6.92276">
        <ele>265.1</ele>
        <time>2020-06-29T07:34:58Z</time>
      </trkpt>
      <trkpt lat="48.68907" lon="6.92268">
        <ele>265.1</ele>
        <time>2020-06-29T07:34:59Z</time>
      </trkpt>
      <trkpt lat="48.68911" lon="6.9226">
        <ele>265.1</ele>
        <time>2020-06-29T07:35:00Z</time>
      </trkpt>
      <trkpt lat="48.68914" lon="6.92252">
        <ele>265.1</ele>
        <time>2020-06-29T07:35:01Z</time>
      </trkpt>
      <trkpt lat="48.68918" lon="6.92245">
        <ele>265</ele>
        <time>2020-06-29T07:35:02Z</time>
      </trkpt>
      <trkpt lat="48.68922" lon="6.92237">
        <ele>265</ele>
        <time>2020-06-29T07:35:03Z</time>
      </trkpt>
      <trkpt lat="48.68925" lon="6.9223">
        <ele>265</ele>
        <time>2020-06-29T07:35:04Z</time>
      </trkpt>
      <trkpt lat="48.68929" lon="6.92222">
        <ele>265</ele>
        <time>2020-06-29T07:35:05Z</time>
      </trkpt>
      <trkpt lat="48.68933" lon="6.92215">
        <ele>265</ele>
        <time>2020-06-29T07:35:06Z</time>
      </trkpt>
      <trkpt lat="48.68937" lon="6.92208">
        <ele>265</ele>
        <time>2020-06-29T07:35:07Z</time>
      </trkpt>
      <trkpt lat="48.68941" lon="6.92201">
        <ele>265</ele>
        <time>2020-06-29T07:35:08Z</time>
      </trkpt>
      <trkpt lat="48.68945" lon="6.92194">
        <ele>265</ele>
        <time>2020-06-29T07:35:09Z</time>
      </trkpt>
      <trkpt lat="48.68949" lon="6.92188">
        <ele>265</ele>
        <time>2020-06-29T07:35:10Z</time>
      </trkpt>
      <trkpt lat="48.68953" lon="6.92181">
        <ele>265</ele>
        <time>2020-06-29T07:35:11Z</time>
      </trkpt>
      <trkpt lat="48.68957" lon="6.92174">
        <ele>265</ele>
        <time>2020-06-29T07:35:12Z</time>
      </trkpt>
      <trkpt lat="48.68961" lon="6.92167">
        <ele>264.9</ele>
        <time>2020-06-29T07:35:13Z</time>
      </trkpt>
      <trkpt lat="48.68965" lon="6.9216">
        <ele>264.9</ele>
        <time>2020-06-29T07:35:14Z</time>
      </trkpt>
      <trkpt lat="48.6897" lon="6.92153">
        <ele>264.9</ele>
        <time>2020-06-29T07:35:15Z</time>
      </trkpt>
      <trkpt lat="48.68974" lon="6.92146">
        <ele>264.9</ele>
        <time>2020-06-29T07:35:16Z</time>
      </trkpt>
      <trkpt lat="48.68978" lon="6.92139">
        <ele>264.9</ele>
        <time>2020-06-29T07:35:17Z</time>
      </trkpt>
      <trkpt lat="48.68982" lon="6.92131">
        <ele>264.9</ele>
        <time>2020-06-29T07:35:18Z</time>
      </trkpt>
      <trkpt lat="48.68986" lon="6.92124">
        <ele>264.9</ele>
        <time>2020-06-29T07:35:19Z</time>
      </trkpt>
      <trkpt lat="48.6899" lon="6.92117">
        <ele>264.8</ele>
        <time>2020-06-29T07:35:20Z</time>
      </trkpt>
      <trkpt lat="48.68994" lon="6.9211">
        <ele>264.8</ele>
        <time>2020-06-29T07:35:21Z</time>
      </trkpt>
      <trkpt lat="48.68998" lon="6.92102">
        <ele>264.8</ele>
        <time>2020-06-29T07:35:22Z</time>
      </trkpt>
      <trkpt lat="48.69002" lon="6.92095">
        <ele>264.8</ele>
        <time>2020-06-29T07:35:23Z</time>
      </trkpt>
      <trkpt lat="48.69006" lon="6.92088">
        <ele>264.9</ele>
        <time>2020-06-29T07:35:24Z</time>
      </trkpt>
      <trkpt lat="48.6901" lon="6.92081">
        <ele>264.9</ele>
        <time>2020-06-29T07:35:25Z</time>
      </trkpt>
      <trkpt lat="48.69014" lon="6.92073">
        <ele>264.9</ele>
        <time>2020-06-29T07:35:26Z</time>
      </trkpt>
      <trkpt lat="48.69018" lon="6.92066">
        <ele>265</ele>
        <time>2020-06-29T07:35:27Z</time>
      </trkpt>
      <trkpt lat="48.69021" lon="6.92058">
        <ele>265</ele>
        <time>2020-06-29T07:35:28Z</time>
      </trkpt>
      <trkpt lat="48.69025" lon="6.92051">
        <ele>265</ele>
        <time>2020-06-29T07:35:29Z</time>
      </trkpt>
      <trkpt lat="48.69029" lon="6.92044">
        <ele>265</ele>
        <time>2020-06-29T07:35:30Z</time>
      </trkpt>
      <trkpt lat="48.69033" lon="6.92036">
        <ele>265</ele>
        <time>2020-06-29T07:35:31Z</time>
      </trkpt>
      <trkpt lat="48.69037" lon="6.92029">
        <ele>265</ele>
        <time>2020-06-29T07:35:32Z</time>
      </trkpt>
      <trkpt lat="48.69041" lon="6.92021">
        <ele>265</ele>
        <time>2020-06-29T07:35:33Z</time>
      </trkpt>
      <trkpt lat="48.69045" lon="6.92014">
        <ele>265</ele>
        <time>2020-06-29T07:35:34Z</time>
      </trkpt>
      <trkpt lat="48.69049" lon="6.92006">
        <ele>265</ele>
        <time>2020-06-29T07:35:35Z</time>
      </trkpt>
      <trkpt lat="48.69052" lon="6.91998">
        <ele>265</ele>
        <time>2020-06-29T07:35:36Z</time>
      </trkpt>
      <trkpt lat="48.69055" lon="6.9199">
        <ele>265</ele>
        <time>2020-06-29T07:35:37Z</time>
      </trkpt>
      <trkpt lat="48.69059" lon="6.91983">
        <ele>265</ele>
        <time>2020-06-29T07:35:38Z</time>
      </trkpt>
      <trkpt lat="48.69063" lon="6.91975">
        <ele>265</ele>
        <time>2020-06-29T07:35:39Z</time>
      </trkpt>
      <trkpt lat="48.69067" lon="6.91967">
        <ele>265</ele>
        <time>2020-06-29T07:35:40Z</time>
      </trkpt>
      <trkpt lat="48.69071" lon="6.9196">
        <ele>264.9</ele>
        <time>2020-06-29T07:35:41Z</time>
      </trkpt>
      <trkpt lat="48.69075" lon="6.91953">
        <ele>264.9</ele>
        <time>2020-06-29T07:35:42Z</time>
      </trkpt>
      <trkpt lat="48.69079" lon="6.91946">
        <ele>264.9</ele>
        <time>2020-06-29T07:35:43Z</time>
      </trkpt>
      <trkpt lat="48.69084" lon="6.91939">
        <ele>264.9</ele>
        <time>2020-06-29T07:35:44Z</time>
      </trkpt>
      <trkpt lat="48.69088" lon="6.91931">
        <ele>264.9</ele>
        <time>2020-06-29T07:35:45Z</time>
      </trkpt>
      <trkpt lat="48.69091" lon="6.91923">
        <ele>264.9</ele>
        <time>2020-06-29T07:35:46Z</time>
      </trkpt>
      <trkpt lat="48.69095" lon="6.91915">
        <ele>265</ele>
        <time>2020-06-29T07:35:47Z</time>
      </trkpt>
      <trkpt lat="48.69099" lon="6.91908">
        <ele>265</ele>
        <time>2020-06-29T07:35:48Z</time>
      </trkpt>
      <trkpt lat="48.69103" lon="6.91901">
        <ele>265</ele>
        <time>2020-06-29T07:35:49Z</time>
      </trkpt>
      <trkpt lat="48.69106" lon="6.91894">
        <ele>265</ele>
        <time>2020-06-29T07:35:50Z</time>
      </trkpt>
      <trkpt lat="48.6911" lon="6.91887">
        <ele>265</ele>
        <time>2020-06-29T07:35:51Z</time>
      </trkpt>
      <trkpt lat="48.69114" lon="6.9188">
        <ele>265</ele>
        <time>2020-06-29T07:35:52Z</time>
      </trkpt>
      <trkpt lat="48.69118" lon="6.91874">
        <ele>265</ele>
        <time>2020-06-29T07:35:53Z</time>
      </trkpt>
      <trkpt lat="48.69122" lon="6.91867">
        <ele>265</ele>
        <time>2020-06-29T07:35:54Z</time>
      </trkpt>
      <trkpt lat="48.69125" lon="6.9186">
        <ele>265</ele>
        <time>2020-06-29T07:35:55Z</time>
      </trkpt>
      <trkpt lat="48.69128" lon="6.91853">
        <ele>265</ele>
        <time>2020-06-29T07:35:56Z</time>
      </trkpt>
      <trkpt lat="48.69132" lon="6.91847">
        <ele>265</ele>
        <time>2020-06-29T07:35:57Z</time>
      </trkpt>
      <trkpt lat="48.69136" lon="6.9184">
        <ele>265</ele>
        <time>2020-06-29T07:35:58Z</time>
      </trkpt>
      <trkpt lat="48.6914" lon="6.91834">
        <ele>265</ele>
        <time>2020-06-29T07:35:59Z</time>
      </trkpt>
      <trkpt lat="48.69143" lon="6.91827">
        <ele>265</ele>
        <time>2020-06-29T07:36:00Z</time>
      </trkpt>
      <trkpt lat="48.69147" lon="6.91821">
        <ele>265</ele>
        <time>2020-06-29T07:36:01Z</time>
      </trkpt>
      <trkpt lat="48.69151" lon="6.91816">
        <ele>265</ele>
        <time>2020-06-29T07:36:02Z</time>
      </trkpt>
      <trkpt lat="48.69154" lon="6.9181">
        <ele>264.9</ele>
        <time>2020-06-29T07:36:03Z</time>
      </trkpt>
      <trkpt lat="48.69157" lon="6.91804">
        <ele>264.9</ele>
        <time>2020-06-29T07:36:04Z</time>
      </trkpt>
      <trkpt lat="48.6916" lon="6.91798">
        <ele>264.9</ele>
        <time>2020-06-29T07:36:05Z</time>
      </trkpt>
      <trkpt lat="48.69163" lon="6.91793">
        <ele>264.9</ele>
        <time>2020-06-29T07:36:06Z</time>
      </trkpt>
      <trkpt lat="48.69166" lon="6.91787">
        <ele>264.9</ele>
        <time>2020-06-29T07:36:07Z</time>
      </trkpt>
      <trkpt lat="48.69169" lon="6.91781">
        <ele>264.9</ele>
        <time>2020-06-29T07:36:08Z</time>
      </trkpt>
      <trkpt lat="48.69172" lon="6.91775">
        <ele>264.9</ele>
        <time>2020-06-29T07:36:09Z</time>
      </trkpt>
      <trkpt lat="48.69175" lon="6.91768">
        <ele>264.9</ele>
        <time>2020-06-29T07:36:10Z</time>
      </trkpt>
      <trkpt lat="48.69179" lon="6.91761">
        <ele>264.9</ele>
        <time>2020-06-29T07:36:11Z</time>
      </trkpt>
      <trkpt lat="48.69183" lon="6.91754">
        <ele>264.9</ele>
        <time>2020-06-29T07:36:12Z</time>
      </trkpt>
      <trkpt lat="48.69187" lon="6.91748">
        <ele>264.9</ele>
        <time>2020-06-29T07:36:13Z</time>
      </trkpt>
      <trkpt lat="48.69191" lon="6.91742">
        <ele>264.9</ele>
        <time>2020-06-29T07:36:14Z</time>
      </trkpt>
      <trkpt lat="48.69194" lon="6.91734">
        <ele>264.9</ele>
        <time>2020-06-29T07:36:15Z</time>
      </trkpt>
      <trkpt lat="48.69198" lon="6.91728">
        <ele>264.8</ele>
        <time>2020-06-29T07:36:16Z</time>
      </trkpt>
      <trkpt lat="48.69201" lon="6.91721">
        <ele>264.8</ele>
        <time>2020-06-29T07:36:17Z</time>
      </trkpt>
      <trkpt lat="48.69205" lon="6.91714">
        <ele>264.8</ele>
        <time>2020-06-29T07:36:18Z</time>
      </trkpt>
      <trkpt lat="48.69209" lon="6.91707">
        <ele>264.8</ele>
        <time>2020-06-29T07:36:19Z</time>
      </trkpt>
      <trkpt lat="48.69213" lon="6.91701">
        <ele>264.8</ele>
        <time>2020-06-29T07:36:20Z</time>
      </trkpt>
      <trkpt lat="48.69216" lon="6.91694">
        <ele>264.8</ele>
        <time>2020-06-29T07:36:21Z</time>
      </trkpt>
      <trkpt lat="48.6922" lon="6.91687">
        <ele>264.8</ele>
        <time>2020-06-29T07:36:22Z</time>
      </trkpt>
      <trkpt lat="48.69224" lon="6.9168">
        <ele>264.8</ele>
        <time>2020-06-29T07:36:23Z</time>
      </trkpt>
      <trkpt lat="48.69227" lon="6.91673">
        <ele>264.8</ele>
        <time>2020-06-29T07:36:24Z</time>
      </trkpt>
      <trkpt lat="48.69231" lon="6.91667">
        <ele>264.8</ele>
        <time>2020-06-29T07:36:25Z</time>
      </trkpt>
      <trkpt lat="48.69234" lon="6.9166">
        <ele>264.8</ele>
        <time>2020-06-29T07:36:26Z</time>
      </trkpt>
      <trkpt lat="48.69237" lon="6.91653">
        <ele>264.9</ele>
        <time>2020-06-29T07:36:27Z</time>
      </trkpt>
      <trkpt lat="48.69241" lon="6.91647">
        <ele>265</ele>
        <time>2020-06-29T07:36:28Z</time>
      </trkpt>
      <trkpt lat="48.69244" lon="6.9164">
        <ele>265.1</ele>
        <time>2020-06-29T07:36:29Z</time>
      </trkpt>
      <trkpt lat="48.69247" lon="6.91633">
        <ele>265.5</ele>
        <time>2020-06-29T07:36:30Z</time>
      </trkpt>
      <trkpt lat="48.69251" lon="6.91626">
        <ele>265.6</ele>
        <time>2020-06-29T07:36:31Z</time>
      </trkpt>
      <trkpt lat="48.69255" lon="6.9162">
        <ele>265.7</ele>
        <time>2020-06-29T07:36:32Z</time>
      </trkpt>
      <trkpt lat="48.69258" lon="6.91613">
        <ele>265.7</ele>
        <time>2020-06-29T07:36:33Z</time>
      </trkpt>
      <trkpt lat="48.69262" lon="6.91607">
        <ele>265.7</ele>
        <time>2020-06-29T07:36:34Z</time>
      </trkpt>
      <trkpt lat="48.69264" lon="6.916">
        <ele>265.7</ele>
        <time>2020-06-29T07:36:35Z</time>
      </trkpt>
      <trkpt lat="48.69267" lon="6.91592">
        <ele>265.7</ele>
        <time>2020-06-29T07:36:36Z</time>
      </trkpt>
      <trkpt lat="48.69271" lon="6.91586">
        <ele>265.8</ele>
        <time>2020-06-29T07:36:37Z</time>
      </trkpt>
      <trkpt lat="48.69274" lon="6.9158">
        <ele>265.8</ele>
        <time>2020-06-29T07:36:38Z</time>
      </trkpt>
      <trkpt lat="48.69278" lon="6.91573">
        <ele>265.8</ele>
        <time>2020-06-29T07:36:39Z</time>
      </trkpt>
      <trkpt lat="48.69281" lon="6.91566">
        <ele>265.8</ele>
        <time>2020-06-29T07:36:40Z</time>
      </trkpt>
      <trkpt lat="48.69285" lon="6.91559">
        <ele>265.8</ele>
        <time>2020-06-29T07:36:41Z</time>
      </trkpt>
      <trkpt lat="48.69288" lon="6.91552">
        <ele>265.8</ele>
        <time>2020-06-29T07:36:42Z</time>
      </trkpt>
      <trkpt lat="48.69292" lon="6.91545">
        <ele>265.8</ele>
        <time>2020-06-29T07:36:43Z</time>
      </trkpt>
      <trkpt lat="48.69295" lon="6.91537">
        <ele>265.8</ele>
        <time>2020-06-29T07:36:44Z</time>
      </trkpt>
      <trkpt lat="48.69299" lon="6.91531">
        <ele>265.8</ele>
        <time>2020-06-29T07:36:45Z</time>
      </trkpt>
      <trkpt lat="48.69303" lon="6.91524">
        <ele>265.7</ele>
        <time>2020-06-29T07:36:46Z</time>
      </trkpt>
      <trkpt lat="48.69307" lon="6.91518">
        <ele>265.7</ele>
        <time>2020-06-29T07:36:47Z</time>
      </trkpt>
      <trkpt lat="48.69311" lon="6.91511">
        <ele>265.7</ele>
        <time>2020-06-29T07:36:48Z</time>
      </trkpt>
      <trkpt lat="48.69314" lon="6.91504">
        <ele>265.7</ele>
        <time>2020-06-29T07:36:49Z</time>
      </trkpt>
      <trkpt lat="48.69318" lon="6.91497">
        <ele>265.7</ele>
        <time>2020-06-29T07:36:50Z</time>
      </trkpt>
      <trkpt lat="48.69321" lon="6.9149">
        <ele>265.7</ele>
        <time>2020-06-29T07:36:51Z</time>
      </trkpt>
      <trkpt lat="48.69324" lon="6.91483">
        <ele>265.7</ele>
        <time>2020-06-29T07:36:52Z</time>
      </trkpt>
      <trkpt lat="48.69328" lon="6.91475">
        <ele>265.7</ele>
        <time>2020-06-29T07:36:53Z</time>
      </trkpt>
      <trkpt lat="48.69331" lon="6.91469">
        <ele>265.7</ele>
        <time>2020-06-29T07:36:54Z</time>
      </trkpt>
      <trkpt lat="48.69335" lon="6.91462">
        <ele>265.7</ele>
        <time>2020-06-29T07:36:55Z</time>
      </trkpt>
      <trkpt lat="48.69339" lon="6.91456">
        <ele>265.7</ele>
        <time>2020-06-29T07:36:56Z</time>
      </trkpt>
      <trkpt lat="48.69341" lon="6.91447">
        <ele>265.8</ele>
        <time>2020-06-29T07:36:57Z</time>
      </trkpt>
      <trkpt lat="48.69344" lon="6.9144">
        <ele>265.8</ele>
        <time>2020-06-29T07:36:58Z</time>
      </trkpt>
      <trkpt lat="48.69348" lon="6.91433">
        <ele>265.7</ele>
        <time>2020-06-29T07:36:59Z</time>
      </trkpt>
      <trkpt lat="48.69351" lon="6.91426">
        <ele>265.7</ele>
        <time>2020-06-29T07:37:00Z</time>
      </trkpt>
      <trkpt lat="48.69354" lon="6.9142">
        <ele>265.7</ele>
        <time>2020-06-29T07:37:01Z</time>
      </trkpt>
      <trkpt lat="48.69357" lon="6.91413">
        <ele>265.6</ele>
        <time>2020-06-29T07:37:02Z</time>
      </trkpt>
      <trkpt lat="48.69361" lon="6.91406">
        <ele>265.6</ele>
        <time>2020-06-29T07:37:03Z</time>
      </trkpt>
      <trkpt lat="48.69365" lon="6.91399">
        <ele>265.7</ele>
        <time>2020-06-29T07:37:04Z</time>
      </trkpt>
      <trkpt lat="48.69369" lon="6.91392">
        <ele>265.7</ele>
        <time>2020-06-29T07:37:05Z</time>
      </trkpt>
      <trkpt lat="48.69372" lon="6.91385">
        <ele>265.7</ele>
        <time>2020-06-29T07:37:06Z</time>
      </trkpt>
      <trkpt lat="48.69375" lon="6.91379">
        <ele>265.7</ele>
        <time>2020-06-29T07:37:07Z</time>
      </trkpt>
      <trkpt lat="48.69379" lon="6.91373">
        <ele>265.7</ele>
        <time>2020-06-29T07:37:08Z</time>
      </trkpt>
      <trkpt lat="48.69382" lon="6.91367">
        <ele>265.7</ele>
        <time>2020-06-29T07:37:09Z</time>
      </trkpt>
      <trkpt lat="48.69386" lon="6.91361">
        <ele>265.7</ele>
        <time>2020-06-29T07:37:10Z</time>
      </trkpt>
      <trkpt lat="48.6939" lon="6.91355">
        <ele>265.7</ele>
        <time>2020-06-29T07:37:11Z</time>
      </trkpt>
      <trkpt lat="48.69393" lon="6.91347">
        <ele>265.7</ele>
        <time>2020-06-29T07:37:12Z</time>
      </trkpt>
      <trkpt lat="48.69396" lon="6.9134">
        <ele>265.7</ele>
        <time>2020-06-29T07:37:13Z</time>
      </trkpt>
      <trkpt lat="48.694" lon="6.91333">
        <ele>265.7</ele>
        <time>2020-06-29T07:37:14Z</time>
      </trkpt>
      <trkpt lat="48.69403" lon="6.91326">
        <ele>265.7</ele>
        <time>2020-06-29T07:37:15Z</time>
      </trkpt>
      <trkpt lat="48.69407" lon="6.9132">
        <ele>265.8</ele>
        <time>2020-06-29T07:37:16Z</time>
      </trkpt>
      <trkpt lat="48.69412" lon="6.91314">
        <ele>265.8</ele>
        <time>2020-06-29T07:37:17Z</time>
      </trkpt>
      <trkpt lat="48.69416" lon="6.91307">
        <ele>265.8</ele>
        <time>2020-06-29T07:37:18Z</time>
      </trkpt>
      <trkpt lat="48.6942" lon="6.913">
        <ele>265.8</ele>
        <time>2020-06-29T07:37:19Z</time>
      </trkpt>
      <trkpt lat="48.69424" lon="6.91293">
        <ele>265.8</ele>
        <time>2020-06-29T07:37:20Z</time>
      </trkpt>
      <trkpt lat="48.69427" lon="6.91286">
        <ele>265.8</ele>
        <time>2020-06-29T07:37:21Z</time>
      </trkpt>
      <trkpt lat="48.69431" lon="6.91279">
        <ele>265.8</ele>
        <time>2020-06-29T07:37:22Z</time>
      </trkpt>
      <trkpt lat="48.69435" lon="6.91273">
        <ele>265.8</ele>
        <time>2020-06-29T07:37:23Z</time>
      </trkpt>
      <trkpt lat="48.69439" lon="6.91266">
        <ele>265.7</ele>
        <time>2020-06-29T07:37:24Z</time>
      </trkpt>
      <trkpt lat="48.69442" lon="6.91258">
        <ele>265.7</ele>
        <time>2020-06-29T07:37:25Z</time>
      </trkpt>
      <trkpt lat="48.69447" lon="6.91253">
        <ele>265.7</ele>
        <time>2020-06-29T07:37:26Z</time>
      </trkpt>
      <trkpt lat="48.69452" lon="6.91245">
        <ele>265.6</ele>
        <time>2020-06-29T07:37:27Z</time>
      </trkpt>
      <trkpt lat="48.69456" lon="6.91238">
        <ele>265.6</ele>
        <time>2020-06-29T07:37:28Z</time>
      </trkpt>
      <trkpt lat="48.69459" lon="6.91231">
        <ele>265.6</ele>
        <time>2020-06-29T07:37:29Z</time>
      </trkpt>
      <trkpt lat="48.69463" lon="6.91224">
        <ele>265.6</ele>
        <time>2020-06-29T07:37:30Z</time>
      </trkpt>
      <trkpt lat="48.69466" lon="6.91217">
        <ele>265.6</ele>
        <time>2020-06-29T07:37:31Z</time>
      </trkpt>
      <trkpt lat="48.6947" lon="6.91209">
        <ele>265.6</ele>
        <time>2020-06-29T07:37:32Z</time>
      </trkpt>
      <trkpt lat="48.69474" lon="6.91203">
        <ele>265.6</ele>
        <time>2020-06-29T07:37:33Z</time>
      </trkpt>
      <trkpt lat="48.69478" lon="6.91197">
        <ele>265.6</ele>
        <time>2020-06-29T07:37:34Z</time>
      </trkpt>
      <trkpt lat="48.69482" lon="6.9119">
        <ele>265.6</ele>
        <time>2020-06-29T07:37:35Z</time>
      </trkpt>
      <trkpt lat="48.69486" lon="6.91184">
        <ele>265.6</ele>
        <time>2020-06-29T07:37:36Z</time>
      </trkpt>
      <trkpt lat="48.6949" lon="6.91177">
        <ele>265.6</ele>
        <time>2020-06-29T07:37:37Z</time>
      </trkpt>
      <trkpt lat="48.69494" lon="6.91171">
        <ele>265.6</ele>
        <time>2020-06-29T07:37:38Z</time>
      </trkpt>
      <trkpt lat="48.69499" lon="6.91166">
        <ele>265.6</ele>
        <time>2020-06-29T07:37:39Z</time>
      </trkpt>
      <trkpt lat="48.69503" lon="6.9116">
        <ele>265.6</ele>
        <time>2020-06-29T07:37:40Z</time>
      </trkpt>
      <trkpt lat="48.69508" lon="6.91153">
        <ele>265.6</ele>
        <time>2020-06-29T07:37:41Z</time>
      </trkpt>
      <trkpt lat="48.69513" lon="6.91148">
        <ele>265.6</ele>
        <time>2020-06-29T07:37:42Z</time>
      </trkpt>
      <trkpt lat="48.69518" lon="6.91143">
        <ele>265.6</ele>
        <time>2020-06-29T07:37:43Z</time>
      </trkpt>
      <trkpt lat="48.69524" lon="6.91138">
        <ele>265.6</ele>
        <time>2020-06-29T07:37:44Z</time>
      </trkpt>
      <trkpt lat="48.6953" lon="6.91134">
        <ele>265.5</ele>
        <time>2020-06-29T07:37:45Z</time>
      </trkpt>
      <trkpt lat="48.69535" lon="6.91129">
        <ele>265.5</ele>
        <time>2020-06-29T07:37:46Z</time>
      </trkpt>
      <trkpt lat="48.6954" lon="6.91125">
        <ele>265.6</ele>
        <time>2020-06-29T07:37:47Z</time>
      </trkpt>
      <trkpt lat="48.69546" lon="6.91123">
        <ele>265.6</ele>
        <time>2020-06-29T07:37:48Z</time>
      </trkpt>
      <trkpt lat="48.69551" lon="6.9112">
        <ele>265.5</ele>
        <time>2020-06-29T07:37:49Z</time>
      </trkpt>
      <trkpt lat="48.69557" lon="6.91117">
        <ele>265.5</ele>
        <time>2020-06-29T07:37:50Z</time>
      </trkpt>
      <trkpt lat="48.69562" lon="6.91114">
        <ele>265.5</ele>
        <time>2020-06-29T07:37:51Z</time>
      </trkpt>
      <trkpt lat="48.69568" lon="6.9111">
        <ele>265.4</ele>
        <time>2020-06-29T07:37:52Z</time>
      </trkpt>
      <trkpt lat="48.69573" lon="6.91107">
        <ele>265.4</ele>
        <time>2020-06-29T07:37:53Z</time>
      </trkpt>
      <trkpt lat="48.69579" lon="6.91105">
        <ele>265.4</ele>
        <time>2020-06-29T07:37:54Z</time>
      </trkpt>
      <trkpt lat="48.69585" lon="6.91102">
        <ele>265.4</ele>
        <time>2020-06-29T07:37:55Z</time>
      </trkpt>
      <trkpt lat="48.6959" lon="6.911">
        <ele>265.4</ele>
        <time>2020-06-29T07:37:56Z</time>
      </trkpt>
      <trkpt lat="48.69596" lon="6.91098">
        <ele>265.4</ele>
        <time>2020-06-29T07:37:57Z</time>
      </trkpt>
      <trkpt lat="48.69602" lon="6.91095">
        <ele>265.4</ele>
        <time>2020-06-29T07:37:58Z</time>
      </trkpt>
      <trkpt lat="48.69607" lon="6.91092">
        <ele>265.3</ele>
        <time>2020-06-29T07:37:59Z</time>
      </trkpt>
      <trkpt lat="48.69613" lon="6.91088">
        <ele>265.3</ele>
        <time>2020-06-29T07:38:00Z</time>
      </trkpt>
      <trkpt lat="48.6962" lon="6.91086">
        <ele>265.3</ele>
        <time>2020-06-29T07:38:01Z</time>
      </trkpt>
      <trkpt lat="48.69626" lon="6.91084">
        <ele>265.3</ele>
        <time>2020-06-29T07:38:02Z</time>
      </trkpt>
      <trkpt lat="48.69632" lon="6.91081">
        <ele>265.3</ele>
        <time>2020-06-29T07:38:03Z</time>
      </trkpt>
      <trkpt lat="48.69638" lon="6.91077">
        <ele>265.3</ele>
        <time>2020-06-29T07:38:04Z</time>
      </trkpt>
      <trkpt lat="48.69644" lon="6.91074">
        <ele>265.3</ele>
        <time>2020-06-29T07:38:05Z</time>
      </trkpt>
      <trkpt lat="48.6965" lon="6.91072">
        <ele>265.2</ele>
        <time>2020-06-29T07:38:06Z</time>
      </trkpt>
      <trkpt lat="48.69656" lon="6.9107">
        <ele>265.2</ele>
        <time>2020-06-29T07:38:07Z</time>
      </trkpt>
      <trkpt lat="48.69662" lon="6.91068">
        <ele>265.2</ele>
        <time>2020-06-29T07:38:08Z</time>
      </trkpt>
      <trkpt lat="48.69668" lon="6.91064">
        <ele>265.2</ele>
        <time>2020-06-29T07:38:09Z</time>
      </trkpt>
      <trkpt lat="48.69673" lon="6.91061">
        <ele>265.2</ele>
        <time>2020-06-29T07:38:10Z</time>
      </trkpt>
      <trkpt lat="48.69679" lon="6.91058">
        <ele>265.2</ele>
        <time>2020-06-29T07:38:11Z</time>
      </trkpt>
      <trkpt lat="48.69685" lon="6.91055">
        <ele>265.2</ele>
        <time>2020-06-29T07:38:12Z</time>
      </trkpt>
      <trkpt lat="48.69692" lon="6.91053">
        <ele>265.1</ele>
        <time>2020-06-29T07:38:13Z</time>
      </trkpt>
      <trkpt lat="48.69698" lon="6.91051">
        <ele>265.1</ele>
        <time>2020-06-29T07:38:14Z</time>
      </trkpt>
      <trkpt lat="48.69703" lon="6.91049">
        <ele>265.1</ele>
        <time>2020-06-29T07:38:15Z</time>
      </trkpt>
      <trkpt lat="48.69708" lon="6.91044">
        <ele>265.1</ele>
        <time>2020-06-29T07:38:16Z</time>
      </trkpt>
      <trkpt lat="48.69713" lon="6.91041">
        <ele>265.1</ele>
        <time>2020-06-29T07:38:17Z</time>
      </trkpt>
      <trkpt lat="48.69719" lon="6.91037">
        <ele>265.1</ele>
        <time>2020-06-29T07:38:18Z</time>
      </trkpt>
      <trkpt lat="48.69726" lon="6.91035">
        <ele>265.1</ele>
        <time>2020-06-29T07:38:19Z</time>
      </trkpt>
      <trkpt lat="48.69732" lon="6.91033">
        <ele>265.1</ele>
        <time>2020-06-29T07:38:20Z</time>
      </trkpt>
      <trkpt lat="48.69738" lon="6.91032">
        <ele>265.1</ele>
        <time>2020-06-29T07:38:21Z</time>
      </trkpt>
      <trkpt lat="48.69745" lon="6.91031">
        <ele>265.1</ele>
        <time>2020-06-29T07:38:22Z</time>
      </trkpt>
      <trkpt lat="48.69751" lon="6.91028">
        <ele>265.1</ele>
        <time>2020-06-29T07:38:23Z</time>
      </trkpt>
      <trkpt lat="48.69757" lon="6.91026">
        <ele>265</ele>
        <time>2020-06-29T07:38:24Z</time>
      </trkpt>
      <trkpt lat="48.69764" lon="6.91024">
        <ele>265</ele>
        <time>2020-06-29T07:38:25Z</time>
      </trkpt>
      <trkpt lat="48.6977" lon="6.91022">
        <ele>265</ele>
        <time>2020-06-29T07:38:26Z</time>
      </trkpt>
      <trkpt lat="48.69776" lon="6.91019">
        <ele>265</ele>
        <time>2020-06-29T07:38:27Z</time>
      </trkpt>
      <trkpt lat="48.69782" lon="6.91017">
        <ele>265.1</ele>
        <time>2020-06-29T07:38:28Z</time>
      </trkpt>
      <trkpt lat="48.69788" lon="6.91015">
        <ele>265.1</ele>
        <time>2020-06-29T07:38:29Z</time>
      </trkpt>
      <trkpt lat="48.69795" lon="6.91012">
        <ele>265.1</ele>
        <time>2020-06-29T07:38:30Z</time>
      </trkpt>
      <trkpt lat="48.69801" lon="6.9101">
        <ele>265.1</ele>
        <time>2020-06-29T07:38:31Z</time>
      </trkpt>
      <trkpt lat="48.69807" lon="6.91008">
        <ele>265.1</ele>
        <time>2020-06-29T07:38:32Z</time>
      </trkpt>
      <trkpt lat="48.69813" lon="6.91006">
        <ele>265.1</ele>
        <time>2020-06-29T07:38:33Z</time>
      </trkpt>
      <trkpt lat="48.6982" lon="6.91004">
        <ele>265.1</ele>
        <time>2020-06-29T07:38:34Z</time>
      </trkpt>
      <trkpt lat="48.69826" lon="6.91001">
        <ele>265.1</ele>
        <time>2020-06-29T07:38:35Z</time>
      </trkpt>
      <trkpt lat="48.69832" lon="6.90999">
        <ele>265.1</ele>
        <time>2020-06-29T07:38:36Z</time>
      </trkpt>
      <trkpt lat="48.69837" lon="6.90996">
        <ele>265.2</ele>
        <time>2020-06-29T07:38:37Z</time>
      </trkpt>
      <trkpt lat="48.69843" lon="6.90993">
        <ele>265.2</ele>
        <time>2020-06-29T07:38:38Z</time>
      </trkpt>
      <trkpt lat="48.69849" lon="6.90991">
        <ele>265.2</ele>
        <time>2020-06-29T07:38:39Z</time>
      </trkpt>
      <trkpt lat="48.69855" lon="6.90989">
        <ele>265.2</ele>
        <time>2020-06-29T07:38:40Z</time>
      </trkpt>
      <trkpt lat="48.69861" lon="6.90988">
        <ele>265.2</ele>
        <time>2020-06-29T07:38:41Z</time>
      </trkpt>
      <trkpt lat="48.69867" lon="6.90986">
        <ele>265.2</ele>
        <time>2020-06-29T07:38:42Z</time>
      </trkpt>
      <trkpt lat="48.69873" lon="6.90983">
        <ele>265.2</ele>
        <time>2020-06-29T07:38:43Z</time>
      </trkpt>
      <trkpt lat="48.69879" lon="6.9098">
        <ele>265.2</ele>
        <time>2020-06-29T07:38:44Z</time>
      </trkpt>
      <trkpt lat="48.69884" lon="6.90978">
        <ele>265.2</ele>
        <time>2020-06-29T07:38:45Z</time>
      </trkpt>
      <trkpt lat="48.69889" lon="6.90975">
        <ele>265.3</ele>
        <time>2020-06-29T07:38:46Z</time>
      </trkpt>
      <trkpt lat="48.69895" lon="6.90973">
        <ele>265.3</ele>
        <time>2020-06-29T07:38:47Z</time>
      </trkpt>
      <trkpt lat="48.699" lon="6.9097">
        <ele>265.4</ele>
        <time>2020-06-29T07:38:48Z</time>
      </trkpt>
      <trkpt lat="48.69904" lon="6.90968">
        <ele>265.4</ele>
        <time>2020-06-29T07:38:49Z</time>
      </trkpt>
      <trkpt lat="48.69908" lon="6.90966">
        <ele>265.5</ele>
        <time>2020-06-29T07:38:50Z</time>
      </trkpt>
      <trkpt lat="48.69911" lon="6.90965">
        <ele>265.6</ele>
        <time>2020-06-29T07:38:51Z</time>
      </trkpt>
      <trkpt lat="48.69915" lon="6.90963">
        <ele>265.7</ele>
        <time>2020-06-29T07:38:52Z</time>
      </trkpt>
      <trkpt lat="48.69921" lon="6.90962">
        <ele>265.8</ele>
        <time>2020-06-29T07:38:53Z</time>
      </trkpt>
      <trkpt lat="48.69927" lon="6.90959">
        <ele>265.8</ele>
        <time>2020-06-29T07:38:54Z</time>
      </trkpt>
      <trkpt lat="48.69932" lon="6.90956">
        <ele>265.7</ele>
        <time>2020-06-29T07:38:55Z</time>
      </trkpt>
      <trkpt lat="48.69936" lon="6.90953">
        <ele>265.6</ele>
        <time>2020-06-29T07:38:56Z</time>
      </trkpt>
      <trkpt lat="48.69941" lon="6.9095">
        <ele>265.6</ele>
        <time>2020-06-29T07:38:57Z</time>
      </trkpt>
      <trkpt lat="48.69946" lon="6.90946">
        <ele>265.6</ele>
        <time>2020-06-29T07:38:58Z</time>
      </trkpt>
      <trkpt lat="48.69951" lon="6.90942">
        <ele>265.5</ele>
        <time>2020-06-29T07:38:59Z</time>
      </trkpt>
      <trkpt lat="48.69956" lon="6.90939">
        <ele>265.5</ele>
        <time>2020-06-29T07:39:00Z</time>
      </trkpt>
      <trkpt lat="48.69961" lon="6.90935">
        <ele>265.5</ele>
        <time>2020-06-29T07:39:01Z</time>
      </trkpt>
      <trkpt lat="48.69966" lon="6.90931">
        <ele>265.4</ele>
        <time>2020-06-29T07:39:02Z</time>
      </trkpt>
      <trkpt lat="48.69971" lon="6.90927">
        <ele>265.4</ele>
        <time>2020-06-29T07:39:03Z</time>
      </trkpt>
      <trkpt lat="48.69976" lon="6.90924">
        <ele>265.3</ele>
        <time>2020-06-29T07:39:04Z</time>
      </trkpt>
      <trkpt lat="48.69981" lon="6.9092">
        <ele>265.3</ele>
        <time>2020-06-29T07:39:05Z</time>
      </trkpt>
      <trkpt lat="48.69986" lon="6.90917">
        <ele>265.3</ele>
        <time>2020-06-29T07:39:06Z</time>
      </trkpt>
      <trkpt lat="48.6999" lon="6.90912">
        <ele>265.3</ele>
        <time>2020-06-29T07:39:07Z</time>
      </trkpt>
      <trkpt lat="48.69994" lon="6.90907">
        <ele>265.3</ele>
        <time>2020-06-29T07:39:08Z</time>
      </trkpt>
      <trkpt lat="48.69999" lon="6.909">
        <ele>265.3</ele>
        <time>2020-06-29T07:39:09Z</time>
      </trkpt>
      <trkpt lat="48.70004" lon="6.90893">
        <ele>265.3</ele>
        <time>2020-06-29T07:39:10Z</time>
      </trkpt>
      <trkpt lat="48.70009" lon="6.90888">
        <ele>265.3</ele>
        <time>2020-06-29T07:39:11Z</time>
      </trkpt>
      <trkpt lat="48.70014" lon="6.90882">
        <ele>265.3</ele>
        <time>2020-06-29T07:39:12Z</time>
      </trkpt>
      <trkpt lat="48.7002" lon="6.90878">
        <ele>265.3</ele>
        <time>2020-06-29T07:39:13Z</time>
      </trkpt>
      <trkpt lat="48.70024" lon="6.90873">
        <ele>265.3</ele>
        <time>2020-06-29T07:39:14Z</time>
      </trkpt>
      <trkpt lat="48.70027" lon="6.90866">
        <ele>265.2</ele>
        <time>2020-06-29T07:39:15Z</time>
      </trkpt>
      <trkpt lat="48.70031" lon="6.9086">
        <ele>265.2</ele>
        <time>2020-06-29T07:39:16Z</time>
      </trkpt>
      <trkpt lat="48.70037" lon="6.90855">
        <ele>265.1</ele>
        <time>2020-06-29T07:39:17Z</time>
      </trkpt>
      <trkpt lat="48.70041" lon="6.90849">
        <ele>265.1</ele>
        <time>2020-06-29T07:39:18Z</time>
      </trkpt>
      <trkpt lat="48.70046" lon="6.90844">
        <ele>265</ele>
        <time>2020-06-29T07:39:19Z</time>
      </trkpt>
      <trkpt lat="48.7005" lon="6.90837">
        <ele>265</ele>
        <time>2020-06-29T07:39:20Z</time>
      </trkpt>
      <trkpt lat="48.70054" lon="6.90831">
        <ele>265</ele>
        <time>2020-06-29T07:39:21Z</time>
      </trkpt>
      <trkpt lat="48.70058" lon="6.90823">
        <ele>265</ele>
        <time>2020-06-29T07:39:22Z</time>
      </trkpt>
      <trkpt lat="48.70062" lon="6.90816">
        <ele>265</ele>
        <time>2020-06-29T07:39:23Z</time>
      </trkpt>
      <trkpt lat="48.70068" lon="6.90811">
        <ele>265</ele>
        <time>2020-06-29T07:39:24Z</time>
      </trkpt>
      <trkpt lat="48.70073" lon="6.90805">
        <ele>265</ele>
        <time>2020-06-29T07:39:25Z</time>
      </trkpt>
      <trkpt lat="48.70077" lon="6.90798">
        <ele>264.9</ele>
        <time>2020-06-29T07:39:26Z</time>
      </trkpt>
      <trkpt lat="48.7008" lon="6.90791">
        <ele>264.9</ele>
        <time>2020-06-29T07:39:27Z</time>
      </trkpt>
      <trkpt lat="48.70084" lon="6.90784">
        <ele>264.9</ele>
        <time>2020-06-29T07:39:28Z</time>
      </trkpt>
      <trkpt lat="48.70088" lon="6.90778">
        <ele>264.9</ele>
        <time>2020-06-29T07:39:29Z</time>
      </trkpt>
      <trkpt lat="48.70092" lon="6.90772">
        <ele>265</ele>
        <time>2020-06-29T07:39:30Z</time>
      </trkpt>
      <trkpt lat="48.70096" lon="6.90765">
        <ele>265</ele>
        <time>2020-06-29T07:39:31Z</time>
      </trkpt>
      <trkpt lat="48.701" lon="6.90758">
        <ele>265</ele>
        <time>2020-06-29T07:39:32Z</time>
      </trkpt>
      <trkpt lat="48.70104" lon="6.90751">
        <ele>265</ele>
        <time>2020-06-29T07:39:33Z</time>
      </trkpt>
      <trkpt lat="48.70107" lon="6.90745">
        <ele>265</ele>
        <time>2020-06-29T07:39:34Z</time>
      </trkpt>
      <trkpt lat="48.70111" lon="6.90738">
        <ele>265</ele>
        <time>2020-06-29T07:39:35Z</time>
      </trkpt>
      <trkpt lat="48.70114" lon="6.90732">
        <ele>265</ele>
        <time>2020-06-29T07:39:36Z</time>
      </trkpt>
      <trkpt lat="48.70118" lon="6.90726">
        <ele>265</ele>
        <time>2020-06-29T07:39:37Z</time>
      </trkpt>
      <trkpt lat="48.70122" lon="6.9072">
        <ele>265</ele>
        <time>2020-06-29T07:39:38Z</time>
      </trkpt>
      <trkpt lat="48.70126" lon="6.90714">
        <ele>265</ele>
        <time>2020-06-29T07:39:39Z</time>
      </trkpt>
      <trkpt lat="48.70131" lon="6.90709">
        <ele>264.9</ele>
        <time>2020-06-29T07:39:40Z</time>
      </trkpt>
      <trkpt lat="48.70135" lon="6.90704">
        <ele>264.9</ele>
        <time>2020-06-29T07:39:41Z</time>
      </trkpt>
      <trkpt lat="48.70139" lon="6.90697">
        <ele>264.9</ele>
        <time>2020-06-29T07:39:42Z</time>
      </trkpt>
      <trkpt lat="48.70143" lon="6.9069">
        <ele>264.9</ele>
        <time>2020-06-29T07:39:43Z</time>
      </trkpt>
      <trkpt lat="48.70146" lon="6.90683">
        <ele>264.9</ele>
        <time>2020-06-29T07:39:44Z</time>
      </trkpt>
      <trkpt lat="48.7015" lon="6.90676">
        <ele>264.9</ele>
        <time>2020-06-29T07:39:45Z</time>
      </trkpt>
      <trkpt lat="48.70154" lon="6.9067">
        <ele>264.9</ele>
        <time>2020-06-29T07:39:46Z</time>
      </trkpt>
      <trkpt lat="48.70158" lon="6.90663">
        <ele>264.9</ele>
        <time>2020-06-29T07:39:47Z</time>
      </trkpt>
      <trkpt lat="48.70162" lon="6.90656">
        <ele>264.9</ele>
        <time>2020-06-29T07:39:48Z</time>
      </trkpt>
      <trkpt lat="48.70166" lon="6.9065">
        <ele>264.9</ele>
        <time>2020-06-29T07:39:49Z</time>
      </trkpt>
      <trkpt lat="48.70171" lon="6.90643">
        <ele>264.9</ele>
        <time>2020-06-29T07:39:50Z</time>
      </trkpt>
      <trkpt lat="48.70175" lon="6.90637">
        <ele>264.9</ele>
        <time>2020-06-29T07:39:51Z</time>
      </trkpt>
      <trkpt lat="48.70179" lon="6.9063">
        <ele>264.9</ele>
        <time>2020-06-29T07:39:52Z</time>
      </trkpt>
      <trkpt lat="48.70183" lon="6.90624">
        <ele>264.9</ele>
        <time>2020-06-29T07:39:53Z</time>
      </trkpt>
      <trkpt lat="48.70186" lon="6.90617">
        <ele>264.9</ele>
        <time>2020-06-29T07:39:54Z</time>
      </trkpt>
      <trkpt lat="48.7019" lon="6.9061">
        <ele>264.9</ele>
        <time>2020-06-29T07:39:55Z</time>
      </trkpt>
      <trkpt lat="48.70194" lon="6.90604">
        <ele>264.9</ele>
        <time>2020-06-29T07:39:56Z</time>
      </trkpt>
      <trkpt lat="48.70197" lon="6.90596">
        <ele>264.9</ele>
        <time>2020-06-29T07:39:57Z</time>
      </trkpt>
      <trkpt lat="48.70201" lon="6.90589">
        <ele>264.9</ele>
        <time>2020-06-29T07:39:58Z</time>
      </trkpt>
      <trkpt lat="48.70206" lon="6.90584">
        <ele>264.9</ele>
        <time>2020-06-29T07:39:59Z</time>
      </trkpt>
      <trkpt lat="48.70209" lon="6.90578">
        <ele>264.9</ele>
        <time>2020-06-29T07:40:00Z</time>
      </trkpt>
      <trkpt lat="48.70213" lon="6.90571">
        <ele>264.9</ele>
        <time>2020-06-29T07:40:01Z</time>
      </trkpt>
      <trkpt lat="48.70216" lon="6.90564">
        <ele>265</ele>
        <time>2020-06-29T07:40:02Z</time>
      </trkpt>
      <trkpt lat="48.7022" lon="6.90557">
        <ele>265.1</ele>
        <time>2020-06-29T07:40:03Z</time>
      </trkpt>
      <trkpt lat="48.70225" lon="6.90551">
        <ele>265.1</ele>
        <time>2020-06-29T07:40:04Z</time>
      </trkpt>
      <trkpt lat="48.70229" lon="6.90545">
        <ele>265.1</ele>
        <time>2020-06-29T07:40:05Z</time>
      </trkpt>
      <trkpt lat="48.70234" lon="6.90539">
        <ele>265.1</ele>
        <time>2020-06-29T07:40:06Z</time>
      </trkpt>
      <trkpt lat="48.70238" lon="6.90532">
        <ele>265</ele>
        <time>2020-06-29T07:40:07Z</time>
      </trkpt>
      <trkpt lat="48.70242" lon="6.90526">
        <ele>265</ele>
        <time>2020-06-29T07:40:08Z</time>
      </trkpt>
      <trkpt lat="48.70246" lon="6.9052">
        <ele>265</ele>
        <time>2020-06-29T07:40:09Z</time>
      </trkpt>
      <trkpt lat="48.70249" lon="6.90514">
        <ele>265</ele>
        <time>2020-06-29T07:40:10Z</time>
      </trkpt>
      <trkpt lat="48.70253" lon="6.90507">
        <ele>265</ele>
        <time>2020-06-29T07:40:11Z</time>
      </trkpt>
      <trkpt lat="48.70256" lon="6.90501">
        <ele>265</ele>
        <time>2020-06-29T07:40:12Z</time>
      </trkpt>
      <trkpt lat="48.70259" lon="6.90493">
        <ele>265</ele>
        <time>2020-06-29T07:40:13Z</time>
      </trkpt>
      <trkpt lat="48.70263" lon="6.90487">
        <ele>265</ele>
        <time>2020-06-29T07:40:14Z</time>
      </trkpt>
      <trkpt lat="48.70266" lon="6.90481">
        <ele>265</ele>
        <time>2020-06-29T07:40:15Z</time>
      </trkpt>
      <trkpt lat="48.7027" lon="6.90474">
        <ele>265</ele>
        <time>2020-06-29T07:40:16Z</time>
      </trkpt>
      <trkpt lat="48.70273" lon="6.90467">
        <ele>265</ele>
        <time>2020-06-29T07:40:17Z</time>
      </trkpt>
      <trkpt lat="48.70276" lon="6.9046">
        <ele>265</ele>
        <time>2020-06-29T07:40:18Z</time>
      </trkpt>
      <trkpt lat="48.7028" lon="6.90454">
        <ele>265.1</ele>
        <time>2020-06-29T07:40:19Z</time>
      </trkpt>
      <trkpt lat="48.70284" lon="6.90449">
        <ele>265.1</ele>
        <time>2020-06-29T07:40:20Z</time>
      </trkpt>
      <trkpt lat="48.70288" lon="6.90443">
        <ele>265.1</ele>
        <time>2020-06-29T07:40:21Z</time>
      </trkpt>
      <trkpt lat="48.70291" lon="6.90436">
        <ele>265.1</ele>
        <time>2020-06-29T07:40:22Z</time>
      </trkpt>
      <trkpt lat="48.70294" lon="6.90429">
        <ele>265.1</ele>
        <time>2020-06-29T07:40:23Z</time>
      </trkpt>
      <trkpt lat="48.70298" lon="6.90422">
        <ele>265</ele>
        <time>2020-06-29T07:40:24Z</time>
      </trkpt>
      <trkpt lat="48.70302" lon="6.90416">
        <ele>264.9</ele>
        <time>2020-06-29T07:40:25Z</time>
      </trkpt>
      <trkpt lat="48.70306" lon="6.90409">
        <ele>264.9</ele>
        <time>2020-06-29T07:40:26Z</time>
      </trkpt>
      <trkpt lat="48.70309" lon="6.90401">
        <ele>264.9</ele>
        <time>2020-06-29T07:40:27Z</time>
      </trkpt>
      <trkpt lat="48.70313" lon="6.90395">
        <ele>264.8</ele>
        <time>2020-06-29T07:40:28Z</time>
      </trkpt>
      <trkpt lat="48.70317" lon="6.90388">
        <ele>264.9</ele>
        <time>2020-06-29T07:40:29Z</time>
      </trkpt>
      <trkpt lat="48.70321" lon="6.90381">
        <ele>264.9</ele>
        <time>2020-06-29T07:40:30Z</time>
      </trkpt>
      <trkpt lat="48.70325" lon="6.90374">
        <ele>264.9</ele>
        <time>2020-06-29T07:40:31Z</time>
      </trkpt>
      <trkpt lat="48.70329" lon="6.90367">
        <ele>264.9</ele>
        <time>2020-06-29T07:40:32Z</time>
      </trkpt>
      <trkpt lat="48.70332" lon="6.90359">
        <ele>264.9</ele>
        <time>2020-06-29T07:40:33Z</time>
      </trkpt>
      <trkpt lat="48.70335" lon="6.90351">
        <ele>264.9</ele>
        <time>2020-06-29T07:40:34Z</time>
      </trkpt>
      <trkpt lat="48.70339" lon="6.90344">
        <ele>264.9</ele>
        <time>2020-06-29T07:40:35Z</time>
      </trkpt>
      <trkpt lat="48.70342" lon="6.90336">
        <ele>265</ele>
        <time>2020-06-29T07:40:36Z</time>
      </trkpt>
      <trkpt lat="48.70345" lon="6.90329">
        <ele>265</ele>
        <time>2020-06-29T07:40:37Z</time>
      </trkpt>
      <trkpt lat="48.70348" lon="6.90322">
        <ele>265</ele>
        <time>2020-06-29T07:40:38Z</time>
      </trkpt>
      <trkpt lat="48.7035" lon="6.90314">
        <ele>265</ele>
        <time>2020-06-29T07:40:39Z</time>
      </trkpt>
      <trkpt lat="48.70352" lon="6.90306">
        <ele>264.9</ele>
        <time>2020-06-29T07:40:40Z</time>
      </trkpt>
      <trkpt lat="48.70354" lon="6.90298">
        <ele>264.9</ele>
        <time>2020-06-29T07:40:41Z</time>
      </trkpt>
      <trkpt lat="48.70356" lon="6.90291">
        <ele>265</ele>
        <time>2020-06-29T07:40:42Z</time>
      </trkpt>
      <trkpt lat="48.70357" lon="6.90283">
        <ele>265.1</ele>
        <time>2020-06-29T07:40:43Z</time>
      </trkpt>
      <trkpt lat="48.7036" lon="6.90276">
        <ele>265.1</ele>
        <time>2020-06-29T07:40:44Z</time>
      </trkpt>
      <trkpt lat="48.70363" lon="6.90269">
        <ele>265.2</ele>
        <time>2020-06-29T07:40:45Z</time>
      </trkpt>
      <trkpt lat="48.70365" lon="6.90262">
        <ele>265.2</ele>
        <time>2020-06-29T07:40:46Z</time>
      </trkpt>
      <trkpt lat="48.70368" lon="6.90255">
        <ele>265.2</ele>
        <time>2020-06-29T07:40:47Z</time>
      </trkpt>
      <trkpt lat="48.70369" lon="6.90247">
        <ele>265.2</ele>
        <time>2020-06-29T07:40:48Z</time>
      </trkpt>
      <trkpt lat="48.70371" lon="6.9024">
        <ele>265.2</ele>
        <time>2020-06-29T07:40:49Z</time>
      </trkpt>
      <trkpt lat="48.70373" lon="6.90233">
        <ele>265.2</ele>
        <time>2020-06-29T07:40:50Z</time>
      </trkpt>
      <trkpt lat="48.70376" lon="6.90227">
        <ele>265.2</ele>
        <time>2020-06-29T07:40:51Z</time>
      </trkpt>
      <trkpt lat="48.70379" lon="6.9022">
        <ele>265.2</ele>
        <time>2020-06-29T07:40:52Z</time>
      </trkpt>
      <trkpt lat="48.70381" lon="6.90214">
        <ele>265.2</ele>
        <time>2020-06-29T07:40:53Z</time>
      </trkpt>
      <trkpt lat="48.70383" lon="6.90206">
        <ele>265.3</ele>
        <time>2020-06-29T07:40:54Z</time>
      </trkpt>
      <trkpt lat="48.70383" lon="6.90199">
        <ele>265.3</ele>
        <time>2020-06-29T07:40:55Z</time>
      </trkpt>
      <trkpt lat="48.70385" lon="6.90193">
        <ele>265.3</ele>
        <time>2020-06-29T07:40:56Z</time>
      </trkpt>
      <trkpt lat="48.70387" lon="6.90187">
        <ele>265.3</ele>
        <time>2020-06-29T07:40:57Z</time>
      </trkpt>
      <trkpt lat="48.7039" lon="6.90181">
        <ele>265.2</ele>
        <time>2020-06-29T07:40:58Z</time>
      </trkpt>
      <trkpt lat="48.70391" lon="6.90175">
        <ele>265.2</ele>
        <time>2020-06-29T07:40:59Z</time>
      </trkpt>
      <trkpt lat="48.70393" lon="6.90169">
        <ele>265.2</ele>
        <time>2020-06-29T07:41:00Z</time>
      </trkpt>
      <trkpt lat="48.70393" lon="6.90162">
        <ele>265.2</ele>
        <time>2020-06-29T07:41:01Z</time>
      </trkpt>
      <trkpt lat="48.70394" lon="6.90155">
        <ele>265.2</ele>
        <time>2020-06-29T07:41:02Z</time>
      </trkpt>
      <trkpt lat="48.70396" lon="6.90149">
        <ele>265.1</ele>
        <time>2020-06-29T07:41:03Z</time>
      </trkpt>
      <trkpt lat="48.70397" lon="6.90142">
        <ele>265</ele>
        <time>2020-06-29T07:41:04Z</time>
      </trkpt>
      <trkpt lat="48.70399" lon="6.90135">
        <ele>265</ele>
        <time>2020-06-29T07:41:05Z</time>
      </trkpt>
      <trkpt lat="48.704" lon="6.90128">
        <ele>265</ele>
        <time>2020-06-29T07:41:06Z</time>
      </trkpt>
      <trkpt lat="48.70402" lon="6.90121">
        <ele>265</ele>
        <time>2020-06-29T07:41:07Z</time>
      </trkpt>
      <trkpt lat="48.70404" lon="6.90113">
        <ele>265</ele>
        <time>2020-06-29T07:41:08Z</time>
      </trkpt>
      <trkpt lat="48.70406" lon="6.90105">
        <ele>265</ele>
        <time>2020-06-29T07:41:09Z</time>
      </trkpt>
      <trkpt lat="48.70407" lon="6.90097">
        <ele>265</ele>
        <time>2020-06-29T07:41:10Z</time>
      </trkpt>
      <trkpt lat="48.70408" lon="6.90089">
        <ele>265</ele>
        <time>2020-06-29T07:41:11Z</time>
      </trkpt>
      <trkpt lat="48.70409" lon="6.90081">
        <ele>265</ele>
        <time>2020-06-29T07:41:12Z</time>
      </trkpt>
      <trkpt lat="48.70411" lon="6.90073">
        <ele>264.9</ele>
        <time>2020-06-29T07:41:13Z</time>
      </trkpt>
      <trkpt lat="48.70412" lon="6.90065">
        <ele>264.9</ele>
        <time>2020-06-29T07:41:14Z</time>
      </trkpt>
      <trkpt lat="48.70413" lon="6.90057">
        <ele>264.9</ele>
        <time>2020-06-29T07:41:15Z</time>
      </trkpt>
      <trkpt lat="48.70415" lon="6.90049">
        <ele>264.9</ele>
        <time>2020-06-29T07:41:16Z</time>
      </trkpt>
      <trkpt lat="48.70416" lon="6.9004">
        <ele>264.9</ele>
        <time>2020-06-29T07:41:17Z</time>
      </trkpt>
      <trkpt lat="48.70418" lon="6.90032">
        <ele>264.9</ele>
        <time>2020-06-29T07:41:18Z</time>
      </trkpt>
      <trkpt lat="48.70419" lon="6.90024">
        <ele>264.9</ele>
        <time>2020-06-29T07:41:19Z</time>
      </trkpt>
      <trkpt lat="48.70421" lon="6.90016">
        <ele>264.9</ele>
        <time>2020-06-29T07:41:20Z</time>
      </trkpt>
      <trkpt lat="48.70423" lon="6.90008">
        <ele>264.9</ele>
        <time>2020-06-29T07:41:21Z</time>
      </trkpt>
      <trkpt lat="48.70425" lon="6.9">
        <ele>264.9</ele>
        <time>2020-06-29T07:41:22Z</time>
      </trkpt>
      <trkpt lat="48.70426" lon="6.89992">
        <ele>265</ele>
        <time>2020-06-29T07:41:23Z</time>
      </trkpt>
      <trkpt lat="48.70427" lon="6.89984">
        <ele>265</ele>
        <time>2020-06-29T07:41:24Z</time>
      </trkpt>
      <trkpt lat="48.70429" lon="6.89977">
        <ele>264.9</ele>
        <time>2020-06-29T07:41:25Z</time>
      </trkpt>
      <trkpt lat="48.70431" lon="6.89969">
        <ele>264.9</ele>
        <time>2020-06-29T07:41:26Z</time>
      </trkpt>
      <trkpt lat="48.70433" lon="6.89961">
        <ele>264.9</ele>
        <time>2020-06-29T07:41:27Z</time>
      </trkpt>
      <trkpt lat="48.70435" lon="6.89953">
        <ele>264.9</ele>
        <time>2020-06-29T07:41:28Z</time>
      </trkpt>
      <trkpt lat="48.70436" lon="6.89945">
        <ele>264.9</ele>
        <time>2020-06-29T07:41:29Z</time>
      </trkpt>
      <trkpt lat="48.70439" lon="6.89937">
        <ele>264.8</ele>
        <time>2020-06-29T07:41:30Z</time>
      </trkpt>
      <trkpt lat="48.70441" lon="6.89929">
        <ele>264.8</ele>
        <time>2020-06-29T07:41:31Z</time>
      </trkpt>
      <trkpt lat="48.70443" lon="6.89921">
        <ele>264.8</ele>
        <time>2020-06-29T07:41:32Z</time>
      </trkpt>
      <trkpt lat="48.70443" lon="6.89912">
        <ele>264.8</ele>
        <time>2020-06-29T07:41:33Z</time>
      </trkpt>
      <trkpt lat="48.70444" lon="6.89904">
        <ele>264.8</ele>
        <time>2020-06-29T07:41:34Z</time>
      </trkpt>
      <trkpt lat="48.70447" lon="6.89896">
        <ele>264.9</ele>
        <time>2020-06-29T07:41:35Z</time>
      </trkpt>
      <trkpt lat="48.70449" lon="6.89888">
        <ele>264.9</ele>
        <time>2020-06-29T07:41:36Z</time>
      </trkpt>
      <trkpt lat="48.70451" lon="6.8988">
        <ele>265</ele>
        <time>2020-06-29T07:41:37Z</time>
      </trkpt>
      <trkpt lat="48.70453" lon="6.89872">
        <ele>265</ele>
        <time>2020-06-29T07:41:38Z</time>
      </trkpt>
      <trkpt lat="48.70455" lon="6.89863">
        <ele>265</ele>
        <time>2020-06-29T07:41:39Z</time>
      </trkpt>
      <trkpt lat="48.70457" lon="6.89855">
        <ele>265.1</ele>
        <time>2020-06-29T07:41:40Z</time>
      </trkpt>
      <trkpt lat="48.70459" lon="6.89847">
        <ele>265</ele>
        <time>2020-06-29T07:41:41Z</time>
      </trkpt>
      <trkpt lat="48.7046" lon="6.89838">
        <ele>265</ele>
        <time>2020-06-29T07:41:42Z</time>
      </trkpt>
      <trkpt lat="48.70462" lon="6.8983">
        <ele>265</ele>
        <time>2020-06-29T07:41:43Z</time>
      </trkpt>
      <trkpt lat="48.70464" lon="6.89822">
        <ele>265</ele>
        <time>2020-06-29T07:41:44Z</time>
      </trkpt>
      <trkpt lat="48.70466" lon="6.89813">
        <ele>265</ele>
        <time>2020-06-29T07:41:45Z</time>
      </trkpt>
      <trkpt lat="48.70467" lon="6.89805">
        <ele>265</ele>
        <time>2020-06-29T07:41:46Z</time>
      </trkpt>
      <trkpt lat="48.70468" lon="6.89797">
        <ele>264.9</ele>
        <time>2020-06-29T07:41:47Z</time>
      </trkpt>
      <trkpt lat="48.7047" lon="6.89788">
        <ele>264.9</ele>
        <time>2020-06-29T07:41:48Z</time>
      </trkpt>
      <trkpt lat="48.70471" lon="6.8978">
        <ele>265</ele>
        <time>2020-06-29T07:41:49Z</time>
      </trkpt>
      <trkpt lat="48.70472" lon="6.89772">
        <ele>265</ele>
        <time>2020-06-29T07:41:50Z</time>
      </trkpt>
      <trkpt lat="48.70474" lon="6.89764">
        <ele>265</ele>
        <time>2020-06-29T07:41:51Z</time>
      </trkpt>
      <trkpt lat="48.70475" lon="6.89755">
        <ele>265</ele>
        <time>2020-06-29T07:41:52Z</time>
      </trkpt>
      <trkpt lat="48.70477" lon="6.89747">
        <ele>265</ele>
        <time>2020-06-29T07:41:53Z</time>
      </trkpt>
      <trkpt lat="48.70479" lon="6.89739">
        <ele>265</ele>
        <time>2020-06-29T07:41:54Z</time>
      </trkpt>
      <trkpt lat="48.7048" lon="6.89731">
        <ele>265</ele>
        <time>2020-06-29T07:41:55Z</time>
      </trkpt>
      <trkpt lat="48.70482" lon="6.89723">
        <ele>265</ele>
        <time>2020-06-29T07:41:56Z</time>
      </trkpt>
      <trkpt lat="48.70483" lon="6.89715">
        <ele>265</ele>
        <time>2020-06-29T07:41:57Z</time>
      </trkpt>
      <trkpt lat="48.70485" lon="6.89706">
        <ele>264.9</ele>
        <time>2020-06-29T07:41:58Z</time>
      </trkpt>
      <trkpt lat="48.70487" lon="6.89697">
        <ele>264.9</ele>
        <time>2020-06-29T07:41:59Z</time>
      </trkpt>
      <trkpt lat="48.70489" lon="6.89689">
        <ele>264.9</ele>
        <time>2020-06-29T07:42:00Z</time>
      </trkpt>
      <trkpt lat="48.7049" lon="6.8968">
        <ele>264.9</ele>
        <time>2020-06-29T07:42:01Z</time>
      </trkpt>
      <trkpt lat="48.70491" lon="6.89671">
        <ele>264.9</ele>
        <time>2020-06-29T07:42:02Z</time>
      </trkpt>
      <trkpt lat="48.70493" lon="6.89663">
        <ele>264.9</ele>
        <time>2020-06-29T07:42:03Z</time>
      </trkpt>
      <trkpt lat="48.70495" lon="6.89654">
        <ele>264.9</ele>
        <time>2020-06-29T07:42:04Z</time>
      </trkpt>
      <trkpt lat="48.70496" lon="6.89645">
        <ele>264.9</ele>
        <time>2020-06-29T07:42:05Z</time>
      </trkpt>
      <trkpt lat="48.70498" lon="6.89637">
        <ele>265</ele>
        <time>2020-06-29T07:42:06Z</time>
      </trkpt>
      <trkpt lat="48.705" lon="6.89628">
        <ele>265</ele>
        <time>2020-06-29T07:42:07Z</time>
      </trkpt>
      <trkpt lat="48.70502" lon="6.8962">
        <ele>265</ele>
        <time>2020-06-29T07:42:08Z</time>
      </trkpt>
      <trkpt lat="48.70504" lon="6.89611">
        <ele>265</ele>
        <time>2020-06-29T07:42:09Z</time>
      </trkpt>
      <trkpt lat="48.70505" lon="6.89603">
        <ele>265</ele>
        <time>2020-06-29T07:42:10Z</time>
      </trkpt>
      <trkpt lat="48.70506" lon="6.89594">
        <ele>265</ele>
        <time>2020-06-29T07:42:11Z</time>
      </trkpt>
      <trkpt lat="48.70508" lon="6.89585">
        <ele>265</ele>
        <time>2020-06-29T07:42:12Z</time>
      </trkpt>
      <trkpt lat="48.70509" lon="6.89577">
        <ele>264.9</ele>
        <time>2020-06-29T07:42:13Z</time>
      </trkpt>
      <trkpt lat="48.70511" lon="6.89569">
        <ele>264.9</ele>
        <time>2020-06-29T07:42:14Z</time>
      </trkpt>
      <trkpt lat="48.70513" lon="6.8956">
        <ele>264.9</ele>
        <time>2020-06-29T07:42:15Z</time>
      </trkpt>
      <trkpt lat="48.70515" lon="6.89552">
        <ele>264.9</ele>
        <time>2020-06-29T07:42:16Z</time>
      </trkpt>
      <trkpt lat="48.70517" lon="6.89543">
        <ele>264.9</ele>
        <time>2020-06-29T07:42:17Z</time>
      </trkpt>
      <trkpt lat="48.70518" lon="6.89534">
        <ele>265</ele>
        <time>2020-06-29T07:42:18Z</time>
      </trkpt>
      <trkpt lat="48.7052" lon="6.89526">
        <ele>265</ele>
        <time>2020-06-29T07:42:19Z</time>
      </trkpt>
      <trkpt lat="48.70522" lon="6.89518">
        <ele>265</ele>
        <time>2020-06-29T07:42:20Z</time>
      </trkpt>
      <trkpt lat="48.70524" lon="6.8951">
        <ele>265.1</ele>
        <time>2020-06-29T07:42:21Z</time>
      </trkpt>
      <trkpt lat="48.70525" lon="6.89502">
        <ele>265.1</ele>
        <time>2020-06-29T07:42:22Z</time>
      </trkpt>
      <trkpt lat="48.70528" lon="6.89494">
        <ele>265.1</ele>
        <time>2020-06-29T07:42:23Z</time>
      </trkpt>
      <trkpt lat="48.70529" lon="6.89486">
        <ele>265.1</ele>
        <time>2020-06-29T07:42:24Z</time>
      </trkpt>
      <trkpt lat="48.7053" lon="6.89477">
        <ele>265.1</ele>
        <time>2020-06-29T07:42:25Z</time>
      </trkpt>
      <trkpt lat="48.70531" lon="6.89469">
        <ele>265.1</ele>
        <time>2020-06-29T07:42:26Z</time>
      </trkpt>
      <trkpt lat="48.70533" lon="6.89461">
        <ele>265</ele>
        <time>2020-06-29T07:42:27Z</time>
      </trkpt>
      <trkpt lat="48.70535" lon="6.89453">
        <ele>265</ele>
        <time>2020-06-29T07:42:28Z</time>
      </trkpt>
      <trkpt lat="48.70537" lon="6.89445">
        <ele>265</ele>
        <time>2020-06-29T07:42:29Z</time>
      </trkpt>
      <trkpt lat="48.70539" lon="6.89436">
        <ele>265</ele>
        <time>2020-06-29T07:42:30Z</time>
      </trkpt>
      <trkpt lat="48.70541" lon="6.89428">
        <ele>265</ele>
        <time>2020-06-29T07:42:31Z</time>
      </trkpt>
      <trkpt lat="48.70543" lon="6.8942">
        <ele>265</ele>
        <time>2020-06-29T07:42:32Z</time>
      </trkpt>
      <trkpt lat="48.70545" lon="6.89412">
        <ele>264.9</ele>
        <time>2020-06-29T07:42:33Z</time>
      </trkpt>
      <trkpt lat="48.70546" lon="6.89403">
        <ele>264.9</ele>
        <time>2020-06-29T07:42:34Z</time>
      </trkpt>
      <trkpt lat="48.70548" lon="6.89396">
        <ele>265</ele>
        <time>2020-06-29T07:42:35Z</time>
      </trkpt>
      <trkpt lat="48.70549" lon="6.89388">
        <ele>265</ele>
        <time>2020-06-29T07:42:36Z</time>
      </trkpt>
      <trkpt lat="48.70551" lon="6.8938">
        <ele>265</ele>
        <time>2020-06-29T07:42:37Z</time>
      </trkpt>
      <trkpt lat="48.70552" lon="6.89373">
        <ele>265</ele>
        <time>2020-06-29T07:42:38Z</time>
      </trkpt>
      <trkpt lat="48.70553" lon="6.89365">
        <ele>265</ele>
        <time>2020-06-29T07:42:39Z</time>
      </trkpt>
      <trkpt lat="48.70555" lon="6.89357">
        <ele>265</ele>
        <time>2020-06-29T07:42:40Z</time>
      </trkpt>
      <trkpt lat="48.70556" lon="6.89349">
        <ele>265</ele>
        <time>2020-06-29T07:42:41Z</time>
      </trkpt>
      <trkpt lat="48.70557" lon="6.89341">
        <ele>265</ele>
        <time>2020-06-29T07:42:42Z</time>
      </trkpt>
      <trkpt lat="48.70558" lon="6.89333">
        <ele>265</ele>
        <time>2020-06-29T07:42:43Z</time>
      </trkpt>
      <trkpt lat="48.70559" lon="6.89325">
        <ele>265</ele>
        <time>2020-06-29T07:42:44Z</time>
      </trkpt>
      <trkpt lat="48.70561" lon="6.89317">
        <ele>265</ele>
        <time>2020-06-29T07:42:45Z</time>
      </trkpt>
      <trkpt lat="48.70563" lon="6.89309">
        <ele>265</ele>
        <time>2020-06-29T07:42:46Z</time>
      </trkpt>
      <trkpt lat="48.70565" lon="6.893">
        <ele>265.1</ele>
        <time>2020-06-29T07:42:47Z</time>
      </trkpt>
      <trkpt lat="48.70566" lon="6.89291">
        <ele>265</ele>
        <time>2020-06-29T07:42:48Z</time>
      </trkpt>
      <trkpt lat="48.70568" lon="6.89282">
        <ele>265</ele>
        <time>2020-06-29T07:42:49Z</time>
      </trkpt>
      <trkpt lat="48.7057" lon="6.89274">
        <ele>265</ele>
        <time>2020-06-29T07:42:50Z</time>
      </trkpt>
      <trkpt lat="48.70572" lon="6.89265">
        <ele>264.9</ele>
        <time>2020-06-29T07:42:51Z</time>
      </trkpt>
      <trkpt lat="48.70574" lon="6.89257">
        <ele>264.9</ele>
        <time>2020-06-29T07:42:52Z</time>
      </trkpt>
      <trkpt lat="48.70575" lon="6.89248">
        <ele>264.9</ele>
        <time>2020-06-29T07:42:53Z</time>
      </trkpt>
      <trkpt lat="48.70577" lon="6.8924">
        <ele>264.9</ele>
        <time>2020-06-29T07:42:54Z</time>
      </trkpt>
      <trkpt lat="48.70579" lon="6.89232">
        <ele>264.9</ele>
        <time>2020-06-29T07:42:55Z</time>
      </trkpt>
      <trkpt lat="48.7058" lon="6.89223">
        <ele>264.9</ele>
        <time>2020-06-29T07:42:56Z</time>
      </trkpt>
      <trkpt lat="48.70582" lon="6.89215">
        <ele>265</ele>
        <time>2020-06-29T07:42:57Z</time>
      </trkpt>
      <trkpt lat="48.70584" lon="6.89207">
        <ele>265</ele>
        <time>2020-06-29T07:42:58Z</time>
      </trkpt>
      <trkpt lat="48.70585" lon="6.89198">
        <ele>265</ele>
        <time>2020-06-29T07:42:59Z</time>
      </trkpt>
      <trkpt lat="48.70587" lon="6.8919">
        <ele>265</ele>
        <time>2020-06-29T07:43:00Z</time>
      </trkpt>
      <trkpt lat="48.70588" lon="6.89181">
        <ele>265</ele>
        <time>2020-06-29T07:43:01Z</time>
      </trkpt>
      <trkpt lat="48.70589" lon="6.89173">
        <ele>265</ele>
        <time>2020-06-29T07:43:02Z</time>
      </trkpt>
      <trkpt lat="48.70591" lon="6.89165">
        <ele>265</ele>
        <time>2020-06-29T07:43:03Z</time>
      </trkpt>
      <trkpt lat="48.70594" lon="6.89157">
        <ele>265</ele>
        <time>2020-06-29T07:43:04Z</time>
      </trkpt>
      <trkpt lat="48.70596" lon="6.89149">
        <ele>265</ele>
        <time>2020-06-29T07:43:05Z</time>
      </trkpt>
      <trkpt lat="48.70597" lon="6.89141">
        <ele>265</ele>
        <time>2020-06-29T07:43:06Z</time>
      </trkpt>
      <trkpt lat="48.70599" lon="6.89133">
        <ele>265</ele>
        <time>2020-06-29T07:43:07Z</time>
      </trkpt>
      <trkpt lat="48.706" lon="6.89124">
        <ele>265</ele>
        <time>2020-06-29T07:43:08Z</time>
      </trkpt>
      <trkpt lat="48.70602" lon="6.89116">
        <ele>265</ele>
        <time>2020-06-29T07:43:09Z</time>
      </trkpt>
      <trkpt lat="48.70605" lon="6.89108">
        <ele>265.1</ele>
        <time>2020-06-29T07:43:10Z</time>
      </trkpt>
      <trkpt lat="48.70606" lon="6.89099">
        <ele>265.1</ele>
        <time>2020-06-29T07:43:11Z</time>
      </trkpt>
      <trkpt lat="48.70608" lon="6.89091">
        <ele>265.1</ele>
        <time>2020-06-29T07:43:12Z</time>
      </trkpt>
      <trkpt lat="48.70609" lon="6.89082">
        <ele>265.1</ele>
        <time>2020-06-29T07:43:13Z</time>
      </trkpt>
      <trkpt lat="48.70611" lon="6.89074">
        <ele>265</ele>
        <time>2020-06-29T07:43:14Z</time>
      </trkpt>
      <trkpt lat="48.70612" lon="6.89065">
        <ele>265</ele>
        <time>2020-06-29T07:43:15Z</time>
      </trkpt>
      <trkpt lat="48.70614" lon="6.89056">
        <ele>265</ele>
        <time>2020-06-29T07:43:16Z</time>
      </trkpt>
      <trkpt lat="48.70616" lon="6.89048">
        <ele>265</ele>
        <time>2020-06-29T07:43:17Z</time>
      </trkpt>
      <trkpt lat="48.70617" lon="6.8904">
        <ele>265</ele>
        <time>2020-06-29T07:43:18Z</time>
      </trkpt>
      <trkpt lat="48.70618" lon="6.89031">
        <ele>265</ele>
        <time>2020-06-29T07:43:19Z</time>
      </trkpt>
      <trkpt lat="48.7062" lon="6.89023">
        <ele>264.9</ele>
        <time>2020-06-29T07:43:20Z</time>
      </trkpt>
      <trkpt lat="48.70622" lon="6.89014">
        <ele>264.9</ele>
        <time>2020-06-29T07:43:21Z</time>
      </trkpt>
      <trkpt lat="48.70623" lon="6.89005">
        <ele>264.9</ele>
        <time>2020-06-29T07:43:22Z</time>
      </trkpt>
      <trkpt lat="48.70625" lon="6.88996">
        <ele>264.9</ele>
        <time>2020-06-29T07:43:23Z</time>
      </trkpt>
      <trkpt lat="48.70628" lon="6.88987">
        <ele>264.9</ele>
        <time>2020-06-29T07:43:24Z</time>
      </trkpt>
      <trkpt lat="48.70629" lon="6.88978">
        <ele>265</ele>
        <time>2020-06-29T07:43:25Z</time>
      </trkpt>
      <trkpt lat="48.7063" lon="6.88969">
        <ele>265</ele>
        <time>2020-06-29T07:43:26Z</time>
      </trkpt>
      <trkpt lat="48.70632" lon="6.8896">
        <ele>265</ele>
        <time>2020-06-29T07:43:27Z</time>
      </trkpt>
      <trkpt lat="48.70633" lon="6.88952">
        <ele>265</ele>
        <time>2020-06-29T07:43:28Z</time>
      </trkpt>
      <trkpt lat="48.70635" lon="6.88943">
        <ele>265</ele>
        <time>2020-06-29T07:43:29Z</time>
      </trkpt>
      <trkpt lat="48.70636" lon="6.88934">
        <ele>265</ele>
        <time>2020-06-29T07:43:30Z</time>
      </trkpt>
      <trkpt lat="48.70637" lon="6.88926">
        <ele>265</ele>
        <time>2020-06-29T07:43:31Z</time>
      </trkpt>
      <trkpt lat="48.70639" lon="6.88917">
        <ele>265.1</ele>
        <time>2020-06-29T07:43:32Z</time>
      </trkpt>
      <trkpt lat="48.7064" lon="6.88909">
        <ele>265.1</ele>
        <time>2020-06-29T07:43:33Z</time>
      </trkpt>
      <trkpt lat="48.70641" lon="6.88901">
        <ele>265.2</ele>
        <time>2020-06-29T07:43:34Z</time>
      </trkpt>
      <trkpt lat="48.70642" lon="6.88892">
        <ele>265.2</ele>
        <time>2020-06-29T07:43:35Z</time>
      </trkpt>
      <trkpt lat="48.70643" lon="6.88885">
        <ele>265.2</ele>
        <time>2020-06-29T07:43:36Z</time>
      </trkpt>
      <trkpt lat="48.70644" lon="6.88877">
        <ele>265.3</ele>
        <time>2020-06-29T07:43:37Z</time>
      </trkpt>
      <trkpt lat="48.70645" lon="6.88871">
        <ele>265.3</ele>
        <time>2020-06-29T07:43:38Z</time>
      </trkpt>
      <trkpt lat="48.70645" lon="6.88865">
        <ele>265.4</ele>
        <time>2020-06-29T07:43:39Z</time>
      </trkpt>
      <trkpt lat="48.70645" lon="6.88862">
        <ele>265.4</ele>
        <time>2020-06-29T07:43:40Z</time>
      </trkpt>
      <trkpt lat="48.70646" lon="6.88862">
        <ele>265.4</ele>
        <time>2020-06-29T07:43:41Z</time>
      </trkpt>
      <trkpt lat="48.70646" lon="6.88861">
        <ele>265.5</ele>
        <time>2020-06-29T07:43:42Z</time>
      </trkpt>
      <trkpt lat="48.70646" lon="6.88861">
        <ele>265.5</ele>
        <time>2020-06-29T07:43:43Z</time>
      </trkpt>
      <trkpt lat="48.70646" lon="6.8886">
        <ele>265.5</ele>
        <time>2020-06-29T07:43:44Z</time>
      </trkpt>
      <trkpt lat="48.70647" lon="6.8886">
        <ele>265.5</ele>
        <time>2020-06-29T07:43:45Z</time>
      </trkpt>
      <trkpt lat="48.70647" lon="6.8886">
        <ele>265.5</ele>
        <time>2020-06-29T07:43:46Z</time>
      </trkpt>
      <trkpt lat="48.70647" lon="6.8886">
        <ele>265.5</ele>
        <time>2020-06-29T07:43:47Z</time>
      </trkpt>
      <trkpt lat="48.70647" lon="6.8886">
        <ele>265.5</ele>
        <time>2020-06-29T07:43:48Z</time>
      </trkpt>
      <trkpt lat="48.70647" lon="6.88859">
        <ele>265.5</ele>
        <time>2020-06-29T07:43:49Z</time>
      </trkpt>
      <trkpt lat="48.70647" lon="6.88859">
        <ele>265.5</ele>
        <time>2020-06-29T07:43:50Z</time>
      </trkpt>
      <trkpt lat="48.70648" lon="6.88858">
        <ele>265.6</ele>
        <time>2020-06-29T07:43:51Z</time>
      </trkpt>
      <trkpt lat="48.70648" lon="6.88858">
        <ele>265.6</ele>
        <time>2020-06-29T07:43:52Z</time>
      </trkpt>
      <trkpt lat="48.70648" lon="6.88857">
        <ele>265.6</ele>
        <time>2020-06-29T07:43:53Z</time>
      </trkpt>
      <trkpt lat="48.70648" lon="6.88856">
        <ele>265.6</ele>
        <time>2020-06-29T07:43:54Z</time>
      </trkpt>
      <trkpt lat="48.70648" lon="6.88856">
        <ele>265.6</ele>
        <time>2020-06-29T07:43:55Z</time>
      </trkpt>
      <trkpt lat="48.70647" lon="6.88855">
        <ele>265.6</ele>
        <time>2020-06-29T07:43:56Z</time>
      </trkpt>
      <trkpt lat="48.70647" lon="6.88855">
        <ele>265.7</ele>
        <time>2020-06-29T07:43:57Z</time>
      </trkpt>
      <trkpt lat="48.70647" lon="6.88854">
        <ele>265.7</ele>
        <time>2020-06-29T07:43:58Z</time>
      </trkpt>
      <trkpt lat="48.70647" lon="6.88853">
        <ele>265.7</ele>
        <time>2020-06-29T07:43:59Z</time>
      </trkpt>
      <trkpt lat="48.70647" lon="6.88853">
        <ele>265.7</ele>
        <time>2020-06-29T07:44:00Z</time>
      </trkpt>
      <trkpt lat="48.70646" lon="6.88852">
        <ele>265.7</ele>
        <time>2020-06-29T07:44:01Z</time>
      </trkpt>
      <trkpt lat="48.70646" lon="6.88852">
        <ele>265.7</ele>
        <time>2020-06-29T07:44:02Z</time>
      </trkpt>
      <trkpt lat="48.70646" lon="6.88851">
        <ele>265.8</ele>
        <time>2020-06-29T07:44:03Z</time>
      </trkpt>
      <trkpt lat="48.70646" lon="6.88851">
        <ele>265.8</ele>
        <time>2020-06-29T07:44:33Z</time>
      </trkpt>
      <trkpt lat="48.70646" lon="6.8885">
        <ele>265.8</ele>
        <time>2020-06-29T07:44:34Z</time>
      </trkpt>
      <trkpt lat="48.70645" lon="6.88849">
        <ele>265.8</ele>
        <time>2020-06-29T07:44:35Z</time>
      </trkpt>
      <trkpt lat="48.70647" lon="6.88845">
        <ele>265.9</ele>
        <time>2020-06-29T07:44:36Z</time>
      </trkpt>
      <trkpt lat="48.70648" lon="6.88843">
        <ele>265.9</ele>
        <time>2020-06-29T07:44:37Z</time>
      </trkpt>
      <trkpt lat="48.7065" lon="6.88838">
        <ele>266</ele>
        <time>2020-06-29T07:44:38Z</time>
      </trkpt>
      <trkpt lat="48.7065" lon="6.88836">
        <ele>266</ele>
        <time>2020-06-29T07:44:39Z</time>
      </trkpt>
      <trkpt lat="48.70651" lon="6.8883">
        <ele>266</ele>
        <time>2020-06-29T07:44:40Z</time>
      </trkpt>
      <trkpt lat="48.70651" lon="6.88828">
        <ele>266.1</ele>
        <time>2020-06-29T07:44:41Z</time>
      </trkpt>
      <trkpt lat="48.70653" lon="6.88823">
        <ele>266.1</ele>
        <time>2020-06-29T07:44:42Z</time>
      </trkpt>
      <trkpt lat="48.70654" lon="6.88821">
        <ele>266.2</ele>
        <time>2020-06-29T07:44:43Z</time>
      </trkpt>
      <trkpt lat="48.70655" lon="6.88817">
        <ele>266.2</ele>
        <time>2020-06-29T07:44:44Z</time>
      </trkpt>
      <trkpt lat="48.70657" lon="6.88812">
        <ele>266.3</ele>
        <time>2020-06-29T07:44:45Z</time>
      </trkpt>
      <trkpt lat="48.70658" lon="6.88808">
        <ele>266.3</ele>
        <time>2020-06-29T07:44:46Z</time>
      </trkpt>
      <trkpt lat="48.7066" lon="6.88803">
        <ele>266.4</ele>
        <time>2020-06-29T07:44:47Z</time>
      </trkpt>
      <trkpt lat="48.70662" lon="6.88799">
        <ele>266.5</ele>
        <time>2020-06-29T07:44:48Z</time>
      </trkpt>
      <trkpt lat="48.70663" lon="6.88794">
        <ele>266.6</ele>
        <time>2020-06-29T07:44:49Z</time>
      </trkpt>
      <trkpt lat="48.70665" lon="6.88789">
        <ele>266.6</ele>
        <time>2020-06-29T07:44:50Z</time>
      </trkpt>
      <trkpt lat="48.70667" lon="6.88785">
        <ele>266.6</ele>
        <time>2020-06-29T07:44:51Z</time>
      </trkpt>
      <trkpt lat="48.70668" lon="6.88779">
        <ele>266.5</ele>
        <time>2020-06-29T07:44:52Z</time>
      </trkpt>
      <trkpt lat="48.70669" lon="6.88773">
        <ele>266.5</ele>
        <time>2020-06-29T07:44:53Z</time>
      </trkpt>
      <trkpt lat="48.70671" lon="6.88766">
        <ele>266.4</ele>
        <time>2020-06-29T07:44:54Z</time>
      </trkpt>
      <trkpt lat="48.70672" lon="6.88758">
        <ele>266.3</ele>
        <time>2020-06-29T07:44:55Z</time>
      </trkpt>
      <trkpt lat="48.70674" lon="6.8875">
        <ele>266.2</ele>
        <time>2020-06-29T07:44:56Z</time>
      </trkpt>
      <trkpt lat="48.70675" lon="6.88742">
        <ele>266.1</ele>
        <time>2020-06-29T07:44:57Z</time>
      </trkpt>
      <trkpt lat="48.70676" lon="6.88733">
        <ele>266.1</ele>
        <time>2020-06-29T07:44:58Z</time>
      </trkpt>
      <trkpt lat="48.70678" lon="6.88724">
        <ele>266</ele>
        <time>2020-06-29T07:44:59Z</time>
      </trkpt>
      <trkpt lat="48.70679" lon="6.88715">
        <ele>265.9</ele>
        <time>2020-06-29T07:45:00Z</time>
      </trkpt>
      <trkpt lat="48.7068" lon="6.88706">
        <ele>265.9</ele>
        <time>2020-06-29T07:45:01Z</time>
      </trkpt>
      <trkpt lat="48.70681" lon="6.88698">
        <ele>265.9</ele>
        <time>2020-06-29T07:45:02Z</time>
      </trkpt>
      <trkpt lat="48.70682" lon="6.8869">
        <ele>265.8</ele>
        <time>2020-06-29T07:45:03Z</time>
      </trkpt>
      <trkpt lat="48.70683" lon="6.88683">
        <ele>265.8</ele>
        <time>2020-06-29T07:45:04Z</time>
      </trkpt>
      <trkpt lat="48.70683" lon="6.88675">
        <ele>265.8</ele>
        <time>2020-06-29T07:45:05Z</time>
      </trkpt>
      <trkpt lat="48.70683" lon="6.88668">
        <ele>265.7</ele>
        <time>2020-06-29T07:45:06Z</time>
      </trkpt>
      <trkpt lat="48.70684" lon="6.8866">
        <ele>265.7</ele>
        <time>2020-06-29T07:45:07Z</time>
      </trkpt>
      <trkpt lat="48.70685" lon="6.88653">
        <ele>265.6</ele>
        <time>2020-06-29T07:45:08Z</time>
      </trkpt>
      <trkpt lat="48.70685" lon="6.88646">
        <ele>265.6</ele>
        <time>2020-06-29T07:45:09Z</time>
      </trkpt>
      <trkpt lat="48.70685" lon="6.88638">
        <ele>265.6</ele>
        <time>2020-06-29T07:45:10Z</time>
      </trkpt>
      <trkpt lat="48.70685" lon="6.88631">
        <ele>265.6</ele>
        <time>2020-06-29T07:45:11Z</time>
      </trkpt>
      <trkpt lat="48.70686" lon="6.88623">
        <ele>265.6</ele>
        <time>2020-06-29T07:45:12Z</time>
      </trkpt>
      <trkpt lat="48.70685" lon="6.88616">
        <ele>265.6</ele>
        <time>2020-06-29T07:45:13Z</time>
      </trkpt>
      <trkpt lat="48.70685" lon="6.88609">
        <ele>265.6</ele>
        <time>2020-06-29T07:45:14Z</time>
      </trkpt>
      <trkpt lat="48.70685" lon="6.88601">
        <ele>265.6</ele>
        <time>2020-06-29T07:45:15Z</time>
      </trkpt>
      <trkpt lat="48.70685" lon="6.88593">
        <ele>265.6</ele>
        <time>2020-06-29T07:45:16Z</time>
      </trkpt>
      <trkpt lat="48.70685" lon="6.88585">
        <ele>265.6</ele>
        <time>2020-06-29T07:45:17Z</time>
      </trkpt>
      <trkpt lat="48.70685" lon="6.88576">
        <ele>265.6</ele>
        <time>2020-06-29T07:45:18Z</time>
      </trkpt>
      <trkpt lat="48.70685" lon="6.88568">
        <ele>265.6</ele>
        <time>2020-06-29T07:45:19Z</time>
      </trkpt>
      <trkpt lat="48.70685" lon="6.8856">
        <ele>265.7</ele>
        <time>2020-06-29T07:45:20Z</time>
      </trkpt>
      <trkpt lat="48.70685" lon="6.88552">
        <ele>265.7</ele>
        <time>2020-06-29T07:45:21Z</time>
      </trkpt>
      <trkpt lat="48.70686" lon="6.88544">
        <ele>265.8</ele>
        <time>2020-06-29T07:45:22Z</time>
      </trkpt>
      <trkpt lat="48.70686" lon="6.88535">
        <ele>265.8</ele>
        <time>2020-06-29T07:45:23Z</time>
      </trkpt>
      <trkpt lat="48.70686" lon="6.88526">
        <ele>265.8</ele>
        <time>2020-06-29T07:45:24Z</time>
      </trkpt>
      <trkpt lat="48.70686" lon="6.88518">
        <ele>265.8</ele>
        <time>2020-06-29T07:45:25Z</time>
      </trkpt>
      <trkpt lat="48.70685" lon="6.88509">
        <ele>265.8</ele>
        <time>2020-06-29T07:45:26Z</time>
      </trkpt>
      <trkpt lat="48.70685" lon="6.885">
        <ele>265.7</ele>
        <time>2020-06-29T07:45:27Z</time>
      </trkpt>
      <trkpt lat="48.70685" lon="6.88492">
        <ele>265.7</ele>
        <time>2020-06-29T07:45:28Z</time>
      </trkpt>
      <trkpt lat="48.70685" lon="6.88483">
        <ele>265.7</ele>
        <time>2020-06-29T07:45:29Z</time>
      </trkpt>
      <trkpt lat="48.70684" lon="6.88474">
        <ele>265.7</ele>
        <time>2020-06-29T07:45:30Z</time>
      </trkpt>
      <trkpt lat="48.70684" lon="6.88465">
        <ele>265.7</ele>
        <time>2020-06-29T07:45:31Z</time>
      </trkpt>
      <trkpt lat="48.70684" lon="6.88456">
        <ele>265.7</ele>
        <time>2020-06-29T07:45:32Z</time>
      </trkpt>
      <trkpt lat="48.70684" lon="6.88448">
        <ele>265.7</ele>
        <time>2020-06-29T07:45:33Z</time>
      </trkpt>
      <trkpt lat="48.70683" lon="6.8844">
        <ele>265.7</ele>
        <time>2020-06-29T07:45:34Z</time>
      </trkpt>
      <trkpt lat="48.70683" lon="6.88431">
        <ele>265.7</ele>
        <time>2020-06-29T07:45:35Z</time>
      </trkpt>
      <trkpt lat="48.70684" lon="6.88422">
        <ele>265.7</ele>
        <time>2020-06-29T07:45:36Z</time>
      </trkpt>
      <trkpt lat="48.70684" lon="6.88414">
        <ele>265.7</ele>
        <time>2020-06-29T07:45:37Z</time>
      </trkpt>
      <trkpt lat="48.70684" lon="6.88406">
        <ele>265.7</ele>
        <time>2020-06-29T07:45:38Z</time>
      </trkpt>
      <trkpt lat="48.70685" lon="6.88397">
        <ele>265.7</ele>
        <time>2020-06-29T07:45:39Z</time>
      </trkpt>
      <trkpt lat="48.70685" lon="6.88389">
        <ele>265.6</ele>
        <time>2020-06-29T07:45:40Z</time>
      </trkpt>
      <trkpt lat="48.70686" lon="6.88379">
        <ele>265.6</ele>
        <time>2020-06-29T07:45:41Z</time>
      </trkpt>
      <trkpt lat="48.70686" lon="6.88371">
        <ele>265.6</ele>
        <time>2020-06-29T07:45:42Z</time>
      </trkpt>
      <trkpt lat="48.70685" lon="6.88362">
        <ele>265.6</ele>
        <time>2020-06-29T07:45:43Z</time>
      </trkpt>
      <trkpt lat="48.70684" lon="6.88353">
        <ele>265.5</ele>
        <time>2020-06-29T07:45:44Z</time>
      </trkpt>
      <trkpt lat="48.70684" lon="6.88345">
        <ele>265.5</ele>
        <time>2020-06-29T07:45:45Z</time>
      </trkpt>
      <trkpt lat="48.70684" lon="6.88337">
        <ele>265.5</ele>
        <time>2020-06-29T07:45:46Z</time>
      </trkpt>
      <trkpt lat="48.70684" lon="6.8833">
        <ele>265.4</ele>
        <time>2020-06-29T07:45:47Z</time>
      </trkpt>
      <trkpt lat="48.70683" lon="6.88323">
        <ele>265.4</ele>
        <time>2020-06-29T07:45:48Z</time>
      </trkpt>
      <trkpt lat="48.70683" lon="6.88316">
        <ele>265.4</ele>
        <time>2020-06-29T07:45:49Z</time>
      </trkpt>
      <trkpt lat="48.70683" lon="6.8831">
        <ele>265.4</ele>
        <time>2020-06-29T07:45:50Z</time>
      </trkpt>
      <trkpt lat="48.70683" lon="6.88303">
        <ele>265.3</ele>
        <time>2020-06-29T07:45:51Z</time>
      </trkpt>
      <trkpt lat="48.70682" lon="6.88297">
        <ele>265.3</ele>
        <time>2020-06-29T07:45:52Z</time>
      </trkpt>
      <trkpt lat="48.70681" lon="6.88291">
        <ele>265.3</ele>
        <time>2020-06-29T07:45:53Z</time>
      </trkpt>
      <trkpt lat="48.7068" lon="6.88284">
        <ele>265.2</ele>
        <time>2020-06-29T07:45:54Z</time>
      </trkpt>
      <trkpt lat="48.70678" lon="6.88278">
        <ele>265.2</ele>
        <time>2020-06-29T07:45:55Z</time>
      </trkpt>
      <trkpt lat="48.70677" lon="6.88271">
        <ele>265.1</ele>
        <time>2020-06-29T07:45:56Z</time>
      </trkpt>
      <trkpt lat="48.70675" lon="6.88264">
        <ele>265.1</ele>
        <time>2020-06-29T07:45:57Z</time>
      </trkpt>
      <trkpt lat="48.70674" lon="6.88257">
        <ele>265</ele>
        <time>2020-06-29T07:45:58Z</time>
      </trkpt>
      <trkpt lat="48.70672" lon="6.88249">
        <ele>265</ele>
        <time>2020-06-29T07:45:59Z</time>
      </trkpt>
      <trkpt lat="48.7067" lon="6.88242">
        <ele>265</ele>
        <time>2020-06-29T07:46:00Z</time>
      </trkpt>
      <trkpt lat="48.70668" lon="6.88235">
        <ele>265</ele>
        <time>2020-06-29T07:46:01Z</time>
      </trkpt>
      <trkpt lat="48.70667" lon="6.88227">
        <ele>265</ele>
        <time>2020-06-29T07:46:02Z</time>
      </trkpt>
      <trkpt lat="48.70666" lon="6.88219">
        <ele>265</ele>
        <time>2020-06-29T07:46:03Z</time>
      </trkpt>
      <trkpt lat="48.70665" lon="6.88211">
        <ele>265</ele>
        <time>2020-06-29T07:46:04Z</time>
      </trkpt>
      <trkpt lat="48.70664" lon="6.88204">
        <ele>265.1</ele>
        <time>2020-06-29T07:46:05Z</time>
      </trkpt>
      <trkpt lat="48.70662" lon="6.88197">
        <ele>265.1</ele>
        <time>2020-06-29T07:46:06Z</time>
      </trkpt>
      <trkpt lat="48.7066" lon="6.8819">
        <ele>265.1</ele>
        <time>2020-06-29T07:46:07Z</time>
      </trkpt>
      <trkpt lat="48.70658" lon="6.88184">
        <ele>265.1</ele>
        <time>2020-06-29T07:46:08Z</time>
      </trkpt>
      <trkpt lat="48.70656" lon="6.88176">
        <ele>265.2</ele>
        <time>2020-06-29T07:46:09Z</time>
      </trkpt>
      <trkpt lat="48.70655" lon="6.88169">
        <ele>265.2</ele>
        <time>2020-06-29T07:46:10Z</time>
      </trkpt>
      <trkpt lat="48.70655" lon="6.8816">
        <ele>265.3</ele>
        <time>2020-06-29T07:46:11Z</time>
      </trkpt>
      <trkpt lat="48.70654" lon="6.88152">
        <ele>265.3</ele>
        <time>2020-06-29T07:46:12Z</time>
      </trkpt>
      <trkpt lat="48.70652" lon="6.88144">
        <ele>265.4</ele>
        <time>2020-06-29T07:46:13Z</time>
      </trkpt>
      <trkpt lat="48.70649" lon="6.88137">
        <ele>265.4</ele>
        <time>2020-06-29T07:46:14Z</time>
      </trkpt>
      <trkpt lat="48.70645" lon="6.88131">
        <ele>265.4</ele>
        <time>2020-06-29T07:46:15Z</time>
      </trkpt>
      <trkpt lat="48.70641" lon="6.88129">
        <ele>265.5</ele>
        <time>2020-06-29T07:46:16Z</time>
      </trkpt>
      <trkpt lat="48.70636" lon="6.88128">
        <ele>265.5</ele>
        <time>2020-06-29T07:46:17Z</time>
      </trkpt>
      <trkpt lat="48.70631" lon="6.88126">
        <ele>265.5</ele>
        <time>2020-06-29T07:46:18Z</time>
      </trkpt>
      <trkpt lat="48.70627" lon="6.88123">
        <ele>265.5</ele>
        <time>2020-06-29T07:46:19Z</time>
      </trkpt>
      <trkpt lat="48.70622" lon="6.88121">
        <ele>265.5</ele>
        <time>2020-06-29T07:46:20Z</time>
      </trkpt>
      <trkpt lat="48.70618" lon="6.88117">
        <ele>265.5</ele>
        <time>2020-06-29T07:46:21Z</time>
      </trkpt>
      <trkpt lat="48.70615" lon="6.88111">
        <ele>265.4</ele>
        <time>2020-06-29T07:46:22Z</time>
      </trkpt>
      <trkpt lat="48.70613" lon="6.88103">
        <ele>265.4</ele>
        <time>2020-06-29T07:46:23Z</time>
      </trkpt>
      <trkpt lat="48.70612" lon="6.88096">
        <ele>265.4</ele>
        <time>2020-06-29T07:46:24Z</time>
      </trkpt>
      <trkpt lat="48.70611" lon="6.88088">
        <ele>265.4</ele>
        <time>2020-06-29T07:46:25Z</time>
      </trkpt>
      <trkpt lat="48.7061" lon="6.8808">
        <ele>265.4</ele>
        <time>2020-06-29T07:46:26Z</time>
      </trkpt>
      <trkpt lat="48.70608" lon="6.88073">
        <ele>265.3</ele>
        <time>2020-06-29T07:46:27Z</time>
      </trkpt>
      <trkpt lat="48.70607" lon="6.88065">
        <ele>265.3</ele>
        <time>2020-06-29T07:46:28Z</time>
      </trkpt>
      <trkpt lat="48.70606" lon="6.88058">
        <ele>265.3</ele>
        <time>2020-06-29T07:46:29Z</time>
      </trkpt>
      <trkpt lat="48.70605" lon="6.88049">
        <ele>265.3</ele>
        <time>2020-06-29T07:46:30Z</time>
      </trkpt>
      <trkpt lat="48.70606" lon="6.8804">
        <ele>265.3</ele>
        <time>2020-06-29T07:46:31Z</time>
      </trkpt>
      <trkpt lat="48.7061" lon="6.88034">
        <ele>265.2</ele>
        <time>2020-06-29T07:46:32Z</time>
      </trkpt>
      <trkpt lat="48.70613" lon="6.88028">
        <ele>265.2</ele>
        <time>2020-06-29T07:46:33Z</time>
      </trkpt>
      <trkpt lat="48.70617" lon="6.88022">
        <ele>265.2</ele>
        <time>2020-06-29T07:46:34Z</time>
      </trkpt>
      <trkpt lat="48.7062" lon="6.88015">
        <ele>265.2</ele>
        <time>2020-06-29T07:46:35Z</time>
      </trkpt>
      <trkpt lat="48.70622" lon="6.88008">
        <ele>265.2</ele>
        <time>2020-06-29T07:46:36Z</time>
      </trkpt>
      <trkpt lat="48.70624" lon="6.88001">
        <ele>265.2</ele>
        <time>2020-06-29T07:46:37Z</time>
      </trkpt>
      <trkpt lat="48.70625" lon="6.87994">
        <ele>265.1</ele>
        <time>2020-06-29T07:46:38Z</time>
      </trkpt>
      <trkpt lat="48.70626" lon="6.87987">
        <ele>265.1</ele>
        <time>2020-06-29T07:46:39Z</time>
      </trkpt>
      <trkpt lat="48.70625" lon="6.87979">
        <ele>265</ele>
        <time>2020-06-29T07:46:40Z</time>
      </trkpt>
      <trkpt lat="48.70623" lon="6.87971">
        <ele>265</ele>
        <time>2020-06-29T07:46:41Z</time>
      </trkpt>
      <trkpt lat="48.70622" lon="6.87963">
        <ele>265</ele>
        <time>2020-06-29T07:46:42Z</time>
      </trkpt>
      <trkpt lat="48.7062" lon="6.87956">
        <ele>265</ele>
        <time>2020-06-29T07:46:43Z</time>
      </trkpt>
      <trkpt lat="48.70618" lon="6.87948">
        <ele>265</ele>
        <time>2020-06-29T07:46:44Z</time>
      </trkpt>
      <trkpt lat="48.70617" lon="6.87941">
        <ele>265</ele>
        <time>2020-06-29T07:46:45Z</time>
      </trkpt>
      <trkpt lat="48.70615" lon="6.87933">
        <ele>265</ele>
        <time>2020-06-29T07:46:46Z</time>
      </trkpt>
      <trkpt lat="48.70613" lon="6.87925">
        <ele>265</ele>
        <time>2020-06-29T07:46:47Z</time>
      </trkpt>
      <trkpt lat="48.70611" lon="6.87917">
        <ele>265</ele>
        <time>2020-06-29T07:46:48Z</time>
      </trkpt>
      <trkpt lat="48.70609" lon="6.87909">
        <ele>265</ele>
        <time>2020-06-29T07:46:49Z</time>
      </trkpt>
      <trkpt lat="48.70609" lon="6.879">
        <ele>265.1</ele>
        <time>2020-06-29T07:46:50Z</time>
      </trkpt>
      <trkpt lat="48.70607" lon="6.87892">
        <ele>265</ele>
        <time>2020-06-29T07:46:51Z</time>
      </trkpt>
      <trkpt lat="48.70604" lon="6.87884">
        <ele>264.9</ele>
        <time>2020-06-29T07:46:52Z</time>
      </trkpt>
      <trkpt lat="48.70602" lon="6.87876">
        <ele>264.8</ele>
        <time>2020-06-29T07:46:53Z</time>
      </trkpt>
      <trkpt lat="48.706" lon="6.87869">
        <ele>264.7</ele>
        <time>2020-06-29T07:46:54Z</time>
      </trkpt>
      <trkpt lat="48.70598" lon="6.87861">
        <ele>264.7</ele>
        <time>2020-06-29T07:46:55Z</time>
      </trkpt>
      <trkpt lat="48.70597" lon="6.87852">
        <ele>264.7</ele>
        <time>2020-06-29T07:46:56Z</time>
      </trkpt>
      <trkpt lat="48.70595" lon="6.87844">
        <ele>264.7</ele>
        <time>2020-06-29T07:46:57Z</time>
      </trkpt>
      <trkpt lat="48.70593" lon="6.87837">
        <ele>264.7</ele>
        <time>2020-06-29T07:46:58Z</time>
      </trkpt>
      <trkpt lat="48.70592" lon="6.87828">
        <ele>264.7</ele>
        <time>2020-06-29T07:46:59Z</time>
      </trkpt>
      <trkpt lat="48.7059" lon="6.8782">
        <ele>264.7</ele>
        <time>2020-06-29T07:47:00Z</time>
      </trkpt>
      <trkpt lat="48.70589" lon="6.87813">
        <ele>264.7</ele>
        <time>2020-06-29T07:47:01Z</time>
      </trkpt>
      <trkpt lat="48.70587" lon="6.87805">
        <ele>264.7</ele>
        <time>2020-06-29T07:47:02Z</time>
      </trkpt>
      <trkpt lat="48.70586" lon="6.87798">
        <ele>264.7</ele>
        <time>2020-06-29T07:47:03Z</time>
      </trkpt>
      <trkpt lat="48.70584" lon="6.8779">
        <ele>264.7</ele>
        <time>2020-06-29T07:47:04Z</time>
      </trkpt>
      <trkpt lat="48.70581" lon="6.87783">
        <ele>264.7</ele>
        <time>2020-06-29T07:47:05Z</time>
      </trkpt>
      <trkpt lat="48.70579" lon="6.87775">
        <ele>264.7</ele>
        <time>2020-06-29T07:47:06Z</time>
      </trkpt>
      <trkpt lat="48.70577" lon="6.87767">
        <ele>264.7</ele>
        <time>2020-06-29T07:47:07Z</time>
      </trkpt>
      <trkpt lat="48.70576" lon="6.87759">
        <ele>264.7</ele>
        <time>2020-06-29T07:47:08Z</time>
      </trkpt>
      <trkpt lat="48.70574" lon="6.8775">
        <ele>264.6</ele>
        <time>2020-06-29T07:47:09Z</time>
      </trkpt>
      <trkpt lat="48.70573" lon="6.87742">
        <ele>264.6</ele>
        <time>2020-06-29T07:47:10Z</time>
      </trkpt>
      <trkpt lat="48.70572" lon="6.87733">
        <ele>264.6</ele>
        <time>2020-06-29T07:47:11Z</time>
      </trkpt>
      <trkpt lat="48.7057" lon="6.87725">
        <ele>264.5</ele>
        <time>2020-06-29T07:47:12Z</time>
      </trkpt>
      <trkpt lat="48.70569" lon="6.87716">
        <ele>264.5</ele>
        <time>2020-06-29T07:47:13Z</time>
      </trkpt>
      <trkpt lat="48.70568" lon="6.87706">
        <ele>264.5</ele>
        <time>2020-06-29T07:47:14Z</time>
      </trkpt>
      <trkpt lat="48.70567" lon="6.87696">
        <ele>264.6</ele>
        <time>2020-06-29T07:47:15Z</time>
      </trkpt>
      <trkpt lat="48.70566" lon="6.87687">
        <ele>264.6</ele>
        <time>2020-06-29T07:47:16Z</time>
      </trkpt>
      <trkpt lat="48.70564" lon="6.87678">
        <ele>264.6</ele>
        <time>2020-06-29T07:47:17Z</time>
      </trkpt>
      <trkpt lat="48.70562" lon="6.87669">
        <ele>264.6</ele>
        <time>2020-06-29T07:47:18Z</time>
      </trkpt>
      <trkpt lat="48.7056" lon="6.8766">
        <ele>264.7</ele>
        <time>2020-06-29T07:47:19Z</time>
      </trkpt>
      <trkpt lat="48.70558" lon="6.8765">
        <ele>264.7</ele>
        <time>2020-06-29T07:47:20Z</time>
      </trkpt>
      <trkpt lat="48.70557" lon="6.87641">
        <ele>264.7</ele>
        <time>2020-06-29T07:47:21Z</time>
      </trkpt>
      <trkpt lat="48.70555" lon="6.87633">
        <ele>264.7</ele>
        <time>2020-06-29T07:47:22Z</time>
      </trkpt>
      <trkpt lat="48.70554" lon="6.87623">
        <ele>264.7</ele>
        <time>2020-06-29T07:47:23Z</time>
      </trkpt>
      <trkpt lat="48.70553" lon="6.87614">
        <ele>264.7</ele>
        <time>2020-06-29T07:47:24Z</time>
      </trkpt>
      <trkpt lat="48.70551" lon="6.87606">
        <ele>264.7</ele>
        <time>2020-06-29T07:47:25Z</time>
      </trkpt>
      <trkpt lat="48.70549" lon="6.87597">
        <ele>264.7</ele>
        <time>2020-06-29T07:47:26Z</time>
      </trkpt>
      <trkpt lat="48.70547" lon="6.87588">
        <ele>264.7</ele>
        <time>2020-06-29T07:47:27Z</time>
      </trkpt>
      <trkpt lat="48.70546" lon="6.87579">
        <ele>264.7</ele>
        <time>2020-06-29T07:47:28Z</time>
      </trkpt>
      <trkpt lat="48.70544" lon="6.87571">
        <ele>264.7</ele>
        <time>2020-06-29T07:47:29Z</time>
      </trkpt>
      <trkpt lat="48.70543" lon="6.87562">
        <ele>264.7</ele>
        <time>2020-06-29T07:47:30Z</time>
      </trkpt>
      <trkpt lat="48.70542" lon="6.87553">
        <ele>264.7</ele>
        <time>2020-06-29T07:47:31Z</time>
      </trkpt>
      <trkpt lat="48.70541" lon="6.87544">
        <ele>264.7</ele>
        <time>2020-06-29T07:47:32Z</time>
      </trkpt>
      <trkpt lat="48.70539" lon="6.87535">
        <ele>264.7</ele>
        <time>2020-06-29T07:47:33Z</time>
      </trkpt>
      <trkpt lat="48.70538" lon="6.87525">
        <ele>264.7</ele>
        <time>2020-06-29T07:47:34Z</time>
      </trkpt>
      <trkpt lat="48.70537" lon="6.87516">
        <ele>264.7</ele>
        <time>2020-06-29T07:47:35Z</time>
      </trkpt>
      <trkpt lat="48.70535" lon="6.87507">
        <ele>264.7</ele>
        <time>2020-06-29T07:47:36Z</time>
      </trkpt>
      <trkpt lat="48.70533" lon="6.87498">
        <ele>264.8</ele>
        <time>2020-06-29T07:47:37Z</time>
      </trkpt>
      <trkpt lat="48.7053" lon="6.8749">
        <ele>264.8</ele>
        <time>2020-06-29T07:47:38Z</time>
      </trkpt>
      <trkpt lat="48.70529" lon="6.8748">
        <ele>264.8</ele>
        <time>2020-06-29T07:47:39Z</time>
      </trkpt>
      <trkpt lat="48.70527" lon="6.87472">
        <ele>264.8</ele>
        <time>2020-06-29T07:47:40Z</time>
      </trkpt>
      <trkpt lat="48.70526" lon="6.87463">
        <ele>264.8</ele>
        <time>2020-06-29T07:47:41Z</time>
      </trkpt>
      <trkpt lat="48.70525" lon="6.87454">
        <ele>264.8</ele>
        <time>2020-06-29T07:47:42Z</time>
      </trkpt>
      <trkpt lat="48.70524" lon="6.87445">
        <ele>264.8</ele>
        <time>2020-06-29T07:47:43Z</time>
      </trkpt>
      <trkpt lat="48.70522" lon="6.87437">
        <ele>264.9</ele>
        <time>2020-06-29T07:47:44Z</time>
      </trkpt>
      <trkpt lat="48.70521" lon="6.87429">
        <ele>264.9</ele>
        <time>2020-06-29T07:47:45Z</time>
      </trkpt>
      <trkpt lat="48.70518" lon="6.8742">
        <ele>264.9</ele>
        <time>2020-06-29T07:47:46Z</time>
      </trkpt>
      <trkpt lat="48.70516" lon="6.87412">
        <ele>264.9</ele>
        <time>2020-06-29T07:47:47Z</time>
      </trkpt>
      <trkpt lat="48.70515" lon="6.87404">
        <ele>265</ele>
        <time>2020-06-29T07:47:48Z</time>
      </trkpt>
      <trkpt lat="48.70513" lon="6.87395">
        <ele>265</ele>
        <time>2020-06-29T07:47:49Z</time>
      </trkpt>
      <trkpt lat="48.70511" lon="6.87386">
        <ele>265</ele>
        <time>2020-06-29T07:47:50Z</time>
      </trkpt>
      <trkpt lat="48.7051" lon="6.87378">
        <ele>264.9</ele>
        <time>2020-06-29T07:47:51Z</time>
      </trkpt>
      <trkpt lat="48.70507" lon="6.87369">
        <ele>264.9</ele>
        <time>2020-06-29T07:47:52Z</time>
      </trkpt>
      <trkpt lat="48.70506" lon="6.87359">
        <ele>264.9</ele>
        <time>2020-06-29T07:47:53Z</time>
      </trkpt>
      <trkpt lat="48.70504" lon="6.8735">
        <ele>264.9</ele>
        <time>2020-06-29T07:47:54Z</time>
      </trkpt>
      <trkpt lat="48.70503" lon="6.87341">
        <ele>265</ele>
        <time>2020-06-29T07:47:55Z</time>
      </trkpt>
      <trkpt lat="48.70502" lon="6.87331">
        <ele>265</ele>
        <time>2020-06-29T07:47:56Z</time>
      </trkpt>
      <trkpt lat="48.705" lon="6.87321">
        <ele>265</ele>
        <time>2020-06-29T07:47:57Z</time>
      </trkpt>
      <trkpt lat="48.70498" lon="6.87312">
        <ele>265</ele>
        <time>2020-06-29T07:47:58Z</time>
      </trkpt>
      <trkpt lat="48.70496" lon="6.87302">
        <ele>265</ele>
        <time>2020-06-29T07:47:59Z</time>
      </trkpt>
      <trkpt lat="48.70494" lon="6.87293">
        <ele>265</ele>
        <time>2020-06-29T07:48:00Z</time>
      </trkpt>
      <trkpt lat="48.70492" lon="6.87283">
        <ele>265</ele>
        <time>2020-06-29T07:48:01Z</time>
      </trkpt>
      <trkpt lat="48.7049" lon="6.87274">
        <ele>265</ele>
        <time>2020-06-29T07:48:02Z</time>
      </trkpt>
      <trkpt lat="48.70487" lon="6.87264">
        <ele>265</ele>
        <time>2020-06-29T07:48:03Z</time>
      </trkpt>
      <trkpt lat="48.70485" lon="6.87255">
        <ele>265.1</ele>
        <time>2020-06-29T07:48:04Z</time>
      </trkpt>
      <trkpt lat="48.70482" lon="6.87245">
        <ele>265.1</ele>
        <time>2020-06-29T07:48:05Z</time>
      </trkpt>
      <trkpt lat="48.7048" lon="6.87235">
        <ele>265.1</ele>
        <time>2020-06-29T07:48:06Z</time>
      </trkpt>
      <trkpt lat="48.70478" lon="6.87226">
        <ele>265.1</ele>
        <time>2020-06-29T07:48:07Z</time>
      </trkpt>
      <trkpt lat="48.70477" lon="6.87216">
        <ele>265.1</ele>
        <time>2020-06-29T07:48:08Z</time>
      </trkpt>
      <trkpt lat="48.70475" lon="6.87206">
        <ele>265.1</ele>
        <time>2020-06-29T07:48:09Z</time>
      </trkpt>
      <trkpt lat="48.70473" lon="6.87197">
        <ele>265.2</ele>
        <time>2020-06-29T07:48:10Z</time>
      </trkpt>
      <trkpt lat="48.70471" lon="6.87187">
        <ele>265.2</ele>
        <time>2020-06-29T07:48:11Z</time>
      </trkpt>
      <trkpt lat="48.7047" lon="6.87177">
        <ele>265.3</ele>
        <time>2020-06-29T07:48:12Z</time>
      </trkpt>
      <trkpt lat="48.70469" lon="6.87167">
        <ele>265.3</ele>
        <time>2020-06-29T07:48:13Z</time>
      </trkpt>
      <trkpt lat="48.70467" lon="6.87157">
        <ele>265.3</ele>
        <time>2020-06-29T07:48:14Z</time>
      </trkpt>
      <trkpt lat="48.70466" lon="6.87147">
        <ele>265.3</ele>
        <time>2020-06-29T07:48:15Z</time>
      </trkpt>
      <trkpt lat="48.70463" lon="6.87137">
        <ele>265.3</ele>
        <time>2020-06-29T07:48:16Z</time>
      </trkpt>
      <trkpt lat="48.70462" lon="6.87127">
        <ele>265.3</ele>
        <time>2020-06-29T07:48:17Z</time>
      </trkpt>
      <trkpt lat="48.7046" lon="6.87116">
        <ele>265.3</ele>
        <time>2020-06-29T07:48:18Z</time>
      </trkpt>
      <trkpt lat="48.70458" lon="6.87106">
        <ele>265.3</ele>
        <time>2020-06-29T07:48:19Z</time>
      </trkpt>
      <trkpt lat="48.70456" lon="6.87096">
        <ele>265.3</ele>
        <time>2020-06-29T07:48:20Z</time>
      </trkpt>
      <trkpt lat="48.70455" lon="6.87084">
        <ele>265.4</ele>
        <time>2020-06-29T07:48:21Z</time>
      </trkpt>
      <trkpt lat="48.70453" lon="6.87074">
        <ele>265.4</ele>
        <time>2020-06-29T07:48:22Z</time>
      </trkpt>
      <trkpt lat="48.70452" lon="6.87063">
        <ele>265.5</ele>
        <time>2020-06-29T07:48:23Z</time>
      </trkpt>
      <trkpt lat="48.70451" lon="6.87054">
        <ele>265.5</ele>
        <time>2020-06-29T07:48:24Z</time>
      </trkpt>
      <trkpt lat="48.70449" lon="6.87044">
        <ele>265.5</ele>
        <time>2020-06-29T07:48:25Z</time>
      </trkpt>
      <trkpt lat="48.70447" lon="6.87035">
        <ele>265.5</ele>
        <time>2020-06-29T07:48:26Z</time>
      </trkpt>
      <trkpt lat="48.70445" lon="6.87025">
        <ele>265.5</ele>
        <time>2020-06-29T07:48:27Z</time>
      </trkpt>
      <trkpt lat="48.70443" lon="6.87015">
        <ele>265.5</ele>
        <time>2020-06-29T07:48:28Z</time>
      </trkpt>
      <trkpt lat="48.70441" lon="6.87006">
        <ele>265.5</ele>
        <time>2020-06-29T07:48:29Z</time>
      </trkpt>
      <trkpt lat="48.7044" lon="6.86996">
        <ele>265.5</ele>
        <time>2020-06-29T07:48:30Z</time>
      </trkpt>
      <trkpt lat="48.70438" lon="6.86987">
        <ele>265.6</ele>
        <time>2020-06-29T07:48:31Z</time>
      </trkpt>
      <trkpt lat="48.70436" lon="6.86977">
        <ele>265.6</ele>
        <time>2020-06-29T07:48:32Z</time>
      </trkpt>
      <trkpt lat="48.70433" lon="6.86967">
        <ele>265.6</ele>
        <time>2020-06-29T07:48:33Z</time>
      </trkpt>
      <trkpt lat="48.70431" lon="6.86958">
        <ele>265.6</ele>
        <time>2020-06-29T07:48:34Z</time>
      </trkpt>
      <trkpt lat="48.70428" lon="6.86948">
        <ele>265.6</ele>
        <time>2020-06-29T07:48:35Z</time>
      </trkpt>
      <trkpt lat="48.70426" lon="6.86939">
        <ele>265.6</ele>
        <time>2020-06-29T07:48:36Z</time>
      </trkpt>
      <trkpt lat="48.70423" lon="6.8693">
        <ele>265.6</ele>
        <time>2020-06-29T07:48:37Z</time>
      </trkpt>
      <trkpt lat="48.7042" lon="6.86921">
        <ele>265.6</ele>
        <time>2020-06-29T07:48:38Z</time>
      </trkpt>
      <trkpt lat="48.70418" lon="6.86913">
        <ele>265.6</ele>
        <time>2020-06-29T07:48:39Z</time>
      </trkpt>
      <trkpt lat="48.70415" lon="6.86903">
        <ele>265.6</ele>
        <time>2020-06-29T07:48:40Z</time>
      </trkpt>
      <trkpt lat="48.70412" lon="6.86894">
        <ele>265.6</ele>
        <time>2020-06-29T07:48:41Z</time>
      </trkpt>
      <trkpt lat="48.70409" lon="6.86885">
        <ele>265.6</ele>
        <time>2020-06-29T07:48:42Z</time>
      </trkpt>
      <trkpt lat="48.70406" lon="6.86876">
        <ele>265.6</ele>
        <time>2020-06-29T07:48:43Z</time>
      </trkpt>
      <trkpt lat="48.70403" lon="6.86867">
        <ele>265.6</ele>
        <time>2020-06-29T07:48:44Z</time>
      </trkpt>
      <trkpt lat="48.704" lon="6.86859">
        <ele>265.6</ele>
        <time>2020-06-29T07:48:45Z</time>
      </trkpt>
      <trkpt lat="48.70396" lon="6.86849">
        <ele>265.6</ele>
        <time>2020-06-29T07:48:46Z</time>
      </trkpt>
      <trkpt lat="48.70393" lon="6.8684">
        <ele>265.6</ele>
        <time>2020-06-29T07:48:47Z</time>
      </trkpt>
      <trkpt lat="48.70389" lon="6.86831">
        <ele>265.6</ele>
        <time>2020-06-29T07:48:48Z</time>
      </trkpt>
      <trkpt lat="48.70386" lon="6.86822">
        <ele>265.6</ele>
        <time>2020-06-29T07:48:49Z</time>
      </trkpt>
      <trkpt lat="48.70382" lon="6.86814">
        <ele>265.6</ele>
        <time>2020-06-29T07:48:50Z</time>
      </trkpt>
      <trkpt lat="48.70378" lon="6.86806">
        <ele>265.6</ele>
        <time>2020-06-29T07:48:51Z</time>
      </trkpt>
      <trkpt lat="48.70374" lon="6.86798">
        <ele>265.7</ele>
        <time>2020-06-29T07:48:52Z</time>
      </trkpt>
      <trkpt lat="48.7037" lon="6.8679">
        <ele>265.7</ele>
        <time>2020-06-29T07:48:53Z</time>
      </trkpt>
      <trkpt lat="48.70365" lon="6.86782">
        <ele>265.8</ele>
        <time>2020-06-29T07:48:54Z</time>
      </trkpt>
      <trkpt lat="48.70361" lon="6.86774">
        <ele>265.8</ele>
        <time>2020-06-29T07:48:55Z</time>
      </trkpt>
      <trkpt lat="48.70357" lon="6.86766">
        <ele>265.8</ele>
        <time>2020-06-29T07:48:56Z</time>
      </trkpt>
      <trkpt lat="48.70353" lon="6.86757">
        <ele>265.8</ele>
        <time>2020-06-29T07:48:57Z</time>
      </trkpt>
      <trkpt lat="48.70349" lon="6.86749">
        <ele>265.8</ele>
        <time>2020-06-29T07:48:58Z</time>
      </trkpt>
      <trkpt lat="48.70345" lon="6.86741">
        <ele>265.8</ele>
        <time>2020-06-29T07:48:59Z</time>
      </trkpt>
      <trkpt lat="48.70341" lon="6.86733">
        <ele>265.8</ele>
        <time>2020-06-29T07:49:00Z</time>
      </trkpt>
      <trkpt lat="48.70337" lon="6.86725">
        <ele>265.9</ele>
        <time>2020-06-29T07:49:01Z</time>
      </trkpt>
      <trkpt lat="48.70332" lon="6.86719">
        <ele>265.9</ele>
        <time>2020-06-29T07:49:02Z</time>
      </trkpt>
      <trkpt lat="48.70327" lon="6.86713">
        <ele>265.9</ele>
        <time>2020-06-29T07:49:03Z</time>
      </trkpt>
      <trkpt lat="48.70322" lon="6.86706">
        <ele>265.9</ele>
        <time>2020-06-29T07:49:04Z</time>
      </trkpt>
      <trkpt lat="48.70318" lon="6.867">
        <ele>265.9</ele>
        <time>2020-06-29T07:49:05Z</time>
      </trkpt>
      <trkpt lat="48.70313" lon="6.86694">
        <ele>265.9</ele>
        <time>2020-06-29T07:49:06Z</time>
      </trkpt>
      <trkpt lat="48.70309" lon="6.86687">
        <ele>265.8</ele>
        <time>2020-06-29T07:49:07Z</time>
      </trkpt>
      <trkpt lat="48.70305" lon="6.8668">
        <ele>265.7</ele>
        <time>2020-06-29T07:49:08Z</time>
      </trkpt>
      <trkpt lat="48.70299" lon="6.86675">
        <ele>265.5</ele>
        <time>2020-06-29T07:49:09Z</time>
      </trkpt>
      <trkpt lat="48.70294" lon="6.86669">
        <ele>265.3</ele>
        <time>2020-06-29T07:49:10Z</time>
      </trkpt>
      <trkpt lat="48.70288" lon="6.86663">
        <ele>265.2</ele>
        <time>2020-06-29T07:49:11Z</time>
      </trkpt>
      <trkpt lat="48.70284" lon="6.86657">
        <ele>265.1</ele>
        <time>2020-06-29T07:49:12Z</time>
      </trkpt>
      <trkpt lat="48.7028" lon="6.86651">
        <ele>265</ele>
        <time>2020-06-29T07:49:13Z</time>
      </trkpt>
      <trkpt lat="48.70275" lon="6.86645">
        <ele>264.9</ele>
        <time>2020-06-29T07:49:14Z</time>
      </trkpt>
      <trkpt lat="48.7027" lon="6.86641">
        <ele>264.9</ele>
        <time>2020-06-29T07:49:15Z</time>
      </trkpt>
      <trkpt lat="48.70265" lon="6.86637">
        <ele>264.9</ele>
        <time>2020-06-29T07:49:16Z</time>
      </trkpt>
      <trkpt lat="48.70261" lon="6.86633">
        <ele>265</ele>
        <time>2020-06-29T07:49:17Z</time>
      </trkpt>
      <trkpt lat="48.70255" lon="6.8663">
        <ele>265</ele>
        <time>2020-06-29T07:49:18Z</time>
      </trkpt>
      <trkpt lat="48.7025" lon="6.86627">
        <ele>265.1</ele>
        <time>2020-06-29T07:49:19Z</time>
      </trkpt>
      <trkpt lat="48.70244" lon="6.86623">
        <ele>265.1</ele>
        <time>2020-06-29T07:49:20Z</time>
      </trkpt>
      <trkpt lat="48.70239" lon="6.8662">
        <ele>265.2</ele>
        <time>2020-06-29T07:49:21Z</time>
      </trkpt>
      <trkpt lat="48.70233" lon="6.86617">
        <ele>265.1</ele>
        <time>2020-06-29T07:49:22Z</time>
      </trkpt>
      <trkpt lat="48.70227" lon="6.86613">
        <ele>265.1</ele>
        <time>2020-06-29T07:49:23Z</time>
      </trkpt>
      <trkpt lat="48.70222" lon="6.86609">
        <ele>265.1</ele>
        <time>2020-06-29T07:49:24Z</time>
      </trkpt>
      <trkpt lat="48.70216" lon="6.86604">
        <ele>265.1</ele>
        <time>2020-06-29T07:49:25Z</time>
      </trkpt>
      <trkpt lat="48.70211" lon="6.866">
        <ele>265.1</ele>
        <time>2020-06-29T07:49:26Z</time>
      </trkpt>
      <trkpt lat="48.70206" lon="6.86593">
        <ele>265.1</ele>
        <time>2020-06-29T07:49:27Z</time>
      </trkpt>
      <trkpt lat="48.70201" lon="6.86586">
        <ele>265.1</ele>
        <time>2020-06-29T07:49:28Z</time>
      </trkpt>
      <trkpt lat="48.70196" lon="6.8658">
        <ele>265.1</ele>
        <time>2020-06-29T07:49:29Z</time>
      </trkpt>
      <trkpt lat="48.70191" lon="6.86574">
        <ele>265.1</ele>
        <time>2020-06-29T07:49:30Z</time>
      </trkpt>
      <trkpt lat="48.70185" lon="6.8657">
        <ele>265.1</ele>
        <time>2020-06-29T07:49:31Z</time>
      </trkpt>
      <trkpt lat="48.70179" lon="6.86565">
        <ele>265.1</ele>
        <time>2020-06-29T07:49:32Z</time>
      </trkpt>
      <trkpt lat="48.70175" lon="6.86561">
        <ele>265.1</ele>
        <time>2020-06-29T07:49:33Z</time>
      </trkpt>
      <trkpt lat="48.7017" lon="6.86557">
        <ele>265.1</ele>
        <time>2020-06-29T07:49:34Z</time>
      </trkpt>
      <trkpt lat="48.70165" lon="6.86552">
        <ele>265.2</ele>
        <time>2020-06-29T07:49:35Z</time>
      </trkpt>
      <trkpt lat="48.70159" lon="6.86548">
        <ele>265.2</ele>
        <time>2020-06-29T07:49:36Z</time>
      </trkpt>
      <trkpt lat="48.70154" lon="6.86544">
        <ele>265.2</ele>
        <time>2020-06-29T07:49:37Z</time>
      </trkpt>
      <trkpt lat="48.70149" lon="6.86539">
        <ele>265.3</ele>
        <time>2020-06-29T07:49:38Z</time>
      </trkpt>
      <trkpt lat="48.70144" lon="6.86535">
        <ele>265.3</ele>
        <time>2020-06-29T07:49:39Z</time>
      </trkpt>
      <trkpt lat="48.7014" lon="6.86532">
        <ele>265.3</ele>
        <time>2020-06-29T07:49:40Z</time>
      </trkpt>
      <trkpt lat="48.70135" lon="6.86529">
        <ele>265.3</ele>
        <time>2020-06-29T07:49:41Z</time>
      </trkpt>
      <trkpt lat="48.70129" lon="6.86526">
        <ele>265.4</ele>
        <time>2020-06-29T07:49:42Z</time>
      </trkpt>
      <trkpt lat="48.70125" lon="6.86524">
        <ele>265.4</ele>
        <time>2020-06-29T07:49:43Z</time>
      </trkpt>
      <trkpt lat="48.70121" lon="6.86523">
        <ele>265.4</ele>
        <time>2020-06-29T07:49:44Z</time>
      </trkpt>
      <trkpt lat="48.70116" lon="6.8652">
        <ele>265.4</ele>
        <time>2020-06-29T07:49:45Z</time>
      </trkpt>
      <trkpt lat="48.70112" lon="6.86516">
        <ele>265.3</ele>
        <time>2020-06-29T07:49:46Z</time>
      </trkpt>
      <trkpt lat="48.70108" lon="6.86512">
        <ele>265.3</ele>
        <time>2020-06-29T07:49:47Z</time>
      </trkpt>
      <trkpt lat="48.70103" lon="6.8651">
        <ele>265.3</ele>
        <time>2020-06-29T07:49:48Z</time>
      </trkpt>
      <trkpt lat="48.70099" lon="6.86507">
        <ele>265.3</ele>
        <time>2020-06-29T07:49:49Z</time>
      </trkpt>
      <trkpt lat="48.70094" lon="6.86504">
        <ele>265.3</ele>
        <time>2020-06-29T07:49:50Z</time>
      </trkpt>
      <trkpt lat="48.70089" lon="6.86502">
        <ele>265.3</ele>
        <time>2020-06-29T07:49:51Z</time>
      </trkpt>
      <trkpt lat="48.70084" lon="6.865">
        <ele>265.3</ele>
        <time>2020-06-29T07:49:52Z</time>
      </trkpt>
      <trkpt lat="48.70078" lon="6.86497">
        <ele>265.3</ele>
        <time>2020-06-29T07:49:53Z</time>
      </trkpt>
      <trkpt lat="48.70073" lon="6.86494">
        <ele>265.3</ele>
        <time>2020-06-29T07:49:54Z</time>
      </trkpt>
      <trkpt lat="48.70068" lon="6.86492">
        <ele>265.3</ele>
        <time>2020-06-29T07:49:55Z</time>
      </trkpt>
      <trkpt lat="48.70063" lon="6.86488">
        <ele>265.3</ele>
        <time>2020-06-29T07:49:56Z</time>
      </trkpt>
      <trkpt lat="48.70058" lon="6.86485">
        <ele>265.3</ele>
        <time>2020-06-29T07:49:57Z</time>
      </trkpt>
      <trkpt lat="48.70054" lon="6.86481">
        <ele>265.3</ele>
        <time>2020-06-29T07:49:58Z</time>
      </trkpt>
      <trkpt lat="48.7005" lon="6.86479">
        <ele>265.3</ele>
        <time>2020-06-29T07:49:59Z</time>
      </trkpt>
      <trkpt lat="48.70047" lon="6.86477">
        <ele>265.3</ele>
        <time>2020-06-29T07:50:00Z</time>
      </trkpt>
      <trkpt lat="48.70043" lon="6.86477">
        <ele>265.3</ele>
        <time>2020-06-29T07:50:01Z</time>
      </trkpt>
      <trkpt lat="48.70038" lon="6.86474">
        <ele>265.4</ele>
        <time>2020-06-29T07:50:02Z</time>
      </trkpt>
      <trkpt lat="48.70034" lon="6.8647">
        <ele>265.4</ele>
        <time>2020-06-29T07:50:03Z</time>
      </trkpt>
      <trkpt lat="48.7003" lon="6.86467">
        <ele>265.4</ele>
        <time>2020-06-29T07:50:04Z</time>
      </trkpt>
      <trkpt lat="48.70027" lon="6.86464">
        <ele>265.4</ele>
        <time>2020-06-29T07:50:05Z</time>
      </trkpt>
      <trkpt lat="48.70023" lon="6.86462">
        <ele>265.4</ele>
        <time>2020-06-29T07:50:06Z</time>
      </trkpt>
      <trkpt lat="48.70019" lon="6.8646">
        <ele>265.4</ele>
        <time>2020-06-29T07:50:07Z</time>
      </trkpt>
      <trkpt lat="48.70016" lon="6.86458">
        <ele>265.4</ele>
        <time>2020-06-29T07:50:08Z</time>
      </trkpt>
      <trkpt lat="48.70012" lon="6.86456">
        <ele>265.4</ele>
        <time>2020-06-29T07:50:09Z</time>
      </trkpt>
      <trkpt lat="48.70008" lon="6.86454">
        <ele>265.4</ele>
        <time>2020-06-29T07:50:10Z</time>
      </trkpt>
      <trkpt lat="48.70004" lon="6.86453">
        <ele>265.4</ele>
        <time>2020-06-29T07:50:11Z</time>
      </trkpt>
      <trkpt lat="48.7" lon="6.86451">
        <ele>265.4</ele>
        <time>2020-06-29T07:50:12Z</time>
      </trkpt>
      <trkpt lat="48.69996" lon="6.86449">
        <ele>265.4</ele>
        <time>2020-06-29T07:50:13Z</time>
      </trkpt>
      <trkpt lat="48.69991" lon="6.86447">
        <ele>265.4</ele>
        <time>2020-06-29T07:50:14Z</time>
      </trkpt>
      <trkpt lat="48.69987" lon="6.86444">
        <ele>265.4</ele>
        <time>2020-06-29T07:50:15Z</time>
      </trkpt>
      <trkpt lat="48.69983" lon="6.86441">
        <ele>265.5</ele>
        <time>2020-06-29T07:50:16Z</time>
      </trkpt>
      <trkpt lat="48.69979" lon="6.86437">
        <ele>265.5</ele>
        <time>2020-06-29T07:50:17Z</time>
      </trkpt>
      <trkpt lat="48.69973" lon="6.86433">
        <ele>265.5</ele>
        <time>2020-06-29T07:50:18Z</time>
      </trkpt>
      <trkpt lat="48.69966" lon="6.8643">
        <ele>265.5</ele>
        <time>2020-06-29T07:50:19Z</time>
      </trkpt>
      <trkpt lat="48.69961" lon="6.86426">
        <ele>265.5</ele>
        <time>2020-06-29T07:50:20Z</time>
      </trkpt>
      <trkpt lat="48.69955" lon="6.86422">
        <ele>265.5</ele>
        <time>2020-06-29T07:50:21Z</time>
      </trkpt>
      <trkpt lat="48.6995" lon="6.86418">
        <ele>265.5</ele>
        <time>2020-06-29T07:50:22Z</time>
      </trkpt>
      <trkpt lat="48.69939" lon="6.86401">
        <ele>265.5</ele>
        <time>2020-06-29T07:50:23Z</time>
      </trkpt>
      <trkpt lat="48.69926" lon="6.86385">
        <ele>265.4</ele>
        <time>2020-06-29T07:50:24Z</time>
      </trkpt>
      <trkpt lat="48.69913" lon="6.86374">
        <ele>265.4</ele>
        <time>2020-06-29T07:50:25Z</time>
      </trkpt>
      <trkpt lat="48.69899" lon="6.86361">
        <ele>265.4</ele>
        <time>2020-06-29T07:50:26Z</time>
      </trkpt>
      <trkpt lat="48.69887" lon="6.86348">
        <ele>265.5</ele>
        <time>2020-06-29T07:50:27Z</time>
      </trkpt>
      <trkpt lat="48.69876" lon="6.86335">
        <ele>265.6</ele>
        <time>2020-06-29T07:50:28Z</time>
      </trkpt>
      <trkpt lat="48.69867" lon="6.86324">
        <ele>265.6</ele>
        <time>2020-06-29T07:50:29Z</time>
      </trkpt>
      <trkpt lat="48.69859" lon="6.86314">
        <ele>265.6</ele>
        <time>2020-06-29T07:50:30Z</time>
      </trkpt>
      <trkpt lat="48.69851" lon="6.86306">
        <ele>265.6</ele>
        <time>2020-06-29T07:50:31Z</time>
      </trkpt>
      <trkpt lat="48.69843" lon="6.86298">
        <ele>265.6</ele>
        <time>2020-06-29T07:50:32Z</time>
      </trkpt>
      <trkpt lat="48.69836" lon="6.8629">
        <ele>265.6</ele>
        <time>2020-06-29T07:50:33Z</time>
      </trkpt>
      <trkpt lat="48.69829" lon="6.86283">
        <ele>265.6</ele>
        <time>2020-06-29T07:50:34Z</time>
      </trkpt>
      <trkpt lat="48.69824" lon="6.86275">
        <ele>265.6</ele>
        <time>2020-06-29T07:50:35Z</time>
      </trkpt>
      <trkpt lat="48.69818" lon="6.86268">
        <ele>265.6</ele>
        <time>2020-06-29T07:50:36Z</time>
      </trkpt>
      <trkpt lat="48.69812" lon="6.8626">
        <ele>265.7</ele>
        <time>2020-06-29T07:50:37Z</time>
      </trkpt>
      <trkpt lat="48.69807" lon="6.86252">
        <ele>265.8</ele>
        <time>2020-06-29T07:50:38Z</time>
      </trkpt>
      <trkpt lat="48.69804" lon="6.86245">
        <ele>265.8</ele>
        <time>2020-06-29T07:50:39Z</time>
      </trkpt>
      <trkpt lat="48.698" lon="6.86238">
        <ele>265.9</ele>
        <time>2020-06-29T07:50:40Z</time>
      </trkpt>
      <trkpt lat="48.69795" lon="6.86231">
        <ele>265.9</ele>
        <time>2020-06-29T07:50:41Z</time>
      </trkpt>
      <trkpt lat="48.69791" lon="6.86223">
        <ele>265.9</ele>
        <time>2020-06-29T07:50:42Z</time>
      </trkpt>
      <trkpt lat="48.69787" lon="6.86216">
        <ele>265.9</ele>
        <time>2020-06-29T07:50:43Z</time>
      </trkpt>
      <trkpt lat="48.69784" lon="6.86209">
        <ele>265.9</ele>
        <time>2020-06-29T07:50:44Z</time>
      </trkpt>
      <trkpt lat="48.6978" lon="6.86202">
        <ele>265.9</ele>
        <time>2020-06-29T07:50:45Z</time>
      </trkpt>
      <trkpt lat="48.69776" lon="6.86195">
        <ele>265.9</ele>
        <time>2020-06-29T07:50:46Z</time>
      </trkpt>
      <trkpt lat="48.69773" lon="6.86187">
        <ele>265.9</ele>
        <time>2020-06-29T07:50:47Z</time>
      </trkpt>
      <trkpt lat="48.69769" lon="6.86179">
        <ele>265.9</ele>
        <time>2020-06-29T07:50:48Z</time>
      </trkpt>
      <trkpt lat="48.69766" lon="6.8617">
        <ele>265.9</ele>
        <time>2020-06-29T07:50:49Z</time>
      </trkpt>
      <trkpt lat="48.69763" lon="6.86163">
        <ele>265.9</ele>
        <time>2020-06-29T07:50:50Z</time>
      </trkpt>
      <trkpt lat="48.69759" lon="6.86155">
        <ele>265.9</ele>
        <time>2020-06-29T07:50:51Z</time>
      </trkpt>
      <trkpt lat="48.69756" lon="6.86147">
        <ele>265.9</ele>
        <time>2020-06-29T07:50:52Z</time>
      </trkpt>
      <trkpt lat="48.69753" lon="6.86137">
        <ele>265.9</ele>
        <time>2020-06-29T07:50:53Z</time>
      </trkpt>
      <trkpt lat="48.6975" lon="6.86128">
        <ele>266</ele>
        <time>2020-06-29T07:50:54Z</time>
      </trkpt>
      <trkpt lat="48.69746" lon="6.86118">
        <ele>266</ele>
        <time>2020-06-29T07:50:55Z</time>
      </trkpt>
      <trkpt lat="48.69744" lon="6.86108">
        <ele>266</ele>
        <time>2020-06-29T07:50:56Z</time>
      </trkpt>
      <trkpt lat="48.69742" lon="6.86098">
        <ele>266</ele>
        <time>2020-06-29T07:50:57Z</time>
      </trkpt>
      <trkpt lat="48.69741" lon="6.86087">
        <ele>265.9</ele>
        <time>2020-06-29T07:50:58Z</time>
      </trkpt>
      <trkpt lat="48.6974" lon="6.86078">
        <ele>265.9</ele>
        <time>2020-06-29T07:50:59Z</time>
      </trkpt>
      <trkpt lat="48.69737" lon="6.86069">
        <ele>265.9</ele>
        <time>2020-06-29T07:51:00Z</time>
      </trkpt>
      <trkpt lat="48.69735" lon="6.86061">
        <ele>265.9</ele>
        <time>2020-06-29T07:51:01Z</time>
      </trkpt>
      <trkpt lat="48.69733" lon="6.86052">
        <ele>265.9</ele>
        <time>2020-06-29T07:51:02Z</time>
      </trkpt>
      <trkpt lat="48.69731" lon="6.86043">
        <ele>265.9</ele>
        <time>2020-06-29T07:51:03Z</time>
      </trkpt>
      <trkpt lat="48.69728" lon="6.86033">
        <ele>265.9</ele>
        <time>2020-06-29T07:51:04Z</time>
      </trkpt>
      <trkpt lat="48.69727" lon="6.86022">
        <ele>265.9</ele>
        <time>2020-06-29T07:51:05Z</time>
      </trkpt>
      <trkpt lat="48.69725" lon="6.86013">
        <ele>265.9</ele>
        <time>2020-06-29T07:51:06Z</time>
      </trkpt>
      <trkpt lat="48.69723" lon="6.86003">
        <ele>265.9</ele>
        <time>2020-06-29T07:51:07Z</time>
      </trkpt>
      <trkpt lat="48.69722" lon="6.85993">
        <ele>265.9</ele>
        <time>2020-06-29T07:51:08Z</time>
      </trkpt>
      <trkpt lat="48.6972" lon="6.85984">
        <ele>265.9</ele>
        <time>2020-06-29T07:51:09Z</time>
      </trkpt>
      <trkpt lat="48.69718" lon="6.85975">
        <ele>266</ele>
        <time>2020-06-29T07:51:10Z</time>
      </trkpt>
      <trkpt lat="48.69717" lon="6.85965">
        <ele>266</ele>
        <time>2020-06-29T07:51:11Z</time>
      </trkpt>
      <trkpt lat="48.69715" lon="6.85956">
        <ele>266</ele>
        <time>2020-06-29T07:51:12Z</time>
      </trkpt>
      <trkpt lat="48.69713" lon="6.85946">
        <ele>266</ele>
        <time>2020-06-29T07:51:13Z</time>
      </trkpt>
      <trkpt lat="48.69711" lon="6.85937">
        <ele>266</ele>
        <time>2020-06-29T07:51:14Z</time>
      </trkpt>
      <trkpt lat="48.6971" lon="6.85929">
        <ele>266</ele>
        <time>2020-06-29T07:51:15Z</time>
      </trkpt>
      <trkpt lat="48.69708" lon="6.8592">
        <ele>266</ele>
        <time>2020-06-29T07:51:16Z</time>
      </trkpt>
      <trkpt lat="48.69707" lon="6.85911">
        <ele>266.1</ele>
        <time>2020-06-29T07:51:17Z</time>
      </trkpt>
      <trkpt lat="48.69705" lon="6.85902">
        <ele>266.1</ele>
        <time>2020-06-29T07:51:18Z</time>
      </trkpt>
      <trkpt lat="48.69704" lon="6.85893">
        <ele>266.1</ele>
        <time>2020-06-29T07:51:19Z</time>
      </trkpt>
      <trkpt lat="48.69702" lon="6.85884">
        <ele>266.1</ele>
        <time>2020-06-29T07:51:20Z</time>
      </trkpt>
      <trkpt lat="48.69701" lon="6.85875">
        <ele>266.1</ele>
        <time>2020-06-29T07:51:21Z</time>
      </trkpt>
      <trkpt lat="48.69699" lon="6.85866">
        <ele>266.2</ele>
        <time>2020-06-29T07:51:22Z</time>
      </trkpt>
      <trkpt lat="48.69697" lon="6.85857">
        <ele>266.2</ele>
        <time>2020-06-29T07:51:23Z</time>
      </trkpt>
      <trkpt lat="48.69695" lon="6.85848">
        <ele>266.2</ele>
        <time>2020-06-29T07:51:24Z</time>
      </trkpt>
      <trkpt lat="48.69693" lon="6.85839">
        <ele>266.2</ele>
        <time>2020-06-29T07:51:25Z</time>
      </trkpt>
      <trkpt lat="48.69691" lon="6.8583">
        <ele>266.2</ele>
        <time>2020-06-29T07:51:26Z</time>
      </trkpt>
      <trkpt lat="48.69689" lon="6.85821">
        <ele>266.3</ele>
        <time>2020-06-29T07:51:27Z</time>
      </trkpt>
      <trkpt lat="48.69688" lon="6.85811">
        <ele>266.4</ele>
        <time>2020-06-29T07:51:28Z</time>
      </trkpt>
      <trkpt lat="48.69685" lon="6.85802">
        <ele>266.5</ele>
        <time>2020-06-29T07:51:29Z</time>
      </trkpt>
      <trkpt lat="48.69684" lon="6.85792">
        <ele>266.5</ele>
        <time>2020-06-29T07:51:30Z</time>
      </trkpt>
      <trkpt lat="48.69682" lon="6.85783">
        <ele>266.5</ele>
        <time>2020-06-29T07:51:31Z</time>
      </trkpt>
      <trkpt lat="48.6968" lon="6.85774">
        <ele>266.5</ele>
        <time>2020-06-29T07:51:32Z</time>
      </trkpt>
      <trkpt lat="48.69678" lon="6.85765">
        <ele>266.5</ele>
        <time>2020-06-29T07:51:33Z</time>
      </trkpt>
      <trkpt lat="48.69676" lon="6.85756">
        <ele>266.6</ele>
        <time>2020-06-29T07:51:34Z</time>
      </trkpt>
      <trkpt lat="48.69675" lon="6.85746">
        <ele>266.8</ele>
        <time>2020-06-29T07:51:35Z</time>
      </trkpt>
      <trkpt lat="48.69673" lon="6.85737">
        <ele>267</ele>
        <time>2020-06-29T07:51:36Z</time>
      </trkpt>
      <trkpt lat="48.69671" lon="6.85728">
        <ele>267.3</ele>
        <time>2020-06-29T07:51:37Z</time>
      </trkpt>
      <trkpt lat="48.6967" lon="6.85721">
        <ele>267.5</ele>
        <time>2020-06-29T07:51:38Z</time>
      </trkpt>
      <trkpt lat="48.69669" lon="6.85715">
        <ele>267.7</ele>
        <time>2020-06-29T07:51:39Z</time>
      </trkpt>
      <trkpt lat="48.69668" lon="6.8571">
        <ele>267.8</ele>
        <time>2020-06-29T07:51:40Z</time>
      </trkpt>
      <trkpt lat="48.69667" lon="6.85705">
        <ele>268</ele>
        <time>2020-06-29T07:51:41Z</time>
      </trkpt>
      <trkpt lat="48.69666" lon="6.85699">
        <ele>268.1</ele>
        <time>2020-06-29T07:51:42Z</time>
      </trkpt>
      <trkpt lat="48.69665" lon="6.85693">
        <ele>268.1</ele>
        <time>2020-06-29T07:51:43Z</time>
      </trkpt>
      <trkpt lat="48.69665" lon="6.85687">
        <ele>268.2</ele>
        <time>2020-06-29T07:51:44Z</time>
      </trkpt>
      <trkpt lat="48.69663" lon="6.85681">
        <ele>268.2</ele>
        <time>2020-06-29T07:51:45Z</time>
      </trkpt>
      <trkpt lat="48.69661" lon="6.85674">
        <ele>268.1</ele>
        <time>2020-06-29T07:51:46Z</time>
      </trkpt>
      <trkpt lat="48.69659" lon="6.85668">
        <ele>268</ele>
        <time>2020-06-29T07:51:47Z</time>
      </trkpt>
      <trkpt lat="48.69658" lon="6.85661">
        <ele>268</ele>
        <time>2020-06-29T07:51:48Z</time>
      </trkpt>
      <trkpt lat="48.69657" lon="6.85654">
        <ele>267.9</ele>
        <time>2020-06-29T07:51:49Z</time>
      </trkpt>
      <trkpt lat="48.69656" lon="6.85647">
        <ele>267.7</ele>
        <time>2020-06-29T07:51:50Z</time>
      </trkpt>
      <trkpt lat="48.69655" lon="6.8564">
        <ele>267.6</ele>
        <time>2020-06-29T07:51:51Z</time>
      </trkpt>
      <trkpt lat="48.69656" lon="6.85632">
        <ele>267.5</ele>
        <time>2020-06-29T07:51:52Z</time>
      </trkpt>
      <trkpt lat="48.69656" lon="6.85623">
        <ele>267.3</ele>
        <time>2020-06-29T07:51:53Z</time>
      </trkpt>
      <trkpt lat="48.69655" lon="6.85614">
        <ele>267.1</ele>
        <time>2020-06-29T07:51:54Z</time>
      </trkpt>
      <trkpt lat="48.69652" lon="6.85605">
        <ele>266.9</ele>
        <time>2020-06-29T07:51:55Z</time>
      </trkpt>
      <trkpt lat="48.69651" lon="6.85597">
        <ele>266.7</ele>
        <time>2020-06-29T07:51:56Z</time>
      </trkpt>
      <trkpt lat="48.69649" lon="6.85589">
        <ele>267</ele>
        <time>2020-06-29T07:51:57Z</time>
      </trkpt>
      <trkpt lat="48.69647" lon="6.85582">
        <ele>267.2</ele>
        <time>2020-06-29T07:51:58Z</time>
      </trkpt>
      <trkpt lat="48.69646" lon="6.85575">
        <ele>267.3</ele>
        <time>2020-06-29T07:51:59Z</time>
      </trkpt>
      <trkpt lat="48.69645" lon="6.85568">
        <ele>267.3</ele>
        <time>2020-06-29T07:52:00Z</time>
      </trkpt>
      <trkpt lat="48.69643" lon="6.8556">
        <ele>267.3</ele>
        <time>2020-06-29T07:52:01Z</time>
      </trkpt>
      <trkpt lat="48.69642" lon="6.85551">
        <ele>267.3</ele>
        <time>2020-06-29T07:52:02Z</time>
      </trkpt>
      <trkpt lat="48.6964" lon="6.85544">
        <ele>267.3</ele>
        <time>2020-06-29T07:52:03Z</time>
      </trkpt>
      <trkpt lat="48.69639" lon="6.85537">
        <ele>267.2</ele>
        <time>2020-06-29T07:52:04Z</time>
      </trkpt>
      <trkpt lat="48.69637" lon="6.8553">
        <ele>267.2</ele>
        <time>2020-06-29T07:52:05Z</time>
      </trkpt>
      <trkpt lat="48.69637" lon="6.85524">
        <ele>267.2</ele>
        <time>2020-06-29T07:52:06Z</time>
      </trkpt>
      <trkpt lat="48.69636" lon="6.85517">
        <ele>267.2</ele>
        <time>2020-06-29T07:52:07Z</time>
      </trkpt>
      <trkpt lat="48.69635" lon="6.85508">
        <ele>267.2</ele>
        <time>2020-06-29T07:52:08Z</time>
      </trkpt>
      <trkpt lat="48.69634" lon="6.85498">
        <ele>267.2</ele>
        <time>2020-06-29T07:52:09Z</time>
      </trkpt>
      <trkpt lat="48.69632" lon="6.8549">
        <ele>267.2</ele>
        <time>2020-06-29T07:52:10Z</time>
      </trkpt>
      <trkpt lat="48.69631" lon="6.85481">
        <ele>267.2</ele>
        <time>2020-06-29T07:52:11Z</time>
      </trkpt>
      <trkpt lat="48.69628" lon="6.85471">
        <ele>267.2</ele>
        <time>2020-06-29T07:52:12Z</time>
      </trkpt>
      <trkpt lat="48.69627" lon="6.85462">
        <ele>267.2</ele>
        <time>2020-06-29T07:52:13Z</time>
      </trkpt>
      <trkpt lat="48.69625" lon="6.85454">
        <ele>267.2</ele>
        <time>2020-06-29T07:52:14Z</time>
      </trkpt>
      <trkpt lat="48.69622" lon="6.85446">
        <ele>267.2</ele>
        <time>2020-06-29T07:52:15Z</time>
      </trkpt>
      <trkpt lat="48.69621" lon="6.85438">
        <ele>267.2</ele>
        <time>2020-06-29T07:52:16Z</time>
      </trkpt>
      <trkpt lat="48.6962" lon="6.8543">
        <ele>267.2</ele>
        <time>2020-06-29T07:52:17Z</time>
      </trkpt>
      <trkpt lat="48.6962" lon="6.8542">
        <ele>267.2</ele>
        <time>2020-06-29T07:52:18Z</time>
      </trkpt>
      <trkpt lat="48.6962" lon="6.85411">
        <ele>267.2</ele>
        <time>2020-06-29T07:52:19Z</time>
      </trkpt>
      <trkpt lat="48.6962" lon="6.85402">
        <ele>267.2</ele>
        <time>2020-06-29T07:52:20Z</time>
      </trkpt>
      <trkpt lat="48.6962" lon="6.85394">
        <ele>267.2</ele>
        <time>2020-06-29T07:52:21Z</time>
      </trkpt>
      <trkpt lat="48.69619" lon="6.85385">
        <ele>267.2</ele>
        <time>2020-06-29T07:52:22Z</time>
      </trkpt>
      <trkpt lat="48.69619" lon="6.85376">
        <ele>267.2</ele>
        <time>2020-06-29T07:52:23Z</time>
      </trkpt>
      <trkpt lat="48.69618" lon="6.85365">
        <ele>267.1</ele>
        <time>2020-06-29T07:52:24Z</time>
      </trkpt>
      <trkpt lat="48.69617" lon="6.85354">
        <ele>267</ele>
        <time>2020-06-29T07:52:25Z</time>
      </trkpt>
      <trkpt lat="48.69616" lon="6.85345">
        <ele>267</ele>
        <time>2020-06-29T07:52:26Z</time>
      </trkpt>
      <trkpt lat="48.69615" lon="6.85336">
        <ele>266.9</ele>
        <time>2020-06-29T07:52:27Z</time>
      </trkpt>
      <trkpt lat="48.69612" lon="6.85327">
        <ele>266.8</ele>
        <time>2020-06-29T07:52:28Z</time>
      </trkpt>
      <trkpt lat="48.69609" lon="6.85318">
        <ele>266.7</ele>
        <time>2020-06-29T07:52:29Z</time>
      </trkpt>
      <trkpt lat="48.69606" lon="6.85308">
        <ele>266.7</ele>
        <time>2020-06-29T07:52:30Z</time>
      </trkpt>
      <trkpt lat="48.69603" lon="6.85297">
        <ele>266.6</ele>
        <time>2020-06-29T07:52:31Z</time>
      </trkpt>
      <trkpt lat="48.69599" lon="6.85288">
        <ele>266.5</ele>
        <time>2020-06-29T07:52:32Z</time>
      </trkpt>
      <trkpt lat="48.69594" lon="6.85278">
        <ele>266.5</ele>
        <time>2020-06-29T07:52:33Z</time>
      </trkpt>
      <trkpt lat="48.69591" lon="6.85268">
        <ele>266.5</ele>
        <time>2020-06-29T07:52:34Z</time>
      </trkpt>
      <trkpt lat="48.69589" lon="6.85259">
        <ele>266.5</ele>
        <time>2020-06-29T07:52:35Z</time>
      </trkpt>
      <trkpt lat="48.69585" lon="6.85251">
        <ele>266.5</ele>
        <time>2020-06-29T07:52:36Z</time>
      </trkpt>
      <trkpt lat="48.69582" lon="6.85242">
        <ele>266.5</ele>
        <time>2020-06-29T07:52:37Z</time>
      </trkpt>
      <trkpt lat="48.69578" lon="6.85233">
        <ele>266.5</ele>
        <time>2020-06-29T07:52:38Z</time>
      </trkpt>
      <trkpt lat="48.69576" lon="6.85223">
        <ele>266.5</ele>
        <time>2020-06-29T07:52:39Z</time>
      </trkpt>
      <trkpt lat="48.69573" lon="6.85215">
        <ele>266.5</ele>
        <time>2020-06-29T07:52:40Z</time>
      </trkpt>
      <trkpt lat="48.69571" lon="6.85206">
        <ele>266.5</ele>
        <time>2020-06-29T07:52:41Z</time>
      </trkpt>
      <trkpt lat="48.69569" lon="6.85197">
        <ele>266.5</ele>
        <time>2020-06-29T07:52:42Z</time>
      </trkpt>
      <trkpt lat="48.69565" lon="6.85187">
        <ele>266.5</ele>
        <time>2020-06-29T07:52:43Z</time>
      </trkpt>
      <trkpt lat="48.69562" lon="6.85178">
        <ele>266.5</ele>
        <time>2020-06-29T07:52:44Z</time>
      </trkpt>
      <trkpt lat="48.69558" lon="6.85171">
        <ele>266.5</ele>
        <time>2020-06-29T07:52:45Z</time>
      </trkpt>
      <trkpt lat="48.69555" lon="6.85163">
        <ele>266.5</ele>
        <time>2020-06-29T07:52:46Z</time>
      </trkpt>
      <trkpt lat="48.69551" lon="6.85156">
        <ele>266.4</ele>
        <time>2020-06-29T07:52:47Z</time>
      </trkpt>
      <trkpt lat="48.69547" lon="6.85149">
        <ele>266.4</ele>
        <time>2020-06-29T07:52:48Z</time>
      </trkpt>
      <trkpt lat="48.69543" lon="6.85142">
        <ele>266.4</ele>
        <time>2020-06-29T07:52:49Z</time>
      </trkpt>
      <trkpt lat="48.69539" lon="6.85135">
        <ele>266.4</ele>
        <time>2020-06-29T07:52:50Z</time>
      </trkpt>
      <trkpt lat="48.69535" lon="6.85127">
        <ele>266.4</ele>
        <time>2020-06-29T07:52:51Z</time>
      </trkpt>
      <trkpt lat="48.69532" lon="6.85119">
        <ele>266.4</ele>
        <time>2020-06-29T07:52:52Z</time>
      </trkpt>
      <trkpt lat="48.69528" lon="6.85111">
        <ele>266.4</ele>
        <time>2020-06-29T07:52:53Z</time>
      </trkpt>
      <trkpt lat="48.69524" lon="6.85104">
        <ele>266.4</ele>
        <time>2020-06-29T07:52:54Z</time>
      </trkpt>
      <trkpt lat="48.69521" lon="6.85096">
        <ele>266.4</ele>
        <time>2020-06-29T07:52:55Z</time>
      </trkpt>
      <trkpt lat="48.69517" lon="6.85088">
        <ele>266.4</ele>
        <time>2020-06-29T07:52:56Z</time>
      </trkpt>
      <trkpt lat="48.69513" lon="6.85081">
        <ele>266.4</ele>
        <time>2020-06-29T07:52:57Z</time>
      </trkpt>
      <trkpt lat="48.6951" lon="6.85073">
        <ele>266.4</ele>
        <time>2020-06-29T07:52:58Z</time>
      </trkpt>
      <trkpt lat="48.69506" lon="6.85065">
        <ele>266.4</ele>
        <time>2020-06-29T07:52:59Z</time>
      </trkpt>
      <trkpt lat="48.69503" lon="6.85056">
        <ele>266.3</ele>
        <time>2020-06-29T07:53:00Z</time>
      </trkpt>
      <trkpt lat="48.69498" lon="6.85049">
        <ele>266.2</ele>
        <time>2020-06-29T07:53:01Z</time>
      </trkpt>
      <trkpt lat="48.69495" lon="6.85041">
        <ele>266.1</ele>
        <time>2020-06-29T07:53:02Z</time>
      </trkpt>
      <trkpt lat="48.69491" lon="6.85034">
        <ele>266</ele>
        <time>2020-06-29T07:53:03Z</time>
      </trkpt>
      <trkpt lat="48.69486" lon="6.85026">
        <ele>265.9</ele>
        <time>2020-06-29T07:53:04Z</time>
      </trkpt>
      <trkpt lat="48.69481" lon="6.85019">
        <ele>265.9</ele>
        <time>2020-06-29T07:53:05Z</time>
      </trkpt>
      <trkpt lat="48.69477" lon="6.85012">
        <ele>265.8</ele>
        <time>2020-06-29T07:53:06Z</time>
      </trkpt>
      <trkpt lat="48.69473" lon="6.85004">
        <ele>265.8</ele>
        <time>2020-06-29T07:53:07Z</time>
      </trkpt>
      <trkpt lat="48.69469" lon="6.84996">
        <ele>265.8</ele>
        <time>2020-06-29T07:53:08Z</time>
      </trkpt>
      <trkpt lat="48.69465" lon="6.84987">
        <ele>265.7</ele>
        <time>2020-06-29T07:53:09Z</time>
      </trkpt>
      <trkpt lat="48.69461" lon="6.84979">
        <ele>265.6</ele>
        <time>2020-06-29T07:53:10Z</time>
      </trkpt>
      <trkpt lat="48.69457" lon="6.8497">
        <ele>265.5</ele>
        <time>2020-06-29T07:53:11Z</time>
      </trkpt>
      <trkpt lat="48.69453" lon="6.84961">
        <ele>265.4</ele>
        <time>2020-06-29T07:53:12Z</time>
      </trkpt>
      <trkpt lat="48.6945" lon="6.84953">
        <ele>265.2</ele>
        <time>2020-06-29T07:53:13Z</time>
      </trkpt>
      <trkpt lat="48.69446" lon="6.84945">
        <ele>265.1</ele>
        <time>2020-06-29T07:53:14Z</time>
      </trkpt>
      <trkpt lat="48.69442" lon="6.84936">
        <ele>264.9</ele>
        <time>2020-06-29T07:53:15Z</time>
      </trkpt>
      <trkpt lat="48.69439" lon="6.84927">
        <ele>264.8</ele>
        <time>2020-06-29T07:53:16Z</time>
      </trkpt>
      <trkpt lat="48.69435" lon="6.84918">
        <ele>264.7</ele>
        <time>2020-06-29T07:53:17Z</time>
      </trkpt>
      <trkpt lat="48.69432" lon="6.84909">
        <ele>264.7</ele>
        <time>2020-06-29T07:53:18Z</time>
      </trkpt>
      <trkpt lat="48.69429" lon="6.849">
        <ele>264.8</ele>
        <time>2020-06-29T07:53:19Z</time>
      </trkpt>
      <trkpt lat="48.69424" lon="6.84891">
        <ele>264.9</ele>
        <time>2020-06-29T07:53:20Z</time>
      </trkpt>
      <trkpt lat="48.69419" lon="6.84884">
        <ele>264.9</ele>
        <time>2020-06-29T07:53:21Z</time>
      </trkpt>
      <trkpt lat="48.69413" lon="6.84877">
        <ele>264.9</ele>
        <time>2020-06-29T07:53:22Z</time>
      </trkpt>
      <trkpt lat="48.69408" lon="6.8487">
        <ele>264.9</ele>
        <time>2020-06-29T07:53:23Z</time>
      </trkpt>
      <trkpt lat="48.69403" lon="6.84862">
        <ele>265</ele>
        <time>2020-06-29T07:53:24Z</time>
      </trkpt>
      <trkpt lat="48.69399" lon="6.84854">
        <ele>265.1</ele>
        <time>2020-06-29T07:53:25Z</time>
      </trkpt>
      <trkpt lat="48.69395" lon="6.84847">
        <ele>265.1</ele>
        <time>2020-06-29T07:53:26Z</time>
      </trkpt>
      <trkpt lat="48.6939" lon="6.84839">
        <ele>265.2</ele>
        <time>2020-06-29T07:53:27Z</time>
      </trkpt>
      <trkpt lat="48.69386" lon="6.84832">
        <ele>265.2</ele>
        <time>2020-06-29T07:53:28Z</time>
      </trkpt>
      <trkpt lat="48.69382" lon="6.84826">
        <ele>265.1</ele>
        <time>2020-06-29T07:53:29Z</time>
      </trkpt>
      <trkpt lat="48.69377" lon="6.84818">
        <ele>265.1</ele>
        <time>2020-06-29T07:53:30Z</time>
      </trkpt>
      <trkpt lat="48.69373" lon="6.84811">
        <ele>265.1</ele>
        <time>2020-06-29T07:53:31Z</time>
      </trkpt>
      <trkpt lat="48.69369" lon="6.84803">
        <ele>265.1</ele>
        <time>2020-06-29T07:53:32Z</time>
      </trkpt>
      <trkpt lat="48.69365" lon="6.84797">
        <ele>265.1</ele>
        <time>2020-06-29T07:53:33Z</time>
      </trkpt>
      <trkpt lat="48.69361" lon="6.84789">
        <ele>265.1</ele>
        <time>2020-06-29T07:53:34Z</time>
      </trkpt>
      <trkpt lat="48.69357" lon="6.84782">
        <ele>265</ele>
        <time>2020-06-29T07:53:35Z</time>
      </trkpt>
      <trkpt lat="48.69354" lon="6.84776">
        <ele>265</ele>
        <time>2020-06-29T07:53:36Z</time>
      </trkpt>
      <trkpt lat="48.6935" lon="6.8477">
        <ele>265</ele>
        <time>2020-06-29T07:53:37Z</time>
      </trkpt>
      <trkpt lat="48.69346" lon="6.84763">
        <ele>265</ele>
        <time>2020-06-29T07:53:38Z</time>
      </trkpt>
      <trkpt lat="48.69342" lon="6.84756">
        <ele>265</ele>
        <time>2020-06-29T07:53:39Z</time>
      </trkpt>
      <trkpt lat="48.69337" lon="6.8475">
        <ele>265</ele>
        <time>2020-06-29T07:53:40Z</time>
      </trkpt>
      <trkpt lat="48.69333" lon="6.84744">
        <ele>265</ele>
        <time>2020-06-29T07:53:41Z</time>
      </trkpt>
      <trkpt lat="48.6933" lon="6.84737">
        <ele>264.9</ele>
        <time>2020-06-29T07:53:42Z</time>
      </trkpt>
      <trkpt lat="48.69326" lon="6.84731">
        <ele>264.9</ele>
        <time>2020-06-29T07:53:43Z</time>
      </trkpt>
      <trkpt lat="48.69322" lon="6.84725">
        <ele>264.9</ele>
        <time>2020-06-29T07:53:44Z</time>
      </trkpt>
      <trkpt lat="48.69318" lon="6.84718">
        <ele>264.9</ele>
        <time>2020-06-29T07:53:45Z</time>
      </trkpt>
      <trkpt lat="48.69314" lon="6.84711">
        <ele>264.8</ele>
        <time>2020-06-29T07:53:46Z</time>
      </trkpt>
      <trkpt lat="48.6931" lon="6.84704">
        <ele>264.8</ele>
        <time>2020-06-29T07:53:47Z</time>
      </trkpt>
      <trkpt lat="48.69306" lon="6.84697">
        <ele>264.8</ele>
        <time>2020-06-29T07:53:48Z</time>
      </trkpt>
      <trkpt lat="48.69301" lon="6.8469">
        <ele>264.9</ele>
        <time>2020-06-29T07:53:49Z</time>
      </trkpt>
      <trkpt lat="48.69298" lon="6.84681">
        <ele>264.9</ele>
        <time>2020-06-29T07:53:50Z</time>
      </trkpt>
      <trkpt lat="48.69294" lon="6.84673">
        <ele>264.9</ele>
        <time>2020-06-29T07:53:51Z</time>
      </trkpt>
      <trkpt lat="48.6929" lon="6.84666">
        <ele>264.9</ele>
        <time>2020-06-29T07:53:52Z</time>
      </trkpt>
      <trkpt lat="48.69286" lon="6.84659">
        <ele>264.9</ele>
        <time>2020-06-29T07:53:53Z</time>
      </trkpt>
      <trkpt lat="48.69282" lon="6.84652">
        <ele>264.9</ele>
        <time>2020-06-29T07:53:54Z</time>
      </trkpt>
      <trkpt lat="48.69278" lon="6.84645">
        <ele>264.9</ele>
        <time>2020-06-29T07:53:55Z</time>
      </trkpt>
      <trkpt lat="48.69274" lon="6.84639">
        <ele>264.9</ele>
        <time>2020-06-29T07:53:56Z</time>
      </trkpt>
      <trkpt lat="48.69271" lon="6.84633">
        <ele>264.9</ele>
        <time>2020-06-29T07:53:57Z</time>
      </trkpt>
      <trkpt lat="48.69267" lon="6.84627">
        <ele>264.9</ele>
        <time>2020-06-29T07:53:58Z</time>
      </trkpt>
      <trkpt lat="48.69263" lon="6.84622">
        <ele>264.9</ele>
        <time>2020-06-29T07:53:59Z</time>
      </trkpt>
      <trkpt lat="48.6926" lon="6.84616">
        <ele>264.9</ele>
        <time>2020-06-29T07:54:00Z</time>
      </trkpt>
      <trkpt lat="48.69256" lon="6.8461">
        <ele>264.9</ele>
        <time>2020-06-29T07:54:01Z</time>
      </trkpt>
      <trkpt lat="48.69252" lon="6.84604">
        <ele>265</ele>
        <time>2020-06-29T07:54:02Z</time>
      </trkpt>
      <trkpt lat="48.69249" lon="6.84598">
        <ele>265</ele>
        <time>2020-06-29T07:54:03Z</time>
      </trkpt>
      <trkpt lat="48.69246" lon="6.84595">
        <ele>265.1</ele>
        <time>2020-06-29T07:54:04Z</time>
      </trkpt>
      <trkpt lat="48.69243" lon="6.84589">
        <ele>265.2</ele>
        <time>2020-06-29T07:54:05Z</time>
      </trkpt>
      <trkpt lat="48.6924" lon="6.84584">
        <ele>265.3</ele>
        <time>2020-06-29T07:54:06Z</time>
      </trkpt>
      <trkpt lat="48.69237" lon="6.8458">
        <ele>265.4</ele>
        <time>2020-06-29T07:54:07Z</time>
      </trkpt>
      <trkpt lat="48.69235" lon="6.84576">
        <ele>265.5</ele>
        <time>2020-06-29T07:54:08Z</time>
      </trkpt>
      <trkpt lat="48.69233" lon="6.84572">
        <ele>265.6</ele>
        <time>2020-06-29T07:54:09Z</time>
      </trkpt>
      <trkpt lat="48.69232" lon="6.84567">
        <ele>265.6</ele>
        <time>2020-06-29T07:54:10Z</time>
      </trkpt>
      <trkpt lat="48.69229" lon="6.84562">
        <ele>265.7</ele>
        <time>2020-06-29T07:54:11Z</time>
      </trkpt>
      <trkpt lat="48.69228" lon="6.84557">
        <ele>265.8</ele>
        <time>2020-06-29T07:54:12Z</time>
      </trkpt>
      <trkpt lat="48.69227" lon="6.84553">
        <ele>265.8</ele>
        <time>2020-06-29T07:54:13Z</time>
      </trkpt>
      <trkpt lat="48.69225" lon="6.84549">
        <ele>265.7</ele>
        <time>2020-06-29T07:54:14Z</time>
      </trkpt>
      <trkpt lat="48.69224" lon="6.8455">
        <ele>265.7</ele>
        <time>2020-06-29T07:54:15Z</time>
      </trkpt>
      <trkpt lat="48.69223" lon="6.8455">
        <ele>265.6</ele>
        <time>2020-06-29T07:54:16Z</time>
      </trkpt>
      <trkpt lat="48.69222" lon="6.8455">
        <ele>265.6</ele>
        <time>2020-06-29T07:54:17Z</time>
      </trkpt>
      <trkpt lat="48.69224" lon="6.84555">
        <ele>265.5</ele>
        <time>2020-06-29T07:54:18Z</time>
      </trkpt>
      <trkpt lat="48.69224" lon="6.84557">
        <ele>265.4</ele>
        <time>2020-06-29T07:54:19Z</time>
      </trkpt>
      <trkpt lat="48.69226" lon="6.84563">
        <ele>265.2</ele>
        <time>2020-06-29T07:54:20Z</time>
      </trkpt>
      <trkpt lat="48.69227" lon="6.84567">
        <ele>265.1</ele>
        <time>2020-06-29T07:54:21Z</time>
      </trkpt>
      <trkpt lat="48.69228" lon="6.84577">
        <ele>264.7</ele>
        <time>2020-06-29T07:54:22Z</time>
      </trkpt>
      <trkpt lat="48.6923" lon="6.84582">
        <ele>264.4</ele>
        <time>2020-06-29T07:54:23Z</time>
      </trkpt>
      <trkpt lat="48.69232" lon="6.84591">
        <ele>264.1</ele>
        <time>2020-06-29T07:54:24Z</time>
      </trkpt>
      <trkpt lat="48.69235" lon="6.846">
        <ele>263.7</ele>
        <time>2020-06-29T07:54:25Z</time>
      </trkpt>
      <trkpt lat="48.69238" lon="6.84609">
        <ele>263.3</ele>
        <time>2020-06-29T07:54:26Z</time>
      </trkpt>
      <trkpt lat="48.69241" lon="6.84615">
        <ele>263.1</ele>
        <time>2020-06-29T07:54:27Z</time>
      </trkpt>
      <trkpt lat="48.69244" lon="6.84621">
        <ele>262.8</ele>
        <time>2020-06-29T07:54:28Z</time>
      </trkpt>
      <trkpt lat="48.69247" lon="6.84631">
        <ele>262.4</ele>
        <time>2020-06-29T07:54:29Z</time>
      </trkpt>
      <trkpt lat="48.69249" lon="6.84635">
        <ele>262.3</ele>
        <time>2020-06-29T07:54:30Z</time>
      </trkpt>
      <trkpt lat="48.69251" lon="6.84641">
        <ele>262.1</ele>
        <time>2020-06-29T07:54:31Z</time>
      </trkpt>
      <trkpt lat="48.69251" lon="6.84644">
        <ele>262</ele>
        <time>2020-06-29T07:54:32Z</time>
      </trkpt>
      <trkpt lat="48.69252" lon="6.8465">
        <ele>260.9</ele>
        <time>2020-06-29T07:54:33Z</time>
      </trkpt>
      <trkpt lat="48.69251" lon="6.84657">
        <ele>260.5</ele>
        <time>2020-06-29T07:54:34Z</time>
      </trkpt>
      <trkpt lat="48.6925" lon="6.8466">
        <ele>260.4</ele>
        <time>2020-06-29T07:54:35Z</time>
      </trkpt>
      <trkpt lat="48.69247" lon="6.84661">
        <ele>260.1</ele>
        <time>2020-06-29T07:54:36Z</time>
      </trkpt>
      <trkpt lat="48.69242" lon="6.8466">
        <ele>259.7</ele>
        <time>2020-06-29T07:54:37Z</time>
      </trkpt>
      <trkpt lat="48.69236" lon="6.84658">
        <ele>259.3</ele>
        <time>2020-06-29T07:54:38Z</time>
      </trkpt>
      <trkpt lat="48.6923" lon="6.84657">
        <ele>258.9</ele>
        <time>2020-06-29T07:54:39Z</time>
      </trkpt>
      <trkpt lat="48.69224" lon="6.84654">
        <ele>258.5</ele>
        <time>2020-06-29T07:54:40Z</time>
      </trkpt>
      <trkpt lat="48.6922" lon="6.84648">
        <ele>258.1</ele>
        <time>2020-06-29T07:54:41Z</time>
      </trkpt>
      <trkpt lat="48.69216" lon="6.8464">
        <ele>257.7</ele>
        <time>2020-06-29T07:54:42Z</time>
      </trkpt>
      <trkpt lat="48.69212" lon="6.84632">
        <ele>257.2</ele>
        <time>2020-06-29T07:54:43Z</time>
      </trkpt>
      <trkpt lat="48.69208" lon="6.84623">
        <ele>256.8</ele>
        <time>2020-06-29T07:54:44Z</time>
      </trkpt>
      <trkpt lat="48.69205" lon="6.84615">
        <ele>256.5</ele>
        <time>2020-06-29T07:54:45Z</time>
      </trkpt>
      <trkpt lat="48.692" lon="6.84606">
        <ele>256.1</ele>
        <time>2020-06-29T07:54:46Z</time>
      </trkpt>
      <trkpt lat="48.69196" lon="6.84596">
        <ele>255.7</ele>
        <time>2020-06-29T07:54:47Z</time>
      </trkpt>
      <trkpt lat="48.69193" lon="6.84586">
        <ele>255.3</ele>
        <time>2020-06-29T07:54:48Z</time>
      </trkpt>
      <trkpt lat="48.69189" lon="6.84576">
        <ele>255</ele>
        <time>2020-06-29T07:54:49Z</time>
      </trkpt>
      <trkpt lat="48.69186" lon="6.84565">
        <ele>254.7</ele>
        <time>2020-06-29T07:54:50Z</time>
      </trkpt>
      <trkpt lat="48.69182" lon="6.84555">
        <ele>254.4</ele>
        <time>2020-06-29T07:54:51Z</time>
      </trkpt>
      <trkpt lat="48.69179" lon="6.84546">
        <ele>254</ele>
        <time>2020-06-29T07:54:52Z</time>
      </trkpt>
      <trkpt lat="48.69175" lon="6.84535">
        <ele>253.7</ele>
        <time>2020-06-29T07:54:53Z</time>
      </trkpt>
      <trkpt lat="48.69173" lon="6.84525">
        <ele>253.4</ele>
        <time>2020-06-29T07:54:54Z</time>
      </trkpt>
      <trkpt lat="48.69171" lon="6.84517">
        <ele>253.2</ele>
        <time>2020-06-29T07:54:55Z</time>
      </trkpt>
      <trkpt lat="48.69168" lon="6.84509">
        <ele>253</ele>
        <time>2020-06-29T07:54:56Z</time>
      </trkpt>
      <trkpt lat="48.69166" lon="6.84501">
        <ele>252.8</ele>
        <time>2020-06-29T07:54:57Z</time>
      </trkpt>
      <trkpt lat="48.69164" lon="6.84493">
        <ele>252.6</ele>
        <time>2020-06-29T07:54:58Z</time>
      </trkpt>
      <trkpt lat="48.69161" lon="6.84484">
        <ele>252.4</ele>
        <time>2020-06-29T07:54:59Z</time>
      </trkpt>
      <trkpt lat="48.69158" lon="6.84475">
        <ele>252.2</ele>
        <time>2020-06-29T07:55:00Z</time>
      </trkpt>
      <trkpt lat="48.69156" lon="6.84466">
        <ele>252.1</ele>
        <time>2020-06-29T07:55:01Z</time>
      </trkpt>
      <trkpt lat="48.69151" lon="6.84459">
        <ele>252.1</ele>
        <time>2020-06-29T07:55:02Z</time>
      </trkpt>
      <trkpt lat="48.69146" lon="6.84453">
        <ele>252</ele>
        <time>2020-06-29T07:55:03Z</time>
      </trkpt>
      <trkpt lat="48.6914" lon="6.84451">
        <ele>252</ele>
        <time>2020-06-29T07:55:04Z</time>
      </trkpt>
      <trkpt lat="48.69134" lon="6.84449">
        <ele>252</ele>
        <time>2020-06-29T07:55:05Z</time>
      </trkpt>
      <trkpt lat="48.69129" lon="6.84445">
        <ele>251.9</ele>
        <time>2020-06-29T07:55:06Z</time>
      </trkpt>
      <trkpt lat="48.69125" lon="6.84439">
        <ele>251.8</ele>
        <time>2020-06-29T07:55:07Z</time>
      </trkpt>
      <trkpt lat="48.69123" lon="6.84432">
        <ele>251.7</ele>
        <time>2020-06-29T07:55:08Z</time>
      </trkpt>
      <trkpt lat="48.6912" lon="6.84426">
        <ele>251.5</ele>
        <time>2020-06-29T07:55:09Z</time>
      </trkpt>
      <trkpt lat="48.69118" lon="6.84419">
        <ele>251.4</ele>
        <time>2020-06-29T07:55:10Z</time>
      </trkpt>
      <trkpt lat="48.69116" lon="6.84412">
        <ele>251.3</ele>
        <time>2020-06-29T07:55:11Z</time>
      </trkpt>
      <trkpt lat="48.69114" lon="6.84405">
        <ele>251.3</ele>
        <time>2020-06-29T07:55:12Z</time>
      </trkpt>
      <trkpt lat="48.69112" lon="6.84399">
        <ele>251.2</ele>
        <time>2020-06-29T07:55:13Z</time>
      </trkpt>
      <trkpt lat="48.69109" lon="6.84393">
        <ele>251.2</ele>
        <time>2020-06-29T07:55:14Z</time>
      </trkpt>
      <trkpt lat="48.69107" lon="6.84386">
        <ele>251.1</ele>
        <time>2020-06-29T07:55:15Z</time>
      </trkpt>
      <trkpt lat="48.69105" lon="6.8438">
        <ele>251.1</ele>
        <time>2020-06-29T07:55:16Z</time>
      </trkpt>
      <trkpt lat="48.69104" lon="6.84374">
        <ele>251.1</ele>
        <time>2020-06-29T07:55:17Z</time>
      </trkpt>
      <trkpt lat="48.69103" lon="6.84368">
        <ele>251</ele>
        <time>2020-06-29T07:55:18Z</time>
      </trkpt>
      <trkpt lat="48.69101" lon="6.84364">
        <ele>251</ele>
        <time>2020-06-29T07:55:19Z</time>
      </trkpt>
      <trkpt lat="48.691" lon="6.8436">
        <ele>251</ele>
        <time>2020-06-29T07:55:20Z</time>
      </trkpt>
      <trkpt lat="48.69098" lon="6.84355">
        <ele>251</ele>
        <time>2020-06-29T07:55:21Z</time>
      </trkpt>
      <trkpt lat="48.69097" lon="6.84349">
        <ele>251</ele>
        <time>2020-06-29T07:55:22Z</time>
      </trkpt>
      <trkpt lat="48.69096" lon="6.84343">
        <ele>250.9</ele>
        <time>2020-06-29T07:55:23Z</time>
      </trkpt>
      <trkpt lat="48.69093" lon="6.84339">
        <ele>250.9</ele>
        <time>2020-06-29T07:55:24Z</time>
      </trkpt>
      <trkpt lat="48.6909" lon="6.84334">
        <ele>250.8</ele>
        <time>2020-06-29T07:55:25Z</time>
      </trkpt>
      <trkpt lat="48.69089" lon="6.84333">
        <ele>250.8</ele>
        <time>2020-06-29T07:55:26Z</time>
      </trkpt>
      <trkpt lat="48.69088" lon="6.84328">
        <ele>250.8</ele>
        <time>2020-06-29T07:55:27Z</time>
      </trkpt>
      <trkpt lat="48.69086" lon="6.84324">
        <ele>250.7</ele>
        <time>2020-06-29T07:55:28Z</time>
      </trkpt>
      <trkpt lat="48.69084" lon="6.84321">
        <ele>250.7</ele>
        <time>2020-06-29T07:55:29Z</time>
      </trkpt>
      <trkpt lat="48.69082" lon="6.84318">
        <ele>250.7</ele>
        <time>2020-06-29T07:55:30Z</time>
      </trkpt>
      <trkpt lat="48.69079" lon="6.84314">
        <ele>250.6</ele>
        <time>2020-06-29T07:55:31Z</time>
      </trkpt>
      <trkpt lat="48.69078" lon="6.84312">
        <ele>250.6</ele>
        <time>2020-06-29T07:55:32Z</time>
      </trkpt>
      <trkpt lat="48.69076" lon="6.84308">
        <ele>250.6</ele>
        <time>2020-06-29T07:55:33Z</time>
      </trkpt>
      <trkpt lat="48.69075" lon="6.84306">
        <ele>250.6</ele>
        <time>2020-06-29T07:55:34Z</time>
      </trkpt>
      <trkpt lat="48.69073" lon="6.84302">
        <ele>250.6</ele>
        <time>2020-06-29T07:55:35Z</time>
      </trkpt>
      <trkpt lat="48.69073" lon="6.84301">
        <ele>250.6</ele>
        <time>2020-06-29T07:55:36Z</time>
      </trkpt>
      <trkpt lat="48.69072" lon="6.84298">
        <ele>250.6</ele>
        <time>2020-06-29T07:55:37Z</time>
      </trkpt>
      <trkpt lat="48.69071" lon="6.84296">
        <ele>250.6</ele>
        <time>2020-06-29T07:55:38Z</time>
      </trkpt>
      <trkpt lat="48.6907" lon="6.84293">
        <ele>250.6</ele>
        <time>2020-06-29T07:55:39Z</time>
      </trkpt>
      <trkpt lat="48.69069" lon="6.84292">
        <ele>250.6</ele>
        <time>2020-06-29T07:55:40Z</time>
      </trkpt>
      <trkpt lat="48.69068" lon="6.84287">
        <ele>250.6</ele>
        <time>2020-06-29T07:55:41Z</time>
      </trkpt>
      <trkpt lat="48.69067" lon="6.84287">
        <ele>250.6</ele>
        <time>2020-06-29T07:55:42Z</time>
      </trkpt>
      <trkpt lat="48.69065" lon="6.84284">
        <ele>250.6</ele>
        <time>2020-06-29T07:55:43Z</time>
      </trkpt>
      <trkpt lat="48.69064" lon="6.84283">
        <ele>250.6</ele>
        <time>2020-06-29T07:55:44Z</time>
      </trkpt>
      <trkpt lat="48.69062" lon="6.84279">
        <ele>250.6</ele>
        <time>2020-06-29T07:55:45Z</time>
      </trkpt>
      <trkpt lat="48.69061" lon="6.84278">
        <ele>250.6</ele>
        <time>2020-06-29T07:55:46Z</time>
      </trkpt>
      <trkpt lat="48.69059" lon="6.84274">
        <ele>250.6</ele>
        <time>2020-06-29T07:55:47Z</time>
      </trkpt>
      <trkpt lat="48.69057" lon="6.84271">
        <ele>250.6</ele>
        <time>2020-06-29T07:55:48Z</time>
      </trkpt>
      <trkpt lat="48.69053" lon="6.84268">
        <ele>250.6</ele>
        <time>2020-06-29T07:55:49Z</time>
      </trkpt>
      <trkpt lat="48.69051" lon="6.84264">
        <ele>250.6</ele>
        <time>2020-06-29T07:55:50Z</time>
      </trkpt>
      <trkpt lat="48.69047" lon="6.8426">
        <ele>250.5</ele>
        <time>2020-06-29T07:55:51Z</time>
      </trkpt>
      <trkpt lat="48.69045" lon="6.84254">
        <ele>250.5</ele>
        <time>2020-06-29T07:55:52Z</time>
      </trkpt>
      <trkpt lat="48.69041" lon="6.84249">
        <ele>250.4</ele>
        <time>2020-06-29T07:55:53Z</time>
      </trkpt>
      <trkpt lat="48.69037" lon="6.84243">
        <ele>250.4</ele>
        <time>2020-06-29T07:55:54Z</time>
      </trkpt>
      <trkpt lat="48.69034" lon="6.84237">
        <ele>250.3</ele>
        <time>2020-06-29T07:55:55Z</time>
      </trkpt>
      <trkpt lat="48.6903" lon="6.84231">
        <ele>250.3</ele>
        <time>2020-06-29T07:55:56Z</time>
      </trkpt>
      <trkpt lat="48.69027" lon="6.84225">
        <ele>250.2</ele>
        <time>2020-06-29T07:55:57Z</time>
      </trkpt>
      <trkpt lat="48.69023" lon="6.84218">
        <ele>250.2</ele>
        <time>2020-06-29T07:55:58Z</time>
      </trkpt>
      <trkpt lat="48.69019" lon="6.84212">
        <ele>250.2</ele>
        <time>2020-06-29T07:55:59Z</time>
      </trkpt>
      <trkpt lat="48.69016" lon="6.84206">
        <ele>250.1</ele>
        <time>2020-06-29T07:56:00Z</time>
      </trkpt>
      <trkpt lat="48.69012" lon="6.842">
        <ele>250.1</ele>
        <time>2020-06-29T07:56:01Z</time>
      </trkpt>
      <trkpt lat="48.69008" lon="6.84194">
        <ele>250</ele>
        <time>2020-06-29T07:56:02Z</time>
      </trkpt>
      <trkpt lat="48.69004" lon="6.84189">
        <ele>250</ele>
        <time>2020-06-29T07:56:03Z</time>
      </trkpt>
      <trkpt lat="48.69" lon="6.84181">
        <ele>249.9</ele>
        <time>2020-06-29T07:56:04Z</time>
      </trkpt>
      <trkpt lat="48.68997" lon="6.84175">
        <ele>249.9</ele>
        <time>2020-06-29T07:56:05Z</time>
      </trkpt>
      <trkpt lat="48.68993" lon="6.84169">
        <ele>249.9</ele>
        <time>2020-06-29T07:56:06Z</time>
      </trkpt>
      <trkpt lat="48.68989" lon="6.8416">
        <ele>249.9</ele>
        <time>2020-06-29T07:56:07Z</time>
      </trkpt>
      <trkpt lat="48.68985" lon="6.84152">
        <ele>249.9</ele>
        <time>2020-06-29T07:56:08Z</time>
      </trkpt>
      <trkpt lat="48.68981" lon="6.84144">
        <ele>249.9</ele>
        <time>2020-06-29T07:56:09Z</time>
      </trkpt>
      <trkpt lat="48.68977" lon="6.84137">
        <ele>249.9</ele>
        <time>2020-06-29T07:56:10Z</time>
      </trkpt>
      <trkpt lat="48.68974" lon="6.84132">
        <ele>249.9</ele>
        <time>2020-06-29T07:56:11Z</time>
      </trkpt>
      <trkpt lat="48.6897" lon="6.84126">
        <ele>249.9</ele>
        <time>2020-06-29T07:56:12Z</time>
      </trkpt>
      <trkpt lat="48.68967" lon="6.8412">
        <ele>249.9</ele>
        <time>2020-06-29T07:56:13Z</time>
      </trkpt>
      <trkpt lat="48.68963" lon="6.84114">
        <ele>249.9</ele>
        <time>2020-06-29T07:56:14Z</time>
      </trkpt>
      <trkpt lat="48.6896" lon="6.84109">
        <ele>249.9</ele>
        <time>2020-06-29T07:56:15Z</time>
      </trkpt>
      <trkpt lat="48.68957" lon="6.84103">
        <ele>249.9</ele>
        <time>2020-06-29T07:56:16Z</time>
      </trkpt>
      <trkpt lat="48.68953" lon="6.84097">
        <ele>249.9</ele>
        <time>2020-06-29T07:56:17Z</time>
      </trkpt>
      <trkpt lat="48.68949" lon="6.84092">
        <ele>249.9</ele>
        <time>2020-06-29T07:56:18Z</time>
      </trkpt>
      <trkpt lat="48.68944" lon="6.84084">
        <ele>249.9</ele>
        <time>2020-06-29T07:56:19Z</time>
      </trkpt>
      <trkpt lat="48.6894" lon="6.84079">
        <ele>249.9</ele>
        <time>2020-06-29T07:56:20Z</time>
      </trkpt>
      <trkpt lat="48.68937" lon="6.84073">
        <ele>249.9</ele>
        <time>2020-06-29T07:56:21Z</time>
      </trkpt>
      <trkpt lat="48.68933" lon="6.84067">
        <ele>249.9</ele>
        <time>2020-06-29T07:56:22Z</time>
      </trkpt>
      <trkpt lat="48.68929" lon="6.84061">
        <ele>249.8</ele>
        <time>2020-06-29T07:56:23Z</time>
      </trkpt>
      <trkpt lat="48.68926" lon="6.84055">
        <ele>249.8</ele>
        <time>2020-06-29T07:56:24Z</time>
      </trkpt>
      <trkpt lat="48.68922" lon="6.84048">
        <ele>249.8</ele>
        <time>2020-06-29T07:56:25Z</time>
      </trkpt>
      <trkpt lat="48.68918" lon="6.8404">
        <ele>249.8</ele>
        <time>2020-06-29T07:56:26Z</time>
      </trkpt>
      <trkpt lat="48.68913" lon="6.84034">
        <ele>249.8</ele>
        <time>2020-06-29T07:56:27Z</time>
      </trkpt>
      <trkpt lat="48.6891" lon="6.84028">
        <ele>249.7</ele>
        <time>2020-06-29T07:56:28Z</time>
      </trkpt>
      <trkpt lat="48.68907" lon="6.84022">
        <ele>249.7</ele>
        <time>2020-06-29T07:56:29Z</time>
      </trkpt>
      <trkpt lat="48.68903" lon="6.84016">
        <ele>249.7</ele>
        <time>2020-06-29T07:56:30Z</time>
      </trkpt>
      <trkpt lat="48.68899" lon="6.84009">
        <ele>249.7</ele>
        <time>2020-06-29T07:56:31Z</time>
      </trkpt>
      <trkpt lat="48.68895" lon="6.84002">
        <ele>249.7</ele>
        <time>2020-06-29T07:56:32Z</time>
      </trkpt>
      <trkpt lat="48.68891" lon="6.83995">
        <ele>249.8</ele>
        <time>2020-06-29T07:56:33Z</time>
      </trkpt>
      <trkpt lat="48.68887" lon="6.83989">
        <ele>249.8</ele>
        <time>2020-06-29T07:56:34Z</time>
      </trkpt>
      <trkpt lat="48.68883" lon="6.83982">
        <ele>249.8</ele>
        <time>2020-06-29T07:56:35Z</time>
      </trkpt>
      <trkpt lat="48.68879" lon="6.83977">
        <ele>249.9</ele>
        <time>2020-06-29T07:56:36Z</time>
      </trkpt>
      <trkpt lat="48.68875" lon="6.83972">
        <ele>249.9</ele>
        <time>2020-06-29T07:56:37Z</time>
      </trkpt>
      <trkpt lat="48.68871" lon="6.83966">
        <ele>249.9</ele>
        <time>2020-06-29T07:56:38Z</time>
      </trkpt>
      <trkpt lat="48.68867" lon="6.8396">
        <ele>250</ele>
        <time>2020-06-29T07:56:39Z</time>
      </trkpt>
      <trkpt lat="48.68863" lon="6.83954">
        <ele>250</ele>
        <time>2020-06-29T07:56:40Z</time>
      </trkpt>
      <trkpt lat="48.6886" lon="6.83948">
        <ele>250.1</ele>
        <time>2020-06-29T07:56:41Z</time>
      </trkpt>
      <trkpt lat="48.68857" lon="6.83943">
        <ele>250.2</ele>
        <time>2020-06-29T07:56:42Z</time>
      </trkpt>
      <trkpt lat="48.68854" lon="6.83939">
        <ele>250.2</ele>
        <time>2020-06-29T07:56:43Z</time>
      </trkpt>
      <trkpt lat="48.68851" lon="6.83934">
        <ele>250.3</ele>
        <time>2020-06-29T07:56:44Z</time>
      </trkpt>
      <trkpt lat="48.68848" lon="6.8393">
        <ele>250.4</ele>
        <time>2020-06-29T07:56:45Z</time>
      </trkpt>
      <trkpt lat="48.68843" lon="6.8393">
        <ele>250.4</ele>
        <time>2020-06-29T07:56:46Z</time>
      </trkpt>
      <trkpt lat="48.68837" lon="6.83932">
        <ele>250.4</ele>
        <time>2020-06-29T07:56:47Z</time>
      </trkpt>
      <trkpt lat="48.68833" lon="6.83934">
        <ele>250.4</ele>
        <time>2020-06-29T07:56:48Z</time>
      </trkpt>
      <trkpt lat="48.68829" lon="6.83937">
        <ele>250.3</ele>
        <time>2020-06-29T07:56:49Z</time>
      </trkpt>
      <trkpt lat="48.68825" lon="6.83939">
        <ele>250.2</ele>
        <time>2020-06-29T07:56:50Z</time>
      </trkpt>
      <trkpt lat="48.68821" lon="6.83942">
        <ele>250.1</ele>
        <time>2020-06-29T07:56:51Z</time>
      </trkpt>
      <trkpt lat="48.68817" lon="6.83942">
        <ele>250.1</ele>
        <time>2020-06-29T07:56:52Z</time>
      </trkpt>
      <trkpt lat="48.68813" lon="6.83943">
        <ele>250</ele>
        <time>2020-06-29T07:56:53Z</time>
      </trkpt>
      <trkpt lat="48.68809" lon="6.83942">
        <ele>249.9</ele>
        <time>2020-06-29T07:56:54Z</time>
      </trkpt>
      <trkpt lat="48.68806" lon="6.8394">
        <ele>249.9</ele>
        <time>2020-06-29T07:56:55Z</time>
      </trkpt>
      <trkpt lat="48.68802" lon="6.83939">
        <ele>249.9</ele>
        <time>2020-06-29T07:56:56Z</time>
      </trkpt>
      <trkpt lat="48.68799" lon="6.83938">
        <ele>249.8</ele>
        <time>2020-06-29T07:56:57Z</time>
      </trkpt>
      <trkpt lat="48.68795" lon="6.83936">
        <ele>249.8</ele>
        <time>2020-06-29T07:56:58Z</time>
      </trkpt>
      <trkpt lat="48.68793" lon="6.83935">
        <ele>249.8</ele>
        <time>2020-06-29T07:56:59Z</time>
      </trkpt>
      <trkpt lat="48.68788" lon="6.83933">
        <ele>249.8</ele>
        <time>2020-06-29T07:57:00Z</time>
      </trkpt>
      <trkpt lat="48.68783" lon="6.83931">
        <ele>249.8</ele>
        <time>2020-06-29T07:57:01Z</time>
      </trkpt>
      <trkpt lat="48.68778" lon="6.83929">
        <ele>249.9</ele>
        <time>2020-06-29T07:57:02Z</time>
      </trkpt>
      <trkpt lat="48.68774" lon="6.83928">
        <ele>249.9</ele>
        <time>2020-06-29T07:57:03Z</time>
      </trkpt>
      <trkpt lat="48.68769" lon="6.83926">
        <ele>250</ele>
        <time>2020-06-29T07:57:04Z</time>
      </trkpt>
      <trkpt lat="48.68764" lon="6.83925">
        <ele>250</ele>
        <time>2020-06-29T07:57:05Z</time>
      </trkpt>
      <trkpt lat="48.68759" lon="6.83922">
        <ele>250</ele>
        <time>2020-06-29T07:57:06Z</time>
      </trkpt>
      <trkpt lat="48.68754" lon="6.83919">
        <ele>250</ele>
        <time>2020-06-29T07:57:07Z</time>
      </trkpt>
      <trkpt lat="48.68749" lon="6.83916">
        <ele>250</ele>
        <time>2020-06-29T07:57:08Z</time>
      </trkpt>
      <trkpt lat="48.68746" lon="6.83914">
        <ele>250</ele>
        <time>2020-06-29T07:57:09Z</time>
      </trkpt>
      <trkpt lat="48.68741" lon="6.8391">
        <ele>250</ele>
        <time>2020-06-29T07:57:10Z</time>
      </trkpt>
      <trkpt lat="48.68738" lon="6.83905">
        <ele>250</ele>
        <time>2020-06-29T07:57:11Z</time>
      </trkpt>
      <trkpt lat="48.68734" lon="6.83901">
        <ele>250</ele>
        <time>2020-06-29T07:57:12Z</time>
      </trkpt>
      <trkpt lat="48.6873" lon="6.83893">
        <ele>250.1</ele>
        <time>2020-06-29T07:57:13Z</time>
      </trkpt>
      <trkpt lat="48.68725" lon="6.83885">
        <ele>250.2</ele>
        <time>2020-06-29T07:57:14Z</time>
      </trkpt>
      <trkpt lat="48.68721" lon="6.83877">
        <ele>250.2</ele>
        <time>2020-06-29T07:57:15Z</time>
      </trkpt>
      <trkpt lat="48.68716" lon="6.83871">
        <ele>250.1</ele>
        <time>2020-06-29T07:57:16Z</time>
      </trkpt>
      <trkpt lat="48.68712" lon="6.83865">
        <ele>250.1</ele>
        <time>2020-06-29T07:57:17Z</time>
      </trkpt>
      <trkpt lat="48.68707" lon="6.83859">
        <ele>250.1</ele>
        <time>2020-06-29T07:57:18Z</time>
      </trkpt>
      <trkpt lat="48.68703" lon="6.83854">
        <ele>250.1</ele>
        <time>2020-06-29T07:57:19Z</time>
      </trkpt>
      <trkpt lat="48.68699" lon="6.83848">
        <ele>250.1</ele>
        <time>2020-06-29T07:57:20Z</time>
      </trkpt>
      <trkpt lat="48.68695" lon="6.83841">
        <ele>250.2</ele>
        <time>2020-06-29T07:57:21Z</time>
      </trkpt>
      <trkpt lat="48.68691" lon="6.83835">
        <ele>250.1</ele>
        <time>2020-06-29T07:57:22Z</time>
      </trkpt>
      <trkpt lat="48.68687" lon="6.83829">
        <ele>250.1</ele>
        <time>2020-06-29T07:57:23Z</time>
      </trkpt>
      <trkpt lat="48.68683" lon="6.83823">
        <ele>250.1</ele>
        <time>2020-06-29T07:57:24Z</time>
      </trkpt>
      <trkpt lat="48.68679" lon="6.83818">
        <ele>250.1</ele>
        <time>2020-06-29T07:57:25Z</time>
      </trkpt>
      <trkpt lat="48.68674" lon="6.83813">
        <ele>250.1</ele>
        <time>2020-06-29T07:57:26Z</time>
      </trkpt>
      <trkpt lat="48.68668" lon="6.83809">
        <ele>250.1</ele>
        <time>2020-06-29T07:57:27Z</time>
      </trkpt>
      <trkpt lat="48.68664" lon="6.83804">
        <ele>250.1</ele>
        <time>2020-06-29T07:57:28Z</time>
      </trkpt>
      <trkpt lat="48.68659" lon="6.83799">
        <ele>250.2</ele>
        <time>2020-06-29T07:57:29Z</time>
      </trkpt>
      <trkpt lat="48.68654" lon="6.83794">
        <ele>250.2</ele>
        <time>2020-06-29T07:57:30Z</time>
      </trkpt>
      <trkpt lat="48.68649" lon="6.8379">
        <ele>250.3</ele>
        <time>2020-06-29T07:57:31Z</time>
      </trkpt>
      <trkpt lat="48.68644" lon="6.83784">
        <ele>250.4</ele>
        <time>2020-06-29T07:57:32Z</time>
      </trkpt>
      <trkpt lat="48.6864" lon="6.83779">
        <ele>250.4</ele>
        <time>2020-06-29T07:57:33Z</time>
      </trkpt>
      <trkpt lat="48.68635" lon="6.83773">
        <ele>250.5</ele>
        <time>2020-06-29T07:57:34Z</time>
      </trkpt>
      <trkpt lat="48.6863" lon="6.83769">
        <ele>250.5</ele>
        <time>2020-06-29T07:57:35Z</time>
      </trkpt>
      <trkpt lat="48.68626" lon="6.83764">
        <ele>250.6</ele>
        <time>2020-06-29T07:57:36Z</time>
      </trkpt>
      <trkpt lat="48.68621" lon="6.83759">
        <ele>250.6</ele>
        <time>2020-06-29T07:57:37Z</time>
      </trkpt>
      <trkpt lat="48.68616" lon="6.83756">
        <ele>250.7</ele>
        <time>2020-06-29T07:57:38Z</time>
      </trkpt>
      <trkpt lat="48.68611" lon="6.83753">
        <ele>250.8</ele>
        <time>2020-06-29T07:57:39Z</time>
      </trkpt>
      <trkpt lat="48.68607" lon="6.8375">
        <ele>250.9</ele>
        <time>2020-06-29T07:57:40Z</time>
      </trkpt>
      <trkpt lat="48.68602" lon="6.83747">
        <ele>251</ele>
        <time>2020-06-29T07:57:41Z</time>
      </trkpt>
      <trkpt lat="48.68597" lon="6.83743">
        <ele>251</ele>
        <time>2020-06-29T07:57:42Z</time>
      </trkpt>
      <trkpt lat="48.68593" lon="6.83739">
        <ele>251.1</ele>
        <time>2020-06-29T07:57:43Z</time>
      </trkpt>
      <trkpt lat="48.68588" lon="6.83735">
        <ele>251.1</ele>
        <time>2020-06-29T07:57:44Z</time>
      </trkpt>
      <trkpt lat="48.68583" lon="6.83731">
        <ele>251.2</ele>
        <time>2020-06-29T07:57:45Z</time>
      </trkpt>
      <trkpt lat="48.68578" lon="6.83728">
        <ele>251.2</ele>
        <time>2020-06-29T07:57:46Z</time>
      </trkpt>
      <trkpt lat="48.68573" lon="6.83723">
        <ele>251.3</ele>
        <time>2020-06-29T07:57:47Z</time>
      </trkpt>
      <trkpt lat="48.68568" lon="6.8372">
        <ele>251.3</ele>
        <time>2020-06-29T07:57:48Z</time>
      </trkpt>
      <trkpt lat="48.68562" lon="6.83718">
        <ele>251.4</ele>
        <time>2020-06-29T07:57:49Z</time>
      </trkpt>
      <trkpt lat="48.68557" lon="6.83716">
        <ele>251.5</ele>
        <time>2020-06-29T07:57:50Z</time>
      </trkpt>
      <trkpt lat="48.68551" lon="6.83715">
        <ele>251.5</ele>
        <time>2020-06-29T07:57:51Z</time>
      </trkpt>
      <trkpt lat="48.68546" lon="6.83711">
        <ele>251.6</ele>
        <time>2020-06-29T07:57:52Z</time>
      </trkpt>
      <trkpt lat="48.68541" lon="6.8371">
        <ele>251.6</ele>
        <time>2020-06-29T07:57:53Z</time>
      </trkpt>
      <trkpt lat="48.68535" lon="6.83707">
        <ele>251.7</ele>
        <time>2020-06-29T07:57:54Z</time>
      </trkpt>
      <trkpt lat="48.6853" lon="6.83704">
        <ele>251.8</ele>
        <time>2020-06-29T07:57:55Z</time>
      </trkpt>
      <trkpt lat="48.68525" lon="6.837">
        <ele>251.8</ele>
        <time>2020-06-29T07:57:56Z</time>
      </trkpt>
      <trkpt lat="48.6852" lon="6.83695">
        <ele>251.9</ele>
        <time>2020-06-29T07:57:57Z</time>
      </trkpt>
      <trkpt lat="48.68516" lon="6.83691">
        <ele>252.1</ele>
        <time>2020-06-29T07:57:58Z</time>
      </trkpt>
      <trkpt lat="48.68511" lon="6.83687">
        <ele>252.4</ele>
        <time>2020-06-29T07:57:59Z</time>
      </trkpt>
      <trkpt lat="48.68506" lon="6.83685">
        <ele>252.6</ele>
        <time>2020-06-29T07:58:00Z</time>
      </trkpt>
      <trkpt lat="48.68501" lon="6.83685">
        <ele>252.8</ele>
        <time>2020-06-29T07:58:01Z</time>
      </trkpt>
      <trkpt lat="48.68497" lon="6.83685">
        <ele>253</ele>
        <time>2020-06-29T07:58:02Z</time>
      </trkpt>
      <trkpt lat="48.68494" lon="6.83686">
        <ele>253.1</ele>
        <time>2020-06-29T07:58:03Z</time>
      </trkpt>
      <trkpt lat="48.6849" lon="6.83686">
        <ele>253.2</ele>
        <time>2020-06-29T07:58:04Z</time>
      </trkpt>
      <trkpt lat="48.68486" lon="6.83685">
        <ele>253.2</ele>
        <time>2020-06-29T07:58:05Z</time>
      </trkpt>
      <trkpt lat="48.68482" lon="6.83685">
        <ele>253.3</ele>
        <time>2020-06-29T07:58:06Z</time>
      </trkpt>
      <trkpt lat="48.68478" lon="6.83685">
        <ele>253.3</ele>
        <time>2020-06-29T07:58:07Z</time>
      </trkpt>
      <trkpt lat="48.68474" lon="6.83686">
        <ele>253.4</ele>
        <time>2020-06-29T07:58:08Z</time>
      </trkpt>
      <trkpt lat="48.6847" lon="6.83686">
        <ele>253.4</ele>
        <time>2020-06-29T07:58:09Z</time>
      </trkpt>
      <trkpt lat="48.68466" lon="6.83687">
        <ele>253.5</ele>
        <time>2020-06-29T07:58:10Z</time>
      </trkpt>
      <trkpt lat="48.68463" lon="6.83687">
        <ele>253.5</ele>
        <time>2020-06-29T07:58:11Z</time>
      </trkpt>
      <trkpt lat="48.68459" lon="6.83686">
        <ele>253.6</ele>
        <time>2020-06-29T07:58:12Z</time>
      </trkpt>
      <trkpt lat="48.68454" lon="6.83686">
        <ele>253.6</ele>
        <time>2020-06-29T07:58:13Z</time>
      </trkpt>
      <trkpt lat="48.68449" lon="6.83688">
        <ele>253.6</ele>
        <time>2020-06-29T07:58:14Z</time>
      </trkpt>
      <trkpt lat="48.68444" lon="6.83689">
        <ele>253.5</ele>
        <time>2020-06-29T07:58:15Z</time>
      </trkpt>
      <trkpt lat="48.68439" lon="6.83689">
        <ele>253.4</ele>
        <time>2020-06-29T07:58:16Z</time>
      </trkpt>
      <trkpt lat="48.68434" lon="6.8369">
        <ele>253.4</ele>
        <time>2020-06-29T07:58:17Z</time>
      </trkpt>
      <trkpt lat="48.68429" lon="6.83692">
        <ele>253.5</ele>
        <time>2020-06-29T07:58:18Z</time>
      </trkpt>
      <trkpt lat="48.68424" lon="6.83693">
        <ele>253.6</ele>
        <time>2020-06-29T07:58:19Z</time>
      </trkpt>
      <trkpt lat="48.68419" lon="6.83695">
        <ele>253.6</ele>
        <time>2020-06-29T07:58:20Z</time>
      </trkpt>
      <trkpt lat="48.68414" lon="6.83697">
        <ele>253.7</ele>
        <time>2020-06-29T07:58:21Z</time>
      </trkpt>
      <trkpt lat="48.68409" lon="6.83698">
        <ele>253.8</ele>
        <time>2020-06-29T07:58:22Z</time>
      </trkpt>
      <trkpt lat="48.68405" lon="6.83698">
        <ele>254</ele>
        <time>2020-06-29T07:58:23Z</time>
      </trkpt>
      <trkpt lat="48.684" lon="6.83699">
        <ele>254.1</ele>
        <time>2020-06-29T07:58:24Z</time>
      </trkpt>
      <trkpt lat="48.68396" lon="6.83699">
        <ele>254.2</ele>
        <time>2020-06-29T07:58:25Z</time>
      </trkpt>
      <trkpt lat="48.68392" lon="6.83697">
        <ele>254.2</ele>
        <time>2020-06-29T07:58:26Z</time>
      </trkpt>
      <trkpt lat="48.68389" lon="6.83699">
        <ele>254.3</ele>
        <time>2020-06-29T07:58:27Z</time>
      </trkpt>
      <trkpt lat="48.68386" lon="6.83697">
        <ele>254.3</ele>
        <time>2020-06-29T07:58:28Z</time>
      </trkpt>
      <trkpt lat="48.68383" lon="6.83693">
        <ele>254.4</ele>
        <time>2020-06-29T07:58:29Z</time>
      </trkpt>
      <trkpt lat="48.6838" lon="6.83687">
        <ele>254.4</ele>
        <time>2020-06-29T07:58:30Z</time>
      </trkpt>
      <trkpt lat="48.68377" lon="6.83683">
        <ele>254.4</ele>
        <time>2020-06-29T07:58:31Z</time>
      </trkpt>
      <trkpt lat="48.68373" lon="6.83679">
        <ele>254.6</ele>
        <time>2020-06-29T07:58:32Z</time>
      </trkpt>
      <trkpt lat="48.6837" lon="6.83675">
        <ele>254.6</ele>
        <time>2020-06-29T07:58:33Z</time>
      </trkpt>
      <trkpt lat="48.68367" lon="6.83671">
        <ele>254.6</ele>
        <time>2020-06-29T07:58:34Z</time>
      </trkpt>
      <trkpt lat="48.68364" lon="6.83666">
        <ele>254.5</ele>
        <time>2020-06-29T07:58:35Z</time>
      </trkpt>
      <trkpt lat="48.68361" lon="6.83662">
        <ele>254.5</ele>
        <time>2020-06-29T07:58:36Z</time>
      </trkpt>
      <trkpt lat="48.68357" lon="6.83657">
        <ele>254.4</ele>
        <time>2020-06-29T07:58:37Z</time>
      </trkpt>
      <trkpt lat="48.68355" lon="6.83651">
        <ele>254.3</ele>
        <time>2020-06-29T07:58:38Z</time>
      </trkpt>
      <trkpt lat="48.68352" lon="6.83646">
        <ele>254.2</ele>
        <time>2020-06-29T07:58:39Z</time>
      </trkpt>
      <trkpt lat="48.68348" lon="6.8364">
        <ele>254.1</ele>
        <time>2020-06-29T07:58:40Z</time>
      </trkpt>
      <trkpt lat="48.68345" lon="6.83634">
        <ele>254</ele>
        <time>2020-06-29T07:58:41Z</time>
      </trkpt>
      <trkpt lat="48.68342" lon="6.83627">
        <ele>253.9</ele>
        <time>2020-06-29T07:58:42Z</time>
      </trkpt>
      <trkpt lat="48.68339" lon="6.83621">
        <ele>253.9</ele>
        <time>2020-06-29T07:58:43Z</time>
      </trkpt>
      <trkpt lat="48.68336" lon="6.83615">
        <ele>253.8</ele>
        <time>2020-06-29T07:58:44Z</time>
      </trkpt>
      <trkpt lat="48.68333" lon="6.83609">
        <ele>253.7</ele>
        <time>2020-06-29T07:58:45Z</time>
      </trkpt>
      <trkpt lat="48.68331" lon="6.83601">
        <ele>253.6</ele>
        <time>2020-06-29T07:58:46Z</time>
      </trkpt>
      <trkpt lat="48.68328" lon="6.83595">
        <ele>253.6</ele>
        <time>2020-06-29T07:58:47Z</time>
      </trkpt>
      <trkpt lat="48.68325" lon="6.83589">
        <ele>253.5</ele>
        <time>2020-06-29T07:58:48Z</time>
      </trkpt>
      <trkpt lat="48.68321" lon="6.83582">
        <ele>253.4</ele>
        <time>2020-06-29T07:58:49Z</time>
      </trkpt>
      <trkpt lat="48.68317" lon="6.83576">
        <ele>253.4</ele>
        <time>2020-06-29T07:58:50Z</time>
      </trkpt>
      <trkpt lat="48.68312" lon="6.83571">
        <ele>253.4</ele>
        <time>2020-06-29T07:58:51Z</time>
      </trkpt>
      <trkpt lat="48.68307" lon="6.83565">
        <ele>253.3</ele>
        <time>2020-06-29T07:58:52Z</time>
      </trkpt>
      <trkpt lat="48.68303" lon="6.83559">
        <ele>253.3</ele>
        <time>2020-06-29T07:58:53Z</time>
      </trkpt>
      <trkpt lat="48.68298" lon="6.83553">
        <ele>253.3</ele>
        <time>2020-06-29T07:58:54Z</time>
      </trkpt>
      <trkpt lat="48.68294" lon="6.83549">
        <ele>253.2</ele>
        <time>2020-06-29T07:58:55Z</time>
      </trkpt>
      <trkpt lat="48.68289" lon="6.83544">
        <ele>253.2</ele>
        <time>2020-06-29T07:58:56Z</time>
      </trkpt>
      <trkpt lat="48.68285" lon="6.83537">
        <ele>253.2</ele>
        <time>2020-06-29T07:58:57Z</time>
      </trkpt>
      <trkpt lat="48.68281" lon="6.83531">
        <ele>253.2</ele>
        <time>2020-06-29T07:58:58Z</time>
      </trkpt>
      <trkpt lat="48.68276" lon="6.83524">
        <ele>253.2</ele>
        <time>2020-06-29T07:58:59Z</time>
      </trkpt>
      <trkpt lat="48.68273" lon="6.83517">
        <ele>253.2</ele>
        <time>2020-06-29T07:59:00Z</time>
      </trkpt>
      <trkpt lat="48.68268" lon="6.8351">
        <ele>253.3</ele>
        <time>2020-06-29T07:59:01Z</time>
      </trkpt>
      <trkpt lat="48.68264" lon="6.83503">
        <ele>253.4</ele>
        <time>2020-06-29T07:59:02Z</time>
      </trkpt>
      <trkpt lat="48.68261" lon="6.83495">
        <ele>253.5</ele>
        <time>2020-06-29T07:59:03Z</time>
      </trkpt>
      <trkpt lat="48.68258" lon="6.83488">
        <ele>253.5</ele>
        <time>2020-06-29T07:59:04Z</time>
      </trkpt>
      <trkpt lat="48.68255" lon="6.83481">
        <ele>253.6</ele>
        <time>2020-06-29T07:59:05Z</time>
      </trkpt>
      <trkpt lat="48.68253" lon="6.83474">
        <ele>253.7</ele>
        <time>2020-06-29T07:59:06Z</time>
      </trkpt>
      <trkpt lat="48.6825" lon="6.83466">
        <ele>253.8</ele>
        <time>2020-06-29T07:59:07Z</time>
      </trkpt>
      <trkpt lat="48.68247" lon="6.83459">
        <ele>253.9</ele>
        <time>2020-06-29T07:59:08Z</time>
      </trkpt>
      <trkpt lat="48.68244" lon="6.83453">
        <ele>254</ele>
        <time>2020-06-29T07:59:09Z</time>
      </trkpt>
      <trkpt lat="48.68242" lon="6.83446">
        <ele>254.1</ele>
        <time>2020-06-29T07:59:10Z</time>
      </trkpt>
      <trkpt lat="48.68241" lon="6.8344">
        <ele>254.1</ele>
        <time>2020-06-29T07:59:11Z</time>
      </trkpt>
      <trkpt lat="48.68239" lon="6.83434">
        <ele>254.2</ele>
        <time>2020-06-29T07:59:12Z</time>
      </trkpt>
      <trkpt lat="48.68237" lon="6.83428">
        <ele>254.2</ele>
        <time>2020-06-29T07:59:13Z</time>
      </trkpt>
      <trkpt lat="48.68235" lon="6.83421">
        <ele>254.3</ele>
        <time>2020-06-29T07:59:14Z</time>
      </trkpt>
      <trkpt lat="48.68233" lon="6.83413">
        <ele>254.3</ele>
        <time>2020-06-29T07:59:15Z</time>
      </trkpt>
      <trkpt lat="48.68232" lon="6.83406">
        <ele>254.4</ele>
        <time>2020-06-29T07:59:16Z</time>
      </trkpt>
      <trkpt lat="48.6823" lon="6.83398">
        <ele>254.4</ele>
        <time>2020-06-29T07:59:17Z</time>
      </trkpt>
      <trkpt lat="48.68227" lon="6.8339">
        <ele>254.5</ele>
        <time>2020-06-29T07:59:18Z</time>
      </trkpt>
      <trkpt lat="48.68226" lon="6.83382">
        <ele>254.5</ele>
        <time>2020-06-29T07:59:19Z</time>
      </trkpt>
      <trkpt lat="48.68224" lon="6.83375">
        <ele>254.4</ele>
        <time>2020-06-29T07:59:20Z</time>
      </trkpt>
      <trkpt lat="48.68221" lon="6.83368">
        <ele>254.4</ele>
        <time>2020-06-29T07:59:21Z</time>
      </trkpt>
      <trkpt lat="48.68219" lon="6.83362">
        <ele>254.4</ele>
        <time>2020-06-29T07:59:22Z</time>
      </trkpt>
      <trkpt lat="48.68216" lon="6.83355">
        <ele>254.4</ele>
        <time>2020-06-29T07:59:23Z</time>
      </trkpt>
      <trkpt lat="48.68214" lon="6.83349">
        <ele>254.4</ele>
        <time>2020-06-29T07:59:24Z</time>
      </trkpt>
      <trkpt lat="48.68211" lon="6.83342">
        <ele>254.4</ele>
        <time>2020-06-29T07:59:25Z</time>
      </trkpt>
      <trkpt lat="48.68209" lon="6.83336">
        <ele>254.4</ele>
        <time>2020-06-29T07:59:26Z</time>
      </trkpt>
      <trkpt lat="48.68206" lon="6.8333">
        <ele>254.4</ele>
        <time>2020-06-29T07:59:27Z</time>
      </trkpt>
      <trkpt lat="48.68203" lon="6.83323">
        <ele>254.4</ele>
        <time>2020-06-29T07:59:28Z</time>
      </trkpt>
      <trkpt lat="48.68199" lon="6.83316">
        <ele>254.4</ele>
        <time>2020-06-29T07:59:29Z</time>
      </trkpt>
      <trkpt lat="48.68195" lon="6.8331">
        <ele>254.3</ele>
        <time>2020-06-29T07:59:30Z</time>
      </trkpt>
      <trkpt lat="48.68191" lon="6.83302">
        <ele>254.3</ele>
        <time>2020-06-29T07:59:31Z</time>
      </trkpt>
      <trkpt lat="48.68189" lon="6.83296">
        <ele>254.2</ele>
        <time>2020-06-29T07:59:32Z</time>
      </trkpt>
      <trkpt lat="48.68186" lon="6.83292">
        <ele>254.1</ele>
        <time>2020-06-29T07:59:33Z</time>
      </trkpt>
      <trkpt lat="48.68181" lon="6.83285">
        <ele>254.1</ele>
        <time>2020-06-29T07:59:34Z</time>
      </trkpt>
      <trkpt lat="48.68178" lon="6.83279">
        <ele>254</ele>
        <time>2020-06-29T07:59:35Z</time>
      </trkpt>
      <trkpt lat="48.68174" lon="6.83272">
        <ele>253.9</ele>
        <time>2020-06-29T07:59:36Z</time>
      </trkpt>
      <trkpt lat="48.6817" lon="6.83266">
        <ele>253.8</ele>
        <time>2020-06-29T07:59:37Z</time>
      </trkpt>
      <trkpt lat="48.68166" lon="6.8326">
        <ele>253.7</ele>
        <time>2020-06-29T07:59:38Z</time>
      </trkpt>
      <trkpt lat="48.68162" lon="6.83254">
        <ele>253.7</ele>
        <time>2020-06-29T07:59:39Z</time>
      </trkpt>
      <trkpt lat="48.68157" lon="6.83248">
        <ele>253.6</ele>
        <time>2020-06-29T07:59:40Z</time>
      </trkpt>
      <trkpt lat="48.68154" lon="6.83242">
        <ele>253.6</ele>
        <time>2020-06-29T07:59:41Z</time>
      </trkpt>
      <trkpt lat="48.6815" lon="6.83237">
        <ele>253.5</ele>
        <time>2020-06-29T07:59:42Z</time>
      </trkpt>
      <trkpt lat="48.68146" lon="6.83231">
        <ele>253.5</ele>
        <time>2020-06-29T07:59:43Z</time>
      </trkpt>
      <trkpt lat="48.68143" lon="6.83225">
        <ele>253.5</ele>
        <time>2020-06-29T07:59:44Z</time>
      </trkpt>
      <trkpt lat="48.68138" lon="6.83221">
        <ele>253.4</ele>
        <time>2020-06-29T07:59:45Z</time>
      </trkpt>
      <trkpt lat="48.68134" lon="6.83216">
        <ele>253.4</ele>
        <time>2020-06-29T07:59:46Z</time>
      </trkpt>
      <trkpt lat="48.68129" lon="6.83212">
        <ele>253.3</ele>
        <time>2020-06-29T07:59:47Z</time>
      </trkpt>
      <trkpt lat="48.68123" lon="6.83207">
        <ele>253.2</ele>
        <time>2020-06-29T07:59:48Z</time>
      </trkpt>
      <trkpt lat="48.68118" lon="6.83202">
        <ele>253.1</ele>
        <time>2020-06-29T07:59:49Z</time>
      </trkpt>
      <trkpt lat="48.68113" lon="6.83198">
        <ele>253</ele>
        <time>2020-06-29T07:59:50Z</time>
      </trkpt>
      <trkpt lat="48.68108" lon="6.83194">
        <ele>252.8</ele>
        <time>2020-06-29T07:59:51Z</time>
      </trkpt>
      <trkpt lat="48.68103" lon="6.8319">
        <ele>252.7</ele>
        <time>2020-06-29T07:59:52Z</time>
      </trkpt>
      <trkpt lat="48.68099" lon="6.83185">
        <ele>252.5</ele>
        <time>2020-06-29T07:59:53Z</time>
      </trkpt>
      <trkpt lat="48.68095" lon="6.83179">
        <ele>252.4</ele>
        <time>2020-06-29T07:59:54Z</time>
      </trkpt>
      <trkpt lat="48.68093" lon="6.83172">
        <ele>252.3</ele>
        <time>2020-06-29T07:59:55Z</time>
      </trkpt>
      <trkpt lat="48.68091" lon="6.83164">
        <ele>252.3</ele>
        <time>2020-06-29T07:59:56Z</time>
      </trkpt>
      <trkpt lat="48.68091" lon="6.83155">
        <ele>252.2</ele>
        <time>2020-06-29T07:59:57Z</time>
      </trkpt>
      <trkpt lat="48.68092" lon="6.83146">
        <ele>252.2</ele>
        <time>2020-06-29T07:59:58Z</time>
      </trkpt>
      <trkpt lat="48.68093" lon="6.83137">
        <ele>252.3</ele>
        <time>2020-06-29T07:59:59Z</time>
      </trkpt>
      <trkpt lat="48.68094" lon="6.83128">
        <ele>252.3</ele>
        <time>2020-06-29T08:00:00Z</time>
      </trkpt>
      <trkpt lat="48.68095" lon="6.83119">
        <ele>252.2</ele>
        <time>2020-06-29T08:00:01Z</time>
      </trkpt>
      <trkpt lat="48.68094" lon="6.83112">
        <ele>252.1</ele>
        <time>2020-06-29T08:00:02Z</time>
      </trkpt>
      <trkpt lat="48.6809" lon="6.83108">
        <ele>252</ele>
        <time>2020-06-29T08:00:03Z</time>
      </trkpt>
      <trkpt lat="48.68086" lon="6.83103">
        <ele>251.9</ele>
        <time>2020-06-29T08:00:04Z</time>
      </trkpt>
      <trkpt lat="48.68083" lon="6.83097">
        <ele>251.8</ele>
        <time>2020-06-29T08:00:05Z</time>
      </trkpt>
      <trkpt lat="48.68079" lon="6.83089">
        <ele>251.7</ele>
        <time>2020-06-29T08:00:06Z</time>
      </trkpt>
      <trkpt lat="48.68075" lon="6.83083">
        <ele>251.6</ele>
        <time>2020-06-29T08:00:07Z</time>
      </trkpt>
      <trkpt lat="48.68072" lon="6.83076">
        <ele>251.4</ele>
        <time>2020-06-29T08:00:08Z</time>
      </trkpt>
      <trkpt lat="48.68069" lon="6.83066">
        <ele>251.3</ele>
        <time>2020-06-29T08:00:09Z</time>
      </trkpt>
      <trkpt lat="48.68066" lon="6.83057">
        <ele>251.2</ele>
        <time>2020-06-29T08:00:10Z</time>
      </trkpt>
      <trkpt lat="48.68064" lon="6.83048">
        <ele>251</ele>
        <time>2020-06-29T08:00:11Z</time>
      </trkpt>
      <trkpt lat="48.68063" lon="6.83038">
        <ele>250.9</ele>
        <time>2020-06-29T08:00:12Z</time>
      </trkpt>
      <trkpt lat="48.68061" lon="6.83027">
        <ele>250.8</ele>
        <time>2020-06-29T08:00:13Z</time>
      </trkpt>
      <trkpt lat="48.68062" lon="6.83016">
        <ele>250.7</ele>
        <time>2020-06-29T08:00:14Z</time>
      </trkpt>
      <trkpt lat="48.68063" lon="6.83007">
        <ele>250.7</ele>
        <time>2020-06-29T08:00:15Z</time>
      </trkpt>
      <trkpt lat="48.68063" lon="6.82997">
        <ele>250.8</ele>
        <time>2020-06-29T08:00:16Z</time>
      </trkpt>
      <trkpt lat="48.68063" lon="6.82988">
        <ele>250.8</ele>
        <time>2020-06-29T08:00:17Z</time>
      </trkpt>
      <trkpt lat="48.68061" lon="6.8298">
        <ele>250.7</ele>
        <time>2020-06-29T08:00:18Z</time>
      </trkpt>
      <trkpt lat="48.68058" lon="6.82974">
        <ele>250.7</ele>
        <time>2020-06-29T08:00:19Z</time>
      </trkpt>
      <trkpt lat="48.68053" lon="6.8297">
        <ele>250.6</ele>
        <time>2020-06-29T08:00:20Z</time>
      </trkpt>
      <trkpt lat="48.68048" lon="6.82968">
        <ele>250.6</ele>
        <time>2020-06-29T08:00:21Z</time>
      </trkpt>
      <trkpt lat="48.68042" lon="6.82965">
        <ele>250.7</ele>
        <time>2020-06-29T08:00:22Z</time>
      </trkpt>
      <trkpt lat="48.68038" lon="6.82962">
        <ele>250.7</ele>
        <time>2020-06-29T08:00:23Z</time>
      </trkpt>
      <trkpt lat="48.68032" lon="6.82959">
        <ele>250.7</ele>
        <time>2020-06-29T08:00:24Z</time>
      </trkpt>
      <trkpt lat="48.68026" lon="6.82954">
        <ele>250.8</ele>
        <time>2020-06-29T08:00:25Z</time>
      </trkpt>
      <trkpt lat="48.6802" lon="6.82951">
        <ele>250.8</ele>
        <time>2020-06-29T08:00:26Z</time>
      </trkpt>
      <trkpt lat="48.68015" lon="6.82947">
        <ele>250.8</ele>
        <time>2020-06-29T08:00:27Z</time>
      </trkpt>
      <trkpt lat="48.68011" lon="6.82941">
        <ele>250.8</ele>
        <time>2020-06-29T08:00:28Z</time>
      </trkpt>
      <trkpt lat="48.68008" lon="6.82935">
        <ele>250.8</ele>
        <time>2020-06-29T08:00:29Z</time>
      </trkpt>
      <trkpt lat="48.68004" lon="6.82927">
        <ele>250.9</ele>
        <time>2020-06-29T08:00:30Z</time>
      </trkpt>
      <trkpt lat="48.68001" lon="6.82917">
        <ele>251</ele>
        <time>2020-06-29T08:00:31Z</time>
      </trkpt>
      <trkpt lat="48.67997" lon="6.82909">
        <ele>251.2</ele>
        <time>2020-06-29T08:00:32Z</time>
      </trkpt>
      <trkpt lat="48.67993" lon="6.82901">
        <ele>251.4</ele>
        <time>2020-06-29T08:00:33Z</time>
      </trkpt>
      <trkpt lat="48.6799" lon="6.82893">
        <ele>251.5</ele>
        <time>2020-06-29T08:00:34Z</time>
      </trkpt>
      <trkpt lat="48.67987" lon="6.82887">
        <ele>251.6</ele>
        <time>2020-06-29T08:00:35Z</time>
      </trkpt>
      <trkpt lat="48.67984" lon="6.8288">
        <ele>251.7</ele>
        <time>2020-06-29T08:00:36Z</time>
      </trkpt>
      <trkpt lat="48.67981" lon="6.82872">
        <ele>251.9</ele>
        <time>2020-06-29T08:00:37Z</time>
      </trkpt>
      <trkpt lat="48.67977" lon="6.82866">
        <ele>252.1</ele>
        <time>2020-06-29T08:00:38Z</time>
      </trkpt>
      <trkpt lat="48.67973" lon="6.8286">
        <ele>252.3</ele>
        <time>2020-06-29T08:00:39Z</time>
      </trkpt>
      <trkpt lat="48.6797" lon="6.82854">
        <ele>252.5</ele>
        <time>2020-06-29T08:00:40Z</time>
      </trkpt>
      <trkpt lat="48.67967" lon="6.82848">
        <ele>252.7</ele>
        <time>2020-06-29T08:00:41Z</time>
      </trkpt>
      <trkpt lat="48.67965" lon="6.82843">
        <ele>252.9</ele>
        <time>2020-06-29T08:00:42Z</time>
      </trkpt>
      <trkpt lat="48.67963" lon="6.82837">
        <ele>253.1</ele>
        <time>2020-06-29T08:00:43Z</time>
      </trkpt>
      <trkpt lat="48.67961" lon="6.82833">
        <ele>253.2</ele>
        <time>2020-06-29T08:00:44Z</time>
      </trkpt>
      <trkpt lat="48.67958" lon="6.82827">
        <ele>253.4</ele>
        <time>2020-06-29T08:00:45Z</time>
      </trkpt>
      <trkpt lat="48.67956" lon="6.82823">
        <ele>253.5</ele>
        <time>2020-06-29T08:00:46Z</time>
      </trkpt>
      <trkpt lat="48.67953" lon="6.82818">
        <ele>253.7</ele>
        <time>2020-06-29T08:00:47Z</time>
      </trkpt>
      <trkpt lat="48.6795" lon="6.82813">
        <ele>253.9</ele>
        <time>2020-06-29T08:00:48Z</time>
      </trkpt>
      <trkpt lat="48.67947" lon="6.82807">
        <ele>254</ele>
        <time>2020-06-29T08:00:49Z</time>
      </trkpt>
      <trkpt lat="48.67944" lon="6.828">
        <ele>254.2</ele>
        <time>2020-06-29T08:00:50Z</time>
      </trkpt>
      <trkpt lat="48.67941" lon="6.82791">
        <ele>254.4</ele>
        <time>2020-06-29T08:00:51Z</time>
      </trkpt>
      <trkpt lat="48.67938" lon="6.82783">
        <ele>254.6</ele>
        <time>2020-06-29T08:00:52Z</time>
      </trkpt>
      <trkpt lat="48.67935" lon="6.82777">
        <ele>254.8</ele>
        <time>2020-06-29T08:00:53Z</time>
      </trkpt>
      <trkpt lat="48.67932" lon="6.82771">
        <ele>254.9</ele>
        <time>2020-06-29T08:00:54Z</time>
      </trkpt>
      <trkpt lat="48.67929" lon="6.82765">
        <ele>255.1</ele>
        <time>2020-06-29T08:00:55Z</time>
      </trkpt>
      <trkpt lat="48.67927" lon="6.82758">
        <ele>255.1</ele>
        <time>2020-06-29T08:00:56Z</time>
      </trkpt>
      <trkpt lat="48.67925" lon="6.82752">
        <ele>255.2</ele>
        <time>2020-06-29T08:00:57Z</time>
      </trkpt>
      <trkpt lat="48.67922" lon="6.82745">
        <ele>255.2</ele>
        <time>2020-06-29T08:00:58Z</time>
      </trkpt>
      <trkpt lat="48.67921" lon="6.8274">
        <ele>255.3</ele>
        <time>2020-06-29T08:00:59Z</time>
      </trkpt>
      <trkpt lat="48.67921" lon="6.82735">
        <ele>255.2</ele>
        <time>2020-06-29T08:01:00Z</time>
      </trkpt>
      <trkpt lat="48.67924" lon="6.82733">
        <ele>255.2</ele>
        <time>2020-06-29T08:01:01Z</time>
      </trkpt>
      <trkpt lat="48.67925" lon="6.82732">
        <ele>255.2</ele>
        <time>2020-06-29T08:01:02Z</time>
      </trkpt>
      <trkpt lat="48.67928" lon="6.8273">
        <ele>255.2</ele>
        <time>2020-06-29T08:01:03Z</time>
      </trkpt>
      <trkpt lat="48.67931" lon="6.82727">
        <ele>255.1</ele>
        <time>2020-06-29T08:01:04Z</time>
      </trkpt>
      <trkpt lat="48.67932" lon="6.82726">
        <ele>255.1</ele>
        <time>2020-06-29T08:01:05Z</time>
      </trkpt>
      <trkpt lat="48.67934" lon="6.82723">
        <ele>255</ele>
        <time>2020-06-29T08:01:06Z</time>
      </trkpt>
      <trkpt lat="48.67938" lon="6.82719">
        <ele>254.9</ele>
        <time>2020-06-29T08:01:07Z</time>
      </trkpt>
      <trkpt lat="48.67941" lon="6.82715">
        <ele>254.8</ele>
        <time>2020-06-29T08:01:08Z</time>
      </trkpt>
      <trkpt lat="48.67945" lon="6.82712">
        <ele>254.7</ele>
        <time>2020-06-29T08:01:09Z</time>
      </trkpt>
      <trkpt lat="48.67949" lon="6.82709">
        <ele>254.7</ele>
        <time>2020-06-29T08:01:10Z</time>
      </trkpt>
      <trkpt lat="48.67951" lon="6.82706">
        <ele>254.6</ele>
        <time>2020-06-29T08:01:11Z</time>
      </trkpt>
      <trkpt lat="48.67955" lon="6.82702">
        <ele>254.6</ele>
        <time>2020-06-29T08:01:12Z</time>
      </trkpt>
      <trkpt lat="48.67958" lon="6.82699">
        <ele>254.5</ele>
        <time>2020-06-29T08:01:13Z</time>
      </trkpt>
      <trkpt lat="48.67962" lon="6.82696">
        <ele>254.5</ele>
        <time>2020-06-29T08:01:14Z</time>
      </trkpt>
      <trkpt lat="48.67966" lon="6.82691">
        <ele>254.5</ele>
        <time>2020-06-29T08:01:15Z</time>
      </trkpt>
      <trkpt lat="48.6797" lon="6.82686">
        <ele>254.6</ele>
        <time>2020-06-29T08:01:16Z</time>
      </trkpt>
      <trkpt lat="48.67974" lon="6.82682">
        <ele>254.6</ele>
        <time>2020-06-29T08:01:17Z</time>
      </trkpt>
      <trkpt lat="48.67978" lon="6.82678">
        <ele>254.6</ele>
        <time>2020-06-29T08:01:18Z</time>
      </trkpt>
      <trkpt lat="48.67984" lon="6.82671">
        <ele>254.7</ele>
        <time>2020-06-29T08:01:19Z</time>
      </trkpt>
      <trkpt lat="48.67988" lon="6.82667">
        <ele>254.7</ele>
        <time>2020-06-29T08:01:20Z</time>
      </trkpt>
      <trkpt lat="48.67994" lon="6.82661">
        <ele>254.7</ele>
        <time>2020-06-29T08:01:21Z</time>
      </trkpt>
      <trkpt lat="48.67999" lon="6.82655">
        <ele>254.7</ele>
        <time>2020-06-29T08:01:22Z</time>
      </trkpt>
      <trkpt lat="48.68005" lon="6.82649">
        <ele>254.7</ele>
        <time>2020-06-29T08:01:23Z</time>
      </trkpt>
      <trkpt lat="48.68009" lon="6.82644">
        <ele>254.7</ele>
        <time>2020-06-29T08:01:24Z</time>
      </trkpt>
      <trkpt lat="48.68014" lon="6.82637">
        <ele>254.8</ele>
        <time>2020-06-29T08:01:25Z</time>
      </trkpt>
      <trkpt lat="48.68019" lon="6.82631">
        <ele>254.9</ele>
        <time>2020-06-29T08:01:26Z</time>
      </trkpt>
      <trkpt lat="48.68023" lon="6.82627">
        <ele>254.9</ele>
        <time>2020-06-29T08:01:27Z</time>
      </trkpt>
      <trkpt lat="48.68028" lon="6.82622">
        <ele>254.9</ele>
        <time>2020-06-29T08:01:28Z</time>
      </trkpt>
      <trkpt lat="48.68032" lon="6.82619">
        <ele>255</ele>
        <time>2020-06-29T08:01:29Z</time>
      </trkpt>
      <trkpt lat="48.68038" lon="6.82614">
        <ele>255</ele>
        <time>2020-06-29T08:01:30Z</time>
      </trkpt>
      <trkpt lat="48.68044" lon="6.82609">
        <ele>255</ele>
        <time>2020-06-29T08:01:31Z</time>
      </trkpt>
      <trkpt lat="48.68049" lon="6.82603">
        <ele>255</ele>
        <time>2020-06-29T08:01:32Z</time>
      </trkpt>
      <trkpt lat="48.68054" lon="6.82598">
        <ele>255</ele>
        <time>2020-06-29T08:01:33Z</time>
      </trkpt>
      <trkpt lat="48.68059" lon="6.82593">
        <ele>254.9</ele>
        <time>2020-06-29T08:01:34Z</time>
      </trkpt>
      <trkpt lat="48.68064" lon="6.82587">
        <ele>254.9</ele>
        <time>2020-06-29T08:01:35Z</time>
      </trkpt>
      <trkpt lat="48.68068" lon="6.82583">
        <ele>254.8</ele>
        <time>2020-06-29T08:01:36Z</time>
      </trkpt>
      <trkpt lat="48.68074" lon="6.82574">
        <ele>254.6</ele>
        <time>2020-06-29T08:01:37Z</time>
      </trkpt>
      <trkpt lat="48.68077" lon="6.8257">
        <ele>254.4</ele>
        <time>2020-06-29T08:01:38Z</time>
      </trkpt>
      <trkpt lat="48.6808" lon="6.82566">
        <ele>253.9</ele>
        <time>2020-06-29T08:01:39Z</time>
      </trkpt>
      <trkpt lat="48.68083" lon="6.82562">
        <ele>253.6</ele>
        <time>2020-06-29T08:01:40Z</time>
      </trkpt>
      <trkpt lat="48.68086" lon="6.82558">
        <ele>253.4</ele>
        <time>2020-06-29T08:01:41Z</time>
      </trkpt>
      <trkpt lat="48.68088" lon="6.82553">
        <ele>253.1</ele>
        <time>2020-06-29T08:01:42Z</time>
      </trkpt>
      <trkpt lat="48.6809" lon="6.82549">
        <ele>252.8</ele>
        <time>2020-06-29T08:01:43Z</time>
      </trkpt>
      <trkpt lat="48.68093" lon="6.82544">
        <ele>252.5</ele>
        <time>2020-06-29T08:01:44Z</time>
      </trkpt>
      <trkpt lat="48.68096" lon="6.82541">
        <ele>252.3</ele>
        <time>2020-06-29T08:01:45Z</time>
      </trkpt>
      <trkpt lat="48.68097" lon="6.82537">
        <ele>252</ele>
        <time>2020-06-29T08:01:46Z</time>
      </trkpt>
      <trkpt lat="48.68099" lon="6.8253">
        <ele>251</ele>
        <time>2020-06-29T08:01:47Z</time>
      </trkpt>
      <trkpt lat="48.68099" lon="6.82525">
        <ele>250.8</ele>
        <time>2020-06-29T08:01:48Z</time>
      </trkpt>
      <trkpt lat="48.68098" lon="6.82517">
        <ele>250.7</ele>
        <time>2020-06-29T08:01:49Z</time>
      </trkpt>
      <trkpt lat="48.68096" lon="6.82509">
        <ele>250.6</ele>
        <time>2020-06-29T08:01:50Z</time>
      </trkpt>
      <trkpt lat="48.68095" lon="6.825">
        <ele>250.5</ele>
        <time>2020-06-29T08:01:51Z</time>
      </trkpt>
      <trkpt lat="48.68092" lon="6.82493">
        <ele>250.5</ele>
        <time>2020-06-29T08:01:52Z</time>
      </trkpt>
      <trkpt lat="48.6809" lon="6.82485">
        <ele>250.5</ele>
        <time>2020-06-29T08:01:53Z</time>
      </trkpt>
      <trkpt lat="48.68087" lon="6.82477">
        <ele>250.5</ele>
        <time>2020-06-29T08:01:54Z</time>
      </trkpt>
      <trkpt lat="48.68085" lon="6.82471">
        <ele>250.5</ele>
        <time>2020-06-29T08:01:55Z</time>
      </trkpt>
      <trkpt lat="48.68082" lon="6.82465">
        <ele>250.5</ele>
        <time>2020-06-29T08:01:56Z</time>
      </trkpt>
      <trkpt lat="48.6808" lon="6.82458">
        <ele>250.5</ele>
        <time>2020-06-29T08:01:57Z</time>
      </trkpt>
      <trkpt lat="48.68077" lon="6.82452">
        <ele>250.5</ele>
        <time>2020-06-29T08:01:58Z</time>
      </trkpt>
      <trkpt lat="48.68075" lon="6.82444">
        <ele>250.5</ele>
        <time>2020-06-29T08:01:59Z</time>
      </trkpt>
      <trkpt lat="48.68072" lon="6.82437">
        <ele>250.6</ele>
        <time>2020-06-29T08:02:00Z</time>
      </trkpt>
      <trkpt lat="48.68069" lon="6.8243">
        <ele>250.6</ele>
        <time>2020-06-29T08:02:01Z</time>
      </trkpt>
      <trkpt lat="48.68065" lon="6.82422">
        <ele>250.8</ele>
        <time>2020-06-29T08:02:02Z</time>
      </trkpt>
      <trkpt lat="48.68062" lon="6.82414">
        <ele>250.9</ele>
        <time>2020-06-29T08:02:03Z</time>
      </trkpt>
      <trkpt lat="48.68059" lon="6.82406">
        <ele>250.9</ele>
        <time>2020-06-29T08:02:04Z</time>
      </trkpt>
      <trkpt lat="48.68057" lon="6.82398">
        <ele>251</ele>
        <time>2020-06-29T08:02:05Z</time>
      </trkpt>
      <trkpt lat="48.68054" lon="6.82389">
        <ele>250.9</ele>
        <time>2020-06-29T08:02:06Z</time>
      </trkpt>
      <trkpt lat="48.68052" lon="6.82383">
        <ele>250.9</ele>
        <time>2020-06-29T08:02:07Z</time>
      </trkpt>
      <trkpt lat="48.68049" lon="6.82375">
        <ele>250.9</ele>
        <time>2020-06-29T08:02:08Z</time>
      </trkpt>
      <trkpt lat="48.68047" lon="6.82368">
        <ele>250.8</ele>
        <time>2020-06-29T08:02:09Z</time>
      </trkpt>
      <trkpt lat="48.68044" lon="6.8236">
        <ele>250.8</ele>
        <time>2020-06-29T08:02:10Z</time>
      </trkpt>
      <trkpt lat="48.68042" lon="6.8235">
        <ele>250.8</ele>
        <time>2020-06-29T08:02:11Z</time>
      </trkpt>
      <trkpt lat="48.68039" lon="6.82342">
        <ele>250.8</ele>
        <time>2020-06-29T08:02:12Z</time>
      </trkpt>
      <trkpt lat="48.68036" lon="6.82334">
        <ele>250.8</ele>
        <time>2020-06-29T08:02:13Z</time>
      </trkpt>
      <trkpt lat="48.68032" lon="6.82327">
        <ele>250.9</ele>
        <time>2020-06-29T08:02:14Z</time>
      </trkpt>
      <trkpt lat="48.68031" lon="6.82321">
        <ele>250.9</ele>
        <time>2020-06-29T08:02:15Z</time>
      </trkpt>
      <trkpt lat="48.68028" lon="6.82312">
        <ele>250.9</ele>
        <time>2020-06-29T08:02:16Z</time>
      </trkpt>
      <trkpt lat="48.68025" lon="6.82303">
        <ele>250.9</ele>
        <time>2020-06-29T08:02:17Z</time>
      </trkpt>
      <trkpt lat="48.68022" lon="6.82294">
        <ele>250.9</ele>
        <time>2020-06-29T08:02:18Z</time>
      </trkpt>
      <trkpt lat="48.68019" lon="6.82285">
        <ele>250.9</ele>
        <time>2020-06-29T08:02:19Z</time>
      </trkpt>
      <trkpt lat="48.68015" lon="6.82276">
        <ele>250.9</ele>
        <time>2020-06-29T08:02:20Z</time>
      </trkpt>
      <trkpt lat="48.68013" lon="6.82267">
        <ele>250.9</ele>
        <time>2020-06-29T08:02:21Z</time>
      </trkpt>
      <trkpt lat="48.68011" lon="6.82258">
        <ele>250.9</ele>
        <time>2020-06-29T08:02:22Z</time>
      </trkpt>
      <trkpt lat="48.68009" lon="6.8225">
        <ele>251</ele>
        <time>2020-06-29T08:02:23Z</time>
      </trkpt>
      <trkpt lat="48.68007" lon="6.82242">
        <ele>251</ele>
        <time>2020-06-29T08:02:24Z</time>
      </trkpt>
      <trkpt lat="48.68006" lon="6.82234">
        <ele>251</ele>
        <time>2020-06-29T08:02:25Z</time>
      </trkpt>
      <trkpt lat="48.68004" lon="6.82226">
        <ele>251</ele>
        <time>2020-06-29T08:02:26Z</time>
      </trkpt>
      <trkpt lat="48.68002" lon="6.82219">
        <ele>251</ele>
        <time>2020-06-29T08:02:27Z</time>
      </trkpt>
      <trkpt lat="48.68001" lon="6.82211">
        <ele>251</ele>
        <time>2020-06-29T08:02:28Z</time>
      </trkpt>
      <trkpt lat="48.68" lon="6.82202">
        <ele>251</ele>
        <time>2020-06-29T08:02:29Z</time>
      </trkpt>
      <trkpt lat="48.67998" lon="6.82192">
        <ele>251</ele>
        <time>2020-06-29T08:02:30Z</time>
      </trkpt>
      <trkpt lat="48.67997" lon="6.82182">
        <ele>251</ele>
        <time>2020-06-29T08:02:31Z</time>
      </trkpt>
      <trkpt lat="48.67995" lon="6.82172">
        <ele>251</ele>
        <time>2020-06-29T08:02:32Z</time>
      </trkpt>
      <trkpt lat="48.67994" lon="6.82161">
        <ele>250.9</ele>
        <time>2020-06-29T08:02:33Z</time>
      </trkpt>
      <trkpt lat="48.67993" lon="6.82152">
        <ele>250.9</ele>
        <time>2020-06-29T08:02:34Z</time>
      </trkpt>
      <trkpt lat="48.67992" lon="6.82144">
        <ele>250.9</ele>
        <time>2020-06-29T08:02:35Z</time>
      </trkpt>
      <trkpt lat="48.67992" lon="6.82133">
        <ele>250.9</ele>
        <time>2020-06-29T08:02:36Z</time>
      </trkpt>
      <trkpt lat="48.67991" lon="6.82123">
        <ele>250.9</ele>
        <time>2020-06-29T08:02:37Z</time>
      </trkpt>
      <trkpt lat="48.6799" lon="6.82113">
        <ele>250.9</ele>
        <time>2020-06-29T08:02:38Z</time>
      </trkpt>
      <trkpt lat="48.6799" lon="6.82101">
        <ele>250.9</ele>
        <time>2020-06-29T08:02:39Z</time>
      </trkpt>
      <trkpt lat="48.6799" lon="6.82093">
        <ele>251</ele>
        <time>2020-06-29T08:02:40Z</time>
      </trkpt>
      <trkpt lat="48.67991" lon="6.82085">
        <ele>251</ele>
        <time>2020-06-29T08:02:41Z</time>
      </trkpt>
      <trkpt lat="48.67991" lon="6.82075">
        <ele>251</ele>
        <time>2020-06-29T08:02:42Z</time>
      </trkpt>
      <trkpt lat="48.67992" lon="6.82066">
        <ele>251</ele>
        <time>2020-06-29T08:02:43Z</time>
      </trkpt>
      <trkpt lat="48.67992" lon="6.82056">
        <ele>251</ele>
        <time>2020-06-29T08:02:44Z</time>
      </trkpt>
      <trkpt lat="48.67993" lon="6.82046">
        <ele>251</ele>
        <time>2020-06-29T08:02:45Z</time>
      </trkpt>
      <trkpt lat="48.67994" lon="6.82036">
        <ele>251</ele>
        <time>2020-06-29T08:02:46Z</time>
      </trkpt>
      <trkpt lat="48.67994" lon="6.82026">
        <ele>251</ele>
        <time>2020-06-29T08:02:47Z</time>
      </trkpt>
      <trkpt lat="48.67995" lon="6.82016">
        <ele>250.9</ele>
        <time>2020-06-29T08:02:48Z</time>
      </trkpt>
      <trkpt lat="48.67996" lon="6.82005">
        <ele>250.9</ele>
        <time>2020-06-29T08:02:49Z</time>
      </trkpt>
      <trkpt lat="48.67997" lon="6.81995">
        <ele>250.9</ele>
        <time>2020-06-29T08:02:50Z</time>
      </trkpt>
      <trkpt lat="48.67997" lon="6.81987">
        <ele>250.9</ele>
        <time>2020-06-29T08:02:51Z</time>
      </trkpt>
      <trkpt lat="48.67999" lon="6.81978">
        <ele>251</ele>
        <time>2020-06-29T08:02:52Z</time>
      </trkpt>
      <trkpt lat="48.68001" lon="6.81969">
        <ele>251</ele>
        <time>2020-06-29T08:02:53Z</time>
      </trkpt>
      <trkpt lat="48.68003" lon="6.81962">
        <ele>251.1</ele>
        <time>2020-06-29T08:02:54Z</time>
      </trkpt>
      <trkpt lat="48.68004" lon="6.81953">
        <ele>251.2</ele>
        <time>2020-06-29T08:02:55Z</time>
      </trkpt>
      <trkpt lat="48.68005" lon="6.81946">
        <ele>251.3</ele>
        <time>2020-06-29T08:02:56Z</time>
      </trkpt>
      <trkpt lat="48.68007" lon="6.81939">
        <ele>251.3</ele>
        <time>2020-06-29T08:02:57Z</time>
      </trkpt>
      <trkpt lat="48.68009" lon="6.81933">
        <ele>251.3</ele>
        <time>2020-06-29T08:02:58Z</time>
      </trkpt>
      <trkpt lat="48.6801" lon="6.81926">
        <ele>251.3</ele>
        <time>2020-06-29T08:02:59Z</time>
      </trkpt>
      <trkpt lat="48.68012" lon="6.81917">
        <ele>251.2</ele>
        <time>2020-06-29T08:03:00Z</time>
      </trkpt>
      <trkpt lat="48.68014" lon="6.81909">
        <ele>251.2</ele>
        <time>2020-06-29T08:03:01Z</time>
      </trkpt>
      <trkpt lat="48.68016" lon="6.81903">
        <ele>251.2</ele>
        <time>2020-06-29T08:03:02Z</time>
      </trkpt>
      <trkpt lat="48.68018" lon="6.81897">
        <ele>251.3</ele>
        <time>2020-06-29T08:03:03Z</time>
      </trkpt>
      <trkpt lat="48.68021" lon="6.81891">
        <ele>251.3</ele>
        <time>2020-06-29T08:03:04Z</time>
      </trkpt>
      <trkpt lat="48.68022" lon="6.81884">
        <ele>251.4</ele>
        <time>2020-06-29T08:03:05Z</time>
      </trkpt>
      <trkpt lat="48.68024" lon="6.81881">
        <ele>251.5</ele>
        <time>2020-06-29T08:03:06Z</time>
      </trkpt>
      <trkpt lat="48.68027" lon="6.81875">
        <ele>251.6</ele>
        <time>2020-06-29T08:03:07Z</time>
      </trkpt>
      <trkpt lat="48.68028" lon="6.81869">
        <ele>251.6</ele>
        <time>2020-06-29T08:03:08Z</time>
      </trkpt>
      <trkpt lat="48.6803" lon="6.81862">
        <ele>251.7</ele>
        <time>2020-06-29T08:03:09Z</time>
      </trkpt>
      <trkpt lat="48.68032" lon="6.81858">
        <ele>251.8</ele>
        <time>2020-06-29T08:03:10Z</time>
      </trkpt>
      <trkpt lat="48.68034" lon="6.81853">
        <ele>251.8</ele>
        <time>2020-06-29T08:03:11Z</time>
      </trkpt>
      <trkpt lat="48.68036" lon="6.81848">
        <ele>251.8</ele>
        <time>2020-06-29T08:03:12Z</time>
      </trkpt>
      <trkpt lat="48.68039" lon="6.81843">
        <ele>251.7</ele>
        <time>2020-06-29T08:03:13Z</time>
      </trkpt>
      <trkpt lat="48.68042" lon="6.81837">
        <ele>251.7</ele>
        <time>2020-06-29T08:03:14Z</time>
      </trkpt>
      <trkpt lat="48.68043" lon="6.81834">
        <ele>251.6</ele>
        <time>2020-06-29T08:03:15Z</time>
      </trkpt>
      <trkpt lat="48.68045" lon="6.81828">
        <ele>251.5</ele>
        <time>2020-06-29T08:03:16Z</time>
      </trkpt>
      <trkpt lat="48.68047" lon="6.81821">
        <ele>251.5</ele>
        <time>2020-06-29T08:03:17Z</time>
      </trkpt>
      <trkpt lat="48.68048" lon="6.81814">
        <ele>251.5</ele>
        <time>2020-06-29T08:03:18Z</time>
      </trkpt>
      <trkpt lat="48.68048" lon="6.81809">
        <ele>251.5</ele>
        <time>2020-06-29T08:03:19Z</time>
      </trkpt>
      <trkpt lat="48.68048" lon="6.81806">
        <ele>251.5</ele>
        <time>2020-06-29T08:03:20Z</time>
      </trkpt>
      <trkpt lat="48.68049" lon="6.81798">
        <ele>251.5</ele>
        <time>2020-06-29T08:03:21Z</time>
      </trkpt>
      <trkpt lat="48.68048" lon="6.8179">
        <ele>251.5</ele>
        <time>2020-06-29T08:03:22Z</time>
      </trkpt>
      <trkpt lat="48.68046" lon="6.81785">
        <ele>251.5</ele>
        <time>2020-06-29T08:03:23Z</time>
      </trkpt>
      <trkpt lat="48.68044" lon="6.81781">
        <ele>251.5</ele>
        <time>2020-06-29T08:03:24Z</time>
      </trkpt>
      <trkpt lat="48.68043" lon="6.81779">
        <ele>251.5</ele>
        <time>2020-06-29T08:03:25Z</time>
      </trkpt>
      <trkpt lat="48.68043" lon="6.81778">
        <ele>251.5</ele>
        <time>2020-06-29T08:03:26Z</time>
      </trkpt>
      <trkpt lat="48.68043" lon="6.81775">
        <ele>251.5</ele>
        <time>2020-06-29T08:03:27Z</time>
      </trkpt>
      <trkpt lat="48.68042" lon="6.81772">
        <ele>251.5</ele>
        <time>2020-06-29T08:03:28Z</time>
      </trkpt>
      <trkpt lat="48.68041" lon="6.8177">
        <ele>251.8</ele>
        <time>2020-06-29T08:03:29Z</time>
      </trkpt>
      <trkpt lat="48.68041" lon="6.81769">
        <ele>251.8</ele>
        <time>2020-06-29T08:03:30Z</time>
      </trkpt>
      <trkpt lat="48.68042" lon="6.81767">
        <ele>251.8</ele>
        <time>2020-06-29T08:03:31Z</time>
      </trkpt>
      <trkpt lat="48.68042" lon="6.81767">
        <ele>251.9</ele>
        <time>2020-06-29T08:03:32Z</time>
      </trkpt>
      <trkpt lat="48.68044" lon="6.81766">
        <ele>251.9</ele>
        <time>2020-06-29T08:03:33Z</time>
      </trkpt>
      <trkpt lat="48.68045" lon="6.81762">
        <ele>252</ele>
        <time>2020-06-29T08:03:34Z</time>
      </trkpt>
      <trkpt lat="48.68046" lon="6.81761">
        <ele>252</ele>
        <time>2020-06-29T08:03:35Z</time>
      </trkpt>
      <trkpt lat="48.68047" lon="6.81756">
        <ele>252.2</ele>
        <time>2020-06-29T08:03:36Z</time>
      </trkpt>
      <trkpt lat="48.68048" lon="6.81755">
        <ele>251.7</ele>
        <time>2020-06-29T08:03:37Z</time>
      </trkpt>
      <trkpt lat="48.68049" lon="6.81749">
        <ele>251.4</ele>
        <time>2020-06-29T08:03:38Z</time>
      </trkpt>
      <trkpt lat="48.6805" lon="6.81746">
        <ele>251.2</ele>
        <time>2020-06-29T08:03:39Z</time>
      </trkpt>
      <trkpt lat="48.68051" lon="6.81741">
        <ele>250.9</ele>
        <time>2020-06-29T08:03:40Z</time>
      </trkpt>
      <trkpt lat="48.68053" lon="6.81734">
        <ele>250.5</ele>
        <time>2020-06-29T08:03:41Z</time>
      </trkpt>
      <trkpt lat="48.68054" lon="6.81726">
        <ele>249.9</ele>
        <time>2020-06-29T08:03:42Z</time>
      </trkpt>
      <trkpt lat="48.68056" lon="6.81717">
        <ele>249.3</ele>
        <time>2020-06-29T08:03:43Z</time>
      </trkpt>
      <trkpt lat="48.68059" lon="6.81706">
        <ele>248.6</ele>
        <time>2020-06-29T08:03:44Z</time>
      </trkpt>
      <trkpt lat="48.68061" lon="6.81697">
        <ele>248.2</ele>
        <time>2020-06-29T08:03:45Z</time>
      </trkpt>
      <trkpt lat="48.68064" lon="6.81685">
        <ele>247.7</ele>
        <time>2020-06-29T08:03:46Z</time>
      </trkpt>
      <trkpt lat="48.68066" lon="6.81676">
        <ele>247.5</ele>
        <time>2020-06-29T08:03:47Z</time>
      </trkpt>
      <trkpt lat="48.68068" lon="6.81664">
        <ele>247.2</ele>
        <time>2020-06-29T08:03:48Z</time>
      </trkpt>
      <trkpt lat="48.68071" lon="6.81652">
        <ele>247</ele>
        <time>2020-06-29T08:03:49Z</time>
      </trkpt>
      <trkpt lat="48.68072" lon="6.81642">
        <ele>247</ele>
        <time>2020-06-29T08:03:50Z</time>
      </trkpt>
      <trkpt lat="48.68074" lon="6.81632">
        <ele>247.1</ele>
        <time>2020-06-29T08:03:51Z</time>
      </trkpt>
      <trkpt lat="48.68075" lon="6.81623">
        <ele>247.2</ele>
        <time>2020-06-29T08:03:52Z</time>
      </trkpt>
      <trkpt lat="48.68076" lon="6.81614">
        <ele>247.2</ele>
        <time>2020-06-29T08:03:53Z</time>
      </trkpt>
      <trkpt lat="48.68077" lon="6.81606">
        <ele>247.3</ele>
        <time>2020-06-29T08:03:54Z</time>
      </trkpt>
      <trkpt lat="48.68079" lon="6.81598">
        <ele>247.3</ele>
        <time>2020-06-29T08:03:55Z</time>
      </trkpt>
      <trkpt lat="48.68082" lon="6.8159">
        <ele>247.4</ele>
        <time>2020-06-29T08:03:56Z</time>
      </trkpt>
      <trkpt lat="48.68084" lon="6.81582">
        <ele>247.4</ele>
        <time>2020-06-29T08:03:57Z</time>
      </trkpt>
      <trkpt lat="48.68086" lon="6.81574">
        <ele>247.5</ele>
        <time>2020-06-29T08:03:58Z</time>
      </trkpt>
      <trkpt lat="48.68087" lon="6.81567">
        <ele>247.5</ele>
        <time>2020-06-29T08:03:59Z</time>
      </trkpt>
      <trkpt lat="48.68089" lon="6.81561">
        <ele>247.6</ele>
        <time>2020-06-29T08:04:00Z</time>
      </trkpt>
      <trkpt lat="48.6809" lon="6.81554">
        <ele>247.6</ele>
        <time>2020-06-29T08:04:01Z</time>
      </trkpt>
      <trkpt lat="48.68091" lon="6.81548">
        <ele>247.6</ele>
        <time>2020-06-29T08:04:02Z</time>
      </trkpt>
      <trkpt lat="48.68093" lon="6.81541">
        <ele>247.7</ele>
        <time>2020-06-29T08:04:03Z</time>
      </trkpt>
      <trkpt lat="48.68094" lon="6.81534">
        <ele>247.7</ele>
        <time>2020-06-29T08:04:04Z</time>
      </trkpt>
      <trkpt lat="48.68096" lon="6.81528">
        <ele>247.7</ele>
        <time>2020-06-29T08:04:05Z</time>
      </trkpt>
      <trkpt lat="48.68098" lon="6.8152">
        <ele>247.7</ele>
        <time>2020-06-29T08:04:06Z</time>
      </trkpt>
      <trkpt lat="48.681" lon="6.81513">
        <ele>247.7</ele>
        <time>2020-06-29T08:04:07Z</time>
      </trkpt>
      <trkpt lat="48.68102" lon="6.81506">
        <ele>247.7</ele>
        <time>2020-06-29T08:04:08Z</time>
      </trkpt>
      <trkpt lat="48.68106" lon="6.815">
        <ele>247.7</ele>
        <time>2020-06-29T08:04:09Z</time>
      </trkpt>
      <trkpt lat="48.6811" lon="6.81494">
        <ele>247.8</ele>
        <time>2020-06-29T08:04:10Z</time>
      </trkpt>
      <trkpt lat="48.68112" lon="6.81488">
        <ele>247.8</ele>
        <time>2020-06-29T08:04:11Z</time>
      </trkpt>
      <trkpt lat="48.68116" lon="6.81482">
        <ele>247.8</ele>
        <time>2020-06-29T08:04:12Z</time>
      </trkpt>
      <trkpt lat="48.68119" lon="6.81476">
        <ele>247.8</ele>
        <time>2020-06-29T08:04:13Z</time>
      </trkpt>
      <trkpt lat="48.68122" lon="6.81469">
        <ele>247.8</ele>
        <time>2020-06-29T08:04:14Z</time>
      </trkpt>
      <trkpt lat="48.68124" lon="6.81462">
        <ele>247.8</ele>
        <time>2020-06-29T08:04:15Z</time>
      </trkpt>
      <trkpt lat="48.68126" lon="6.81455">
        <ele>247.8</ele>
        <time>2020-06-29T08:04:16Z</time>
      </trkpt>
      <trkpt lat="48.68128" lon="6.81447">
        <ele>247.8</ele>
        <time>2020-06-29T08:04:17Z</time>
      </trkpt>
      <trkpt lat="48.6813" lon="6.81439">
        <ele>247.8</ele>
        <time>2020-06-29T08:04:18Z</time>
      </trkpt>
      <trkpt lat="48.68132" lon="6.81431">
        <ele>247.8</ele>
        <time>2020-06-29T08:04:19Z</time>
      </trkpt>
      <trkpt lat="48.68133" lon="6.81423">
        <ele>247.7</ele>
        <time>2020-06-29T08:04:20Z</time>
      </trkpt>
      <trkpt lat="48.68135" lon="6.81415">
        <ele>247.7</ele>
        <time>2020-06-29T08:04:21Z</time>
      </trkpt>
      <trkpt lat="48.68136" lon="6.81407">
        <ele>247.7</ele>
        <time>2020-06-29T08:04:22Z</time>
      </trkpt>
      <trkpt lat="48.68139" lon="6.81398">
        <ele>247.6</ele>
        <time>2020-06-29T08:04:23Z</time>
      </trkpt>
      <trkpt lat="48.68141" lon="6.8139">
        <ele>247.6</ele>
        <time>2020-06-29T08:04:24Z</time>
      </trkpt>
      <trkpt lat="48.68142" lon="6.81381">
        <ele>247.6</ele>
        <time>2020-06-29T08:04:25Z</time>
      </trkpt>
      <trkpt lat="48.68143" lon="6.81372">
        <ele>247.5</ele>
        <time>2020-06-29T08:04:26Z</time>
      </trkpt>
      <trkpt lat="48.68146" lon="6.81363">
        <ele>247.5</ele>
        <time>2020-06-29T08:04:27Z</time>
      </trkpt>
      <trkpt lat="48.68146" lon="6.81354">
        <ele>247.5</ele>
        <time>2020-06-29T08:04:28Z</time>
      </trkpt>
      <trkpt lat="48.68146" lon="6.81344">
        <ele>247.5</ele>
        <time>2020-06-29T08:04:29Z</time>
      </trkpt>
      <trkpt lat="48.68146" lon="6.81335">
        <ele>247.5</ele>
        <time>2020-06-29T08:04:30Z</time>
      </trkpt>
      <trkpt lat="48.68147" lon="6.81327">
        <ele>247.5</ele>
        <time>2020-06-29T08:04:31Z</time>
      </trkpt>
      <trkpt lat="48.68148" lon="6.81318">
        <ele>247.5</ele>
        <time>2020-06-29T08:04:32Z</time>
      </trkpt>
      <trkpt lat="48.68148" lon="6.8131">
        <ele>247.5</ele>
        <time>2020-06-29T08:04:33Z</time>
      </trkpt>
      <trkpt lat="48.68149" lon="6.81301">
        <ele>247.4</ele>
        <time>2020-06-29T08:04:34Z</time>
      </trkpt>
      <trkpt lat="48.68149" lon="6.81293">
        <ele>247.4</ele>
        <time>2020-06-29T08:04:35Z</time>
      </trkpt>
      <trkpt lat="48.68149" lon="6.81284">
        <ele>247.4</ele>
        <time>2020-06-29T08:04:36Z</time>
      </trkpt>
      <trkpt lat="48.6815" lon="6.81275">
        <ele>247.4</ele>
        <time>2020-06-29T08:04:37Z</time>
      </trkpt>
      <trkpt lat="48.68149" lon="6.81267">
        <ele>247.4</ele>
        <time>2020-06-29T08:04:38Z</time>
      </trkpt>
      <trkpt lat="48.68149" lon="6.81257">
        <ele>247.5</ele>
        <time>2020-06-29T08:04:39Z</time>
      </trkpt>
      <trkpt lat="48.6815" lon="6.81249">
        <ele>247.5</ele>
        <time>2020-06-29T08:04:40Z</time>
      </trkpt>
      <trkpt lat="48.68149" lon="6.8124">
        <ele>247.5</ele>
        <time>2020-06-29T08:04:41Z</time>
      </trkpt>
      <trkpt lat="48.6815" lon="6.81232">
        <ele>247.5</ele>
        <time>2020-06-29T08:04:42Z</time>
      </trkpt>
      <trkpt lat="48.6815" lon="6.81224">
        <ele>247.5</ele>
        <time>2020-06-29T08:04:43Z</time>
      </trkpt>
      <trkpt lat="48.6815" lon="6.81215">
        <ele>247.5</ele>
        <time>2020-06-29T08:04:44Z</time>
      </trkpt>
      <trkpt lat="48.6815" lon="6.81207">
        <ele>247.5</ele>
        <time>2020-06-29T08:04:45Z</time>
      </trkpt>
      <trkpt lat="48.68149" lon="6.81199">
        <ele>247.6</ele>
        <time>2020-06-29T08:04:46Z</time>
      </trkpt>
      <trkpt lat="48.68148" lon="6.8119">
        <ele>247.6</ele>
        <time>2020-06-29T08:04:47Z</time>
      </trkpt>
      <trkpt lat="48.68147" lon="6.81181">
        <ele>247.6</ele>
        <time>2020-06-29T08:04:48Z</time>
      </trkpt>
      <trkpt lat="48.68147" lon="6.81173">
        <ele>247.7</ele>
        <time>2020-06-29T08:04:49Z</time>
      </trkpt>
      <trkpt lat="48.68145" lon="6.81165">
        <ele>247.7</ele>
        <time>2020-06-29T08:04:50Z</time>
      </trkpt>
      <trkpt lat="48.68143" lon="6.81158">
        <ele>247.7</ele>
        <time>2020-06-29T08:04:51Z</time>
      </trkpt>
      <trkpt lat="48.68141" lon="6.8115">
        <ele>247.7</ele>
        <time>2020-06-29T08:04:52Z</time>
      </trkpt>
      <trkpt lat="48.6814" lon="6.81143">
        <ele>247.7</ele>
        <time>2020-06-29T08:04:53Z</time>
      </trkpt>
      <trkpt lat="48.68139" lon="6.81136">
        <ele>247.7</ele>
        <time>2020-06-29T08:04:54Z</time>
      </trkpt>
      <trkpt lat="48.68138" lon="6.81128">
        <ele>247.8</ele>
        <time>2020-06-29T08:04:55Z</time>
      </trkpt>
      <trkpt lat="48.68136" lon="6.8112">
        <ele>247.8</ele>
        <time>2020-06-29T08:04:56Z</time>
      </trkpt>
      <trkpt lat="48.68133" lon="6.81111">
        <ele>247.8</ele>
        <time>2020-06-29T08:04:57Z</time>
      </trkpt>
      <trkpt lat="48.68131" lon="6.81103">
        <ele>247.9</ele>
        <time>2020-06-29T08:04:58Z</time>
      </trkpt>
      <trkpt lat="48.68128" lon="6.81096">
        <ele>247.9</ele>
        <time>2020-06-29T08:04:59Z</time>
      </trkpt>
      <trkpt lat="48.68127" lon="6.81088">
        <ele>247.9</ele>
        <time>2020-06-29T08:05:00Z</time>
      </trkpt>
      <trkpt lat="48.68125" lon="6.81082">
        <ele>247.9</ele>
        <time>2020-06-29T08:05:01Z</time>
      </trkpt>
      <trkpt lat="48.68122" lon="6.81076">
        <ele>247.9</ele>
        <time>2020-06-29T08:05:02Z</time>
      </trkpt>
      <trkpt lat="48.6812" lon="6.8107">
        <ele>247.9</ele>
        <time>2020-06-29T08:05:03Z</time>
      </trkpt>
      <trkpt lat="48.68117" lon="6.81064">
        <ele>247.9</ele>
        <time>2020-06-29T08:05:04Z</time>
      </trkpt>
      <trkpt lat="48.68114" lon="6.81057">
        <ele>247.9</ele>
        <time>2020-06-29T08:05:05Z</time>
      </trkpt>
      <trkpt lat="48.68111" lon="6.8105">
        <ele>247.9</ele>
        <time>2020-06-29T08:05:06Z</time>
      </trkpt>
      <trkpt lat="48.68109" lon="6.81042">
        <ele>247.9</ele>
        <time>2020-06-29T08:05:07Z</time>
      </trkpt>
      <trkpt lat="48.68107" lon="6.81035">
        <ele>247.9</ele>
        <time>2020-06-29T08:05:08Z</time>
      </trkpt>
      <trkpt lat="48.68104" lon="6.81028">
        <ele>247.9</ele>
        <time>2020-06-29T08:05:09Z</time>
      </trkpt>
      <trkpt lat="48.681" lon="6.81022">
        <ele>248</ele>
        <time>2020-06-29T08:05:10Z</time>
      </trkpt>
      <trkpt lat="48.68098" lon="6.81016">
        <ele>248</ele>
        <time>2020-06-29T08:05:11Z</time>
      </trkpt>
      <trkpt lat="48.68096" lon="6.81008">
        <ele>248</ele>
        <time>2020-06-29T08:05:12Z</time>
      </trkpt>
      <trkpt lat="48.68094" lon="6.81001">
        <ele>248.1</ele>
        <time>2020-06-29T08:05:13Z</time>
      </trkpt>
      <trkpt lat="48.68091" lon="6.80993">
        <ele>248.2</ele>
        <time>2020-06-29T08:05:14Z</time>
      </trkpt>
      <trkpt lat="48.68088" lon="6.80985">
        <ele>248.2</ele>
        <time>2020-06-29T08:05:15Z</time>
      </trkpt>
      <trkpt lat="48.68084" lon="6.80979">
        <ele>248.2</ele>
        <time>2020-06-29T08:05:16Z</time>
      </trkpt>
      <trkpt lat="48.68083" lon="6.80971">
        <ele>248.2</ele>
        <time>2020-06-29T08:05:17Z</time>
      </trkpt>
      <trkpt lat="48.6808" lon="6.80963">
        <ele>248.1</ele>
        <time>2020-06-29T08:05:18Z</time>
      </trkpt>
      <trkpt lat="48.68077" lon="6.80956">
        <ele>248.1</ele>
        <time>2020-06-29T08:05:19Z</time>
      </trkpt>
      <trkpt lat="48.68073" lon="6.8095">
        <ele>248.2</ele>
        <time>2020-06-29T08:05:20Z</time>
      </trkpt>
      <trkpt lat="48.68071" lon="6.80942">
        <ele>248.2</ele>
        <time>2020-06-29T08:05:21Z</time>
      </trkpt>
      <trkpt lat="48.68068" lon="6.80934">
        <ele>248.2</ele>
        <time>2020-06-29T08:05:22Z</time>
      </trkpt>
      <trkpt lat="48.68066" lon="6.80926">
        <ele>248.2</ele>
        <time>2020-06-29T08:05:23Z</time>
      </trkpt>
      <trkpt lat="48.68063" lon="6.80919">
        <ele>248.2</ele>
        <time>2020-06-29T08:05:24Z</time>
      </trkpt>
      <trkpt lat="48.68059" lon="6.80914">
        <ele>248.3</ele>
        <time>2020-06-29T08:05:25Z</time>
      </trkpt>
      <trkpt lat="48.68055" lon="6.80907">
        <ele>248.3</ele>
        <time>2020-06-29T08:05:26Z</time>
      </trkpt>
      <trkpt lat="48.68052" lon="6.80901">
        <ele>248.3</ele>
        <time>2020-06-29T08:05:27Z</time>
      </trkpt>
      <trkpt lat="48.6805" lon="6.80893">
        <ele>248.2</ele>
        <time>2020-06-29T08:05:28Z</time>
      </trkpt>
      <trkpt lat="48.68047" lon="6.80886">
        <ele>248.2</ele>
        <time>2020-06-29T08:05:29Z</time>
      </trkpt>
      <trkpt lat="48.68043" lon="6.8088">
        <ele>248.2</ele>
        <time>2020-06-29T08:05:30Z</time>
      </trkpt>
      <trkpt lat="48.6804" lon="6.80874">
        <ele>248.2</ele>
        <time>2020-06-29T08:05:31Z</time>
      </trkpt>
      <trkpt lat="48.68037" lon="6.80866">
        <ele>248.1</ele>
        <time>2020-06-29T08:05:32Z</time>
      </trkpt>
      <trkpt lat="48.68033" lon="6.80858">
        <ele>247.8</ele>
        <time>2020-06-29T08:05:33Z</time>
      </trkpt>
      <trkpt lat="48.68029" lon="6.8085">
        <ele>247.1</ele>
        <time>2020-06-29T08:05:34Z</time>
      </trkpt>
      <trkpt lat="48.68025" lon="6.80841">
        <ele>246.3</ele>
        <time>2020-06-29T08:05:35Z</time>
      </trkpt>
      <trkpt lat="48.68021" lon="6.80833">
        <ele>245.8</ele>
        <time>2020-06-29T08:05:36Z</time>
      </trkpt>
      <trkpt lat="48.68017" lon="6.80825">
        <ele>245.3</ele>
        <time>2020-06-29T08:05:37Z</time>
      </trkpt>
      <trkpt lat="48.68013" lon="6.80817">
        <ele>244.9</ele>
        <time>2020-06-29T08:05:38Z</time>
      </trkpt>
      <trkpt lat="48.68009" lon="6.80809">
        <ele>244.6</ele>
        <time>2020-06-29T08:05:39Z</time>
      </trkpt>
      <trkpt lat="48.68005" lon="6.808">
        <ele>244.3</ele>
        <time>2020-06-29T08:05:40Z</time>
      </trkpt>
      <trkpt lat="48.68002" lon="6.80791">
        <ele>244.2</ele>
        <time>2020-06-29T08:05:41Z</time>
      </trkpt>
      <trkpt lat="48.67998" lon="6.80784">
        <ele>244.1</ele>
        <time>2020-06-29T08:05:42Z</time>
      </trkpt>
      <trkpt lat="48.67995" lon="6.80776">
        <ele>244</ele>
        <time>2020-06-29T08:05:43Z</time>
      </trkpt>
      <trkpt lat="48.67991" lon="6.80769">
        <ele>244</ele>
        <time>2020-06-29T08:05:44Z</time>
      </trkpt>
      <trkpt lat="48.67988" lon="6.80762">
        <ele>244</ele>
        <time>2020-06-29T08:05:45Z</time>
      </trkpt>
      <trkpt lat="48.67984" lon="6.80755">
        <ele>244</ele>
        <time>2020-06-29T08:05:46Z</time>
      </trkpt>
      <trkpt lat="48.67981" lon="6.80747">
        <ele>244</ele>
        <time>2020-06-29T08:05:47Z</time>
      </trkpt>
      <trkpt lat="48.67978" lon="6.80739">
        <ele>244</ele>
        <time>2020-06-29T08:05:48Z</time>
      </trkpt>
      <trkpt lat="48.67975" lon="6.80731">
        <ele>243.9</ele>
        <time>2020-06-29T08:05:49Z</time>
      </trkpt>
      <trkpt lat="48.67972" lon="6.80723">
        <ele>243.8</ele>
        <time>2020-06-29T08:05:50Z</time>
      </trkpt>
      <trkpt lat="48.67968" lon="6.80716">
        <ele>243.8</ele>
        <time>2020-06-29T08:05:51Z</time>
      </trkpt>
      <trkpt lat="48.67965" lon="6.80708">
        <ele>243.7</ele>
        <time>2020-06-29T08:05:52Z</time>
      </trkpt>
      <trkpt lat="48.67962" lon="6.807">
        <ele>243.6</ele>
        <time>2020-06-29T08:05:53Z</time>
      </trkpt>
      <trkpt lat="48.67959" lon="6.80692">
        <ele>243.6</ele>
        <time>2020-06-29T08:05:54Z</time>
      </trkpt>
      <trkpt lat="48.67956" lon="6.80684">
        <ele>243.6</ele>
        <time>2020-06-29T08:05:55Z</time>
      </trkpt>
      <trkpt lat="48.67953" lon="6.80676">
        <ele>243.6</ele>
        <time>2020-06-29T08:05:56Z</time>
      </trkpt>
      <trkpt lat="48.6795" lon="6.80668">
        <ele>243.6</ele>
        <time>2020-06-29T08:05:57Z</time>
      </trkpt>
      <trkpt lat="48.67946" lon="6.8066">
        <ele>243.6</ele>
        <time>2020-06-29T08:05:58Z</time>
      </trkpt>
      <trkpt lat="48.67944" lon="6.80652">
        <ele>243.5</ele>
        <time>2020-06-29T08:05:59Z</time>
      </trkpt>
      <trkpt lat="48.67941" lon="6.80643">
        <ele>243.5</ele>
        <time>2020-06-29T08:06:00Z</time>
      </trkpt>
      <trkpt lat="48.67938" lon="6.80634">
        <ele>243.6</ele>
        <time>2020-06-29T08:06:01Z</time>
      </trkpt>
      <trkpt lat="48.67935" lon="6.80626">
        <ele>243.6</ele>
        <time>2020-06-29T08:06:02Z</time>
      </trkpt>
      <trkpt lat="48.67931" lon="6.80619">
        <ele>243.6</ele>
        <time>2020-06-29T08:06:03Z</time>
      </trkpt>
      <trkpt lat="48.67928" lon="6.80611">
        <ele>243.7</ele>
        <time>2020-06-29T08:06:04Z</time>
      </trkpt>
      <trkpt lat="48.67924" lon="6.80604">
        <ele>243.7</ele>
        <time>2020-06-29T08:06:05Z</time>
      </trkpt>
      <trkpt lat="48.67922" lon="6.80596">
        <ele>243.8</ele>
        <time>2020-06-29T08:06:06Z</time>
      </trkpt>
      <trkpt lat="48.67918" lon="6.80589">
        <ele>243.8</ele>
        <time>2020-06-29T08:06:07Z</time>
      </trkpt>
      <trkpt lat="48.67914" lon="6.80582">
        <ele>243.9</ele>
        <time>2020-06-29T08:06:08Z</time>
      </trkpt>
      <trkpt lat="48.6791" lon="6.80573">
        <ele>243.9</ele>
        <time>2020-06-29T08:06:09Z</time>
      </trkpt>
      <trkpt lat="48.67907" lon="6.80564">
        <ele>244</ele>
        <time>2020-06-29T08:06:10Z</time>
      </trkpt>
      <trkpt lat="48.67905" lon="6.80555">
        <ele>244</ele>
        <time>2020-06-29T08:06:11Z</time>
      </trkpt>
      <trkpt lat="48.67902" lon="6.80547">
        <ele>244.1</ele>
        <time>2020-06-29T08:06:12Z</time>
      </trkpt>
      <trkpt lat="48.67899" lon="6.80538">
        <ele>244.1</ele>
        <time>2020-06-29T08:06:13Z</time>
      </trkpt>
      <trkpt lat="48.67896" lon="6.8053">
        <ele>244.2</ele>
        <time>2020-06-29T08:06:14Z</time>
      </trkpt>
      <trkpt lat="48.67892" lon="6.80522">
        <ele>244.2</ele>
        <time>2020-06-29T08:06:15Z</time>
      </trkpt>
      <trkpt lat="48.67887" lon="6.80514">
        <ele>244.3</ele>
        <time>2020-06-29T08:06:16Z</time>
      </trkpt>
      <trkpt lat="48.67884" lon="6.80506">
        <ele>244.3</ele>
        <time>2020-06-29T08:06:17Z</time>
      </trkpt>
      <trkpt lat="48.67881" lon="6.80499">
        <ele>244.3</ele>
        <time>2020-06-29T08:06:18Z</time>
      </trkpt>
      <trkpt lat="48.67878" lon="6.8049">
        <ele>244.3</ele>
        <time>2020-06-29T08:06:19Z</time>
      </trkpt>
      <trkpt lat="48.67875" lon="6.80482">
        <ele>244.3</ele>
        <time>2020-06-29T08:06:20Z</time>
      </trkpt>
      <trkpt lat="48.67872" lon="6.80474">
        <ele>244.3</ele>
        <time>2020-06-29T08:06:21Z</time>
      </trkpt>
      <trkpt lat="48.67869" lon="6.80465">
        <ele>244.2</ele>
        <time>2020-06-29T08:06:22Z</time>
      </trkpt>
      <trkpt lat="48.67866" lon="6.80456">
        <ele>244.2</ele>
        <time>2020-06-29T08:06:23Z</time>
      </trkpt>
      <trkpt lat="48.67862" lon="6.80447">
        <ele>244.1</ele>
        <time>2020-06-29T08:06:24Z</time>
      </trkpt>
      <trkpt lat="48.67858" lon="6.80439">
        <ele>244</ele>
        <time>2020-06-29T08:06:25Z</time>
      </trkpt>
      <trkpt lat="48.67855" lon="6.80429">
        <ele>244</ele>
        <time>2020-06-29T08:06:26Z</time>
      </trkpt>
      <trkpt lat="48.67852" lon="6.8042">
        <ele>243.9</ele>
        <time>2020-06-29T08:06:27Z</time>
      </trkpt>
      <trkpt lat="48.67849" lon="6.80411">
        <ele>243.8</ele>
        <time>2020-06-29T08:06:28Z</time>
      </trkpt>
      <trkpt lat="48.67845" lon="6.80402">
        <ele>243.9</ele>
        <time>2020-06-29T08:06:29Z</time>
      </trkpt>
      <trkpt lat="48.67842" lon="6.80393">
        <ele>243.9</ele>
        <time>2020-06-29T08:06:30Z</time>
      </trkpt>
      <trkpt lat="48.67839" lon="6.80384">
        <ele>243.9</ele>
        <time>2020-06-29T08:06:31Z</time>
      </trkpt>
      <trkpt lat="48.67836" lon="6.80376">
        <ele>243.9</ele>
        <time>2020-06-29T08:06:32Z</time>
      </trkpt>
      <trkpt lat="48.67833" lon="6.80367">
        <ele>243.9</ele>
        <time>2020-06-29T08:06:33Z</time>
      </trkpt>
      <trkpt lat="48.67829" lon="6.8036">
        <ele>243.9</ele>
        <time>2020-06-29T08:06:34Z</time>
      </trkpt>
      <trkpt lat="48.67826" lon="6.80352">
        <ele>243.9</ele>
        <time>2020-06-29T08:06:35Z</time>
      </trkpt>
      <trkpt lat="48.67823" lon="6.80344">
        <ele>244</ele>
        <time>2020-06-29T08:06:36Z</time>
      </trkpt>
      <trkpt lat="48.67819" lon="6.80337">
        <ele>244.1</ele>
        <time>2020-06-29T08:06:37Z</time>
      </trkpt>
      <trkpt lat="48.67816" lon="6.80329">
        <ele>244.1</ele>
        <time>2020-06-29T08:06:38Z</time>
      </trkpt>
      <trkpt lat="48.67814" lon="6.8032">
        <ele>244.1</ele>
        <time>2020-06-29T08:06:39Z</time>
      </trkpt>
      <trkpt lat="48.6781" lon="6.80311">
        <ele>244.1</ele>
        <time>2020-06-29T08:06:40Z</time>
      </trkpt>
      <trkpt lat="48.67807" lon="6.80304">
        <ele>244.1</ele>
        <time>2020-06-29T08:06:41Z</time>
      </trkpt>
      <trkpt lat="48.67804" lon="6.80295">
        <ele>244</ele>
        <time>2020-06-29T08:06:42Z</time>
      </trkpt>
      <trkpt lat="48.67801" lon="6.80287">
        <ele>244</ele>
        <time>2020-06-29T08:06:43Z</time>
      </trkpt>
      <trkpt lat="48.67797" lon="6.80278">
        <ele>244</ele>
        <time>2020-06-29T08:06:44Z</time>
      </trkpt>
      <trkpt lat="48.67794" lon="6.8027">
        <ele>244</ele>
        <time>2020-06-29T08:06:45Z</time>
      </trkpt>
      <trkpt lat="48.6779" lon="6.80262">
        <ele>244</ele>
        <time>2020-06-29T08:06:46Z</time>
      </trkpt>
      <trkpt lat="48.67786" lon="6.80253">
        <ele>244</ele>
        <time>2020-06-29T08:06:47Z</time>
      </trkpt>
      <trkpt lat="48.67783" lon="6.80243">
        <ele>244</ele>
        <time>2020-06-29T08:06:48Z</time>
      </trkpt>
      <trkpt lat="48.6778" lon="6.80234">
        <ele>244</ele>
        <time>2020-06-29T08:06:49Z</time>
      </trkpt>
      <trkpt lat="48.67778" lon="6.80225">
        <ele>244</ele>
        <time>2020-06-29T08:06:50Z</time>
      </trkpt>
      <trkpt lat="48.67774" lon="6.80217">
        <ele>243.9</ele>
        <time>2020-06-29T08:06:51Z</time>
      </trkpt>
      <trkpt lat="48.6777" lon="6.80209">
        <ele>243.9</ele>
        <time>2020-06-29T08:06:52Z</time>
      </trkpt>
      <trkpt lat="48.67766" lon="6.80201">
        <ele>243.8</ele>
        <time>2020-06-29T08:06:53Z</time>
      </trkpt>
      <trkpt lat="48.67763" lon="6.80192">
        <ele>243.8</ele>
        <time>2020-06-29T08:06:54Z</time>
      </trkpt>
      <trkpt lat="48.6776" lon="6.80184">
        <ele>243.8</ele>
        <time>2020-06-29T08:06:55Z</time>
      </trkpt>
      <trkpt lat="48.67756" lon="6.80175">
        <ele>243.8</ele>
        <time>2020-06-29T08:06:56Z</time>
      </trkpt>
      <trkpt lat="48.67754" lon="6.80166">
        <ele>243.9</ele>
        <time>2020-06-29T08:06:57Z</time>
      </trkpt>
      <trkpt lat="48.67751" lon="6.80158">
        <ele>243.9</ele>
        <time>2020-06-29T08:06:58Z</time>
      </trkpt>
      <trkpt lat="48.67747" lon="6.8015">
        <ele>244</ele>
        <time>2020-06-29T08:06:59Z</time>
      </trkpt>
      <trkpt lat="48.67744" lon="6.8014">
        <ele>244.1</ele>
        <time>2020-06-29T08:07:00Z</time>
      </trkpt>
      <trkpt lat="48.67741" lon="6.80131">
        <ele>244.2</ele>
        <time>2020-06-29T08:07:01Z</time>
      </trkpt>
      <trkpt lat="48.67738" lon="6.80122">
        <ele>244.2</ele>
        <time>2020-06-29T08:07:02Z</time>
      </trkpt>
      <trkpt lat="48.67736" lon="6.80113">
        <ele>244.1</ele>
        <time>2020-06-29T08:07:03Z</time>
      </trkpt>
      <trkpt lat="48.67733" lon="6.80105">
        <ele>244.1</ele>
        <time>2020-06-29T08:07:04Z</time>
      </trkpt>
      <trkpt lat="48.6773" lon="6.80095">
        <ele>244.1</ele>
        <time>2020-06-29T08:07:05Z</time>
      </trkpt>
      <trkpt lat="48.67728" lon="6.80086">
        <ele>244.1</ele>
        <time>2020-06-29T08:07:06Z</time>
      </trkpt>
      <trkpt lat="48.67725" lon="6.80077">
        <ele>244.2</ele>
        <time>2020-06-29T08:07:07Z</time>
      </trkpt>
      <trkpt lat="48.67723" lon="6.80068">
        <ele>244.2</ele>
        <time>2020-06-29T08:07:08Z</time>
      </trkpt>
      <trkpt lat="48.67722" lon="6.80058">
        <ele>244.3</ele>
        <time>2020-06-29T08:07:09Z</time>
      </trkpt>
      <trkpt lat="48.6772" lon="6.80048">
        <ele>244.3</ele>
        <time>2020-06-29T08:07:10Z</time>
      </trkpt>
      <trkpt lat="48.67719" lon="6.80039">
        <ele>244.3</ele>
        <time>2020-06-29T08:07:11Z</time>
      </trkpt>
      <trkpt lat="48.67717" lon="6.80029">
        <ele>244.3</ele>
        <time>2020-06-29T08:07:12Z</time>
      </trkpt>
      <trkpt lat="48.67716" lon="6.80019">
        <ele>244.3</ele>
        <time>2020-06-29T08:07:13Z</time>
      </trkpt>
      <trkpt lat="48.67714" lon="6.8001">
        <ele>244.2</ele>
        <time>2020-06-29T08:07:14Z</time>
      </trkpt>
      <trkpt lat="48.67711" lon="6.80001">
        <ele>244.2</ele>
        <time>2020-06-29T08:07:15Z</time>
      </trkpt>
      <trkpt lat="48.6771" lon="6.79991">
        <ele>244.2</ele>
        <time>2020-06-29T08:07:16Z</time>
      </trkpt>
      <trkpt lat="48.67708" lon="6.79981">
        <ele>244.2</ele>
        <time>2020-06-29T08:07:17Z</time>
      </trkpt>
      <trkpt lat="48.67707" lon="6.79971">
        <ele>244.3</ele>
        <time>2020-06-29T08:07:18Z</time>
      </trkpt>
      <trkpt lat="48.67706" lon="6.79961">
        <ele>244.3</ele>
        <time>2020-06-29T08:07:19Z</time>
      </trkpt>
      <trkpt lat="48.67704" lon="6.79951">
        <ele>244.3</ele>
        <time>2020-06-29T08:07:20Z</time>
      </trkpt>
      <trkpt lat="48.67703" lon="6.79941">
        <ele>244.3</ele>
        <time>2020-06-29T08:07:21Z</time>
      </trkpt>
      <trkpt lat="48.67703" lon="6.79931">
        <ele>244.3</ele>
        <time>2020-06-29T08:07:22Z</time>
      </trkpt>
      <trkpt lat="48.67701" lon="6.79921">
        <ele>244.3</ele>
        <time>2020-06-29T08:07:23Z</time>
      </trkpt>
      <trkpt lat="48.677" lon="6.79911">
        <ele>244.3</ele>
        <time>2020-06-29T08:07:24Z</time>
      </trkpt>
      <trkpt lat="48.67699" lon="6.79901">
        <ele>244.3</ele>
        <time>2020-06-29T08:07:25Z</time>
      </trkpt>
      <trkpt lat="48.67697" lon="6.79891">
        <ele>244.2</ele>
        <time>2020-06-29T08:07:26Z</time>
      </trkpt>
      <trkpt lat="48.67695" lon="6.7988">
        <ele>244.2</ele>
        <time>2020-06-29T08:07:27Z</time>
      </trkpt>
      <trkpt lat="48.67693" lon="6.7987">
        <ele>244.2</ele>
        <time>2020-06-29T08:07:28Z</time>
      </trkpt>
      <trkpt lat="48.67692" lon="6.79859">
        <ele>244.2</ele>
        <time>2020-06-29T08:07:29Z</time>
      </trkpt>
      <trkpt lat="48.6769" lon="6.79849">
        <ele>244.3</ele>
        <time>2020-06-29T08:07:30Z</time>
      </trkpt>
      <trkpt lat="48.67688" lon="6.79839">
        <ele>244.4</ele>
        <time>2020-06-29T08:07:31Z</time>
      </trkpt>
      <trkpt lat="48.67686" lon="6.79829">
        <ele>244.4</ele>
        <time>2020-06-29T08:07:32Z</time>
      </trkpt>
      <trkpt lat="48.67685" lon="6.79819">
        <ele>244.4</ele>
        <time>2020-06-29T08:07:33Z</time>
      </trkpt>
      <trkpt lat="48.67684" lon="6.7981">
        <ele>244.4</ele>
        <time>2020-06-29T08:07:34Z</time>
      </trkpt>
      <trkpt lat="48.67682" lon="6.798">
        <ele>244.5</ele>
        <time>2020-06-29T08:07:35Z</time>
      </trkpt>
      <trkpt lat="48.67681" lon="6.7979">
        <ele>244.5</ele>
        <time>2020-06-29T08:07:36Z</time>
      </trkpt>
      <trkpt lat="48.67679" lon="6.7978">
        <ele>244.6</ele>
        <time>2020-06-29T08:07:37Z</time>
      </trkpt>
      <trkpt lat="48.67677" lon="6.7977">
        <ele>244.6</ele>
        <time>2020-06-29T08:07:38Z</time>
      </trkpt>
      <trkpt lat="48.67676" lon="6.7976">
        <ele>244.6</ele>
        <time>2020-06-29T08:07:39Z</time>
      </trkpt>
      <trkpt lat="48.67674" lon="6.7975">
        <ele>244.6</ele>
        <time>2020-06-29T08:07:40Z</time>
      </trkpt>
      <trkpt lat="48.67672" lon="6.7974">
        <ele>244.7</ele>
        <time>2020-06-29T08:07:41Z</time>
      </trkpt>
      <trkpt lat="48.6767" lon="6.79729">
        <ele>244.6</ele>
        <time>2020-06-29T08:07:42Z</time>
      </trkpt>
      <trkpt lat="48.67669" lon="6.79719">
        <ele>244.6</ele>
        <time>2020-06-29T08:07:43Z</time>
      </trkpt>
      <trkpt lat="48.67667" lon="6.79708">
        <ele>244.6</ele>
        <time>2020-06-29T08:07:44Z</time>
      </trkpt>
      <trkpt lat="48.67666" lon="6.79698">
        <ele>244.6</ele>
        <time>2020-06-29T08:07:45Z</time>
      </trkpt>
      <trkpt lat="48.67664" lon="6.79689">
        <ele>244.7</ele>
        <time>2020-06-29T08:07:46Z</time>
      </trkpt>
      <trkpt lat="48.67662" lon="6.79679">
        <ele>244.8</ele>
        <time>2020-06-29T08:07:47Z</time>
      </trkpt>
      <trkpt lat="48.67659" lon="6.79669">
        <ele>244.8</ele>
        <time>2020-06-29T08:07:48Z</time>
      </trkpt>
      <trkpt lat="48.67657" lon="6.79659">
        <ele>244.9</ele>
        <time>2020-06-29T08:07:49Z</time>
      </trkpt>
      <trkpt lat="48.67655" lon="6.79649">
        <ele>244.9</ele>
        <time>2020-06-29T08:07:50Z</time>
      </trkpt>
      <trkpt lat="48.67653" lon="6.79638">
        <ele>245</ele>
        <time>2020-06-29T08:07:51Z</time>
      </trkpt>
      <trkpt lat="48.67652" lon="6.79629">
        <ele>245.1</ele>
        <time>2020-06-29T08:07:52Z</time>
      </trkpt>
      <trkpt lat="48.6765" lon="6.79619">
        <ele>245.2</ele>
        <time>2020-06-29T08:07:53Z</time>
      </trkpt>
      <trkpt lat="48.67649" lon="6.79609">
        <ele>245.2</ele>
        <time>2020-06-29T08:07:54Z</time>
      </trkpt>
      <trkpt lat="48.67647" lon="6.79599">
        <ele>245.3</ele>
        <time>2020-06-29T08:07:55Z</time>
      </trkpt>
      <trkpt lat="48.67646" lon="6.79589">
        <ele>245.3</ele>
        <time>2020-06-29T08:07:56Z</time>
      </trkpt>
      <trkpt lat="48.67644" lon="6.79579">
        <ele>245.4</ele>
        <time>2020-06-29T08:07:57Z</time>
      </trkpt>
      <trkpt lat="48.67641" lon="6.7957">
        <ele>245.5</ele>
        <time>2020-06-29T08:07:58Z</time>
      </trkpt>
      <trkpt lat="48.67639" lon="6.79561">
        <ele>245.6</ele>
        <time>2020-06-29T08:07:59Z</time>
      </trkpt>
      <trkpt lat="48.67638" lon="6.79554">
        <ele>245.6</ele>
        <time>2020-06-29T08:08:00Z</time>
      </trkpt>
      <trkpt lat="48.67636" lon="6.79547">
        <ele>245.6</ele>
        <time>2020-06-29T08:08:01Z</time>
      </trkpt>
      <trkpt lat="48.67635" lon="6.79539">
        <ele>245.5</ele>
        <time>2020-06-29T08:08:02Z</time>
      </trkpt>
      <trkpt lat="48.67634" lon="6.79531">
        <ele>245.5</ele>
        <time>2020-06-29T08:08:03Z</time>
      </trkpt>
      <trkpt lat="48.67633" lon="6.79521">
        <ele>245.5</ele>
        <time>2020-06-29T08:08:04Z</time>
      </trkpt>
      <trkpt lat="48.67632" lon="6.79512">
        <ele>245.6</ele>
        <time>2020-06-29T08:08:05Z</time>
      </trkpt>
      <trkpt lat="48.67631" lon="6.79503">
        <ele>245.6</ele>
        <time>2020-06-29T08:08:06Z</time>
      </trkpt>
      <trkpt lat="48.6763" lon="6.79494">
        <ele>245.6</ele>
        <time>2020-06-29T08:08:07Z</time>
      </trkpt>
      <trkpt lat="48.67629" lon="6.79485">
        <ele>245.5</ele>
        <time>2020-06-29T08:08:08Z</time>
      </trkpt>
      <trkpt lat="48.67627" lon="6.79476">
        <ele>245.5</ele>
        <time>2020-06-29T08:08:09Z</time>
      </trkpt>
      <trkpt lat="48.67626" lon="6.79466">
        <ele>245.5</ele>
        <time>2020-06-29T08:08:10Z</time>
      </trkpt>
      <trkpt lat="48.67625" lon="6.79457">
        <ele>245.5</ele>
        <time>2020-06-29T08:08:11Z</time>
      </trkpt>
      <trkpt lat="48.67624" lon="6.79445">
        <ele>245.4</ele>
        <time>2020-06-29T08:08:12Z</time>
      </trkpt>
      <trkpt lat="48.67624" lon="6.79437">
        <ele>245.4</ele>
        <time>2020-06-29T08:08:13Z</time>
      </trkpt>
      <trkpt lat="48.67623" lon="6.79426">
        <ele>245.3</ele>
        <time>2020-06-29T08:08:14Z</time>
      </trkpt>
      <trkpt lat="48.67621" lon="6.79414">
        <ele>245.2</ele>
        <time>2020-06-29T08:08:15Z</time>
      </trkpt>
      <trkpt lat="48.67621" lon="6.79401">
        <ele>245.1</ele>
        <time>2020-06-29T08:08:16Z</time>
      </trkpt>
      <trkpt lat="48.67619" lon="6.7939">
        <ele>245</ele>
        <time>2020-06-29T08:08:17Z</time>
      </trkpt>
      <trkpt lat="48.67617" lon="6.79374">
        <ele>244.8</ele>
        <time>2020-06-29T08:08:18Z</time>
      </trkpt>
      <trkpt lat="48.67614" lon="6.79361">
        <ele>244.7</ele>
        <time>2020-06-29T08:08:19Z</time>
      </trkpt>
      <trkpt lat="48.67612" lon="6.79349">
        <ele>244.5</ele>
        <time>2020-06-29T08:08:20Z</time>
      </trkpt>
      <trkpt lat="48.67612" lon="6.7934">
        <ele>244.4</ele>
        <time>2020-06-29T08:08:21Z</time>
      </trkpt>
      <trkpt lat="48.67613" lon="6.79331">
        <ele>244.3</ele>
        <time>2020-06-29T08:08:22Z</time>
      </trkpt>
      <trkpt lat="48.67613" lon="6.79321">
        <ele>244.3</ele>
        <time>2020-06-29T08:08:23Z</time>
      </trkpt>
      <trkpt lat="48.67614" lon="6.79312">
        <ele>244.4</ele>
        <time>2020-06-29T08:08:24Z</time>
      </trkpt>
      <trkpt lat="48.67615" lon="6.79303">
        <ele>244.4</ele>
        <time>2020-06-29T08:08:25Z</time>
      </trkpt>
      <trkpt lat="48.67616" lon="6.79292">
        <ele>244.5</ele>
        <time>2020-06-29T08:08:26Z</time>
      </trkpt>
      <trkpt lat="48.67617" lon="6.79282">
        <ele>244.5</ele>
        <time>2020-06-29T08:08:27Z</time>
      </trkpt>
      <trkpt lat="48.67618" lon="6.79272">
        <ele>244.6</ele>
        <time>2020-06-29T08:08:28Z</time>
      </trkpt>
      <trkpt lat="48.67619" lon="6.79265">
        <ele>244.6</ele>
        <time>2020-06-29T08:08:29Z</time>
      </trkpt>
      <trkpt lat="48.67621" lon="6.79256">
        <ele>244.7</ele>
        <time>2020-06-29T08:08:30Z</time>
      </trkpt>
      <trkpt lat="48.67622" lon="6.79246">
        <ele>244.7</ele>
        <time>2020-06-29T08:08:31Z</time>
      </trkpt>
      <trkpt lat="48.67623" lon="6.79238">
        <ele>244.8</ele>
        <time>2020-06-29T08:08:32Z</time>
      </trkpt>
      <trkpt lat="48.67624" lon="6.79231">
        <ele>244.7</ele>
        <time>2020-06-29T08:08:33Z</time>
      </trkpt>
      <trkpt lat="48.67627" lon="6.79218">
        <ele>244.7</ele>
        <time>2020-06-29T08:08:34Z</time>
      </trkpt>
      <trkpt lat="48.67628" lon="6.79209">
        <ele>244.7</ele>
        <time>2020-06-29T08:08:35Z</time>
      </trkpt>
      <trkpt lat="48.6763" lon="6.79199">
        <ele>244.6</ele>
        <time>2020-06-29T08:08:36Z</time>
      </trkpt>
      <trkpt lat="48.67633" lon="6.79189">
        <ele>244.6</ele>
        <time>2020-06-29T08:08:37Z</time>
      </trkpt>
      <trkpt lat="48.67635" lon="6.79178">
        <ele>244.6</ele>
        <time>2020-06-29T08:08:38Z</time>
      </trkpt>
      <trkpt lat="48.67638" lon="6.79169">
        <ele>244.6</ele>
        <time>2020-06-29T08:08:39Z</time>
      </trkpt>
      <trkpt lat="48.67641" lon="6.79159">
        <ele>244.6</ele>
        <time>2020-06-29T08:08:40Z</time>
      </trkpt>
      <trkpt lat="48.67645" lon="6.7915">
        <ele>244.6</ele>
        <time>2020-06-29T08:08:41Z</time>
      </trkpt>
      <trkpt lat="48.67648" lon="6.79142">
        <ele>244.5</ele>
        <time>2020-06-29T08:08:42Z</time>
      </trkpt>
      <trkpt lat="48.6765" lon="6.79133">
        <ele>244.4</ele>
        <time>2020-06-29T08:08:43Z</time>
      </trkpt>
      <trkpt lat="48.67653" lon="6.79124">
        <ele>244.4</ele>
        <time>2020-06-29T08:08:44Z</time>
      </trkpt>
      <trkpt lat="48.67655" lon="6.79117">
        <ele>244.4</ele>
        <time>2020-06-29T08:08:45Z</time>
      </trkpt>
      <trkpt lat="48.67657" lon="6.79108">
        <ele>244.4</ele>
        <time>2020-06-29T08:08:46Z</time>
      </trkpt>
      <trkpt lat="48.67661" lon="6.79099">
        <ele>244.4</ele>
        <time>2020-06-29T08:08:47Z</time>
      </trkpt>
      <trkpt lat="48.67665" lon="6.79091">
        <ele>244.5</ele>
        <time>2020-06-29T08:08:48Z</time>
      </trkpt>
      <trkpt lat="48.6767" lon="6.79082">
        <ele>244.5</ele>
        <time>2020-06-29T08:08:49Z</time>
      </trkpt>
      <trkpt lat="48.67675" lon="6.79075">
        <ele>244.6</ele>
        <time>2020-06-29T08:08:50Z</time>
      </trkpt>
      <trkpt lat="48.67678" lon="6.79068">
        <ele>244.6</ele>
        <time>2020-06-29T08:08:51Z</time>
      </trkpt>
      <trkpt lat="48.67683" lon="6.79061">
        <ele>244.5</ele>
        <time>2020-06-29T08:08:52Z</time>
      </trkpt>
      <trkpt lat="48.67688" lon="6.79054">
        <ele>244.5</ele>
        <time>2020-06-29T08:08:53Z</time>
      </trkpt>
      <trkpt lat="48.67694" lon="6.79048">
        <ele>244.5</ele>
        <time>2020-06-29T08:08:54Z</time>
      </trkpt>
      <trkpt lat="48.67699" lon="6.79041">
        <ele>244.4</ele>
        <time>2020-06-29T08:08:55Z</time>
      </trkpt>
      <trkpt lat="48.67704" lon="6.79034">
        <ele>244.5</ele>
        <time>2020-06-29T08:08:56Z</time>
      </trkpt>
      <trkpt lat="48.67709" lon="6.79028">
        <ele>244.5</ele>
        <time>2020-06-29T08:08:57Z</time>
      </trkpt>
      <trkpt lat="48.67714" lon="6.79022">
        <ele>244.6</ele>
        <time>2020-06-29T08:08:58Z</time>
      </trkpt>
      <trkpt lat="48.67719" lon="6.79016">
        <ele>244.6</ele>
        <time>2020-06-29T08:08:59Z</time>
      </trkpt>
      <trkpt lat="48.67725" lon="6.79009">
        <ele>244.7</ele>
        <time>2020-06-29T08:09:00Z</time>
      </trkpt>
      <trkpt lat="48.67731" lon="6.79004">
        <ele>244.7</ele>
        <time>2020-06-29T08:09:01Z</time>
      </trkpt>
      <trkpt lat="48.67736" lon="6.78998">
        <ele>244.6</ele>
        <time>2020-06-29T08:09:02Z</time>
      </trkpt>
      <trkpt lat="48.67741" lon="6.78993">
        <ele>244.6</ele>
        <time>2020-06-29T08:09:03Z</time>
      </trkpt>
      <trkpt lat="48.67748" lon="6.78989">
        <ele>244.6</ele>
        <time>2020-06-29T08:09:04Z</time>
      </trkpt>
      <trkpt lat="48.67754" lon="6.78985">
        <ele>244.6</ele>
        <time>2020-06-29T08:09:05Z</time>
      </trkpt>
      <trkpt lat="48.6776" lon="6.78981">
        <ele>244.6</ele>
        <time>2020-06-29T08:09:06Z</time>
      </trkpt>
      <trkpt lat="48.67764" lon="6.78978">
        <ele>244.6</ele>
        <time>2020-06-29T08:09:07Z</time>
      </trkpt>
      <trkpt lat="48.67769" lon="6.78975">
        <ele>244.6</ele>
        <time>2020-06-29T08:09:08Z</time>
      </trkpt>
      <trkpt lat="48.67775" lon="6.7897">
        <ele>244.5</ele>
        <time>2020-06-29T08:09:09Z</time>
      </trkpt>
      <trkpt lat="48.6778" lon="6.78967">
        <ele>244.3</ele>
        <time>2020-06-29T08:09:10Z</time>
      </trkpt>
      <trkpt lat="48.67783" lon="6.78964">
        <ele>244.2</ele>
        <time>2020-06-29T08:09:11Z</time>
      </trkpt>
      <trkpt lat="48.67789" lon="6.78962">
        <ele>243.9</ele>
        <time>2020-06-29T08:09:12Z</time>
      </trkpt>
      <trkpt lat="48.67794" lon="6.78959">
        <ele>243.8</ele>
        <time>2020-06-29T08:09:13Z</time>
      </trkpt>
      <trkpt lat="48.67798" lon="6.78956">
        <ele>243.8</ele>
        <time>2020-06-29T08:09:14Z</time>
      </trkpt>
      <trkpt lat="48.67804" lon="6.78955">
        <ele>243.8</ele>
        <time>2020-06-29T08:09:15Z</time>
      </trkpt>
      <trkpt lat="48.67809" lon="6.78953">
        <ele>243.7</ele>
        <time>2020-06-29T08:09:16Z</time>
      </trkpt>
      <trkpt lat="48.67813" lon="6.78952">
        <ele>243.6</ele>
        <time>2020-06-29T08:09:17Z</time>
      </trkpt>
      <trkpt lat="48.67819" lon="6.7895">
        <ele>243.5</ele>
        <time>2020-06-29T08:09:18Z</time>
      </trkpt>
      <trkpt lat="48.67824" lon="6.78947">
        <ele>243.3</ele>
        <time>2020-06-29T08:09:19Z</time>
      </trkpt>
      <trkpt lat="48.67829" lon="6.78944">
        <ele>243.2</ele>
        <time>2020-06-29T08:09:20Z</time>
      </trkpt>
      <trkpt lat="48.67835" lon="6.7894">
        <ele>243.1</ele>
        <time>2020-06-29T08:09:21Z</time>
      </trkpt>
      <trkpt lat="48.6784" lon="6.78936">
        <ele>242.9</ele>
        <time>2020-06-29T08:09:22Z</time>
      </trkpt>
      <trkpt lat="48.67846" lon="6.78933">
        <ele>243.1</ele>
        <time>2020-06-29T08:09:23Z</time>
      </trkpt>
      <trkpt lat="48.67852" lon="6.78929">
        <ele>243.2</ele>
        <time>2020-06-29T08:09:24Z</time>
      </trkpt>
      <trkpt lat="48.67858" lon="6.78925">
        <ele>243.2</ele>
        <time>2020-06-29T08:09:25Z</time>
      </trkpt>
      <trkpt lat="48.67866" lon="6.78921">
        <ele>243</ele>
        <time>2020-06-29T08:09:26Z</time>
      </trkpt>
      <trkpt lat="48.67873" lon="6.78915">
        <ele>242.9</ele>
        <time>2020-06-29T08:09:27Z</time>
      </trkpt>
      <trkpt lat="48.67879" lon="6.7891">
        <ele>242.7</ele>
        <time>2020-06-29T08:09:28Z</time>
      </trkpt>
      <trkpt lat="48.67885" lon="6.78906">
        <ele>242.7</ele>
        <time>2020-06-29T08:09:29Z</time>
      </trkpt>
      <trkpt lat="48.67889" lon="6.78903">
        <ele>242.7</ele>
        <time>2020-06-29T08:09:30Z</time>
      </trkpt>
      <trkpt lat="48.67893" lon="6.78901">
        <ele>242.7</ele>
        <time>2020-06-29T08:09:31Z</time>
      </trkpt>
      <trkpt lat="48.67898" lon="6.78898">
        <ele>242.7</ele>
        <time>2020-06-29T08:09:32Z</time>
      </trkpt>
      <trkpt lat="48.67904" lon="6.78895">
        <ele>242.7</ele>
        <time>2020-06-29T08:09:33Z</time>
      </trkpt>
      <trkpt lat="48.67909" lon="6.78892">
        <ele>242.7</ele>
        <time>2020-06-29T08:09:34Z</time>
      </trkpt>
      <trkpt lat="48.67913" lon="6.7889">
        <ele>242.7</ele>
        <time>2020-06-29T08:09:35Z</time>
      </trkpt>
      <trkpt lat="48.67918" lon="6.78887">
        <ele>242.7</ele>
        <time>2020-06-29T08:09:36Z</time>
      </trkpt>
      <trkpt lat="48.67923" lon="6.78883">
        <ele>242.7</ele>
        <time>2020-06-29T08:09:37Z</time>
      </trkpt>
      <trkpt lat="48.67928" lon="6.7888">
        <ele>242.6</ele>
        <time>2020-06-29T08:09:38Z</time>
      </trkpt>
      <trkpt lat="48.67933" lon="6.78877">
        <ele>242.6</ele>
        <time>2020-06-29T08:09:39Z</time>
      </trkpt>
      <trkpt lat="48.67938" lon="6.78873">
        <ele>242.6</ele>
        <time>2020-06-29T08:09:40Z</time>
      </trkpt>
      <trkpt lat="48.67943" lon="6.78868">
        <ele>242.6</ele>
        <time>2020-06-29T08:09:41Z</time>
      </trkpt>
      <trkpt lat="48.67948" lon="6.78865">
        <ele>242.7</ele>
        <time>2020-06-29T08:09:42Z</time>
      </trkpt>
      <trkpt lat="48.67952" lon="6.78861">
        <ele>242.7</ele>
        <time>2020-06-29T08:09:43Z</time>
      </trkpt>
      <trkpt lat="48.67958" lon="6.78856">
        <ele>242.6</ele>
        <time>2020-06-29T08:09:44Z</time>
      </trkpt>
      <trkpt lat="48.67964" lon="6.7885">
        <ele>242.5</ele>
        <time>2020-06-29T08:09:45Z</time>
      </trkpt>
      <trkpt lat="48.67968" lon="6.78844">
        <ele>242.4</ele>
        <time>2020-06-29T08:09:46Z</time>
      </trkpt>
      <trkpt lat="48.67973" lon="6.78838">
        <ele>242.3</ele>
        <time>2020-06-29T08:09:47Z</time>
      </trkpt>
      <trkpt lat="48.67979" lon="6.78831">
        <ele>242.2</ele>
        <time>2020-06-29T08:09:48Z</time>
      </trkpt>
      <trkpt lat="48.67983" lon="6.78826">
        <ele>242.2</ele>
        <time>2020-06-29T08:09:49Z</time>
      </trkpt>
      <trkpt lat="48.67986" lon="6.78821">
        <ele>242.2</ele>
        <time>2020-06-29T08:09:50Z</time>
      </trkpt>
      <trkpt lat="48.67991" lon="6.78815">
        <ele>242.3</ele>
        <time>2020-06-29T08:09:51Z</time>
      </trkpt>
      <trkpt lat="48.67994" lon="6.78809">
        <ele>242.4</ele>
        <time>2020-06-29T08:09:52Z</time>
      </trkpt>
      <trkpt lat="48.67998" lon="6.78803">
        <ele>242.4</ele>
        <time>2020-06-29T08:09:53Z</time>
      </trkpt>
      <trkpt lat="48.68001" lon="6.78797">
        <ele>242.3</ele>
        <time>2020-06-29T08:09:54Z</time>
      </trkpt>
      <trkpt lat="48.68003" lon="6.78791">
        <ele>242.3</ele>
        <time>2020-06-29T08:09:55Z</time>
      </trkpt>
      <trkpt lat="48.68007" lon="6.78784">
        <ele>242.2</ele>
        <time>2020-06-29T08:09:56Z</time>
      </trkpt>
      <trkpt lat="48.68009" lon="6.78776">
        <ele>242.2</ele>
        <time>2020-06-29T08:09:57Z</time>
      </trkpt>
      <trkpt lat="48.68012" lon="6.78768">
        <ele>242.3</ele>
        <time>2020-06-29T08:09:58Z</time>
      </trkpt>
      <trkpt lat="48.68015" lon="6.78762">
        <ele>242.3</ele>
        <time>2020-06-29T08:09:59Z</time>
      </trkpt>
      <trkpt lat="48.68016" lon="6.78756">
        <ele>242.3</ele>
        <time>2020-06-29T08:10:00Z</time>
      </trkpt>
      <trkpt lat="48.68019" lon="6.7875">
        <ele>242.3</ele>
        <time>2020-06-29T08:10:01Z</time>
      </trkpt>
      <trkpt lat="48.68022" lon="6.78741">
        <ele>242.2</ele>
        <time>2020-06-29T08:10:02Z</time>
      </trkpt>
      <trkpt lat="48.68024" lon="6.78733">
        <ele>242.2</ele>
        <time>2020-06-29T08:10:03Z</time>
      </trkpt>
      <trkpt lat="48.68026" lon="6.78724">
        <ele>242.2</ele>
        <time>2020-06-29T08:10:04Z</time>
      </trkpt>
      <trkpt lat="48.68026" lon="6.78717">
        <ele>242.1</ele>
        <time>2020-06-29T08:10:05Z</time>
      </trkpt>
      <trkpt lat="48.68028" lon="6.7871">
        <ele>242.1</ele>
        <time>2020-06-29T08:10:06Z</time>
      </trkpt>
      <trkpt lat="48.6803" lon="6.78702">
        <ele>242</ele>
        <time>2020-06-29T08:10:07Z</time>
      </trkpt>
      <trkpt lat="48.68031" lon="6.78695">
        <ele>241.9</ele>
        <time>2020-06-29T08:10:08Z</time>
      </trkpt>
      <trkpt lat="48.68031" lon="6.78687">
        <ele>241.8</ele>
        <time>2020-06-29T08:10:09Z</time>
      </trkpt>
      <trkpt lat="48.68034" lon="6.7868">
        <ele>241.8</ele>
        <time>2020-06-29T08:10:10Z</time>
      </trkpt>
      <trkpt lat="48.68035" lon="6.78673">
        <ele>241.8</ele>
        <time>2020-06-29T08:10:11Z</time>
      </trkpt>
      <trkpt lat="48.68036" lon="6.78665">
        <ele>241.8</ele>
        <time>2020-06-29T08:10:12Z</time>
      </trkpt>
      <trkpt lat="48.68037" lon="6.78656">
        <ele>241.8</ele>
        <time>2020-06-29T08:10:13Z</time>
      </trkpt>
      <trkpt lat="48.68037" lon="6.78649">
        <ele>241.8</ele>
        <time>2020-06-29T08:10:14Z</time>
      </trkpt>
      <trkpt lat="48.68037" lon="6.78639">
        <ele>241.7</ele>
        <time>2020-06-29T08:10:15Z</time>
      </trkpt>
      <trkpt lat="48.68038" lon="6.7863">
        <ele>241.7</ele>
        <time>2020-06-29T08:10:16Z</time>
      </trkpt>
      <trkpt lat="48.68038" lon="6.78624">
        <ele>241.7</ele>
        <time>2020-06-29T08:10:17Z</time>
      </trkpt>
      <trkpt lat="48.68038" lon="6.78615">
        <ele>241.7</ele>
        <time>2020-06-29T08:10:18Z</time>
      </trkpt>
      <trkpt lat="48.68038" lon="6.78607">
        <ele>241.7</ele>
        <time>2020-06-29T08:10:19Z</time>
      </trkpt>
      <trkpt lat="48.68038" lon="6.78601">
        <ele>241.7</ele>
        <time>2020-06-29T08:10:20Z</time>
      </trkpt>
      <trkpt lat="48.68039" lon="6.78593">
        <ele>241.7</ele>
        <time>2020-06-29T08:10:21Z</time>
      </trkpt>
      <trkpt lat="48.68039" lon="6.78587">
        <ele>241.7</ele>
        <time>2020-06-29T08:10:22Z</time>
      </trkpt>
      <trkpt lat="48.68039" lon="6.7858">
        <ele>241.6</ele>
        <time>2020-06-29T08:10:23Z</time>
      </trkpt>
      <trkpt lat="48.68039" lon="6.78573">
        <ele>241.6</ele>
        <time>2020-06-29T08:10:24Z</time>
      </trkpt>
      <trkpt lat="48.68039" lon="6.78566">
        <ele>241.5</ele>
        <time>2020-06-29T08:10:25Z</time>
      </trkpt>
      <trkpt lat="48.68039" lon="6.78562">
        <ele>241.5</ele>
        <time>2020-06-29T08:10:26Z</time>
      </trkpt>
      <trkpt lat="48.68039" lon="6.78557">
        <ele>241.4</ele>
        <time>2020-06-29T08:10:27Z</time>
      </trkpt>
      <trkpt lat="48.6804" lon="6.7855">
        <ele>241.4</ele>
        <time>2020-06-29T08:10:28Z</time>
      </trkpt>
      <trkpt lat="48.6804" lon="6.78547">
        <ele>241.4</ele>
        <time>2020-06-29T08:10:29Z</time>
      </trkpt>
      <trkpt lat="48.6804" lon="6.78542">
        <ele>241.4</ele>
        <time>2020-06-29T08:10:30Z</time>
      </trkpt>
      <trkpt lat="48.6804" lon="6.78538">
        <ele>241.4</ele>
        <time>2020-06-29T08:10:31Z</time>
      </trkpt>
      <trkpt lat="48.6804" lon="6.78536">
        <ele>241.4</ele>
        <time>2020-06-29T08:10:32Z</time>
      </trkpt>
      <trkpt lat="48.68041" lon="6.78531">
        <ele>241.4</ele>
        <time>2020-06-29T08:10:33Z</time>
      </trkpt>
      <trkpt lat="48.68041" lon="6.78529">
        <ele>241.4</ele>
        <time>2020-06-29T08:10:34Z</time>
      </trkpt>
      <trkpt lat="48.6804" lon="6.78527">
        <ele>241.4</ele>
        <time>2020-06-29T08:10:35Z</time>
      </trkpt>
      <trkpt lat="48.6804" lon="6.78527">
        <ele>241.4</ele>
        <time>2020-06-29T08:10:36Z</time>
      </trkpt>
      <trkpt lat="48.6804" lon="6.78526">
        <ele>241.4</ele>
        <time>2020-06-29T08:10:37Z</time>
      </trkpt>
      <trkpt lat="48.6804" lon="6.78526">
        <ele>241.4</ele>
        <time>2020-06-29T08:10:38Z</time>
      </trkpt>
      <trkpt lat="48.6804" lon="6.78525">
        <ele>241.4</ele>
        <time>2020-06-29T08:10:39Z</time>
      </trkpt>
      <trkpt lat="48.6804" lon="6.78525">
        <ele>241.4</ele>
        <time>2020-06-29T08:10:40Z</time>
      </trkpt>
      <trkpt lat="48.6804" lon="6.78524">
        <ele>241.4</ele>
        <time>2020-06-29T08:10:41Z</time>
      </trkpt>
      <trkpt lat="48.6804" lon="6.78524">
        <ele>241.4</ele>
        <time>2020-06-29T08:10:42Z</time>
      </trkpt>
      <trkpt lat="48.6804" lon="6.78523">
        <ele>241.4</ele>
        <time>2020-06-29T08:10:43Z</time>
      </trkpt>
      <trkpt lat="48.6804" lon="6.78522">
        <ele>241.4</ele>
        <time>2020-06-29T08:10:44Z</time>
      </trkpt>
      <trkpt lat="48.6804" lon="6.78522">
        <ele>241.4</ele>
        <time>2020-06-29T08:10:45Z</time>
      </trkpt>
      <trkpt lat="48.6804" lon="6.78521">
        <ele>241.4</ele>
        <time>2020-06-29T08:10:46Z</time>
      </trkpt>
      <trkpt lat="48.6804" lon="6.78521">
        <ele>241.4</ele>
        <time>2020-06-29T08:15:59Z</time>
      </trkpt>
      <trkpt lat="48.6804" lon="6.7852">
        <ele>241.4</ele>
        <time>2020-06-29T08:16:00Z</time>
      </trkpt>
      <trkpt lat="48.6804" lon="6.78515">
        <ele>241.4</ele>
        <time>2020-06-29T08:16:01Z</time>
      </trkpt>
      <trkpt lat="48.6804" lon="6.7851">
        <ele>241.3</ele>
        <time>2020-06-29T08:16:02Z</time>
      </trkpt>
      <trkpt lat="48.6804" lon="6.78508">
        <ele>241.3</ele>
        <time>2020-06-29T08:16:03Z</time>
      </trkpt>
      <trkpt lat="48.68039" lon="6.78503">
        <ele>241.3</ele>
        <time>2020-06-29T08:16:04Z</time>
      </trkpt>
      <trkpt lat="48.68039" lon="6.78497">
        <ele>241.2</ele>
        <time>2020-06-29T08:16:05Z</time>
      </trkpt>
      <trkpt lat="48.68039" lon="6.78494">
        <ele>241.2</ele>
        <time>2020-06-29T08:16:06Z</time>
      </trkpt>
      <trkpt lat="48.6804" lon="6.78488">
        <ele>241.2</ele>
        <time>2020-06-29T08:16:07Z</time>
      </trkpt>
      <trkpt lat="48.68039" lon="6.78481">
        <ele>241.2</ele>
        <time>2020-06-29T08:16:08Z</time>
      </trkpt>
      <trkpt lat="48.6804" lon="6.78474">
        <ele>241.2</ele>
        <time>2020-06-29T08:16:09Z</time>
      </trkpt>
      <trkpt lat="48.6804" lon="6.78467">
        <ele>241.2</ele>
        <time>2020-06-29T08:16:10Z</time>
      </trkpt>
      <trkpt lat="48.68041" lon="6.78459">
        <ele>241.2</ele>
        <time>2020-06-29T08:16:11Z</time>
      </trkpt>
      <trkpt lat="48.68041" lon="6.7845">
        <ele>241.2</ele>
        <time>2020-06-29T08:16:12Z</time>
      </trkpt>
      <trkpt lat="48.68042" lon="6.78442">
        <ele>241.1</ele>
        <time>2020-06-29T08:16:13Z</time>
      </trkpt>
      <trkpt lat="48.68044" lon="6.78433">
        <ele>241.1</ele>
        <time>2020-06-29T08:16:14Z</time>
      </trkpt>
      <trkpt lat="48.68045" lon="6.78425">
        <ele>241.1</ele>
        <time>2020-06-29T08:16:15Z</time>
      </trkpt>
      <trkpt lat="48.68046" lon="6.78416">
        <ele>241</ele>
        <time>2020-06-29T08:16:16Z</time>
      </trkpt>
      <trkpt lat="48.68047" lon="6.78408">
        <ele>241</ele>
        <time>2020-06-29T08:16:17Z</time>
      </trkpt>
      <trkpt lat="48.68048" lon="6.784">
        <ele>240.9</ele>
        <time>2020-06-29T08:16:18Z</time>
      </trkpt>
      <trkpt lat="48.68049" lon="6.78391">
        <ele>240.8</ele>
        <time>2020-06-29T08:16:19Z</time>
      </trkpt>
      <trkpt lat="48.68049" lon="6.78382">
        <ele>240.8</ele>
        <time>2020-06-29T08:16:20Z</time>
      </trkpt>
      <trkpt lat="48.6805" lon="6.78373">
        <ele>240.8</ele>
        <time>2020-06-29T08:16:21Z</time>
      </trkpt>
      <trkpt lat="48.6805" lon="6.78364">
        <ele>240.8</ele>
        <time>2020-06-29T08:16:22Z</time>
      </trkpt>
      <trkpt lat="48.68051" lon="6.78355">
        <ele>240.8</ele>
        <time>2020-06-29T08:16:23Z</time>
      </trkpt>
      <trkpt lat="48.6805" lon="6.78346">
        <ele>240.8</ele>
        <time>2020-06-29T08:16:24Z</time>
      </trkpt>
      <trkpt lat="48.6805" lon="6.78337">
        <ele>240.9</ele>
        <time>2020-06-29T08:16:25Z</time>
      </trkpt>
      <trkpt lat="48.6805" lon="6.78327">
        <ele>241</ele>
        <time>2020-06-29T08:16:26Z</time>
      </trkpt>
      <trkpt lat="48.68051" lon="6.78317">
        <ele>241</ele>
        <time>2020-06-29T08:16:27Z</time>
      </trkpt>
      <trkpt lat="48.68051" lon="6.78308">
        <ele>241</ele>
        <time>2020-06-29T08:16:28Z</time>
      </trkpt>
      <trkpt lat="48.68051" lon="6.78299">
        <ele>241</ele>
        <time>2020-06-29T08:16:29Z</time>
      </trkpt>
      <trkpt lat="48.68052" lon="6.78289">
        <ele>241</ele>
        <time>2020-06-29T08:16:30Z</time>
      </trkpt>
      <trkpt lat="48.68052" lon="6.7828">
        <ele>241</ele>
        <time>2020-06-29T08:16:31Z</time>
      </trkpt>
      <trkpt lat="48.68053" lon="6.7827">
        <ele>241</ele>
        <time>2020-06-29T08:16:32Z</time>
      </trkpt>
      <trkpt lat="48.68054" lon="6.7826">
        <ele>241</ele>
        <time>2020-06-29T08:16:33Z</time>
      </trkpt>
      <trkpt lat="48.68055" lon="6.78251">
        <ele>241.1</ele>
        <time>2020-06-29T08:16:34Z</time>
      </trkpt>
      <trkpt lat="48.68056" lon="6.78242">
        <ele>241.1</ele>
        <time>2020-06-29T08:16:35Z</time>
      </trkpt>
      <trkpt lat="48.68057" lon="6.78233">
        <ele>241</ele>
        <time>2020-06-29T08:16:36Z</time>
      </trkpt>
      <trkpt lat="48.68059" lon="6.78223">
        <ele>241</ele>
        <time>2020-06-29T08:16:37Z</time>
      </trkpt>
      <trkpt lat="48.6806" lon="6.78213">
        <ele>241</ele>
        <time>2020-06-29T08:16:38Z</time>
      </trkpt>
      <trkpt lat="48.68061" lon="6.78203">
        <ele>241</ele>
        <time>2020-06-29T08:16:39Z</time>
      </trkpt>
      <trkpt lat="48.68063" lon="6.78194">
        <ele>240.9</ele>
        <time>2020-06-29T08:16:40Z</time>
      </trkpt>
      <trkpt lat="48.68065" lon="6.78184">
        <ele>240.9</ele>
        <time>2020-06-29T08:16:41Z</time>
      </trkpt>
      <trkpt lat="48.68066" lon="6.78174">
        <ele>240.8</ele>
        <time>2020-06-29T08:16:42Z</time>
      </trkpt>
      <trkpt lat="48.68068" lon="6.78166">
        <ele>240.8</ele>
        <time>2020-06-29T08:16:43Z</time>
      </trkpt>
      <trkpt lat="48.6807" lon="6.78157">
        <ele>240.7</ele>
        <time>2020-06-29T08:16:44Z</time>
      </trkpt>
      <trkpt lat="48.68073" lon="6.78148">
        <ele>240.7</ele>
        <time>2020-06-29T08:16:45Z</time>
      </trkpt>
      <trkpt lat="48.68075" lon="6.78139">
        <ele>240.7</ele>
        <time>2020-06-29T08:16:46Z</time>
      </trkpt>
      <trkpt lat="48.68078" lon="6.78129">
        <ele>240.6</ele>
        <time>2020-06-29T08:16:47Z</time>
      </trkpt>
      <trkpt lat="48.68082" lon="6.7812">
        <ele>240.6</ele>
        <time>2020-06-29T08:16:48Z</time>
      </trkpt>
      <trkpt lat="48.68086" lon="6.78111">
        <ele>240.7</ele>
        <time>2020-06-29T08:16:49Z</time>
      </trkpt>
      <trkpt lat="48.68091" lon="6.78101">
        <ele>240.7</ele>
        <time>2020-06-29T08:16:50Z</time>
      </trkpt>
      <trkpt lat="48.68095" lon="6.78093">
        <ele>240.7</ele>
        <time>2020-06-29T08:16:51Z</time>
      </trkpt>
      <trkpt lat="48.68099" lon="6.78086">
        <ele>240.7</ele>
        <time>2020-06-29T08:16:52Z</time>
      </trkpt>
      <trkpt lat="48.68103" lon="6.78079">
        <ele>240.7</ele>
        <time>2020-06-29T08:16:53Z</time>
      </trkpt>
      <trkpt lat="48.68108" lon="6.78072">
        <ele>240.6</ele>
        <time>2020-06-29T08:16:54Z</time>
      </trkpt>
      <trkpt lat="48.68113" lon="6.78065">
        <ele>240.5</ele>
        <time>2020-06-29T08:16:55Z</time>
      </trkpt>
      <trkpt lat="48.68117" lon="6.78058">
        <ele>240.5</ele>
        <time>2020-06-29T08:16:56Z</time>
      </trkpt>
      <trkpt lat="48.68122" lon="6.78051">
        <ele>240.5</ele>
        <time>2020-06-29T08:16:57Z</time>
      </trkpt>
      <trkpt lat="48.68127" lon="6.78045">
        <ele>240.5</ele>
        <time>2020-06-29T08:16:58Z</time>
      </trkpt>
      <trkpt lat="48.68132" lon="6.7804">
        <ele>240.5</ele>
        <time>2020-06-29T08:16:59Z</time>
      </trkpt>
      <trkpt lat="48.68136" lon="6.78035">
        <ele>240.5</ele>
        <time>2020-06-29T08:17:00Z</time>
      </trkpt>
      <trkpt lat="48.68141" lon="6.78029">
        <ele>240.5</ele>
        <time>2020-06-29T08:17:01Z</time>
      </trkpt>
      <trkpt lat="48.68145" lon="6.78024">
        <ele>240.5</ele>
        <time>2020-06-29T08:17:02Z</time>
      </trkpt>
      <trkpt lat="48.6815" lon="6.78021">
        <ele>240.6</ele>
        <time>2020-06-29T08:17:03Z</time>
      </trkpt>
      <trkpt lat="48.68153" lon="6.78017">
        <ele>240.6</ele>
        <time>2020-06-29T08:17:04Z</time>
      </trkpt>
      <trkpt lat="48.68157" lon="6.78013">
        <ele>240.5</ele>
        <time>2020-06-29T08:17:05Z</time>
      </trkpt>
      <trkpt lat="48.68161" lon="6.7801">
        <ele>240.5</ele>
        <time>2020-06-29T08:17:06Z</time>
      </trkpt>
      <trkpt lat="48.68166" lon="6.78006">
        <ele>240.5</ele>
        <time>2020-06-29T08:17:07Z</time>
      </trkpt>
      <trkpt lat="48.68171" lon="6.78003">
        <ele>240.4</ele>
        <time>2020-06-29T08:17:08Z</time>
      </trkpt>
      <trkpt lat="48.68177" lon="6.77998">
        <ele>240.4</ele>
        <time>2020-06-29T08:17:09Z</time>
      </trkpt>
      <trkpt lat="48.68181" lon="6.77996">
        <ele>240.4</ele>
        <time>2020-06-29T08:17:10Z</time>
      </trkpt>
      <trkpt lat="48.68185" lon="6.77991">
        <ele>240.5</ele>
        <time>2020-06-29T08:17:11Z</time>
      </trkpt>
      <trkpt lat="48.68191" lon="6.77989">
        <ele>240.6</ele>
        <time>2020-06-29T08:17:12Z</time>
      </trkpt>
      <trkpt lat="48.68194" lon="6.77986">
        <ele>240.6</ele>
        <time>2020-06-29T08:17:13Z</time>
      </trkpt>
      <trkpt lat="48.68198" lon="6.77985">
        <ele>240.7</ele>
        <time>2020-06-29T08:17:14Z</time>
      </trkpt>
      <trkpt lat="48.68204" lon="6.77984">
        <ele>240.7</ele>
        <time>2020-06-29T08:17:15Z</time>
      </trkpt>
      <trkpt lat="48.68209" lon="6.77981">
        <ele>240.7</ele>
        <time>2020-06-29T08:17:16Z</time>
      </trkpt>
      <trkpt lat="48.68215" lon="6.7798">
        <ele>240.7</ele>
        <time>2020-06-29T08:17:17Z</time>
      </trkpt>
      <trkpt lat="48.68221" lon="6.77978">
        <ele>240.6</ele>
        <time>2020-06-29T08:17:18Z</time>
      </trkpt>
      <trkpt lat="48.68227" lon="6.77976">
        <ele>240.6</ele>
        <time>2020-06-29T08:17:19Z</time>
      </trkpt>
      <trkpt lat="48.68231" lon="6.77974">
        <ele>240.7</ele>
        <time>2020-06-29T08:17:20Z</time>
      </trkpt>
      <trkpt lat="48.68237" lon="6.77973">
        <ele>240.7</ele>
        <time>2020-06-29T08:17:21Z</time>
      </trkpt>
      <trkpt lat="48.68243" lon="6.77972">
        <ele>240.8</ele>
        <time>2020-06-29T08:17:22Z</time>
      </trkpt>
      <trkpt lat="48.68248" lon="6.77972">
        <ele>242.2</ele>
        <time>2020-06-29T08:17:23Z</time>
      </trkpt>
      <trkpt lat="48.68254" lon="6.77972">
        <ele>243.4</ele>
        <time>2020-06-29T08:17:24Z</time>
      </trkpt>
      <trkpt lat="48.6826" lon="6.77972">
        <ele>243.8</ele>
        <time>2020-06-29T08:17:25Z</time>
      </trkpt>
      <trkpt lat="48.68263" lon="6.77971">
        <ele>243.9</ele>
        <time>2020-06-29T08:17:26Z</time>
      </trkpt>
      <trkpt lat="48.6827" lon="6.77972">
        <ele>244</ele>
        <time>2020-06-29T08:17:27Z</time>
      </trkpt>
      <trkpt lat="48.68274" lon="6.77972">
        <ele>244</ele>
        <time>2020-06-29T08:17:28Z</time>
      </trkpt>
      <trkpt lat="48.6828" lon="6.77972">
        <ele>244</ele>
        <time>2020-06-29T08:17:29Z</time>
      </trkpt>
      <trkpt lat="48.68285" lon="6.77972">
        <ele>243.9</ele>
        <time>2020-06-29T08:17:30Z</time>
      </trkpt>
      <trkpt lat="48.68292" lon="6.77972">
        <ele>243.8</ele>
        <time>2020-06-29T08:17:31Z</time>
      </trkpt>
      <trkpt lat="48.68297" lon="6.77971">
        <ele>243.8</ele>
        <time>2020-06-29T08:17:32Z</time>
      </trkpt>
      <trkpt lat="48.68305" lon="6.7797">
        <ele>243.8</ele>
        <time>2020-06-29T08:17:33Z</time>
      </trkpt>
      <trkpt lat="48.68308" lon="6.77968">
        <ele>243.8</ele>
        <time>2020-06-29T08:17:34Z</time>
      </trkpt>
      <trkpt lat="48.68314" lon="6.77966">
        <ele>243.8</ele>
        <time>2020-06-29T08:17:35Z</time>
      </trkpt>
      <trkpt lat="48.6832" lon="6.77964">
        <ele>243.8</ele>
        <time>2020-06-29T08:17:36Z</time>
      </trkpt>
      <trkpt lat="48.68325" lon="6.77962">
        <ele>243.8</ele>
        <time>2020-06-29T08:17:37Z</time>
      </trkpt>
      <trkpt lat="48.68329" lon="6.77959">
        <ele>243.8</ele>
        <time>2020-06-29T08:17:38Z</time>
      </trkpt>
      <trkpt lat="48.68335" lon="6.77956">
        <ele>243.8</ele>
        <time>2020-06-29T08:17:39Z</time>
      </trkpt>
      <trkpt lat="48.68339" lon="6.77954">
        <ele>243.7</ele>
        <time>2020-06-29T08:17:40Z</time>
      </trkpt>
      <trkpt lat="48.68344" lon="6.7795">
        <ele>243.7</ele>
        <time>2020-06-29T08:17:41Z</time>
      </trkpt>
      <trkpt lat="48.6835" lon="6.77948">
        <ele>243.7</ele>
        <time>2020-06-29T08:17:42Z</time>
      </trkpt>
      <trkpt lat="48.68355" lon="6.77947">
        <ele>243.8</ele>
        <time>2020-06-29T08:17:43Z</time>
      </trkpt>
      <trkpt lat="48.6836" lon="6.77945">
        <ele>243.8</ele>
        <time>2020-06-29T08:17:44Z</time>
      </trkpt>
      <trkpt lat="48.68364" lon="6.77942">
        <ele>243.8</ele>
        <time>2020-06-29T08:17:45Z</time>
      </trkpt>
      <trkpt lat="48.68368" lon="6.77938">
        <ele>243.8</ele>
        <time>2020-06-29T08:17:46Z</time>
      </trkpt>
      <trkpt lat="48.68373" lon="6.77934">
        <ele>243.9</ele>
        <time>2020-06-29T08:17:47Z</time>
      </trkpt>
      <trkpt lat="48.68376" lon="6.7793">
        <ele>243.9</ele>
        <time>2020-06-29T08:17:48Z</time>
      </trkpt>
      <trkpt lat="48.6838" lon="6.77923">
        <ele>243.9</ele>
        <time>2020-06-29T08:17:49Z</time>
      </trkpt>
      <trkpt lat="48.68384" lon="6.77916">
        <ele>243.9</ele>
        <time>2020-06-29T08:17:50Z</time>
      </trkpt>
      <trkpt lat="48.68387" lon="6.77911">
        <ele>243.9</ele>
        <time>2020-06-29T08:17:51Z</time>
      </trkpt>
      <trkpt lat="48.68391" lon="6.77906">
        <ele>243.9</ele>
        <time>2020-06-29T08:17:52Z</time>
      </trkpt>
      <trkpt lat="48.68394" lon="6.77901">
        <ele>243.9</ele>
        <time>2020-06-29T08:17:53Z</time>
      </trkpt>
      <trkpt lat="48.68399" lon="6.77896">
        <ele>243.8</ele>
        <time>2020-06-29T08:17:54Z</time>
      </trkpt>
      <trkpt lat="48.68403" lon="6.77892">
        <ele>243.8</ele>
        <time>2020-06-29T08:17:55Z</time>
      </trkpt>
      <trkpt lat="48.68406" lon="6.77892">
        <ele>243.7</ele>
        <time>2020-06-29T08:17:56Z</time>
      </trkpt>
      <trkpt lat="48.68408" lon="6.77889">
        <ele>243.7</ele>
        <time>2020-06-29T08:17:57Z</time>
      </trkpt>
      <trkpt lat="48.68412" lon="6.77885">
        <ele>243.6</ele>
        <time>2020-06-29T08:17:58Z</time>
      </trkpt>
      <trkpt lat="48.68415" lon="6.77883">
        <ele>243.5</ele>
        <time>2020-06-29T08:17:59Z</time>
      </trkpt>
      <trkpt lat="48.68418" lon="6.7788">
        <ele>243.5</ele>
        <time>2020-06-29T08:18:00Z</time>
      </trkpt>
      <trkpt lat="48.6842" lon="6.77876">
        <ele>243.4</ele>
        <time>2020-06-29T08:18:01Z</time>
      </trkpt>
      <trkpt lat="48.68423" lon="6.77873">
        <ele>243.4</ele>
        <time>2020-06-29T08:18:02Z</time>
      </trkpt>
      <trkpt lat="48.68426" lon="6.77867">
        <ele>243.3</ele>
        <time>2020-06-29T08:18:03Z</time>
      </trkpt>
      <trkpt lat="48.68429" lon="6.77863">
        <ele>243.3</ele>
        <time>2020-06-29T08:18:04Z</time>
      </trkpt>
      <trkpt lat="48.68431" lon="6.77858">
        <ele>243.3</ele>
        <time>2020-06-29T08:18:05Z</time>
      </trkpt>
      <trkpt lat="48.68433" lon="6.77854">
        <ele>243.3</ele>
        <time>2020-06-29T08:18:06Z</time>
      </trkpt>
      <trkpt lat="48.68434" lon="6.77849">
        <ele>243.3</ele>
        <time>2020-06-29T08:18:07Z</time>
      </trkpt>
      <trkpt lat="48.68436" lon="6.77845">
        <ele>243.3</ele>
        <time>2020-06-29T08:18:08Z</time>
      </trkpt>
      <trkpt lat="48.68437" lon="6.77837">
        <ele>243.3</ele>
        <time>2020-06-29T08:18:09Z</time>
      </trkpt>
      <trkpt lat="48.68438" lon="6.77832">
        <ele>243.2</ele>
        <time>2020-06-29T08:18:10Z</time>
      </trkpt>
      <trkpt lat="48.68439" lon="6.77827">
        <ele>243.2</ele>
        <time>2020-06-29T08:18:11Z</time>
      </trkpt>
      <trkpt lat="48.68441" lon="6.77821">
        <ele>243.2</ele>
        <time>2020-06-29T08:18:12Z</time>
      </trkpt>
      <trkpt lat="48.68444" lon="6.77817">
        <ele>243.1</ele>
        <time>2020-06-29T08:18:13Z</time>
      </trkpt>
      <trkpt lat="48.68447" lon="6.77812">
        <ele>243.1</ele>
        <time>2020-06-29T08:18:14Z</time>
      </trkpt>
      <trkpt lat="48.68452" lon="6.77807">
        <ele>243.1</ele>
        <time>2020-06-29T08:18:15Z</time>
      </trkpt>
      <trkpt lat="48.68453" lon="6.77802">
        <ele>243.1</ele>
        <time>2020-06-29T08:18:16Z</time>
      </trkpt>
      <trkpt lat="48.68456" lon="6.77798">
        <ele>243.1</ele>
        <time>2020-06-29T08:18:17Z</time>
      </trkpt>
      <trkpt lat="48.6846" lon="6.77792">
        <ele>243.1</ele>
        <time>2020-06-29T08:18:18Z</time>
      </trkpt>
      <trkpt lat="48.68464" lon="6.77788">
        <ele>243.1</ele>
        <time>2020-06-29T08:18:19Z</time>
      </trkpt>
      <trkpt lat="48.68467" lon="6.77783">
        <ele>243</ele>
        <time>2020-06-29T08:18:20Z</time>
      </trkpt>
      <trkpt lat="48.6847" lon="6.77779">
        <ele>243</ele>
        <time>2020-06-29T08:18:21Z</time>
      </trkpt>
      <trkpt lat="48.68472" lon="6.77774">
        <ele>243</ele>
        <time>2020-06-29T08:18:22Z</time>
      </trkpt>
      <trkpt lat="48.68475" lon="6.77767">
        <ele>242.9</ele>
        <time>2020-06-29T08:18:23Z</time>
      </trkpt>
      <trkpt lat="48.68478" lon="6.77762">
        <ele>242.8</ele>
        <time>2020-06-29T08:18:24Z</time>
      </trkpt>
      <trkpt lat="48.68482" lon="6.77756">
        <ele>242.8</ele>
        <time>2020-06-29T08:18:25Z</time>
      </trkpt>
      <trkpt lat="48.68486" lon="6.7775">
        <ele>242.8</ele>
        <time>2020-06-29T08:18:26Z</time>
      </trkpt>
      <trkpt lat="48.68488" lon="6.77746">
        <ele>242.8</ele>
        <time>2020-06-29T08:18:27Z</time>
      </trkpt>
      <trkpt lat="48.68492" lon="6.77739">
        <ele>242.8</ele>
        <time>2020-06-29T08:18:28Z</time>
      </trkpt>
      <trkpt lat="48.68495" lon="6.77733">
        <ele>242.7</ele>
        <time>2020-06-29T08:18:29Z</time>
      </trkpt>
      <trkpt lat="48.68497" lon="6.77725">
        <ele>242.7</ele>
        <time>2020-06-29T08:18:30Z</time>
      </trkpt>
      <trkpt lat="48.68501" lon="6.77717">
        <ele>242.7</ele>
        <time>2020-06-29T08:18:31Z</time>
      </trkpt>
      <trkpt lat="48.68506" lon="6.77712">
        <ele>242.7</ele>
        <time>2020-06-29T08:18:32Z</time>
      </trkpt>
      <trkpt lat="48.6851" lon="6.77705">
        <ele>242.7</ele>
        <time>2020-06-29T08:18:33Z</time>
      </trkpt>
      <trkpt lat="48.68513" lon="6.77698">
        <ele>242.6</ele>
        <time>2020-06-29T08:18:34Z</time>
      </trkpt>
      <trkpt lat="48.68516" lon="6.77692">
        <ele>242.6</ele>
        <time>2020-06-29T08:18:35Z</time>
      </trkpt>
      <trkpt lat="48.68517" lon="6.77685">
        <ele>242.6</ele>
        <time>2020-06-29T08:18:36Z</time>
      </trkpt>
      <trkpt lat="48.68519" lon="6.7768">
        <ele>242.5</ele>
        <time>2020-06-29T08:18:37Z</time>
      </trkpt>
      <trkpt lat="48.68521" lon="6.77673">
        <ele>242.5</ele>
        <time>2020-06-29T08:18:38Z</time>
      </trkpt>
      <trkpt lat="48.68524" lon="6.77664">
        <ele>242.5</ele>
        <time>2020-06-29T08:18:39Z</time>
      </trkpt>
      <trkpt lat="48.68526" lon="6.77656">
        <ele>242.5</ele>
        <time>2020-06-29T08:18:40Z</time>
      </trkpt>
      <trkpt lat="48.6853" lon="6.77647">
        <ele>242.5</ele>
        <time>2020-06-29T08:18:41Z</time>
      </trkpt>
      <trkpt lat="48.68533" lon="6.77639">
        <ele>242.5</ele>
        <time>2020-06-29T08:18:42Z</time>
      </trkpt>
      <trkpt lat="48.68536" lon="6.77632">
        <ele>242.5</ele>
        <time>2020-06-29T08:18:43Z</time>
      </trkpt>
      <trkpt lat="48.68539" lon="6.77624">
        <ele>242.5</ele>
        <time>2020-06-29T08:18:44Z</time>
      </trkpt>
      <trkpt lat="48.68543" lon="6.77615">
        <ele>242.5</ele>
        <time>2020-06-29T08:18:45Z</time>
      </trkpt>
      <trkpt lat="48.68546" lon="6.77605">
        <ele>242.5</ele>
        <time>2020-06-29T08:18:46Z</time>
      </trkpt>
      <trkpt lat="48.6855" lon="6.77595">
        <ele>242.5</ele>
        <time>2020-06-29T08:18:47Z</time>
      </trkpt>
      <trkpt lat="48.68552" lon="6.77587">
        <ele>242.5</ele>
        <time>2020-06-29T08:18:48Z</time>
      </trkpt>
      <trkpt lat="48.68555" lon="6.77578">
        <ele>242.5</ele>
        <time>2020-06-29T08:18:49Z</time>
      </trkpt>
      <trkpt lat="48.68557" lon="6.77569">
        <ele>242.5</ele>
        <time>2020-06-29T08:18:50Z</time>
      </trkpt>
      <trkpt lat="48.6856" lon="6.7756">
        <ele>242.5</ele>
        <time>2020-06-29T08:18:51Z</time>
      </trkpt>
      <trkpt lat="48.68562" lon="6.77551">
        <ele>242.5</ele>
        <time>2020-06-29T08:18:52Z</time>
      </trkpt>
      <trkpt lat="48.68565" lon="6.77543">
        <ele>242.4</ele>
        <time>2020-06-29T08:18:53Z</time>
      </trkpt>
      <trkpt lat="48.68567" lon="6.77535">
        <ele>242.4</ele>
        <time>2020-06-29T08:18:54Z</time>
      </trkpt>
      <trkpt lat="48.6857" lon="6.77526">
        <ele>242.3</ele>
        <time>2020-06-29T08:18:55Z</time>
      </trkpt>
      <trkpt lat="48.68572" lon="6.77516">
        <ele>242.3</ele>
        <time>2020-06-29T08:18:56Z</time>
      </trkpt>
      <trkpt lat="48.68573" lon="6.77507">
        <ele>242.3</ele>
        <time>2020-06-29T08:18:57Z</time>
      </trkpt>
      <trkpt lat="48.68574" lon="6.77498">
        <ele>242.2</ele>
        <time>2020-06-29T08:18:58Z</time>
      </trkpt>
      <trkpt lat="48.68576" lon="6.77489">
        <ele>242.2</ele>
        <time>2020-06-29T08:18:59Z</time>
      </trkpt>
      <trkpt lat="48.68579" lon="6.7748">
        <ele>242.2</ele>
        <time>2020-06-29T08:19:00Z</time>
      </trkpt>
      <trkpt lat="48.68581" lon="6.77472">
        <ele>242.1</ele>
        <time>2020-06-29T08:19:01Z</time>
      </trkpt>
      <trkpt lat="48.68583" lon="6.77463">
        <ele>242.1</ele>
        <time>2020-06-29T08:19:02Z</time>
      </trkpt>
      <trkpt lat="48.68586" lon="6.77455">
        <ele>242.1</ele>
        <time>2020-06-29T08:19:03Z</time>
      </trkpt>
      <trkpt lat="48.68589" lon="6.77445">
        <ele>242.1</ele>
        <time>2020-06-29T08:19:04Z</time>
      </trkpt>
      <trkpt lat="48.68591" lon="6.77437">
        <ele>242.2</ele>
        <time>2020-06-29T08:19:05Z</time>
      </trkpt>
      <trkpt lat="48.68594" lon="6.77427">
        <ele>242.1</ele>
        <time>2020-06-29T08:19:06Z</time>
      </trkpt>
      <trkpt lat="48.68597" lon="6.77419">
        <ele>242.1</ele>
        <time>2020-06-29T08:19:07Z</time>
      </trkpt>
      <trkpt lat="48.68599" lon="6.7741">
        <ele>242.1</ele>
        <time>2020-06-29T08:19:08Z</time>
      </trkpt>
      <trkpt lat="48.68602" lon="6.774">
        <ele>242.1</ele>
        <time>2020-06-29T08:19:09Z</time>
      </trkpt>
      <trkpt lat="48.68604" lon="6.7739">
        <ele>242</ele>
        <time>2020-06-29T08:19:10Z</time>
      </trkpt>
      <trkpt lat="48.68606" lon="6.77381">
        <ele>242</ele>
        <time>2020-06-29T08:19:11Z</time>
      </trkpt>
      <trkpt lat="48.68608" lon="6.77371">
        <ele>241.9</ele>
        <time>2020-06-29T08:19:12Z</time>
      </trkpt>
      <trkpt lat="48.68611" lon="6.77362">
        <ele>241.9</ele>
        <time>2020-06-29T08:19:13Z</time>
      </trkpt>
      <trkpt lat="48.68613" lon="6.77353">
        <ele>241.9</ele>
        <time>2020-06-29T08:19:14Z</time>
      </trkpt>
      <trkpt lat="48.68616" lon="6.77345">
        <ele>241.9</ele>
        <time>2020-06-29T08:19:15Z</time>
      </trkpt>
      <trkpt lat="48.68619" lon="6.77337">
        <ele>241.9</ele>
        <time>2020-06-29T08:19:16Z</time>
      </trkpt>
      <trkpt lat="48.68622" lon="6.77328">
        <ele>241.9</ele>
        <time>2020-06-29T08:19:17Z</time>
      </trkpt>
      <trkpt lat="48.68624" lon="6.77318">
        <ele>241.9</ele>
        <time>2020-06-29T08:19:18Z</time>
      </trkpt>
      <trkpt lat="48.68627" lon="6.77308">
        <ele>241.9</ele>
        <time>2020-06-29T08:19:19Z</time>
      </trkpt>
      <trkpt lat="48.68629" lon="6.77299">
        <ele>241.9</ele>
        <time>2020-06-29T08:19:20Z</time>
      </trkpt>
      <trkpt lat="48.68632" lon="6.7729">
        <ele>241.8</ele>
        <time>2020-06-29T08:19:21Z</time>
      </trkpt>
      <trkpt lat="48.68635" lon="6.7728">
        <ele>241.8</ele>
        <time>2020-06-29T08:19:22Z</time>
      </trkpt>
      <trkpt lat="48.68637" lon="6.77271">
        <ele>241.8</ele>
        <time>2020-06-29T08:19:23Z</time>
      </trkpt>
      <trkpt lat="48.68639" lon="6.77262">
        <ele>241.7</ele>
        <time>2020-06-29T08:19:24Z</time>
      </trkpt>
      <trkpt lat="48.68642" lon="6.77253">
        <ele>241.7</ele>
        <time>2020-06-29T08:19:25Z</time>
      </trkpt>
      <trkpt lat="48.68644" lon="6.77246">
        <ele>241.7</ele>
        <time>2020-06-29T08:19:26Z</time>
      </trkpt>
      <trkpt lat="48.68647" lon="6.77237">
        <ele>241.7</ele>
        <time>2020-06-29T08:19:27Z</time>
      </trkpt>
      <trkpt lat="48.68649" lon="6.77229">
        <ele>241.7</ele>
        <time>2020-06-29T08:19:28Z</time>
      </trkpt>
      <trkpt lat="48.68651" lon="6.77221">
        <ele>241.7</ele>
        <time>2020-06-29T08:19:29Z</time>
      </trkpt>
      <trkpt lat="48.68654" lon="6.77213">
        <ele>241.7</ele>
        <time>2020-06-29T08:19:30Z</time>
      </trkpt>
      <trkpt lat="48.68656" lon="6.77203">
        <ele>241.6</ele>
        <time>2020-06-29T08:19:31Z</time>
      </trkpt>
      <trkpt lat="48.68659" lon="6.77195">
        <ele>241.6</ele>
        <time>2020-06-29T08:19:32Z</time>
      </trkpt>
      <trkpt lat="48.68661" lon="6.77186">
        <ele>241.6</ele>
        <time>2020-06-29T08:19:33Z</time>
      </trkpt>
      <trkpt lat="48.68663" lon="6.77177">
        <ele>241.6</ele>
        <time>2020-06-29T08:19:34Z</time>
      </trkpt>
      <trkpt lat="48.68665" lon="6.77168">
        <ele>241.6</ele>
        <time>2020-06-29T08:19:35Z</time>
      </trkpt>
      <trkpt lat="48.68667" lon="6.77159">
        <ele>241.6</ele>
        <time>2020-06-29T08:19:36Z</time>
      </trkpt>
      <trkpt lat="48.68669" lon="6.77151">
        <ele>241.6</ele>
        <time>2020-06-29T08:19:37Z</time>
      </trkpt>
      <trkpt lat="48.68671" lon="6.77142">
        <ele>241.6</ele>
        <time>2020-06-29T08:19:38Z</time>
      </trkpt>
      <trkpt lat="48.68673" lon="6.77133">
        <ele>241.6</ele>
        <time>2020-06-29T08:19:39Z</time>
      </trkpt>
      <trkpt lat="48.68676" lon="6.77125">
        <ele>241.5</ele>
        <time>2020-06-29T08:19:40Z</time>
      </trkpt>
      <trkpt lat="48.68678" lon="6.77118">
        <ele>241.5</ele>
        <time>2020-06-29T08:19:41Z</time>
      </trkpt>
      <trkpt lat="48.68681" lon="6.77108">
        <ele>241.5</ele>
        <time>2020-06-29T08:19:42Z</time>
      </trkpt>
      <trkpt lat="48.68683" lon="6.77099">
        <ele>241.6</ele>
        <time>2020-06-29T08:19:43Z</time>
      </trkpt>
      <trkpt lat="48.68685" lon="6.7709">
        <ele>241.6</ele>
        <time>2020-06-29T08:19:44Z</time>
      </trkpt>
      <trkpt lat="48.68688" lon="6.7708">
        <ele>241.7</ele>
        <time>2020-06-29T08:19:45Z</time>
      </trkpt>
      <trkpt lat="48.6869" lon="6.77071">
        <ele>241.6</ele>
        <time>2020-06-29T08:19:46Z</time>
      </trkpt>
      <trkpt lat="48.68693" lon="6.77062">
        <ele>241.5</ele>
        <time>2020-06-29T08:19:47Z</time>
      </trkpt>
      <trkpt lat="48.68695" lon="6.77052">
        <ele>241.4</ele>
        <time>2020-06-29T08:19:48Z</time>
      </trkpt>
      <trkpt lat="48.68697" lon="6.77043">
        <ele>241.4</ele>
        <time>2020-06-29T08:19:49Z</time>
      </trkpt>
      <trkpt lat="48.68699" lon="6.77034">
        <ele>241.3</ele>
        <time>2020-06-29T08:19:50Z</time>
      </trkpt>
      <trkpt lat="48.68701" lon="6.77024">
        <ele>241.4</ele>
        <time>2020-06-29T08:19:51Z</time>
      </trkpt>
      <trkpt lat="48.68703" lon="6.77016">
        <ele>241.4</ele>
        <time>2020-06-29T08:19:52Z</time>
      </trkpt>
      <trkpt lat="48.68705" lon="6.77007">
        <ele>241.5</ele>
        <time>2020-06-29T08:19:53Z</time>
      </trkpt>
      <trkpt lat="48.68707" lon="6.76999">
        <ele>241.5</ele>
        <time>2020-06-29T08:19:54Z</time>
      </trkpt>
      <trkpt lat="48.68709" lon="6.7699">
        <ele>241.5</ele>
        <time>2020-06-29T08:19:55Z</time>
      </trkpt>
      <trkpt lat="48.68711" lon="6.76981">
        <ele>241.5</ele>
        <time>2020-06-29T08:19:56Z</time>
      </trkpt>
      <trkpt lat="48.68713" lon="6.76972">
        <ele>241.5</ele>
        <time>2020-06-29T08:19:57Z</time>
      </trkpt>
      <trkpt lat="48.68716" lon="6.76964">
        <ele>241.6</ele>
        <time>2020-06-29T08:19:58Z</time>
      </trkpt>
      <trkpt lat="48.68718" lon="6.76957">
        <ele>241.5</ele>
        <time>2020-06-29T08:19:59Z</time>
      </trkpt>
      <trkpt lat="48.6872" lon="6.7695">
        <ele>241.4</ele>
        <time>2020-06-29T08:20:00Z</time>
      </trkpt>
      <trkpt lat="48.68722" lon="6.76943">
        <ele>241.4</ele>
        <time>2020-06-29T08:20:01Z</time>
      </trkpt>
      <trkpt lat="48.68724" lon="6.76935">
        <ele>241.3</ele>
        <time>2020-06-29T08:20:02Z</time>
      </trkpt>
      <trkpt lat="48.68726" lon="6.76928">
        <ele>241.3</ele>
        <time>2020-06-29T08:20:03Z</time>
      </trkpt>
      <trkpt lat="48.68728" lon="6.7692">
        <ele>241.3</ele>
        <time>2020-06-29T08:20:04Z</time>
      </trkpt>
      <trkpt lat="48.6873" lon="6.76909">
        <ele>241.2</ele>
        <time>2020-06-29T08:20:05Z</time>
      </trkpt>
      <trkpt lat="48.6873" lon="6.76902">
        <ele>241.2</ele>
        <time>2020-06-29T08:20:06Z</time>
      </trkpt>
      <trkpt lat="48.6873" lon="6.76897">
        <ele>241.1</ele>
        <time>2020-06-29T08:20:07Z</time>
      </trkpt>
      <trkpt lat="48.6873" lon="6.76891">
        <ele>241</ele>
        <time>2020-06-29T08:20:08Z</time>
      </trkpt>
      <trkpt lat="48.68731" lon="6.76889">
        <ele>240.9</ele>
        <time>2020-06-29T08:20:09Z</time>
      </trkpt>
      <trkpt lat="48.68732" lon="6.76881">
        <ele>240.8</ele>
        <time>2020-06-29T08:20:10Z</time>
      </trkpt>
      <trkpt lat="48.68734" lon="6.76872">
        <ele>240.6</ele>
        <time>2020-06-29T08:20:11Z</time>
      </trkpt>
      <trkpt lat="48.68736" lon="6.76863">
        <ele>240.4</ele>
        <time>2020-06-29T08:20:12Z</time>
      </trkpt>
      <trkpt lat="48.68739" lon="6.76853">
        <ele>240.2</ele>
        <time>2020-06-29T08:20:13Z</time>
      </trkpt>
      <trkpt lat="48.68741" lon="6.76843">
        <ele>240</ele>
        <time>2020-06-29T08:20:14Z</time>
      </trkpt>
      <trkpt lat="48.68743" lon="6.76831">
        <ele>239.7</ele>
        <time>2020-06-29T08:20:15Z</time>
      </trkpt>
      <trkpt lat="48.68745" lon="6.76821">
        <ele>239.6</ele>
        <time>2020-06-29T08:20:16Z</time>
      </trkpt>
      <trkpt lat="48.68746" lon="6.76811">
        <ele>239.5</ele>
        <time>2020-06-29T08:20:17Z</time>
      </trkpt>
      <trkpt lat="48.68749" lon="6.76801">
        <ele>239.4</ele>
        <time>2020-06-29T08:20:18Z</time>
      </trkpt>
      <trkpt lat="48.68751" lon="6.76791">
        <ele>239.4</ele>
        <time>2020-06-29T08:20:19Z</time>
      </trkpt>
      <trkpt lat="48.68752" lon="6.76783">
        <ele>239.3</ele>
        <time>2020-06-29T08:20:20Z</time>
      </trkpt>
      <trkpt lat="48.68754" lon="6.76774">
        <ele>240.3</ele>
        <time>2020-06-29T08:20:21Z</time>
      </trkpt>
      <trkpt lat="48.68756" lon="6.76765">
        <ele>240.7</ele>
        <time>2020-06-29T08:20:22Z</time>
      </trkpt>
      <trkpt lat="48.68758" lon="6.76755">
        <ele>240.9</ele>
        <time>2020-06-29T08:20:23Z</time>
      </trkpt>
      <trkpt lat="48.6876" lon="6.76747">
        <ele>241.1</ele>
        <time>2020-06-29T08:20:24Z</time>
      </trkpt>
      <trkpt lat="48.68761" lon="6.76736">
        <ele>241.1</ele>
        <time>2020-06-29T08:20:25Z</time>
      </trkpt>
      <trkpt lat="48.68763" lon="6.76727">
        <ele>241.2</ele>
        <time>2020-06-29T08:20:26Z</time>
      </trkpt>
      <trkpt lat="48.68764" lon="6.76718">
        <ele>241.2</ele>
        <time>2020-06-29T08:20:27Z</time>
      </trkpt>
      <trkpt lat="48.68766" lon="6.76709">
        <ele>241.2</ele>
        <time>2020-06-29T08:20:28Z</time>
      </trkpt>
      <trkpt lat="48.68768" lon="6.76698">
        <ele>241.2</ele>
        <time>2020-06-29T08:20:29Z</time>
      </trkpt>
      <trkpt lat="48.6877" lon="6.76689">
        <ele>241.2</ele>
        <time>2020-06-29T08:20:30Z</time>
      </trkpt>
      <trkpt lat="48.68771" lon="6.7668">
        <ele>241.3</ele>
        <time>2020-06-29T08:20:31Z</time>
      </trkpt>
      <trkpt lat="48.68773" lon="6.76672">
        <ele>241.3</ele>
        <time>2020-06-29T08:20:32Z</time>
      </trkpt>
      <trkpt lat="48.68775" lon="6.76663">
        <ele>241.2</ele>
        <time>2020-06-29T08:20:33Z</time>
      </trkpt>
      <trkpt lat="48.68776" lon="6.76655">
        <ele>241.2</ele>
        <time>2020-06-29T08:20:34Z</time>
      </trkpt>
      <trkpt lat="48.68778" lon="6.76646">
        <ele>241.2</ele>
        <time>2020-06-29T08:20:35Z</time>
      </trkpt>
      <trkpt lat="48.6878" lon="6.76636">
        <ele>241.3</ele>
        <time>2020-06-29T08:20:36Z</time>
      </trkpt>
      <trkpt lat="48.68782" lon="6.76627">
        <ele>241.3</ele>
        <time>2020-06-29T08:20:37Z</time>
      </trkpt>
      <trkpt lat="48.68784" lon="6.76618">
        <ele>241.2</ele>
        <time>2020-06-29T08:20:38Z</time>
      </trkpt>
      <trkpt lat="48.68786" lon="6.76608">
        <ele>241.2</ele>
        <time>2020-06-29T08:20:39Z</time>
      </trkpt>
      <trkpt lat="48.68787" lon="6.76599">
        <ele>241.1</ele>
        <time>2020-06-29T08:20:40Z</time>
      </trkpt>
      <trkpt lat="48.68789" lon="6.7659">
        <ele>241.1</ele>
        <time>2020-06-29T08:20:41Z</time>
      </trkpt>
      <trkpt lat="48.68791" lon="6.76581">
        <ele>241.2</ele>
        <time>2020-06-29T08:20:42Z</time>
      </trkpt>
      <trkpt lat="48.68793" lon="6.76572">
        <ele>241.1</ele>
        <time>2020-06-29T08:20:43Z</time>
      </trkpt>
      <trkpt lat="48.68795" lon="6.76563">
        <ele>241.1</ele>
        <time>2020-06-29T08:20:44Z</time>
      </trkpt>
      <trkpt lat="48.68797" lon="6.76554">
        <ele>241.1</ele>
        <time>2020-06-29T08:20:45Z</time>
      </trkpt>
      <trkpt lat="48.68799" lon="6.76545">
        <ele>241.1</ele>
        <time>2020-06-29T08:20:46Z</time>
      </trkpt>
      <trkpt lat="48.68801" lon="6.76536">
        <ele>241.1</ele>
        <time>2020-06-29T08:20:47Z</time>
      </trkpt>
      <trkpt lat="48.68803" lon="6.76527">
        <ele>241.1</ele>
        <time>2020-06-29T08:20:48Z</time>
      </trkpt>
      <trkpt lat="48.68804" lon="6.76518">
        <ele>241.1</ele>
        <time>2020-06-29T08:20:49Z</time>
      </trkpt>
      <trkpt lat="48.68806" lon="6.76509">
        <ele>241.1</ele>
        <time>2020-06-29T08:20:50Z</time>
      </trkpt>
      <trkpt lat="48.68808" lon="6.765">
        <ele>241.1</ele>
        <time>2020-06-29T08:20:51Z</time>
      </trkpt>
      <trkpt lat="48.6881" lon="6.76491">
        <ele>241.1</ele>
        <time>2020-06-29T08:20:52Z</time>
      </trkpt>
      <trkpt lat="48.68811" lon="6.76482">
        <ele>241.1</ele>
        <time>2020-06-29T08:20:53Z</time>
      </trkpt>
      <trkpt lat="48.68813" lon="6.76473">
        <ele>241.1</ele>
        <time>2020-06-29T08:20:54Z</time>
      </trkpt>
      <trkpt lat="48.68815" lon="6.76463">
        <ele>241.1</ele>
        <time>2020-06-29T08:20:55Z</time>
      </trkpt>
      <trkpt lat="48.68816" lon="6.76454">
        <ele>241.1</ele>
        <time>2020-06-29T08:20:56Z</time>
      </trkpt>
      <trkpt lat="48.68818" lon="6.76446">
        <ele>241</ele>
        <time>2020-06-29T08:20:57Z</time>
      </trkpt>
      <trkpt lat="48.6882" lon="6.76438">
        <ele>241</ele>
        <time>2020-06-29T08:20:58Z</time>
      </trkpt>
      <trkpt lat="48.68822" lon="6.76428">
        <ele>241</ele>
        <time>2020-06-29T08:20:59Z</time>
      </trkpt>
      <trkpt lat="48.68824" lon="6.76419">
        <ele>240.9</ele>
        <time>2020-06-29T08:21:00Z</time>
      </trkpt>
      <trkpt lat="48.68826" lon="6.7641">
        <ele>240.9</ele>
        <time>2020-06-29T08:21:01Z</time>
      </trkpt>
      <trkpt lat="48.68829" lon="6.76401">
        <ele>240.9</ele>
        <time>2020-06-29T08:21:02Z</time>
      </trkpt>
      <trkpt lat="48.68831" lon="6.76393">
        <ele>240.9</ele>
        <time>2020-06-29T08:21:03Z</time>
      </trkpt>
      <trkpt lat="48.68834" lon="6.76385">
        <ele>240.9</ele>
        <time>2020-06-29T08:21:04Z</time>
      </trkpt>
      <trkpt lat="48.68836" lon="6.76377">
        <ele>240.9</ele>
        <time>2020-06-29T08:21:05Z</time>
      </trkpt>
      <trkpt lat="48.68839" lon="6.76369">
        <ele>240.9</ele>
        <time>2020-06-29T08:21:06Z</time>
      </trkpt>
      <trkpt lat="48.68843" lon="6.7636">
        <ele>240.9</ele>
        <time>2020-06-29T08:21:07Z</time>
      </trkpt>
      <trkpt lat="48.68846" lon="6.76352">
        <ele>240.9</ele>
        <time>2020-06-29T08:21:08Z</time>
      </trkpt>
      <trkpt lat="48.6885" lon="6.76344">
        <ele>240.8</ele>
        <time>2020-06-29T08:21:09Z</time>
      </trkpt>
      <trkpt lat="48.68854" lon="6.76335">
        <ele>240.8</ele>
        <time>2020-06-29T08:21:10Z</time>
      </trkpt>
      <trkpt lat="48.68857" lon="6.76327">
        <ele>240.7</ele>
        <time>2020-06-29T08:21:11Z</time>
      </trkpt>
      <trkpt lat="48.68861" lon="6.76319">
        <ele>240.6</ele>
        <time>2020-06-29T08:21:12Z</time>
      </trkpt>
      <trkpt lat="48.68865" lon="6.76311">
        <ele>240.5</ele>
        <time>2020-06-29T08:21:13Z</time>
      </trkpt>
      <trkpt lat="48.6887" lon="6.76304">
        <ele>240.4</ele>
        <time>2020-06-29T08:21:14Z</time>
      </trkpt>
      <trkpt lat="48.68874" lon="6.76296">
        <ele>240.3</ele>
        <time>2020-06-29T08:21:15Z</time>
      </trkpt>
      <trkpt lat="48.68878" lon="6.76289">
        <ele>240.3</ele>
        <time>2020-06-29T08:21:16Z</time>
      </trkpt>
      <trkpt lat="48.68883" lon="6.76281">
        <ele>240.3</ele>
        <time>2020-06-29T08:21:17Z</time>
      </trkpt>
      <trkpt lat="48.68888" lon="6.76272">
        <ele>240.3</ele>
        <time>2020-06-29T08:21:18Z</time>
      </trkpt>
      <trkpt lat="48.68892" lon="6.76265">
        <ele>240.3</ele>
        <time>2020-06-29T08:21:19Z</time>
      </trkpt>
      <trkpt lat="48.68897" lon="6.76258">
        <ele>240.3</ele>
        <time>2020-06-29T08:21:20Z</time>
      </trkpt>
      <trkpt lat="48.68901" lon="6.76251">
        <ele>240.4</ele>
        <time>2020-06-29T08:21:21Z</time>
      </trkpt>
      <trkpt lat="48.68906" lon="6.76244">
        <ele>240.5</ele>
        <time>2020-06-29T08:21:22Z</time>
      </trkpt>
      <trkpt lat="48.68911" lon="6.76237">
        <ele>240.5</ele>
        <time>2020-06-29T08:21:23Z</time>
      </trkpt>
      <trkpt lat="48.68915" lon="6.76231">
        <ele>240.5</ele>
        <time>2020-06-29T08:21:24Z</time>
      </trkpt>
      <trkpt lat="48.6892" lon="6.76225">
        <ele>240.5</ele>
        <time>2020-06-29T08:21:25Z</time>
      </trkpt>
      <trkpt lat="48.68925" lon="6.76219">
        <ele>240.6</ele>
        <time>2020-06-29T08:21:26Z</time>
      </trkpt>
      <trkpt lat="48.68931" lon="6.76213">
        <ele>240.6</ele>
        <time>2020-06-29T08:21:27Z</time>
      </trkpt>
      <trkpt lat="48.68936" lon="6.76207">
        <ele>240.6</ele>
        <time>2020-06-29T08:21:28Z</time>
      </trkpt>
      <trkpt lat="48.68941" lon="6.762">
        <ele>240.6</ele>
        <time>2020-06-29T08:21:29Z</time>
      </trkpt>
      <trkpt lat="48.68946" lon="6.76194">
        <ele>240.5</ele>
        <time>2020-06-29T08:21:30Z</time>
      </trkpt>
      <trkpt lat="48.68951" lon="6.76189">
        <ele>240.5</ele>
        <time>2020-06-29T08:21:31Z</time>
      </trkpt>
      <trkpt lat="48.68956" lon="6.76184">
        <ele>240.5</ele>
        <time>2020-06-29T08:21:32Z</time>
      </trkpt>
      <trkpt lat="48.68963" lon="6.76176">
        <ele>240.4</ele>
        <time>2020-06-29T08:21:33Z</time>
      </trkpt>
      <trkpt lat="48.68968" lon="6.76171">
        <ele>240.3</ele>
        <time>2020-06-29T08:21:34Z</time>
      </trkpt>
      <trkpt lat="48.68973" lon="6.76167">
        <ele>240.4</ele>
        <time>2020-06-29T08:21:35Z</time>
      </trkpt>
      <trkpt lat="48.68978" lon="6.76161">
        <ele>240.4</ele>
        <time>2020-06-29T08:21:36Z</time>
      </trkpt>
      <trkpt lat="48.68983" lon="6.76156">
        <ele>240.4</ele>
        <time>2020-06-29T08:21:37Z</time>
      </trkpt>
      <trkpt lat="48.68988" lon="6.7615">
        <ele>240.3</ele>
        <time>2020-06-29T08:21:38Z</time>
      </trkpt>
      <trkpt lat="48.68993" lon="6.76144">
        <ele>240.3</ele>
        <time>2020-06-29T08:21:39Z</time>
      </trkpt>
      <trkpt lat="48.68998" lon="6.76138">
        <ele>240.2</ele>
        <time>2020-06-29T08:21:40Z</time>
      </trkpt>
      <trkpt lat="48.69004" lon="6.76131">
        <ele>240.2</ele>
        <time>2020-06-29T08:21:41Z</time>
      </trkpt>
      <trkpt lat="48.69008" lon="6.76125">
        <ele>240.3</ele>
        <time>2020-06-29T08:21:42Z</time>
      </trkpt>
      <trkpt lat="48.69013" lon="6.76117">
        <ele>240.3</ele>
        <time>2020-06-29T08:21:43Z</time>
      </trkpt>
      <trkpt lat="48.69018" lon="6.76108">
        <ele>240.3</ele>
        <time>2020-06-29T08:21:44Z</time>
      </trkpt>
      <trkpt lat="48.69024" lon="6.761">
        <ele>240.4</ele>
        <time>2020-06-29T08:21:45Z</time>
      </trkpt>
      <trkpt lat="48.69029" lon="6.76092">
        <ele>240.4</ele>
        <time>2020-06-29T08:21:46Z</time>
      </trkpt>
      <trkpt lat="48.69033" lon="6.76084">
        <ele>240.4</ele>
        <time>2020-06-29T08:21:47Z</time>
      </trkpt>
      <trkpt lat="48.69037" lon="6.76077">
        <ele>240.4</ele>
        <time>2020-06-29T08:21:48Z</time>
      </trkpt>
      <trkpt lat="48.69042" lon="6.76069">
        <ele>240.4</ele>
        <time>2020-06-29T08:21:49Z</time>
      </trkpt>
      <trkpt lat="48.69046" lon="6.76062">
        <ele>240.4</ele>
        <time>2020-06-29T08:21:50Z</time>
      </trkpt>
      <trkpt lat="48.6905" lon="6.76054">
        <ele>240.4</ele>
        <time>2020-06-29T08:21:51Z</time>
      </trkpt>
      <trkpt lat="48.69054" lon="6.76047">
        <ele>240.3</ele>
        <time>2020-06-29T08:21:52Z</time>
      </trkpt>
      <trkpt lat="48.69058" lon="6.76038">
        <ele>240.3</ele>
        <time>2020-06-29T08:21:53Z</time>
      </trkpt>
      <trkpt lat="48.69063" lon="6.76029">
        <ele>240.3</ele>
        <time>2020-06-29T08:21:54Z</time>
      </trkpt>
      <trkpt lat="48.69066" lon="6.76021">
        <ele>240.3</ele>
        <time>2020-06-29T08:21:55Z</time>
      </trkpt>
      <trkpt lat="48.6907" lon="6.76012">
        <ele>240.3</ele>
        <time>2020-06-29T08:21:56Z</time>
      </trkpt>
      <trkpt lat="48.69073" lon="6.76002">
        <ele>240.3</ele>
        <time>2020-06-29T08:21:57Z</time>
      </trkpt>
      <trkpt lat="48.69076" lon="6.75993">
        <ele>240.3</ele>
        <time>2020-06-29T08:21:58Z</time>
      </trkpt>
      <trkpt lat="48.69079" lon="6.75984">
        <ele>240.4</ele>
        <time>2020-06-29T08:21:59Z</time>
      </trkpt>
      <trkpt lat="48.69083" lon="6.75974">
        <ele>240.3</ele>
        <time>2020-06-29T08:22:00Z</time>
      </trkpt>
      <trkpt lat="48.69086" lon="6.75965">
        <ele>240.3</ele>
        <time>2020-06-29T08:22:01Z</time>
      </trkpt>
      <trkpt lat="48.69088" lon="6.75955">
        <ele>240.2</ele>
        <time>2020-06-29T08:22:02Z</time>
      </trkpt>
      <trkpt lat="48.69091" lon="6.75946">
        <ele>240.2</ele>
        <time>2020-06-29T08:22:03Z</time>
      </trkpt>
      <trkpt lat="48.69094" lon="6.75936">
        <ele>240.2</ele>
        <time>2020-06-29T08:22:04Z</time>
      </trkpt>
      <trkpt lat="48.69096" lon="6.75926">
        <ele>240.2</ele>
        <time>2020-06-29T08:22:05Z</time>
      </trkpt>
      <trkpt lat="48.69099" lon="6.75917">
        <ele>240.2</ele>
        <time>2020-06-29T08:22:06Z</time>
      </trkpt>
      <trkpt lat="48.69101" lon="6.75907">
        <ele>240.2</ele>
        <time>2020-06-29T08:22:07Z</time>
      </trkpt>
      <trkpt lat="48.69104" lon="6.75897">
        <ele>240.1</ele>
        <time>2020-06-29T08:22:08Z</time>
      </trkpt>
      <trkpt lat="48.69106" lon="6.75887">
        <ele>240.1</ele>
        <time>2020-06-29T08:22:09Z</time>
      </trkpt>
      <trkpt lat="48.69107" lon="6.75877">
        <ele>240.1</ele>
        <time>2020-06-29T08:22:10Z</time>
      </trkpt>
      <trkpt lat="48.69109" lon="6.75868">
        <ele>240</ele>
        <time>2020-06-29T08:22:11Z</time>
      </trkpt>
      <trkpt lat="48.6911" lon="6.75858">
        <ele>240</ele>
        <time>2020-06-29T08:22:12Z</time>
      </trkpt>
      <trkpt lat="48.69112" lon="6.75849">
        <ele>240</ele>
        <time>2020-06-29T08:22:13Z</time>
      </trkpt>
      <trkpt lat="48.69114" lon="6.75838">
        <ele>239.9</ele>
        <time>2020-06-29T08:22:14Z</time>
      </trkpt>
      <trkpt lat="48.69116" lon="6.75828">
        <ele>239.9</ele>
        <time>2020-06-29T08:22:15Z</time>
      </trkpt>
      <trkpt lat="48.69117" lon="6.75818">
        <ele>239.8</ele>
        <time>2020-06-29T08:22:16Z</time>
      </trkpt>
      <trkpt lat="48.69119" lon="6.75808">
        <ele>239.8</ele>
        <time>2020-06-29T08:22:17Z</time>
      </trkpt>
      <trkpt lat="48.6912" lon="6.75797">
        <ele>239.8</ele>
        <time>2020-06-29T08:22:18Z</time>
      </trkpt>
      <trkpt lat="48.6912" lon="6.75787">
        <ele>239.7</ele>
        <time>2020-06-29T08:22:19Z</time>
      </trkpt>
      <trkpt lat="48.69119" lon="6.75777">
        <ele>239.7</ele>
        <time>2020-06-29T08:22:20Z</time>
      </trkpt>
      <trkpt lat="48.69119" lon="6.75768">
        <ele>239.6</ele>
        <time>2020-06-29T08:22:21Z</time>
      </trkpt>
      <trkpt lat="48.69119" lon="6.75758">
        <ele>239.6</ele>
        <time>2020-06-29T08:22:22Z</time>
      </trkpt>
      <trkpt lat="48.69118" lon="6.75747">
        <ele>239.6</ele>
        <time>2020-06-29T08:22:23Z</time>
      </trkpt>
      <trkpt lat="48.69118" lon="6.75737">
        <ele>239.5</ele>
        <time>2020-06-29T08:22:24Z</time>
      </trkpt>
      <trkpt lat="48.69118" lon="6.75728">
        <ele>239.5</ele>
        <time>2020-06-29T08:22:25Z</time>
      </trkpt>
      <trkpt lat="48.69118" lon="6.75718">
        <ele>239.4</ele>
        <time>2020-06-29T08:22:26Z</time>
      </trkpt>
      <trkpt lat="48.69118" lon="6.75709">
        <ele>239.4</ele>
        <time>2020-06-29T08:22:27Z</time>
      </trkpt>
      <trkpt lat="48.69117" lon="6.757">
        <ele>239.4</ele>
        <time>2020-06-29T08:22:28Z</time>
      </trkpt>
      <trkpt lat="48.69117" lon="6.7569">
        <ele>239.3</ele>
        <time>2020-06-29T08:22:29Z</time>
      </trkpt>
      <trkpt lat="48.69116" lon="6.75681">
        <ele>239.2</ele>
        <time>2020-06-29T08:22:30Z</time>
      </trkpt>
      <trkpt lat="48.69115" lon="6.75672">
        <ele>239.1</ele>
        <time>2020-06-29T08:22:31Z</time>
      </trkpt>
      <trkpt lat="48.69114" lon="6.75662">
        <ele>239</ele>
        <time>2020-06-29T08:22:32Z</time>
      </trkpt>
      <trkpt lat="48.69113" lon="6.75652">
        <ele>238.9</ele>
        <time>2020-06-29T08:22:33Z</time>
      </trkpt>
      <trkpt lat="48.69112" lon="6.75643">
        <ele>238.9</ele>
        <time>2020-06-29T08:22:34Z</time>
      </trkpt>
      <trkpt lat="48.69111" lon="6.75633">
        <ele>238.9</ele>
        <time>2020-06-29T08:22:35Z</time>
      </trkpt>
      <trkpt lat="48.6911" lon="6.75623">
        <ele>238.8</ele>
        <time>2020-06-29T08:22:36Z</time>
      </trkpt>
      <trkpt lat="48.6911" lon="6.75613">
        <ele>238.8</ele>
        <time>2020-06-29T08:22:37Z</time>
      </trkpt>
      <trkpt lat="48.69108" lon="6.75603">
        <ele>238.8</ele>
        <time>2020-06-29T08:22:38Z</time>
      </trkpt>
      <trkpt lat="48.69107" lon="6.75593">
        <ele>238.8</ele>
        <time>2020-06-29T08:22:39Z</time>
      </trkpt>
      <trkpt lat="48.69107" lon="6.75582">
        <ele>238.8</ele>
        <time>2020-06-29T08:22:40Z</time>
      </trkpt>
      <trkpt lat="48.69106" lon="6.75572">
        <ele>238.8</ele>
        <time>2020-06-29T08:22:41Z</time>
      </trkpt>
      <trkpt lat="48.69106" lon="6.75562">
        <ele>238.8</ele>
        <time>2020-06-29T08:22:42Z</time>
      </trkpt>
      <trkpt lat="48.69105" lon="6.75551">
        <ele>238.8</ele>
        <time>2020-06-29T08:22:43Z</time>
      </trkpt>
      <trkpt lat="48.69105" lon="6.75542">
        <ele>238.8</ele>
        <time>2020-06-29T08:22:44Z</time>
      </trkpt>
      <trkpt lat="48.69104" lon="6.75532">
        <ele>238.8</ele>
        <time>2020-06-29T08:22:45Z</time>
      </trkpt>
      <trkpt lat="48.69104" lon="6.75523">
        <ele>238.7</ele>
        <time>2020-06-29T08:22:46Z</time>
      </trkpt>
      <trkpt lat="48.69103" lon="6.75513">
        <ele>238.7</ele>
        <time>2020-06-29T08:22:47Z</time>
      </trkpt>
      <trkpt lat="48.69103" lon="6.75503">
        <ele>238.7</ele>
        <time>2020-06-29T08:22:48Z</time>
      </trkpt>
      <trkpt lat="48.69102" lon="6.75492">
        <ele>238.7</ele>
        <time>2020-06-29T08:22:49Z</time>
      </trkpt>
      <trkpt lat="48.69101" lon="6.75482">
        <ele>238.7</ele>
        <time>2020-06-29T08:22:50Z</time>
      </trkpt>
      <trkpt lat="48.691" lon="6.75473">
        <ele>238.7</ele>
        <time>2020-06-29T08:22:51Z</time>
      </trkpt>
      <trkpt lat="48.69099" lon="6.75463">
        <ele>238.7</ele>
        <time>2020-06-29T08:22:52Z</time>
      </trkpt>
      <trkpt lat="48.69098" lon="6.75453">
        <ele>238.6</ele>
        <time>2020-06-29T08:22:53Z</time>
      </trkpt>
      <trkpt lat="48.69098" lon="6.75443">
        <ele>238.6</ele>
        <time>2020-06-29T08:22:54Z</time>
      </trkpt>
      <trkpt lat="48.69097" lon="6.75433">
        <ele>238.6</ele>
        <time>2020-06-29T08:22:55Z</time>
      </trkpt>
      <trkpt lat="48.69096" lon="6.75422">
        <ele>238.6</ele>
        <time>2020-06-29T08:22:56Z</time>
      </trkpt>
      <trkpt lat="48.69095" lon="6.75412">
        <ele>238.5</ele>
        <time>2020-06-29T08:22:57Z</time>
      </trkpt>
      <trkpt lat="48.69094" lon="6.75402">
        <ele>238.5</ele>
        <time>2020-06-29T08:22:58Z</time>
      </trkpt>
      <trkpt lat="48.69093" lon="6.75391">
        <ele>238.5</ele>
        <time>2020-06-29T08:22:59Z</time>
      </trkpt>
      <trkpt lat="48.69092" lon="6.75382">
        <ele>238.5</ele>
        <time>2020-06-29T08:23:00Z</time>
      </trkpt>
      <trkpt lat="48.69091" lon="6.75371">
        <ele>238.5</ele>
        <time>2020-06-29T08:23:01Z</time>
      </trkpt>
      <trkpt lat="48.6909" lon="6.75361">
        <ele>238.5</ele>
        <time>2020-06-29T08:23:02Z</time>
      </trkpt>
      <trkpt lat="48.69089" lon="6.75351">
        <ele>238.5</ele>
        <time>2020-06-29T08:23:03Z</time>
      </trkpt>
      <trkpt lat="48.69088" lon="6.75341">
        <ele>238.5</ele>
        <time>2020-06-29T08:23:04Z</time>
      </trkpt>
      <trkpt lat="48.69087" lon="6.7533">
        <ele>238.5</ele>
        <time>2020-06-29T08:23:05Z</time>
      </trkpt>
      <trkpt lat="48.69086" lon="6.7532">
        <ele>238.5</ele>
        <time>2020-06-29T08:23:06Z</time>
      </trkpt>
      <trkpt lat="48.69086" lon="6.7531">
        <ele>238.5</ele>
        <time>2020-06-29T08:23:07Z</time>
      </trkpt>
      <trkpt lat="48.69085" lon="6.75299">
        <ele>238.5</ele>
        <time>2020-06-29T08:23:08Z</time>
      </trkpt>
      <trkpt lat="48.69084" lon="6.75289">
        <ele>238.5</ele>
        <time>2020-06-29T08:23:09Z</time>
      </trkpt>
      <trkpt lat="48.69083" lon="6.75278">
        <ele>238.5</ele>
        <time>2020-06-29T08:23:10Z</time>
      </trkpt>
      <trkpt lat="48.69082" lon="6.75268">
        <ele>238.5</ele>
        <time>2020-06-29T08:23:11Z</time>
      </trkpt>
      <trkpt lat="48.69081" lon="6.75257">
        <ele>238.5</ele>
        <time>2020-06-29T08:23:12Z</time>
      </trkpt>
      <trkpt lat="48.69081" lon="6.75247">
        <ele>238.5</ele>
        <time>2020-06-29T08:23:13Z</time>
      </trkpt>
      <trkpt lat="48.6908" lon="6.75237">
        <ele>238.5</ele>
        <time>2020-06-29T08:23:14Z</time>
      </trkpt>
      <trkpt lat="48.69079" lon="6.75227">
        <ele>238.5</ele>
        <time>2020-06-29T08:23:15Z</time>
      </trkpt>
      <trkpt lat="48.69079" lon="6.75217">
        <ele>238.5</ele>
        <time>2020-06-29T08:23:16Z</time>
      </trkpt>
      <trkpt lat="48.6908" lon="6.75207">
        <ele>238.5</ele>
        <time>2020-06-29T08:23:17Z</time>
      </trkpt>
      <trkpt lat="48.6908" lon="6.75196">
        <ele>238.5</ele>
        <time>2020-06-29T08:23:18Z</time>
      </trkpt>
      <trkpt lat="48.6908" lon="6.75185">
        <ele>238.5</ele>
        <time>2020-06-29T08:23:19Z</time>
      </trkpt>
      <trkpt lat="48.6908" lon="6.75175">
        <ele>238.5</ele>
        <time>2020-06-29T08:23:20Z</time>
      </trkpt>
      <trkpt lat="48.69081" lon="6.75165">
        <ele>238.5</ele>
        <time>2020-06-29T08:23:21Z</time>
      </trkpt>
      <trkpt lat="48.69082" lon="6.75155">
        <ele>238.5</ele>
        <time>2020-06-29T08:23:22Z</time>
      </trkpt>
      <trkpt lat="48.69083" lon="6.75145">
        <ele>238.5</ele>
        <time>2020-06-29T08:23:23Z</time>
      </trkpt>
      <trkpt lat="48.69084" lon="6.75134">
        <ele>238.5</ele>
        <time>2020-06-29T08:23:24Z</time>
      </trkpt>
      <trkpt lat="48.69085" lon="6.75123">
        <ele>238.5</ele>
        <time>2020-06-29T08:23:25Z</time>
      </trkpt>
      <trkpt lat="48.69085" lon="6.75113">
        <ele>238.4</ele>
        <time>2020-06-29T08:23:26Z</time>
      </trkpt>
      <trkpt lat="48.69087" lon="6.75103">
        <ele>238.4</ele>
        <time>2020-06-29T08:23:27Z</time>
      </trkpt>
      <trkpt lat="48.69088" lon="6.75094">
        <ele>238.4</ele>
        <time>2020-06-29T08:23:28Z</time>
      </trkpt>
      <trkpt lat="48.6909" lon="6.75084">
        <ele>238.4</ele>
        <time>2020-06-29T08:23:29Z</time>
      </trkpt>
      <trkpt lat="48.69091" lon="6.75074">
        <ele>238.4</ele>
        <time>2020-06-29T08:23:30Z</time>
      </trkpt>
      <trkpt lat="48.69092" lon="6.75063">
        <ele>238.4</ele>
        <time>2020-06-29T08:23:31Z</time>
      </trkpt>
      <trkpt lat="48.69092" lon="6.75053">
        <ele>238.4</ele>
        <time>2020-06-29T08:23:32Z</time>
      </trkpt>
      <trkpt lat="48.69094" lon="6.75042">
        <ele>238.4</ele>
        <time>2020-06-29T08:23:33Z</time>
      </trkpt>
      <trkpt lat="48.69094" lon="6.75031">
        <ele>238.4</ele>
        <time>2020-06-29T08:23:34Z</time>
      </trkpt>
      <trkpt lat="48.69095" lon="6.7502">
        <ele>238.4</ele>
        <time>2020-06-29T08:23:35Z</time>
      </trkpt>
      <trkpt lat="48.69096" lon="6.7501">
        <ele>238.4</ele>
        <time>2020-06-29T08:23:36Z</time>
      </trkpt>
      <trkpt lat="48.69098" lon="6.74999">
        <ele>238.4</ele>
        <time>2020-06-29T08:23:37Z</time>
      </trkpt>
      <trkpt lat="48.69098" lon="6.74988">
        <ele>238.4</ele>
        <time>2020-06-29T08:23:38Z</time>
      </trkpt>
      <trkpt lat="48.69099" lon="6.74977">
        <ele>238.4</ele>
        <time>2020-06-29T08:23:39Z</time>
      </trkpt>
      <trkpt lat="48.69101" lon="6.74966">
        <ele>238.4</ele>
        <time>2020-06-29T08:23:40Z</time>
      </trkpt>
      <trkpt lat="48.69102" lon="6.74956">
        <ele>238.3</ele>
        <time>2020-06-29T08:23:41Z</time>
      </trkpt>
      <trkpt lat="48.69103" lon="6.74945">
        <ele>238.3</ele>
        <time>2020-06-29T08:23:42Z</time>
      </trkpt>
      <trkpt lat="48.69104" lon="6.74935">
        <ele>238.3</ele>
        <time>2020-06-29T08:23:43Z</time>
      </trkpt>
      <trkpt lat="48.69105" lon="6.74924">
        <ele>238.3</ele>
        <time>2020-06-29T08:23:44Z</time>
      </trkpt>
      <trkpt lat="48.69106" lon="6.74913">
        <ele>238.3</ele>
        <time>2020-06-29T08:23:45Z</time>
      </trkpt>
      <trkpt lat="48.69107" lon="6.74903">
        <ele>238.3</ele>
        <time>2020-06-29T08:23:46Z</time>
      </trkpt>
      <trkpt lat="48.69108" lon="6.74892">
        <ele>238.3</ele>
        <time>2020-06-29T08:23:47Z</time>
      </trkpt>
      <trkpt lat="48.69109" lon="6.74882">
        <ele>238.3</ele>
        <time>2020-06-29T08:23:48Z</time>
      </trkpt>
      <trkpt lat="48.69109" lon="6.74871">
        <ele>238.3</ele>
        <time>2020-06-29T08:23:49Z</time>
      </trkpt>
      <trkpt lat="48.6911" lon="6.74861">
        <ele>238.3</ele>
        <time>2020-06-29T08:23:50Z</time>
      </trkpt>
      <trkpt lat="48.69111" lon="6.7485">
        <ele>238.2</ele>
        <time>2020-06-29T08:23:51Z</time>
      </trkpt>
      <trkpt lat="48.69111" lon="6.74839">
        <ele>238.2</ele>
        <time>2020-06-29T08:23:52Z</time>
      </trkpt>
      <trkpt lat="48.69112" lon="6.74828">
        <ele>238.2</ele>
        <time>2020-06-29T08:23:53Z</time>
      </trkpt>
      <trkpt lat="48.69113" lon="6.74817">
        <ele>238.2</ele>
        <time>2020-06-29T08:23:54Z</time>
      </trkpt>
      <trkpt lat="48.69114" lon="6.74806">
        <ele>238.1</ele>
        <time>2020-06-29T08:23:55Z</time>
      </trkpt>
      <trkpt lat="48.69117" lon="6.74795">
        <ele>238.1</ele>
        <time>2020-06-29T08:23:56Z</time>
      </trkpt>
      <trkpt lat="48.69119" lon="6.74785">
        <ele>238.1</ele>
        <time>2020-06-29T08:23:57Z</time>
      </trkpt>
      <trkpt lat="48.69121" lon="6.74775">
        <ele>238.1</ele>
        <time>2020-06-29T08:23:58Z</time>
      </trkpt>
      <trkpt lat="48.69124" lon="6.74765">
        <ele>238.1</ele>
        <time>2020-06-29T08:23:59Z</time>
      </trkpt>
      <trkpt lat="48.69127" lon="6.74756">
        <ele>238.2</ele>
        <time>2020-06-29T08:24:00Z</time>
      </trkpt>
      <trkpt lat="48.69131" lon="6.74748">
        <ele>238.2</ele>
        <time>2020-06-29T08:24:01Z</time>
      </trkpt>
      <trkpt lat="48.69134" lon="6.74738">
        <ele>238.2</ele>
        <time>2020-06-29T08:24:02Z</time>
      </trkpt>
      <trkpt lat="48.69138" lon="6.7473">
        <ele>238.2</ele>
        <time>2020-06-29T08:24:03Z</time>
      </trkpt>
      <trkpt lat="48.69143" lon="6.74722">
        <ele>238.2</ele>
        <time>2020-06-29T08:24:04Z</time>
      </trkpt>
      <trkpt lat="48.69146" lon="6.74712">
        <ele>238.2</ele>
        <time>2020-06-29T08:24:05Z</time>
      </trkpt>
      <trkpt lat="48.69151" lon="6.74704">
        <ele>238.2</ele>
        <time>2020-06-29T08:24:06Z</time>
      </trkpt>
      <trkpt lat="48.69155" lon="6.74695">
        <ele>238.2</ele>
        <time>2020-06-29T08:24:07Z</time>
      </trkpt>
      <trkpt lat="48.69159" lon="6.74687">
        <ele>238.3</ele>
        <time>2020-06-29T08:24:08Z</time>
      </trkpt>
      <trkpt lat="48.69164" lon="6.7468">
        <ele>238.3</ele>
        <time>2020-06-29T08:24:09Z</time>
      </trkpt>
      <trkpt lat="48.69169" lon="6.74672">
        <ele>238.3</ele>
        <time>2020-06-29T08:24:10Z</time>
      </trkpt>
      <trkpt lat="48.69173" lon="6.74664">
        <ele>238.3</ele>
        <time>2020-06-29T08:24:11Z</time>
      </trkpt>
      <trkpt lat="48.69179" lon="6.74657">
        <ele>238.3</ele>
        <time>2020-06-29T08:24:12Z</time>
      </trkpt>
      <trkpt lat="48.69185" lon="6.74651">
        <ele>238.2</ele>
        <time>2020-06-29T08:24:13Z</time>
      </trkpt>
      <trkpt lat="48.6919" lon="6.74644">
        <ele>238.2</ele>
        <time>2020-06-29T08:24:14Z</time>
      </trkpt>
      <trkpt lat="48.69197" lon="6.74638">
        <ele>238.3</ele>
        <time>2020-06-29T08:24:15Z</time>
      </trkpt>
      <trkpt lat="48.69203" lon="6.74633">
        <ele>238.3</ele>
        <time>2020-06-29T08:24:16Z</time>
      </trkpt>
      <trkpt lat="48.6921" lon="6.74628">
        <ele>238.3</ele>
        <time>2020-06-29T08:24:17Z</time>
      </trkpt>
      <trkpt lat="48.69216" lon="6.74623">
        <ele>238.3</ele>
        <time>2020-06-29T08:24:18Z</time>
      </trkpt>
      <trkpt lat="48.69223" lon="6.74618">
        <ele>238.3</ele>
        <time>2020-06-29T08:24:19Z</time>
      </trkpt>
      <trkpt lat="48.69229" lon="6.74614">
        <ele>238.3</ele>
        <time>2020-06-29T08:24:20Z</time>
      </trkpt>
      <trkpt lat="48.69237" lon="6.7461">
        <ele>238.3</ele>
        <time>2020-06-29T08:24:21Z</time>
      </trkpt>
      <trkpt lat="48.69244" lon="6.74606">
        <ele>238.3</ele>
        <time>2020-06-29T08:24:22Z</time>
      </trkpt>
      <trkpt lat="48.6925" lon="6.74603">
        <ele>238.3</ele>
        <time>2020-06-29T08:24:23Z</time>
      </trkpt>
      <trkpt lat="48.69257" lon="6.746">
        <ele>238.3</ele>
        <time>2020-06-29T08:24:24Z</time>
      </trkpt>
      <trkpt lat="48.69264" lon="6.74596">
        <ele>238.3</ele>
        <time>2020-06-29T08:24:25Z</time>
      </trkpt>
      <trkpt lat="48.69271" lon="6.74593">
        <ele>238.3</ele>
        <time>2020-06-29T08:24:26Z</time>
      </trkpt>
      <trkpt lat="48.69278" lon="6.74591">
        <ele>238.2</ele>
        <time>2020-06-29T08:24:27Z</time>
      </trkpt>
      <trkpt lat="48.69285" lon="6.74588">
        <ele>238.2</ele>
        <time>2020-06-29T08:24:28Z</time>
      </trkpt>
      <trkpt lat="48.69292" lon="6.74587">
        <ele>238.1</ele>
        <time>2020-06-29T08:24:29Z</time>
      </trkpt>
      <trkpt lat="48.69299" lon="6.74586">
        <ele>238.1</ele>
        <time>2020-06-29T08:24:30Z</time>
      </trkpt>
      <trkpt lat="48.69307" lon="6.74584">
        <ele>238.1</ele>
        <time>2020-06-29T08:24:31Z</time>
      </trkpt>
      <trkpt lat="48.69314" lon="6.74584">
        <ele>238.2</ele>
        <time>2020-06-29T08:24:32Z</time>
      </trkpt>
      <trkpt lat="48.69321" lon="6.74585">
        <ele>238.2</ele>
        <time>2020-06-29T08:24:33Z</time>
      </trkpt>
      <trkpt lat="48.69327" lon="6.74585">
        <ele>238.2</ele>
        <time>2020-06-29T08:24:34Z</time>
      </trkpt>
      <trkpt lat="48.69333" lon="6.74587">
        <ele>238.3</ele>
        <time>2020-06-29T08:24:35Z</time>
      </trkpt>
      <trkpt lat="48.69339" lon="6.74588">
        <ele>238.4</ele>
        <time>2020-06-29T08:24:36Z</time>
      </trkpt>
      <trkpt lat="48.69345" lon="6.7459">
        <ele>238.4</ele>
        <time>2020-06-29T08:24:37Z</time>
      </trkpt>
      <trkpt lat="48.69351" lon="6.74592">
        <ele>238.4</ele>
        <time>2020-06-29T08:24:38Z</time>
      </trkpt>
      <trkpt lat="48.69356" lon="6.74594">
        <ele>238.4</ele>
        <time>2020-06-29T08:24:39Z</time>
      </trkpt>
      <trkpt lat="48.69362" lon="6.74595">
        <ele>238.4</ele>
        <time>2020-06-29T08:24:40Z</time>
      </trkpt>
      <trkpt lat="48.69368" lon="6.74597">
        <ele>238.4</ele>
        <time>2020-06-29T08:24:41Z</time>
      </trkpt>
      <trkpt lat="48.69373" lon="6.74599">
        <ele>238.3</ele>
        <time>2020-06-29T08:24:42Z</time>
      </trkpt>
      <trkpt lat="48.69379" lon="6.746">
        <ele>238.3</ele>
        <time>2020-06-29T08:24:43Z</time>
      </trkpt>
      <trkpt lat="48.69385" lon="6.746">
        <ele>238.3</ele>
        <time>2020-06-29T08:24:44Z</time>
      </trkpt>
      <trkpt lat="48.69391" lon="6.74602">
        <ele>238.2</ele>
        <time>2020-06-29T08:24:45Z</time>
      </trkpt>
      <trkpt lat="48.69395" lon="6.74604">
        <ele>238.2</ele>
        <time>2020-06-29T08:24:46Z</time>
      </trkpt>
      <trkpt lat="48.69401" lon="6.74605">
        <ele>238.2</ele>
        <time>2020-06-29T08:24:47Z</time>
      </trkpt>
      <trkpt lat="48.69406" lon="6.74606">
        <ele>238.2</ele>
        <time>2020-06-29T08:24:48Z</time>
      </trkpt>
      <trkpt lat="48.69413" lon="6.74607">
        <ele>238</ele>
        <time>2020-06-29T08:24:49Z</time>
      </trkpt>
      <trkpt lat="48.6942" lon="6.74608">
        <ele>237.8</ele>
        <time>2020-06-29T08:24:50Z</time>
      </trkpt>
      <trkpt lat="48.69428" lon="6.74609">
        <ele>237.4</ele>
        <time>2020-06-29T08:24:51Z</time>
      </trkpt>
      <trkpt lat="48.69435" lon="6.74609">
        <ele>237.2</ele>
        <time>2020-06-29T08:24:52Z</time>
      </trkpt>
      <trkpt lat="48.69442" lon="6.7461">
        <ele>237</ele>
        <time>2020-06-29T08:24:53Z</time>
      </trkpt>
      <trkpt lat="48.69449" lon="6.74611">
        <ele>236.9</ele>
        <time>2020-06-29T08:24:54Z</time>
      </trkpt>
      <trkpt lat="48.69456" lon="6.74608">
        <ele>236.9</ele>
        <time>2020-06-29T08:24:55Z</time>
      </trkpt>
      <trkpt lat="48.69462" lon="6.74606">
        <ele>236.8</ele>
        <time>2020-06-29T08:24:56Z</time>
      </trkpt>
      <trkpt lat="48.69469" lon="6.74604">
        <ele>236.7</ele>
        <time>2020-06-29T08:24:57Z</time>
      </trkpt>
      <trkpt lat="48.69475" lon="6.74601">
        <ele>236.6</ele>
        <time>2020-06-29T08:24:58Z</time>
      </trkpt>
      <trkpt lat="48.69481" lon="6.74598">
        <ele>236.6</ele>
        <time>2020-06-29T08:24:59Z</time>
      </trkpt>
      <trkpt lat="48.69487" lon="6.74596">
        <ele>236.6</ele>
        <time>2020-06-29T08:25:00Z</time>
      </trkpt>
      <trkpt lat="48.69493" lon="6.74592">
        <ele>236.6</ele>
        <time>2020-06-29T08:25:01Z</time>
      </trkpt>
      <trkpt lat="48.69498" lon="6.74588">
        <ele>236.6</ele>
        <time>2020-06-29T08:25:02Z</time>
      </trkpt>
      <trkpt lat="48.69504" lon="6.74584">
        <ele>236.6</ele>
        <time>2020-06-29T08:25:03Z</time>
      </trkpt>
      <trkpt lat="48.6951" lon="6.7458">
        <ele>236.6</ele>
        <time>2020-06-29T08:25:04Z</time>
      </trkpt>
      <trkpt lat="48.69515" lon="6.74574">
        <ele>236.5</ele>
        <time>2020-06-29T08:25:05Z</time>
      </trkpt>
      <trkpt lat="48.6952" lon="6.7457">
        <ele>236.5</ele>
        <time>2020-06-29T08:25:06Z</time>
      </trkpt>
      <trkpt lat="48.69525" lon="6.74564">
        <ele>236.5</ele>
        <time>2020-06-29T08:25:07Z</time>
      </trkpt>
      <trkpt lat="48.69531" lon="6.74559">
        <ele>236.5</ele>
        <time>2020-06-29T08:25:08Z</time>
      </trkpt>
      <trkpt lat="48.69537" lon="6.74554">
        <ele>236.5</ele>
        <time>2020-06-29T08:25:09Z</time>
      </trkpt>
      <trkpt lat="48.69542" lon="6.74547">
        <ele>236.5</ele>
        <time>2020-06-29T08:25:10Z</time>
      </trkpt>
      <trkpt lat="48.69547" lon="6.74541">
        <ele>236.5</ele>
        <time>2020-06-29T08:25:11Z</time>
      </trkpt>
      <trkpt lat="48.69551" lon="6.74534">
        <ele>236.5</ele>
        <time>2020-06-29T08:25:12Z</time>
      </trkpt>
      <trkpt lat="48.69557" lon="6.74527">
        <ele>236.5</ele>
        <time>2020-06-29T08:25:13Z</time>
      </trkpt>
      <trkpt lat="48.69562" lon="6.74521">
        <ele>236.5</ele>
        <time>2020-06-29T08:25:14Z</time>
      </trkpt>
      <trkpt lat="48.69566" lon="6.74514">
        <ele>236.6</ele>
        <time>2020-06-29T08:25:15Z</time>
      </trkpt>
      <trkpt lat="48.69571" lon="6.74506">
        <ele>236.7</ele>
        <time>2020-06-29T08:25:16Z</time>
      </trkpt>
      <trkpt lat="48.69576" lon="6.74499">
        <ele>236.7</ele>
        <time>2020-06-29T08:25:17Z</time>
      </trkpt>
      <trkpt lat="48.69579" lon="6.74491">
        <ele>236.8</ele>
        <time>2020-06-29T08:25:18Z</time>
      </trkpt>
      <trkpt lat="48.69583" lon="6.74483">
        <ele>236.9</ele>
        <time>2020-06-29T08:25:19Z</time>
      </trkpt>
      <trkpt lat="48.69587" lon="6.74476">
        <ele>237</ele>
        <time>2020-06-29T08:25:20Z</time>
      </trkpt>
      <trkpt lat="48.69591" lon="6.74468">
        <ele>237.2</ele>
        <time>2020-06-29T08:25:21Z</time>
      </trkpt>
      <trkpt lat="48.69595" lon="6.7446">
        <ele>237.3</ele>
        <time>2020-06-29T08:25:22Z</time>
      </trkpt>
      <trkpt lat="48.69599" lon="6.74452">
        <ele>237.3</ele>
        <time>2020-06-29T08:25:23Z</time>
      </trkpt>
      <trkpt lat="48.69603" lon="6.74443">
        <ele>237.3</ele>
        <time>2020-06-29T08:25:24Z</time>
      </trkpt>
      <trkpt lat="48.69608" lon="6.74434">
        <ele>237.2</ele>
        <time>2020-06-29T08:25:25Z</time>
      </trkpt>
      <trkpt lat="48.69611" lon="6.74425">
        <ele>237.2</ele>
        <time>2020-06-29T08:25:26Z</time>
      </trkpt>
      <trkpt lat="48.69615" lon="6.74417">
        <ele>237.1</ele>
        <time>2020-06-29T08:25:27Z</time>
      </trkpt>
      <trkpt lat="48.69619" lon="6.74408">
        <ele>237</ele>
        <time>2020-06-29T08:25:28Z</time>
      </trkpt>
      <trkpt lat="48.69622" lon="6.74399">
        <ele>236.9</ele>
        <time>2020-06-29T08:25:29Z</time>
      </trkpt>
      <trkpt lat="48.69626" lon="6.7439">
        <ele>236.8</ele>
        <time>2020-06-29T08:25:30Z</time>
      </trkpt>
      <trkpt lat="48.69629" lon="6.74381">
        <ele>236.8</ele>
        <time>2020-06-29T08:25:31Z</time>
      </trkpt>
      <trkpt lat="48.69631" lon="6.74371">
        <ele>236.9</ele>
        <time>2020-06-29T08:25:32Z</time>
      </trkpt>
      <trkpt lat="48.69634" lon="6.74363">
        <ele>236.9</ele>
        <time>2020-06-29T08:25:33Z</time>
      </trkpt>
      <trkpt lat="48.69637" lon="6.74354">
        <ele>236.9</ele>
        <time>2020-06-29T08:25:34Z</time>
      </trkpt>
      <trkpt lat="48.69641" lon="6.74345">
        <ele>236.9</ele>
        <time>2020-06-29T08:25:35Z</time>
      </trkpt>
      <trkpt lat="48.69643" lon="6.74336">
        <ele>236.9</ele>
        <time>2020-06-29T08:25:36Z</time>
      </trkpt>
      <trkpt lat="48.69646" lon="6.74327">
        <ele>236.9</ele>
        <time>2020-06-29T08:25:37Z</time>
      </trkpt>
      <trkpt lat="48.69649" lon="6.74318">
        <ele>236.9</ele>
        <time>2020-06-29T08:25:38Z</time>
      </trkpt>
      <trkpt lat="48.69653" lon="6.7431">
        <ele>236.8</ele>
        <time>2020-06-29T08:25:39Z</time>
      </trkpt>
      <trkpt lat="48.69657" lon="6.74301">
        <ele>236.8</ele>
        <time>2020-06-29T08:25:40Z</time>
      </trkpt>
      <trkpt lat="48.6966" lon="6.74293">
        <ele>236.7</ele>
        <time>2020-06-29T08:25:41Z</time>
      </trkpt>
      <trkpt lat="48.69663" lon="6.74284">
        <ele>236.7</ele>
        <time>2020-06-29T08:25:42Z</time>
      </trkpt>
      <trkpt lat="48.69666" lon="6.74275">
        <ele>236.7</ele>
        <time>2020-06-29T08:25:43Z</time>
      </trkpt>
      <trkpt lat="48.69669" lon="6.74266">
        <ele>236.6</ele>
        <time>2020-06-29T08:25:44Z</time>
      </trkpt>
      <trkpt lat="48.69672" lon="6.74257">
        <ele>236.5</ele>
        <time>2020-06-29T08:25:45Z</time>
      </trkpt>
      <trkpt lat="48.69674" lon="6.74249">
        <ele>236.5</ele>
        <time>2020-06-29T08:25:46Z</time>
      </trkpt>
      <trkpt lat="48.69677" lon="6.7424">
        <ele>236.5</ele>
        <time>2020-06-29T08:25:47Z</time>
      </trkpt>
      <trkpt lat="48.69681" lon="6.74232">
        <ele>236.5</ele>
        <time>2020-06-29T08:25:48Z</time>
      </trkpt>
      <trkpt lat="48.69684" lon="6.74223">
        <ele>236.6</ele>
        <time>2020-06-29T08:25:49Z</time>
      </trkpt>
      <trkpt lat="48.69687" lon="6.74214">
        <ele>236.6</ele>
        <time>2020-06-29T08:25:50Z</time>
      </trkpt>
      <trkpt lat="48.6969" lon="6.74205">
        <ele>236.7</ele>
        <time>2020-06-29T08:25:51Z</time>
      </trkpt>
      <trkpt lat="48.69693" lon="6.74197">
        <ele>236.7</ele>
        <time>2020-06-29T08:25:52Z</time>
      </trkpt>
      <trkpt lat="48.69696" lon="6.74188">
        <ele>236.7</ele>
        <time>2020-06-29T08:25:53Z</time>
      </trkpt>
      <trkpt lat="48.69699" lon="6.7418">
        <ele>236.7</ele>
        <time>2020-06-29T08:25:54Z</time>
      </trkpt>
      <trkpt lat="48.69702" lon="6.74171">
        <ele>236.7</ele>
        <time>2020-06-29T08:25:55Z</time>
      </trkpt>
      <trkpt lat="48.69706" lon="6.74163">
        <ele>236.7</ele>
        <time>2020-06-29T08:25:56Z</time>
      </trkpt>
      <trkpt lat="48.69709" lon="6.74154">
        <ele>236.7</ele>
        <time>2020-06-29T08:25:57Z</time>
      </trkpt>
      <trkpt lat="48.69712" lon="6.74145">
        <ele>236.7</ele>
        <time>2020-06-29T08:25:58Z</time>
      </trkpt>
      <trkpt lat="48.69715" lon="6.74137">
        <ele>236.6</ele>
        <time>2020-06-29T08:25:59Z</time>
      </trkpt>
      <trkpt lat="48.69718" lon="6.74129">
        <ele>236.7</ele>
        <time>2020-06-29T08:26:00Z</time>
      </trkpt>
      <trkpt lat="48.69721" lon="6.7412">
        <ele>236.7</ele>
        <time>2020-06-29T08:26:01Z</time>
      </trkpt>
      <trkpt lat="48.69723" lon="6.74112">
        <ele>236.7</ele>
        <time>2020-06-29T08:26:02Z</time>
      </trkpt>
      <trkpt lat="48.69726" lon="6.74103">
        <ele>236.8</ele>
        <time>2020-06-29T08:26:03Z</time>
      </trkpt>
      <trkpt lat="48.6973" lon="6.74094">
        <ele>236.8</ele>
        <time>2020-06-29T08:26:04Z</time>
      </trkpt>
      <trkpt lat="48.69732" lon="6.74085">
        <ele>236.8</ele>
        <time>2020-06-29T08:26:05Z</time>
      </trkpt>
      <trkpt lat="48.69735" lon="6.74077">
        <ele>236.8</ele>
        <time>2020-06-29T08:26:06Z</time>
      </trkpt>
      <trkpt lat="48.69738" lon="6.74069">
        <ele>236.8</ele>
        <time>2020-06-29T08:26:07Z</time>
      </trkpt>
      <trkpt lat="48.69741" lon="6.7406">
        <ele>236.9</ele>
        <time>2020-06-29T08:26:08Z</time>
      </trkpt>
      <trkpt lat="48.69744" lon="6.7405">
        <ele>236.9</ele>
        <time>2020-06-29T08:26:09Z</time>
      </trkpt>
      <trkpt lat="48.69746" lon="6.74041">
        <ele>236.9</ele>
        <time>2020-06-29T08:26:10Z</time>
      </trkpt>
      <trkpt lat="48.69749" lon="6.74032">
        <ele>236.9</ele>
        <time>2020-06-29T08:26:11Z</time>
      </trkpt>
      <trkpt lat="48.69753" lon="6.74025">
        <ele>236.9</ele>
        <time>2020-06-29T08:26:12Z</time>
      </trkpt>
      <trkpt lat="48.69756" lon="6.74016">
        <ele>236.9</ele>
        <time>2020-06-29T08:26:13Z</time>
      </trkpt>
      <trkpt lat="48.69759" lon="6.74008">
        <ele>236.8</ele>
        <time>2020-06-29T08:26:14Z</time>
      </trkpt>
      <trkpt lat="48.69762" lon="6.73999">
        <ele>236.7</ele>
        <time>2020-06-29T08:26:15Z</time>
      </trkpt>
      <trkpt lat="48.69765" lon="6.7399">
        <ele>236.7</ele>
        <time>2020-06-29T08:26:16Z</time>
      </trkpt>
      <trkpt lat="48.69769" lon="6.73982">
        <ele>236.6</ele>
        <time>2020-06-29T08:26:17Z</time>
      </trkpt>
      <trkpt lat="48.69772" lon="6.73973">
        <ele>236.6</ele>
        <time>2020-06-29T08:26:18Z</time>
      </trkpt>
      <trkpt lat="48.69776" lon="6.73964">
        <ele>236.5</ele>
        <time>2020-06-29T08:26:19Z</time>
      </trkpt>
      <trkpt lat="48.69778" lon="6.73955">
        <ele>236.5</ele>
        <time>2020-06-29T08:26:20Z</time>
      </trkpt>
      <trkpt lat="48.6978" lon="6.73945">
        <ele>236.6</ele>
        <time>2020-06-29T08:26:21Z</time>
      </trkpt>
      <trkpt lat="48.69781" lon="6.73935">
        <ele>236.6</ele>
        <time>2020-06-29T08:26:22Z</time>
      </trkpt>
      <trkpt lat="48.69783" lon="6.73925">
        <ele>236.5</ele>
        <time>2020-06-29T08:26:23Z</time>
      </trkpt>
      <trkpt lat="48.69784" lon="6.73916">
        <ele>236.5</ele>
        <time>2020-06-29T08:26:24Z</time>
      </trkpt>
      <trkpt lat="48.69785" lon="6.73907">
        <ele>236.5</ele>
        <time>2020-06-29T08:26:25Z</time>
      </trkpt>
      <trkpt lat="48.69787" lon="6.73896">
        <ele>236.5</ele>
        <time>2020-06-29T08:26:26Z</time>
      </trkpt>
      <trkpt lat="48.69787" lon="6.73886">
        <ele>236.5</ele>
        <time>2020-06-29T08:26:27Z</time>
      </trkpt>
      <trkpt lat="48.69789" lon="6.73875">
        <ele>236.5</ele>
        <time>2020-06-29T08:26:28Z</time>
      </trkpt>
      <trkpt lat="48.69789" lon="6.73865">
        <ele>236.5</ele>
        <time>2020-06-29T08:26:29Z</time>
      </trkpt>
      <trkpt lat="48.6979" lon="6.73855">
        <ele>236.5</ele>
        <time>2020-06-29T08:26:30Z</time>
      </trkpt>
      <trkpt lat="48.6979" lon="6.73845">
        <ele>236.5</ele>
        <time>2020-06-29T08:26:31Z</time>
      </trkpt>
      <trkpt lat="48.69791" lon="6.73835">
        <ele>236.5</ele>
        <time>2020-06-29T08:26:32Z</time>
      </trkpt>
      <trkpt lat="48.69791" lon="6.73824">
        <ele>236.5</ele>
        <time>2020-06-29T08:26:33Z</time>
      </trkpt>
      <trkpt lat="48.6979" lon="6.73813">
        <ele>236.5</ele>
        <time>2020-06-29T08:26:34Z</time>
      </trkpt>
      <trkpt lat="48.6979" lon="6.73802">
        <ele>236.5</ele>
        <time>2020-06-29T08:26:35Z</time>
      </trkpt>
      <trkpt lat="48.6979" lon="6.73791">
        <ele>236.5</ele>
        <time>2020-06-29T08:26:36Z</time>
      </trkpt>
      <trkpt lat="48.6979" lon="6.7378">
        <ele>236.6</ele>
        <time>2020-06-29T08:26:37Z</time>
      </trkpt>
      <trkpt lat="48.69789" lon="6.7377">
        <ele>236.6</ele>
        <time>2020-06-29T08:26:38Z</time>
      </trkpt>
      <trkpt lat="48.69789" lon="6.73759">
        <ele>236.6</ele>
        <time>2020-06-29T08:26:39Z</time>
      </trkpt>
      <trkpt lat="48.69789" lon="6.73748">
        <ele>236.7</ele>
        <time>2020-06-29T08:26:40Z</time>
      </trkpt>
      <trkpt lat="48.69788" lon="6.73738">
        <ele>236.7</ele>
        <time>2020-06-29T08:26:41Z</time>
      </trkpt>
      <trkpt lat="48.69788" lon="6.73727">
        <ele>236.7</ele>
        <time>2020-06-29T08:26:42Z</time>
      </trkpt>
      <trkpt lat="48.69787" lon="6.73717">
        <ele>236.7</ele>
        <time>2020-06-29T08:26:43Z</time>
      </trkpt>
      <trkpt lat="48.69786" lon="6.73707">
        <ele>236.7</ele>
        <time>2020-06-29T08:26:44Z</time>
      </trkpt>
      <trkpt lat="48.69786" lon="6.73696">
        <ele>236.6</ele>
        <time>2020-06-29T08:26:45Z</time>
      </trkpt>
      <trkpt lat="48.69786" lon="6.73686">
        <ele>236.6</ele>
        <time>2020-06-29T08:26:46Z</time>
      </trkpt>
      <trkpt lat="48.69785" lon="6.73676">
        <ele>236.6</ele>
        <time>2020-06-29T08:26:47Z</time>
      </trkpt>
      <trkpt lat="48.69784" lon="6.73666">
        <ele>236.6</ele>
        <time>2020-06-29T08:26:48Z</time>
      </trkpt>
      <trkpt lat="48.69785" lon="6.73656">
        <ele>236.6</ele>
        <time>2020-06-29T08:26:49Z</time>
      </trkpt>
      <trkpt lat="48.69784" lon="6.73646">
        <ele>236.7</ele>
        <time>2020-06-29T08:26:50Z</time>
      </trkpt>
      <trkpt lat="48.69784" lon="6.73636">
        <ele>236.7</ele>
        <time>2020-06-29T08:26:51Z</time>
      </trkpt>
      <trkpt lat="48.69783" lon="6.73625">
        <ele>236.7</ele>
        <time>2020-06-29T08:26:52Z</time>
      </trkpt>
      <trkpt lat="48.69783" lon="6.73615">
        <ele>236.8</ele>
        <time>2020-06-29T08:26:53Z</time>
      </trkpt>
      <trkpt lat="48.69782" lon="6.73604">
        <ele>236.9</ele>
        <time>2020-06-29T08:26:54Z</time>
      </trkpt>
      <trkpt lat="48.69781" lon="6.73594">
        <ele>236.9</ele>
        <time>2020-06-29T08:26:55Z</time>
      </trkpt>
      <trkpt lat="48.69782" lon="6.73583">
        <ele>237</ele>
        <time>2020-06-29T08:26:56Z</time>
      </trkpt>
      <trkpt lat="48.69783" lon="6.73571">
        <ele>237</ele>
        <time>2020-06-29T08:26:57Z</time>
      </trkpt>
      <trkpt lat="48.69782" lon="6.7356">
        <ele>237</ele>
        <time>2020-06-29T08:26:58Z</time>
      </trkpt>
      <trkpt lat="48.69781" lon="6.73548">
        <ele>237</ele>
        <time>2020-06-29T08:26:59Z</time>
      </trkpt>
      <trkpt lat="48.69781" lon="6.73538">
        <ele>237</ele>
        <time>2020-06-29T08:27:00Z</time>
      </trkpt>
      <trkpt lat="48.6978" lon="6.73526">
        <ele>237</ele>
        <time>2020-06-29T08:27:01Z</time>
      </trkpt>
      <trkpt lat="48.69779" lon="6.73515">
        <ele>237</ele>
        <time>2020-06-29T08:27:02Z</time>
      </trkpt>
      <trkpt lat="48.69778" lon="6.73504">
        <ele>237</ele>
        <time>2020-06-29T08:27:03Z</time>
      </trkpt>
      <trkpt lat="48.69777" lon="6.73495">
        <ele>237</ele>
        <time>2020-06-29T08:27:04Z</time>
      </trkpt>
      <trkpt lat="48.69777" lon="6.73485">
        <ele>237</ele>
        <time>2020-06-29T08:27:05Z</time>
      </trkpt>
      <trkpt lat="48.69776" lon="6.73474">
        <ele>237</ele>
        <time>2020-06-29T08:27:06Z</time>
      </trkpt>
      <trkpt lat="48.69775" lon="6.73463">
        <ele>237</ele>
        <time>2020-06-29T08:27:07Z</time>
      </trkpt>
      <trkpt lat="48.69774" lon="6.73452">
        <ele>237.1</ele>
        <time>2020-06-29T08:27:08Z</time>
      </trkpt>
      <trkpt lat="48.69772" lon="6.73441">
        <ele>237.1</ele>
        <time>2020-06-29T08:27:09Z</time>
      </trkpt>
      <trkpt lat="48.6977" lon="6.7343">
        <ele>237.1</ele>
        <time>2020-06-29T08:27:10Z</time>
      </trkpt>
      <trkpt lat="48.69769" lon="6.7342">
        <ele>237.1</ele>
        <time>2020-06-29T08:27:11Z</time>
      </trkpt>
      <trkpt lat="48.69766" lon="6.7341">
        <ele>237.2</ele>
        <time>2020-06-29T08:27:12Z</time>
      </trkpt>
      <trkpt lat="48.69764" lon="6.734">
        <ele>237.2</ele>
        <time>2020-06-29T08:27:13Z</time>
      </trkpt>
      <trkpt lat="48.69761" lon="6.7339">
        <ele>237.2</ele>
        <time>2020-06-29T08:27:14Z</time>
      </trkpt>
      <trkpt lat="48.69759" lon="6.7338">
        <ele>237.2</ele>
        <time>2020-06-29T08:27:15Z</time>
      </trkpt>
      <trkpt lat="48.69757" lon="6.7337">
        <ele>237.3</ele>
        <time>2020-06-29T08:27:16Z</time>
      </trkpt>
      <trkpt lat="48.69755" lon="6.73361">
        <ele>237.3</ele>
        <time>2020-06-29T08:27:17Z</time>
      </trkpt>
      <trkpt lat="48.69754" lon="6.73351">
        <ele>237.3</ele>
        <time>2020-06-29T08:27:18Z</time>
      </trkpt>
      <trkpt lat="48.69751" lon="6.73342">
        <ele>237.3</ele>
        <time>2020-06-29T08:27:19Z</time>
      </trkpt>
      <trkpt lat="48.69748" lon="6.73332">
        <ele>237.3</ele>
        <time>2020-06-29T08:27:20Z</time>
      </trkpt>
      <trkpt lat="48.69746" lon="6.73322">
        <ele>237.3</ele>
        <time>2020-06-29T08:27:21Z</time>
      </trkpt>
      <trkpt lat="48.69743" lon="6.73313">
        <ele>237.2</ele>
        <time>2020-06-29T08:27:22Z</time>
      </trkpt>
      <trkpt lat="48.6974" lon="6.73303">
        <ele>237</ele>
        <time>2020-06-29T08:27:23Z</time>
      </trkpt>
      <trkpt lat="48.69737" lon="6.73293">
        <ele>236.9</ele>
        <time>2020-06-29T08:27:24Z</time>
      </trkpt>
      <trkpt lat="48.69733" lon="6.73283">
        <ele>236.8</ele>
        <time>2020-06-29T08:27:25Z</time>
      </trkpt>
      <trkpt lat="48.6973" lon="6.73274">
        <ele>236.8</ele>
        <time>2020-06-29T08:27:26Z</time>
      </trkpt>
      <trkpt lat="48.69725" lon="6.73266">
        <ele>236.7</ele>
        <time>2020-06-29T08:27:27Z</time>
      </trkpt>
      <trkpt lat="48.69721" lon="6.73259">
        <ele>236.7</ele>
        <time>2020-06-29T08:27:28Z</time>
      </trkpt>
      <trkpt lat="48.69717" lon="6.73251">
        <ele>236.6</ele>
        <time>2020-06-29T08:27:29Z</time>
      </trkpt>
      <trkpt lat="48.69712" lon="6.73243">
        <ele>236.6</ele>
        <time>2020-06-29T08:27:30Z</time>
      </trkpt>
      <trkpt lat="48.69707" lon="6.73236">
        <ele>236.5</ele>
        <time>2020-06-29T08:27:31Z</time>
      </trkpt>
      <trkpt lat="48.69702" lon="6.7323">
        <ele>236.3</ele>
        <time>2020-06-29T08:27:32Z</time>
      </trkpt>
      <trkpt lat="48.69697" lon="6.73222">
        <ele>236.2</ele>
        <time>2020-06-29T08:27:33Z</time>
      </trkpt>
      <trkpt lat="48.69692" lon="6.73215">
        <ele>236.2</ele>
        <time>2020-06-29T08:27:34Z</time>
      </trkpt>
      <trkpt lat="48.69686" lon="6.73207">
        <ele>236.3</ele>
        <time>2020-06-29T08:27:35Z</time>
      </trkpt>
      <trkpt lat="48.69681" lon="6.732">
        <ele>236.4</ele>
        <time>2020-06-29T08:27:36Z</time>
      </trkpt>
      <trkpt lat="48.69676" lon="6.73193">
        <ele>236.4</ele>
        <time>2020-06-29T08:27:37Z</time>
      </trkpt>
      <trkpt lat="48.6967" lon="6.73185">
        <ele>236.5</ele>
        <time>2020-06-29T08:27:38Z</time>
      </trkpt>
      <trkpt lat="48.69665" lon="6.73179">
        <ele>236.5</ele>
        <time>2020-06-29T08:27:39Z</time>
      </trkpt>
      <trkpt lat="48.6966" lon="6.73173">
        <ele>236.6</ele>
        <time>2020-06-29T08:27:40Z</time>
      </trkpt>
      <trkpt lat="48.69655" lon="6.73165">
        <ele>236.7</ele>
        <time>2020-06-29T08:27:41Z</time>
      </trkpt>
      <trkpt lat="48.6965" lon="6.73157">
        <ele>236.7</ele>
        <time>2020-06-29T08:27:42Z</time>
      </trkpt>
      <trkpt lat="48.69645" lon="6.7315">
        <ele>236.7</ele>
        <time>2020-06-29T08:27:43Z</time>
      </trkpt>
      <trkpt lat="48.6964" lon="6.73142">
        <ele>236.7</ele>
        <time>2020-06-29T08:27:44Z</time>
      </trkpt>
      <trkpt lat="48.69635" lon="6.73135">
        <ele>236.8</ele>
        <time>2020-06-29T08:27:45Z</time>
      </trkpt>
      <trkpt lat="48.69631" lon="6.73127">
        <ele>236.8</ele>
        <time>2020-06-29T08:27:46Z</time>
      </trkpt>
      <trkpt lat="48.69627" lon="6.73117">
        <ele>236.8</ele>
        <time>2020-06-29T08:27:47Z</time>
      </trkpt>
      <trkpt lat="48.69622" lon="6.73108">
        <ele>236.8</ele>
        <time>2020-06-29T08:27:48Z</time>
      </trkpt>
      <trkpt lat="48.69618" lon="6.73098">
        <ele>236.8</ele>
        <time>2020-06-29T08:27:49Z</time>
      </trkpt>
      <trkpt lat="48.69614" lon="6.7309">
        <ele>236.8</ele>
        <time>2020-06-29T08:27:50Z</time>
      </trkpt>
      <trkpt lat="48.69611" lon="6.73082">
        <ele>236.8</ele>
        <time>2020-06-29T08:27:51Z</time>
      </trkpt>
      <trkpt lat="48.69608" lon="6.73073">
        <ele>236.7</ele>
        <time>2020-06-29T08:27:52Z</time>
      </trkpt>
      <trkpt lat="48.69605" lon="6.73064">
        <ele>236.8</ele>
        <time>2020-06-29T08:27:53Z</time>
      </trkpt>
      <trkpt lat="48.69601" lon="6.73058">
        <ele>236.8</ele>
        <time>2020-06-29T08:27:54Z</time>
      </trkpt>
      <trkpt lat="48.69597" lon="6.73048">
        <ele>236.8</ele>
        <time>2020-06-29T08:27:55Z</time>
      </trkpt>
      <trkpt lat="48.69595" lon="6.7304">
        <ele>236.8</ele>
        <time>2020-06-29T08:27:56Z</time>
      </trkpt>
      <trkpt lat="48.69592" lon="6.7303">
        <ele>236.8</ele>
        <time>2020-06-29T08:27:57Z</time>
      </trkpt>
      <trkpt lat="48.6959" lon="6.73021">
        <ele>236.8</ele>
        <time>2020-06-29T08:27:58Z</time>
      </trkpt>
      <trkpt lat="48.69588" lon="6.7301">
        <ele>236.8</ele>
        <time>2020-06-29T08:27:59Z</time>
      </trkpt>
      <trkpt lat="48.69585" lon="6.73">
        <ele>236.8</ele>
        <time>2020-06-29T08:28:00Z</time>
      </trkpt>
      <trkpt lat="48.69583" lon="6.72989">
        <ele>236.9</ele>
        <time>2020-06-29T08:28:01Z</time>
      </trkpt>
      <trkpt lat="48.69582" lon="6.7298">
        <ele>236.9</ele>
        <time>2020-06-29T08:28:02Z</time>
      </trkpt>
      <trkpt lat="48.6958" lon="6.72971">
        <ele>236.9</ele>
        <time>2020-06-29T08:28:03Z</time>
      </trkpt>
      <trkpt lat="48.69579" lon="6.72962">
        <ele>236.9</ele>
        <time>2020-06-29T08:28:04Z</time>
      </trkpt>
      <trkpt lat="48.69578" lon="6.72952">
        <ele>237</ele>
        <time>2020-06-29T08:28:05Z</time>
      </trkpt>
      <trkpt lat="48.69577" lon="6.72942">
        <ele>237</ele>
        <time>2020-06-29T08:28:06Z</time>
      </trkpt>
      <trkpt lat="48.69577" lon="6.72933">
        <ele>237</ele>
        <time>2020-06-29T08:28:07Z</time>
      </trkpt>
      <trkpt lat="48.69576" lon="6.72922">
        <ele>236.9</ele>
        <time>2020-06-29T08:28:08Z</time>
      </trkpt>
      <trkpt lat="48.69575" lon="6.72912">
        <ele>236.9</ele>
        <time>2020-06-29T08:28:09Z</time>
      </trkpt>
      <trkpt lat="48.69573" lon="6.72904">
        <ele>236.8</ele>
        <time>2020-06-29T08:28:10Z</time>
      </trkpt>
      <trkpt lat="48.69573" lon="6.72893">
        <ele>236.7</ele>
        <time>2020-06-29T08:28:11Z</time>
      </trkpt>
      <trkpt lat="48.69573" lon="6.72883">
        <ele>236.7</ele>
        <time>2020-06-29T08:28:12Z</time>
      </trkpt>
      <trkpt lat="48.69573" lon="6.72873">
        <ele>236.7</ele>
        <time>2020-06-29T08:28:13Z</time>
      </trkpt>
      <trkpt lat="48.69573" lon="6.72861">
        <ele>236.7</ele>
        <time>2020-06-29T08:28:14Z</time>
      </trkpt>
      <trkpt lat="48.69572" lon="6.72851">
        <ele>236.6</ele>
        <time>2020-06-29T08:28:15Z</time>
      </trkpt>
      <trkpt lat="48.69573" lon="6.72842">
        <ele>236.6</ele>
        <time>2020-06-29T08:28:16Z</time>
      </trkpt>
      <trkpt lat="48.69573" lon="6.72831">
        <ele>236.6</ele>
        <time>2020-06-29T08:28:17Z</time>
      </trkpt>
      <trkpt lat="48.69574" lon="6.72821">
        <ele>236.6</ele>
        <time>2020-06-29T08:28:18Z</time>
      </trkpt>
      <trkpt lat="48.69574" lon="6.72812">
        <ele>236.5</ele>
        <time>2020-06-29T08:28:19Z</time>
      </trkpt>
      <trkpt lat="48.69574" lon="6.72804">
        <ele>236.5</ele>
        <time>2020-06-29T08:28:20Z</time>
      </trkpt>
      <trkpt lat="48.69576" lon="6.72794">
        <ele>236.4</ele>
        <time>2020-06-29T08:28:21Z</time>
      </trkpt>
      <trkpt lat="48.69577" lon="6.72782">
        <ele>236.4</ele>
        <time>2020-06-29T08:28:22Z</time>
      </trkpt>
      <trkpt lat="48.69579" lon="6.72771">
        <ele>236.3</ele>
        <time>2020-06-29T08:28:23Z</time>
      </trkpt>
      <trkpt lat="48.69579" lon="6.7276">
        <ele>236.3</ele>
        <time>2020-06-29T08:28:24Z</time>
      </trkpt>
      <trkpt lat="48.6958" lon="6.72749">
        <ele>236.3</ele>
        <time>2020-06-29T08:28:25Z</time>
      </trkpt>
      <trkpt lat="48.6958" lon="6.72738">
        <ele>236.3</ele>
        <time>2020-06-29T08:28:26Z</time>
      </trkpt>
      <trkpt lat="48.69581" lon="6.72727">
        <ele>236.2</ele>
        <time>2020-06-29T08:28:27Z</time>
      </trkpt>
      <trkpt lat="48.6958" lon="6.72717">
        <ele>236.2</ele>
        <time>2020-06-29T08:28:28Z</time>
      </trkpt>
      <trkpt lat="48.69581" lon="6.72708">
        <ele>236.2</ele>
        <time>2020-06-29T08:28:29Z</time>
      </trkpt>
      <trkpt lat="48.69581" lon="6.72698">
        <ele>236.2</ele>
        <time>2020-06-29T08:28:30Z</time>
      </trkpt>
      <trkpt lat="48.69581" lon="6.72689">
        <ele>236.2</ele>
        <time>2020-06-29T08:28:31Z</time>
      </trkpt>
      <trkpt lat="48.69581" lon="6.72682">
        <ele>236.2</ele>
        <time>2020-06-29T08:28:32Z</time>
      </trkpt>
      <trkpt lat="48.69581" lon="6.72673">
        <ele>236.2</ele>
        <time>2020-06-29T08:28:33Z</time>
      </trkpt>
      <trkpt lat="48.69579" lon="6.72663">
        <ele>236.3</ele>
        <time>2020-06-29T08:28:34Z</time>
      </trkpt>
      <trkpt lat="48.69577" lon="6.72652">
        <ele>236.3</ele>
        <time>2020-06-29T08:28:35Z</time>
      </trkpt>
      <trkpt lat="48.69576" lon="6.72642">
        <ele>236.3</ele>
        <time>2020-06-29T08:28:36Z</time>
      </trkpt>
      <trkpt lat="48.69573" lon="6.7263">
        <ele>236.4</ele>
        <time>2020-06-29T08:28:37Z</time>
      </trkpt>
      <trkpt lat="48.69572" lon="6.72621">
        <ele>236.4</ele>
        <time>2020-06-29T08:28:38Z</time>
      </trkpt>
      <trkpt lat="48.6957" lon="6.72613">
        <ele>236.4</ele>
        <time>2020-06-29T08:28:39Z</time>
      </trkpt>
      <trkpt lat="48.69567" lon="6.72605">
        <ele>236.4</ele>
        <time>2020-06-29T08:28:40Z</time>
      </trkpt>
      <trkpt lat="48.69564" lon="6.72596">
        <ele>236.4</ele>
        <time>2020-06-29T08:28:41Z</time>
      </trkpt>
      <trkpt lat="48.69561" lon="6.72588">
        <ele>236.4</ele>
        <time>2020-06-29T08:28:42Z</time>
      </trkpt>
      <trkpt lat="48.69558" lon="6.72579">
        <ele>236.5</ele>
        <time>2020-06-29T08:28:43Z</time>
      </trkpt>
      <trkpt lat="48.69554" lon="6.72571">
        <ele>236.5</ele>
        <time>2020-06-29T08:28:44Z</time>
      </trkpt>
      <trkpt lat="48.6955" lon="6.72563">
        <ele>236.5</ele>
        <time>2020-06-29T08:28:45Z</time>
      </trkpt>
      <trkpt lat="48.69546" lon="6.72554">
        <ele>236.6</ele>
        <time>2020-06-29T08:28:46Z</time>
      </trkpt>
      <trkpt lat="48.69543" lon="6.72546">
        <ele>236.6</ele>
        <time>2020-06-29T08:28:47Z</time>
      </trkpt>
      <trkpt lat="48.69541" lon="6.72538">
        <ele>236.6</ele>
        <time>2020-06-29T08:28:48Z</time>
      </trkpt>
      <trkpt lat="48.69538" lon="6.72531">
        <ele>236.6</ele>
        <time>2020-06-29T08:28:49Z</time>
      </trkpt>
      <trkpt lat="48.69534" lon="6.72525">
        <ele>236.5</ele>
        <time>2020-06-29T08:28:50Z</time>
      </trkpt>
      <trkpt lat="48.69529" lon="6.72517">
        <ele>236.5</ele>
        <time>2020-06-29T08:28:51Z</time>
      </trkpt>
      <trkpt lat="48.69525" lon="6.72509">
        <ele>236.4</ele>
        <time>2020-06-29T08:28:52Z</time>
      </trkpt>
      <trkpt lat="48.69521" lon="6.72501">
        <ele>236.4</ele>
        <time>2020-06-29T08:28:53Z</time>
      </trkpt>
      <trkpt lat="48.69518" lon="6.72492">
        <ele>236.4</ele>
        <time>2020-06-29T08:28:54Z</time>
      </trkpt>
      <trkpt lat="48.69514" lon="6.72484">
        <ele>236.3</ele>
        <time>2020-06-29T08:28:55Z</time>
      </trkpt>
      <trkpt lat="48.6951" lon="6.72474">
        <ele>236.4</ele>
        <time>2020-06-29T08:28:56Z</time>
      </trkpt>
      <trkpt lat="48.69506" lon="6.72466">
        <ele>236.4</ele>
        <time>2020-06-29T08:28:57Z</time>
      </trkpt>
      <trkpt lat="48.69503" lon="6.72457">
        <ele>236.4</ele>
        <time>2020-06-29T08:28:58Z</time>
      </trkpt>
      <trkpt lat="48.69499" lon="6.7245">
        <ele>236.3</ele>
        <time>2020-06-29T08:28:59Z</time>
      </trkpt>
      <trkpt lat="48.69495" lon="6.72443">
        <ele>236.3</ele>
        <time>2020-06-29T08:29:00Z</time>
      </trkpt>
      <trkpt lat="48.69491" lon="6.72435">
        <ele>236.3</ele>
        <time>2020-06-29T08:29:01Z</time>
      </trkpt>
      <trkpt lat="48.69487" lon="6.72426">
        <ele>236.3</ele>
        <time>2020-06-29T08:29:02Z</time>
      </trkpt>
      <trkpt lat="48.69482" lon="6.72418">
        <ele>236.3</ele>
        <time>2020-06-29T08:29:03Z</time>
      </trkpt>
      <trkpt lat="48.69478" lon="6.7241">
        <ele>236.3</ele>
        <time>2020-06-29T08:29:04Z</time>
      </trkpt>
      <trkpt lat="48.69474" lon="6.72402">
        <ele>236.2</ele>
        <time>2020-06-29T08:29:05Z</time>
      </trkpt>
      <trkpt lat="48.69469" lon="6.72395">
        <ele>236.2</ele>
        <time>2020-06-29T08:29:06Z</time>
      </trkpt>
      <trkpt lat="48.69465" lon="6.72388">
        <ele>236.2</ele>
        <time>2020-06-29T08:29:07Z</time>
      </trkpt>
      <trkpt lat="48.69459" lon="6.7238">
        <ele>236.2</ele>
        <time>2020-06-29T08:29:08Z</time>
      </trkpt>
      <trkpt lat="48.69453" lon="6.72374">
        <ele>236.2</ele>
        <time>2020-06-29T08:29:09Z</time>
      </trkpt>
      <trkpt lat="48.69448" lon="6.72366">
        <ele>236.2</ele>
        <time>2020-06-29T08:29:10Z</time>
      </trkpt>
      <trkpt lat="48.69442" lon="6.72359">
        <ele>236.2</ele>
        <time>2020-06-29T08:29:11Z</time>
      </trkpt>
      <trkpt lat="48.69437" lon="6.72353">
        <ele>236.2</ele>
        <time>2020-06-29T08:29:12Z</time>
      </trkpt>
      <trkpt lat="48.69431" lon="6.72348">
        <ele>236.2</ele>
        <time>2020-06-29T08:29:13Z</time>
      </trkpt>
      <trkpt lat="48.69426" lon="6.72342">
        <ele>236.2</ele>
        <time>2020-06-29T08:29:14Z</time>
      </trkpt>
      <trkpt lat="48.69421" lon="6.72337">
        <ele>236.1</ele>
        <time>2020-06-29T08:29:15Z</time>
      </trkpt>
      <trkpt lat="48.69415" lon="6.72333">
        <ele>236.2</ele>
        <time>2020-06-29T08:29:16Z</time>
      </trkpt>
      <trkpt lat="48.69411" lon="6.72329">
        <ele>236.2</ele>
        <time>2020-06-29T08:29:17Z</time>
      </trkpt>
      <trkpt lat="48.69406" lon="6.72326">
        <ele>236.2</ele>
        <time>2020-06-29T08:29:18Z</time>
      </trkpt>
      <trkpt lat="48.694" lon="6.72322">
        <ele>236.3</ele>
        <time>2020-06-29T08:29:19Z</time>
      </trkpt>
      <trkpt lat="48.69393" lon="6.72319">
        <ele>236.3</ele>
        <time>2020-06-29T08:29:20Z</time>
      </trkpt>
      <trkpt lat="48.69387" lon="6.72316">
        <ele>236.3</ele>
        <time>2020-06-29T08:29:21Z</time>
      </trkpt>
      <trkpt lat="48.69381" lon="6.72314">
        <ele>236.3</ele>
        <time>2020-06-29T08:29:22Z</time>
      </trkpt>
      <trkpt lat="48.69375" lon="6.72311">
        <ele>236.3</ele>
        <time>2020-06-29T08:29:23Z</time>
      </trkpt>
      <trkpt lat="48.69368" lon="6.7231">
        <ele>236.3</ele>
        <time>2020-06-29T08:29:24Z</time>
      </trkpt>
      <trkpt lat="48.69361" lon="6.72309">
        <ele>236.3</ele>
        <time>2020-06-29T08:29:25Z</time>
      </trkpt>
      <trkpt lat="48.69354" lon="6.72308">
        <ele>236.4</ele>
        <time>2020-06-29T08:29:26Z</time>
      </trkpt>
      <trkpt lat="48.69348" lon="6.72306">
        <ele>236.4</ele>
        <time>2020-06-29T08:29:27Z</time>
      </trkpt>
      <trkpt lat="48.69342" lon="6.72304">
        <ele>236.3</ele>
        <time>2020-06-29T08:29:28Z</time>
      </trkpt>
      <trkpt lat="48.69335" lon="6.72303">
        <ele>236.3</ele>
        <time>2020-06-29T08:29:29Z</time>
      </trkpt>
      <trkpt lat="48.69329" lon="6.723">
        <ele>236.3</ele>
        <time>2020-06-29T08:29:30Z</time>
      </trkpt>
      <trkpt lat="48.69323" lon="6.723">
        <ele>236.3</ele>
        <time>2020-06-29T08:29:31Z</time>
      </trkpt>
      <trkpt lat="48.69317" lon="6.72299">
        <ele>236.3</ele>
        <time>2020-06-29T08:29:32Z</time>
      </trkpt>
      <trkpt lat="48.69312" lon="6.72299">
        <ele>236.3</ele>
        <time>2020-06-29T08:29:33Z</time>
      </trkpt>
      <trkpt lat="48.69305" lon="6.72297">
        <ele>236.3</ele>
        <time>2020-06-29T08:29:34Z</time>
      </trkpt>
      <trkpt lat="48.69299" lon="6.72296">
        <ele>236.3</ele>
        <time>2020-06-29T08:29:35Z</time>
      </trkpt>
      <trkpt lat="48.69294" lon="6.72294">
        <ele>236.3</ele>
        <time>2020-06-29T08:29:36Z</time>
      </trkpt>
      <trkpt lat="48.69286" lon="6.72293">
        <ele>236.3</ele>
        <time>2020-06-29T08:29:37Z</time>
      </trkpt>
      <trkpt lat="48.6928" lon="6.72292">
        <ele>236.3</ele>
        <time>2020-06-29T08:29:38Z</time>
      </trkpt>
      <trkpt lat="48.69274" lon="6.72289">
        <ele>236.3</ele>
        <time>2020-06-29T08:29:39Z</time>
      </trkpt>
      <trkpt lat="48.69268" lon="6.72287">
        <ele>236.3</ele>
        <time>2020-06-29T08:29:40Z</time>
      </trkpt>
      <trkpt lat="48.69262" lon="6.72285">
        <ele>236.3</ele>
        <time>2020-06-29T08:29:41Z</time>
      </trkpt>
      <trkpt lat="48.69256" lon="6.72282">
        <ele>236.4</ele>
        <time>2020-06-29T08:29:42Z</time>
      </trkpt>
      <trkpt lat="48.69249" lon="6.72279">
        <ele>236.5</ele>
        <time>2020-06-29T08:29:43Z</time>
      </trkpt>
      <trkpt lat="48.69243" lon="6.72275">
        <ele>236.7</ele>
        <time>2020-06-29T08:29:44Z</time>
      </trkpt>
      <trkpt lat="48.69237" lon="6.72272">
        <ele>239.1</ele>
        <time>2020-06-29T08:29:45Z</time>
      </trkpt>
      <trkpt lat="48.69232" lon="6.72268">
        <ele>241.8</ele>
        <time>2020-06-29T08:29:46Z</time>
      </trkpt>
      <trkpt lat="48.69226" lon="6.72264">
        <ele>243.2</ele>
        <time>2020-06-29T08:29:47Z</time>
      </trkpt>
      <trkpt lat="48.69221" lon="6.72261">
        <ele>243.7</ele>
        <time>2020-06-29T08:29:48Z</time>
      </trkpt>
      <trkpt lat="48.69214" lon="6.72256">
        <ele>243.9</ele>
        <time>2020-06-29T08:29:49Z</time>
      </trkpt>
      <trkpt lat="48.69208" lon="6.7225">
        <ele>243.9</ele>
        <time>2020-06-29T08:29:50Z</time>
      </trkpt>
      <trkpt lat="48.69203" lon="6.72245">
        <ele>243.9</ele>
        <time>2020-06-29T08:29:51Z</time>
      </trkpt>
      <trkpt lat="48.69197" lon="6.72238">
        <ele>243.9</ele>
        <time>2020-06-29T08:29:52Z</time>
      </trkpt>
      <trkpt lat="48.69192" lon="6.72231">
        <ele>243.9</ele>
        <time>2020-06-29T08:29:53Z</time>
      </trkpt>
      <trkpt lat="48.69186" lon="6.72225">
        <ele>243.8</ele>
        <time>2020-06-29T08:29:54Z</time>
      </trkpt>
      <trkpt lat="48.69181" lon="6.72217">
        <ele>243.7</ele>
        <time>2020-06-29T08:29:55Z</time>
      </trkpt>
      <trkpt lat="48.69175" lon="6.72209">
        <ele>243.6</ele>
        <time>2020-06-29T08:29:56Z</time>
      </trkpt>
      <trkpt lat="48.6917" lon="6.72202">
        <ele>243.5</ele>
        <time>2020-06-29T08:29:57Z</time>
      </trkpt>
      <trkpt lat="48.69165" lon="6.72195">
        <ele>243.4</ele>
        <time>2020-06-29T08:29:58Z</time>
      </trkpt>
      <trkpt lat="48.6916" lon="6.72188">
        <ele>243.3</ele>
        <time>2020-06-29T08:29:59Z</time>
      </trkpt>
      <trkpt lat="48.69157" lon="6.72183">
        <ele>243.2</ele>
        <time>2020-06-29T08:30:00Z</time>
      </trkpt>
      <trkpt lat="48.69152" lon="6.72175">
        <ele>243.2</ele>
        <time>2020-06-29T08:30:01Z</time>
      </trkpt>
      <trkpt lat="48.69149" lon="6.72168">
        <ele>243.2</ele>
        <time>2020-06-29T08:30:02Z</time>
      </trkpt>
      <trkpt lat="48.69146" lon="6.72159">
        <ele>243.2</ele>
        <time>2020-06-29T08:30:03Z</time>
      </trkpt>
      <trkpt lat="48.69141" lon="6.7215">
        <ele>243.2</ele>
        <time>2020-06-29T08:30:04Z</time>
      </trkpt>
      <trkpt lat="48.69136" lon="6.7214">
        <ele>243.1</ele>
        <time>2020-06-29T08:30:05Z</time>
      </trkpt>
      <trkpt lat="48.69133" lon="6.72132">
        <ele>243</ele>
        <time>2020-06-29T08:30:06Z</time>
      </trkpt>
      <trkpt lat="48.69129" lon="6.72124">
        <ele>243</ele>
        <time>2020-06-29T08:30:07Z</time>
      </trkpt>
      <trkpt lat="48.69126" lon="6.72115">
        <ele>243</ele>
        <time>2020-06-29T08:30:08Z</time>
      </trkpt>
      <trkpt lat="48.69122" lon="6.72107">
        <ele>243</ele>
        <time>2020-06-29T08:30:09Z</time>
      </trkpt>
      <trkpt lat="48.69118" lon="6.72098">
        <ele>242.9</ele>
        <time>2020-06-29T08:30:10Z</time>
      </trkpt>
      <trkpt lat="48.69115" lon="6.7209">
        <ele>242.9</ele>
        <time>2020-06-29T08:30:11Z</time>
      </trkpt>
      <trkpt lat="48.69112" lon="6.72082">
        <ele>242.9</ele>
        <time>2020-06-29T08:30:12Z</time>
      </trkpt>
      <trkpt lat="48.69108" lon="6.7207">
        <ele>242.8</ele>
        <time>2020-06-29T08:30:13Z</time>
      </trkpt>
      <trkpt lat="48.69104" lon="6.7206">
        <ele>242.6</ele>
        <time>2020-06-29T08:30:14Z</time>
      </trkpt>
      <trkpt lat="48.69102" lon="6.72048">
        <ele>242.5</ele>
        <time>2020-06-29T08:30:15Z</time>
      </trkpt>
      <trkpt lat="48.69099" lon="6.72038">
        <ele>242.4</ele>
        <time>2020-06-29T08:30:16Z</time>
      </trkpt>
      <trkpt lat="48.69098" lon="6.72027">
        <ele>242.4</ele>
        <time>2020-06-29T08:30:17Z</time>
      </trkpt>
      <trkpt lat="48.69097" lon="6.72017">
        <ele>242.4</ele>
        <time>2020-06-29T08:30:18Z</time>
      </trkpt>
      <trkpt lat="48.69096" lon="6.72006">
        <ele>242.3</ele>
        <time>2020-06-29T08:30:19Z</time>
      </trkpt>
      <trkpt lat="48.69095" lon="6.71996">
        <ele>242.3</ele>
        <time>2020-06-29T08:30:20Z</time>
      </trkpt>
      <trkpt lat="48.69093" lon="6.71986">
        <ele>242.3</ele>
        <time>2020-06-29T08:30:21Z</time>
      </trkpt>
      <trkpt lat="48.69092" lon="6.71976">
        <ele>242.4</ele>
        <time>2020-06-29T08:30:22Z</time>
      </trkpt>
      <trkpt lat="48.69092" lon="6.71965">
        <ele>242.4</ele>
        <time>2020-06-29T08:30:23Z</time>
      </trkpt>
      <trkpt lat="48.69091" lon="6.71955">
        <ele>242.3</ele>
        <time>2020-06-29T08:30:24Z</time>
      </trkpt>
      <trkpt lat="48.69092" lon="6.71945">
        <ele>242.2</ele>
        <time>2020-06-29T08:30:25Z</time>
      </trkpt>
      <trkpt lat="48.69093" lon="6.71935">
        <ele>242.1</ele>
        <time>2020-06-29T08:30:26Z</time>
      </trkpt>
      <trkpt lat="48.69093" lon="6.71924">
        <ele>241.9</ele>
        <time>2020-06-29T08:30:27Z</time>
      </trkpt>
      <trkpt lat="48.69093" lon="6.71913">
        <ele>241.7</ele>
        <time>2020-06-29T08:30:28Z</time>
      </trkpt>
      <trkpt lat="48.69094" lon="6.71902">
        <ele>241.4</ele>
        <time>2020-06-29T08:30:29Z</time>
      </trkpt>
      <trkpt lat="48.69094" lon="6.71893">
        <ele>241.3</ele>
        <time>2020-06-29T08:30:30Z</time>
      </trkpt>
      <trkpt lat="48.69094" lon="6.71883">
        <ele>241.2</ele>
        <time>2020-06-29T08:30:31Z</time>
      </trkpt>
      <trkpt lat="48.69094" lon="6.71873">
        <ele>241</ele>
        <time>2020-06-29T08:30:32Z</time>
      </trkpt>
      <trkpt lat="48.69094" lon="6.71864">
        <ele>241</ele>
        <time>2020-06-29T08:30:33Z</time>
      </trkpt>
      <trkpt lat="48.69093" lon="6.71852">
        <ele>240.9</ele>
        <time>2020-06-29T08:30:34Z</time>
      </trkpt>
      <trkpt lat="48.69092" lon="6.71841">
        <ele>240.8</ele>
        <time>2020-06-29T08:30:35Z</time>
      </trkpt>
      <trkpt lat="48.69092" lon="6.7183">
        <ele>240.8</ele>
        <time>2020-06-29T08:30:36Z</time>
      </trkpt>
      <trkpt lat="48.69091" lon="6.71819">
        <ele>240.7</ele>
        <time>2020-06-29T08:30:37Z</time>
      </trkpt>
      <trkpt lat="48.69089" lon="6.71809">
        <ele>240.7</ele>
        <time>2020-06-29T08:30:38Z</time>
      </trkpt>
      <trkpt lat="48.69087" lon="6.71799">
        <ele>240.6</ele>
        <time>2020-06-29T08:30:39Z</time>
      </trkpt>
      <trkpt lat="48.69085" lon="6.71788">
        <ele>240.5</ele>
        <time>2020-06-29T08:30:40Z</time>
      </trkpt>
      <trkpt lat="48.69083" lon="6.71776">
        <ele>240.6</ele>
        <time>2020-06-29T08:30:41Z</time>
      </trkpt>
      <trkpt lat="48.69081" lon="6.71765">
        <ele>240.6</ele>
        <time>2020-06-29T08:30:42Z</time>
      </trkpt>
      <trkpt lat="48.69079" lon="6.71755">
        <ele>240.5</ele>
        <time>2020-06-29T08:30:43Z</time>
      </trkpt>
      <trkpt lat="48.69077" lon="6.71746">
        <ele>240.5</ele>
        <time>2020-06-29T08:30:44Z</time>
      </trkpt>
      <trkpt lat="48.69075" lon="6.71737">
        <ele>240.4</ele>
        <time>2020-06-29T08:30:45Z</time>
      </trkpt>
      <trkpt lat="48.69072" lon="6.71727">
        <ele>240.4</ele>
        <time>2020-06-29T08:30:46Z</time>
      </trkpt>
      <trkpt lat="48.69069" lon="6.71716">
        <ele>240.3</ele>
        <time>2020-06-29T08:30:47Z</time>
      </trkpt>
      <trkpt lat="48.69067" lon="6.71706">
        <ele>240.2</ele>
        <time>2020-06-29T08:30:48Z</time>
      </trkpt>
      <trkpt lat="48.69064" lon="6.71697">
        <ele>240.1</ele>
        <time>2020-06-29T08:30:49Z</time>
      </trkpt>
      <trkpt lat="48.69062" lon="6.71687">
        <ele>240.1</ele>
        <time>2020-06-29T08:30:50Z</time>
      </trkpt>
      <trkpt lat="48.69059" lon="6.71678">
        <ele>240</ele>
        <time>2020-06-29T08:30:51Z</time>
      </trkpt>
      <trkpt lat="48.69057" lon="6.71668">
        <ele>239.9</ele>
        <time>2020-06-29T08:30:52Z</time>
      </trkpt>
      <trkpt lat="48.69055" lon="6.71659">
        <ele>239.8</ele>
        <time>2020-06-29T08:30:53Z</time>
      </trkpt>
      <trkpt lat="48.69053" lon="6.7165">
        <ele>239.8</ele>
        <time>2020-06-29T08:30:54Z</time>
      </trkpt>
      <trkpt lat="48.69051" lon="6.71641">
        <ele>239.8</ele>
        <time>2020-06-29T08:30:55Z</time>
      </trkpt>
      <trkpt lat="48.69049" lon="6.7163">
        <ele>239.8</ele>
        <time>2020-06-29T08:30:56Z</time>
      </trkpt>
      <trkpt lat="48.69048" lon="6.7162">
        <ele>239.7</ele>
        <time>2020-06-29T08:30:57Z</time>
      </trkpt>
      <trkpt lat="48.69046" lon="6.7161">
        <ele>239.7</ele>
        <time>2020-06-29T08:30:58Z</time>
      </trkpt>
      <trkpt lat="48.69045" lon="6.71601">
        <ele>239.6</ele>
        <time>2020-06-29T08:30:59Z</time>
      </trkpt>
      <trkpt lat="48.69043" lon="6.71591">
        <ele>239.6</ele>
        <time>2020-06-29T08:31:00Z</time>
      </trkpt>
      <trkpt lat="48.69043" lon="6.71581">
        <ele>239.5</ele>
        <time>2020-06-29T08:31:01Z</time>
      </trkpt>
      <trkpt lat="48.69042" lon="6.71571">
        <ele>239.4</ele>
        <time>2020-06-29T08:31:02Z</time>
      </trkpt>
      <trkpt lat="48.69041" lon="6.7156">
        <ele>239.4</ele>
        <time>2020-06-29T08:31:03Z</time>
      </trkpt>
      <trkpt lat="48.69041" lon="6.7155">
        <ele>239.3</ele>
        <time>2020-06-29T08:31:04Z</time>
      </trkpt>
      <trkpt lat="48.69041" lon="6.7154">
        <ele>239.3</ele>
        <time>2020-06-29T08:31:05Z</time>
      </trkpt>
      <trkpt lat="48.69041" lon="6.7153">
        <ele>239.3</ele>
        <time>2020-06-29T08:31:06Z</time>
      </trkpt>
      <trkpt lat="48.69041" lon="6.71521">
        <ele>239.2</ele>
        <time>2020-06-29T08:31:07Z</time>
      </trkpt>
      <trkpt lat="48.69042" lon="6.71511">
        <ele>239.2</ele>
        <time>2020-06-29T08:31:08Z</time>
      </trkpt>
      <trkpt lat="48.69041" lon="6.71502">
        <ele>239.2</ele>
        <time>2020-06-29T08:31:09Z</time>
      </trkpt>
      <trkpt lat="48.69042" lon="6.7149">
        <ele>239.1</ele>
        <time>2020-06-29T08:31:10Z</time>
      </trkpt>
      <trkpt lat="48.69042" lon="6.71478">
        <ele>239.1</ele>
        <time>2020-06-29T08:31:11Z</time>
      </trkpt>
      <trkpt lat="48.69042" lon="6.71467">
        <ele>239</ele>
        <time>2020-06-29T08:31:12Z</time>
      </trkpt>
      <trkpt lat="48.69041" lon="6.71456">
        <ele>239</ele>
        <time>2020-06-29T08:31:13Z</time>
      </trkpt>
      <trkpt lat="48.6904" lon="6.71444">
        <ele>238.9</ele>
        <time>2020-06-29T08:31:14Z</time>
      </trkpt>
      <trkpt lat="48.69038" lon="6.7143">
        <ele>238.8</ele>
        <time>2020-06-29T08:31:15Z</time>
      </trkpt>
      <trkpt lat="48.69038" lon="6.71419">
        <ele>238.7</ele>
        <time>2020-06-29T08:31:16Z</time>
      </trkpt>
      <trkpt lat="48.69037" lon="6.71407">
        <ele>238.6</ele>
        <time>2020-06-29T08:31:17Z</time>
      </trkpt>
      <trkpt lat="48.69037" lon="6.71396">
        <ele>238.4</ele>
        <time>2020-06-29T08:31:18Z</time>
      </trkpt>
      <trkpt lat="48.69036" lon="6.71385">
        <ele>238.4</ele>
        <time>2020-06-29T08:31:19Z</time>
      </trkpt>
      <trkpt lat="48.69035" lon="6.71374">
        <ele>238.3</ele>
        <time>2020-06-29T08:31:20Z</time>
      </trkpt>
      <trkpt lat="48.69034" lon="6.71365">
        <ele>238.2</ele>
        <time>2020-06-29T08:31:21Z</time>
      </trkpt>
      <trkpt lat="48.69033" lon="6.71356">
        <ele>238.1</ele>
        <time>2020-06-29T08:31:22Z</time>
      </trkpt>
      <trkpt lat="48.69033" lon="6.71347">
        <ele>238.1</ele>
        <time>2020-06-29T08:31:23Z</time>
      </trkpt>
      <trkpt lat="48.69032" lon="6.71338">
        <ele>238.1</ele>
        <time>2020-06-29T08:31:24Z</time>
      </trkpt>
      <trkpt lat="48.69032" lon="6.7133">
        <ele>238.1</ele>
        <time>2020-06-29T08:31:25Z</time>
      </trkpt>
      <trkpt lat="48.6903" lon="6.71321">
        <ele>238</ele>
        <time>2020-06-29T08:31:26Z</time>
      </trkpt>
      <trkpt lat="48.6903" lon="6.71312">
        <ele>238</ele>
        <time>2020-06-29T08:31:27Z</time>
      </trkpt>
      <trkpt lat="48.6903" lon="6.71301">
        <ele>237.9</ele>
        <time>2020-06-29T08:31:28Z</time>
      </trkpt>
      <trkpt lat="48.69029" lon="6.71291">
        <ele>237.8</ele>
        <time>2020-06-29T08:31:29Z</time>
      </trkpt>
      <trkpt lat="48.69028" lon="6.71282">
        <ele>237.8</ele>
        <time>2020-06-29T08:31:30Z</time>
      </trkpt>
      <trkpt lat="48.69027" lon="6.71271">
        <ele>237.7</ele>
        <time>2020-06-29T08:31:31Z</time>
      </trkpt>
      <trkpt lat="48.69026" lon="6.71262">
        <ele>237.7</ele>
        <time>2020-06-29T08:31:32Z</time>
      </trkpt>
      <trkpt lat="48.69025" lon="6.71253">
        <ele>237.7</ele>
        <time>2020-06-29T08:31:33Z</time>
      </trkpt>
      <trkpt lat="48.69025" lon="6.71244">
        <ele>237.6</ele>
        <time>2020-06-29T08:31:34Z</time>
      </trkpt>
      <trkpt lat="48.69025" lon="6.71232">
        <ele>237.5</ele>
        <time>2020-06-29T08:31:35Z</time>
      </trkpt>
      <trkpt lat="48.69024" lon="6.71223">
        <ele>237.5</ele>
        <time>2020-06-29T08:31:36Z</time>
      </trkpt>
      <trkpt lat="48.69023" lon="6.71215">
        <ele>237.4</ele>
        <time>2020-06-29T08:31:37Z</time>
      </trkpt>
      <trkpt lat="48.69023" lon="6.71207">
        <ele>237.3</ele>
        <time>2020-06-29T08:31:38Z</time>
      </trkpt>
      <trkpt lat="48.69022" lon="6.71196">
        <ele>237.3</ele>
        <time>2020-06-29T08:31:39Z</time>
      </trkpt>
      <trkpt lat="48.69021" lon="6.71186">
        <ele>237.2</ele>
        <time>2020-06-29T08:31:40Z</time>
      </trkpt>
      <trkpt lat="48.6902" lon="6.71176">
        <ele>237.2</ele>
        <time>2020-06-29T08:31:41Z</time>
      </trkpt>
      <trkpt lat="48.69019" lon="6.71167">
        <ele>237.2</ele>
        <time>2020-06-29T08:31:42Z</time>
      </trkpt>
      <trkpt lat="48.69019" lon="6.71156">
        <ele>237.2</ele>
        <time>2020-06-29T08:31:43Z</time>
      </trkpt>
      <trkpt lat="48.69019" lon="6.71146">
        <ele>237.1</ele>
        <time>2020-06-29T08:31:44Z</time>
      </trkpt>
      <trkpt lat="48.69019" lon="6.71138">
        <ele>237.1</ele>
        <time>2020-06-29T08:31:45Z</time>
      </trkpt>
      <trkpt lat="48.69019" lon="6.7113">
        <ele>237.1</ele>
        <time>2020-06-29T08:31:46Z</time>
      </trkpt>
      <trkpt lat="48.6902" lon="6.71122">
        <ele>237.1</ele>
        <time>2020-06-29T08:31:47Z</time>
      </trkpt>
      <trkpt lat="48.6902" lon="6.71114">
        <ele>237.1</ele>
        <time>2020-06-29T08:31:48Z</time>
      </trkpt>
      <trkpt lat="48.6902" lon="6.71106">
        <ele>237.1</ele>
        <time>2020-06-29T08:31:49Z</time>
      </trkpt>
      <trkpt lat="48.69021" lon="6.71101">
        <ele>237.1</ele>
        <time>2020-06-29T08:31:50Z</time>
      </trkpt>
      <trkpt lat="48.69022" lon="6.71094">
        <ele>237.1</ele>
        <time>2020-06-29T08:31:51Z</time>
      </trkpt>
      <trkpt lat="48.69024" lon="6.71084">
        <ele>237.1</ele>
        <time>2020-06-29T08:31:52Z</time>
      </trkpt>
      <trkpt lat="48.69026" lon="6.71078">
        <ele>237</ele>
        <time>2020-06-29T08:31:53Z</time>
      </trkpt>
      <trkpt lat="48.69028" lon="6.71068">
        <ele>237</ele>
        <time>2020-06-29T08:31:54Z</time>
      </trkpt>
      <trkpt lat="48.69028" lon="6.71058">
        <ele>237</ele>
        <time>2020-06-29T08:31:55Z</time>
      </trkpt>
      <trkpt lat="48.69028" lon="6.71049">
        <ele>237.1</ele>
        <time>2020-06-29T08:31:56Z</time>
      </trkpt>
      <trkpt lat="48.69027" lon="6.71042">
        <ele>237.2</ele>
        <time>2020-06-29T08:31:57Z</time>
      </trkpt>
      <trkpt lat="48.69025" lon="6.71037">
        <ele>237.3</ele>
        <time>2020-06-29T08:31:58Z</time>
      </trkpt>
      <trkpt lat="48.69024" lon="6.71032">
        <ele>237.4</ele>
        <time>2020-06-29T08:31:59Z</time>
      </trkpt>
      <trkpt lat="48.69024" lon="6.71028">
        <ele>237.5</ele>
        <time>2020-06-29T08:32:00Z</time>
      </trkpt>
      <trkpt lat="48.69024" lon="6.71026">
        <ele>237.5</ele>
        <time>2020-06-29T08:32:01Z</time>
      </trkpt>
      <trkpt lat="48.69024" lon="6.71022">
        <ele>237.1</ele>
        <time>2020-06-29T08:32:02Z</time>
      </trkpt>
      <trkpt lat="48.69025" lon="6.71016">
        <ele>236.9</ele>
        <time>2020-06-29T08:32:03Z</time>
      </trkpt>
      <trkpt lat="48.69025" lon="6.71009">
        <ele>236.6</ele>
        <time>2020-06-29T08:32:04Z</time>
      </trkpt>
      <trkpt lat="48.69026" lon="6.71">
        <ele>236.2</ele>
        <time>2020-06-29T08:32:05Z</time>
      </trkpt>
      <trkpt lat="48.69027" lon="6.70991">
        <ele>235.9</ele>
        <time>2020-06-29T08:32:06Z</time>
      </trkpt>
      <trkpt lat="48.69028" lon="6.70982">
        <ele>235.6</ele>
        <time>2020-06-29T08:32:07Z</time>
      </trkpt>
      <trkpt lat="48.69028" lon="6.70973">
        <ele>235.4</ele>
        <time>2020-06-29T08:32:08Z</time>
      </trkpt>
      <trkpt lat="48.69029" lon="6.70965">
        <ele>235.2</ele>
        <time>2020-06-29T08:32:09Z</time>
      </trkpt>
      <trkpt lat="48.69029" lon="6.70956">
        <ele>235</ele>
        <time>2020-06-29T08:32:10Z</time>
      </trkpt>
      <trkpt lat="48.69029" lon="6.70947">
        <ele>234.9</ele>
        <time>2020-06-29T08:32:11Z</time>
      </trkpt>
      <trkpt lat="48.69029" lon="6.70938">
        <ele>234.9</ele>
        <time>2020-06-29T08:32:12Z</time>
      </trkpt>
      <trkpt lat="48.6903" lon="6.70929">
        <ele>234.9</ele>
        <time>2020-06-29T08:32:13Z</time>
      </trkpt>
      <trkpt lat="48.6903" lon="6.70921">
        <ele>234.8</ele>
        <time>2020-06-29T08:32:14Z</time>
      </trkpt>
      <trkpt lat="48.69031" lon="6.70912">
        <ele>234.7</ele>
        <time>2020-06-29T08:32:15Z</time>
      </trkpt>
      <trkpt lat="48.69032" lon="6.70906">
        <ele>234.6</ele>
        <time>2020-06-29T08:32:16Z</time>
      </trkpt>
      <trkpt lat="48.69032" lon="6.70898">
        <ele>234.6</ele>
        <time>2020-06-29T08:32:17Z</time>
      </trkpt>
      <trkpt lat="48.69033" lon="6.70891">
        <ele>234.5</ele>
        <time>2020-06-29T08:32:18Z</time>
      </trkpt>
      <trkpt lat="48.69034" lon="6.7088">
        <ele>234.4</ele>
        <time>2020-06-29T08:32:19Z</time>
      </trkpt>
      <trkpt lat="48.69034" lon="6.70871">
        <ele>234.4</ele>
        <time>2020-06-29T08:32:20Z</time>
      </trkpt>
      <trkpt lat="48.69033" lon="6.70862">
        <ele>234.4</ele>
        <time>2020-06-29T08:32:21Z</time>
      </trkpt>
      <trkpt lat="48.69033" lon="6.70853">
        <ele>234.4</ele>
        <time>2020-06-29T08:32:22Z</time>
      </trkpt>
      <trkpt lat="48.69034" lon="6.70843">
        <ele>234.4</ele>
        <time>2020-06-29T08:32:23Z</time>
      </trkpt>
      <trkpt lat="48.69034" lon="6.70836">
        <ele>234.3</ele>
        <time>2020-06-29T08:32:24Z</time>
      </trkpt>
      <trkpt lat="48.69033" lon="6.70828">
        <ele>234.3</ele>
        <time>2020-06-29T08:32:25Z</time>
      </trkpt>
      <trkpt lat="48.69033" lon="6.70818">
        <ele>234.2</ele>
        <time>2020-06-29T08:32:26Z</time>
      </trkpt>
      <trkpt lat="48.69033" lon="6.70807">
        <ele>234.2</ele>
        <time>2020-06-29T08:32:27Z</time>
      </trkpt>
      <trkpt lat="48.69033" lon="6.70794">
        <ele>234.1</ele>
        <time>2020-06-29T08:32:28Z</time>
      </trkpt>
      <trkpt lat="48.69033" lon="6.70786">
        <ele>234.1</ele>
        <time>2020-06-29T08:32:29Z</time>
      </trkpt>
      <trkpt lat="48.69033" lon="6.70777">
        <ele>234.2</ele>
        <time>2020-06-29T08:32:30Z</time>
      </trkpt>
      <trkpt lat="48.69033" lon="6.70767">
        <ele>234.2</ele>
        <time>2020-06-29T08:32:31Z</time>
      </trkpt>
      <trkpt lat="48.69033" lon="6.70758">
        <ele>234.2</ele>
        <time>2020-06-29T08:32:32Z</time>
      </trkpt>
      <trkpt lat="48.69034" lon="6.70747">
        <ele>234.3</ele>
        <time>2020-06-29T08:32:33Z</time>
      </trkpt>
      <trkpt lat="48.69033" lon="6.70739">
        <ele>234.3</ele>
        <time>2020-06-29T08:32:34Z</time>
      </trkpt>
      <trkpt lat="48.69033" lon="6.70729">
        <ele>234.3</ele>
        <time>2020-06-29T08:32:35Z</time>
      </trkpt>
      <trkpt lat="48.69032" lon="6.70719">
        <ele>234.3</ele>
        <time>2020-06-29T08:32:36Z</time>
      </trkpt>
      <trkpt lat="48.69032" lon="6.7071">
        <ele>234.4</ele>
        <time>2020-06-29T08:32:37Z</time>
      </trkpt>
      <trkpt lat="48.69031" lon="6.70701">
        <ele>234.4</ele>
        <time>2020-06-29T08:32:38Z</time>
      </trkpt>
      <trkpt lat="48.69031" lon="6.70693">
        <ele>234.4</ele>
        <time>2020-06-29T08:32:39Z</time>
      </trkpt>
      <trkpt lat="48.6903" lon="6.70684">
        <ele>234.4</ele>
        <time>2020-06-29T08:32:40Z</time>
      </trkpt>
      <trkpt lat="48.69029" lon="6.70674">
        <ele>234.4</ele>
        <time>2020-06-29T08:32:41Z</time>
      </trkpt>
      <trkpt lat="48.69029" lon="6.70665">
        <ele>234.4</ele>
        <time>2020-06-29T08:32:42Z</time>
      </trkpt>
      <trkpt lat="48.69028" lon="6.70656">
        <ele>234.5</ele>
        <time>2020-06-29T08:32:43Z</time>
      </trkpt>
      <trkpt lat="48.69027" lon="6.70649">
        <ele>234.5</ele>
        <time>2020-06-29T08:32:44Z</time>
      </trkpt>
      <trkpt lat="48.69027" lon="6.70638">
        <ele>234.5</ele>
        <time>2020-06-29T08:32:45Z</time>
      </trkpt>
      <trkpt lat="48.69027" lon="6.70628">
        <ele>234.5</ele>
        <time>2020-06-29T08:32:46Z</time>
      </trkpt>
      <trkpt lat="48.69027" lon="6.70619">
        <ele>234.5</ele>
        <time>2020-06-29T08:32:47Z</time>
      </trkpt>
      <trkpt lat="48.69026" lon="6.70611">
        <ele>234.6</ele>
        <time>2020-06-29T08:32:48Z</time>
      </trkpt>
      <trkpt lat="48.69026" lon="6.70602">
        <ele>234.6</ele>
        <time>2020-06-29T08:32:49Z</time>
      </trkpt>
      <trkpt lat="48.69025" lon="6.70592">
        <ele>234.6</ele>
        <time>2020-06-29T08:32:50Z</time>
      </trkpt>
      <trkpt lat="48.69025" lon="6.70581">
        <ele>234.6</ele>
        <time>2020-06-29T08:32:51Z</time>
      </trkpt>
      <trkpt lat="48.69024" lon="6.70572">
        <ele>234.6</ele>
        <time>2020-06-29T08:32:52Z</time>
      </trkpt>
      <trkpt lat="48.69024" lon="6.70565">
        <ele>234.6</ele>
        <time>2020-06-29T08:32:53Z</time>
      </trkpt>
      <trkpt lat="48.69022" lon="6.70558">
        <ele>234.6</ele>
        <time>2020-06-29T08:32:54Z</time>
      </trkpt>
      <trkpt lat="48.6902" lon="6.70547">
        <ele>234.6</ele>
        <time>2020-06-29T08:32:55Z</time>
      </trkpt>
      <trkpt lat="48.69021" lon="6.70539">
        <ele>234.6</ele>
        <time>2020-06-29T08:32:56Z</time>
      </trkpt>
      <trkpt lat="48.69021" lon="6.70531">
        <ele>234.6</ele>
        <time>2020-06-29T08:32:57Z</time>
      </trkpt>
      <trkpt lat="48.69022" lon="6.70521">
        <ele>234.7</ele>
        <time>2020-06-29T08:32:58Z</time>
      </trkpt>
      <trkpt lat="48.69022" lon="6.70512">
        <ele>234.8</ele>
        <time>2020-06-29T08:32:59Z</time>
      </trkpt>
      <trkpt lat="48.69021" lon="6.70503">
        <ele>234.8</ele>
        <time>2020-06-29T08:33:00Z</time>
      </trkpt>
      <trkpt lat="48.69021" lon="6.70496">
        <ele>234.9</ele>
        <time>2020-06-29T08:33:01Z</time>
      </trkpt>
      <trkpt lat="48.69021" lon="6.70488">
        <ele>234.9</ele>
        <time>2020-06-29T08:33:02Z</time>
      </trkpt>
      <trkpt lat="48.69022" lon="6.70478">
        <ele>234.9</ele>
        <time>2020-06-29T08:33:03Z</time>
      </trkpt>
      <trkpt lat="48.69023" lon="6.70473">
        <ele>234.9</ele>
        <time>2020-06-29T08:33:04Z</time>
      </trkpt>
      <trkpt lat="48.69023" lon="6.70464">
        <ele>234.9</ele>
        <time>2020-06-29T08:33:05Z</time>
      </trkpt>
      <trkpt lat="48.69023" lon="6.70457">
        <ele>234.9</ele>
        <time>2020-06-29T08:33:06Z</time>
      </trkpt>
      <trkpt lat="48.69023" lon="6.70449">
        <ele>234.9</ele>
        <time>2020-06-29T08:33:07Z</time>
      </trkpt>
      <trkpt lat="48.69023" lon="6.70443">
        <ele>234.9</ele>
        <time>2020-06-29T08:33:08Z</time>
      </trkpt>
      <trkpt lat="48.69022" lon="6.70437">
        <ele>234.9</ele>
        <time>2020-06-29T08:33:09Z</time>
      </trkpt>
      <trkpt lat="48.69021" lon="6.7043">
        <ele>234.9</ele>
        <time>2020-06-29T08:33:10Z</time>
      </trkpt>
      <trkpt lat="48.69021" lon="6.70425">
        <ele>234.9</ele>
        <time>2020-06-29T08:33:11Z</time>
      </trkpt>
      <trkpt lat="48.6902" lon="6.70419">
        <ele>234.9</ele>
        <time>2020-06-29T08:33:12Z</time>
      </trkpt>
      <trkpt lat="48.6902" lon="6.70412">
        <ele>234.9</ele>
        <time>2020-06-29T08:33:13Z</time>
      </trkpt>
      <trkpt lat="48.69021" lon="6.70406">
        <ele>234.9</ele>
        <time>2020-06-29T08:33:14Z</time>
      </trkpt>
      <trkpt lat="48.69021" lon="6.70398">
        <ele>235</ele>
        <time>2020-06-29T08:33:15Z</time>
      </trkpt>
      <trkpt lat="48.69021" lon="6.7039">
        <ele>234.9</ele>
        <time>2020-06-29T08:33:16Z</time>
      </trkpt>
      <trkpt lat="48.69021" lon="6.70385">
        <ele>234.9</ele>
        <time>2020-06-29T08:33:17Z</time>
      </trkpt>
      <trkpt lat="48.69021" lon="6.7038">
        <ele>234.9</ele>
        <time>2020-06-29T08:33:18Z</time>
      </trkpt>
      <trkpt lat="48.69021" lon="6.70372">
        <ele>234.9</ele>
        <time>2020-06-29T08:33:19Z</time>
      </trkpt>
      <trkpt lat="48.69021" lon="6.70365">
        <ele>234.9</ele>
        <time>2020-06-29T08:33:20Z</time>
      </trkpt>
      <trkpt lat="48.69021" lon="6.70358">
        <ele>234.8</ele>
        <time>2020-06-29T08:33:21Z</time>
      </trkpt>
      <trkpt lat="48.6902" lon="6.7035">
        <ele>234.8</ele>
        <time>2020-06-29T08:33:22Z</time>
      </trkpt>
      <trkpt lat="48.6902" lon="6.70343">
        <ele>234.8</ele>
        <time>2020-06-29T08:33:23Z</time>
      </trkpt>
      <trkpt lat="48.69019" lon="6.70334">
        <ele>234.7</ele>
        <time>2020-06-29T08:33:24Z</time>
      </trkpt>
      <trkpt lat="48.69019" lon="6.70325">
        <ele>234.7</ele>
        <time>2020-06-29T08:33:25Z</time>
      </trkpt>
      <trkpt lat="48.69018" lon="6.70318">
        <ele>234.7</ele>
        <time>2020-06-29T08:33:26Z</time>
      </trkpt>
      <trkpt lat="48.69019" lon="6.70311">
        <ele>234.6</ele>
        <time>2020-06-29T08:33:27Z</time>
      </trkpt>
      <trkpt lat="48.69018" lon="6.70304">
        <ele>234.6</ele>
        <time>2020-06-29T08:33:28Z</time>
      </trkpt>
      <trkpt lat="48.69018" lon="6.70301">
        <ele>234.6</ele>
        <time>2020-06-29T08:33:29Z</time>
      </trkpt>
      <trkpt lat="48.69018" lon="6.70295">
        <ele>234.6</ele>
        <time>2020-06-29T08:33:30Z</time>
      </trkpt>
      <trkpt lat="48.69018" lon="6.70288">
        <ele>234.6</ele>
        <time>2020-06-29T08:33:31Z</time>
      </trkpt>
      <trkpt lat="48.69018" lon="6.70283">
        <ele>234.6</ele>
        <time>2020-06-29T08:33:32Z</time>
      </trkpt>
      <trkpt lat="48.69019" lon="6.70277">
        <ele>234.6</ele>
        <time>2020-06-29T08:33:33Z</time>
      </trkpt>
      <trkpt lat="48.6902" lon="6.70269">
        <ele>234.5</ele>
        <time>2020-06-29T08:33:34Z</time>
      </trkpt>
      <trkpt lat="48.6902" lon="6.7026">
        <ele>234.5</ele>
        <time>2020-06-29T08:33:35Z</time>
      </trkpt>
      <trkpt lat="48.69019" lon="6.70252">
        <ele>234.4</ele>
        <time>2020-06-29T08:33:36Z</time>
      </trkpt>
      <trkpt lat="48.69019" lon="6.70243">
        <ele>234.4</ele>
        <time>2020-06-29T08:33:37Z</time>
      </trkpt>
      <trkpt lat="48.69019" lon="6.70235">
        <ele>234.3</ele>
        <time>2020-06-29T08:33:38Z</time>
      </trkpt>
      <trkpt lat="48.69019" lon="6.70228">
        <ele>234.3</ele>
        <time>2020-06-29T08:33:39Z</time>
      </trkpt>
      <trkpt lat="48.69019" lon="6.70221">
        <ele>234.3</ele>
        <time>2020-06-29T08:33:40Z</time>
      </trkpt>
      <trkpt lat="48.69019" lon="6.70214">
        <ele>234.3</ele>
        <time>2020-06-29T08:33:41Z</time>
      </trkpt>
      <trkpt lat="48.69019" lon="6.70206">
        <ele>234.3</ele>
        <time>2020-06-29T08:33:42Z</time>
      </trkpt>
      <trkpt lat="48.69019" lon="6.70197">
        <ele>234.3</ele>
        <time>2020-06-29T08:33:43Z</time>
      </trkpt>
      <trkpt lat="48.69018" lon="6.70188">
        <ele>234.3</ele>
        <time>2020-06-29T08:33:44Z</time>
      </trkpt>
      <trkpt lat="48.69018" lon="6.7018">
        <ele>234.4</ele>
        <time>2020-06-29T08:33:45Z</time>
      </trkpt>
      <trkpt lat="48.69018" lon="6.70171">
        <ele>234.4</ele>
        <time>2020-06-29T08:33:46Z</time>
      </trkpt>
      <trkpt lat="48.69018" lon="6.70161">
        <ele>234.4</ele>
        <time>2020-06-29T08:33:47Z</time>
      </trkpt>
      <trkpt lat="48.69018" lon="6.70151">
        <ele>234.5</ele>
        <time>2020-06-29T08:33:48Z</time>
      </trkpt>
      <trkpt lat="48.69018" lon="6.70142">
        <ele>234.5</ele>
        <time>2020-06-29T08:33:49Z</time>
      </trkpt>
      <trkpt lat="48.69018" lon="6.70135">
        <ele>234.5</ele>
        <time>2020-06-29T08:33:50Z</time>
      </trkpt>
      <trkpt lat="48.69018" lon="6.70127">
        <ele>234.5</ele>
        <time>2020-06-29T08:33:51Z</time>
      </trkpt>
      <trkpt lat="48.69018" lon="6.70117">
        <ele>234.5</ele>
        <time>2020-06-29T08:33:52Z</time>
      </trkpt>
      <trkpt lat="48.69017" lon="6.70109">
        <ele>234.5</ele>
        <time>2020-06-29T08:33:53Z</time>
      </trkpt>
      <trkpt lat="48.69017" lon="6.70098">
        <ele>234.5</ele>
        <time>2020-06-29T08:33:54Z</time>
      </trkpt>
      <trkpt lat="48.69016" lon="6.7009">
        <ele>234.4</ele>
        <time>2020-06-29T08:33:55Z</time>
      </trkpt>
      <trkpt lat="48.69015" lon="6.7008">
        <ele>234.4</ele>
        <time>2020-06-29T08:33:56Z</time>
      </trkpt>
      <trkpt lat="48.69013" lon="6.70072">
        <ele>234.4</ele>
        <time>2020-06-29T08:33:57Z</time>
      </trkpt>
      <trkpt lat="48.69012" lon="6.70064">
        <ele>234.3</ele>
        <time>2020-06-29T08:33:58Z</time>
      </trkpt>
      <trkpt lat="48.69011" lon="6.70053">
        <ele>234.3</ele>
        <time>2020-06-29T08:33:59Z</time>
      </trkpt>
      <trkpt lat="48.6901" lon="6.70042">
        <ele>234.4</ele>
        <time>2020-06-29T08:34:00Z</time>
      </trkpt>
      <trkpt lat="48.69009" lon="6.70033">
        <ele>234.4</ele>
        <time>2020-06-29T08:34:01Z</time>
      </trkpt>
      <trkpt lat="48.69007" lon="6.70021">
        <ele>234.5</ele>
        <time>2020-06-29T08:34:02Z</time>
      </trkpt>
      <trkpt lat="48.69005" lon="6.70012">
        <ele>234.5</ele>
        <time>2020-06-29T08:34:03Z</time>
      </trkpt>
      <trkpt lat="48.69003" lon="6.70001">
        <ele>234.6</ele>
        <time>2020-06-29T08:34:04Z</time>
      </trkpt>
      <trkpt lat="48.69002" lon="6.69992">
        <ele>234.6</ele>
        <time>2020-06-29T08:34:05Z</time>
      </trkpt>
      <trkpt lat="48.69" lon="6.69984">
        <ele>234.7</ele>
        <time>2020-06-29T08:34:06Z</time>
      </trkpt>
      <trkpt lat="48.68999" lon="6.69974">
        <ele>234.7</ele>
        <time>2020-06-29T08:34:07Z</time>
      </trkpt>
      <trkpt lat="48.68997" lon="6.69963">
        <ele>234.6</ele>
        <time>2020-06-29T08:34:08Z</time>
      </trkpt>
      <trkpt lat="48.68994" lon="6.69954">
        <ele>234.7</ele>
        <time>2020-06-29T08:34:09Z</time>
      </trkpt>
      <trkpt lat="48.68992" lon="6.69943">
        <ele>234.7</ele>
        <time>2020-06-29T08:34:10Z</time>
      </trkpt>
      <trkpt lat="48.6899" lon="6.69935">
        <ele>234.7</ele>
        <time>2020-06-29T08:34:11Z</time>
      </trkpt>
      <trkpt lat="48.68989" lon="6.69926">
        <ele>234.7</ele>
        <time>2020-06-29T08:34:12Z</time>
      </trkpt>
      <trkpt lat="48.68987" lon="6.69917">
        <ele>234.7</ele>
        <time>2020-06-29T08:34:13Z</time>
      </trkpt>
      <trkpt lat="48.68986" lon="6.69907">
        <ele>234.7</ele>
        <time>2020-06-29T08:34:14Z</time>
      </trkpt>
      <trkpt lat="48.68984" lon="6.69898">
        <ele>234.7</ele>
        <time>2020-06-29T08:34:15Z</time>
      </trkpt>
      <trkpt lat="48.68982" lon="6.69889">
        <ele>234.8</ele>
        <time>2020-06-29T08:34:16Z</time>
      </trkpt>
      <trkpt lat="48.68981" lon="6.6988">
        <ele>234.8</ele>
        <time>2020-06-29T08:34:17Z</time>
      </trkpt>
      <trkpt lat="48.68979" lon="6.69871">
        <ele>234.8</ele>
        <time>2020-06-29T08:34:18Z</time>
      </trkpt>
      <trkpt lat="48.68978" lon="6.6986">
        <ele>234.7</ele>
        <time>2020-06-29T08:34:19Z</time>
      </trkpt>
      <trkpt lat="48.68976" lon="6.69849">
        <ele>234.7</ele>
        <time>2020-06-29T08:34:20Z</time>
      </trkpt>
      <trkpt lat="48.68975" lon="6.6984">
        <ele>234.7</ele>
        <time>2020-06-29T08:34:21Z</time>
      </trkpt>
      <trkpt lat="48.68974" lon="6.6983">
        <ele>234.7</ele>
        <time>2020-06-29T08:34:22Z</time>
      </trkpt>
      <trkpt lat="48.68972" lon="6.69819">
        <ele>234.6</ele>
        <time>2020-06-29T08:34:23Z</time>
      </trkpt>
      <trkpt lat="48.6897" lon="6.69808">
        <ele>234.7</ele>
        <time>2020-06-29T08:34:24Z</time>
      </trkpt>
      <trkpt lat="48.68968" lon="6.69798">
        <ele>234.7</ele>
        <time>2020-06-29T08:34:25Z</time>
      </trkpt>
      <trkpt lat="48.68967" lon="6.6979">
        <ele>234.7</ele>
        <time>2020-06-29T08:34:26Z</time>
      </trkpt>
      <trkpt lat="48.68966" lon="6.69781">
        <ele>234.7</ele>
        <time>2020-06-29T08:34:27Z</time>
      </trkpt>
      <trkpt lat="48.68965" lon="6.69772">
        <ele>234.7</ele>
        <time>2020-06-29T08:34:28Z</time>
      </trkpt>
      <trkpt lat="48.68964" lon="6.69764">
        <ele>234.7</ele>
        <time>2020-06-29T08:34:29Z</time>
      </trkpt>
      <trkpt lat="48.68963" lon="6.69756">
        <ele>234.7</ele>
        <time>2020-06-29T08:34:30Z</time>
      </trkpt>
      <trkpt lat="48.68962" lon="6.69746">
        <ele>234.7</ele>
        <time>2020-06-29T08:34:31Z</time>
      </trkpt>
      <trkpt lat="48.68961" lon="6.69737">
        <ele>234.7</ele>
        <time>2020-06-29T08:34:32Z</time>
      </trkpt>
      <trkpt lat="48.6896" lon="6.69729">
        <ele>234.7</ele>
        <time>2020-06-29T08:34:33Z</time>
      </trkpt>
      <trkpt lat="48.6896" lon="6.69719">
        <ele>234.9</ele>
        <time>2020-06-29T08:34:34Z</time>
      </trkpt>
      <trkpt lat="48.68959" lon="6.6971">
        <ele>234.9</ele>
        <time>2020-06-29T08:34:35Z</time>
      </trkpt>
      <trkpt lat="48.68958" lon="6.69701">
        <ele>234.9</ele>
        <time>2020-06-29T08:34:36Z</time>
      </trkpt>
      <trkpt lat="48.68959" lon="6.69692">
        <ele>235.1</ele>
        <time>2020-06-29T08:34:37Z</time>
      </trkpt>
      <trkpt lat="48.68959" lon="6.69686">
        <ele>235.1</ele>
        <time>2020-06-29T08:34:38Z</time>
      </trkpt>
      <trkpt lat="48.68959" lon="6.69678">
        <ele>235.1</ele>
        <time>2020-06-29T08:34:39Z</time>
      </trkpt>
      <trkpt lat="48.68959" lon="6.6967">
        <ele>235</ele>
        <time>2020-06-29T08:34:40Z</time>
      </trkpt>
      <trkpt lat="48.6896" lon="6.69659">
        <ele>235</ele>
        <time>2020-06-29T08:34:41Z</time>
      </trkpt>
      <trkpt lat="48.68961" lon="6.6965">
        <ele>235</ele>
        <time>2020-06-29T08:34:42Z</time>
      </trkpt>
      <trkpt lat="48.68961" lon="6.69641">
        <ele>235</ele>
        <time>2020-06-29T08:34:43Z</time>
      </trkpt>
      <trkpt lat="48.68962" lon="6.69631">
        <ele>235</ele>
        <time>2020-06-29T08:34:44Z</time>
      </trkpt>
      <trkpt lat="48.68963" lon="6.69621">
        <ele>235</ele>
        <time>2020-06-29T08:34:45Z</time>
      </trkpt>
      <trkpt lat="48.68964" lon="6.69612">
        <ele>235</ele>
        <time>2020-06-29T08:34:46Z</time>
      </trkpt>
      <trkpt lat="48.68965" lon="6.69603">
        <ele>235</ele>
        <time>2020-06-29T08:34:47Z</time>
      </trkpt>
      <trkpt lat="48.68967" lon="6.69593">
        <ele>235</ele>
        <time>2020-06-29T08:34:48Z</time>
      </trkpt>
      <trkpt lat="48.68968" lon="6.69581">
        <ele>235</ele>
        <time>2020-06-29T08:34:49Z</time>
      </trkpt>
      <trkpt lat="48.68969" lon="6.69571">
        <ele>234.9</ele>
        <time>2020-06-29T08:34:50Z</time>
      </trkpt>
      <trkpt lat="48.6897" lon="6.69561">
        <ele>234.9</ele>
        <time>2020-06-29T08:34:51Z</time>
      </trkpt>
      <trkpt lat="48.68971" lon="6.69552">
        <ele>234.9</ele>
        <time>2020-06-29T08:34:52Z</time>
      </trkpt>
      <trkpt lat="48.68972" lon="6.69543">
        <ele>234.9</ele>
        <time>2020-06-29T08:34:53Z</time>
      </trkpt>
      <trkpt lat="48.68974" lon="6.69533">
        <ele>234.9</ele>
        <time>2020-06-29T08:34:54Z</time>
      </trkpt>
      <trkpt lat="48.68974" lon="6.69524">
        <ele>235</ele>
        <time>2020-06-29T08:34:55Z</time>
      </trkpt>
      <trkpt lat="48.68975" lon="6.69514">
        <ele>235</ele>
        <time>2020-06-29T08:34:56Z</time>
      </trkpt>
      <trkpt lat="48.68976" lon="6.69503">
        <ele>235</ele>
        <time>2020-06-29T08:34:57Z</time>
      </trkpt>
      <trkpt lat="48.68976" lon="6.69493">
        <ele>235.1</ele>
        <time>2020-06-29T08:34:58Z</time>
      </trkpt>
      <trkpt lat="48.68977" lon="6.69484">
        <ele>235.1</ele>
        <time>2020-06-29T08:34:59Z</time>
      </trkpt>
      <trkpt lat="48.68978" lon="6.69473">
        <ele>235.1</ele>
        <time>2020-06-29T08:35:00Z</time>
      </trkpt>
      <trkpt lat="48.6898" lon="6.69464">
        <ele>235.1</ele>
        <time>2020-06-29T08:35:01Z</time>
      </trkpt>
      <trkpt lat="48.68981" lon="6.69452">
        <ele>235.1</ele>
        <time>2020-06-29T08:35:02Z</time>
      </trkpt>
      <trkpt lat="48.68983" lon="6.69439">
        <ele>235.1</ele>
        <time>2020-06-29T08:35:03Z</time>
      </trkpt>
      <trkpt lat="48.68984" lon="6.69429">
        <ele>235</ele>
        <time>2020-06-29T08:35:04Z</time>
      </trkpt>
      <trkpt lat="48.68985" lon="6.69418">
        <ele>235</ele>
        <time>2020-06-29T08:35:05Z</time>
      </trkpt>
      <trkpt lat="48.68986" lon="6.69407">
        <ele>234.9</ele>
        <time>2020-06-29T08:35:06Z</time>
      </trkpt>
      <trkpt lat="48.68986" lon="6.69397">
        <ele>234.9</ele>
        <time>2020-06-29T08:35:07Z</time>
      </trkpt>
      <trkpt lat="48.68986" lon="6.69387">
        <ele>234.8</ele>
        <time>2020-06-29T08:35:08Z</time>
      </trkpt>
      <trkpt lat="48.68986" lon="6.69376">
        <ele>234.7</ele>
        <time>2020-06-29T08:35:09Z</time>
      </trkpt>
      <trkpt lat="48.68986" lon="6.69365">
        <ele>234.7</ele>
        <time>2020-06-29T08:35:10Z</time>
      </trkpt>
      <trkpt lat="48.68986" lon="6.69355">
        <ele>234.6</ele>
        <time>2020-06-29T08:35:11Z</time>
      </trkpt>
      <trkpt lat="48.68986" lon="6.69346">
        <ele>234.6</ele>
        <time>2020-06-29T08:35:12Z</time>
      </trkpt>
      <trkpt lat="48.68986" lon="6.69336">
        <ele>234.6</ele>
        <time>2020-06-29T08:35:13Z</time>
      </trkpt>
      <trkpt lat="48.68986" lon="6.69325">
        <ele>234.6</ele>
        <time>2020-06-29T08:35:14Z</time>
      </trkpt>
      <trkpt lat="48.68986" lon="6.69315">
        <ele>234.6</ele>
        <time>2020-06-29T08:35:15Z</time>
      </trkpt>
      <trkpt lat="48.68985" lon="6.69305">
        <ele>234.6</ele>
        <time>2020-06-29T08:35:16Z</time>
      </trkpt>
      <trkpt lat="48.68985" lon="6.69296">
        <ele>234.5</ele>
        <time>2020-06-29T08:35:17Z</time>
      </trkpt>
      <trkpt lat="48.68984" lon="6.69286">
        <ele>234.5</ele>
        <time>2020-06-29T08:35:18Z</time>
      </trkpt>
      <trkpt lat="48.68983" lon="6.69277">
        <ele>234.5</ele>
        <time>2020-06-29T08:35:19Z</time>
      </trkpt>
      <trkpt lat="48.68982" lon="6.69266">
        <ele>234.6</ele>
        <time>2020-06-29T08:35:20Z</time>
      </trkpt>
      <trkpt lat="48.68981" lon="6.69255">
        <ele>234.6</ele>
        <time>2020-06-29T08:35:21Z</time>
      </trkpt>
      <trkpt lat="48.6898" lon="6.69244">
        <ele>234.6</ele>
        <time>2020-06-29T08:35:22Z</time>
      </trkpt>
      <trkpt lat="48.68978" lon="6.69234">
        <ele>234.5</ele>
        <time>2020-06-29T08:35:23Z</time>
      </trkpt>
      <trkpt lat="48.68976" lon="6.69224">
        <ele>234.5</ele>
        <time>2020-06-29T08:35:24Z</time>
      </trkpt>
      <trkpt lat="48.68974" lon="6.69213">
        <ele>234.5</ele>
        <time>2020-06-29T08:35:25Z</time>
      </trkpt>
      <trkpt lat="48.68972" lon="6.69203">
        <ele>234.5</ele>
        <time>2020-06-29T08:35:26Z</time>
      </trkpt>
      <trkpt lat="48.6897" lon="6.69192">
        <ele>234.4</ele>
        <time>2020-06-29T08:35:27Z</time>
      </trkpt>
      <trkpt lat="48.68967" lon="6.69181">
        <ele>234.4</ele>
        <time>2020-06-29T08:35:28Z</time>
      </trkpt>
      <trkpt lat="48.68965" lon="6.6917">
        <ele>234.3</ele>
        <time>2020-06-29T08:35:29Z</time>
      </trkpt>
      <trkpt lat="48.68963" lon="6.69159">
        <ele>234.3</ele>
        <time>2020-06-29T08:35:30Z</time>
      </trkpt>
      <trkpt lat="48.68961" lon="6.69149">
        <ele>234.3</ele>
        <time>2020-06-29T08:35:31Z</time>
      </trkpt>
      <trkpt lat="48.68958" lon="6.69139">
        <ele>234.2</ele>
        <time>2020-06-29T08:35:32Z</time>
      </trkpt>
      <trkpt lat="48.68956" lon="6.69129">
        <ele>234.2</ele>
        <time>2020-06-29T08:35:33Z</time>
      </trkpt>
      <trkpt lat="48.68954" lon="6.6912">
        <ele>234.1</ele>
        <time>2020-06-29T08:35:34Z</time>
      </trkpt>
      <trkpt lat="48.68952" lon="6.6911">
        <ele>234.1</ele>
        <time>2020-06-29T08:35:35Z</time>
      </trkpt>
      <trkpt lat="48.68949" lon="6.69102">
        <ele>234.1</ele>
        <time>2020-06-29T08:35:36Z</time>
      </trkpt>
      <trkpt lat="48.68946" lon="6.69092">
        <ele>234</ele>
        <time>2020-06-29T08:35:37Z</time>
      </trkpt>
      <trkpt lat="48.68943" lon="6.69082">
        <ele>233.9</ele>
        <time>2020-06-29T08:35:38Z</time>
      </trkpt>
      <trkpt lat="48.68939" lon="6.69073">
        <ele>233.9</ele>
        <time>2020-06-29T08:35:39Z</time>
      </trkpt>
      <trkpt lat="48.68935" lon="6.69064">
        <ele>233.9</ele>
        <time>2020-06-29T08:35:40Z</time>
      </trkpt>
      <trkpt lat="48.68931" lon="6.69055">
        <ele>233.9</ele>
        <time>2020-06-29T08:35:41Z</time>
      </trkpt>
      <trkpt lat="48.68928" lon="6.69047">
        <ele>233.9</ele>
        <time>2020-06-29T08:35:42Z</time>
      </trkpt>
      <trkpt lat="48.68925" lon="6.69038">
        <ele>233.9</ele>
        <time>2020-06-29T08:35:43Z</time>
      </trkpt>
      <trkpt lat="48.68922" lon="6.69029">
        <ele>233.9</ele>
        <time>2020-06-29T08:35:44Z</time>
      </trkpt>
      <trkpt lat="48.68917" lon="6.6902">
        <ele>233.8</ele>
        <time>2020-06-29T08:35:45Z</time>
      </trkpt>
      <trkpt lat="48.68914" lon="6.69012">
        <ele>233.8</ele>
        <time>2020-06-29T08:35:46Z</time>
      </trkpt>
      <trkpt lat="48.6891" lon="6.69002">
        <ele>233.7</ele>
        <time>2020-06-29T08:35:47Z</time>
      </trkpt>
      <trkpt lat="48.68907" lon="6.68993">
        <ele>233.6</ele>
        <time>2020-06-29T08:35:48Z</time>
      </trkpt>
      <trkpt lat="48.68903" lon="6.68983">
        <ele>233.6</ele>
        <time>2020-06-29T08:35:49Z</time>
      </trkpt>
      <trkpt lat="48.68899" lon="6.68975">
        <ele>233.5</ele>
        <time>2020-06-29T08:35:50Z</time>
      </trkpt>
      <trkpt lat="48.68895" lon="6.68966">
        <ele>233.5</ele>
        <time>2020-06-29T08:35:51Z</time>
      </trkpt>
      <trkpt lat="48.68891" lon="6.68957">
        <ele>233.5</ele>
        <time>2020-06-29T08:35:52Z</time>
      </trkpt>
      <trkpt lat="48.68887" lon="6.68948">
        <ele>233.5</ele>
        <time>2020-06-29T08:35:53Z</time>
      </trkpt>
      <trkpt lat="48.68884" lon="6.68939">
        <ele>233.5</ele>
        <time>2020-06-29T08:35:54Z</time>
      </trkpt>
      <trkpt lat="48.68879" lon="6.6893">
        <ele>233.4</ele>
        <time>2020-06-29T08:35:55Z</time>
      </trkpt>
      <trkpt lat="48.68876" lon="6.68921">
        <ele>233.4</ele>
        <time>2020-06-29T08:35:56Z</time>
      </trkpt>
      <trkpt lat="48.68873" lon="6.68913">
        <ele>233.4</ele>
        <time>2020-06-29T08:35:57Z</time>
      </trkpt>
      <trkpt lat="48.68869" lon="6.68903">
        <ele>233.4</ele>
        <time>2020-06-29T08:35:58Z</time>
      </trkpt>
      <trkpt lat="48.68866" lon="6.68894">
        <ele>233.4</ele>
        <time>2020-06-29T08:35:59Z</time>
      </trkpt>
      <trkpt lat="48.68863" lon="6.68886">
        <ele>233.5</ele>
        <time>2020-06-29T08:36:00Z</time>
      </trkpt>
      <trkpt lat="48.6886" lon="6.68878">
        <ele>233.6</ele>
        <time>2020-06-29T08:36:01Z</time>
      </trkpt>
      <trkpt lat="48.68857" lon="6.68867">
        <ele>233.6</ele>
        <time>2020-06-29T08:36:02Z</time>
      </trkpt>
      <trkpt lat="48.68854" lon="6.68855">
        <ele>233.6</ele>
        <time>2020-06-29T08:36:03Z</time>
      </trkpt>
      <trkpt lat="48.68851" lon="6.68846">
        <ele>233.6</ele>
        <time>2020-06-29T08:36:04Z</time>
      </trkpt>
      <trkpt lat="48.68849" lon="6.68836">
        <ele>233.6</ele>
        <time>2020-06-29T08:36:05Z</time>
      </trkpt>
      <trkpt lat="48.68847" lon="6.68826">
        <ele>233.6</ele>
        <time>2020-06-29T08:36:06Z</time>
      </trkpt>
      <trkpt lat="48.68845" lon="6.68815">
        <ele>233.6</ele>
        <time>2020-06-29T08:36:07Z</time>
      </trkpt>
      <trkpt lat="48.68843" lon="6.68805">
        <ele>233.6</ele>
        <time>2020-06-29T08:36:08Z</time>
      </trkpt>
      <trkpt lat="48.68842" lon="6.68796">
        <ele>233.6</ele>
        <time>2020-06-29T08:36:09Z</time>
      </trkpt>
      <trkpt lat="48.68841" lon="6.68785">
        <ele>233.6</ele>
        <time>2020-06-29T08:36:10Z</time>
      </trkpt>
      <trkpt lat="48.68841" lon="6.68775">
        <ele>233.6</ele>
        <time>2020-06-29T08:36:11Z</time>
      </trkpt>
      <trkpt lat="48.6884" lon="6.68766">
        <ele>233.6</ele>
        <time>2020-06-29T08:36:12Z</time>
      </trkpt>
      <trkpt lat="48.6884" lon="6.68755">
        <ele>233.6</ele>
        <time>2020-06-29T08:36:13Z</time>
      </trkpt>
      <trkpt lat="48.68839" lon="6.68746">
        <ele>233.6</ele>
        <time>2020-06-29T08:36:14Z</time>
      </trkpt>
      <trkpt lat="48.6884" lon="6.68737">
        <ele>233.6</ele>
        <time>2020-06-29T08:36:15Z</time>
      </trkpt>
      <trkpt lat="48.68841" lon="6.68727">
        <ele>233.6</ele>
        <time>2020-06-29T08:36:16Z</time>
      </trkpt>
      <trkpt lat="48.68842" lon="6.68718">
        <ele>233.6</ele>
        <time>2020-06-29T08:36:17Z</time>
      </trkpt>
      <trkpt lat="48.68843" lon="6.68706">
        <ele>233.6</ele>
        <time>2020-06-29T08:36:18Z</time>
      </trkpt>
      <trkpt lat="48.68844" lon="6.68695">
        <ele>233.5</ele>
        <time>2020-06-29T08:36:19Z</time>
      </trkpt>
      <trkpt lat="48.68845" lon="6.68687">
        <ele>233.5</ele>
        <time>2020-06-29T08:36:20Z</time>
      </trkpt>
      <trkpt lat="48.68846" lon="6.68677">
        <ele>233.5</ele>
        <time>2020-06-29T08:36:21Z</time>
      </trkpt>
      <trkpt lat="48.68848" lon="6.68667">
        <ele>233.5</ele>
        <time>2020-06-29T08:36:22Z</time>
      </trkpt>
      <trkpt lat="48.6885" lon="6.68658">
        <ele>233.5</ele>
        <time>2020-06-29T08:36:23Z</time>
      </trkpt>
      <trkpt lat="48.68852" lon="6.68648">
        <ele>233.5</ele>
        <time>2020-06-29T08:36:24Z</time>
      </trkpt>
      <trkpt lat="48.68854" lon="6.68639">
        <ele>233.5</ele>
        <time>2020-06-29T08:36:25Z</time>
      </trkpt>
      <trkpt lat="48.68857" lon="6.6863">
        <ele>233.5</ele>
        <time>2020-06-29T08:36:26Z</time>
      </trkpt>
      <trkpt lat="48.68861" lon="6.6862">
        <ele>233.6</ele>
        <time>2020-06-29T08:36:27Z</time>
      </trkpt>
      <trkpt lat="48.68863" lon="6.68611">
        <ele>233.6</ele>
        <time>2020-06-29T08:36:28Z</time>
      </trkpt>
      <trkpt lat="48.68866" lon="6.68602">
        <ele>233.6</ele>
        <time>2020-06-29T08:36:29Z</time>
      </trkpt>
      <trkpt lat="48.68869" lon="6.68592">
        <ele>233.6</ele>
        <time>2020-06-29T08:36:30Z</time>
      </trkpt>
      <trkpt lat="48.68872" lon="6.68584">
        <ele>233.6</ele>
        <time>2020-06-29T08:36:31Z</time>
      </trkpt>
      <trkpt lat="48.68875" lon="6.68577">
        <ele>233.6</ele>
        <time>2020-06-29T08:36:32Z</time>
      </trkpt>
      <trkpt lat="48.68879" lon="6.68572">
        <ele>233.6</ele>
        <time>2020-06-29T08:36:33Z</time>
      </trkpt>
      <trkpt lat="48.68882" lon="6.68566">
        <ele>233.6</ele>
        <time>2020-06-29T08:36:34Z</time>
      </trkpt>
      <trkpt lat="48.68887" lon="6.68559">
        <ele>233.6</ele>
        <time>2020-06-29T08:36:35Z</time>
      </trkpt>
      <trkpt lat="48.68891" lon="6.68552">
        <ele>233.6</ele>
        <time>2020-06-29T08:36:36Z</time>
      </trkpt>
      <trkpt lat="48.68895" lon="6.68547">
        <ele>233.6</ele>
        <time>2020-06-29T08:36:37Z</time>
      </trkpt>
      <trkpt lat="48.68898" lon="6.68541">
        <ele>233.7</ele>
        <time>2020-06-29T08:36:38Z</time>
      </trkpt>
      <trkpt lat="48.68901" lon="6.68538">
        <ele>233.7</ele>
        <time>2020-06-29T08:36:39Z</time>
      </trkpt>
      <trkpt lat="48.68904" lon="6.68533">
        <ele>233.7</ele>
        <time>2020-06-29T08:36:40Z</time>
      </trkpt>
      <trkpt lat="48.68907" lon="6.68528">
        <ele>233.8</ele>
        <time>2020-06-29T08:36:41Z</time>
      </trkpt>
      <trkpt lat="48.6891" lon="6.68523">
        <ele>233.8</ele>
        <time>2020-06-29T08:36:42Z</time>
      </trkpt>
      <trkpt lat="48.68912" lon="6.68517">
        <ele>233.8</ele>
        <time>2020-06-29T08:36:43Z</time>
      </trkpt>
      <trkpt lat="48.68914" lon="6.68514">
        <ele>233.8</ele>
        <time>2020-06-29T08:36:44Z</time>
      </trkpt>
      <trkpt lat="48.68914" lon="6.68513">
        <ele>233.9</ele>
        <time>2020-06-29T08:36:45Z</time>
      </trkpt>
      <trkpt lat="48.68915" lon="6.68513">
        <ele>233.9</ele>
        <time>2020-06-29T08:36:46Z</time>
      </trkpt>
      <trkpt lat="48.68916" lon="6.68513">
        <ele>233.9</ele>
        <time>2020-06-29T08:36:47Z</time>
      </trkpt>
      <trkpt lat="48.68916" lon="6.68515">
        <ele>233.9</ele>
        <time>2020-06-29T08:36:48Z</time>
      </trkpt>
      <trkpt lat="48.68916" lon="6.68517">
        <ele>233.9</ele>
        <time>2020-06-29T08:36:49Z</time>
      </trkpt>
      <trkpt lat="48.68916" lon="6.68517">
        <ele>233.9</ele>
        <time>2020-06-29T08:36:50Z</time>
      </trkpt>
      <trkpt lat="48.68916" lon="6.68518">
        <ele>233.9</ele>
        <time>2020-06-29T08:36:51Z</time>
      </trkpt>
      <trkpt lat="48.68917" lon="6.68519">
        <ele>233.9</ele>
        <time>2020-06-29T08:36:52Z</time>
      </trkpt>
      <trkpt lat="48.68917" lon="6.68518">
        <ele>233.9</ele>
        <time>2020-06-29T08:36:53Z</time>
      </trkpt>
      <trkpt lat="48.68917" lon="6.68519">
        <ele>233.9</ele>
        <time>2020-06-29T08:36:54Z</time>
      </trkpt>
      <trkpt lat="48.68916" lon="6.6852">
        <ele>233.9</ele>
        <time>2020-06-29T08:36:55Z</time>
      </trkpt>
      <trkpt lat="48.68916" lon="6.6852">
        <ele>233.9</ele>
        <time>2020-06-29T08:36:56Z</time>
      </trkpt>
      <trkpt lat="48.68923" lon="6.68517">
        <ele>233.9</ele>
        <time>2020-06-29T08:38:24Z</time>
      </trkpt>
      <trkpt lat="48.68923" lon="6.68513">
        <ele>233.9</ele>
        <time>2020-06-29T08:38:25Z</time>
      </trkpt>
      <trkpt lat="48.68923" lon="6.68509">
        <ele>233.8</ele>
        <time>2020-06-29T08:38:26Z</time>
      </trkpt>
      <trkpt lat="48.68924" lon="6.68504">
        <ele>233.5</ele>
        <time>2020-06-29T08:38:27Z</time>
      </trkpt>
      <trkpt lat="48.68925" lon="6.68502">
        <ele>233.3</ele>
        <time>2020-06-29T08:38:28Z</time>
      </trkpt>
      <trkpt lat="48.68926" lon="6.68497">
        <ele>233</ele>
        <time>2020-06-29T08:38:29Z</time>
      </trkpt>
      <trkpt lat="48.68929" lon="6.68491">
        <ele>232.6</ele>
        <time>2020-06-29T08:38:30Z</time>
      </trkpt>
      <trkpt lat="48.68932" lon="6.68484">
        <ele>232.1</ele>
        <time>2020-06-29T08:38:31Z</time>
      </trkpt>
      <trkpt lat="48.68936" lon="6.68477">
        <ele>231.7</ele>
        <time>2020-06-29T08:38:32Z</time>
      </trkpt>
      <trkpt lat="48.68939" lon="6.68469">
        <ele>231.3</ele>
        <time>2020-06-29T08:38:33Z</time>
      </trkpt>
      <trkpt lat="48.68942" lon="6.68461">
        <ele>231.1</ele>
        <time>2020-06-29T08:38:34Z</time>
      </trkpt>
      <trkpt lat="48.68945" lon="6.68453">
        <ele>231</ele>
        <time>2020-06-29T08:38:35Z</time>
      </trkpt>
      <trkpt lat="48.68948" lon="6.68446">
        <ele>230.9</ele>
        <time>2020-06-29T08:38:36Z</time>
      </trkpt>
      <trkpt lat="48.68951" lon="6.68438">
        <ele>230.8</ele>
        <time>2020-06-29T08:38:37Z</time>
      </trkpt>
      <trkpt lat="48.68953" lon="6.68429">
        <ele>230.8</ele>
        <time>2020-06-29T08:38:38Z</time>
      </trkpt>
      <trkpt lat="48.68955" lon="6.68419">
        <ele>230.7</ele>
        <time>2020-06-29T08:38:39Z</time>
      </trkpt>
      <trkpt lat="48.68956" lon="6.6841">
        <ele>230.7</ele>
        <time>2020-06-29T08:38:40Z</time>
      </trkpt>
      <trkpt lat="48.68957" lon="6.68401">
        <ele>230.7</ele>
        <time>2020-06-29T08:38:41Z</time>
      </trkpt>
      <trkpt lat="48.68958" lon="6.68393">
        <ele>230.6</ele>
        <time>2020-06-29T08:38:42Z</time>
      </trkpt>
      <trkpt lat="48.68958" lon="6.68386">
        <ele>230.6</ele>
        <time>2020-06-29T08:38:43Z</time>
      </trkpt>
      <trkpt lat="48.68959" lon="6.68378">
        <ele>230.5</ele>
        <time>2020-06-29T08:38:44Z</time>
      </trkpt>
      <trkpt lat="48.6896" lon="6.6837">
        <ele>230.5</ele>
        <time>2020-06-29T08:38:45Z</time>
      </trkpt>
      <trkpt lat="48.68959" lon="6.68364">
        <ele>230.5</ele>
        <time>2020-06-29T08:38:46Z</time>
      </trkpt>
      <trkpt lat="48.6896" lon="6.68356">
        <ele>230.4</ele>
        <time>2020-06-29T08:38:47Z</time>
      </trkpt>
      <trkpt lat="48.6896" lon="6.68348">
        <ele>230.4</ele>
        <time>2020-06-29T08:38:48Z</time>
      </trkpt>
      <trkpt lat="48.6896" lon="6.68341">
        <ele>230.4</ele>
        <time>2020-06-29T08:38:49Z</time>
      </trkpt>
      <trkpt lat="48.68961" lon="6.68332">
        <ele>230.5</ele>
        <time>2020-06-29T08:38:50Z</time>
      </trkpt>
      <trkpt lat="48.68961" lon="6.68327">
        <ele>230.5</ele>
        <time>2020-06-29T08:38:51Z</time>
      </trkpt>
      <trkpt lat="48.6896" lon="6.6832">
        <ele>230.5</ele>
        <time>2020-06-29T08:38:52Z</time>
      </trkpt>
      <trkpt lat="48.6896" lon="6.68313">
        <ele>230.5</ele>
        <time>2020-06-29T08:38:53Z</time>
      </trkpt>
      <trkpt lat="48.6896" lon="6.68305">
        <ele>230.5</ele>
        <time>2020-06-29T08:38:54Z</time>
      </trkpt>
      <trkpt lat="48.6896" lon="6.68301">
        <ele>230.5</ele>
        <time>2020-06-29T08:38:55Z</time>
      </trkpt>
      <trkpt lat="48.6896" lon="6.68294">
        <ele>230.5</ele>
        <time>2020-06-29T08:38:56Z</time>
      </trkpt>
      <trkpt lat="48.68959" lon="6.68285">
        <ele>230.5</ele>
        <time>2020-06-29T08:38:57Z</time>
      </trkpt>
      <trkpt lat="48.68959" lon="6.68278">
        <ele>230.5</ele>
        <time>2020-06-29T08:38:58Z</time>
      </trkpt>
      <trkpt lat="48.68958" lon="6.68269">
        <ele>230.4</ele>
        <time>2020-06-29T08:38:59Z</time>
      </trkpt>
      <trkpt lat="48.68956" lon="6.68261">
        <ele>230.4</ele>
        <time>2020-06-29T08:39:00Z</time>
      </trkpt>
      <trkpt lat="48.68955" lon="6.68253">
        <ele>230.3</ele>
        <time>2020-06-29T08:39:01Z</time>
      </trkpt>
      <trkpt lat="48.68954" lon="6.68246">
        <ele>230.3</ele>
        <time>2020-06-29T08:39:02Z</time>
      </trkpt>
      <trkpt lat="48.68953" lon="6.68238">
        <ele>230.3</ele>
        <time>2020-06-29T08:39:03Z</time>
      </trkpt>
      <trkpt lat="48.68952" lon="6.6823">
        <ele>230.3</ele>
        <time>2020-06-29T08:39:04Z</time>
      </trkpt>
      <trkpt lat="48.68951" lon="6.68218">
        <ele>230.4</ele>
        <time>2020-06-29T08:39:05Z</time>
      </trkpt>
      <trkpt lat="48.6895" lon="6.68211">
        <ele>230.4</ele>
        <time>2020-06-29T08:39:06Z</time>
      </trkpt>
      <trkpt lat="48.68949" lon="6.68202">
        <ele>230.4</ele>
        <time>2020-06-29T08:39:07Z</time>
      </trkpt>
      <trkpt lat="48.68948" lon="6.68192">
        <ele>230.4</ele>
        <time>2020-06-29T08:39:08Z</time>
      </trkpt>
      <trkpt lat="48.68947" lon="6.68182">
        <ele>230.4</ele>
        <time>2020-06-29T08:39:09Z</time>
      </trkpt>
      <trkpt lat="48.68946" lon="6.68173">
        <ele>230.4</ele>
        <time>2020-06-29T08:39:10Z</time>
      </trkpt>
      <trkpt lat="48.68946" lon="6.68164">
        <ele>230.4</ele>
        <time>2020-06-29T08:39:11Z</time>
      </trkpt>
      <trkpt lat="48.68947" lon="6.68156">
        <ele>230.5</ele>
        <time>2020-06-29T08:39:12Z</time>
      </trkpt>
      <trkpt lat="48.68949" lon="6.68146">
        <ele>230.5</ele>
        <time>2020-06-29T08:39:13Z</time>
      </trkpt>
      <trkpt lat="48.68951" lon="6.68138">
        <ele>230.5</ele>
        <time>2020-06-29T08:39:14Z</time>
      </trkpt>
      <trkpt lat="48.68951" lon="6.68131">
        <ele>230.6</ele>
        <time>2020-06-29T08:39:15Z</time>
      </trkpt>
      <trkpt lat="48.68952" lon="6.68122">
        <ele>230.6</ele>
        <time>2020-06-29T08:39:16Z</time>
      </trkpt>
      <trkpt lat="48.68954" lon="6.68111">
        <ele>230.5</ele>
        <time>2020-06-29T08:39:17Z</time>
      </trkpt>
      <trkpt lat="48.68955" lon="6.68102">
        <ele>230.5</ele>
        <time>2020-06-29T08:39:18Z</time>
      </trkpt>
      <trkpt lat="48.68956" lon="6.68093">
        <ele>230.5</ele>
        <time>2020-06-29T08:39:19Z</time>
      </trkpt>
      <trkpt lat="48.68959" lon="6.68083">
        <ele>230.4</ele>
        <time>2020-06-29T08:39:20Z</time>
      </trkpt>
      <trkpt lat="48.68961" lon="6.68073">
        <ele>230.4</ele>
        <time>2020-06-29T08:39:21Z</time>
      </trkpt>
      <trkpt lat="48.68963" lon="6.68065">
        <ele>230.4</ele>
        <time>2020-06-29T08:39:22Z</time>
      </trkpt>
      <trkpt lat="48.68964" lon="6.68055">
        <ele>230.4</ele>
        <time>2020-06-29T08:39:23Z</time>
      </trkpt>
      <trkpt lat="48.68967" lon="6.68046">
        <ele>230.4</ele>
        <time>2020-06-29T08:39:24Z</time>
      </trkpt>
      <trkpt lat="48.68969" lon="6.68036">
        <ele>230.4</ele>
        <time>2020-06-29T08:39:25Z</time>
      </trkpt>
      <trkpt lat="48.68971" lon="6.68027">
        <ele>230.4</ele>
        <time>2020-06-29T08:39:26Z</time>
      </trkpt>
      <trkpt lat="48.68974" lon="6.68019">
        <ele>230.4</ele>
        <time>2020-06-29T08:39:27Z</time>
      </trkpt>
      <trkpt lat="48.68976" lon="6.68011">
        <ele>230.4</ele>
        <time>2020-06-29T08:39:28Z</time>
      </trkpt>
      <trkpt lat="48.68978" lon="6.68002">
        <ele>230.4</ele>
        <time>2020-06-29T08:39:29Z</time>
      </trkpt>
      <trkpt lat="48.68982" lon="6.67994">
        <ele>230.4</ele>
        <time>2020-06-29T08:39:30Z</time>
      </trkpt>
      <trkpt lat="48.68986" lon="6.67984">
        <ele>230.3</ele>
        <time>2020-06-29T08:39:31Z</time>
      </trkpt>
      <trkpt lat="48.68989" lon="6.67976">
        <ele>230.3</ele>
        <time>2020-06-29T08:39:32Z</time>
      </trkpt>
      <trkpt lat="48.68993" lon="6.67967">
        <ele>230.2</ele>
        <time>2020-06-29T08:39:33Z</time>
      </trkpt>
      <trkpt lat="48.68996" lon="6.67957">
        <ele>230.2</ele>
        <time>2020-06-29T08:39:34Z</time>
      </trkpt>
      <trkpt lat="48.69" lon="6.67948">
        <ele>230.3</ele>
        <time>2020-06-29T08:39:35Z</time>
      </trkpt>
      <trkpt lat="48.69002" lon="6.67939">
        <ele>230.4</ele>
        <time>2020-06-29T08:39:36Z</time>
      </trkpt>
      <trkpt lat="48.69005" lon="6.6793">
        <ele>230.4</ele>
        <time>2020-06-29T08:39:37Z</time>
      </trkpt>
      <trkpt lat="48.69007" lon="6.67922">
        <ele>230.5</ele>
        <time>2020-06-29T08:39:38Z</time>
      </trkpt>
      <trkpt lat="48.6901" lon="6.67912">
        <ele>230.6</ele>
        <time>2020-06-29T08:39:39Z</time>
      </trkpt>
      <trkpt lat="48.69011" lon="6.67903">
        <ele>230.6</ele>
        <time>2020-06-29T08:39:40Z</time>
      </trkpt>
      <trkpt lat="48.69013" lon="6.67894">
        <ele>230.6</ele>
        <time>2020-06-29T08:39:41Z</time>
      </trkpt>
      <trkpt lat="48.69015" lon="6.67885">
        <ele>230.6</ele>
        <time>2020-06-29T08:39:42Z</time>
      </trkpt>
      <trkpt lat="48.69016" lon="6.67874">
        <ele>230.6</ele>
        <time>2020-06-29T08:39:43Z</time>
      </trkpt>
      <trkpt lat="48.69017" lon="6.67864">
        <ele>230.6</ele>
        <time>2020-06-29T08:39:44Z</time>
      </trkpt>
      <trkpt lat="48.69017" lon="6.67856">
        <ele>230.6</ele>
        <time>2020-06-29T08:39:45Z</time>
      </trkpt>
      <trkpt lat="48.69018" lon="6.67847">
        <ele>230.6</ele>
        <time>2020-06-29T08:39:46Z</time>
      </trkpt>
      <trkpt lat="48.69018" lon="6.67837">
        <ele>230.6</ele>
        <time>2020-06-29T08:39:47Z</time>
      </trkpt>
      <trkpt lat="48.69017" lon="6.67826">
        <ele>230.6</ele>
        <time>2020-06-29T08:39:48Z</time>
      </trkpt>
      <trkpt lat="48.69017" lon="6.67816">
        <ele>230.6</ele>
        <time>2020-06-29T08:39:49Z</time>
      </trkpt>
      <trkpt lat="48.69016" lon="6.67806">
        <ele>230.7</ele>
        <time>2020-06-29T08:39:50Z</time>
      </trkpt>
      <trkpt lat="48.69016" lon="6.67796">
        <ele>230.7</ele>
        <time>2020-06-29T08:39:51Z</time>
      </trkpt>
      <trkpt lat="48.69014" lon="6.67786">
        <ele>230.7</ele>
        <time>2020-06-29T08:39:52Z</time>
      </trkpt>
      <trkpt lat="48.69013" lon="6.67776">
        <ele>230.7</ele>
        <time>2020-06-29T08:39:53Z</time>
      </trkpt>
      <trkpt lat="48.69011" lon="6.67766">
        <ele>230.7</ele>
        <time>2020-06-29T08:39:54Z</time>
      </trkpt>
      <trkpt lat="48.69009" lon="6.67757">
        <ele>230.7</ele>
        <time>2020-06-29T08:39:55Z</time>
      </trkpt>
      <trkpt lat="48.69007" lon="6.67748">
        <ele>230.6</ele>
        <time>2020-06-29T08:39:56Z</time>
      </trkpt>
      <trkpt lat="48.69005" lon="6.6774">
        <ele>230.6</ele>
        <time>2020-06-29T08:39:57Z</time>
      </trkpt>
      <trkpt lat="48.69002" lon="6.67732">
        <ele>230.6</ele>
        <time>2020-06-29T08:39:58Z</time>
      </trkpt>
      <trkpt lat="48.68999" lon="6.67725">
        <ele>230.6</ele>
        <time>2020-06-29T08:39:59Z</time>
      </trkpt>
      <trkpt lat="48.68996" lon="6.67717">
        <ele>230.7</ele>
        <time>2020-06-29T08:40:00Z</time>
      </trkpt>
      <trkpt lat="48.68994" lon="6.6771">
        <ele>230.7</ele>
        <time>2020-06-29T08:40:01Z</time>
      </trkpt>
      <trkpt lat="48.68991" lon="6.67705">
        <ele>230.7</ele>
        <time>2020-06-29T08:40:02Z</time>
      </trkpt>
      <trkpt lat="48.68988" lon="6.67699">
        <ele>230.7</ele>
        <time>2020-06-29T08:40:03Z</time>
      </trkpt>
      <trkpt lat="48.68985" lon="6.67691">
        <ele>230.8</ele>
        <time>2020-06-29T08:40:04Z</time>
      </trkpt>
      <trkpt lat="48.68982" lon="6.67682">
        <ele>230.8</ele>
        <time>2020-06-29T08:40:05Z</time>
      </trkpt>
      <trkpt lat="48.68979" lon="6.67673">
        <ele>230.8</ele>
        <time>2020-06-29T08:40:06Z</time>
      </trkpt>
      <trkpt lat="48.68977" lon="6.67665">
        <ele>230.9</ele>
        <time>2020-06-29T08:40:07Z</time>
      </trkpt>
      <trkpt lat="48.68974" lon="6.67657">
        <ele>231</ele>
        <time>2020-06-29T08:40:08Z</time>
      </trkpt>
      <trkpt lat="48.68971" lon="6.67649">
        <ele>231.1</ele>
        <time>2020-06-29T08:40:09Z</time>
      </trkpt>
      <trkpt lat="48.68967" lon="6.67641">
        <ele>231.4</ele>
        <time>2020-06-29T08:40:10Z</time>
      </trkpt>
      <trkpt lat="48.68965" lon="6.67633">
        <ele>231.7</ele>
        <time>2020-06-29T08:40:11Z</time>
      </trkpt>
      <trkpt lat="48.68962" lon="6.67627">
        <ele>232.7</ele>
        <time>2020-06-29T08:40:12Z</time>
      </trkpt>
      <trkpt lat="48.68959" lon="6.67619">
        <ele>233.5</ele>
        <time>2020-06-29T08:40:13Z</time>
      </trkpt>
      <trkpt lat="48.68957" lon="6.6761">
        <ele>233.9</ele>
        <time>2020-06-29T08:40:14Z</time>
      </trkpt>
      <trkpt lat="48.68954" lon="6.676">
        <ele>234.1</ele>
        <time>2020-06-29T08:40:15Z</time>
      </trkpt>
      <trkpt lat="48.68952" lon="6.67592">
        <ele>234</ele>
        <time>2020-06-29T08:40:16Z</time>
      </trkpt>
      <trkpt lat="48.68949" lon="6.67583">
        <ele>234</ele>
        <time>2020-06-29T08:40:17Z</time>
      </trkpt>
      <trkpt lat="48.68949" lon="6.67576">
        <ele>233.9</ele>
        <time>2020-06-29T08:40:18Z</time>
      </trkpt>
      <trkpt lat="48.68947" lon="6.67567">
        <ele>233.9</ele>
        <time>2020-06-29T08:40:19Z</time>
      </trkpt>
      <trkpt lat="48.68945" lon="6.67559">
        <ele>233.8</ele>
        <time>2020-06-29T08:40:20Z</time>
      </trkpt>
      <trkpt lat="48.68943" lon="6.6755">
        <ele>233.8</ele>
        <time>2020-06-29T08:40:21Z</time>
      </trkpt>
      <trkpt lat="48.68942" lon="6.6754">
        <ele>233.8</ele>
        <time>2020-06-29T08:40:22Z</time>
      </trkpt>
      <trkpt lat="48.68941" lon="6.67531">
        <ele>233.8</ele>
        <time>2020-06-29T08:40:23Z</time>
      </trkpt>
      <trkpt lat="48.6894" lon="6.67522">
        <ele>233.8</ele>
        <time>2020-06-29T08:40:24Z</time>
      </trkpt>
      <trkpt lat="48.68939" lon="6.67513">
        <ele>233.8</ele>
        <time>2020-06-29T08:40:25Z</time>
      </trkpt>
      <trkpt lat="48.68938" lon="6.67503">
        <ele>233.8</ele>
        <time>2020-06-29T08:40:26Z</time>
      </trkpt>
      <trkpt lat="48.68936" lon="6.67494">
        <ele>233.9</ele>
        <time>2020-06-29T08:40:27Z</time>
      </trkpt>
      <trkpt lat="48.68935" lon="6.67486">
        <ele>233.8</ele>
        <time>2020-06-29T08:40:28Z</time>
      </trkpt>
      <trkpt lat="48.68935" lon="6.67475">
        <ele>233.8</ele>
        <time>2020-06-29T08:40:29Z</time>
      </trkpt>
      <trkpt lat="48.68934" lon="6.67465">
        <ele>233.7</ele>
        <time>2020-06-29T08:40:30Z</time>
      </trkpt>
      <trkpt lat="48.68933" lon="6.67456">
        <ele>233.7</ele>
        <time>2020-06-29T08:40:31Z</time>
      </trkpt>
      <trkpt lat="48.68932" lon="6.67447">
        <ele>233.7</ele>
        <time>2020-06-29T08:40:32Z</time>
      </trkpt>
      <trkpt lat="48.68931" lon="6.67437">
        <ele>233.7</ele>
        <time>2020-06-29T08:40:33Z</time>
      </trkpt>
      <trkpt lat="48.6893" lon="6.67429">
        <ele>233.7</ele>
        <time>2020-06-29T08:40:34Z</time>
      </trkpt>
      <trkpt lat="48.68929" lon="6.67418">
        <ele>233.7</ele>
        <time>2020-06-29T08:40:35Z</time>
      </trkpt>
      <trkpt lat="48.68928" lon="6.6741">
        <ele>233.7</ele>
        <time>2020-06-29T08:40:36Z</time>
      </trkpt>
      <trkpt lat="48.68927" lon="6.67401">
        <ele>233.6</ele>
        <time>2020-06-29T08:40:37Z</time>
      </trkpt>
      <trkpt lat="48.68927" lon="6.6739">
        <ele>233.6</ele>
        <time>2020-06-29T08:40:38Z</time>
      </trkpt>
      <trkpt lat="48.68927" lon="6.6738">
        <ele>233.6</ele>
        <time>2020-06-29T08:40:39Z</time>
      </trkpt>
      <trkpt lat="48.68927" lon="6.67371">
        <ele>233.6</ele>
        <time>2020-06-29T08:40:40Z</time>
      </trkpt>
      <trkpt lat="48.68927" lon="6.67362">
        <ele>233.5</ele>
        <time>2020-06-29T08:40:41Z</time>
      </trkpt>
      <trkpt lat="48.68928" lon="6.67353">
        <ele>233.5</ele>
        <time>2020-06-29T08:40:42Z</time>
      </trkpt>
      <trkpt lat="48.68929" lon="6.67344">
        <ele>233.5</ele>
        <time>2020-06-29T08:40:43Z</time>
      </trkpt>
      <trkpt lat="48.6893" lon="6.67335">
        <ele>233.5</ele>
        <time>2020-06-29T08:40:44Z</time>
      </trkpt>
      <trkpt lat="48.68931" lon="6.67325">
        <ele>233.5</ele>
        <time>2020-06-29T08:40:45Z</time>
      </trkpt>
      <trkpt lat="48.68931" lon="6.67316">
        <ele>233.4</ele>
        <time>2020-06-29T08:40:46Z</time>
      </trkpt>
      <trkpt lat="48.68931" lon="6.67306">
        <ele>233.4</ele>
        <time>2020-06-29T08:40:47Z</time>
      </trkpt>
      <trkpt lat="48.68932" lon="6.67297">
        <ele>233.3</ele>
        <time>2020-06-29T08:40:48Z</time>
      </trkpt>
      <trkpt lat="48.68932" lon="6.67287">
        <ele>233.3</ele>
        <time>2020-06-29T08:40:49Z</time>
      </trkpt>
      <trkpt lat="48.68933" lon="6.67279">
        <ele>233.3</ele>
        <time>2020-06-29T08:40:50Z</time>
      </trkpt>
      <trkpt lat="48.68932" lon="6.6727">
        <ele>233.2</ele>
        <time>2020-06-29T08:40:51Z</time>
      </trkpt>
      <trkpt lat="48.68931" lon="6.67261">
        <ele>233.2</ele>
        <time>2020-06-29T08:40:52Z</time>
      </trkpt>
      <trkpt lat="48.68931" lon="6.67252">
        <ele>233.1</ele>
        <time>2020-06-29T08:40:53Z</time>
      </trkpt>
      <trkpt lat="48.6893" lon="6.67242">
        <ele>233.1</ele>
        <time>2020-06-29T08:40:54Z</time>
      </trkpt>
      <trkpt lat="48.6893" lon="6.67231">
        <ele>233</ele>
        <time>2020-06-29T08:40:55Z</time>
      </trkpt>
      <trkpt lat="48.68929" lon="6.67223">
        <ele>233</ele>
        <time>2020-06-29T08:40:56Z</time>
      </trkpt>
      <trkpt lat="48.68928" lon="6.67213">
        <ele>232.9</ele>
        <time>2020-06-29T08:40:57Z</time>
      </trkpt>
      <trkpt lat="48.68927" lon="6.67203">
        <ele>232.9</ele>
        <time>2020-06-29T08:40:58Z</time>
      </trkpt>
      <trkpt lat="48.68926" lon="6.67192">
        <ele>232.8</ele>
        <time>2020-06-29T08:40:59Z</time>
      </trkpt>
      <trkpt lat="48.68926" lon="6.6718">
        <ele>232.8</ele>
        <time>2020-06-29T08:41:00Z</time>
      </trkpt>
      <trkpt lat="48.68925" lon="6.67172">
        <ele>232.8</ele>
        <time>2020-06-29T08:41:01Z</time>
      </trkpt>
      <trkpt lat="48.68924" lon="6.67161">
        <ele>232.8</ele>
        <time>2020-06-29T08:41:02Z</time>
      </trkpt>
      <trkpt lat="48.68924" lon="6.6715">
        <ele>232.8</ele>
        <time>2020-06-29T08:41:03Z</time>
      </trkpt>
      <trkpt lat="48.68923" lon="6.6714">
        <ele>232.7</ele>
        <time>2020-06-29T08:41:04Z</time>
      </trkpt>
      <trkpt lat="48.68923" lon="6.6713">
        <ele>232.7</ele>
        <time>2020-06-29T08:41:05Z</time>
      </trkpt>
      <trkpt lat="48.68922" lon="6.67121">
        <ele>232.7</ele>
        <time>2020-06-29T08:41:06Z</time>
      </trkpt>
      <trkpt lat="48.68921" lon="6.67112">
        <ele>232.6</ele>
        <time>2020-06-29T08:41:07Z</time>
      </trkpt>
      <trkpt lat="48.6892" lon="6.67103">
        <ele>232.6</ele>
        <time>2020-06-29T08:41:08Z</time>
      </trkpt>
      <trkpt lat="48.6892" lon="6.67093">
        <ele>232.5</ele>
        <time>2020-06-29T08:41:09Z</time>
      </trkpt>
      <trkpt lat="48.68919" lon="6.67083">
        <ele>232.5</ele>
        <time>2020-06-29T08:41:10Z</time>
      </trkpt>
      <trkpt lat="48.68918" lon="6.67074">
        <ele>232.4</ele>
        <time>2020-06-29T08:41:11Z</time>
      </trkpt>
      <trkpt lat="48.68917" lon="6.67064">
        <ele>232.3</ele>
        <time>2020-06-29T08:41:12Z</time>
      </trkpt>
      <trkpt lat="48.68916" lon="6.67056">
        <ele>232.3</ele>
        <time>2020-06-29T08:41:13Z</time>
      </trkpt>
      <trkpt lat="48.68916" lon="6.67046">
        <ele>232.3</ele>
        <time>2020-06-29T08:41:14Z</time>
      </trkpt>
      <trkpt lat="48.68915" lon="6.67036">
        <ele>232.3</ele>
        <time>2020-06-29T08:41:15Z</time>
      </trkpt>
      <trkpt lat="48.68915" lon="6.67026">
        <ele>232.3</ele>
        <time>2020-06-29T08:41:16Z</time>
      </trkpt>
      <trkpt lat="48.68914" lon="6.67016">
        <ele>232.3</ele>
        <time>2020-06-29T08:41:17Z</time>
      </trkpt>
      <trkpt lat="48.68914" lon="6.67006">
        <ele>232.2</ele>
        <time>2020-06-29T08:41:18Z</time>
      </trkpt>
      <trkpt lat="48.68913" lon="6.66997">
        <ele>232.2</ele>
        <time>2020-06-29T08:41:19Z</time>
      </trkpt>
      <trkpt lat="48.68913" lon="6.66989">
        <ele>232.1</ele>
        <time>2020-06-29T08:41:20Z</time>
      </trkpt>
      <trkpt lat="48.68912" lon="6.6698">
        <ele>232.1</ele>
        <time>2020-06-29T08:41:21Z</time>
      </trkpt>
      <trkpt lat="48.68911" lon="6.66973">
        <ele>232.1</ele>
        <time>2020-06-29T08:41:22Z</time>
      </trkpt>
      <trkpt lat="48.6891" lon="6.66964">
        <ele>232.1</ele>
        <time>2020-06-29T08:41:23Z</time>
      </trkpt>
      <trkpt lat="48.68909" lon="6.66954">
        <ele>232</ele>
        <time>2020-06-29T08:41:24Z</time>
      </trkpt>
      <trkpt lat="48.68907" lon="6.66944">
        <ele>232</ele>
        <time>2020-06-29T08:41:25Z</time>
      </trkpt>
      <trkpt lat="48.68906" lon="6.66933">
        <ele>232</ele>
        <time>2020-06-29T08:41:26Z</time>
      </trkpt>
      <trkpt lat="48.68905" lon="6.66925">
        <ele>232</ele>
        <time>2020-06-29T08:41:27Z</time>
      </trkpt>
      <trkpt lat="48.68905" lon="6.66914">
        <ele>232</ele>
        <time>2020-06-29T08:41:28Z</time>
      </trkpt>
      <trkpt lat="48.68903" lon="6.66904">
        <ele>232</ele>
        <time>2020-06-29T08:41:29Z</time>
      </trkpt>
      <trkpt lat="48.68901" lon="6.66894">
        <ele>232</ele>
        <time>2020-06-29T08:41:30Z</time>
      </trkpt>
      <trkpt lat="48.689" lon="6.66886">
        <ele>232</ele>
        <time>2020-06-29T08:41:31Z</time>
      </trkpt>
      <trkpt lat="48.68898" lon="6.66876">
        <ele>231.9</ele>
        <time>2020-06-29T08:41:32Z</time>
      </trkpt>
      <trkpt lat="48.68895" lon="6.66867">
        <ele>231.9</ele>
        <time>2020-06-29T08:41:33Z</time>
      </trkpt>
      <trkpt lat="48.68893" lon="6.66857">
        <ele>231.9</ele>
        <time>2020-06-29T08:41:34Z</time>
      </trkpt>
      <trkpt lat="48.6889" lon="6.66847">
        <ele>231.9</ele>
        <time>2020-06-29T08:41:35Z</time>
      </trkpt>
      <trkpt lat="48.68887" lon="6.66837">
        <ele>231.9</ele>
        <time>2020-06-29T08:41:36Z</time>
      </trkpt>
      <trkpt lat="48.68885" lon="6.66828">
        <ele>231.8</ele>
        <time>2020-06-29T08:41:37Z</time>
      </trkpt>
      <trkpt lat="48.68882" lon="6.66819">
        <ele>231.8</ele>
        <time>2020-06-29T08:41:38Z</time>
      </trkpt>
      <trkpt lat="48.68879" lon="6.6681">
        <ele>231.8</ele>
        <time>2020-06-29T08:41:39Z</time>
      </trkpt>
      <trkpt lat="48.68876" lon="6.66802">
        <ele>231.8</ele>
        <time>2020-06-29T08:41:40Z</time>
      </trkpt>
      <trkpt lat="48.68872" lon="6.66793">
        <ele>231.7</ele>
        <time>2020-06-29T08:41:41Z</time>
      </trkpt>
      <trkpt lat="48.68869" lon="6.66785">
        <ele>231.7</ele>
        <time>2020-06-29T08:41:42Z</time>
      </trkpt>
      <trkpt lat="48.68866" lon="6.66777">
        <ele>231.7</ele>
        <time>2020-06-29T08:41:43Z</time>
      </trkpt>
      <trkpt lat="48.68862" lon="6.66768">
        <ele>231.7</ele>
        <time>2020-06-29T08:41:44Z</time>
      </trkpt>
      <trkpt lat="48.68859" lon="6.66761">
        <ele>231.6</ele>
        <time>2020-06-29T08:41:45Z</time>
      </trkpt>
      <trkpt lat="48.68856" lon="6.66753">
        <ele>231.6</ele>
        <time>2020-06-29T08:41:46Z</time>
      </trkpt>
      <trkpt lat="48.68852" lon="6.66744">
        <ele>231.6</ele>
        <time>2020-06-29T08:41:47Z</time>
      </trkpt>
      <trkpt lat="48.68848" lon="6.66736">
        <ele>231.6</ele>
        <time>2020-06-29T08:41:48Z</time>
      </trkpt>
      <trkpt lat="48.68845" lon="6.66728">
        <ele>231.6</ele>
        <time>2020-06-29T08:41:49Z</time>
      </trkpt>
      <trkpt lat="48.68842" lon="6.66718">
        <ele>231.5</ele>
        <time>2020-06-29T08:41:50Z</time>
      </trkpt>
      <trkpt lat="48.68838" lon="6.66709">
        <ele>231.5</ele>
        <time>2020-06-29T08:41:51Z</time>
      </trkpt>
      <trkpt lat="48.68835" lon="6.66699">
        <ele>231.5</ele>
        <time>2020-06-29T08:41:52Z</time>
      </trkpt>
      <trkpt lat="48.68832" lon="6.66687">
        <ele>231.5</ele>
        <time>2020-06-29T08:41:53Z</time>
      </trkpt>
      <trkpt lat="48.68828" lon="6.66676">
        <ele>231.5</ele>
        <time>2020-06-29T08:41:54Z</time>
      </trkpt>
      <trkpt lat="48.68825" lon="6.66667">
        <ele>231.5</ele>
        <time>2020-06-29T08:41:55Z</time>
      </trkpt>
      <trkpt lat="48.68822" lon="6.66658">
        <ele>231.4</ele>
        <time>2020-06-29T08:41:56Z</time>
      </trkpt>
      <trkpt lat="48.68819" lon="6.66649">
        <ele>231.4</ele>
        <time>2020-06-29T08:41:57Z</time>
      </trkpt>
      <trkpt lat="48.68818" lon="6.6664">
        <ele>231.4</ele>
        <time>2020-06-29T08:41:58Z</time>
      </trkpt>
      <trkpt lat="48.68816" lon="6.6663">
        <ele>231.3</ele>
        <time>2020-06-29T08:41:59Z</time>
      </trkpt>
      <trkpt lat="48.68815" lon="6.6662">
        <ele>231.3</ele>
        <time>2020-06-29T08:42:00Z</time>
      </trkpt>
      <trkpt lat="48.68814" lon="6.66611">
        <ele>231.2</ele>
        <time>2020-06-29T08:42:01Z</time>
      </trkpt>
      <trkpt lat="48.68813" lon="6.66602">
        <ele>231.2</ele>
        <time>2020-06-29T08:42:02Z</time>
      </trkpt>
      <trkpt lat="48.68812" lon="6.66592">
        <ele>231.2</ele>
        <time>2020-06-29T08:42:03Z</time>
      </trkpt>
      <trkpt lat="48.68811" lon="6.66583">
        <ele>231.2</ele>
        <time>2020-06-29T08:42:04Z</time>
      </trkpt>
      <trkpt lat="48.6881" lon="6.66574">
        <ele>231.2</ele>
        <time>2020-06-29T08:42:05Z</time>
      </trkpt>
      <trkpt lat="48.6881" lon="6.66565">
        <ele>231.1</ele>
        <time>2020-06-29T08:42:06Z</time>
      </trkpt>
      <trkpt lat="48.6881" lon="6.66556">
        <ele>231.1</ele>
        <time>2020-06-29T08:42:07Z</time>
      </trkpt>
      <trkpt lat="48.6881" lon="6.66546">
        <ele>231.1</ele>
        <time>2020-06-29T08:42:08Z</time>
      </trkpt>
      <trkpt lat="48.6881" lon="6.66536">
        <ele>231.1</ele>
        <time>2020-06-29T08:42:09Z</time>
      </trkpt>
      <trkpt lat="48.6881" lon="6.66528">
        <ele>231</ele>
        <time>2020-06-29T08:42:10Z</time>
      </trkpt>
      <trkpt lat="48.6881" lon="6.66519">
        <ele>231</ele>
        <time>2020-06-29T08:42:11Z</time>
      </trkpt>
      <trkpt lat="48.6881" lon="6.66511">
        <ele>231</ele>
        <time>2020-06-29T08:42:12Z</time>
      </trkpt>
      <trkpt lat="48.68811" lon="6.66502">
        <ele>231</ele>
        <time>2020-06-29T08:42:13Z</time>
      </trkpt>
      <trkpt lat="48.68812" lon="6.66493">
        <ele>230.9</ele>
        <time>2020-06-29T08:42:14Z</time>
      </trkpt>
      <trkpt lat="48.68812" lon="6.66485">
        <ele>230.9</ele>
        <time>2020-06-29T08:42:15Z</time>
      </trkpt>
      <trkpt lat="48.68813" lon="6.66476">
        <ele>230.9</ele>
        <time>2020-06-29T08:42:16Z</time>
      </trkpt>
      <trkpt lat="48.68814" lon="6.66468">
        <ele>230.8</ele>
        <time>2020-06-29T08:42:17Z</time>
      </trkpt>
      <trkpt lat="48.68815" lon="6.6646">
        <ele>230.8</ele>
        <time>2020-06-29T08:42:18Z</time>
      </trkpt>
      <trkpt lat="48.68816" lon="6.66453">
        <ele>230.8</ele>
        <time>2020-06-29T08:42:19Z</time>
      </trkpt>
      <trkpt lat="48.68818" lon="6.66446">
        <ele>230.8</ele>
        <time>2020-06-29T08:42:20Z</time>
      </trkpt>
      <trkpt lat="48.6882" lon="6.66439">
        <ele>230.7</ele>
        <time>2020-06-29T08:42:21Z</time>
      </trkpt>
      <trkpt lat="48.68821" lon="6.66432">
        <ele>230.7</ele>
        <time>2020-06-29T08:42:22Z</time>
      </trkpt>
      <trkpt lat="48.68823" lon="6.66425">
        <ele>230.7</ele>
        <time>2020-06-29T08:42:23Z</time>
      </trkpt>
      <trkpt lat="48.68825" lon="6.66419">
        <ele>230.7</ele>
        <time>2020-06-29T08:42:24Z</time>
      </trkpt>
      <trkpt lat="48.68827" lon="6.66412">
        <ele>230.7</ele>
        <time>2020-06-29T08:42:25Z</time>
      </trkpt>
      <trkpt lat="48.68829" lon="6.66405">
        <ele>230.7</ele>
        <time>2020-06-29T08:42:26Z</time>
      </trkpt>
      <trkpt lat="48.68831" lon="6.66398">
        <ele>230.7</ele>
        <time>2020-06-29T08:42:27Z</time>
      </trkpt>
      <trkpt lat="48.68834" lon="6.66391">
        <ele>230.8</ele>
        <time>2020-06-29T08:42:28Z</time>
      </trkpt>
      <trkpt lat="48.68836" lon="6.66383">
        <ele>230.8</ele>
        <time>2020-06-29T08:42:29Z</time>
      </trkpt>
      <trkpt lat="48.68838" lon="6.66377">
        <ele>230.8</ele>
        <time>2020-06-29T08:42:30Z</time>
      </trkpt>
      <trkpt lat="48.68839" lon="6.66369">
        <ele>230.9</ele>
        <time>2020-06-29T08:42:31Z</time>
      </trkpt>
      <trkpt lat="48.68839" lon="6.66362">
        <ele>231</ele>
        <time>2020-06-29T08:42:32Z</time>
      </trkpt>
      <trkpt lat="48.68839" lon="6.66356">
        <ele>231.1</ele>
        <time>2020-06-29T08:42:33Z</time>
      </trkpt>
      <trkpt lat="48.68838" lon="6.66349">
        <ele>231.1</ele>
        <time>2020-06-29T08:42:34Z</time>
      </trkpt>
      <trkpt lat="48.68838" lon="6.66346">
        <ele>231</ele>
        <time>2020-06-29T08:42:35Z</time>
      </trkpt>
      <trkpt lat="48.68838" lon="6.66342">
        <ele>230.9</ele>
        <time>2020-06-29T08:42:36Z</time>
      </trkpt>
      <trkpt lat="48.68837" lon="6.66341">
        <ele>230.9</ele>
        <time>2020-06-29T08:42:37Z</time>
      </trkpt>
      <trkpt lat="48.68838" lon="6.66336">
        <ele>230.8</ele>
        <time>2020-06-29T08:42:38Z</time>
      </trkpt>
      <trkpt lat="48.6884" lon="6.66329">
        <ele>230.6</ele>
        <time>2020-06-29T08:42:39Z</time>
      </trkpt>
      <trkpt lat="48.68841" lon="6.66323">
        <ele>230.4</ele>
        <time>2020-06-29T08:42:40Z</time>
      </trkpt>
      <trkpt lat="48.68844" lon="6.66315">
        <ele>230.1</ele>
        <time>2020-06-29T08:42:41Z</time>
      </trkpt>
      <trkpt lat="48.68846" lon="6.66306">
        <ele>229.8</ele>
        <time>2020-06-29T08:42:42Z</time>
      </trkpt>
      <trkpt lat="48.68848" lon="6.66297">
        <ele>229.6</ele>
        <time>2020-06-29T08:42:43Z</time>
      </trkpt>
      <trkpt lat="48.6885" lon="6.66289">
        <ele>229.5</ele>
        <time>2020-06-29T08:42:44Z</time>
      </trkpt>
      <trkpt lat="48.68851" lon="6.66279">
        <ele>229.3</ele>
        <time>2020-06-29T08:42:45Z</time>
      </trkpt>
      <trkpt lat="48.68852" lon="6.66267">
        <ele>229.2</ele>
        <time>2020-06-29T08:42:46Z</time>
      </trkpt>
      <trkpt lat="48.68853" lon="6.66258">
        <ele>229.2</ele>
        <time>2020-06-29T08:42:47Z</time>
      </trkpt>
      <trkpt lat="48.68854" lon="6.66249">
        <ele>229.1</ele>
        <time>2020-06-29T08:42:48Z</time>
      </trkpt>
      <trkpt lat="48.68854" lon="6.66239">
        <ele>229.1</ele>
        <time>2020-06-29T08:42:49Z</time>
      </trkpt>
      <trkpt lat="48.68855" lon="6.6623">
        <ele>229</ele>
        <time>2020-06-29T08:42:50Z</time>
      </trkpt>
      <trkpt lat="48.68855" lon="6.66222">
        <ele>229</ele>
        <time>2020-06-29T08:42:51Z</time>
      </trkpt>
      <trkpt lat="48.68855" lon="6.66213">
        <ele>229</ele>
        <time>2020-06-29T08:42:52Z</time>
      </trkpt>
      <trkpt lat="48.68855" lon="6.66204">
        <ele>229</ele>
        <time>2020-06-29T08:42:53Z</time>
      </trkpt>
      <trkpt lat="48.68855" lon="6.66194">
        <ele>229.1</ele>
        <time>2020-06-29T08:42:54Z</time>
      </trkpt>
      <trkpt lat="48.68855" lon="6.66184">
        <ele>229.1</ele>
        <time>2020-06-29T08:42:55Z</time>
      </trkpt>
      <trkpt lat="48.68854" lon="6.66175">
        <ele>229.2</ele>
        <time>2020-06-29T08:42:56Z</time>
      </trkpt>
      <trkpt lat="48.68853" lon="6.66165">
        <ele>229.2</ele>
        <time>2020-06-29T08:42:57Z</time>
      </trkpt>
      <trkpt lat="48.68852" lon="6.66156">
        <ele>229.3</ele>
        <time>2020-06-29T08:42:58Z</time>
      </trkpt>
      <trkpt lat="48.68851" lon="6.66146">
        <ele>229.3</ele>
        <time>2020-06-29T08:42:59Z</time>
      </trkpt>
      <trkpt lat="48.6885" lon="6.66137">
        <ele>229.3</ele>
        <time>2020-06-29T08:43:00Z</time>
      </trkpt>
      <trkpt lat="48.68848" lon="6.66128">
        <ele>229.3</ele>
        <time>2020-06-29T08:43:01Z</time>
      </trkpt>
      <trkpt lat="48.68846" lon="6.6612">
        <ele>229.3</ele>
        <time>2020-06-29T08:43:02Z</time>
      </trkpt>
      <trkpt lat="48.68843" lon="6.66112">
        <ele>229.3</ele>
        <time>2020-06-29T08:43:03Z</time>
      </trkpt>
      <trkpt lat="48.68841" lon="6.66104">
        <ele>229.3</ele>
        <time>2020-06-29T08:43:04Z</time>
      </trkpt>
      <trkpt lat="48.68838" lon="6.66094">
        <ele>229.3</ele>
        <time>2020-06-29T08:43:05Z</time>
      </trkpt>
      <trkpt lat="48.68835" lon="6.66086">
        <ele>229.3</ele>
        <time>2020-06-29T08:43:06Z</time>
      </trkpt>
      <trkpt lat="48.68832" lon="6.66078">
        <ele>229.3</ele>
        <time>2020-06-29T08:43:07Z</time>
      </trkpt>
      <trkpt lat="48.6883" lon="6.66071">
        <ele>229.3</ele>
        <time>2020-06-29T08:43:08Z</time>
      </trkpt>
      <trkpt lat="48.68827" lon="6.66064">
        <ele>229.3</ele>
        <time>2020-06-29T08:43:09Z</time>
      </trkpt>
      <trkpt lat="48.68823" lon="6.66055">
        <ele>229.4</ele>
        <time>2020-06-29T08:43:10Z</time>
      </trkpt>
      <trkpt lat="48.68819" lon="6.66048">
        <ele>229.4</ele>
        <time>2020-06-29T08:43:11Z</time>
      </trkpt>
      <trkpt lat="48.68816" lon="6.66041">
        <ele>229.4</ele>
        <time>2020-06-29T08:43:12Z</time>
      </trkpt>
      <trkpt lat="48.68811" lon="6.66033">
        <ele>229.5</ele>
        <time>2020-06-29T08:43:13Z</time>
      </trkpt>
      <trkpt lat="48.68807" lon="6.66026">
        <ele>229.5</ele>
        <time>2020-06-29T08:43:14Z</time>
      </trkpt>
      <trkpt lat="48.68803" lon="6.66019">
        <ele>229.6</ele>
        <time>2020-06-29T08:43:15Z</time>
      </trkpt>
      <trkpt lat="48.68799" lon="6.66012">
        <ele>229.6</ele>
        <time>2020-06-29T08:43:16Z</time>
      </trkpt>
      <trkpt lat="48.68796" lon="6.66005">
        <ele>229.6</ele>
        <time>2020-06-29T08:43:17Z</time>
      </trkpt>
      <trkpt lat="48.68792" lon="6.65996">
        <ele>229.6</ele>
        <time>2020-06-29T08:43:18Z</time>
      </trkpt>
      <trkpt lat="48.68789" lon="6.65989">
        <ele>229.6</ele>
        <time>2020-06-29T08:43:19Z</time>
      </trkpt>
      <trkpt lat="48.68785" lon="6.6598">
        <ele>229.6</ele>
        <time>2020-06-29T08:43:20Z</time>
      </trkpt>
      <trkpt lat="48.68782" lon="6.6597">
        <ele>229.5</ele>
        <time>2020-06-29T08:43:21Z</time>
      </trkpt>
      <trkpt lat="48.6878" lon="6.65962">
        <ele>229.5</ele>
        <time>2020-06-29T08:43:22Z</time>
      </trkpt>
      <trkpt lat="48.68778" lon="6.65955">
        <ele>229.5</ele>
        <time>2020-06-29T08:43:23Z</time>
      </trkpt>
      <trkpt lat="48.68775" lon="6.65947">
        <ele>229.5</ele>
        <time>2020-06-29T08:43:24Z</time>
      </trkpt>
      <trkpt lat="48.68774" lon="6.65938">
        <ele>229.5</ele>
        <time>2020-06-29T08:43:25Z</time>
      </trkpt>
      <trkpt lat="48.68772" lon="6.65929">
        <ele>229.5</ele>
        <time>2020-06-29T08:43:26Z</time>
      </trkpt>
      <trkpt lat="48.6877" lon="6.65919">
        <ele>229.5</ele>
        <time>2020-06-29T08:43:27Z</time>
      </trkpt>
      <trkpt lat="48.68767" lon="6.65911">
        <ele>229.6</ele>
        <time>2020-06-29T08:43:28Z</time>
      </trkpt>
      <trkpt lat="48.68766" lon="6.65903">
        <ele>229.6</ele>
        <time>2020-06-29T08:43:29Z</time>
      </trkpt>
      <trkpt lat="48.68764" lon="6.65893">
        <ele>229.6</ele>
        <time>2020-06-29T08:43:30Z</time>
      </trkpt>
      <trkpt lat="48.68763" lon="6.65885">
        <ele>229.7</ele>
        <time>2020-06-29T08:43:31Z</time>
      </trkpt>
      <trkpt lat="48.68762" lon="6.65876">
        <ele>229.7</ele>
        <time>2020-06-29T08:43:32Z</time>
      </trkpt>
      <trkpt lat="48.68762" lon="6.65868">
        <ele>229.6</ele>
        <time>2020-06-29T08:43:33Z</time>
      </trkpt>
      <trkpt lat="48.68762" lon="6.65858">
        <ele>229.6</ele>
        <time>2020-06-29T08:43:34Z</time>
      </trkpt>
      <trkpt lat="48.68762" lon="6.65849">
        <ele>229.5</ele>
        <time>2020-06-29T08:43:35Z</time>
      </trkpt>
      <trkpt lat="48.68762" lon="6.6584">
        <ele>229.4</ele>
        <time>2020-06-29T08:43:36Z</time>
      </trkpt>
      <trkpt lat="48.68763" lon="6.6583">
        <ele>229.3</ele>
        <time>2020-06-29T08:43:37Z</time>
      </trkpt>
      <trkpt lat="48.68762" lon="6.65822">
        <ele>229.3</ele>
        <time>2020-06-29T08:43:38Z</time>
      </trkpt>
      <trkpt lat="48.68762" lon="6.65814">
        <ele>229.2</ele>
        <time>2020-06-29T08:43:39Z</time>
      </trkpt>
      <trkpt lat="48.68761" lon="6.65806">
        <ele>229.2</ele>
        <time>2020-06-29T08:43:40Z</time>
      </trkpt>
      <trkpt lat="48.68761" lon="6.65798">
        <ele>229.1</ele>
        <time>2020-06-29T08:43:41Z</time>
      </trkpt>
      <trkpt lat="48.6876" lon="6.65789">
        <ele>229.1</ele>
        <time>2020-06-29T08:43:42Z</time>
      </trkpt>
      <trkpt lat="48.68759" lon="6.65781">
        <ele>229</ele>
        <time>2020-06-29T08:43:43Z</time>
      </trkpt>
      <trkpt lat="48.68759" lon="6.65773">
        <ele>229</ele>
        <time>2020-06-29T08:43:44Z</time>
      </trkpt>
      <trkpt lat="48.68758" lon="6.65765">
        <ele>229</ele>
        <time>2020-06-29T08:43:45Z</time>
      </trkpt>
      <trkpt lat="48.68757" lon="6.65754">
        <ele>229</ele>
        <time>2020-06-29T08:43:46Z</time>
      </trkpt>
      <trkpt lat="48.68755" lon="6.65747">
        <ele>229.1</ele>
        <time>2020-06-29T08:43:47Z</time>
      </trkpt>
      <trkpt lat="48.68753" lon="6.65738">
        <ele>229.1</ele>
        <time>2020-06-29T08:43:48Z</time>
      </trkpt>
      <trkpt lat="48.68752" lon="6.6573">
        <ele>229.1</ele>
        <time>2020-06-29T08:43:49Z</time>
      </trkpt>
      <trkpt lat="48.6875" lon="6.6572">
        <ele>229.1</ele>
        <time>2020-06-29T08:43:50Z</time>
      </trkpt>
      <trkpt lat="48.68748" lon="6.6571">
        <ele>229.1</ele>
        <time>2020-06-29T08:43:51Z</time>
      </trkpt>
      <trkpt lat="48.68746" lon="6.65703">
        <ele>229.1</ele>
        <time>2020-06-29T08:43:52Z</time>
      </trkpt>
      <trkpt lat="48.68744" lon="6.65693">
        <ele>229.1</ele>
        <time>2020-06-29T08:43:53Z</time>
      </trkpt>
      <trkpt lat="48.68742" lon="6.65684">
        <ele>229</ele>
        <time>2020-06-29T08:43:54Z</time>
      </trkpt>
      <trkpt lat="48.6874" lon="6.65677">
        <ele>229</ele>
        <time>2020-06-29T08:43:55Z</time>
      </trkpt>
      <trkpt lat="48.68737" lon="6.65669">
        <ele>229</ele>
        <time>2020-06-29T08:43:56Z</time>
      </trkpt>
      <trkpt lat="48.68734" lon="6.6566">
        <ele>229</ele>
        <time>2020-06-29T08:43:57Z</time>
      </trkpt>
      <trkpt lat="48.68732" lon="6.65652">
        <ele>228.9</ele>
        <time>2020-06-29T08:43:58Z</time>
      </trkpt>
      <trkpt lat="48.68729" lon="6.65643">
        <ele>228.9</ele>
        <time>2020-06-29T08:43:59Z</time>
      </trkpt>
      <trkpt lat="48.68726" lon="6.65637">
        <ele>228.9</ele>
        <time>2020-06-29T08:44:00Z</time>
      </trkpt>
      <trkpt lat="48.68723" lon="6.65629">
        <ele>228.9</ele>
        <time>2020-06-29T08:44:01Z</time>
      </trkpt>
      <trkpt lat="48.6872" lon="6.65621">
        <ele>228.9</ele>
        <time>2020-06-29T08:44:02Z</time>
      </trkpt>
      <trkpt lat="48.68717" lon="6.65613">
        <ele>228.9</ele>
        <time>2020-06-29T08:44:03Z</time>
      </trkpt>
      <trkpt lat="48.68713" lon="6.65604">
        <ele>228.9</ele>
        <time>2020-06-29T08:44:04Z</time>
      </trkpt>
      <trkpt lat="48.68709" lon="6.65597">
        <ele>228.9</ele>
        <time>2020-06-29T08:44:05Z</time>
      </trkpt>
      <trkpt lat="48.68705" lon="6.65591">
        <ele>228.9</ele>
        <time>2020-06-29T08:44:06Z</time>
      </trkpt>
      <trkpt lat="48.68701" lon="6.65583">
        <ele>229</ele>
        <time>2020-06-29T08:44:07Z</time>
      </trkpt>
      <trkpt lat="48.68696" lon="6.65577">
        <ele>229</ele>
        <time>2020-06-29T08:44:08Z</time>
      </trkpt>
      <trkpt lat="48.68692" lon="6.6557">
        <ele>229.1</ele>
        <time>2020-06-29T08:44:09Z</time>
      </trkpt>
      <trkpt lat="48.68687" lon="6.65564">
        <ele>229.1</ele>
        <time>2020-06-29T08:44:10Z</time>
      </trkpt>
      <trkpt lat="48.68683" lon="6.65558">
        <ele>229.2</ele>
        <time>2020-06-29T08:44:11Z</time>
      </trkpt>
      <trkpt lat="48.68678" lon="6.65552">
        <ele>229.2</ele>
        <time>2020-06-29T08:44:12Z</time>
      </trkpt>
      <trkpt lat="48.68674" lon="6.65546">
        <ele>229.2</ele>
        <time>2020-06-29T08:44:13Z</time>
      </trkpt>
      <trkpt lat="48.6867" lon="6.65539">
        <ele>229.2</ele>
        <time>2020-06-29T08:44:14Z</time>
      </trkpt>
      <trkpt lat="48.68665" lon="6.65533">
        <ele>229.2</ele>
        <time>2020-06-29T08:44:15Z</time>
      </trkpt>
      <trkpt lat="48.6866" lon="6.65528">
        <ele>229.2</ele>
        <time>2020-06-29T08:44:16Z</time>
      </trkpt>
      <trkpt lat="48.68656" lon="6.65522">
        <ele>229.2</ele>
        <time>2020-06-29T08:44:17Z</time>
      </trkpt>
      <trkpt lat="48.68651" lon="6.65516">
        <ele>229.2</ele>
        <time>2020-06-29T08:44:18Z</time>
      </trkpt>
      <trkpt lat="48.68646" lon="6.6551">
        <ele>229.3</ele>
        <time>2020-06-29T08:44:19Z</time>
      </trkpt>
      <trkpt lat="48.68641" lon="6.65506">
        <ele>229.3</ele>
        <time>2020-06-29T08:44:20Z</time>
      </trkpt>
      <trkpt lat="48.68636" lon="6.65501">
        <ele>229.3</ele>
        <time>2020-06-29T08:44:21Z</time>
      </trkpt>
      <trkpt lat="48.6863" lon="6.65494">
        <ele>229.3</ele>
        <time>2020-06-29T08:44:22Z</time>
      </trkpt>
      <trkpt lat="48.68625" lon="6.65488">
        <ele>229.3</ele>
        <time>2020-06-29T08:44:23Z</time>
      </trkpt>
      <trkpt lat="48.68619" lon="6.65481">
        <ele>229.4</ele>
        <time>2020-06-29T08:44:24Z</time>
      </trkpt>
      <trkpt lat="48.68614" lon="6.65476">
        <ele>229.4</ele>
        <time>2020-06-29T08:44:25Z</time>
      </trkpt>
      <trkpt lat="48.68609" lon="6.65471">
        <ele>229.4</ele>
        <time>2020-06-29T08:44:26Z</time>
      </trkpt>
      <trkpt lat="48.68604" lon="6.65466">
        <ele>229.4</ele>
        <time>2020-06-29T08:44:27Z</time>
      </trkpt>
      <trkpt lat="48.68598" lon="6.65461">
        <ele>229.3</ele>
        <time>2020-06-29T08:44:28Z</time>
      </trkpt>
      <trkpt lat="48.68594" lon="6.65456">
        <ele>229.2</ele>
        <time>2020-06-29T08:44:29Z</time>
      </trkpt>
      <trkpt lat="48.68589" lon="6.65451">
        <ele>229.1</ele>
        <time>2020-06-29T08:44:30Z</time>
      </trkpt>
      <trkpt lat="48.68585" lon="6.65446">
        <ele>229.1</ele>
        <time>2020-06-29T08:44:31Z</time>
      </trkpt>
      <trkpt lat="48.6858" lon="6.65442">
        <ele>229</ele>
        <time>2020-06-29T08:44:32Z</time>
      </trkpt>
      <trkpt lat="48.68576" lon="6.65437">
        <ele>229</ele>
        <time>2020-06-29T08:44:33Z</time>
      </trkpt>
      <trkpt lat="48.6857" lon="6.65432">
        <ele>228.9</ele>
        <time>2020-06-29T08:44:34Z</time>
      </trkpt>
      <trkpt lat="48.68565" lon="6.65426">
        <ele>228.9</ele>
        <time>2020-06-29T08:44:35Z</time>
      </trkpt>
      <trkpt lat="48.6856" lon="6.65421">
        <ele>229</ele>
        <time>2020-06-29T08:44:36Z</time>
      </trkpt>
      <trkpt lat="48.68555" lon="6.65415">
        <ele>229</ele>
        <time>2020-06-29T08:44:37Z</time>
      </trkpt>
      <trkpt lat="48.6855" lon="6.6541">
        <ele>229</ele>
        <time>2020-06-29T08:44:38Z</time>
      </trkpt>
      <trkpt lat="48.68544" lon="6.65404">
        <ele>229</ele>
        <time>2020-06-29T08:44:39Z</time>
      </trkpt>
      <trkpt lat="48.68539" lon="6.65398">
        <ele>229.1</ele>
        <time>2020-06-29T08:44:40Z</time>
      </trkpt>
      <trkpt lat="48.68534" lon="6.65392">
        <ele>229.1</ele>
        <time>2020-06-29T08:44:41Z</time>
      </trkpt>
      <trkpt lat="48.68528" lon="6.65386">
        <ele>229.1</ele>
        <time>2020-06-29T08:44:42Z</time>
      </trkpt>
      <trkpt lat="48.68523" lon="6.65381">
        <ele>229.1</ele>
        <time>2020-06-29T08:44:43Z</time>
      </trkpt>
      <trkpt lat="48.68518" lon="6.65375">
        <ele>229.1</ele>
        <time>2020-06-29T08:44:44Z</time>
      </trkpt>
      <trkpt lat="48.68513" lon="6.65368">
        <ele>229.1</ele>
        <time>2020-06-29T08:44:45Z</time>
      </trkpt>
      <trkpt lat="48.68507" lon="6.65362">
        <ele>229.1</ele>
        <time>2020-06-29T08:44:46Z</time>
      </trkpt>
      <trkpt lat="48.68501" lon="6.65357">
        <ele>229.1</ele>
        <time>2020-06-29T08:44:47Z</time>
      </trkpt>
      <trkpt lat="48.68496" lon="6.65351">
        <ele>229.1</ele>
        <time>2020-06-29T08:44:48Z</time>
      </trkpt>
      <trkpt lat="48.68491" lon="6.65345">
        <ele>229.1</ele>
        <time>2020-06-29T08:44:49Z</time>
      </trkpt>
      <trkpt lat="48.68485" lon="6.65338">
        <ele>229.1</ele>
        <time>2020-06-29T08:44:50Z</time>
      </trkpt>
      <trkpt lat="48.68481" lon="6.65332">
        <ele>229.1</ele>
        <time>2020-06-29T08:44:51Z</time>
      </trkpt>
      <trkpt lat="48.68478" lon="6.65326">
        <ele>229.1</ele>
        <time>2020-06-29T08:44:52Z</time>
      </trkpt>
      <trkpt lat="48.68474" lon="6.6532">
        <ele>229.1</ele>
        <time>2020-06-29T08:44:53Z</time>
      </trkpt>
      <trkpt lat="48.68469" lon="6.65314">
        <ele>229.1</ele>
        <time>2020-06-29T08:44:54Z</time>
      </trkpt>
      <trkpt lat="48.68465" lon="6.65305">
        <ele>229.1</ele>
        <time>2020-06-29T08:44:55Z</time>
      </trkpt>
      <trkpt lat="48.68461" lon="6.65296">
        <ele>229.1</ele>
        <time>2020-06-29T08:44:56Z</time>
      </trkpt>
      <trkpt lat="48.68457" lon="6.65289">
        <ele>229.1</ele>
        <time>2020-06-29T08:44:57Z</time>
      </trkpt>
      <trkpt lat="48.68454" lon="6.65282">
        <ele>229.1</ele>
        <time>2020-06-29T08:44:58Z</time>
      </trkpt>
      <trkpt lat="48.6845" lon="6.65274">
        <ele>229.1</ele>
        <time>2020-06-29T08:44:59Z</time>
      </trkpt>
      <trkpt lat="48.68447" lon="6.65267">
        <ele>229.1</ele>
        <time>2020-06-29T08:45:00Z</time>
      </trkpt>
      <trkpt lat="48.68444" lon="6.6526">
        <ele>229.2</ele>
        <time>2020-06-29T08:45:01Z</time>
      </trkpt>
      <trkpt lat="48.6844" lon="6.65249">
        <ele>229.2</ele>
        <time>2020-06-29T08:45:02Z</time>
      </trkpt>
      <trkpt lat="48.68437" lon="6.65241">
        <ele>229.2</ele>
        <time>2020-06-29T08:45:03Z</time>
      </trkpt>
      <trkpt lat="48.68434" lon="6.65232">
        <ele>229.1</ele>
        <time>2020-06-29T08:45:04Z</time>
      </trkpt>
      <trkpt lat="48.6843" lon="6.65222">
        <ele>229.1</ele>
        <time>2020-06-29T08:45:05Z</time>
      </trkpt>
      <trkpt lat="48.68427" lon="6.65212">
        <ele>229.1</ele>
        <time>2020-06-29T08:45:06Z</time>
      </trkpt>
      <trkpt lat="48.68424" lon="6.65201">
        <ele>229.1</ele>
        <time>2020-06-29T08:45:07Z</time>
      </trkpt>
      <trkpt lat="48.68422" lon="6.65193">
        <ele>229.1</ele>
        <time>2020-06-29T08:45:08Z</time>
      </trkpt>
      <trkpt lat="48.68419" lon="6.6518">
        <ele>229.1</ele>
        <time>2020-06-29T08:45:09Z</time>
      </trkpt>
      <trkpt lat="48.68417" lon="6.65172">
        <ele>229.1</ele>
        <time>2020-06-29T08:45:10Z</time>
      </trkpt>
      <trkpt lat="48.68416" lon="6.65164">
        <ele>229.1</ele>
        <time>2020-06-29T08:45:11Z</time>
      </trkpt>
      <trkpt lat="48.68415" lon="6.65155">
        <ele>229.2</ele>
        <time>2020-06-29T08:45:12Z</time>
      </trkpt>
      <trkpt lat="48.68414" lon="6.65146">
        <ele>229.2</ele>
        <time>2020-06-29T08:45:13Z</time>
      </trkpt>
      <trkpt lat="48.68413" lon="6.65137">
        <ele>229.2</ele>
        <time>2020-06-29T08:45:14Z</time>
      </trkpt>
      <trkpt lat="48.68412" lon="6.65129">
        <ele>229.2</ele>
        <time>2020-06-29T08:45:15Z</time>
      </trkpt>
      <trkpt lat="48.68411" lon="6.65121">
        <ele>229.2</ele>
        <time>2020-06-29T08:45:16Z</time>
      </trkpt>
      <trkpt lat="48.6841" lon="6.65113">
        <ele>229.2</ele>
        <time>2020-06-29T08:45:17Z</time>
      </trkpt>
      <trkpt lat="48.68409" lon="6.65106">
        <ele>229.2</ele>
        <time>2020-06-29T08:45:18Z</time>
      </trkpt>
      <trkpt lat="48.68408" lon="6.65093">
        <ele>229.2</ele>
        <time>2020-06-29T08:45:19Z</time>
      </trkpt>
      <trkpt lat="48.68407" lon="6.65083">
        <ele>229.3</ele>
        <time>2020-06-29T08:45:20Z</time>
      </trkpt>
      <trkpt lat="48.68407" lon="6.65072">
        <ele>229.3</ele>
        <time>2020-06-29T08:45:21Z</time>
      </trkpt>
      <trkpt lat="48.68406" lon="6.65062">
        <ele>229.3</ele>
        <time>2020-06-29T08:45:22Z</time>
      </trkpt>
      <trkpt lat="48.68406" lon="6.65052">
        <ele>229.4</ele>
        <time>2020-06-29T08:45:23Z</time>
      </trkpt>
      <trkpt lat="48.68406" lon="6.65043">
        <ele>229.4</ele>
        <time>2020-06-29T08:45:24Z</time>
      </trkpt>
      <trkpt lat="48.68406" lon="6.65033">
        <ele>229.4</ele>
        <time>2020-06-29T08:45:25Z</time>
      </trkpt>
      <trkpt lat="48.68407" lon="6.65025">
        <ele>229.5</ele>
        <time>2020-06-29T08:45:26Z</time>
      </trkpt>
      <trkpt lat="48.68408" lon="6.65018">
        <ele>229.5</ele>
        <time>2020-06-29T08:45:27Z</time>
      </trkpt>
      <trkpt lat="48.68408" lon="6.6501">
        <ele>229.5</ele>
        <time>2020-06-29T08:45:28Z</time>
      </trkpt>
      <trkpt lat="48.68409" lon="6.65002">
        <ele>229.5</ele>
        <time>2020-06-29T08:45:29Z</time>
      </trkpt>
      <trkpt lat="48.6841" lon="6.64993">
        <ele>229.5</ele>
        <time>2020-06-29T08:45:30Z</time>
      </trkpt>
      <trkpt lat="48.6841" lon="6.64984">
        <ele>229.5</ele>
        <time>2020-06-29T08:45:31Z</time>
      </trkpt>
      <trkpt lat="48.68411" lon="6.64979">
        <ele>229.5</ele>
        <time>2020-06-29T08:45:32Z</time>
      </trkpt>
      <trkpt lat="48.68412" lon="6.64971">
        <ele>229.5</ele>
        <time>2020-06-29T08:45:33Z</time>
      </trkpt>
      <trkpt lat="48.68414" lon="6.64963">
        <ele>229.5</ele>
        <time>2020-06-29T08:45:34Z</time>
      </trkpt>
      <trkpt lat="48.68415" lon="6.64955">
        <ele>229.5</ele>
        <time>2020-06-29T08:45:35Z</time>
      </trkpt>
      <trkpt lat="48.68416" lon="6.64949">
        <ele>229.5</ele>
        <time>2020-06-29T08:45:36Z</time>
      </trkpt>
      <trkpt lat="48.68418" lon="6.64942">
        <ele>229.5</ele>
        <time>2020-06-29T08:45:37Z</time>
      </trkpt>
      <trkpt lat="48.68419" lon="6.64935">
        <ele>229.5</ele>
        <time>2020-06-29T08:45:38Z</time>
      </trkpt>
      <trkpt lat="48.68421" lon="6.64928">
        <ele>229.5</ele>
        <time>2020-06-29T08:45:39Z</time>
      </trkpt>
      <trkpt lat="48.68422" lon="6.64921">
        <ele>229.5</ele>
        <time>2020-06-29T08:45:40Z</time>
      </trkpt>
      <trkpt lat="48.68423" lon="6.64915">
        <ele>229.5</ele>
        <time>2020-06-29T08:45:41Z</time>
      </trkpt>
      <trkpt lat="48.68424" lon="6.6491">
        <ele>229.5</ele>
        <time>2020-06-29T08:45:42Z</time>
      </trkpt>
      <trkpt lat="48.68425" lon="6.64903">
        <ele>229.5</ele>
        <time>2020-06-29T08:45:43Z</time>
      </trkpt>
      <trkpt lat="48.68427" lon="6.64896">
        <ele>229.6</ele>
        <time>2020-06-29T08:45:44Z</time>
      </trkpt>
      <trkpt lat="48.68428" lon="6.64893">
        <ele>229.6</ele>
        <time>2020-06-29T08:45:45Z</time>
      </trkpt>
      <trkpt lat="48.68429" lon="6.64888">
        <ele>229.6</ele>
        <time>2020-06-29T08:45:46Z</time>
      </trkpt>
      <trkpt lat="48.6843" lon="6.64884">
        <ele>229.6</ele>
        <time>2020-06-29T08:45:47Z</time>
      </trkpt>
      <trkpt lat="48.6843" lon="6.64882">
        <ele>229.6</ele>
        <time>2020-06-29T08:45:48Z</time>
      </trkpt>
      <trkpt lat="48.6843" lon="6.6488">
        <ele>229.6</ele>
        <time>2020-06-29T08:45:49Z</time>
      </trkpt>
      <trkpt lat="48.6843" lon="6.64879">
        <ele>229.6</ele>
        <time>2020-06-29T08:45:50Z</time>
      </trkpt>
      <trkpt lat="48.68431" lon="6.64876">
        <ele>229.6</ele>
        <time>2020-06-29T08:45:51Z</time>
      </trkpt>
      <trkpt lat="48.68432" lon="6.64874">
        <ele>229.5</ele>
        <time>2020-06-29T08:45:52Z</time>
      </trkpt>
      <trkpt lat="48.68432" lon="6.64872">
        <ele>229.5</ele>
        <time>2020-06-29T08:45:53Z</time>
      </trkpt>
      <trkpt lat="48.68433" lon="6.6487">
        <ele>229.5</ele>
        <time>2020-06-29T08:45:54Z</time>
      </trkpt>
      <trkpt lat="48.68434" lon="6.64867">
        <ele>229.5</ele>
        <time>2020-06-29T08:45:55Z</time>
      </trkpt>
      <trkpt lat="48.68435" lon="6.64865">
        <ele>229.5</ele>
        <time>2020-06-29T08:45:56Z</time>
      </trkpt>
      <trkpt lat="48.68436" lon="6.64863">
        <ele>229.5</ele>
        <time>2020-06-29T08:45:57Z</time>
      </trkpt>
      <trkpt lat="48.68437" lon="6.64861">
        <ele>229.5</ele>
        <time>2020-06-29T08:45:58Z</time>
      </trkpt>
      <trkpt lat="48.68438" lon="6.64858">
        <ele>229.5</ele>
        <time>2020-06-29T09:05:41Z</time>
      </trkpt>
      <trkpt lat="48.68439" lon="6.64856">
        <ele>229.4</ele>
        <time>2020-06-29T09:05:42Z</time>
      </trkpt>
      <trkpt lat="48.6844" lon="6.64853">
        <ele>229.4</ele>
        <time>2020-06-29T09:05:43Z</time>
      </trkpt>
      <trkpt lat="48.6844" lon="6.64851">
        <ele>229.4</ele>
        <time>2020-06-29T09:05:44Z</time>
      </trkpt>
      <trkpt lat="48.68441" lon="6.64847">
        <ele>229.4</ele>
        <time>2020-06-29T09:05:45Z</time>
      </trkpt>
      <trkpt lat="48.68441" lon="6.64846">
        <ele>229.4</ele>
        <time>2020-06-29T09:05:46Z</time>
      </trkpt>
      <trkpt lat="48.68442" lon="6.64841">
        <ele>229.4</ele>
        <time>2020-06-29T09:05:47Z</time>
      </trkpt>
      <trkpt lat="48.68443" lon="6.64839">
        <ele>229.4</ele>
        <time>2020-06-29T09:05:48Z</time>
      </trkpt>
      <trkpt lat="48.68444" lon="6.64835">
        <ele>229.4</ele>
        <time>2020-06-29T09:05:49Z</time>
      </trkpt>
      <trkpt lat="48.68445" lon="6.64832">
        <ele>229.4</ele>
        <time>2020-06-29T09:05:50Z</time>
      </trkpt>
      <trkpt lat="48.68446" lon="6.64829">
        <ele>229.3</ele>
        <time>2020-06-29T09:05:51Z</time>
      </trkpt>
      <trkpt lat="48.68448" lon="6.64824">
        <ele>229.3</ele>
        <time>2020-06-29T09:05:52Z</time>
      </trkpt>
      <trkpt lat="48.68448" lon="6.64823">
        <ele>229.3</ele>
        <time>2020-06-29T09:05:53Z</time>
      </trkpt>
      <trkpt lat="48.6845" lon="6.64819">
        <ele>229.3</ele>
        <time>2020-06-29T09:05:54Z</time>
      </trkpt>
      <trkpt lat="48.6845" lon="6.64814">
        <ele>229.3</ele>
        <time>2020-06-29T09:05:55Z</time>
      </trkpt>
      <trkpt lat="48.68451" lon="6.64809">
        <ele>229.3</ele>
        <time>2020-06-29T09:05:56Z</time>
      </trkpt>
      <trkpt lat="48.68453" lon="6.64803">
        <ele>229.3</ele>
        <time>2020-06-29T09:05:57Z</time>
      </trkpt>
      <trkpt lat="48.68456" lon="6.64799">
        <ele>229.3</ele>
        <time>2020-06-29T09:05:58Z</time>
      </trkpt>
      <trkpt lat="48.68457" lon="6.64794">
        <ele>229.3</ele>
        <time>2020-06-29T09:05:59Z</time>
      </trkpt>
      <trkpt lat="48.68458" lon="6.64789">
        <ele>229.3</ele>
        <time>2020-06-29T09:06:00Z</time>
      </trkpt>
      <trkpt lat="48.68459" lon="6.64784">
        <ele>229.3</ele>
        <time>2020-06-29T09:06:01Z</time>
      </trkpt>
      <trkpt lat="48.68461" lon="6.6478">
        <ele>229.3</ele>
        <time>2020-06-29T09:06:02Z</time>
      </trkpt>
      <trkpt lat="48.68462" lon="6.64776">
        <ele>229.3</ele>
        <time>2020-06-29T09:06:03Z</time>
      </trkpt>
      <trkpt lat="48.68464" lon="6.6477">
        <ele>229.3</ele>
        <time>2020-06-29T09:06:04Z</time>
      </trkpt>
      <trkpt lat="48.68466" lon="6.64764">
        <ele>229.3</ele>
        <time>2020-06-29T09:06:05Z</time>
      </trkpt>
      <trkpt lat="48.68468" lon="6.64757">
        <ele>229.3</ele>
        <time>2020-06-29T09:06:06Z</time>
      </trkpt>
      <trkpt lat="48.68469" lon="6.64752">
        <ele>229.3</ele>
        <time>2020-06-29T09:06:07Z</time>
      </trkpt>
      <trkpt lat="48.6847" lon="6.64745">
        <ele>229.3</ele>
        <time>2020-06-29T09:06:08Z</time>
      </trkpt>
      <trkpt lat="48.68471" lon="6.6474">
        <ele>229.2</ele>
        <time>2020-06-29T09:06:09Z</time>
      </trkpt>
      <trkpt lat="48.68473" lon="6.64734">
        <ele>229.2</ele>
        <time>2020-06-29T09:06:10Z</time>
      </trkpt>
      <trkpt lat="48.68475" lon="6.64728">
        <ele>229.2</ele>
        <time>2020-06-29T09:06:11Z</time>
      </trkpt>
      <trkpt lat="48.68477" lon="6.64723">
        <ele>229.2</ele>
        <time>2020-06-29T09:06:12Z</time>
      </trkpt>
      <trkpt lat="48.68479" lon="6.64718">
        <ele>229.2</ele>
        <time>2020-06-29T09:06:13Z</time>
      </trkpt>
      <trkpt lat="48.68481" lon="6.64711">
        <ele>229.2</ele>
        <time>2020-06-29T09:06:14Z</time>
      </trkpt>
      <trkpt lat="48.68482" lon="6.64706">
        <ele>229.2</ele>
        <time>2020-06-29T09:06:15Z</time>
      </trkpt>
      <trkpt lat="48.68483" lon="6.64699">
        <ele>229.2</ele>
        <time>2020-06-29T09:06:16Z</time>
      </trkpt>
      <trkpt lat="48.68485" lon="6.64692">
        <ele>229.2</ele>
        <time>2020-06-29T09:06:17Z</time>
      </trkpt>
      <trkpt lat="48.68487" lon="6.64685">
        <ele>229.2</ele>
        <time>2020-06-29T09:06:18Z</time>
      </trkpt>
      <trkpt lat="48.68488" lon="6.64678">
        <ele>229.3</ele>
        <time>2020-06-29T09:06:19Z</time>
      </trkpt>
      <trkpt lat="48.6849" lon="6.64672">
        <ele>229.3</ele>
        <time>2020-06-29T09:06:20Z</time>
      </trkpt>
      <trkpt lat="48.68491" lon="6.64664">
        <ele>229.3</ele>
        <time>2020-06-29T09:06:21Z</time>
      </trkpt>
      <trkpt lat="48.68492" lon="6.64658">
        <ele>229.3</ele>
        <time>2020-06-29T09:06:22Z</time>
      </trkpt>
      <trkpt lat="48.68493" lon="6.64651">
        <ele>229.3</ele>
        <time>2020-06-29T09:06:23Z</time>
      </trkpt>
      <trkpt lat="48.68494" lon="6.64643">
        <ele>229.3</ele>
        <time>2020-06-29T09:06:24Z</time>
      </trkpt>
      <trkpt lat="48.68495" lon="6.64636">
        <ele>229.3</ele>
        <time>2020-06-29T09:06:25Z</time>
      </trkpt>
      <trkpt lat="48.68496" lon="6.64628">
        <ele>229.3</ele>
        <time>2020-06-29T09:06:26Z</time>
      </trkpt>
      <trkpt lat="48.68496" lon="6.64619">
        <ele>229.3</ele>
        <time>2020-06-29T09:06:27Z</time>
      </trkpt>
      <trkpt lat="48.68497" lon="6.6461">
        <ele>229.4</ele>
        <time>2020-06-29T09:06:28Z</time>
      </trkpt>
      <trkpt lat="48.68497" lon="6.64602">
        <ele>229.4</ele>
        <time>2020-06-29T09:06:29Z</time>
      </trkpt>
      <trkpt lat="48.68498" lon="6.64595">
        <ele>229.5</ele>
        <time>2020-06-29T09:06:30Z</time>
      </trkpt>
      <trkpt lat="48.68498" lon="6.64587">
        <ele>229.5</ele>
        <time>2020-06-29T09:06:31Z</time>
      </trkpt>
      <trkpt lat="48.68497" lon="6.64579">
        <ele>229.5</ele>
        <time>2020-06-29T09:06:32Z</time>
      </trkpt>
      <trkpt lat="48.68497" lon="6.64572">
        <ele>229.5</ele>
        <time>2020-06-29T09:06:33Z</time>
      </trkpt>
      <trkpt lat="48.68496" lon="6.64565">
        <ele>229.5</ele>
        <time>2020-06-29T09:06:34Z</time>
      </trkpt>
      <trkpt lat="48.68496" lon="6.64558">
        <ele>229.5</ele>
        <time>2020-06-29T09:06:35Z</time>
      </trkpt>
      <trkpt lat="48.68496" lon="6.64552">
        <ele>229.5</ele>
        <time>2020-06-29T09:06:36Z</time>
      </trkpt>
      <trkpt lat="48.68495" lon="6.64545">
        <ele>229.5</ele>
        <time>2020-06-29T09:06:37Z</time>
      </trkpt>
      <trkpt lat="48.68494" lon="6.64538">
        <ele>229.5</ele>
        <time>2020-06-29T09:06:38Z</time>
      </trkpt>
      <trkpt lat="48.68493" lon="6.6453">
        <ele>229.5</ele>
        <time>2020-06-29T09:06:39Z</time>
      </trkpt>
      <trkpt lat="48.68492" lon="6.64521">
        <ele>229.5</ele>
        <time>2020-06-29T09:06:40Z</time>
      </trkpt>
      <trkpt lat="48.6849" lon="6.64513">
        <ele>229.4</ele>
        <time>2020-06-29T09:06:41Z</time>
      </trkpt>
      <trkpt lat="48.68489" lon="6.64504">
        <ele>229.4</ele>
        <time>2020-06-29T09:06:42Z</time>
      </trkpt>
      <trkpt lat="48.68486" lon="6.64496">
        <ele>229.4</ele>
        <time>2020-06-29T09:06:43Z</time>
      </trkpt>
      <trkpt lat="48.68484" lon="6.64489">
        <ele>229.3</ele>
        <time>2020-06-29T09:06:44Z</time>
      </trkpt>
      <trkpt lat="48.6848" lon="6.64481">
        <ele>229.3</ele>
        <time>2020-06-29T09:06:45Z</time>
      </trkpt>
      <trkpt lat="48.68478" lon="6.64474">
        <ele>229.3</ele>
        <time>2020-06-29T09:06:46Z</time>
      </trkpt>
      <trkpt lat="48.68475" lon="6.64467">
        <ele>229.3</ele>
        <time>2020-06-29T09:06:47Z</time>
      </trkpt>
      <trkpt lat="48.68473" lon="6.6446">
        <ele>229.3</ele>
        <time>2020-06-29T09:06:48Z</time>
      </trkpt>
      <trkpt lat="48.68469" lon="6.64454">
        <ele>229.3</ele>
        <time>2020-06-29T09:06:49Z</time>
      </trkpt>
      <trkpt lat="48.68467" lon="6.64447">
        <ele>229.2</ele>
        <time>2020-06-29T09:06:50Z</time>
      </trkpt>
      <trkpt lat="48.68464" lon="6.64442">
        <ele>229.2</ele>
        <time>2020-06-29T09:06:51Z</time>
      </trkpt>
      <trkpt lat="48.6846" lon="6.64436">
        <ele>229.2</ele>
        <time>2020-06-29T09:06:52Z</time>
      </trkpt>
      <trkpt lat="48.68455" lon="6.6443">
        <ele>229.2</ele>
        <time>2020-06-29T09:06:53Z</time>
      </trkpt>
      <trkpt lat="48.68451" lon="6.64424">
        <ele>229.2</ele>
        <time>2020-06-29T09:06:54Z</time>
      </trkpt>
      <trkpt lat="48.68447" lon="6.64417">
        <ele>229.2</ele>
        <time>2020-06-29T09:06:55Z</time>
      </trkpt>
      <trkpt lat="48.68444" lon="6.64412">
        <ele>229.2</ele>
        <time>2020-06-29T09:06:56Z</time>
      </trkpt>
      <trkpt lat="48.68439" lon="6.64405">
        <ele>229.2</ele>
        <time>2020-06-29T09:06:57Z</time>
      </trkpt>
      <trkpt lat="48.68434" lon="6.64398">
        <ele>229.2</ele>
        <time>2020-06-29T09:06:58Z</time>
      </trkpt>
      <trkpt lat="48.6843" lon="6.6439">
        <ele>229.2</ele>
        <time>2020-06-29T09:06:59Z</time>
      </trkpt>
      <trkpt lat="48.68426" lon="6.64384">
        <ele>229.2</ele>
        <time>2020-06-29T09:07:00Z</time>
      </trkpt>
      <trkpt lat="48.68422" lon="6.64378">
        <ele>229.2</ele>
        <time>2020-06-29T09:07:01Z</time>
      </trkpt>
      <trkpt lat="48.68418" lon="6.64371">
        <ele>229.2</ele>
        <time>2020-06-29T09:07:02Z</time>
      </trkpt>
      <trkpt lat="48.68415" lon="6.64366">
        <ele>229.2</ele>
        <time>2020-06-29T09:07:03Z</time>
      </trkpt>
      <trkpt lat="48.68411" lon="6.64362">
        <ele>229.2</ele>
        <time>2020-06-29T09:07:04Z</time>
      </trkpt>
      <trkpt lat="48.68406" lon="6.64358">
        <ele>229.2</ele>
        <time>2020-06-29T09:07:05Z</time>
      </trkpt>
      <trkpt lat="48.68403" lon="6.64352">
        <ele>229.1</ele>
        <time>2020-06-29T09:07:06Z</time>
      </trkpt>
      <trkpt lat="48.68398" lon="6.64347">
        <ele>229.1</ele>
        <time>2020-06-29T09:07:07Z</time>
      </trkpt>
      <trkpt lat="48.68394" lon="6.6434">
        <ele>229.1</ele>
        <time>2020-06-29T09:07:08Z</time>
      </trkpt>
      <trkpt lat="48.6839" lon="6.64335">
        <ele>229.1</ele>
        <time>2020-06-29T09:07:09Z</time>
      </trkpt>
      <trkpt lat="48.68386" lon="6.6433">
        <ele>229</ele>
        <time>2020-06-29T09:07:10Z</time>
      </trkpt>
      <trkpt lat="48.68383" lon="6.64325">
        <ele>229</ele>
        <time>2020-06-29T09:07:11Z</time>
      </trkpt>
      <trkpt lat="48.68379" lon="6.64319">
        <ele>229</ele>
        <time>2020-06-29T09:07:12Z</time>
      </trkpt>
      <trkpt lat="48.68375" lon="6.64314">
        <ele>229</ele>
        <time>2020-06-29T09:07:13Z</time>
      </trkpt>
      <trkpt lat="48.68372" lon="6.6431">
        <ele>229</ele>
        <time>2020-06-29T09:07:14Z</time>
      </trkpt>
      <trkpt lat="48.68369" lon="6.64305">
        <ele>229</ele>
        <time>2020-06-29T09:07:15Z</time>
      </trkpt>
      <trkpt lat="48.68367" lon="6.643">
        <ele>229</ele>
        <time>2020-06-29T09:07:16Z</time>
      </trkpt>
      <trkpt lat="48.68364" lon="6.64294">
        <ele>229</ele>
        <time>2020-06-29T09:07:17Z</time>
      </trkpt>
      <trkpt lat="48.68361" lon="6.64288">
        <ele>229</ele>
        <time>2020-06-29T09:07:18Z</time>
      </trkpt>
      <trkpt lat="48.68358" lon="6.64281">
        <ele>229</ele>
        <time>2020-06-29T09:07:19Z</time>
      </trkpt>
      <trkpt lat="48.68356" lon="6.64275">
        <ele>229</ele>
        <time>2020-06-29T09:07:20Z</time>
      </trkpt>
      <trkpt lat="48.68354" lon="6.6427">
        <ele>229.1</ele>
        <time>2020-06-29T09:07:21Z</time>
      </trkpt>
      <trkpt lat="48.68352" lon="6.64264">
        <ele>229.1</ele>
        <time>2020-06-29T09:07:22Z</time>
      </trkpt>
      <trkpt lat="48.68349" lon="6.64257">
        <ele>229.1</ele>
        <time>2020-06-29T09:07:23Z</time>
      </trkpt>
      <trkpt lat="48.68348" lon="6.64248">
        <ele>229.1</ele>
        <time>2020-06-29T09:07:24Z</time>
      </trkpt>
      <trkpt lat="48.68346" lon="6.6424">
        <ele>229.1</ele>
        <time>2020-06-29T09:07:25Z</time>
      </trkpt>
      <trkpt lat="48.68342" lon="6.64233">
        <ele>229.1</ele>
        <time>2020-06-29T09:07:26Z</time>
      </trkpt>
      <trkpt lat="48.68339" lon="6.64225">
        <ele>229.1</ele>
        <time>2020-06-29T09:07:27Z</time>
      </trkpt>
      <trkpt lat="48.68337" lon="6.64219">
        <ele>229.1</ele>
        <time>2020-06-29T09:07:28Z</time>
      </trkpt>
      <trkpt lat="48.68335" lon="6.64209">
        <ele>229.1</ele>
        <time>2020-06-29T09:07:29Z</time>
      </trkpt>
      <trkpt lat="48.68333" lon="6.64201">
        <ele>229.1</ele>
        <time>2020-06-29T09:07:30Z</time>
      </trkpt>
      <trkpt lat="48.68331" lon="6.64193">
        <ele>229.1</ele>
        <time>2020-06-29T09:07:31Z</time>
      </trkpt>
      <trkpt lat="48.68329" lon="6.64184">
        <ele>229.2</ele>
        <time>2020-06-29T09:07:32Z</time>
      </trkpt>
      <trkpt lat="48.68327" lon="6.64174">
        <ele>229.2</ele>
        <time>2020-06-29T09:07:33Z</time>
      </trkpt>
      <trkpt lat="48.68325" lon="6.64164">
        <ele>229.2</ele>
        <time>2020-06-29T09:07:34Z</time>
      </trkpt>
      <trkpt lat="48.68323" lon="6.64155">
        <ele>229.2</ele>
        <time>2020-06-29T09:07:35Z</time>
      </trkpt>
      <trkpt lat="48.68321" lon="6.64148">
        <ele>229.2</ele>
        <time>2020-06-29T09:07:36Z</time>
      </trkpt>
      <trkpt lat="48.68321" lon="6.6414">
        <ele>229.2</ele>
        <time>2020-06-29T09:07:37Z</time>
      </trkpt>
      <trkpt lat="48.6832" lon="6.64132">
        <ele>229.2</ele>
        <time>2020-06-29T09:07:38Z</time>
      </trkpt>
      <trkpt lat="48.6832" lon="6.64123">
        <ele>229.3</ele>
        <time>2020-06-29T09:07:39Z</time>
      </trkpt>
      <trkpt lat="48.68319" lon="6.64114">
        <ele>229.3</ele>
        <time>2020-06-29T09:07:40Z</time>
      </trkpt>
      <trkpt lat="48.68319" lon="6.64104">
        <ele>229.3</ele>
        <time>2020-06-29T09:07:41Z</time>
      </trkpt>
      <trkpt lat="48.68318" lon="6.64095">
        <ele>229.3</ele>
        <time>2020-06-29T09:07:42Z</time>
      </trkpt>
      <trkpt lat="48.68318" lon="6.64086">
        <ele>229.3</ele>
        <time>2020-06-29T09:07:43Z</time>
      </trkpt>
      <trkpt lat="48.68319" lon="6.64078">
        <ele>229.3</ele>
        <time>2020-06-29T09:07:44Z</time>
      </trkpt>
      <trkpt lat="48.68318" lon="6.64068">
        <ele>229.3</ele>
        <time>2020-06-29T09:07:45Z</time>
      </trkpt>
      <trkpt lat="48.68318" lon="6.64057">
        <ele>229.3</ele>
        <time>2020-06-29T09:07:46Z</time>
      </trkpt>
      <trkpt lat="48.68319" lon="6.64048">
        <ele>229.3</ele>
        <time>2020-06-29T09:07:47Z</time>
      </trkpt>
      <trkpt lat="48.6832" lon="6.64038">
        <ele>229.3</ele>
        <time>2020-06-29T09:07:48Z</time>
      </trkpt>
      <trkpt lat="48.6832" lon="6.64029">
        <ele>229.3</ele>
        <time>2020-06-29T09:07:49Z</time>
      </trkpt>
      <trkpt lat="48.68321" lon="6.6402">
        <ele>229.3</ele>
        <time>2020-06-29T09:07:50Z</time>
      </trkpt>
      <trkpt lat="48.68322" lon="6.6401">
        <ele>229.3</ele>
        <time>2020-06-29T09:07:51Z</time>
      </trkpt>
      <trkpt lat="48.68323" lon="6.64001">
        <ele>229.2</ele>
        <time>2020-06-29T09:07:52Z</time>
      </trkpt>
      <trkpt lat="48.68324" lon="6.63993">
        <ele>229.1</ele>
        <time>2020-06-29T09:07:53Z</time>
      </trkpt>
      <trkpt lat="48.68326" lon="6.63985">
        <ele>229.1</ele>
        <time>2020-06-29T09:07:54Z</time>
      </trkpt>
      <trkpt lat="48.68327" lon="6.63977">
        <ele>229.1</ele>
        <time>2020-06-29T09:07:55Z</time>
      </trkpt>
      <trkpt lat="48.68329" lon="6.63969">
        <ele>229.1</ele>
        <time>2020-06-29T09:07:56Z</time>
      </trkpt>
      <trkpt lat="48.68331" lon="6.6396">
        <ele>229</ele>
        <time>2020-06-29T09:07:57Z</time>
      </trkpt>
      <trkpt lat="48.68332" lon="6.63953">
        <ele>229</ele>
        <time>2020-06-29T09:07:58Z</time>
      </trkpt>
      <trkpt lat="48.68334" lon="6.63944">
        <ele>229</ele>
        <time>2020-06-29T09:07:59Z</time>
      </trkpt>
      <trkpt lat="48.68336" lon="6.63935">
        <ele>229</ele>
        <time>2020-06-29T09:08:00Z</time>
      </trkpt>
      <trkpt lat="48.68338" lon="6.63926">
        <ele>229</ele>
        <time>2020-06-29T09:08:01Z</time>
      </trkpt>
      <trkpt lat="48.68341" lon="6.6392">
        <ele>229</ele>
        <time>2020-06-29T09:08:02Z</time>
      </trkpt>
      <trkpt lat="48.68344" lon="6.63913">
        <ele>229</ele>
        <time>2020-06-29T09:08:03Z</time>
      </trkpt>
      <trkpt lat="48.68347" lon="6.63906">
        <ele>229</ele>
        <time>2020-06-29T09:08:04Z</time>
      </trkpt>
      <trkpt lat="48.68349" lon="6.63899">
        <ele>229.1</ele>
        <time>2020-06-29T09:08:05Z</time>
      </trkpt>
      <trkpt lat="48.6835" lon="6.63891">
        <ele>229.1</ele>
        <time>2020-06-29T09:08:06Z</time>
      </trkpt>
      <trkpt lat="48.68353" lon="6.63884">
        <ele>229.1</ele>
        <time>2020-06-29T09:08:07Z</time>
      </trkpt>
      <trkpt lat="48.68355" lon="6.63876">
        <ele>229.1</ele>
        <time>2020-06-29T09:08:08Z</time>
      </trkpt>
      <trkpt lat="48.68358" lon="6.63868">
        <ele>229.1</ele>
        <time>2020-06-29T09:08:09Z</time>
      </trkpt>
      <trkpt lat="48.6836" lon="6.6386">
        <ele>229.1</ele>
        <time>2020-06-29T09:08:10Z</time>
      </trkpt>
      <trkpt lat="48.68362" lon="6.63852">
        <ele>229.1</ele>
        <time>2020-06-29T09:08:11Z</time>
      </trkpt>
      <trkpt lat="48.68364" lon="6.63844">
        <ele>229</ele>
        <time>2020-06-29T09:08:12Z</time>
      </trkpt>
      <trkpt lat="48.68366" lon="6.63835">
        <ele>229</ele>
        <time>2020-06-29T09:08:13Z</time>
      </trkpt>
      <trkpt lat="48.68369" lon="6.63826">
        <ele>228.9</ele>
        <time>2020-06-29T09:08:14Z</time>
      </trkpt>
      <trkpt lat="48.68371" lon="6.63816">
        <ele>228.9</ele>
        <time>2020-06-29T09:08:15Z</time>
      </trkpt>
      <trkpt lat="48.68372" lon="6.63807">
        <ele>229</ele>
        <time>2020-06-29T09:08:16Z</time>
      </trkpt>
      <trkpt lat="48.68374" lon="6.638">
        <ele>229</ele>
        <time>2020-06-29T09:08:17Z</time>
      </trkpt>
      <trkpt lat="48.68374" lon="6.63792">
        <ele>229</ele>
        <time>2020-06-29T09:08:18Z</time>
      </trkpt>
      <trkpt lat="48.68376" lon="6.63783">
        <ele>229.1</ele>
        <time>2020-06-29T09:08:19Z</time>
      </trkpt>
      <trkpt lat="48.68377" lon="6.63775">
        <ele>229.1</ele>
        <time>2020-06-29T09:08:20Z</time>
      </trkpt>
      <trkpt lat="48.68379" lon="6.63766">
        <ele>229.1</ele>
        <time>2020-06-29T09:08:21Z</time>
      </trkpt>
      <trkpt lat="48.6838" lon="6.63757">
        <ele>229.1</ele>
        <time>2020-06-29T09:08:22Z</time>
      </trkpt>
      <trkpt lat="48.6838" lon="6.63749">
        <ele>229.1</ele>
        <time>2020-06-29T09:08:23Z</time>
      </trkpt>
      <trkpt lat="48.68381" lon="6.6374">
        <ele>229.1</ele>
        <time>2020-06-29T09:08:24Z</time>
      </trkpt>
      <trkpt lat="48.68382" lon="6.6373">
        <ele>229.1</ele>
        <time>2020-06-29T09:08:25Z</time>
      </trkpt>
      <trkpt lat="48.68383" lon="6.6372">
        <ele>229.1</ele>
        <time>2020-06-29T09:08:26Z</time>
      </trkpt>
      <trkpt lat="48.68384" lon="6.63712">
        <ele>229.1</ele>
        <time>2020-06-29T09:08:27Z</time>
      </trkpt>
      <trkpt lat="48.68383" lon="6.63702">
        <ele>229.1</ele>
        <time>2020-06-29T09:08:28Z</time>
      </trkpt>
      <trkpt lat="48.68383" lon="6.63693">
        <ele>229.1</ele>
        <time>2020-06-29T09:08:29Z</time>
      </trkpt>
      <trkpt lat="48.68383" lon="6.63684">
        <ele>229.1</ele>
        <time>2020-06-29T09:08:30Z</time>
      </trkpt>
      <trkpt lat="48.68383" lon="6.63674">
        <ele>229.1</ele>
        <time>2020-06-29T09:08:31Z</time>
      </trkpt>
      <trkpt lat="48.68382" lon="6.63664">
        <ele>229.1</ele>
        <time>2020-06-29T09:08:32Z</time>
      </trkpt>
      <trkpt lat="48.68382" lon="6.63656">
        <ele>229.1</ele>
        <time>2020-06-29T09:08:33Z</time>
      </trkpt>
      <trkpt lat="48.68381" lon="6.63647">
        <ele>229.1</ele>
        <time>2020-06-29T09:08:34Z</time>
      </trkpt>
      <trkpt lat="48.6838" lon="6.6364">
        <ele>229.1</ele>
        <time>2020-06-29T09:08:35Z</time>
      </trkpt>
      <trkpt lat="48.6838" lon="6.63632">
        <ele>229.1</ele>
        <time>2020-06-29T09:08:36Z</time>
      </trkpt>
      <trkpt lat="48.68378" lon="6.63623">
        <ele>229.1</ele>
        <time>2020-06-29T09:08:37Z</time>
      </trkpt>
      <trkpt lat="48.68376" lon="6.63615">
        <ele>229.1</ele>
        <time>2020-06-29T09:08:38Z</time>
      </trkpt>
      <trkpt lat="48.68374" lon="6.63606">
        <ele>229.1</ele>
        <time>2020-06-29T09:08:39Z</time>
      </trkpt>
      <trkpt lat="48.68371" lon="6.63597">
        <ele>229.1</ele>
        <time>2020-06-29T09:08:40Z</time>
      </trkpt>
      <trkpt lat="48.68369" lon="6.63588">
        <ele>229.1</ele>
        <time>2020-06-29T09:08:41Z</time>
      </trkpt>
      <trkpt lat="48.68366" lon="6.6358">
        <ele>229.1</ele>
        <time>2020-06-29T09:08:42Z</time>
      </trkpt>
      <trkpt lat="48.68364" lon="6.63572">
        <ele>229.1</ele>
        <time>2020-06-29T09:08:43Z</time>
      </trkpt>
      <trkpt lat="48.68361" lon="6.63565">
        <ele>229.1</ele>
        <time>2020-06-29T09:08:44Z</time>
      </trkpt>
      <trkpt lat="48.68358" lon="6.63558">
        <ele>229.1</ele>
        <time>2020-06-29T09:08:45Z</time>
      </trkpt>
      <trkpt lat="48.68357" lon="6.6355">
        <ele>229.1</ele>
        <time>2020-06-29T09:08:46Z</time>
      </trkpt>
      <trkpt lat="48.68355" lon="6.63541">
        <ele>229.1</ele>
        <time>2020-06-29T09:08:47Z</time>
      </trkpt>
      <trkpt lat="48.68353" lon="6.63533">
        <ele>229.1</ele>
        <time>2020-06-29T09:08:48Z</time>
      </trkpt>
      <trkpt lat="48.6835" lon="6.63528">
        <ele>229</ele>
        <time>2020-06-29T09:08:49Z</time>
      </trkpt>
      <trkpt lat="48.68347" lon="6.6352">
        <ele>229</ele>
        <time>2020-06-29T09:08:50Z</time>
      </trkpt>
      <trkpt lat="48.68343" lon="6.63512">
        <ele>229</ele>
        <time>2020-06-29T09:08:51Z</time>
      </trkpt>
      <trkpt lat="48.68339" lon="6.63506">
        <ele>229</ele>
        <time>2020-06-29T09:08:52Z</time>
      </trkpt>
      <trkpt lat="48.68337" lon="6.63497">
        <ele>229</ele>
        <time>2020-06-29T09:08:53Z</time>
      </trkpt>
      <trkpt lat="48.68334" lon="6.6349">
        <ele>228.9</ele>
        <time>2020-06-29T09:08:54Z</time>
      </trkpt>
      <trkpt lat="48.6833" lon="6.63482">
        <ele>228.9</ele>
        <time>2020-06-29T09:08:55Z</time>
      </trkpt>
      <trkpt lat="48.68327" lon="6.63475">
        <ele>228.8</ele>
        <time>2020-06-29T09:08:56Z</time>
      </trkpt>
      <trkpt lat="48.68324" lon="6.63468">
        <ele>228.8</ele>
        <time>2020-06-29T09:08:57Z</time>
      </trkpt>
      <trkpt lat="48.68321" lon="6.63462">
        <ele>228.7</ele>
        <time>2020-06-29T09:08:58Z</time>
      </trkpt>
      <trkpt lat="48.68317" lon="6.63456">
        <ele>228.7</ele>
        <time>2020-06-29T09:08:59Z</time>
      </trkpt>
      <trkpt lat="48.68314" lon="6.63448">
        <ele>228.7</ele>
        <time>2020-06-29T09:09:00Z</time>
      </trkpt>
      <trkpt lat="48.68311" lon="6.6344">
        <ele>228.7</ele>
        <time>2020-06-29T09:09:01Z</time>
      </trkpt>
      <trkpt lat="48.68308" lon="6.63432">
        <ele>228.7</ele>
        <time>2020-06-29T09:09:02Z</time>
      </trkpt>
      <trkpt lat="48.68304" lon="6.63425">
        <ele>228.8</ele>
        <time>2020-06-29T09:09:03Z</time>
      </trkpt>
      <trkpt lat="48.68301" lon="6.63419">
        <ele>228.8</ele>
        <time>2020-06-29T09:09:04Z</time>
      </trkpt>
      <trkpt lat="48.68297" lon="6.63412">
        <ele>228.8</ele>
        <time>2020-06-29T09:09:05Z</time>
      </trkpt>
      <trkpt lat="48.68295" lon="6.63405">
        <ele>228.8</ele>
        <time>2020-06-29T09:09:06Z</time>
      </trkpt>
      <trkpt lat="48.68291" lon="6.63397">
        <ele>228.8</ele>
        <time>2020-06-29T09:09:07Z</time>
      </trkpt>
      <trkpt lat="48.68287" lon="6.63391">
        <ele>228.8</ele>
        <time>2020-06-29T09:09:08Z</time>
      </trkpt>
      <trkpt lat="48.68283" lon="6.63382">
        <ele>228.8</ele>
        <time>2020-06-29T09:09:09Z</time>
      </trkpt>
      <trkpt lat="48.6828" lon="6.63373">
        <ele>228.8</ele>
        <time>2020-06-29T09:09:10Z</time>
      </trkpt>
      <trkpt lat="48.68276" lon="6.63365">
        <ele>228.8</ele>
        <time>2020-06-29T09:09:11Z</time>
      </trkpt>
      <trkpt lat="48.68272" lon="6.63357">
        <ele>228.8</ele>
        <time>2020-06-29T09:09:12Z</time>
      </trkpt>
      <trkpt lat="48.68268" lon="6.6335">
        <ele>228.8</ele>
        <time>2020-06-29T09:09:13Z</time>
      </trkpt>
      <trkpt lat="48.68264" lon="6.63342">
        <ele>228.8</ele>
        <time>2020-06-29T09:09:14Z</time>
      </trkpt>
      <trkpt lat="48.6826" lon="6.63335">
        <ele>228.8</ele>
        <time>2020-06-29T09:09:15Z</time>
      </trkpt>
      <trkpt lat="48.68257" lon="6.63327">
        <ele>228.8</ele>
        <time>2020-06-29T09:09:16Z</time>
      </trkpt>
      <trkpt lat="48.68254" lon="6.63319">
        <ele>228.8</ele>
        <time>2020-06-29T09:09:17Z</time>
      </trkpt>
      <trkpt lat="48.68251" lon="6.63311">
        <ele>228.8</ele>
        <time>2020-06-29T09:09:18Z</time>
      </trkpt>
      <trkpt lat="48.68247" lon="6.63303">
        <ele>228.8</ele>
        <time>2020-06-29T09:09:19Z</time>
      </trkpt>
      <trkpt lat="48.68244" lon="6.63296">
        <ele>228.8</ele>
        <time>2020-06-29T09:09:20Z</time>
      </trkpt>
      <trkpt lat="48.68241" lon="6.63288">
        <ele>228.8</ele>
        <time>2020-06-29T09:09:21Z</time>
      </trkpt>
      <trkpt lat="48.68238" lon="6.63281">
        <ele>228.9</ele>
        <time>2020-06-29T09:09:22Z</time>
      </trkpt>
      <trkpt lat="48.68234" lon="6.63273">
        <ele>228.9</ele>
        <time>2020-06-29T09:09:23Z</time>
      </trkpt>
      <trkpt lat="48.68231" lon="6.63266">
        <ele>228.9</ele>
        <time>2020-06-29T09:09:24Z</time>
      </trkpt>
      <trkpt lat="48.68228" lon="6.63258">
        <ele>228.9</ele>
        <time>2020-06-29T09:09:25Z</time>
      </trkpt>
      <trkpt lat="48.68226" lon="6.6325">
        <ele>228.9</ele>
        <time>2020-06-29T09:09:26Z</time>
      </trkpt>
      <trkpt lat="48.68223" lon="6.63243">
        <ele>228.9</ele>
        <time>2020-06-29T09:09:27Z</time>
      </trkpt>
      <trkpt lat="48.68222" lon="6.63234">
        <ele>228.9</ele>
        <time>2020-06-29T09:09:28Z</time>
      </trkpt>
      <trkpt lat="48.6822" lon="6.63226">
        <ele>228.9</ele>
        <time>2020-06-29T09:09:29Z</time>
      </trkpt>
      <trkpt lat="48.68218" lon="6.63217">
        <ele>228.9</ele>
        <time>2020-06-29T09:09:30Z</time>
      </trkpt>
      <trkpt lat="48.68216" lon="6.63209">
        <ele>228.9</ele>
        <time>2020-06-29T09:09:31Z</time>
      </trkpt>
      <trkpt lat="48.68216" lon="6.63201">
        <ele>228.9</ele>
        <time>2020-06-29T09:09:32Z</time>
      </trkpt>
      <trkpt lat="48.68215" lon="6.63193">
        <ele>228.9</ele>
        <time>2020-06-29T09:09:33Z</time>
      </trkpt>
      <trkpt lat="48.68214" lon="6.63185">
        <ele>228.9</ele>
        <time>2020-06-29T09:09:34Z</time>
      </trkpt>
      <trkpt lat="48.68213" lon="6.63177">
        <ele>229</ele>
        <time>2020-06-29T09:09:35Z</time>
      </trkpt>
      <trkpt lat="48.68211" lon="6.63168">
        <ele>229</ele>
        <time>2020-06-29T09:09:36Z</time>
      </trkpt>
      <trkpt lat="48.68211" lon="6.6316">
        <ele>229.1</ele>
        <time>2020-06-29T09:09:37Z</time>
      </trkpt>
      <trkpt lat="48.6821" lon="6.63154">
        <ele>229.1</ele>
        <time>2020-06-29T09:09:38Z</time>
      </trkpt>
      <trkpt lat="48.6821" lon="6.63146">
        <ele>229.1</ele>
        <time>2020-06-29T09:09:39Z</time>
      </trkpt>
      <trkpt lat="48.6821" lon="6.63139">
        <ele>229.2</ele>
        <time>2020-06-29T09:09:40Z</time>
      </trkpt>
      <trkpt lat="48.6821" lon="6.63132">
        <ele>229.2</ele>
        <time>2020-06-29T09:09:41Z</time>
      </trkpt>
      <trkpt lat="48.68209" lon="6.63126">
        <ele>229.2</ele>
        <time>2020-06-29T09:09:42Z</time>
      </trkpt>
      <trkpt lat="48.68209" lon="6.63121">
        <ele>229.2</ele>
        <time>2020-06-29T09:09:43Z</time>
      </trkpt>
      <trkpt lat="48.68209" lon="6.63114">
        <ele>229.2</ele>
        <time>2020-06-29T09:09:44Z</time>
      </trkpt>
      <trkpt lat="48.68208" lon="6.63108">
        <ele>229.1</ele>
        <time>2020-06-29T09:09:45Z</time>
      </trkpt>
      <trkpt lat="48.68207" lon="6.631">
        <ele>229.6</ele>
        <time>2020-06-29T09:09:46Z</time>
      </trkpt>
      <trkpt lat="48.68205" lon="6.63091">
        <ele>229.7</ele>
        <time>2020-06-29T09:09:47Z</time>
      </trkpt>
      <trkpt lat="48.68204" lon="6.63082">
        <ele>229.7</ele>
        <time>2020-06-29T09:09:48Z</time>
      </trkpt>
      <trkpt lat="48.68204" lon="6.63074">
        <ele>229.7</ele>
        <time>2020-06-29T09:09:49Z</time>
      </trkpt>
      <trkpt lat="48.68204" lon="6.63066">
        <ele>229.6</ele>
        <time>2020-06-29T09:09:50Z</time>
      </trkpt>
      <trkpt lat="48.68204" lon="6.63058">
        <ele>229.6</ele>
        <time>2020-06-29T09:09:51Z</time>
      </trkpt>
      <trkpt lat="48.68204" lon="6.6305">
        <ele>229.5</ele>
        <time>2020-06-29T09:09:52Z</time>
      </trkpt>
      <trkpt lat="48.68204" lon="6.63043">
        <ele>229.5</ele>
        <time>2020-06-29T09:09:53Z</time>
      </trkpt>
      <trkpt lat="48.68205" lon="6.63035">
        <ele>229.4</ele>
        <time>2020-06-29T09:09:54Z</time>
      </trkpt>
      <trkpt lat="48.68205" lon="6.63028">
        <ele>229.4</ele>
        <time>2020-06-29T09:09:55Z</time>
      </trkpt>
      <trkpt lat="48.68205" lon="6.63021">
        <ele>229.3</ele>
        <time>2020-06-29T09:09:56Z</time>
      </trkpt>
      <trkpt lat="48.68205" lon="6.63013">
        <ele>229.3</ele>
        <time>2020-06-29T09:09:57Z</time>
      </trkpt>
      <trkpt lat="48.68205" lon="6.63004">
        <ele>229.3</ele>
        <time>2020-06-29T09:09:58Z</time>
      </trkpt>
      <trkpt lat="48.68206" lon="6.62995">
        <ele>229.3</ele>
        <time>2020-06-29T09:09:59Z</time>
      </trkpt>
      <trkpt lat="48.68207" lon="6.62987">
        <ele>229.2</ele>
        <time>2020-06-29T09:10:00Z</time>
      </trkpt>
      <trkpt lat="48.68207" lon="6.62978">
        <ele>229.1</ele>
        <time>2020-06-29T09:10:01Z</time>
      </trkpt>
      <trkpt lat="48.68207" lon="6.6297">
        <ele>229.1</ele>
        <time>2020-06-29T09:10:02Z</time>
      </trkpt>
      <trkpt lat="48.68208" lon="6.6296">
        <ele>229</ele>
        <time>2020-06-29T09:10:03Z</time>
      </trkpt>
      <trkpt lat="48.68208" lon="6.62951">
        <ele>229</ele>
        <time>2020-06-29T09:10:04Z</time>
      </trkpt>
      <trkpt lat="48.68209" lon="6.62942">
        <ele>228.9</ele>
        <time>2020-06-29T09:10:05Z</time>
      </trkpt>
      <trkpt lat="48.68209" lon="6.62933">
        <ele>228.9</ele>
        <time>2020-06-29T09:10:06Z</time>
      </trkpt>
      <trkpt lat="48.6821" lon="6.62926">
        <ele>228.9</ele>
        <time>2020-06-29T09:10:07Z</time>
      </trkpt>
      <trkpt lat="48.6821" lon="6.62917">
        <ele>228.8</ele>
        <time>2020-06-29T09:10:08Z</time>
      </trkpt>
      <trkpt lat="48.6821" lon="6.62909">
        <ele>228.8</ele>
        <time>2020-06-29T09:10:09Z</time>
      </trkpt>
      <trkpt lat="48.68211" lon="6.62899">
        <ele>228.8</ele>
        <time>2020-06-29T09:10:10Z</time>
      </trkpt>
      <trkpt lat="48.68212" lon="6.6289">
        <ele>228.8</ele>
        <time>2020-06-29T09:10:11Z</time>
      </trkpt>
      <trkpt lat="48.68212" lon="6.62881">
        <ele>228.9</ele>
        <time>2020-06-29T09:10:12Z</time>
      </trkpt>
      <trkpt lat="48.68213" lon="6.62871">
        <ele>228.9</ele>
        <time>2020-06-29T09:10:13Z</time>
      </trkpt>
      <trkpt lat="48.68214" lon="6.6286">
        <ele>228.9</ele>
        <time>2020-06-29T09:10:14Z</time>
      </trkpt>
      <trkpt lat="48.68215" lon="6.6285">
        <ele>229</ele>
        <time>2020-06-29T09:10:15Z</time>
      </trkpt>
      <trkpt lat="48.68217" lon="6.62841">
        <ele>229.1</ele>
        <time>2020-06-29T09:10:16Z</time>
      </trkpt>
      <trkpt lat="48.68219" lon="6.62833">
        <ele>229.1</ele>
        <time>2020-06-29T09:10:17Z</time>
      </trkpt>
      <trkpt lat="48.6822" lon="6.62824">
        <ele>229.2</ele>
        <time>2020-06-29T09:10:18Z</time>
      </trkpt>
      <trkpt lat="48.68223" lon="6.62816">
        <ele>229.2</ele>
        <time>2020-06-29T09:10:19Z</time>
      </trkpt>
      <trkpt lat="48.68224" lon="6.62807">
        <ele>229.2</ele>
        <time>2020-06-29T09:10:20Z</time>
      </trkpt>
      <trkpt lat="48.68226" lon="6.62799">
        <ele>229.2</ele>
        <time>2020-06-29T09:10:21Z</time>
      </trkpt>
      <trkpt lat="48.68229" lon="6.62789">
        <ele>229.2</ele>
        <time>2020-06-29T09:10:22Z</time>
      </trkpt>
      <trkpt lat="48.68231" lon="6.6278">
        <ele>229.2</ele>
        <time>2020-06-29T09:10:23Z</time>
      </trkpt>
      <trkpt lat="48.68233" lon="6.62773">
        <ele>229.2</ele>
        <time>2020-06-29T09:10:24Z</time>
      </trkpt>
      <trkpt lat="48.68235" lon="6.62765">
        <ele>229.2</ele>
        <time>2020-06-29T09:10:25Z</time>
      </trkpt>
      <trkpt lat="48.68237" lon="6.62757">
        <ele>229.2</ele>
        <time>2020-06-29T09:10:26Z</time>
      </trkpt>
      <trkpt lat="48.68239" lon="6.62751">
        <ele>229.2</ele>
        <time>2020-06-29T09:10:27Z</time>
      </trkpt>
      <trkpt lat="48.68242" lon="6.62745">
        <ele>229.2</ele>
        <time>2020-06-29T09:10:28Z</time>
      </trkpt>
      <trkpt lat="48.68245" lon="6.62737">
        <ele>229.2</ele>
        <time>2020-06-29T09:10:29Z</time>
      </trkpt>
      <trkpt lat="48.68248" lon="6.6273">
        <ele>229</ele>
        <time>2020-06-29T09:10:30Z</time>
      </trkpt>
      <trkpt lat="48.68251" lon="6.62722">
        <ele>229</ele>
        <time>2020-06-29T09:10:31Z</time>
      </trkpt>
      <trkpt lat="48.68256" lon="6.62714">
        <ele>228.9</ele>
        <time>2020-06-29T09:10:32Z</time>
      </trkpt>
      <trkpt lat="48.6826" lon="6.62707">
        <ele>228.8</ele>
        <time>2020-06-29T09:10:33Z</time>
      </trkpt>
      <trkpt lat="48.68263" lon="6.62699">
        <ele>228.8</ele>
        <time>2020-06-29T09:10:34Z</time>
      </trkpt>
      <trkpt lat="48.68267" lon="6.62691">
        <ele>228.8</ele>
        <time>2020-06-29T09:10:35Z</time>
      </trkpt>
      <trkpt lat="48.68271" lon="6.62684">
        <ele>228.8</ele>
        <time>2020-06-29T09:10:36Z</time>
      </trkpt>
      <trkpt lat="48.68275" lon="6.62676">
        <ele>228.9</ele>
        <time>2020-06-29T09:10:37Z</time>
      </trkpt>
      <trkpt lat="48.68279" lon="6.6267">
        <ele>228.9</ele>
        <time>2020-06-29T09:10:38Z</time>
      </trkpt>
      <trkpt lat="48.68281" lon="6.62665">
        <ele>228.9</ele>
        <time>2020-06-29T09:10:39Z</time>
      </trkpt>
      <trkpt lat="48.68285" lon="6.62658">
        <ele>228.9</ele>
        <time>2020-06-29T09:10:40Z</time>
      </trkpt>
      <trkpt lat="48.68289" lon="6.62652">
        <ele>229</ele>
        <time>2020-06-29T09:10:41Z</time>
      </trkpt>
      <trkpt lat="48.68294" lon="6.62648">
        <ele>229</ele>
        <time>2020-06-29T09:10:42Z</time>
      </trkpt>
      <trkpt lat="48.68299" lon="6.62643">
        <ele>229.1</ele>
        <time>2020-06-29T09:10:43Z</time>
      </trkpt>
      <trkpt lat="48.68303" lon="6.62638">
        <ele>229.1</ele>
        <time>2020-06-29T09:10:44Z</time>
      </trkpt>
      <trkpt lat="48.68307" lon="6.62633">
        <ele>229.1</ele>
        <time>2020-06-29T09:10:45Z</time>
      </trkpt>
      <trkpt lat="48.68309" lon="6.62628">
        <ele>229.1</ele>
        <time>2020-06-29T09:10:46Z</time>
      </trkpt>
      <trkpt lat="48.68311" lon="6.62622">
        <ele>229.1</ele>
        <time>2020-06-29T09:10:47Z</time>
      </trkpt>
      <trkpt lat="48.68313" lon="6.62616">
        <ele>229.1</ele>
        <time>2020-06-29T09:10:48Z</time>
      </trkpt>
      <trkpt lat="48.68316" lon="6.6261">
        <ele>229</ele>
        <time>2020-06-29T09:10:49Z</time>
      </trkpt>
      <trkpt lat="48.68317" lon="6.62605">
        <ele>229</ele>
        <time>2020-06-29T09:10:50Z</time>
      </trkpt>
      <trkpt lat="48.68319" lon="6.62598">
        <ele>228.8</ele>
        <time>2020-06-29T09:10:51Z</time>
      </trkpt>
      <trkpt lat="48.68319" lon="6.62593">
        <ele>228.7</ele>
        <time>2020-06-29T09:10:52Z</time>
      </trkpt>
      <trkpt lat="48.68319" lon="6.62589">
        <ele>228.5</ele>
        <time>2020-06-29T09:10:53Z</time>
      </trkpt>
      <trkpt lat="48.68321" lon="6.62584">
        <ele>228.3</ele>
        <time>2020-06-29T09:10:54Z</time>
      </trkpt>
      <trkpt lat="48.68322" lon="6.62582">
        <ele>228.1</ele>
        <time>2020-06-29T09:10:55Z</time>
      </trkpt>
      <trkpt lat="48.68324" lon="6.62578">
        <ele>227.9</ele>
        <time>2020-06-29T09:10:56Z</time>
      </trkpt>
      <trkpt lat="48.68327" lon="6.62573">
        <ele>227.5</ele>
        <time>2020-06-29T09:10:57Z</time>
      </trkpt>
      <trkpt lat="48.68329" lon="6.62568">
        <ele>227.2</ele>
        <time>2020-06-29T09:10:58Z</time>
      </trkpt>
      <trkpt lat="48.68332" lon="6.62561">
        <ele>226.9</ele>
        <time>2020-06-29T09:10:59Z</time>
      </trkpt>
      <trkpt lat="48.68336" lon="6.62555">
        <ele>226.5</ele>
        <time>2020-06-29T09:11:00Z</time>
      </trkpt>
      <trkpt lat="48.68339" lon="6.62548">
        <ele>226.3</ele>
        <time>2020-06-29T09:11:01Z</time>
      </trkpt>
      <trkpt lat="48.68342" lon="6.62541">
        <ele>226.2</ele>
        <time>2020-06-29T09:11:02Z</time>
      </trkpt>
      <trkpt lat="48.68345" lon="6.62533">
        <ele>226.1</ele>
        <time>2020-06-29T09:11:03Z</time>
      </trkpt>
      <trkpt lat="48.68347" lon="6.62525">
        <ele>226</ele>
        <time>2020-06-29T09:11:04Z</time>
      </trkpt>
      <trkpt lat="48.6835" lon="6.62515">
        <ele>225.9</ele>
        <time>2020-06-29T09:11:05Z</time>
      </trkpt>
      <trkpt lat="48.68352" lon="6.62504">
        <ele>225.8</ele>
        <time>2020-06-29T09:11:06Z</time>
      </trkpt>
      <trkpt lat="48.68355" lon="6.62495">
        <ele>225.8</ele>
        <time>2020-06-29T09:11:07Z</time>
      </trkpt>
      <trkpt lat="48.68357" lon="6.62486">
        <ele>225.8</ele>
        <time>2020-06-29T09:11:08Z</time>
      </trkpt>
      <trkpt lat="48.68358" lon="6.62477">
        <ele>225.8</ele>
        <time>2020-06-29T09:11:09Z</time>
      </trkpt>
      <trkpt lat="48.68359" lon="6.62467">
        <ele>225.8</ele>
        <time>2020-06-29T09:11:10Z</time>
      </trkpt>
      <trkpt lat="48.6836" lon="6.62458">
        <ele>225.8</ele>
        <time>2020-06-29T09:11:11Z</time>
      </trkpt>
      <trkpt lat="48.68361" lon="6.62448">
        <ele>225.8</ele>
        <time>2020-06-29T09:11:12Z</time>
      </trkpt>
      <trkpt lat="48.68361" lon="6.62439">
        <ele>225.8</ele>
        <time>2020-06-29T09:11:13Z</time>
      </trkpt>
      <trkpt lat="48.68362" lon="6.62429">
        <ele>225.7</ele>
        <time>2020-06-29T09:11:14Z</time>
      </trkpt>
      <trkpt lat="48.68362" lon="6.62421">
        <ele>225.7</ele>
        <time>2020-06-29T09:11:15Z</time>
      </trkpt>
      <trkpt lat="48.68362" lon="6.62412">
        <ele>225.7</ele>
        <time>2020-06-29T09:11:16Z</time>
      </trkpt>
      <trkpt lat="48.68362" lon="6.62404">
        <ele>225.7</ele>
        <time>2020-06-29T09:11:17Z</time>
      </trkpt>
      <trkpt lat="48.68363" lon="6.62393">
        <ele>225.7</ele>
        <time>2020-06-29T09:11:18Z</time>
      </trkpt>
      <trkpt lat="48.68363" lon="6.62383">
        <ele>225.7</ele>
        <time>2020-06-29T09:11:19Z</time>
      </trkpt>
      <trkpt lat="48.68362" lon="6.62375">
        <ele>225.6</ele>
        <time>2020-06-29T09:11:20Z</time>
      </trkpt>
      <trkpt lat="48.68362" lon="6.62367">
        <ele>225.6</ele>
        <time>2020-06-29T09:11:21Z</time>
      </trkpt>
      <trkpt lat="48.68362" lon="6.6236">
        <ele>225.6</ele>
        <time>2020-06-29T09:11:22Z</time>
      </trkpt>
      <trkpt lat="48.68361" lon="6.62351">
        <ele>225.6</ele>
        <time>2020-06-29T09:11:23Z</time>
      </trkpt>
      <trkpt lat="48.68361" lon="6.62343">
        <ele>225.6</ele>
        <time>2020-06-29T09:11:24Z</time>
      </trkpt>
      <trkpt lat="48.68361" lon="6.62334">
        <ele>225.6</ele>
        <time>2020-06-29T09:11:25Z</time>
      </trkpt>
      <trkpt lat="48.68361" lon="6.62325">
        <ele>225.7</ele>
        <time>2020-06-29T09:11:26Z</time>
      </trkpt>
      <trkpt lat="48.68361" lon="6.62317">
        <ele>225.7</ele>
        <time>2020-06-29T09:11:27Z</time>
      </trkpt>
      <trkpt lat="48.6836" lon="6.62309">
        <ele>225.8</ele>
        <time>2020-06-29T09:11:28Z</time>
      </trkpt>
      <trkpt lat="48.68359" lon="6.62301">
        <ele>225.9</ele>
        <time>2020-06-29T09:11:29Z</time>
      </trkpt>
      <trkpt lat="48.6836" lon="6.62292">
        <ele>225.9</ele>
        <time>2020-06-29T09:11:30Z</time>
      </trkpt>
      <trkpt lat="48.6836" lon="6.62286">
        <ele>226</ele>
        <time>2020-06-29T09:11:31Z</time>
      </trkpt>
      <trkpt lat="48.68359" lon="6.62277">
        <ele>226</ele>
        <time>2020-06-29T09:11:32Z</time>
      </trkpt>
      <trkpt lat="48.68358" lon="6.62269">
        <ele>226</ele>
        <time>2020-06-29T09:11:33Z</time>
      </trkpt>
      <trkpt lat="48.68357" lon="6.62259">
        <ele>226</ele>
        <time>2020-06-29T09:11:34Z</time>
      </trkpt>
      <trkpt lat="48.68357" lon="6.62249">
        <ele>226.1</ele>
        <time>2020-06-29T09:11:35Z</time>
      </trkpt>
      <trkpt lat="48.68356" lon="6.62239">
        <ele>226.1</ele>
        <time>2020-06-29T09:11:36Z</time>
      </trkpt>
      <trkpt lat="48.68356" lon="6.62232">
        <ele>226.1</ele>
        <time>2020-06-29T09:11:37Z</time>
      </trkpt>
      <trkpt lat="48.68355" lon="6.62224">
        <ele>226.1</ele>
        <time>2020-06-29T09:11:38Z</time>
      </trkpt>
      <trkpt lat="48.68355" lon="6.62215">
        <ele>226.1</ele>
        <time>2020-06-29T09:11:39Z</time>
      </trkpt>
      <trkpt lat="48.68356" lon="6.62207">
        <ele>226.1</ele>
        <time>2020-06-29T09:11:40Z</time>
      </trkpt>
      <trkpt lat="48.68356" lon="6.62198">
        <ele>226.1</ele>
        <time>2020-06-29T09:11:41Z</time>
      </trkpt>
      <trkpt lat="48.68356" lon="6.62191">
        <ele>226.1</ele>
        <time>2020-06-29T09:11:42Z</time>
      </trkpt>
      <trkpt lat="48.68355" lon="6.62184">
        <ele>226.1</ele>
        <time>2020-06-29T09:11:43Z</time>
      </trkpt>
      <trkpt lat="48.68355" lon="6.62175">
        <ele>226.1</ele>
        <time>2020-06-29T09:11:44Z</time>
      </trkpt>
      <trkpt lat="48.68355" lon="6.62167">
        <ele>226.1</ele>
        <time>2020-06-29T09:11:45Z</time>
      </trkpt>
      <trkpt lat="48.68355" lon="6.62155">
        <ele>226.1</ele>
        <time>2020-06-29T09:11:46Z</time>
      </trkpt>
      <trkpt lat="48.68355" lon="6.62146">
        <ele>226.1</ele>
        <time>2020-06-29T09:11:47Z</time>
      </trkpt>
      <trkpt lat="48.68354" lon="6.62137">
        <ele>226.1</ele>
        <time>2020-06-29T09:11:48Z</time>
      </trkpt>
      <trkpt lat="48.68353" lon="6.62127">
        <ele>226.1</ele>
        <time>2020-06-29T09:11:49Z</time>
      </trkpt>
      <trkpt lat="48.68353" lon="6.62116">
        <ele>226.1</ele>
        <time>2020-06-29T09:11:50Z</time>
      </trkpt>
      <trkpt lat="48.68353" lon="6.62108">
        <ele>226.1</ele>
        <time>2020-06-29T09:11:51Z</time>
      </trkpt>
      <trkpt lat="48.68353" lon="6.62098">
        <ele>226.1</ele>
        <time>2020-06-29T09:11:52Z</time>
      </trkpt>
      <trkpt lat="48.68352" lon="6.62089">
        <ele>226.1</ele>
        <time>2020-06-29T09:11:53Z</time>
      </trkpt>
      <trkpt lat="48.68351" lon="6.6208">
        <ele>226.1</ele>
        <time>2020-06-29T09:11:54Z</time>
      </trkpt>
      <trkpt lat="48.68351" lon="6.6207">
        <ele>226.1</ele>
        <time>2020-06-29T09:11:55Z</time>
      </trkpt>
      <trkpt lat="48.68351" lon="6.62059">
        <ele>226.2</ele>
        <time>2020-06-29T09:11:56Z</time>
      </trkpt>
      <trkpt lat="48.6835" lon="6.62052">
        <ele>226.2</ele>
        <time>2020-06-29T09:11:57Z</time>
      </trkpt>
      <trkpt lat="48.68349" lon="6.62043">
        <ele>226.2</ele>
        <time>2020-06-29T09:11:58Z</time>
      </trkpt>
      <trkpt lat="48.68349" lon="6.62034">
        <ele>226.2</ele>
        <time>2020-06-29T09:11:59Z</time>
      </trkpt>
      <trkpt lat="48.68349" lon="6.62024">
        <ele>226.2</ele>
        <time>2020-06-29T09:12:00Z</time>
      </trkpt>
      <trkpt lat="48.68349" lon="6.62014">
        <ele>226.2</ele>
        <time>2020-06-29T09:12:01Z</time>
      </trkpt>
      <trkpt lat="48.68349" lon="6.62005">
        <ele>226.3</ele>
        <time>2020-06-29T09:12:02Z</time>
      </trkpt>
      <trkpt lat="48.68348" lon="6.61993">
        <ele>226.3</ele>
        <time>2020-06-29T09:12:03Z</time>
      </trkpt>
      <trkpt lat="48.68347" lon="6.61982">
        <ele>226.3</ele>
        <time>2020-06-29T09:12:04Z</time>
      </trkpt>
      <trkpt lat="48.68347" lon="6.61971">
        <ele>226.3</ele>
        <time>2020-06-29T09:12:05Z</time>
      </trkpt>
      <trkpt lat="48.68347" lon="6.61961">
        <ele>226.3</ele>
        <time>2020-06-29T09:12:06Z</time>
      </trkpt>
      <trkpt lat="48.68346" lon="6.61951">
        <ele>226.4</ele>
        <time>2020-06-29T09:12:07Z</time>
      </trkpt>
      <trkpt lat="48.68346" lon="6.61942">
        <ele>226.4</ele>
        <time>2020-06-29T09:12:08Z</time>
      </trkpt>
      <trkpt lat="48.68346" lon="6.61934">
        <ele>226.4</ele>
        <time>2020-06-29T09:12:09Z</time>
      </trkpt>
      <trkpt lat="48.68345" lon="6.61925">
        <ele>226.4</ele>
        <time>2020-06-29T09:12:10Z</time>
      </trkpt>
      <trkpt lat="48.68346" lon="6.61914">
        <ele>226.4</ele>
        <time>2020-06-29T09:12:11Z</time>
      </trkpt>
      <trkpt lat="48.68346" lon="6.61906">
        <ele>226.4</ele>
        <time>2020-06-29T09:12:12Z</time>
      </trkpt>
      <trkpt lat="48.68345" lon="6.61899">
        <ele>226.4</ele>
        <time>2020-06-29T09:12:13Z</time>
      </trkpt>
      <trkpt lat="48.68345" lon="6.61892">
        <ele>226.4</ele>
        <time>2020-06-29T09:12:14Z</time>
      </trkpt>
      <trkpt lat="48.68344" lon="6.61882">
        <ele>226.5</ele>
        <time>2020-06-29T09:12:15Z</time>
      </trkpt>
      <trkpt lat="48.68344" lon="6.61874">
        <ele>226.5</ele>
        <time>2020-06-29T09:12:16Z</time>
      </trkpt>
      <trkpt lat="48.68343" lon="6.61865">
        <ele>226.6</ele>
        <time>2020-06-29T09:12:17Z</time>
      </trkpt>
      <trkpt lat="48.68343" lon="6.61855">
        <ele>226.6</ele>
        <time>2020-06-29T09:12:18Z</time>
      </trkpt>
      <trkpt lat="48.68342" lon="6.61851">
        <ele>226.6</ele>
        <time>2020-06-29T09:12:19Z</time>
      </trkpt>
      <trkpt lat="48.68342" lon="6.61843">
        <ele>226.6</ele>
        <time>2020-06-29T09:12:20Z</time>
      </trkpt>
      <trkpt lat="48.68341" lon="6.61834">
        <ele>226.5</ele>
        <time>2020-06-29T09:12:21Z</time>
      </trkpt>
      <trkpt lat="48.68341" lon="6.61823">
        <ele>226.5</ele>
        <time>2020-06-29T09:12:22Z</time>
      </trkpt>
      <trkpt lat="48.6834" lon="6.61815">
        <ele>226.5</ele>
        <time>2020-06-29T09:12:23Z</time>
      </trkpt>
      <trkpt lat="48.6834" lon="6.61802">
        <ele>226.4</ele>
        <time>2020-06-29T09:12:24Z</time>
      </trkpt>
      <trkpt lat="48.68339" lon="6.61793">
        <ele>226.4</ele>
        <time>2020-06-29T09:12:25Z</time>
      </trkpt>
      <trkpt lat="48.68338" lon="6.61786">
        <ele>226.4</ele>
        <time>2020-06-29T09:12:26Z</time>
      </trkpt>
      <trkpt lat="48.68336" lon="6.61776">
        <ele>226.4</ele>
        <time>2020-06-29T09:12:27Z</time>
      </trkpt>
      <trkpt lat="48.68335" lon="6.61766">
        <ele>226.4</ele>
        <time>2020-06-29T09:12:28Z</time>
      </trkpt>
      <trkpt lat="48.68332" lon="6.61758">
        <ele>226.5</ele>
        <time>2020-06-29T09:12:29Z</time>
      </trkpt>
      <trkpt lat="48.68331" lon="6.61747">
        <ele>226.5</ele>
        <time>2020-06-29T09:12:30Z</time>
      </trkpt>
      <trkpt lat="48.6833" lon="6.61737">
        <ele>226.5</ele>
        <time>2020-06-29T09:12:31Z</time>
      </trkpt>
      <trkpt lat="48.68329" lon="6.61732">
        <ele>226.5</ele>
        <time>2020-06-29T09:12:32Z</time>
      </trkpt>
      <trkpt lat="48.68327" lon="6.61722">
        <ele>226.5</ele>
        <time>2020-06-29T09:12:33Z</time>
      </trkpt>
      <trkpt lat="48.68325" lon="6.61713">
        <ele>226.6</ele>
        <time>2020-06-29T09:12:34Z</time>
      </trkpt>
      <trkpt lat="48.68324" lon="6.61703">
        <ele>226.6</ele>
        <time>2020-06-29T09:12:35Z</time>
      </trkpt>
      <trkpt lat="48.68322" lon="6.61695">
        <ele>226.7</ele>
        <time>2020-06-29T09:12:36Z</time>
      </trkpt>
      <trkpt lat="48.68319" lon="6.61689">
        <ele>226.8</ele>
        <time>2020-06-29T09:12:37Z</time>
      </trkpt>
      <trkpt lat="48.68316" lon="6.61677">
        <ele>227</ele>
        <time>2020-06-29T09:12:38Z</time>
      </trkpt>
      <trkpt lat="48.68313" lon="6.61667">
        <ele>227</ele>
        <time>2020-06-29T09:12:39Z</time>
      </trkpt>
      <trkpt lat="48.6831" lon="6.61658">
        <ele>226.9</ele>
        <time>2020-06-29T09:12:40Z</time>
      </trkpt>
      <trkpt lat="48.68308" lon="6.61649">
        <ele>226.8</ele>
        <time>2020-06-29T09:12:41Z</time>
      </trkpt>
      <trkpt lat="48.68305" lon="6.6164">
        <ele>226.7</ele>
        <time>2020-06-29T09:12:42Z</time>
      </trkpt>
      <trkpt lat="48.68302" lon="6.6163">
        <ele>226.7</ele>
        <time>2020-06-29T09:12:43Z</time>
      </trkpt>
      <trkpt lat="48.68299" lon="6.61624">
        <ele>226.6</ele>
        <time>2020-06-29T09:12:44Z</time>
      </trkpt>
      <trkpt lat="48.68296" lon="6.61614">
        <ele>226.6</ele>
        <time>2020-06-29T09:12:45Z</time>
      </trkpt>
      <trkpt lat="48.68292" lon="6.61604">
        <ele>226.6</ele>
        <time>2020-06-29T09:12:46Z</time>
      </trkpt>
      <trkpt lat="48.68288" lon="6.61595">
        <ele>226.7</ele>
        <time>2020-06-29T09:12:47Z</time>
      </trkpt>
      <trkpt lat="48.68284" lon="6.61585">
        <ele>226.7</ele>
        <time>2020-06-29T09:12:48Z</time>
      </trkpt>
      <trkpt lat="48.68281" lon="6.61577">
        <ele>226.7</ele>
        <time>2020-06-29T09:12:49Z</time>
      </trkpt>
      <trkpt lat="48.68277" lon="6.61566">
        <ele>226.7</ele>
        <time>2020-06-29T09:12:50Z</time>
      </trkpt>
      <trkpt lat="48.68274" lon="6.61558">
        <ele>226.7</ele>
        <time>2020-06-29T09:12:51Z</time>
      </trkpt>
      <trkpt lat="48.68271" lon="6.6155">
        <ele>226.6</ele>
        <time>2020-06-29T09:12:52Z</time>
      </trkpt>
      <trkpt lat="48.68268" lon="6.61541">
        <ele>226.6</ele>
        <time>2020-06-29T09:12:53Z</time>
      </trkpt>
      <trkpt lat="48.68265" lon="6.61534">
        <ele>226.6</ele>
        <time>2020-06-29T09:12:54Z</time>
      </trkpt>
      <trkpt lat="48.68262" lon="6.61527">
        <ele>226.6</ele>
        <time>2020-06-29T09:12:55Z</time>
      </trkpt>
      <trkpt lat="48.68259" lon="6.61519">
        <ele>226.6</ele>
        <time>2020-06-29T09:12:56Z</time>
      </trkpt>
      <trkpt lat="48.68256" lon="6.6151">
        <ele>226.6</ele>
        <time>2020-06-29T09:12:57Z</time>
      </trkpt>
      <trkpt lat="48.68253" lon="6.61504">
        <ele>226.7</ele>
        <time>2020-06-29T09:12:58Z</time>
      </trkpt>
      <trkpt lat="48.6825" lon="6.61496">
        <ele>226.7</ele>
        <time>2020-06-29T09:12:59Z</time>
      </trkpt>
      <trkpt lat="48.68246" lon="6.61489">
        <ele>226.7</ele>
        <time>2020-06-29T09:13:00Z</time>
      </trkpt>
      <trkpt lat="48.68242" lon="6.61482">
        <ele>226.7</ele>
        <time>2020-06-29T09:13:01Z</time>
      </trkpt>
      <trkpt lat="48.68239" lon="6.61474">
        <ele>226.7</ele>
        <time>2020-06-29T09:13:02Z</time>
      </trkpt>
      <trkpt lat="48.68235" lon="6.61466">
        <ele>226.8</ele>
        <time>2020-06-29T09:13:03Z</time>
      </trkpt>
      <trkpt lat="48.68231" lon="6.61458">
        <ele>226.8</ele>
        <time>2020-06-29T09:13:04Z</time>
      </trkpt>
      <trkpt lat="48.68227" lon="6.61449">
        <ele>226.8</ele>
        <time>2020-06-29T09:13:05Z</time>
      </trkpt>
      <trkpt lat="48.68222" lon="6.6144">
        <ele>226.9</ele>
        <time>2020-06-29T09:13:06Z</time>
      </trkpt>
      <trkpt lat="48.68218" lon="6.61431">
        <ele>226.9</ele>
        <time>2020-06-29T09:13:07Z</time>
      </trkpt>
      <trkpt lat="48.68214" lon="6.61423">
        <ele>226.9</ele>
        <time>2020-06-29T09:13:08Z</time>
      </trkpt>
      <trkpt lat="48.68208" lon="6.61413">
        <ele>226.9</ele>
        <time>2020-06-29T09:13:09Z</time>
      </trkpt>
      <trkpt lat="48.68204" lon="6.61406">
        <ele>226.9</ele>
        <time>2020-06-29T09:13:10Z</time>
      </trkpt>
      <trkpt lat="48.682" lon="6.61399">
        <ele>226.8</ele>
        <time>2020-06-29T09:13:11Z</time>
      </trkpt>
      <trkpt lat="48.68197" lon="6.61392">
        <ele>226.8</ele>
        <time>2020-06-29T09:13:12Z</time>
      </trkpt>
      <trkpt lat="48.68193" lon="6.61384">
        <ele>226.8</ele>
        <time>2020-06-29T09:13:13Z</time>
      </trkpt>
      <trkpt lat="48.68189" lon="6.61377">
        <ele>226.9</ele>
        <time>2020-06-29T09:13:14Z</time>
      </trkpt>
      <trkpt lat="48.68185" lon="6.6137">
        <ele>226.9</ele>
        <time>2020-06-29T09:13:15Z</time>
      </trkpt>
      <trkpt lat="48.6818" lon="6.61362">
        <ele>226.8</ele>
        <time>2020-06-29T09:13:16Z</time>
      </trkpt>
      <trkpt lat="48.68175" lon="6.61355">
        <ele>226.8</ele>
        <time>2020-06-29T09:13:17Z</time>
      </trkpt>
      <trkpt lat="48.68172" lon="6.61348">
        <ele>226.8</ele>
        <time>2020-06-29T09:13:18Z</time>
      </trkpt>
      <trkpt lat="48.68167" lon="6.6134">
        <ele>226.8</ele>
        <time>2020-06-29T09:13:19Z</time>
      </trkpt>
      <trkpt lat="48.68163" lon="6.61333">
        <ele>226.8</ele>
        <time>2020-06-29T09:13:20Z</time>
      </trkpt>
      <trkpt lat="48.68159" lon="6.61325">
        <ele>226.8</ele>
        <time>2020-06-29T09:13:21Z</time>
      </trkpt>
      <trkpt lat="48.68154" lon="6.61318">
        <ele>226.8</ele>
        <time>2020-06-29T09:13:22Z</time>
      </trkpt>
      <trkpt lat="48.6815" lon="6.6131">
        <ele>226.7</ele>
        <time>2020-06-29T09:13:23Z</time>
      </trkpt>
      <trkpt lat="48.68146" lon="6.61305">
        <ele>226.7</ele>
        <time>2020-06-29T09:13:24Z</time>
      </trkpt>
      <trkpt lat="48.68141" lon="6.61298">
        <ele>226.7</ele>
        <time>2020-06-29T09:13:25Z</time>
      </trkpt>
      <trkpt lat="48.68136" lon="6.61292">
        <ele>226.7</ele>
        <time>2020-06-29T09:13:26Z</time>
      </trkpt>
      <trkpt lat="48.68131" lon="6.61285">
        <ele>226.8</ele>
        <time>2020-06-29T09:13:27Z</time>
      </trkpt>
      <trkpt lat="48.68126" lon="6.61278">
        <ele>226.8</ele>
        <time>2020-06-29T09:13:28Z</time>
      </trkpt>
      <trkpt lat="48.68123" lon="6.61272">
        <ele>226.8</ele>
        <time>2020-06-29T09:13:29Z</time>
      </trkpt>
      <trkpt lat="48.68118" lon="6.61266">
        <ele>226.8</ele>
        <time>2020-06-29T09:13:30Z</time>
      </trkpt>
      <trkpt lat="48.68113" lon="6.6126">
        <ele>226.8</ele>
        <time>2020-06-29T09:13:31Z</time>
      </trkpt>
      <trkpt lat="48.68108" lon="6.61254">
        <ele>226.8</ele>
        <time>2020-06-29T09:13:32Z</time>
      </trkpt>
      <trkpt lat="48.68105" lon="6.61249">
        <ele>226.9</ele>
        <time>2020-06-29T09:13:33Z</time>
      </trkpt>
      <trkpt lat="48.68101" lon="6.61243">
        <ele>226.9</ele>
        <time>2020-06-29T09:13:34Z</time>
      </trkpt>
      <trkpt lat="48.68097" lon="6.61237">
        <ele>226.9</ele>
        <time>2020-06-29T09:13:35Z</time>
      </trkpt>
      <trkpt lat="48.68092" lon="6.61231">
        <ele>226.8</ele>
        <time>2020-06-29T09:13:36Z</time>
      </trkpt>
      <trkpt lat="48.68088" lon="6.61224">
        <ele>226.8</ele>
        <time>2020-06-29T09:13:37Z</time>
      </trkpt>
      <trkpt lat="48.68083" lon="6.61218">
        <ele>226.8</ele>
        <time>2020-06-29T09:13:38Z</time>
      </trkpt>
      <trkpt lat="48.68079" lon="6.61213">
        <ele>226.8</ele>
        <time>2020-06-29T09:13:39Z</time>
      </trkpt>
      <trkpt lat="48.68074" lon="6.61207">
        <ele>226.8</ele>
        <time>2020-06-29T09:13:40Z</time>
      </trkpt>
      <trkpt lat="48.68069" lon="6.61201">
        <ele>226.8</ele>
        <time>2020-06-29T09:13:41Z</time>
      </trkpt>
      <trkpt lat="48.68064" lon="6.61196">
        <ele>226.8</ele>
        <time>2020-06-29T09:13:42Z</time>
      </trkpt>
      <trkpt lat="48.6806" lon="6.61192">
        <ele>226.8</ele>
        <time>2020-06-29T09:13:43Z</time>
      </trkpt>
      <trkpt lat="48.68056" lon="6.61187">
        <ele>226.8</ele>
        <time>2020-06-29T09:13:44Z</time>
      </trkpt>
      <trkpt lat="48.68051" lon="6.61181">
        <ele>226.8</ele>
        <time>2020-06-29T09:13:45Z</time>
      </trkpt>
      <trkpt lat="48.68047" lon="6.61177">
        <ele>226.8</ele>
        <time>2020-06-29T09:13:46Z</time>
      </trkpt>
      <trkpt lat="48.68042" lon="6.61172">
        <ele>226.9</ele>
        <time>2020-06-29T09:13:47Z</time>
      </trkpt>
      <trkpt lat="48.68034" lon="6.61163">
        <ele>226.9</ele>
        <time>2020-06-29T09:13:48Z</time>
      </trkpt>
      <trkpt lat="48.6803" lon="6.61159">
        <ele>226.9</ele>
        <time>2020-06-29T09:13:49Z</time>
      </trkpt>
      <trkpt lat="48.68026" lon="6.61154">
        <ele>226.9</ele>
        <time>2020-06-29T09:13:50Z</time>
      </trkpt>
      <trkpt lat="48.68022" lon="6.61147">
        <ele>226.9</ele>
        <time>2020-06-29T09:13:51Z</time>
      </trkpt>
      <trkpt lat="48.68019" lon="6.61139">
        <ele>226.9</ele>
        <time>2020-06-29T09:13:52Z</time>
      </trkpt>
      <trkpt lat="48.68015" lon="6.61132">
        <ele>226.9</ele>
        <time>2020-06-29T09:13:53Z</time>
      </trkpt>
      <trkpt lat="48.68011" lon="6.61125">
        <ele>226.9</ele>
        <time>2020-06-29T09:13:54Z</time>
      </trkpt>
      <trkpt lat="48.68007" lon="6.61119">
        <ele>226.9</ele>
        <time>2020-06-29T09:13:55Z</time>
      </trkpt>
      <trkpt lat="48.68003" lon="6.61111">
        <ele>226.9</ele>
        <time>2020-06-29T09:13:56Z</time>
      </trkpt>
      <trkpt lat="48.67999" lon="6.61103">
        <ele>226.9</ele>
        <time>2020-06-29T09:13:57Z</time>
      </trkpt>
      <trkpt lat="48.67997" lon="6.61094">
        <ele>226.9</ele>
        <time>2020-06-29T09:13:58Z</time>
      </trkpt>
      <trkpt lat="48.67994" lon="6.61086">
        <ele>226.9</ele>
        <time>2020-06-29T09:13:59Z</time>
      </trkpt>
      <trkpt lat="48.67992" lon="6.61077">
        <ele>226.9</ele>
        <time>2020-06-29T09:14:00Z</time>
      </trkpt>
      <trkpt lat="48.67988" lon="6.61066">
        <ele>226.9</ele>
        <time>2020-06-29T09:14:01Z</time>
      </trkpt>
      <trkpt lat="48.67985" lon="6.61056">
        <ele>226.9</ele>
        <time>2020-06-29T09:14:02Z</time>
      </trkpt>
      <trkpt lat="48.67983" lon="6.61047">
        <ele>226.9</ele>
        <time>2020-06-29T09:14:03Z</time>
      </trkpt>
      <trkpt lat="48.67981" lon="6.6104">
        <ele>226.9</ele>
        <time>2020-06-29T09:14:04Z</time>
      </trkpt>
      <trkpt lat="48.67978" lon="6.61032">
        <ele>226.8</ele>
        <time>2020-06-29T09:14:05Z</time>
      </trkpt>
      <trkpt lat="48.67976" lon="6.61023">
        <ele>226.8</ele>
        <time>2020-06-29T09:14:06Z</time>
      </trkpt>
      <trkpt lat="48.67974" lon="6.61017">
        <ele>226.8</ele>
        <time>2020-06-29T09:14:07Z</time>
      </trkpt>
      <trkpt lat="48.67972" lon="6.61008">
        <ele>226.8</ele>
        <time>2020-06-29T09:14:08Z</time>
      </trkpt>
      <trkpt lat="48.6797" lon="6.60999">
        <ele>226.8</ele>
        <time>2020-06-29T09:14:09Z</time>
      </trkpt>
      <trkpt lat="48.67969" lon="6.60991">
        <ele>226.8</ele>
        <time>2020-06-29T09:14:10Z</time>
      </trkpt>
      <trkpt lat="48.67967" lon="6.60981">
        <ele>226.8</ele>
        <time>2020-06-29T09:14:11Z</time>
      </trkpt>
      <trkpt lat="48.67966" lon="6.60971">
        <ele>226.8</ele>
        <time>2020-06-29T09:14:12Z</time>
      </trkpt>
      <trkpt lat="48.67964" lon="6.6096">
        <ele>226.9</ele>
        <time>2020-06-29T09:14:13Z</time>
      </trkpt>
      <trkpt lat="48.67963" lon="6.60953">
        <ele>226.9</ele>
        <time>2020-06-29T09:14:14Z</time>
      </trkpt>
      <trkpt lat="48.67962" lon="6.60943">
        <ele>226.9</ele>
        <time>2020-06-29T09:14:15Z</time>
      </trkpt>
      <trkpt lat="48.67961" lon="6.60935">
        <ele>226.9</ele>
        <time>2020-06-29T09:14:16Z</time>
      </trkpt>
      <trkpt lat="48.67961" lon="6.60927">
        <ele>226.9</ele>
        <time>2020-06-29T09:14:17Z</time>
      </trkpt>
      <trkpt lat="48.67961" lon="6.60917">
        <ele>226.9</ele>
        <time>2020-06-29T09:14:18Z</time>
      </trkpt>
      <trkpt lat="48.67961" lon="6.60908">
        <ele>226.9</ele>
        <time>2020-06-29T09:14:19Z</time>
      </trkpt>
      <trkpt lat="48.6796" lon="6.60901">
        <ele>226.9</ele>
        <time>2020-06-29T09:14:20Z</time>
      </trkpt>
      <trkpt lat="48.6796" lon="6.60894">
        <ele>226.9</ele>
        <time>2020-06-29T09:14:21Z</time>
      </trkpt>
      <trkpt lat="48.67959" lon="6.60887">
        <ele>226.9</ele>
        <time>2020-06-29T09:14:22Z</time>
      </trkpt>
      <trkpt lat="48.67959" lon="6.60879">
        <ele>226.9</ele>
        <time>2020-06-29T09:14:23Z</time>
      </trkpt>
      <trkpt lat="48.6796" lon="6.6087">
        <ele>227</ele>
        <time>2020-06-29T09:14:24Z</time>
      </trkpt>
      <trkpt lat="48.67961" lon="6.60863">
        <ele>227</ele>
        <time>2020-06-29T09:14:25Z</time>
      </trkpt>
      <trkpt lat="48.67962" lon="6.60852">
        <ele>227</ele>
        <time>2020-06-29T09:14:26Z</time>
      </trkpt>
      <trkpt lat="48.67962" lon="6.60844">
        <ele>227</ele>
        <time>2020-06-29T09:14:27Z</time>
      </trkpt>
      <trkpt lat="48.67963" lon="6.60836">
        <ele>227</ele>
        <time>2020-06-29T09:14:28Z</time>
      </trkpt>
      <trkpt lat="48.67963" lon="6.60827">
        <ele>226.9</ele>
        <time>2020-06-29T09:14:29Z</time>
      </trkpt>
      <trkpt lat="48.67964" lon="6.60818">
        <ele>226.9</ele>
        <time>2020-06-29T09:14:30Z</time>
      </trkpt>
      <trkpt lat="48.67965" lon="6.60808">
        <ele>226.9</ele>
        <time>2020-06-29T09:14:31Z</time>
      </trkpt>
      <trkpt lat="48.67965" lon="6.60799">
        <ele>226.9</ele>
        <time>2020-06-29T09:14:32Z</time>
      </trkpt>
      <trkpt lat="48.67966" lon="6.6079">
        <ele>226.8</ele>
        <time>2020-06-29T09:14:33Z</time>
      </trkpt>
      <trkpt lat="48.67966" lon="6.60781">
        <ele>226.8</ele>
        <time>2020-06-29T09:14:34Z</time>
      </trkpt>
      <trkpt lat="48.67967" lon="6.60771">
        <ele>226.8</ele>
        <time>2020-06-29T09:14:35Z</time>
      </trkpt>
      <trkpt lat="48.67967" lon="6.60764">
        <ele>226.9</ele>
        <time>2020-06-29T09:14:36Z</time>
      </trkpt>
      <trkpt lat="48.67967" lon="6.60756">
        <ele>226.9</ele>
        <time>2020-06-29T09:14:37Z</time>
      </trkpt>
      <trkpt lat="48.67967" lon="6.60749">
        <ele>226.9</ele>
        <time>2020-06-29T09:14:38Z</time>
      </trkpt>
      <trkpt lat="48.67967" lon="6.60738">
        <ele>227</ele>
        <time>2020-06-29T09:14:39Z</time>
      </trkpt>
      <trkpt lat="48.67967" lon="6.60729">
        <ele>227</ele>
        <time>2020-06-29T09:14:40Z</time>
      </trkpt>
      <trkpt lat="48.67966" lon="6.60725">
        <ele>227</ele>
        <time>2020-06-29T09:14:41Z</time>
      </trkpt>
      <trkpt lat="48.67967" lon="6.60715">
        <ele>227.1</ele>
        <time>2020-06-29T09:14:42Z</time>
      </trkpt>
      <trkpt lat="48.67966" lon="6.60709">
        <ele>227.1</ele>
        <time>2020-06-29T09:14:43Z</time>
      </trkpt>
      <trkpt lat="48.67965" lon="6.60701">
        <ele>227.1</ele>
        <time>2020-06-29T09:14:44Z</time>
      </trkpt>
      <trkpt lat="48.67965" lon="6.60696">
        <ele>227.1</ele>
        <time>2020-06-29T09:14:45Z</time>
      </trkpt>
      <trkpt lat="48.67965" lon="6.60688">
        <ele>227.1</ele>
        <time>2020-06-29T09:14:46Z</time>
      </trkpt>
      <trkpt lat="48.67965" lon="6.6068">
        <ele>227.1</ele>
        <time>2020-06-29T09:14:47Z</time>
      </trkpt>
      <trkpt lat="48.67966" lon="6.60673">
        <ele>227</ele>
        <time>2020-06-29T09:14:48Z</time>
      </trkpt>
      <trkpt lat="48.67966" lon="6.60666">
        <ele>227</ele>
        <time>2020-06-29T09:14:49Z</time>
      </trkpt>
      <trkpt lat="48.67966" lon="6.60657">
        <ele>227</ele>
        <time>2020-06-29T09:14:50Z</time>
      </trkpt>
      <trkpt lat="48.67966" lon="6.60652">
        <ele>227</ele>
        <time>2020-06-29T09:14:51Z</time>
      </trkpt>
      <trkpt lat="48.67965" lon="6.60645">
        <ele>227.1</ele>
        <time>2020-06-29T09:14:52Z</time>
      </trkpt>
      <trkpt lat="48.67964" lon="6.60638">
        <ele>227.1</ele>
        <time>2020-06-29T09:14:53Z</time>
      </trkpt>
      <trkpt lat="48.67964" lon="6.60633">
        <ele>227.2</ele>
        <time>2020-06-29T09:14:54Z</time>
      </trkpt>
      <trkpt lat="48.67964" lon="6.60626">
        <ele>227.2</ele>
        <time>2020-06-29T09:14:55Z</time>
      </trkpt>
      <trkpt lat="48.67964" lon="6.60621">
        <ele>227.2</ele>
        <time>2020-06-29T09:14:56Z</time>
      </trkpt>
      <trkpt lat="48.67964" lon="6.60615">
        <ele>227.2</ele>
        <time>2020-06-29T09:14:57Z</time>
      </trkpt>
      <trkpt lat="48.67963" lon="6.60608">
        <ele>227.2</ele>
        <time>2020-06-29T09:14:58Z</time>
      </trkpt>
      <trkpt lat="48.67963" lon="6.60603">
        <ele>227.2</ele>
        <time>2020-06-29T09:14:59Z</time>
      </trkpt>
      <trkpt lat="48.67961" lon="6.60595">
        <ele>227.2</ele>
        <time>2020-06-29T09:15:00Z</time>
      </trkpt>
      <trkpt lat="48.67961" lon="6.60588">
        <ele>227.1</ele>
        <time>2020-06-29T09:15:01Z</time>
      </trkpt>
      <trkpt lat="48.6796" lon="6.60579">
        <ele>227.1</ele>
        <time>2020-06-29T09:15:02Z</time>
      </trkpt>
      <trkpt lat="48.6796" lon="6.60571">
        <ele>227.1</ele>
        <time>2020-06-29T09:15:03Z</time>
      </trkpt>
      <trkpt lat="48.67959" lon="6.60564">
        <ele>227.1</ele>
        <time>2020-06-29T09:15:04Z</time>
      </trkpt>
      <trkpt lat="48.67958" lon="6.60556">
        <ele>227.2</ele>
        <time>2020-06-29T09:15:05Z</time>
      </trkpt>
      <trkpt lat="48.67957" lon="6.60549">
        <ele>227.3</ele>
        <time>2020-06-29T09:15:06Z</time>
      </trkpt>
      <trkpt lat="48.67956" lon="6.6054">
        <ele>227.4</ele>
        <time>2020-06-29T09:15:07Z</time>
      </trkpt>
      <trkpt lat="48.67955" lon="6.60532">
        <ele>227.6</ele>
        <time>2020-06-29T09:15:08Z</time>
      </trkpt>
      <trkpt lat="48.67954" lon="6.60526">
        <ele>227.5</ele>
        <time>2020-06-29T09:15:09Z</time>
      </trkpt>
      <trkpt lat="48.67954" lon="6.60521">
        <ele>227.4</ele>
        <time>2020-06-29T09:15:10Z</time>
      </trkpt>
      <trkpt lat="48.67953" lon="6.60514">
        <ele>227.4</ele>
        <time>2020-06-29T09:15:11Z</time>
      </trkpt>
      <trkpt lat="48.67952" lon="6.60506">
        <ele>227.3</ele>
        <time>2020-06-29T09:15:12Z</time>
      </trkpt>
      <trkpt lat="48.67952" lon="6.60501">
        <ele>227.2</ele>
        <time>2020-06-29T09:15:13Z</time>
      </trkpt>
      <trkpt lat="48.67953" lon="6.60494">
        <ele>227.1</ele>
        <time>2020-06-29T09:15:14Z</time>
      </trkpt>
      <trkpt lat="48.67953" lon="6.60489">
        <ele>227.1</ele>
        <time>2020-06-29T09:15:15Z</time>
      </trkpt>
      <trkpt lat="48.67953" lon="6.60484">
        <ele>227.1</ele>
        <time>2020-06-29T09:15:16Z</time>
      </trkpt>
      <trkpt lat="48.67952" lon="6.60478">
        <ele>227</ele>
        <time>2020-06-29T09:15:17Z</time>
      </trkpt>
      <trkpt lat="48.67952" lon="6.60471">
        <ele>227</ele>
        <time>2020-06-29T09:15:18Z</time>
      </trkpt>
      <trkpt lat="48.67952" lon="6.60465">
        <ele>227</ele>
        <time>2020-06-29T09:15:19Z</time>
      </trkpt>
      <trkpt lat="48.67952" lon="6.60453">
        <ele>227</ele>
        <time>2020-06-29T09:15:20Z</time>
      </trkpt>
      <trkpt lat="48.6795" lon="6.60446">
        <ele>227</ele>
        <time>2020-06-29T09:15:21Z</time>
      </trkpt>
      <trkpt lat="48.6795" lon="6.60439">
        <ele>227</ele>
        <time>2020-06-29T09:15:22Z</time>
      </trkpt>
      <trkpt lat="48.67948" lon="6.60429">
        <ele>226.9</ele>
        <time>2020-06-29T09:15:23Z</time>
      </trkpt>
      <trkpt lat="48.67948" lon="6.6042">
        <ele>227</ele>
        <time>2020-06-29T09:15:24Z</time>
      </trkpt>
      <trkpt lat="48.67948" lon="6.60413">
        <ele>227</ele>
        <time>2020-06-29T09:15:25Z</time>
      </trkpt>
      <trkpt lat="48.67948" lon="6.60409">
        <ele>227</ele>
        <time>2020-06-29T09:15:26Z</time>
      </trkpt>
      <trkpt lat="48.67948" lon="6.60401">
        <ele>227</ele>
        <time>2020-06-29T09:15:27Z</time>
      </trkpt>
      <trkpt lat="48.67948" lon="6.60389">
        <ele>226.9</ele>
        <time>2020-06-29T09:15:28Z</time>
      </trkpt>
      <trkpt lat="48.67948" lon="6.60382">
        <ele>226.8</ele>
        <time>2020-06-29T09:15:29Z</time>
      </trkpt>
      <trkpt lat="48.67948" lon="6.60372">
        <ele>226.7</ele>
        <time>2020-06-29T09:15:30Z</time>
      </trkpt>
      <trkpt lat="48.67947" lon="6.60363">
        <ele>226.7</ele>
        <time>2020-06-29T09:15:31Z</time>
      </trkpt>
      <trkpt lat="48.67947" lon="6.60354">
        <ele>226.6</ele>
        <time>2020-06-29T09:15:32Z</time>
      </trkpt>
      <trkpt lat="48.67947" lon="6.60346">
        <ele>226.6</ele>
        <time>2020-06-29T09:15:33Z</time>
      </trkpt>
      <trkpt lat="48.67946" lon="6.60338">
        <ele>226.6</ele>
        <time>2020-06-29T09:15:34Z</time>
      </trkpt>
      <trkpt lat="48.67946" lon="6.6033">
        <ele>226.6</ele>
        <time>2020-06-29T09:15:35Z</time>
      </trkpt>
      <trkpt lat="48.67946" lon="6.60322">
        <ele>226.5</ele>
        <time>2020-06-29T09:15:36Z</time>
      </trkpt>
      <trkpt lat="48.67945" lon="6.60315">
        <ele>226.5</ele>
        <time>2020-06-29T09:15:37Z</time>
      </trkpt>
      <trkpt lat="48.67945" lon="6.60306">
        <ele>226.4</ele>
        <time>2020-06-29T09:15:38Z</time>
      </trkpt>
      <trkpt lat="48.67945" lon="6.60296">
        <ele>226.4</ele>
        <time>2020-06-29T09:15:39Z</time>
      </trkpt>
      <trkpt lat="48.67944" lon="6.60287">
        <ele>226.4</ele>
        <time>2020-06-29T09:15:40Z</time>
      </trkpt>
      <trkpt lat="48.67945" lon="6.60278">
        <ele>226.4</ele>
        <time>2020-06-29T09:15:41Z</time>
      </trkpt>
      <trkpt lat="48.67944" lon="6.60271">
        <ele>226.3</ele>
        <time>2020-06-29T09:15:42Z</time>
      </trkpt>
      <trkpt lat="48.67943" lon="6.60263">
        <ele>226.3</ele>
        <time>2020-06-29T09:15:43Z</time>
      </trkpt>
      <trkpt lat="48.67942" lon="6.60253">
        <ele>226.3</ele>
        <time>2020-06-29T09:15:44Z</time>
      </trkpt>
      <trkpt lat="48.67942" lon="6.60244">
        <ele>226.3</ele>
        <time>2020-06-29T09:15:45Z</time>
      </trkpt>
      <trkpt lat="48.67941" lon="6.60235">
        <ele>226.3</ele>
        <time>2020-06-29T09:15:46Z</time>
      </trkpt>
      <trkpt lat="48.67941" lon="6.60225">
        <ele>226.4</ele>
        <time>2020-06-29T09:15:47Z</time>
      </trkpt>
      <trkpt lat="48.67941" lon="6.60215">
        <ele>226.4</ele>
        <time>2020-06-29T09:15:48Z</time>
      </trkpt>
      <trkpt lat="48.6794" lon="6.60207">
        <ele>226.4</ele>
        <time>2020-06-29T09:15:49Z</time>
      </trkpt>
      <trkpt lat="48.6794" lon="6.60199">
        <ele>226.4</ele>
        <time>2020-06-29T09:15:50Z</time>
      </trkpt>
      <trkpt lat="48.6794" lon="6.60191">
        <ele>226.4</ele>
        <time>2020-06-29T09:15:51Z</time>
      </trkpt>
      <trkpt lat="48.6794" lon="6.60183">
        <ele>226.4</ele>
        <time>2020-06-29T09:15:52Z</time>
      </trkpt>
      <trkpt lat="48.6794" lon="6.60174">
        <ele>226.3</ele>
        <time>2020-06-29T09:15:53Z</time>
      </trkpt>
      <trkpt lat="48.6794" lon="6.60165">
        <ele>226.3</ele>
        <time>2020-06-29T09:15:54Z</time>
      </trkpt>
      <trkpt lat="48.67939" lon="6.60157">
        <ele>226.3</ele>
        <time>2020-06-29T09:15:55Z</time>
      </trkpt>
      <trkpt lat="48.67939" lon="6.60149">
        <ele>226.3</ele>
        <time>2020-06-29T09:15:56Z</time>
      </trkpt>
      <trkpt lat="48.67938" lon="6.60141">
        <ele>226.3</ele>
        <time>2020-06-29T09:15:57Z</time>
      </trkpt>
      <trkpt lat="48.67938" lon="6.60132">
        <ele>226.3</ele>
        <time>2020-06-29T09:15:58Z</time>
      </trkpt>
      <trkpt lat="48.67938" lon="6.60122">
        <ele>226.3</ele>
        <time>2020-06-29T09:15:59Z</time>
      </trkpt>
      <trkpt lat="48.67937" lon="6.60112">
        <ele>226.3</ele>
        <time>2020-06-29T09:16:00Z</time>
      </trkpt>
      <trkpt lat="48.67937" lon="6.60104">
        <ele>226.3</ele>
        <time>2020-06-29T09:16:01Z</time>
      </trkpt>
      <trkpt lat="48.67936" lon="6.60095">
        <ele>226.3</ele>
        <time>2020-06-29T09:16:02Z</time>
      </trkpt>
      <trkpt lat="48.67936" lon="6.60087">
        <ele>226.4</ele>
        <time>2020-06-29T09:16:03Z</time>
      </trkpt>
      <trkpt lat="48.67936" lon="6.60079">
        <ele>226.4</ele>
        <time>2020-06-29T09:16:04Z</time>
      </trkpt>
      <trkpt lat="48.67936" lon="6.60072">
        <ele>226.5</ele>
        <time>2020-06-29T09:16:05Z</time>
      </trkpt>
      <trkpt lat="48.67936" lon="6.60064">
        <ele>226.5</ele>
        <time>2020-06-29T09:16:06Z</time>
      </trkpt>
      <trkpt lat="48.67935" lon="6.60057">
        <ele>226.5</ele>
        <time>2020-06-29T09:16:07Z</time>
      </trkpt>
      <trkpt lat="48.67934" lon="6.60048">
        <ele>226.5</ele>
        <time>2020-06-29T09:16:08Z</time>
      </trkpt>
      <trkpt lat="48.67933" lon="6.6004">
        <ele>226.5</ele>
        <time>2020-06-29T09:16:09Z</time>
      </trkpt>
      <trkpt lat="48.67932" lon="6.60031">
        <ele>226.5</ele>
        <time>2020-06-29T09:16:10Z</time>
      </trkpt>
      <trkpt lat="48.67932" lon="6.60022">
        <ele>226.4</ele>
        <time>2020-06-29T09:16:11Z</time>
      </trkpt>
      <trkpt lat="48.67931" lon="6.60013">
        <ele>226.4</ele>
        <time>2020-06-29T09:16:12Z</time>
      </trkpt>
      <trkpt lat="48.67931" lon="6.60003">
        <ele>226.4</ele>
        <time>2020-06-29T09:16:13Z</time>
      </trkpt>
      <trkpt lat="48.67932" lon="6.59995">
        <ele>226.4</ele>
        <time>2020-06-29T09:16:14Z</time>
      </trkpt>
      <trkpt lat="48.67931" lon="6.59985">
        <ele>226.4</ele>
        <time>2020-06-29T09:16:15Z</time>
      </trkpt>
      <trkpt lat="48.67931" lon="6.59976">
        <ele>226.4</ele>
        <time>2020-06-29T09:16:16Z</time>
      </trkpt>
      <trkpt lat="48.6793" lon="6.59968">
        <ele>226.5</ele>
        <time>2020-06-29T09:16:17Z</time>
      </trkpt>
      <trkpt lat="48.6793" lon="6.59959">
        <ele>226.5</ele>
        <time>2020-06-29T09:16:18Z</time>
      </trkpt>
      <trkpt lat="48.6793" lon="6.5995">
        <ele>226.4</ele>
        <time>2020-06-29T09:16:19Z</time>
      </trkpt>
      <trkpt lat="48.67931" lon="6.59942">
        <ele>226.4</ele>
        <time>2020-06-29T09:16:20Z</time>
      </trkpt>
      <trkpt lat="48.67931" lon="6.59933">
        <ele>226.4</ele>
        <time>2020-06-29T09:16:21Z</time>
      </trkpt>
      <trkpt lat="48.67932" lon="6.59924">
        <ele>226.4</ele>
        <time>2020-06-29T09:16:22Z</time>
      </trkpt>
      <trkpt lat="48.67933" lon="6.59914">
        <ele>226.4</ele>
        <time>2020-06-29T09:16:23Z</time>
      </trkpt>
      <trkpt lat="48.67934" lon="6.59905">
        <ele>226.3</ele>
        <time>2020-06-29T09:16:24Z</time>
      </trkpt>
      <trkpt lat="48.67935" lon="6.59896">
        <ele>226.3</ele>
        <time>2020-06-29T09:16:25Z</time>
      </trkpt>
      <trkpt lat="48.67936" lon="6.59888">
        <ele>226.3</ele>
        <time>2020-06-29T09:16:26Z</time>
      </trkpt>
      <trkpt lat="48.67937" lon="6.59881">
        <ele>226.3</ele>
        <time>2020-06-29T09:16:27Z</time>
      </trkpt>
      <trkpt lat="48.67938" lon="6.59873">
        <ele>226.3</ele>
        <time>2020-06-29T09:16:28Z</time>
      </trkpt>
      <trkpt lat="48.6794" lon="6.59862">
        <ele>226.3</ele>
        <time>2020-06-29T09:16:29Z</time>
      </trkpt>
      <trkpt lat="48.67942" lon="6.59854">
        <ele>226.3</ele>
        <time>2020-06-29T09:16:30Z</time>
      </trkpt>
      <trkpt lat="48.67943" lon="6.59846">
        <ele>226.3</ele>
        <time>2020-06-29T09:16:31Z</time>
      </trkpt>
      <trkpt lat="48.67944" lon="6.59837">
        <ele>226.3</ele>
        <time>2020-06-29T09:16:32Z</time>
      </trkpt>
      <trkpt lat="48.67944" lon="6.59828">
        <ele>226.3</ele>
        <time>2020-06-29T09:16:33Z</time>
      </trkpt>
      <trkpt lat="48.67945" lon="6.59819">
        <ele>226.3</ele>
        <time>2020-06-29T09:16:34Z</time>
      </trkpt>
      <trkpt lat="48.67946" lon="6.59809">
        <ele>226.3</ele>
        <time>2020-06-29T09:16:35Z</time>
      </trkpt>
      <trkpt lat="48.67946" lon="6.598">
        <ele>226.3</ele>
        <time>2020-06-29T09:16:36Z</time>
      </trkpt>
      <trkpt lat="48.67947" lon="6.59791">
        <ele>226.3</ele>
        <time>2020-06-29T09:16:37Z</time>
      </trkpt>
      <trkpt lat="48.67948" lon="6.59782">
        <ele>226.3</ele>
        <time>2020-06-29T09:16:38Z</time>
      </trkpt>
      <trkpt lat="48.67949" lon="6.59773">
        <ele>226.3</ele>
        <time>2020-06-29T09:16:39Z</time>
      </trkpt>
      <trkpt lat="48.6795" lon="6.59763">
        <ele>226.4</ele>
        <time>2020-06-29T09:16:40Z</time>
      </trkpt>
      <trkpt lat="48.6795" lon="6.59755">
        <ele>226.4</ele>
        <time>2020-06-29T09:16:41Z</time>
      </trkpt>
      <trkpt lat="48.6795" lon="6.59746">
        <ele>226.4</ele>
        <time>2020-06-29T09:16:42Z</time>
      </trkpt>
      <trkpt lat="48.6795" lon="6.59737">
        <ele>226.3</ele>
        <time>2020-06-29T09:16:43Z</time>
      </trkpt>
      <trkpt lat="48.67952" lon="6.59728">
        <ele>226.3</ele>
        <time>2020-06-29T09:16:44Z</time>
      </trkpt>
      <trkpt lat="48.67954" lon="6.59718">
        <ele>226.3</ele>
        <time>2020-06-29T09:16:45Z</time>
      </trkpt>
      <trkpt lat="48.67956" lon="6.59709">
        <ele>226.3</ele>
        <time>2020-06-29T09:16:46Z</time>
      </trkpt>
      <trkpt lat="48.67958" lon="6.597">
        <ele>226.3</ele>
        <time>2020-06-29T09:16:47Z</time>
      </trkpt>
      <trkpt lat="48.67959" lon="6.5969">
        <ele>226.2</ele>
        <time>2020-06-29T09:16:48Z</time>
      </trkpt>
      <trkpt lat="48.67959" lon="6.59682">
        <ele>226.2</ele>
        <time>2020-06-29T09:16:49Z</time>
      </trkpt>
      <trkpt lat="48.6796" lon="6.59672">
        <ele>226.3</ele>
        <time>2020-06-29T09:16:50Z</time>
      </trkpt>
      <trkpt lat="48.67961" lon="6.59662">
        <ele>226.3</ele>
        <time>2020-06-29T09:16:51Z</time>
      </trkpt>
      <trkpt lat="48.67961" lon="6.59653">
        <ele>226.3</ele>
        <time>2020-06-29T09:16:52Z</time>
      </trkpt>
      <trkpt lat="48.67961" lon="6.59644">
        <ele>226.3</ele>
        <time>2020-06-29T09:16:53Z</time>
      </trkpt>
      <trkpt lat="48.67961" lon="6.59636">
        <ele>226.4</ele>
        <time>2020-06-29T09:16:54Z</time>
      </trkpt>
      <trkpt lat="48.67962" lon="6.59626">
        <ele>226.4</ele>
        <time>2020-06-29T09:16:55Z</time>
      </trkpt>
      <trkpt lat="48.67963" lon="6.59617">
        <ele>226.4</ele>
        <time>2020-06-29T09:16:56Z</time>
      </trkpt>
      <trkpt lat="48.67964" lon="6.59608">
        <ele>226.5</ele>
        <time>2020-06-29T09:16:57Z</time>
      </trkpt>
      <trkpt lat="48.67962" lon="6.59601">
        <ele>226.5</ele>
        <time>2020-06-29T09:16:58Z</time>
      </trkpt>
      <trkpt lat="48.67962" lon="6.59591">
        <ele>226.4</ele>
        <time>2020-06-29T09:16:59Z</time>
      </trkpt>
      <trkpt lat="48.67962" lon="6.59582">
        <ele>226.4</ele>
        <time>2020-06-29T09:17:00Z</time>
      </trkpt>
      <trkpt lat="48.67962" lon="6.59574">
        <ele>226.4</ele>
        <time>2020-06-29T09:17:01Z</time>
      </trkpt>
      <trkpt lat="48.67963" lon="6.59565">
        <ele>226.3</ele>
        <time>2020-06-29T09:17:02Z</time>
      </trkpt>
      <trkpt lat="48.67963" lon="6.59556">
        <ele>226.3</ele>
        <time>2020-06-29T09:17:03Z</time>
      </trkpt>
      <trkpt lat="48.67962" lon="6.59548">
        <ele>226.3</ele>
        <time>2020-06-29T09:17:04Z</time>
      </trkpt>
      <trkpt lat="48.67962" lon="6.5954">
        <ele>226.3</ele>
        <time>2020-06-29T09:17:05Z</time>
      </trkpt>
      <trkpt lat="48.67962" lon="6.5953">
        <ele>226.3</ele>
        <time>2020-06-29T09:17:06Z</time>
      </trkpt>
      <trkpt lat="48.67962" lon="6.59521">
        <ele>226.3</ele>
        <time>2020-06-29T09:17:07Z</time>
      </trkpt>
      <trkpt lat="48.67961" lon="6.59513">
        <ele>226.3</ele>
        <time>2020-06-29T09:17:08Z</time>
      </trkpt>
      <trkpt lat="48.6796" lon="6.59505">
        <ele>226.3</ele>
        <time>2020-06-29T09:17:09Z</time>
      </trkpt>
      <trkpt lat="48.6796" lon="6.59497">
        <ele>226.3</ele>
        <time>2020-06-29T09:17:10Z</time>
      </trkpt>
      <trkpt lat="48.67959" lon="6.59487">
        <ele>226.3</ele>
        <time>2020-06-29T09:17:11Z</time>
      </trkpt>
      <trkpt lat="48.67958" lon="6.59477">
        <ele>226.3</ele>
        <time>2020-06-29T09:17:12Z</time>
      </trkpt>
      <trkpt lat="48.67956" lon="6.59466">
        <ele>226.4</ele>
        <time>2020-06-29T09:17:13Z</time>
      </trkpt>
      <trkpt lat="48.67955" lon="6.59456">
        <ele>226.3</ele>
        <time>2020-06-29T09:17:14Z</time>
      </trkpt>
      <trkpt lat="48.67953" lon="6.59447">
        <ele>226.3</ele>
        <time>2020-06-29T09:17:15Z</time>
      </trkpt>
      <trkpt lat="48.67952" lon="6.59438">
        <ele>226.3</ele>
        <time>2020-06-29T09:17:16Z</time>
      </trkpt>
      <trkpt lat="48.67951" lon="6.59429">
        <ele>226.3</ele>
        <time>2020-06-29T09:17:17Z</time>
      </trkpt>
      <trkpt lat="48.67949" lon="6.59419">
        <ele>226.3</ele>
        <time>2020-06-29T09:17:18Z</time>
      </trkpt>
      <trkpt lat="48.67948" lon="6.59409">
        <ele>226.3</ele>
        <time>2020-06-29T09:17:19Z</time>
      </trkpt>
      <trkpt lat="48.67947" lon="6.59399">
        <ele>226.3</ele>
        <time>2020-06-29T09:17:20Z</time>
      </trkpt>
      <trkpt lat="48.67944" lon="6.5939">
        <ele>226.3</ele>
        <time>2020-06-29T09:17:21Z</time>
      </trkpt>
      <trkpt lat="48.67942" lon="6.59381">
        <ele>226.3</ele>
        <time>2020-06-29T09:17:22Z</time>
      </trkpt>
      <trkpt lat="48.6794" lon="6.59372">
        <ele>226.3</ele>
        <time>2020-06-29T09:17:23Z</time>
      </trkpt>
      <trkpt lat="48.67938" lon="6.59363">
        <ele>226.3</ele>
        <time>2020-06-29T09:17:24Z</time>
      </trkpt>
      <trkpt lat="48.67936" lon="6.59354">
        <ele>226.3</ele>
        <time>2020-06-29T09:17:25Z</time>
      </trkpt>
      <trkpt lat="48.67934" lon="6.59345">
        <ele>226.3</ele>
        <time>2020-06-29T09:17:26Z</time>
      </trkpt>
      <trkpt lat="48.6793" lon="6.59336">
        <ele>226.3</ele>
        <time>2020-06-29T09:17:27Z</time>
      </trkpt>
      <trkpt lat="48.67928" lon="6.59328">
        <ele>226.3</ele>
        <time>2020-06-29T09:17:28Z</time>
      </trkpt>
      <trkpt lat="48.67926" lon="6.59319">
        <ele>226.3</ele>
        <time>2020-06-29T09:17:29Z</time>
      </trkpt>
      <trkpt lat="48.67923" lon="6.5931">
        <ele>226.3</ele>
        <time>2020-06-29T09:17:30Z</time>
      </trkpt>
      <trkpt lat="48.6792" lon="6.593">
        <ele>226.2</ele>
        <time>2020-06-29T09:17:31Z</time>
      </trkpt>
      <trkpt lat="48.67917" lon="6.59291">
        <ele>226.2</ele>
        <time>2020-06-29T09:17:32Z</time>
      </trkpt>
      <trkpt lat="48.67914" lon="6.59283">
        <ele>226.2</ele>
        <time>2020-06-29T09:17:33Z</time>
      </trkpt>
      <trkpt lat="48.67911" lon="6.59274">
        <ele>226.2</ele>
        <time>2020-06-29T09:17:34Z</time>
      </trkpt>
      <trkpt lat="48.67908" lon="6.59266">
        <ele>226.2</ele>
        <time>2020-06-29T09:17:35Z</time>
      </trkpt>
      <trkpt lat="48.67905" lon="6.59257">
        <ele>226.2</ele>
        <time>2020-06-29T09:17:36Z</time>
      </trkpt>
      <trkpt lat="48.67901" lon="6.59249">
        <ele>226.2</ele>
        <time>2020-06-29T09:17:37Z</time>
      </trkpt>
      <trkpt lat="48.67897" lon="6.59242">
        <ele>226.3</ele>
        <time>2020-06-29T09:17:38Z</time>
      </trkpt>
      <trkpt lat="48.67893" lon="6.59235">
        <ele>226.3</ele>
        <time>2020-06-29T09:17:39Z</time>
      </trkpt>
      <trkpt lat="48.6789" lon="6.59226">
        <ele>226.3</ele>
        <time>2020-06-29T09:17:40Z</time>
      </trkpt>
      <trkpt lat="48.67886" lon="6.59219">
        <ele>226.3</ele>
        <time>2020-06-29T09:17:41Z</time>
      </trkpt>
      <trkpt lat="48.67883" lon="6.59212">
        <ele>226.3</ele>
        <time>2020-06-29T09:17:42Z</time>
      </trkpt>
      <trkpt lat="48.67878" lon="6.59207">
        <ele>226.4</ele>
        <time>2020-06-29T09:17:43Z</time>
      </trkpt>
      <trkpt lat="48.67875" lon="6.592">
        <ele>226.4</ele>
        <time>2020-06-29T09:17:44Z</time>
      </trkpt>
      <trkpt lat="48.67871" lon="6.59193">
        <ele>226.4</ele>
        <time>2020-06-29T09:17:45Z</time>
      </trkpt>
      <trkpt lat="48.67866" lon="6.59186">
        <ele>226.5</ele>
        <time>2020-06-29T09:17:46Z</time>
      </trkpt>
      <trkpt lat="48.67862" lon="6.59178">
        <ele>226.6</ele>
        <time>2020-06-29T09:17:47Z</time>
      </trkpt>
      <trkpt lat="48.67858" lon="6.59171">
        <ele>226.7</ele>
        <time>2020-06-29T09:17:48Z</time>
      </trkpt>
      <trkpt lat="48.67854" lon="6.59165">
        <ele>226.9</ele>
        <time>2020-06-29T09:17:49Z</time>
      </trkpt>
      <trkpt lat="48.67851" lon="6.5916">
        <ele>227</ele>
        <time>2020-06-29T09:17:50Z</time>
      </trkpt>
      <trkpt lat="48.67847" lon="6.59153">
        <ele>226.9</ele>
        <time>2020-06-29T09:17:51Z</time>
      </trkpt>
      <trkpt lat="48.67844" lon="6.59147">
        <ele>226.9</ele>
        <time>2020-06-29T09:17:52Z</time>
      </trkpt>
      <trkpt lat="48.6784" lon="6.59139">
        <ele>226.9</ele>
        <time>2020-06-29T09:17:53Z</time>
      </trkpt>
      <trkpt lat="48.67838" lon="6.59132">
        <ele>226.9</ele>
        <time>2020-06-29T09:17:54Z</time>
      </trkpt>
      <trkpt lat="48.67835" lon="6.59123">
        <ele>226.9</ele>
        <time>2020-06-29T09:17:55Z</time>
      </trkpt>
      <trkpt lat="48.67832" lon="6.59112">
        <ele>226.9</ele>
        <time>2020-06-29T09:17:56Z</time>
      </trkpt>
      <trkpt lat="48.6783" lon="6.59105">
        <ele>226.9</ele>
        <time>2020-06-29T09:17:57Z</time>
      </trkpt>
      <trkpt lat="48.67827" lon="6.59098">
        <ele>226.9</ele>
        <time>2020-06-29T09:17:58Z</time>
      </trkpt>
      <trkpt lat="48.67825" lon="6.59091">
        <ele>226.8</ele>
        <time>2020-06-29T09:17:59Z</time>
      </trkpt>
      <trkpt lat="48.67822" lon="6.59085">
        <ele>226.8</ele>
        <time>2020-06-29T09:18:00Z</time>
      </trkpt>
      <trkpt lat="48.67818" lon="6.59078">
        <ele>226.8</ele>
        <time>2020-06-29T09:18:01Z</time>
      </trkpt>
      <trkpt lat="48.67815" lon="6.5907">
        <ele>226.7</ele>
        <time>2020-06-29T09:18:02Z</time>
      </trkpt>
      <trkpt lat="48.67813" lon="6.59063">
        <ele>226.7</ele>
        <time>2020-06-29T09:18:03Z</time>
      </trkpt>
      <trkpt lat="48.6781" lon="6.59053">
        <ele>226.6</ele>
        <time>2020-06-29T09:18:04Z</time>
      </trkpt>
      <trkpt lat="48.67807" lon="6.59044">
        <ele>226.6</ele>
        <time>2020-06-29T09:18:05Z</time>
      </trkpt>
      <trkpt lat="48.67805" lon="6.59035">
        <ele>226.6</ele>
        <time>2020-06-29T09:18:06Z</time>
      </trkpt>
      <trkpt lat="48.67802" lon="6.59027">
        <ele>226.5</ele>
        <time>2020-06-29T09:18:07Z</time>
      </trkpt>
      <trkpt lat="48.67802" lon="6.59019">
        <ele>226.6</ele>
        <time>2020-06-29T09:18:08Z</time>
      </trkpt>
      <trkpt lat="48.678" lon="6.59013">
        <ele>226.6</ele>
        <time>2020-06-29T09:18:09Z</time>
      </trkpt>
      <trkpt lat="48.678" lon="6.59006">
        <ele>226.6</ele>
        <time>2020-06-29T09:18:10Z</time>
      </trkpt>
      <trkpt lat="48.678" lon="6.58999">
        <ele>226.6</ele>
        <time>2020-06-29T09:18:11Z</time>
      </trkpt>
      <trkpt lat="48.67798" lon="6.58993">
        <ele>226.6</ele>
        <time>2020-06-29T09:18:12Z</time>
      </trkpt>
      <trkpt lat="48.67798" lon="6.58988">
        <ele>226.6</ele>
        <time>2020-06-29T09:18:13Z</time>
      </trkpt>
      <trkpt lat="48.67798" lon="6.58982">
        <ele>226.5</ele>
        <time>2020-06-29T09:18:14Z</time>
      </trkpt>
      <trkpt lat="48.67798" lon="6.58977">
        <ele>226.5</ele>
        <time>2020-06-29T09:18:15Z</time>
      </trkpt>
      <trkpt lat="48.67797" lon="6.58971">
        <ele>226.5</ele>
        <time>2020-06-29T09:18:16Z</time>
      </trkpt>
      <trkpt lat="48.67796" lon="6.58965">
        <ele>226.4</ele>
        <time>2020-06-29T09:18:17Z</time>
      </trkpt>
      <trkpt lat="48.67796" lon="6.58958">
        <ele>226.4</ele>
        <time>2020-06-29T09:18:18Z</time>
      </trkpt>
      <trkpt lat="48.67794" lon="6.58951">
        <ele>226.4</ele>
        <time>2020-06-29T09:18:19Z</time>
      </trkpt>
      <trkpt lat="48.67794" lon="6.58944">
        <ele>226.4</ele>
        <time>2020-06-29T09:18:20Z</time>
      </trkpt>
      <trkpt lat="48.67793" lon="6.58937">
        <ele>226.3</ele>
        <time>2020-06-29T09:18:21Z</time>
      </trkpt>
      <trkpt lat="48.67792" lon="6.5893">
        <ele>226.3</ele>
        <time>2020-06-29T09:18:22Z</time>
      </trkpt>
      <trkpt lat="48.67791" lon="6.58924">
        <ele>226.3</ele>
        <time>2020-06-29T09:18:23Z</time>
      </trkpt>
      <trkpt lat="48.6779" lon="6.58919">
        <ele>226.3</ele>
        <time>2020-06-29T09:18:24Z</time>
      </trkpt>
      <trkpt lat="48.67788" lon="6.58911">
        <ele>226.3</ele>
        <time>2020-06-29T09:18:25Z</time>
      </trkpt>
      <trkpt lat="48.67787" lon="6.58903">
        <ele>226.2</ele>
        <time>2020-06-29T09:18:26Z</time>
      </trkpt>
      <trkpt lat="48.67787" lon="6.58895">
        <ele>226.2</ele>
        <time>2020-06-29T09:18:27Z</time>
      </trkpt>
      <trkpt lat="48.67786" lon="6.58887">
        <ele>226.2</ele>
        <time>2020-06-29T09:18:28Z</time>
      </trkpt>
      <trkpt lat="48.67785" lon="6.58879">
        <ele>226.2</ele>
        <time>2020-06-29T09:18:29Z</time>
      </trkpt>
      <trkpt lat="48.67783" lon="6.58873">
        <ele>226.2</ele>
        <time>2020-06-29T09:18:30Z</time>
      </trkpt>
      <trkpt lat="48.67783" lon="6.58866">
        <ele>226.2</ele>
        <time>2020-06-29T09:18:31Z</time>
      </trkpt>
      <trkpt lat="48.67782" lon="6.58859">
        <ele>226.2</ele>
        <time>2020-06-29T09:18:32Z</time>
      </trkpt>
      <trkpt lat="48.67781" lon="6.5885">
        <ele>226.2</ele>
        <time>2020-06-29T09:18:33Z</time>
      </trkpt>
      <trkpt lat="48.6778" lon="6.58841">
        <ele>226.2</ele>
        <time>2020-06-29T09:18:34Z</time>
      </trkpt>
      <trkpt lat="48.67779" lon="6.58832">
        <ele>226.2</ele>
        <time>2020-06-29T09:18:35Z</time>
      </trkpt>
      <trkpt lat="48.67778" lon="6.58826">
        <ele>226.2</ele>
        <time>2020-06-29T09:18:36Z</time>
      </trkpt>
      <trkpt lat="48.67777" lon="6.58819">
        <ele>226.2</ele>
        <time>2020-06-29T09:18:37Z</time>
      </trkpt>
      <trkpt lat="48.67777" lon="6.5881">
        <ele>226.2</ele>
        <time>2020-06-29T09:18:38Z</time>
      </trkpt>
      <trkpt lat="48.67775" lon="6.58802">
        <ele>226.2</ele>
        <time>2020-06-29T09:18:39Z</time>
      </trkpt>
      <trkpt lat="48.67774" lon="6.58792">
        <ele>226.2</ele>
        <time>2020-06-29T09:18:40Z</time>
      </trkpt>
      <trkpt lat="48.67773" lon="6.58784">
        <ele>226.2</ele>
        <time>2020-06-29T09:18:41Z</time>
      </trkpt>
      <trkpt lat="48.67772" lon="6.58774">
        <ele>226.2</ele>
        <time>2020-06-29T09:18:42Z</time>
      </trkpt>
      <trkpt lat="48.6777" lon="6.58764">
        <ele>226.2</ele>
        <time>2020-06-29T09:18:43Z</time>
      </trkpt>
      <trkpt lat="48.67769" lon="6.58753">
        <ele>226.2</ele>
        <time>2020-06-29T09:18:44Z</time>
      </trkpt>
      <trkpt lat="48.67767" lon="6.58743">
        <ele>226.2</ele>
        <time>2020-06-29T09:18:45Z</time>
      </trkpt>
      <trkpt lat="48.67765" lon="6.58733">
        <ele>226.2</ele>
        <time>2020-06-29T09:18:46Z</time>
      </trkpt>
      <trkpt lat="48.67764" lon="6.58725">
        <ele>226.2</ele>
        <time>2020-06-29T09:18:47Z</time>
      </trkpt>
      <trkpt lat="48.67763" lon="6.58716">
        <ele>226.2</ele>
        <time>2020-06-29T09:18:48Z</time>
      </trkpt>
      <trkpt lat="48.67761" lon="6.58707">
        <ele>226.2</ele>
        <time>2020-06-29T09:18:49Z</time>
      </trkpt>
      <trkpt lat="48.67759" lon="6.58698">
        <ele>226.2</ele>
        <time>2020-06-29T09:18:50Z</time>
      </trkpt>
      <trkpt lat="48.67758" lon="6.58688">
        <ele>226.2</ele>
        <time>2020-06-29T09:18:51Z</time>
      </trkpt>
      <trkpt lat="48.67757" lon="6.58679">
        <ele>226.2</ele>
        <time>2020-06-29T09:18:52Z</time>
      </trkpt>
      <trkpt lat="48.67756" lon="6.58671">
        <ele>226.2</ele>
        <time>2020-06-29T09:18:53Z</time>
      </trkpt>
      <trkpt lat="48.67755" lon="6.58662">
        <ele>226.2</ele>
        <time>2020-06-29T09:18:54Z</time>
      </trkpt>
      <trkpt lat="48.67754" lon="6.58654">
        <ele>226.2</ele>
        <time>2020-06-29T09:18:55Z</time>
      </trkpt>
      <trkpt lat="48.67752" lon="6.58646">
        <ele>226.3</ele>
        <time>2020-06-29T09:18:56Z</time>
      </trkpt>
      <trkpt lat="48.67751" lon="6.58638">
        <ele>226.3</ele>
        <time>2020-06-29T09:18:57Z</time>
      </trkpt>
      <trkpt lat="48.6775" lon="6.58629">
        <ele>226.3</ele>
        <time>2020-06-29T09:18:58Z</time>
      </trkpt>
      <trkpt lat="48.67749" lon="6.58619">
        <ele>226.3</ele>
        <time>2020-06-29T09:18:59Z</time>
      </trkpt>
      <trkpt lat="48.67748" lon="6.5861">
        <ele>226.4</ele>
        <time>2020-06-29T09:19:00Z</time>
      </trkpt>
      <trkpt lat="48.67747" lon="6.58602">
        <ele>226.4</ele>
        <time>2020-06-29T09:19:01Z</time>
      </trkpt>
      <trkpt lat="48.67745" lon="6.58592">
        <ele>226.3</ele>
        <time>2020-06-29T09:19:02Z</time>
      </trkpt>
      <trkpt lat="48.67745" lon="6.58583">
        <ele>226.3</ele>
        <time>2020-06-29T09:19:03Z</time>
      </trkpt>
      <trkpt lat="48.67743" lon="6.58574">
        <ele>226.3</ele>
        <time>2020-06-29T09:19:04Z</time>
      </trkpt>
      <trkpt lat="48.67742" lon="6.58566">
        <ele>226.3</ele>
        <time>2020-06-29T09:19:05Z</time>
      </trkpt>
      <trkpt lat="48.67741" lon="6.58556">
        <ele>226.3</ele>
        <time>2020-06-29T09:19:06Z</time>
      </trkpt>
      <trkpt lat="48.6774" lon="6.58547">
        <ele>226.3</ele>
        <time>2020-06-29T09:19:07Z</time>
      </trkpt>
      <trkpt lat="48.67739" lon="6.58538">
        <ele>226.3</ele>
        <time>2020-06-29T09:19:08Z</time>
      </trkpt>
      <trkpt lat="48.67738" lon="6.58527">
        <ele>226.4</ele>
        <time>2020-06-29T09:19:09Z</time>
      </trkpt>
      <trkpt lat="48.67736" lon="6.58517">
        <ele>226.5</ele>
        <time>2020-06-29T09:19:10Z</time>
      </trkpt>
      <trkpt lat="48.67735" lon="6.58507">
        <ele>226.5</ele>
        <time>2020-06-29T09:19:11Z</time>
      </trkpt>
      <trkpt lat="48.67735" lon="6.58498">
        <ele>226.5</ele>
        <time>2020-06-29T09:19:12Z</time>
      </trkpt>
      <trkpt lat="48.67733" lon="6.58489">
        <ele>226.5</ele>
        <time>2020-06-29T09:19:13Z</time>
      </trkpt>
      <trkpt lat="48.67732" lon="6.5848">
        <ele>226.5</ele>
        <time>2020-06-29T09:19:14Z</time>
      </trkpt>
      <trkpt lat="48.6773" lon="6.5847">
        <ele>226.5</ele>
        <time>2020-06-29T09:19:15Z</time>
      </trkpt>
      <trkpt lat="48.67729" lon="6.58461">
        <ele>226.5</ele>
        <time>2020-06-29T09:19:16Z</time>
      </trkpt>
      <trkpt lat="48.67728" lon="6.58452">
        <ele>226.5</ele>
        <time>2020-06-29T09:19:17Z</time>
      </trkpt>
      <trkpt lat="48.67727" lon="6.58442">
        <ele>226.5</ele>
        <time>2020-06-29T09:19:18Z</time>
      </trkpt>
      <trkpt lat="48.67726" lon="6.58433">
        <ele>226.5</ele>
        <time>2020-06-29T09:19:19Z</time>
      </trkpt>
      <trkpt lat="48.67725" lon="6.58424">
        <ele>226.5</ele>
        <time>2020-06-29T09:19:20Z</time>
      </trkpt>
      <trkpt lat="48.67724" lon="6.58414">
        <ele>226.4</ele>
        <time>2020-06-29T09:19:21Z</time>
      </trkpt>
      <trkpt lat="48.67723" lon="6.58405">
        <ele>226.4</ele>
        <time>2020-06-29T09:19:22Z</time>
      </trkpt>
      <trkpt lat="48.67723" lon="6.58398">
        <ele>226.4</ele>
        <time>2020-06-29T09:19:23Z</time>
      </trkpt>
      <trkpt lat="48.67722" lon="6.58389">
        <ele>226.4</ele>
        <time>2020-06-29T09:19:24Z</time>
      </trkpt>
      <trkpt lat="48.67722" lon="6.5838">
        <ele>226.4</ele>
        <time>2020-06-29T09:19:25Z</time>
      </trkpt>
      <trkpt lat="48.67721" lon="6.58371">
        <ele>226.4</ele>
        <time>2020-06-29T09:19:26Z</time>
      </trkpt>
      <trkpt lat="48.67721" lon="6.58363">
        <ele>226.4</ele>
        <time>2020-06-29T09:19:27Z</time>
      </trkpt>
      <trkpt lat="48.6772" lon="6.58354">
        <ele>226.4</ele>
        <time>2020-06-29T09:19:28Z</time>
      </trkpt>
      <trkpt lat="48.6772" lon="6.58344">
        <ele>226.3</ele>
        <time>2020-06-29T09:19:29Z</time>
      </trkpt>
      <trkpt lat="48.6772" lon="6.58334">
        <ele>226.3</ele>
        <time>2020-06-29T09:19:30Z</time>
      </trkpt>
      <trkpt lat="48.67719" lon="6.58324">
        <ele>226.3</ele>
        <time>2020-06-29T09:19:31Z</time>
      </trkpt>
      <trkpt lat="48.67718" lon="6.58312">
        <ele>226.4</ele>
        <time>2020-06-29T09:19:32Z</time>
      </trkpt>
      <trkpt lat="48.67718" lon="6.58303">
        <ele>226.4</ele>
        <time>2020-06-29T09:19:33Z</time>
      </trkpt>
      <trkpt lat="48.67718" lon="6.58292">
        <ele>226.4</ele>
        <time>2020-06-29T09:19:34Z</time>
      </trkpt>
      <trkpt lat="48.67716" lon="6.58281">
        <ele>226.4</ele>
        <time>2020-06-29T09:19:35Z</time>
      </trkpt>
      <trkpt lat="48.67716" lon="6.58271">
        <ele>226.4</ele>
        <time>2020-06-29T09:19:36Z</time>
      </trkpt>
      <trkpt lat="48.67716" lon="6.58265">
        <ele>226.4</ele>
        <time>2020-06-29T09:19:37Z</time>
      </trkpt>
      <trkpt lat="48.67716" lon="6.58252">
        <ele>226.4</ele>
        <time>2020-06-29T09:19:38Z</time>
      </trkpt>
      <trkpt lat="48.67715" lon="6.58244">
        <ele>226.4</ele>
        <time>2020-06-29T09:19:39Z</time>
      </trkpt>
      <trkpt lat="48.67714" lon="6.58234">
        <ele>226.3</ele>
        <time>2020-06-29T09:19:40Z</time>
      </trkpt>
      <trkpt lat="48.67713" lon="6.58225">
        <ele>226.3</ele>
        <time>2020-06-29T09:19:41Z</time>
      </trkpt>
      <trkpt lat="48.67712" lon="6.58214">
        <ele>226.3</ele>
        <time>2020-06-29T09:19:42Z</time>
      </trkpt>
      <trkpt lat="48.67712" lon="6.58203">
        <ele>226.3</ele>
        <time>2020-06-29T09:19:43Z</time>
      </trkpt>
      <trkpt lat="48.67711" lon="6.58193">
        <ele>226.3</ele>
        <time>2020-06-29T09:19:44Z</time>
      </trkpt>
      <trkpt lat="48.67711" lon="6.58184">
        <ele>226.3</ele>
        <time>2020-06-29T09:19:45Z</time>
      </trkpt>
      <trkpt lat="48.6771" lon="6.58175">
        <ele>226.3</ele>
        <time>2020-06-29T09:19:46Z</time>
      </trkpt>
      <trkpt lat="48.6771" lon="6.58165">
        <ele>226.3</ele>
        <time>2020-06-29T09:19:47Z</time>
      </trkpt>
      <trkpt lat="48.67709" lon="6.58157">
        <ele>226.3</ele>
        <time>2020-06-29T09:19:48Z</time>
      </trkpt>
      <trkpt lat="48.67708" lon="6.5815">
        <ele>226.3</ele>
        <time>2020-06-29T09:19:49Z</time>
      </trkpt>
      <trkpt lat="48.67708" lon="6.58143">
        <ele>226.3</ele>
        <time>2020-06-29T09:19:50Z</time>
      </trkpt>
      <trkpt lat="48.67708" lon="6.58136">
        <ele>226.3</ele>
        <time>2020-06-29T09:19:51Z</time>
      </trkpt>
      <trkpt lat="48.67708" lon="6.58127">
        <ele>226.3</ele>
        <time>2020-06-29T09:19:52Z</time>
      </trkpt>
      <trkpt lat="48.67707" lon="6.58119">
        <ele>226.2</ele>
        <time>2020-06-29T09:19:53Z</time>
      </trkpt>
      <trkpt lat="48.67707" lon="6.58113">
        <ele>226.2</ele>
        <time>2020-06-29T09:19:54Z</time>
      </trkpt>
      <trkpt lat="48.67706" lon="6.58106">
        <ele>226.2</ele>
        <time>2020-06-29T09:19:55Z</time>
      </trkpt>
      <trkpt lat="48.67706" lon="6.58097">
        <ele>226.2</ele>
        <time>2020-06-29T09:19:56Z</time>
      </trkpt>
      <trkpt lat="48.67706" lon="6.58089">
        <ele>226.2</ele>
        <time>2020-06-29T09:19:57Z</time>
      </trkpt>
      <trkpt lat="48.67705" lon="6.5808">
        <ele>226.3</ele>
        <time>2020-06-29T09:19:58Z</time>
      </trkpt>
      <trkpt lat="48.67704" lon="6.5807">
        <ele>226.3</ele>
        <time>2020-06-29T09:19:59Z</time>
      </trkpt>
      <trkpt lat="48.67703" lon="6.58061">
        <ele>226.3</ele>
        <time>2020-06-29T09:20:00Z</time>
      </trkpt>
      <trkpt lat="48.67703" lon="6.58052">
        <ele>226.3</ele>
        <time>2020-06-29T09:20:01Z</time>
      </trkpt>
      <trkpt lat="48.67703" lon="6.58044">
        <ele>226.3</ele>
        <time>2020-06-29T09:20:02Z</time>
      </trkpt>
      <trkpt lat="48.67702" lon="6.58035">
        <ele>226.3</ele>
        <time>2020-06-29T09:20:03Z</time>
      </trkpt>
      <trkpt lat="48.67702" lon="6.58027">
        <ele>226.3</ele>
        <time>2020-06-29T09:20:04Z</time>
      </trkpt>
      <trkpt lat="48.67701" lon="6.5802">
        <ele>226.3</ele>
        <time>2020-06-29T09:20:05Z</time>
      </trkpt>
      <trkpt lat="48.677" lon="6.5801">
        <ele>226.3</ele>
        <time>2020-06-29T09:20:06Z</time>
      </trkpt>
      <trkpt lat="48.67699" lon="6.58001">
        <ele>226.3</ele>
        <time>2020-06-29T09:20:07Z</time>
      </trkpt>
      <trkpt lat="48.67699" lon="6.57991">
        <ele>226.3</ele>
        <time>2020-06-29T09:20:08Z</time>
      </trkpt>
      <trkpt lat="48.677" lon="6.57984">
        <ele>226.3</ele>
        <time>2020-06-29T09:20:09Z</time>
      </trkpt>
      <trkpt lat="48.67701" lon="6.57973">
        <ele>226.3</ele>
        <time>2020-06-29T09:20:10Z</time>
      </trkpt>
      <trkpt lat="48.67702" lon="6.57965">
        <ele>226.3</ele>
        <time>2020-06-29T09:20:11Z</time>
      </trkpt>
      <trkpt lat="48.67703" lon="6.57956">
        <ele>226.3</ele>
        <time>2020-06-29T09:20:12Z</time>
      </trkpt>
      <trkpt lat="48.67704" lon="6.57947">
        <ele>226.3</ele>
        <time>2020-06-29T09:20:13Z</time>
      </trkpt>
      <trkpt lat="48.67704" lon="6.5794">
        <ele>226.3</ele>
        <time>2020-06-29T09:20:14Z</time>
      </trkpt>
      <trkpt lat="48.67706" lon="6.5793">
        <ele>226.3</ele>
        <time>2020-06-29T09:20:15Z</time>
      </trkpt>
      <trkpt lat="48.67707" lon="6.57922">
        <ele>226.3</ele>
        <time>2020-06-29T09:20:16Z</time>
      </trkpt>
      <trkpt lat="48.67708" lon="6.57913">
        <ele>226.3</ele>
        <time>2020-06-29T09:20:17Z</time>
      </trkpt>
      <trkpt lat="48.6771" lon="6.57904">
        <ele>226.3</ele>
        <time>2020-06-29T09:20:18Z</time>
      </trkpt>
      <trkpt lat="48.67712" lon="6.57896">
        <ele>226.2</ele>
        <time>2020-06-29T09:20:19Z</time>
      </trkpt>
      <trkpt lat="48.67714" lon="6.57887">
        <ele>226.2</ele>
        <time>2020-06-29T09:20:20Z</time>
      </trkpt>
      <trkpt lat="48.67716" lon="6.57879">
        <ele>226.2</ele>
        <time>2020-06-29T09:20:21Z</time>
      </trkpt>
      <trkpt lat="48.67718" lon="6.57872">
        <ele>226.2</ele>
        <time>2020-06-29T09:20:22Z</time>
      </trkpt>
      <trkpt lat="48.6772" lon="6.57865">
        <ele>226.2</ele>
        <time>2020-06-29T09:20:23Z</time>
      </trkpt>
      <trkpt lat="48.67723" lon="6.57855">
        <ele>226.2</ele>
        <time>2020-06-29T09:20:24Z</time>
      </trkpt>
      <trkpt lat="48.67726" lon="6.57847">
        <ele>226.2</ele>
        <time>2020-06-29T09:20:25Z</time>
      </trkpt>
      <trkpt lat="48.67729" lon="6.57839">
        <ele>226.2</ele>
        <time>2020-06-29T09:20:26Z</time>
      </trkpt>
      <trkpt lat="48.67731" lon="6.57832">
        <ele>226.1</ele>
        <time>2020-06-29T09:20:27Z</time>
      </trkpt>
      <trkpt lat="48.67735" lon="6.57824">
        <ele>226.1</ele>
        <time>2020-06-29T09:20:28Z</time>
      </trkpt>
      <trkpt lat="48.67739" lon="6.57816">
        <ele>226.1</ele>
        <time>2020-06-29T09:20:29Z</time>
      </trkpt>
      <trkpt lat="48.67742" lon="6.57807">
        <ele>226.1</ele>
        <time>2020-06-29T09:20:30Z</time>
      </trkpt>
      <trkpt lat="48.67746" lon="6.578">
        <ele>226.1</ele>
        <time>2020-06-29T09:20:31Z</time>
      </trkpt>
      <trkpt lat="48.67749" lon="6.57793">
        <ele>226.1</ele>
        <time>2020-06-29T09:20:32Z</time>
      </trkpt>
      <trkpt lat="48.67751" lon="6.57785">
        <ele>226.1</ele>
        <time>2020-06-29T09:20:33Z</time>
      </trkpt>
      <trkpt lat="48.67754" lon="6.57776">
        <ele>226.1</ele>
        <time>2020-06-29T09:20:34Z</time>
      </trkpt>
      <trkpt lat="48.67756" lon="6.57769">
        <ele>226.1</ele>
        <time>2020-06-29T09:20:35Z</time>
      </trkpt>
      <trkpt lat="48.67757" lon="6.57762">
        <ele>226.1</ele>
        <time>2020-06-29T09:20:36Z</time>
      </trkpt>
      <trkpt lat="48.67759" lon="6.57753">
        <ele>226.1</ele>
        <time>2020-06-29T09:20:37Z</time>
      </trkpt>
      <trkpt lat="48.67761" lon="6.57745">
        <ele>226.1</ele>
        <time>2020-06-29T09:20:38Z</time>
      </trkpt>
      <trkpt lat="48.67763" lon="6.57737">
        <ele>226.1</ele>
        <time>2020-06-29T09:20:39Z</time>
      </trkpt>
      <trkpt lat="48.67764" lon="6.57729">
        <ele>226.1</ele>
        <time>2020-06-29T09:20:40Z</time>
      </trkpt>
      <trkpt lat="48.67764" lon="6.57719">
        <ele>226.1</ele>
        <time>2020-06-29T09:20:41Z</time>
      </trkpt>
      <trkpt lat="48.67766" lon="6.57709">
        <ele>226.1</ele>
        <time>2020-06-29T09:20:42Z</time>
      </trkpt>
      <trkpt lat="48.67767" lon="6.577">
        <ele>226.1</ele>
        <time>2020-06-29T09:20:43Z</time>
      </trkpt>
      <trkpt lat="48.67767" lon="6.57692">
        <ele>226.1</ele>
        <time>2020-06-29T09:20:44Z</time>
      </trkpt>
      <trkpt lat="48.67768" lon="6.57684">
        <ele>226.1</ele>
        <time>2020-06-29T09:20:45Z</time>
      </trkpt>
      <trkpt lat="48.67768" lon="6.57674">
        <ele>226</ele>
        <time>2020-06-29T09:20:46Z</time>
      </trkpt>
      <trkpt lat="48.6777" lon="6.57666">
        <ele>226</ele>
        <time>2020-06-29T09:20:47Z</time>
      </trkpt>
      <trkpt lat="48.67771" lon="6.57655">
        <ele>226</ele>
        <time>2020-06-29T09:20:48Z</time>
      </trkpt>
      <trkpt lat="48.67772" lon="6.57645">
        <ele>225.9</ele>
        <time>2020-06-29T09:20:49Z</time>
      </trkpt>
      <trkpt lat="48.67772" lon="6.57635">
        <ele>225.9</ele>
        <time>2020-06-29T09:20:50Z</time>
      </trkpt>
      <trkpt lat="48.67773" lon="6.57626">
        <ele>225.9</ele>
        <time>2020-06-29T09:20:51Z</time>
      </trkpt>
      <trkpt lat="48.67772" lon="6.57617">
        <ele>225.9</ele>
        <time>2020-06-29T09:20:52Z</time>
      </trkpt>
      <trkpt lat="48.67773" lon="6.57609">
        <ele>225.9</ele>
        <time>2020-06-29T09:20:53Z</time>
      </trkpt>
      <trkpt lat="48.67773" lon="6.576">
        <ele>225.9</ele>
        <time>2020-06-29T09:20:54Z</time>
      </trkpt>
      <trkpt lat="48.67774" lon="6.5759">
        <ele>225.9</ele>
        <time>2020-06-29T09:20:55Z</time>
      </trkpt>
      <trkpt lat="48.67775" lon="6.5758">
        <ele>225.9</ele>
        <time>2020-06-29T09:20:56Z</time>
      </trkpt>
      <trkpt lat="48.67776" lon="6.5757">
        <ele>225.9</ele>
        <time>2020-06-29T09:20:57Z</time>
      </trkpt>
      <trkpt lat="48.67777" lon="6.57561">
        <ele>225.9</ele>
        <time>2020-06-29T09:20:58Z</time>
      </trkpt>
      <trkpt lat="48.67778" lon="6.57551">
        <ele>225.9</ele>
        <time>2020-06-29T09:20:59Z</time>
      </trkpt>
      <trkpt lat="48.67779" lon="6.57541">
        <ele>225.9</ele>
        <time>2020-06-29T09:21:00Z</time>
      </trkpt>
      <trkpt lat="48.67779" lon="6.57533">
        <ele>225.9</ele>
        <time>2020-06-29T09:21:01Z</time>
      </trkpt>
      <trkpt lat="48.6778" lon="6.57524">
        <ele>225.9</ele>
        <time>2020-06-29T09:21:02Z</time>
      </trkpt>
      <trkpt lat="48.67782" lon="6.57515">
        <ele>225.9</ele>
        <time>2020-06-29T09:21:03Z</time>
      </trkpt>
      <trkpt lat="48.67783" lon="6.57504">
        <ele>225.9</ele>
        <time>2020-06-29T09:21:04Z</time>
      </trkpt>
      <trkpt lat="48.67785" lon="6.57494">
        <ele>226</ele>
        <time>2020-06-29T09:21:05Z</time>
      </trkpt>
      <trkpt lat="48.67786" lon="6.57484">
        <ele>226</ele>
        <time>2020-06-29T09:21:06Z</time>
      </trkpt>
      <trkpt lat="48.67787" lon="6.57474">
        <ele>226</ele>
        <time>2020-06-29T09:21:07Z</time>
      </trkpt>
      <trkpt lat="48.67788" lon="6.57465">
        <ele>226</ele>
        <time>2020-06-29T09:21:08Z</time>
      </trkpt>
      <trkpt lat="48.6779" lon="6.57455">
        <ele>226</ele>
        <time>2020-06-29T09:21:09Z</time>
      </trkpt>
      <trkpt lat="48.67791" lon="6.57446">
        <ele>226</ele>
        <time>2020-06-29T09:21:10Z</time>
      </trkpt>
      <trkpt lat="48.67792" lon="6.57437">
        <ele>226</ele>
        <time>2020-06-29T09:21:11Z</time>
      </trkpt>
      <trkpt lat="48.67792" lon="6.57428">
        <ele>226.1</ele>
        <time>2020-06-29T09:21:12Z</time>
      </trkpt>
      <trkpt lat="48.67793" lon="6.57419">
        <ele>226.1</ele>
        <time>2020-06-29T09:21:13Z</time>
      </trkpt>
      <trkpt lat="48.67793" lon="6.57409">
        <ele>226.1</ele>
        <time>2020-06-29T09:21:14Z</time>
      </trkpt>
      <trkpt lat="48.67794" lon="6.574">
        <ele>226.1</ele>
        <time>2020-06-29T09:21:15Z</time>
      </trkpt>
      <trkpt lat="48.67794" lon="6.57391">
        <ele>226.1</ele>
        <time>2020-06-29T09:21:16Z</time>
      </trkpt>
      <trkpt lat="48.67795" lon="6.57382">
        <ele>226.2</ele>
        <time>2020-06-29T09:21:17Z</time>
      </trkpt>
      <trkpt lat="48.67796" lon="6.57372">
        <ele>226.2</ele>
        <time>2020-06-29T09:21:18Z</time>
      </trkpt>
      <trkpt lat="48.67798" lon="6.57361">
        <ele>226.2</ele>
        <time>2020-06-29T09:21:19Z</time>
      </trkpt>
      <trkpt lat="48.67798" lon="6.57352">
        <ele>226.2</ele>
        <time>2020-06-29T09:21:20Z</time>
      </trkpt>
      <trkpt lat="48.67798" lon="6.57343">
        <ele>226.2</ele>
        <time>2020-06-29T09:21:21Z</time>
      </trkpt>
      <trkpt lat="48.67798" lon="6.57334">
        <ele>226.2</ele>
        <time>2020-06-29T09:21:22Z</time>
      </trkpt>
      <trkpt lat="48.67799" lon="6.57325">
        <ele>226.3</ele>
        <time>2020-06-29T09:21:23Z</time>
      </trkpt>
      <trkpt lat="48.678" lon="6.57317">
        <ele>226.3</ele>
        <time>2020-06-29T09:21:24Z</time>
      </trkpt>
      <trkpt lat="48.67801" lon="6.57308">
        <ele>226.4</ele>
        <time>2020-06-29T09:21:25Z</time>
      </trkpt>
      <trkpt lat="48.67803" lon="6.573">
        <ele>226.4</ele>
        <time>2020-06-29T09:21:26Z</time>
      </trkpt>
      <trkpt lat="48.67804" lon="6.57293">
        <ele>226.4</ele>
        <time>2020-06-29T09:21:27Z</time>
      </trkpt>
      <trkpt lat="48.67805" lon="6.57285">
        <ele>226.4</ele>
        <time>2020-06-29T09:21:28Z</time>
      </trkpt>
      <trkpt lat="48.67806" lon="6.57276">
        <ele>226.4</ele>
        <time>2020-06-29T09:21:29Z</time>
      </trkpt>
      <trkpt lat="48.67808" lon="6.57267">
        <ele>226.4</ele>
        <time>2020-06-29T09:21:30Z</time>
      </trkpt>
      <trkpt lat="48.67809" lon="6.57261">
        <ele>226.3</ele>
        <time>2020-06-29T09:21:31Z</time>
      </trkpt>
      <trkpt lat="48.67812" lon="6.5725">
        <ele>226.3</ele>
        <time>2020-06-29T09:21:32Z</time>
      </trkpt>
      <trkpt lat="48.67813" lon="6.57242">
        <ele>226.3</ele>
        <time>2020-06-29T09:21:33Z</time>
      </trkpt>
      <trkpt lat="48.67812" lon="6.57235">
        <ele>226.3</ele>
        <time>2020-06-29T09:21:34Z</time>
      </trkpt>
      <trkpt lat="48.67811" lon="6.5723">
        <ele>226.3</ele>
        <time>2020-06-29T09:21:35Z</time>
      </trkpt>
      <trkpt lat="48.67811" lon="6.57225">
        <ele>226.3</ele>
        <time>2020-06-29T09:21:36Z</time>
      </trkpt>
      <trkpt lat="48.6781" lon="6.5722">
        <ele>226.2</ele>
        <time>2020-06-29T09:21:37Z</time>
      </trkpt>
      <trkpt lat="48.67809" lon="6.57215">
        <ele>226</ele>
        <time>2020-06-29T09:21:38Z</time>
      </trkpt>
      <trkpt lat="48.67808" lon="6.57207">
        <ele>225.8</ele>
        <time>2020-06-29T09:21:39Z</time>
      </trkpt>
      <trkpt lat="48.67809" lon="6.57198">
        <ele>225.5</ele>
        <time>2020-06-29T09:21:40Z</time>
      </trkpt>
      <trkpt lat="48.67809" lon="6.5719">
        <ele>225.3</ele>
        <time>2020-06-29T09:21:41Z</time>
      </trkpt>
      <trkpt lat="48.67811" lon="6.57182">
        <ele>225.1</ele>
        <time>2020-06-29T09:21:42Z</time>
      </trkpt>
      <trkpt lat="48.67812" lon="6.57174">
        <ele>224.9</ele>
        <time>2020-06-29T09:21:43Z</time>
      </trkpt>
      <trkpt lat="48.67812" lon="6.57166">
        <ele>224.7</ele>
        <time>2020-06-29T09:21:44Z</time>
      </trkpt>
      <trkpt lat="48.67813" lon="6.57161">
        <ele>224.6</ele>
        <time>2020-06-29T09:21:45Z</time>
      </trkpt>
      <trkpt lat="48.67815" lon="6.57155">
        <ele>224.5</ele>
        <time>2020-06-29T09:21:46Z</time>
      </trkpt>
      <trkpt lat="48.67816" lon="6.57151">
        <ele>224.4</ele>
        <time>2020-06-29T09:21:47Z</time>
      </trkpt>
      <trkpt lat="48.67817" lon="6.57145">
        <ele>224.2</ele>
        <time>2020-06-29T09:21:48Z</time>
      </trkpt>
      <trkpt lat="48.67818" lon="6.57138">
        <ele>224.1</ele>
        <time>2020-06-29T09:21:49Z</time>
      </trkpt>
      <trkpt lat="48.67819" lon="6.57129">
        <ele>223.9</ele>
        <time>2020-06-29T09:21:50Z</time>
      </trkpt>
      <trkpt lat="48.6782" lon="6.57122">
        <ele>223.8</ele>
        <time>2020-06-29T09:21:51Z</time>
      </trkpt>
      <trkpt lat="48.67821" lon="6.57114">
        <ele>223.8</ele>
        <time>2020-06-29T09:21:52Z</time>
      </trkpt>
      <trkpt lat="48.67822" lon="6.57104">
        <ele>223.7</ele>
        <time>2020-06-29T09:21:53Z</time>
      </trkpt>
      <trkpt lat="48.67821" lon="6.57094">
        <ele>223.7</ele>
        <time>2020-06-29T09:21:54Z</time>
      </trkpt>
      <trkpt lat="48.67821" lon="6.57084">
        <ele>223.7</ele>
        <time>2020-06-29T09:21:55Z</time>
      </trkpt>
      <trkpt lat="48.67821" lon="6.57073">
        <ele>223.7</ele>
        <time>2020-06-29T09:21:56Z</time>
      </trkpt>
      <trkpt lat="48.67822" lon="6.57066">
        <ele>223.8</ele>
        <time>2020-06-29T09:21:57Z</time>
      </trkpt>
      <trkpt lat="48.67823" lon="6.57058">
        <ele>223.8</ele>
        <time>2020-06-29T09:21:58Z</time>
      </trkpt>
      <trkpt lat="48.67823" lon="6.5705">
        <ele>223.8</ele>
        <time>2020-06-29T09:21:59Z</time>
      </trkpt>
      <trkpt lat="48.67823" lon="6.57043">
        <ele>223.8</ele>
        <time>2020-06-29T09:22:00Z</time>
      </trkpt>
      <trkpt lat="48.67823" lon="6.57036">
        <ele>223.8</ele>
        <time>2020-06-29T09:22:01Z</time>
      </trkpt>
      <trkpt lat="48.67822" lon="6.57028">
        <ele>223.8</ele>
        <time>2020-06-29T09:22:02Z</time>
      </trkpt>
      <trkpt lat="48.67822" lon="6.57022">
        <ele>223.8</ele>
        <time>2020-06-29T09:22:03Z</time>
      </trkpt>
      <trkpt lat="48.67822" lon="6.57013">
        <ele>223.8</ele>
        <time>2020-06-29T09:22:04Z</time>
      </trkpt>
      <trkpt lat="48.67823" lon="6.57003">
        <ele>223.8</ele>
        <time>2020-06-29T09:22:05Z</time>
      </trkpt>
      <trkpt lat="48.67824" lon="6.56995">
        <ele>223.8</ele>
        <time>2020-06-29T09:22:06Z</time>
      </trkpt>
      <trkpt lat="48.67824" lon="6.56987">
        <ele>223.8</ele>
        <time>2020-06-29T09:22:07Z</time>
      </trkpt>
      <trkpt lat="48.67824" lon="6.56981">
        <ele>223.8</ele>
        <time>2020-06-29T09:22:08Z</time>
      </trkpt>
      <trkpt lat="48.67824" lon="6.56974">
        <ele>223.8</ele>
        <time>2020-06-29T09:22:09Z</time>
      </trkpt>
      <trkpt lat="48.67824" lon="6.56966">
        <ele>223.8</ele>
        <time>2020-06-29T09:22:10Z</time>
      </trkpt>
      <trkpt lat="48.67825" lon="6.56956">
        <ele>223.8</ele>
        <time>2020-06-29T09:22:11Z</time>
      </trkpt>
      <trkpt lat="48.67824" lon="6.56949">
        <ele>223.8</ele>
        <time>2020-06-29T09:22:12Z</time>
      </trkpt>
      <trkpt lat="48.67823" lon="6.5694">
        <ele>223.8</ele>
        <time>2020-06-29T09:22:13Z</time>
      </trkpt>
      <trkpt lat="48.67824" lon="6.56933">
        <ele>223.8</ele>
        <time>2020-06-29T09:22:14Z</time>
      </trkpt>
      <trkpt lat="48.67823" lon="6.56923">
        <ele>223.8</ele>
        <time>2020-06-29T09:22:15Z</time>
      </trkpt>
      <trkpt lat="48.67823" lon="6.56915">
        <ele>223.8</ele>
        <time>2020-06-29T09:22:16Z</time>
      </trkpt>
      <trkpt lat="48.67823" lon="6.56906">
        <ele>223.8</ele>
        <time>2020-06-29T09:22:17Z</time>
      </trkpt>
      <trkpt lat="48.67823" lon="6.56897">
        <ele>223.8</ele>
        <time>2020-06-29T09:22:18Z</time>
      </trkpt>
      <trkpt lat="48.67823" lon="6.56889">
        <ele>223.7</ele>
        <time>2020-06-29T09:22:19Z</time>
      </trkpt>
      <trkpt lat="48.67824" lon="6.5688">
        <ele>223.7</ele>
        <time>2020-06-29T09:22:20Z</time>
      </trkpt>
      <trkpt lat="48.67824" lon="6.5687">
        <ele>223.7</ele>
        <time>2020-06-29T09:22:21Z</time>
      </trkpt>
      <trkpt lat="48.67824" lon="6.56861">
        <ele>223.7</ele>
        <time>2020-06-29T09:22:22Z</time>
      </trkpt>
      <trkpt lat="48.67823" lon="6.56854">
        <ele>223.7</ele>
        <time>2020-06-29T09:22:23Z</time>
      </trkpt>
      <trkpt lat="48.67823" lon="6.56845">
        <ele>223.7</ele>
        <time>2020-06-29T09:22:24Z</time>
      </trkpt>
      <trkpt lat="48.67823" lon="6.56838">
        <ele>223.8</ele>
        <time>2020-06-29T09:22:25Z</time>
      </trkpt>
      <trkpt lat="48.67822" lon="6.56829">
        <ele>223.8</ele>
        <time>2020-06-29T09:22:26Z</time>
      </trkpt>
      <trkpt lat="48.67822" lon="6.5682">
        <ele>223.8</ele>
        <time>2020-06-29T09:22:27Z</time>
      </trkpt>
      <trkpt lat="48.67821" lon="6.56812">
        <ele>223.8</ele>
        <time>2020-06-29T09:22:28Z</time>
      </trkpt>
      <trkpt lat="48.67819" lon="6.56802">
        <ele>223.8</ele>
        <time>2020-06-29T09:22:29Z</time>
      </trkpt>
      <trkpt lat="48.67818" lon="6.56793">
        <ele>223.8</ele>
        <time>2020-06-29T09:22:30Z</time>
      </trkpt>
      <trkpt lat="48.67818" lon="6.56786">
        <ele>223.8</ele>
        <time>2020-06-29T09:22:31Z</time>
      </trkpt>
      <trkpt lat="48.67817" lon="6.56778">
        <ele>223.8</ele>
        <time>2020-06-29T09:22:32Z</time>
      </trkpt>
      <trkpt lat="48.67816" lon="6.56771">
        <ele>223.8</ele>
        <time>2020-06-29T09:22:33Z</time>
      </trkpt>
      <trkpt lat="48.67815" lon="6.56763">
        <ele>223.8</ele>
        <time>2020-06-29T09:22:34Z</time>
      </trkpt>
      <trkpt lat="48.67813" lon="6.56755">
        <ele>223.8</ele>
        <time>2020-06-29T09:22:35Z</time>
      </trkpt>
      <trkpt lat="48.67812" lon="6.56748">
        <ele>223.8</ele>
        <time>2020-06-29T09:22:36Z</time>
      </trkpt>
      <trkpt lat="48.6781" lon="6.5674">
        <ele>223.8</ele>
        <time>2020-06-29T09:22:37Z</time>
      </trkpt>
      <trkpt lat="48.67809" lon="6.56732">
        <ele>223.8</ele>
        <time>2020-06-29T09:22:38Z</time>
      </trkpt>
      <trkpt lat="48.67807" lon="6.56724">
        <ele>223.8</ele>
        <time>2020-06-29T09:22:39Z</time>
      </trkpt>
      <trkpt lat="48.67806" lon="6.56717">
        <ele>223.8</ele>
        <time>2020-06-29T09:22:40Z</time>
      </trkpt>
      <trkpt lat="48.67806" lon="6.56709">
        <ele>223.8</ele>
        <time>2020-06-29T09:22:41Z</time>
      </trkpt>
      <trkpt lat="48.67804" lon="6.56701">
        <ele>223.9</ele>
        <time>2020-06-29T09:22:42Z</time>
      </trkpt>
      <trkpt lat="48.67802" lon="6.56693">
        <ele>223.9</ele>
        <time>2020-06-29T09:22:43Z</time>
      </trkpt>
      <trkpt lat="48.67801" lon="6.56684">
        <ele>224.1</ele>
        <time>2020-06-29T09:22:44Z</time>
      </trkpt>
      <trkpt lat="48.67799" lon="6.56676">
        <ele>224.3</ele>
        <time>2020-06-29T09:22:45Z</time>
      </trkpt>
      <trkpt lat="48.67798" lon="6.56668">
        <ele>224.4</ele>
        <time>2020-06-29T09:22:46Z</time>
      </trkpt>
      <trkpt lat="48.67796" lon="6.56659">
        <ele>224.5</ele>
        <time>2020-06-29T09:22:47Z</time>
      </trkpt>
      <trkpt lat="48.67794" lon="6.56651">
        <ele>224.5</ele>
        <time>2020-06-29T09:22:48Z</time>
      </trkpt>
      <trkpt lat="48.67792" lon="6.56643">
        <ele>224.5</ele>
        <time>2020-06-29T09:22:49Z</time>
      </trkpt>
      <trkpt lat="48.6779" lon="6.56634">
        <ele>224.5</ele>
        <time>2020-06-29T09:22:50Z</time>
      </trkpt>
      <trkpt lat="48.67788" lon="6.56627">
        <ele>224.5</ele>
        <time>2020-06-29T09:22:51Z</time>
      </trkpt>
      <trkpt lat="48.67786" lon="6.56619">
        <ele>224.5</ele>
        <time>2020-06-29T09:22:52Z</time>
      </trkpt>
      <trkpt lat="48.67784" lon="6.56612">
        <ele>224.5</ele>
        <time>2020-06-29T09:22:53Z</time>
      </trkpt>
      <trkpt lat="48.67782" lon="6.56603">
        <ele>224.5</ele>
        <time>2020-06-29T09:22:54Z</time>
      </trkpt>
      <trkpt lat="48.6778" lon="6.56595">
        <ele>224.5</ele>
        <time>2020-06-29T09:22:55Z</time>
      </trkpt>
      <trkpt lat="48.67778" lon="6.56586">
        <ele>224.4</ele>
        <time>2020-06-29T09:22:56Z</time>
      </trkpt>
      <trkpt lat="48.67775" lon="6.56577">
        <ele>224.4</ele>
        <time>2020-06-29T09:22:57Z</time>
      </trkpt>
      <trkpt lat="48.67773" lon="6.56569">
        <ele>224.4</ele>
        <time>2020-06-29T09:22:58Z</time>
      </trkpt>
      <trkpt lat="48.6777" lon="6.56562">
        <ele>224.4</ele>
        <time>2020-06-29T09:22:59Z</time>
      </trkpt>
      <trkpt lat="48.67768" lon="6.56555">
        <ele>224.4</ele>
        <time>2020-06-29T09:23:00Z</time>
      </trkpt>
      <trkpt lat="48.67765" lon="6.56547">
        <ele>224.4</ele>
        <time>2020-06-29T09:23:01Z</time>
      </trkpt>
      <trkpt lat="48.67763" lon="6.5654">
        <ele>224.4</ele>
        <time>2020-06-29T09:23:02Z</time>
      </trkpt>
      <trkpt lat="48.6776" lon="6.56533">
        <ele>224.4</ele>
        <time>2020-06-29T09:23:03Z</time>
      </trkpt>
      <trkpt lat="48.67758" lon="6.56527">
        <ele>224.4</ele>
        <time>2020-06-29T09:23:04Z</time>
      </trkpt>
      <trkpt lat="48.67755" lon="6.5652">
        <ele>224.4</ele>
        <time>2020-06-29T09:23:05Z</time>
      </trkpt>
      <trkpt lat="48.67752" lon="6.56513">
        <ele>224.4</ele>
        <time>2020-06-29T09:23:06Z</time>
      </trkpt>
      <trkpt lat="48.6775" lon="6.56505">
        <ele>224.4</ele>
        <time>2020-06-29T09:23:07Z</time>
      </trkpt>
      <trkpt lat="48.67747" lon="6.56496">
        <ele>224.4</ele>
        <time>2020-06-29T09:23:08Z</time>
      </trkpt>
      <trkpt lat="48.67744" lon="6.56487">
        <ele>224.4</ele>
        <time>2020-06-29T09:23:09Z</time>
      </trkpt>
      <trkpt lat="48.67742" lon="6.5648">
        <ele>224.4</ele>
        <time>2020-06-29T09:23:10Z</time>
      </trkpt>
      <trkpt lat="48.67737" lon="6.56472">
        <ele>224.4</ele>
        <time>2020-06-29T09:23:11Z</time>
      </trkpt>
      <trkpt lat="48.67734" lon="6.56464">
        <ele>224.4</ele>
        <time>2020-06-29T09:23:12Z</time>
      </trkpt>
      <trkpt lat="48.6773" lon="6.56455">
        <ele>224.4</ele>
        <time>2020-06-29T09:23:13Z</time>
      </trkpt>
      <trkpt lat="48.67727" lon="6.56447">
        <ele>224.3</ele>
        <time>2020-06-29T09:23:14Z</time>
      </trkpt>
      <trkpt lat="48.67724" lon="6.5644">
        <ele>224.3</ele>
        <time>2020-06-29T09:23:15Z</time>
      </trkpt>
      <trkpt lat="48.67721" lon="6.56433">
        <ele>224.3</ele>
        <time>2020-06-29T09:23:16Z</time>
      </trkpt>
      <trkpt lat="48.67718" lon="6.56424">
        <ele>224.3</ele>
        <time>2020-06-29T09:23:17Z</time>
      </trkpt>
      <trkpt lat="48.67715" lon="6.56415">
        <ele>224.3</ele>
        <time>2020-06-29T09:23:18Z</time>
      </trkpt>
      <trkpt lat="48.67711" lon="6.56407">
        <ele>224.3</ele>
        <time>2020-06-29T09:23:19Z</time>
      </trkpt>
      <trkpt lat="48.67708" lon="6.56401">
        <ele>224.2</ele>
        <time>2020-06-29T09:23:20Z</time>
      </trkpt>
      <trkpt lat="48.67705" lon="6.56393">
        <ele>224.2</ele>
        <time>2020-06-29T09:23:21Z</time>
      </trkpt>
      <trkpt lat="48.67703" lon="6.56385">
        <ele>224.2</ele>
        <time>2020-06-29T09:23:22Z</time>
      </trkpt>
      <trkpt lat="48.677" lon="6.56376">
        <ele>224.2</ele>
        <time>2020-06-29T09:23:23Z</time>
      </trkpt>
      <trkpt lat="48.67698" lon="6.56366">
        <ele>224.2</ele>
        <time>2020-06-29T09:23:24Z</time>
      </trkpt>
      <trkpt lat="48.67696" lon="6.56359">
        <ele>224.2</ele>
        <time>2020-06-29T09:23:25Z</time>
      </trkpt>
      <trkpt lat="48.67693" lon="6.56351">
        <ele>224.2</ele>
        <time>2020-06-29T09:23:26Z</time>
      </trkpt>
      <trkpt lat="48.67691" lon="6.56343">
        <ele>224.1</ele>
        <time>2020-06-29T09:23:27Z</time>
      </trkpt>
      <trkpt lat="48.67688" lon="6.56335">
        <ele>224.1</ele>
        <time>2020-06-29T09:23:28Z</time>
      </trkpt>
      <trkpt lat="48.67687" lon="6.56327">
        <ele>224.1</ele>
        <time>2020-06-29T09:23:29Z</time>
      </trkpt>
      <trkpt lat="48.67685" lon="6.56318">
        <ele>224.1</ele>
        <time>2020-06-29T09:23:30Z</time>
      </trkpt>
      <trkpt lat="48.67682" lon="6.56311">
        <ele>224.1</ele>
        <time>2020-06-29T09:23:31Z</time>
      </trkpt>
      <trkpt lat="48.67679" lon="6.56302">
        <ele>224.1</ele>
        <time>2020-06-29T09:23:32Z</time>
      </trkpt>
      <trkpt lat="48.67677" lon="6.56294">
        <ele>224.1</ele>
        <time>2020-06-29T09:23:33Z</time>
      </trkpt>
      <trkpt lat="48.67675" lon="6.56287">
        <ele>224.1</ele>
        <time>2020-06-29T09:23:34Z</time>
      </trkpt>
      <trkpt lat="48.67672" lon="6.56281">
        <ele>224.1</ele>
        <time>2020-06-29T09:23:35Z</time>
      </trkpt>
      <trkpt lat="48.67669" lon="6.56273">
        <ele>224</ele>
        <time>2020-06-29T09:23:36Z</time>
      </trkpt>
      <trkpt lat="48.67667" lon="6.56264">
        <ele>224</ele>
        <time>2020-06-29T09:23:37Z</time>
      </trkpt>
      <trkpt lat="48.67666" lon="6.56255">
        <ele>223.9</ele>
        <time>2020-06-29T09:23:38Z</time>
      </trkpt>
      <trkpt lat="48.67665" lon="6.56245">
        <ele>223.9</ele>
        <time>2020-06-29T09:23:39Z</time>
      </trkpt>
      <trkpt lat="48.67664" lon="6.56235">
        <ele>223.9</ele>
        <time>2020-06-29T09:23:40Z</time>
      </trkpt>
      <trkpt lat="48.67662" lon="6.56225">
        <ele>223.9</ele>
        <time>2020-06-29T09:23:41Z</time>
      </trkpt>
      <trkpt lat="48.67661" lon="6.56216">
        <ele>223.9</ele>
        <time>2020-06-29T09:23:42Z</time>
      </trkpt>
      <trkpt lat="48.67661" lon="6.56207">
        <ele>224</ele>
        <time>2020-06-29T09:23:43Z</time>
      </trkpt>
      <trkpt lat="48.67659" lon="6.56198">
        <ele>224</ele>
        <time>2020-06-29T09:23:44Z</time>
      </trkpt>
      <trkpt lat="48.67658" lon="6.56188">
        <ele>224</ele>
        <time>2020-06-29T09:23:45Z</time>
      </trkpt>
      <trkpt lat="48.67658" lon="6.56179">
        <ele>223.9</ele>
        <time>2020-06-29T09:23:46Z</time>
      </trkpt>
      <trkpt lat="48.67657" lon="6.56171">
        <ele>223.9</ele>
        <time>2020-06-29T09:23:47Z</time>
      </trkpt>
      <trkpt lat="48.67657" lon="6.56164">
        <ele>223.9</ele>
        <time>2020-06-29T09:23:48Z</time>
      </trkpt>
      <trkpt lat="48.67656" lon="6.56154">
        <ele>223.9</ele>
        <time>2020-06-29T09:23:49Z</time>
      </trkpt>
      <trkpt lat="48.67656" lon="6.56144">
        <ele>223.9</ele>
        <time>2020-06-29T09:23:50Z</time>
      </trkpt>
      <trkpt lat="48.67656" lon="6.56132">
        <ele>223.9</ele>
        <time>2020-06-29T09:23:51Z</time>
      </trkpt>
      <trkpt lat="48.67655" lon="6.56123">
        <ele>223.9</ele>
        <time>2020-06-29T09:23:52Z</time>
      </trkpt>
      <trkpt lat="48.67655" lon="6.56113">
        <ele>223.9</ele>
        <time>2020-06-29T09:23:53Z</time>
      </trkpt>
      <trkpt lat="48.67654" lon="6.56104">
        <ele>223.8</ele>
        <time>2020-06-29T09:23:54Z</time>
      </trkpt>
      <trkpt lat="48.67653" lon="6.56094">
        <ele>223.8</ele>
        <time>2020-06-29T09:23:55Z</time>
      </trkpt>
      <trkpt lat="48.67652" lon="6.56085">
        <ele>223.8</ele>
        <time>2020-06-29T09:23:56Z</time>
      </trkpt>
      <trkpt lat="48.67652" lon="6.56076">
        <ele>223.8</ele>
        <time>2020-06-29T09:23:57Z</time>
      </trkpt>
      <trkpt lat="48.67652" lon="6.56064">
        <ele>223.9</ele>
        <time>2020-06-29T09:23:58Z</time>
      </trkpt>
      <trkpt lat="48.67652" lon="6.56054">
        <ele>223.9</ele>
        <time>2020-06-29T09:23:59Z</time>
      </trkpt>
      <trkpt lat="48.6765" lon="6.56045">
        <ele>223.9</ele>
        <time>2020-06-29T09:24:00Z</time>
      </trkpt>
      <trkpt lat="48.6765" lon="6.56036">
        <ele>223.9</ele>
        <time>2020-06-29T09:24:01Z</time>
      </trkpt>
      <trkpt lat="48.67649" lon="6.56026">
        <ele>223.9</ele>
        <time>2020-06-29T09:24:02Z</time>
      </trkpt>
      <trkpt lat="48.67648" lon="6.56017">
        <ele>224</ele>
        <time>2020-06-29T09:24:03Z</time>
      </trkpt>
      <trkpt lat="48.67648" lon="6.56007">
        <ele>224</ele>
        <time>2020-06-29T09:24:04Z</time>
      </trkpt>
      <trkpt lat="48.67648" lon="6.55997">
        <ele>224</ele>
        <time>2020-06-29T09:24:05Z</time>
      </trkpt>
      <trkpt lat="48.67648" lon="6.55986">
        <ele>224</ele>
        <time>2020-06-29T09:24:06Z</time>
      </trkpt>
      <trkpt lat="48.67647" lon="6.55977">
        <ele>224</ele>
        <time>2020-06-29T09:24:07Z</time>
      </trkpt>
      <trkpt lat="48.67647" lon="6.55967">
        <ele>224</ele>
        <time>2020-06-29T09:24:08Z</time>
      </trkpt>
      <trkpt lat="48.67647" lon="6.55958">
        <ele>224</ele>
        <time>2020-06-29T09:24:09Z</time>
      </trkpt>
      <trkpt lat="48.67646" lon="6.55949">
        <ele>223.9</ele>
        <time>2020-06-29T09:24:10Z</time>
      </trkpt>
      <trkpt lat="48.67645" lon="6.5594">
        <ele>223.9</ele>
        <time>2020-06-29T09:24:11Z</time>
      </trkpt>
      <trkpt lat="48.67644" lon="6.55932">
        <ele>223.9</ele>
        <time>2020-06-29T09:24:12Z</time>
      </trkpt>
      <trkpt lat="48.67643" lon="6.55923">
        <ele>223.9</ele>
        <time>2020-06-29T09:24:13Z</time>
      </trkpt>
      <trkpt lat="48.67642" lon="6.55915">
        <ele>223.9</ele>
        <time>2020-06-29T09:24:14Z</time>
      </trkpt>
      <trkpt lat="48.67641" lon="6.55906">
        <ele>223.9</ele>
        <time>2020-06-29T09:24:15Z</time>
      </trkpt>
      <trkpt lat="48.67641" lon="6.55896">
        <ele>224</ele>
        <time>2020-06-29T09:24:16Z</time>
      </trkpt>
      <trkpt lat="48.67641" lon="6.55887">
        <ele>223.9</ele>
        <time>2020-06-29T09:24:17Z</time>
      </trkpt>
      <trkpt lat="48.6764" lon="6.55878">
        <ele>223.9</ele>
        <time>2020-06-29T09:24:18Z</time>
      </trkpt>
      <trkpt lat="48.67639" lon="6.55868">
        <ele>223.9</ele>
        <time>2020-06-29T09:24:19Z</time>
      </trkpt>
      <trkpt lat="48.67638" lon="6.55857">
        <ele>223.9</ele>
        <time>2020-06-29T09:24:20Z</time>
      </trkpt>
      <trkpt lat="48.67638" lon="6.55849">
        <ele>223.9</ele>
        <time>2020-06-29T09:24:21Z</time>
      </trkpt>
      <trkpt lat="48.67638" lon="6.55837">
        <ele>223.9</ele>
        <time>2020-06-29T09:24:22Z</time>
      </trkpt>
      <trkpt lat="48.67637" lon="6.55826">
        <ele>223.8</ele>
        <time>2020-06-29T09:24:23Z</time>
      </trkpt>
      <trkpt lat="48.67637" lon="6.55817">
        <ele>223.8</ele>
        <time>2020-06-29T09:24:24Z</time>
      </trkpt>
      <trkpt lat="48.67636" lon="6.55807">
        <ele>223.8</ele>
        <time>2020-06-29T09:24:25Z</time>
      </trkpt>
      <trkpt lat="48.67635" lon="6.558">
        <ele>223.8</ele>
        <time>2020-06-29T09:24:26Z</time>
      </trkpt>
      <trkpt lat="48.67634" lon="6.55791">
        <ele>223.8</ele>
        <time>2020-06-29T09:24:27Z</time>
      </trkpt>
      <trkpt lat="48.67633" lon="6.55781">
        <ele>223.7</ele>
        <time>2020-06-29T09:24:28Z</time>
      </trkpt>
      <trkpt lat="48.67632" lon="6.55771">
        <ele>223.7</ele>
        <time>2020-06-29T09:24:29Z</time>
      </trkpt>
      <trkpt lat="48.67631" lon="6.55761">
        <ele>223.7</ele>
        <time>2020-06-29T09:24:30Z</time>
      </trkpt>
      <trkpt lat="48.6763" lon="6.55752">
        <ele>223.7</ele>
        <time>2020-06-29T09:24:31Z</time>
      </trkpt>
      <trkpt lat="48.67628" lon="6.55742">
        <ele>223.7</ele>
        <time>2020-06-29T09:24:32Z</time>
      </trkpt>
      <trkpt lat="48.67626" lon="6.55732">
        <ele>223.8</ele>
        <time>2020-06-29T09:24:33Z</time>
      </trkpt>
      <trkpt lat="48.67624" lon="6.55723">
        <ele>223.8</ele>
        <time>2020-06-29T09:24:34Z</time>
      </trkpt>
      <trkpt lat="48.67622" lon="6.55714">
        <ele>223.7</ele>
        <time>2020-06-29T09:24:35Z</time>
      </trkpt>
      <trkpt lat="48.6762" lon="6.55705">
        <ele>223.7</ele>
        <time>2020-06-29T09:24:36Z</time>
      </trkpt>
      <trkpt lat="48.67618" lon="6.55696">
        <ele>223.7</ele>
        <time>2020-06-29T09:24:37Z</time>
      </trkpt>
      <trkpt lat="48.67615" lon="6.55687">
        <ele>223.7</ele>
        <time>2020-06-29T09:24:38Z</time>
      </trkpt>
      <trkpt lat="48.67612" lon="6.55679">
        <ele>223.7</ele>
        <time>2020-06-29T09:24:39Z</time>
      </trkpt>
      <trkpt lat="48.6761" lon="6.55671">
        <ele>223.7</ele>
        <time>2020-06-29T09:24:40Z</time>
      </trkpt>
      <trkpt lat="48.67607" lon="6.55662">
        <ele>223.7</ele>
        <time>2020-06-29T09:24:41Z</time>
      </trkpt>
      <trkpt lat="48.67602" lon="6.55654">
        <ele>223.7</ele>
        <time>2020-06-29T09:24:42Z</time>
      </trkpt>
      <trkpt lat="48.67598" lon="6.55646">
        <ele>223.6</ele>
        <time>2020-06-29T09:24:43Z</time>
      </trkpt>
      <trkpt lat="48.67595" lon="6.55638">
        <ele>223.7</ele>
        <time>2020-06-29T09:24:44Z</time>
      </trkpt>
      <trkpt lat="48.67592" lon="6.5563">
        <ele>223.7</ele>
        <time>2020-06-29T09:24:45Z</time>
      </trkpt>
      <trkpt lat="48.67589" lon="6.55622">
        <ele>223.7</ele>
        <time>2020-06-29T09:24:46Z</time>
      </trkpt>
      <trkpt lat="48.67585" lon="6.55614">
        <ele>223.8</ele>
        <time>2020-06-29T09:24:47Z</time>
      </trkpt>
      <trkpt lat="48.67581" lon="6.55607">
        <ele>223.8</ele>
        <time>2020-06-29T09:24:48Z</time>
      </trkpt>
      <trkpt lat="48.67578" lon="6.556">
        <ele>223.9</ele>
        <time>2020-06-29T09:24:49Z</time>
      </trkpt>
      <trkpt lat="48.67575" lon="6.55593">
        <ele>223.9</ele>
        <time>2020-06-29T09:24:50Z</time>
      </trkpt>
      <trkpt lat="48.67572" lon="6.55588">
        <ele>223.9</ele>
        <time>2020-06-29T09:24:51Z</time>
      </trkpt>
      <trkpt lat="48.67569" lon="6.55583">
        <ele>224</ele>
        <time>2020-06-29T09:24:52Z</time>
      </trkpt>
      <trkpt lat="48.67565" lon="6.55577">
        <ele>224</ele>
        <time>2020-06-29T09:24:53Z</time>
      </trkpt>
      <trkpt lat="48.67561" lon="6.55572">
        <ele>224</ele>
        <time>2020-06-29T09:24:54Z</time>
      </trkpt>
      <trkpt lat="48.67558" lon="6.55568">
        <ele>223.9</ele>
        <time>2020-06-29T09:24:55Z</time>
      </trkpt>
      <trkpt lat="48.67553" lon="6.55562">
        <ele>223.9</ele>
        <time>2020-06-29T09:24:56Z</time>
      </trkpt>
      <trkpt lat="48.67548" lon="6.55561">
        <ele>223.8</ele>
        <time>2020-06-29T09:24:57Z</time>
      </trkpt>
      <trkpt lat="48.67543" lon="6.55561">
        <ele>223.8</ele>
        <time>2020-06-29T09:24:58Z</time>
      </trkpt>
      <trkpt lat="48.67537" lon="6.5556">
        <ele>223.7</ele>
        <time>2020-06-29T09:24:59Z</time>
      </trkpt>
      <trkpt lat="48.67532" lon="6.55557">
        <ele>223.6</ele>
        <time>2020-06-29T09:25:00Z</time>
      </trkpt>
      <trkpt lat="48.67527" lon="6.55554">
        <ele>223.6</ele>
        <time>2020-06-29T09:25:01Z</time>
      </trkpt>
      <trkpt lat="48.67522" lon="6.5555">
        <ele>223.5</ele>
        <time>2020-06-29T09:25:02Z</time>
      </trkpt>
      <trkpt lat="48.67517" lon="6.55548">
        <ele>223.5</ele>
        <time>2020-06-29T09:25:03Z</time>
      </trkpt>
      <trkpt lat="48.67513" lon="6.55545">
        <ele>223.5</ele>
        <time>2020-06-29T09:25:04Z</time>
      </trkpt>
      <trkpt lat="48.67508" lon="6.55542">
        <ele>223.5</ele>
        <time>2020-06-29T09:25:05Z</time>
      </trkpt>
      <trkpt lat="48.67505" lon="6.55537">
        <ele>223.5</ele>
        <time>2020-06-29T09:25:06Z</time>
      </trkpt>
      <trkpt lat="48.67501" lon="6.55532">
        <ele>223.6</ele>
        <time>2020-06-29T09:25:07Z</time>
      </trkpt>
      <trkpt lat="48.67498" lon="6.55527">
        <ele>223.6</ele>
        <time>2020-06-29T09:25:08Z</time>
      </trkpt>
      <trkpt lat="48.67494" lon="6.55523">
        <ele>223.7</ele>
        <time>2020-06-29T09:25:09Z</time>
      </trkpt>
      <trkpt lat="48.67491" lon="6.55518">
        <ele>223.8</ele>
        <time>2020-06-29T09:25:10Z</time>
      </trkpt>
      <trkpt lat="48.67486" lon="6.55516">
        <ele>223.8</ele>
        <time>2020-06-29T09:25:11Z</time>
      </trkpt>
      <trkpt lat="48.67482" lon="6.55512">
        <ele>223.8</ele>
        <time>2020-06-29T09:25:12Z</time>
      </trkpt>
      <trkpt lat="48.67477" lon="6.55507">
        <ele>223.8</ele>
        <time>2020-06-29T09:25:13Z</time>
      </trkpt>
      <trkpt lat="48.67473" lon="6.55502">
        <ele>223.8</ele>
        <time>2020-06-29T09:25:14Z</time>
      </trkpt>
      <trkpt lat="48.67469" lon="6.55497">
        <ele>223.8</ele>
        <time>2020-06-29T09:25:15Z</time>
      </trkpt>
      <trkpt lat="48.67465" lon="6.55492">
        <ele>223.8</ele>
        <time>2020-06-29T09:25:16Z</time>
      </trkpt>
      <trkpt lat="48.67461" lon="6.55488">
        <ele>223.8</ele>
        <time>2020-06-29T09:25:17Z</time>
      </trkpt>
      <trkpt lat="48.67456" lon="6.55484">
        <ele>223.8</ele>
        <time>2020-06-29T09:25:18Z</time>
      </trkpt>
      <trkpt lat="48.67451" lon="6.5548">
        <ele>223.8</ele>
        <time>2020-06-29T09:25:19Z</time>
      </trkpt>
      <trkpt lat="48.67447" lon="6.55475">
        <ele>223.8</ele>
        <time>2020-06-29T09:25:20Z</time>
      </trkpt>
      <trkpt lat="48.67445" lon="6.55469">
        <ele>223.8</ele>
        <time>2020-06-29T09:25:21Z</time>
      </trkpt>
      <trkpt lat="48.67442" lon="6.55462">
        <ele>223.8</ele>
        <time>2020-06-29T09:25:22Z</time>
      </trkpt>
      <trkpt lat="48.67441" lon="6.55454">
        <ele>223.8</ele>
        <time>2020-06-29T09:25:23Z</time>
      </trkpt>
      <trkpt lat="48.67439" lon="6.55445">
        <ele>223.8</ele>
        <time>2020-06-29T09:25:24Z</time>
      </trkpt>
      <trkpt lat="48.67437" lon="6.55438">
        <ele>223.8</ele>
        <time>2020-06-29T09:25:25Z</time>
      </trkpt>
      <trkpt lat="48.67433" lon="6.55433">
        <ele>223.9</ele>
        <time>2020-06-29T09:25:26Z</time>
      </trkpt>
      <trkpt lat="48.67429" lon="6.55428">
        <ele>223.9</ele>
        <time>2020-06-29T09:25:27Z</time>
      </trkpt>
      <trkpt lat="48.67426" lon="6.55423">
        <ele>224</ele>
        <time>2020-06-29T09:25:28Z</time>
      </trkpt>
      <trkpt lat="48.67423" lon="6.55416">
        <ele>224</ele>
        <time>2020-06-29T09:25:29Z</time>
      </trkpt>
      <trkpt lat="48.67418" lon="6.55408">
        <ele>224.1</ele>
        <time>2020-06-29T09:25:30Z</time>
      </trkpt>
      <trkpt lat="48.67413" lon="6.55399">
        <ele>224</ele>
        <time>2020-06-29T09:25:31Z</time>
      </trkpt>
      <trkpt lat="48.6741" lon="6.55392">
        <ele>224</ele>
        <time>2020-06-29T09:25:32Z</time>
      </trkpt>
      <trkpt lat="48.67406" lon="6.55382">
        <ele>224</ele>
        <time>2020-06-29T09:25:33Z</time>
      </trkpt>
      <trkpt lat="48.67403" lon="6.55374">
        <ele>224</ele>
        <time>2020-06-29T09:25:34Z</time>
      </trkpt>
      <trkpt lat="48.67399" lon="6.55365">
        <ele>224</ele>
        <time>2020-06-29T09:25:35Z</time>
      </trkpt>
      <trkpt lat="48.67396" lon="6.55355">
        <ele>223.9</ele>
        <time>2020-06-29T09:25:36Z</time>
      </trkpt>
      <trkpt lat="48.67391" lon="6.55344">
        <ele>223.9</ele>
        <time>2020-06-29T09:25:37Z</time>
      </trkpt>
      <trkpt lat="48.67387" lon="6.55334">
        <ele>223.9</ele>
        <time>2020-06-29T09:25:38Z</time>
      </trkpt>
      <trkpt lat="48.67384" lon="6.55324">
        <ele>223.9</ele>
        <time>2020-06-29T09:25:39Z</time>
      </trkpt>
      <trkpt lat="48.6738" lon="6.55313">
        <ele>223.9</ele>
        <time>2020-06-29T09:25:40Z</time>
      </trkpt>
      <trkpt lat="48.67378" lon="6.55304">
        <ele>223.9</ele>
        <time>2020-06-29T09:25:41Z</time>
      </trkpt>
      <trkpt lat="48.67377" lon="6.55294">
        <ele>223.9</ele>
        <time>2020-06-29T09:25:42Z</time>
      </trkpt>
      <trkpt lat="48.67375" lon="6.55284">
        <ele>223.8</ele>
        <time>2020-06-29T09:25:43Z</time>
      </trkpt>
      <trkpt lat="48.67374" lon="6.55275">
        <ele>223.8</ele>
        <time>2020-06-29T09:25:44Z</time>
      </trkpt>
      <trkpt lat="48.67373" lon="6.55265">
        <ele>223.8</ele>
        <time>2020-06-29T09:25:45Z</time>
      </trkpt>
      <trkpt lat="48.67372" lon="6.55255">
        <ele>223.8</ele>
        <time>2020-06-29T09:25:46Z</time>
      </trkpt>
      <trkpt lat="48.6737" lon="6.55245">
        <ele>223.8</ele>
        <time>2020-06-29T09:25:47Z</time>
      </trkpt>
      <trkpt lat="48.6737" lon="6.55236">
        <ele>223.8</ele>
        <time>2020-06-29T09:25:48Z</time>
      </trkpt>
      <trkpt lat="48.6737" lon="6.55227">
        <ele>223.8</ele>
        <time>2020-06-29T09:25:49Z</time>
      </trkpt>
      <trkpt lat="48.6737" lon="6.55217">
        <ele>223.8</ele>
        <time>2020-06-29T09:25:50Z</time>
      </trkpt>
      <trkpt lat="48.6737" lon="6.55209">
        <ele>223.8</ele>
        <time>2020-06-29T09:25:51Z</time>
      </trkpt>
      <trkpt lat="48.6737" lon="6.55201">
        <ele>223.8</ele>
        <time>2020-06-29T09:25:52Z</time>
      </trkpt>
      <trkpt lat="48.6737" lon="6.55191">
        <ele>223.8</ele>
        <time>2020-06-29T09:25:53Z</time>
      </trkpt>
      <trkpt lat="48.6737" lon="6.55182">
        <ele>223.8</ele>
        <time>2020-06-29T09:25:54Z</time>
      </trkpt>
      <trkpt lat="48.67371" lon="6.55173">
        <ele>223.8</ele>
        <time>2020-06-29T09:25:55Z</time>
      </trkpt>
      <trkpt lat="48.67371" lon="6.55164">
        <ele>223.9</ele>
        <time>2020-06-29T09:25:56Z</time>
      </trkpt>
      <trkpt lat="48.67373" lon="6.55155">
        <ele>223.9</ele>
        <time>2020-06-29T09:25:57Z</time>
      </trkpt>
      <trkpt lat="48.67373" lon="6.55146">
        <ele>223.9</ele>
        <time>2020-06-29T09:25:58Z</time>
      </trkpt>
      <trkpt lat="48.67374" lon="6.55139">
        <ele>223.9</ele>
        <time>2020-06-29T09:25:59Z</time>
      </trkpt>
      <trkpt lat="48.67374" lon="6.5513">
        <ele>223.8</ele>
        <time>2020-06-29T09:26:00Z</time>
      </trkpt>
      <trkpt lat="48.67375" lon="6.5512">
        <ele>223.8</ele>
        <time>2020-06-29T09:26:01Z</time>
      </trkpt>
      <trkpt lat="48.67375" lon="6.55111">
        <ele>223.8</ele>
        <time>2020-06-29T09:26:02Z</time>
      </trkpt>
      <trkpt lat="48.67374" lon="6.55102">
        <ele>223.8</ele>
        <time>2020-06-29T09:26:03Z</time>
      </trkpt>
      <trkpt lat="48.67373" lon="6.55091">
        <ele>223.8</ele>
        <time>2020-06-29T09:26:04Z</time>
      </trkpt>
      <trkpt lat="48.67373" lon="6.5508">
        <ele>223.8</ele>
        <time>2020-06-29T09:26:05Z</time>
      </trkpt>
      <trkpt lat="48.67373" lon="6.5507">
        <ele>223.8</ele>
        <time>2020-06-29T09:26:06Z</time>
      </trkpt>
      <trkpt lat="48.67372" lon="6.55061">
        <ele>223.8</ele>
        <time>2020-06-29T09:26:07Z</time>
      </trkpt>
      <trkpt lat="48.67372" lon="6.55053">
        <ele>223.8</ele>
        <time>2020-06-29T09:26:08Z</time>
      </trkpt>
      <trkpt lat="48.67372" lon="6.55043">
        <ele>223.8</ele>
        <time>2020-06-29T09:26:09Z</time>
      </trkpt>
      <trkpt lat="48.67372" lon="6.55034">
        <ele>223.8</ele>
        <time>2020-06-29T09:26:10Z</time>
      </trkpt>
      <trkpt lat="48.67371" lon="6.55023">
        <ele>223.8</ele>
        <time>2020-06-29T09:26:11Z</time>
      </trkpt>
      <trkpt lat="48.67371" lon="6.55013">
        <ele>223.8</ele>
        <time>2020-06-29T09:26:12Z</time>
      </trkpt>
      <trkpt lat="48.6737" lon="6.55004">
        <ele>223.8</ele>
        <time>2020-06-29T09:26:13Z</time>
      </trkpt>
      <trkpt lat="48.67369" lon="6.54995">
        <ele>223.9</ele>
        <time>2020-06-29T09:26:14Z</time>
      </trkpt>
      <trkpt lat="48.67368" lon="6.54985">
        <ele>223.9</ele>
        <time>2020-06-29T09:26:15Z</time>
      </trkpt>
      <trkpt lat="48.67367" lon="6.54975">
        <ele>223.9</ele>
        <time>2020-06-29T09:26:16Z</time>
      </trkpt>
      <trkpt lat="48.67366" lon="6.54965">
        <ele>223.9</ele>
        <time>2020-06-29T09:26:17Z</time>
      </trkpt>
      <trkpt lat="48.67365" lon="6.54956">
        <ele>223.9</ele>
        <time>2020-06-29T09:26:18Z</time>
      </trkpt>
      <trkpt lat="48.67363" lon="6.54946">
        <ele>223.9</ele>
        <time>2020-06-29T09:26:19Z</time>
      </trkpt>
      <trkpt lat="48.67362" lon="6.54936">
        <ele>223.9</ele>
        <time>2020-06-29T09:26:20Z</time>
      </trkpt>
      <trkpt lat="48.6736" lon="6.54927">
        <ele>223.9</ele>
        <time>2020-06-29T09:26:21Z</time>
      </trkpt>
      <trkpt lat="48.67358" lon="6.54917">
        <ele>224</ele>
        <time>2020-06-29T09:26:22Z</time>
      </trkpt>
      <trkpt lat="48.67356" lon="6.54906">
        <ele>224</ele>
        <time>2020-06-29T09:26:23Z</time>
      </trkpt>
      <trkpt lat="48.67354" lon="6.54897">
        <ele>224</ele>
        <time>2020-06-29T09:26:24Z</time>
      </trkpt>
      <trkpt lat="48.67352" lon="6.54887">
        <ele>224</ele>
        <time>2020-06-29T09:26:25Z</time>
      </trkpt>
      <trkpt lat="48.6735" lon="6.54879">
        <ele>224</ele>
        <time>2020-06-29T09:26:26Z</time>
      </trkpt>
      <trkpt lat="48.67348" lon="6.54869">
        <ele>224</ele>
        <time>2020-06-29T09:26:27Z</time>
      </trkpt>
      <trkpt lat="48.67346" lon="6.54862">
        <ele>224</ele>
        <time>2020-06-29T09:26:28Z</time>
      </trkpt>
      <trkpt lat="48.67344" lon="6.54853">
        <ele>224</ele>
        <time>2020-06-29T09:26:29Z</time>
      </trkpt>
      <trkpt lat="48.67342" lon="6.54843">
        <ele>224</ele>
        <time>2020-06-29T09:26:30Z</time>
      </trkpt>
      <trkpt lat="48.6734" lon="6.54832">
        <ele>224</ele>
        <time>2020-06-29T09:26:31Z</time>
      </trkpt>
      <trkpt lat="48.67338" lon="6.54823">
        <ele>224</ele>
        <time>2020-06-29T09:26:32Z</time>
      </trkpt>
      <trkpt lat="48.67336" lon="6.54812">
        <ele>224</ele>
        <time>2020-06-29T09:26:33Z</time>
      </trkpt>
      <trkpt lat="48.67333" lon="6.54802">
        <ele>224.1</ele>
        <time>2020-06-29T09:26:34Z</time>
      </trkpt>
      <trkpt lat="48.67331" lon="6.54793">
        <ele>224.1</ele>
        <time>2020-06-29T09:26:35Z</time>
      </trkpt>
      <trkpt lat="48.67329" lon="6.54784">
        <ele>224</ele>
        <time>2020-06-29T09:26:36Z</time>
      </trkpt>
      <trkpt lat="48.67325" lon="6.54774">
        <ele>224</ele>
        <time>2020-06-29T09:26:37Z</time>
      </trkpt>
      <trkpt lat="48.67321" lon="6.54766">
        <ele>224</ele>
        <time>2020-06-29T09:26:38Z</time>
      </trkpt>
      <trkpt lat="48.67319" lon="6.54757">
        <ele>224</ele>
        <time>2020-06-29T09:26:39Z</time>
      </trkpt>
      <trkpt lat="48.67315" lon="6.54748">
        <ele>224</ele>
        <time>2020-06-29T09:26:40Z</time>
      </trkpt>
      <trkpt lat="48.67311" lon="6.54737">
        <ele>224</ele>
        <time>2020-06-29T09:26:41Z</time>
      </trkpt>
      <trkpt lat="48.67308" lon="6.54727">
        <ele>224</ele>
        <time>2020-06-29T09:26:42Z</time>
      </trkpt>
      <trkpt lat="48.67306" lon="6.54717">
        <ele>224.1</ele>
        <time>2020-06-29T09:26:43Z</time>
      </trkpt>
      <trkpt lat="48.67304" lon="6.54708">
        <ele>224.1</ele>
        <time>2020-06-29T09:26:44Z</time>
      </trkpt>
      <trkpt lat="48.67301" lon="6.54698">
        <ele>224.1</ele>
        <time>2020-06-29T09:26:45Z</time>
      </trkpt>
      <trkpt lat="48.67299" lon="6.54689">
        <ele>224.1</ele>
        <time>2020-06-29T09:26:46Z</time>
      </trkpt>
      <trkpt lat="48.67296" lon="6.5468">
        <ele>224.1</ele>
        <time>2020-06-29T09:26:47Z</time>
      </trkpt>
      <trkpt lat="48.67293" lon="6.5467">
        <ele>224</ele>
        <time>2020-06-29T09:26:48Z</time>
      </trkpt>
      <trkpt lat="48.6729" lon="6.5466">
        <ele>224</ele>
        <time>2020-06-29T09:26:49Z</time>
      </trkpt>
      <trkpt lat="48.67288" lon="6.54653">
        <ele>224</ele>
        <time>2020-06-29T09:26:50Z</time>
      </trkpt>
      <trkpt lat="48.67287" lon="6.54644">
        <ele>224.1</ele>
        <time>2020-06-29T09:26:51Z</time>
      </trkpt>
      <trkpt lat="48.67286" lon="6.54633">
        <ele>224.1</ele>
        <time>2020-06-29T09:26:52Z</time>
      </trkpt>
      <trkpt lat="48.67284" lon="6.54623">
        <ele>224.1</ele>
        <time>2020-06-29T09:26:53Z</time>
      </trkpt>
      <trkpt lat="48.67283" lon="6.54613">
        <ele>224.1</ele>
        <time>2020-06-29T09:26:54Z</time>
      </trkpt>
      <trkpt lat="48.67282" lon="6.54602">
        <ele>224.1</ele>
        <time>2020-06-29T09:26:55Z</time>
      </trkpt>
      <trkpt lat="48.67281" lon="6.54592">
        <ele>224.1</ele>
        <time>2020-06-29T09:26:56Z</time>
      </trkpt>
      <trkpt lat="48.67279" lon="6.54581">
        <ele>224.1</ele>
        <time>2020-06-29T09:26:57Z</time>
      </trkpt>
      <trkpt lat="48.67278" lon="6.54571">
        <ele>224</ele>
        <time>2020-06-29T09:26:58Z</time>
      </trkpt>
      <trkpt lat="48.67277" lon="6.54562">
        <ele>224.1</ele>
        <time>2020-06-29T09:26:59Z</time>
      </trkpt>
      <trkpt lat="48.67277" lon="6.54552">
        <ele>224.1</ele>
        <time>2020-06-29T09:27:00Z</time>
      </trkpt>
      <trkpt lat="48.67276" lon="6.54542">
        <ele>224.1</ele>
        <time>2020-06-29T09:27:01Z</time>
      </trkpt>
      <trkpt lat="48.67274" lon="6.54532">
        <ele>224.1</ele>
        <time>2020-06-29T09:27:02Z</time>
      </trkpt>
      <trkpt lat="48.67273" lon="6.54522">
        <ele>224.1</ele>
        <time>2020-06-29T09:27:03Z</time>
      </trkpt>
      <trkpt lat="48.67272" lon="6.54512">
        <ele>224.2</ele>
        <time>2020-06-29T09:27:04Z</time>
      </trkpt>
      <trkpt lat="48.67272" lon="6.54502">
        <ele>224.2</ele>
        <time>2020-06-29T09:27:05Z</time>
      </trkpt>
      <trkpt lat="48.67271" lon="6.54492">
        <ele>224.2</ele>
        <time>2020-06-29T09:27:06Z</time>
      </trkpt>
      <trkpt lat="48.67269" lon="6.54481">
        <ele>224.2</ele>
        <time>2020-06-29T09:27:07Z</time>
      </trkpt>
      <trkpt lat="48.67268" lon="6.54471">
        <ele>224.2</ele>
        <time>2020-06-29T09:27:08Z</time>
      </trkpt>
      <trkpt lat="48.67268" lon="6.54461">
        <ele>224.1</ele>
        <time>2020-06-29T09:27:09Z</time>
      </trkpt>
      <trkpt lat="48.67267" lon="6.54452">
        <ele>224.1</ele>
        <time>2020-06-29T09:27:10Z</time>
      </trkpt>
      <trkpt lat="48.67266" lon="6.54442">
        <ele>224.1</ele>
        <time>2020-06-29T09:27:11Z</time>
      </trkpt>
      <trkpt lat="48.67265" lon="6.54432">
        <ele>224.1</ele>
        <time>2020-06-29T09:27:12Z</time>
      </trkpt>
      <trkpt lat="48.67264" lon="6.54422">
        <ele>224.1</ele>
        <time>2020-06-29T09:27:13Z</time>
      </trkpt>
      <trkpt lat="48.67264" lon="6.54413">
        <ele>224.1</ele>
        <time>2020-06-29T09:27:14Z</time>
      </trkpt>
      <trkpt lat="48.67263" lon="6.54404">
        <ele>224.1</ele>
        <time>2020-06-29T09:27:15Z</time>
      </trkpt>
      <trkpt lat="48.67261" lon="6.54395">
        <ele>224</ele>
        <time>2020-06-29T09:27:16Z</time>
      </trkpt>
      <trkpt lat="48.6726" lon="6.54385">
        <ele>224</ele>
        <time>2020-06-29T09:27:17Z</time>
      </trkpt>
      <trkpt lat="48.67259" lon="6.54376">
        <ele>224</ele>
        <time>2020-06-29T09:27:18Z</time>
      </trkpt>
      <trkpt lat="48.67258" lon="6.54366">
        <ele>224</ele>
        <time>2020-06-29T09:27:19Z</time>
      </trkpt>
      <trkpt lat="48.67257" lon="6.54356">
        <ele>224</ele>
        <time>2020-06-29T09:27:20Z</time>
      </trkpt>
      <trkpt lat="48.67255" lon="6.54346">
        <ele>223.9</ele>
        <time>2020-06-29T09:27:21Z</time>
      </trkpt>
      <trkpt lat="48.67254" lon="6.54336">
        <ele>223.9</ele>
        <time>2020-06-29T09:27:22Z</time>
      </trkpt>
      <trkpt lat="48.67253" lon="6.54326">
        <ele>223.9</ele>
        <time>2020-06-29T09:27:23Z</time>
      </trkpt>
      <trkpt lat="48.67252" lon="6.54316">
        <ele>223.9</ele>
        <time>2020-06-29T09:27:24Z</time>
      </trkpt>
      <trkpt lat="48.6725" lon="6.54306">
        <ele>223.9</ele>
        <time>2020-06-29T09:27:25Z</time>
      </trkpt>
      <trkpt lat="48.67249" lon="6.54296">
        <ele>223.9</ele>
        <time>2020-06-29T09:27:26Z</time>
      </trkpt>
      <trkpt lat="48.67249" lon="6.54286">
        <ele>223.9</ele>
        <time>2020-06-29T09:27:27Z</time>
      </trkpt>
      <trkpt lat="48.67247" lon="6.54276">
        <ele>223.9</ele>
        <time>2020-06-29T09:27:28Z</time>
      </trkpt>
      <trkpt lat="48.67246" lon="6.54267">
        <ele>223.9</ele>
        <time>2020-06-29T09:27:29Z</time>
      </trkpt>
      <trkpt lat="48.67244" lon="6.54255">
        <ele>223.8</ele>
        <time>2020-06-29T09:27:30Z</time>
      </trkpt>
      <trkpt lat="48.67243" lon="6.54245">
        <ele>223.8</ele>
        <time>2020-06-29T09:27:31Z</time>
      </trkpt>
      <trkpt lat="48.67242" lon="6.54235">
        <ele>223.8</ele>
        <time>2020-06-29T09:27:32Z</time>
      </trkpt>
      <trkpt lat="48.67241" lon="6.54226">
        <ele>223.8</ele>
        <time>2020-06-29T09:27:33Z</time>
      </trkpt>
      <trkpt lat="48.67241" lon="6.54217">
        <ele>223.9</ele>
        <time>2020-06-29T09:27:34Z</time>
      </trkpt>
      <trkpt lat="48.6724" lon="6.54205">
        <ele>223.9</ele>
        <time>2020-06-29T09:27:35Z</time>
      </trkpt>
      <trkpt lat="48.6724" lon="6.54195">
        <ele>223.9</ele>
        <time>2020-06-29T09:27:36Z</time>
      </trkpt>
      <trkpt lat="48.6724" lon="6.54185">
        <ele>223.9</ele>
        <time>2020-06-29T09:27:37Z</time>
      </trkpt>
      <trkpt lat="48.6724" lon="6.54176">
        <ele>224</ele>
        <time>2020-06-29T09:27:38Z</time>
      </trkpt>
      <trkpt lat="48.67241" lon="6.54165">
        <ele>224.1</ele>
        <time>2020-06-29T09:27:39Z</time>
      </trkpt>
      <trkpt lat="48.67242" lon="6.54155">
        <ele>224.3</ele>
        <time>2020-06-29T09:27:40Z</time>
      </trkpt>
      <trkpt lat="48.67244" lon="6.54148">
        <ele>224.5</ele>
        <time>2020-06-29T09:27:41Z</time>
      </trkpt>
      <trkpt lat="48.67246" lon="6.54138">
        <ele>224.5</ele>
        <time>2020-06-29T09:27:42Z</time>
      </trkpt>
      <trkpt lat="48.67248" lon="6.54129">
        <ele>224.5</ele>
        <time>2020-06-29T09:27:43Z</time>
      </trkpt>
      <trkpt lat="48.67248" lon="6.5412">
        <ele>224.5</ele>
        <time>2020-06-29T09:27:44Z</time>
      </trkpt>
      <trkpt lat="48.67249" lon="6.5411">
        <ele>224.5</ele>
        <time>2020-06-29T09:27:45Z</time>
      </trkpt>
      <trkpt lat="48.6725" lon="6.541">
        <ele>224.5</ele>
        <time>2020-06-29T09:27:46Z</time>
      </trkpt>
      <trkpt lat="48.67253" lon="6.54091">
        <ele>224.5</ele>
        <time>2020-06-29T09:27:47Z</time>
      </trkpt>
      <trkpt lat="48.67254" lon="6.5408">
        <ele>224.5</ele>
        <time>2020-06-29T09:27:48Z</time>
      </trkpt>
      <trkpt lat="48.67257" lon="6.5407">
        <ele>224.4</ele>
        <time>2020-06-29T09:27:49Z</time>
      </trkpt>
      <trkpt lat="48.67261" lon="6.5406">
        <ele>224.4</ele>
        <time>2020-06-29T09:27:50Z</time>
      </trkpt>
      <trkpt lat="48.67263" lon="6.54052">
        <ele>224.4</ele>
        <time>2020-06-29T09:27:51Z</time>
      </trkpt>
      <trkpt lat="48.67267" lon="6.54042">
        <ele>224.4</ele>
        <time>2020-06-29T09:27:52Z</time>
      </trkpt>
      <trkpt lat="48.6727" lon="6.54033">
        <ele>224.4</ele>
        <time>2020-06-29T09:27:53Z</time>
      </trkpt>
      <trkpt lat="48.67273" lon="6.54024">
        <ele>224.4</ele>
        <time>2020-06-29T09:27:54Z</time>
      </trkpt>
      <trkpt lat="48.67275" lon="6.54016">
        <ele>224.4</ele>
        <time>2020-06-29T09:27:55Z</time>
      </trkpt>
      <trkpt lat="48.67278" lon="6.54009">
        <ele>224.4</ele>
        <time>2020-06-29T09:27:56Z</time>
      </trkpt>
      <trkpt lat="48.67282" lon="6.54">
        <ele>224.4</ele>
        <time>2020-06-29T09:27:57Z</time>
      </trkpt>
      <trkpt lat="48.67285" lon="6.53993">
        <ele>224.4</ele>
        <time>2020-06-29T09:27:58Z</time>
      </trkpt>
      <trkpt lat="48.6729" lon="6.53983">
        <ele>224.4</ele>
        <time>2020-06-29T09:27:59Z</time>
      </trkpt>
      <trkpt lat="48.67293" lon="6.53973">
        <ele>224.4</ele>
        <time>2020-06-29T09:28:00Z</time>
      </trkpt>
      <trkpt lat="48.67297" lon="6.53965">
        <ele>224.4</ele>
        <time>2020-06-29T09:28:01Z</time>
      </trkpt>
      <trkpt lat="48.673" lon="6.53957">
        <ele>224.4</ele>
        <time>2020-06-29T09:28:02Z</time>
      </trkpt>
      <trkpt lat="48.67305" lon="6.53946">
        <ele>224.4</ele>
        <time>2020-06-29T09:28:03Z</time>
      </trkpt>
      <trkpt lat="48.67307" lon="6.53936">
        <ele>224.4</ele>
        <time>2020-06-29T09:28:04Z</time>
      </trkpt>
      <trkpt lat="48.67312" lon="6.53927">
        <ele>224.4</ele>
        <time>2020-06-29T09:28:05Z</time>
      </trkpt>
      <trkpt lat="48.67315" lon="6.53917">
        <ele>224.4</ele>
        <time>2020-06-29T09:28:06Z</time>
      </trkpt>
      <trkpt lat="48.67318" lon="6.53907">
        <ele>224.4</ele>
        <time>2020-06-29T09:28:07Z</time>
      </trkpt>
      <trkpt lat="48.67321" lon="6.53898">
        <ele>224.4</ele>
        <time>2020-06-29T09:28:08Z</time>
      </trkpt>
      <trkpt lat="48.67324" lon="6.53889">
        <ele>224.4</ele>
        <time>2020-06-29T09:28:09Z</time>
      </trkpt>
      <trkpt lat="48.67327" lon="6.53879">
        <ele>224.5</ele>
        <time>2020-06-29T09:28:10Z</time>
      </trkpt>
      <trkpt lat="48.6733" lon="6.53871">
        <ele>224.5</ele>
        <time>2020-06-29T09:28:11Z</time>
      </trkpt>
      <trkpt lat="48.67333" lon="6.53861">
        <ele>224.6</ele>
        <time>2020-06-29T09:28:12Z</time>
      </trkpt>
      <trkpt lat="48.67335" lon="6.53852">
        <ele>224.6</ele>
        <time>2020-06-29T09:28:13Z</time>
      </trkpt>
      <trkpt lat="48.67338" lon="6.53843">
        <ele>224.6</ele>
        <time>2020-06-29T09:28:14Z</time>
      </trkpt>
      <trkpt lat="48.67341" lon="6.53833">
        <ele>224.5</ele>
        <time>2020-06-29T09:28:15Z</time>
      </trkpt>
      <trkpt lat="48.67344" lon="6.53823">
        <ele>224.5</ele>
        <time>2020-06-29T09:28:16Z</time>
      </trkpt>
      <trkpt lat="48.67346" lon="6.53814">
        <ele>224.5</ele>
        <time>2020-06-29T09:28:17Z</time>
      </trkpt>
      <trkpt lat="48.67349" lon="6.53806">
        <ele>224.5</ele>
        <time>2020-06-29T09:28:18Z</time>
      </trkpt>
      <trkpt lat="48.67351" lon="6.53796">
        <ele>224.4</ele>
        <time>2020-06-29T09:28:19Z</time>
      </trkpt>
      <trkpt lat="48.67352" lon="6.53788">
        <ele>224.4</ele>
        <time>2020-06-29T09:28:20Z</time>
      </trkpt>
      <trkpt lat="48.67355" lon="6.53777">
        <ele>224.4</ele>
        <time>2020-06-29T09:28:21Z</time>
      </trkpt>
      <trkpt lat="48.67357" lon="6.53767">
        <ele>224.3</ele>
        <time>2020-06-29T09:28:22Z</time>
      </trkpt>
      <trkpt lat="48.6736" lon="6.53757">
        <ele>224.3</ele>
        <time>2020-06-29T09:28:23Z</time>
      </trkpt>
      <trkpt lat="48.67361" lon="6.53748">
        <ele>224.3</ele>
        <time>2020-06-29T09:28:24Z</time>
      </trkpt>
      <trkpt lat="48.67363" lon="6.53739">
        <ele>224.3</ele>
        <time>2020-06-29T09:28:25Z</time>
      </trkpt>
      <trkpt lat="48.67364" lon="6.5373">
        <ele>224.3</ele>
        <time>2020-06-29T09:28:26Z</time>
      </trkpt>
      <trkpt lat="48.67365" lon="6.53721">
        <ele>224.2</ele>
        <time>2020-06-29T09:28:27Z</time>
      </trkpt>
      <trkpt lat="48.67367" lon="6.53713">
        <ele>224.2</ele>
        <time>2020-06-29T09:28:28Z</time>
      </trkpt>
      <trkpt lat="48.67369" lon="6.537">
        <ele>224.2</ele>
        <time>2020-06-29T09:28:29Z</time>
      </trkpt>
      <trkpt lat="48.67369" lon="6.53688">
        <ele>224.2</ele>
        <time>2020-06-29T09:28:30Z</time>
      </trkpt>
      <trkpt lat="48.6737" lon="6.5368">
        <ele>224.2</ele>
        <time>2020-06-29T09:28:31Z</time>
      </trkpt>
      <trkpt lat="48.67371" lon="6.5367">
        <ele>224.2</ele>
        <time>2020-06-29T09:28:32Z</time>
      </trkpt>
      <trkpt lat="48.67372" lon="6.53661">
        <ele>224.2</ele>
        <time>2020-06-29T09:28:33Z</time>
      </trkpt>
      <trkpt lat="48.67371" lon="6.53652">
        <ele>224.2</ele>
        <time>2020-06-29T09:28:34Z</time>
      </trkpt>
      <trkpt lat="48.67371" lon="6.53643">
        <ele>224.2</ele>
        <time>2020-06-29T09:28:35Z</time>
      </trkpt>
      <trkpt lat="48.67372" lon="6.53634">
        <ele>224.2</ele>
        <time>2020-06-29T09:28:36Z</time>
      </trkpt>
      <trkpt lat="48.67372" lon="6.53625">
        <ele>224.2</ele>
        <time>2020-06-29T09:28:37Z</time>
      </trkpt>
      <trkpt lat="48.67373" lon="6.53617">
        <ele>224.2</ele>
        <time>2020-06-29T09:28:38Z</time>
      </trkpt>
      <trkpt lat="48.67373" lon="6.53605">
        <ele>224.3</ele>
        <time>2020-06-29T09:28:39Z</time>
      </trkpt>
      <trkpt lat="48.67372" lon="6.53594">
        <ele>224.3</ele>
        <time>2020-06-29T09:28:40Z</time>
      </trkpt>
      <trkpt lat="48.67371" lon="6.53582">
        <ele>224.3</ele>
        <time>2020-06-29T09:28:41Z</time>
      </trkpt>
      <trkpt lat="48.67371" lon="6.53572">
        <ele>224.2</ele>
        <time>2020-06-29T09:28:42Z</time>
      </trkpt>
      <trkpt lat="48.67371" lon="6.5356">
        <ele>224.2</ele>
        <time>2020-06-29T09:28:43Z</time>
      </trkpt>
      <trkpt lat="48.67371" lon="6.53551">
        <ele>224.2</ele>
        <time>2020-06-29T09:28:44Z</time>
      </trkpt>
      <trkpt lat="48.67371" lon="6.53542">
        <ele>224.1</ele>
        <time>2020-06-29T09:28:45Z</time>
      </trkpt>
      <trkpt lat="48.67371" lon="6.53531">
        <ele>224.1</ele>
        <time>2020-06-29T09:28:46Z</time>
      </trkpt>
      <trkpt lat="48.67372" lon="6.53522">
        <ele>224.1</ele>
        <time>2020-06-29T09:28:47Z</time>
      </trkpt>
      <trkpt lat="48.67373" lon="6.53513">
        <ele>224.1</ele>
        <time>2020-06-29T09:28:48Z</time>
      </trkpt>
      <trkpt lat="48.67375" lon="6.53501">
        <ele>224.1</ele>
        <time>2020-06-29T09:28:49Z</time>
      </trkpt>
      <trkpt lat="48.67376" lon="6.53492">
        <ele>224.2</ele>
        <time>2020-06-29T09:28:50Z</time>
      </trkpt>
      <trkpt lat="48.67378" lon="6.53479">
        <ele>224.2</ele>
        <time>2020-06-29T09:28:51Z</time>
      </trkpt>
      <trkpt lat="48.67379" lon="6.53467">
        <ele>224.2</ele>
        <time>2020-06-29T09:28:52Z</time>
      </trkpt>
      <trkpt lat="48.67381" lon="6.53455">
        <ele>224.2</ele>
        <time>2020-06-29T09:28:53Z</time>
      </trkpt>
      <trkpt lat="48.67384" lon="6.53445">
        <ele>224.1</ele>
        <time>2020-06-29T09:28:54Z</time>
      </trkpt>
      <trkpt lat="48.67385" lon="6.53438">
        <ele>224.1</ele>
        <time>2020-06-29T09:28:55Z</time>
      </trkpt>
      <trkpt lat="48.67388" lon="6.53427">
        <ele>224.1</ele>
        <time>2020-06-29T09:28:56Z</time>
      </trkpt>
      <trkpt lat="48.6739" lon="6.53418">
        <ele>224.1</ele>
        <time>2020-06-29T09:28:57Z</time>
      </trkpt>
      <trkpt lat="48.67391" lon="6.53409">
        <ele>224.1</ele>
        <time>2020-06-29T09:28:58Z</time>
      </trkpt>
      <trkpt lat="48.67392" lon="6.534">
        <ele>224</ele>
        <time>2020-06-29T09:28:59Z</time>
      </trkpt>
      <trkpt lat="48.67394" lon="6.5339">
        <ele>224</ele>
        <time>2020-06-29T09:29:00Z</time>
      </trkpt>
      <trkpt lat="48.67396" lon="6.53381">
        <ele>224</ele>
        <time>2020-06-29T09:29:01Z</time>
      </trkpt>
      <trkpt lat="48.67397" lon="6.53371">
        <ele>224</ele>
        <time>2020-06-29T09:29:02Z</time>
      </trkpt>
      <trkpt lat="48.67397" lon="6.53362">
        <ele>224</ele>
        <time>2020-06-29T09:29:03Z</time>
      </trkpt>
      <trkpt lat="48.67397" lon="6.5335">
        <ele>224</ele>
        <time>2020-06-29T09:29:04Z</time>
      </trkpt>
      <trkpt lat="48.67398" lon="6.53341">
        <ele>223.9</ele>
        <time>2020-06-29T09:29:05Z</time>
      </trkpt>
      <trkpt lat="48.67398" lon="6.53332">
        <ele>223.9</ele>
        <time>2020-06-29T09:29:06Z</time>
      </trkpt>
      <trkpt lat="48.67397" lon="6.53322">
        <ele>223.9</ele>
        <time>2020-06-29T09:29:07Z</time>
      </trkpt>
      <trkpt lat="48.67396" lon="6.53314">
        <ele>223.9</ele>
        <time>2020-06-29T09:29:08Z</time>
      </trkpt>
      <trkpt lat="48.67395" lon="6.53304">
        <ele>223.9</ele>
        <time>2020-06-29T09:29:09Z</time>
      </trkpt>
      <trkpt lat="48.67395" lon="6.53295">
        <ele>224</ele>
        <time>2020-06-29T09:29:10Z</time>
      </trkpt>
      <trkpt lat="48.67393" lon="6.53282">
        <ele>224</ele>
        <time>2020-06-29T09:29:11Z</time>
      </trkpt>
      <trkpt lat="48.67391" lon="6.53271">
        <ele>224</ele>
        <time>2020-06-29T09:29:12Z</time>
      </trkpt>
      <trkpt lat="48.67389" lon="6.53262">
        <ele>224</ele>
        <time>2020-06-29T09:29:13Z</time>
      </trkpt>
      <trkpt lat="48.67387" lon="6.53253">
        <ele>224</ele>
        <time>2020-06-29T09:29:14Z</time>
      </trkpt>
      <trkpt lat="48.67384" lon="6.53243">
        <ele>224</ele>
        <time>2020-06-29T09:29:15Z</time>
      </trkpt>
      <trkpt lat="48.67381" lon="6.53234">
        <ele>224</ele>
        <time>2020-06-29T09:29:16Z</time>
      </trkpt>
      <trkpt lat="48.67377" lon="6.53224">
        <ele>224</ele>
        <time>2020-06-29T09:29:17Z</time>
      </trkpt>
      <trkpt lat="48.67374" lon="6.53213">
        <ele>224</ele>
        <time>2020-06-29T09:29:18Z</time>
      </trkpt>
      <trkpt lat="48.67369" lon="6.53202">
        <ele>224</ele>
        <time>2020-06-29T09:29:19Z</time>
      </trkpt>
      <trkpt lat="48.67366" lon="6.53193">
        <ele>224</ele>
        <time>2020-06-29T09:29:20Z</time>
      </trkpt>
      <trkpt lat="48.67363" lon="6.53185">
        <ele>224</ele>
        <time>2020-06-29T09:29:21Z</time>
      </trkpt>
      <trkpt lat="48.67357" lon="6.53177">
        <ele>224</ele>
        <time>2020-06-29T09:29:22Z</time>
      </trkpt>
      <trkpt lat="48.67354" lon="6.53172">
        <ele>224</ele>
        <time>2020-06-29T09:29:23Z</time>
      </trkpt>
      <trkpt lat="48.6735" lon="6.53165">
        <ele>224</ele>
        <time>2020-06-29T09:29:24Z</time>
      </trkpt>
      <trkpt lat="48.67346" lon="6.53158">
        <ele>224</ele>
        <time>2020-06-29T09:29:25Z</time>
      </trkpt>
      <trkpt lat="48.67342" lon="6.53151">
        <ele>223.9</ele>
        <time>2020-06-29T09:29:26Z</time>
      </trkpt>
      <trkpt lat="48.67336" lon="6.53143">
        <ele>223.9</ele>
        <time>2020-06-29T09:29:27Z</time>
      </trkpt>
      <trkpt lat="48.67331" lon="6.53139">
        <ele>223.9</ele>
        <time>2020-06-29T09:29:28Z</time>
      </trkpt>
      <trkpt lat="48.67324" lon="6.53132">
        <ele>223.9</ele>
        <time>2020-06-29T09:29:29Z</time>
      </trkpt>
      <trkpt lat="48.67317" lon="6.53125">
        <ele>223.9</ele>
        <time>2020-06-29T09:29:30Z</time>
      </trkpt>
      <trkpt lat="48.67311" lon="6.53119">
        <ele>223.9</ele>
        <time>2020-06-29T09:29:31Z</time>
      </trkpt>
      <trkpt lat="48.67305" lon="6.53114">
        <ele>223.9</ele>
        <time>2020-06-29T09:29:32Z</time>
      </trkpt>
      <trkpt lat="48.67298" lon="6.53109">
        <ele>224</ele>
        <time>2020-06-29T09:29:33Z</time>
      </trkpt>
      <trkpt lat="48.67292" lon="6.53105">
        <ele>224</ele>
        <time>2020-06-29T09:29:34Z</time>
      </trkpt>
      <trkpt lat="48.67286" lon="6.531">
        <ele>224</ele>
        <time>2020-06-29T09:29:35Z</time>
      </trkpt>
      <trkpt lat="48.6728" lon="6.53096">
        <ele>224.1</ele>
        <time>2020-06-29T09:29:36Z</time>
      </trkpt>
      <trkpt lat="48.67273" lon="6.53091">
        <ele>224.1</ele>
        <time>2020-06-29T09:29:37Z</time>
      </trkpt>
      <trkpt lat="48.67268" lon="6.53087">
        <ele>224.2</ele>
        <time>2020-06-29T09:29:38Z</time>
      </trkpt>
      <trkpt lat="48.67262" lon="6.53082">
        <ele>224.3</ele>
        <time>2020-06-29T09:29:39Z</time>
      </trkpt>
      <trkpt lat="48.67256" lon="6.53078">
        <ele>224.3</ele>
        <time>2020-06-29T09:29:40Z</time>
      </trkpt>
      <trkpt lat="48.67251" lon="6.53073">
        <ele>224.3</ele>
        <time>2020-06-29T09:29:41Z</time>
      </trkpt>
      <trkpt lat="48.67246" lon="6.53067">
        <ele>224.4</ele>
        <time>2020-06-29T09:29:42Z</time>
      </trkpt>
      <trkpt lat="48.67241" lon="6.53062">
        <ele>224.4</ele>
        <time>2020-06-29T09:29:43Z</time>
      </trkpt>
      <trkpt lat="48.67237" lon="6.53056">
        <ele>224.3</ele>
        <time>2020-06-29T09:29:44Z</time>
      </trkpt>
      <trkpt lat="48.67232" lon="6.5305">
        <ele>224.3</ele>
        <time>2020-06-29T09:29:45Z</time>
      </trkpt>
      <trkpt lat="48.67227" lon="6.53046">
        <ele>224.3</ele>
        <time>2020-06-29T09:29:46Z</time>
      </trkpt>
      <trkpt lat="48.67223" lon="6.53041">
        <ele>224.3</ele>
        <time>2020-06-29T09:29:47Z</time>
      </trkpt>
      <trkpt lat="48.67218" lon="6.53035">
        <ele>224.4</ele>
        <time>2020-06-29T09:29:48Z</time>
      </trkpt>
      <trkpt lat="48.67213" lon="6.5303">
        <ele>224.4</ele>
        <time>2020-06-29T09:29:49Z</time>
      </trkpt>
      <trkpt lat="48.67208" lon="6.53026">
        <ele>224.5</ele>
        <time>2020-06-29T09:29:50Z</time>
      </trkpt>
      <trkpt lat="48.67204" lon="6.53021">
        <ele>224.5</ele>
        <time>2020-06-29T09:29:51Z</time>
      </trkpt>
      <trkpt lat="48.672" lon="6.53016">
        <ele>224.5</ele>
        <time>2020-06-29T09:29:52Z</time>
      </trkpt>
      <trkpt lat="48.67196" lon="6.53011">
        <ele>224.5</ele>
        <time>2020-06-29T09:29:53Z</time>
      </trkpt>
      <trkpt lat="48.67193" lon="6.53005">
        <ele>224.5</ele>
        <time>2020-06-29T09:29:54Z</time>
      </trkpt>
      <trkpt lat="48.6719" lon="6.52998">
        <ele>224.5</ele>
        <time>2020-06-29T09:29:55Z</time>
      </trkpt>
      <trkpt lat="48.67186" lon="6.52992">
        <ele>224.5</ele>
        <time>2020-06-29T09:29:56Z</time>
      </trkpt>
      <trkpt lat="48.67183" lon="6.52986">
        <ele>224.5</ele>
        <time>2020-06-29T09:29:57Z</time>
      </trkpt>
      <trkpt lat="48.6718" lon="6.52982">
        <ele>224.5</ele>
        <time>2020-06-29T09:29:58Z</time>
      </trkpt>
      <trkpt lat="48.67176" lon="6.52976">
        <ele>224.5</ele>
        <time>2020-06-29T09:29:59Z</time>
      </trkpt>
      <trkpt lat="48.67174" lon="6.52969">
        <ele>224.5</ele>
        <time>2020-06-29T09:30:00Z</time>
      </trkpt>
      <trkpt lat="48.67171" lon="6.52964">
        <ele>224.5</ele>
        <time>2020-06-29T09:30:01Z</time>
      </trkpt>
      <trkpt lat="48.67167" lon="6.52961">
        <ele>224.5</ele>
        <time>2020-06-29T09:30:02Z</time>
      </trkpt>
      <trkpt lat="48.67162" lon="6.52958">
        <ele>224.5</ele>
        <time>2020-06-29T09:30:03Z</time>
      </trkpt>
      <trkpt lat="48.67159" lon="6.52951">
        <ele>224.5</ele>
        <time>2020-06-29T09:30:04Z</time>
      </trkpt>
      <trkpt lat="48.67157" lon="6.52943">
        <ele>224.4</ele>
        <time>2020-06-29T09:30:05Z</time>
      </trkpt>
      <trkpt lat="48.67156" lon="6.52935">
        <ele>224.4</ele>
        <time>2020-06-29T09:30:06Z</time>
      </trkpt>
      <trkpt lat="48.67154" lon="6.52927">
        <ele>224.3</ele>
        <time>2020-06-29T09:30:07Z</time>
      </trkpt>
      <trkpt lat="48.67151" lon="6.5292">
        <ele>224.3</ele>
        <time>2020-06-29T09:30:08Z</time>
      </trkpt>
      <trkpt lat="48.67149" lon="6.52913">
        <ele>224.3</ele>
        <time>2020-06-29T09:30:09Z</time>
      </trkpt>
      <trkpt lat="48.67146" lon="6.52906">
        <ele>224.3</ele>
        <time>2020-06-29T09:30:10Z</time>
      </trkpt>
      <trkpt lat="48.67143" lon="6.52899">
        <ele>224.3</ele>
        <time>2020-06-29T09:30:11Z</time>
      </trkpt>
      <trkpt lat="48.67141" lon="6.52891">
        <ele>224.3</ele>
        <time>2020-06-29T09:30:12Z</time>
      </trkpt>
      <trkpt lat="48.67138" lon="6.52883">
        <ele>224.3</ele>
        <time>2020-06-29T09:30:13Z</time>
      </trkpt>
      <trkpt lat="48.67135" lon="6.52874">
        <ele>224.3</ele>
        <time>2020-06-29T09:30:14Z</time>
      </trkpt>
      <trkpt lat="48.67132" lon="6.52865">
        <ele>224.3</ele>
        <time>2020-06-29T09:30:15Z</time>
      </trkpt>
      <trkpt lat="48.6713" lon="6.52856">
        <ele>224.2</ele>
        <time>2020-06-29T09:30:16Z</time>
      </trkpt>
      <trkpt lat="48.67127" lon="6.52847">
        <ele>224.2</ele>
        <time>2020-06-29T09:30:17Z</time>
      </trkpt>
      <trkpt lat="48.67124" lon="6.5284">
        <ele>224.2</ele>
        <time>2020-06-29T09:30:18Z</time>
      </trkpt>
      <trkpt lat="48.67123" lon="6.52832">
        <ele>224.2</ele>
        <time>2020-06-29T09:30:19Z</time>
      </trkpt>
      <trkpt lat="48.67121" lon="6.52825">
        <ele>224.2</ele>
        <time>2020-06-29T09:30:20Z</time>
      </trkpt>
      <trkpt lat="48.6712" lon="6.52818">
        <ele>224.2</ele>
        <time>2020-06-29T09:30:21Z</time>
      </trkpt>
      <trkpt lat="48.67118" lon="6.5281">
        <ele>224.2</ele>
        <time>2020-06-29T09:30:22Z</time>
      </trkpt>
      <trkpt lat="48.67116" lon="6.52803">
        <ele>224.2</ele>
        <time>2020-06-29T09:30:23Z</time>
      </trkpt>
      <trkpt lat="48.67115" lon="6.52794">
        <ele>224.2</ele>
        <time>2020-06-29T09:30:24Z</time>
      </trkpt>
      <trkpt lat="48.67115" lon="6.52787">
        <ele>224.2</ele>
        <time>2020-06-29T09:30:25Z</time>
      </trkpt>
      <trkpt lat="48.67115" lon="6.52779">
        <ele>224.2</ele>
        <time>2020-06-29T09:30:26Z</time>
      </trkpt>
      <trkpt lat="48.67115" lon="6.5277">
        <ele>224.3</ele>
        <time>2020-06-29T09:30:27Z</time>
      </trkpt>
      <trkpt lat="48.67116" lon="6.52763">
        <ele>224.3</ele>
        <time>2020-06-29T09:30:28Z</time>
      </trkpt>
      <trkpt lat="48.67115" lon="6.52755">
        <ele>224.3</ele>
        <time>2020-06-29T09:30:29Z</time>
      </trkpt>
      <trkpt lat="48.67114" lon="6.52748">
        <ele>224.3</ele>
        <time>2020-06-29T09:30:30Z</time>
      </trkpt>
      <trkpt lat="48.67114" lon="6.52741">
        <ele>224.3</ele>
        <time>2020-06-29T09:30:31Z</time>
      </trkpt>
      <trkpt lat="48.67114" lon="6.52735">
        <ele>224.3</ele>
        <time>2020-06-29T09:30:32Z</time>
      </trkpt>
      <trkpt lat="48.67114" lon="6.52729">
        <ele>224.3</ele>
        <time>2020-06-29T09:30:33Z</time>
      </trkpt>
      <trkpt lat="48.67113" lon="6.52723">
        <ele>224.3</ele>
        <time>2020-06-29T09:30:34Z</time>
      </trkpt>
      <trkpt lat="48.67113" lon="6.52716">
        <ele>224.3</ele>
        <time>2020-06-29T09:30:35Z</time>
      </trkpt>
      <trkpt lat="48.67113" lon="6.5271">
        <ele>224.3</ele>
        <time>2020-06-29T09:30:36Z</time>
      </trkpt>
      <trkpt lat="48.67114" lon="6.52702">
        <ele>224.3</ele>
        <time>2020-06-29T09:30:37Z</time>
      </trkpt>
      <trkpt lat="48.67114" lon="6.52695">
        <ele>224.3</ele>
        <time>2020-06-29T09:30:38Z</time>
      </trkpt>
      <trkpt lat="48.67114" lon="6.52688">
        <ele>224.3</ele>
        <time>2020-06-29T09:30:39Z</time>
      </trkpt>
      <trkpt lat="48.67114" lon="6.52681">
        <ele>224.3</ele>
        <time>2020-06-29T09:30:40Z</time>
      </trkpt>
      <trkpt lat="48.67115" lon="6.52674">
        <ele>224.3</ele>
        <time>2020-06-29T09:30:41Z</time>
      </trkpt>
      <trkpt lat="48.67115" lon="6.52667">
        <ele>224.2</ele>
        <time>2020-06-29T09:30:42Z</time>
      </trkpt>
      <trkpt lat="48.67118" lon="6.52661">
        <ele>224.2</ele>
        <time>2020-06-29T09:30:43Z</time>
      </trkpt>
      <trkpt lat="48.67118" lon="6.52654">
        <ele>224.2</ele>
        <time>2020-06-29T09:30:44Z</time>
      </trkpt>
      <trkpt lat="48.67119" lon="6.52648">
        <ele>224.2</ele>
        <time>2020-06-29T09:30:45Z</time>
      </trkpt>
      <trkpt lat="48.67118" lon="6.52643">
        <ele>224.2</ele>
        <time>2020-06-29T09:30:46Z</time>
      </trkpt>
      <trkpt lat="48.67116" lon="6.52638">
        <ele>224.2</ele>
        <time>2020-06-29T09:30:47Z</time>
      </trkpt>
      <trkpt lat="48.67114" lon="6.52633">
        <ele>224.1</ele>
        <time>2020-06-29T09:30:48Z</time>
      </trkpt>
      <trkpt lat="48.67113" lon="6.52628">
        <ele>224.1</ele>
        <time>2020-06-29T09:30:49Z</time>
      </trkpt>
      <trkpt lat="48.67111" lon="6.52623">
        <ele>224.1</ele>
        <time>2020-06-29T09:30:50Z</time>
      </trkpt>
      <trkpt lat="48.67109" lon="6.52619">
        <ele>224.1</ele>
        <time>2020-06-29T09:30:51Z</time>
      </trkpt>
      <trkpt lat="48.67107" lon="6.52615">
        <ele>224.1</ele>
        <time>2020-06-29T09:30:52Z</time>
      </trkpt>
      <trkpt lat="48.67105" lon="6.52611">
        <ele>224.1</ele>
        <time>2020-06-29T09:30:53Z</time>
      </trkpt>
      <trkpt lat="48.67105" lon="6.52606">
        <ele>224.1</ele>
        <time>2020-06-29T09:30:54Z</time>
      </trkpt>
      <trkpt lat="48.67105" lon="6.52599">
        <ele>224.1</ele>
        <time>2020-06-29T09:30:55Z</time>
      </trkpt>
      <trkpt lat="48.67107" lon="6.52591">
        <ele>224</ele>
        <time>2020-06-29T09:30:56Z</time>
      </trkpt>
      <trkpt lat="48.67108" lon="6.52582">
        <ele>224</ele>
        <time>2020-06-29T09:30:57Z</time>
      </trkpt>
      <trkpt lat="48.67109" lon="6.52573">
        <ele>223.9</ele>
        <time>2020-06-29T09:30:58Z</time>
      </trkpt>
      <trkpt lat="48.6711" lon="6.52564">
        <ele>223.8</ele>
        <time>2020-06-29T09:30:59Z</time>
      </trkpt>
      <trkpt lat="48.67111" lon="6.52556">
        <ele>223.5</ele>
        <time>2020-06-29T09:31:00Z</time>
      </trkpt>
      <trkpt lat="48.67113" lon="6.52547">
        <ele>223.1</ele>
        <time>2020-06-29T09:31:01Z</time>
      </trkpt>
      <trkpt lat="48.67115" lon="6.52538">
        <ele>222.8</ele>
        <time>2020-06-29T09:31:02Z</time>
      </trkpt>
      <trkpt lat="48.67114" lon="6.52531">
        <ele>222.5</ele>
        <time>2020-06-29T09:31:03Z</time>
      </trkpt>
      <trkpt lat="48.67114" lon="6.52522">
        <ele>222.2</ele>
        <time>2020-06-29T09:31:04Z</time>
      </trkpt>
      <trkpt lat="48.67113" lon="6.52513">
        <ele>221.9</ele>
        <time>2020-06-29T09:31:05Z</time>
      </trkpt>
      <trkpt lat="48.67113" lon="6.52504">
        <ele>221.7</ele>
        <time>2020-06-29T09:31:06Z</time>
      </trkpt>
      <trkpt lat="48.67113" lon="6.52496">
        <ele>221.5</ele>
        <time>2020-06-29T09:31:07Z</time>
      </trkpt>
      <trkpt lat="48.67113" lon="6.52488">
        <ele>221.6</ele>
        <time>2020-06-29T09:31:08Z</time>
      </trkpt>
      <trkpt lat="48.67112" lon="6.52477">
        <ele>221.6</ele>
        <time>2020-06-29T09:31:09Z</time>
      </trkpt>
      <trkpt lat="48.67112" lon="6.52469">
        <ele>221.6</ele>
        <time>2020-06-29T09:31:10Z</time>
      </trkpt>
      <trkpt lat="48.67113" lon="6.52462">
        <ele>221.6</ele>
        <time>2020-06-29T09:31:11Z</time>
      </trkpt>
      <trkpt lat="48.67114" lon="6.52452">
        <ele>221.5</ele>
        <time>2020-06-29T09:31:12Z</time>
      </trkpt>
      <trkpt lat="48.67113" lon="6.52443">
        <ele>221.5</ele>
        <time>2020-06-29T09:31:13Z</time>
      </trkpt>
      <trkpt lat="48.67114" lon="6.52432">
        <ele>221.5</ele>
        <time>2020-06-29T09:31:14Z</time>
      </trkpt>
      <trkpt lat="48.67116" lon="6.52423">
        <ele>221.4</ele>
        <time>2020-06-29T09:31:15Z</time>
      </trkpt>
      <trkpt lat="48.67117" lon="6.52414">
        <ele>221.4</ele>
        <time>2020-06-29T09:31:16Z</time>
      </trkpt>
      <trkpt lat="48.67119" lon="6.52403">
        <ele>221.4</ele>
        <time>2020-06-29T09:31:17Z</time>
      </trkpt>
      <trkpt lat="48.67121" lon="6.52394">
        <ele>221.3</ele>
        <time>2020-06-29T09:31:18Z</time>
      </trkpt>
      <trkpt lat="48.67124" lon="6.52383">
        <ele>221.3</ele>
        <time>2020-06-29T09:31:19Z</time>
      </trkpt>
      <trkpt lat="48.67125" lon="6.52376">
        <ele>221.2</ele>
        <time>2020-06-29T09:31:20Z</time>
      </trkpt>
      <trkpt lat="48.67127" lon="6.52368">
        <ele>221.2</ele>
        <time>2020-06-29T09:31:21Z</time>
      </trkpt>
      <trkpt lat="48.67129" lon="6.5236">
        <ele>221.2</ele>
        <time>2020-06-29T09:31:22Z</time>
      </trkpt>
      <trkpt lat="48.67132" lon="6.5235">
        <ele>221.1</ele>
        <time>2020-06-29T09:31:23Z</time>
      </trkpt>
      <trkpt lat="48.67134" lon="6.52341">
        <ele>221.2</ele>
        <time>2020-06-29T09:31:24Z</time>
      </trkpt>
      <trkpt lat="48.67137" lon="6.52333">
        <ele>221.2</ele>
        <time>2020-06-29T09:31:25Z</time>
      </trkpt>
      <trkpt lat="48.67139" lon="6.52325">
        <ele>221.2</ele>
        <time>2020-06-29T09:31:26Z</time>
      </trkpt>
      <trkpt lat="48.67142" lon="6.52318">
        <ele>221.2</ele>
        <time>2020-06-29T09:31:27Z</time>
      </trkpt>
      <trkpt lat="48.67144" lon="6.5231">
        <ele>221.3</ele>
        <time>2020-06-29T09:31:28Z</time>
      </trkpt>
      <trkpt lat="48.67146" lon="6.52303">
        <ele>221.3</ele>
        <time>2020-06-29T09:31:29Z</time>
      </trkpt>
      <trkpt lat="48.67148" lon="6.52294">
        <ele>221.3</ele>
        <time>2020-06-29T09:31:30Z</time>
      </trkpt>
      <trkpt lat="48.67149" lon="6.52286">
        <ele>221.3</ele>
        <time>2020-06-29T09:31:31Z</time>
      </trkpt>
      <trkpt lat="48.67151" lon="6.52275">
        <ele>221.3</ele>
        <time>2020-06-29T09:31:32Z</time>
      </trkpt>
      <trkpt lat="48.67152" lon="6.52265">
        <ele>221.4</ele>
        <time>2020-06-29T09:31:33Z</time>
      </trkpt>
      <trkpt lat="48.67152" lon="6.52254">
        <ele>221.4</ele>
        <time>2020-06-29T09:31:34Z</time>
      </trkpt>
      <trkpt lat="48.67152" lon="6.52244">
        <ele>221.4</ele>
        <time>2020-06-29T09:31:35Z</time>
      </trkpt>
      <trkpt lat="48.67152" lon="6.52235">
        <ele>221.5</ele>
        <time>2020-06-29T09:31:36Z</time>
      </trkpt>
      <trkpt lat="48.67152" lon="6.52223">
        <ele>221.5</ele>
        <time>2020-06-29T09:31:37Z</time>
      </trkpt>
      <trkpt lat="48.67152" lon="6.52214">
        <ele>221.5</ele>
        <time>2020-06-29T09:31:38Z</time>
      </trkpt>
      <trkpt lat="48.67152" lon="6.52203">
        <ele>221.5</ele>
        <time>2020-06-29T09:31:39Z</time>
      </trkpt>
      <trkpt lat="48.67153" lon="6.52196">
        <ele>221.5</ele>
        <time>2020-06-29T09:31:40Z</time>
      </trkpt>
      <trkpt lat="48.67153" lon="6.52187">
        <ele>221.5</ele>
        <time>2020-06-29T09:31:41Z</time>
      </trkpt>
      <trkpt lat="48.67151" lon="6.52177">
        <ele>221.5</ele>
        <time>2020-06-29T09:31:42Z</time>
      </trkpt>
      <trkpt lat="48.6715" lon="6.52167">
        <ele>221.5</ele>
        <time>2020-06-29T09:31:43Z</time>
      </trkpt>
      <trkpt lat="48.67149" lon="6.52156">
        <ele>221.5</ele>
        <time>2020-06-29T09:31:44Z</time>
      </trkpt>
      <trkpt lat="48.67147" lon="6.52145">
        <ele>221.5</ele>
        <time>2020-06-29T09:31:45Z</time>
      </trkpt>
      <trkpt lat="48.67145" lon="6.52135">
        <ele>221.4</ele>
        <time>2020-06-29T09:31:46Z</time>
      </trkpt>
      <trkpt lat="48.67143" lon="6.52122">
        <ele>221.4</ele>
        <time>2020-06-29T09:31:47Z</time>
      </trkpt>
      <trkpt lat="48.67141" lon="6.52109">
        <ele>221.4</ele>
        <time>2020-06-29T09:31:48Z</time>
      </trkpt>
      <trkpt lat="48.67137" lon="6.52097">
        <ele>221.3</ele>
        <time>2020-06-29T09:31:49Z</time>
      </trkpt>
      <trkpt lat="48.67133" lon="6.52083">
        <ele>221.3</ele>
        <time>2020-06-29T09:31:50Z</time>
      </trkpt>
      <trkpt lat="48.67129" lon="6.52067">
        <ele>221.2</ele>
        <time>2020-06-29T09:31:51Z</time>
      </trkpt>
      <trkpt lat="48.67125" lon="6.52053">
        <ele>221.2</ele>
        <time>2020-06-29T09:31:52Z</time>
      </trkpt>
      <trkpt lat="48.67121" lon="6.52039">
        <ele>221.1</ele>
        <time>2020-06-29T09:31:53Z</time>
      </trkpt>
      <trkpt lat="48.67118" lon="6.52028">
        <ele>221.1</ele>
        <time>2020-06-29T09:31:54Z</time>
      </trkpt>
      <trkpt lat="48.67114" lon="6.52016">
        <ele>221.1</ele>
        <time>2020-06-29T09:31:55Z</time>
      </trkpt>
      <trkpt lat="48.6711" lon="6.52004">
        <ele>221.1</ele>
        <time>2020-06-29T09:31:56Z</time>
      </trkpt>
      <trkpt lat="48.67106" lon="6.51994">
        <ele>221.4</ele>
        <time>2020-06-29T09:31:57Z</time>
      </trkpt>
      <trkpt lat="48.67102" lon="6.51986">
        <ele>221.7</ele>
        <time>2020-06-29T09:31:58Z</time>
      </trkpt>
      <trkpt lat="48.67098" lon="6.51978">
        <ele>221.8</ele>
        <time>2020-06-29T09:31:59Z</time>
      </trkpt>
      <trkpt lat="48.67094" lon="6.5197">
        <ele>221.8</ele>
        <time>2020-06-29T09:32:00Z</time>
      </trkpt>
      <trkpt lat="48.67091" lon="6.51962">
        <ele>221.7</ele>
        <time>2020-06-29T09:32:01Z</time>
      </trkpt>
      <trkpt lat="48.67086" lon="6.51954">
        <ele>221.7</ele>
        <time>2020-06-29T09:32:02Z</time>
      </trkpt>
      <trkpt lat="48.67081" lon="6.51945">
        <ele>221.7</ele>
        <time>2020-06-29T09:32:03Z</time>
      </trkpt>
      <trkpt lat="48.67077" lon="6.51939">
        <ele>221.7</ele>
        <time>2020-06-29T09:32:04Z</time>
      </trkpt>
      <trkpt lat="48.67072" lon="6.51931">
        <ele>221.8</ele>
        <time>2020-06-29T09:32:05Z</time>
      </trkpt>
      <trkpt lat="48.67067" lon="6.51926">
        <ele>221.8</ele>
        <time>2020-06-29T09:32:06Z</time>
      </trkpt>
      <trkpt lat="48.67062" lon="6.5192">
        <ele>221.8</ele>
        <time>2020-06-29T09:32:07Z</time>
      </trkpt>
      <trkpt lat="48.67058" lon="6.51915">
        <ele>221.9</ele>
        <time>2020-06-29T09:32:08Z</time>
      </trkpt>
      <trkpt lat="48.67052" lon="6.51909">
        <ele>221.9</ele>
        <time>2020-06-29T09:32:09Z</time>
      </trkpt>
      <trkpt lat="48.67048" lon="6.51903">
        <ele>221.9</ele>
        <time>2020-06-29T09:32:10Z</time>
      </trkpt>
      <trkpt lat="48.67042" lon="6.51897">
        <ele>222</ele>
        <time>2020-06-29T09:32:11Z</time>
      </trkpt>
      <trkpt lat="48.67037" lon="6.51892">
        <ele>222</ele>
        <time>2020-06-29T09:32:12Z</time>
      </trkpt>
      <trkpt lat="48.67031" lon="6.51887">
        <ele>222</ele>
        <time>2020-06-29T09:32:13Z</time>
      </trkpt>
      <trkpt lat="48.67026" lon="6.51882">
        <ele>222</ele>
        <time>2020-06-29T09:32:14Z</time>
      </trkpt>
      <trkpt lat="48.67021" lon="6.51879">
        <ele>222</ele>
        <time>2020-06-29T09:32:15Z</time>
      </trkpt>
      <trkpt lat="48.67016" lon="6.51876">
        <ele>222</ele>
        <time>2020-06-29T09:32:16Z</time>
      </trkpt>
      <trkpt lat="48.6701" lon="6.51873">
        <ele>222</ele>
        <time>2020-06-29T09:32:17Z</time>
      </trkpt>
      <trkpt lat="48.67004" lon="6.5187">
        <ele>222</ele>
        <time>2020-06-29T09:32:18Z</time>
      </trkpt>
      <trkpt lat="48.66998" lon="6.51866">
        <ele>222</ele>
        <time>2020-06-29T09:32:19Z</time>
      </trkpt>
      <trkpt lat="48.66991" lon="6.51863">
        <ele>222</ele>
        <time>2020-06-29T09:32:20Z</time>
      </trkpt>
      <trkpt lat="48.66985" lon="6.5186">
        <ele>222</ele>
        <time>2020-06-29T09:32:21Z</time>
      </trkpt>
      <trkpt lat="48.66978" lon="6.51857">
        <ele>222</ele>
        <time>2020-06-29T09:32:22Z</time>
      </trkpt>
      <trkpt lat="48.66972" lon="6.51855">
        <ele>222.1</ele>
        <time>2020-06-29T09:32:23Z</time>
      </trkpt>
      <trkpt lat="48.66966" lon="6.51853">
        <ele>222.1</ele>
        <time>2020-06-29T09:32:24Z</time>
      </trkpt>
      <trkpt lat="48.6696" lon="6.5185">
        <ele>222.1</ele>
        <time>2020-06-29T09:32:25Z</time>
      </trkpt>
      <trkpt lat="48.66953" lon="6.51847">
        <ele>222.1</ele>
        <time>2020-06-29T09:32:26Z</time>
      </trkpt>
      <trkpt lat="48.66947" lon="6.51846">
        <ele>222.1</ele>
        <time>2020-06-29T09:32:27Z</time>
      </trkpt>
      <trkpt lat="48.66941" lon="6.51845">
        <ele>222.1</ele>
        <time>2020-06-29T09:32:28Z</time>
      </trkpt>
      <trkpt lat="48.66935" lon="6.51844">
        <ele>222.1</ele>
        <time>2020-06-29T09:32:29Z</time>
      </trkpt>
      <trkpt lat="48.66929" lon="6.51841">
        <ele>222.1</ele>
        <time>2020-06-29T09:32:30Z</time>
      </trkpt>
      <trkpt lat="48.66923" lon="6.51838">
        <ele>222.1</ele>
        <time>2020-06-29T09:32:31Z</time>
      </trkpt>
      <trkpt lat="48.66916" lon="6.51836">
        <ele>222.1</ele>
        <time>2020-06-29T09:32:32Z</time>
      </trkpt>
      <trkpt lat="48.66911" lon="6.51834">
        <ele>222.1</ele>
        <time>2020-06-29T09:32:33Z</time>
      </trkpt>
      <trkpt lat="48.66905" lon="6.51831">
        <ele>222</ele>
        <time>2020-06-29T09:32:34Z</time>
      </trkpt>
      <trkpt lat="48.66899" lon="6.51829">
        <ele>222</ele>
        <time>2020-06-29T09:32:35Z</time>
      </trkpt>
      <trkpt lat="48.66893" lon="6.51827">
        <ele>222.1</ele>
        <time>2020-06-29T09:32:36Z</time>
      </trkpt>
      <trkpt lat="48.66887" lon="6.51824">
        <ele>222.1</ele>
        <time>2020-06-29T09:32:37Z</time>
      </trkpt>
      <trkpt lat="48.66881" lon="6.5182">
        <ele>222.1</ele>
        <time>2020-06-29T09:32:38Z</time>
      </trkpt>
      <trkpt lat="48.66875" lon="6.51816">
        <ele>222.1</ele>
        <time>2020-06-29T09:32:39Z</time>
      </trkpt>
      <trkpt lat="48.66869" lon="6.51811">
        <ele>222.1</ele>
        <time>2020-06-29T09:32:40Z</time>
      </trkpt>
      <trkpt lat="48.66864" lon="6.51805">
        <ele>222.1</ele>
        <time>2020-06-29T09:32:41Z</time>
      </trkpt>
      <trkpt lat="48.66858" lon="6.51799">
        <ele>222</ele>
        <time>2020-06-29T09:32:42Z</time>
      </trkpt>
      <trkpt lat="48.66852" lon="6.51795">
        <ele>222</ele>
        <time>2020-06-29T09:32:43Z</time>
      </trkpt>
      <trkpt lat="48.66847" lon="6.51791">
        <ele>222</ele>
        <time>2020-06-29T09:32:44Z</time>
      </trkpt>
      <trkpt lat="48.66842" lon="6.51784">
        <ele>222</ele>
        <time>2020-06-29T09:32:45Z</time>
      </trkpt>
      <trkpt lat="48.66837" lon="6.51777">
        <ele>221.9</ele>
        <time>2020-06-29T09:32:46Z</time>
      </trkpt>
      <trkpt lat="48.66833" lon="6.51771">
        <ele>221.9</ele>
        <time>2020-06-29T09:32:47Z</time>
      </trkpt>
      <trkpt lat="48.66827" lon="6.51763">
        <ele>221.9</ele>
        <time>2020-06-29T09:32:48Z</time>
      </trkpt>
      <trkpt lat="48.66823" lon="6.51757">
        <ele>221.8</ele>
        <time>2020-06-29T09:32:49Z</time>
      </trkpt>
      <trkpt lat="48.66819" lon="6.5175">
        <ele>221.8</ele>
        <time>2020-06-29T09:32:50Z</time>
      </trkpt>
      <trkpt lat="48.66815" lon="6.51745">
        <ele>221.7</ele>
        <time>2020-06-29T09:32:51Z</time>
      </trkpt>
      <trkpt lat="48.66811" lon="6.51737">
        <ele>221.7</ele>
        <time>2020-06-29T09:32:52Z</time>
      </trkpt>
      <trkpt lat="48.66808" lon="6.51729">
        <ele>221.7</ele>
        <time>2020-06-29T09:32:53Z</time>
      </trkpt>
      <trkpt lat="48.66804" lon="6.51722">
        <ele>221.7</ele>
        <time>2020-06-29T09:32:54Z</time>
      </trkpt>
      <trkpt lat="48.66801" lon="6.51714">
        <ele>221.7</ele>
        <time>2020-06-29T09:32:55Z</time>
      </trkpt>
      <trkpt lat="48.66798" lon="6.51706">
        <ele>221.7</ele>
        <time>2020-06-29T09:32:56Z</time>
      </trkpt>
      <trkpt lat="48.66796" lon="6.51697">
        <ele>221.8</ele>
        <time>2020-06-29T09:32:57Z</time>
      </trkpt>
      <trkpt lat="48.6679" lon="6.51687">
        <ele>221.8</ele>
        <time>2020-06-29T09:32:58Z</time>
      </trkpt>
      <trkpt lat="48.66787" lon="6.51678">
        <ele>221.9</ele>
        <time>2020-06-29T09:32:59Z</time>
      </trkpt>
      <trkpt lat="48.66785" lon="6.51669">
        <ele>221.9</ele>
        <time>2020-06-29T09:33:00Z</time>
      </trkpt>
      <trkpt lat="48.66782" lon="6.5166">
        <ele>221.9</ele>
        <time>2020-06-29T09:33:01Z</time>
      </trkpt>
      <trkpt lat="48.6678" lon="6.5165">
        <ele>221.9</ele>
        <time>2020-06-29T09:33:02Z</time>
      </trkpt>
      <trkpt lat="48.66778" lon="6.5164">
        <ele>221.9</ele>
        <time>2020-06-29T09:33:03Z</time>
      </trkpt>
      <trkpt lat="48.66776" lon="6.5163">
        <ele>221.9</ele>
        <time>2020-06-29T09:33:04Z</time>
      </trkpt>
      <trkpt lat="48.66773" lon="6.51621">
        <ele>221.9</ele>
        <time>2020-06-29T09:33:05Z</time>
      </trkpt>
      <trkpt lat="48.66771" lon="6.51611">
        <ele>221.9</ele>
        <time>2020-06-29T09:33:06Z</time>
      </trkpt>
      <trkpt lat="48.6677" lon="6.516">
        <ele>221.9</ele>
        <time>2020-06-29T09:33:07Z</time>
      </trkpt>
      <trkpt lat="48.66769" lon="6.5159">
        <ele>221.9</ele>
        <time>2020-06-29T09:33:08Z</time>
      </trkpt>
      <trkpt lat="48.66769" lon="6.51579">
        <ele>221.9</ele>
        <time>2020-06-29T09:33:09Z</time>
      </trkpt>
      <trkpt lat="48.66768" lon="6.51569">
        <ele>221.9</ele>
        <time>2020-06-29T09:33:10Z</time>
      </trkpt>
      <trkpt lat="48.66768" lon="6.51558">
        <ele>221.9</ele>
        <time>2020-06-29T09:33:11Z</time>
      </trkpt>
      <trkpt lat="48.66768" lon="6.51548">
        <ele>221.9</ele>
        <time>2020-06-29T09:33:12Z</time>
      </trkpt>
      <trkpt lat="48.66768" lon="6.51538">
        <ele>221.9</ele>
        <time>2020-06-29T09:33:13Z</time>
      </trkpt>
      <trkpt lat="48.66768" lon="6.51528">
        <ele>221.8</ele>
        <time>2020-06-29T09:33:14Z</time>
      </trkpt>
      <trkpt lat="48.66768" lon="6.51518">
        <ele>221.8</ele>
        <time>2020-06-29T09:33:15Z</time>
      </trkpt>
      <trkpt lat="48.66768" lon="6.51508">
        <ele>221.8</ele>
        <time>2020-06-29T09:33:16Z</time>
      </trkpt>
      <trkpt lat="48.66768" lon="6.51499">
        <ele>221.8</ele>
        <time>2020-06-29T09:33:17Z</time>
      </trkpt>
      <trkpt lat="48.66768" lon="6.5149">
        <ele>221.7</ele>
        <time>2020-06-29T09:33:18Z</time>
      </trkpt>
      <trkpt lat="48.66768" lon="6.51481">
        <ele>221.7</ele>
        <time>2020-06-29T09:33:19Z</time>
      </trkpt>
      <trkpt lat="48.66766" lon="6.51472">
        <ele>221.7</ele>
        <time>2020-06-29T09:33:20Z</time>
      </trkpt>
      <trkpt lat="48.66764" lon="6.51463">
        <ele>221.7</ele>
        <time>2020-06-29T09:33:21Z</time>
      </trkpt>
      <trkpt lat="48.66762" lon="6.51453">
        <ele>221.7</ele>
        <time>2020-06-29T09:33:22Z</time>
      </trkpt>
      <trkpt lat="48.66761" lon="6.51443">
        <ele>221.7</ele>
        <time>2020-06-29T09:33:23Z</time>
      </trkpt>
      <trkpt lat="48.66759" lon="6.51433">
        <ele>221.6</ele>
        <time>2020-06-29T09:33:24Z</time>
      </trkpt>
      <trkpt lat="48.66759" lon="6.51424">
        <ele>221.6</ele>
        <time>2020-06-29T09:33:25Z</time>
      </trkpt>
      <trkpt lat="48.66757" lon="6.51416">
        <ele>221.6</ele>
        <time>2020-06-29T09:33:26Z</time>
      </trkpt>
      <trkpt lat="48.66754" lon="6.51409">
        <ele>221.5</ele>
        <time>2020-06-29T09:33:27Z</time>
      </trkpt>
      <trkpt lat="48.66752" lon="6.514">
        <ele>221.5</ele>
        <time>2020-06-29T09:33:28Z</time>
      </trkpt>
      <trkpt lat="48.66749" lon="6.51392">
        <ele>221.5</ele>
        <time>2020-06-29T09:33:29Z</time>
      </trkpt>
      <trkpt lat="48.66747" lon="6.51383">
        <ele>221.5</ele>
        <time>2020-06-29T09:33:30Z</time>
      </trkpt>
      <trkpt lat="48.66743" lon="6.51374">
        <ele>221.5</ele>
        <time>2020-06-29T09:33:31Z</time>
      </trkpt>
      <trkpt lat="48.6674" lon="6.51365">
        <ele>221.4</ele>
        <time>2020-06-29T09:33:32Z</time>
      </trkpt>
      <trkpt lat="48.66735" lon="6.51357">
        <ele>221.4</ele>
        <time>2020-06-29T09:33:33Z</time>
      </trkpt>
      <trkpt lat="48.66732" lon="6.5135">
        <ele>221.5</ele>
        <time>2020-06-29T09:33:34Z</time>
      </trkpt>
      <trkpt lat="48.66726" lon="6.51341">
        <ele>221.5</ele>
        <time>2020-06-29T09:33:35Z</time>
      </trkpt>
      <trkpt lat="48.66722" lon="6.51333">
        <ele>221.5</ele>
        <time>2020-06-29T09:33:36Z</time>
      </trkpt>
      <trkpt lat="48.66716" lon="6.51323">
        <ele>221.5</ele>
        <time>2020-06-29T09:33:37Z</time>
      </trkpt>
      <trkpt lat="48.66712" lon="6.51316">
        <ele>221.5</ele>
        <time>2020-06-29T09:33:38Z</time>
      </trkpt>
      <trkpt lat="48.66707" lon="6.51309">
        <ele>221.5</ele>
        <time>2020-06-29T09:33:39Z</time>
      </trkpt>
      <trkpt lat="48.66703" lon="6.51302">
        <ele>221.5</ele>
        <time>2020-06-29T09:33:40Z</time>
      </trkpt>
      <trkpt lat="48.66699" lon="6.51293">
        <ele>221.5</ele>
        <time>2020-06-29T09:33:41Z</time>
      </trkpt>
      <trkpt lat="48.66695" lon="6.51285">
        <ele>221.5</ele>
        <time>2020-06-29T09:33:42Z</time>
      </trkpt>
      <trkpt lat="48.66689" lon="6.51276">
        <ele>221.6</ele>
        <time>2020-06-29T09:33:43Z</time>
      </trkpt>
      <trkpt lat="48.66683" lon="6.51267">
        <ele>221.6</ele>
        <time>2020-06-29T09:33:44Z</time>
      </trkpt>
      <trkpt lat="48.66679" lon="6.5126">
        <ele>221.6</ele>
        <time>2020-06-29T09:33:45Z</time>
      </trkpt>
      <trkpt lat="48.66674" lon="6.51251">
        <ele>221.6</ele>
        <time>2020-06-29T09:33:46Z</time>
      </trkpt>
      <trkpt lat="48.6667" lon="6.51243">
        <ele>221.5</ele>
        <time>2020-06-29T09:33:47Z</time>
      </trkpt>
      <trkpt lat="48.66667" lon="6.51235">
        <ele>221.5</ele>
        <time>2020-06-29T09:33:48Z</time>
      </trkpt>
      <trkpt lat="48.66663" lon="6.51226">
        <ele>221.6</ele>
        <time>2020-06-29T09:33:49Z</time>
      </trkpt>
      <trkpt lat="48.66661" lon="6.51219">
        <ele>221.6</ele>
        <time>2020-06-29T09:33:50Z</time>
      </trkpt>
      <trkpt lat="48.66659" lon="6.51211">
        <ele>221.6</ele>
        <time>2020-06-29T09:33:51Z</time>
      </trkpt>
      <trkpt lat="48.66655" lon="6.51202">
        <ele>221.7</ele>
        <time>2020-06-29T09:33:52Z</time>
      </trkpt>
      <trkpt lat="48.66653" lon="6.51193">
        <ele>221.7</ele>
        <time>2020-06-29T09:33:53Z</time>
      </trkpt>
      <trkpt lat="48.6665" lon="6.51183">
        <ele>221.8</ele>
        <time>2020-06-29T09:33:54Z</time>
      </trkpt>
      <trkpt lat="48.66648" lon="6.51176">
        <ele>221.8</ele>
        <time>2020-06-29T09:33:55Z</time>
      </trkpt>
      <trkpt lat="48.66645" lon="6.5117">
        <ele>221.9</ele>
        <time>2020-06-29T09:33:56Z</time>
      </trkpt>
      <trkpt lat="48.66644" lon="6.51165">
        <ele>221.8</ele>
        <time>2020-06-29T09:33:57Z</time>
      </trkpt>
      <trkpt lat="48.66642" lon="6.51161">
        <ele>221.8</ele>
        <time>2020-06-29T09:33:58Z</time>
      </trkpt>
      <trkpt lat="48.66642" lon="6.51158">
        <ele>221.8</ele>
        <time>2020-06-29T09:33:59Z</time>
      </trkpt>
      <trkpt lat="48.66641" lon="6.51157">
        <ele>221.8</ele>
        <time>2020-06-29T09:34:00Z</time>
      </trkpt>
      <trkpt lat="48.66642" lon="6.51152">
        <ele>221.8</ele>
        <time>2020-06-29T09:34:01Z</time>
      </trkpt>
      <trkpt lat="48.66642" lon="6.5115">
        <ele>221.8</ele>
        <time>2020-06-29T09:34:02Z</time>
      </trkpt>
      <trkpt lat="48.66642" lon="6.51146">
        <ele>221.8</ele>
        <time>2020-06-29T09:34:03Z</time>
      </trkpt>
      <trkpt lat="48.66641" lon="6.51145">
        <ele>221.8</ele>
        <time>2020-06-29T09:34:04Z</time>
      </trkpt>
      <trkpt lat="48.66639" lon="6.51139">
        <ele>221.8</ele>
        <time>2020-06-29T09:34:05Z</time>
      </trkpt>
      <trkpt lat="48.66639" lon="6.51137">
        <ele>221.8</ele>
        <time>2020-06-29T09:34:06Z</time>
      </trkpt>
      <trkpt lat="48.66638" lon="6.51131">
        <ele>221.8</ele>
        <time>2020-06-29T09:34:07Z</time>
      </trkpt>
      <trkpt lat="48.66638" lon="6.51125">
        <ele>221.8</ele>
        <time>2020-06-29T09:34:08Z</time>
      </trkpt>
      <trkpt lat="48.66637" lon="6.5112">
        <ele>221.8</ele>
        <time>2020-06-29T09:34:09Z</time>
      </trkpt>
      <trkpt lat="48.66636" lon="6.51117">
        <ele>221.8</ele>
        <time>2020-06-29T09:34:10Z</time>
      </trkpt>
      <trkpt lat="48.66636" lon="6.51109">
        <ele>221.8</ele>
        <time>2020-06-29T09:34:11Z</time>
      </trkpt>
      <trkpt lat="48.66636" lon="6.51102">
        <ele>221.8</ele>
        <time>2020-06-29T09:34:12Z</time>
      </trkpt>
      <trkpt lat="48.66635" lon="6.51093">
        <ele>221.7</ele>
        <time>2020-06-29T09:34:13Z</time>
      </trkpt>
      <trkpt lat="48.66635" lon="6.51084">
        <ele>221.7</ele>
        <time>2020-06-29T09:34:14Z</time>
      </trkpt>
      <trkpt lat="48.66634" lon="6.51076">
        <ele>221.7</ele>
        <time>2020-06-29T09:34:15Z</time>
      </trkpt>
      <trkpt lat="48.66634" lon="6.51068">
        <ele>221.8</ele>
        <time>2020-06-29T09:34:16Z</time>
      </trkpt>
      <trkpt lat="48.66633" lon="6.5106">
        <ele>221.9</ele>
        <time>2020-06-29T09:34:17Z</time>
      </trkpt>
      <trkpt lat="48.66632" lon="6.51051">
        <ele>222.1</ele>
        <time>2020-06-29T09:34:18Z</time>
      </trkpt>
      <trkpt lat="48.66631" lon="6.51042">
        <ele>222.5</ele>
        <time>2020-06-29T09:34:19Z</time>
      </trkpt>
      <trkpt lat="48.6663" lon="6.51034">
        <ele>222.9</ele>
        <time>2020-06-29T09:34:20Z</time>
      </trkpt>
      <trkpt lat="48.66628" lon="6.51027">
        <ele>223.4</ele>
        <time>2020-06-29T09:34:21Z</time>
      </trkpt>
      <trkpt lat="48.66627" lon="6.5102">
        <ele>223.8</ele>
        <time>2020-06-29T09:34:22Z</time>
      </trkpt>
      <trkpt lat="48.66625" lon="6.51012">
        <ele>224.3</ele>
        <time>2020-06-29T09:34:23Z</time>
      </trkpt>
      <trkpt lat="48.66623" lon="6.51007">
        <ele>224.7</ele>
        <time>2020-06-29T09:34:24Z</time>
      </trkpt>
      <trkpt lat="48.66622" lon="6.51003">
        <ele>224.8</ele>
        <time>2020-06-29T09:34:25Z</time>
      </trkpt>
      <trkpt lat="48.66622" lon="6.50999">
        <ele>224.8</ele>
        <time>2020-06-29T09:34:26Z</time>
      </trkpt>
      <trkpt lat="48.66622" lon="6.50997">
        <ele>224.8</ele>
        <time>2020-06-29T09:34:27Z</time>
      </trkpt>
      <trkpt lat="48.66622" lon="6.50995">
        <ele>224.8</ele>
        <time>2020-06-29T09:34:28Z</time>
      </trkpt>
      <trkpt lat="48.66621" lon="6.50993">
        <ele>224.8</ele>
        <time>2020-06-29T09:34:29Z</time>
      </trkpt>
      <trkpt lat="48.66618" lon="6.5099">
        <ele>224.8</ele>
        <time>2020-06-29T09:34:30Z</time>
      </trkpt>
      <trkpt lat="48.66616" lon="6.50989">
        <ele>224.5</ele>
        <time>2020-06-29T09:34:31Z</time>
      </trkpt>
      <trkpt lat="48.66612" lon="6.50985">
        <ele>224.3</ele>
        <time>2020-06-29T09:34:32Z</time>
      </trkpt>
      <trkpt lat="48.6661" lon="6.5098">
        <ele>224.1</ele>
        <time>2020-06-29T09:34:33Z</time>
      </trkpt>
      <trkpt lat="48.6661" lon="6.50976">
        <ele>223.9</ele>
        <time>2020-06-29T09:34:34Z</time>
      </trkpt>
      <trkpt lat="48.6661" lon="6.5097">
        <ele>223.7</ele>
        <time>2020-06-29T09:34:35Z</time>
      </trkpt>
      <trkpt lat="48.6661" lon="6.50962">
        <ele>223.5</ele>
        <time>2020-06-29T09:34:36Z</time>
      </trkpt>
      <trkpt lat="48.6661" lon="6.50955">
        <ele>223.2</ele>
        <time>2020-06-29T09:34:37Z</time>
      </trkpt>
      <trkpt lat="48.66611" lon="6.50947">
        <ele>222.9</ele>
        <time>2020-06-29T09:34:38Z</time>
      </trkpt>
      <trkpt lat="48.66613" lon="6.50938">
        <ele>222.6</ele>
        <time>2020-06-29T09:34:39Z</time>
      </trkpt>
      <trkpt lat="48.66615" lon="6.5093">
        <ele>222.4</ele>
        <time>2020-06-29T09:34:40Z</time>
      </trkpt>
      <trkpt lat="48.66618" lon="6.50922">
        <ele>222.1</ele>
        <time>2020-06-29T09:34:41Z</time>
      </trkpt>
      <trkpt lat="48.6662" lon="6.50915">
        <ele>221.8</ele>
        <time>2020-06-29T09:34:42Z</time>
      </trkpt>
      <trkpt lat="48.66622" lon="6.50906">
        <ele>221.5</ele>
        <time>2020-06-29T09:34:43Z</time>
      </trkpt>
      <trkpt lat="48.66623" lon="6.50896">
        <ele>221.2</ele>
        <time>2020-06-29T09:34:44Z</time>
      </trkpt>
      <trkpt lat="48.66624" lon="6.50887">
        <ele>221</ele>
        <time>2020-06-29T09:34:45Z</time>
      </trkpt>
      <trkpt lat="48.66623" lon="6.50876">
        <ele>220.7</ele>
        <time>2020-06-29T09:34:46Z</time>
      </trkpt>
      <trkpt lat="48.66623" lon="6.50865">
        <ele>220.5</ele>
        <time>2020-06-29T09:34:47Z</time>
      </trkpt>
      <trkpt lat="48.66622" lon="6.50855">
        <ele>220.3</ele>
        <time>2020-06-29T09:34:48Z</time>
      </trkpt>
      <trkpt lat="48.66621" lon="6.50844">
        <ele>220.2</ele>
        <time>2020-06-29T09:34:49Z</time>
      </trkpt>
      <trkpt lat="48.66621" lon="6.50835">
        <ele>220.1</ele>
        <time>2020-06-29T09:34:50Z</time>
      </trkpt>
      <trkpt lat="48.6662" lon="6.50825">
        <ele>219.9</ele>
        <time>2020-06-29T09:34:51Z</time>
      </trkpt>
      <trkpt lat="48.6662" lon="6.50816">
        <ele>219.9</ele>
        <time>2020-06-29T09:34:52Z</time>
      </trkpt>
      <trkpt lat="48.66619" lon="6.50807">
        <ele>219.8</ele>
        <time>2020-06-29T09:34:53Z</time>
      </trkpt>
      <trkpt lat="48.66618" lon="6.50799">
        <ele>219.8</ele>
        <time>2020-06-29T09:34:54Z</time>
      </trkpt>
      <trkpt lat="48.66617" lon="6.50791">
        <ele>219.7</ele>
        <time>2020-06-29T09:34:55Z</time>
      </trkpt>
      <trkpt lat="48.66614" lon="6.50781">
        <ele>219.6</ele>
        <time>2020-06-29T09:34:56Z</time>
      </trkpt>
      <trkpt lat="48.66612" lon="6.50771">
        <ele>219.6</ele>
        <time>2020-06-29T09:34:57Z</time>
      </trkpt>
      <trkpt lat="48.6661" lon="6.50761">
        <ele>219.4</ele>
        <time>2020-06-29T09:34:58Z</time>
      </trkpt>
      <trkpt lat="48.66608" lon="6.5075">
        <ele>219.3</ele>
        <time>2020-06-29T09:34:59Z</time>
      </trkpt>
      <trkpt lat="48.66606" lon="6.50741">
        <ele>219.2</ele>
        <time>2020-06-29T09:35:00Z</time>
      </trkpt>
      <trkpt lat="48.66603" lon="6.50731">
        <ele>219.1</ele>
        <time>2020-06-29T09:35:01Z</time>
      </trkpt>
      <trkpt lat="48.66599" lon="6.50721">
        <ele>219</ele>
        <time>2020-06-29T09:35:02Z</time>
      </trkpt>
      <trkpt lat="48.66596" lon="6.5071">
        <ele>218.8</ele>
        <time>2020-06-29T09:35:03Z</time>
      </trkpt>
      <trkpt lat="48.66593" lon="6.50697">
        <ele>218.7</ele>
        <time>2020-06-29T09:35:04Z</time>
      </trkpt>
      <trkpt lat="48.6659" lon="6.50686">
        <ele>218.6</ele>
        <time>2020-06-29T09:35:05Z</time>
      </trkpt>
      <trkpt lat="48.66587" lon="6.50675">
        <ele>218.5</ele>
        <time>2020-06-29T09:35:06Z</time>
      </trkpt>
      <trkpt lat="48.66582" lon="6.50666">
        <ele>218.4</ele>
        <time>2020-06-29T09:35:07Z</time>
      </trkpt>
      <trkpt lat="48.66578" lon="6.50658">
        <ele>218.4</ele>
        <time>2020-06-29T09:35:08Z</time>
      </trkpt>
      <trkpt lat="48.66575" lon="6.50649">
        <ele>218.4</ele>
        <time>2020-06-29T09:35:09Z</time>
      </trkpt>
      <trkpt lat="48.66571" lon="6.50641">
        <ele>218.3</ele>
        <time>2020-06-29T09:35:10Z</time>
      </trkpt>
      <trkpt lat="48.66568" lon="6.50633">
        <ele>218.3</ele>
        <time>2020-06-29T09:35:11Z</time>
      </trkpt>
      <trkpt lat="48.66564" lon="6.50624">
        <ele>218.3</ele>
        <time>2020-06-29T09:35:12Z</time>
      </trkpt>
      <trkpt lat="48.6656" lon="6.50615">
        <ele>218.2</ele>
        <time>2020-06-29T09:35:13Z</time>
      </trkpt>
      <trkpt lat="48.66556" lon="6.50606">
        <ele>218.2</ele>
        <time>2020-06-29T09:35:14Z</time>
      </trkpt>
      <trkpt lat="48.66552" lon="6.50597">
        <ele>218.1</ele>
        <time>2020-06-29T09:35:15Z</time>
      </trkpt>
      <trkpt lat="48.66547" lon="6.50589">
        <ele>218.1</ele>
        <time>2020-06-29T09:35:16Z</time>
      </trkpt>
      <trkpt lat="48.66544" lon="6.50579">
        <ele>218.1</ele>
        <time>2020-06-29T09:35:17Z</time>
      </trkpt>
      <trkpt lat="48.6654" lon="6.50571">
        <ele>218.1</ele>
        <time>2020-06-29T09:35:18Z</time>
      </trkpt>
      <trkpt lat="48.66537" lon="6.50563">
        <ele>218</ele>
        <time>2020-06-29T09:35:19Z</time>
      </trkpt>
      <trkpt lat="48.66533" lon="6.50554">
        <ele>218</ele>
        <time>2020-06-29T09:35:20Z</time>
      </trkpt>
      <trkpt lat="48.66529" lon="6.50545">
        <ele>218</ele>
        <time>2020-06-29T09:35:21Z</time>
      </trkpt>
      <trkpt lat="48.66525" lon="6.50537">
        <ele>217.9</ele>
        <time>2020-06-29T09:35:22Z</time>
      </trkpt>
      <trkpt lat="48.6652" lon="6.50528">
        <ele>217.9</ele>
        <time>2020-06-29T09:35:23Z</time>
      </trkpt>
      <trkpt lat="48.66517" lon="6.5052">
        <ele>218</ele>
        <time>2020-06-29T09:35:24Z</time>
      </trkpt>
      <trkpt lat="48.66514" lon="6.50512">
        <ele>218</ele>
        <time>2020-06-29T09:35:25Z</time>
      </trkpt>
      <trkpt lat="48.6651" lon="6.50505">
        <ele>218</ele>
        <time>2020-06-29T09:35:26Z</time>
      </trkpt>
      <trkpt lat="48.66508" lon="6.50497">
        <ele>218</ele>
        <time>2020-06-29T09:35:27Z</time>
      </trkpt>
      <trkpt lat="48.66505" lon="6.50488">
        <ele>218.1</ele>
        <time>2020-06-29T09:35:28Z</time>
      </trkpt>
      <trkpt lat="48.66503" lon="6.5048">
        <ele>218.1</ele>
        <time>2020-06-29T09:35:29Z</time>
      </trkpt>
      <trkpt lat="48.665" lon="6.50473">
        <ele>218.1</ele>
        <time>2020-06-29T09:35:30Z</time>
      </trkpt>
      <trkpt lat="48.66499" lon="6.50466">
        <ele>218.1</ele>
        <time>2020-06-29T09:35:31Z</time>
      </trkpt>
      <trkpt lat="48.66498" lon="6.50457">
        <ele>218.2</ele>
        <time>2020-06-29T09:35:32Z</time>
      </trkpt>
      <trkpt lat="48.66496" lon="6.50447">
        <ele>218.2</ele>
        <time>2020-06-29T09:35:33Z</time>
      </trkpt>
      <trkpt lat="48.66495" lon="6.5044">
        <ele>218.2</ele>
        <time>2020-06-29T09:35:34Z</time>
      </trkpt>
      <trkpt lat="48.66492" lon="6.5043">
        <ele>218.2</ele>
        <time>2020-06-29T09:35:35Z</time>
      </trkpt>
      <trkpt lat="48.66489" lon="6.50422">
        <ele>218.2</ele>
        <time>2020-06-29T09:35:36Z</time>
      </trkpt>
      <trkpt lat="48.66487" lon="6.50414">
        <ele>218.2</ele>
        <time>2020-06-29T09:35:37Z</time>
      </trkpt>
      <trkpt lat="48.66485" lon="6.50407">
        <ele>218.3</ele>
        <time>2020-06-29T09:35:38Z</time>
      </trkpt>
      <trkpt lat="48.66483" lon="6.504">
        <ele>218.3</ele>
        <time>2020-06-29T09:35:39Z</time>
      </trkpt>
      <trkpt lat="48.66481" lon="6.50392">
        <ele>218.3</ele>
        <time>2020-06-29T09:35:40Z</time>
      </trkpt>
      <trkpt lat="48.66479" lon="6.50383">
        <ele>218.4</ele>
        <time>2020-06-29T09:35:41Z</time>
      </trkpt>
      <trkpt lat="48.66478" lon="6.50375">
        <ele>218.5</ele>
        <time>2020-06-29T09:35:42Z</time>
      </trkpt>
      <trkpt lat="48.66477" lon="6.50367">
        <ele>218.5</ele>
        <time>2020-06-29T09:35:43Z</time>
      </trkpt>
      <trkpt lat="48.66476" lon="6.5036">
        <ele>218.6</ele>
        <time>2020-06-29T09:35:44Z</time>
      </trkpt>
      <trkpt lat="48.66475" lon="6.50352">
        <ele>218.6</ele>
        <time>2020-06-29T09:35:45Z</time>
      </trkpt>
      <trkpt lat="48.66473" lon="6.50344">
        <ele>218.7</ele>
        <time>2020-06-29T09:35:46Z</time>
      </trkpt>
      <trkpt lat="48.66471" lon="6.50336">
        <ele>218.8</ele>
        <time>2020-06-29T09:35:47Z</time>
      </trkpt>
      <trkpt lat="48.66468" lon="6.50328">
        <ele>218.8</ele>
        <time>2020-06-29T09:35:48Z</time>
      </trkpt>
      <trkpt lat="48.66465" lon="6.50318">
        <ele>218.9</ele>
        <time>2020-06-29T09:35:49Z</time>
      </trkpt>
      <trkpt lat="48.66463" lon="6.50309">
        <ele>219</ele>
        <time>2020-06-29T09:35:50Z</time>
      </trkpt>
      <trkpt lat="48.6646" lon="6.503">
        <ele>219.1</ele>
        <time>2020-06-29T09:35:51Z</time>
      </trkpt>
      <trkpt lat="48.66457" lon="6.50293">
        <ele>219.2</ele>
        <time>2020-06-29T09:35:52Z</time>
      </trkpt>
      <trkpt lat="48.66454" lon="6.50285">
        <ele>219.3</ele>
        <time>2020-06-29T09:35:53Z</time>
      </trkpt>
      <trkpt lat="48.66451" lon="6.5028">
        <ele>219.3</ele>
        <time>2020-06-29T09:35:54Z</time>
      </trkpt>
      <trkpt lat="48.66446" lon="6.50275">
        <ele>219.4</ele>
        <time>2020-06-29T09:35:55Z</time>
      </trkpt>
      <trkpt lat="48.66442" lon="6.5027">
        <ele>219.5</ele>
        <time>2020-06-29T09:35:56Z</time>
      </trkpt>
      <trkpt lat="48.66438" lon="6.50266">
        <ele>219.6</ele>
        <time>2020-06-29T09:35:57Z</time>
      </trkpt>
      <trkpt lat="48.66434" lon="6.50261">
        <ele>219.6</ele>
        <time>2020-06-29T09:35:58Z</time>
      </trkpt>
      <trkpt lat="48.6643" lon="6.50255">
        <ele>219.7</ele>
        <time>2020-06-29T09:35:59Z</time>
      </trkpt>
      <trkpt lat="48.66425" lon="6.50247">
        <ele>219.8</ele>
        <time>2020-06-29T09:36:00Z</time>
      </trkpt>
      <trkpt lat="48.6642" lon="6.5024">
        <ele>219.8</ele>
        <time>2020-06-29T09:36:01Z</time>
      </trkpt>
      <trkpt lat="48.66415" lon="6.50237">
        <ele>219.8</ele>
        <time>2020-06-29T09:36:02Z</time>
      </trkpt>
      <trkpt lat="48.66411" lon="6.50233">
        <ele>219.9</ele>
        <time>2020-06-29T09:36:03Z</time>
      </trkpt>
      <trkpt lat="48.66405" lon="6.50227">
        <ele>219.9</ele>
        <time>2020-06-29T09:36:04Z</time>
      </trkpt>
      <trkpt lat="48.664" lon="6.5022">
        <ele>219.9</ele>
        <time>2020-06-29T09:36:05Z</time>
      </trkpt>
      <trkpt lat="48.66394" lon="6.50215">
        <ele>219.9</ele>
        <time>2020-06-29T09:36:06Z</time>
      </trkpt>
      <trkpt lat="48.66388" lon="6.5021">
        <ele>219.9</ele>
        <time>2020-06-29T09:36:07Z</time>
      </trkpt>
      <trkpt lat="48.66382" lon="6.50205">
        <ele>219.9</ele>
        <time>2020-06-29T09:36:08Z</time>
      </trkpt>
      <trkpt lat="48.66377" lon="6.502">
        <ele>219.9</ele>
        <time>2020-06-29T09:36:09Z</time>
      </trkpt>
      <trkpt lat="48.66372" lon="6.50194">
        <ele>219.8</ele>
        <time>2020-06-29T09:36:10Z</time>
      </trkpt>
      <trkpt lat="48.66367" lon="6.50188">
        <ele>219.8</ele>
        <time>2020-06-29T09:36:11Z</time>
      </trkpt>
      <trkpt lat="48.66361" lon="6.50182">
        <ele>219.7</ele>
        <time>2020-06-29T09:36:12Z</time>
      </trkpt>
      <trkpt lat="48.66356" lon="6.50176">
        <ele>219.7</ele>
        <time>2020-06-29T09:36:13Z</time>
      </trkpt>
      <trkpt lat="48.66352" lon="6.5017">
        <ele>219.6</ele>
        <time>2020-06-29T09:36:14Z</time>
      </trkpt>
      <trkpt lat="48.66348" lon="6.50165">
        <ele>219.6</ele>
        <time>2020-06-29T09:36:15Z</time>
      </trkpt>
      <trkpt lat="48.66344" lon="6.50159">
        <ele>219.5</ele>
        <time>2020-06-29T09:36:16Z</time>
      </trkpt>
      <trkpt lat="48.66339" lon="6.50152">
        <ele>219.3</ele>
        <time>2020-06-29T09:36:17Z</time>
      </trkpt>
      <trkpt lat="48.66335" lon="6.50146">
        <ele>219.2</ele>
        <time>2020-06-29T09:36:18Z</time>
      </trkpt>
      <trkpt lat="48.6633" lon="6.50138">
        <ele>219</ele>
        <time>2020-06-29T09:36:19Z</time>
      </trkpt>
      <trkpt lat="48.66325" lon="6.50132">
        <ele>218.8</ele>
        <time>2020-06-29T09:36:20Z</time>
      </trkpt>
      <trkpt lat="48.6632" lon="6.50127">
        <ele>218.7</ele>
        <time>2020-06-29T09:36:21Z</time>
      </trkpt>
      <trkpt lat="48.66313" lon="6.50121">
        <ele>218.4</ele>
        <time>2020-06-29T09:36:22Z</time>
      </trkpt>
      <trkpt lat="48.66307" lon="6.50117">
        <ele>218.2</ele>
        <time>2020-06-29T09:36:23Z</time>
      </trkpt>
      <trkpt lat="48.66301" lon="6.50112">
        <ele>218</ele>
        <time>2020-06-29T09:36:24Z</time>
      </trkpt>
      <trkpt lat="48.66295" lon="6.50109">
        <ele>217.8</ele>
        <time>2020-06-29T09:36:25Z</time>
      </trkpt>
      <trkpt lat="48.66289" lon="6.50107">
        <ele>217.7</ele>
        <time>2020-06-29T09:36:26Z</time>
      </trkpt>
      <trkpt lat="48.66281" lon="6.50102">
        <ele>217.6</ele>
        <time>2020-06-29T09:36:27Z</time>
      </trkpt>
      <trkpt lat="48.66276" lon="6.50097">
        <ele>217.5</ele>
        <time>2020-06-29T09:36:28Z</time>
      </trkpt>
      <trkpt lat="48.6627" lon="6.50094">
        <ele>217.4</ele>
        <time>2020-06-29T09:36:29Z</time>
      </trkpt>
      <trkpt lat="48.66266" lon="6.50089">
        <ele>217.3</ele>
        <time>2020-06-29T09:36:30Z</time>
      </trkpt>
      <trkpt lat="48.66261" lon="6.5008">
        <ele>217.2</ele>
        <time>2020-06-29T09:36:31Z</time>
      </trkpt>
      <trkpt lat="48.66257" lon="6.5007">
        <ele>217.2</ele>
        <time>2020-06-29T09:36:32Z</time>
      </trkpt>
      <trkpt lat="48.66253" lon="6.50058">
        <ele>217.2</ele>
        <time>2020-06-29T09:36:33Z</time>
      </trkpt>
      <trkpt lat="48.66251" lon="6.5005">
        <ele>217.2</ele>
        <time>2020-06-29T09:36:34Z</time>
      </trkpt>
      <trkpt lat="48.66249" lon="6.50042">
        <ele>217.2</ele>
        <time>2020-06-29T09:36:35Z</time>
      </trkpt>
      <trkpt lat="48.66248" lon="6.50031">
        <ele>217.2</ele>
        <time>2020-06-29T09:36:36Z</time>
      </trkpt>
      <trkpt lat="48.66246" lon="6.50023">
        <ele>217.3</ele>
        <time>2020-06-29T09:36:37Z</time>
      </trkpt>
      <trkpt lat="48.66244" lon="6.50014">
        <ele>217.3</ele>
        <time>2020-06-29T09:36:38Z</time>
      </trkpt>
      <trkpt lat="48.66243" lon="6.50007">
        <ele>217.3</ele>
        <time>2020-06-29T09:36:39Z</time>
      </trkpt>
      <trkpt lat="48.66242" lon="6.49997">
        <ele>217.3</ele>
        <time>2020-06-29T09:36:40Z</time>
      </trkpt>
      <trkpt lat="48.66241" lon="6.49987">
        <ele>217.2</ele>
        <time>2020-06-29T09:36:41Z</time>
      </trkpt>
      <trkpt lat="48.66239" lon="6.49978">
        <ele>217.2</ele>
        <time>2020-06-29T09:36:42Z</time>
      </trkpt>
      <trkpt lat="48.66238" lon="6.49969">
        <ele>217.2</ele>
        <time>2020-06-29T09:36:43Z</time>
      </trkpt>
      <trkpt lat="48.66235" lon="6.49959">
        <ele>217.2</ele>
        <time>2020-06-29T09:36:44Z</time>
      </trkpt>
      <trkpt lat="48.66233" lon="6.49951">
        <ele>217.2</ele>
        <time>2020-06-29T09:36:45Z</time>
      </trkpt>
      <trkpt lat="48.66231" lon="6.49942">
        <ele>217.2</ele>
        <time>2020-06-29T09:36:46Z</time>
      </trkpt>
      <trkpt lat="48.6623" lon="6.49934">
        <ele>217.2</ele>
        <time>2020-06-29T09:36:47Z</time>
      </trkpt>
      <trkpt lat="48.66229" lon="6.49927">
        <ele>217.2</ele>
        <time>2020-06-29T09:36:48Z</time>
      </trkpt>
      <trkpt lat="48.66227" lon="6.49921">
        <ele>217.2</ele>
        <time>2020-06-29T09:36:49Z</time>
      </trkpt>
      <trkpt lat="48.66223" lon="6.49912">
        <ele>217.2</ele>
        <time>2020-06-29T09:36:50Z</time>
      </trkpt>
      <trkpt lat="48.66219" lon="6.49902">
        <ele>217.2</ele>
        <time>2020-06-29T09:36:51Z</time>
      </trkpt>
      <trkpt lat="48.66216" lon="6.49894">
        <ele>217.2</ele>
        <time>2020-06-29T09:36:52Z</time>
      </trkpt>
      <trkpt lat="48.66212" lon="6.49885">
        <ele>217.2</ele>
        <time>2020-06-29T09:36:53Z</time>
      </trkpt>
      <trkpt lat="48.66208" lon="6.49878">
        <ele>217.2</ele>
        <time>2020-06-29T09:36:54Z</time>
      </trkpt>
      <trkpt lat="48.66205" lon="6.49873">
        <ele>217.2</ele>
        <time>2020-06-29T09:36:55Z</time>
      </trkpt>
      <trkpt lat="48.662" lon="6.49866">
        <ele>217.2</ele>
        <time>2020-06-29T09:36:56Z</time>
      </trkpt>
      <trkpt lat="48.66194" lon="6.49859">
        <ele>217.2</ele>
        <time>2020-06-29T09:36:57Z</time>
      </trkpt>
      <trkpt lat="48.6619" lon="6.49854">
        <ele>217.2</ele>
        <time>2020-06-29T09:36:58Z</time>
      </trkpt>
      <trkpt lat="48.66186" lon="6.49847">
        <ele>217.2</ele>
        <time>2020-06-29T09:36:59Z</time>
      </trkpt>
      <trkpt lat="48.66182" lon="6.49839">
        <ele>217.2</ele>
        <time>2020-06-29T09:37:00Z</time>
      </trkpt>
      <trkpt lat="48.66179" lon="6.49834">
        <ele>217.2</ele>
        <time>2020-06-29T09:37:01Z</time>
      </trkpt>
      <trkpt lat="48.66175" lon="6.49827">
        <ele>217.2</ele>
        <time>2020-06-29T09:37:02Z</time>
      </trkpt>
      <trkpt lat="48.6617" lon="6.4982">
        <ele>217.2</ele>
        <time>2020-06-29T09:37:03Z</time>
      </trkpt>
      <trkpt lat="48.66166" lon="6.49814">
        <ele>217.2</ele>
        <time>2020-06-29T09:37:04Z</time>
      </trkpt>
      <trkpt lat="48.66162" lon="6.49808">
        <ele>217.2</ele>
        <time>2020-06-29T09:37:05Z</time>
      </trkpt>
      <trkpt lat="48.66158" lon="6.49799">
        <ele>217.1</ele>
        <time>2020-06-29T09:37:06Z</time>
      </trkpt>
      <trkpt lat="48.66153" lon="6.49792">
        <ele>217.1</ele>
        <time>2020-06-29T09:37:07Z</time>
      </trkpt>
      <trkpt lat="48.66149" lon="6.49784">
        <ele>217.1</ele>
        <time>2020-06-29T09:37:08Z</time>
      </trkpt>
      <trkpt lat="48.66145" lon="6.49778">
        <ele>217.1</ele>
        <time>2020-06-29T09:37:09Z</time>
      </trkpt>
      <trkpt lat="48.66142" lon="6.49773">
        <ele>217.1</ele>
        <time>2020-06-29T09:37:10Z</time>
      </trkpt>
      <trkpt lat="48.66138" lon="6.49768">
        <ele>217.1</ele>
        <time>2020-06-29T09:37:11Z</time>
      </trkpt>
      <trkpt lat="48.66133" lon="6.4976">
        <ele>217.1</ele>
        <time>2020-06-29T09:37:12Z</time>
      </trkpt>
      <trkpt lat="48.66129" lon="6.49752">
        <ele>217</ele>
        <time>2020-06-29T09:37:13Z</time>
      </trkpt>
      <trkpt lat="48.66125" lon="6.49745">
        <ele>217</ele>
        <time>2020-06-29T09:37:14Z</time>
      </trkpt>
      <trkpt lat="48.6612" lon="6.49737">
        <ele>217</ele>
        <time>2020-06-29T09:37:15Z</time>
      </trkpt>
      <trkpt lat="48.66115" lon="6.4973">
        <ele>217</ele>
        <time>2020-06-29T09:37:16Z</time>
      </trkpt>
      <trkpt lat="48.6611" lon="6.49722">
        <ele>217</ele>
        <time>2020-06-29T09:37:17Z</time>
      </trkpt>
      <trkpt lat="48.66106" lon="6.49716">
        <ele>217</ele>
        <time>2020-06-29T09:37:18Z</time>
      </trkpt>
      <trkpt lat="48.66102" lon="6.4971">
        <ele>217</ele>
        <time>2020-06-29T09:37:19Z</time>
      </trkpt>
      <trkpt lat="48.66097" lon="6.49703">
        <ele>217</ele>
        <time>2020-06-29T09:37:20Z</time>
      </trkpt>
      <trkpt lat="48.66093" lon="6.49697">
        <ele>217</ele>
        <time>2020-06-29T09:37:21Z</time>
      </trkpt>
      <trkpt lat="48.66088" lon="6.49688">
        <ele>217</ele>
        <time>2020-06-29T09:37:22Z</time>
      </trkpt>
      <trkpt lat="48.66085" lon="6.4968">
        <ele>217</ele>
        <time>2020-06-29T09:37:23Z</time>
      </trkpt>
      <trkpt lat="48.66079" lon="6.49672">
        <ele>217</ele>
        <time>2020-06-29T09:37:24Z</time>
      </trkpt>
      <trkpt lat="48.66074" lon="6.49664">
        <ele>217</ele>
        <time>2020-06-29T09:37:25Z</time>
      </trkpt>
      <trkpt lat="48.6607" lon="6.49656">
        <ele>217</ele>
        <time>2020-06-29T09:37:26Z</time>
      </trkpt>
      <trkpt lat="48.66066" lon="6.49649">
        <ele>217</ele>
        <time>2020-06-29T09:37:27Z</time>
      </trkpt>
      <trkpt lat="48.66061" lon="6.4964">
        <ele>217</ele>
        <time>2020-06-29T09:37:28Z</time>
      </trkpt>
      <trkpt lat="48.66058" lon="6.49634">
        <ele>217</ele>
        <time>2020-06-29T09:37:29Z</time>
      </trkpt>
      <trkpt lat="48.66054" lon="6.49628">
        <ele>217</ele>
        <time>2020-06-29T09:37:30Z</time>
      </trkpt>
      <trkpt lat="48.66049" lon="6.49621">
        <ele>217</ele>
        <time>2020-06-29T09:37:31Z</time>
      </trkpt>
      <trkpt lat="48.66043" lon="6.49612">
        <ele>217.1</ele>
        <time>2020-06-29T09:37:32Z</time>
      </trkpt>
      <trkpt lat="48.66039" lon="6.49606">
        <ele>217.1</ele>
        <time>2020-06-29T09:37:33Z</time>
      </trkpt>
      <trkpt lat="48.66035" lon="6.496">
        <ele>217.1</ele>
        <time>2020-06-29T09:37:34Z</time>
      </trkpt>
      <trkpt lat="48.6603" lon="6.49591">
        <ele>217.1</ele>
        <time>2020-06-29T09:37:35Z</time>
      </trkpt>
      <trkpt lat="48.66026" lon="6.49584">
        <ele>217.1</ele>
        <time>2020-06-29T09:37:36Z</time>
      </trkpt>
      <trkpt lat="48.66022" lon="6.49578">
        <ele>217.1</ele>
        <time>2020-06-29T09:37:37Z</time>
      </trkpt>
      <trkpt lat="48.66018" lon="6.49571">
        <ele>217.1</ele>
        <time>2020-06-29T09:37:38Z</time>
      </trkpt>
      <trkpt lat="48.66015" lon="6.49564">
        <ele>217.1</ele>
        <time>2020-06-29T09:37:39Z</time>
      </trkpt>
      <trkpt lat="48.6601" lon="6.49557">
        <ele>217.2</ele>
        <time>2020-06-29T09:37:40Z</time>
      </trkpt>
      <trkpt lat="48.66005" lon="6.49549">
        <ele>217.3</ele>
        <time>2020-06-29T09:37:41Z</time>
      </trkpt>
      <trkpt lat="48.65999" lon="6.4954">
        <ele>217.5</ele>
        <time>2020-06-29T09:37:42Z</time>
      </trkpt>
      <trkpt lat="48.65995" lon="6.49532">
        <ele>217.7</ele>
        <time>2020-06-29T09:37:43Z</time>
      </trkpt>
      <trkpt lat="48.65991" lon="6.49524">
        <ele>217.9</ele>
        <time>2020-06-29T09:37:44Z</time>
      </trkpt>
      <trkpt lat="48.65989" lon="6.49517">
        <ele>218.2</ele>
        <time>2020-06-29T09:37:45Z</time>
      </trkpt>
      <trkpt lat="48.65985" lon="6.4951">
        <ele>218.5</ele>
        <time>2020-06-29T09:37:46Z</time>
      </trkpt>
      <trkpt lat="48.6598" lon="6.49503">
        <ele>218.8</ele>
        <time>2020-06-29T09:37:47Z</time>
      </trkpt>
      <trkpt lat="48.65977" lon="6.49499">
        <ele>219</ele>
        <time>2020-06-29T09:37:48Z</time>
      </trkpt>
      <trkpt lat="48.65973" lon="6.49494">
        <ele>219.2</ele>
        <time>2020-06-29T09:37:49Z</time>
      </trkpt>
      <trkpt lat="48.65969" lon="6.49488">
        <ele>219.5</ele>
        <time>2020-06-29T09:37:50Z</time>
      </trkpt>
      <trkpt lat="48.65967" lon="6.49484">
        <ele>219.6</ele>
        <time>2020-06-29T09:37:51Z</time>
      </trkpt>
      <trkpt lat="48.65965" lon="6.4948">
        <ele>219.7</ele>
        <time>2020-06-29T09:37:52Z</time>
      </trkpt>
      <trkpt lat="48.65962" lon="6.49475">
        <ele>219.8</ele>
        <time>2020-06-29T09:37:53Z</time>
      </trkpt>
      <trkpt lat="48.65957" lon="6.49471">
        <ele>220</ele>
        <time>2020-06-29T09:37:54Z</time>
      </trkpt>
      <trkpt lat="48.65951" lon="6.49466">
        <ele>220.1</ele>
        <time>2020-06-29T09:37:55Z</time>
      </trkpt>
      <trkpt lat="48.65946" lon="6.49462">
        <ele>220.2</ele>
        <time>2020-06-29T09:37:56Z</time>
      </trkpt>
      <trkpt lat="48.65941" lon="6.49457">
        <ele>220.2</ele>
        <time>2020-06-29T09:37:57Z</time>
      </trkpt>
      <trkpt lat="48.65936" lon="6.49452">
        <ele>220.3</ele>
        <time>2020-06-29T09:37:58Z</time>
      </trkpt>
      <trkpt lat="48.65931" lon="6.49447">
        <ele>220.4</ele>
        <time>2020-06-29T09:37:59Z</time>
      </trkpt>
      <trkpt lat="48.65926" lon="6.49444">
        <ele>220.5</ele>
        <time>2020-06-29T09:38:00Z</time>
      </trkpt>
      <trkpt lat="48.65922" lon="6.49439">
        <ele>220.6</ele>
        <time>2020-06-29T09:38:01Z</time>
      </trkpt>
      <trkpt lat="48.65918" lon="6.49435">
        <ele>220.6</ele>
        <time>2020-06-29T09:38:02Z</time>
      </trkpt>
      <trkpt lat="48.65915" lon="6.49431">
        <ele>220.7</ele>
        <time>2020-06-29T09:38:03Z</time>
      </trkpt>
      <trkpt lat="48.65912" lon="6.49426">
        <ele>220.8</ele>
        <time>2020-06-29T09:38:04Z</time>
      </trkpt>
      <trkpt lat="48.65908" lon="6.49422">
        <ele>220.9</ele>
        <time>2020-06-29T09:38:05Z</time>
      </trkpt>
      <trkpt lat="48.65906" lon="6.49416">
        <ele>221</ele>
        <time>2020-06-29T09:38:06Z</time>
      </trkpt>
      <trkpt lat="48.65903" lon="6.49411">
        <ele>221</ele>
        <time>2020-06-29T09:38:07Z</time>
      </trkpt>
      <trkpt lat="48.659" lon="6.49404">
        <ele>221.1</ele>
        <time>2020-06-29T09:38:08Z</time>
      </trkpt>
      <trkpt lat="48.65896" lon="6.49398">
        <ele>221.1</ele>
        <time>2020-06-29T09:38:09Z</time>
      </trkpt>
      <trkpt lat="48.65893" lon="6.49393">
        <ele>221.2</ele>
        <time>2020-06-29T09:38:10Z</time>
      </trkpt>
      <trkpt lat="48.6589" lon="6.49387">
        <ele>221.2</ele>
        <time>2020-06-29T09:38:11Z</time>
      </trkpt>
      <trkpt lat="48.65888" lon="6.4938">
        <ele>221.3</ele>
        <time>2020-06-29T09:38:12Z</time>
      </trkpt>
      <trkpt lat="48.65886" lon="6.49373">
        <ele>221.3</ele>
        <time>2020-06-29T09:38:13Z</time>
      </trkpt>
      <trkpt lat="48.65882" lon="6.49368">
        <ele>221.4</ele>
        <time>2020-06-29T09:38:14Z</time>
      </trkpt>
      <trkpt lat="48.65878" lon="6.49363">
        <ele>221.5</ele>
        <time>2020-06-29T09:38:15Z</time>
      </trkpt>
      <trkpt lat="48.65876" lon="6.49357">
        <ele>221.5</ele>
        <time>2020-06-29T09:38:16Z</time>
      </trkpt>
      <trkpt lat="48.65872" lon="6.49352">
        <ele>221.6</ele>
        <time>2020-06-29T09:38:17Z</time>
      </trkpt>
      <trkpt lat="48.65869" lon="6.49345">
        <ele>221.7</ele>
        <time>2020-06-29T09:38:18Z</time>
      </trkpt>
      <trkpt lat="48.65865" lon="6.49338">
        <ele>221.7</ele>
        <time>2020-06-29T09:38:19Z</time>
      </trkpt>
      <trkpt lat="48.65862" lon="6.49333">
        <ele>221.8</ele>
        <time>2020-06-29T09:38:20Z</time>
      </trkpt>
      <trkpt lat="48.65859" lon="6.49327">
        <ele>221.8</ele>
        <time>2020-06-29T09:38:21Z</time>
      </trkpt>
      <trkpt lat="48.65856" lon="6.49319">
        <ele>221.9</ele>
        <time>2020-06-29T09:38:22Z</time>
      </trkpt>
      <trkpt lat="48.65853" lon="6.49313">
        <ele>221.9</ele>
        <time>2020-06-29T09:38:23Z</time>
      </trkpt>
      <trkpt lat="48.65849" lon="6.49308">
        <ele>222</ele>
        <time>2020-06-29T09:38:24Z</time>
      </trkpt>
      <trkpt lat="48.65845" lon="6.49301">
        <ele>222.1</ele>
        <time>2020-06-29T09:38:25Z</time>
      </trkpt>
      <trkpt lat="48.65841" lon="6.49297">
        <ele>222.1</ele>
        <time>2020-06-29T09:38:26Z</time>
      </trkpt>
      <trkpt lat="48.65837" lon="6.49293">
        <ele>222.1</ele>
        <time>2020-06-29T09:38:27Z</time>
      </trkpt>
      <trkpt lat="48.65834" lon="6.49288">
        <ele>222.2</ele>
        <time>2020-06-29T09:38:28Z</time>
      </trkpt>
      <trkpt lat="48.6583" lon="6.49285">
        <ele>222.2</ele>
        <time>2020-06-29T09:38:29Z</time>
      </trkpt>
      <trkpt lat="48.65826" lon="6.49281">
        <ele>222.2</ele>
        <time>2020-06-29T09:38:30Z</time>
      </trkpt>
      <trkpt lat="48.65822" lon="6.49277">
        <ele>222.3</ele>
        <time>2020-06-29T09:38:31Z</time>
      </trkpt>
      <trkpt lat="48.65817" lon="6.49273">
        <ele>222.3</ele>
        <time>2020-06-29T09:38:32Z</time>
      </trkpt>
      <trkpt lat="48.65812" lon="6.49268">
        <ele>222.4</ele>
        <time>2020-06-29T09:38:33Z</time>
      </trkpt>
      <trkpt lat="48.65807" lon="6.49264">
        <ele>222.4</ele>
        <time>2020-06-29T09:38:34Z</time>
      </trkpt>
      <trkpt lat="48.65802" lon="6.4926">
        <ele>222.4</ele>
        <time>2020-06-29T09:38:35Z</time>
      </trkpt>
      <trkpt lat="48.65798" lon="6.49256">
        <ele>222.5</ele>
        <time>2020-06-29T09:38:36Z</time>
      </trkpt>
      <trkpt lat="48.65794" lon="6.49253">
        <ele>222.5</ele>
        <time>2020-06-29T09:38:37Z</time>
      </trkpt>
      <trkpt lat="48.65789" lon="6.49249">
        <ele>222.5</ele>
        <time>2020-06-29T09:38:38Z</time>
      </trkpt>
      <trkpt lat="48.65784" lon="6.49246">
        <ele>222.5</ele>
        <time>2020-06-29T09:38:39Z</time>
      </trkpt>
      <trkpt lat="48.65778" lon="6.4924">
        <ele>222.5</ele>
        <time>2020-06-29T09:38:40Z</time>
      </trkpt>
      <trkpt lat="48.65773" lon="6.49235">
        <ele>222.5</ele>
        <time>2020-06-29T09:38:41Z</time>
      </trkpt>
      <trkpt lat="48.65766" lon="6.49231">
        <ele>222.5</ele>
        <time>2020-06-29T09:38:42Z</time>
      </trkpt>
      <trkpt lat="48.65761" lon="6.49228">
        <ele>222.5</ele>
        <time>2020-06-29T09:38:43Z</time>
      </trkpt>
      <trkpt lat="48.65755" lon="6.49226">
        <ele>222.5</ele>
        <time>2020-06-29T09:38:44Z</time>
      </trkpt>
      <trkpt lat="48.65751" lon="6.49221">
        <ele>222.5</ele>
        <time>2020-06-29T09:38:45Z</time>
      </trkpt>
      <trkpt lat="48.65747" lon="6.49217">
        <ele>222.5</ele>
        <time>2020-06-29T09:38:46Z</time>
      </trkpt>
      <trkpt lat="48.65741" lon="6.49212">
        <ele>222.6</ele>
        <time>2020-06-29T09:38:47Z</time>
      </trkpt>
      <trkpt lat="48.65736" lon="6.49207">
        <ele>222.6</ele>
        <time>2020-06-29T09:38:48Z</time>
      </trkpt>
      <trkpt lat="48.65731" lon="6.49202">
        <ele>222.6</ele>
        <time>2020-06-29T09:38:49Z</time>
      </trkpt>
      <trkpt lat="48.65727" lon="6.49197">
        <ele>222.6</ele>
        <time>2020-06-29T09:38:50Z</time>
      </trkpt>
      <trkpt lat="48.65723" lon="6.49192">
        <ele>222.6</ele>
        <time>2020-06-29T09:38:51Z</time>
      </trkpt>
      <trkpt lat="48.65721" lon="6.49188">
        <ele>222.6</ele>
        <time>2020-06-29T09:38:52Z</time>
      </trkpt>
      <trkpt lat="48.65719" lon="6.49183">
        <ele>222.5</ele>
        <time>2020-06-29T09:38:53Z</time>
      </trkpt>
      <trkpt lat="48.65719" lon="6.49176">
        <ele>222.5</ele>
        <time>2020-06-29T09:38:54Z</time>
      </trkpt>
      <trkpt lat="48.65717" lon="6.49171">
        <ele>222.4</ele>
        <time>2020-06-29T09:38:55Z</time>
      </trkpt>
      <trkpt lat="48.65714" lon="6.49165">
        <ele>222.4</ele>
        <time>2020-06-29T09:38:56Z</time>
      </trkpt>
      <trkpt lat="48.65711" lon="6.49159">
        <ele>222.3</ele>
        <time>2020-06-29T09:38:57Z</time>
      </trkpt>
      <trkpt lat="48.65708" lon="6.49155">
        <ele>222.3</ele>
        <time>2020-06-29T09:38:58Z</time>
      </trkpt>
      <trkpt lat="48.65706" lon="6.49149">
        <ele>222.3</ele>
        <time>2020-06-29T09:38:59Z</time>
      </trkpt>
      <trkpt lat="48.65702" lon="6.49143">
        <ele>222.3</ele>
        <time>2020-06-29T09:39:00Z</time>
      </trkpt>
      <trkpt lat="48.65699" lon="6.49137">
        <ele>222.3</ele>
        <time>2020-06-29T09:39:01Z</time>
      </trkpt>
      <trkpt lat="48.65696" lon="6.4913">
        <ele>222.2</ele>
        <time>2020-06-29T09:39:02Z</time>
      </trkpt>
      <trkpt lat="48.65694" lon="6.49124">
        <ele>222.2</ele>
        <time>2020-06-29T09:39:03Z</time>
      </trkpt>
      <trkpt lat="48.65692" lon="6.49119">
        <ele>222.1</ele>
        <time>2020-06-29T09:39:04Z</time>
      </trkpt>
      <trkpt lat="48.65689" lon="6.49115">
        <ele>222.1</ele>
        <time>2020-06-29T09:39:05Z</time>
      </trkpt>
      <trkpt lat="48.65687" lon="6.49108">
        <ele>222</ele>
        <time>2020-06-29T09:39:06Z</time>
      </trkpt>
      <trkpt lat="48.65685" lon="6.49101">
        <ele>222</ele>
        <time>2020-06-29T09:39:07Z</time>
      </trkpt>
      <trkpt lat="48.65682" lon="6.49094">
        <ele>222</ele>
        <time>2020-06-29T09:39:08Z</time>
      </trkpt>
      <trkpt lat="48.6568" lon="6.49087">
        <ele>221.9</ele>
        <time>2020-06-29T09:39:09Z</time>
      </trkpt>
      <trkpt lat="48.65678" lon="6.49079">
        <ele>221.9</ele>
        <time>2020-06-29T09:39:10Z</time>
      </trkpt>
      <trkpt lat="48.65676" lon="6.49071">
        <ele>221.9</ele>
        <time>2020-06-29T09:39:11Z</time>
      </trkpt>
      <trkpt lat="48.65674" lon="6.49063">
        <ele>221.9</ele>
        <time>2020-06-29T09:39:12Z</time>
      </trkpt>
      <trkpt lat="48.65672" lon="6.49055">
        <ele>221.9</ele>
        <time>2020-06-29T09:39:13Z</time>
      </trkpt>
      <trkpt lat="48.65669" lon="6.49047">
        <ele>221.9</ele>
        <time>2020-06-29T09:39:14Z</time>
      </trkpt>
      <trkpt lat="48.65667" lon="6.49039">
        <ele>221.9</ele>
        <time>2020-06-29T09:39:15Z</time>
      </trkpt>
      <trkpt lat="48.65666" lon="6.49031">
        <ele>221.9</ele>
        <time>2020-06-29T09:39:16Z</time>
      </trkpt>
      <trkpt lat="48.65665" lon="6.49022">
        <ele>222</ele>
        <time>2020-06-29T09:39:17Z</time>
      </trkpt>
      <trkpt lat="48.65665" lon="6.49014">
        <ele>222</ele>
        <time>2020-06-29T09:39:18Z</time>
      </trkpt>
      <trkpt lat="48.65665" lon="6.49004">
        <ele>222.1</ele>
        <time>2020-06-29T09:39:19Z</time>
      </trkpt>
      <trkpt lat="48.65665" lon="6.48996">
        <ele>222.1</ele>
        <time>2020-06-29T09:39:20Z</time>
      </trkpt>
      <trkpt lat="48.65665" lon="6.48986">
        <ele>222.1</ele>
        <time>2020-06-29T09:39:21Z</time>
      </trkpt>
      <trkpt lat="48.65665" lon="6.48977">
        <ele>222.1</ele>
        <time>2020-06-29T09:39:22Z</time>
      </trkpt>
      <trkpt lat="48.65665" lon="6.48971">
        <ele>222.1</ele>
        <time>2020-06-29T09:39:23Z</time>
      </trkpt>
      <trkpt lat="48.65666" lon="6.48966">
        <ele>222.1</ele>
        <time>2020-06-29T09:39:24Z</time>
      </trkpt>
      <trkpt lat="48.65667" lon="6.48958">
        <ele>222.1</ele>
        <time>2020-06-29T09:39:25Z</time>
      </trkpt>
      <trkpt lat="48.65667" lon="6.48951">
        <ele>222.1</ele>
        <time>2020-06-29T09:39:26Z</time>
      </trkpt>
      <trkpt lat="48.65668" lon="6.48942">
        <ele>222.1</ele>
        <time>2020-06-29T09:39:27Z</time>
      </trkpt>
      <trkpt lat="48.65668" lon="6.48933">
        <ele>222.1</ele>
        <time>2020-06-29T09:39:28Z</time>
      </trkpt>
      <trkpt lat="48.65666" lon="6.48924">
        <ele>222.1</ele>
        <time>2020-06-29T09:39:29Z</time>
      </trkpt>
      <trkpt lat="48.65666" lon="6.48915">
        <ele>222</ele>
        <time>2020-06-29T09:39:30Z</time>
      </trkpt>
      <trkpt lat="48.65667" lon="6.48905">
        <ele>222</ele>
        <time>2020-06-29T09:39:31Z</time>
      </trkpt>
      <trkpt lat="48.65668" lon="6.48896">
        <ele>222</ele>
        <time>2020-06-29T09:39:32Z</time>
      </trkpt>
      <trkpt lat="48.65669" lon="6.48887">
        <ele>222</ele>
        <time>2020-06-29T09:39:33Z</time>
      </trkpt>
      <trkpt lat="48.6567" lon="6.4888">
        <ele>222</ele>
        <time>2020-06-29T09:39:34Z</time>
      </trkpt>
      <trkpt lat="48.65672" lon="6.48871">
        <ele>222</ele>
        <time>2020-06-29T09:39:35Z</time>
      </trkpt>
      <trkpt lat="48.65672" lon="6.48864">
        <ele>222</ele>
        <time>2020-06-29T09:39:36Z</time>
      </trkpt>
      <trkpt lat="48.65673" lon="6.48857">
        <ele>222</ele>
        <time>2020-06-29T09:39:37Z</time>
      </trkpt>
      <trkpt lat="48.65672" lon="6.48848">
        <ele>222</ele>
        <time>2020-06-29T09:39:38Z</time>
      </trkpt>
      <trkpt lat="48.65671" lon="6.4884">
        <ele>222</ele>
        <time>2020-06-29T09:39:39Z</time>
      </trkpt>
      <trkpt lat="48.65672" lon="6.48831">
        <ele>222</ele>
        <time>2020-06-29T09:39:40Z</time>
      </trkpt>
      <trkpt lat="48.65672" lon="6.48823">
        <ele>222</ele>
        <time>2020-06-29T09:39:41Z</time>
      </trkpt>
      <trkpt lat="48.65672" lon="6.48815">
        <ele>222</ele>
        <time>2020-06-29T09:39:42Z</time>
      </trkpt>
      <trkpt lat="48.65672" lon="6.48806">
        <ele>221.9</ele>
        <time>2020-06-29T09:39:43Z</time>
      </trkpt>
      <trkpt lat="48.65671" lon="6.48796">
        <ele>221.9</ele>
        <time>2020-06-29T09:39:44Z</time>
      </trkpt>
      <trkpt lat="48.6567" lon="6.48786">
        <ele>221.9</ele>
        <time>2020-06-29T09:39:45Z</time>
      </trkpt>
      <trkpt lat="48.6567" lon="6.48778">
        <ele>221.9</ele>
        <time>2020-06-29T09:39:46Z</time>
      </trkpt>
      <trkpt lat="48.6567" lon="6.48768">
        <ele>221.8</ele>
        <time>2020-06-29T09:39:47Z</time>
      </trkpt>
      <trkpt lat="48.6567" lon="6.48756">
        <ele>221.8</ele>
        <time>2020-06-29T09:39:48Z</time>
      </trkpt>
      <trkpt lat="48.65671" lon="6.48743">
        <ele>221.8</ele>
        <time>2020-06-29T09:39:49Z</time>
      </trkpt>
      <trkpt lat="48.65672" lon="6.48732">
        <ele>221.7</ele>
        <time>2020-06-29T09:39:50Z</time>
      </trkpt>
      <trkpt lat="48.65672" lon="6.4872">
        <ele>221.7</ele>
        <time>2020-06-29T09:39:51Z</time>
      </trkpt>
      <trkpt lat="48.65672" lon="6.48709">
        <ele>221.7</ele>
        <time>2020-06-29T09:39:52Z</time>
      </trkpt>
      <trkpt lat="48.6567" lon="6.48699">
        <ele>221.7</ele>
        <time>2020-06-29T09:39:53Z</time>
      </trkpt>
      <trkpt lat="48.65669" lon="6.48688">
        <ele>221.6</ele>
        <time>2020-06-29T09:39:54Z</time>
      </trkpt>
      <trkpt lat="48.65668" lon="6.48678">
        <ele>221.6</ele>
        <time>2020-06-29T09:39:55Z</time>
      </trkpt>
      <trkpt lat="48.65667" lon="6.48668">
        <ele>221.6</ele>
        <time>2020-06-29T09:39:56Z</time>
      </trkpt>
      <trkpt lat="48.65667" lon="6.48657">
        <ele>221.6</ele>
        <time>2020-06-29T09:39:57Z</time>
      </trkpt>
      <trkpt lat="48.65667" lon="6.48646">
        <ele>221.6</ele>
        <time>2020-06-29T09:39:58Z</time>
      </trkpt>
      <trkpt lat="48.65665" lon="6.48634">
        <ele>221.6</ele>
        <time>2020-06-29T09:39:59Z</time>
      </trkpt>
      <trkpt lat="48.65663" lon="6.48622">
        <ele>221.6</ele>
        <time>2020-06-29T09:40:00Z</time>
      </trkpt>
      <trkpt lat="48.65664" lon="6.48611">
        <ele>221.6</ele>
        <time>2020-06-29T09:40:01Z</time>
      </trkpt>
      <trkpt lat="48.65663" lon="6.48601">
        <ele>221.6</ele>
        <time>2020-06-29T09:40:02Z</time>
      </trkpt>
      <trkpt lat="48.65664" lon="6.48592">
        <ele>221.6</ele>
        <time>2020-06-29T09:40:03Z</time>
      </trkpt>
      <trkpt lat="48.65663" lon="6.48584">
        <ele>221.6</ele>
        <time>2020-06-29T09:40:04Z</time>
      </trkpt>
      <trkpt lat="48.65664" lon="6.48575">
        <ele>221.6</ele>
        <time>2020-06-29T09:40:05Z</time>
      </trkpt>
      <trkpt lat="48.65664" lon="6.48566">
        <ele>221.6</ele>
        <time>2020-06-29T09:40:06Z</time>
      </trkpt>
      <trkpt lat="48.65665" lon="6.48558">
        <ele>221.6</ele>
        <time>2020-06-29T09:40:07Z</time>
      </trkpt>
      <trkpt lat="48.65666" lon="6.48551">
        <ele>221.6</ele>
        <time>2020-06-29T09:40:08Z</time>
      </trkpt>
      <trkpt lat="48.65666" lon="6.48542">
        <ele>221.7</ele>
        <time>2020-06-29T09:40:09Z</time>
      </trkpt>
      <trkpt lat="48.65668" lon="6.48535">
        <ele>221.7</ele>
        <time>2020-06-29T09:40:10Z</time>
      </trkpt>
      <trkpt lat="48.65667" lon="6.48527">
        <ele>221.7</ele>
        <time>2020-06-29T09:40:11Z</time>
      </trkpt>
      <trkpt lat="48.65665" lon="6.4852">
        <ele>221.7</ele>
        <time>2020-06-29T09:40:12Z</time>
      </trkpt>
      <trkpt lat="48.65663" lon="6.48512">
        <ele>221.7</ele>
        <time>2020-06-29T09:40:13Z</time>
      </trkpt>
      <trkpt lat="48.65662" lon="6.48505">
        <ele>221.7</ele>
        <time>2020-06-29T09:40:14Z</time>
      </trkpt>
      <trkpt lat="48.6566" lon="6.48496">
        <ele>221.7</ele>
        <time>2020-06-29T09:40:15Z</time>
      </trkpt>
      <trkpt lat="48.65659" lon="6.48489">
        <ele>221.7</ele>
        <time>2020-06-29T09:40:16Z</time>
      </trkpt>
      <trkpt lat="48.65657" lon="6.48481">
        <ele>221.6</ele>
        <time>2020-06-29T09:40:17Z</time>
      </trkpt>
      <trkpt lat="48.65655" lon="6.48472">
        <ele>221.6</ele>
        <time>2020-06-29T09:40:18Z</time>
      </trkpt>
      <trkpt lat="48.65653" lon="6.48463">
        <ele>221.6</ele>
        <time>2020-06-29T09:40:19Z</time>
      </trkpt>
      <trkpt lat="48.65651" lon="6.48454">
        <ele>221.5</ele>
        <time>2020-06-29T09:40:20Z</time>
      </trkpt>
      <trkpt lat="48.65649" lon="6.48445">
        <ele>221.5</ele>
        <time>2020-06-29T09:40:21Z</time>
      </trkpt>
      <trkpt lat="48.65647" lon="6.48436">
        <ele>221.5</ele>
        <time>2020-06-29T09:40:22Z</time>
      </trkpt>
      <trkpt lat="48.65645" lon="6.48426">
        <ele>221.5</ele>
        <time>2020-06-29T09:40:23Z</time>
      </trkpt>
      <trkpt lat="48.65642" lon="6.48416">
        <ele>221.5</ele>
        <time>2020-06-29T09:40:24Z</time>
      </trkpt>
      <trkpt lat="48.65638" lon="6.48406">
        <ele>221.5</ele>
        <time>2020-06-29T09:40:25Z</time>
      </trkpt>
      <trkpt lat="48.65635" lon="6.48398">
        <ele>221.5</ele>
        <time>2020-06-29T09:40:26Z</time>
      </trkpt>
      <trkpt lat="48.65632" lon="6.48391">
        <ele>221.5</ele>
        <time>2020-06-29T09:40:27Z</time>
      </trkpt>
      <trkpt lat="48.65628" lon="6.48384">
        <ele>221.5</ele>
        <time>2020-06-29T09:40:28Z</time>
      </trkpt>
      <trkpt lat="48.65624" lon="6.48377">
        <ele>221.5</ele>
        <time>2020-06-29T09:40:29Z</time>
      </trkpt>
      <trkpt lat="48.65621" lon="6.4837">
        <ele>221.5</ele>
        <time>2020-06-29T09:40:30Z</time>
      </trkpt>
      <trkpt lat="48.65617" lon="6.48362">
        <ele>221.5</ele>
        <time>2020-06-29T09:40:31Z</time>
      </trkpt>
      <trkpt lat="48.65613" lon="6.48356">
        <ele>221.5</ele>
        <time>2020-06-29T09:40:32Z</time>
      </trkpt>
      <trkpt lat="48.65609" lon="6.48349">
        <ele>221.5</ele>
        <time>2020-06-29T09:40:33Z</time>
      </trkpt>
      <trkpt lat="48.65604" lon="6.48343">
        <ele>221.4</ele>
        <time>2020-06-29T09:40:34Z</time>
      </trkpt>
      <trkpt lat="48.656" lon="6.48337">
        <ele>221.4</ele>
        <time>2020-06-29T09:40:35Z</time>
      </trkpt>
      <trkpt lat="48.65596" lon="6.48332">
        <ele>221.4</ele>
        <time>2020-06-29T09:40:36Z</time>
      </trkpt>
      <trkpt lat="48.65592" lon="6.48328">
        <ele>221.4</ele>
        <time>2020-06-29T09:40:37Z</time>
      </trkpt>
      <trkpt lat="48.65588" lon="6.48323">
        <ele>221.4</ele>
        <time>2020-06-29T09:40:38Z</time>
      </trkpt>
      <trkpt lat="48.65583" lon="6.48318">
        <ele>221.4</ele>
        <time>2020-06-29T09:40:39Z</time>
      </trkpt>
      <trkpt lat="48.65579" lon="6.48314">
        <ele>221.3</ele>
        <time>2020-06-29T09:40:40Z</time>
      </trkpt>
      <trkpt lat="48.65575" lon="6.48311">
        <ele>221.3</ele>
        <time>2020-06-29T09:40:41Z</time>
      </trkpt>
      <trkpt lat="48.65571" lon="6.48307">
        <ele>221.3</ele>
        <time>2020-06-29T09:40:42Z</time>
      </trkpt>
      <trkpt lat="48.65568" lon="6.48301">
        <ele>221.3</ele>
        <time>2020-06-29T09:40:43Z</time>
      </trkpt>
      <trkpt lat="48.65565" lon="6.48296">
        <ele>221.3</ele>
        <time>2020-06-29T09:40:44Z</time>
      </trkpt>
      <trkpt lat="48.65561" lon="6.48291">
        <ele>221.3</ele>
        <time>2020-06-29T09:40:45Z</time>
      </trkpt>
      <trkpt lat="48.65556" lon="6.48285">
        <ele>221.3</ele>
        <time>2020-06-29T09:40:46Z</time>
      </trkpt>
      <trkpt lat="48.65549" lon="6.48278">
        <ele>221.3</ele>
        <time>2020-06-29T09:40:47Z</time>
      </trkpt>
      <trkpt lat="48.65544" lon="6.48272">
        <ele>221.3</ele>
        <time>2020-06-29T09:40:48Z</time>
      </trkpt>
      <trkpt lat="48.65539" lon="6.48266">
        <ele>221.3</ele>
        <time>2020-06-29T09:40:49Z</time>
      </trkpt>
      <trkpt lat="48.65535" lon="6.48259">
        <ele>221.3</ele>
        <time>2020-06-29T09:40:50Z</time>
      </trkpt>
      <trkpt lat="48.65531" lon="6.48252">
        <ele>221.3</ele>
        <time>2020-06-29T09:40:51Z</time>
      </trkpt>
      <trkpt lat="48.65526" lon="6.48247">
        <ele>221.3</ele>
        <time>2020-06-29T09:40:52Z</time>
      </trkpt>
      <trkpt lat="48.6552" lon="6.48241">
        <ele>221.3</ele>
        <time>2020-06-29T09:40:53Z</time>
      </trkpt>
      <trkpt lat="48.65515" lon="6.48235">
        <ele>221.3</ele>
        <time>2020-06-29T09:40:54Z</time>
      </trkpt>
      <trkpt lat="48.65509" lon="6.48231">
        <ele>221.4</ele>
        <time>2020-06-29T09:40:55Z</time>
      </trkpt>
      <trkpt lat="48.65503" lon="6.48226">
        <ele>221.4</ele>
        <time>2020-06-29T09:40:56Z</time>
      </trkpt>
      <trkpt lat="48.65495" lon="6.48221">
        <ele>221.4</ele>
        <time>2020-06-29T09:40:57Z</time>
      </trkpt>
      <trkpt lat="48.65489" lon="6.48217">
        <ele>221.4</ele>
        <time>2020-06-29T09:40:58Z</time>
      </trkpt>
      <trkpt lat="48.65482" lon="6.48216">
        <ele>221.4</ele>
        <time>2020-06-29T09:40:59Z</time>
      </trkpt>
      <trkpt lat="48.65477" lon="6.48217">
        <ele>221.4</ele>
        <time>2020-06-29T09:41:00Z</time>
      </trkpt>
      <trkpt lat="48.65472" lon="6.48219">
        <ele>221.4</ele>
        <time>2020-06-29T09:41:01Z</time>
      </trkpt>
      <trkpt lat="48.65467" lon="6.48221">
        <ele>221.4</ele>
        <time>2020-06-29T09:41:02Z</time>
      </trkpt>
      <trkpt lat="48.65463" lon="6.48223">
        <ele>221.4</ele>
        <time>2020-06-29T09:41:03Z</time>
      </trkpt>
      <trkpt lat="48.65457" lon="6.48226">
        <ele>221.4</ele>
        <time>2020-06-29T09:41:04Z</time>
      </trkpt>
      <trkpt lat="48.65452" lon="6.48227">
        <ele>221.4</ele>
        <time>2020-06-29T09:41:05Z</time>
      </trkpt>
      <trkpt lat="48.65448" lon="6.48227">
        <ele>221.4</ele>
        <time>2020-06-29T09:41:06Z</time>
      </trkpt>
      <trkpt lat="48.65445" lon="6.48226">
        <ele>221.4</ele>
        <time>2020-06-29T09:41:07Z</time>
      </trkpt>
      <trkpt lat="48.65441" lon="6.48223">
        <ele>221.4</ele>
        <time>2020-06-29T09:41:08Z</time>
      </trkpt>
      <trkpt lat="48.65438" lon="6.48219">
        <ele>221.4</ele>
        <time>2020-06-29T09:41:09Z</time>
      </trkpt>
      <trkpt lat="48.65434" lon="6.48215">
        <ele>221.4</ele>
        <time>2020-06-29T09:41:10Z</time>
      </trkpt>
      <trkpt lat="48.65431" lon="6.48211">
        <ele>221.4</ele>
        <time>2020-06-29T09:41:11Z</time>
      </trkpt>
      <trkpt lat="48.65427" lon="6.48205">
        <ele>221.4</ele>
        <time>2020-06-29T09:41:12Z</time>
      </trkpt>
      <trkpt lat="48.65423" lon="6.482">
        <ele>221.4</ele>
        <time>2020-06-29T09:41:13Z</time>
      </trkpt>
      <trkpt lat="48.65419" lon="6.48196">
        <ele>221.4</ele>
        <time>2020-06-29T09:41:14Z</time>
      </trkpt>
      <trkpt lat="48.65415" lon="6.48192">
        <ele>221.4</ele>
        <time>2020-06-29T09:41:15Z</time>
      </trkpt>
      <trkpt lat="48.65412" lon="6.48186">
        <ele>221.4</ele>
        <time>2020-06-29T09:41:16Z</time>
      </trkpt>
      <trkpt lat="48.65408" lon="6.48182">
        <ele>221.4</ele>
        <time>2020-06-29T09:41:17Z</time>
      </trkpt>
      <trkpt lat="48.65404" lon="6.48176">
        <ele>221.4</ele>
        <time>2020-06-29T09:41:18Z</time>
      </trkpt>
      <trkpt lat="48.65401" lon="6.48172">
        <ele>221.4</ele>
        <time>2020-06-29T09:41:19Z</time>
      </trkpt>
      <trkpt lat="48.65397" lon="6.48168">
        <ele>221.4</ele>
        <time>2020-06-29T09:41:20Z</time>
      </trkpt>
      <trkpt lat="48.65393" lon="6.48165">
        <ele>221.4</ele>
        <time>2020-06-29T09:41:21Z</time>
      </trkpt>
      <trkpt lat="48.65389" lon="6.48161">
        <ele>221.4</ele>
        <time>2020-06-29T09:41:22Z</time>
      </trkpt>
      <trkpt lat="48.65384" lon="6.48156">
        <ele>221.4</ele>
        <time>2020-06-29T09:41:23Z</time>
      </trkpt>
      <trkpt lat="48.6538" lon="6.48152">
        <ele>221.4</ele>
        <time>2020-06-29T09:41:24Z</time>
      </trkpt>
      <trkpt lat="48.65376" lon="6.48148">
        <ele>221.4</ele>
        <time>2020-06-29T09:41:25Z</time>
      </trkpt>
      <trkpt lat="48.65373" lon="6.48143">
        <ele>221.4</ele>
        <time>2020-06-29T09:41:26Z</time>
      </trkpt>
      <trkpt lat="48.6537" lon="6.48139">
        <ele>221.4</ele>
        <time>2020-06-29T09:41:27Z</time>
      </trkpt>
      <trkpt lat="48.65369" lon="6.48133">
        <ele>221.4</ele>
        <time>2020-06-29T09:41:28Z</time>
      </trkpt>
      <trkpt lat="48.65367" lon="6.48129">
        <ele>221.4</ele>
        <time>2020-06-29T09:41:29Z</time>
      </trkpt>
      <trkpt lat="48.65366" lon="6.48125">
        <ele>221.4</ele>
        <time>2020-06-29T09:41:30Z</time>
      </trkpt>
      <trkpt lat="48.65366" lon="6.48119">
        <ele>221.4</ele>
        <time>2020-06-29T09:41:31Z</time>
      </trkpt>
      <trkpt lat="48.65366" lon="6.48112">
        <ele>221.4</ele>
        <time>2020-06-29T09:41:32Z</time>
      </trkpt>
      <trkpt lat="48.65365" lon="6.48107">
        <ele>221.4</ele>
        <time>2020-06-29T09:41:33Z</time>
      </trkpt>
      <trkpt lat="48.65365" lon="6.48102">
        <ele>221.4</ele>
        <time>2020-06-29T09:41:34Z</time>
      </trkpt>
      <trkpt lat="48.65365" lon="6.48096">
        <ele>221.4</ele>
        <time>2020-06-29T09:41:35Z</time>
      </trkpt>
      <trkpt lat="48.65365" lon="6.4809">
        <ele>221.4</ele>
        <time>2020-06-29T09:41:36Z</time>
      </trkpt>
      <trkpt lat="48.65366" lon="6.48084">
        <ele>221.4</ele>
        <time>2020-06-29T09:41:37Z</time>
      </trkpt>
      <trkpt lat="48.65365" lon="6.4808">
        <ele>221.4</ele>
        <time>2020-06-29T09:41:38Z</time>
      </trkpt>
      <trkpt lat="48.65365" lon="6.48075">
        <ele>221.4</ele>
        <time>2020-06-29T09:41:39Z</time>
      </trkpt>
      <trkpt lat="48.65362" lon="6.4807">
        <ele>221.4</ele>
        <time>2020-06-29T09:41:40Z</time>
      </trkpt>
      <trkpt lat="48.65358" lon="6.48066">
        <ele>221.4</ele>
        <time>2020-06-29T09:41:41Z</time>
      </trkpt>
      <trkpt lat="48.65354" lon="6.48061">
        <ele>221.4</ele>
        <time>2020-06-29T09:41:42Z</time>
      </trkpt>
      <trkpt lat="48.65351" lon="6.48056">
        <ele>221.4</ele>
        <time>2020-06-29T09:41:43Z</time>
      </trkpt>
      <trkpt lat="48.65348" lon="6.48052">
        <ele>221.3</ele>
        <time>2020-06-29T09:41:44Z</time>
      </trkpt>
      <trkpt lat="48.65344" lon="6.48049">
        <ele>221.3</ele>
        <time>2020-06-29T09:41:45Z</time>
      </trkpt>
      <trkpt lat="48.65341" lon="6.48046">
        <ele>221.3</ele>
        <time>2020-06-29T09:41:46Z</time>
      </trkpt>
      <trkpt lat="48.65337" lon="6.48042">
        <ele>221.4</ele>
        <time>2020-06-29T09:41:47Z</time>
      </trkpt>
      <trkpt lat="48.65333" lon="6.48037">
        <ele>221.4</ele>
        <time>2020-06-29T09:41:48Z</time>
      </trkpt>
      <trkpt lat="48.65328" lon="6.48034">
        <ele>221.4</ele>
        <time>2020-06-29T09:41:49Z</time>
      </trkpt>
      <trkpt lat="48.65324" lon="6.48031">
        <ele>221.4</ele>
        <time>2020-06-29T09:41:50Z</time>
      </trkpt>
      <trkpt lat="48.65321" lon="6.48028">
        <ele>221.4</ele>
        <time>2020-06-29T09:41:51Z</time>
      </trkpt>
      <trkpt lat="48.65316" lon="6.48025">
        <ele>221.4</ele>
        <time>2020-06-29T09:41:52Z</time>
      </trkpt>
      <trkpt lat="48.65313" lon="6.48021">
        <ele>221.4</ele>
        <time>2020-06-29T09:41:53Z</time>
      </trkpt>
      <trkpt lat="48.65308" lon="6.48016">
        <ele>221.4</ele>
        <time>2020-06-29T09:41:54Z</time>
      </trkpt>
      <trkpt lat="48.65303" lon="6.48011">
        <ele>221.4</ele>
        <time>2020-06-29T09:41:55Z</time>
      </trkpt>
      <trkpt lat="48.65299" lon="6.48006">
        <ele>221.5</ele>
        <time>2020-06-29T09:41:56Z</time>
      </trkpt>
      <trkpt lat="48.65294" lon="6.48002">
        <ele>221.5</ele>
        <time>2020-06-29T09:41:57Z</time>
      </trkpt>
      <trkpt lat="48.65291" lon="6.47997">
        <ele>221.5</ele>
        <time>2020-06-29T09:41:58Z</time>
      </trkpt>
      <trkpt lat="48.65287" lon="6.47992">
        <ele>221.5</ele>
        <time>2020-06-29T09:41:59Z</time>
      </trkpt>
      <trkpt lat="48.65284" lon="6.47988">
        <ele>221.5</ele>
        <time>2020-06-29T09:42:00Z</time>
      </trkpt>
      <trkpt lat="48.6528" lon="6.47985">
        <ele>221.5</ele>
        <time>2020-06-29T09:42:01Z</time>
      </trkpt>
      <trkpt lat="48.65277" lon="6.47982">
        <ele>221.5</ele>
        <time>2020-06-29T09:42:02Z</time>
      </trkpt>
      <trkpt lat="48.65273" lon="6.47979">
        <ele>221.5</ele>
        <time>2020-06-29T09:42:03Z</time>
      </trkpt>
      <trkpt lat="48.65269" lon="6.47975">
        <ele>221.6</ele>
        <time>2020-06-29T09:42:04Z</time>
      </trkpt>
      <trkpt lat="48.65265" lon="6.47971">
        <ele>221.6</ele>
        <time>2020-06-29T09:42:05Z</time>
      </trkpt>
      <trkpt lat="48.65261" lon="6.47967">
        <ele>221.6</ele>
        <time>2020-06-29T09:42:06Z</time>
      </trkpt>
      <trkpt lat="48.65257" lon="6.47962">
        <ele>221.6</ele>
        <time>2020-06-29T09:42:07Z</time>
      </trkpt>
      <trkpt lat="48.65253" lon="6.47957">
        <ele>221.5</ele>
        <time>2020-06-29T09:42:08Z</time>
      </trkpt>
      <trkpt lat="48.6525" lon="6.47953">
        <ele>221.5</ele>
        <time>2020-06-29T09:42:09Z</time>
      </trkpt>
      <trkpt lat="48.65246" lon="6.47948">
        <ele>221.5</ele>
        <time>2020-06-29T09:42:10Z</time>
      </trkpt>
      <trkpt lat="48.65242" lon="6.47943">
        <ele>221.5</ele>
        <time>2020-06-29T09:42:11Z</time>
      </trkpt>
      <trkpt lat="48.65238" lon="6.47939">
        <ele>221.6</ele>
        <time>2020-06-29T09:42:12Z</time>
      </trkpt>
      <trkpt lat="48.65236" lon="6.47933">
        <ele>221.6</ele>
        <time>2020-06-29T09:42:13Z</time>
      </trkpt>
      <trkpt lat="48.65232" lon="6.47928">
        <ele>221.6</ele>
        <time>2020-06-29T09:42:14Z</time>
      </trkpt>
      <trkpt lat="48.65229" lon="6.47924">
        <ele>221.6</ele>
        <time>2020-06-29T09:42:15Z</time>
      </trkpt>
      <trkpt lat="48.65224" lon="6.47917">
        <ele>221.6</ele>
        <time>2020-06-29T09:42:16Z</time>
      </trkpt>
      <trkpt lat="48.6522" lon="6.47912">
        <ele>221.6</ele>
        <time>2020-06-29T09:42:17Z</time>
      </trkpt>
      <trkpt lat="48.65216" lon="6.47907">
        <ele>221.6</ele>
        <time>2020-06-29T09:42:18Z</time>
      </trkpt>
      <trkpt lat="48.65213" lon="6.47902">
        <ele>221.5</ele>
        <time>2020-06-29T09:42:19Z</time>
      </trkpt>
      <trkpt lat="48.65208" lon="6.47895">
        <ele>221.5</ele>
        <time>2020-06-29T09:42:20Z</time>
      </trkpt>
      <trkpt lat="48.65205" lon="6.47889">
        <ele>221.5</ele>
        <time>2020-06-29T09:42:21Z</time>
      </trkpt>
      <trkpt lat="48.65201" lon="6.47882">
        <ele>221.5</ele>
        <time>2020-06-29T09:42:22Z</time>
      </trkpt>
      <trkpt lat="48.65198" lon="6.47875">
        <ele>221.5</ele>
        <time>2020-06-29T09:42:23Z</time>
      </trkpt>
      <trkpt lat="48.65195" lon="6.47868">
        <ele>221.5</ele>
        <time>2020-06-29T09:42:24Z</time>
      </trkpt>
      <trkpt lat="48.65193" lon="6.47862">
        <ele>221.5</ele>
        <time>2020-06-29T09:42:25Z</time>
      </trkpt>
      <trkpt lat="48.6519" lon="6.47854">
        <ele>221.4</ele>
        <time>2020-06-29T09:42:26Z</time>
      </trkpt>
      <trkpt lat="48.65187" lon="6.47846">
        <ele>221.4</ele>
        <time>2020-06-29T09:42:27Z</time>
      </trkpt>
      <trkpt lat="48.65184" lon="6.47838">
        <ele>221.3</ele>
        <time>2020-06-29T09:42:28Z</time>
      </trkpt>
      <trkpt lat="48.65181" lon="6.47831">
        <ele>221.3</ele>
        <time>2020-06-29T09:42:29Z</time>
      </trkpt>
      <trkpt lat="48.65179" lon="6.47823">
        <ele>221.3</ele>
        <time>2020-06-29T09:42:30Z</time>
      </trkpt>
      <trkpt lat="48.65177" lon="6.47816">
        <ele>221.3</ele>
        <time>2020-06-29T09:42:31Z</time>
      </trkpt>
      <trkpt lat="48.65176" lon="6.47809">
        <ele>221.3</ele>
        <time>2020-06-29T09:42:32Z</time>
      </trkpt>
      <trkpt lat="48.65175" lon="6.47801">
        <ele>221.3</ele>
        <time>2020-06-29T09:42:33Z</time>
      </trkpt>
      <trkpt lat="48.65174" lon="6.47793">
        <ele>221.3</ele>
        <time>2020-06-29T09:42:34Z</time>
      </trkpt>
      <trkpt lat="48.65172" lon="6.47785">
        <ele>221.4</ele>
        <time>2020-06-29T09:42:35Z</time>
      </trkpt>
      <trkpt lat="48.6517" lon="6.47778">
        <ele>221.4</ele>
        <time>2020-06-29T09:42:36Z</time>
      </trkpt>
      <trkpt lat="48.65168" lon="6.47773">
        <ele>221.4</ele>
        <time>2020-06-29T09:42:37Z</time>
      </trkpt>
      <trkpt lat="48.65167" lon="6.47766">
        <ele>221.4</ele>
        <time>2020-06-29T09:42:38Z</time>
      </trkpt>
      <trkpt lat="48.65166" lon="6.47759">
        <ele>221.4</ele>
        <time>2020-06-29T09:42:39Z</time>
      </trkpt>
      <trkpt lat="48.65165" lon="6.4775">
        <ele>221.3</ele>
        <time>2020-06-29T09:42:40Z</time>
      </trkpt>
      <trkpt lat="48.65164" lon="6.47742">
        <ele>221.3</ele>
        <time>2020-06-29T09:42:41Z</time>
      </trkpt>
      <trkpt lat="48.65162" lon="6.47734">
        <ele>221.3</ele>
        <time>2020-06-29T09:42:42Z</time>
      </trkpt>
      <trkpt lat="48.65162" lon="6.47726">
        <ele>221.3</ele>
        <time>2020-06-29T09:42:43Z</time>
      </trkpt>
      <trkpt lat="48.6516" lon="6.47718">
        <ele>221.2</ele>
        <time>2020-06-29T09:42:44Z</time>
      </trkpt>
      <trkpt lat="48.6516" lon="6.4771">
        <ele>221.2</ele>
        <time>2020-06-29T09:42:45Z</time>
      </trkpt>
      <trkpt lat="48.65159" lon="6.47701">
        <ele>221.2</ele>
        <time>2020-06-29T09:42:46Z</time>
      </trkpt>
      <trkpt lat="48.65158" lon="6.47693">
        <ele>221.3</ele>
        <time>2020-06-29T09:42:47Z</time>
      </trkpt>
      <trkpt lat="48.65157" lon="6.47684">
        <ele>221.3</ele>
        <time>2020-06-29T09:42:48Z</time>
      </trkpt>
      <trkpt lat="48.65156" lon="6.47675">
        <ele>221.3</ele>
        <time>2020-06-29T09:42:49Z</time>
      </trkpt>
      <trkpt lat="48.65155" lon="6.47666">
        <ele>221.3</ele>
        <time>2020-06-29T09:42:50Z</time>
      </trkpt>
      <trkpt lat="48.65155" lon="6.47657">
        <ele>221.3</ele>
        <time>2020-06-29T09:42:51Z</time>
      </trkpt>
      <trkpt lat="48.65154" lon="6.4765">
        <ele>221.3</ele>
        <time>2020-06-29T09:42:52Z</time>
      </trkpt>
      <trkpt lat="48.65152" lon="6.4764">
        <ele>221.3</ele>
        <time>2020-06-29T09:42:53Z</time>
      </trkpt>
      <trkpt lat="48.6515" lon="6.47629">
        <ele>221.3</ele>
        <time>2020-06-29T09:42:54Z</time>
      </trkpt>
      <trkpt lat="48.6515" lon="6.4762">
        <ele>221.2</ele>
        <time>2020-06-29T09:42:55Z</time>
      </trkpt>
      <trkpt lat="48.65151" lon="6.47613">
        <ele>221.2</ele>
        <time>2020-06-29T09:42:56Z</time>
      </trkpt>
      <trkpt lat="48.65151" lon="6.47605">
        <ele>221.2</ele>
        <time>2020-06-29T09:42:57Z</time>
      </trkpt>
      <trkpt lat="48.65151" lon="6.47596">
        <ele>221.2</ele>
        <time>2020-06-29T09:42:58Z</time>
      </trkpt>
      <trkpt lat="48.6515" lon="6.47588">
        <ele>221.2</ele>
        <time>2020-06-29T09:42:59Z</time>
      </trkpt>
      <trkpt lat="48.65151" lon="6.4758">
        <ele>221.1</ele>
        <time>2020-06-29T09:43:00Z</time>
      </trkpt>
      <trkpt lat="48.65151" lon="6.47571">
        <ele>221.1</ele>
        <time>2020-06-29T09:43:01Z</time>
      </trkpt>
      <trkpt lat="48.65153" lon="6.47562">
        <ele>221.1</ele>
        <time>2020-06-29T09:43:02Z</time>
      </trkpt>
      <trkpt lat="48.65154" lon="6.47553">
        <ele>221.1</ele>
        <time>2020-06-29T09:43:03Z</time>
      </trkpt>
      <trkpt lat="48.65155" lon="6.47543">
        <ele>221.1</ele>
        <time>2020-06-29T09:43:04Z</time>
      </trkpt>
      <trkpt lat="48.65156" lon="6.47534">
        <ele>221.1</ele>
        <time>2020-06-29T09:43:05Z</time>
      </trkpt>
      <trkpt lat="48.65157" lon="6.47526">
        <ele>221.1</ele>
        <time>2020-06-29T09:43:06Z</time>
      </trkpt>
      <trkpt lat="48.65158" lon="6.47516">
        <ele>221.1</ele>
        <time>2020-06-29T09:43:07Z</time>
      </trkpt>
      <trkpt lat="48.6516" lon="6.47507">
        <ele>221.1</ele>
        <time>2020-06-29T09:43:08Z</time>
      </trkpt>
      <trkpt lat="48.65162" lon="6.47497">
        <ele>221.1</ele>
        <time>2020-06-29T09:43:09Z</time>
      </trkpt>
      <trkpt lat="48.65164" lon="6.47488">
        <ele>221.1</ele>
        <time>2020-06-29T09:43:10Z</time>
      </trkpt>
      <trkpt lat="48.65166" lon="6.47478">
        <ele>221.1</ele>
        <time>2020-06-29T09:43:11Z</time>
      </trkpt>
      <trkpt lat="48.65168" lon="6.47468">
        <ele>221.1</ele>
        <time>2020-06-29T09:43:12Z</time>
      </trkpt>
      <trkpt lat="48.65171" lon="6.4746">
        <ele>221.1</ele>
        <time>2020-06-29T09:43:13Z</time>
      </trkpt>
      <trkpt lat="48.65173" lon="6.47451">
        <ele>221.1</ele>
        <time>2020-06-29T09:43:14Z</time>
      </trkpt>
      <trkpt lat="48.65176" lon="6.47443">
        <ele>221.1</ele>
        <time>2020-06-29T09:43:15Z</time>
      </trkpt>
      <trkpt lat="48.65179" lon="6.47435">
        <ele>221.1</ele>
        <time>2020-06-29T09:43:16Z</time>
      </trkpt>
      <trkpt lat="48.65182" lon="6.47426">
        <ele>221.1</ele>
        <time>2020-06-29T09:43:17Z</time>
      </trkpt>
      <trkpt lat="48.65186" lon="6.47419">
        <ele>221.1</ele>
        <time>2020-06-29T09:43:18Z</time>
      </trkpt>
      <trkpt lat="48.65188" lon="6.47412">
        <ele>221.1</ele>
        <time>2020-06-29T09:43:19Z</time>
      </trkpt>
      <trkpt lat="48.65191" lon="6.47403">
        <ele>221.1</ele>
        <time>2020-06-29T09:43:20Z</time>
      </trkpt>
      <trkpt lat="48.65195" lon="6.47395">
        <ele>221.1</ele>
        <time>2020-06-29T09:43:21Z</time>
      </trkpt>
      <trkpt lat="48.65199" lon="6.47387">
        <ele>221.1</ele>
        <time>2020-06-29T09:43:22Z</time>
      </trkpt>
      <trkpt lat="48.65204" lon="6.4738">
        <ele>221.1</ele>
        <time>2020-06-29T09:43:23Z</time>
      </trkpt>
      <trkpt lat="48.65208" lon="6.47374">
        <ele>221.2</ele>
        <time>2020-06-29T09:43:24Z</time>
      </trkpt>
      <trkpt lat="48.65212" lon="6.47368">
        <ele>221.2</ele>
        <time>2020-06-29T09:43:25Z</time>
      </trkpt>
      <trkpt lat="48.65215" lon="6.4736">
        <ele>221.2</ele>
        <time>2020-06-29T09:43:26Z</time>
      </trkpt>
      <trkpt lat="48.65218" lon="6.47353">
        <ele>221.2</ele>
        <time>2020-06-29T09:43:27Z</time>
      </trkpt>
      <trkpt lat="48.65222" lon="6.47347">
        <ele>221.1</ele>
        <time>2020-06-29T09:43:28Z</time>
      </trkpt>
      <trkpt lat="48.65226" lon="6.47341">
        <ele>221.1</ele>
        <time>2020-06-29T09:43:29Z</time>
      </trkpt>
      <trkpt lat="48.6523" lon="6.47335">
        <ele>221.1</ele>
        <time>2020-06-29T09:43:30Z</time>
      </trkpt>
      <trkpt lat="48.65234" lon="6.47327">
        <ele>221.2</ele>
        <time>2020-06-29T09:43:31Z</time>
      </trkpt>
      <trkpt lat="48.65239" lon="6.47322">
        <ele>221.2</ele>
        <time>2020-06-29T09:43:32Z</time>
      </trkpt>
      <trkpt lat="48.65244" lon="6.47317">
        <ele>221.2</ele>
        <time>2020-06-29T09:43:33Z</time>
      </trkpt>
      <trkpt lat="48.65248" lon="6.4731">
        <ele>221.3</ele>
        <time>2020-06-29T09:43:34Z</time>
      </trkpt>
      <trkpt lat="48.65253" lon="6.47305">
        <ele>221.3</ele>
        <time>2020-06-29T09:43:35Z</time>
      </trkpt>
      <trkpt lat="48.65257" lon="6.47301">
        <ele>221.3</ele>
        <time>2020-06-29T09:43:36Z</time>
      </trkpt>
      <trkpt lat="48.65261" lon="6.47297">
        <ele>221.3</ele>
        <time>2020-06-29T09:43:37Z</time>
      </trkpt>
      <trkpt lat="48.65265" lon="6.47293">
        <ele>221.3</ele>
        <time>2020-06-29T09:43:38Z</time>
      </trkpt>
      <trkpt lat="48.65269" lon="6.47289">
        <ele>221.2</ele>
        <time>2020-06-29T09:43:39Z</time>
      </trkpt>
      <trkpt lat="48.65274" lon="6.47285">
        <ele>221.2</ele>
        <time>2020-06-29T09:43:40Z</time>
      </trkpt>
      <trkpt lat="48.65277" lon="6.47279">
        <ele>221.2</ele>
        <time>2020-06-29T09:43:41Z</time>
      </trkpt>
      <trkpt lat="48.65281" lon="6.47274">
        <ele>221.2</ele>
        <time>2020-06-29T09:43:42Z</time>
      </trkpt>
      <trkpt lat="48.65285" lon="6.4727">
        <ele>221.2</ele>
        <time>2020-06-29T09:43:43Z</time>
      </trkpt>
      <trkpt lat="48.65289" lon="6.47266">
        <ele>221.2</ele>
        <time>2020-06-29T09:43:44Z</time>
      </trkpt>
      <trkpt lat="48.65292" lon="6.47262">
        <ele>221.2</ele>
        <time>2020-06-29T09:43:45Z</time>
      </trkpt>
      <trkpt lat="48.65296" lon="6.47257">
        <ele>221.2</ele>
        <time>2020-06-29T09:43:46Z</time>
      </trkpt>
      <trkpt lat="48.653" lon="6.47254">
        <ele>221.2</ele>
        <time>2020-06-29T09:43:47Z</time>
      </trkpt>
      <trkpt lat="48.65303" lon="6.4725">
        <ele>221.2</ele>
        <time>2020-06-29T09:43:48Z</time>
      </trkpt>
      <trkpt lat="48.65307" lon="6.47245">
        <ele>221.2</ele>
        <time>2020-06-29T09:43:49Z</time>
      </trkpt>
      <trkpt lat="48.6531" lon="6.47244">
        <ele>221.2</ele>
        <time>2020-06-29T09:43:50Z</time>
      </trkpt>
      <trkpt lat="48.65311" lon="6.47239">
        <ele>221.2</ele>
        <time>2020-06-29T09:43:51Z</time>
      </trkpt>
      <trkpt lat="48.65313" lon="6.47236">
        <ele>221.2</ele>
        <time>2020-06-29T09:43:52Z</time>
      </trkpt>
      <trkpt lat="48.65316" lon="6.47233">
        <ele>221.2</ele>
        <time>2020-06-29T09:43:53Z</time>
      </trkpt>
      <trkpt lat="48.65317" lon="6.4723">
        <ele>221.2</ele>
        <time>2020-06-29T09:43:54Z</time>
      </trkpt>
      <trkpt lat="48.65319" lon="6.47226">
        <ele>221.2</ele>
        <time>2020-06-29T09:43:55Z</time>
      </trkpt>
      <trkpt lat="48.65319" lon="6.47225">
        <ele>221.2</ele>
        <time>2020-06-29T09:43:56Z</time>
      </trkpt>
      <trkpt lat="48.65318" lon="6.47222">
        <ele>221.2</ele>
        <time>2020-06-29T09:43:57Z</time>
      </trkpt>
      <trkpt lat="48.65318" lon="6.47221">
        <ele>221.2</ele>
        <time>2020-06-29T09:43:58Z</time>
      </trkpt>
      <trkpt lat="48.65321" lon="6.47219">
        <ele>221.2</ele>
        <time>2020-06-29T09:43:59Z</time>
      </trkpt>
      <trkpt lat="48.65322" lon="6.47218">
        <ele>221.1</ele>
        <time>2020-06-29T09:44:00Z</time>
      </trkpt>
      <trkpt lat="48.65324" lon="6.47215">
        <ele>220.9</ele>
        <time>2020-06-29T09:44:01Z</time>
      </trkpt>
      <trkpt lat="48.65325" lon="6.47214">
        <ele>220.9</ele>
        <time>2020-06-29T09:44:02Z</time>
      </trkpt>
      <trkpt lat="48.65329" lon="6.47211">
        <ele>220.6</ele>
        <time>2020-06-29T09:44:03Z</time>
      </trkpt>
      <trkpt lat="48.65333" lon="6.47207">
        <ele>220.4</ele>
        <time>2020-06-29T09:44:04Z</time>
      </trkpt>
      <trkpt lat="48.65337" lon="6.47203">
        <ele>220.1</ele>
        <time>2020-06-29T09:44:05Z</time>
      </trkpt>
      <trkpt lat="48.65339" lon="6.47197">
        <ele>219.9</ele>
        <time>2020-06-29T09:44:06Z</time>
      </trkpt>
      <trkpt lat="48.65343" lon="6.47191">
        <ele>219.7</ele>
        <time>2020-06-29T09:44:07Z</time>
      </trkpt>
      <trkpt lat="48.65347" lon="6.47185">
        <ele>219.5</ele>
        <time>2020-06-29T09:44:08Z</time>
      </trkpt>
      <trkpt lat="48.65352" lon="6.4718">
        <ele>219.4</ele>
        <time>2020-06-29T09:44:09Z</time>
      </trkpt>
      <trkpt lat="48.65358" lon="6.47174">
        <ele>219.3</ele>
        <time>2020-06-29T09:44:10Z</time>
      </trkpt>
      <trkpt lat="48.65361" lon="6.47167">
        <ele>219.3</ele>
        <time>2020-06-29T09:44:11Z</time>
      </trkpt>
      <trkpt lat="48.65363" lon="6.4716">
        <ele>219.3</ele>
        <time>2020-06-29T09:44:12Z</time>
      </trkpt>
      <trkpt lat="48.65367" lon="6.47153">
        <ele>219.2</ele>
        <time>2020-06-29T09:44:13Z</time>
      </trkpt>
      <trkpt lat="48.65371" lon="6.47145">
        <ele>219.2</ele>
        <time>2020-06-29T09:44:14Z</time>
      </trkpt>
      <trkpt lat="48.65375" lon="6.47138">
        <ele>219.2</ele>
        <time>2020-06-29T09:44:15Z</time>
      </trkpt>
      <trkpt lat="48.65377" lon="6.47131">
        <ele>219.2</ele>
        <time>2020-06-29T09:44:16Z</time>
      </trkpt>
      <trkpt lat="48.65379" lon="6.47124">
        <ele>219.2</ele>
        <time>2020-06-29T09:44:17Z</time>
      </trkpt>
      <trkpt lat="48.65382" lon="6.47116">
        <ele>219.2</ele>
        <time>2020-06-29T09:44:18Z</time>
      </trkpt>
      <trkpt lat="48.65385" lon="6.47107">
        <ele>219.2</ele>
        <time>2020-06-29T09:44:19Z</time>
      </trkpt>
      <trkpt lat="48.65387" lon="6.47098">
        <ele>219.2</ele>
        <time>2020-06-29T09:44:20Z</time>
      </trkpt>
      <trkpt lat="48.65388" lon="6.47088">
        <ele>219.2</ele>
        <time>2020-06-29T09:44:21Z</time>
      </trkpt>
      <trkpt lat="48.65389" lon="6.47078">
        <ele>219.2</ele>
        <time>2020-06-29T09:44:22Z</time>
      </trkpt>
      <trkpt lat="48.65391" lon="6.47071">
        <ele>219.2</ele>
        <time>2020-06-29T09:44:23Z</time>
      </trkpt>
      <trkpt lat="48.65392" lon="6.47063">
        <ele>219.2</ele>
        <time>2020-06-29T09:44:24Z</time>
      </trkpt>
      <trkpt lat="48.65394" lon="6.47055">
        <ele>219.2</ele>
        <time>2020-06-29T09:44:25Z</time>
      </trkpt>
      <trkpt lat="48.65394" lon="6.47047">
        <ele>219.2</ele>
        <time>2020-06-29T09:44:26Z</time>
      </trkpt>
      <trkpt lat="48.65395" lon="6.4704">
        <ele>219.3</ele>
        <time>2020-06-29T09:44:27Z</time>
      </trkpt>
      <trkpt lat="48.65395" lon="6.47032">
        <ele>219.2</ele>
        <time>2020-06-29T09:44:28Z</time>
      </trkpt>
      <trkpt lat="48.65396" lon="6.47024">
        <ele>219.2</ele>
        <time>2020-06-29T09:44:29Z</time>
      </trkpt>
      <trkpt lat="48.65396" lon="6.47013">
        <ele>219.2</ele>
        <time>2020-06-29T09:44:30Z</time>
      </trkpt>
      <trkpt lat="48.65397" lon="6.47005">
        <ele>219.2</ele>
        <time>2020-06-29T09:44:31Z</time>
      </trkpt>
      <trkpt lat="48.65398" lon="6.46998">
        <ele>219.2</ele>
        <time>2020-06-29T09:44:32Z</time>
      </trkpt>
      <trkpt lat="48.65399" lon="6.46989">
        <ele>219.2</ele>
        <time>2020-06-29T09:44:33Z</time>
      </trkpt>
      <trkpt lat="48.65399" lon="6.4698">
        <ele>219.2</ele>
        <time>2020-06-29T09:44:34Z</time>
      </trkpt>
      <trkpt lat="48.65399" lon="6.4697">
        <ele>219.2</ele>
        <time>2020-06-29T09:44:35Z</time>
      </trkpt>
      <trkpt lat="48.65399" lon="6.4696">
        <ele>219.2</ele>
        <time>2020-06-29T09:44:36Z</time>
      </trkpt>
      <trkpt lat="48.65399" lon="6.46951">
        <ele>219.2</ele>
        <time>2020-06-29T09:44:37Z</time>
      </trkpt>
      <trkpt lat="48.654" lon="6.46943">
        <ele>219.2</ele>
        <time>2020-06-29T09:44:38Z</time>
      </trkpt>
      <trkpt lat="48.65399" lon="6.46934">
        <ele>219.1</ele>
        <time>2020-06-29T09:44:39Z</time>
      </trkpt>
      <trkpt lat="48.65398" lon="6.46926">
        <ele>219.1</ele>
        <time>2020-06-29T09:44:40Z</time>
      </trkpt>
      <trkpt lat="48.65399" lon="6.46916">
        <ele>219.1</ele>
        <time>2020-06-29T09:44:41Z</time>
      </trkpt>
      <trkpt lat="48.65398" lon="6.46907">
        <ele>219.1</ele>
        <time>2020-06-29T09:44:42Z</time>
      </trkpt>
      <trkpt lat="48.65399" lon="6.46897">
        <ele>219.1</ele>
        <time>2020-06-29T09:44:43Z</time>
      </trkpt>
      <trkpt lat="48.65398" lon="6.46887">
        <ele>219.1</ele>
        <time>2020-06-29T09:44:44Z</time>
      </trkpt>
      <trkpt lat="48.65398" lon="6.46878">
        <ele>219.1</ele>
        <time>2020-06-29T09:44:45Z</time>
      </trkpt>
      <trkpt lat="48.65397" lon="6.46869">
        <ele>219.1</ele>
        <time>2020-06-29T09:44:46Z</time>
      </trkpt>
      <trkpt lat="48.65395" lon="6.4686">
        <ele>219</ele>
        <time>2020-06-29T09:44:47Z</time>
      </trkpt>
      <trkpt lat="48.65395" lon="6.46848">
        <ele>219</ele>
        <time>2020-06-29T09:44:48Z</time>
      </trkpt>
      <trkpt lat="48.65394" lon="6.46838">
        <ele>219</ele>
        <time>2020-06-29T09:44:49Z</time>
      </trkpt>
      <trkpt lat="48.6539" lon="6.46827">
        <ele>219</ele>
        <time>2020-06-29T09:44:50Z</time>
      </trkpt>
      <trkpt lat="48.65388" lon="6.46818">
        <ele>218.9</ele>
        <time>2020-06-29T09:44:51Z</time>
      </trkpt>
      <trkpt lat="48.65385" lon="6.46809">
        <ele>218.9</ele>
        <time>2020-06-29T09:44:52Z</time>
      </trkpt>
      <trkpt lat="48.65384" lon="6.46798">
        <ele>218.9</ele>
        <time>2020-06-29T09:44:53Z</time>
      </trkpt>
      <trkpt lat="48.65382" lon="6.46789">
        <ele>218.9</ele>
        <time>2020-06-29T09:44:54Z</time>
      </trkpt>
      <trkpt lat="48.6538" lon="6.4678">
        <ele>218.9</ele>
        <time>2020-06-29T09:44:55Z</time>
      </trkpt>
      <trkpt lat="48.65379" lon="6.46772">
        <ele>218.9</ele>
        <time>2020-06-29T09:44:56Z</time>
      </trkpt>
      <trkpt lat="48.65376" lon="6.46762">
        <ele>218.9</ele>
        <time>2020-06-29T09:44:57Z</time>
      </trkpt>
      <trkpt lat="48.65374" lon="6.46753">
        <ele>218.9</ele>
        <time>2020-06-29T09:44:58Z</time>
      </trkpt>
      <trkpt lat="48.6537" lon="6.46744">
        <ele>219</ele>
        <time>2020-06-29T09:44:59Z</time>
      </trkpt>
      <trkpt lat="48.65367" lon="6.46735">
        <ele>219</ele>
        <time>2020-06-29T09:45:00Z</time>
      </trkpt>
      <trkpt lat="48.65364" lon="6.46726">
        <ele>219</ele>
        <time>2020-06-29T09:45:01Z</time>
      </trkpt>
      <trkpt lat="48.65361" lon="6.46717">
        <ele>219</ele>
        <time>2020-06-29T09:45:02Z</time>
      </trkpt>
      <trkpt lat="48.65357" lon="6.46708">
        <ele>219</ele>
        <time>2020-06-29T09:45:03Z</time>
      </trkpt>
      <trkpt lat="48.65354" lon="6.46702">
        <ele>219</ele>
        <time>2020-06-29T09:45:04Z</time>
      </trkpt>
      <trkpt lat="48.6535" lon="6.46694">
        <ele>218.9</ele>
        <time>2020-06-29T09:45:05Z</time>
      </trkpt>
      <trkpt lat="48.65347" lon="6.46685">
        <ele>218.9</ele>
        <time>2020-06-29T09:45:06Z</time>
      </trkpt>
      <trkpt lat="48.65342" lon="6.46674">
        <ele>218.9</ele>
        <time>2020-06-29T09:45:07Z</time>
      </trkpt>
      <trkpt lat="48.65338" lon="6.46665">
        <ele>218.9</ele>
        <time>2020-06-29T09:45:08Z</time>
      </trkpt>
      <trkpt lat="48.65333" lon="6.46657">
        <ele>218.9</ele>
        <time>2020-06-29T09:45:09Z</time>
      </trkpt>
      <trkpt lat="48.65328" lon="6.4665">
        <ele>218.9</ele>
        <time>2020-06-29T09:45:10Z</time>
      </trkpt>
      <trkpt lat="48.65324" lon="6.46642">
        <ele>218.9</ele>
        <time>2020-06-29T09:45:11Z</time>
      </trkpt>
      <trkpt lat="48.65319" lon="6.46634">
        <ele>218.9</ele>
        <time>2020-06-29T09:45:12Z</time>
      </trkpt>
      <trkpt lat="48.65316" lon="6.46628">
        <ele>218.9</ele>
        <time>2020-06-29T09:45:13Z</time>
      </trkpt>
      <trkpt lat="48.65312" lon="6.4662">
        <ele>218.9</ele>
        <time>2020-06-29T09:45:14Z</time>
      </trkpt>
      <trkpt lat="48.65308" lon="6.46611">
        <ele>218.9</ele>
        <time>2020-06-29T09:45:15Z</time>
      </trkpt>
      <trkpt lat="48.65304" lon="6.46605">
        <ele>218.9</ele>
        <time>2020-06-29T09:45:16Z</time>
      </trkpt>
      <trkpt lat="48.653" lon="6.46598">
        <ele>218.9</ele>
        <time>2020-06-29T09:45:17Z</time>
      </trkpt>
      <trkpt lat="48.65295" lon="6.4659">
        <ele>219</ele>
        <time>2020-06-29T09:45:18Z</time>
      </trkpt>
      <trkpt lat="48.6529" lon="6.46583">
        <ele>219</ele>
        <time>2020-06-29T09:45:19Z</time>
      </trkpt>
      <trkpt lat="48.65285" lon="6.46577">
        <ele>219</ele>
        <time>2020-06-29T09:45:20Z</time>
      </trkpt>
      <trkpt lat="48.6528" lon="6.46571">
        <ele>219</ele>
        <time>2020-06-29T09:45:21Z</time>
      </trkpt>
      <trkpt lat="48.65275" lon="6.46565">
        <ele>219</ele>
        <time>2020-06-29T09:45:22Z</time>
      </trkpt>
      <trkpt lat="48.65271" lon="6.4656">
        <ele>219</ele>
        <time>2020-06-29T09:45:23Z</time>
      </trkpt>
      <trkpt lat="48.65267" lon="6.46555">
        <ele>219</ele>
        <time>2020-06-29T09:45:24Z</time>
      </trkpt>
      <trkpt lat="48.65262" lon="6.4655">
        <ele>219</ele>
        <time>2020-06-29T09:45:25Z</time>
      </trkpt>
      <trkpt lat="48.65257" lon="6.46546">
        <ele>219</ele>
        <time>2020-06-29T09:45:26Z</time>
      </trkpt>
      <trkpt lat="48.65252" lon="6.46542">
        <ele>219</ele>
        <time>2020-06-29T09:45:27Z</time>
      </trkpt>
      <trkpt lat="48.65246" lon="6.46537">
        <ele>219</ele>
        <time>2020-06-29T09:45:28Z</time>
      </trkpt>
      <trkpt lat="48.65239" lon="6.46531">
        <ele>219</ele>
        <time>2020-06-29T09:45:29Z</time>
      </trkpt>
      <trkpt lat="48.65233" lon="6.46527">
        <ele>218.9</ele>
        <time>2020-06-29T09:45:30Z</time>
      </trkpt>
      <trkpt lat="48.65227" lon="6.4652">
        <ele>218.9</ele>
        <time>2020-06-29T09:45:31Z</time>
      </trkpt>
      <trkpt lat="48.6522" lon="6.46516">
        <ele>218.9</ele>
        <time>2020-06-29T09:45:32Z</time>
      </trkpt>
      <trkpt lat="48.65213" lon="6.46511">
        <ele>218.9</ele>
        <time>2020-06-29T09:45:33Z</time>
      </trkpt>
      <trkpt lat="48.65208" lon="6.46507">
        <ele>218.9</ele>
        <time>2020-06-29T09:45:34Z</time>
      </trkpt>
      <trkpt lat="48.65202" lon="6.46503">
        <ele>218.9</ele>
        <time>2020-06-29T09:45:35Z</time>
      </trkpt>
      <trkpt lat="48.65196" lon="6.46499">
        <ele>219</ele>
        <time>2020-06-29T09:45:36Z</time>
      </trkpt>
      <trkpt lat="48.65191" lon="6.46495">
        <ele>219</ele>
        <time>2020-06-29T09:45:37Z</time>
      </trkpt>
      <trkpt lat="48.65185" lon="6.46491">
        <ele>219</ele>
        <time>2020-06-29T09:45:38Z</time>
      </trkpt>
      <trkpt lat="48.65179" lon="6.46485">
        <ele>219</ele>
        <time>2020-06-29T09:45:39Z</time>
      </trkpt>
      <trkpt lat="48.65174" lon="6.46481">
        <ele>219.1</ele>
        <time>2020-06-29T09:45:40Z</time>
      </trkpt>
      <trkpt lat="48.65168" lon="6.46477">
        <ele>219.1</ele>
        <time>2020-06-29T09:45:41Z</time>
      </trkpt>
      <trkpt lat="48.65162" lon="6.46472">
        <ele>219.1</ele>
        <time>2020-06-29T09:45:42Z</time>
      </trkpt>
      <trkpt lat="48.65157" lon="6.46468">
        <ele>219.1</ele>
        <time>2020-06-29T09:45:43Z</time>
      </trkpt>
      <trkpt lat="48.65151" lon="6.46463">
        <ele>219.1</ele>
        <time>2020-06-29T09:45:44Z</time>
      </trkpt>
      <trkpt lat="48.65145" lon="6.46458">
        <ele>219.1</ele>
        <time>2020-06-29T09:45:45Z</time>
      </trkpt>
      <trkpt lat="48.65139" lon="6.46452">
        <ele>219.1</ele>
        <time>2020-06-29T09:45:46Z</time>
      </trkpt>
      <trkpt lat="48.65134" lon="6.46447">
        <ele>219.1</ele>
        <time>2020-06-29T09:45:47Z</time>
      </trkpt>
      <trkpt lat="48.65129" lon="6.46442">
        <ele>219.1</ele>
        <time>2020-06-29T09:45:48Z</time>
      </trkpt>
      <trkpt lat="48.65124" lon="6.46437">
        <ele>219.1</ele>
        <time>2020-06-29T09:45:49Z</time>
      </trkpt>
      <trkpt lat="48.65117" lon="6.46432">
        <ele>219</ele>
        <time>2020-06-29T09:45:50Z</time>
      </trkpt>
      <trkpt lat="48.65111" lon="6.46427">
        <ele>219</ele>
        <time>2020-06-29T09:45:51Z</time>
      </trkpt>
      <trkpt lat="48.65105" lon="6.46422">
        <ele>219</ele>
        <time>2020-06-29T09:45:52Z</time>
      </trkpt>
      <trkpt lat="48.65099" lon="6.46417">
        <ele>219</ele>
        <time>2020-06-29T09:45:53Z</time>
      </trkpt>
      <trkpt lat="48.65093" lon="6.46411">
        <ele>219</ele>
        <time>2020-06-29T09:45:54Z</time>
      </trkpt>
      <trkpt lat="48.65087" lon="6.46406">
        <ele>219</ele>
        <time>2020-06-29T09:45:55Z</time>
      </trkpt>
      <trkpt lat="48.65082" lon="6.46401">
        <ele>219</ele>
        <time>2020-06-29T09:45:56Z</time>
      </trkpt>
      <trkpt lat="48.65076" lon="6.46396">
        <ele>219</ele>
        <time>2020-06-29T09:45:57Z</time>
      </trkpt>
      <trkpt lat="48.6507" lon="6.4639">
        <ele>218.9</ele>
        <time>2020-06-29T09:45:58Z</time>
      </trkpt>
      <trkpt lat="48.65065" lon="6.46383">
        <ele>218.9</ele>
        <time>2020-06-29T09:45:59Z</time>
      </trkpt>
      <trkpt lat="48.6506" lon="6.46377">
        <ele>218.9</ele>
        <time>2020-06-29T09:46:00Z</time>
      </trkpt>
      <trkpt lat="48.65055" lon="6.46371">
        <ele>218.9</ele>
        <time>2020-06-29T09:46:01Z</time>
      </trkpt>
      <trkpt lat="48.6505" lon="6.46365">
        <ele>218.9</ele>
        <time>2020-06-29T09:46:02Z</time>
      </trkpt>
      <trkpt lat="48.65046" lon="6.46358">
        <ele>218.9</ele>
        <time>2020-06-29T09:46:03Z</time>
      </trkpt>
      <trkpt lat="48.65041" lon="6.46351">
        <ele>218.9</ele>
        <time>2020-06-29T09:46:04Z</time>
      </trkpt>
      <trkpt lat="48.65036" lon="6.46344">
        <ele>218.9</ele>
        <time>2020-06-29T09:46:05Z</time>
      </trkpt>
      <trkpt lat="48.65032" lon="6.46334">
        <ele>218.9</ele>
        <time>2020-06-29T09:46:06Z</time>
      </trkpt>
      <trkpt lat="48.65028" lon="6.46326">
        <ele>218.9</ele>
        <time>2020-06-29T09:46:07Z</time>
      </trkpt>
      <trkpt lat="48.65024" lon="6.46318">
        <ele>218.9</ele>
        <time>2020-06-29T09:46:08Z</time>
      </trkpt>
      <trkpt lat="48.65021" lon="6.46312">
        <ele>218.9</ele>
        <time>2020-06-29T09:46:09Z</time>
      </trkpt>
      <trkpt lat="48.65017" lon="6.46302">
        <ele>218.9</ele>
        <time>2020-06-29T09:46:10Z</time>
      </trkpt>
      <trkpt lat="48.65014" lon="6.46293">
        <ele>219</ele>
        <time>2020-06-29T09:46:11Z</time>
      </trkpt>
      <trkpt lat="48.65012" lon="6.46284">
        <ele>219</ele>
        <time>2020-06-29T09:46:12Z</time>
      </trkpt>
      <trkpt lat="48.65009" lon="6.46274">
        <ele>219.1</ele>
        <time>2020-06-29T09:46:13Z</time>
      </trkpt>
      <trkpt lat="48.65006" lon="6.46262">
        <ele>219.2</ele>
        <time>2020-06-29T09:46:14Z</time>
      </trkpt>
      <trkpt lat="48.65004" lon="6.46251">
        <ele>219.2</ele>
        <time>2020-06-29T09:46:15Z</time>
      </trkpt>
      <trkpt lat="48.65001" lon="6.46241">
        <ele>219.3</ele>
        <time>2020-06-29T09:46:16Z</time>
      </trkpt>
      <trkpt lat="48.64999" lon="6.46232">
        <ele>219.3</ele>
        <time>2020-06-29T09:46:17Z</time>
      </trkpt>
      <trkpt lat="48.64997" lon="6.46223">
        <ele>219.3</ele>
        <time>2020-06-29T09:46:18Z</time>
      </trkpt>
      <trkpt lat="48.64996" lon="6.46213">
        <ele>219.3</ele>
        <time>2020-06-29T09:46:19Z</time>
      </trkpt>
      <trkpt lat="48.64993" lon="6.46203">
        <ele>219.3</ele>
        <time>2020-06-29T09:46:20Z</time>
      </trkpt>
      <trkpt lat="48.64992" lon="6.46193">
        <ele>219.3</ele>
        <time>2020-06-29T09:46:21Z</time>
      </trkpt>
      <trkpt lat="48.64991" lon="6.46181">
        <ele>219.3</ele>
        <time>2020-06-29T09:46:22Z</time>
      </trkpt>
      <trkpt lat="48.64991" lon="6.46171">
        <ele>219.2</ele>
        <time>2020-06-29T09:46:23Z</time>
      </trkpt>
      <trkpt lat="48.64989" lon="6.4616">
        <ele>219.2</ele>
        <time>2020-06-29T09:46:24Z</time>
      </trkpt>
      <trkpt lat="48.64988" lon="6.46149">
        <ele>219.2</ele>
        <time>2020-06-29T09:46:25Z</time>
      </trkpt>
      <trkpt lat="48.64988" lon="6.46139">
        <ele>219.2</ele>
        <time>2020-06-29T09:46:26Z</time>
      </trkpt>
      <trkpt lat="48.64987" lon="6.46129">
        <ele>219.2</ele>
        <time>2020-06-29T09:46:27Z</time>
      </trkpt>
      <trkpt lat="48.64986" lon="6.46119">
        <ele>219.2</ele>
        <time>2020-06-29T09:46:28Z</time>
      </trkpt>
      <trkpt lat="48.64985" lon="6.46109">
        <ele>219.2</ele>
        <time>2020-06-29T09:46:29Z</time>
      </trkpt>
      <trkpt lat="48.64983" lon="6.46099">
        <ele>219.1</ele>
        <time>2020-06-29T09:46:30Z</time>
      </trkpt>
      <trkpt lat="48.64982" lon="6.46089">
        <ele>219.1</ele>
        <time>2020-06-29T09:46:31Z</time>
      </trkpt>
      <trkpt lat="48.64981" lon="6.46079">
        <ele>219.1</ele>
        <time>2020-06-29T09:46:32Z</time>
      </trkpt>
      <trkpt lat="48.64978" lon="6.46069">
        <ele>219.1</ele>
        <time>2020-06-29T09:46:33Z</time>
      </trkpt>
      <trkpt lat="48.64976" lon="6.46058">
        <ele>219.2</ele>
        <time>2020-06-29T09:46:34Z</time>
      </trkpt>
      <trkpt lat="48.64974" lon="6.46048">
        <ele>219.2</ele>
        <time>2020-06-29T09:46:35Z</time>
      </trkpt>
      <trkpt lat="48.64972" lon="6.46036">
        <ele>219.2</ele>
        <time>2020-06-29T09:46:36Z</time>
      </trkpt>
      <trkpt lat="48.6497" lon="6.46027">
        <ele>219.2</ele>
        <time>2020-06-29T09:46:37Z</time>
      </trkpt>
      <trkpt lat="48.64968" lon="6.46018">
        <ele>219.2</ele>
        <time>2020-06-29T09:46:38Z</time>
      </trkpt>
      <trkpt lat="48.64965" lon="6.46009">
        <ele>219.2</ele>
        <time>2020-06-29T09:46:39Z</time>
      </trkpt>
      <trkpt lat="48.64963" lon="6.46001">
        <ele>219.2</ele>
        <time>2020-06-29T09:46:40Z</time>
      </trkpt>
      <trkpt lat="48.64961" lon="6.45992">
        <ele>219.1</ele>
        <time>2020-06-29T09:46:41Z</time>
      </trkpt>
      <trkpt lat="48.64959" lon="6.45985">
        <ele>219.1</ele>
        <time>2020-06-29T09:46:42Z</time>
      </trkpt>
      <trkpt lat="48.64956" lon="6.45977">
        <ele>219.1</ele>
        <time>2020-06-29T09:46:43Z</time>
      </trkpt>
      <trkpt lat="48.64953" lon="6.45969">
        <ele>219.1</ele>
        <time>2020-06-29T09:46:44Z</time>
      </trkpt>
      <trkpt lat="48.64949" lon="6.4596">
        <ele>219.1</ele>
        <time>2020-06-29T09:46:45Z</time>
      </trkpt>
      <trkpt lat="48.64944" lon="6.45949">
        <ele>219.1</ele>
        <time>2020-06-29T09:46:46Z</time>
      </trkpt>
      <trkpt lat="48.64941" lon="6.45942">
        <ele>219.1</ele>
        <time>2020-06-29T09:46:47Z</time>
      </trkpt>
      <trkpt lat="48.64937" lon="6.45935">
        <ele>219.1</ele>
        <time>2020-06-29T09:46:48Z</time>
      </trkpt>
      <trkpt lat="48.64933" lon="6.45926">
        <ele>219.1</ele>
        <time>2020-06-29T09:46:49Z</time>
      </trkpt>
      <trkpt lat="48.64928" lon="6.45918">
        <ele>219</ele>
        <time>2020-06-29T09:46:50Z</time>
      </trkpt>
      <trkpt lat="48.64922" lon="6.4591">
        <ele>219</ele>
        <time>2020-06-29T09:46:51Z</time>
      </trkpt>
      <trkpt lat="48.64918" lon="6.45902">
        <ele>219</ele>
        <time>2020-06-29T09:46:52Z</time>
      </trkpt>
      <trkpt lat="48.64913" lon="6.45895">
        <ele>219</ele>
        <time>2020-06-29T09:46:53Z</time>
      </trkpt>
      <trkpt lat="48.64909" lon="6.45888">
        <ele>219</ele>
        <time>2020-06-29T09:46:54Z</time>
      </trkpt>
      <trkpt lat="48.64905" lon="6.45882">
        <ele>219</ele>
        <time>2020-06-29T09:46:55Z</time>
      </trkpt>
      <trkpt lat="48.649" lon="6.45876">
        <ele>219.1</ele>
        <time>2020-06-29T09:46:56Z</time>
      </trkpt>
      <trkpt lat="48.64896" lon="6.4587">
        <ele>219.1</ele>
        <time>2020-06-29T09:46:57Z</time>
      </trkpt>
      <trkpt lat="48.64892" lon="6.45864">
        <ele>219.1</ele>
        <time>2020-06-29T09:46:58Z</time>
      </trkpt>
      <trkpt lat="48.64888" lon="6.45857">
        <ele>219.2</ele>
        <time>2020-06-29T09:46:59Z</time>
      </trkpt>
      <trkpt lat="48.64882" lon="6.4585">
        <ele>219.2</ele>
        <time>2020-06-29T09:47:00Z</time>
      </trkpt>
      <trkpt lat="48.64877" lon="6.45843">
        <ele>219.2</ele>
        <time>2020-06-29T09:47:01Z</time>
      </trkpt>
      <trkpt lat="48.64872" lon="6.45834">
        <ele>219.2</ele>
        <time>2020-06-29T09:47:02Z</time>
      </trkpt>
      <trkpt lat="48.64867" lon="6.45827">
        <ele>219.2</ele>
        <time>2020-06-29T09:47:03Z</time>
      </trkpt>
      <trkpt lat="48.64862" lon="6.45819">
        <ele>219.2</ele>
        <time>2020-06-29T09:47:04Z</time>
      </trkpt>
      <trkpt lat="48.64858" lon="6.45813">
        <ele>219.2</ele>
        <time>2020-06-29T09:47:05Z</time>
      </trkpt>
      <trkpt lat="48.64854" lon="6.45807">
        <ele>219.3</ele>
        <time>2020-06-29T09:47:06Z</time>
      </trkpt>
      <trkpt lat="48.64851" lon="6.45801">
        <ele>219.3</ele>
        <time>2020-06-29T09:47:07Z</time>
      </trkpt>
      <trkpt lat="48.64846" lon="6.45793">
        <ele>219.3</ele>
        <time>2020-06-29T09:47:08Z</time>
      </trkpt>
      <trkpt lat="48.64841" lon="6.45785">
        <ele>219.3</ele>
        <time>2020-06-29T09:47:09Z</time>
      </trkpt>
      <trkpt lat="48.64837" lon="6.45778">
        <ele>219.3</ele>
        <time>2020-06-29T09:47:10Z</time>
      </trkpt>
      <trkpt lat="48.64833" lon="6.45771">
        <ele>219.3</ele>
        <time>2020-06-29T09:47:11Z</time>
      </trkpt>
      <trkpt lat="48.64829" lon="6.45765">
        <ele>219.3</ele>
        <time>2020-06-29T09:47:12Z</time>
      </trkpt>
      <trkpt lat="48.64825" lon="6.45759">
        <ele>219.3</ele>
        <time>2020-06-29T09:47:13Z</time>
      </trkpt>
      <trkpt lat="48.64822" lon="6.45753">
        <ele>219.3</ele>
        <time>2020-06-29T09:47:14Z</time>
      </trkpt>
      <trkpt lat="48.64818" lon="6.45746">
        <ele>219.2</ele>
        <time>2020-06-29T09:47:15Z</time>
      </trkpt>
      <trkpt lat="48.64814" lon="6.4574">
        <ele>219.2</ele>
        <time>2020-06-29T09:47:16Z</time>
      </trkpt>
      <trkpt lat="48.6481" lon="6.45733">
        <ele>219.2</ele>
        <time>2020-06-29T09:47:17Z</time>
      </trkpt>
      <trkpt lat="48.64804" lon="6.45723">
        <ele>219.2</ele>
        <time>2020-06-29T09:47:18Z</time>
      </trkpt>
      <trkpt lat="48.64801" lon="6.45716">
        <ele>219.2</ele>
        <time>2020-06-29T09:47:19Z</time>
      </trkpt>
      <trkpt lat="48.64797" lon="6.45709">
        <ele>219.2</ele>
        <time>2020-06-29T09:47:20Z</time>
      </trkpt>
      <trkpt lat="48.64793" lon="6.45702">
        <ele>219.2</ele>
        <time>2020-06-29T09:47:21Z</time>
      </trkpt>
      <trkpt lat="48.6479" lon="6.45695">
        <ele>219.2</ele>
        <time>2020-06-29T09:47:22Z</time>
      </trkpt>
      <trkpt lat="48.64786" lon="6.45689">
        <ele>219.2</ele>
        <time>2020-06-29T09:47:23Z</time>
      </trkpt>
      <trkpt lat="48.64783" lon="6.4568">
        <ele>219.2</ele>
        <time>2020-06-29T09:47:24Z</time>
      </trkpt>
      <trkpt lat="48.6478" lon="6.45673">
        <ele>219.2</ele>
        <time>2020-06-29T09:47:25Z</time>
      </trkpt>
      <trkpt lat="48.64776" lon="6.45665">
        <ele>219.2</ele>
        <time>2020-06-29T09:47:26Z</time>
      </trkpt>
      <trkpt lat="48.64772" lon="6.45658">
        <ele>219.1</ele>
        <time>2020-06-29T09:47:27Z</time>
      </trkpt>
      <trkpt lat="48.64769" lon="6.45651">
        <ele>219.1</ele>
        <time>2020-06-29T09:47:28Z</time>
      </trkpt>
      <trkpt lat="48.64765" lon="6.45644">
        <ele>219.1</ele>
        <time>2020-06-29T09:47:29Z</time>
      </trkpt>
      <trkpt lat="48.64761" lon="6.45636">
        <ele>219.1</ele>
        <time>2020-06-29T09:47:30Z</time>
      </trkpt>
      <trkpt lat="48.64758" lon="6.45627">
        <ele>219.1</ele>
        <time>2020-06-29T09:47:31Z</time>
      </trkpt>
      <trkpt lat="48.64754" lon="6.45617">
        <ele>219.1</ele>
        <time>2020-06-29T09:47:32Z</time>
      </trkpt>
      <trkpt lat="48.64751" lon="6.45609">
        <ele>219.1</ele>
        <time>2020-06-29T09:47:33Z</time>
      </trkpt>
      <trkpt lat="48.64749" lon="6.456">
        <ele>219.1</ele>
        <time>2020-06-29T09:47:34Z</time>
      </trkpt>
      <trkpt lat="48.64745" lon="6.45591">
        <ele>219.1</ele>
        <time>2020-06-29T09:47:35Z</time>
      </trkpt>
      <trkpt lat="48.64741" lon="6.45583">
        <ele>219.1</ele>
        <time>2020-06-29T09:47:36Z</time>
      </trkpt>
      <trkpt lat="48.64738" lon="6.45575">
        <ele>219.1</ele>
        <time>2020-06-29T09:47:37Z</time>
      </trkpt>
      <trkpt lat="48.64734" lon="6.45567">
        <ele>219</ele>
        <time>2020-06-29T09:47:38Z</time>
      </trkpt>
      <trkpt lat="48.64728" lon="6.45557">
        <ele>219</ele>
        <time>2020-06-29T09:47:39Z</time>
      </trkpt>
      <trkpt lat="48.64724" lon="6.45547">
        <ele>219</ele>
        <time>2020-06-29T09:47:40Z</time>
      </trkpt>
      <trkpt lat="48.6472" lon="6.45539">
        <ele>218.9</ele>
        <time>2020-06-29T09:47:41Z</time>
      </trkpt>
      <trkpt lat="48.64716" lon="6.4553">
        <ele>218.9</ele>
        <time>2020-06-29T09:47:42Z</time>
      </trkpt>
      <trkpt lat="48.64712" lon="6.45521">
        <ele>218.9</ele>
        <time>2020-06-29T09:47:43Z</time>
      </trkpt>
      <trkpt lat="48.64708" lon="6.45512">
        <ele>218.9</ele>
        <time>2020-06-29T09:47:44Z</time>
      </trkpt>
      <trkpt lat="48.64704" lon="6.45503">
        <ele>218.9</ele>
        <time>2020-06-29T09:47:45Z</time>
      </trkpt>
      <trkpt lat="48.64701" lon="6.45494">
        <ele>218.9</ele>
        <time>2020-06-29T09:47:46Z</time>
      </trkpt>
      <trkpt lat="48.64696" lon="6.45485">
        <ele>219</ele>
        <time>2020-06-29T09:47:47Z</time>
      </trkpt>
      <trkpt lat="48.64693" lon="6.45475">
        <ele>219</ele>
        <time>2020-06-29T09:47:48Z</time>
      </trkpt>
      <trkpt lat="48.64689" lon="6.45466">
        <ele>219</ele>
        <time>2020-06-29T09:47:49Z</time>
      </trkpt>
      <trkpt lat="48.64686" lon="6.45455">
        <ele>219</ele>
        <time>2020-06-29T09:47:50Z</time>
      </trkpt>
      <trkpt lat="48.64683" lon="6.45446">
        <ele>219</ele>
        <time>2020-06-29T09:47:51Z</time>
      </trkpt>
      <trkpt lat="48.6468" lon="6.45436">
        <ele>219.1</ele>
        <time>2020-06-29T09:47:52Z</time>
      </trkpt>
      <trkpt lat="48.64677" lon="6.45427">
        <ele>219.1</ele>
        <time>2020-06-29T09:47:53Z</time>
      </trkpt>
      <trkpt lat="48.64676" lon="6.45419">
        <ele>219.1</ele>
        <time>2020-06-29T09:47:54Z</time>
      </trkpt>
      <trkpt lat="48.64673" lon="6.45409">
        <ele>219.1</ele>
        <time>2020-06-29T09:47:55Z</time>
      </trkpt>
      <trkpt lat="48.64671" lon="6.454">
        <ele>219.1</ele>
        <time>2020-06-29T09:47:56Z</time>
      </trkpt>
      <trkpt lat="48.64669" lon="6.45391">
        <ele>219.1</ele>
        <time>2020-06-29T09:47:57Z</time>
      </trkpt>
      <trkpt lat="48.64666" lon="6.45382">
        <ele>219.1</ele>
        <time>2020-06-29T09:47:58Z</time>
      </trkpt>
      <trkpt lat="48.64664" lon="6.45371">
        <ele>219</ele>
        <time>2020-06-29T09:47:59Z</time>
      </trkpt>
      <trkpt lat="48.6466" lon="6.45359">
        <ele>219</ele>
        <time>2020-06-29T09:48:00Z</time>
      </trkpt>
      <trkpt lat="48.64658" lon="6.45349">
        <ele>218.9</ele>
        <time>2020-06-29T09:48:01Z</time>
      </trkpt>
      <trkpt lat="48.64656" lon="6.4534">
        <ele>218.9</ele>
        <time>2020-06-29T09:48:02Z</time>
      </trkpt>
      <trkpt lat="48.64654" lon="6.4533">
        <ele>218.9</ele>
        <time>2020-06-29T09:48:03Z</time>
      </trkpt>
      <trkpt lat="48.64651" lon="6.4532">
        <ele>218.9</ele>
        <time>2020-06-29T09:48:04Z</time>
      </trkpt>
      <trkpt lat="48.64649" lon="6.45309">
        <ele>218.9</ele>
        <time>2020-06-29T09:48:05Z</time>
      </trkpt>
      <trkpt lat="48.64647" lon="6.453">
        <ele>218.9</ele>
        <time>2020-06-29T09:48:06Z</time>
      </trkpt>
      <trkpt lat="48.64644" lon="6.45291">
        <ele>218.9</ele>
        <time>2020-06-29T09:48:07Z</time>
      </trkpt>
      <trkpt lat="48.64641" lon="6.45281">
        <ele>218.9</ele>
        <time>2020-06-29T09:48:08Z</time>
      </trkpt>
      <trkpt lat="48.6464" lon="6.45271">
        <ele>218.9</ele>
        <time>2020-06-29T09:48:09Z</time>
      </trkpt>
      <trkpt lat="48.64638" lon="6.45262">
        <ele>218.9</ele>
        <time>2020-06-29T09:48:10Z</time>
      </trkpt>
      <trkpt lat="48.64636" lon="6.45253">
        <ele>218.9</ele>
        <time>2020-06-29T09:48:11Z</time>
      </trkpt>
      <trkpt lat="48.64634" lon="6.45244">
        <ele>218.9</ele>
        <time>2020-06-29T09:48:12Z</time>
      </trkpt>
      <trkpt lat="48.64631" lon="6.45234">
        <ele>218.8</ele>
        <time>2020-06-29T09:48:13Z</time>
      </trkpt>
      <trkpt lat="48.64629" lon="6.45223">
        <ele>218.8</ele>
        <time>2020-06-29T09:48:14Z</time>
      </trkpt>
      <trkpt lat="48.64625" lon="6.4521">
        <ele>218.8</ele>
        <time>2020-06-29T09:48:15Z</time>
      </trkpt>
      <trkpt lat="48.64622" lon="6.452">
        <ele>218.8</ele>
        <time>2020-06-29T09:48:16Z</time>
      </trkpt>
      <trkpt lat="48.6462" lon="6.4519">
        <ele>218.8</ele>
        <time>2020-06-29T09:48:17Z</time>
      </trkpt>
      <trkpt lat="48.64617" lon="6.4518">
        <ele>218.8</ele>
        <time>2020-06-29T09:48:18Z</time>
      </trkpt>
      <trkpt lat="48.64614" lon="6.4517">
        <ele>218.8</ele>
        <time>2020-06-29T09:48:19Z</time>
      </trkpt>
      <trkpt lat="48.64612" lon="6.45161">
        <ele>218.8</ele>
        <time>2020-06-29T09:48:20Z</time>
      </trkpt>
      <trkpt lat="48.6461" lon="6.45152">
        <ele>218.7</ele>
        <time>2020-06-29T09:48:21Z</time>
      </trkpt>
      <trkpt lat="48.64608" lon="6.45142">
        <ele>218.7</ele>
        <time>2020-06-29T09:48:22Z</time>
      </trkpt>
      <trkpt lat="48.64605" lon="6.4513">
        <ele>218.7</ele>
        <time>2020-06-29T09:48:23Z</time>
      </trkpt>
      <trkpt lat="48.64602" lon="6.45119">
        <ele>218.7</ele>
        <time>2020-06-29T09:48:24Z</time>
      </trkpt>
      <trkpt lat="48.64598" lon="6.45108">
        <ele>218.7</ele>
        <time>2020-06-29T09:48:25Z</time>
      </trkpt>
      <trkpt lat="48.64596" lon="6.45099">
        <ele>218.7</ele>
        <time>2020-06-29T09:48:26Z</time>
      </trkpt>
      <trkpt lat="48.64593" lon="6.45088">
        <ele>218.7</ele>
        <time>2020-06-29T09:48:27Z</time>
      </trkpt>
      <trkpt lat="48.64591" lon="6.45078">
        <ele>218.7</ele>
        <time>2020-06-29T09:48:28Z</time>
      </trkpt>
      <trkpt lat="48.64588" lon="6.45067">
        <ele>218.7</ele>
        <time>2020-06-29T09:48:29Z</time>
      </trkpt>
      <trkpt lat="48.64586" lon="6.45057">
        <ele>218.7</ele>
        <time>2020-06-29T09:48:30Z</time>
      </trkpt>
      <trkpt lat="48.64583" lon="6.45047">
        <ele>218.7</ele>
        <time>2020-06-29T09:48:31Z</time>
      </trkpt>
      <trkpt lat="48.64581" lon="6.45037">
        <ele>218.7</ele>
        <time>2020-06-29T09:48:32Z</time>
      </trkpt>
      <trkpt lat="48.64578" lon="6.45028">
        <ele>218.7</ele>
        <time>2020-06-29T09:48:33Z</time>
      </trkpt>
      <trkpt lat="48.64575" lon="6.45018">
        <ele>218.7</ele>
        <time>2020-06-29T09:48:34Z</time>
      </trkpt>
      <trkpt lat="48.64573" lon="6.45008">
        <ele>218.7</ele>
        <time>2020-06-29T09:48:35Z</time>
      </trkpt>
      <trkpt lat="48.64571" lon="6.44999">
        <ele>218.7</ele>
        <time>2020-06-29T09:48:36Z</time>
      </trkpt>
      <trkpt lat="48.64568" lon="6.44989">
        <ele>218.7</ele>
        <time>2020-06-29T09:48:37Z</time>
      </trkpt>
      <trkpt lat="48.64565" lon="6.4498">
        <ele>218.7</ele>
        <time>2020-06-29T09:48:38Z</time>
      </trkpt>
      <trkpt lat="48.64562" lon="6.44971">
        <ele>218.7</ele>
        <time>2020-06-29T09:48:39Z</time>
      </trkpt>
      <trkpt lat="48.64559" lon="6.44961">
        <ele>218.7</ele>
        <time>2020-06-29T09:48:40Z</time>
      </trkpt>
      <trkpt lat="48.64557" lon="6.44951">
        <ele>218.6</ele>
        <time>2020-06-29T09:48:41Z</time>
      </trkpt>
      <trkpt lat="48.64554" lon="6.44942">
        <ele>218.6</ele>
        <time>2020-06-29T09:48:42Z</time>
      </trkpt>
      <trkpt lat="48.64552" lon="6.44932">
        <ele>218.6</ele>
        <time>2020-06-29T09:48:43Z</time>
      </trkpt>
      <trkpt lat="48.6455" lon="6.44922">
        <ele>218.6</ele>
        <time>2020-06-29T09:48:44Z</time>
      </trkpt>
      <trkpt lat="48.64548" lon="6.44914">
        <ele>218.6</ele>
        <time>2020-06-29T09:48:45Z</time>
      </trkpt>
      <trkpt lat="48.64546" lon="6.44905">
        <ele>218.6</ele>
        <time>2020-06-29T09:48:46Z</time>
      </trkpt>
      <trkpt lat="48.64544" lon="6.44896">
        <ele>218.6</ele>
        <time>2020-06-29T09:48:47Z</time>
      </trkpt>
      <trkpt lat="48.64542" lon="6.44886">
        <ele>218.6</ele>
        <time>2020-06-29T09:48:48Z</time>
      </trkpt>
      <trkpt lat="48.6454" lon="6.44877">
        <ele>218.6</ele>
        <time>2020-06-29T09:48:49Z</time>
      </trkpt>
      <trkpt lat="48.64538" lon="6.44867">
        <ele>218.6</ele>
        <time>2020-06-29T09:48:50Z</time>
      </trkpt>
      <trkpt lat="48.64536" lon="6.44858">
        <ele>218.5</ele>
        <time>2020-06-29T09:48:51Z</time>
      </trkpt>
      <trkpt lat="48.64533" lon="6.44848">
        <ele>218.5</ele>
        <time>2020-06-29T09:48:52Z</time>
      </trkpt>
      <trkpt lat="48.64532" lon="6.44838">
        <ele>218.5</ele>
        <time>2020-06-29T09:48:53Z</time>
      </trkpt>
      <trkpt lat="48.6453" lon="6.44829">
        <ele>218.5</ele>
        <time>2020-06-29T09:48:54Z</time>
      </trkpt>
      <trkpt lat="48.64527" lon="6.4482">
        <ele>218.5</ele>
        <time>2020-06-29T09:48:55Z</time>
      </trkpt>
      <trkpt lat="48.64525" lon="6.44811">
        <ele>218.5</ele>
        <time>2020-06-29T09:48:56Z</time>
      </trkpt>
      <trkpt lat="48.64523" lon="6.44802">
        <ele>218.5</ele>
        <time>2020-06-29T09:48:57Z</time>
      </trkpt>
      <trkpt lat="48.64521" lon="6.44793">
        <ele>218.5</ele>
        <time>2020-06-29T09:48:58Z</time>
      </trkpt>
      <trkpt lat="48.6452" lon="6.44784">
        <ele>218.5</ele>
        <time>2020-06-29T09:48:59Z</time>
      </trkpt>
      <trkpt lat="48.64517" lon="6.44775">
        <ele>218.5</ele>
        <time>2020-06-29T09:49:00Z</time>
      </trkpt>
      <trkpt lat="48.64513" lon="6.44766">
        <ele>218.5</ele>
        <time>2020-06-29T09:49:01Z</time>
      </trkpt>
      <trkpt lat="48.6451" lon="6.44756">
        <ele>218.6</ele>
        <time>2020-06-29T09:49:02Z</time>
      </trkpt>
      <trkpt lat="48.64507" lon="6.44746">
        <ele>218.6</ele>
        <time>2020-06-29T09:49:03Z</time>
      </trkpt>
      <trkpt lat="48.64504" lon="6.44736">
        <ele>218.6</ele>
        <time>2020-06-29T09:49:04Z</time>
      </trkpt>
      <trkpt lat="48.64501" lon="6.44726">
        <ele>218.6</ele>
        <time>2020-06-29T09:49:05Z</time>
      </trkpt>
      <trkpt lat="48.64498" lon="6.44716">
        <ele>218.6</ele>
        <time>2020-06-29T09:49:06Z</time>
      </trkpt>
      <trkpt lat="48.64495" lon="6.44706">
        <ele>218.6</ele>
        <time>2020-06-29T09:49:07Z</time>
      </trkpt>
      <trkpt lat="48.64492" lon="6.44695">
        <ele>218.6</ele>
        <time>2020-06-29T09:49:08Z</time>
      </trkpt>
      <trkpt lat="48.64488" lon="6.44684">
        <ele>218.6</ele>
        <time>2020-06-29T09:49:09Z</time>
      </trkpt>
      <trkpt lat="48.64484" lon="6.44676">
        <ele>218.6</ele>
        <time>2020-06-29T09:49:10Z</time>
      </trkpt>
      <trkpt lat="48.64481" lon="6.44666">
        <ele>218.6</ele>
        <time>2020-06-29T09:49:11Z</time>
      </trkpt>
      <trkpt lat="48.64479" lon="6.4466">
        <ele>218.5</ele>
        <time>2020-06-29T09:49:12Z</time>
      </trkpt>
      <trkpt lat="48.64477" lon="6.44651">
        <ele>218.5</ele>
        <time>2020-06-29T09:49:13Z</time>
      </trkpt>
      <trkpt lat="48.64474" lon="6.44643">
        <ele>218.6</ele>
        <time>2020-06-29T09:49:14Z</time>
      </trkpt>
      <trkpt lat="48.64471" lon="6.44635">
        <ele>218.6</ele>
        <time>2020-06-29T09:49:15Z</time>
      </trkpt>
      <trkpt lat="48.64469" lon="6.44627">
        <ele>218.6</ele>
        <time>2020-06-29T09:49:16Z</time>
      </trkpt>
      <trkpt lat="48.64467" lon="6.4462">
        <ele>218.7</ele>
        <time>2020-06-29T09:49:17Z</time>
      </trkpt>
      <trkpt lat="48.64464" lon="6.44612">
        <ele>218.7</ele>
        <time>2020-06-29T09:49:18Z</time>
      </trkpt>
      <trkpt lat="48.64462" lon="6.44606">
        <ele>218.8</ele>
        <time>2020-06-29T09:49:19Z</time>
      </trkpt>
      <trkpt lat="48.64461" lon="6.446">
        <ele>218.8</ele>
        <time>2020-06-29T09:49:20Z</time>
      </trkpt>
      <trkpt lat="48.64459" lon="6.44594">
        <ele>218.8</ele>
        <time>2020-06-29T09:49:21Z</time>
      </trkpt>
      <trkpt lat="48.64458" lon="6.44588">
        <ele>218.7</ele>
        <time>2020-06-29T09:49:22Z</time>
      </trkpt>
      <trkpt lat="48.64458" lon="6.44581">
        <ele>218.7</ele>
        <time>2020-06-29T09:49:23Z</time>
      </trkpt>
      <trkpt lat="48.64457" lon="6.44576">
        <ele>218.7</ele>
        <time>2020-06-29T09:49:24Z</time>
      </trkpt>
      <trkpt lat="48.64455" lon="6.44571">
        <ele>218.6</ele>
        <time>2020-06-29T09:49:25Z</time>
      </trkpt>
      <trkpt lat="48.64453" lon="6.44566">
        <ele>218.6</ele>
        <time>2020-06-29T09:49:26Z</time>
      </trkpt>
      <trkpt lat="48.6445" lon="6.44561">
        <ele>218.5</ele>
        <time>2020-06-29T09:49:27Z</time>
      </trkpt>
      <trkpt lat="48.64448" lon="6.44558">
        <ele>218.5</ele>
        <time>2020-06-29T09:49:28Z</time>
      </trkpt>
      <trkpt lat="48.64445" lon="6.44555">
        <ele>218.4</ele>
        <time>2020-06-29T09:49:29Z</time>
      </trkpt>
      <trkpt lat="48.64442" lon="6.4455">
        <ele>218.4</ele>
        <time>2020-06-29T09:49:30Z</time>
      </trkpt>
      <trkpt lat="48.64439" lon="6.44545">
        <ele>218.3</ele>
        <time>2020-06-29T09:49:31Z</time>
      </trkpt>
      <trkpt lat="48.64436" lon="6.44541">
        <ele>218.2</ele>
        <time>2020-06-29T09:49:32Z</time>
      </trkpt>
      <trkpt lat="48.64435" lon="6.44535">
        <ele>218.1</ele>
        <time>2020-06-29T09:49:33Z</time>
      </trkpt>
      <trkpt lat="48.64435" lon="6.44527">
        <ele>217.9</ele>
        <time>2020-06-29T09:49:34Z</time>
      </trkpt>
      <trkpt lat="48.64434" lon="6.44521">
        <ele>217.8</ele>
        <time>2020-06-29T09:49:35Z</time>
      </trkpt>
      <trkpt lat="48.64433" lon="6.44514">
        <ele>217.6</ele>
        <time>2020-06-29T09:49:36Z</time>
      </trkpt>
      <trkpt lat="48.64431" lon="6.44508">
        <ele>217.5</ele>
        <time>2020-06-29T09:49:37Z</time>
      </trkpt>
      <trkpt lat="48.64428" lon="6.44501">
        <ele>217.3</ele>
        <time>2020-06-29T09:49:38Z</time>
      </trkpt>
      <trkpt lat="48.64425" lon="6.44494">
        <ele>217.2</ele>
        <time>2020-06-29T09:49:39Z</time>
      </trkpt>
      <trkpt lat="48.64423" lon="6.44487">
        <ele>217.1</ele>
        <time>2020-06-29T09:49:40Z</time>
      </trkpt>
      <trkpt lat="48.64421" lon="6.44479">
        <ele>217</ele>
        <time>2020-06-29T09:49:41Z</time>
      </trkpt>
      <trkpt lat="48.64418" lon="6.4447">
        <ele>216.9</ele>
        <time>2020-06-29T09:49:42Z</time>
      </trkpt>
      <trkpt lat="48.64416" lon="6.44462">
        <ele>216.8</ele>
        <time>2020-06-29T09:49:43Z</time>
      </trkpt>
      <trkpt lat="48.64413" lon="6.44454">
        <ele>216.7</ele>
        <time>2020-06-29T09:49:44Z</time>
      </trkpt>
      <trkpt lat="48.6441" lon="6.44448">
        <ele>216.6</ele>
        <time>2020-06-29T09:49:45Z</time>
      </trkpt>
      <trkpt lat="48.64407" lon="6.44442">
        <ele>216.6</ele>
        <time>2020-06-29T09:49:46Z</time>
      </trkpt>
      <trkpt lat="48.64405" lon="6.44437">
        <ele>216.5</ele>
        <time>2020-06-29T09:49:47Z</time>
      </trkpt>
      <trkpt lat="48.64403" lon="6.44431">
        <ele>216.5</ele>
        <time>2020-06-29T09:49:48Z</time>
      </trkpt>
      <trkpt lat="48.644" lon="6.44427">
        <ele>216.5</ele>
        <time>2020-06-29T09:49:49Z</time>
      </trkpt>
      <trkpt lat="48.64398" lon="6.44423">
        <ele>216.5</ele>
        <time>2020-06-29T09:49:50Z</time>
      </trkpt>
      <trkpt lat="48.64393" lon="6.44415">
        <ele>216.5</ele>
        <time>2020-06-29T09:49:51Z</time>
      </trkpt>
      <trkpt lat="48.64389" lon="6.44409">
        <ele>216.5</ele>
        <time>2020-06-29T09:49:52Z</time>
      </trkpt>
      <trkpt lat="48.64386" lon="6.44404">
        <ele>216.4</ele>
        <time>2020-06-29T09:49:53Z</time>
      </trkpt>
      <trkpt lat="48.64384" lon="6.44399">
        <ele>216.4</ele>
        <time>2020-06-29T09:49:54Z</time>
      </trkpt>
      <trkpt lat="48.64381" lon="6.44393">
        <ele>216.4</ele>
        <time>2020-06-29T09:49:55Z</time>
      </trkpt>
      <trkpt lat="48.64378" lon="6.44386">
        <ele>216.4</ele>
        <time>2020-06-29T09:49:56Z</time>
      </trkpt>
      <trkpt lat="48.64375" lon="6.4438">
        <ele>216.5</ele>
        <time>2020-06-29T09:49:57Z</time>
      </trkpt>
      <trkpt lat="48.64373" lon="6.44375">
        <ele>216.5</ele>
        <time>2020-06-29T09:49:58Z</time>
      </trkpt>
      <trkpt lat="48.6437" lon="6.4437">
        <ele>216.5</ele>
        <time>2020-06-29T09:49:59Z</time>
      </trkpt>
      <trkpt lat="48.64367" lon="6.44364">
        <ele>216.5</ele>
        <time>2020-06-29T09:50:00Z</time>
      </trkpt>
      <trkpt lat="48.64364" lon="6.44358">
        <ele>216.6</ele>
        <time>2020-06-29T09:50:01Z</time>
      </trkpt>
      <trkpt lat="48.64361" lon="6.44352">
        <ele>216.6</ele>
        <time>2020-06-29T09:50:02Z</time>
      </trkpt>
      <trkpt lat="48.64356" lon="6.44345">
        <ele>216.6</ele>
        <time>2020-06-29T09:50:03Z</time>
      </trkpt>
      <trkpt lat="48.64354" lon="6.44339">
        <ele>216.6</ele>
        <time>2020-06-29T09:50:04Z</time>
      </trkpt>
      <trkpt lat="48.6435" lon="6.44332">
        <ele>216.6</ele>
        <time>2020-06-29T09:50:05Z</time>
      </trkpt>
      <trkpt lat="48.64346" lon="6.44325">
        <ele>216.6</ele>
        <time>2020-06-29T09:50:06Z</time>
      </trkpt>
      <trkpt lat="48.64342" lon="6.44319">
        <ele>216.6</ele>
        <time>2020-06-29T09:50:07Z</time>
      </trkpt>
      <trkpt lat="48.64339" lon="6.44313">
        <ele>216.7</ele>
        <time>2020-06-29T09:50:08Z</time>
      </trkpt>
      <trkpt lat="48.64335" lon="6.44306">
        <ele>216.7</ele>
        <time>2020-06-29T09:50:09Z</time>
      </trkpt>
      <trkpt lat="48.64332" lon="6.443">
        <ele>216.7</ele>
        <time>2020-06-29T09:50:10Z</time>
      </trkpt>
      <trkpt lat="48.64329" lon="6.44293">
        <ele>216.7</ele>
        <time>2020-06-29T09:50:11Z</time>
      </trkpt>
      <trkpt lat="48.64326" lon="6.44286">
        <ele>216.7</ele>
        <time>2020-06-29T09:50:12Z</time>
      </trkpt>
      <trkpt lat="48.64323" lon="6.44279">
        <ele>216.7</ele>
        <time>2020-06-29T09:50:13Z</time>
      </trkpt>
      <trkpt lat="48.64318" lon="6.44271">
        <ele>216.7</ele>
        <time>2020-06-29T09:50:14Z</time>
      </trkpt>
      <trkpt lat="48.64314" lon="6.44263">
        <ele>216.7</ele>
        <time>2020-06-29T09:50:15Z</time>
      </trkpt>
      <trkpt lat="48.64311" lon="6.44256">
        <ele>216.7</ele>
        <time>2020-06-29T09:50:16Z</time>
      </trkpt>
      <trkpt lat="48.64308" lon="6.44248">
        <ele>216.8</ele>
        <time>2020-06-29T09:50:17Z</time>
      </trkpt>
      <trkpt lat="48.64306" lon="6.4424">
        <ele>216.8</ele>
        <time>2020-06-29T09:50:18Z</time>
      </trkpt>
      <trkpt lat="48.64304" lon="6.44231">
        <ele>216.7</ele>
        <time>2020-06-29T09:50:19Z</time>
      </trkpt>
      <trkpt lat="48.64302" lon="6.44222">
        <ele>216.7</ele>
        <time>2020-06-29T09:50:20Z</time>
      </trkpt>
      <trkpt lat="48.643" lon="6.44215">
        <ele>216.7</ele>
        <time>2020-06-29T09:50:21Z</time>
      </trkpt>
      <trkpt lat="48.64298" lon="6.44207">
        <ele>216.7</ele>
        <time>2020-06-29T09:50:22Z</time>
      </trkpt>
      <trkpt lat="48.64296" lon="6.44201">
        <ele>216.7</ele>
        <time>2020-06-29T09:50:23Z</time>
      </trkpt>
      <trkpt lat="48.64295" lon="6.44194">
        <ele>216.7</ele>
        <time>2020-06-29T09:50:24Z</time>
      </trkpt>
      <trkpt lat="48.64294" lon="6.44186">
        <ele>216.7</ele>
        <time>2020-06-29T09:50:25Z</time>
      </trkpt>
      <trkpt lat="48.64292" lon="6.44178">
        <ele>216.7</ele>
        <time>2020-06-29T09:50:26Z</time>
      </trkpt>
      <trkpt lat="48.64292" lon="6.44169">
        <ele>216.8</ele>
        <time>2020-06-29T09:50:27Z</time>
      </trkpt>
      <trkpt lat="48.64291" lon="6.4416">
        <ele>216.8</ele>
        <time>2020-06-29T09:50:28Z</time>
      </trkpt>
      <trkpt lat="48.6429" lon="6.44151">
        <ele>216.8</ele>
        <time>2020-06-29T09:50:29Z</time>
      </trkpt>
      <trkpt lat="48.64289" lon="6.44141">
        <ele>216.9</ele>
        <time>2020-06-29T09:50:30Z</time>
      </trkpt>
      <trkpt lat="48.64288" lon="6.44133">
        <ele>216.9</ele>
        <time>2020-06-29T09:50:31Z</time>
      </trkpt>
      <trkpt lat="48.64288" lon="6.44126">
        <ele>217</ele>
        <time>2020-06-29T09:50:32Z</time>
      </trkpt>
      <trkpt lat="48.64287" lon="6.44117">
        <ele>217</ele>
        <time>2020-06-29T09:50:33Z</time>
      </trkpt>
      <trkpt lat="48.64287" lon="6.4411">
        <ele>217.1</ele>
        <time>2020-06-29T09:50:34Z</time>
      </trkpt>
      <trkpt lat="48.64286" lon="6.44102">
        <ele>217.1</ele>
        <time>2020-06-29T09:50:35Z</time>
      </trkpt>
      <trkpt lat="48.64285" lon="6.44093">
        <ele>217.2</ele>
        <time>2020-06-29T09:50:36Z</time>
      </trkpt>
      <trkpt lat="48.64285" lon="6.44088">
        <ele>217.2</ele>
        <time>2020-06-29T09:50:37Z</time>
      </trkpt>
      <trkpt lat="48.64284" lon="6.44081">
        <ele>217.3</ele>
        <time>2020-06-29T09:50:38Z</time>
      </trkpt>
      <trkpt lat="48.64284" lon="6.44076">
        <ele>217.3</ele>
        <time>2020-06-29T09:50:39Z</time>
      </trkpt>
      <trkpt lat="48.64282" lon="6.44074">
        <ele>217.4</ele>
        <time>2020-06-29T09:50:40Z</time>
      </trkpt>
      <trkpt lat="48.6428" lon="6.44074">
        <ele>217.4</ele>
        <time>2020-06-29T09:50:41Z</time>
      </trkpt>
      <trkpt lat="48.64279" lon="6.44081">
        <ele>217.4</ele>
        <time>2020-06-29T09:50:42Z</time>
      </trkpt>
      <trkpt lat="48.64279" lon="6.44087">
        <ele>217.5</ele>
        <time>2020-06-29T09:50:43Z</time>
      </trkpt>
      <trkpt lat="48.64279" lon="6.44093">
        <ele>217.5</ele>
        <time>2020-06-29T09:50:44Z</time>
      </trkpt>
      <trkpt lat="48.64278" lon="6.44099">
        <ele>217.5</ele>
        <time>2020-06-29T09:50:45Z</time>
      </trkpt>
      <trkpt lat="48.64273" lon="6.44103">
        <ele>217.6</ele>
        <time>2020-06-29T09:50:46Z</time>
      </trkpt>
      <trkpt lat="48.64267" lon="6.44104">
        <ele>217.6</ele>
        <time>2020-06-29T09:50:47Z</time>
      </trkpt>
      <trkpt lat="48.64264" lon="6.44104">
        <ele>217.7</ele>
        <time>2020-06-29T09:50:48Z</time>
      </trkpt>
      <trkpt lat="48.64261" lon="6.44104">
        <ele>217.7</ele>
        <time>2020-06-29T09:50:49Z</time>
      </trkpt>
      <trkpt lat="48.64262" lon="6.44104">
        <ele>217.7</ele>
        <time>2020-06-29T09:50:50Z</time>
      </trkpt>
      <trkpt lat="48.6426" lon="6.44103">
        <ele>217.7</ele>
        <time>2020-06-29T09:50:51Z</time>
      </trkpt>
      <trkpt lat="48.64259" lon="6.441">
        <ele>217.7</ele>
        <time>2020-06-29T09:50:52Z</time>
      </trkpt>
      <trkpt lat="48.64259" lon="6.44099">
        <ele>217.7</ele>
        <time>2020-06-29T09:50:53Z</time>
      </trkpt>
      <trkpt lat="48.64258" lon="6.44096">
        <ele>218.1</ele>
        <time>2020-06-29T09:50:54Z</time>
      </trkpt>
      <trkpt lat="48.64257" lon="6.44093">
        <ele>218.3</ele>
        <time>2020-06-29T09:50:55Z</time>
      </trkpt>
      <trkpt lat="48.64258" lon="6.44092">
        <ele>218.3</ele>
        <time>2020-06-29T09:50:56Z</time>
      </trkpt>
      <trkpt lat="48.64258" lon="6.44091">
        <ele>218.4</ele>
        <time>2020-06-29T09:50:57Z</time>
      </trkpt>
      <trkpt lat="48.64258" lon="6.44089">
        <ele>218.4</ele>
        <time>2020-06-29T09:50:58Z</time>
      </trkpt>
      <trkpt lat="48.64258" lon="6.44086">
        <ele>218.5</ele>
        <time>2020-06-29T09:50:59Z</time>
      </trkpt>
      <trkpt lat="48.64259" lon="6.44082">
        <ele>218.7</ele>
        <time>2020-06-29T09:51:00Z</time>
      </trkpt>
      <trkpt lat="48.64259" lon="6.44081">
        <ele>219.2</ele>
        <time>2020-06-29T09:51:01Z</time>
      </trkpt>
      <trkpt lat="48.64262" lon="6.44075">
        <ele>219.2</ele>
        <time>2020-06-29T09:51:02Z</time>
      </trkpt>
      <trkpt lat="48.64263" lon="6.44073">
        <ele>219.3</ele>
        <time>2020-06-29T09:51:03Z</time>
      </trkpt>
      <trkpt lat="48.64265" lon="6.44069">
        <ele>219.3</ele>
        <time>2020-06-29T09:51:04Z</time>
      </trkpt>
      <trkpt lat="48.64267" lon="6.44065">
        <ele>219.6</ele>
        <time>2020-06-29T09:51:05Z</time>
      </trkpt>
      <trkpt lat="48.64268" lon="6.44061">
        <ele>219.6</ele>
        <time>2020-06-29T09:51:06Z</time>
      </trkpt>
      <trkpt lat="48.64272" lon="6.44058">
        <ele>219.7</ele>
        <time>2020-06-29T09:51:07Z</time>
      </trkpt>
      <trkpt lat="48.64274" lon="6.44055">
        <ele>219.9</ele>
        <time>2020-06-29T09:51:08Z</time>
      </trkpt>
      <trkpt lat="48.64277" lon="6.44053">
        <ele>220</ele>
        <time>2020-06-29T09:51:09Z</time>
      </trkpt>
      <trkpt lat="48.6428" lon="6.44052">
        <ele>220</ele>
        <time>2020-06-29T09:51:10Z</time>
      </trkpt>
      <trkpt lat="48.64283" lon="6.44049">
        <ele>220.1</ele>
        <time>2020-06-29T09:51:11Z</time>
      </trkpt>
      <trkpt lat="48.64284" lon="6.44047">
        <ele>220.2</ele>
        <time>2020-06-29T09:51:12Z</time>
      </trkpt>
      <trkpt lat="48.64287" lon="6.44045">
        <ele>220.2</ele>
        <time>2020-06-29T09:51:13Z</time>
      </trkpt>
      <trkpt lat="48.6429" lon="6.44043">
        <ele>220.3</ele>
        <time>2020-06-29T09:51:14Z</time>
      </trkpt>
      <trkpt lat="48.64294" lon="6.44041">
        <ele>220.4</ele>
        <time>2020-06-29T09:51:15Z</time>
      </trkpt>
      <trkpt lat="48.64297" lon="6.44039">
        <ele>220.4</ele>
        <time>2020-06-29T09:51:16Z</time>
      </trkpt>
      <trkpt lat="48.643" lon="6.44038">
        <ele>220.5</ele>
        <time>2020-06-29T09:51:17Z</time>
      </trkpt>
      <trkpt lat="48.64303" lon="6.44036">
        <ele>220.5</ele>
        <time>2020-06-29T09:51:18Z</time>
      </trkpt>
      <trkpt lat="48.64306" lon="6.44035">
        <ele>220.5</ele>
        <time>2020-06-29T09:51:19Z</time>
      </trkpt>
      <trkpt lat="48.6431" lon="6.44034">
        <ele>220.6</ele>
        <time>2020-06-29T09:51:20Z</time>
      </trkpt>
      <trkpt lat="48.64314" lon="6.44032">
        <ele>220.7</ele>
        <time>2020-06-29T09:51:21Z</time>
      </trkpt>
      <trkpt lat="48.64319" lon="6.44029">
        <ele>220.8</ele>
        <time>2020-06-29T09:51:22Z</time>
      </trkpt>
      <trkpt lat="48.64324" lon="6.44027">
        <ele>220.8</ele>
        <time>2020-06-29T09:51:23Z</time>
      </trkpt>
      <trkpt lat="48.64328" lon="6.44024">
        <ele>220.9</ele>
        <time>2020-06-29T09:51:24Z</time>
      </trkpt>
      <trkpt lat="48.64333" lon="6.44021">
        <ele>221</ele>
        <time>2020-06-29T09:51:25Z</time>
      </trkpt>
      <trkpt lat="48.64338" lon="6.44019">
        <ele>221.2</ele>
        <time>2020-06-29T09:51:26Z</time>
      </trkpt>
      <trkpt lat="48.64343" lon="6.44018">
        <ele>221.3</ele>
        <time>2020-06-29T09:51:27Z</time>
      </trkpt>
      <trkpt lat="48.64347" lon="6.44016">
        <ele>221.4</ele>
        <time>2020-06-29T09:51:28Z</time>
      </trkpt>
      <trkpt lat="48.64351" lon="6.44015">
        <ele>221.5</ele>
        <time>2020-06-29T09:51:29Z</time>
      </trkpt>
      <trkpt lat="48.64355" lon="6.44013">
        <ele>221.7</ele>
        <time>2020-06-29T09:51:30Z</time>
      </trkpt>
      <trkpt lat="48.64359" lon="6.44011">
        <ele>221.9</ele>
        <time>2020-06-29T09:51:31Z</time>
      </trkpt>
      <trkpt lat="48.64363" lon="6.44009">
        <ele>222.1</ele>
        <time>2020-06-29T09:51:32Z</time>
      </trkpt>
      <trkpt lat="48.64367" lon="6.44008">
        <ele>222.2</ele>
        <time>2020-06-29T09:51:33Z</time>
      </trkpt>
      <trkpt lat="48.64371" lon="6.44007">
        <ele>222.4</ele>
        <time>2020-06-29T09:51:34Z</time>
      </trkpt>
      <trkpt lat="48.64375" lon="6.44005">
        <ele>222.5</ele>
        <time>2020-06-29T09:51:35Z</time>
      </trkpt>
      <trkpt lat="48.64378" lon="6.44003">
        <ele>222.7</ele>
        <time>2020-06-29T09:51:36Z</time>
      </trkpt>
      <trkpt lat="48.64381" lon="6.44002">
        <ele>222.8</ele>
        <time>2020-06-29T09:51:37Z</time>
      </trkpt>
      <trkpt lat="48.64384" lon="6.43999">
        <ele>222.9</ele>
        <time>2020-06-29T09:51:38Z</time>
      </trkpt>
      <trkpt lat="48.64388" lon="6.43995">
        <ele>223.1</ele>
        <time>2020-06-29T09:51:39Z</time>
      </trkpt>
      <trkpt lat="48.64391" lon="6.43993">
        <ele>223.2</ele>
        <time>2020-06-29T09:51:40Z</time>
      </trkpt>
      <trkpt lat="48.64394" lon="6.43991">
        <ele>223.3</ele>
        <time>2020-06-29T09:51:41Z</time>
      </trkpt>
      <trkpt lat="48.64398" lon="6.4399">
        <ele>223.5</ele>
        <time>2020-06-29T09:51:42Z</time>
      </trkpt>
      <trkpt lat="48.64402" lon="6.43989">
        <ele>223.6</ele>
        <time>2020-06-29T09:51:43Z</time>
      </trkpt>
      <trkpt lat="48.64406" lon="6.43987">
        <ele>223.8</ele>
        <time>2020-06-29T09:51:44Z</time>
      </trkpt>
      <trkpt lat="48.64409" lon="6.43985">
        <ele>223.9</ele>
        <time>2020-06-29T09:51:45Z</time>
      </trkpt>
      <trkpt lat="48.64412" lon="6.43983">
        <ele>224</ele>
        <time>2020-06-29T09:51:46Z</time>
      </trkpt>
      <trkpt lat="48.64416" lon="6.43982">
        <ele>224.2</ele>
        <time>2020-06-29T09:51:47Z</time>
      </trkpt>
      <trkpt lat="48.64418" lon="6.43981">
        <ele>224.2</ele>
        <time>2020-06-29T09:51:48Z</time>
      </trkpt>
      <trkpt lat="48.64421" lon="6.43982">
        <ele>224.4</ele>
        <time>2020-06-29T09:51:49Z</time>
      </trkpt>
      <trkpt lat="48.64424" lon="6.43982">
        <ele>224.5</ele>
        <time>2020-06-29T09:51:50Z</time>
      </trkpt>
      <trkpt lat="48.64428" lon="6.43981">
        <ele>224.7</ele>
        <time>2020-06-29T09:51:51Z</time>
      </trkpt>
      <trkpt lat="48.64431" lon="6.43979">
        <ele>224.9</ele>
        <time>2020-06-29T09:51:52Z</time>
      </trkpt>
      <trkpt lat="48.64435" lon="6.43977">
        <ele>225</ele>
        <time>2020-06-29T09:51:53Z</time>
      </trkpt>
      <trkpt lat="48.64438" lon="6.43975">
        <ele>225.2</ele>
        <time>2020-06-29T09:51:54Z</time>
      </trkpt>
      <trkpt lat="48.6444" lon="6.43971">
        <ele>225.3</ele>
        <time>2020-06-29T09:51:55Z</time>
      </trkpt>
      <trkpt lat="48.64441" lon="6.43967">
        <ele>225.4</ele>
        <time>2020-06-29T09:51:56Z</time>
      </trkpt>
      <trkpt lat="48.64442" lon="6.43966">
        <ele>225.6</ele>
        <time>2020-06-29T09:51:57Z</time>
      </trkpt>
      <trkpt lat="48.64442" lon="6.43961">
        <ele>225.7</ele>
        <time>2020-06-29T09:51:58Z</time>
      </trkpt>
      <trkpt lat="48.6444" lon="6.43956">
        <ele>225.8</ele>
        <time>2020-06-29T09:51:59Z</time>
      </trkpt>
      <trkpt lat="48.64439" lon="6.4395">
        <ele>226</ele>
        <time>2020-06-29T09:52:00Z</time>
      </trkpt>
      <trkpt lat="48.64438" lon="6.43946">
        <ele>226.1</ele>
        <time>2020-06-29T09:52:01Z</time>
      </trkpt>
      <trkpt lat="48.64437" lon="6.43941">
        <ele>226.2</ele>
        <time>2020-06-29T09:52:02Z</time>
      </trkpt>
      <trkpt lat="48.64437" lon="6.43937">
        <ele>226.3</ele>
        <time>2020-06-29T09:52:03Z</time>
      </trkpt>
      <trkpt lat="48.64436" lon="6.43932">
        <ele>226.4</ele>
        <time>2020-06-29T09:52:04Z</time>
      </trkpt>
      <trkpt lat="48.64435" lon="6.43927">
        <ele>226.5</ele>
        <time>2020-06-29T09:52:05Z</time>
      </trkpt>
      <trkpt lat="48.64434" lon="6.43921">
        <ele>226.6</ele>
        <time>2020-06-29T09:52:06Z</time>
      </trkpt>
      <trkpt lat="48.64434" lon="6.43916">
        <ele>226.7</ele>
        <time>2020-06-29T09:52:07Z</time>
      </trkpt>
      <trkpt lat="48.64433" lon="6.43908">
        <ele>226.8</ele>
        <time>2020-06-29T09:52:08Z</time>
      </trkpt>
      <trkpt lat="48.64432" lon="6.43902">
        <ele>226.9</ele>
        <time>2020-06-29T09:52:09Z</time>
      </trkpt>
      <trkpt lat="48.64431" lon="6.43897">
        <ele>227</ele>
        <time>2020-06-29T09:52:10Z</time>
      </trkpt>
      <trkpt lat="48.64429" lon="6.43892">
        <ele>227</ele>
        <time>2020-06-29T09:52:11Z</time>
      </trkpt>
      <trkpt lat="48.64427" lon="6.43887">
        <ele>227</ele>
        <time>2020-06-29T09:52:12Z</time>
      </trkpt>
      <trkpt lat="48.64427" lon="6.43882">
        <ele>227</ele>
        <time>2020-06-29T09:52:13Z</time>
      </trkpt>
      <trkpt lat="48.64427" lon="6.43878">
        <ele>227</ele>
        <time>2020-06-29T09:52:14Z</time>
      </trkpt>
      <trkpt lat="48.64425" lon="6.43873">
        <ele>227.1</ele>
        <time>2020-06-29T09:52:15Z</time>
      </trkpt>
      <trkpt lat="48.64422" lon="6.43868">
        <ele>227.1</ele>
        <time>2020-06-29T09:52:16Z</time>
      </trkpt>
      <trkpt lat="48.64419" lon="6.43863">
        <ele>227.1</ele>
        <time>2020-06-29T09:52:17Z</time>
      </trkpt>
      <trkpt lat="48.64417" lon="6.43858">
        <ele>227.1</ele>
        <time>2020-06-29T09:52:18Z</time>
      </trkpt>
      <trkpt lat="48.64414" lon="6.43853">
        <ele>227.2</ele>
        <time>2020-06-29T09:52:19Z</time>
      </trkpt>
      <trkpt lat="48.64412" lon="6.43848">
        <ele>227.2</ele>
        <time>2020-06-29T09:52:20Z</time>
      </trkpt>
      <trkpt lat="48.6441" lon="6.43843">
        <ele>227.2</ele>
        <time>2020-06-29T09:52:21Z</time>
      </trkpt>
      <trkpt lat="48.64406" lon="6.43838">
        <ele>227.2</ele>
        <time>2020-06-29T09:52:22Z</time>
      </trkpt>
      <trkpt lat="48.64403" lon="6.43833">
        <ele>227.3</ele>
        <time>2020-06-29T09:52:23Z</time>
      </trkpt>
      <trkpt lat="48.64399" lon="6.43828">
        <ele>227.3</ele>
        <time>2020-06-29T09:52:24Z</time>
      </trkpt>
      <trkpt lat="48.64397" lon="6.43823">
        <ele>227.3</ele>
        <time>2020-06-29T09:52:25Z</time>
      </trkpt>
      <trkpt lat="48.64393" lon="6.43818">
        <ele>227.4</ele>
        <time>2020-06-29T09:52:26Z</time>
      </trkpt>
      <trkpt lat="48.64391" lon="6.43813">
        <ele>227.4</ele>
        <time>2020-06-29T09:52:27Z</time>
      </trkpt>
      <trkpt lat="48.64387" lon="6.43807">
        <ele>227.5</ele>
        <time>2020-06-29T09:52:28Z</time>
      </trkpt>
      <trkpt lat="48.64384" lon="6.43802">
        <ele>227.6</ele>
        <time>2020-06-29T09:52:29Z</time>
      </trkpt>
      <trkpt lat="48.64381" lon="6.43795">
        <ele>227.7</ele>
        <time>2020-06-29T09:52:30Z</time>
      </trkpt>
      <trkpt lat="48.64378" lon="6.43788">
        <ele>227.7</ele>
        <time>2020-06-29T09:52:31Z</time>
      </trkpt>
      <trkpt lat="48.64375" lon="6.43784">
        <ele>227.8</ele>
        <time>2020-06-29T09:52:32Z</time>
      </trkpt>
      <trkpt lat="48.64373" lon="6.43779">
        <ele>227.9</ele>
        <time>2020-06-29T09:52:33Z</time>
      </trkpt>
      <trkpt lat="48.64371" lon="6.43774">
        <ele>227.9</ele>
        <time>2020-06-29T09:52:34Z</time>
      </trkpt>
      <trkpt lat="48.64368" lon="6.43769">
        <ele>228</ele>
        <time>2020-06-29T09:52:35Z</time>
      </trkpt>
      <trkpt lat="48.64366" lon="6.43765">
        <ele>228</ele>
        <time>2020-06-29T09:52:36Z</time>
      </trkpt>
      <trkpt lat="48.64364" lon="6.43759">
        <ele>228</ele>
        <time>2020-06-29T09:52:37Z</time>
      </trkpt>
      <trkpt lat="48.6436" lon="6.43754">
        <ele>228.1</ele>
        <time>2020-06-29T09:52:38Z</time>
      </trkpt>
      <trkpt lat="48.64357" lon="6.43749">
        <ele>228.1</ele>
        <time>2020-06-29T09:52:39Z</time>
      </trkpt>
      <trkpt lat="48.64354" lon="6.43742">
        <ele>228.1</ele>
        <time>2020-06-29T09:52:40Z</time>
      </trkpt>
      <trkpt lat="48.64352" lon="6.43736">
        <ele>228.1</ele>
        <time>2020-06-29T09:52:41Z</time>
      </trkpt>
      <trkpt lat="48.64349" lon="6.43729">
        <ele>228.1</ele>
        <time>2020-06-29T09:52:42Z</time>
      </trkpt>
      <trkpt lat="48.64346" lon="6.43722">
        <ele>228.1</ele>
        <time>2020-06-29T09:52:43Z</time>
      </trkpt>
      <trkpt lat="48.64344" lon="6.43716">
        <ele>228.1</ele>
        <time>2020-06-29T09:52:44Z</time>
      </trkpt>
      <trkpt lat="48.64341" lon="6.43708">
        <ele>228.1</ele>
        <time>2020-06-29T09:52:45Z</time>
      </trkpt>
      <trkpt lat="48.64338" lon="6.43701">
        <ele>228.1</ele>
        <time>2020-06-29T09:52:46Z</time>
      </trkpt>
      <trkpt lat="48.64336" lon="6.43693">
        <ele>228.1</ele>
        <time>2020-06-29T09:52:47Z</time>
      </trkpt>
      <trkpt lat="48.64333" lon="6.43686">
        <ele>228.1</ele>
        <time>2020-06-29T09:52:48Z</time>
      </trkpt>
      <trkpt lat="48.64331" lon="6.43679">
        <ele>228.1</ele>
        <time>2020-06-29T09:52:49Z</time>
      </trkpt>
      <trkpt lat="48.64328" lon="6.43672">
        <ele>228.1</ele>
        <time>2020-06-29T09:52:50Z</time>
      </trkpt>
      <trkpt lat="48.64325" lon="6.43663">
        <ele>228</ele>
        <time>2020-06-29T09:52:51Z</time>
      </trkpt>
      <trkpt lat="48.64322" lon="6.43655">
        <ele>228</ele>
        <time>2020-06-29T09:52:52Z</time>
      </trkpt>
      <trkpt lat="48.64322" lon="6.43647">
        <ele>228.2</ele>
        <time>2020-06-29T09:52:53Z</time>
      </trkpt>
      <trkpt lat="48.6432" lon="6.43639">
        <ele>228.3</ele>
        <time>2020-06-29T09:52:54Z</time>
      </trkpt>
      <trkpt lat="48.64317" lon="6.43632">
        <ele>228.3</ele>
        <time>2020-06-29T09:52:55Z</time>
      </trkpt>
      <trkpt lat="48.64315" lon="6.43623">
        <ele>228.4</ele>
        <time>2020-06-29T09:52:56Z</time>
      </trkpt>
      <trkpt lat="48.64313" lon="6.43615">
        <ele>228.4</ele>
        <time>2020-06-29T09:52:57Z</time>
      </trkpt>
      <trkpt lat="48.64312" lon="6.43608">
        <ele>228.3</ele>
        <time>2020-06-29T09:52:58Z</time>
      </trkpt>
      <trkpt lat="48.6431" lon="6.43598">
        <ele>228.3</ele>
        <time>2020-06-29T09:52:59Z</time>
      </trkpt>
      <trkpt lat="48.64308" lon="6.4359">
        <ele>228.3</ele>
        <time>2020-06-29T09:53:00Z</time>
      </trkpt>
      <trkpt lat="48.64308" lon="6.43582">
        <ele>228.2</ele>
        <time>2020-06-29T09:53:01Z</time>
      </trkpt>
      <trkpt lat="48.64306" lon="6.43573">
        <ele>228.2</ele>
        <time>2020-06-29T09:53:02Z</time>
      </trkpt>
      <trkpt lat="48.64305" lon="6.43564">
        <ele>228.2</ele>
        <time>2020-06-29T09:53:03Z</time>
      </trkpt>
      <trkpt lat="48.64304" lon="6.43554">
        <ele>228.1</ele>
        <time>2020-06-29T09:53:04Z</time>
      </trkpt>
      <trkpt lat="48.64304" lon="6.43544">
        <ele>228.1</ele>
        <time>2020-06-29T09:53:05Z</time>
      </trkpt>
      <trkpt lat="48.64304" lon="6.43534">
        <ele>228</ele>
        <time>2020-06-29T09:53:06Z</time>
      </trkpt>
      <trkpt lat="48.64304" lon="6.43526">
        <ele>227.8</ele>
        <time>2020-06-29T09:53:07Z</time>
      </trkpt>
      <trkpt lat="48.64304" lon="6.43516">
        <ele>227.6</ele>
        <time>2020-06-29T09:53:08Z</time>
      </trkpt>
      <trkpt lat="48.64303" lon="6.43506">
        <ele>227.4</ele>
        <time>2020-06-29T09:53:09Z</time>
      </trkpt>
      <trkpt lat="48.64304" lon="6.43496">
        <ele>227.2</ele>
        <time>2020-06-29T09:53:10Z</time>
      </trkpt>
      <trkpt lat="48.64304" lon="6.43487">
        <ele>227</ele>
        <time>2020-06-29T09:53:11Z</time>
      </trkpt>
      <trkpt lat="48.64305" lon="6.43478">
        <ele>226.8</ele>
        <time>2020-06-29T09:53:12Z</time>
      </trkpt>
      <trkpt lat="48.64305" lon="6.43468">
        <ele>226.6</ele>
        <time>2020-06-29T09:53:13Z</time>
      </trkpt>
      <trkpt lat="48.64305" lon="6.43457">
        <ele>226.3</ele>
        <time>2020-06-29T09:53:14Z</time>
      </trkpt>
      <trkpt lat="48.64306" lon="6.43446">
        <ele>225.9</ele>
        <time>2020-06-29T09:53:15Z</time>
      </trkpt>
      <trkpt lat="48.64307" lon="6.43435">
        <ele>225.5</ele>
        <time>2020-06-29T09:53:16Z</time>
      </trkpt>
      <trkpt lat="48.64308" lon="6.43423">
        <ele>225.1</ele>
        <time>2020-06-29T09:53:17Z</time>
      </trkpt>
      <trkpt lat="48.64309" lon="6.43411">
        <ele>224.7</ele>
        <time>2020-06-29T09:53:18Z</time>
      </trkpt>
      <trkpt lat="48.6431" lon="6.43399">
        <ele>224.2</ele>
        <time>2020-06-29T09:53:19Z</time>
      </trkpt>
      <trkpt lat="48.64311" lon="6.43386">
        <ele>223.8</ele>
        <time>2020-06-29T09:53:20Z</time>
      </trkpt>
      <trkpt lat="48.64312" lon="6.43373">
        <ele>223.5</ele>
        <time>2020-06-29T09:53:21Z</time>
      </trkpt>
      <trkpt lat="48.64313" lon="6.4336">
        <ele>223.1</ele>
        <time>2020-06-29T09:53:22Z</time>
      </trkpt>
      <trkpt lat="48.64314" lon="6.43347">
        <ele>222.7</ele>
        <time>2020-06-29T09:53:23Z</time>
      </trkpt>
      <trkpt lat="48.64316" lon="6.43333">
        <ele>222.3</ele>
        <time>2020-06-29T09:53:24Z</time>
      </trkpt>
      <trkpt lat="48.64317" lon="6.4332">
        <ele>222</ele>
        <time>2020-06-29T09:53:25Z</time>
      </trkpt>
      <trkpt lat="48.64319" lon="6.43307">
        <ele>221.6</ele>
        <time>2020-06-29T09:53:26Z</time>
      </trkpt>
      <trkpt lat="48.6432" lon="6.43295">
        <ele>221.3</ele>
        <time>2020-06-29T09:53:27Z</time>
      </trkpt>
      <trkpt lat="48.64321" lon="6.43282">
        <ele>221.1</ele>
        <time>2020-06-29T09:53:28Z</time>
      </trkpt>
      <trkpt lat="48.64322" lon="6.4327">
        <ele>220.9</ele>
        <time>2020-06-29T09:53:29Z</time>
      </trkpt>
      <trkpt lat="48.64324" lon="6.43258">
        <ele>220.7</ele>
        <time>2020-06-29T09:53:30Z</time>
      </trkpt>
      <trkpt lat="48.64325" lon="6.43247">
        <ele>220.5</ele>
        <time>2020-06-29T09:53:31Z</time>
      </trkpt>
      <trkpt lat="48.64326" lon="6.43235">
        <ele>220.3</ele>
        <time>2020-06-29T09:53:32Z</time>
      </trkpt>
      <trkpt lat="48.64328" lon="6.43224">
        <ele>220.1</ele>
        <time>2020-06-29T09:53:33Z</time>
      </trkpt>
      <trkpt lat="48.64329" lon="6.43212">
        <ele>219.9</ele>
        <time>2020-06-29T09:53:34Z</time>
      </trkpt>
      <trkpt lat="48.6433" lon="6.432">
        <ele>219.8</ele>
        <time>2020-06-29T09:53:35Z</time>
      </trkpt>
      <trkpt lat="48.64331" lon="6.43189">
        <ele>219.6</ele>
        <time>2020-06-29T09:53:36Z</time>
      </trkpt>
      <trkpt lat="48.64332" lon="6.43177">
        <ele>219.5</ele>
        <time>2020-06-29T09:53:37Z</time>
      </trkpt>
      <trkpt lat="48.64333" lon="6.43166">
        <ele>219.4</ele>
        <time>2020-06-29T09:53:38Z</time>
      </trkpt>
      <trkpt lat="48.64334" lon="6.43154">
        <ele>219.3</ele>
        <time>2020-06-29T09:53:39Z</time>
      </trkpt>
      <trkpt lat="48.64335" lon="6.43143">
        <ele>219.3</ele>
        <time>2020-06-29T09:53:40Z</time>
      </trkpt>
      <trkpt lat="48.64336" lon="6.43131">
        <ele>219.2</ele>
        <time>2020-06-29T09:53:41Z</time>
      </trkpt>
      <trkpt lat="48.64337" lon="6.4312">
        <ele>219.2</ele>
        <time>2020-06-29T09:53:42Z</time>
      </trkpt>
      <trkpt lat="48.64337" lon="6.43109">
        <ele>219.3</ele>
        <time>2020-06-29T09:53:43Z</time>
      </trkpt>
      <trkpt lat="48.64338" lon="6.43098">
        <ele>219.3</ele>
        <time>2020-06-29T09:53:44Z</time>
      </trkpt>
      <trkpt lat="48.64339" lon="6.43087">
        <ele>219.3</ele>
        <time>2020-06-29T09:53:45Z</time>
      </trkpt>
      <trkpt lat="48.64339" lon="6.43077">
        <ele>219.4</ele>
        <time>2020-06-29T09:53:46Z</time>
      </trkpt>
      <trkpt lat="48.64339" lon="6.43066">
        <ele>219.5</ele>
        <time>2020-06-29T09:53:47Z</time>
      </trkpt>
      <trkpt lat="48.64339" lon="6.43055">
        <ele>219.5</ele>
        <time>2020-06-29T09:53:48Z</time>
      </trkpt>
      <trkpt lat="48.64338" lon="6.43045">
        <ele>219.6</ele>
        <time>2020-06-29T09:53:49Z</time>
      </trkpt>
      <trkpt lat="48.64338" lon="6.43035">
        <ele>219.6</ele>
        <time>2020-06-29T09:53:50Z</time>
      </trkpt>
      <trkpt lat="48.64337" lon="6.43024">
        <ele>219.6</ele>
        <time>2020-06-29T09:53:51Z</time>
      </trkpt>
      <trkpt lat="48.64337" lon="6.43014">
        <ele>219.6</ele>
        <time>2020-06-29T09:53:52Z</time>
      </trkpt>
      <trkpt lat="48.64336" lon="6.43004">
        <ele>219.5</ele>
        <time>2020-06-29T09:53:53Z</time>
      </trkpt>
      <trkpt lat="48.64335" lon="6.42995">
        <ele>219.5</ele>
        <time>2020-06-29T09:53:54Z</time>
      </trkpt>
      <trkpt lat="48.64334" lon="6.42985">
        <ele>219.5</ele>
        <time>2020-06-29T09:53:55Z</time>
      </trkpt>
      <trkpt lat="48.64333" lon="6.42976">
        <ele>219.5</ele>
        <time>2020-06-29T09:53:56Z</time>
      </trkpt>
      <trkpt lat="48.64332" lon="6.42967">
        <ele>219.5</ele>
        <time>2020-06-29T09:53:57Z</time>
      </trkpt>
      <trkpt lat="48.64331" lon="6.42958">
        <ele>219.5</ele>
        <time>2020-06-29T09:53:58Z</time>
      </trkpt>
      <trkpt lat="48.6433" lon="6.42949">
        <ele>219.5</ele>
        <time>2020-06-29T09:53:59Z</time>
      </trkpt>
      <trkpt lat="48.64329" lon="6.4294">
        <ele>219.6</ele>
        <time>2020-06-29T09:54:00Z</time>
      </trkpt>
      <trkpt lat="48.64329" lon="6.42931">
        <ele>219.6</ele>
        <time>2020-06-29T09:54:01Z</time>
      </trkpt>
      <trkpt lat="48.64328" lon="6.42922">
        <ele>219.6</ele>
        <time>2020-06-29T09:54:02Z</time>
      </trkpt>
      <trkpt lat="48.64326" lon="6.42913">
        <ele>219.6</ele>
        <time>2020-06-29T09:54:03Z</time>
      </trkpt>
      <trkpt lat="48.64324" lon="6.42903">
        <ele>219.7</ele>
        <time>2020-06-29T09:54:04Z</time>
      </trkpt>
      <trkpt lat="48.64323" lon="6.42894">
        <ele>219.7</ele>
        <time>2020-06-29T09:54:05Z</time>
      </trkpt>
      <trkpt lat="48.64321" lon="6.42884">
        <ele>219.7</ele>
        <time>2020-06-29T09:54:06Z</time>
      </trkpt>
      <trkpt lat="48.64319" lon="6.42875">
        <ele>219.7</ele>
        <time>2020-06-29T09:54:07Z</time>
      </trkpt>
      <trkpt lat="48.64317" lon="6.42865">
        <ele>219.7</ele>
        <time>2020-06-29T09:54:08Z</time>
      </trkpt>
      <trkpt lat="48.64317" lon="6.42854">
        <ele>219.7</ele>
        <time>2020-06-29T09:54:09Z</time>
      </trkpt>
      <trkpt lat="48.64316" lon="6.42843">
        <ele>219.7</ele>
        <time>2020-06-29T09:54:10Z</time>
      </trkpt>
      <trkpt lat="48.64314" lon="6.42833">
        <ele>219.7</ele>
        <time>2020-06-29T09:54:11Z</time>
      </trkpt>
      <trkpt lat="48.64313" lon="6.42822">
        <ele>219.8</ele>
        <time>2020-06-29T09:54:12Z</time>
      </trkpt>
      <trkpt lat="48.64311" lon="6.42812">
        <ele>219.8</ele>
        <time>2020-06-29T09:54:13Z</time>
      </trkpt>
      <trkpt lat="48.64309" lon="6.42802">
        <ele>219.8</ele>
        <time>2020-06-29T09:54:14Z</time>
      </trkpt>
      <trkpt lat="48.64307" lon="6.42792">
        <ele>219.8</ele>
        <time>2020-06-29T09:54:15Z</time>
      </trkpt>
      <trkpt lat="48.64305" lon="6.42781">
        <ele>219.8</ele>
        <time>2020-06-29T09:54:16Z</time>
      </trkpt>
      <trkpt lat="48.64303" lon="6.42771">
        <ele>219.7</ele>
        <time>2020-06-29T09:54:17Z</time>
      </trkpt>
      <trkpt lat="48.64301" lon="6.4276">
        <ele>219.7</ele>
        <time>2020-06-29T09:54:18Z</time>
      </trkpt>
      <trkpt lat="48.64299" lon="6.4275">
        <ele>219.6</ele>
        <time>2020-06-29T09:54:19Z</time>
      </trkpt>
      <trkpt lat="48.64297" lon="6.42739">
        <ele>219.5</ele>
        <time>2020-06-29T09:54:20Z</time>
      </trkpt>
      <trkpt lat="48.64296" lon="6.42729">
        <ele>219.4</ele>
        <time>2020-06-29T09:54:21Z</time>
      </trkpt>
      <trkpt lat="48.64296" lon="6.42719">
        <ele>219.3</ele>
        <time>2020-06-29T09:54:22Z</time>
      </trkpt>
      <trkpt lat="48.64295" lon="6.42709">
        <ele>219.1</ele>
        <time>2020-06-29T09:54:23Z</time>
      </trkpt>
      <trkpt lat="48.64294" lon="6.42699">
        <ele>218.9</ele>
        <time>2020-06-29T09:54:24Z</time>
      </trkpt>
      <trkpt lat="48.64293" lon="6.42689">
        <ele>218.6</ele>
        <time>2020-06-29T09:54:25Z</time>
      </trkpt>
      <trkpt lat="48.64292" lon="6.42678">
        <ele>218.3</ele>
        <time>2020-06-29T09:54:26Z</time>
      </trkpt>
      <trkpt lat="48.64291" lon="6.42667">
        <ele>218.1</ele>
        <time>2020-06-29T09:54:27Z</time>
      </trkpt>
      <trkpt lat="48.6429" lon="6.42657">
        <ele>217.8</ele>
        <time>2020-06-29T09:54:28Z</time>
      </trkpt>
      <trkpt lat="48.64289" lon="6.42646">
        <ele>217.5</ele>
        <time>2020-06-29T09:54:29Z</time>
      </trkpt>
      <trkpt lat="48.64288" lon="6.42635">
        <ele>217.3</ele>
        <time>2020-06-29T09:54:30Z</time>
      </trkpt>
      <trkpt lat="48.64287" lon="6.42624">
        <ele>217.1</ele>
        <time>2020-06-29T09:54:31Z</time>
      </trkpt>
      <trkpt lat="48.64287" lon="6.42613">
        <ele>217</ele>
        <time>2020-06-29T09:54:32Z</time>
      </trkpt>
      <trkpt lat="48.64286" lon="6.42602">
        <ele>216.8</ele>
        <time>2020-06-29T09:54:33Z</time>
      </trkpt>
      <trkpt lat="48.64285" lon="6.42591">
        <ele>216.8</ele>
        <time>2020-06-29T09:54:34Z</time>
      </trkpt>
      <trkpt lat="48.64283" lon="6.42581">
        <ele>216.9</ele>
        <time>2020-06-29T09:54:35Z</time>
      </trkpt>
      <trkpt lat="48.64282" lon="6.4257">
        <ele>216.9</ele>
        <time>2020-06-29T09:54:36Z</time>
      </trkpt>
      <trkpt lat="48.64281" lon="6.4256">
        <ele>217</ele>
        <time>2020-06-29T09:54:37Z</time>
      </trkpt>
      <trkpt lat="48.6428" lon="6.4255">
        <ele>217.1</ele>
        <time>2020-06-29T09:54:38Z</time>
      </trkpt>
      <trkpt lat="48.64279" lon="6.4254">
        <ele>217.2</ele>
        <time>2020-06-29T09:54:39Z</time>
      </trkpt>
      <trkpt lat="48.64277" lon="6.42531">
        <ele>217.4</ele>
        <time>2020-06-29T09:54:40Z</time>
      </trkpt>
      <trkpt lat="48.64276" lon="6.42521">
        <ele>217.6</ele>
        <time>2020-06-29T09:54:41Z</time>
      </trkpt>
      <trkpt lat="48.64275" lon="6.42512">
        <ele>217.8</ele>
        <time>2020-06-29T09:54:42Z</time>
      </trkpt>
      <trkpt lat="48.64274" lon="6.42503">
        <ele>217.9</ele>
        <time>2020-06-29T09:54:43Z</time>
      </trkpt>
      <trkpt lat="48.64273" lon="6.42494">
        <ele>218.1</ele>
        <time>2020-06-29T09:54:44Z</time>
      </trkpt>
      <trkpt lat="48.64271" lon="6.42485">
        <ele>218.3</ele>
        <time>2020-06-29T09:54:45Z</time>
      </trkpt>
      <trkpt lat="48.6427" lon="6.42476">
        <ele>218.6</ele>
        <time>2020-06-29T09:54:46Z</time>
      </trkpt>
      <trkpt lat="48.64269" lon="6.42467">
        <ele>218.8</ele>
        <time>2020-06-29T09:54:47Z</time>
      </trkpt>
      <trkpt lat="48.64266" lon="6.42459">
        <ele>219.1</ele>
        <time>2020-06-29T09:54:48Z</time>
      </trkpt>
      <trkpt lat="48.64265" lon="6.4245">
        <ele>219.4</ele>
        <time>2020-06-29T09:54:49Z</time>
      </trkpt>
      <trkpt lat="48.64264" lon="6.42441">
        <ele>219.8</ele>
        <time>2020-06-29T09:54:50Z</time>
      </trkpt>
      <trkpt lat="48.64262" lon="6.42432">
        <ele>220.2</ele>
        <time>2020-06-29T09:54:51Z</time>
      </trkpt>
      <trkpt lat="48.6426" lon="6.42424">
        <ele>220.5</ele>
        <time>2020-06-29T09:54:52Z</time>
      </trkpt>
      <trkpt lat="48.64259" lon="6.42416">
        <ele>220.8</ele>
        <time>2020-06-29T09:54:53Z</time>
      </trkpt>
      <trkpt lat="48.64256" lon="6.4241">
        <ele>221.1</ele>
        <time>2020-06-29T09:54:54Z</time>
      </trkpt>
      <trkpt lat="48.64254" lon="6.42403">
        <ele>221.3</ele>
        <time>2020-06-29T09:54:55Z</time>
      </trkpt>
      <trkpt lat="48.64252" lon="6.42396">
        <ele>221.6</ele>
        <time>2020-06-29T09:54:56Z</time>
      </trkpt>
      <trkpt lat="48.64251" lon="6.42389">
        <ele>221.9</ele>
        <time>2020-06-29T09:54:57Z</time>
      </trkpt>
      <trkpt lat="48.64249" lon="6.42383">
        <ele>222.3</ele>
        <time>2020-06-29T09:54:58Z</time>
      </trkpt>
      <trkpt lat="48.64248" lon="6.42375">
        <ele>222.7</ele>
        <time>2020-06-29T09:54:59Z</time>
      </trkpt>
      <trkpt lat="48.64246" lon="6.42371">
        <ele>222.9</ele>
        <time>2020-06-29T09:55:00Z</time>
      </trkpt>
      <trkpt lat="48.64245" lon="6.42366">
        <ele>223.1</ele>
        <time>2020-06-29T09:55:01Z</time>
      </trkpt>
      <trkpt lat="48.64243" lon="6.42362">
        <ele>223.3</ele>
        <time>2020-06-29T09:55:02Z</time>
      </trkpt>
      <trkpt lat="48.64242" lon="6.42356">
        <ele>223.6</ele>
        <time>2020-06-29T09:55:03Z</time>
      </trkpt>
      <trkpt lat="48.64241" lon="6.42352">
        <ele>223.8</ele>
        <time>2020-06-29T09:55:04Z</time>
      </trkpt>
      <trkpt lat="48.6424" lon="6.42347">
        <ele>224.1</ele>
        <time>2020-06-29T09:55:05Z</time>
      </trkpt>
      <trkpt lat="48.64239" lon="6.42345">
        <ele>224.2</ele>
        <time>2020-06-29T09:55:06Z</time>
      </trkpt>
      <trkpt lat="48.64237" lon="6.42339">
        <ele>224.5</ele>
        <time>2020-06-29T09:55:07Z</time>
      </trkpt>
      <trkpt lat="48.64236" lon="6.42336">
        <ele>224.6</ele>
        <time>2020-06-29T09:55:08Z</time>
      </trkpt>
      <trkpt lat="48.64235" lon="6.42332">
        <ele>224.8</ele>
        <time>2020-06-29T09:55:09Z</time>
      </trkpt>
      <trkpt lat="48.64235" lon="6.4233">
        <ele>224.9</ele>
        <time>2020-06-29T09:55:10Z</time>
      </trkpt>
      <trkpt lat="48.64235" lon="6.42324">
        <ele>225.2</ele>
        <time>2020-06-29T09:55:11Z</time>
      </trkpt>
      <trkpt lat="48.64235" lon="6.42317">
        <ele>225.4</ele>
        <time>2020-06-29T09:55:12Z</time>
      </trkpt>
      <trkpt lat="48.64233" lon="6.42313">
        <ele>225.6</ele>
        <time>2020-06-29T09:55:13Z</time>
      </trkpt>
      <trkpt lat="48.64232" lon="6.42308">
        <ele>225.9</ele>
        <time>2020-06-29T09:55:14Z</time>
      </trkpt>
      <trkpt lat="48.64231" lon="6.42304">
        <ele>226</ele>
        <time>2020-06-29T09:55:15Z</time>
      </trkpt>
      <trkpt lat="48.6423" lon="6.42297">
        <ele>226.3</ele>
        <time>2020-06-29T09:55:16Z</time>
      </trkpt>
      <trkpt lat="48.6423" lon="6.42293">
        <ele>226.4</ele>
        <time>2020-06-29T09:55:17Z</time>
      </trkpt>
      <trkpt lat="48.64229" lon="6.42286">
        <ele>226.6</ele>
        <time>2020-06-29T09:55:18Z</time>
      </trkpt>
      <trkpt lat="48.64228" lon="6.42284">
        <ele>226.7</ele>
        <time>2020-06-29T09:55:19Z</time>
      </trkpt>
      <trkpt lat="48.64228" lon="6.42279">
        <ele>226.9</ele>
        <time>2020-06-29T09:55:20Z</time>
      </trkpt>
      <trkpt lat="48.64227" lon="6.42273">
        <ele>227.1</ele>
        <time>2020-06-29T09:55:21Z</time>
      </trkpt>
      <trkpt lat="48.64226" lon="6.42265">
        <ele>227.4</ele>
        <time>2020-06-29T09:55:22Z</time>
      </trkpt>
      <trkpt lat="48.64226" lon="6.42261">
        <ele>227.5</ele>
        <time>2020-06-29T09:55:23Z</time>
      </trkpt>
      <trkpt lat="48.64226" lon="6.42255">
        <ele>227.7</ele>
        <time>2020-06-29T09:55:24Z</time>
      </trkpt>
      <trkpt lat="48.64225" lon="6.4225">
        <ele>227.8</ele>
        <time>2020-06-29T09:55:25Z</time>
      </trkpt>
      <trkpt lat="48.64224" lon="6.42244">
        <ele>228</ele>
        <time>2020-06-29T09:55:26Z</time>
      </trkpt>
      <trkpt lat="48.64223" lon="6.42237">
        <ele>228.2</ele>
        <time>2020-06-29T09:55:27Z</time>
      </trkpt>
      <trkpt lat="48.64223" lon="6.42231">
        <ele>228.4</ele>
        <time>2020-06-29T09:55:28Z</time>
      </trkpt>
      <trkpt lat="48.64222" lon="6.42225">
        <ele>228.6</ele>
        <time>2020-06-29T09:55:29Z</time>
      </trkpt>
      <trkpt lat="48.64221" lon="6.42218">
        <ele>228.7</ele>
        <time>2020-06-29T09:55:30Z</time>
      </trkpt>
      <trkpt lat="48.64219" lon="6.42213">
        <ele>228.8</ele>
        <time>2020-06-29T09:55:31Z</time>
      </trkpt>
      <trkpt lat="48.64219" lon="6.4221">
        <ele>228.9</ele>
        <time>2020-06-29T09:55:32Z</time>
      </trkpt>
      <trkpt lat="48.64218" lon="6.42202">
        <ele>229.1</ele>
        <time>2020-06-29T09:55:33Z</time>
      </trkpt>
      <trkpt lat="48.64218" lon="6.42195">
        <ele>229.2</ele>
        <time>2020-06-29T09:55:34Z</time>
      </trkpt>
      <trkpt lat="48.64217" lon="6.4219">
        <ele>229.3</ele>
        <time>2020-06-29T09:55:35Z</time>
      </trkpt>
      <trkpt lat="48.64217" lon="6.42184">
        <ele>229.4</ele>
        <time>2020-06-29T09:55:36Z</time>
      </trkpt>
      <trkpt lat="48.64217" lon="6.42181">
        <ele>229.5</ele>
        <time>2020-06-29T09:55:37Z</time>
      </trkpt>
      <trkpt lat="48.64217" lon="6.42173">
        <ele>229.6</ele>
        <time>2020-06-29T09:55:38Z</time>
      </trkpt>
      <trkpt lat="48.64216" lon="6.42165">
        <ele>229.8</ele>
        <time>2020-06-29T09:55:39Z</time>
      </trkpt>
      <trkpt lat="48.64215" lon="6.42162">
        <ele>229.8</ele>
        <time>2020-06-29T09:55:40Z</time>
      </trkpt>
      <trkpt lat="48.64214" lon="6.42155">
        <ele>229.9</ele>
        <time>2020-06-29T09:55:41Z</time>
      </trkpt>
      <trkpt lat="48.64213" lon="6.42148">
        <ele>230</ele>
        <time>2020-06-29T09:55:42Z</time>
      </trkpt>
      <trkpt lat="48.64213" lon="6.42142">
        <ele>230.1</ele>
        <time>2020-06-29T09:55:43Z</time>
      </trkpt>
      <trkpt lat="48.64212" lon="6.42136">
        <ele>230.3</ele>
        <time>2020-06-29T09:55:44Z</time>
      </trkpt>
      <trkpt lat="48.64212" lon="6.42128">
        <ele>230.4</ele>
        <time>2020-06-29T09:55:45Z</time>
      </trkpt>
      <trkpt lat="48.64211" lon="6.42121">
        <ele>230.5</ele>
        <time>2020-06-29T09:55:46Z</time>
      </trkpt>
      <trkpt lat="48.6421" lon="6.42114">
        <ele>230.6</ele>
        <time>2020-06-29T09:55:47Z</time>
      </trkpt>
      <trkpt lat="48.64209" lon="6.42108">
        <ele>230.7</ele>
        <time>2020-06-29T09:55:48Z</time>
      </trkpt>
      <trkpt lat="48.64209" lon="6.42102">
        <ele>230.8</ele>
        <time>2020-06-29T09:55:49Z</time>
      </trkpt>
      <trkpt lat="48.64208" lon="6.42096">
        <ele>230.9</ele>
        <time>2020-06-29T09:55:50Z</time>
      </trkpt>
      <trkpt lat="48.64206" lon="6.42089">
        <ele>231</ele>
        <time>2020-06-29T09:55:51Z</time>
      </trkpt>
      <trkpt lat="48.64205" lon="6.42082">
        <ele>231.2</ele>
        <time>2020-06-29T09:55:52Z</time>
      </trkpt>
      <trkpt lat="48.64205" lon="6.42078">
        <ele>231.2</ele>
        <time>2020-06-29T09:55:53Z</time>
      </trkpt>
      <trkpt lat="48.64203" lon="6.42073">
        <ele>231.3</ele>
        <time>2020-06-29T09:55:54Z</time>
      </trkpt>
      <trkpt lat="48.64201" lon="6.42065">
        <ele>231.5</ele>
        <time>2020-06-29T09:55:55Z</time>
      </trkpt>
      <trkpt lat="48.642" lon="6.42059">
        <ele>231.6</ele>
        <time>2020-06-29T09:55:56Z</time>
      </trkpt>
      <trkpt lat="48.64197" lon="6.42051">
        <ele>231.7</ele>
        <time>2020-06-29T09:55:57Z</time>
      </trkpt>
      <trkpt lat="48.64195" lon="6.42046">
        <ele>231.8</ele>
        <time>2020-06-29T09:55:58Z</time>
      </trkpt>
      <trkpt lat="48.64194" lon="6.42041">
        <ele>231.9</ele>
        <time>2020-06-29T09:55:59Z</time>
      </trkpt>
      <trkpt lat="48.64192" lon="6.42035">
        <ele>232</ele>
        <time>2020-06-29T09:56:00Z</time>
      </trkpt>
      <trkpt lat="48.64191" lon="6.4203">
        <ele>232</ele>
        <time>2020-06-29T09:56:01Z</time>
      </trkpt>
      <trkpt lat="48.64189" lon="6.42024">
        <ele>232.2</ele>
        <time>2020-06-29T09:56:02Z</time>
      </trkpt>
      <trkpt lat="48.64187" lon="6.42017">
        <ele>232.3</ele>
        <time>2020-06-29T09:56:03Z</time>
      </trkpt>
      <trkpt lat="48.64185" lon="6.42011">
        <ele>232.5</ele>
        <time>2020-06-29T09:56:04Z</time>
      </trkpt>
      <trkpt lat="48.64184" lon="6.42006">
        <ele>232.6</ele>
        <time>2020-06-29T09:56:05Z</time>
      </trkpt>
      <trkpt lat="48.64182" lon="6.42">
        <ele>232.7</ele>
        <time>2020-06-29T09:56:06Z</time>
      </trkpt>
      <trkpt lat="48.64179" lon="6.41992">
        <ele>232.9</ele>
        <time>2020-06-29T09:56:07Z</time>
      </trkpt>
      <trkpt lat="48.64178" lon="6.41987">
        <ele>233.1</ele>
        <time>2020-06-29T09:56:08Z</time>
      </trkpt>
      <trkpt lat="48.64176" lon="6.41982">
        <ele>233.2</ele>
        <time>2020-06-29T09:56:09Z</time>
      </trkpt>
      <trkpt lat="48.64174" lon="6.41977">
        <ele>233.4</ele>
        <time>2020-06-29T09:56:10Z</time>
      </trkpt>
      <trkpt lat="48.64173" lon="6.41973">
        <ele>233.5</ele>
        <time>2020-06-29T09:56:11Z</time>
      </trkpt>
      <trkpt lat="48.6417" lon="6.41966">
        <ele>233.7</ele>
        <time>2020-06-29T09:56:12Z</time>
      </trkpt>
      <trkpt lat="48.64169" lon="6.41959">
        <ele>233.9</ele>
        <time>2020-06-29T09:56:13Z</time>
      </trkpt>
      <trkpt lat="48.64167" lon="6.41954">
        <ele>234</ele>
        <time>2020-06-29T09:56:14Z</time>
      </trkpt>
      <trkpt lat="48.64166" lon="6.41948">
        <ele>234.2</ele>
        <time>2020-06-29T09:56:15Z</time>
      </trkpt>
      <trkpt lat="48.64164" lon="6.41942">
        <ele>234.4</ele>
        <time>2020-06-29T09:56:16Z</time>
      </trkpt>
      <trkpt lat="48.64163" lon="6.41935">
        <ele>234.5</ele>
        <time>2020-06-29T09:56:17Z</time>
      </trkpt>
      <trkpt lat="48.64162" lon="6.41929">
        <ele>234.7</ele>
        <time>2020-06-29T09:56:18Z</time>
      </trkpt>
      <trkpt lat="48.64162" lon="6.41924">
        <ele>234.8</ele>
        <time>2020-06-29T09:56:19Z</time>
      </trkpt>
      <trkpt lat="48.64161" lon="6.41918">
        <ele>234.9</ele>
        <time>2020-06-29T09:56:20Z</time>
      </trkpt>
      <trkpt lat="48.6416" lon="6.41913">
        <ele>234.9</ele>
        <time>2020-06-29T09:56:21Z</time>
      </trkpt>
      <trkpt lat="48.64159" lon="6.41907">
        <ele>235</ele>
        <time>2020-06-29T09:56:22Z</time>
      </trkpt>
      <trkpt lat="48.64158" lon="6.41901">
        <ele>235.1</ele>
        <time>2020-06-29T09:56:23Z</time>
      </trkpt>
      <trkpt lat="48.64157" lon="6.41894">
        <ele>235.1</ele>
        <time>2020-06-29T09:56:24Z</time>
      </trkpt>
      <trkpt lat="48.64157" lon="6.41889">
        <ele>235.2</ele>
        <time>2020-06-29T09:56:25Z</time>
      </trkpt>
      <trkpt lat="48.64156" lon="6.41883">
        <ele>235.2</ele>
        <time>2020-06-29T09:56:26Z</time>
      </trkpt>
      <trkpt lat="48.64155" lon="6.41875">
        <ele>235.1</ele>
        <time>2020-06-29T09:56:27Z</time>
      </trkpt>
      <trkpt lat="48.64153" lon="6.41867">
        <ele>235</ele>
        <time>2020-06-29T09:56:28Z</time>
      </trkpt>
      <trkpt lat="48.64152" lon="6.41859">
        <ele>234.9</ele>
        <time>2020-06-29T09:56:29Z</time>
      </trkpt>
      <trkpt lat="48.64151" lon="6.41851">
        <ele>234.7</ele>
        <time>2020-06-29T09:56:30Z</time>
      </trkpt>
      <trkpt lat="48.64149" lon="6.41841">
        <ele>234.5</ele>
        <time>2020-06-29T09:56:31Z</time>
      </trkpt>
      <trkpt lat="48.64148" lon="6.41831">
        <ele>234.3</ele>
        <time>2020-06-29T09:56:32Z</time>
      </trkpt>
      <trkpt lat="48.64146" lon="6.41822">
        <ele>234.1</ele>
        <time>2020-06-29T09:56:33Z</time>
      </trkpt>
      <trkpt lat="48.64144" lon="6.41812">
        <ele>233.9</ele>
        <time>2020-06-29T09:56:34Z</time>
      </trkpt>
      <trkpt lat="48.64144" lon="6.41802">
        <ele>233.6</ele>
        <time>2020-06-29T09:56:35Z</time>
      </trkpt>
      <trkpt lat="48.64143" lon="6.41791">
        <ele>233.3</ele>
        <time>2020-06-29T09:56:36Z</time>
      </trkpt>
      <trkpt lat="48.64143" lon="6.41782">
        <ele>233</ele>
        <time>2020-06-29T09:56:37Z</time>
      </trkpt>
      <trkpt lat="48.64142" lon="6.41773">
        <ele>232.8</ele>
        <time>2020-06-29T09:56:38Z</time>
      </trkpt>
      <trkpt lat="48.64142" lon="6.41763">
        <ele>232.4</ele>
        <time>2020-06-29T09:56:39Z</time>
      </trkpt>
      <trkpt lat="48.64143" lon="6.41752">
        <ele>232.1</ele>
        <time>2020-06-29T09:56:40Z</time>
      </trkpt>
      <trkpt lat="48.64145" lon="6.41741">
        <ele>231.7</ele>
        <time>2020-06-29T09:56:41Z</time>
      </trkpt>
      <trkpt lat="48.64147" lon="6.41729">
        <ele>231.3</ele>
        <time>2020-06-29T09:56:42Z</time>
      </trkpt>
      <trkpt lat="48.64149" lon="6.41718">
        <ele>230.9</ele>
        <time>2020-06-29T09:56:43Z</time>
      </trkpt>
      <trkpt lat="48.64151" lon="6.41706">
        <ele>230.5</ele>
        <time>2020-06-29T09:56:44Z</time>
      </trkpt>
      <trkpt lat="48.64154" lon="6.41695">
        <ele>230</ele>
        <time>2020-06-29T09:56:45Z</time>
      </trkpt>
      <trkpt lat="48.64157" lon="6.41683">
        <ele>229.5</ele>
        <time>2020-06-29T09:56:46Z</time>
      </trkpt>
      <trkpt lat="48.64161" lon="6.41672">
        <ele>229.1</ele>
        <time>2020-06-29T09:56:47Z</time>
      </trkpt>
      <trkpt lat="48.64165" lon="6.41661">
        <ele>228.6</ele>
        <time>2020-06-29T09:56:48Z</time>
      </trkpt>
      <trkpt lat="48.6417" lon="6.41651">
        <ele>228.2</ele>
        <time>2020-06-29T09:56:49Z</time>
      </trkpt>
      <trkpt lat="48.64174" lon="6.4164">
        <ele>227.7</ele>
        <time>2020-06-29T09:56:50Z</time>
      </trkpt>
      <trkpt lat="48.64178" lon="6.41629">
        <ele>227.2</ele>
        <time>2020-06-29T09:56:51Z</time>
      </trkpt>
      <trkpt lat="48.64183" lon="6.41617">
        <ele>226.8</ele>
        <time>2020-06-29T09:56:52Z</time>
      </trkpt>
      <trkpt lat="48.64187" lon="6.41606">
        <ele>226.4</ele>
        <time>2020-06-29T09:56:53Z</time>
      </trkpt>
      <trkpt lat="48.64192" lon="6.41594">
        <ele>225.9</ele>
        <time>2020-06-29T09:56:54Z</time>
      </trkpt>
      <trkpt lat="48.64197" lon="6.41582">
        <ele>225.5</ele>
        <time>2020-06-29T09:56:55Z</time>
      </trkpt>
      <trkpt lat="48.64201" lon="6.4157">
        <ele>225.1</ele>
        <time>2020-06-29T09:56:56Z</time>
      </trkpt>
      <trkpt lat="48.64206" lon="6.41558">
        <ele>224.7</ele>
        <time>2020-06-29T09:56:57Z</time>
      </trkpt>
      <trkpt lat="48.6421" lon="6.41547">
        <ele>224.2</ele>
        <time>2020-06-29T09:56:58Z</time>
      </trkpt>
      <trkpt lat="48.64215" lon="6.41535">
        <ele>223.7</ele>
        <time>2020-06-29T09:56:59Z</time>
      </trkpt>
      <trkpt lat="48.6422" lon="6.41523">
        <ele>223.3</ele>
        <time>2020-06-29T09:57:00Z</time>
      </trkpt>
      <trkpt lat="48.64225" lon="6.41512">
        <ele>222.8</ele>
        <time>2020-06-29T09:57:01Z</time>
      </trkpt>
      <trkpt lat="48.6423" lon="6.415">
        <ele>222.3</ele>
        <time>2020-06-29T09:57:02Z</time>
      </trkpt>
      <trkpt lat="48.64234" lon="6.41488">
        <ele>221.9</ele>
        <time>2020-06-29T09:57:03Z</time>
      </trkpt>
      <trkpt lat="48.64239" lon="6.41476">
        <ele>221.5</ele>
        <time>2020-06-29T09:57:04Z</time>
      </trkpt>
      <trkpt lat="48.64244" lon="6.41464">
        <ele>221.1</ele>
        <time>2020-06-29T09:57:05Z</time>
      </trkpt>
      <trkpt lat="48.64249" lon="6.41452">
        <ele>220.7</ele>
        <time>2020-06-29T09:57:06Z</time>
      </trkpt>
      <trkpt lat="48.64254" lon="6.4144">
        <ele>220.3</ele>
        <time>2020-06-29T09:57:07Z</time>
      </trkpt>
      <trkpt lat="48.64259" lon="6.41427">
        <ele>220</ele>
        <time>2020-06-29T09:57:08Z</time>
      </trkpt>
      <trkpt lat="48.64263" lon="6.41416">
        <ele>219.6</ele>
        <time>2020-06-29T09:57:09Z</time>
      </trkpt>
      <trkpt lat="48.64268" lon="6.41404">
        <ele>219.3</ele>
        <time>2020-06-29T09:57:10Z</time>
      </trkpt>
      <trkpt lat="48.64273" lon="6.41392">
        <ele>219</ele>
        <time>2020-06-29T09:57:11Z</time>
      </trkpt>
      <trkpt lat="48.64278" lon="6.41381">
        <ele>218.7</ele>
        <time>2020-06-29T09:57:12Z</time>
      </trkpt>
      <trkpt lat="48.64282" lon="6.41369">
        <ele>218.5</ele>
        <time>2020-06-29T09:57:13Z</time>
      </trkpt>
      <trkpt lat="48.64287" lon="6.41358">
        <ele>218.3</ele>
        <time>2020-06-29T09:57:14Z</time>
      </trkpt>
      <trkpt lat="48.64291" lon="6.41347">
        <ele>218.1</ele>
        <time>2020-06-29T09:57:15Z</time>
      </trkpt>
      <trkpt lat="48.64296" lon="6.41337">
        <ele>218</ele>
        <time>2020-06-29T09:57:16Z</time>
      </trkpt>
      <trkpt lat="48.643" lon="6.41326">
        <ele>217.8</ele>
        <time>2020-06-29T09:57:17Z</time>
      </trkpt>
      <trkpt lat="48.64304" lon="6.41316">
        <ele>217.5</ele>
        <time>2020-06-29T09:57:18Z</time>
      </trkpt>
      <trkpt lat="48.64308" lon="6.41305">
        <ele>217.3</ele>
        <time>2020-06-29T09:57:19Z</time>
      </trkpt>
      <trkpt lat="48.64312" lon="6.41295">
        <ele>217.1</ele>
        <time>2020-06-29T09:57:20Z</time>
      </trkpt>
      <trkpt lat="48.64316" lon="6.41285">
        <ele>216.9</ele>
        <time>2020-06-29T09:57:21Z</time>
      </trkpt>
      <trkpt lat="48.6432" lon="6.41276">
        <ele>216.8</ele>
        <time>2020-06-29T09:57:22Z</time>
      </trkpt>
      <trkpt lat="48.64324" lon="6.41268">
        <ele>216.7</ele>
        <time>2020-06-29T09:57:23Z</time>
      </trkpt>
      <trkpt lat="48.64327" lon="6.41258">
        <ele>216.6</ele>
        <time>2020-06-29T09:57:24Z</time>
      </trkpt>
      <trkpt lat="48.64331" lon="6.41249">
        <ele>216.6</ele>
        <time>2020-06-29T09:57:25Z</time>
      </trkpt>
      <trkpt lat="48.64335" lon="6.4124">
        <ele>216.5</ele>
        <time>2020-06-29T09:57:26Z</time>
      </trkpt>
      <trkpt lat="48.6434" lon="6.41231">
        <ele>216.4</ele>
        <time>2020-06-29T09:57:27Z</time>
      </trkpt>
      <trkpt lat="48.64342" lon="6.4122">
        <ele>216.2</ele>
        <time>2020-06-29T09:57:28Z</time>
      </trkpt>
      <trkpt lat="48.64345" lon="6.41209">
        <ele>216.1</ele>
        <time>2020-06-29T09:57:29Z</time>
      </trkpt>
      <trkpt lat="48.64347" lon="6.41198">
        <ele>216.1</ele>
        <time>2020-06-29T09:57:30Z</time>
      </trkpt>
      <trkpt lat="48.64348" lon="6.41186">
        <ele>216.1</ele>
        <time>2020-06-29T09:57:31Z</time>
      </trkpt>
      <trkpt lat="48.6435" lon="6.41175">
        <ele>216.1</ele>
        <time>2020-06-29T09:57:32Z</time>
      </trkpt>
      <trkpt lat="48.64351" lon="6.41164">
        <ele>216.1</ele>
        <time>2020-06-29T09:57:33Z</time>
      </trkpt>
      <trkpt lat="48.64352" lon="6.41152">
        <ele>216.2</ele>
        <time>2020-06-29T09:57:34Z</time>
      </trkpt>
      <trkpt lat="48.64354" lon="6.41141">
        <ele>216.3</ele>
        <time>2020-06-29T09:57:35Z</time>
      </trkpt>
      <trkpt lat="48.64355" lon="6.41129">
        <ele>216.4</ele>
        <time>2020-06-29T09:57:36Z</time>
      </trkpt>
      <trkpt lat="48.64355" lon="6.41118">
        <ele>216.4</ele>
        <time>2020-06-29T09:57:37Z</time>
      </trkpt>
      <trkpt lat="48.64356" lon="6.41106">
        <ele>216.5</ele>
        <time>2020-06-29T09:57:38Z</time>
      </trkpt>
      <trkpt lat="48.64356" lon="6.41095">
        <ele>216.6</ele>
        <time>2020-06-29T09:57:39Z</time>
      </trkpt>
      <trkpt lat="48.64357" lon="6.41084">
        <ele>216.7</ele>
        <time>2020-06-29T09:57:40Z</time>
      </trkpt>
      <trkpt lat="48.64357" lon="6.41073">
        <ele>216.9</ele>
        <time>2020-06-29T09:57:41Z</time>
      </trkpt>
      <trkpt lat="48.64356" lon="6.41063">
        <ele>217.1</ele>
        <time>2020-06-29T09:57:42Z</time>
      </trkpt>
      <trkpt lat="48.64355" lon="6.41053">
        <ele>217.2</ele>
        <time>2020-06-29T09:57:43Z</time>
      </trkpt>
      <trkpt lat="48.64353" lon="6.41044">
        <ele>217.4</ele>
        <time>2020-06-29T09:57:44Z</time>
      </trkpt>
      <trkpt lat="48.64352" lon="6.41035">
        <ele>217.5</ele>
        <time>2020-06-29T09:57:45Z</time>
      </trkpt>
      <trkpt lat="48.64351" lon="6.41026">
        <ele>217.7</ele>
        <time>2020-06-29T09:57:46Z</time>
      </trkpt>
      <trkpt lat="48.64351" lon="6.41017">
        <ele>217.8</ele>
        <time>2020-06-29T09:57:47Z</time>
      </trkpt>
      <trkpt lat="48.6435" lon="6.41008">
        <ele>218</ele>
        <time>2020-06-29T09:57:48Z</time>
      </trkpt>
      <trkpt lat="48.6435" lon="6.40999">
        <ele>218.2</ele>
        <time>2020-06-29T09:57:49Z</time>
      </trkpt>
      <trkpt lat="48.64349" lon="6.4099">
        <ele>218.4</ele>
        <time>2020-06-29T09:57:50Z</time>
      </trkpt>
      <trkpt lat="48.64347" lon="6.40983">
        <ele>218.6</ele>
        <time>2020-06-29T09:57:51Z</time>
      </trkpt>
      <trkpt lat="48.64345" lon="6.40976">
        <ele>218.7</ele>
        <time>2020-06-29T09:57:52Z</time>
      </trkpt>
      <trkpt lat="48.64343" lon="6.40969">
        <ele>218.9</ele>
        <time>2020-06-29T09:57:53Z</time>
      </trkpt>
      <trkpt lat="48.6434" lon="6.40963">
        <ele>219.1</ele>
        <time>2020-06-29T09:57:54Z</time>
      </trkpt>
      <trkpt lat="48.64339" lon="6.40956">
        <ele>219.2</ele>
        <time>2020-06-29T09:57:55Z</time>
      </trkpt>
      <trkpt lat="48.64337" lon="6.4095">
        <ele>219.3</ele>
        <time>2020-06-29T09:57:56Z</time>
      </trkpt>
      <trkpt lat="48.64336" lon="6.40945">
        <ele>219.4</ele>
        <time>2020-06-29T09:57:57Z</time>
      </trkpt>
      <trkpt lat="48.64335" lon="6.40938">
        <ele>219.5</ele>
        <time>2020-06-29T09:57:58Z</time>
      </trkpt>
      <trkpt lat="48.64333" lon="6.40932">
        <ele>219.6</ele>
        <time>2020-06-29T09:57:59Z</time>
      </trkpt>
      <trkpt lat="48.64331" lon="6.40927">
        <ele>219.6</ele>
        <time>2020-06-29T09:58:00Z</time>
      </trkpt>
      <trkpt lat="48.64329" lon="6.40922">
        <ele>219.7</ele>
        <time>2020-06-29T09:58:01Z</time>
      </trkpt>
      <trkpt lat="48.64326" lon="6.40917">
        <ele>219.7</ele>
        <time>2020-06-29T09:58:02Z</time>
      </trkpt>
      <trkpt lat="48.64323" lon="6.40912">
        <ele>219.7</ele>
        <time>2020-06-29T09:58:03Z</time>
      </trkpt>
      <trkpt lat="48.64321" lon="6.40906">
        <ele>219.7</ele>
        <time>2020-06-29T09:58:04Z</time>
      </trkpt>
      <trkpt lat="48.64319" lon="6.409">
        <ele>219.7</ele>
        <time>2020-06-29T09:58:05Z</time>
      </trkpt>
      <trkpt lat="48.64316" lon="6.40894">
        <ele>219.7</ele>
        <time>2020-06-29T09:58:06Z</time>
      </trkpt>
      <trkpt lat="48.64313" lon="6.40888">
        <ele>219.6</ele>
        <time>2020-06-29T09:58:07Z</time>
      </trkpt>
      <trkpt lat="48.6431" lon="6.40882">
        <ele>219.6</ele>
        <time>2020-06-29T09:58:08Z</time>
      </trkpt>
      <trkpt lat="48.64307" lon="6.40875">
        <ele>219.5</ele>
        <time>2020-06-29T09:58:09Z</time>
      </trkpt>
      <trkpt lat="48.64304" lon="6.40869">
        <ele>219.5</ele>
        <time>2020-06-29T09:58:10Z</time>
      </trkpt>
      <trkpt lat="48.643" lon="6.40861">
        <ele>219.4</ele>
        <time>2020-06-29T09:58:11Z</time>
      </trkpt>
      <trkpt lat="48.64296" lon="6.40854">
        <ele>219.3</ele>
        <time>2020-06-29T09:58:12Z</time>
      </trkpt>
      <trkpt lat="48.64292" lon="6.40848">
        <ele>219.2</ele>
        <time>2020-06-29T09:58:13Z</time>
      </trkpt>
      <trkpt lat="48.64288" lon="6.40841">
        <ele>219.1</ele>
        <time>2020-06-29T09:58:14Z</time>
      </trkpt>
      <trkpt lat="48.64284" lon="6.40833">
        <ele>218.9</ele>
        <time>2020-06-29T09:58:15Z</time>
      </trkpt>
      <trkpt lat="48.64279" lon="6.40825">
        <ele>218.8</ele>
        <time>2020-06-29T09:58:16Z</time>
      </trkpt>
      <trkpt lat="48.64275" lon="6.40817">
        <ele>218.6</ele>
        <time>2020-06-29T09:58:17Z</time>
      </trkpt>
      <trkpt lat="48.6427" lon="6.4081">
        <ele>218.6</ele>
        <time>2020-06-29T09:58:18Z</time>
      </trkpt>
      <trkpt lat="48.64265" lon="6.40801">
        <ele>218.5</ele>
        <time>2020-06-29T09:58:19Z</time>
      </trkpt>
      <trkpt lat="48.64261" lon="6.40793">
        <ele>218.4</ele>
        <time>2020-06-29T09:58:20Z</time>
      </trkpt>
      <trkpt lat="48.64257" lon="6.40786">
        <ele>218.4</ele>
        <time>2020-06-29T09:58:21Z</time>
      </trkpt>
      <trkpt lat="48.64252" lon="6.40779">
        <ele>218.3</ele>
        <time>2020-06-29T09:58:22Z</time>
      </trkpt>
      <trkpt lat="48.64248" lon="6.40772">
        <ele>218.2</ele>
        <time>2020-06-29T09:58:23Z</time>
      </trkpt>
      <trkpt lat="48.64243" lon="6.40765">
        <ele>218</ele>
        <time>2020-06-29T09:58:24Z</time>
      </trkpt>
      <trkpt lat="48.64238" lon="6.40758">
        <ele>217.9</ele>
        <time>2020-06-29T09:58:25Z</time>
      </trkpt>
      <trkpt lat="48.64233" lon="6.40751">
        <ele>217.7</ele>
        <time>2020-06-29T09:58:26Z</time>
      </trkpt>
      <trkpt lat="48.64227" lon="6.40744">
        <ele>217.4</ele>
        <time>2020-06-29T09:58:27Z</time>
      </trkpt>
      <trkpt lat="48.64221" lon="6.40737">
        <ele>217.2</ele>
        <time>2020-06-29T09:58:28Z</time>
      </trkpt>
      <trkpt lat="48.64216" lon="6.4073">
        <ele>217.1</ele>
        <time>2020-06-29T09:58:29Z</time>
      </trkpt>
      <trkpt lat="48.64211" lon="6.40721">
        <ele>216.9</ele>
        <time>2020-06-29T09:58:30Z</time>
      </trkpt>
      <trkpt lat="48.64205" lon="6.40713">
        <ele>216.7</ele>
        <time>2020-06-29T09:58:31Z</time>
      </trkpt>
      <trkpt lat="48.642" lon="6.40705">
        <ele>216.6</ele>
        <time>2020-06-29T09:58:32Z</time>
      </trkpt>
      <trkpt lat="48.64195" lon="6.40696">
        <ele>216.5</ele>
        <time>2020-06-29T09:58:33Z</time>
      </trkpt>
      <trkpt lat="48.64189" lon="6.40689">
        <ele>216.5</ele>
        <time>2020-06-29T09:58:34Z</time>
      </trkpt>
      <trkpt lat="48.64184" lon="6.40681">
        <ele>216.5</ele>
        <time>2020-06-29T09:58:35Z</time>
      </trkpt>
      <trkpt lat="48.6418" lon="6.40673">
        <ele>216.5</ele>
        <time>2020-06-29T09:58:36Z</time>
      </trkpt>
      <trkpt lat="48.64174" lon="6.40666">
        <ele>216.6</ele>
        <time>2020-06-29T09:58:37Z</time>
      </trkpt>
      <trkpt lat="48.6417" lon="6.40658">
        <ele>216.6</ele>
        <time>2020-06-29T09:58:38Z</time>
      </trkpt>
      <trkpt lat="48.64166" lon="6.40651">
        <ele>216.7</ele>
        <time>2020-06-29T09:58:39Z</time>
      </trkpt>
      <trkpt lat="48.64162" lon="6.40645">
        <ele>216.8</ele>
        <time>2020-06-29T09:58:40Z</time>
      </trkpt>
      <trkpt lat="48.64157" lon="6.40639">
        <ele>216.9</ele>
        <time>2020-06-29T09:58:41Z</time>
      </trkpt>
      <trkpt lat="48.64154" lon="6.40631">
        <ele>217</ele>
        <time>2020-06-29T09:58:42Z</time>
      </trkpt>
      <trkpt lat="48.64149" lon="6.40626">
        <ele>217.2</ele>
        <time>2020-06-29T09:58:43Z</time>
      </trkpt>
      <trkpt lat="48.64146" lon="6.4062">
        <ele>217.3</ele>
        <time>2020-06-29T09:58:44Z</time>
      </trkpt>
      <trkpt lat="48.64143" lon="6.40614">
        <ele>217.5</ele>
        <time>2020-06-29T09:58:45Z</time>
      </trkpt>
      <trkpt lat="48.64139" lon="6.40608">
        <ele>217.7</ele>
        <time>2020-06-29T09:58:46Z</time>
      </trkpt>
      <trkpt lat="48.64135" lon="6.40602">
        <ele>217.9</ele>
        <time>2020-06-29T09:58:47Z</time>
      </trkpt>
      <trkpt lat="48.64132" lon="6.40596">
        <ele>218.1</ele>
        <time>2020-06-29T09:58:48Z</time>
      </trkpt>
      <trkpt lat="48.64129" lon="6.40589">
        <ele>218.3</ele>
        <time>2020-06-29T09:58:49Z</time>
      </trkpt>
      <trkpt lat="48.64126" lon="6.40581">
        <ele>218.6</ele>
        <time>2020-06-29T09:58:50Z</time>
      </trkpt>
      <trkpt lat="48.64123" lon="6.40574">
        <ele>218.8</ele>
        <time>2020-06-29T09:58:51Z</time>
      </trkpt>
      <trkpt lat="48.6412" lon="6.40567">
        <ele>219</ele>
        <time>2020-06-29T09:58:52Z</time>
      </trkpt>
      <trkpt lat="48.64117" lon="6.4056">
        <ele>219.2</ele>
        <time>2020-06-29T09:58:53Z</time>
      </trkpt>
      <trkpt lat="48.64115" lon="6.40553">
        <ele>219.3</ele>
        <time>2020-06-29T09:58:54Z</time>
      </trkpt>
      <trkpt lat="48.64113" lon="6.40546">
        <ele>219.4</ele>
        <time>2020-06-29T09:58:55Z</time>
      </trkpt>
      <trkpt lat="48.64112" lon="6.40539">
        <ele>219.5</ele>
        <time>2020-06-29T09:58:56Z</time>
      </trkpt>
      <trkpt lat="48.6411" lon="6.40531">
        <ele>219.7</ele>
        <time>2020-06-29T09:58:57Z</time>
      </trkpt>
      <trkpt lat="48.64109" lon="6.40522">
        <ele>219.8</ele>
        <time>2020-06-29T09:58:58Z</time>
      </trkpt>
      <trkpt lat="48.64107" lon="6.40512">
        <ele>219.9</ele>
        <time>2020-06-29T09:58:59Z</time>
      </trkpt>
      <trkpt lat="48.64105" lon="6.40502">
        <ele>220</ele>
        <time>2020-06-29T09:59:00Z</time>
      </trkpt>
      <trkpt lat="48.64104" lon="6.40494">
        <ele>220.1</ele>
        <time>2020-06-29T09:59:01Z</time>
      </trkpt>
      <trkpt lat="48.64103" lon="6.40486">
        <ele>220.2</ele>
        <time>2020-06-29T09:59:02Z</time>
      </trkpt>
      <trkpt lat="48.64102" lon="6.40478">
        <ele>220.3</ele>
        <time>2020-06-29T09:59:03Z</time>
      </trkpt>
      <trkpt lat="48.64102" lon="6.40471">
        <ele>220.4</ele>
        <time>2020-06-29T09:59:04Z</time>
      </trkpt>
      <trkpt lat="48.64101" lon="6.40463">
        <ele>220.5</ele>
        <time>2020-06-29T09:59:05Z</time>
      </trkpt>
      <trkpt lat="48.64101" lon="6.40456">
        <ele>220.6</ele>
        <time>2020-06-29T09:59:06Z</time>
      </trkpt>
      <trkpt lat="48.64102" lon="6.40447">
        <ele>220.7</ele>
        <time>2020-06-29T09:59:07Z</time>
      </trkpt>
      <trkpt lat="48.64103" lon="6.4044">
        <ele>220.8</ele>
        <time>2020-06-29T09:59:08Z</time>
      </trkpt>
      <trkpt lat="48.64103" lon="6.40434">
        <ele>220.9</ele>
        <time>2020-06-29T09:59:09Z</time>
      </trkpt>
      <trkpt lat="48.64104" lon="6.40425">
        <ele>221.1</ele>
        <time>2020-06-29T09:59:10Z</time>
      </trkpt>
      <trkpt lat="48.64104" lon="6.40419">
        <ele>221.2</ele>
        <time>2020-06-29T09:59:11Z</time>
      </trkpt>
      <trkpt lat="48.64104" lon="6.40414">
        <ele>221.3</ele>
        <time>2020-06-29T09:59:12Z</time>
      </trkpt>
      <trkpt lat="48.64104" lon="6.4041">
        <ele>221.3</ele>
        <time>2020-06-29T09:59:13Z</time>
      </trkpt>
      <trkpt lat="48.64102" lon="6.40403">
        <ele>221.3</ele>
        <time>2020-06-29T09:59:14Z</time>
      </trkpt>
      <trkpt lat="48.64096" lon="6.40398">
        <ele>221.2</ele>
        <time>2020-06-29T09:59:15Z</time>
      </trkpt>
      <trkpt lat="48.64092" lon="6.40396">
        <ele>221.2</ele>
        <time>2020-06-29T09:59:16Z</time>
      </trkpt>
      <trkpt lat="48.64087" lon="6.40397">
        <ele>221.2</ele>
        <time>2020-06-29T09:59:17Z</time>
      </trkpt>
      <trkpt lat="48.64082" lon="6.40397">
        <ele>221.1</ele>
        <time>2020-06-29T09:59:18Z</time>
      </trkpt>
      <trkpt lat="48.64079" lon="6.40397">
        <ele>220.9</ele>
        <time>2020-06-29T09:59:19Z</time>
      </trkpt>
      <trkpt lat="48.64075" lon="6.40396">
        <ele>220.8</ele>
        <time>2020-06-29T09:59:20Z</time>
      </trkpt>
      <trkpt lat="48.64068" lon="6.40395">
        <ele>220.7</ele>
        <time>2020-06-29T09:59:21Z</time>
      </trkpt>
      <trkpt lat="48.64063" lon="6.40394">
        <ele>220.5</ele>
        <time>2020-06-29T09:59:22Z</time>
      </trkpt>
      <trkpt lat="48.64058" lon="6.40394">
        <ele>220.4</ele>
        <time>2020-06-29T09:59:23Z</time>
      </trkpt>
      <trkpt lat="48.64054" lon="6.40393">
        <ele>220.2</ele>
        <time>2020-06-29T09:59:24Z</time>
      </trkpt>
      <trkpt lat="48.64049" lon="6.40392">
        <ele>220</ele>
        <time>2020-06-29T09:59:25Z</time>
      </trkpt>
      <trkpt lat="48.64043" lon="6.4039">
        <ele>219.8</ele>
        <time>2020-06-29T09:59:26Z</time>
      </trkpt>
      <trkpt lat="48.64037" lon="6.40388">
        <ele>219.6</ele>
        <time>2020-06-29T09:59:27Z</time>
      </trkpt>
      <trkpt lat="48.64031" lon="6.40386">
        <ele>219.2</ele>
        <time>2020-06-29T09:59:28Z</time>
      </trkpt>
      <trkpt lat="48.64024" lon="6.40383">
        <ele>218.8</ele>
        <time>2020-06-29T09:59:29Z</time>
      </trkpt>
      <trkpt lat="48.64018" lon="6.40379">
        <ele>218.1</ele>
        <time>2020-06-29T09:59:30Z</time>
      </trkpt>
      <trkpt lat="48.64012" lon="6.40376">
        <ele>217.5</ele>
        <time>2020-06-29T09:59:31Z</time>
      </trkpt>
      <trkpt lat="48.64007" lon="6.40372">
        <ele>217</ele>
        <time>2020-06-29T09:59:32Z</time>
      </trkpt>
      <trkpt lat="48.64002" lon="6.40369">
        <ele>216.4</ele>
        <time>2020-06-29T09:59:33Z</time>
      </trkpt>
      <trkpt lat="48.63996" lon="6.40363">
        <ele>215.8</ele>
        <time>2020-06-29T09:59:34Z</time>
      </trkpt>
      <trkpt lat="48.63991" lon="6.40353">
        <ele>215.1</ele>
        <time>2020-06-29T09:59:35Z</time>
      </trkpt>
      <trkpt lat="48.63987" lon="6.40341">
        <ele>214.3</ele>
        <time>2020-06-29T09:59:36Z</time>
      </trkpt>
      <trkpt lat="48.63984" lon="6.40328">
        <ele>213.6</ele>
        <time>2020-06-29T09:59:37Z</time>
      </trkpt>
      <trkpt lat="48.6398" lon="6.40315">
        <ele>213</ele>
        <time>2020-06-29T09:59:38Z</time>
      </trkpt>
      <trkpt lat="48.63979" lon="6.40304">
        <ele>212.5</ele>
        <time>2020-06-29T09:59:39Z</time>
      </trkpt>
      <trkpt lat="48.63977" lon="6.40293">
        <ele>212</ele>
        <time>2020-06-29T09:59:40Z</time>
      </trkpt>
      <trkpt lat="48.63973" lon="6.40281">
        <ele>211.5</ele>
        <time>2020-06-29T09:59:41Z</time>
      </trkpt>
      <trkpt lat="48.63967" lon="6.40269">
        <ele>211.2</ele>
        <time>2020-06-29T09:59:42Z</time>
      </trkpt>
      <trkpt lat="48.63961" lon="6.4026">
        <ele>210.9</ele>
        <time>2020-06-29T09:59:43Z</time>
      </trkpt>
      <trkpt lat="48.63953" lon="6.40255">
        <ele>210.7</ele>
        <time>2020-06-29T09:59:44Z</time>
      </trkpt>
      <trkpt lat="48.63945" lon="6.40253">
        <ele>210.5</ele>
        <time>2020-06-29T09:59:45Z</time>
      </trkpt>
      <trkpt lat="48.63938" lon="6.40252">
        <ele>210.5</ele>
        <time>2020-06-29T09:59:46Z</time>
      </trkpt>
      <trkpt lat="48.6393" lon="6.40252">
        <ele>210.5</ele>
        <time>2020-06-29T09:59:47Z</time>
      </trkpt>
      <trkpt lat="48.63923" lon="6.40251">
        <ele>210.5</ele>
        <time>2020-06-29T09:59:48Z</time>
      </trkpt>
      <trkpt lat="48.63917" lon="6.40248">
        <ele>210.5</ele>
        <time>2020-06-29T09:59:49Z</time>
      </trkpt>
      <trkpt lat="48.63913" lon="6.40243">
        <ele>210.6</ele>
        <time>2020-06-29T09:59:50Z</time>
      </trkpt>
      <trkpt lat="48.63911" lon="6.40235">
        <ele>210.7</ele>
        <time>2020-06-29T09:59:51Z</time>
      </trkpt>
      <trkpt lat="48.63911" lon="6.40227">
        <ele>210.8</ele>
        <time>2020-06-29T09:59:52Z</time>
      </trkpt>
      <trkpt lat="48.63911" lon="6.4022">
        <ele>210.8</ele>
        <time>2020-06-29T09:59:53Z</time>
      </trkpt>
      <trkpt lat="48.63911" lon="6.40212">
        <ele>210.8</ele>
        <time>2020-06-29T09:59:54Z</time>
      </trkpt>
      <trkpt lat="48.63909" lon="6.40205">
        <ele>210.8</ele>
        <time>2020-06-29T09:59:55Z</time>
      </trkpt>
      <trkpt lat="48.63909" lon="6.40198">
        <ele>210.8</ele>
        <time>2020-06-29T09:59:56Z</time>
      </trkpt>
      <trkpt lat="48.63909" lon="6.40191">
        <ele>210.7</ele>
        <time>2020-06-29T09:59:57Z</time>
      </trkpt>
      <trkpt lat="48.63908" lon="6.40185">
        <ele>210.7</ele>
        <time>2020-06-29T09:59:58Z</time>
      </trkpt>
      <trkpt lat="48.63908" lon="6.40178">
        <ele>210.7</ele>
        <time>2020-06-29T09:59:59Z</time>
      </trkpt>
      <trkpt lat="48.63907" lon="6.4017">
        <ele>210.7</ele>
        <time>2020-06-29T10:00:00Z</time>
      </trkpt>
      <trkpt lat="48.63907" lon="6.40162">
        <ele>210.7</ele>
        <time>2020-06-29T10:00:01Z</time>
      </trkpt>
      <trkpt lat="48.63905" lon="6.40154">
        <ele>210.6</ele>
        <time>2020-06-29T10:00:02Z</time>
      </trkpt>
      <trkpt lat="48.63904" lon="6.40145">
        <ele>210.6</ele>
        <time>2020-06-29T10:00:03Z</time>
      </trkpt>
      <trkpt lat="48.63904" lon="6.40137">
        <ele>210.7</ele>
        <time>2020-06-29T10:00:04Z</time>
      </trkpt>
      <trkpt lat="48.63904" lon="6.40128">
        <ele>210.7</ele>
        <time>2020-06-29T10:00:05Z</time>
      </trkpt>
      <trkpt lat="48.63904" lon="6.40121">
        <ele>210.8</ele>
        <time>2020-06-29T10:00:06Z</time>
      </trkpt>
      <trkpt lat="48.63903" lon="6.40113">
        <ele>210.8</ele>
        <time>2020-06-29T10:00:07Z</time>
      </trkpt>
      <trkpt lat="48.63903" lon="6.40106">
        <ele>210.9</ele>
        <time>2020-06-29T10:00:08Z</time>
      </trkpt>
      <trkpt lat="48.63901" lon="6.401">
        <ele>211</ele>
        <time>2020-06-29T10:00:09Z</time>
      </trkpt>
      <trkpt lat="48.63899" lon="6.40095">
        <ele>211</ele>
        <time>2020-06-29T10:00:10Z</time>
      </trkpt>
      <trkpt lat="48.63897" lon="6.40092">
        <ele>211.1</ele>
        <time>2020-06-29T10:00:11Z</time>
      </trkpt>
      <trkpt lat="48.63895" lon="6.40088">
        <ele>211.1</ele>
        <time>2020-06-29T10:00:12Z</time>
      </trkpt>
      <trkpt lat="48.63895" lon="6.40086">
        <ele>211.2</ele>
        <time>2020-06-29T10:00:13Z</time>
      </trkpt>
      <trkpt lat="48.63894" lon="6.40084">
        <ele>211.2</ele>
        <time>2020-06-29T10:00:14Z</time>
      </trkpt>
      <trkpt lat="48.63894" lon="6.40084">
        <ele>211.2</ele>
        <time>2020-06-29T10:00:15Z</time>
      </trkpt>
      <trkpt lat="48.63894" lon="6.40084">
        <ele>211.2</ele>
        <time>2020-06-29T10:00:16Z</time>
      </trkpt>
      <trkpt lat="48.63895" lon="6.40084">
        <ele>211.2</ele>
        <time>2020-06-29T10:00:17Z</time>
      </trkpt>
      <trkpt lat="48.63895" lon="6.40084">
        <ele>211.2</ele>
        <time>2020-06-29T10:00:18Z</time>
      </trkpt>
      <trkpt lat="48.63894" lon="6.40084">
        <ele>211.2</ele>
        <time>2020-06-29T10:00:19Z</time>
      </trkpt>
      <trkpt lat="48.63894" lon="6.40084">
        <ele>211.2</ele>
        <time>2020-06-29T10:00:20Z</time>
      </trkpt>
      <trkpt lat="48.63894" lon="6.40084">
        <ele>211.2</ele>
        <time>2020-06-29T10:00:21Z</time>
      </trkpt>
      <trkpt lat="48.63895" lon="6.40083">
        <ele>211.2</ele>
        <time>2020-06-29T10:00:22Z</time>
      </trkpt>
      <trkpt lat="48.63895" lon="6.40083">
        <ele>211.2</ele>
        <time>2020-06-29T10:00:23Z</time>
      </trkpt>
      <trkpt lat="48.63894" lon="6.40083">
        <ele>211.2</ele>
        <time>2020-06-29T10:00:24Z</time>
      </trkpt>
      <trkpt lat="48.63894" lon="6.40082">
        <ele>211.2</ele>
        <time>2020-06-29T10:00:25Z</time>
      </trkpt>
      <trkpt lat="48.63892" lon="6.40062">
        <ele>211.5</ele>
        <time>2020-06-29T10:06:15Z</time>
      </trkpt>
      <trkpt lat="48.63893" lon="6.4006">
        <ele>211.6</ele>
        <time>2020-06-29T10:06:16Z</time>
      </trkpt>
      <trkpt lat="48.63895" lon="6.40056">
        <ele>211.6</ele>
        <time>2020-06-29T10:06:17Z</time>
      </trkpt>
      <trkpt lat="48.63895" lon="6.40054">
        <ele>211.7</ele>
        <time>2020-06-29T10:06:18Z</time>
      </trkpt>
      <trkpt lat="48.63896" lon="6.40049">
        <ele>211.8</ele>
        <time>2020-06-29T10:06:19Z</time>
      </trkpt>
      <trkpt lat="48.63896" lon="6.40048">
        <ele>211.8</ele>
        <time>2020-06-29T10:06:20Z</time>
      </trkpt>
      <trkpt lat="48.63896" lon="6.40043">
        <ele>211.9</ele>
        <time>2020-06-29T10:06:21Z</time>
      </trkpt>
      <trkpt lat="48.63896" lon="6.40041">
        <ele>211.9</ele>
        <time>2020-06-29T10:06:22Z</time>
      </trkpt>
      <trkpt lat="48.63896" lon="6.40036">
        <ele>212.1</ele>
        <time>2020-06-29T10:06:23Z</time>
      </trkpt>
      <trkpt lat="48.63896" lon="6.40034">
        <ele>212.2</ele>
        <time>2020-06-29T10:06:24Z</time>
      </trkpt>
      <trkpt lat="48.63895" lon="6.4003">
        <ele>212.2</ele>
        <time>2020-06-29T10:06:25Z</time>
      </trkpt>
      <trkpt lat="48.63895" lon="6.40026">
        <ele>212.3</ele>
        <time>2020-06-29T10:06:26Z</time>
      </trkpt>
      <trkpt lat="48.63893" lon="6.40021">
        <ele>212.3</ele>
        <time>2020-06-29T10:06:27Z</time>
      </trkpt>
      <trkpt lat="48.63893" lon="6.40019">
        <ele>212.3</ele>
        <time>2020-06-29T10:06:28Z</time>
      </trkpt>
      <trkpt lat="48.63891" lon="6.40014">
        <ele>212.4</ele>
        <time>2020-06-29T10:06:29Z</time>
      </trkpt>
      <trkpt lat="48.63891" lon="6.40012">
        <ele>212.5</ele>
        <time>2020-06-29T10:06:30Z</time>
      </trkpt>
      <trkpt lat="48.6389" lon="6.40006">
        <ele>212.6</ele>
        <time>2020-06-29T10:06:31Z</time>
      </trkpt>
      <trkpt lat="48.6389" lon="6.40004">
        <ele>212.6</ele>
        <time>2020-06-29T10:06:32Z</time>
      </trkpt>
      <trkpt lat="48.63889" lon="6.39998">
        <ele>212.7</ele>
        <time>2020-06-29T10:06:33Z</time>
      </trkpt>
      <trkpt lat="48.63888" lon="6.39997">
        <ele>212.8</ele>
        <time>2020-06-29T10:06:34Z</time>
      </trkpt>
      <trkpt lat="48.63887" lon="6.39993">
        <ele>212.8</ele>
        <time>2020-06-29T10:06:35Z</time>
      </trkpt>
      <trkpt lat="48.63886" lon="6.39989">
        <ele>212.9</ele>
        <time>2020-06-29T10:06:36Z</time>
      </trkpt>
      <trkpt lat="48.63884" lon="6.39985">
        <ele>213</ele>
        <time>2020-06-29T10:06:37Z</time>
      </trkpt>
      <trkpt lat="48.63883" lon="6.39981">
        <ele>213.1</ele>
        <time>2020-06-29T10:06:38Z</time>
      </trkpt>
      <trkpt lat="48.63882" lon="6.39977">
        <ele>213.2</ele>
        <time>2020-06-29T10:06:39Z</time>
      </trkpt>
      <trkpt lat="48.63881" lon="6.39972">
        <ele>213.3</ele>
        <time>2020-06-29T10:06:40Z</time>
      </trkpt>
      <trkpt lat="48.63879" lon="6.39967">
        <ele>213.4</ele>
        <time>2020-06-29T10:06:41Z</time>
      </trkpt>
      <trkpt lat="48.63878" lon="6.39962">
        <ele>213.5</ele>
        <time>2020-06-29T10:06:42Z</time>
      </trkpt>
      <trkpt lat="48.63878" lon="6.39957">
        <ele>213.6</ele>
        <time>2020-06-29T10:06:43Z</time>
      </trkpt>
      <trkpt lat="48.63876" lon="6.39952">
        <ele>213.7</ele>
        <time>2020-06-29T10:06:44Z</time>
      </trkpt>
      <trkpt lat="48.63875" lon="6.39946">
        <ele>213.9</ele>
        <time>2020-06-29T10:06:45Z</time>
      </trkpt>
      <trkpt lat="48.63873" lon="6.39941">
        <ele>214</ele>
        <time>2020-06-29T10:06:46Z</time>
      </trkpt>
      <trkpt lat="48.63872" lon="6.39937">
        <ele>214.1</ele>
        <time>2020-06-29T10:06:47Z</time>
      </trkpt>
      <trkpt lat="48.63871" lon="6.39933">
        <ele>214.2</ele>
        <time>2020-06-29T10:06:48Z</time>
      </trkpt>
      <trkpt lat="48.6387" lon="6.39928">
        <ele>214.3</ele>
        <time>2020-06-29T10:06:49Z</time>
      </trkpt>
      <trkpt lat="48.6387" lon="6.39926">
        <ele>214.3</ele>
        <time>2020-06-29T10:06:50Z</time>
      </trkpt>
      <trkpt lat="48.63868" lon="6.39922">
        <ele>214.4</ele>
        <time>2020-06-29T10:06:51Z</time>
      </trkpt>
      <trkpt lat="48.63867" lon="6.39919">
        <ele>214.5</ele>
        <time>2020-06-29T10:06:52Z</time>
      </trkpt>
      <trkpt lat="48.63866" lon="6.39915">
        <ele>214.6</ele>
        <time>2020-06-29T10:06:53Z</time>
      </trkpt>
      <trkpt lat="48.63865" lon="6.39911">
        <ele>214.6</ele>
        <time>2020-06-29T10:06:54Z</time>
      </trkpt>
      <trkpt lat="48.63864" lon="6.39907">
        <ele>214.7</ele>
        <time>2020-06-29T10:06:55Z</time>
      </trkpt>
      <trkpt lat="48.63862" lon="6.39902">
        <ele>214.8</ele>
        <time>2020-06-29T10:06:56Z</time>
      </trkpt>
      <trkpt lat="48.63861" lon="6.39899">
        <ele>214.9</ele>
        <time>2020-06-29T10:06:57Z</time>
      </trkpt>
      <trkpt lat="48.6386" lon="6.39892">
        <ele>215</ele>
        <time>2020-06-29T10:06:58Z</time>
      </trkpt>
      <trkpt lat="48.63858" lon="6.39885">
        <ele>215.2</ele>
        <time>2020-06-29T10:06:59Z</time>
      </trkpt>
      <trkpt lat="48.63857" lon="6.39878">
        <ele>215.3</ele>
        <time>2020-06-29T10:07:00Z</time>
      </trkpt>
      <trkpt lat="48.63856" lon="6.39873">
        <ele>215.4</ele>
        <time>2020-06-29T10:07:01Z</time>
      </trkpt>
      <trkpt lat="48.63854" lon="6.39868">
        <ele>215.5</ele>
        <time>2020-06-29T10:07:02Z</time>
      </trkpt>
      <trkpt lat="48.63854" lon="6.39866">
        <ele>215.6</ele>
        <time>2020-06-29T10:07:03Z</time>
      </trkpt>
      <trkpt lat="48.63854" lon="6.39862">
        <ele>215.7</ele>
        <time>2020-06-29T10:07:04Z</time>
      </trkpt>
      <trkpt lat="48.63852" lon="6.39857">
        <ele>215.8</ele>
        <time>2020-06-29T10:07:05Z</time>
      </trkpt>
      <trkpt lat="48.6385" lon="6.39852">
        <ele>215.9</ele>
        <time>2020-06-29T10:07:06Z</time>
      </trkpt>
      <trkpt lat="48.63848" lon="6.39847">
        <ele>216.1</ele>
        <time>2020-06-29T10:07:07Z</time>
      </trkpt>
      <trkpt lat="48.63846" lon="6.39842">
        <ele>216.2</ele>
        <time>2020-06-29T10:07:08Z</time>
      </trkpt>
      <trkpt lat="48.63844" lon="6.39838">
        <ele>216.3</ele>
        <time>2020-06-29T10:07:09Z</time>
      </trkpt>
      <trkpt lat="48.63841" lon="6.39832">
        <ele>216.5</ele>
        <time>2020-06-29T10:07:10Z</time>
      </trkpt>
      <trkpt lat="48.63838" lon="6.3983">
        <ele>216.6</ele>
        <time>2020-06-29T10:07:11Z</time>
      </trkpt>
      <trkpt lat="48.63837" lon="6.39828">
        <ele>216.7</ele>
        <time>2020-06-29T10:07:12Z</time>
      </trkpt>
      <trkpt lat="48.63835" lon="6.39824">
        <ele>216.8</ele>
        <time>2020-06-29T10:07:13Z</time>
      </trkpt>
      <trkpt lat="48.63833" lon="6.39823">
        <ele>216.9</ele>
        <time>2020-06-29T10:07:14Z</time>
      </trkpt>
      <trkpt lat="48.63832" lon="6.39822">
        <ele>216.9</ele>
        <time>2020-06-29T10:07:15Z</time>
      </trkpt>
      <trkpt lat="48.6383" lon="6.39819">
        <ele>217</ele>
        <time>2020-06-29T10:07:16Z</time>
      </trkpt>
      <trkpt lat="48.63828" lon="6.39816">
        <ele>217.1</ele>
        <time>2020-06-29T10:07:17Z</time>
      </trkpt>
      <trkpt lat="48.63829" lon="6.39815">
        <ele>217.1</ele>
        <time>2020-06-29T10:07:18Z</time>
      </trkpt>
      <trkpt lat="48.63826" lon="6.3981">
        <ele>217.3</ele>
        <time>2020-06-29T10:07:19Z</time>
      </trkpt>
      <trkpt lat="48.63825" lon="6.39808">
        <ele>217.4</ele>
        <time>2020-06-29T10:07:20Z</time>
      </trkpt>
      <trkpt lat="48.63822" lon="6.39805">
        <ele>217.5</ele>
        <time>2020-06-29T10:07:21Z</time>
      </trkpt>
      <trkpt lat="48.63819" lon="6.398">
        <ele>217.6</ele>
        <time>2020-06-29T10:07:22Z</time>
      </trkpt>
      <trkpt lat="48.63817" lon="6.39797">
        <ele>217.8</ele>
        <time>2020-06-29T10:07:23Z</time>
      </trkpt>
      <trkpt lat="48.63815" lon="6.39793">
        <ele>217.9</ele>
        <time>2020-06-29T10:07:24Z</time>
      </trkpt>
      <trkpt lat="48.63812" lon="6.3979">
        <ele>217.9</ele>
        <time>2020-06-29T10:07:25Z</time>
      </trkpt>
      <trkpt lat="48.63809" lon="6.39785">
        <ele>218</ele>
        <time>2020-06-29T10:07:26Z</time>
      </trkpt>
      <trkpt lat="48.63805" lon="6.39781">
        <ele>218.1</ele>
        <time>2020-06-29T10:07:27Z</time>
      </trkpt>
      <trkpt lat="48.63802" lon="6.39777">
        <ele>218.1</ele>
        <time>2020-06-29T10:07:28Z</time>
      </trkpt>
      <trkpt lat="48.638" lon="6.39774">
        <ele>218.2</ele>
        <time>2020-06-29T10:07:29Z</time>
      </trkpt>
      <trkpt lat="48.63796" lon="6.3977">
        <ele>218.3</ele>
        <time>2020-06-29T10:07:30Z</time>
      </trkpt>
      <trkpt lat="48.63792" lon="6.39766">
        <ele>218.4</ele>
        <time>2020-06-29T10:07:31Z</time>
      </trkpt>
      <trkpt lat="48.63788" lon="6.39764">
        <ele>218.6</ele>
        <time>2020-06-29T10:07:32Z</time>
      </trkpt>
      <trkpt lat="48.63783" lon="6.39761">
        <ele>218.7</ele>
        <time>2020-06-29T10:07:33Z</time>
      </trkpt>
      <trkpt lat="48.63779" lon="6.39758">
        <ele>218.7</ele>
        <time>2020-06-29T10:07:34Z</time>
      </trkpt>
      <trkpt lat="48.63775" lon="6.39754">
        <ele>218.8</ele>
        <time>2020-06-29T10:07:35Z</time>
      </trkpt>
      <trkpt lat="48.63772" lon="6.3975">
        <ele>218.8</ele>
        <time>2020-06-29T10:07:36Z</time>
      </trkpt>
      <trkpt lat="48.63769" lon="6.39747">
        <ele>218.9</ele>
        <time>2020-06-29T10:07:37Z</time>
      </trkpt>
      <trkpt lat="48.63766" lon="6.39745">
        <ele>218.9</ele>
        <time>2020-06-29T10:07:38Z</time>
      </trkpt>
      <trkpt lat="48.63764" lon="6.39742">
        <ele>218.9</ele>
        <time>2020-06-29T10:07:39Z</time>
      </trkpt>
      <trkpt lat="48.63761" lon="6.39739">
        <ele>218.9</ele>
        <time>2020-06-29T10:07:40Z</time>
      </trkpt>
      <trkpt lat="48.63758" lon="6.39735">
        <ele>218.9</ele>
        <time>2020-06-29T10:07:41Z</time>
      </trkpt>
      <trkpt lat="48.63756" lon="6.39733">
        <ele>218.8</ele>
        <time>2020-06-29T10:07:42Z</time>
      </trkpt>
      <trkpt lat="48.63753" lon="6.39728">
        <ele>218.8</ele>
        <time>2020-06-29T10:07:43Z</time>
      </trkpt>
      <trkpt lat="48.6375" lon="6.39725">
        <ele>218.7</ele>
        <time>2020-06-29T10:07:44Z</time>
      </trkpt>
      <trkpt lat="48.63746" lon="6.39722">
        <ele>218.7</ele>
        <time>2020-06-29T10:07:45Z</time>
      </trkpt>
      <trkpt lat="48.63743" lon="6.39719">
        <ele>218.6</ele>
        <time>2020-06-29T10:07:46Z</time>
      </trkpt>
      <trkpt lat="48.63739" lon="6.39715">
        <ele>218.5</ele>
        <time>2020-06-29T10:07:47Z</time>
      </trkpt>
      <trkpt lat="48.63736" lon="6.39711">
        <ele>218.4</ele>
        <time>2020-06-29T10:07:48Z</time>
      </trkpt>
      <trkpt lat="48.63732" lon="6.39707">
        <ele>218.3</ele>
        <time>2020-06-29T10:07:49Z</time>
      </trkpt>
      <trkpt lat="48.63728" lon="6.39703">
        <ele>218.2</ele>
        <time>2020-06-29T10:07:50Z</time>
      </trkpt>
      <trkpt lat="48.63725" lon="6.39698">
        <ele>218.1</ele>
        <time>2020-06-29T10:07:51Z</time>
      </trkpt>
      <trkpt lat="48.63721" lon="6.39695">
        <ele>218</ele>
        <time>2020-06-29T10:07:52Z</time>
      </trkpt>
      <trkpt lat="48.63718" lon="6.39691">
        <ele>217.9</ele>
        <time>2020-06-29T10:07:53Z</time>
      </trkpt>
      <trkpt lat="48.63714" lon="6.39686">
        <ele>217.8</ele>
        <time>2020-06-29T10:07:54Z</time>
      </trkpt>
      <trkpt lat="48.6371" lon="6.39682">
        <ele>217.7</ele>
        <time>2020-06-29T10:07:55Z</time>
      </trkpt>
      <trkpt lat="48.63705" lon="6.39676">
        <ele>217.6</ele>
        <time>2020-06-29T10:07:56Z</time>
      </trkpt>
      <trkpt lat="48.637" lon="6.39671">
        <ele>217.5</ele>
        <time>2020-06-29T10:07:57Z</time>
      </trkpt>
      <trkpt lat="48.63696" lon="6.39666">
        <ele>217.3</ele>
        <time>2020-06-29T10:07:58Z</time>
      </trkpt>
      <trkpt lat="48.63691" lon="6.3966">
        <ele>217</ele>
        <time>2020-06-29T10:07:59Z</time>
      </trkpt>
      <trkpt lat="48.63686" lon="6.39654">
        <ele>216.8</ele>
        <time>2020-06-29T10:08:00Z</time>
      </trkpt>
      <trkpt lat="48.63681" lon="6.39648">
        <ele>216.6</ele>
        <time>2020-06-29T10:08:01Z</time>
      </trkpt>
      <trkpt lat="48.63676" lon="6.39642">
        <ele>216.3</ele>
        <time>2020-06-29T10:08:02Z</time>
      </trkpt>
      <trkpt lat="48.63672" lon="6.39636">
        <ele>216</ele>
        <time>2020-06-29T10:08:03Z</time>
      </trkpt>
      <trkpt lat="48.63667" lon="6.3963">
        <ele>215.8</ele>
        <time>2020-06-29T10:08:04Z</time>
      </trkpt>
      <trkpt lat="48.63663" lon="6.39623">
        <ele>215.5</ele>
        <time>2020-06-29T10:08:05Z</time>
      </trkpt>
      <trkpt lat="48.63658" lon="6.39618">
        <ele>215.3</ele>
        <time>2020-06-29T10:08:06Z</time>
      </trkpt>
      <trkpt lat="48.63652" lon="6.39611">
        <ele>215.1</ele>
        <time>2020-06-29T10:08:07Z</time>
      </trkpt>
      <trkpt lat="48.63646" lon="6.39606">
        <ele>214.8</ele>
        <time>2020-06-29T10:08:08Z</time>
      </trkpt>
      <trkpt lat="48.6364" lon="6.396">
        <ele>214.6</ele>
        <time>2020-06-29T10:08:09Z</time>
      </trkpt>
      <trkpt lat="48.63634" lon="6.39595">
        <ele>214.4</ele>
        <time>2020-06-29T10:08:10Z</time>
      </trkpt>
      <trkpt lat="48.63629" lon="6.39589">
        <ele>214.1</ele>
        <time>2020-06-29T10:08:11Z</time>
      </trkpt>
      <trkpt lat="48.63623" lon="6.39583">
        <ele>213.9</ele>
        <time>2020-06-29T10:08:12Z</time>
      </trkpt>
      <trkpt lat="48.63618" lon="6.39578">
        <ele>213.7</ele>
        <time>2020-06-29T10:08:13Z</time>
      </trkpt>
      <trkpt lat="48.63613" lon="6.39572">
        <ele>213.4</ele>
        <time>2020-06-29T10:08:14Z</time>
      </trkpt>
      <trkpt lat="48.63607" lon="6.39566">
        <ele>213.2</ele>
        <time>2020-06-29T10:08:15Z</time>
      </trkpt>
      <trkpt lat="48.63602" lon="6.3956">
        <ele>212.9</ele>
        <time>2020-06-29T10:08:16Z</time>
      </trkpt>
      <trkpt lat="48.63597" lon="6.39554">
        <ele>212.7</ele>
        <time>2020-06-29T10:08:17Z</time>
      </trkpt>
      <trkpt lat="48.63592" lon="6.39546">
        <ele>212.4</ele>
        <time>2020-06-29T10:08:18Z</time>
      </trkpt>
      <trkpt lat="48.63586" lon="6.39539">
        <ele>212.1</ele>
        <time>2020-06-29T10:08:19Z</time>
      </trkpt>
      <trkpt lat="48.6358" lon="6.39532">
        <ele>211.9</ele>
        <time>2020-06-29T10:08:20Z</time>
      </trkpt>
      <trkpt lat="48.63575" lon="6.39525">
        <ele>211.7</ele>
        <time>2020-06-29T10:08:21Z</time>
      </trkpt>
      <trkpt lat="48.63569" lon="6.39518">
        <ele>211.5</ele>
        <time>2020-06-29T10:08:22Z</time>
      </trkpt>
      <trkpt lat="48.63562" lon="6.39511">
        <ele>211.3</ele>
        <time>2020-06-29T10:08:23Z</time>
      </trkpt>
      <trkpt lat="48.63556" lon="6.39504">
        <ele>211.1</ele>
        <time>2020-06-29T10:08:24Z</time>
      </trkpt>
      <trkpt lat="48.6355" lon="6.39497">
        <ele>210.9</ele>
        <time>2020-06-29T10:08:25Z</time>
      </trkpt>
      <trkpt lat="48.63544" lon="6.39491">
        <ele>210.7</ele>
        <time>2020-06-29T10:08:26Z</time>
      </trkpt>
      <trkpt lat="48.63538" lon="6.39484">
        <ele>210.5</ele>
        <time>2020-06-29T10:08:27Z</time>
      </trkpt>
      <trkpt lat="48.63532" lon="6.39477">
        <ele>210.3</ele>
        <time>2020-06-29T10:08:28Z</time>
      </trkpt>
      <trkpt lat="48.63526" lon="6.3947">
        <ele>210.2</ele>
        <time>2020-06-29T10:08:29Z</time>
      </trkpt>
      <trkpt lat="48.6352" lon="6.39463">
        <ele>210.1</ele>
        <time>2020-06-29T10:08:30Z</time>
      </trkpt>
      <trkpt lat="48.63514" lon="6.39457">
        <ele>210</ele>
        <time>2020-06-29T10:08:31Z</time>
      </trkpt>
      <trkpt lat="48.63508" lon="6.3945">
        <ele>209.9</ele>
        <time>2020-06-29T10:08:32Z</time>
      </trkpt>
      <trkpt lat="48.63502" lon="6.39444">
        <ele>209.8</ele>
        <time>2020-06-29T10:08:33Z</time>
      </trkpt>
      <trkpt lat="48.63496" lon="6.39438">
        <ele>209.8</ele>
        <time>2020-06-29T10:08:34Z</time>
      </trkpt>
      <trkpt lat="48.63491" lon="6.39432">
        <ele>209.7</ele>
        <time>2020-06-29T10:08:35Z</time>
      </trkpt>
      <trkpt lat="48.63485" lon="6.39426">
        <ele>209.6</ele>
        <time>2020-06-29T10:08:36Z</time>
      </trkpt>
      <trkpt lat="48.6348" lon="6.3942">
        <ele>209.6</ele>
        <time>2020-06-29T10:08:37Z</time>
      </trkpt>
      <trkpt lat="48.63474" lon="6.39415">
        <ele>209.6</ele>
        <time>2020-06-29T10:08:38Z</time>
      </trkpt>
      <trkpt lat="48.63469" lon="6.39409">
        <ele>209.6</ele>
        <time>2020-06-29T10:08:39Z</time>
      </trkpt>
      <trkpt lat="48.63464" lon="6.39402">
        <ele>209.6</ele>
        <time>2020-06-29T10:08:40Z</time>
      </trkpt>
      <trkpt lat="48.63459" lon="6.39396">
        <ele>209.6</ele>
        <time>2020-06-29T10:08:41Z</time>
      </trkpt>
      <trkpt lat="48.63454" lon="6.39391">
        <ele>209.6</ele>
        <time>2020-06-29T10:08:42Z</time>
      </trkpt>
      <trkpt lat="48.63449" lon="6.39385">
        <ele>209.6</ele>
        <time>2020-06-29T10:08:43Z</time>
      </trkpt>
      <trkpt lat="48.63444" lon="6.39379">
        <ele>209.6</ele>
        <time>2020-06-29T10:08:44Z</time>
      </trkpt>
      <trkpt lat="48.63439" lon="6.39373">
        <ele>209.6</ele>
        <time>2020-06-29T10:08:45Z</time>
      </trkpt>
      <trkpt lat="48.63434" lon="6.39368">
        <ele>209.6</ele>
        <time>2020-06-29T10:08:46Z</time>
      </trkpt>
      <trkpt lat="48.63429" lon="6.39362">
        <ele>209.6</ele>
        <time>2020-06-29T10:08:47Z</time>
      </trkpt>
      <trkpt lat="48.63424" lon="6.39356">
        <ele>209.6</ele>
        <time>2020-06-29T10:08:48Z</time>
      </trkpt>
      <trkpt lat="48.63419" lon="6.3935">
        <ele>209.6</ele>
        <time>2020-06-29T10:08:49Z</time>
      </trkpt>
      <trkpt lat="48.63414" lon="6.39345">
        <ele>209.6</ele>
        <time>2020-06-29T10:08:50Z</time>
      </trkpt>
      <trkpt lat="48.63409" lon="6.39339">
        <ele>209.6</ele>
        <time>2020-06-29T10:08:51Z</time>
      </trkpt>
      <trkpt lat="48.63405" lon="6.39333">
        <ele>209.6</ele>
        <time>2020-06-29T10:08:52Z</time>
      </trkpt>
      <trkpt lat="48.634" lon="6.39325">
        <ele>209.6</ele>
        <time>2020-06-29T10:08:53Z</time>
      </trkpt>
      <trkpt lat="48.63396" lon="6.39319">
        <ele>209.6</ele>
        <time>2020-06-29T10:08:54Z</time>
      </trkpt>
      <trkpt lat="48.63392" lon="6.39311">
        <ele>209.6</ele>
        <time>2020-06-29T10:08:55Z</time>
      </trkpt>
      <trkpt lat="48.63388" lon="6.39303">
        <ele>209.7</ele>
        <time>2020-06-29T10:08:56Z</time>
      </trkpt>
      <trkpt lat="48.63385" lon="6.39294">
        <ele>209.7</ele>
        <time>2020-06-29T10:08:57Z</time>
      </trkpt>
      <trkpt lat="48.63383" lon="6.39286">
        <ele>209.7</ele>
        <time>2020-06-29T10:08:58Z</time>
      </trkpt>
      <trkpt lat="48.63379" lon="6.39278">
        <ele>209.7</ele>
        <time>2020-06-29T10:08:59Z</time>
      </trkpt>
      <trkpt lat="48.63376" lon="6.3927">
        <ele>209.7</ele>
        <time>2020-06-29T10:09:00Z</time>
      </trkpt>
      <trkpt lat="48.63374" lon="6.39261">
        <ele>209.7</ele>
        <time>2020-06-29T10:09:01Z</time>
      </trkpt>
      <trkpt lat="48.63371" lon="6.39252">
        <ele>209.7</ele>
        <time>2020-06-29T10:09:02Z</time>
      </trkpt>
      <trkpt lat="48.63369" lon="6.39243">
        <ele>209.7</ele>
        <time>2020-06-29T10:09:03Z</time>
      </trkpt>
      <trkpt lat="48.63366" lon="6.39233">
        <ele>209.7</ele>
        <time>2020-06-29T10:09:04Z</time>
      </trkpt>
      <trkpt lat="48.63364" lon="6.39223">
        <ele>209.7</ele>
        <time>2020-06-29T10:09:05Z</time>
      </trkpt>
      <trkpt lat="48.63362" lon="6.39214">
        <ele>209.7</ele>
        <time>2020-06-29T10:09:06Z</time>
      </trkpt>
      <trkpt lat="48.6336" lon="6.39205">
        <ele>209.8</ele>
        <time>2020-06-29T10:09:07Z</time>
      </trkpt>
      <trkpt lat="48.63358" lon="6.39197">
        <ele>209.8</ele>
        <time>2020-06-29T10:09:08Z</time>
      </trkpt>
      <trkpt lat="48.63356" lon="6.39187">
        <ele>209.9</ele>
        <time>2020-06-29T10:09:09Z</time>
      </trkpt>
      <trkpt lat="48.63354" lon="6.39178">
        <ele>209.9</ele>
        <time>2020-06-29T10:09:10Z</time>
      </trkpt>
      <trkpt lat="48.63353" lon="6.39169">
        <ele>210</ele>
        <time>2020-06-29T10:09:11Z</time>
      </trkpt>
      <trkpt lat="48.63352" lon="6.3916">
        <ele>210</ele>
        <time>2020-06-29T10:09:12Z</time>
      </trkpt>
      <trkpt lat="48.6335" lon="6.39151">
        <ele>210</ele>
        <time>2020-06-29T10:09:13Z</time>
      </trkpt>
      <trkpt lat="48.63349" lon="6.39142">
        <ele>210.1</ele>
        <time>2020-06-29T10:09:14Z</time>
      </trkpt>
      <trkpt lat="48.63347" lon="6.39133">
        <ele>210.1</ele>
        <time>2020-06-29T10:09:15Z</time>
      </trkpt>
      <trkpt lat="48.63345" lon="6.39124">
        <ele>210.1</ele>
        <time>2020-06-29T10:09:16Z</time>
      </trkpt>
      <trkpt lat="48.63344" lon="6.39115">
        <ele>210.1</ele>
        <time>2020-06-29T10:09:17Z</time>
      </trkpt>
      <trkpt lat="48.63343" lon="6.39107">
        <ele>210.1</ele>
        <time>2020-06-29T10:09:18Z</time>
      </trkpt>
      <trkpt lat="48.63341" lon="6.39099">
        <ele>210.1</ele>
        <time>2020-06-29T10:09:19Z</time>
      </trkpt>
      <trkpt lat="48.63339" lon="6.39092">
        <ele>210.2</ele>
        <time>2020-06-29T10:09:20Z</time>
      </trkpt>
      <trkpt lat="48.63337" lon="6.39082">
        <ele>210.2</ele>
        <time>2020-06-29T10:09:21Z</time>
      </trkpt>
      <trkpt lat="48.63336" lon="6.39073">
        <ele>210.2</ele>
        <time>2020-06-29T10:09:22Z</time>
      </trkpt>
      <trkpt lat="48.63335" lon="6.39065">
        <ele>210.2</ele>
        <time>2020-06-29T10:09:23Z</time>
      </trkpt>
      <trkpt lat="48.63332" lon="6.39057">
        <ele>210.3</ele>
        <time>2020-06-29T10:09:24Z</time>
      </trkpt>
      <trkpt lat="48.63331" lon="6.39048">
        <ele>210.3</ele>
        <time>2020-06-29T10:09:25Z</time>
      </trkpt>
      <trkpt lat="48.63329" lon="6.39038">
        <ele>210.4</ele>
        <time>2020-06-29T10:09:26Z</time>
      </trkpt>
      <trkpt lat="48.63327" lon="6.39029">
        <ele>210.4</ele>
        <time>2020-06-29T10:09:27Z</time>
      </trkpt>
      <trkpt lat="48.63326" lon="6.39021">
        <ele>210.5</ele>
        <time>2020-06-29T10:09:28Z</time>
      </trkpt>
      <trkpt lat="48.63324" lon="6.39011">
        <ele>210.6</ele>
        <time>2020-06-29T10:09:29Z</time>
      </trkpt>
      <trkpt lat="48.63322" lon="6.39002">
        <ele>210.6</ele>
        <time>2020-06-29T10:09:30Z</time>
      </trkpt>
      <trkpt lat="48.6332" lon="6.38994">
        <ele>210.7</ele>
        <time>2020-06-29T10:09:31Z</time>
      </trkpt>
      <trkpt lat="48.63318" lon="6.38984">
        <ele>210.7</ele>
        <time>2020-06-29T10:09:32Z</time>
      </trkpt>
      <trkpt lat="48.63316" lon="6.38976">
        <ele>210.8</ele>
        <time>2020-06-29T10:09:33Z</time>
      </trkpt>
      <trkpt lat="48.63314" lon="6.38968">
        <ele>210.8</ele>
        <time>2020-06-29T10:09:34Z</time>
      </trkpt>
      <trkpt lat="48.63313" lon="6.38958">
        <ele>210.9</ele>
        <time>2020-06-29T10:09:35Z</time>
      </trkpt>
      <trkpt lat="48.63311" lon="6.38948">
        <ele>210.9</ele>
        <time>2020-06-29T10:09:36Z</time>
      </trkpt>
      <trkpt lat="48.6331" lon="6.38941">
        <ele>210.9</ele>
        <time>2020-06-29T10:09:37Z</time>
      </trkpt>
      <trkpt lat="48.63308" lon="6.38935">
        <ele>210.9</ele>
        <time>2020-06-29T10:09:38Z</time>
      </trkpt>
      <trkpt lat="48.63306" lon="6.38926">
        <ele>211</ele>
        <time>2020-06-29T10:09:39Z</time>
      </trkpt>
      <trkpt lat="48.63305" lon="6.38919">
        <ele>211</ele>
        <time>2020-06-29T10:09:40Z</time>
      </trkpt>
      <trkpt lat="48.63303" lon="6.38909">
        <ele>211</ele>
        <time>2020-06-29T10:09:41Z</time>
      </trkpt>
      <trkpt lat="48.63301" lon="6.389">
        <ele>211.1</ele>
        <time>2020-06-29T10:09:42Z</time>
      </trkpt>
      <trkpt lat="48.63299" lon="6.3889">
        <ele>211.2</ele>
        <time>2020-06-29T10:09:43Z</time>
      </trkpt>
      <trkpt lat="48.63297" lon="6.3888">
        <ele>211.2</ele>
        <time>2020-06-29T10:09:44Z</time>
      </trkpt>
      <trkpt lat="48.63295" lon="6.38871">
        <ele>211.3</ele>
        <time>2020-06-29T10:09:45Z</time>
      </trkpt>
      <trkpt lat="48.63293" lon="6.38862">
        <ele>211.3</ele>
        <time>2020-06-29T10:09:46Z</time>
      </trkpt>
      <trkpt lat="48.63291" lon="6.38852">
        <ele>211.4</ele>
        <time>2020-06-29T10:09:47Z</time>
      </trkpt>
      <trkpt lat="48.63289" lon="6.38844">
        <ele>211.5</ele>
        <time>2020-06-29T10:09:48Z</time>
      </trkpt>
      <trkpt lat="48.63287" lon="6.38836">
        <ele>211.6</ele>
        <time>2020-06-29T10:09:49Z</time>
      </trkpt>
      <trkpt lat="48.63285" lon="6.38827">
        <ele>211.7</ele>
        <time>2020-06-29T10:09:50Z</time>
      </trkpt>
      <trkpt lat="48.63283" lon="6.38818">
        <ele>211.8</ele>
        <time>2020-06-29T10:09:51Z</time>
      </trkpt>
      <trkpt lat="48.63281" lon="6.38809">
        <ele>211.9</ele>
        <time>2020-06-29T10:09:52Z</time>
      </trkpt>
      <trkpt lat="48.63279" lon="6.38801">
        <ele>212</ele>
        <time>2020-06-29T10:09:53Z</time>
      </trkpt>
      <trkpt lat="48.63277" lon="6.38792">
        <ele>212.2</ele>
        <time>2020-06-29T10:09:54Z</time>
      </trkpt>
      <trkpt lat="48.63275" lon="6.38783">
        <ele>212.3</ele>
        <time>2020-06-29T10:09:55Z</time>
      </trkpt>
      <trkpt lat="48.63273" lon="6.38773">
        <ele>212.5</ele>
        <time>2020-06-29T10:09:56Z</time>
      </trkpt>
      <trkpt lat="48.63271" lon="6.38765">
        <ele>212.6</ele>
        <time>2020-06-29T10:09:57Z</time>
      </trkpt>
      <trkpt lat="48.63269" lon="6.38757">
        <ele>212.8</ele>
        <time>2020-06-29T10:09:58Z</time>
      </trkpt>
      <trkpt lat="48.63267" lon="6.38749">
        <ele>213</ele>
        <time>2020-06-29T10:09:59Z</time>
      </trkpt>
      <trkpt lat="48.63265" lon="6.3874">
        <ele>213.1</ele>
        <time>2020-06-29T10:10:00Z</time>
      </trkpt>
      <trkpt lat="48.63263" lon="6.38732">
        <ele>213.3</ele>
        <time>2020-06-29T10:10:01Z</time>
      </trkpt>
      <trkpt lat="48.63262" lon="6.38723">
        <ele>213.4</ele>
        <time>2020-06-29T10:10:02Z</time>
      </trkpt>
      <trkpt lat="48.6326" lon="6.38715">
        <ele>213.6</ele>
        <time>2020-06-29T10:10:03Z</time>
      </trkpt>
      <trkpt lat="48.63258" lon="6.38708">
        <ele>213.7</ele>
        <time>2020-06-29T10:10:04Z</time>
      </trkpt>
      <trkpt lat="48.63258" lon="6.38702">
        <ele>213.8</ele>
        <time>2020-06-29T10:10:05Z</time>
      </trkpt>
      <trkpt lat="48.63256" lon="6.38695">
        <ele>214</ele>
        <time>2020-06-29T10:10:06Z</time>
      </trkpt>
      <trkpt lat="48.63254" lon="6.38688">
        <ele>214.2</ele>
        <time>2020-06-29T10:10:07Z</time>
      </trkpt>
      <trkpt lat="48.63252" lon="6.38682">
        <ele>214.3</ele>
        <time>2020-06-29T10:10:08Z</time>
      </trkpt>
      <trkpt lat="48.6325" lon="6.38677">
        <ele>214.5</ele>
        <time>2020-06-29T10:10:09Z</time>
      </trkpt>
      <trkpt lat="48.63248" lon="6.38669">
        <ele>214.7</ele>
        <time>2020-06-29T10:10:10Z</time>
      </trkpt>
      <trkpt lat="48.63247" lon="6.38664">
        <ele>214.8</ele>
        <time>2020-06-29T10:10:11Z</time>
      </trkpt>
      <trkpt lat="48.63246" lon="6.38657">
        <ele>214.9</ele>
        <time>2020-06-29T10:10:12Z</time>
      </trkpt>
      <trkpt lat="48.63245" lon="6.38651">
        <ele>215</ele>
        <time>2020-06-29T10:10:13Z</time>
      </trkpt>
      <trkpt lat="48.63244" lon="6.38644">
        <ele>215.2</ele>
        <time>2020-06-29T10:10:14Z</time>
      </trkpt>
      <trkpt lat="48.63243" lon="6.38638">
        <ele>215.3</ele>
        <time>2020-06-29T10:10:15Z</time>
      </trkpt>
      <trkpt lat="48.63241" lon="6.3863">
        <ele>215.4</ele>
        <time>2020-06-29T10:10:16Z</time>
      </trkpt>
      <trkpt lat="48.63239" lon="6.38624">
        <ele>215.6</ele>
        <time>2020-06-29T10:10:17Z</time>
      </trkpt>
      <trkpt lat="48.63237" lon="6.38617">
        <ele>215.7</ele>
        <time>2020-06-29T10:10:18Z</time>
      </trkpt>
      <trkpt lat="48.63236" lon="6.38611">
        <ele>215.9</ele>
        <time>2020-06-29T10:10:19Z</time>
      </trkpt>
      <trkpt lat="48.63234" lon="6.38605">
        <ele>216</ele>
        <time>2020-06-29T10:10:20Z</time>
      </trkpt>
      <trkpt lat="48.63232" lon="6.38599">
        <ele>216.1</ele>
        <time>2020-06-29T10:10:21Z</time>
      </trkpt>
      <trkpt lat="48.6323" lon="6.38592">
        <ele>216.3</ele>
        <time>2020-06-29T10:10:22Z</time>
      </trkpt>
      <trkpt lat="48.63229" lon="6.38586">
        <ele>216.4</ele>
        <time>2020-06-29T10:10:23Z</time>
      </trkpt>
      <trkpt lat="48.63227" lon="6.38579">
        <ele>216.4</ele>
        <time>2020-06-29T10:10:24Z</time>
      </trkpt>
      <trkpt lat="48.63226" lon="6.38572">
        <ele>216.5</ele>
        <time>2020-06-29T10:10:25Z</time>
      </trkpt>
      <trkpt lat="48.63224" lon="6.38566">
        <ele>216.6</ele>
        <time>2020-06-29T10:10:26Z</time>
      </trkpt>
      <trkpt lat="48.63222" lon="6.38557">
        <ele>216.6</ele>
        <time>2020-06-29T10:10:27Z</time>
      </trkpt>
      <trkpt lat="48.63221" lon="6.3855">
        <ele>216.7</ele>
        <time>2020-06-29T10:10:28Z</time>
      </trkpt>
      <trkpt lat="48.63219" lon="6.38543">
        <ele>216.7</ele>
        <time>2020-06-29T10:10:29Z</time>
      </trkpt>
      <trkpt lat="48.63218" lon="6.38537">
        <ele>216.8</ele>
        <time>2020-06-29T10:10:30Z</time>
      </trkpt>
      <trkpt lat="48.63216" lon="6.3853">
        <ele>216.8</ele>
        <time>2020-06-29T10:10:31Z</time>
      </trkpt>
      <trkpt lat="48.63215" lon="6.38523">
        <ele>216.9</ele>
        <time>2020-06-29T10:10:32Z</time>
      </trkpt>
      <trkpt lat="48.63214" lon="6.38518">
        <ele>216.9</ele>
        <time>2020-06-29T10:10:33Z</time>
      </trkpt>
      <trkpt lat="48.63212" lon="6.38511">
        <ele>217</ele>
        <time>2020-06-29T10:10:34Z</time>
      </trkpt>
      <trkpt lat="48.6321" lon="6.38504">
        <ele>217.1</ele>
        <time>2020-06-29T10:10:35Z</time>
      </trkpt>
      <trkpt lat="48.63208" lon="6.38497">
        <ele>217.1</ele>
        <time>2020-06-29T10:10:36Z</time>
      </trkpt>
      <trkpt lat="48.63207" lon="6.3849">
        <ele>217.1</ele>
        <time>2020-06-29T10:10:37Z</time>
      </trkpt>
      <trkpt lat="48.63205" lon="6.38483">
        <ele>217.1</ele>
        <time>2020-06-29T10:10:38Z</time>
      </trkpt>
      <trkpt lat="48.63203" lon="6.38476">
        <ele>217</ele>
        <time>2020-06-29T10:10:39Z</time>
      </trkpt>
      <trkpt lat="48.63202" lon="6.38469">
        <ele>217</ele>
        <time>2020-06-29T10:10:40Z</time>
      </trkpt>
      <trkpt lat="48.63201" lon="6.38462">
        <ele>216.9</ele>
        <time>2020-06-29T10:10:41Z</time>
      </trkpt>
      <trkpt lat="48.632" lon="6.38455">
        <ele>216.9</ele>
        <time>2020-06-29T10:10:42Z</time>
      </trkpt>
      <trkpt lat="48.63199" lon="6.38447">
        <ele>216.8</ele>
        <time>2020-06-29T10:10:43Z</time>
      </trkpt>
      <trkpt lat="48.63199" lon="6.38439">
        <ele>216.7</ele>
        <time>2020-06-29T10:10:44Z</time>
      </trkpt>
      <trkpt lat="48.63198" lon="6.38431">
        <ele>216.5</ele>
        <time>2020-06-29T10:10:45Z</time>
      </trkpt>
      <trkpt lat="48.63198" lon="6.38424">
        <ele>216.4</ele>
        <time>2020-06-29T10:10:46Z</time>
      </trkpt>
      <trkpt lat="48.63197" lon="6.38415">
        <ele>216.2</ele>
        <time>2020-06-29T10:10:47Z</time>
      </trkpt>
      <trkpt lat="48.63197" lon="6.38407">
        <ele>216.1</ele>
        <time>2020-06-29T10:10:48Z</time>
      </trkpt>
      <trkpt lat="48.63196" lon="6.38396">
        <ele>215.9</ele>
        <time>2020-06-29T10:10:49Z</time>
      </trkpt>
      <trkpt lat="48.63195" lon="6.38387">
        <ele>215.7</ele>
        <time>2020-06-29T10:10:50Z</time>
      </trkpt>
      <trkpt lat="48.63195" lon="6.38376">
        <ele>215.4</ele>
        <time>2020-06-29T10:10:51Z</time>
      </trkpt>
      <trkpt lat="48.63194" lon="6.38366">
        <ele>215.3</ele>
        <time>2020-06-29T10:10:52Z</time>
      </trkpt>
      <trkpt lat="48.63193" lon="6.38357">
        <ele>215.1</ele>
        <time>2020-06-29T10:10:53Z</time>
      </trkpt>
      <trkpt lat="48.63193" lon="6.38346">
        <ele>214.9</ele>
        <time>2020-06-29T10:10:54Z</time>
      </trkpt>
      <trkpt lat="48.63192" lon="6.38336">
        <ele>214.7</ele>
        <time>2020-06-29T10:10:55Z</time>
      </trkpt>
      <trkpt lat="48.63192" lon="6.38325">
        <ele>214.4</ele>
        <time>2020-06-29T10:10:56Z</time>
      </trkpt>
      <trkpt lat="48.63191" lon="6.38314">
        <ele>214.1</ele>
        <time>2020-06-29T10:10:57Z</time>
      </trkpt>
      <trkpt lat="48.63192" lon="6.38304">
        <ele>213.9</ele>
        <time>2020-06-29T10:10:58Z</time>
      </trkpt>
      <trkpt lat="48.63191" lon="6.38293">
        <ele>213.7</ele>
        <time>2020-06-29T10:10:59Z</time>
      </trkpt>
      <trkpt lat="48.63191" lon="6.38283">
        <ele>213.5</ele>
        <time>2020-06-29T10:11:00Z</time>
      </trkpt>
      <trkpt lat="48.6319" lon="6.38272">
        <ele>213.2</ele>
        <time>2020-06-29T10:11:01Z</time>
      </trkpt>
      <trkpt lat="48.6319" lon="6.3826">
        <ele>213</ele>
        <time>2020-06-29T10:11:02Z</time>
      </trkpt>
      <trkpt lat="48.6319" lon="6.38249">
        <ele>212.8</ele>
        <time>2020-06-29T10:11:03Z</time>
      </trkpt>
      <trkpt lat="48.63189" lon="6.38239">
        <ele>212.6</ele>
        <time>2020-06-29T10:11:04Z</time>
      </trkpt>
      <trkpt lat="48.63189" lon="6.38228">
        <ele>212.5</ele>
        <time>2020-06-29T10:11:05Z</time>
      </trkpt>
      <trkpt lat="48.63189" lon="6.38217">
        <ele>212.4</ele>
        <time>2020-06-29T10:11:06Z</time>
      </trkpt>
      <trkpt lat="48.63188" lon="6.38206">
        <ele>212.3</ele>
        <time>2020-06-29T10:11:07Z</time>
      </trkpt>
      <trkpt lat="48.63189" lon="6.38196">
        <ele>212.2</ele>
        <time>2020-06-29T10:11:08Z</time>
      </trkpt>
      <trkpt lat="48.63189" lon="6.38186">
        <ele>212.1</ele>
        <time>2020-06-29T10:11:09Z</time>
      </trkpt>
      <trkpt lat="48.63189" lon="6.38175">
        <ele>212.1</ele>
        <time>2020-06-29T10:11:10Z</time>
      </trkpt>
      <trkpt lat="48.63189" lon="6.38165">
        <ele>212</ele>
        <time>2020-06-29T10:11:11Z</time>
      </trkpt>
      <trkpt lat="48.63188" lon="6.38155">
        <ele>211.9</ele>
        <time>2020-06-29T10:11:12Z</time>
      </trkpt>
      <trkpt lat="48.63188" lon="6.38146">
        <ele>211.8</ele>
        <time>2020-06-29T10:11:13Z</time>
      </trkpt>
      <trkpt lat="48.63187" lon="6.38137">
        <ele>211.8</ele>
        <time>2020-06-29T10:11:14Z</time>
      </trkpt>
      <trkpt lat="48.63187" lon="6.38127">
        <ele>211.8</ele>
        <time>2020-06-29T10:11:15Z</time>
      </trkpt>
      <trkpt lat="48.63186" lon="6.38118">
        <ele>211.7</ele>
        <time>2020-06-29T10:11:16Z</time>
      </trkpt>
      <trkpt lat="48.63185" lon="6.38109">
        <ele>211.7</ele>
        <time>2020-06-29T10:11:17Z</time>
      </trkpt>
      <trkpt lat="48.63184" lon="6.38101">
        <ele>211.7</ele>
        <time>2020-06-29T10:11:18Z</time>
      </trkpt>
      <trkpt lat="48.63184" lon="6.38093">
        <ele>211.7</ele>
        <time>2020-06-29T10:11:19Z</time>
      </trkpt>
      <trkpt lat="48.63184" lon="6.38085">
        <ele>211.6</ele>
        <time>2020-06-29T10:11:20Z</time>
      </trkpt>
      <trkpt lat="48.63184" lon="6.38076">
        <ele>211.6</ele>
        <time>2020-06-29T10:11:21Z</time>
      </trkpt>
      <trkpt lat="48.63185" lon="6.38067">
        <ele>211.6</ele>
        <time>2020-06-29T10:11:22Z</time>
      </trkpt>
      <trkpt lat="48.63184" lon="6.38058">
        <ele>211.5</ele>
        <time>2020-06-29T10:11:23Z</time>
      </trkpt>
      <trkpt lat="48.63184" lon="6.38049">
        <ele>211.5</ele>
        <time>2020-06-29T10:11:24Z</time>
      </trkpt>
      <trkpt lat="48.63184" lon="6.3804">
        <ele>211.4</ele>
        <time>2020-06-29T10:11:25Z</time>
      </trkpt>
      <trkpt lat="48.63185" lon="6.38031">
        <ele>211.3</ele>
        <time>2020-06-29T10:11:26Z</time>
      </trkpt>
      <trkpt lat="48.63185" lon="6.38022">
        <ele>211.3</ele>
        <time>2020-06-29T10:11:27Z</time>
      </trkpt>
      <trkpt lat="48.63185" lon="6.38013">
        <ele>211.2</ele>
        <time>2020-06-29T10:11:28Z</time>
      </trkpt>
      <trkpt lat="48.63184" lon="6.38004">
        <ele>211.1</ele>
        <time>2020-06-29T10:11:29Z</time>
      </trkpt>
      <trkpt lat="48.63184" lon="6.37995">
        <ele>211.1</ele>
        <time>2020-06-29T10:11:30Z</time>
      </trkpt>
      <trkpt lat="48.63183" lon="6.37985">
        <ele>211.1</ele>
        <time>2020-06-29T10:11:31Z</time>
      </trkpt>
      <trkpt lat="48.63181" lon="6.37975">
        <ele>211.1</ele>
        <time>2020-06-29T10:11:32Z</time>
      </trkpt>
      <trkpt lat="48.63181" lon="6.37965">
        <ele>211.1</ele>
        <time>2020-06-29T10:11:33Z</time>
      </trkpt>
      <trkpt lat="48.63181" lon="6.37956">
        <ele>211.1</ele>
        <time>2020-06-29T10:11:34Z</time>
      </trkpt>
      <trkpt lat="48.63181" lon="6.37946">
        <ele>211.2</ele>
        <time>2020-06-29T10:11:35Z</time>
      </trkpt>
      <trkpt lat="48.63181" lon="6.37936">
        <ele>211.2</ele>
        <time>2020-06-29T10:11:36Z</time>
      </trkpt>
      <trkpt lat="48.63182" lon="6.37926">
        <ele>211.1</ele>
        <time>2020-06-29T10:11:37Z</time>
      </trkpt>
      <trkpt lat="48.63183" lon="6.37916">
        <ele>211.1</ele>
        <time>2020-06-29T10:11:38Z</time>
      </trkpt>
      <trkpt lat="48.63184" lon="6.37905">
        <ele>211.1</ele>
        <time>2020-06-29T10:11:39Z</time>
      </trkpt>
      <trkpt lat="48.63185" lon="6.37895">
        <ele>211</ele>
        <time>2020-06-29T10:11:40Z</time>
      </trkpt>
      <trkpt lat="48.63185" lon="6.37886">
        <ele>211</ele>
        <time>2020-06-29T10:11:41Z</time>
      </trkpt>
      <trkpt lat="48.63185" lon="6.37876">
        <ele>211</ele>
        <time>2020-06-29T10:11:42Z</time>
      </trkpt>
      <trkpt lat="48.63185" lon="6.37866">
        <ele>211</ele>
        <time>2020-06-29T10:11:43Z</time>
      </trkpt>
      <trkpt lat="48.63185" lon="6.37857">
        <ele>211.1</ele>
        <time>2020-06-29T10:11:44Z</time>
      </trkpt>
      <trkpt lat="48.63185" lon="6.37847">
        <ele>211.1</ele>
        <time>2020-06-29T10:11:45Z</time>
      </trkpt>
      <trkpt lat="48.63186" lon="6.37838">
        <ele>211.1</ele>
        <time>2020-06-29T10:11:46Z</time>
      </trkpt>
      <trkpt lat="48.63187" lon="6.37828">
        <ele>211.1</ele>
        <time>2020-06-29T10:11:47Z</time>
      </trkpt>
      <trkpt lat="48.63187" lon="6.37818">
        <ele>211.1</ele>
        <time>2020-06-29T10:11:48Z</time>
      </trkpt>
      <trkpt lat="48.63187" lon="6.37808">
        <ele>211.1</ele>
        <time>2020-06-29T10:11:49Z</time>
      </trkpt>
      <trkpt lat="48.63187" lon="6.37797">
        <ele>211.2</ele>
        <time>2020-06-29T10:11:50Z</time>
      </trkpt>
      <trkpt lat="48.63187" lon="6.37789">
        <ele>211.2</ele>
        <time>2020-06-29T10:11:51Z</time>
      </trkpt>
      <trkpt lat="48.63187" lon="6.37779">
        <ele>211.2</ele>
        <time>2020-06-29T10:11:52Z</time>
      </trkpt>
      <trkpt lat="48.63187" lon="6.37769">
        <ele>211.2</ele>
        <time>2020-06-29T10:11:53Z</time>
      </trkpt>
      <trkpt lat="48.63187" lon="6.37759">
        <ele>211.2</ele>
        <time>2020-06-29T10:11:54Z</time>
      </trkpt>
      <trkpt lat="48.63187" lon="6.3775">
        <ele>211.3</ele>
        <time>2020-06-29T10:11:55Z</time>
      </trkpt>
      <trkpt lat="48.63187" lon="6.37742">
        <ele>211.4</ele>
        <time>2020-06-29T10:11:56Z</time>
      </trkpt>
      <trkpt lat="48.63186" lon="6.37733">
        <ele>211.5</ele>
        <time>2020-06-29T10:11:57Z</time>
      </trkpt>
      <trkpt lat="48.63186" lon="6.37724">
        <ele>211.5</ele>
        <time>2020-06-29T10:11:58Z</time>
      </trkpt>
      <trkpt lat="48.63187" lon="6.37714">
        <ele>211.7</ele>
        <time>2020-06-29T10:11:59Z</time>
      </trkpt>
      <trkpt lat="48.63187" lon="6.37706">
        <ele>211.7</ele>
        <time>2020-06-29T10:12:00Z</time>
      </trkpt>
      <trkpt lat="48.63187" lon="6.37695">
        <ele>211.8</ele>
        <time>2020-06-29T10:12:01Z</time>
      </trkpt>
      <trkpt lat="48.63188" lon="6.37686">
        <ele>211.9</ele>
        <time>2020-06-29T10:12:02Z</time>
      </trkpt>
      <trkpt lat="48.63189" lon="6.37678">
        <ele>212</ele>
        <time>2020-06-29T10:12:03Z</time>
      </trkpt>
      <trkpt lat="48.63189" lon="6.37669">
        <ele>212.1</ele>
        <time>2020-06-29T10:12:04Z</time>
      </trkpt>
      <trkpt lat="48.63189" lon="6.3766">
        <ele>212.2</ele>
        <time>2020-06-29T10:12:05Z</time>
      </trkpt>
      <trkpt lat="48.63189" lon="6.37653">
        <ele>212.2</ele>
        <time>2020-06-29T10:12:06Z</time>
      </trkpt>
      <trkpt lat="48.6319" lon="6.37642">
        <ele>212.3</ele>
        <time>2020-06-29T10:12:07Z</time>
      </trkpt>
      <trkpt lat="48.6319" lon="6.37633">
        <ele>212.4</ele>
        <time>2020-06-29T10:12:08Z</time>
      </trkpt>
      <trkpt lat="48.6319" lon="6.37624">
        <ele>212.4</ele>
        <time>2020-06-29T10:12:09Z</time>
      </trkpt>
      <trkpt lat="48.6319" lon="6.37615">
        <ele>212.5</ele>
        <time>2020-06-29T10:12:10Z</time>
      </trkpt>
      <trkpt lat="48.6319" lon="6.37606">
        <ele>212.6</ele>
        <time>2020-06-29T10:12:11Z</time>
      </trkpt>
      <trkpt lat="48.6319" lon="6.37596">
        <ele>212.6</ele>
        <time>2020-06-29T10:12:12Z</time>
      </trkpt>
      <trkpt lat="48.63191" lon="6.37588">
        <ele>212.7</ele>
        <time>2020-06-29T10:12:13Z</time>
      </trkpt>
      <trkpt lat="48.63191" lon="6.3758">
        <ele>212.7</ele>
        <time>2020-06-29T10:12:14Z</time>
      </trkpt>
      <trkpt lat="48.63191" lon="6.37572">
        <ele>212.8</ele>
        <time>2020-06-29T10:12:15Z</time>
      </trkpt>
      <trkpt lat="48.63191" lon="6.37563">
        <ele>212.8</ele>
        <time>2020-06-29T10:12:16Z</time>
      </trkpt>
      <trkpt lat="48.6319" lon="6.37553">
        <ele>212.8</ele>
        <time>2020-06-29T10:12:17Z</time>
      </trkpt>
      <trkpt lat="48.6319" lon="6.37545">
        <ele>212.9</ele>
        <time>2020-06-29T10:12:18Z</time>
      </trkpt>
      <trkpt lat="48.6319" lon="6.37537">
        <ele>212.9</ele>
        <time>2020-06-29T10:12:19Z</time>
      </trkpt>
      <trkpt lat="48.6319" lon="6.37528">
        <ele>212.9</ele>
        <time>2020-06-29T10:12:20Z</time>
      </trkpt>
      <trkpt lat="48.63189" lon="6.37519">
        <ele>212.9</ele>
        <time>2020-06-29T10:12:21Z</time>
      </trkpt>
      <trkpt lat="48.63187" lon="6.3751">
        <ele>212.9</ele>
        <time>2020-06-29T10:12:22Z</time>
      </trkpt>
      <trkpt lat="48.63186" lon="6.37499">
        <ele>213.1</ele>
        <time>2020-06-29T10:12:23Z</time>
      </trkpt>
      <trkpt lat="48.63184" lon="6.37488">
        <ele>213.2</ele>
        <time>2020-06-29T10:12:24Z</time>
      </trkpt>
      <trkpt lat="48.63182" lon="6.37479">
        <ele>213.2</ele>
        <time>2020-06-29T10:12:25Z</time>
      </trkpt>
      <trkpt lat="48.6318" lon="6.3747">
        <ele>213.2</ele>
        <time>2020-06-29T10:12:26Z</time>
      </trkpt>
      <trkpt lat="48.63179" lon="6.37462">
        <ele>213.3</ele>
        <time>2020-06-29T10:12:27Z</time>
      </trkpt>
      <trkpt lat="48.63177" lon="6.37453">
        <ele>213.3</ele>
        <time>2020-06-29T10:12:28Z</time>
      </trkpt>
      <trkpt lat="48.63176" lon="6.37443">
        <ele>213.3</ele>
        <time>2020-06-29T10:12:29Z</time>
      </trkpt>
      <trkpt lat="48.63174" lon="6.37435">
        <ele>213.3</ele>
        <time>2020-06-29T10:12:30Z</time>
      </trkpt>
      <trkpt lat="48.63173" lon="6.37429">
        <ele>213.3</ele>
        <time>2020-06-29T10:12:31Z</time>
      </trkpt>
      <trkpt lat="48.63171" lon="6.37421">
        <ele>213.3</ele>
        <time>2020-06-29T10:12:32Z</time>
      </trkpt>
      <trkpt lat="48.63169" lon="6.37413">
        <ele>213.3</ele>
        <time>2020-06-29T10:12:33Z</time>
      </trkpt>
      <trkpt lat="48.63167" lon="6.37404">
        <ele>213.3</ele>
        <time>2020-06-29T10:12:34Z</time>
      </trkpt>
      <trkpt lat="48.63166" lon="6.37395">
        <ele>213.2</ele>
        <time>2020-06-29T10:12:35Z</time>
      </trkpt>
      <trkpt lat="48.63164" lon="6.37386">
        <ele>213.2</ele>
        <time>2020-06-29T10:12:36Z</time>
      </trkpt>
      <trkpt lat="48.63163" lon="6.37377">
        <ele>213.2</ele>
        <time>2020-06-29T10:12:37Z</time>
      </trkpt>
      <trkpt lat="48.63162" lon="6.37368">
        <ele>213.1</ele>
        <time>2020-06-29T10:12:38Z</time>
      </trkpt>
      <trkpt lat="48.63162" lon="6.37362">
        <ele>213.1</ele>
        <time>2020-06-29T10:12:39Z</time>
      </trkpt>
      <trkpt lat="48.63161" lon="6.37354">
        <ele>213</ele>
        <time>2020-06-29T10:12:40Z</time>
      </trkpt>
      <trkpt lat="48.6316" lon="6.37345">
        <ele>212.9</ele>
        <time>2020-06-29T10:12:41Z</time>
      </trkpt>
      <trkpt lat="48.63159" lon="6.37337">
        <ele>212.8</ele>
        <time>2020-06-29T10:12:42Z</time>
      </trkpt>
      <trkpt lat="48.63158" lon="6.37328">
        <ele>212.8</ele>
        <time>2020-06-29T10:12:43Z</time>
      </trkpt>
      <trkpt lat="48.63157" lon="6.37321">
        <ele>212.7</ele>
        <time>2020-06-29T10:12:44Z</time>
      </trkpt>
      <trkpt lat="48.63156" lon="6.37312">
        <ele>212.6</ele>
        <time>2020-06-29T10:12:45Z</time>
      </trkpt>
      <trkpt lat="48.63155" lon="6.37305">
        <ele>212.5</ele>
        <time>2020-06-29T10:12:46Z</time>
      </trkpt>
      <trkpt lat="48.63155" lon="6.37299">
        <ele>212.5</ele>
        <time>2020-06-29T10:12:47Z</time>
      </trkpt>
      <trkpt lat="48.63154" lon="6.37294">
        <ele>212.4</ele>
        <time>2020-06-29T10:12:48Z</time>
      </trkpt>
      <trkpt lat="48.63153" lon="6.37288">
        <ele>212.3</ele>
        <time>2020-06-29T10:12:49Z</time>
      </trkpt>
      <trkpt lat="48.63152" lon="6.37279">
        <ele>212.2</ele>
        <time>2020-06-29T10:12:50Z</time>
      </trkpt>
      <trkpt lat="48.63152" lon="6.3727">
        <ele>212.1</ele>
        <time>2020-06-29T10:12:51Z</time>
      </trkpt>
      <trkpt lat="48.63152" lon="6.3726">
        <ele>212</ele>
        <time>2020-06-29T10:12:52Z</time>
      </trkpt>
      <trkpt lat="48.63153" lon="6.37249">
        <ele>211.8</ele>
        <time>2020-06-29T10:12:53Z</time>
      </trkpt>
      <trkpt lat="48.63154" lon="6.37238">
        <ele>211.7</ele>
        <time>2020-06-29T10:12:54Z</time>
      </trkpt>
      <trkpt lat="48.63154" lon="6.37229">
        <ele>211.5</ele>
        <time>2020-06-29T10:12:55Z</time>
      </trkpt>
      <trkpt lat="48.63154" lon="6.37216">
        <ele>211.2</ele>
        <time>2020-06-29T10:12:56Z</time>
      </trkpt>
      <trkpt lat="48.63153" lon="6.37207">
        <ele>211.1</ele>
        <time>2020-06-29T10:12:57Z</time>
      </trkpt>
      <trkpt lat="48.63151" lon="6.37198">
        <ele>210.9</ele>
        <time>2020-06-29T10:12:58Z</time>
      </trkpt>
      <trkpt lat="48.63149" lon="6.3719">
        <ele>210.7</ele>
        <time>2020-06-29T10:12:59Z</time>
      </trkpt>
      <trkpt lat="48.63149" lon="6.37183">
        <ele>210.6</ele>
        <time>2020-06-29T10:13:00Z</time>
      </trkpt>
      <trkpt lat="48.63147" lon="6.37175">
        <ele>210.4</ele>
        <time>2020-06-29T10:13:01Z</time>
      </trkpt>
      <trkpt lat="48.63145" lon="6.37167">
        <ele>210.2</ele>
        <time>2020-06-29T10:13:02Z</time>
      </trkpt>
      <trkpt lat="48.63143" lon="6.37158">
        <ele>210</ele>
        <time>2020-06-29T10:13:03Z</time>
      </trkpt>
      <trkpt lat="48.6314" lon="6.37149">
        <ele>209.8</ele>
        <time>2020-06-29T10:13:04Z</time>
      </trkpt>
      <trkpt lat="48.63137" lon="6.3714">
        <ele>209.7</ele>
        <time>2020-06-29T10:13:05Z</time>
      </trkpt>
      <trkpt lat="48.63135" lon="6.37129">
        <ele>209.5</ele>
        <time>2020-06-29T10:13:06Z</time>
      </trkpt>
      <trkpt lat="48.63131" lon="6.37119">
        <ele>209.4</ele>
        <time>2020-06-29T10:13:07Z</time>
      </trkpt>
      <trkpt lat="48.63128" lon="6.37109">
        <ele>209.3</ele>
        <time>2020-06-29T10:13:08Z</time>
      </trkpt>
      <trkpt lat="48.63124" lon="6.371">
        <ele>209.2</ele>
        <time>2020-06-29T10:13:09Z</time>
      </trkpt>
      <trkpt lat="48.63121" lon="6.37091">
        <ele>209.2</ele>
        <time>2020-06-29T10:13:10Z</time>
      </trkpt>
      <trkpt lat="48.63119" lon="6.37082">
        <ele>209.1</ele>
        <time>2020-06-29T10:13:11Z</time>
      </trkpt>
      <trkpt lat="48.63115" lon="6.37073">
        <ele>209</ele>
        <time>2020-06-29T10:13:12Z</time>
      </trkpt>
      <trkpt lat="48.63112" lon="6.37064">
        <ele>208.9</ele>
        <time>2020-06-29T10:13:13Z</time>
      </trkpt>
      <trkpt lat="48.63109" lon="6.37055">
        <ele>208.8</ele>
        <time>2020-06-29T10:13:14Z</time>
      </trkpt>
      <trkpt lat="48.63107" lon="6.37045">
        <ele>208.6</ele>
        <time>2020-06-29T10:13:15Z</time>
      </trkpt>
      <trkpt lat="48.63105" lon="6.37035">
        <ele>208.6</ele>
        <time>2020-06-29T10:13:16Z</time>
      </trkpt>
      <trkpt lat="48.63102" lon="6.37027">
        <ele>208.5</ele>
        <time>2020-06-29T10:13:17Z</time>
      </trkpt>
      <trkpt lat="48.63098" lon="6.37019">
        <ele>208.4</ele>
        <time>2020-06-29T10:13:18Z</time>
      </trkpt>
      <trkpt lat="48.63094" lon="6.3701">
        <ele>208.3</ele>
        <time>2020-06-29T10:13:19Z</time>
      </trkpt>
      <trkpt lat="48.63092" lon="6.37">
        <ele>208.3</ele>
        <time>2020-06-29T10:13:20Z</time>
      </trkpt>
      <trkpt lat="48.63089" lon="6.36991">
        <ele>208.2</ele>
        <time>2020-06-29T10:13:21Z</time>
      </trkpt>
      <trkpt lat="48.63086" lon="6.36982">
        <ele>208.2</ele>
        <time>2020-06-29T10:13:22Z</time>
      </trkpt>
      <trkpt lat="48.63084" lon="6.36973">
        <ele>208.1</ele>
        <time>2020-06-29T10:13:23Z</time>
      </trkpt>
      <trkpt lat="48.6308" lon="6.36964">
        <ele>208</ele>
        <time>2020-06-29T10:13:24Z</time>
      </trkpt>
      <trkpt lat="48.63077" lon="6.36955">
        <ele>208</ele>
        <time>2020-06-29T10:13:25Z</time>
      </trkpt>
      <trkpt lat="48.63074" lon="6.36947">
        <ele>207.9</ele>
        <time>2020-06-29T10:13:26Z</time>
      </trkpt>
      <trkpt lat="48.63071" lon="6.36938">
        <ele>207.8</ele>
        <time>2020-06-29T10:13:27Z</time>
      </trkpt>
      <trkpt lat="48.63069" lon="6.36929">
        <ele>207.8</ele>
        <time>2020-06-29T10:13:28Z</time>
      </trkpt>
      <trkpt lat="48.63067" lon="6.36921">
        <ele>207.7</ele>
        <time>2020-06-29T10:13:29Z</time>
      </trkpt>
      <trkpt lat="48.63064" lon="6.36912">
        <ele>207.7</ele>
        <time>2020-06-29T10:13:30Z</time>
      </trkpt>
      <trkpt lat="48.63061" lon="6.36905">
        <ele>207.6</ele>
        <time>2020-06-29T10:13:31Z</time>
      </trkpt>
      <trkpt lat="48.63058" lon="6.36897">
        <ele>207.6</ele>
        <time>2020-06-29T10:13:32Z</time>
      </trkpt>
      <trkpt lat="48.63056" lon="6.36889">
        <ele>207.5</ele>
        <time>2020-06-29T10:13:33Z</time>
      </trkpt>
      <trkpt lat="48.63054" lon="6.36882">
        <ele>207.5</ele>
        <time>2020-06-29T10:13:34Z</time>
      </trkpt>
      <trkpt lat="48.63052" lon="6.36874">
        <ele>207.4</ele>
        <time>2020-06-29T10:13:35Z</time>
      </trkpt>
      <trkpt lat="48.63048" lon="6.36867">
        <ele>207.4</ele>
        <time>2020-06-29T10:13:36Z</time>
      </trkpt>
      <trkpt lat="48.63045" lon="6.36859">
        <ele>207.3</ele>
        <time>2020-06-29T10:13:37Z</time>
      </trkpt>
      <trkpt lat="48.63042" lon="6.36851">
        <ele>207.3</ele>
        <time>2020-06-29T10:13:38Z</time>
      </trkpt>
      <trkpt lat="48.63039" lon="6.36842">
        <ele>207.2</ele>
        <time>2020-06-29T10:13:39Z</time>
      </trkpt>
      <trkpt lat="48.63037" lon="6.36834">
        <ele>207.2</ele>
        <time>2020-06-29T10:13:40Z</time>
      </trkpt>
      <trkpt lat="48.63034" lon="6.36825">
        <ele>207.2</ele>
        <time>2020-06-29T10:13:41Z</time>
      </trkpt>
      <trkpt lat="48.63032" lon="6.36816">
        <ele>207.2</ele>
        <time>2020-06-29T10:13:42Z</time>
      </trkpt>
      <trkpt lat="48.63029" lon="6.36808">
        <ele>207.1</ele>
        <time>2020-06-29T10:13:43Z</time>
      </trkpt>
      <trkpt lat="48.63026" lon="6.36799">
        <ele>207.1</ele>
        <time>2020-06-29T10:13:44Z</time>
      </trkpt>
      <trkpt lat="48.63023" lon="6.3679">
        <ele>207.1</ele>
        <time>2020-06-29T10:13:45Z</time>
      </trkpt>
      <trkpt lat="48.63021" lon="6.36782">
        <ele>207.1</ele>
        <time>2020-06-29T10:13:46Z</time>
      </trkpt>
      <trkpt lat="48.63018" lon="6.36772">
        <ele>207.1</ele>
        <time>2020-06-29T10:13:47Z</time>
      </trkpt>
      <trkpt lat="48.63015" lon="6.36763">
        <ele>207.1</ele>
        <time>2020-06-29T10:13:48Z</time>
      </trkpt>
      <trkpt lat="48.63012" lon="6.36754">
        <ele>207</ele>
        <time>2020-06-29T10:13:49Z</time>
      </trkpt>
      <trkpt lat="48.6301" lon="6.36745">
        <ele>207</ele>
        <time>2020-06-29T10:13:50Z</time>
      </trkpt>
      <trkpt lat="48.63007" lon="6.36736">
        <ele>207</ele>
        <time>2020-06-29T10:13:51Z</time>
      </trkpt>
      <trkpt lat="48.63004" lon="6.36727">
        <ele>207</ele>
        <time>2020-06-29T10:13:52Z</time>
      </trkpt>
      <trkpt lat="48.63" lon="6.36718">
        <ele>207.1</ele>
        <time>2020-06-29T10:13:53Z</time>
      </trkpt>
      <trkpt lat="48.62997" lon="6.36709">
        <ele>207.1</ele>
        <time>2020-06-29T10:13:54Z</time>
      </trkpt>
      <trkpt lat="48.62994" lon="6.367">
        <ele>207.1</ele>
        <time>2020-06-29T10:13:55Z</time>
      </trkpt>
      <trkpt lat="48.62991" lon="6.36692">
        <ele>207.2</ele>
        <time>2020-06-29T10:13:56Z</time>
      </trkpt>
      <trkpt lat="48.62988" lon="6.36683">
        <ele>207.2</ele>
        <time>2020-06-29T10:13:57Z</time>
      </trkpt>
      <trkpt lat="48.62986" lon="6.36673">
        <ele>207.1</ele>
        <time>2020-06-29T10:13:58Z</time>
      </trkpt>
      <trkpt lat="48.62984" lon="6.36665">
        <ele>207.1</ele>
        <time>2020-06-29T10:13:59Z</time>
      </trkpt>
      <trkpt lat="48.62981" lon="6.36656">
        <ele>207.1</ele>
        <time>2020-06-29T10:14:00Z</time>
      </trkpt>
      <trkpt lat="48.62978" lon="6.36647">
        <ele>207.1</ele>
        <time>2020-06-29T10:14:01Z</time>
      </trkpt>
      <trkpt lat="48.62975" lon="6.36638">
        <ele>207.1</ele>
        <time>2020-06-29T10:14:02Z</time>
      </trkpt>
      <trkpt lat="48.62972" lon="6.36629">
        <ele>207.2</ele>
        <time>2020-06-29T10:14:03Z</time>
      </trkpt>
      <trkpt lat="48.6297" lon="6.36619">
        <ele>207.2</ele>
        <time>2020-06-29T10:14:04Z</time>
      </trkpt>
      <trkpt lat="48.62968" lon="6.36609">
        <ele>207.3</ele>
        <time>2020-06-29T10:14:05Z</time>
      </trkpt>
      <trkpt lat="48.62965" lon="6.366">
        <ele>207.4</ele>
        <time>2020-06-29T10:14:06Z</time>
      </trkpt>
      <trkpt lat="48.62963" lon="6.36589">
        <ele>207.5</ele>
        <time>2020-06-29T10:14:07Z</time>
      </trkpt>
      <trkpt lat="48.62961" lon="6.36579">
        <ele>207.5</ele>
        <time>2020-06-29T10:14:08Z</time>
      </trkpt>
      <trkpt lat="48.62959" lon="6.3657">
        <ele>207.6</ele>
        <time>2020-06-29T10:14:09Z</time>
      </trkpt>
      <trkpt lat="48.62956" lon="6.36561">
        <ele>207.7</ele>
        <time>2020-06-29T10:14:10Z</time>
      </trkpt>
      <trkpt lat="48.62954" lon="6.36553">
        <ele>207.7</ele>
        <time>2020-06-29T10:14:11Z</time>
      </trkpt>
      <trkpt lat="48.6295" lon="6.36544">
        <ele>207.8</ele>
        <time>2020-06-29T10:14:12Z</time>
      </trkpt>
      <trkpt lat="48.62949" lon="6.36535">
        <ele>207.8</ele>
        <time>2020-06-29T10:14:13Z</time>
      </trkpt>
      <trkpt lat="48.62947" lon="6.36527">
        <ele>207.8</ele>
        <time>2020-06-29T10:14:14Z</time>
      </trkpt>
      <trkpt lat="48.62944" lon="6.36518">
        <ele>207.8</ele>
        <time>2020-06-29T10:14:15Z</time>
      </trkpt>
      <trkpt lat="48.62942" lon="6.36509">
        <ele>207.8</ele>
        <time>2020-06-29T10:14:16Z</time>
      </trkpt>
      <trkpt lat="48.6294" lon="6.365">
        <ele>207.8</ele>
        <time>2020-06-29T10:14:17Z</time>
      </trkpt>
      <trkpt lat="48.62938" lon="6.3649">
        <ele>207.8</ele>
        <time>2020-06-29T10:14:18Z</time>
      </trkpt>
      <trkpt lat="48.62935" lon="6.3648">
        <ele>207.8</ele>
        <time>2020-06-29T10:14:19Z</time>
      </trkpt>
      <trkpt lat="48.62933" lon="6.36471">
        <ele>207.8</ele>
        <time>2020-06-29T10:14:20Z</time>
      </trkpt>
      <trkpt lat="48.62932" lon="6.36461">
        <ele>207.8</ele>
        <time>2020-06-29T10:14:21Z</time>
      </trkpt>
      <trkpt lat="48.6293" lon="6.36451">
        <ele>207.8</ele>
        <time>2020-06-29T10:14:22Z</time>
      </trkpt>
      <trkpt lat="48.62928" lon="6.36441">
        <ele>207.9</ele>
        <time>2020-06-29T10:14:23Z</time>
      </trkpt>
      <trkpt lat="48.62926" lon="6.3643">
        <ele>207.9</ele>
        <time>2020-06-29T10:14:24Z</time>
      </trkpt>
      <trkpt lat="48.62924" lon="6.36419">
        <ele>207.9</ele>
        <time>2020-06-29T10:14:25Z</time>
      </trkpt>
      <trkpt lat="48.62922" lon="6.36409">
        <ele>207.9</ele>
        <time>2020-06-29T10:14:26Z</time>
      </trkpt>
      <trkpt lat="48.6292" lon="6.36399">
        <ele>207.9</ele>
        <time>2020-06-29T10:14:27Z</time>
      </trkpt>
      <trkpt lat="48.62919" lon="6.36389">
        <ele>207.9</ele>
        <time>2020-06-29T10:14:28Z</time>
      </trkpt>
      <trkpt lat="48.62918" lon="6.36379">
        <ele>207.9</ele>
        <time>2020-06-29T10:14:29Z</time>
      </trkpt>
      <trkpt lat="48.62917" lon="6.36369">
        <ele>207.8</ele>
        <time>2020-06-29T10:14:30Z</time>
      </trkpt>
      <trkpt lat="48.62915" lon="6.36359">
        <ele>207.7</ele>
        <time>2020-06-29T10:14:31Z</time>
      </trkpt>
      <trkpt lat="48.62913" lon="6.36348">
        <ele>207.6</ele>
        <time>2020-06-29T10:14:32Z</time>
      </trkpt>
      <trkpt lat="48.62912" lon="6.36338">
        <ele>207.5</ele>
        <time>2020-06-29T10:14:33Z</time>
      </trkpt>
      <trkpt lat="48.6291" lon="6.36328">
        <ele>207.4</ele>
        <time>2020-06-29T10:14:34Z</time>
      </trkpt>
      <trkpt lat="48.62908" lon="6.36318">
        <ele>207.3</ele>
        <time>2020-06-29T10:14:35Z</time>
      </trkpt>
      <trkpt lat="48.62906" lon="6.36307">
        <ele>207.2</ele>
        <time>2020-06-29T10:14:36Z</time>
      </trkpt>
      <trkpt lat="48.62905" lon="6.36296">
        <ele>207.1</ele>
        <time>2020-06-29T10:14:37Z</time>
      </trkpt>
      <trkpt lat="48.62903" lon="6.36285">
        <ele>207</ele>
        <time>2020-06-29T10:14:38Z</time>
      </trkpt>
      <trkpt lat="48.62901" lon="6.36274">
        <ele>206.9</ele>
        <time>2020-06-29T10:14:39Z</time>
      </trkpt>
      <trkpt lat="48.62899" lon="6.36263">
        <ele>206.7</ele>
        <time>2020-06-29T10:14:40Z</time>
      </trkpt>
      <trkpt lat="48.62898" lon="6.36251">
        <ele>206.7</ele>
        <time>2020-06-29T10:14:41Z</time>
      </trkpt>
      <trkpt lat="48.62895" lon="6.36239">
        <ele>206.6</ele>
        <time>2020-06-29T10:14:42Z</time>
      </trkpt>
      <trkpt lat="48.62894" lon="6.36227">
        <ele>206.6</ele>
        <time>2020-06-29T10:14:43Z</time>
      </trkpt>
      <trkpt lat="48.62893" lon="6.36215">
        <ele>206.5</ele>
        <time>2020-06-29T10:14:44Z</time>
      </trkpt>
      <trkpt lat="48.6289" lon="6.36204">
        <ele>206.5</ele>
        <time>2020-06-29T10:14:45Z</time>
      </trkpt>
      <trkpt lat="48.62889" lon="6.36193">
        <ele>206.5</ele>
        <time>2020-06-29T10:14:46Z</time>
      </trkpt>
      <trkpt lat="48.62887" lon="6.36181">
        <ele>206.5</ele>
        <time>2020-06-29T10:14:47Z</time>
      </trkpt>
      <trkpt lat="48.62885" lon="6.3617">
        <ele>206.6</ele>
        <time>2020-06-29T10:14:48Z</time>
      </trkpt>
      <trkpt lat="48.62883" lon="6.3616">
        <ele>206.7</ele>
        <time>2020-06-29T10:14:49Z</time>
      </trkpt>
      <trkpt lat="48.62881" lon="6.36149">
        <ele>206.8</ele>
        <time>2020-06-29T10:14:50Z</time>
      </trkpt>
      <trkpt lat="48.62879" lon="6.36139">
        <ele>206.9</ele>
        <time>2020-06-29T10:14:51Z</time>
      </trkpt>
      <trkpt lat="48.62876" lon="6.36129">
        <ele>207</ele>
        <time>2020-06-29T10:14:52Z</time>
      </trkpt>
      <trkpt lat="48.62874" lon="6.3612">
        <ele>207</ele>
        <time>2020-06-29T10:14:53Z</time>
      </trkpt>
      <trkpt lat="48.62871" lon="6.36112">
        <ele>207.1</ele>
        <time>2020-06-29T10:14:54Z</time>
      </trkpt>
      <trkpt lat="48.62868" lon="6.36103">
        <ele>207.1</ele>
        <time>2020-06-29T10:14:55Z</time>
      </trkpt>
      <trkpt lat="48.62865" lon="6.36094">
        <ele>207.2</ele>
        <time>2020-06-29T10:14:56Z</time>
      </trkpt>
      <trkpt lat="48.62862" lon="6.36085">
        <ele>207.2</ele>
        <time>2020-06-29T10:14:57Z</time>
      </trkpt>
      <trkpt lat="48.62859" lon="6.36076">
        <ele>207.2</ele>
        <time>2020-06-29T10:14:58Z</time>
      </trkpt>
      <trkpt lat="48.62856" lon="6.36067">
        <ele>207.2</ele>
        <time>2020-06-29T10:14:59Z</time>
      </trkpt>
      <trkpt lat="48.62854" lon="6.36058">
        <ele>207.2</ele>
        <time>2020-06-29T10:15:00Z</time>
      </trkpt>
      <trkpt lat="48.62851" lon="6.36048">
        <ele>207.2</ele>
        <time>2020-06-29T10:15:01Z</time>
      </trkpt>
      <trkpt lat="48.62848" lon="6.36039">
        <ele>207.1</ele>
        <time>2020-06-29T10:15:02Z</time>
      </trkpt>
      <trkpt lat="48.62846" lon="6.3603">
        <ele>207.1</ele>
        <time>2020-06-29T10:15:03Z</time>
      </trkpt>
      <trkpt lat="48.62843" lon="6.36021">
        <ele>207.1</ele>
        <time>2020-06-29T10:15:04Z</time>
      </trkpt>
      <trkpt lat="48.6284" lon="6.36011">
        <ele>207</ele>
        <time>2020-06-29T10:15:05Z</time>
      </trkpt>
      <trkpt lat="48.62837" lon="6.36001">
        <ele>207</ele>
        <time>2020-06-29T10:15:06Z</time>
      </trkpt>
      <trkpt lat="48.62834" lon="6.35992">
        <ele>206.9</ele>
        <time>2020-06-29T10:15:07Z</time>
      </trkpt>
      <trkpt lat="48.62833" lon="6.35982">
        <ele>206.9</ele>
        <time>2020-06-29T10:15:08Z</time>
      </trkpt>
      <trkpt lat="48.62831" lon="6.35972">
        <ele>206.9</ele>
        <time>2020-06-29T10:15:09Z</time>
      </trkpt>
      <trkpt lat="48.62828" lon="6.35963">
        <ele>206.9</ele>
        <time>2020-06-29T10:15:10Z</time>
      </trkpt>
      <trkpt lat="48.62827" lon="6.35953">
        <ele>206.9</ele>
        <time>2020-06-29T10:15:11Z</time>
      </trkpt>
      <trkpt lat="48.62826" lon="6.35944">
        <ele>206.9</ele>
        <time>2020-06-29T10:15:12Z</time>
      </trkpt>
      <trkpt lat="48.62824" lon="6.35934">
        <ele>206.9</ele>
        <time>2020-06-29T10:15:13Z</time>
      </trkpt>
      <trkpt lat="48.62823" lon="6.35924">
        <ele>206.9</ele>
        <time>2020-06-29T10:15:14Z</time>
      </trkpt>
      <trkpt lat="48.62821" lon="6.35914">
        <ele>207</ele>
        <time>2020-06-29T10:15:15Z</time>
      </trkpt>
      <trkpt lat="48.62819" lon="6.35904">
        <ele>207</ele>
        <time>2020-06-29T10:15:16Z</time>
      </trkpt>
      <trkpt lat="48.62817" lon="6.35895">
        <ele>207</ele>
        <time>2020-06-29T10:15:17Z</time>
      </trkpt>
      <trkpt lat="48.62815" lon="6.35885">
        <ele>207.1</ele>
        <time>2020-06-29T10:15:18Z</time>
      </trkpt>
      <trkpt lat="48.62813" lon="6.35875">
        <ele>207.1</ele>
        <time>2020-06-29T10:15:19Z</time>
      </trkpt>
      <trkpt lat="48.62811" lon="6.35866">
        <ele>207.1</ele>
        <time>2020-06-29T10:15:20Z</time>
      </trkpt>
      <trkpt lat="48.62809" lon="6.35856">
        <ele>207.2</ele>
        <time>2020-06-29T10:15:21Z</time>
      </trkpt>
      <trkpt lat="48.62808" lon="6.35847">
        <ele>207.2</ele>
        <time>2020-06-29T10:15:22Z</time>
      </trkpt>
      <trkpt lat="48.62807" lon="6.35837">
        <ele>207.2</ele>
        <time>2020-06-29T10:15:23Z</time>
      </trkpt>
      <trkpt lat="48.62805" lon="6.35828">
        <ele>207.2</ele>
        <time>2020-06-29T10:15:24Z</time>
      </trkpt>
      <trkpt lat="48.62803" lon="6.35819">
        <ele>207.3</ele>
        <time>2020-06-29T10:15:25Z</time>
      </trkpt>
      <trkpt lat="48.62801" lon="6.35809">
        <ele>207.4</ele>
        <time>2020-06-29T10:15:26Z</time>
      </trkpt>
      <trkpt lat="48.62798" lon="6.35799">
        <ele>207.5</ele>
        <time>2020-06-29T10:15:27Z</time>
      </trkpt>
      <trkpt lat="48.62796" lon="6.3579">
        <ele>207.6</ele>
        <time>2020-06-29T10:15:28Z</time>
      </trkpt>
      <trkpt lat="48.62793" lon="6.35781">
        <ele>207.7</ele>
        <time>2020-06-29T10:15:29Z</time>
      </trkpt>
      <trkpt lat="48.6279" lon="6.35773">
        <ele>207.7</ele>
        <time>2020-06-29T10:15:30Z</time>
      </trkpt>
      <trkpt lat="48.62788" lon="6.35764">
        <ele>207.8</ele>
        <time>2020-06-29T10:15:31Z</time>
      </trkpt>
      <trkpt lat="48.62785" lon="6.35756">
        <ele>207.8</ele>
        <time>2020-06-29T10:15:32Z</time>
      </trkpt>
      <trkpt lat="48.62781" lon="6.35748">
        <ele>207.9</ele>
        <time>2020-06-29T10:15:33Z</time>
      </trkpt>
      <trkpt lat="48.62778" lon="6.3574">
        <ele>208</ele>
        <time>2020-06-29T10:15:34Z</time>
      </trkpt>
      <trkpt lat="48.62774" lon="6.35731">
        <ele>208.2</ele>
        <time>2020-06-29T10:15:35Z</time>
      </trkpt>
      <trkpt lat="48.62771" lon="6.35723">
        <ele>208.3</ele>
        <time>2020-06-29T10:15:36Z</time>
      </trkpt>
      <trkpt lat="48.62768" lon="6.35715">
        <ele>208.4</ele>
        <time>2020-06-29T10:15:37Z</time>
      </trkpt>
      <trkpt lat="48.62765" lon="6.35708">
        <ele>208.6</ele>
        <time>2020-06-29T10:15:38Z</time>
      </trkpt>
      <trkpt lat="48.62762" lon="6.357">
        <ele>208.7</ele>
        <time>2020-06-29T10:15:39Z</time>
      </trkpt>
      <trkpt lat="48.6276" lon="6.35693">
        <ele>208.8</ele>
        <time>2020-06-29T10:15:40Z</time>
      </trkpt>
      <trkpt lat="48.62757" lon="6.35685">
        <ele>209</ele>
        <time>2020-06-29T10:15:41Z</time>
      </trkpt>
      <trkpt lat="48.62755" lon="6.35676">
        <ele>209.1</ele>
        <time>2020-06-29T10:15:42Z</time>
      </trkpt>
      <trkpt lat="48.62753" lon="6.35667">
        <ele>209.2</ele>
        <time>2020-06-29T10:15:43Z</time>
      </trkpt>
      <trkpt lat="48.62751" lon="6.35662">
        <ele>209.3</ele>
        <time>2020-06-29T10:15:44Z</time>
      </trkpt>
      <trkpt lat="48.62748" lon="6.35656">
        <ele>209.4</ele>
        <time>2020-06-29T10:15:45Z</time>
      </trkpt>
      <trkpt lat="48.62746" lon="6.35649">
        <ele>209.5</ele>
        <time>2020-06-29T10:15:46Z</time>
      </trkpt>
      <trkpt lat="48.62744" lon="6.35642">
        <ele>209.5</ele>
        <time>2020-06-29T10:15:47Z</time>
      </trkpt>
      <trkpt lat="48.62741" lon="6.35635">
        <ele>209.6</ele>
        <time>2020-06-29T10:15:48Z</time>
      </trkpt>
      <trkpt lat="48.62739" lon="6.35628">
        <ele>209.7</ele>
        <time>2020-06-29T10:15:49Z</time>
      </trkpt>
      <trkpt lat="48.62736" lon="6.3562">
        <ele>209.8</ele>
        <time>2020-06-29T10:15:50Z</time>
      </trkpt>
      <trkpt lat="48.62734" lon="6.35613">
        <ele>209.9</ele>
        <time>2020-06-29T10:15:51Z</time>
      </trkpt>
      <trkpt lat="48.62731" lon="6.35606">
        <ele>210</ele>
        <time>2020-06-29T10:15:52Z</time>
      </trkpt>
      <trkpt lat="48.62729" lon="6.35598">
        <ele>210</ele>
        <time>2020-06-29T10:15:53Z</time>
      </trkpt>
      <trkpt lat="48.62727" lon="6.35591">
        <ele>210.1</ele>
        <time>2020-06-29T10:15:54Z</time>
      </trkpt>
      <trkpt lat="48.62725" lon="6.35585">
        <ele>210.2</ele>
        <time>2020-06-29T10:15:55Z</time>
      </trkpt>
      <trkpt lat="48.62724" lon="6.35577">
        <ele>210.3</ele>
        <time>2020-06-29T10:15:56Z</time>
      </trkpt>
      <trkpt lat="48.62722" lon="6.3557">
        <ele>210.4</ele>
        <time>2020-06-29T10:15:57Z</time>
      </trkpt>
      <trkpt lat="48.6272" lon="6.35562">
        <ele>210.5</ele>
        <time>2020-06-29T10:15:58Z</time>
      </trkpt>
      <trkpt lat="48.62719" lon="6.35554">
        <ele>210.5</ele>
        <time>2020-06-29T10:15:59Z</time>
      </trkpt>
      <trkpt lat="48.62717" lon="6.35545">
        <ele>210.6</ele>
        <time>2020-06-29T10:16:00Z</time>
      </trkpt>
      <trkpt lat="48.62716" lon="6.35536">
        <ele>210.7</ele>
        <time>2020-06-29T10:16:01Z</time>
      </trkpt>
      <trkpt lat="48.62714" lon="6.35526">
        <ele>210.8</ele>
        <time>2020-06-29T10:16:02Z</time>
      </trkpt>
      <trkpt lat="48.62713" lon="6.35517">
        <ele>210.8</ele>
        <time>2020-06-29T10:16:03Z</time>
      </trkpt>
      <trkpt lat="48.62712" lon="6.35507">
        <ele>210.8</ele>
        <time>2020-06-29T10:16:04Z</time>
      </trkpt>
      <trkpt lat="48.62711" lon="6.35497">
        <ele>210.9</ele>
        <time>2020-06-29T10:16:05Z</time>
      </trkpt>
      <trkpt lat="48.62711" lon="6.35488">
        <ele>210.9</ele>
        <time>2020-06-29T10:16:06Z</time>
      </trkpt>
      <trkpt lat="48.62709" lon="6.3548">
        <ele>210.9</ele>
        <time>2020-06-29T10:16:07Z</time>
      </trkpt>
      <trkpt lat="48.62708" lon="6.35471">
        <ele>211</ele>
        <time>2020-06-29T10:16:08Z</time>
      </trkpt>
      <trkpt lat="48.62707" lon="6.35461">
        <ele>211</ele>
        <time>2020-06-29T10:16:09Z</time>
      </trkpt>
      <trkpt lat="48.62706" lon="6.35453">
        <ele>211.1</ele>
        <time>2020-06-29T10:16:10Z</time>
      </trkpt>
      <trkpt lat="48.62705" lon="6.35444">
        <ele>211.2</ele>
        <time>2020-06-29T10:16:11Z</time>
      </trkpt>
      <trkpt lat="48.62704" lon="6.35435">
        <ele>211.2</ele>
        <time>2020-06-29T10:16:12Z</time>
      </trkpt>
      <trkpt lat="48.62703" lon="6.35423">
        <ele>211.1</ele>
        <time>2020-06-29T10:16:13Z</time>
      </trkpt>
      <trkpt lat="48.62703" lon="6.35414">
        <ele>211.1</ele>
        <time>2020-06-29T10:16:14Z</time>
      </trkpt>
      <trkpt lat="48.62702" lon="6.35406">
        <ele>211.1</ele>
        <time>2020-06-29T10:16:15Z</time>
      </trkpt>
      <trkpt lat="48.62702" lon="6.35397">
        <ele>211.1</ele>
        <time>2020-06-29T10:16:16Z</time>
      </trkpt>
      <trkpt lat="48.62702" lon="6.35387">
        <ele>211.1</ele>
        <time>2020-06-29T10:16:17Z</time>
      </trkpt>
      <trkpt lat="48.62702" lon="6.35376">
        <ele>211.1</ele>
        <time>2020-06-29T10:16:18Z</time>
      </trkpt>
      <trkpt lat="48.62702" lon="6.35367">
        <ele>211</ele>
        <time>2020-06-29T10:16:19Z</time>
      </trkpt>
      <trkpt lat="48.62702" lon="6.35358">
        <ele>211</ele>
        <time>2020-06-29T10:16:20Z</time>
      </trkpt>
      <trkpt lat="48.62702" lon="6.35349">
        <ele>211</ele>
        <time>2020-06-29T10:16:21Z</time>
      </trkpt>
      <trkpt lat="48.62702" lon="6.35339">
        <ele>211</ele>
        <time>2020-06-29T10:16:22Z</time>
      </trkpt>
      <trkpt lat="48.62703" lon="6.35328">
        <ele>211.1</ele>
        <time>2020-06-29T10:16:23Z</time>
      </trkpt>
      <trkpt lat="48.62704" lon="6.35318">
        <ele>211.1</ele>
        <time>2020-06-29T10:16:24Z</time>
      </trkpt>
      <trkpt lat="48.62704" lon="6.3531">
        <ele>211.1</ele>
        <time>2020-06-29T10:16:25Z</time>
      </trkpt>
      <trkpt lat="48.62705" lon="6.353">
        <ele>211.1</ele>
        <time>2020-06-29T10:16:26Z</time>
      </trkpt>
      <trkpt lat="48.62705" lon="6.35291">
        <ele>211.1</ele>
        <time>2020-06-29T10:16:27Z</time>
      </trkpt>
      <trkpt lat="48.62703" lon="6.35281">
        <ele>211.1</ele>
        <time>2020-06-29T10:16:28Z</time>
      </trkpt>
      <trkpt lat="48.62703" lon="6.35272">
        <ele>211.1</ele>
        <time>2020-06-29T10:16:29Z</time>
      </trkpt>
      <trkpt lat="48.62703" lon="6.35266">
        <ele>211.1</ele>
        <time>2020-06-29T10:16:30Z</time>
      </trkpt>
      <trkpt lat="48.62703" lon="6.35256">
        <ele>211.1</ele>
        <time>2020-06-29T10:16:31Z</time>
      </trkpt>
      <trkpt lat="48.62703" lon="6.35248">
        <ele>211.1</ele>
        <time>2020-06-29T10:16:32Z</time>
      </trkpt>
      <trkpt lat="48.62702" lon="6.35242">
        <ele>211.2</ele>
        <time>2020-06-29T10:16:33Z</time>
      </trkpt>
      <trkpt lat="48.62702" lon="6.35232">
        <ele>211.2</ele>
        <time>2020-06-29T10:16:34Z</time>
      </trkpt>
      <trkpt lat="48.62702" lon="6.35224">
        <ele>211.2</ele>
        <time>2020-06-29T10:16:35Z</time>
      </trkpt>
      <trkpt lat="48.62702" lon="6.35216">
        <ele>211.2</ele>
        <time>2020-06-29T10:16:36Z</time>
      </trkpt>
      <trkpt lat="48.62703" lon="6.35209">
        <ele>211.2</ele>
        <time>2020-06-29T10:16:37Z</time>
      </trkpt>
      <trkpt lat="48.62702" lon="6.35202">
        <ele>211.2</ele>
        <time>2020-06-29T10:16:38Z</time>
      </trkpt>
      <trkpt lat="48.62701" lon="6.35193">
        <ele>211.2</ele>
        <time>2020-06-29T10:16:39Z</time>
      </trkpt>
      <trkpt lat="48.62701" lon="6.35186">
        <ele>211.2</ele>
        <time>2020-06-29T10:16:40Z</time>
      </trkpt>
      <trkpt lat="48.62701" lon="6.35178">
        <ele>211.2</ele>
        <time>2020-06-29T10:16:41Z</time>
      </trkpt>
      <trkpt lat="48.62701" lon="6.35171">
        <ele>211.2</ele>
        <time>2020-06-29T10:16:42Z</time>
      </trkpt>
      <trkpt lat="48.62701" lon="6.35164">
        <ele>211.2</ele>
        <time>2020-06-29T10:16:43Z</time>
      </trkpt>
      <trkpt lat="48.62701" lon="6.35157">
        <ele>211.2</ele>
        <time>2020-06-29T10:16:44Z</time>
      </trkpt>
      <trkpt lat="48.627" lon="6.35151">
        <ele>211.2</ele>
        <time>2020-06-29T10:16:45Z</time>
      </trkpt>
      <trkpt lat="48.62698" lon="6.35145">
        <ele>211.2</ele>
        <time>2020-06-29T10:16:46Z</time>
      </trkpt>
      <trkpt lat="48.62698" lon="6.35137">
        <ele>211.2</ele>
        <time>2020-06-29T10:16:47Z</time>
      </trkpt>
      <trkpt lat="48.62698" lon="6.35132">
        <ele>211.2</ele>
        <time>2020-06-29T10:16:48Z</time>
      </trkpt>
      <trkpt lat="48.62699" lon="6.35126">
        <ele>211.2</ele>
        <time>2020-06-29T10:16:49Z</time>
      </trkpt>
      <trkpt lat="48.62698" lon="6.35121">
        <ele>211.1</ele>
        <time>2020-06-29T10:16:50Z</time>
      </trkpt>
      <trkpt lat="48.62696" lon="6.35116">
        <ele>211.1</ele>
        <time>2020-06-29T10:16:51Z</time>
      </trkpt>
      <trkpt lat="48.62694" lon="6.3511">
        <ele>211.1</ele>
        <time>2020-06-29T10:16:52Z</time>
      </trkpt>
      <trkpt lat="48.62692" lon="6.35104">
        <ele>211</ele>
        <time>2020-06-29T10:16:53Z</time>
      </trkpt>
      <trkpt lat="48.62692" lon="6.35098">
        <ele>211</ele>
        <time>2020-06-29T10:16:54Z</time>
      </trkpt>
      <trkpt lat="48.62691" lon="6.35092">
        <ele>211</ele>
        <time>2020-06-29T10:16:55Z</time>
      </trkpt>
      <trkpt lat="48.6269" lon="6.35085">
        <ele>211</ele>
        <time>2020-06-29T10:16:56Z</time>
      </trkpt>
      <trkpt lat="48.62688" lon="6.35078">
        <ele>211</ele>
        <time>2020-06-29T10:16:57Z</time>
      </trkpt>
      <trkpt lat="48.62685" lon="6.35071">
        <ele>210.9</ele>
        <time>2020-06-29T10:16:58Z</time>
      </trkpt>
      <trkpt lat="48.62684" lon="6.35064">
        <ele>210.9</ele>
        <time>2020-06-29T10:16:59Z</time>
      </trkpt>
      <trkpt lat="48.62682" lon="6.35056">
        <ele>210.9</ele>
        <time>2020-06-29T10:17:00Z</time>
      </trkpt>
      <trkpt lat="48.6268" lon="6.35048">
        <ele>210.9</ele>
        <time>2020-06-29T10:17:01Z</time>
      </trkpt>
      <trkpt lat="48.62678" lon="6.35042">
        <ele>210.9</ele>
        <time>2020-06-29T10:17:02Z</time>
      </trkpt>
      <trkpt lat="48.62676" lon="6.35035">
        <ele>210.9</ele>
        <time>2020-06-29T10:17:03Z</time>
      </trkpt>
      <trkpt lat="48.62675" lon="6.35029">
        <ele>210.8</ele>
        <time>2020-06-29T10:17:04Z</time>
      </trkpt>
      <trkpt lat="48.62674" lon="6.35022">
        <ele>210.8</ele>
        <time>2020-06-29T10:17:05Z</time>
      </trkpt>
      <trkpt lat="48.62672" lon="6.35015">
        <ele>210.8</ele>
        <time>2020-06-29T10:17:06Z</time>
      </trkpt>
      <trkpt lat="48.62669" lon="6.35007">
        <ele>210.8</ele>
        <time>2020-06-29T10:17:07Z</time>
      </trkpt>
      <trkpt lat="48.62669" lon="6.35">
        <ele>210.8</ele>
        <time>2020-06-29T10:17:08Z</time>
      </trkpt>
      <trkpt lat="48.62667" lon="6.34995">
        <ele>210.8</ele>
        <time>2020-06-29T10:17:09Z</time>
      </trkpt>
      <trkpt lat="48.62666" lon="6.34985">
        <ele>210.8</ele>
        <time>2020-06-29T10:17:10Z</time>
      </trkpt>
      <trkpt lat="48.62664" lon="6.34977">
        <ele>210.7</ele>
        <time>2020-06-29T10:17:11Z</time>
      </trkpt>
      <trkpt lat="48.62662" lon="6.3497">
        <ele>210.7</ele>
        <time>2020-06-29T10:17:12Z</time>
      </trkpt>
      <trkpt lat="48.6266" lon="6.34961">
        <ele>210.7</ele>
        <time>2020-06-29T10:17:13Z</time>
      </trkpt>
      <trkpt lat="48.62657" lon="6.34953">
        <ele>210.7</ele>
        <time>2020-06-29T10:17:14Z</time>
      </trkpt>
      <trkpt lat="48.62656" lon="6.34946">
        <ele>210.7</ele>
        <time>2020-06-29T10:17:15Z</time>
      </trkpt>
      <trkpt lat="48.62654" lon="6.34937">
        <ele>210.6</ele>
        <time>2020-06-29T10:17:16Z</time>
      </trkpt>
      <trkpt lat="48.62652" lon="6.34929">
        <ele>210.6</ele>
        <time>2020-06-29T10:17:17Z</time>
      </trkpt>
      <trkpt lat="48.62651" lon="6.3492">
        <ele>210.6</ele>
        <time>2020-06-29T10:17:18Z</time>
      </trkpt>
      <trkpt lat="48.62649" lon="6.34913">
        <ele>210.6</ele>
        <time>2020-06-29T10:17:19Z</time>
      </trkpt>
      <trkpt lat="48.62646" lon="6.34904">
        <ele>210.6</ele>
        <time>2020-06-29T10:17:20Z</time>
      </trkpt>
      <trkpt lat="48.62644" lon="6.34897">
        <ele>210.6</ele>
        <time>2020-06-29T10:17:21Z</time>
      </trkpt>
      <trkpt lat="48.62642" lon="6.3489">
        <ele>210.6</ele>
        <time>2020-06-29T10:17:22Z</time>
      </trkpt>
      <trkpt lat="48.6264" lon="6.34879">
        <ele>210.6</ele>
        <time>2020-06-29T10:17:23Z</time>
      </trkpt>
      <trkpt lat="48.62637" lon="6.3487">
        <ele>210.6</ele>
        <time>2020-06-29T10:17:24Z</time>
      </trkpt>
      <trkpt lat="48.62634" lon="6.34862">
        <ele>210.6</ele>
        <time>2020-06-29T10:17:25Z</time>
      </trkpt>
      <trkpt lat="48.62632" lon="6.34855">
        <ele>210.6</ele>
        <time>2020-06-29T10:17:26Z</time>
      </trkpt>
      <trkpt lat="48.6263" lon="6.3485">
        <ele>210.7</ele>
        <time>2020-06-29T10:17:27Z</time>
      </trkpt>
      <trkpt lat="48.62627" lon="6.34844">
        <ele>210.7</ele>
        <time>2020-06-29T10:17:28Z</time>
      </trkpt>
      <trkpt lat="48.62625" lon="6.34836">
        <ele>210.7</ele>
        <time>2020-06-29T10:17:29Z</time>
      </trkpt>
      <trkpt lat="48.62621" lon="6.34828">
        <ele>210.8</ele>
        <time>2020-06-29T10:17:30Z</time>
      </trkpt>
      <trkpt lat="48.62617" lon="6.34823">
        <ele>210.9</ele>
        <time>2020-06-29T10:17:31Z</time>
      </trkpt>
      <trkpt lat="48.62614" lon="6.34814">
        <ele>210.9</ele>
        <time>2020-06-29T10:17:32Z</time>
      </trkpt>
      <trkpt lat="48.62612" lon="6.34809">
        <ele>211</ele>
        <time>2020-06-29T10:17:33Z</time>
      </trkpt>
      <trkpt lat="48.62608" lon="6.348">
        <ele>211</ele>
        <time>2020-06-29T10:17:34Z</time>
      </trkpt>
      <trkpt lat="48.62606" lon="6.34793">
        <ele>211.1</ele>
        <time>2020-06-29T10:17:35Z</time>
      </trkpt>
      <trkpt lat="48.62603" lon="6.34787">
        <ele>211.2</ele>
        <time>2020-06-29T10:17:36Z</time>
      </trkpt>
      <trkpt lat="48.62601" lon="6.3478">
        <ele>211.3</ele>
        <time>2020-06-29T10:17:37Z</time>
      </trkpt>
      <trkpt lat="48.62598" lon="6.34774">
        <ele>211.4</ele>
        <time>2020-06-29T10:17:38Z</time>
      </trkpt>
      <trkpt lat="48.62594" lon="6.34766">
        <ele>211.4</ele>
        <time>2020-06-29T10:17:39Z</time>
      </trkpt>
      <trkpt lat="48.62592" lon="6.34762">
        <ele>211.5</ele>
        <time>2020-06-29T10:17:40Z</time>
      </trkpt>
      <trkpt lat="48.62589" lon="6.34758">
        <ele>211.6</ele>
        <time>2020-06-29T10:17:41Z</time>
      </trkpt>
      <trkpt lat="48.62586" lon="6.34754">
        <ele>211.6</ele>
        <time>2020-06-29T10:17:42Z</time>
      </trkpt>
      <trkpt lat="48.62583" lon="6.34749">
        <ele>211.7</ele>
        <time>2020-06-29T10:17:43Z</time>
      </trkpt>
      <trkpt lat="48.6258" lon="6.34744">
        <ele>211.7</ele>
        <time>2020-06-29T10:17:44Z</time>
      </trkpt>
      <trkpt lat="48.62577" lon="6.34738">
        <ele>211.8</ele>
        <time>2020-06-29T10:17:45Z</time>
      </trkpt>
      <trkpt lat="48.62576" lon="6.34731">
        <ele>211.9</ele>
        <time>2020-06-29T10:17:46Z</time>
      </trkpt>
      <trkpt lat="48.62575" lon="6.34723">
        <ele>212</ele>
        <time>2020-06-29T10:17:47Z</time>
      </trkpt>
      <trkpt lat="48.62574" lon="6.34716">
        <ele>212.1</ele>
        <time>2020-06-29T10:17:48Z</time>
      </trkpt>
      <trkpt lat="48.62573" lon="6.34708">
        <ele>212.1</ele>
        <time>2020-06-29T10:17:49Z</time>
      </trkpt>
      <trkpt lat="48.62571" lon="6.34702">
        <ele>212.2</ele>
        <time>2020-06-29T10:17:50Z</time>
      </trkpt>
      <trkpt lat="48.62569" lon="6.34696">
        <ele>212.3</ele>
        <time>2020-06-29T10:17:51Z</time>
      </trkpt>
      <trkpt lat="48.62568" lon="6.3469">
        <ele>212.4</ele>
        <time>2020-06-29T10:17:52Z</time>
      </trkpt>
      <trkpt lat="48.62566" lon="6.34687">
        <ele>212.4</ele>
        <time>2020-06-29T10:17:53Z</time>
      </trkpt>
      <trkpt lat="48.62564" lon="6.34684">
        <ele>212.5</ele>
        <time>2020-06-29T10:17:54Z</time>
      </trkpt>
      <trkpt lat="48.62562" lon="6.34679">
        <ele>212.5</ele>
        <time>2020-06-29T10:17:55Z</time>
      </trkpt>
      <trkpt lat="48.62561" lon="6.34677">
        <ele>212.5</ele>
        <time>2020-06-29T10:17:56Z</time>
      </trkpt>
      <trkpt lat="48.6256" lon="6.34671">
        <ele>212.6</ele>
        <time>2020-06-29T10:17:57Z</time>
      </trkpt>
      <trkpt lat="48.62559" lon="6.34669">
        <ele>212.6</ele>
        <time>2020-06-29T10:17:58Z</time>
      </trkpt>
      <trkpt lat="48.62558" lon="6.34666">
        <ele>212.7</ele>
        <time>2020-06-29T10:17:59Z</time>
      </trkpt>
      <trkpt lat="48.62555" lon="6.3466">
        <ele>212.7</ele>
        <time>2020-06-29T10:18:00Z</time>
      </trkpt>
      <trkpt lat="48.62554" lon="6.34656">
        <ele>212.8</ele>
        <time>2020-06-29T10:18:01Z</time>
      </trkpt>
      <trkpt lat="48.62553" lon="6.34651">
        <ele>212.8</ele>
        <time>2020-06-29T10:18:02Z</time>
      </trkpt>
      <trkpt lat="48.62553" lon="6.34646">
        <ele>212.8</ele>
        <time>2020-06-29T10:18:03Z</time>
      </trkpt>
      <trkpt lat="48.62553" lon="6.34645">
        <ele>212.8</ele>
        <time>2020-06-29T10:18:04Z</time>
      </trkpt>
      <trkpt lat="48.62552" lon="6.34643">
        <ele>212.8</ele>
        <time>2020-06-29T10:18:05Z</time>
      </trkpt>
      <trkpt lat="48.62553" lon="6.34642">
        <ele>212.8</ele>
        <time>2020-06-29T10:18:06Z</time>
      </trkpt>
      <trkpt lat="48.62552" lon="6.34641">
        <ele>212.8</ele>
        <time>2020-06-29T10:18:07Z</time>
      </trkpt>
      <trkpt lat="48.62552" lon="6.3464">
        <ele>212.8</ele>
        <time>2020-06-29T10:18:08Z</time>
      </trkpt>
      <trkpt lat="48.62552" lon="6.34639">
        <ele>212.8</ele>
        <time>2020-06-29T10:18:09Z</time>
      </trkpt>
      <trkpt lat="48.62551" lon="6.34638">
        <ele>212.8</ele>
        <time>2020-06-29T10:18:10Z</time>
      </trkpt>
      <trkpt lat="48.62552" lon="6.34638">
        <ele>212.8</ele>
        <time>2020-06-29T10:18:11Z</time>
      </trkpt>
      <trkpt lat="48.62551" lon="6.34638">
        <ele>212.8</ele>
        <time>2020-06-29T10:18:12Z</time>
      </trkpt>
      <trkpt lat="48.62551" lon="6.34639">
        <ele>212.8</ele>
        <time>2020-06-29T10:18:13Z</time>
      </trkpt>
      <trkpt lat="48.6255" lon="6.34638">
        <ele>212.8</ele>
        <time>2020-06-29T10:18:14Z</time>
      </trkpt>
      <trkpt lat="48.6255" lon="6.34638">
        <ele>212.8</ele>
        <time>2020-06-29T10:18:15Z</time>
      </trkpt>
      <trkpt lat="48.62549" lon="6.34637">
        <ele>212.8</ele>
        <time>2020-06-29T10:18:16Z</time>
      </trkpt>
      <trkpt lat="48.62548" lon="6.34637">
        <ele>212.8</ele>
        <time>2020-06-29T10:18:17Z</time>
      </trkpt>
      <trkpt lat="48.62546" lon="6.34638">
        <ele>212.8</ele>
        <time>2020-06-29T10:18:18Z</time>
      </trkpt>
      <trkpt lat="48.62542" lon="6.34641">
        <ele>213</ele>
        <time>2020-06-29T10:18:19Z</time>
      </trkpt>
      <trkpt lat="48.62541" lon="6.34642">
        <ele>213</ele>
        <time>2020-06-29T10:18:20Z</time>
      </trkpt>
      <trkpt lat="48.62539" lon="6.34646">
        <ele>213</ele>
        <time>2020-06-29T10:18:21Z</time>
      </trkpt>
      <trkpt lat="48.62538" lon="6.34647">
        <ele>213</ele>
        <time>2020-06-29T10:18:22Z</time>
      </trkpt>
      <trkpt lat="48.62537" lon="6.34649">
        <ele>213</ele>
        <time>2020-06-29T10:18:23Z</time>
      </trkpt>
      <trkpt lat="48.62535" lon="6.3465">
        <ele>213.1</ele>
        <time>2020-06-29T10:18:24Z</time>
      </trkpt>
      <trkpt lat="48.62532" lon="6.34652">
        <ele>213.1</ele>
        <time>2020-06-29T10:18:25Z</time>
      </trkpt>
      <trkpt lat="48.6253" lon="6.34655">
        <ele>213.1</ele>
        <time>2020-06-29T10:18:26Z</time>
      </trkpt>
      <trkpt lat="48.62527" lon="6.34658">
        <ele>213.2</ele>
        <time>2020-06-29T10:18:27Z</time>
      </trkpt>
      <trkpt lat="48.62525" lon="6.34661">
        <ele>213.2</ele>
        <time>2020-06-29T10:18:28Z</time>
      </trkpt>
      <trkpt lat="48.62522" lon="6.34667">
        <ele>213.3</ele>
        <time>2020-06-29T10:18:29Z</time>
      </trkpt>
      <trkpt lat="48.62519" lon="6.34671">
        <ele>213.3</ele>
        <time>2020-06-29T10:18:30Z</time>
      </trkpt>
      <trkpt lat="48.62516" lon="6.34675">
        <ele>213.3</ele>
        <time>2020-06-29T10:18:31Z</time>
      </trkpt>
      <trkpt lat="48.62514" lon="6.34679">
        <ele>213.3</ele>
        <time>2020-06-29T10:18:32Z</time>
      </trkpt>
      <trkpt lat="48.6251" lon="6.34683">
        <ele>213.3</ele>
        <time>2020-06-29T10:18:33Z</time>
      </trkpt>
      <trkpt lat="48.62507" lon="6.34686">
        <ele>213.4</ele>
        <time>2020-06-29T10:18:34Z</time>
      </trkpt>
      <trkpt lat="48.62504" lon="6.3469">
        <ele>213.5</ele>
        <time>2020-06-29T10:18:35Z</time>
      </trkpt>
      <trkpt lat="48.62501" lon="6.34693">
        <ele>213.5</ele>
        <time>2020-06-29T10:18:36Z</time>
      </trkpt>
      <trkpt lat="48.62498" lon="6.34697">
        <ele>213.6</ele>
        <time>2020-06-29T10:18:37Z</time>
      </trkpt>
      <trkpt lat="48.62495" lon="6.34702">
        <ele>213.6</ele>
        <time>2020-06-29T10:18:38Z</time>
      </trkpt>
      <trkpt lat="48.62492" lon="6.34705">
        <ele>213.7</ele>
        <time>2020-06-29T10:18:39Z</time>
      </trkpt>
      <trkpt lat="48.62489" lon="6.3471">
        <ele>213.7</ele>
        <time>2020-06-29T10:18:40Z</time>
      </trkpt>
      <trkpt lat="48.62486" lon="6.34714">
        <ele>213.8</ele>
        <time>2020-06-29T10:18:41Z</time>
      </trkpt>
      <trkpt lat="48.62482" lon="6.34719">
        <ele>213.9</ele>
        <time>2020-06-29T10:18:42Z</time>
      </trkpt>
      <trkpt lat="48.62478" lon="6.34723">
        <ele>214</ele>
        <time>2020-06-29T10:18:43Z</time>
      </trkpt>
      <trkpt lat="48.62475" lon="6.34726">
        <ele>214.1</ele>
        <time>2020-06-29T10:18:44Z</time>
      </trkpt>
      <trkpt lat="48.62471" lon="6.3473">
        <ele>214.2</ele>
        <time>2020-06-29T10:18:45Z</time>
      </trkpt>
      <trkpt lat="48.62466" lon="6.34736">
        <ele>214.3</ele>
        <time>2020-06-29T10:18:46Z</time>
      </trkpt>
      <trkpt lat="48.62463" lon="6.3474">
        <ele>214.3</ele>
        <time>2020-06-29T10:18:47Z</time>
      </trkpt>
      <trkpt lat="48.62459" lon="6.34746">
        <ele>214.4</ele>
        <time>2020-06-29T10:18:48Z</time>
      </trkpt>
      <trkpt lat="48.62455" lon="6.3475">
        <ele>214.5</ele>
        <time>2020-06-29T10:18:49Z</time>
      </trkpt>
      <trkpt lat="48.62451" lon="6.34754">
        <ele>214.6</ele>
        <time>2020-06-29T10:18:50Z</time>
      </trkpt>
      <trkpt lat="48.62448" lon="6.34757">
        <ele>214.7</ele>
        <time>2020-06-29T10:18:51Z</time>
      </trkpt>
      <trkpt lat="48.62445" lon="6.3476">
        <ele>214.7</ele>
        <time>2020-06-29T10:18:52Z</time>
      </trkpt>
      <trkpt lat="48.62442" lon="6.34764">
        <ele>214.8</ele>
        <time>2020-06-29T10:18:53Z</time>
      </trkpt>
      <trkpt lat="48.62438" lon="6.34767">
        <ele>214.9</ele>
        <time>2020-06-29T10:18:54Z</time>
      </trkpt>
      <trkpt lat="48.62434" lon="6.34771">
        <ele>215</ele>
        <time>2020-06-29T10:18:55Z</time>
      </trkpt>
      <trkpt lat="48.6243" lon="6.34774">
        <ele>215</ele>
        <time>2020-06-29T10:18:56Z</time>
      </trkpt>
      <trkpt lat="48.62427" lon="6.34777">
        <ele>215.1</ele>
        <time>2020-06-29T10:18:57Z</time>
      </trkpt>
      <trkpt lat="48.62423" lon="6.34781">
        <ele>215.2</ele>
        <time>2020-06-29T10:18:58Z</time>
      </trkpt>
      <trkpt lat="48.6242" lon="6.34784">
        <ele>215.2</ele>
        <time>2020-06-29T10:18:59Z</time>
      </trkpt>
      <trkpt lat="48.62416" lon="6.34788">
        <ele>215.3</ele>
        <time>2020-06-29T10:19:00Z</time>
      </trkpt>
      <trkpt lat="48.62413" lon="6.34791">
        <ele>215.4</ele>
        <time>2020-06-29T10:19:01Z</time>
      </trkpt>
      <trkpt lat="48.62409" lon="6.34794">
        <ele>215.5</ele>
        <time>2020-06-29T10:19:02Z</time>
      </trkpt>
      <trkpt lat="48.62406" lon="6.34797">
        <ele>215.5</ele>
        <time>2020-06-29T10:19:03Z</time>
      </trkpt>
      <trkpt lat="48.62402" lon="6.348">
        <ele>215.6</ele>
        <time>2020-06-29T10:19:04Z</time>
      </trkpt>
      <trkpt lat="48.62399" lon="6.34804">
        <ele>215.6</ele>
        <time>2020-06-29T10:19:05Z</time>
      </trkpt>
      <trkpt lat="48.62396" lon="6.34808">
        <ele>215.6</ele>
        <time>2020-06-29T10:19:06Z</time>
      </trkpt>
      <trkpt lat="48.62393" lon="6.34812">
        <ele>215.6</ele>
        <time>2020-06-29T10:19:07Z</time>
      </trkpt>
      <trkpt lat="48.6239" lon="6.34816">
        <ele>215.6</ele>
        <time>2020-06-29T10:19:08Z</time>
      </trkpt>
      <trkpt lat="48.62385" lon="6.34819">
        <ele>215.6</ele>
        <time>2020-06-29T10:19:09Z</time>
      </trkpt>
      <trkpt lat="48.62382" lon="6.34822">
        <ele>215.7</ele>
        <time>2020-06-29T10:19:10Z</time>
      </trkpt>
      <trkpt lat="48.62378" lon="6.34825">
        <ele>215.7</ele>
        <time>2020-06-29T10:19:11Z</time>
      </trkpt>
      <trkpt lat="48.62375" lon="6.34828">
        <ele>215.7</ele>
        <time>2020-06-29T10:19:12Z</time>
      </trkpt>
      <trkpt lat="48.62372" lon="6.34831">
        <ele>215.7</ele>
        <time>2020-06-29T10:19:13Z</time>
      </trkpt>
      <trkpt lat="48.62369" lon="6.34835">
        <ele>215.8</ele>
        <time>2020-06-29T10:19:14Z</time>
      </trkpt>
      <trkpt lat="48.62365" lon="6.34838">
        <ele>215.8</ele>
        <time>2020-06-29T10:19:15Z</time>
      </trkpt>
      <trkpt lat="48.62362" lon="6.34841">
        <ele>215.8</ele>
        <time>2020-06-29T10:19:16Z</time>
      </trkpt>
      <trkpt lat="48.62359" lon="6.34845">
        <ele>215.9</ele>
        <time>2020-06-29T10:19:17Z</time>
      </trkpt>
      <trkpt lat="48.62356" lon="6.34848">
        <ele>215.9</ele>
        <time>2020-06-29T10:19:18Z</time>
      </trkpt>
      <trkpt lat="48.62353" lon="6.34852">
        <ele>215.9</ele>
        <time>2020-06-29T10:19:19Z</time>
      </trkpt>
      <trkpt lat="48.6235" lon="6.34854">
        <ele>216</ele>
        <time>2020-06-29T10:19:20Z</time>
      </trkpt>
      <trkpt lat="48.62347" lon="6.34857">
        <ele>216</ele>
        <time>2020-06-29T10:19:21Z</time>
      </trkpt>
      <trkpt lat="48.62344" lon="6.3486">
        <ele>216.1</ele>
        <time>2020-06-29T10:19:22Z</time>
      </trkpt>
      <trkpt lat="48.62342" lon="6.34862">
        <ele>216.1</ele>
        <time>2020-06-29T10:19:23Z</time>
      </trkpt>
      <trkpt lat="48.62338" lon="6.34866">
        <ele>216.2</ele>
        <time>2020-06-29T10:19:24Z</time>
      </trkpt>
      <trkpt lat="48.62337" lon="6.34867">
        <ele>216.2</ele>
        <time>2020-06-29T10:19:25Z</time>
      </trkpt>
      <trkpt lat="48.62334" lon="6.34869">
        <ele>216.2</ele>
        <time>2020-06-29T10:19:26Z</time>
      </trkpt>
      <trkpt lat="48.62331" lon="6.34872">
        <ele>216.3</ele>
        <time>2020-06-29T10:19:27Z</time>
      </trkpt>
      <trkpt lat="48.62329" lon="6.34873">
        <ele>216.3</ele>
        <time>2020-06-29T10:19:28Z</time>
      </trkpt>
      <trkpt lat="48.62327" lon="6.34874">
        <ele>216.3</ele>
        <time>2020-06-29T10:19:29Z</time>
      </trkpt>
      <trkpt lat="48.62326" lon="6.34876">
        <ele>216.3</ele>
        <time>2020-06-29T10:19:30Z</time>
      </trkpt>
      <trkpt lat="48.62327" lon="6.34878">
        <ele>216.3</ele>
        <time>2020-06-29T10:19:31Z</time>
      </trkpt>
      <trkpt lat="48.62327" lon="6.34879">
        <ele>216.3</ele>
        <time>2020-06-29T10:19:32Z</time>
      </trkpt>
      <trkpt lat="48.62326" lon="6.3488">
        <ele>216.3</ele>
        <time>2020-06-29T10:19:33Z</time>
      </trkpt>
      <trkpt lat="48.62326" lon="6.3488">
        <ele>216.2</ele>
        <time>2020-06-29T10:19:34Z</time>
      </trkpt>
      <trkpt lat="48.62325" lon="6.34881">
        <ele>216.2</ele>
        <time>2020-06-29T10:19:35Z</time>
      </trkpt>
      <trkpt lat="48.62324" lon="6.34881">
        <ele>216.2</ele>
        <time>2020-06-29T10:19:36Z</time>
      </trkpt>
      <trkpt lat="48.62323" lon="6.3488">
        <ele>216.2</ele>
        <time>2020-06-29T10:19:37Z</time>
      </trkpt>
      <trkpt lat="48.62322" lon="6.34878">
        <ele>216.2</ele>
        <time>2020-06-29T10:19:38Z</time>
      </trkpt>
      <trkpt lat="48.62321" lon="6.34878">
        <ele>216.2</ele>
        <time>2020-06-29T10:19:39Z</time>
      </trkpt>
      <trkpt lat="48.62322" lon="6.34878">
        <ele>216.2</ele>
        <time>2020-06-29T10:19:40Z</time>
      </trkpt>
      <trkpt lat="48.62322" lon="6.34877">
        <ele>216.2</ele>
        <time>2020-06-29T10:19:41Z</time>
      </trkpt>
      <trkpt lat="48.62328" lon="6.34877">
        <ele>216.2</ele>
        <time>2020-06-29T10:20:37Z</time>
      </trkpt>
      <trkpt lat="48.62328" lon="6.34876">
        <ele>216.2</ele>
        <time>2020-06-29T10:20:38Z</time>
      </trkpt>
      <trkpt lat="48.6233" lon="6.34872">
        <ele>216.1</ele>
        <time>2020-06-29T10:20:39Z</time>
      </trkpt>
      <trkpt lat="48.62333" lon="6.34868">
        <ele>216.1</ele>
        <time>2020-06-29T10:20:40Z</time>
      </trkpt>
      <trkpt lat="48.62334" lon="6.34867">
        <ele>216.1</ele>
        <time>2020-06-29T10:20:41Z</time>
      </trkpt>
      <trkpt lat="48.62336" lon="6.34865">
        <ele>216.1</ele>
        <time>2020-06-29T10:20:42Z</time>
      </trkpt>
      <trkpt lat="48.62337" lon="6.34864">
        <ele>216.1</ele>
        <time>2020-06-29T10:20:43Z</time>
      </trkpt>
      <trkpt lat="48.6234" lon="6.34862">
        <ele>216.1</ele>
        <time>2020-06-29T10:20:44Z</time>
      </trkpt>
      <trkpt lat="48.62341" lon="6.3486">
        <ele>216.1</ele>
        <time>2020-06-29T10:20:45Z</time>
      </trkpt>
      <trkpt lat="48.62341" lon="6.34858">
        <ele>216.1</ele>
        <time>2020-06-29T10:20:46Z</time>
      </trkpt>
      <trkpt lat="48.62342" lon="6.34856">
        <ele>216</ele>
        <time>2020-06-29T10:20:47Z</time>
      </trkpt>
      <trkpt lat="48.62344" lon="6.34853">
        <ele>216</ele>
        <time>2020-06-29T10:20:48Z</time>
      </trkpt>
      <trkpt lat="48.62346" lon="6.34848">
        <ele>216</ele>
        <time>2020-06-29T10:20:49Z</time>
      </trkpt>
      <trkpt lat="48.62347" lon="6.34846">
        <ele>216</ele>
        <time>2020-06-29T10:20:50Z</time>
      </trkpt>
      <trkpt lat="48.6235" lon="6.34842">
        <ele>215.9</ele>
        <time>2020-06-29T10:20:51Z</time>
      </trkpt>
      <trkpt lat="48.62351" lon="6.34841">
        <ele>215.9</ele>
        <time>2020-06-29T10:20:52Z</time>
      </trkpt>
      <trkpt lat="48.62353" lon="6.34841">
        <ele>215.9</ele>
        <time>2020-06-29T10:20:53Z</time>
      </trkpt>
      <trkpt lat="48.62354" lon="6.3484">
        <ele>215.9</ele>
        <time>2020-06-29T10:20:54Z</time>
      </trkpt>
      <trkpt lat="48.62355" lon="6.3484">
        <ele>215.9</ele>
        <time>2020-06-29T10:20:55Z</time>
      </trkpt>
      <trkpt lat="48.62356" lon="6.34839">
        <ele>215.9</ele>
        <time>2020-06-29T10:20:56Z</time>
      </trkpt>
      <trkpt lat="48.62358" lon="6.34837">
        <ele>215.9</ele>
        <time>2020-06-29T10:20:57Z</time>
      </trkpt>
      <trkpt lat="48.62361" lon="6.34833">
        <ele>215.8</ele>
        <time>2020-06-29T10:20:58Z</time>
      </trkpt>
      <trkpt lat="48.62362" lon="6.34832">
        <ele>215.8</ele>
        <time>2020-06-29T10:20:59Z</time>
      </trkpt>
      <trkpt lat="48.62365" lon="6.34829">
        <ele>215.8</ele>
        <time>2020-06-29T10:21:00Z</time>
      </trkpt>
      <trkpt lat="48.62367" lon="6.34827">
        <ele>215.8</ele>
        <time>2020-06-29T10:21:01Z</time>
      </trkpt>
      <trkpt lat="48.6237" lon="6.34824">
        <ele>215.7</ele>
        <time>2020-06-29T10:21:02Z</time>
      </trkpt>
      <trkpt lat="48.62373" lon="6.34822">
        <ele>215.7</ele>
        <time>2020-06-29T10:21:03Z</time>
      </trkpt>
      <trkpt lat="48.62375" lon="6.34818">
        <ele>215.7</ele>
        <time>2020-06-29T10:21:04Z</time>
      </trkpt>
      <trkpt lat="48.62378" lon="6.34815">
        <ele>215.7</ele>
        <time>2020-06-29T10:21:05Z</time>
      </trkpt>
      <trkpt lat="48.62381" lon="6.34813">
        <ele>215.6</ele>
        <time>2020-06-29T10:21:06Z</time>
      </trkpt>
      <trkpt lat="48.62384" lon="6.3481">
        <ele>215.6</ele>
        <time>2020-06-29T10:21:07Z</time>
      </trkpt>
      <trkpt lat="48.62386" lon="6.34806">
        <ele>215.6</ele>
        <time>2020-06-29T10:21:08Z</time>
      </trkpt>
      <trkpt lat="48.62389" lon="6.34803">
        <ele>215.6</ele>
        <time>2020-06-29T10:21:09Z</time>
      </trkpt>
      <trkpt lat="48.62391" lon="6.34799">
        <ele>215.6</ele>
        <time>2020-06-29T10:21:10Z</time>
      </trkpt>
      <trkpt lat="48.62392" lon="6.34798">
        <ele>215.6</ele>
        <time>2020-06-29T10:21:11Z</time>
      </trkpt>
      <trkpt lat="48.62395" lon="6.34794">
        <ele>215.6</ele>
        <time>2020-06-29T10:21:12Z</time>
      </trkpt>
      <trkpt lat="48.62396" lon="6.34793">
        <ele>215.6</ele>
        <time>2020-06-29T10:21:13Z</time>
      </trkpt>
      <trkpt lat="48.62398" lon="6.3479">
        <ele>215.5</ele>
        <time>2020-06-29T10:21:14Z</time>
      </trkpt>
      <trkpt lat="48.62401" lon="6.34787">
        <ele>215.5</ele>
        <time>2020-06-29T10:21:15Z</time>
      </trkpt>
      <trkpt lat="48.62404" lon="6.34785">
        <ele>215.4</ele>
        <time>2020-06-29T10:21:16Z</time>
      </trkpt>
      <trkpt lat="48.62407" lon="6.34784">
        <ele>215.4</ele>
        <time>2020-06-29T10:21:17Z</time>
      </trkpt>
      <trkpt lat="48.62411" lon="6.34783">
        <ele>215.3</ele>
        <time>2020-06-29T10:21:18Z</time>
      </trkpt>
      <trkpt lat="48.62414" lon="6.34782">
        <ele>215.3</ele>
        <time>2020-06-29T10:21:19Z</time>
      </trkpt>
      <trkpt lat="48.62415" lon="6.34781">
        <ele>215.3</ele>
        <time>2020-06-29T10:21:20Z</time>
      </trkpt>
      <trkpt lat="48.62419" lon="6.34779">
        <ele>215.2</ele>
        <time>2020-06-29T10:21:21Z</time>
      </trkpt>
      <trkpt lat="48.62419" lon="6.34779">
        <ele>215.2</ele>
        <time>2020-06-29T10:21:22Z</time>
      </trkpt>
      <trkpt lat="48.62422" lon="6.34777">
        <ele>215.1</ele>
        <time>2020-06-29T10:21:23Z</time>
      </trkpt>
      <trkpt lat="48.62423" lon="6.34776">
        <ele>215.1</ele>
        <time>2020-06-29T10:21:24Z</time>
      </trkpt>
      <trkpt lat="48.62426" lon="6.34774">
        <ele>215.1</ele>
        <time>2020-06-29T10:21:25Z</time>
      </trkpt>
      <trkpt lat="48.62428" lon="6.34771">
        <ele>215</ele>
        <time>2020-06-29T10:21:26Z</time>
      </trkpt>
      <trkpt lat="48.6243" lon="6.34768">
        <ele>215</ele>
        <time>2020-06-29T10:21:27Z</time>
      </trkpt>
      <trkpt lat="48.62434" lon="6.34762">
        <ele>214.9</ele>
        <time>2020-06-29T10:21:28Z</time>
      </trkpt>
      <trkpt lat="48.62438" lon="6.34757">
        <ele>214.8</ele>
        <time>2020-06-29T10:21:29Z</time>
      </trkpt>
      <trkpt lat="48.62442" lon="6.34752">
        <ele>214.7</ele>
        <time>2020-06-29T10:21:30Z</time>
      </trkpt>
      <trkpt lat="48.62446" lon="6.34748">
        <ele>214.6</ele>
        <time>2020-06-29T10:21:31Z</time>
      </trkpt>
      <trkpt lat="48.6245" lon="6.34744">
        <ele>214.6</ele>
        <time>2020-06-29T10:21:32Z</time>
      </trkpt>
      <trkpt lat="48.62453" lon="6.34742">
        <ele>214.5</ele>
        <time>2020-06-29T10:21:33Z</time>
      </trkpt>
      <trkpt lat="48.62455" lon="6.34739">
        <ele>214.4</ele>
        <time>2020-06-29T10:21:34Z</time>
      </trkpt>
      <trkpt lat="48.62458" lon="6.34735">
        <ele>214.4</ele>
        <time>2020-06-29T10:21:35Z</time>
      </trkpt>
      <trkpt lat="48.62459" lon="6.34734">
        <ele>214.4</ele>
        <time>2020-06-29T10:21:36Z</time>
      </trkpt>
      <trkpt lat="48.62462" lon="6.34731">
        <ele>214.3</ele>
        <time>2020-06-29T10:21:37Z</time>
      </trkpt>
      <trkpt lat="48.62465" lon="6.34729">
        <ele>214.2</ele>
        <time>2020-06-29T10:21:38Z</time>
      </trkpt>
      <trkpt lat="48.62469" lon="6.34725">
        <ele>214.2</ele>
        <time>2020-06-29T10:21:39Z</time>
      </trkpt>
      <trkpt lat="48.6247" lon="6.34724">
        <ele>214.1</ele>
        <time>2020-06-29T10:21:40Z</time>
      </trkpt>
      <trkpt lat="48.62473" lon="6.34721">
        <ele>214.1</ele>
        <time>2020-06-29T10:21:41Z</time>
      </trkpt>
      <trkpt lat="48.62476" lon="6.34717">
        <ele>214</ele>
        <time>2020-06-29T10:21:42Z</time>
      </trkpt>
      <trkpt lat="48.6248" lon="6.34714">
        <ele>213.9</ele>
        <time>2020-06-29T10:21:43Z</time>
      </trkpt>
      <trkpt lat="48.62481" lon="6.34712">
        <ele>213.9</ele>
        <time>2020-06-29T10:21:44Z</time>
      </trkpt>
      <trkpt lat="48.62484" lon="6.3471">
        <ele>213.8</ele>
        <time>2020-06-29T10:21:45Z</time>
      </trkpt>
      <trkpt lat="48.62487" lon="6.34706">
        <ele>213.8</ele>
        <time>2020-06-29T10:21:46Z</time>
      </trkpt>
      <trkpt lat="48.6249" lon="6.34703">
        <ele>213.7</ele>
        <time>2020-06-29T10:21:47Z</time>
      </trkpt>
      <trkpt lat="48.62493" lon="6.347">
        <ele>213.7</ele>
        <time>2020-06-29T10:21:48Z</time>
      </trkpt>
      <trkpt lat="48.62495" lon="6.34695">
        <ele>213.6</ele>
        <time>2020-06-29T10:21:49Z</time>
      </trkpt>
      <trkpt lat="48.62497" lon="6.34691">
        <ele>213.6</ele>
        <time>2020-06-29T10:21:50Z</time>
      </trkpt>
      <trkpt lat="48.625" lon="6.34688">
        <ele>213.5</ele>
        <time>2020-06-29T10:21:51Z</time>
      </trkpt>
      <trkpt lat="48.62503" lon="6.34686">
        <ele>213.5</ele>
        <time>2020-06-29T10:21:52Z</time>
      </trkpt>
      <trkpt lat="48.62507" lon="6.34682">
        <ele>213.4</ele>
        <time>2020-06-29T10:21:53Z</time>
      </trkpt>
      <trkpt lat="48.62508" lon="6.3468">
        <ele>213.4</ele>
        <time>2020-06-29T10:21:54Z</time>
      </trkpt>
      <trkpt lat="48.62511" lon="6.34676">
        <ele>213.3</ele>
        <time>2020-06-29T10:21:55Z</time>
      </trkpt>
      <trkpt lat="48.62515" lon="6.34673">
        <ele>213.3</ele>
        <time>2020-06-29T10:21:56Z</time>
      </trkpt>
      <trkpt lat="48.62518" lon="6.34669">
        <ele>213.3</ele>
        <time>2020-06-29T10:21:57Z</time>
      </trkpt>
      <trkpt lat="48.62522" lon="6.34667">
        <ele>213.2</ele>
        <time>2020-06-29T10:21:58Z</time>
      </trkpt>
      <trkpt lat="48.62525" lon="6.34663">
        <ele>213.2</ele>
        <time>2020-06-29T10:21:59Z</time>
      </trkpt>
      <trkpt lat="48.62529" lon="6.34659">
        <ele>213.1</ele>
        <time>2020-06-29T10:22:00Z</time>
      </trkpt>
      <trkpt lat="48.62533" lon="6.34655">
        <ele>213.1</ele>
        <time>2020-06-29T10:22:01Z</time>
      </trkpt>
      <trkpt lat="48.62537" lon="6.34652">
        <ele>213</ele>
        <time>2020-06-29T10:22:02Z</time>
      </trkpt>
      <trkpt lat="48.62541" lon="6.34648">
        <ele>213</ele>
        <time>2020-06-29T10:22:03Z</time>
      </trkpt>
      <trkpt lat="48.62543" lon="6.34645">
        <ele>212.9</ele>
        <time>2020-06-29T10:22:04Z</time>
      </trkpt>
      <trkpt lat="48.62548" lon="6.34644">
        <ele>212.9</ele>
        <time>2020-06-29T10:22:05Z</time>
      </trkpt>
      <trkpt lat="48.62551" lon="6.34641">
        <ele>212.8</ele>
        <time>2020-06-29T10:22:06Z</time>
      </trkpt>
      <trkpt lat="48.62554" lon="6.34637">
        <ele>212.7</ele>
        <time>2020-06-29T10:22:07Z</time>
      </trkpt>
      <trkpt lat="48.62557" lon="6.34632">
        <ele>212.6</ele>
        <time>2020-06-29T10:22:08Z</time>
      </trkpt>
      <trkpt lat="48.62562" lon="6.34628">
        <ele>212.4</ele>
        <time>2020-06-29T10:22:09Z</time>
      </trkpt>
      <trkpt lat="48.62566" lon="6.34623">
        <ele>212.3</ele>
        <time>2020-06-29T10:22:10Z</time>
      </trkpt>
      <trkpt lat="48.62568" lon="6.34618">
        <ele>212.2</ele>
        <time>2020-06-29T10:22:11Z</time>
      </trkpt>
      <trkpt lat="48.62571" lon="6.34614">
        <ele>212.1</ele>
        <time>2020-06-29T10:22:12Z</time>
      </trkpt>
      <trkpt lat="48.62574" lon="6.34608">
        <ele>211.9</ele>
        <time>2020-06-29T10:22:13Z</time>
      </trkpt>
      <trkpt lat="48.62578" lon="6.34603">
        <ele>211.8</ele>
        <time>2020-06-29T10:22:14Z</time>
      </trkpt>
      <trkpt lat="48.62581" lon="6.34595">
        <ele>211.6</ele>
        <time>2020-06-29T10:22:15Z</time>
      </trkpt>
      <trkpt lat="48.62584" lon="6.34587">
        <ele>211.4</ele>
        <time>2020-06-29T10:22:16Z</time>
      </trkpt>
      <trkpt lat="48.62587" lon="6.34579">
        <ele>211.2</ele>
        <time>2020-06-29T10:22:17Z</time>
      </trkpt>
      <trkpt lat="48.62591" lon="6.3457">
        <ele>211</ele>
        <time>2020-06-29T10:22:18Z</time>
      </trkpt>
      <trkpt lat="48.62594" lon="6.34563">
        <ele>210.9</ele>
        <time>2020-06-29T10:22:19Z</time>
      </trkpt>
      <trkpt lat="48.62597" lon="6.34556">
        <ele>210.8</ele>
        <time>2020-06-29T10:22:20Z</time>
      </trkpt>
      <trkpt lat="48.626" lon="6.34548">
        <ele>210.8</ele>
        <time>2020-06-29T10:22:21Z</time>
      </trkpt>
      <trkpt lat="48.62605" lon="6.34543">
        <ele>210.7</ele>
        <time>2020-06-29T10:22:22Z</time>
      </trkpt>
      <trkpt lat="48.62608" lon="6.34538">
        <ele>210.6</ele>
        <time>2020-06-29T10:22:23Z</time>
      </trkpt>
      <trkpt lat="48.62611" lon="6.34532">
        <ele>210.5</ele>
        <time>2020-06-29T10:22:24Z</time>
      </trkpt>
      <trkpt lat="48.62615" lon="6.34527">
        <ele>210.4</ele>
        <time>2020-06-29T10:22:25Z</time>
      </trkpt>
      <trkpt lat="48.6262" lon="6.34522">
        <ele>210.3</ele>
        <time>2020-06-29T10:22:26Z</time>
      </trkpt>
      <trkpt lat="48.62624" lon="6.34518">
        <ele>210.1</ele>
        <time>2020-06-29T10:22:27Z</time>
      </trkpt>
      <trkpt lat="48.62628" lon="6.34513">
        <ele>210</ele>
        <time>2020-06-29T10:22:28Z</time>
      </trkpt>
      <trkpt lat="48.62632" lon="6.34506">
        <ele>209.9</ele>
        <time>2020-06-29T10:22:29Z</time>
      </trkpt>
      <trkpt lat="48.62636" lon="6.34499">
        <ele>209.7</ele>
        <time>2020-06-29T10:22:30Z</time>
      </trkpt>
      <trkpt lat="48.62638" lon="6.34491">
        <ele>209.6</ele>
        <time>2020-06-29T10:22:31Z</time>
      </trkpt>
      <trkpt lat="48.6264" lon="6.34483">
        <ele>209.4</ele>
        <time>2020-06-29T10:22:32Z</time>
      </trkpt>
      <trkpt lat="48.62644" lon="6.34476">
        <ele>209.3</ele>
        <time>2020-06-29T10:22:33Z</time>
      </trkpt>
      <trkpt lat="48.62648" lon="6.34469">
        <ele>209.1</ele>
        <time>2020-06-29T10:22:34Z</time>
      </trkpt>
      <trkpt lat="48.62653" lon="6.34466">
        <ele>209</ele>
        <time>2020-06-29T10:22:35Z</time>
      </trkpt>
      <trkpt lat="48.62655" lon="6.34461">
        <ele>208.9</ele>
        <time>2020-06-29T10:22:36Z</time>
      </trkpt>
      <trkpt lat="48.62659" lon="6.34455">
        <ele>208.7</ele>
        <time>2020-06-29T10:22:37Z</time>
      </trkpt>
      <trkpt lat="48.62663" lon="6.34449">
        <ele>208.5</ele>
        <time>2020-06-29T10:22:38Z</time>
      </trkpt>
      <trkpt lat="48.62666" lon="6.34443">
        <ele>208.4</ele>
        <time>2020-06-29T10:22:39Z</time>
      </trkpt>
      <trkpt lat="48.6267" lon="6.34438">
        <ele>208.2</ele>
        <time>2020-06-29T10:22:40Z</time>
      </trkpt>
      <trkpt lat="48.62674" lon="6.34432">
        <ele>208</ele>
        <time>2020-06-29T10:22:41Z</time>
      </trkpt>
      <trkpt lat="48.62678" lon="6.34424">
        <ele>207.9</ele>
        <time>2020-06-29T10:22:42Z</time>
      </trkpt>
      <trkpt lat="48.62681" lon="6.34417">
        <ele>207.7</ele>
        <time>2020-06-29T10:22:43Z</time>
      </trkpt>
      <trkpt lat="48.62684" lon="6.34408">
        <ele>207.6</ele>
        <time>2020-06-29T10:22:44Z</time>
      </trkpt>
      <trkpt lat="48.62688" lon="6.34402">
        <ele>207.5</ele>
        <time>2020-06-29T10:22:45Z</time>
      </trkpt>
      <trkpt lat="48.62691" lon="6.34395">
        <ele>207.4</ele>
        <time>2020-06-29T10:22:46Z</time>
      </trkpt>
      <trkpt lat="48.62694" lon="6.34389">
        <ele>207.3</ele>
        <time>2020-06-29T10:22:47Z</time>
      </trkpt>
      <trkpt lat="48.62697" lon="6.34382">
        <ele>207.2</ele>
        <time>2020-06-29T10:22:48Z</time>
      </trkpt>
      <trkpt lat="48.62701" lon="6.34376">
        <ele>207.2</ele>
        <time>2020-06-29T10:22:49Z</time>
      </trkpt>
      <trkpt lat="48.62707" lon="6.34373">
        <ele>207.2</ele>
        <time>2020-06-29T10:22:50Z</time>
      </trkpt>
      <trkpt lat="48.62711" lon="6.3437">
        <ele>207.2</ele>
        <time>2020-06-29T10:22:51Z</time>
      </trkpt>
      <trkpt lat="48.62715" lon="6.34366">
        <ele>207.2</ele>
        <time>2020-06-29T10:22:52Z</time>
      </trkpt>
      <trkpt lat="48.62719" lon="6.3436">
        <ele>207.2</ele>
        <time>2020-06-29T10:22:53Z</time>
      </trkpt>
      <trkpt lat="48.62724" lon="6.34356">
        <ele>207.1</ele>
        <time>2020-06-29T10:22:54Z</time>
      </trkpt>
      <trkpt lat="48.62729" lon="6.34353">
        <ele>207.1</ele>
        <time>2020-06-29T10:22:55Z</time>
      </trkpt>
      <trkpt lat="48.62734" lon="6.34349">
        <ele>207.1</ele>
        <time>2020-06-29T10:22:56Z</time>
      </trkpt>
      <trkpt lat="48.62739" lon="6.34345">
        <ele>207</ele>
        <time>2020-06-29T10:22:57Z</time>
      </trkpt>
      <trkpt lat="48.62744" lon="6.34341">
        <ele>207</ele>
        <time>2020-06-29T10:22:58Z</time>
      </trkpt>
      <trkpt lat="48.62748" lon="6.34335">
        <ele>207</ele>
        <time>2020-06-29T10:22:59Z</time>
      </trkpt>
      <trkpt lat="48.62754" lon="6.34332">
        <ele>206.9</ele>
        <time>2020-06-29T10:23:00Z</time>
      </trkpt>
      <trkpt lat="48.62759" lon="6.34329">
        <ele>206.9</ele>
        <time>2020-06-29T10:23:01Z</time>
      </trkpt>
      <trkpt lat="48.62764" lon="6.34325">
        <ele>207</ele>
        <time>2020-06-29T10:23:02Z</time>
      </trkpt>
      <trkpt lat="48.62769" lon="6.34321">
        <ele>207</ele>
        <time>2020-06-29T10:23:03Z</time>
      </trkpt>
      <trkpt lat="48.62773" lon="6.34316">
        <ele>207.1</ele>
        <time>2020-06-29T10:23:04Z</time>
      </trkpt>
      <trkpt lat="48.62779" lon="6.34311">
        <ele>207.1</ele>
        <time>2020-06-29T10:23:05Z</time>
      </trkpt>
      <trkpt lat="48.62784" lon="6.34307">
        <ele>207.2</ele>
        <time>2020-06-29T10:23:06Z</time>
      </trkpt>
      <trkpt lat="48.62788" lon="6.343">
        <ele>207.2</ele>
        <time>2020-06-29T10:23:07Z</time>
      </trkpt>
      <trkpt lat="48.62793" lon="6.34295">
        <ele>207.3</ele>
        <time>2020-06-29T10:23:08Z</time>
      </trkpt>
      <trkpt lat="48.62797" lon="6.34289">
        <ele>207.3</ele>
        <time>2020-06-29T10:23:09Z</time>
      </trkpt>
      <trkpt lat="48.62801" lon="6.34282">
        <ele>207.4</ele>
        <time>2020-06-29T10:23:10Z</time>
      </trkpt>
      <trkpt lat="48.62803" lon="6.34275">
        <ele>207.4</ele>
        <time>2020-06-29T10:23:11Z</time>
      </trkpt>
      <trkpt lat="48.62805" lon="6.34266">
        <ele>207.5</ele>
        <time>2020-06-29T10:23:12Z</time>
      </trkpt>
      <trkpt lat="48.62808" lon="6.34258">
        <ele>207.5</ele>
        <time>2020-06-29T10:23:13Z</time>
      </trkpt>
      <trkpt lat="48.6281" lon="6.34251">
        <ele>207.5</ele>
        <time>2020-06-29T10:23:14Z</time>
      </trkpt>
      <trkpt lat="48.62812" lon="6.34244">
        <ele>207.5</ele>
        <time>2020-06-29T10:23:15Z</time>
      </trkpt>
      <trkpt lat="48.62814" lon="6.34237">
        <ele>207.4</ele>
        <time>2020-06-29T10:23:16Z</time>
      </trkpt>
      <trkpt lat="48.62815" lon="6.3423">
        <ele>207.5</ele>
        <time>2020-06-29T10:23:17Z</time>
      </trkpt>
      <trkpt lat="48.62816" lon="6.34223">
        <ele>207.5</ele>
        <time>2020-06-29T10:23:18Z</time>
      </trkpt>
      <trkpt lat="48.62818" lon="6.34216">
        <ele>207.6</ele>
        <time>2020-06-29T10:23:19Z</time>
      </trkpt>
      <trkpt lat="48.6282" lon="6.34208">
        <ele>207.6</ele>
        <time>2020-06-29T10:23:20Z</time>
      </trkpt>
      <trkpt lat="48.62822" lon="6.34199">
        <ele>207.7</ele>
        <time>2020-06-29T10:23:21Z</time>
      </trkpt>
      <trkpt lat="48.62823" lon="6.34189">
        <ele>207.7</ele>
        <time>2020-06-29T10:23:22Z</time>
      </trkpt>
      <trkpt lat="48.62824" lon="6.3418">
        <ele>207.8</ele>
        <time>2020-06-29T10:23:23Z</time>
      </trkpt>
      <trkpt lat="48.62827" lon="6.34172">
        <ele>207.9</ele>
        <time>2020-06-29T10:23:24Z</time>
      </trkpt>
      <trkpt lat="48.62829" lon="6.34164">
        <ele>207.9</ele>
        <time>2020-06-29T10:23:25Z</time>
      </trkpt>
      <trkpt lat="48.62831" lon="6.34155">
        <ele>208.1</ele>
        <time>2020-06-29T10:23:26Z</time>
      </trkpt>
      <trkpt lat="48.62834" lon="6.34146">
        <ele>208</ele>
        <time>2020-06-29T10:23:27Z</time>
      </trkpt>
      <trkpt lat="48.62835" lon="6.34138">
        <ele>208</ele>
        <time>2020-06-29T10:23:28Z</time>
      </trkpt>
      <trkpt lat="48.62837" lon="6.3413">
        <ele>208</ele>
        <time>2020-06-29T10:23:29Z</time>
      </trkpt>
      <trkpt lat="48.62839" lon="6.34124">
        <ele>207.9</ele>
        <time>2020-06-29T10:23:30Z</time>
      </trkpt>
      <trkpt lat="48.62841" lon="6.34116">
        <ele>207.9</ele>
        <time>2020-06-29T10:23:31Z</time>
      </trkpt>
      <trkpt lat="48.62844" lon="6.34107">
        <ele>207.9</ele>
        <time>2020-06-29T10:23:32Z</time>
      </trkpt>
      <trkpt lat="48.62846" lon="6.34099">
        <ele>207.8</ele>
        <time>2020-06-29T10:23:33Z</time>
      </trkpt>
      <trkpt lat="48.62848" lon="6.3409">
        <ele>207.8</ele>
        <time>2020-06-29T10:23:34Z</time>
      </trkpt>
      <trkpt lat="48.62851" lon="6.34082">
        <ele>207.7</ele>
        <time>2020-06-29T10:23:35Z</time>
      </trkpt>
      <trkpt lat="48.62853" lon="6.34073">
        <ele>207.7</ele>
        <time>2020-06-29T10:23:36Z</time>
      </trkpt>
      <trkpt lat="48.62855" lon="6.34064">
        <ele>207.7</ele>
        <time>2020-06-29T10:23:37Z</time>
      </trkpt>
      <trkpt lat="48.62856" lon="6.34056">
        <ele>207.7</ele>
        <time>2020-06-29T10:23:38Z</time>
      </trkpt>
      <trkpt lat="48.6286" lon="6.34048">
        <ele>207.7</ele>
        <time>2020-06-29T10:23:39Z</time>
      </trkpt>
      <trkpt lat="48.62861" lon="6.3404">
        <ele>207.7</ele>
        <time>2020-06-29T10:23:40Z</time>
      </trkpt>
      <trkpt lat="48.62863" lon="6.34031">
        <ele>207.8</ele>
        <time>2020-06-29T10:23:41Z</time>
      </trkpt>
      <trkpt lat="48.62866" lon="6.34023">
        <ele>207.8</ele>
        <time>2020-06-29T10:23:42Z</time>
      </trkpt>
      <trkpt lat="48.62868" lon="6.34013">
        <ele>207.8</ele>
        <time>2020-06-29T10:23:43Z</time>
      </trkpt>
      <trkpt lat="48.62871" lon="6.34003">
        <ele>207.8</ele>
        <time>2020-06-29T10:23:44Z</time>
      </trkpt>
      <trkpt lat="48.62871" lon="6.33993">
        <ele>207.8</ele>
        <time>2020-06-29T10:23:45Z</time>
      </trkpt>
      <trkpt lat="48.62873" lon="6.33983">
        <ele>207.8</ele>
        <time>2020-06-29T10:23:46Z</time>
      </trkpt>
      <trkpt lat="48.62872" lon="6.33976">
        <ele>207.8</ele>
        <time>2020-06-29T10:23:47Z</time>
      </trkpt>
      <trkpt lat="48.62874" lon="6.33968">
        <ele>207.8</ele>
        <time>2020-06-29T10:23:48Z</time>
      </trkpt>
      <trkpt lat="48.62875" lon="6.3396">
        <ele>207.8</ele>
        <time>2020-06-29T10:23:49Z</time>
      </trkpt>
      <trkpt lat="48.62877" lon="6.3395">
        <ele>207.8</ele>
        <time>2020-06-29T10:23:50Z</time>
      </trkpt>
      <trkpt lat="48.62878" lon="6.33942">
        <ele>207.9</ele>
        <time>2020-06-29T10:23:51Z</time>
      </trkpt>
      <trkpt lat="48.6288" lon="6.33932">
        <ele>207.9</ele>
        <time>2020-06-29T10:23:52Z</time>
      </trkpt>
      <trkpt lat="48.62882" lon="6.33924">
        <ele>207.9</ele>
        <time>2020-06-29T10:23:53Z</time>
      </trkpt>
      <trkpt lat="48.62884" lon="6.33916">
        <ele>207.9</ele>
        <time>2020-06-29T10:23:54Z</time>
      </trkpt>
      <trkpt lat="48.62885" lon="6.33908">
        <ele>207.9</ele>
        <time>2020-06-29T10:23:55Z</time>
      </trkpt>
      <trkpt lat="48.62887" lon="6.33899">
        <ele>207.9</ele>
        <time>2020-06-29T10:23:56Z</time>
      </trkpt>
      <trkpt lat="48.62889" lon="6.33887">
        <ele>207.9</ele>
        <time>2020-06-29T10:23:57Z</time>
      </trkpt>
      <trkpt lat="48.62893" lon="6.33879">
        <ele>207.9</ele>
        <time>2020-06-29T10:23:58Z</time>
      </trkpt>
      <trkpt lat="48.62896" lon="6.33869">
        <ele>207.9</ele>
        <time>2020-06-29T10:23:59Z</time>
      </trkpt>
      <trkpt lat="48.62899" lon="6.33858">
        <ele>207.9</ele>
        <time>2020-06-29T10:24:00Z</time>
      </trkpt>
      <trkpt lat="48.62901" lon="6.3385">
        <ele>207.9</ele>
        <time>2020-06-29T10:24:01Z</time>
      </trkpt>
      <trkpt lat="48.62904" lon="6.33843">
        <ele>207.8</ele>
        <time>2020-06-29T10:24:02Z</time>
      </trkpt>
      <trkpt lat="48.62906" lon="6.33835">
        <ele>207.8</ele>
        <time>2020-06-29T10:24:03Z</time>
      </trkpt>
      <trkpt lat="48.6291" lon="6.33827">
        <ele>207.8</ele>
        <time>2020-06-29T10:24:04Z</time>
      </trkpt>
      <trkpt lat="48.62912" lon="6.33817">
        <ele>207.7</ele>
        <time>2020-06-29T10:24:05Z</time>
      </trkpt>
      <trkpt lat="48.62915" lon="6.33807">
        <ele>207.7</ele>
        <time>2020-06-29T10:24:06Z</time>
      </trkpt>
      <trkpt lat="48.62919" lon="6.33795">
        <ele>207.7</ele>
        <time>2020-06-29T10:24:07Z</time>
      </trkpt>
      <trkpt lat="48.6292" lon="6.33785">
        <ele>207.8</ele>
        <time>2020-06-29T10:24:08Z</time>
      </trkpt>
      <trkpt lat="48.62922" lon="6.33775">
        <ele>207.8</ele>
        <time>2020-06-29T10:24:09Z</time>
      </trkpt>
      <trkpt lat="48.62921" lon="6.33768">
        <ele>207.8</ele>
        <time>2020-06-29T10:24:10Z</time>
      </trkpt>
      <trkpt lat="48.62921" lon="6.33764">
        <ele>207.8</ele>
        <time>2020-06-29T10:24:11Z</time>
      </trkpt>
      <trkpt lat="48.62923" lon="6.33756">
        <ele>207.9</ele>
        <time>2020-06-29T10:24:12Z</time>
      </trkpt>
      <trkpt lat="48.62924" lon="6.33748">
        <ele>208</ele>
        <time>2020-06-29T10:24:13Z</time>
      </trkpt>
      <trkpt lat="48.62925" lon="6.3374">
        <ele>208.1</ele>
        <time>2020-06-29T10:24:14Z</time>
      </trkpt>
      <trkpt lat="48.62927" lon="6.33731">
        <ele>208.2</ele>
        <time>2020-06-29T10:24:15Z</time>
      </trkpt>
      <trkpt lat="48.6293" lon="6.33721">
        <ele>208.2</ele>
        <time>2020-06-29T10:24:16Z</time>
      </trkpt>
      <trkpt lat="48.62932" lon="6.33713">
        <ele>208.2</ele>
        <time>2020-06-29T10:24:17Z</time>
      </trkpt>
      <trkpt lat="48.62934" lon="6.33704">
        <ele>208.1</ele>
        <time>2020-06-29T10:24:18Z</time>
      </trkpt>
      <trkpt lat="48.62936" lon="6.33695">
        <ele>208.1</ele>
        <time>2020-06-29T10:24:19Z</time>
      </trkpt>
      <trkpt lat="48.62939" lon="6.33684">
        <ele>208.1</ele>
        <time>2020-06-29T10:24:20Z</time>
      </trkpt>
      <trkpt lat="48.62942" lon="6.33674">
        <ele>208.1</ele>
        <time>2020-06-29T10:24:21Z</time>
      </trkpt>
      <trkpt lat="48.62944" lon="6.33664">
        <ele>208.1</ele>
        <time>2020-06-29T10:24:22Z</time>
      </trkpt>
      <trkpt lat="48.62947" lon="6.33653">
        <ele>208.1</ele>
        <time>2020-06-29T10:24:23Z</time>
      </trkpt>
      <trkpt lat="48.62949" lon="6.33644">
        <ele>208.1</ele>
        <time>2020-06-29T10:24:24Z</time>
      </trkpt>
      <trkpt lat="48.62951" lon="6.33636">
        <ele>208.2</ele>
        <time>2020-06-29T10:24:25Z</time>
      </trkpt>
      <trkpt lat="48.62952" lon="6.33628">
        <ele>208.2</ele>
        <time>2020-06-29T10:24:26Z</time>
      </trkpt>
      <trkpt lat="48.62954" lon="6.33619">
        <ele>208.2</ele>
        <time>2020-06-29T10:24:27Z</time>
      </trkpt>
      <trkpt lat="48.62955" lon="6.3361">
        <ele>208.2</ele>
        <time>2020-06-29T10:24:28Z</time>
      </trkpt>
      <trkpt lat="48.62956" lon="6.336">
        <ele>208.2</ele>
        <time>2020-06-29T10:24:29Z</time>
      </trkpt>
      <trkpt lat="48.62957" lon="6.33591">
        <ele>208.3</ele>
        <time>2020-06-29T10:24:30Z</time>
      </trkpt>
      <trkpt lat="48.62959" lon="6.33582">
        <ele>208.3</ele>
        <time>2020-06-29T10:24:31Z</time>
      </trkpt>
      <trkpt lat="48.62961" lon="6.3357">
        <ele>208.3</ele>
        <time>2020-06-29T10:24:32Z</time>
      </trkpt>
      <trkpt lat="48.62963" lon="6.33561">
        <ele>208.2</ele>
        <time>2020-06-29T10:24:33Z</time>
      </trkpt>
      <trkpt lat="48.62965" lon="6.33554">
        <ele>208.2</ele>
        <time>2020-06-29T10:24:34Z</time>
      </trkpt>
      <trkpt lat="48.62967" lon="6.33544">
        <ele>208.2</ele>
        <time>2020-06-29T10:24:35Z</time>
      </trkpt>
      <trkpt lat="48.62969" lon="6.33535">
        <ele>208.2</ele>
        <time>2020-06-29T10:24:36Z</time>
      </trkpt>
      <trkpt lat="48.62972" lon="6.33525">
        <ele>208.2</ele>
        <time>2020-06-29T10:24:37Z</time>
      </trkpt>
      <trkpt lat="48.62975" lon="6.33519">
        <ele>208.2</ele>
        <time>2020-06-29T10:24:38Z</time>
      </trkpt>
      <trkpt lat="48.62977" lon="6.33512">
        <ele>208.2</ele>
        <time>2020-06-29T10:24:39Z</time>
      </trkpt>
      <trkpt lat="48.6298" lon="6.33504">
        <ele>208.2</ele>
        <time>2020-06-29T10:24:40Z</time>
      </trkpt>
      <trkpt lat="48.62982" lon="6.33497">
        <ele>208.3</ele>
        <time>2020-06-29T10:24:41Z</time>
      </trkpt>
      <trkpt lat="48.62983" lon="6.33489">
        <ele>208.3</ele>
        <time>2020-06-29T10:24:42Z</time>
      </trkpt>
      <trkpt lat="48.62986" lon="6.33481">
        <ele>208.3</ele>
        <time>2020-06-29T10:24:43Z</time>
      </trkpt>
      <trkpt lat="48.62987" lon="6.33475">
        <ele>208.3</ele>
        <time>2020-06-29T10:24:44Z</time>
      </trkpt>
      <trkpt lat="48.6299" lon="6.33469">
        <ele>208.2</ele>
        <time>2020-06-29T10:24:45Z</time>
      </trkpt>
      <trkpt lat="48.62991" lon="6.33461">
        <ele>208.2</ele>
        <time>2020-06-29T10:24:46Z</time>
      </trkpt>
      <trkpt lat="48.62993" lon="6.33453">
        <ele>208.2</ele>
        <time>2020-06-29T10:24:47Z</time>
      </trkpt>
      <trkpt lat="48.62995" lon="6.33444">
        <ele>208.2</ele>
        <time>2020-06-29T10:24:48Z</time>
      </trkpt>
      <trkpt lat="48.62997" lon="6.33433">
        <ele>208.1</ele>
        <time>2020-06-29T10:24:49Z</time>
      </trkpt>
      <trkpt lat="48.62999" lon="6.33423">
        <ele>208.1</ele>
        <time>2020-06-29T10:24:50Z</time>
      </trkpt>
      <trkpt lat="48.63001" lon="6.33413">
        <ele>208.1</ele>
        <time>2020-06-29T10:24:51Z</time>
      </trkpt>
      <trkpt lat="48.63003" lon="6.33402">
        <ele>208.1</ele>
        <time>2020-06-29T10:24:52Z</time>
      </trkpt>
      <trkpt lat="48.63005" lon="6.33394">
        <ele>208</ele>
        <time>2020-06-29T10:24:53Z</time>
      </trkpt>
      <trkpt lat="48.63007" lon="6.33384">
        <ele>208</ele>
        <time>2020-06-29T10:24:54Z</time>
      </trkpt>
      <trkpt lat="48.63009" lon="6.33374">
        <ele>208</ele>
        <time>2020-06-29T10:24:55Z</time>
      </trkpt>
      <trkpt lat="48.63011" lon="6.33364">
        <ele>208</ele>
        <time>2020-06-29T10:24:56Z</time>
      </trkpt>
      <trkpt lat="48.63013" lon="6.33356">
        <ele>208</ele>
        <time>2020-06-29T10:24:57Z</time>
      </trkpt>
      <trkpt lat="48.63016" lon="6.33348">
        <ele>208</ele>
        <time>2020-06-29T10:24:58Z</time>
      </trkpt>
      <trkpt lat="48.63018" lon="6.33339">
        <ele>208</ele>
        <time>2020-06-29T10:24:59Z</time>
      </trkpt>
      <trkpt lat="48.63021" lon="6.33331">
        <ele>208</ele>
        <time>2020-06-29T10:25:00Z</time>
      </trkpt>
      <trkpt lat="48.63023" lon="6.33324">
        <ele>208</ele>
        <time>2020-06-29T10:25:01Z</time>
      </trkpt>
      <trkpt lat="48.63025" lon="6.33317">
        <ele>208</ele>
        <time>2020-06-29T10:25:02Z</time>
      </trkpt>
      <trkpt lat="48.63028" lon="6.33308">
        <ele>208</ele>
        <time>2020-06-29T10:25:03Z</time>
      </trkpt>
      <trkpt lat="48.6303" lon="6.33299">
        <ele>208</ele>
        <time>2020-06-29T10:25:04Z</time>
      </trkpt>
      <trkpt lat="48.63032" lon="6.33291">
        <ele>208</ele>
        <time>2020-06-29T10:25:05Z</time>
      </trkpt>
      <trkpt lat="48.63035" lon="6.3328">
        <ele>208</ele>
        <time>2020-06-29T10:25:06Z</time>
      </trkpt>
      <trkpt lat="48.63036" lon="6.33272">
        <ele>208</ele>
        <time>2020-06-29T10:25:07Z</time>
      </trkpt>
      <trkpt lat="48.63038" lon="6.33264">
        <ele>207.9</ele>
        <time>2020-06-29T10:25:08Z</time>
      </trkpt>
      <trkpt lat="48.63041" lon="6.33255">
        <ele>207.9</ele>
        <time>2020-06-29T10:25:09Z</time>
      </trkpt>
      <trkpt lat="48.63043" lon="6.33247">
        <ele>207.8</ele>
        <time>2020-06-29T10:25:10Z</time>
      </trkpt>
      <trkpt lat="48.63045" lon="6.33237">
        <ele>207.8</ele>
        <time>2020-06-29T10:25:11Z</time>
      </trkpt>
      <trkpt lat="48.63048" lon="6.33228">
        <ele>207.8</ele>
        <time>2020-06-29T10:25:12Z</time>
      </trkpt>
      <trkpt lat="48.6305" lon="6.3322">
        <ele>207.8</ele>
        <time>2020-06-29T10:25:13Z</time>
      </trkpt>
      <trkpt lat="48.63052" lon="6.3321">
        <ele>207.8</ele>
        <time>2020-06-29T10:25:14Z</time>
      </trkpt>
      <trkpt lat="48.63054" lon="6.33202">
        <ele>207.8</ele>
        <time>2020-06-29T10:25:15Z</time>
      </trkpt>
      <trkpt lat="48.63056" lon="6.33192">
        <ele>207.8</ele>
        <time>2020-06-29T10:25:16Z</time>
      </trkpt>
      <trkpt lat="48.63058" lon="6.33185">
        <ele>207.8</ele>
        <time>2020-06-29T10:25:17Z</time>
      </trkpt>
      <trkpt lat="48.6306" lon="6.33176">
        <ele>207.8</ele>
        <time>2020-06-29T10:25:18Z</time>
      </trkpt>
      <trkpt lat="48.63061" lon="6.33169">
        <ele>207.8</ele>
        <time>2020-06-29T10:25:19Z</time>
      </trkpt>
      <trkpt lat="48.63062" lon="6.33164">
        <ele>207.8</ele>
        <time>2020-06-29T10:25:20Z</time>
      </trkpt>
      <trkpt lat="48.63063" lon="6.33159">
        <ele>207.8</ele>
        <time>2020-06-29T10:25:21Z</time>
      </trkpt>
      <trkpt lat="48.63062" lon="6.33158">
        <ele>207.8</ele>
        <time>2020-06-29T10:25:22Z</time>
      </trkpt>
      <trkpt lat="48.63063" lon="6.33156">
        <ele>207.8</ele>
        <time>2020-06-29T10:25:23Z</time>
      </trkpt>
      <trkpt lat="48.63063" lon="6.33154">
        <ele>207.8</ele>
        <time>2020-06-29T10:25:24Z</time>
      </trkpt>
      <trkpt lat="48.63064" lon="6.33153">
        <ele>207.8</ele>
        <time>2020-06-29T10:25:25Z</time>
      </trkpt>
      <trkpt lat="48.63063" lon="6.33152">
        <ele>207.8</ele>
        <time>2020-06-29T10:25:26Z</time>
      </trkpt>
      <trkpt lat="48.63063" lon="6.33151">
        <ele>207.8</ele>
        <time>2020-06-29T10:25:27Z</time>
      </trkpt>
      <trkpt lat="48.63063" lon="6.33153">
        <ele>207.8</ele>
        <time>2020-06-29T10:25:28Z</time>
      </trkpt>
      <trkpt lat="48.63062" lon="6.33154">
        <ele>207.8</ele>
        <time>2020-06-29T10:25:29Z</time>
      </trkpt>
      <trkpt lat="48.63062" lon="6.33154">
        <ele>207.8</ele>
        <time>2020-06-29T10:25:30Z</time>
      </trkpt>
      <trkpt lat="48.63061" lon="6.33154">
        <ele>207.8</ele>
        <time>2020-06-29T10:25:31Z</time>
      </trkpt>
      <trkpt lat="48.63061" lon="6.33155">
        <ele>207.8</ele>
        <time>2020-06-29T10:25:32Z</time>
      </trkpt>
      <trkpt lat="48.63061" lon="6.33154">
        <ele>207.8</ele>
        <time>2020-06-29T10:25:33Z</time>
      </trkpt>
      <trkpt lat="48.63062" lon="6.33153">
        <ele>207.8</ele>
        <time>2020-06-29T10:25:34Z</time>
      </trkpt>
      <trkpt lat="48.63063" lon="6.33152">
        <ele>207.8</ele>
        <time>2020-06-29T10:25:35Z</time>
      </trkpt>
      <trkpt lat="48.63063" lon="6.33151">
        <ele>207.8</ele>
        <time>2020-06-29T10:25:36Z</time>
      </trkpt>
      <trkpt lat="48.63064" lon="6.33149">
        <ele>207.8</ele>
        <time>2020-06-29T10:25:37Z</time>
      </trkpt>
      <trkpt lat="48.63065" lon="6.33148">
        <ele>207.8</ele>
        <time>2020-06-29T10:25:38Z</time>
      </trkpt>
      <trkpt lat="48.63065" lon="6.33147">
        <ele>207.8</ele>
        <time>2020-06-29T10:26:05Z</time>
      </trkpt>
      <trkpt lat="48.63066" lon="6.33145">
        <ele>207.8</ele>
        <time>2020-06-29T10:26:06Z</time>
      </trkpt>
      <trkpt lat="48.63068" lon="6.3314">
        <ele>207.8</ele>
        <time>2020-06-29T10:26:07Z</time>
      </trkpt>
      <trkpt lat="48.63068" lon="6.33136">
        <ele>207.8</ele>
        <time>2020-06-29T10:26:08Z</time>
      </trkpt>
      <trkpt lat="48.63069" lon="6.33131">
        <ele>207.8</ele>
        <time>2020-06-29T10:26:09Z</time>
      </trkpt>
      <trkpt lat="48.63071" lon="6.33125">
        <ele>207.8</ele>
        <time>2020-06-29T10:26:10Z</time>
      </trkpt>
      <trkpt lat="48.63073" lon="6.33118">
        <ele>207.8</ele>
        <time>2020-06-29T10:26:11Z</time>
      </trkpt>
      <trkpt lat="48.63075" lon="6.33112">
        <ele>207.8</ele>
        <time>2020-06-29T10:26:12Z</time>
      </trkpt>
      <trkpt lat="48.63077" lon="6.33105">
        <ele>207.8</ele>
        <time>2020-06-29T10:26:13Z</time>
      </trkpt>
      <trkpt lat="48.63079" lon="6.33096">
        <ele>207.8</ele>
        <time>2020-06-29T10:26:14Z</time>
      </trkpt>
      <trkpt lat="48.6308" lon="6.33089">
        <ele>207.8</ele>
        <time>2020-06-29T10:26:15Z</time>
      </trkpt>
      <trkpt lat="48.63081" lon="6.33082">
        <ele>207.8</ele>
        <time>2020-06-29T10:26:16Z</time>
      </trkpt>
      <trkpt lat="48.63081" lon="6.33073">
        <ele>207.8</ele>
        <time>2020-06-29T10:26:17Z</time>
      </trkpt>
      <trkpt lat="48.63084" lon="6.33065">
        <ele>207.8</ele>
        <time>2020-06-29T10:26:18Z</time>
      </trkpt>
      <trkpt lat="48.63085" lon="6.33057">
        <ele>207.8</ele>
        <time>2020-06-29T10:26:19Z</time>
      </trkpt>
      <trkpt lat="48.63086" lon="6.33049">
        <ele>207.8</ele>
        <time>2020-06-29T10:26:20Z</time>
      </trkpt>
      <trkpt lat="48.63088" lon="6.3304">
        <ele>207.8</ele>
        <time>2020-06-29T10:26:21Z</time>
      </trkpt>
      <trkpt lat="48.6309" lon="6.33031">
        <ele>207.8</ele>
        <time>2020-06-29T10:26:22Z</time>
      </trkpt>
      <trkpt lat="48.63092" lon="6.33023">
        <ele>207.7</ele>
        <time>2020-06-29T10:26:23Z</time>
      </trkpt>
      <trkpt lat="48.63094" lon="6.33014">
        <ele>207.7</ele>
        <time>2020-06-29T10:26:24Z</time>
      </trkpt>
      <trkpt lat="48.63096" lon="6.33006">
        <ele>207.7</ele>
        <time>2020-06-29T10:26:25Z</time>
      </trkpt>
      <trkpt lat="48.63098" lon="6.32996">
        <ele>207.7</ele>
        <time>2020-06-29T10:26:26Z</time>
      </trkpt>
      <trkpt lat="48.63101" lon="6.32987">
        <ele>207.7</ele>
        <time>2020-06-29T10:26:27Z</time>
      </trkpt>
      <trkpt lat="48.63103" lon="6.32977">
        <ele>207.7</ele>
        <time>2020-06-29T10:26:28Z</time>
      </trkpt>
      <trkpt lat="48.63105" lon="6.32969">
        <ele>207.7</ele>
        <time>2020-06-29T10:26:29Z</time>
      </trkpt>
      <trkpt lat="48.63107" lon="6.3296">
        <ele>207.8</ele>
        <time>2020-06-29T10:26:30Z</time>
      </trkpt>
      <trkpt lat="48.63109" lon="6.32951">
        <ele>207.8</ele>
        <time>2020-06-29T10:26:31Z</time>
      </trkpt>
      <trkpt lat="48.63112" lon="6.32941">
        <ele>207.8</ele>
        <time>2020-06-29T10:26:32Z</time>
      </trkpt>
      <trkpt lat="48.63114" lon="6.32932">
        <ele>207.9</ele>
        <time>2020-06-29T10:26:33Z</time>
      </trkpt>
      <trkpt lat="48.63117" lon="6.32923">
        <ele>207.9</ele>
        <time>2020-06-29T10:26:34Z</time>
      </trkpt>
      <trkpt lat="48.63119" lon="6.32913">
        <ele>207.9</ele>
        <time>2020-06-29T10:26:35Z</time>
      </trkpt>
      <trkpt lat="48.63122" lon="6.32904">
        <ele>208</ele>
        <time>2020-06-29T10:26:36Z</time>
      </trkpt>
      <trkpt lat="48.63124" lon="6.32895">
        <ele>208</ele>
        <time>2020-06-29T10:26:37Z</time>
      </trkpt>
      <trkpt lat="48.63127" lon="6.32887">
        <ele>208.1</ele>
        <time>2020-06-29T10:26:38Z</time>
      </trkpt>
      <trkpt lat="48.63129" lon="6.32878">
        <ele>208.1</ele>
        <time>2020-06-29T10:26:39Z</time>
      </trkpt>
      <trkpt lat="48.6313" lon="6.32869">
        <ele>208.1</ele>
        <time>2020-06-29T10:26:40Z</time>
      </trkpt>
      <trkpt lat="48.63132" lon="6.32859">
        <ele>208.1</ele>
        <time>2020-06-29T10:26:41Z</time>
      </trkpt>
      <trkpt lat="48.63135" lon="6.32853">
        <ele>208.2</ele>
        <time>2020-06-29T10:26:42Z</time>
      </trkpt>
      <trkpt lat="48.63137" lon="6.32842">
        <ele>208.2</ele>
        <time>2020-06-29T10:26:43Z</time>
      </trkpt>
      <trkpt lat="48.63139" lon="6.32832">
        <ele>208.2</ele>
        <time>2020-06-29T10:26:44Z</time>
      </trkpt>
      <trkpt lat="48.6314" lon="6.32822">
        <ele>208.3</ele>
        <time>2020-06-29T10:26:45Z</time>
      </trkpt>
      <trkpt lat="48.63141" lon="6.32812">
        <ele>208.4</ele>
        <time>2020-06-29T10:26:46Z</time>
      </trkpt>
      <trkpt lat="48.63143" lon="6.32803">
        <ele>208.4</ele>
        <time>2020-06-29T10:26:47Z</time>
      </trkpt>
      <trkpt lat="48.63144" lon="6.32794">
        <ele>208.5</ele>
        <time>2020-06-29T10:26:48Z</time>
      </trkpt>
      <trkpt lat="48.63147" lon="6.32785">
        <ele>208.7</ele>
        <time>2020-06-29T10:26:49Z</time>
      </trkpt>
      <trkpt lat="48.63149" lon="6.32776">
        <ele>208.8</ele>
        <time>2020-06-29T10:26:50Z</time>
      </trkpt>
      <trkpt lat="48.6315" lon="6.32767">
        <ele>208.9</ele>
        <time>2020-06-29T10:26:51Z</time>
      </trkpt>
      <trkpt lat="48.63152" lon="6.3276">
        <ele>209</ele>
        <time>2020-06-29T10:26:52Z</time>
      </trkpt>
      <trkpt lat="48.63154" lon="6.32753">
        <ele>209.1</ele>
        <time>2020-06-29T10:26:53Z</time>
      </trkpt>
      <trkpt lat="48.63156" lon="6.32744">
        <ele>209.2</ele>
        <time>2020-06-29T10:26:54Z</time>
      </trkpt>
      <trkpt lat="48.63159" lon="6.32735">
        <ele>209.4</ele>
        <time>2020-06-29T10:26:55Z</time>
      </trkpt>
      <trkpt lat="48.63161" lon="6.32727">
        <ele>209.5</ele>
        <time>2020-06-29T10:26:56Z</time>
      </trkpt>
      <trkpt lat="48.63163" lon="6.3272">
        <ele>209.7</ele>
        <time>2020-06-29T10:26:57Z</time>
      </trkpt>
      <trkpt lat="48.63165" lon="6.32713">
        <ele>209.8</ele>
        <time>2020-06-29T10:26:58Z</time>
      </trkpt>
      <trkpt lat="48.63166" lon="6.32706">
        <ele>209.9</ele>
        <time>2020-06-29T10:26:59Z</time>
      </trkpt>
      <trkpt lat="48.63168" lon="6.32699">
        <ele>210.1</ele>
        <time>2020-06-29T10:27:00Z</time>
      </trkpt>
      <trkpt lat="48.63169" lon="6.32692">
        <ele>210.2</ele>
        <time>2020-06-29T10:27:01Z</time>
      </trkpt>
      <trkpt lat="48.63171" lon="6.32686">
        <ele>210.3</ele>
        <time>2020-06-29T10:27:02Z</time>
      </trkpt>
      <trkpt lat="48.63173" lon="6.3268">
        <ele>210.5</ele>
        <time>2020-06-29T10:27:03Z</time>
      </trkpt>
      <trkpt lat="48.63176" lon="6.3267">
        <ele>210.6</ele>
        <time>2020-06-29T10:27:04Z</time>
      </trkpt>
      <trkpt lat="48.63178" lon="6.32663">
        <ele>210.8</ele>
        <time>2020-06-29T10:27:05Z</time>
      </trkpt>
      <trkpt lat="48.63179" lon="6.32657">
        <ele>211</ele>
        <time>2020-06-29T10:27:06Z</time>
      </trkpt>
      <trkpt lat="48.63181" lon="6.32651">
        <ele>211.1</ele>
        <time>2020-06-29T10:27:07Z</time>
      </trkpt>
      <trkpt lat="48.63182" lon="6.32646">
        <ele>211.2</ele>
        <time>2020-06-29T10:27:08Z</time>
      </trkpt>
      <trkpt lat="48.63183" lon="6.3264">
        <ele>211.3</ele>
        <time>2020-06-29T10:27:09Z</time>
      </trkpt>
      <trkpt lat="48.63184" lon="6.32635">
        <ele>211.4</ele>
        <time>2020-06-29T10:27:10Z</time>
      </trkpt>
      <trkpt lat="48.63185" lon="6.32629">
        <ele>211.5</ele>
        <time>2020-06-29T10:27:11Z</time>
      </trkpt>
      <trkpt lat="48.63188" lon="6.32623">
        <ele>211.6</ele>
        <time>2020-06-29T10:27:12Z</time>
      </trkpt>
      <trkpt lat="48.6319" lon="6.32618">
        <ele>211.7</ele>
        <time>2020-06-29T10:27:13Z</time>
      </trkpt>
      <trkpt lat="48.63193" lon="6.32613">
        <ele>211.7</ele>
        <time>2020-06-29T10:27:14Z</time>
      </trkpt>
      <trkpt lat="48.63196" lon="6.32608">
        <ele>211.7</ele>
        <time>2020-06-29T10:27:15Z</time>
      </trkpt>
      <trkpt lat="48.63199" lon="6.32602">
        <ele>211.8</ele>
        <time>2020-06-29T10:27:16Z</time>
      </trkpt>
      <trkpt lat="48.63203" lon="6.32598">
        <ele>211.8</ele>
        <time>2020-06-29T10:27:17Z</time>
      </trkpt>
      <trkpt lat="48.63207" lon="6.32592">
        <ele>211.8</ele>
        <time>2020-06-29T10:27:18Z</time>
      </trkpt>
      <trkpt lat="48.63212" lon="6.32587">
        <ele>211.7</ele>
        <time>2020-06-29T10:27:19Z</time>
      </trkpt>
      <trkpt lat="48.63217" lon="6.32584">
        <ele>211.7</ele>
        <time>2020-06-29T10:27:20Z</time>
      </trkpt>
      <trkpt lat="48.63221" lon="6.32582">
        <ele>211.6</ele>
        <time>2020-06-29T10:27:21Z</time>
      </trkpt>
      <trkpt lat="48.63227" lon="6.32581">
        <ele>211.5</ele>
        <time>2020-06-29T10:27:22Z</time>
      </trkpt>
      <trkpt lat="48.63231" lon="6.3258">
        <ele>211.4</ele>
        <time>2020-06-29T10:27:23Z</time>
      </trkpt>
      <trkpt lat="48.63238" lon="6.32577">
        <ele>211.3</ele>
        <time>2020-06-29T10:27:24Z</time>
      </trkpt>
      <trkpt lat="48.63241" lon="6.32574">
        <ele>211.2</ele>
        <time>2020-06-29T10:27:25Z</time>
      </trkpt>
      <trkpt lat="48.63247" lon="6.3257">
        <ele>211.1</ele>
        <time>2020-06-29T10:27:26Z</time>
      </trkpt>
      <trkpt lat="48.63252" lon="6.32565">
        <ele>210.9</ele>
        <time>2020-06-29T10:27:27Z</time>
      </trkpt>
      <trkpt lat="48.63256" lon="6.3256">
        <ele>210.8</ele>
        <time>2020-06-29T10:27:28Z</time>
      </trkpt>
      <trkpt lat="48.63261" lon="6.32552">
        <ele>210.6</ele>
        <time>2020-06-29T10:27:29Z</time>
      </trkpt>
      <trkpt lat="48.63266" lon="6.32544">
        <ele>210.5</ele>
        <time>2020-06-29T10:27:30Z</time>
      </trkpt>
      <trkpt lat="48.6327" lon="6.32535">
        <ele>210.4</ele>
        <time>2020-06-29T10:27:31Z</time>
      </trkpt>
      <trkpt lat="48.63274" lon="6.32526">
        <ele>210.2</ele>
        <time>2020-06-29T10:27:32Z</time>
      </trkpt>
      <trkpt lat="48.63278" lon="6.32518">
        <ele>210</ele>
        <time>2020-06-29T10:27:33Z</time>
      </trkpt>
      <trkpt lat="48.63283" lon="6.32509">
        <ele>209.9</ele>
        <time>2020-06-29T10:27:34Z</time>
      </trkpt>
      <trkpt lat="48.63287" lon="6.32499">
        <ele>209.7</ele>
        <time>2020-06-29T10:27:35Z</time>
      </trkpt>
      <trkpt lat="48.63291" lon="6.32489">
        <ele>209.5</ele>
        <time>2020-06-29T10:27:36Z</time>
      </trkpt>
      <trkpt lat="48.63295" lon="6.3248">
        <ele>209.4</ele>
        <time>2020-06-29T10:27:37Z</time>
      </trkpt>
      <trkpt lat="48.63298" lon="6.32472">
        <ele>209.3</ele>
        <time>2020-06-29T10:27:38Z</time>
      </trkpt>
      <trkpt lat="48.63302" lon="6.32461">
        <ele>209.2</ele>
        <time>2020-06-29T10:27:39Z</time>
      </trkpt>
      <trkpt lat="48.63306" lon="6.3245">
        <ele>209.1</ele>
        <time>2020-06-29T10:27:40Z</time>
      </trkpt>
      <trkpt lat="48.63311" lon="6.32439">
        <ele>209</ele>
        <time>2020-06-29T10:27:41Z</time>
      </trkpt>
      <trkpt lat="48.63315" lon="6.32429">
        <ele>208.9</ele>
        <time>2020-06-29T10:27:42Z</time>
      </trkpt>
      <trkpt lat="48.63318" lon="6.32419">
        <ele>208.8</ele>
        <time>2020-06-29T10:27:43Z</time>
      </trkpt>
      <trkpt lat="48.63322" lon="6.3241">
        <ele>208.8</ele>
        <time>2020-06-29T10:27:44Z</time>
      </trkpt>
      <trkpt lat="48.63326" lon="6.32401">
        <ele>208.7</ele>
        <time>2020-06-29T10:27:45Z</time>
      </trkpt>
      <trkpt lat="48.6333" lon="6.32392">
        <ele>208.6</ele>
        <time>2020-06-29T10:27:46Z</time>
      </trkpt>
      <trkpt lat="48.63334" lon="6.32384">
        <ele>208.5</ele>
        <time>2020-06-29T10:27:47Z</time>
      </trkpt>
      <trkpt lat="48.63337" lon="6.32374">
        <ele>208.5</ele>
        <time>2020-06-29T10:27:48Z</time>
      </trkpt>
      <trkpt lat="48.6334" lon="6.32365">
        <ele>208.4</ele>
        <time>2020-06-29T10:27:49Z</time>
      </trkpt>
      <trkpt lat="48.63343" lon="6.32355">
        <ele>208.4</ele>
        <time>2020-06-29T10:27:50Z</time>
      </trkpt>
      <trkpt lat="48.63347" lon="6.32347">
        <ele>208.4</ele>
        <time>2020-06-29T10:27:51Z</time>
      </trkpt>
      <trkpt lat="48.63351" lon="6.32338">
        <ele>208.4</ele>
        <time>2020-06-29T10:27:52Z</time>
      </trkpt>
      <trkpt lat="48.63355" lon="6.32329">
        <ele>208.4</ele>
        <time>2020-06-29T10:27:53Z</time>
      </trkpt>
      <trkpt lat="48.63359" lon="6.3232">
        <ele>208.4</ele>
        <time>2020-06-29T10:27:54Z</time>
      </trkpt>
      <trkpt lat="48.63363" lon="6.32312">
        <ele>208.4</ele>
        <time>2020-06-29T10:27:55Z</time>
      </trkpt>
      <trkpt lat="48.63367" lon="6.32304">
        <ele>208.5</ele>
        <time>2020-06-29T10:27:56Z</time>
      </trkpt>
      <trkpt lat="48.63371" lon="6.32295">
        <ele>208.5</ele>
        <time>2020-06-29T10:27:57Z</time>
      </trkpt>
      <trkpt lat="48.63374" lon="6.32287">
        <ele>208.5</ele>
        <time>2020-06-29T10:27:58Z</time>
      </trkpt>
      <trkpt lat="48.63378" lon="6.3228">
        <ele>208.5</ele>
        <time>2020-06-29T10:27:59Z</time>
      </trkpt>
      <trkpt lat="48.63381" lon="6.32272">
        <ele>208.5</ele>
        <time>2020-06-29T10:28:00Z</time>
      </trkpt>
      <trkpt lat="48.63384" lon="6.32263">
        <ele>208.5</ele>
        <time>2020-06-29T10:28:01Z</time>
      </trkpt>
      <trkpt lat="48.63386" lon="6.32255">
        <ele>208.4</ele>
        <time>2020-06-29T10:28:02Z</time>
      </trkpt>
      <trkpt lat="48.63389" lon="6.32247">
        <ele>208.4</ele>
        <time>2020-06-29T10:28:03Z</time>
      </trkpt>
      <trkpt lat="48.63391" lon="6.32239">
        <ele>208.4</ele>
        <time>2020-06-29T10:28:04Z</time>
      </trkpt>
      <trkpt lat="48.63393" lon="6.32232">
        <ele>208.4</ele>
        <time>2020-06-29T10:28:05Z</time>
      </trkpt>
      <trkpt lat="48.63396" lon="6.32225">
        <ele>208.4</ele>
        <time>2020-06-29T10:28:06Z</time>
      </trkpt>
      <trkpt lat="48.63397" lon="6.32218">
        <ele>208.4</ele>
        <time>2020-06-29T10:28:07Z</time>
      </trkpt>
      <trkpt lat="48.63398" lon="6.3221">
        <ele>208.4</ele>
        <time>2020-06-29T10:28:08Z</time>
      </trkpt>
      <trkpt lat="48.634" lon="6.32202">
        <ele>208.4</ele>
        <time>2020-06-29T10:28:09Z</time>
      </trkpt>
      <trkpt lat="48.63401" lon="6.32194">
        <ele>208.5</ele>
        <time>2020-06-29T10:28:10Z</time>
      </trkpt>
      <trkpt lat="48.63403" lon="6.32186">
        <ele>208.5</ele>
        <time>2020-06-29T10:28:11Z</time>
      </trkpt>
      <trkpt lat="48.63405" lon="6.32178">
        <ele>208.5</ele>
        <time>2020-06-29T10:28:12Z</time>
      </trkpt>
      <trkpt lat="48.63407" lon="6.32172">
        <ele>208.5</ele>
        <time>2020-06-29T10:28:13Z</time>
      </trkpt>
      <trkpt lat="48.63408" lon="6.32167">
        <ele>208.6</ele>
        <time>2020-06-29T10:28:14Z</time>
      </trkpt>
      <trkpt lat="48.63409" lon="6.32162">
        <ele>208.6</ele>
        <time>2020-06-29T10:28:15Z</time>
      </trkpt>
      <trkpt lat="48.6341" lon="6.32157">
        <ele>208.6</ele>
        <time>2020-06-29T10:28:16Z</time>
      </trkpt>
      <trkpt lat="48.63412" lon="6.32152">
        <ele>208.6</ele>
        <time>2020-06-29T10:28:17Z</time>
      </trkpt>
      <trkpt lat="48.63413" lon="6.32147">
        <ele>208.5</ele>
        <time>2020-06-29T10:28:18Z</time>
      </trkpt>
      <trkpt lat="48.63414" lon="6.32142">
        <ele>208.5</ele>
        <time>2020-06-29T10:28:19Z</time>
      </trkpt>
      <trkpt lat="48.63416" lon="6.32138">
        <ele>208.5</ele>
        <time>2020-06-29T10:28:20Z</time>
      </trkpt>
      <trkpt lat="48.63418" lon="6.32133">
        <ele>208.5</ele>
        <time>2020-06-29T10:28:21Z</time>
      </trkpt>
      <trkpt lat="48.63419" lon="6.32131">
        <ele>208.5</ele>
        <time>2020-06-29T10:28:22Z</time>
      </trkpt>
      <trkpt lat="48.6342" lon="6.32127">
        <ele>208.4</ele>
        <time>2020-06-29T10:28:23Z</time>
      </trkpt>
      <trkpt lat="48.63421" lon="6.32123">
        <ele>208.4</ele>
        <time>2020-06-29T10:28:24Z</time>
      </trkpt>
      <trkpt lat="48.63421" lon="6.32119">
        <ele>208.3</ele>
        <time>2020-06-29T10:28:25Z</time>
      </trkpt>
      <trkpt lat="48.6342" lon="6.32113">
        <ele>208.3</ele>
        <time>2020-06-29T10:28:26Z</time>
      </trkpt>
      <trkpt lat="48.63421" lon="6.32109">
        <ele>208.2</ele>
        <time>2020-06-29T10:28:27Z</time>
      </trkpt>
      <trkpt lat="48.63422" lon="6.32104">
        <ele>208.1</ele>
        <time>2020-06-29T10:28:28Z</time>
      </trkpt>
      <trkpt lat="48.63425" lon="6.321">
        <ele>208</ele>
        <time>2020-06-29T10:28:29Z</time>
      </trkpt>
      <trkpt lat="48.63426" lon="6.32094">
        <ele>207.9</ele>
        <time>2020-06-29T10:28:30Z</time>
      </trkpt>
      <trkpt lat="48.63428" lon="6.32089">
        <ele>207.8</ele>
        <time>2020-06-29T10:28:31Z</time>
      </trkpt>
      <trkpt lat="48.63429" lon="6.32083">
        <ele>207.7</ele>
        <time>2020-06-29T10:28:32Z</time>
      </trkpt>
      <trkpt lat="48.6343" lon="6.32075">
        <ele>207.6</ele>
        <time>2020-06-29T10:28:33Z</time>
      </trkpt>
      <trkpt lat="48.63432" lon="6.32068">
        <ele>207.5</ele>
        <time>2020-06-29T10:28:34Z</time>
      </trkpt>
      <trkpt lat="48.63433" lon="6.3206">
        <ele>207.3</ele>
        <time>2020-06-29T10:28:35Z</time>
      </trkpt>
      <trkpt lat="48.63435" lon="6.32053">
        <ele>207.2</ele>
        <time>2020-06-29T10:28:36Z</time>
      </trkpt>
      <trkpt lat="48.63435" lon="6.32044">
        <ele>207.1</ele>
        <time>2020-06-29T10:28:37Z</time>
      </trkpt>
      <trkpt lat="48.63437" lon="6.32037">
        <ele>207</ele>
        <time>2020-06-29T10:28:38Z</time>
      </trkpt>
      <trkpt lat="48.63437" lon="6.32027">
        <ele>206.9</ele>
        <time>2020-06-29T10:28:39Z</time>
      </trkpt>
      <trkpt lat="48.63437" lon="6.32018">
        <ele>206.8</ele>
        <time>2020-06-29T10:28:40Z</time>
      </trkpt>
      <trkpt lat="48.63438" lon="6.32009">
        <ele>206.8</ele>
        <time>2020-06-29T10:28:41Z</time>
      </trkpt>
      <trkpt lat="48.6344" lon="6.32001">
        <ele>206.7</ele>
        <time>2020-06-29T10:28:42Z</time>
      </trkpt>
      <trkpt lat="48.63441" lon="6.31993">
        <ele>206.6</ele>
        <time>2020-06-29T10:28:43Z</time>
      </trkpt>
      <trkpt lat="48.63442" lon="6.31985">
        <ele>206.6</ele>
        <time>2020-06-29T10:28:44Z</time>
      </trkpt>
      <trkpt lat="48.63444" lon="6.31977">
        <ele>206.5</ele>
        <time>2020-06-29T10:28:45Z</time>
      </trkpt>
      <trkpt lat="48.63445" lon="6.31969">
        <ele>206.5</ele>
        <time>2020-06-29T10:28:46Z</time>
      </trkpt>
      <trkpt lat="48.63446" lon="6.31962">
        <ele>206.4</ele>
        <time>2020-06-29T10:28:47Z</time>
      </trkpt>
      <trkpt lat="48.63448" lon="6.31955">
        <ele>206.4</ele>
        <time>2020-06-29T10:28:48Z</time>
      </trkpt>
      <trkpt lat="48.6345" lon="6.31947">
        <ele>206.3</ele>
        <time>2020-06-29T10:28:49Z</time>
      </trkpt>
      <trkpt lat="48.63451" lon="6.3194">
        <ele>206.3</ele>
        <time>2020-06-29T10:28:50Z</time>
      </trkpt>
      <trkpt lat="48.63453" lon="6.31932">
        <ele>206.3</ele>
        <time>2020-06-29T10:28:51Z</time>
      </trkpt>
      <trkpt lat="48.63454" lon="6.31925">
        <ele>206.3</ele>
        <time>2020-06-29T10:28:52Z</time>
      </trkpt>
      <trkpt lat="48.63455" lon="6.31918">
        <ele>206.3</ele>
        <time>2020-06-29T10:28:53Z</time>
      </trkpt>
      <trkpt lat="48.63457" lon="6.31912">
        <ele>206.3</ele>
        <time>2020-06-29T10:28:54Z</time>
      </trkpt>
      <trkpt lat="48.6346" lon="6.31904">
        <ele>206.3</ele>
        <time>2020-06-29T10:28:55Z</time>
      </trkpt>
      <trkpt lat="48.63462" lon="6.31896">
        <ele>206.2</ele>
        <time>2020-06-29T10:28:56Z</time>
      </trkpt>
      <trkpt lat="48.63464" lon="6.31888">
        <ele>206.2</ele>
        <time>2020-06-29T10:28:57Z</time>
      </trkpt>
      <trkpt lat="48.63465" lon="6.31881">
        <ele>206.2</ele>
        <time>2020-06-29T10:28:58Z</time>
      </trkpt>
      <trkpt lat="48.63467" lon="6.31873">
        <ele>206.2</ele>
        <time>2020-06-29T10:28:59Z</time>
      </trkpt>
      <trkpt lat="48.63468" lon="6.31866">
        <ele>206.2</ele>
        <time>2020-06-29T10:29:00Z</time>
      </trkpt>
      <trkpt lat="48.63471" lon="6.31858">
        <ele>206.2</ele>
        <time>2020-06-29T10:29:01Z</time>
      </trkpt>
      <trkpt lat="48.63472" lon="6.31849">
        <ele>206.2</ele>
        <time>2020-06-29T10:29:02Z</time>
      </trkpt>
      <trkpt lat="48.63474" lon="6.31841">
        <ele>206.2</ele>
        <time>2020-06-29T10:29:03Z</time>
      </trkpt>
      <trkpt lat="48.63476" lon="6.31832">
        <ele>206.3</ele>
        <time>2020-06-29T10:29:04Z</time>
      </trkpt>
      <trkpt lat="48.63477" lon="6.31823">
        <ele>206.3</ele>
        <time>2020-06-29T10:29:05Z</time>
      </trkpt>
      <trkpt lat="48.63479" lon="6.31815">
        <ele>206.3</ele>
        <time>2020-06-29T10:29:06Z</time>
      </trkpt>
      <trkpt lat="48.63481" lon="6.31807">
        <ele>206.3</ele>
        <time>2020-06-29T10:29:07Z</time>
      </trkpt>
      <trkpt lat="48.63483" lon="6.31798">
        <ele>206.3</ele>
        <time>2020-06-29T10:29:08Z</time>
      </trkpt>
      <trkpt lat="48.63484" lon="6.31791">
        <ele>206.3</ele>
        <time>2020-06-29T10:29:09Z</time>
      </trkpt>
      <trkpt lat="48.63485" lon="6.31784">
        <ele>206.2</ele>
        <time>2020-06-29T10:29:10Z</time>
      </trkpt>
      <trkpt lat="48.63488" lon="6.31775">
        <ele>206.2</ele>
        <time>2020-06-29T10:29:11Z</time>
      </trkpt>
      <trkpt lat="48.6349" lon="6.31769">
        <ele>206.2</ele>
        <time>2020-06-29T10:29:12Z</time>
      </trkpt>
      <trkpt lat="48.63492" lon="6.3176">
        <ele>206.1</ele>
        <time>2020-06-29T10:29:13Z</time>
      </trkpt>
      <trkpt lat="48.63493" lon="6.31752">
        <ele>206.1</ele>
        <time>2020-06-29T10:29:14Z</time>
      </trkpt>
      <trkpt lat="48.63495" lon="6.31743">
        <ele>206.1</ele>
        <time>2020-06-29T10:29:15Z</time>
      </trkpt>
      <trkpt lat="48.63496" lon="6.31733">
        <ele>206.1</ele>
        <time>2020-06-29T10:29:16Z</time>
      </trkpt>
      <trkpt lat="48.63498" lon="6.31723">
        <ele>206</ele>
        <time>2020-06-29T10:29:17Z</time>
      </trkpt>
      <trkpt lat="48.635" lon="6.31714">
        <ele>206</ele>
        <time>2020-06-29T10:29:18Z</time>
      </trkpt>
      <trkpt lat="48.63501" lon="6.31706">
        <ele>205.9</ele>
        <time>2020-06-29T10:29:19Z</time>
      </trkpt>
      <trkpt lat="48.63503" lon="6.31698">
        <ele>205.9</ele>
        <time>2020-06-29T10:29:20Z</time>
      </trkpt>
      <trkpt lat="48.63505" lon="6.3169">
        <ele>205.9</ele>
        <time>2020-06-29T10:29:21Z</time>
      </trkpt>
      <trkpt lat="48.63507" lon="6.31682">
        <ele>205.9</ele>
        <time>2020-06-29T10:29:22Z</time>
      </trkpt>
      <trkpt lat="48.63509" lon="6.31674">
        <ele>205.9</ele>
        <time>2020-06-29T10:29:23Z</time>
      </trkpt>
      <trkpt lat="48.63512" lon="6.31663">
        <ele>205.9</ele>
        <time>2020-06-29T10:29:24Z</time>
      </trkpt>
      <trkpt lat="48.63514" lon="6.31654">
        <ele>205.9</ele>
        <time>2020-06-29T10:29:25Z</time>
      </trkpt>
      <trkpt lat="48.63517" lon="6.31646">
        <ele>205.9</ele>
        <time>2020-06-29T10:29:26Z</time>
      </trkpt>
      <trkpt lat="48.63518" lon="6.31637">
        <ele>205.9</ele>
        <time>2020-06-29T10:29:27Z</time>
      </trkpt>
      <trkpt lat="48.6352" lon="6.3163">
        <ele>205.9</ele>
        <time>2020-06-29T10:29:28Z</time>
      </trkpt>
      <trkpt lat="48.63521" lon="6.3162">
        <ele>205.9</ele>
        <time>2020-06-29T10:29:29Z</time>
      </trkpt>
      <trkpt lat="48.63522" lon="6.3161">
        <ele>205.9</ele>
        <time>2020-06-29T10:29:30Z</time>
      </trkpt>
      <trkpt lat="48.63523" lon="6.31602">
        <ele>205.9</ele>
        <time>2020-06-29T10:29:31Z</time>
      </trkpt>
      <trkpt lat="48.63525" lon="6.31593">
        <ele>206</ele>
        <time>2020-06-29T10:29:32Z</time>
      </trkpt>
      <trkpt lat="48.63526" lon="6.31583">
        <ele>206.1</ele>
        <time>2020-06-29T10:29:33Z</time>
      </trkpt>
      <trkpt lat="48.63529" lon="6.31574">
        <ele>206.2</ele>
        <time>2020-06-29T10:29:34Z</time>
      </trkpt>
      <trkpt lat="48.6353" lon="6.31565">
        <ele>206.2</ele>
        <time>2020-06-29T10:29:35Z</time>
      </trkpt>
      <trkpt lat="48.63531" lon="6.31559">
        <ele>206.3</ele>
        <time>2020-06-29T10:29:36Z</time>
      </trkpt>
      <trkpt lat="48.63535" lon="6.31552">
        <ele>206.3</ele>
        <time>2020-06-29T10:29:37Z</time>
      </trkpt>
      <trkpt lat="48.63539" lon="6.31546">
        <ele>206.4</ele>
        <time>2020-06-29T10:29:38Z</time>
      </trkpt>
      <trkpt lat="48.63542" lon="6.3154">
        <ele>206.5</ele>
        <time>2020-06-29T10:29:39Z</time>
      </trkpt>
      <trkpt lat="48.63546" lon="6.31534">
        <ele>206.6</ele>
        <time>2020-06-29T10:29:40Z</time>
      </trkpt>
      <trkpt lat="48.6355" lon="6.31527">
        <ele>206.8</ele>
        <time>2020-06-29T10:29:41Z</time>
      </trkpt>
      <trkpt lat="48.63554" lon="6.3152">
        <ele>206.9</ele>
        <time>2020-06-29T10:29:42Z</time>
      </trkpt>
      <trkpt lat="48.63558" lon="6.31513">
        <ele>207.1</ele>
        <time>2020-06-29T10:29:43Z</time>
      </trkpt>
      <trkpt lat="48.63562" lon="6.31509">
        <ele>207.2</ele>
        <time>2020-06-29T10:29:44Z</time>
      </trkpt>
      <trkpt lat="48.63565" lon="6.31505">
        <ele>207.4</ele>
        <time>2020-06-29T10:29:45Z</time>
      </trkpt>
      <trkpt lat="48.63569" lon="6.315">
        <ele>207.5</ele>
        <time>2020-06-29T10:29:46Z</time>
      </trkpt>
      <trkpt lat="48.63572" lon="6.31495">
        <ele>207.7</ele>
        <time>2020-06-29T10:29:47Z</time>
      </trkpt>
      <trkpt lat="48.63576" lon="6.31489">
        <ele>207.8</ele>
        <time>2020-06-29T10:29:48Z</time>
      </trkpt>
      <trkpt lat="48.63579" lon="6.31483">
        <ele>208</ele>
        <time>2020-06-29T10:29:49Z</time>
      </trkpt>
      <trkpt lat="48.63582" lon="6.31476">
        <ele>208.2</ele>
        <time>2020-06-29T10:29:50Z</time>
      </trkpt>
      <trkpt lat="48.63585" lon="6.3147">
        <ele>208.3</ele>
        <time>2020-06-29T10:29:51Z</time>
      </trkpt>
      <trkpt lat="48.63588" lon="6.31465">
        <ele>208.5</ele>
        <time>2020-06-29T10:29:52Z</time>
      </trkpt>
      <trkpt lat="48.63591" lon="6.31459">
        <ele>208.6</ele>
        <time>2020-06-29T10:29:53Z</time>
      </trkpt>
      <trkpt lat="48.63594" lon="6.31453">
        <ele>208.8</ele>
        <time>2020-06-29T10:29:54Z</time>
      </trkpt>
      <trkpt lat="48.63596" lon="6.31447">
        <ele>208.9</ele>
        <time>2020-06-29T10:29:55Z</time>
      </trkpt>
      <trkpt lat="48.63598" lon="6.31442">
        <ele>209</ele>
        <time>2020-06-29T10:29:56Z</time>
      </trkpt>
      <trkpt lat="48.63601" lon="6.31437">
        <ele>209.1</ele>
        <time>2020-06-29T10:29:57Z</time>
      </trkpt>
      <trkpt lat="48.63603" lon="6.31429">
        <ele>209.2</ele>
        <time>2020-06-29T10:29:58Z</time>
      </trkpt>
      <trkpt lat="48.63606" lon="6.31421">
        <ele>209.3</ele>
        <time>2020-06-29T10:29:59Z</time>
      </trkpt>
      <trkpt lat="48.63609" lon="6.31414">
        <ele>209.4</ele>
        <time>2020-06-29T10:30:00Z</time>
      </trkpt>
      <trkpt lat="48.63613" lon="6.31408">
        <ele>209.5</ele>
        <time>2020-06-29T10:30:01Z</time>
      </trkpt>
      <trkpt lat="48.63616" lon="6.31402">
        <ele>209.6</ele>
        <time>2020-06-29T10:30:02Z</time>
      </trkpt>
      <trkpt lat="48.63619" lon="6.31396">
        <ele>209.7</ele>
        <time>2020-06-29T10:30:03Z</time>
      </trkpt>
      <trkpt lat="48.63622" lon="6.3139">
        <ele>209.8</ele>
        <time>2020-06-29T10:30:04Z</time>
      </trkpt>
      <trkpt lat="48.63624" lon="6.31383">
        <ele>209.9</ele>
        <time>2020-06-29T10:30:05Z</time>
      </trkpt>
      <trkpt lat="48.63626" lon="6.31376">
        <ele>210</ele>
        <time>2020-06-29T10:30:06Z</time>
      </trkpt>
      <trkpt lat="48.63628" lon="6.31369">
        <ele>210.1</ele>
        <time>2020-06-29T10:30:07Z</time>
      </trkpt>
      <trkpt lat="48.63631" lon="6.31363">
        <ele>210.1</ele>
        <time>2020-06-29T10:30:08Z</time>
      </trkpt>
      <trkpt lat="48.63633" lon="6.31355">
        <ele>210.2</ele>
        <time>2020-06-29T10:30:09Z</time>
      </trkpt>
      <trkpt lat="48.63633" lon="6.31347">
        <ele>210.3</ele>
        <time>2020-06-29T10:30:10Z</time>
      </trkpt>
      <trkpt lat="48.63635" lon="6.31338">
        <ele>210.4</ele>
        <time>2020-06-29T10:30:11Z</time>
      </trkpt>
      <trkpt lat="48.63636" lon="6.31332">
        <ele>210.4</ele>
        <time>2020-06-29T10:30:12Z</time>
      </trkpt>
      <trkpt lat="48.63638" lon="6.31324">
        <ele>210.5</ele>
        <time>2020-06-29T10:30:13Z</time>
      </trkpt>
      <trkpt lat="48.63639" lon="6.31317">
        <ele>210.5</ele>
        <time>2020-06-29T10:30:14Z</time>
      </trkpt>
      <trkpt lat="48.63641" lon="6.31309">
        <ele>210.6</ele>
        <time>2020-06-29T10:30:15Z</time>
      </trkpt>
      <trkpt lat="48.63642" lon="6.31301">
        <ele>210.7</ele>
        <time>2020-06-29T10:30:16Z</time>
      </trkpt>
      <trkpt lat="48.63644" lon="6.31294">
        <ele>210.8</ele>
        <time>2020-06-29T10:30:17Z</time>
      </trkpt>
      <trkpt lat="48.63646" lon="6.31288">
        <ele>210.9</ele>
        <time>2020-06-29T10:30:18Z</time>
      </trkpt>
      <trkpt lat="48.63648" lon="6.31281">
        <ele>211</ele>
        <time>2020-06-29T10:30:19Z</time>
      </trkpt>
      <trkpt lat="48.63648" lon="6.31271">
        <ele>211.1</ele>
        <time>2020-06-29T10:30:20Z</time>
      </trkpt>
      <trkpt lat="48.6365" lon="6.31265">
        <ele>211.1</ele>
        <time>2020-06-29T10:30:21Z</time>
      </trkpt>
      <trkpt lat="48.63651" lon="6.31257">
        <ele>211.2</ele>
        <time>2020-06-29T10:30:22Z</time>
      </trkpt>
      <trkpt lat="48.63653" lon="6.31252">
        <ele>211.3</ele>
        <time>2020-06-29T10:30:23Z</time>
      </trkpt>
      <trkpt lat="48.63653" lon="6.31244">
        <ele>211.3</ele>
        <time>2020-06-29T10:30:24Z</time>
      </trkpt>
      <trkpt lat="48.63653" lon="6.31237">
        <ele>211.4</ele>
        <time>2020-06-29T10:30:25Z</time>
      </trkpt>
      <trkpt lat="48.63653" lon="6.3123">
        <ele>211.4</ele>
        <time>2020-06-29T10:30:26Z</time>
      </trkpt>
      <trkpt lat="48.63653" lon="6.31225">
        <ele>211.4</ele>
        <time>2020-06-29T10:30:27Z</time>
      </trkpt>
      <trkpt lat="48.63653" lon="6.31218">
        <ele>211.5</ele>
        <time>2020-06-29T10:30:28Z</time>
      </trkpt>
      <trkpt lat="48.63652" lon="6.3121">
        <ele>211.5</ele>
        <time>2020-06-29T10:30:29Z</time>
      </trkpt>
      <trkpt lat="48.63651" lon="6.31205">
        <ele>211.5</ele>
        <time>2020-06-29T10:30:30Z</time>
      </trkpt>
      <trkpt lat="48.63651" lon="6.31198">
        <ele>211.5</ele>
        <time>2020-06-29T10:30:31Z</time>
      </trkpt>
      <trkpt lat="48.63649" lon="6.31192">
        <ele>211.5</ele>
        <time>2020-06-29T10:30:32Z</time>
      </trkpt>
      <trkpt lat="48.63648" lon="6.31187">
        <ele>211.5</ele>
        <time>2020-06-29T10:30:33Z</time>
      </trkpt>
      <trkpt lat="48.63645" lon="6.31181">
        <ele>211.6</ele>
        <time>2020-06-29T10:30:34Z</time>
      </trkpt>
      <trkpt lat="48.63642" lon="6.31175">
        <ele>211.6</ele>
        <time>2020-06-29T10:30:35Z</time>
      </trkpt>
      <trkpt lat="48.63639" lon="6.31168">
        <ele>211.6</ele>
        <time>2020-06-29T10:30:36Z</time>
      </trkpt>
      <trkpt lat="48.63636" lon="6.31164">
        <ele>211.6</ele>
        <time>2020-06-29T10:30:37Z</time>
      </trkpt>
      <trkpt lat="48.63634" lon="6.3116">
        <ele>211.5</ele>
        <time>2020-06-29T10:30:38Z</time>
      </trkpt>
      <trkpt lat="48.63631" lon="6.31154">
        <ele>211.5</ele>
        <time>2020-06-29T10:30:39Z</time>
      </trkpt>
      <trkpt lat="48.63629" lon="6.31152">
        <ele>211.5</ele>
        <time>2020-06-29T10:30:40Z</time>
      </trkpt>
      <trkpt lat="48.63623" lon="6.31151">
        <ele>211.5</ele>
        <time>2020-06-29T10:30:41Z</time>
      </trkpt>
      <trkpt lat="48.63619" lon="6.3115">
        <ele>211.5</ele>
        <time>2020-06-29T10:30:42Z</time>
      </trkpt>
      <trkpt lat="48.63614" lon="6.31148">
        <ele>211.4</ele>
        <time>2020-06-29T10:30:43Z</time>
      </trkpt>
      <trkpt lat="48.6361" lon="6.31144">
        <ele>211.4</ele>
        <time>2020-06-29T10:30:44Z</time>
      </trkpt>
      <trkpt lat="48.63606" lon="6.31141">
        <ele>211.4</ele>
        <time>2020-06-29T10:30:45Z</time>
      </trkpt>
      <trkpt lat="48.63601" lon="6.31139">
        <ele>211.4</ele>
        <time>2020-06-29T10:30:46Z</time>
      </trkpt>
      <trkpt lat="48.63596" lon="6.31134">
        <ele>211.3</ele>
        <time>2020-06-29T10:30:47Z</time>
      </trkpt>
      <trkpt lat="48.63591" lon="6.31131">
        <ele>211.2</ele>
        <time>2020-06-29T10:30:48Z</time>
      </trkpt>
      <trkpt lat="48.63589" lon="6.3113">
        <ele>211.2</ele>
        <time>2020-06-29T10:30:49Z</time>
      </trkpt>
      <trkpt lat="48.63585" lon="6.31126">
        <ele>211</ele>
        <time>2020-06-29T10:30:50Z</time>
      </trkpt>
      <trkpt lat="48.63581" lon="6.31123">
        <ele>210.9</ele>
        <time>2020-06-29T10:30:51Z</time>
      </trkpt>
      <trkpt lat="48.63577" lon="6.31119">
        <ele>210.7</ele>
        <time>2020-06-29T10:30:52Z</time>
      </trkpt>
      <trkpt lat="48.63573" lon="6.31116">
        <ele>210.5</ele>
        <time>2020-06-29T10:30:53Z</time>
      </trkpt>
      <trkpt lat="48.63568" lon="6.31114">
        <ele>210.4</ele>
        <time>2020-06-29T10:30:54Z</time>
      </trkpt>
      <trkpt lat="48.63564" lon="6.31111">
        <ele>210.2</ele>
        <time>2020-06-29T10:30:55Z</time>
      </trkpt>
      <trkpt lat="48.6356" lon="6.31108">
        <ele>210</ele>
        <time>2020-06-29T10:30:56Z</time>
      </trkpt>
      <trkpt lat="48.63554" lon="6.31105">
        <ele>209.8</ele>
        <time>2020-06-29T10:30:57Z</time>
      </trkpt>
      <trkpt lat="48.6355" lon="6.31102">
        <ele>209.6</ele>
        <time>2020-06-29T10:30:58Z</time>
      </trkpt>
      <trkpt lat="48.63546" lon="6.31099">
        <ele>209.4</ele>
        <time>2020-06-29T10:30:59Z</time>
      </trkpt>
      <trkpt lat="48.6354" lon="6.31096">
        <ele>209.1</ele>
        <time>2020-06-29T10:31:00Z</time>
      </trkpt>
      <trkpt lat="48.63533" lon="6.31091">
        <ele>208.8</ele>
        <time>2020-06-29T10:31:01Z</time>
      </trkpt>
      <trkpt lat="48.63527" lon="6.31087">
        <ele>208.5</ele>
        <time>2020-06-29T10:31:02Z</time>
      </trkpt>
      <trkpt lat="48.6352" lon="6.31083">
        <ele>208.2</ele>
        <time>2020-06-29T10:31:03Z</time>
      </trkpt>
      <trkpt lat="48.63513" lon="6.31079">
        <ele>208</ele>
        <time>2020-06-29T10:31:04Z</time>
      </trkpt>
      <trkpt lat="48.63507" lon="6.31074">
        <ele>207.8</ele>
        <time>2020-06-29T10:31:05Z</time>
      </trkpt>
      <trkpt lat="48.63501" lon="6.3107">
        <ele>207.6</ele>
        <time>2020-06-29T10:31:06Z</time>
      </trkpt>
      <trkpt lat="48.63495" lon="6.31065">
        <ele>207.4</ele>
        <time>2020-06-29T10:31:07Z</time>
      </trkpt>
      <trkpt lat="48.63489" lon="6.31061">
        <ele>207.3</ele>
        <time>2020-06-29T10:31:08Z</time>
      </trkpt>
      <trkpt lat="48.63483" lon="6.31057">
        <ele>207.4</ele>
        <time>2020-06-29T10:31:09Z</time>
      </trkpt>
      <trkpt lat="48.63477" lon="6.31053">
        <ele>207.2</ele>
        <time>2020-06-29T10:31:10Z</time>
      </trkpt>
      <trkpt lat="48.63472" lon="6.31049">
        <ele>207</ele>
        <time>2020-06-29T10:31:11Z</time>
      </trkpt>
      <trkpt lat="48.63466" lon="6.31044">
        <ele>206.8</ele>
        <time>2020-06-29T10:31:12Z</time>
      </trkpt>
      <trkpt lat="48.6346" lon="6.3104">
        <ele>206.6</ele>
        <time>2020-06-29T10:31:13Z</time>
      </trkpt>
      <trkpt lat="48.63453" lon="6.31035">
        <ele>206.4</ele>
        <time>2020-06-29T10:31:14Z</time>
      </trkpt>
      <trkpt lat="48.63446" lon="6.3103">
        <ele>206.2</ele>
        <time>2020-06-29T10:31:15Z</time>
      </trkpt>
      <trkpt lat="48.6344" lon="6.31026">
        <ele>206</ele>
        <time>2020-06-29T10:31:16Z</time>
      </trkpt>
      <trkpt lat="48.63434" lon="6.31022">
        <ele>205.9</ele>
        <time>2020-06-29T10:31:17Z</time>
      </trkpt>
      <trkpt lat="48.63428" lon="6.31018">
        <ele>205.7</ele>
        <time>2020-06-29T10:31:18Z</time>
      </trkpt>
      <trkpt lat="48.63422" lon="6.31014">
        <ele>205.6</ele>
        <time>2020-06-29T10:31:19Z</time>
      </trkpt>
      <trkpt lat="48.63416" lon="6.31009">
        <ele>205.5</ele>
        <time>2020-06-29T10:31:20Z</time>
      </trkpt>
      <trkpt lat="48.63411" lon="6.31005">
        <ele>205.4</ele>
        <time>2020-06-29T10:31:21Z</time>
      </trkpt>
      <trkpt lat="48.63406" lon="6.31">
        <ele>205.5</ele>
        <time>2020-06-29T10:31:22Z</time>
      </trkpt>
      <trkpt lat="48.63402" lon="6.30993">
        <ele>205.6</ele>
        <time>2020-06-29T10:31:23Z</time>
      </trkpt>
      <trkpt lat="48.634" lon="6.30986">
        <ele>205.8</ele>
        <time>2020-06-29T10:31:24Z</time>
      </trkpt>
      <trkpt lat="48.63397" lon="6.30979">
        <ele>205.9</ele>
        <time>2020-06-29T10:31:25Z</time>
      </trkpt>
      <trkpt lat="48.63394" lon="6.30971">
        <ele>206</ele>
        <time>2020-06-29T10:31:26Z</time>
      </trkpt>
      <trkpt lat="48.6339" lon="6.30965">
        <ele>206.2</ele>
        <time>2020-06-29T10:31:27Z</time>
      </trkpt>
      <trkpt lat="48.63387" lon="6.30958">
        <ele>206.3</ele>
        <time>2020-06-29T10:31:28Z</time>
      </trkpt>
      <trkpt lat="48.63385" lon="6.30952">
        <ele>206.4</ele>
        <time>2020-06-29T10:31:29Z</time>
      </trkpt>
      <trkpt lat="48.63382" lon="6.30944">
        <ele>206.5</ele>
        <time>2020-06-29T10:31:30Z</time>
      </trkpt>
      <trkpt lat="48.6338" lon="6.30939">
        <ele>206.6</ele>
        <time>2020-06-29T10:31:31Z</time>
      </trkpt>
      <trkpt lat="48.63377" lon="6.30931">
        <ele>206.8</ele>
        <time>2020-06-29T10:31:32Z</time>
      </trkpt>
      <trkpt lat="48.63373" lon="6.30925">
        <ele>206.9</ele>
        <time>2020-06-29T10:31:33Z</time>
      </trkpt>
      <trkpt lat="48.63371" lon="6.30919">
        <ele>207</ele>
        <time>2020-06-29T10:31:34Z</time>
      </trkpt>
      <trkpt lat="48.6337" lon="6.30914">
        <ele>207</ele>
        <time>2020-06-29T10:31:35Z</time>
      </trkpt>
      <trkpt lat="48.63369" lon="6.30909">
        <ele>207</ele>
        <time>2020-06-29T10:31:36Z</time>
      </trkpt>
      <trkpt lat="48.63367" lon="6.30906">
        <ele>207</ele>
        <time>2020-06-29T10:31:37Z</time>
      </trkpt>
      <trkpt lat="48.63364" lon="6.30901">
        <ele>207.1</ele>
        <time>2020-06-29T10:31:38Z</time>
      </trkpt>
      <trkpt lat="48.63362" lon="6.30896">
        <ele>207.1</ele>
        <time>2020-06-29T10:31:39Z</time>
      </trkpt>
      <trkpt lat="48.63359" lon="6.30891">
        <ele>207.1</ele>
        <time>2020-06-29T10:31:40Z</time>
      </trkpt>
      <trkpt lat="48.63356" lon="6.30886">
        <ele>207.1</ele>
        <time>2020-06-29T10:31:41Z</time>
      </trkpt>
      <trkpt lat="48.63352" lon="6.30882">
        <ele>207.1</ele>
        <time>2020-06-29T10:31:42Z</time>
      </trkpt>
      <trkpt lat="48.63348" lon="6.30877">
        <ele>207.2</ele>
        <time>2020-06-29T10:31:43Z</time>
      </trkpt>
      <trkpt lat="48.63345" lon="6.30872">
        <ele>207.2</ele>
        <time>2020-06-29T10:31:44Z</time>
      </trkpt>
      <trkpt lat="48.63341" lon="6.30866">
        <ele>207.2</ele>
        <time>2020-06-29T10:31:45Z</time>
      </trkpt>
      <trkpt lat="48.63338" lon="6.30861">
        <ele>207.2</ele>
        <time>2020-06-29T10:31:46Z</time>
      </trkpt>
      <trkpt lat="48.63334" lon="6.30854">
        <ele>207.1</ele>
        <time>2020-06-29T10:31:47Z</time>
      </trkpt>
      <trkpt lat="48.63332" lon="6.30849">
        <ele>207.1</ele>
        <time>2020-06-29T10:31:48Z</time>
      </trkpt>
      <trkpt lat="48.63329" lon="6.30843">
        <ele>207.1</ele>
        <time>2020-06-29T10:31:49Z</time>
      </trkpt>
      <trkpt lat="48.63326" lon="6.30839">
        <ele>207.1</ele>
        <time>2020-06-29T10:31:50Z</time>
      </trkpt>
      <trkpt lat="48.63324" lon="6.30835">
        <ele>207.1</ele>
        <time>2020-06-29T10:31:51Z</time>
      </trkpt>
      <trkpt lat="48.63322" lon="6.30832">
        <ele>207.1</ele>
        <time>2020-06-29T10:31:52Z</time>
      </trkpt>
      <trkpt lat="48.63319" lon="6.3083">
        <ele>207.1</ele>
        <time>2020-06-29T10:31:53Z</time>
      </trkpt>
      <trkpt lat="48.63317" lon="6.30827">
        <ele>207.1</ele>
        <time>2020-06-29T10:31:54Z</time>
      </trkpt>
      <trkpt lat="48.63317" lon="6.30826">
        <ele>207.1</ele>
        <time>2020-06-29T10:31:55Z</time>
      </trkpt>
      <trkpt lat="48.63315" lon="6.30823">
        <ele>207.1</ele>
        <time>2020-06-29T10:31:56Z</time>
      </trkpt>
      <trkpt lat="48.63315" lon="6.30822">
        <ele>207.1</ele>
        <time>2020-06-29T10:31:57Z</time>
      </trkpt>
      <trkpt lat="48.63314" lon="6.30821">
        <ele>207.1</ele>
        <time>2020-06-29T10:31:58Z</time>
      </trkpt>
      <trkpt lat="48.63312" lon="6.30818">
        <ele>207</ele>
        <time>2020-06-29T10:31:59Z</time>
      </trkpt>
      <trkpt lat="48.63309" lon="6.30811">
        <ele>207.1</ele>
        <time>2020-06-29T10:32:00Z</time>
      </trkpt>
      <trkpt lat="48.63305" lon="6.30807">
        <ele>207.1</ele>
        <time>2020-06-29T10:32:01Z</time>
      </trkpt>
      <trkpt lat="48.63303" lon="6.30802">
        <ele>207.1</ele>
        <time>2020-06-29T10:32:02Z</time>
      </trkpt>
      <trkpt lat="48.63301" lon="6.30798">
        <ele>207.1</ele>
        <time>2020-06-29T10:32:03Z</time>
      </trkpt>
      <trkpt lat="48.63298" lon="6.30794">
        <ele>207.1</ele>
        <time>2020-06-29T10:32:04Z</time>
      </trkpt>
      <trkpt lat="48.63295" lon="6.30789">
        <ele>207.2</ele>
        <time>2020-06-29T10:32:05Z</time>
      </trkpt>
      <trkpt lat="48.63293" lon="6.30784">
        <ele>207.1</ele>
        <time>2020-06-29T10:32:06Z</time>
      </trkpt>
      <trkpt lat="48.6329" lon="6.30778">
        <ele>207</ele>
        <time>2020-06-29T10:32:07Z</time>
      </trkpt>
      <trkpt lat="48.63286" lon="6.30773">
        <ele>206.9</ele>
        <time>2020-06-29T10:32:08Z</time>
      </trkpt>
      <trkpt lat="48.63283" lon="6.30768">
        <ele>206.8</ele>
        <time>2020-06-29T10:32:09Z</time>
      </trkpt>
      <trkpt lat="48.63282" lon="6.30766">
        <ele>206.7</ele>
        <time>2020-06-29T10:32:10Z</time>
      </trkpt>
      <trkpt lat="48.6328" lon="6.30761">
        <ele>206.6</ele>
        <time>2020-06-29T10:32:11Z</time>
      </trkpt>
      <trkpt lat="48.63277" lon="6.30755">
        <ele>206.4</ele>
        <time>2020-06-29T10:32:12Z</time>
      </trkpt>
      <trkpt lat="48.63275" lon="6.30747">
        <ele>206.2</ele>
        <time>2020-06-29T10:32:13Z</time>
      </trkpt>
      <trkpt lat="48.63273" lon="6.30739">
        <ele>206.1</ele>
        <time>2020-06-29T10:32:14Z</time>
      </trkpt>
      <trkpt lat="48.63272" lon="6.30733">
        <ele>206.1</ele>
        <time>2020-06-29T10:32:15Z</time>
      </trkpt>
      <trkpt lat="48.63272" lon="6.30728">
        <ele>206.2</ele>
        <time>2020-06-29T10:32:16Z</time>
      </trkpt>
      <trkpt lat="48.63271" lon="6.30722">
        <ele>206.3</ele>
        <time>2020-06-29T10:32:17Z</time>
      </trkpt>
      <trkpt lat="48.63271" lon="6.30717">
        <ele>206.4</ele>
        <time>2020-06-29T10:32:18Z</time>
      </trkpt>
      <trkpt lat="48.6327" lon="6.30711">
        <ele>206.6</ele>
        <time>2020-06-29T10:32:19Z</time>
      </trkpt>
      <trkpt lat="48.63271" lon="6.30706">
        <ele>206.9</ele>
        <time>2020-06-29T10:32:20Z</time>
      </trkpt>
      <trkpt lat="48.63271" lon="6.30705">
        <ele>206.9</ele>
        <time>2020-06-29T10:32:21Z</time>
      </trkpt>
      <trkpt lat="48.63272" lon="6.30702">
        <ele>206.8</ele>
        <time>2020-06-29T10:32:22Z</time>
      </trkpt>
      <trkpt lat="48.63273" lon="6.30702">
        <ele>206.8</ele>
        <time>2020-06-29T10:32:23Z</time>
      </trkpt>
      <trkpt lat="48.63274" lon="6.30698">
        <ele>206.7</ele>
        <time>2020-06-29T10:32:24Z</time>
      </trkpt>
      <trkpt lat="48.63275" lon="6.30697">
        <ele>206.6</ele>
        <time>2020-06-29T10:32:25Z</time>
      </trkpt>
      <trkpt lat="48.63274" lon="6.30694">
        <ele>206.6</ele>
        <time>2020-06-29T10:32:26Z</time>
      </trkpt>
      <trkpt lat="48.63275" lon="6.30693">
        <ele>206.5</ele>
        <time>2020-06-29T10:32:27Z</time>
      </trkpt>
      <trkpt lat="48.63275" lon="6.30692">
        <ele>206.5</ele>
        <time>2020-06-29T10:32:28Z</time>
      </trkpt>
      <trkpt lat="48.63275" lon="6.30691">
        <ele>206.5</ele>
        <time>2020-06-29T10:32:29Z</time>
      </trkpt>
      <trkpt lat="48.63276" lon="6.30688">
        <ele>206.4</ele>
        <time>2020-06-29T10:32:30Z</time>
      </trkpt>
      <trkpt lat="48.63276" lon="6.30687">
        <ele>206.4</ele>
        <time>2020-06-29T10:32:31Z</time>
      </trkpt>
      <trkpt lat="48.63276" lon="6.30685">
        <ele>206.3</ele>
        <time>2020-06-29T10:32:32Z</time>
      </trkpt>
      <trkpt lat="48.63279" lon="6.30682">
        <ele>206.2</ele>
        <time>2020-06-29T10:32:33Z</time>
      </trkpt>
      <trkpt lat="48.6328" lon="6.30681">
        <ele>206.2</ele>
        <time>2020-06-29T10:32:34Z</time>
      </trkpt>
      <trkpt lat="48.63282" lon="6.30678">
        <ele>206</ele>
        <time>2020-06-29T10:32:35Z</time>
      </trkpt>
      <trkpt lat="48.63283" lon="6.30677">
        <ele>206</ele>
        <time>2020-06-29T10:32:36Z</time>
      </trkpt>
      <trkpt lat="48.63285" lon="6.30675">
        <ele>205.9</ele>
        <time>2020-06-29T10:32:37Z</time>
      </trkpt>
      <trkpt lat="48.63286" lon="6.30674">
        <ele>205.9</ele>
        <time>2020-06-29T10:32:38Z</time>
      </trkpt>
      <trkpt lat="48.63287" lon="6.30672">
        <ele>205.8</ele>
        <time>2020-06-29T10:32:39Z</time>
      </trkpt>
      <trkpt lat="48.63288" lon="6.3067">
        <ele>205.8</ele>
        <time>2020-06-29T10:32:40Z</time>
      </trkpt>
      <trkpt lat="48.63288" lon="6.30669">
        <ele>205.7</ele>
        <time>2020-06-29T10:32:41Z</time>
      </trkpt>
      <trkpt lat="48.63289" lon="6.30669">
        <ele>205.7</ele>
        <time>2020-06-29T10:32:42Z</time>
      </trkpt>
      <trkpt lat="48.6329" lon="6.30668">
        <ele>205.7</ele>
        <time>2020-06-29T10:32:43Z</time>
      </trkpt>
      <trkpt lat="48.63291" lon="6.30667">
        <ele>205.6</ele>
        <time>2020-06-29T10:32:44Z</time>
      </trkpt>
      <trkpt lat="48.63291" lon="6.30666">
        <ele>205.6</ele>
        <time>2020-06-29T10:32:45Z</time>
      </trkpt>
      <trkpt lat="48.63291" lon="6.30667">
        <ele>205.6</ele>
        <time>2020-06-29T10:32:46Z</time>
      </trkpt>
      <trkpt lat="48.63292" lon="6.30666">
        <ele>205.6</ele>
        <time>2020-06-29T10:32:47Z</time>
      </trkpt>
      <trkpt lat="48.63291" lon="6.30666">
        <ele>205.6</ele>
        <time>2020-06-29T10:32:48Z</time>
      </trkpt>
      <trkpt lat="48.63291" lon="6.30666">
        <ele>205.6</ele>
        <time>2020-06-29T10:32:49Z</time>
      </trkpt>
      <trkpt lat="48.63291" lon="6.30665">
        <ele>205.6</ele>
        <time>2020-06-29T10:32:50Z</time>
      </trkpt>
      <trkpt lat="48.63291" lon="6.30664">
        <ele>205.5</ele>
        <time>2020-06-29T10:32:51Z</time>
      </trkpt>
      <trkpt lat="48.63291" lon="6.30664">
        <ele>205.5</ele>
        <time>2020-06-29T10:32:52Z</time>
      </trkpt>
      <trkpt lat="48.63291" lon="6.30665">
        <ele>205.5</ele>
        <time>2020-06-29T10:32:53Z</time>
      </trkpt>
      <trkpt lat="48.63291" lon="6.30665">
        <ele>205.5</ele>
        <time>2020-06-29T10:32:54Z</time>
      </trkpt>
      <trkpt lat="48.6329" lon="6.30666">
        <ele>205.5</ele>
        <time>2020-06-29T10:32:55Z</time>
      </trkpt>
      <trkpt lat="48.63291" lon="6.30666">
        <ele>205.5</ele>
        <time>2020-06-29T10:32:56Z</time>
      </trkpt>
      <trkpt lat="48.63291" lon="6.30666">
        <ele>205.4</ele>
        <time>2020-06-29T10:32:57Z</time>
      </trkpt>
      <trkpt lat="48.63291" lon="6.30666">
        <ele>205.4</ele>
        <time>2020-06-29T10:32:58Z</time>
      </trkpt>
      <trkpt lat="48.63291" lon="6.30666">
        <ele>205.4</ele>
        <time>2020-06-29T10:32:59Z</time>
      </trkpt>
      <trkpt lat="48.63291" lon="6.30666">
        <ele>205.4</ele>
        <time>2020-06-29T10:33:00Z</time>
      </trkpt>
      <trkpt lat="48.63291" lon="6.30666">
        <ele>205.4</ele>
        <time>2020-06-29T10:33:01Z</time>
      </trkpt>
      <trkpt lat="48.63291" lon="6.30666">
        <ele>205.4</ele>
        <time>2020-06-29T10:33:02Z</time>
      </trkpt>
      <trkpt lat="48.63291" lon="6.30666">
        <ele>205.4</ele>
        <time>2020-06-29T10:33:03Z</time>
      </trkpt>
      <trkpt lat="48.63291" lon="6.30666">
        <ele>205.4</ele>
        <time>2020-06-29T10:33:04Z</time>
      </trkpt>
      <trkpt lat="48.63291" lon="6.30666">
        <ele>205.4</ele>
        <time>2020-06-29T10:33:05Z</time>
      </trkpt>
      <trkpt lat="48.63291" lon="6.30666">
        <ele>205.4</ele>
        <time>2020-06-29T10:33:06Z</time>
      </trkpt>
      <trkpt lat="48.63291" lon="6.30666">
        <ele>205.4</ele>
        <time>2020-06-29T10:33:07Z</time>
      </trkpt>
      <trkpt lat="48.63287" lon="6.30656">
        <ele>205.2</ele>
        <time>2020-06-29T10:33:35Z</time>
      </trkpt>
      <trkpt lat="48.63287" lon="6.30655">
        <ele>205.2</ele>
        <time>2020-06-29T10:33:36Z</time>
      </trkpt>
      <trkpt lat="48.63287" lon="6.30655">
        <ele>205.2</ele>
        <time>2020-06-29T10:33:37Z</time>
      </trkpt>
      <trkpt lat="48.63287" lon="6.30655">
        <ele>205.2</ele>
        <time>2020-06-29T10:33:38Z</time>
      </trkpt>
      <trkpt lat="48.63286" lon="6.30654">
        <ele>205.1</ele>
        <time>2020-06-29T10:33:39Z</time>
      </trkpt>
      <trkpt lat="48.63285" lon="6.30654">
        <ele>205.1</ele>
        <time>2020-06-29T10:33:40Z</time>
      </trkpt>
      <trkpt lat="48.63284" lon="6.30654">
        <ele>205.1</ele>
        <time>2020-06-29T10:33:41Z</time>
      </trkpt>
      <trkpt lat="48.63284" lon="6.30654">
        <ele>205.1</ele>
        <time>2020-06-29T10:33:42Z</time>
      </trkpt>
      <trkpt lat="48.63285" lon="6.30654">
        <ele>205.1</ele>
        <time>2020-06-29T10:33:43Z</time>
      </trkpt>
      <trkpt lat="48.63285" lon="6.30654">
        <ele>205.1</ele>
        <time>2020-06-29T10:33:44Z</time>
      </trkpt>
      <trkpt lat="48.63285" lon="6.30654">
        <ele>205.1</ele>
        <time>2020-06-29T10:33:45Z</time>
      </trkpt>
      <trkpt lat="48.63286" lon="6.30655">
        <ele>205</ele>
        <time>2020-06-29T10:33:46Z</time>
      </trkpt>
      <trkpt lat="48.63286" lon="6.30654">
        <ele>205</ele>
        <time>2020-06-29T10:33:47Z</time>
      </trkpt>
      <trkpt lat="48.63286" lon="6.30655">
        <ele>205</ele>
        <time>2020-06-29T10:33:48Z</time>
      </trkpt>
      <trkpt lat="48.63287" lon="6.30655">
        <ele>205</ele>
        <time>2020-06-29T10:33:49Z</time>
      </trkpt>
      <trkpt lat="48.63287" lon="6.30655">
        <ele>205</ele>
        <time>2020-06-29T10:33:50Z</time>
      </trkpt>
      <trkpt lat="48.63287" lon="6.30655">
        <ele>205</ele>
        <time>2020-06-29T10:33:51Z</time>
      </trkpt>
      <trkpt lat="48.63287" lon="6.30655">
        <ele>205</ele>
        <time>2020-06-29T10:33:52Z</time>
      </trkpt>
      <trkpt lat="48.63288" lon="6.30656">
        <ele>205</ele>
        <time>2020-06-29T10:33:53Z</time>
      </trkpt>
      <trkpt lat="48.63288" lon="6.30656">
        <ele>204.9</ele>
        <time>2020-06-29T10:33:54Z</time>
      </trkpt>
      <trkpt lat="48.63288" lon="6.30656">
        <ele>204.9</ele>
        <time>2020-06-29T10:33:55Z</time>
      </trkpt>
      <trkpt lat="48.63289" lon="6.30657">
        <ele>204.9</ele>
        <time>2020-06-29T10:33:56Z</time>
      </trkpt>
      <trkpt lat="48.63289" lon="6.30657">
        <ele>204.9</ele>
        <time>2020-06-29T10:33:57Z</time>
      </trkpt>
      <trkpt lat="48.63288" lon="6.30657">
        <ele>204.9</ele>
        <time>2020-06-29T10:33:58Z</time>
      </trkpt>
      <trkpt lat="48.63288" lon="6.30658">
        <ele>204.9</ele>
        <time>2020-06-29T10:33:59Z</time>
      </trkpt>
      <trkpt lat="48.63288" lon="6.30658">
        <ele>204.9</ele>
        <time>2020-06-29T10:34:00Z</time>
      </trkpt>
      <trkpt lat="48.63288" lon="6.30658">
        <ele>204.9</ele>
        <time>2020-06-29T10:34:01Z</time>
      </trkpt>
      <trkpt lat="48.63288" lon="6.30658">
        <ele>204.9</ele>
        <time>2020-06-29T10:34:02Z</time>
      </trkpt>
      <trkpt lat="48.63288" lon="6.30649">
        <ele>204.7</ele>
        <time>2020-06-29T10:34:32Z</time>
      </trkpt>
      <trkpt lat="48.63288" lon="6.30647">
        <ele>204.7</ele>
        <time>2020-06-29T10:34:33Z</time>
      </trkpt>
      <trkpt lat="48.63288" lon="6.30643">
        <ele>204.6</ele>
        <time>2020-06-29T10:34:34Z</time>
      </trkpt>
      <trkpt lat="48.63288" lon="6.30641">
        <ele>204.5</ele>
        <time>2020-06-29T10:34:35Z</time>
      </trkpt>
      <trkpt lat="48.63289" lon="6.30636">
        <ele>204.4</ele>
        <time>2020-06-29T10:34:36Z</time>
      </trkpt>
      <trkpt lat="48.6329" lon="6.30628">
        <ele>204.3</ele>
        <time>2020-06-29T10:34:37Z</time>
      </trkpt>
      <trkpt lat="48.63291" lon="6.30623">
        <ele>204.2</ele>
        <time>2020-06-29T10:34:38Z</time>
      </trkpt>
      <trkpt lat="48.63293" lon="6.30619">
        <ele>204.1</ele>
        <time>2020-06-29T10:34:39Z</time>
      </trkpt>
      <trkpt lat="48.63295" lon="6.30614">
        <ele>204.1</ele>
        <time>2020-06-29T10:34:40Z</time>
      </trkpt>
      <trkpt lat="48.63296" lon="6.30612">
        <ele>204.1</ele>
        <time>2020-06-29T10:34:41Z</time>
      </trkpt>
      <trkpt lat="48.63297" lon="6.30607">
        <ele>204.1</ele>
        <time>2020-06-29T10:34:42Z</time>
      </trkpt>
      <trkpt lat="48.63298" lon="6.30603">
        <ele>204</ele>
        <time>2020-06-29T10:34:43Z</time>
      </trkpt>
      <trkpt lat="48.63299" lon="6.30598">
        <ele>204</ele>
        <time>2020-06-29T10:34:44Z</time>
      </trkpt>
      <trkpt lat="48.63301" lon="6.30593">
        <ele>204</ele>
        <time>2020-06-29T10:34:45Z</time>
      </trkpt>
      <trkpt lat="48.63302" lon="6.30587">
        <ele>204</ele>
        <time>2020-06-29T10:34:46Z</time>
      </trkpt>
      <trkpt lat="48.63304" lon="6.30582">
        <ele>204</ele>
        <time>2020-06-29T10:34:47Z</time>
      </trkpt>
      <trkpt lat="48.63305" lon="6.30576">
        <ele>203.9</ele>
        <time>2020-06-29T10:34:48Z</time>
      </trkpt>
      <trkpt lat="48.63306" lon="6.30571">
        <ele>203.9</ele>
        <time>2020-06-29T10:34:49Z</time>
      </trkpt>
      <trkpt lat="48.63308" lon="6.30567">
        <ele>203.9</ele>
        <time>2020-06-29T10:34:50Z</time>
      </trkpt>
      <trkpt lat="48.63309" lon="6.30562">
        <ele>203.9</ele>
        <time>2020-06-29T10:34:51Z</time>
      </trkpt>
      <trkpt lat="48.63311" lon="6.30558">
        <ele>203.8</ele>
        <time>2020-06-29T10:34:52Z</time>
      </trkpt>
      <trkpt lat="48.63313" lon="6.30553">
        <ele>203.8</ele>
        <time>2020-06-29T10:34:53Z</time>
      </trkpt>
      <trkpt lat="48.63315" lon="6.30548">
        <ele>203.8</ele>
        <time>2020-06-29T10:34:54Z</time>
      </trkpt>
      <trkpt lat="48.63317" lon="6.30543">
        <ele>203.8</ele>
        <time>2020-06-29T10:34:55Z</time>
      </trkpt>
      <trkpt lat="48.6332" lon="6.30538">
        <ele>203.8</ele>
        <time>2020-06-29T10:34:56Z</time>
      </trkpt>
      <trkpt lat="48.63324" lon="6.30537">
        <ele>203.8</ele>
        <time>2020-06-29T10:34:57Z</time>
      </trkpt>
      <trkpt lat="48.63327" lon="6.30539">
        <ele>204.4</ele>
        <time>2020-06-29T10:34:58Z</time>
      </trkpt>
      <trkpt lat="48.63331" lon="6.30542">
        <ele>204.6</ele>
        <time>2020-06-29T10:34:59Z</time>
      </trkpt>
      <trkpt lat="48.63334" lon="6.30544">
        <ele>204.7</ele>
        <time>2020-06-29T10:35:00Z</time>
      </trkpt>
      <trkpt lat="48.63337" lon="6.30546">
        <ele>204.9</ele>
        <time>2020-06-29T10:35:01Z</time>
      </trkpt>
      <trkpt lat="48.63341" lon="6.30549">
        <ele>204.9</ele>
        <time>2020-06-29T10:35:02Z</time>
      </trkpt>
      <trkpt lat="48.63345" lon="6.30552">
        <ele>204.9</ele>
        <time>2020-06-29T10:35:03Z</time>
      </trkpt>
      <trkpt lat="48.63349" lon="6.30554">
        <ele>204.9</ele>
        <time>2020-06-29T10:35:04Z</time>
      </trkpt>
      <trkpt lat="48.63353" lon="6.30556">
        <ele>204.9</ele>
        <time>2020-06-29T10:35:05Z</time>
      </trkpt>
      <trkpt lat="48.63357" lon="6.30558">
        <ele>205</ele>
        <time>2020-06-29T10:35:06Z</time>
      </trkpt>
      <trkpt lat="48.63361" lon="6.30558">
        <ele>205</ele>
        <time>2020-06-29T10:35:07Z</time>
      </trkpt>
      <trkpt lat="48.63364" lon="6.30559">
        <ele>205.1</ele>
        <time>2020-06-29T10:35:08Z</time>
      </trkpt>
      <trkpt lat="48.63368" lon="6.3056">
        <ele>205.2</ele>
        <time>2020-06-29T10:35:09Z</time>
      </trkpt>
      <trkpt lat="48.63373" lon="6.30562">
        <ele>205.3</ele>
        <time>2020-06-29T10:35:10Z</time>
      </trkpt>
      <trkpt lat="48.63377" lon="6.30563">
        <ele>205.3</ele>
        <time>2020-06-29T10:35:11Z</time>
      </trkpt>
      <trkpt lat="48.63382" lon="6.30561">
        <ele>205.4</ele>
        <time>2020-06-29T10:35:12Z</time>
      </trkpt>
      <trkpt lat="48.63387" lon="6.30553">
        <ele>205.4</ele>
        <time>2020-06-29T10:35:13Z</time>
      </trkpt>
      <trkpt lat="48.6339" lon="6.30544">
        <ele>205.4</ele>
        <time>2020-06-29T10:35:14Z</time>
      </trkpt>
      <trkpt lat="48.63394" lon="6.30538">
        <ele>205.3</ele>
        <time>2020-06-29T10:35:15Z</time>
      </trkpt>
      <trkpt lat="48.63397" lon="6.30533">
        <ele>205.3</ele>
        <time>2020-06-29T10:35:16Z</time>
      </trkpt>
      <trkpt lat="48.634" lon="6.30528">
        <ele>205.1</ele>
        <time>2020-06-29T10:35:17Z</time>
      </trkpt>
      <trkpt lat="48.63404" lon="6.30522">
        <ele>205</ele>
        <time>2020-06-29T10:35:18Z</time>
      </trkpt>
      <trkpt lat="48.63406" lon="6.30516">
        <ele>204.8</ele>
        <time>2020-06-29T10:35:19Z</time>
      </trkpt>
      <trkpt lat="48.6341" lon="6.30509">
        <ele>204.7</ele>
        <time>2020-06-29T10:35:20Z</time>
      </trkpt>
      <trkpt lat="48.63414" lon="6.30502">
        <ele>204.6</ele>
        <time>2020-06-29T10:35:21Z</time>
      </trkpt>
      <trkpt lat="48.63418" lon="6.30496">
        <ele>204.6</ele>
        <time>2020-06-29T10:35:22Z</time>
      </trkpt>
      <trkpt lat="48.63422" lon="6.30489">
        <ele>204.6</ele>
        <time>2020-06-29T10:35:23Z</time>
      </trkpt>
      <trkpt lat="48.63424" lon="6.30482">
        <ele>204.6</ele>
        <time>2020-06-29T10:35:24Z</time>
      </trkpt>
      <trkpt lat="48.63427" lon="6.30473">
        <ele>204.6</ele>
        <time>2020-06-29T10:35:25Z</time>
      </trkpt>
      <trkpt lat="48.63429" lon="6.30466">
        <ele>204.6</ele>
        <time>2020-06-29T10:35:26Z</time>
      </trkpt>
      <trkpt lat="48.63432" lon="6.30458">
        <ele>204.5</ele>
        <time>2020-06-29T10:35:27Z</time>
      </trkpt>
      <trkpt lat="48.63434" lon="6.30452">
        <ele>204.5</ele>
        <time>2020-06-29T10:35:28Z</time>
      </trkpt>
      <trkpt lat="48.63438" lon="6.30446">
        <ele>204.4</ele>
        <time>2020-06-29T10:35:29Z</time>
      </trkpt>
      <trkpt lat="48.63442" lon="6.30439">
        <ele>204.4</ele>
        <time>2020-06-29T10:35:30Z</time>
      </trkpt>
      <trkpt lat="48.63445" lon="6.30431">
        <ele>204.5</ele>
        <time>2020-06-29T10:35:31Z</time>
      </trkpt>
      <trkpt lat="48.63448" lon="6.30424">
        <ele>204.5</ele>
        <time>2020-06-29T10:35:32Z</time>
      </trkpt>
      <trkpt lat="48.63452" lon="6.30418">
        <ele>204.5</ele>
        <time>2020-06-29T10:35:33Z</time>
      </trkpt>
      <trkpt lat="48.63454" lon="6.30412">
        <ele>204.4</ele>
        <time>2020-06-29T10:35:34Z</time>
      </trkpt>
      <trkpt lat="48.63457" lon="6.30406">
        <ele>204.4</ele>
        <time>2020-06-29T10:35:35Z</time>
      </trkpt>
      <trkpt lat="48.63459" lon="6.304">
        <ele>204.3</ele>
        <time>2020-06-29T10:35:36Z</time>
      </trkpt>
      <trkpt lat="48.63461" lon="6.30395">
        <ele>204.3</ele>
        <time>2020-06-29T10:35:37Z</time>
      </trkpt>
      <trkpt lat="48.63464" lon="6.30388">
        <ele>204.2</ele>
        <time>2020-06-29T10:35:38Z</time>
      </trkpt>
      <trkpt lat="48.63465" lon="6.30382">
        <ele>204.2</ele>
        <time>2020-06-29T10:35:39Z</time>
      </trkpt>
      <trkpt lat="48.63468" lon="6.30377">
        <ele>204.2</ele>
        <time>2020-06-29T10:35:40Z</time>
      </trkpt>
      <trkpt lat="48.6347" lon="6.30371">
        <ele>204.1</ele>
        <time>2020-06-29T10:35:41Z</time>
      </trkpt>
      <trkpt lat="48.63473" lon="6.30365">
        <ele>204.1</ele>
        <time>2020-06-29T10:35:42Z</time>
      </trkpt>
      <trkpt lat="48.63475" lon="6.30359">
        <ele>204.1</ele>
        <time>2020-06-29T10:35:43Z</time>
      </trkpt>
      <trkpt lat="48.63478" lon="6.30353">
        <ele>204</ele>
        <time>2020-06-29T10:35:44Z</time>
      </trkpt>
      <trkpt lat="48.6348" lon="6.30348">
        <ele>204</ele>
        <time>2020-06-29T10:35:45Z</time>
      </trkpt>
      <trkpt lat="48.63483" lon="6.30343">
        <ele>204</ele>
        <time>2020-06-29T10:35:46Z</time>
      </trkpt>
      <trkpt lat="48.63486" lon="6.30339">
        <ele>203.9</ele>
        <time>2020-06-29T10:35:47Z</time>
      </trkpt>
      <trkpt lat="48.6349" lon="6.30335">
        <ele>203.8</ele>
        <time>2020-06-29T10:35:48Z</time>
      </trkpt>
      <trkpt lat="48.63493" lon="6.30329">
        <ele>203.7</ele>
        <time>2020-06-29T10:35:49Z</time>
      </trkpt>
      <trkpt lat="48.63496" lon="6.30324">
        <ele>203.6</ele>
        <time>2020-06-29T10:35:50Z</time>
      </trkpt>
      <trkpt lat="48.63498" lon="6.30318">
        <ele>203.5</ele>
        <time>2020-06-29T10:35:51Z</time>
      </trkpt>
      <trkpt lat="48.635" lon="6.3031">
        <ele>203.3</ele>
        <time>2020-06-29T10:35:52Z</time>
      </trkpt>
      <trkpt lat="48.63502" lon="6.30303">
        <ele>203.1</ele>
        <time>2020-06-29T10:35:53Z</time>
      </trkpt>
      <trkpt lat="48.63505" lon="6.30296">
        <ele>203</ele>
        <time>2020-06-29T10:35:54Z</time>
      </trkpt>
      <trkpt lat="48.63507" lon="6.30291">
        <ele>203</ele>
        <time>2020-06-29T10:35:55Z</time>
      </trkpt>
      <trkpt lat="48.6351" lon="6.30287">
        <ele>203</ele>
        <time>2020-06-29T10:35:56Z</time>
      </trkpt>
      <trkpt lat="48.63512" lon="6.3028">
        <ele>203</ele>
        <time>2020-06-29T10:35:57Z</time>
      </trkpt>
      <trkpt lat="48.63516" lon="6.30275">
        <ele>203.1</ele>
        <time>2020-06-29T10:35:58Z</time>
      </trkpt>
      <trkpt lat="48.63518" lon="6.30271">
        <ele>203.1</ele>
        <time>2020-06-29T10:35:59Z</time>
      </trkpt>
      <trkpt lat="48.63521" lon="6.30264">
        <ele>203.1</ele>
        <time>2020-06-29T10:36:00Z</time>
      </trkpt>
      <trkpt lat="48.63523" lon="6.30259">
        <ele>203.1</ele>
        <time>2020-06-29T10:36:01Z</time>
      </trkpt>
      <trkpt lat="48.63525" lon="6.30255">
        <ele>203</ele>
        <time>2020-06-29T10:36:02Z</time>
      </trkpt>
      <trkpt lat="48.63527" lon="6.30252">
        <ele>202.9</ele>
        <time>2020-06-29T10:36:03Z</time>
      </trkpt>
      <trkpt lat="48.63529" lon="6.30249">
        <ele>202.7</ele>
        <time>2020-06-29T10:36:04Z</time>
      </trkpt>
      <trkpt lat="48.63531" lon="6.30246">
        <ele>202.7</ele>
        <time>2020-06-29T10:36:05Z</time>
      </trkpt>
      <trkpt lat="48.63534" lon="6.30243">
        <ele>202.6</ele>
        <time>2020-06-29T10:36:06Z</time>
      </trkpt>
      <trkpt lat="48.63536" lon="6.30238">
        <ele>202.6</ele>
        <time>2020-06-29T10:36:07Z</time>
      </trkpt>
      <trkpt lat="48.63537" lon="6.30234">
        <ele>202.6</ele>
        <time>2020-06-29T10:36:08Z</time>
      </trkpt>
      <trkpt lat="48.63539" lon="6.30228">
        <ele>202.6</ele>
        <time>2020-06-29T10:36:09Z</time>
      </trkpt>
      <trkpt lat="48.63541" lon="6.30224">
        <ele>202.5</ele>
        <time>2020-06-29T10:36:10Z</time>
      </trkpt>
      <trkpt lat="48.63544" lon="6.30217">
        <ele>202.5</ele>
        <time>2020-06-29T10:36:11Z</time>
      </trkpt>
      <trkpt lat="48.63547" lon="6.3021">
        <ele>202.5</ele>
        <time>2020-06-29T10:36:12Z</time>
      </trkpt>
      <trkpt lat="48.6355" lon="6.30204">
        <ele>202.4</ele>
        <time>2020-06-29T10:36:13Z</time>
      </trkpt>
      <trkpt lat="48.63553" lon="6.30198">
        <ele>202.4</ele>
        <time>2020-06-29T10:36:14Z</time>
      </trkpt>
      <trkpt lat="48.63554" lon="6.30192">
        <ele>202.4</ele>
        <time>2020-06-29T10:36:15Z</time>
      </trkpt>
      <trkpt lat="48.63557" lon="6.30186">
        <ele>202.4</ele>
        <time>2020-06-29T10:36:16Z</time>
      </trkpt>
      <trkpt lat="48.63559" lon="6.30179">
        <ele>202.4</ele>
        <time>2020-06-29T10:36:17Z</time>
      </trkpt>
      <trkpt lat="48.63561" lon="6.30172">
        <ele>202.4</ele>
        <time>2020-06-29T10:36:18Z</time>
      </trkpt>
      <trkpt lat="48.63563" lon="6.30166">
        <ele>202.5</ele>
        <time>2020-06-29T10:36:19Z</time>
      </trkpt>
      <trkpt lat="48.63566" lon="6.30159">
        <ele>202.6</ele>
        <time>2020-06-29T10:36:20Z</time>
      </trkpt>
      <trkpt lat="48.63568" lon="6.30152">
        <ele>202.7</ele>
        <time>2020-06-29T10:36:21Z</time>
      </trkpt>
      <trkpt lat="48.63571" lon="6.30147">
        <ele>202.8</ele>
        <time>2020-06-29T10:36:22Z</time>
      </trkpt>
      <trkpt lat="48.63573" lon="6.30142">
        <ele>202.8</ele>
        <time>2020-06-29T10:36:23Z</time>
      </trkpt>
      <trkpt lat="48.63575" lon="6.30136">
        <ele>202.6</ele>
        <time>2020-06-29T10:36:24Z</time>
      </trkpt>
      <trkpt lat="48.63578" lon="6.30131">
        <ele>202.7</ele>
        <time>2020-06-29T10:36:25Z</time>
      </trkpt>
      <trkpt lat="48.63581" lon="6.30127">
        <ele>202.8</ele>
        <time>2020-06-29T10:36:26Z</time>
      </trkpt>
      <trkpt lat="48.63584" lon="6.30125">
        <ele>202.9</ele>
        <time>2020-06-29T10:36:27Z</time>
      </trkpt>
      <trkpt lat="48.63586" lon="6.30122">
        <ele>203</ele>
        <time>2020-06-29T10:36:28Z</time>
      </trkpt>
      <trkpt lat="48.63589" lon="6.3012">
        <ele>203.1</ele>
        <time>2020-06-29T10:36:29Z</time>
      </trkpt>
      <trkpt lat="48.63593" lon="6.3012">
        <ele>203.2</ele>
        <time>2020-06-29T10:36:30Z</time>
      </trkpt>
      <trkpt lat="48.63596" lon="6.30118">
        <ele>203.4</ele>
        <time>2020-06-29T10:36:31Z</time>
      </trkpt>
      <trkpt lat="48.63599" lon="6.30117">
        <ele>203.5</ele>
        <time>2020-06-29T10:36:32Z</time>
      </trkpt>
      <trkpt lat="48.63601" lon="6.30115">
        <ele>203.6</ele>
        <time>2020-06-29T10:36:33Z</time>
      </trkpt>
      <trkpt lat="48.63604" lon="6.30113">
        <ele>203.8</ele>
        <time>2020-06-29T10:36:34Z</time>
      </trkpt>
      <trkpt lat="48.63606" lon="6.3011">
        <ele>203.9</ele>
        <time>2020-06-29T10:36:35Z</time>
      </trkpt>
      <trkpt lat="48.63608" lon="6.30105">
        <ele>203.9</ele>
        <time>2020-06-29T10:36:36Z</time>
      </trkpt>
      <trkpt lat="48.6361" lon="6.301">
        <ele>203.8</ele>
        <time>2020-06-29T10:36:37Z</time>
      </trkpt>
      <trkpt lat="48.63611" lon="6.30094">
        <ele>203.7</ele>
        <time>2020-06-29T10:36:38Z</time>
      </trkpt>
      <trkpt lat="48.63611" lon="6.30088">
        <ele>203.6</ele>
        <time>2020-06-29T10:36:39Z</time>
      </trkpt>
      <trkpt lat="48.63611" lon="6.30082">
        <ele>203.5</ele>
        <time>2020-06-29T10:36:40Z</time>
      </trkpt>
      <trkpt lat="48.6361" lon="6.30076">
        <ele>203.4</ele>
        <time>2020-06-29T10:36:41Z</time>
      </trkpt>
      <trkpt lat="48.63609" lon="6.3007">
        <ele>203.3</ele>
        <time>2020-06-29T10:36:42Z</time>
      </trkpt>
      <trkpt lat="48.63608" lon="6.30063">
        <ele>203.2</ele>
        <time>2020-06-29T10:36:43Z</time>
      </trkpt>
      <trkpt lat="48.63607" lon="6.30056">
        <ele>203</ele>
        <time>2020-06-29T10:36:44Z</time>
      </trkpt>
      <trkpt lat="48.63606" lon="6.3005">
        <ele>202.9</ele>
        <time>2020-06-29T10:36:45Z</time>
      </trkpt>
      <trkpt lat="48.63606" lon="6.30043">
        <ele>202.9</ele>
        <time>2020-06-29T10:36:46Z</time>
      </trkpt>
      <trkpt lat="48.63605" lon="6.30036">
        <ele>202.9</ele>
        <time>2020-06-29T10:36:47Z</time>
      </trkpt>
      <trkpt lat="48.63604" lon="6.30028">
        <ele>202.9</ele>
        <time>2020-06-29T10:36:48Z</time>
      </trkpt>
      <trkpt lat="48.63603" lon="6.3002">
        <ele>202.9</ele>
        <time>2020-06-29T10:36:49Z</time>
      </trkpt>
      <trkpt lat="48.63602" lon="6.30013">
        <ele>202.9</ele>
        <time>2020-06-29T10:36:50Z</time>
      </trkpt>
      <trkpt lat="48.63602" lon="6.30005">
        <ele>202.8</ele>
        <time>2020-06-29T10:36:51Z</time>
      </trkpt>
      <trkpt lat="48.636" lon="6.29997">
        <ele>202.8</ele>
        <time>2020-06-29T10:36:52Z</time>
      </trkpt>
      <trkpt lat="48.63598" lon="6.29988">
        <ele>202.8</ele>
        <time>2020-06-29T10:36:53Z</time>
      </trkpt>
      <trkpt lat="48.63597" lon="6.29979">
        <ele>202.8</ele>
        <time>2020-06-29T10:36:54Z</time>
      </trkpt>
      <trkpt lat="48.63596" lon="6.2997">
        <ele>202.8</ele>
        <time>2020-06-29T10:36:55Z</time>
      </trkpt>
      <trkpt lat="48.63595" lon="6.29961">
        <ele>202.8</ele>
        <time>2020-06-29T10:36:56Z</time>
      </trkpt>
      <trkpt lat="48.63593" lon="6.29951">
        <ele>202.8</ele>
        <time>2020-06-29T10:36:57Z</time>
      </trkpt>
      <trkpt lat="48.63591" lon="6.29941">
        <ele>202.8</ele>
        <time>2020-06-29T10:36:58Z</time>
      </trkpt>
      <trkpt lat="48.6359" lon="6.29931">
        <ele>202.7</ele>
        <time>2020-06-29T10:36:59Z</time>
      </trkpt>
      <trkpt lat="48.63588" lon="6.29922">
        <ele>202.7</ele>
        <time>2020-06-29T10:37:00Z</time>
      </trkpt>
      <trkpt lat="48.63588" lon="6.29914">
        <ele>202.7</ele>
        <time>2020-06-29T10:37:01Z</time>
      </trkpt>
      <trkpt lat="48.63587" lon="6.29906">
        <ele>202.7</ele>
        <time>2020-06-29T10:37:02Z</time>
      </trkpt>
      <trkpt lat="48.63587" lon="6.29897">
        <ele>202.7</ele>
        <time>2020-06-29T10:37:03Z</time>
      </trkpt>
      <trkpt lat="48.63585" lon="6.29889">
        <ele>202.7</ele>
        <time>2020-06-29T10:37:04Z</time>
      </trkpt>
      <trkpt lat="48.63584" lon="6.29879">
        <ele>202.7</ele>
        <time>2020-06-29T10:37:05Z</time>
      </trkpt>
      <trkpt lat="48.63583" lon="6.29869">
        <ele>202.8</ele>
        <time>2020-06-29T10:37:06Z</time>
      </trkpt>
      <trkpt lat="48.63582" lon="6.2986">
        <ele>202.8</ele>
        <time>2020-06-29T10:37:07Z</time>
      </trkpt>
      <trkpt lat="48.63581" lon="6.29852">
        <ele>202.8</ele>
        <time>2020-06-29T10:37:08Z</time>
      </trkpt>
      <trkpt lat="48.6358" lon="6.29843">
        <ele>202.8</ele>
        <time>2020-06-29T10:37:09Z</time>
      </trkpt>
      <trkpt lat="48.63578" lon="6.29834">
        <ele>202.8</ele>
        <time>2020-06-29T10:37:10Z</time>
      </trkpt>
      <trkpt lat="48.63577" lon="6.29825">
        <ele>202.8</ele>
        <time>2020-06-29T10:37:11Z</time>
      </trkpt>
      <trkpt lat="48.63575" lon="6.29816">
        <ele>202.7</ele>
        <time>2020-06-29T10:37:12Z</time>
      </trkpt>
      <trkpt lat="48.63573" lon="6.29807">
        <ele>202.7</ele>
        <time>2020-06-29T10:37:13Z</time>
      </trkpt>
      <trkpt lat="48.63571" lon="6.29795">
        <ele>202.7</ele>
        <time>2020-06-29T10:37:14Z</time>
      </trkpt>
      <trkpt lat="48.6357" lon="6.29787">
        <ele>202.7</ele>
        <time>2020-06-29T10:37:15Z</time>
      </trkpt>
      <trkpt lat="48.63569" lon="6.29775">
        <ele>202.8</ele>
        <time>2020-06-29T10:37:16Z</time>
      </trkpt>
      <trkpt lat="48.63568" lon="6.29767">
        <ele>202.8</ele>
        <time>2020-06-29T10:37:17Z</time>
      </trkpt>
      <trkpt lat="48.63567" lon="6.29759">
        <ele>202.8</ele>
        <time>2020-06-29T10:37:18Z</time>
      </trkpt>
      <trkpt lat="48.63565" lon="6.29749">
        <ele>202.9</ele>
        <time>2020-06-29T10:37:19Z</time>
      </trkpt>
      <trkpt lat="48.63563" lon="6.2974">
        <ele>202.9</ele>
        <time>2020-06-29T10:37:20Z</time>
      </trkpt>
      <trkpt lat="48.63561" lon="6.2973">
        <ele>202.9</ele>
        <time>2020-06-29T10:37:21Z</time>
      </trkpt>
      <trkpt lat="48.6356" lon="6.2972">
        <ele>202.9</ele>
        <time>2020-06-29T10:37:22Z</time>
      </trkpt>
      <trkpt lat="48.63559" lon="6.29712">
        <ele>202.9</ele>
        <time>2020-06-29T10:37:23Z</time>
      </trkpt>
      <trkpt lat="48.63558" lon="6.29705">
        <ele>202.9</ele>
        <time>2020-06-29T10:37:24Z</time>
      </trkpt>
      <trkpt lat="48.63556" lon="6.29696">
        <ele>202.9</ele>
        <time>2020-06-29T10:37:25Z</time>
      </trkpt>
      <trkpt lat="48.63555" lon="6.29688">
        <ele>202.9</ele>
        <time>2020-06-29T10:37:26Z</time>
      </trkpt>
      <trkpt lat="48.63555" lon="6.29679">
        <ele>202.9</ele>
        <time>2020-06-29T10:37:27Z</time>
      </trkpt>
      <trkpt lat="48.63553" lon="6.29671">
        <ele>203</ele>
        <time>2020-06-29T10:37:28Z</time>
      </trkpt>
      <trkpt lat="48.63553" lon="6.29663">
        <ele>203</ele>
        <time>2020-06-29T10:37:29Z</time>
      </trkpt>
      <trkpt lat="48.63551" lon="6.29654">
        <ele>203</ele>
        <time>2020-06-29T10:37:30Z</time>
      </trkpt>
      <trkpt lat="48.63551" lon="6.29644">
        <ele>203</ele>
        <time>2020-06-29T10:37:31Z</time>
      </trkpt>
      <trkpt lat="48.63549" lon="6.29633">
        <ele>203</ele>
        <time>2020-06-29T10:37:32Z</time>
      </trkpt>
      <trkpt lat="48.63547" lon="6.29623">
        <ele>203.1</ele>
        <time>2020-06-29T10:37:33Z</time>
      </trkpt>
      <trkpt lat="48.63546" lon="6.29613">
        <ele>203.2</ele>
        <time>2020-06-29T10:37:34Z</time>
      </trkpt>
      <trkpt lat="48.63545" lon="6.29605">
        <ele>203.2</ele>
        <time>2020-06-29T10:37:35Z</time>
      </trkpt>
      <trkpt lat="48.63543" lon="6.29598">
        <ele>203.2</ele>
        <time>2020-06-29T10:37:36Z</time>
      </trkpt>
      <trkpt lat="48.63543" lon="6.29589">
        <ele>203.2</ele>
        <time>2020-06-29T10:37:37Z</time>
      </trkpt>
      <trkpt lat="48.63543" lon="6.29581">
        <ele>203.1</ele>
        <time>2020-06-29T10:37:38Z</time>
      </trkpt>
      <trkpt lat="48.63542" lon="6.29572">
        <ele>203.1</ele>
        <time>2020-06-29T10:37:39Z</time>
      </trkpt>
      <trkpt lat="48.63541" lon="6.29562">
        <ele>203.1</ele>
        <time>2020-06-29T10:37:40Z</time>
      </trkpt>
      <trkpt lat="48.6354" lon="6.29553">
        <ele>203.1</ele>
        <time>2020-06-29T10:37:41Z</time>
      </trkpt>
      <trkpt lat="48.63539" lon="6.29542">
        <ele>203.1</ele>
        <time>2020-06-29T10:37:42Z</time>
      </trkpt>
      <trkpt lat="48.63538" lon="6.29532">
        <ele>203.1</ele>
        <time>2020-06-29T10:37:43Z</time>
      </trkpt>
      <trkpt lat="48.63537" lon="6.29522">
        <ele>203</ele>
        <time>2020-06-29T10:37:44Z</time>
      </trkpt>
      <trkpt lat="48.63537" lon="6.29512">
        <ele>203</ele>
        <time>2020-06-29T10:37:45Z</time>
      </trkpt>
      <trkpt lat="48.63537" lon="6.29503">
        <ele>203</ele>
        <time>2020-06-29T10:37:46Z</time>
      </trkpt>
      <trkpt lat="48.63537" lon="6.29493">
        <ele>203</ele>
        <time>2020-06-29T10:37:47Z</time>
      </trkpt>
      <trkpt lat="48.63537" lon="6.29484">
        <ele>203</ele>
        <time>2020-06-29T10:37:48Z</time>
      </trkpt>
      <trkpt lat="48.63537" lon="6.29476">
        <ele>203</ele>
        <time>2020-06-29T10:37:49Z</time>
      </trkpt>
      <trkpt lat="48.63536" lon="6.29466">
        <ele>203</ele>
        <time>2020-06-29T10:37:50Z</time>
      </trkpt>
      <trkpt lat="48.63534" lon="6.29455">
        <ele>203.1</ele>
        <time>2020-06-29T10:37:51Z</time>
      </trkpt>
      <trkpt lat="48.63532" lon="6.29447">
        <ele>203.2</ele>
        <time>2020-06-29T10:37:52Z</time>
      </trkpt>
      <trkpt lat="48.63531" lon="6.29437">
        <ele>203.3</ele>
        <time>2020-06-29T10:37:53Z</time>
      </trkpt>
      <trkpt lat="48.63529" lon="6.29427">
        <ele>203.5</ele>
        <time>2020-06-29T10:37:54Z</time>
      </trkpt>
      <trkpt lat="48.63528" lon="6.29419">
        <ele>203.6</ele>
        <time>2020-06-29T10:37:55Z</time>
      </trkpt>
      <trkpt lat="48.63527" lon="6.2941">
        <ele>203.8</ele>
        <time>2020-06-29T10:37:56Z</time>
      </trkpt>
      <trkpt lat="48.63527" lon="6.29402">
        <ele>204</ele>
        <time>2020-06-29T10:37:57Z</time>
      </trkpt>
      <trkpt lat="48.63525" lon="6.29394">
        <ele>204.1</ele>
        <time>2020-06-29T10:37:58Z</time>
      </trkpt>
      <trkpt lat="48.63524" lon="6.29387">
        <ele>204.1</ele>
        <time>2020-06-29T10:37:59Z</time>
      </trkpt>
      <trkpt lat="48.63522" lon="6.2938">
        <ele>204.2</ele>
        <time>2020-06-29T10:38:00Z</time>
      </trkpt>
      <trkpt lat="48.6352" lon="6.29373">
        <ele>204.3</ele>
        <time>2020-06-29T10:38:01Z</time>
      </trkpt>
      <trkpt lat="48.63519" lon="6.29365">
        <ele>204.5</ele>
        <time>2020-06-29T10:38:02Z</time>
      </trkpt>
      <trkpt lat="48.63517" lon="6.29358">
        <ele>204.6</ele>
        <time>2020-06-29T10:38:03Z</time>
      </trkpt>
      <trkpt lat="48.63515" lon="6.2935">
        <ele>204.7</ele>
        <time>2020-06-29T10:38:04Z</time>
      </trkpt>
      <trkpt lat="48.63514" lon="6.29343">
        <ele>204.9</ele>
        <time>2020-06-29T10:38:05Z</time>
      </trkpt>
      <trkpt lat="48.63512" lon="6.29337">
        <ele>205</ele>
        <time>2020-06-29T10:38:06Z</time>
      </trkpt>
      <trkpt lat="48.63509" lon="6.2933">
        <ele>205.1</ele>
        <time>2020-06-29T10:38:07Z</time>
      </trkpt>
      <trkpt lat="48.63506" lon="6.29324">
        <ele>205.3</ele>
        <time>2020-06-29T10:38:08Z</time>
      </trkpt>
      <trkpt lat="48.63503" lon="6.29316">
        <ele>205.4</ele>
        <time>2020-06-29T10:38:09Z</time>
      </trkpt>
      <trkpt lat="48.63501" lon="6.2931">
        <ele>205.7</ele>
        <time>2020-06-29T10:38:10Z</time>
      </trkpt>
      <trkpt lat="48.63499" lon="6.29303">
        <ele>205.7</ele>
        <time>2020-06-29T10:38:11Z</time>
      </trkpt>
      <trkpt lat="48.63498" lon="6.29295">
        <ele>206.1</ele>
        <time>2020-06-29T10:38:12Z</time>
      </trkpt>
      <trkpt lat="48.63496" lon="6.29289">
        <ele>206.3</ele>
        <time>2020-06-29T10:38:13Z</time>
      </trkpt>
      <trkpt lat="48.63494" lon="6.29283">
        <ele>206.4</ele>
        <time>2020-06-29T10:38:14Z</time>
      </trkpt>
      <trkpt lat="48.63492" lon="6.29276">
        <ele>206.6</ele>
        <time>2020-06-29T10:38:15Z</time>
      </trkpt>
      <trkpt lat="48.6349" lon="6.29271">
        <ele>206.8</ele>
        <time>2020-06-29T10:38:16Z</time>
      </trkpt>
      <trkpt lat="48.63487" lon="6.29264">
        <ele>207</ele>
        <time>2020-06-29T10:38:17Z</time>
      </trkpt>
      <trkpt lat="48.63486" lon="6.29259">
        <ele>207.2</ele>
        <time>2020-06-29T10:38:18Z</time>
      </trkpt>
      <trkpt lat="48.63483" lon="6.29252">
        <ele>207.5</ele>
        <time>2020-06-29T10:38:19Z</time>
      </trkpt>
      <trkpt lat="48.63481" lon="6.29247">
        <ele>207.7</ele>
        <time>2020-06-29T10:38:20Z</time>
      </trkpt>
      <trkpt lat="48.63478" lon="6.29241">
        <ele>207.9</ele>
        <time>2020-06-29T10:38:21Z</time>
      </trkpt>
      <trkpt lat="48.63476" lon="6.29234">
        <ele>208.1</ele>
        <time>2020-06-29T10:38:22Z</time>
      </trkpt>
      <trkpt lat="48.63474" lon="6.29228">
        <ele>208.3</ele>
        <time>2020-06-29T10:38:23Z</time>
      </trkpt>
      <trkpt lat="48.63471" lon="6.29222">
        <ele>208.6</ele>
        <time>2020-06-29T10:38:24Z</time>
      </trkpt>
      <trkpt lat="48.63468" lon="6.29215">
        <ele>208.8</ele>
        <time>2020-06-29T10:38:25Z</time>
      </trkpt>
      <trkpt lat="48.63466" lon="6.29208">
        <ele>209</ele>
        <time>2020-06-29T10:38:26Z</time>
      </trkpt>
      <trkpt lat="48.63464" lon="6.29202">
        <ele>209.2</ele>
        <time>2020-06-29T10:38:27Z</time>
      </trkpt>
      <trkpt lat="48.63461" lon="6.29196">
        <ele>209.7</ele>
        <time>2020-06-29T10:38:28Z</time>
      </trkpt>
      <trkpt lat="48.63459" lon="6.29189">
        <ele>209.8</ele>
        <time>2020-06-29T10:38:29Z</time>
      </trkpt>
      <trkpt lat="48.63457" lon="6.29182">
        <ele>209.9</ele>
        <time>2020-06-29T10:38:30Z</time>
      </trkpt>
      <trkpt lat="48.63455" lon="6.29175">
        <ele>210.1</ele>
        <time>2020-06-29T10:38:31Z</time>
      </trkpt>
      <trkpt lat="48.63454" lon="6.29171">
        <ele>210.4</ele>
        <time>2020-06-29T10:38:32Z</time>
      </trkpt>
      <trkpt lat="48.63454" lon="6.29165">
        <ele>210.6</ele>
        <time>2020-06-29T10:38:33Z</time>
      </trkpt>
      <trkpt lat="48.63451" lon="6.29158">
        <ele>210.8</ele>
        <time>2020-06-29T10:38:34Z</time>
      </trkpt>
      <trkpt lat="48.63451" lon="6.29151">
        <ele>211</ele>
        <time>2020-06-29T10:38:35Z</time>
      </trkpt>
      <trkpt lat="48.6345" lon="6.29145">
        <ele>211.2</ele>
        <time>2020-06-29T10:38:36Z</time>
      </trkpt>
      <trkpt lat="48.6345" lon="6.29139">
        <ele>211.3</ele>
        <time>2020-06-29T10:38:37Z</time>
      </trkpt>
      <trkpt lat="48.63449" lon="6.29133">
        <ele>211.5</ele>
        <time>2020-06-29T10:38:38Z</time>
      </trkpt>
      <trkpt lat="48.63449" lon="6.29127">
        <ele>211.7</ele>
        <time>2020-06-29T10:38:39Z</time>
      </trkpt>
      <trkpt lat="48.63449" lon="6.29121">
        <ele>211.9</ele>
        <time>2020-06-29T10:38:40Z</time>
      </trkpt>
      <trkpt lat="48.63449" lon="6.29116">
        <ele>212</ele>
        <time>2020-06-29T10:38:41Z</time>
      </trkpt>
      <trkpt lat="48.6345" lon="6.2911">
        <ele>212.2</ele>
        <time>2020-06-29T10:38:42Z</time>
      </trkpt>
      <trkpt lat="48.63451" lon="6.29105">
        <ele>212.3</ele>
        <time>2020-06-29T10:38:43Z</time>
      </trkpt>
      <trkpt lat="48.63451" lon="6.29099">
        <ele>212.5</ele>
        <time>2020-06-29T10:38:44Z</time>
      </trkpt>
      <trkpt lat="48.63452" lon="6.29093">
        <ele>212.6</ele>
        <time>2020-06-29T10:38:45Z</time>
      </trkpt>
      <trkpt lat="48.63452" lon="6.29089">
        <ele>212.7</ele>
        <time>2020-06-29T10:38:46Z</time>
      </trkpt>
      <trkpt lat="48.63453" lon="6.29082">
        <ele>212.9</ele>
        <time>2020-06-29T10:38:47Z</time>
      </trkpt>
      <trkpt lat="48.63453" lon="6.29076">
        <ele>213</ele>
        <time>2020-06-29T10:38:48Z</time>
      </trkpt>
      <trkpt lat="48.63455" lon="6.29071">
        <ele>213.1</ele>
        <time>2020-06-29T10:38:49Z</time>
      </trkpt>
      <trkpt lat="48.63455" lon="6.29065">
        <ele>213.2</ele>
        <time>2020-06-29T10:38:50Z</time>
      </trkpt>
      <trkpt lat="48.63457" lon="6.29059">
        <ele>213.3</ele>
        <time>2020-06-29T10:38:51Z</time>
      </trkpt>
      <trkpt lat="48.63458" lon="6.29053">
        <ele>213.4</ele>
        <time>2020-06-29T10:38:52Z</time>
      </trkpt>
      <trkpt lat="48.63459" lon="6.29048">
        <ele>213.4</ele>
        <time>2020-06-29T10:38:53Z</time>
      </trkpt>
      <trkpt lat="48.63461" lon="6.29042">
        <ele>213.5</ele>
        <time>2020-06-29T10:38:54Z</time>
      </trkpt>
      <trkpt lat="48.63462" lon="6.29037">
        <ele>213.5</ele>
        <time>2020-06-29T10:38:55Z</time>
      </trkpt>
      <trkpt lat="48.63463" lon="6.29031">
        <ele>213.5</ele>
        <time>2020-06-29T10:38:56Z</time>
      </trkpt>
      <trkpt lat="48.63464" lon="6.29025">
        <ele>213.5</ele>
        <time>2020-06-29T10:38:57Z</time>
      </trkpt>
      <trkpt lat="48.63465" lon="6.29017">
        <ele>213.5</ele>
        <time>2020-06-29T10:38:58Z</time>
      </trkpt>
      <trkpt lat="48.63466" lon="6.29009">
        <ele>213.4</ele>
        <time>2020-06-29T10:38:59Z</time>
      </trkpt>
      <trkpt lat="48.63467" lon="6.29003">
        <ele>213.4</ele>
        <time>2020-06-29T10:39:00Z</time>
      </trkpt>
      <trkpt lat="48.63469" lon="6.28997">
        <ele>213.4</ele>
        <time>2020-06-29T10:39:01Z</time>
      </trkpt>
      <trkpt lat="48.63471" lon="6.28991">
        <ele>213.3</ele>
        <time>2020-06-29T10:39:02Z</time>
      </trkpt>
      <trkpt lat="48.63473" lon="6.28982">
        <ele>213.3</ele>
        <time>2020-06-29T10:39:03Z</time>
      </trkpt>
      <trkpt lat="48.63474" lon="6.28975">
        <ele>213.3</ele>
        <time>2020-06-29T10:39:04Z</time>
      </trkpt>
      <trkpt lat="48.63476" lon="6.28968">
        <ele>213.3</ele>
        <time>2020-06-29T10:39:05Z</time>
      </trkpt>
      <trkpt lat="48.63477" lon="6.2896">
        <ele>213.2</ele>
        <time>2020-06-29T10:39:06Z</time>
      </trkpt>
      <trkpt lat="48.63479" lon="6.28954">
        <ele>213.2</ele>
        <time>2020-06-29T10:39:07Z</time>
      </trkpt>
      <trkpt lat="48.63481" lon="6.28947">
        <ele>213.1</ele>
        <time>2020-06-29T10:39:08Z</time>
      </trkpt>
      <trkpt lat="48.63484" lon="6.2894">
        <ele>213.1</ele>
        <time>2020-06-29T10:39:09Z</time>
      </trkpt>
      <trkpt lat="48.63485" lon="6.28932">
        <ele>213</ele>
        <time>2020-06-29T10:39:10Z</time>
      </trkpt>
      <trkpt lat="48.63488" lon="6.28923">
        <ele>212.8</ele>
        <time>2020-06-29T10:39:11Z</time>
      </trkpt>
      <trkpt lat="48.63492" lon="6.28915">
        <ele>212.7</ele>
        <time>2020-06-29T10:39:12Z</time>
      </trkpt>
      <trkpt lat="48.63495" lon="6.28908">
        <ele>212.6</ele>
        <time>2020-06-29T10:39:13Z</time>
      </trkpt>
      <trkpt lat="48.63497" lon="6.28903">
        <ele>212.5</ele>
        <time>2020-06-29T10:39:14Z</time>
      </trkpt>
      <trkpt lat="48.63501" lon="6.28896">
        <ele>212.4</ele>
        <time>2020-06-29T10:39:15Z</time>
      </trkpt>
      <trkpt lat="48.63503" lon="6.28889">
        <ele>212.2</ele>
        <time>2020-06-29T10:39:16Z</time>
      </trkpt>
      <trkpt lat="48.63506" lon="6.28882">
        <ele>212.1</ele>
        <time>2020-06-29T10:39:17Z</time>
      </trkpt>
      <trkpt lat="48.63509" lon="6.28875">
        <ele>211.9</ele>
        <time>2020-06-29T10:39:18Z</time>
      </trkpt>
      <trkpt lat="48.63512" lon="6.28868">
        <ele>211.8</ele>
        <time>2020-06-29T10:39:19Z</time>
      </trkpt>
      <trkpt lat="48.63515" lon="6.28862">
        <ele>211.7</ele>
        <time>2020-06-29T10:39:20Z</time>
      </trkpt>
      <trkpt lat="48.63518" lon="6.28857">
        <ele>211.6</ele>
        <time>2020-06-29T10:39:21Z</time>
      </trkpt>
      <trkpt lat="48.6352" lon="6.28848">
        <ele>211.5</ele>
        <time>2020-06-29T10:39:22Z</time>
      </trkpt>
      <trkpt lat="48.63525" lon="6.28841">
        <ele>211.3</ele>
        <time>2020-06-29T10:39:23Z</time>
      </trkpt>
      <trkpt lat="48.63528" lon="6.28835">
        <ele>211.1</ele>
        <time>2020-06-29T10:39:24Z</time>
      </trkpt>
      <trkpt lat="48.63532" lon="6.28826">
        <ele>210.9</ele>
        <time>2020-06-29T10:39:25Z</time>
      </trkpt>
      <trkpt lat="48.63535" lon="6.28818">
        <ele>210.8</ele>
        <time>2020-06-29T10:39:26Z</time>
      </trkpt>
      <trkpt lat="48.63538" lon="6.28811">
        <ele>210.6</ele>
        <time>2020-06-29T10:39:27Z</time>
      </trkpt>
      <trkpt lat="48.63543" lon="6.28804">
        <ele>210.4</ele>
        <time>2020-06-29T10:39:28Z</time>
      </trkpt>
      <trkpt lat="48.63546" lon="6.28796">
        <ele>210.2</ele>
        <time>2020-06-29T10:39:29Z</time>
      </trkpt>
      <trkpt lat="48.63549" lon="6.2879">
        <ele>210.1</ele>
        <time>2020-06-29T10:39:30Z</time>
      </trkpt>
      <trkpt lat="48.63552" lon="6.28782">
        <ele>209.9</ele>
        <time>2020-06-29T10:39:31Z</time>
      </trkpt>
      <trkpt lat="48.63554" lon="6.28774">
        <ele>209.7</ele>
        <time>2020-06-29T10:39:32Z</time>
      </trkpt>
      <trkpt lat="48.63557" lon="6.28766">
        <ele>209.6</ele>
        <time>2020-06-29T10:39:33Z</time>
      </trkpt>
      <trkpt lat="48.6356" lon="6.28759">
        <ele>209.6</ele>
        <time>2020-06-29T10:39:34Z</time>
      </trkpt>
      <trkpt lat="48.63562" lon="6.28751">
        <ele>209.5</ele>
        <time>2020-06-29T10:39:35Z</time>
      </trkpt>
      <trkpt lat="48.63565" lon="6.28741">
        <ele>209.4</ele>
        <time>2020-06-29T10:39:36Z</time>
      </trkpt>
      <trkpt lat="48.63567" lon="6.28731">
        <ele>209.3</ele>
        <time>2020-06-29T10:39:37Z</time>
      </trkpt>
      <trkpt lat="48.63568" lon="6.28724">
        <ele>209.2</ele>
        <time>2020-06-29T10:39:38Z</time>
      </trkpt>
      <trkpt lat="48.63571" lon="6.28712">
        <ele>208.7</ele>
        <time>2020-06-29T10:39:39Z</time>
      </trkpt>
      <trkpt lat="48.63571" lon="6.28701">
        <ele>208.3</ele>
        <time>2020-06-29T10:39:40Z</time>
      </trkpt>
      <trkpt lat="48.63573" lon="6.28691">
        <ele>207.9</ele>
        <time>2020-06-29T10:39:41Z</time>
      </trkpt>
      <trkpt lat="48.63575" lon="6.28681">
        <ele>207.5</ele>
        <time>2020-06-29T10:39:42Z</time>
      </trkpt>
      <trkpt lat="48.63575" lon="6.2867">
        <ele>207.2</ele>
        <time>2020-06-29T10:39:43Z</time>
      </trkpt>
      <trkpt lat="48.63576" lon="6.28658">
        <ele>207</ele>
        <time>2020-06-29T10:39:44Z</time>
      </trkpt>
      <trkpt lat="48.63576" lon="6.28646">
        <ele>206.8</ele>
        <time>2020-06-29T10:39:45Z</time>
      </trkpt>
      <trkpt lat="48.63576" lon="6.28634">
        <ele>206.6</ele>
        <time>2020-06-29T10:39:46Z</time>
      </trkpt>
      <trkpt lat="48.63577" lon="6.28622">
        <ele>206.3</ele>
        <time>2020-06-29T10:39:47Z</time>
      </trkpt>
      <trkpt lat="48.63578" lon="6.28611">
        <ele>206.1</ele>
        <time>2020-06-29T10:39:48Z</time>
      </trkpt>
      <trkpt lat="48.63579" lon="6.28599">
        <ele>205.9</ele>
        <time>2020-06-29T10:39:49Z</time>
      </trkpt>
      <trkpt lat="48.63579" lon="6.28587">
        <ele>205.7</ele>
        <time>2020-06-29T10:39:50Z</time>
      </trkpt>
      <trkpt lat="48.63579" lon="6.28574">
        <ele>205.9</ele>
        <time>2020-06-29T10:39:51Z</time>
      </trkpt>
      <trkpt lat="48.6358" lon="6.28562">
        <ele>205.8</ele>
        <time>2020-06-29T10:39:52Z</time>
      </trkpt>
      <trkpt lat="48.6358" lon="6.2855">
        <ele>205.6</ele>
        <time>2020-06-29T10:39:53Z</time>
      </trkpt>
      <trkpt lat="48.6358" lon="6.28539">
        <ele>205.4</ele>
        <time>2020-06-29T10:39:54Z</time>
      </trkpt>
      <trkpt lat="48.63581" lon="6.28528">
        <ele>205.3</ele>
        <time>2020-06-29T10:39:55Z</time>
      </trkpt>
      <trkpt lat="48.63581" lon="6.28517">
        <ele>205.2</ele>
        <time>2020-06-29T10:39:56Z</time>
      </trkpt>
      <trkpt lat="48.63582" lon="6.28506">
        <ele>205.2</ele>
        <time>2020-06-29T10:39:57Z</time>
      </trkpt>
      <trkpt lat="48.63582" lon="6.28495">
        <ele>205.1</ele>
        <time>2020-06-29T10:39:58Z</time>
      </trkpt>
      <trkpt lat="48.63583" lon="6.28486">
        <ele>205.1</ele>
        <time>2020-06-29T10:39:59Z</time>
      </trkpt>
      <trkpt lat="48.63584" lon="6.28476">
        <ele>205.2</ele>
        <time>2020-06-29T10:40:00Z</time>
      </trkpt>
      <trkpt lat="48.63585" lon="6.28467">
        <ele>205.2</ele>
        <time>2020-06-29T10:40:01Z</time>
      </trkpt>
      <trkpt lat="48.63586" lon="6.28458">
        <ele>205.3</ele>
        <time>2020-06-29T10:40:02Z</time>
      </trkpt>
      <trkpt lat="48.63587" lon="6.2845">
        <ele>205.4</ele>
        <time>2020-06-29T10:40:03Z</time>
      </trkpt>
      <trkpt lat="48.63589" lon="6.28441">
        <ele>205.5</ele>
        <time>2020-06-29T10:40:04Z</time>
      </trkpt>
      <trkpt lat="48.63589" lon="6.28433">
        <ele>205.7</ele>
        <time>2020-06-29T10:40:05Z</time>
      </trkpt>
      <trkpt lat="48.63591" lon="6.28425">
        <ele>205.8</ele>
        <time>2020-06-29T10:40:06Z</time>
      </trkpt>
      <trkpt lat="48.63593" lon="6.28417">
        <ele>206.1</ele>
        <time>2020-06-29T10:40:07Z</time>
      </trkpt>
      <trkpt lat="48.63595" lon="6.2841">
        <ele>206.3</ele>
        <time>2020-06-29T10:40:08Z</time>
      </trkpt>
      <trkpt lat="48.63597" lon="6.28403">
        <ele>206.5</ele>
        <time>2020-06-29T10:40:09Z</time>
      </trkpt>
      <trkpt lat="48.63599" lon="6.28395">
        <ele>206.7</ele>
        <time>2020-06-29T10:40:10Z</time>
      </trkpt>
      <trkpt lat="48.63601" lon="6.28388">
        <ele>206.9</ele>
        <time>2020-06-29T10:40:11Z</time>
      </trkpt>
      <trkpt lat="48.63604" lon="6.2838">
        <ele>207.1</ele>
        <time>2020-06-29T10:40:12Z</time>
      </trkpt>
      <trkpt lat="48.63606" lon="6.28373">
        <ele>207.3</ele>
        <time>2020-06-29T10:40:13Z</time>
      </trkpt>
      <trkpt lat="48.63608" lon="6.28366">
        <ele>207.5</ele>
        <time>2020-06-29T10:40:14Z</time>
      </trkpt>
      <trkpt lat="48.6361" lon="6.28358">
        <ele>207.7</ele>
        <time>2020-06-29T10:40:15Z</time>
      </trkpt>
      <trkpt lat="48.63612" lon="6.28352">
        <ele>207.9</ele>
        <time>2020-06-29T10:40:16Z</time>
      </trkpt>
      <trkpt lat="48.63613" lon="6.28344">
        <ele>208.2</ele>
        <time>2020-06-29T10:40:17Z</time>
      </trkpt>
      <trkpt lat="48.63615" lon="6.28337">
        <ele>208.4</ele>
        <time>2020-06-29T10:40:18Z</time>
      </trkpt>
      <trkpt lat="48.63616" lon="6.28329">
        <ele>208.7</ele>
        <time>2020-06-29T10:40:19Z</time>
      </trkpt>
      <trkpt lat="48.63618" lon="6.28322">
        <ele>208.9</ele>
        <time>2020-06-29T10:40:20Z</time>
      </trkpt>
      <trkpt lat="48.63619" lon="6.28314">
        <ele>209.2</ele>
        <time>2020-06-29T10:40:21Z</time>
      </trkpt>
      <trkpt lat="48.63621" lon="6.28306">
        <ele>209.4</ele>
        <time>2020-06-29T10:40:22Z</time>
      </trkpt>
      <trkpt lat="48.63623" lon="6.28298">
        <ele>209.6</ele>
        <time>2020-06-29T10:40:23Z</time>
      </trkpt>
      <trkpt lat="48.63625" lon="6.28291">
        <ele>209.9</ele>
        <time>2020-06-29T10:40:24Z</time>
      </trkpt>
      <trkpt lat="48.63627" lon="6.28283">
        <ele>210.1</ele>
        <time>2020-06-29T10:40:25Z</time>
      </trkpt>
      <trkpt lat="48.63629" lon="6.28275">
        <ele>210.3</ele>
        <time>2020-06-29T10:40:26Z</time>
      </trkpt>
      <trkpt lat="48.63631" lon="6.28268">
        <ele>210.6</ele>
        <time>2020-06-29T10:40:27Z</time>
      </trkpt>
      <trkpt lat="48.63633" lon="6.28261">
        <ele>210.8</ele>
        <time>2020-06-29T10:40:28Z</time>
      </trkpt>
      <trkpt lat="48.63635" lon="6.28254">
        <ele>211</ele>
        <time>2020-06-29T10:40:29Z</time>
      </trkpt>
      <trkpt lat="48.63638" lon="6.28247">
        <ele>211.3</ele>
        <time>2020-06-29T10:40:30Z</time>
      </trkpt>
      <trkpt lat="48.6364" lon="6.28239">
        <ele>211.6</ele>
        <time>2020-06-29T10:40:31Z</time>
      </trkpt>
      <trkpt lat="48.63642" lon="6.28231">
        <ele>211.8</ele>
        <time>2020-06-29T10:40:32Z</time>
      </trkpt>
      <trkpt lat="48.63644" lon="6.28224">
        <ele>212</ele>
        <time>2020-06-29T10:40:33Z</time>
      </trkpt>
      <trkpt lat="48.63646" lon="6.28216">
        <ele>212.3</ele>
        <time>2020-06-29T10:40:34Z</time>
      </trkpt>
      <trkpt lat="48.63648" lon="6.28209">
        <ele>212.5</ele>
        <time>2020-06-29T10:40:35Z</time>
      </trkpt>
      <trkpt lat="48.63649" lon="6.282">
        <ele>212.8</ele>
        <time>2020-06-29T10:40:36Z</time>
      </trkpt>
      <trkpt lat="48.6365" lon="6.28192">
        <ele>213</ele>
        <time>2020-06-29T10:40:37Z</time>
      </trkpt>
      <trkpt lat="48.63651" lon="6.28185">
        <ele>213.3</ele>
        <time>2020-06-29T10:40:38Z</time>
      </trkpt>
      <trkpt lat="48.63653" lon="6.28176">
        <ele>213.5</ele>
        <time>2020-06-29T10:40:39Z</time>
      </trkpt>
      <trkpt lat="48.63654" lon="6.28169">
        <ele>213.8</ele>
        <time>2020-06-29T10:40:40Z</time>
      </trkpt>
      <trkpt lat="48.63656" lon="6.28164">
        <ele>213.9</ele>
        <time>2020-06-29T10:40:41Z</time>
      </trkpt>
      <trkpt lat="48.63658" lon="6.28158">
        <ele>214.1</ele>
        <time>2020-06-29T10:40:42Z</time>
      </trkpt>
      <trkpt lat="48.63659" lon="6.28151">
        <ele>214.3</ele>
        <time>2020-06-29T10:40:43Z</time>
      </trkpt>
      <trkpt lat="48.63661" lon="6.28145">
        <ele>214.6</ele>
        <time>2020-06-29T10:40:44Z</time>
      </trkpt>
      <trkpt lat="48.63662" lon="6.28137">
        <ele>214.8</ele>
        <time>2020-06-29T10:40:45Z</time>
      </trkpt>
      <trkpt lat="48.63664" lon="6.28131">
        <ele>215</ele>
        <time>2020-06-29T10:40:46Z</time>
      </trkpt>
      <trkpt lat="48.63666" lon="6.28124">
        <ele>215.2</ele>
        <time>2020-06-29T10:40:47Z</time>
      </trkpt>
      <trkpt lat="48.63668" lon="6.28118">
        <ele>215.4</ele>
        <time>2020-06-29T10:40:48Z</time>
      </trkpt>
      <trkpt lat="48.63669" lon="6.28113">
        <ele>215.6</ele>
        <time>2020-06-29T10:40:49Z</time>
      </trkpt>
      <trkpt lat="48.63671" lon="6.28106">
        <ele>215.8</ele>
        <time>2020-06-29T10:40:50Z</time>
      </trkpt>
      <trkpt lat="48.63673" lon="6.281">
        <ele>216</ele>
        <time>2020-06-29T10:40:51Z</time>
      </trkpt>
      <trkpt lat="48.63674" lon="6.28094">
        <ele>216.4</ele>
        <time>2020-06-29T10:40:52Z</time>
      </trkpt>
      <trkpt lat="48.63676" lon="6.28087">
        <ele>216.7</ele>
        <time>2020-06-29T10:40:53Z</time>
      </trkpt>
      <trkpt lat="48.63678" lon="6.2808">
        <ele>217</ele>
        <time>2020-06-29T10:40:54Z</time>
      </trkpt>
      <trkpt lat="48.6368" lon="6.28072">
        <ele>217.3</ele>
        <time>2020-06-29T10:40:55Z</time>
      </trkpt>
      <trkpt lat="48.63682" lon="6.28067">
        <ele>217.4</ele>
        <time>2020-06-29T10:40:56Z</time>
      </trkpt>
      <trkpt lat="48.63684" lon="6.28063">
        <ele>217.6</ele>
        <time>2020-06-29T10:40:57Z</time>
      </trkpt>
      <trkpt lat="48.63686" lon="6.28056">
        <ele>217.8</ele>
        <time>2020-06-29T10:40:58Z</time>
      </trkpt>
      <trkpt lat="48.63687" lon="6.2805">
        <ele>218</ele>
        <time>2020-06-29T10:40:59Z</time>
      </trkpt>
      <trkpt lat="48.63689" lon="6.28043">
        <ele>218.2</ele>
        <time>2020-06-29T10:41:00Z</time>
      </trkpt>
      <trkpt lat="48.63691" lon="6.28036">
        <ele>218.4</ele>
        <time>2020-06-29T10:41:01Z</time>
      </trkpt>
      <trkpt lat="48.63693" lon="6.28029">
        <ele>218.6</ele>
        <time>2020-06-29T10:41:02Z</time>
      </trkpt>
      <trkpt lat="48.63694" lon="6.28024">
        <ele>218.8</ele>
        <time>2020-06-29T10:41:03Z</time>
      </trkpt>
      <trkpt lat="48.63695" lon="6.28017">
        <ele>219</ele>
        <time>2020-06-29T10:41:04Z</time>
      </trkpt>
      <trkpt lat="48.63696" lon="6.28011">
        <ele>219.1</ele>
        <time>2020-06-29T10:41:05Z</time>
      </trkpt>
      <trkpt lat="48.63698" lon="6.28006">
        <ele>219.3</ele>
        <time>2020-06-29T10:41:06Z</time>
      </trkpt>
      <trkpt lat="48.637" lon="6.27999">
        <ele>219.4</ele>
        <time>2020-06-29T10:41:07Z</time>
      </trkpt>
      <trkpt lat="48.63702" lon="6.27993">
        <ele>219.5</ele>
        <time>2020-06-29T10:41:08Z</time>
      </trkpt>
      <trkpt lat="48.63704" lon="6.27987">
        <ele>219.7</ele>
        <time>2020-06-29T10:41:09Z</time>
      </trkpt>
      <trkpt lat="48.63707" lon="6.27981">
        <ele>219.8</ele>
        <time>2020-06-29T10:41:10Z</time>
      </trkpt>
      <trkpt lat="48.63709" lon="6.27975">
        <ele>219.9</ele>
        <time>2020-06-29T10:41:11Z</time>
      </trkpt>
      <trkpt lat="48.6371" lon="6.27968">
        <ele>220</ele>
        <time>2020-06-29T10:41:12Z</time>
      </trkpt>
      <trkpt lat="48.6371" lon="6.27962">
        <ele>220.1</ele>
        <time>2020-06-29T10:41:13Z</time>
      </trkpt>
      <trkpt lat="48.63712" lon="6.27955">
        <ele>220.2</ele>
        <time>2020-06-29T10:41:14Z</time>
      </trkpt>
      <trkpt lat="48.63713" lon="6.27949">
        <ele>220.3</ele>
        <time>2020-06-29T10:41:15Z</time>
      </trkpt>
      <trkpt lat="48.63715" lon="6.27942">
        <ele>220.4</ele>
        <time>2020-06-29T10:41:16Z</time>
      </trkpt>
      <trkpt lat="48.63716" lon="6.27935">
        <ele>220.5</ele>
        <time>2020-06-29T10:41:17Z</time>
      </trkpt>
      <trkpt lat="48.63718" lon="6.27929">
        <ele>220.5</ele>
        <time>2020-06-29T10:41:18Z</time>
      </trkpt>
      <trkpt lat="48.6372" lon="6.27923">
        <ele>220.6</ele>
        <time>2020-06-29T10:41:19Z</time>
      </trkpt>
      <trkpt lat="48.63721" lon="6.27913">
        <ele>220.7</ele>
        <time>2020-06-29T10:41:20Z</time>
      </trkpt>
      <trkpt lat="48.63723" lon="6.27908">
        <ele>220.7</ele>
        <time>2020-06-29T10:41:21Z</time>
      </trkpt>
      <trkpt lat="48.63725" lon="6.279">
        <ele>220.8</ele>
        <time>2020-06-29T10:41:22Z</time>
      </trkpt>
      <trkpt lat="48.63727" lon="6.27894">
        <ele>220.8</ele>
        <time>2020-06-29T10:41:23Z</time>
      </trkpt>
      <trkpt lat="48.63729" lon="6.27887">
        <ele>220.8</ele>
        <time>2020-06-29T10:41:24Z</time>
      </trkpt>
      <trkpt lat="48.63731" lon="6.27881">
        <ele>220.9</ele>
        <time>2020-06-29T10:41:25Z</time>
      </trkpt>
      <trkpt lat="48.63733" lon="6.27875">
        <ele>220.9</ele>
        <time>2020-06-29T10:41:26Z</time>
      </trkpt>
      <trkpt lat="48.63735" lon="6.27871">
        <ele>220.9</ele>
        <time>2020-06-29T10:41:27Z</time>
      </trkpt>
      <trkpt lat="48.63737" lon="6.27863">
        <ele>220.9</ele>
        <time>2020-06-29T10:41:28Z</time>
      </trkpt>
      <trkpt lat="48.63739" lon="6.27857">
        <ele>220.9</ele>
        <time>2020-06-29T10:41:29Z</time>
      </trkpt>
      <trkpt lat="48.63741" lon="6.27851">
        <ele>220.8</ele>
        <time>2020-06-29T10:41:30Z</time>
      </trkpt>
      <trkpt lat="48.63744" lon="6.27843">
        <ele>220.7</ele>
        <time>2020-06-29T10:41:31Z</time>
      </trkpt>
      <trkpt lat="48.63746" lon="6.27836">
        <ele>220.6</ele>
        <time>2020-06-29T10:41:32Z</time>
      </trkpt>
      <trkpt lat="48.63748" lon="6.2783">
        <ele>220.5</ele>
        <time>2020-06-29T10:41:33Z</time>
      </trkpt>
      <trkpt lat="48.63751" lon="6.27823">
        <ele>220.4</ele>
        <time>2020-06-29T10:41:34Z</time>
      </trkpt>
      <trkpt lat="48.63754" lon="6.27817">
        <ele>220.2</ele>
        <time>2020-06-29T10:41:35Z</time>
      </trkpt>
      <trkpt lat="48.63757" lon="6.27809">
        <ele>220.1</ele>
        <time>2020-06-29T10:41:36Z</time>
      </trkpt>
      <trkpt lat="48.63761" lon="6.27803">
        <ele>219.9</ele>
        <time>2020-06-29T10:41:37Z</time>
      </trkpt>
      <trkpt lat="48.63764" lon="6.27797">
        <ele>219.8</ele>
        <time>2020-06-29T10:41:38Z</time>
      </trkpt>
      <trkpt lat="48.63766" lon="6.27788">
        <ele>219.6</ele>
        <time>2020-06-29T10:41:39Z</time>
      </trkpt>
      <trkpt lat="48.6377" lon="6.27782">
        <ele>219.5</ele>
        <time>2020-06-29T10:41:40Z</time>
      </trkpt>
      <trkpt lat="48.63773" lon="6.27775">
        <ele>219.3</ele>
        <time>2020-06-29T10:41:41Z</time>
      </trkpt>
      <trkpt lat="48.63775" lon="6.27766">
        <ele>219.2</ele>
        <time>2020-06-29T10:41:42Z</time>
      </trkpt>
      <trkpt lat="48.63779" lon="6.2776">
        <ele>219.1</ele>
        <time>2020-06-29T10:41:43Z</time>
      </trkpt>
      <trkpt lat="48.63782" lon="6.27753">
        <ele>219</ele>
        <time>2020-06-29T10:41:44Z</time>
      </trkpt>
      <trkpt lat="48.63785" lon="6.27744">
        <ele>218.9</ele>
        <time>2020-06-29T10:41:45Z</time>
      </trkpt>
      <trkpt lat="48.63788" lon="6.27737">
        <ele>218.8</ele>
        <time>2020-06-29T10:41:46Z</time>
      </trkpt>
      <trkpt lat="48.63791" lon="6.27729">
        <ele>218.7</ele>
        <time>2020-06-29T10:41:47Z</time>
      </trkpt>
      <trkpt lat="48.63794" lon="6.2772">
        <ele>218.5</ele>
        <time>2020-06-29T10:41:48Z</time>
      </trkpt>
      <trkpt lat="48.63797" lon="6.27712">
        <ele>218.3</ele>
        <time>2020-06-29T10:41:49Z</time>
      </trkpt>
      <trkpt lat="48.638" lon="6.27704">
        <ele>218.2</ele>
        <time>2020-06-29T10:41:50Z</time>
      </trkpt>
      <trkpt lat="48.63804" lon="6.27697">
        <ele>218</ele>
        <time>2020-06-29T10:41:51Z</time>
      </trkpt>
      <trkpt lat="48.63807" lon="6.27689">
        <ele>217.9</ele>
        <time>2020-06-29T10:41:52Z</time>
      </trkpt>
      <trkpt lat="48.63809" lon="6.27685">
        <ele>217.8</ele>
        <time>2020-06-29T10:41:53Z</time>
      </trkpt>
      <trkpt lat="48.63812" lon="6.27674">
        <ele>217.7</ele>
        <time>2020-06-29T10:41:54Z</time>
      </trkpt>
      <trkpt lat="48.63816" lon="6.27665">
        <ele>217.6</ele>
        <time>2020-06-29T10:41:55Z</time>
      </trkpt>
      <trkpt lat="48.6382" lon="6.27655">
        <ele>217.5</ele>
        <time>2020-06-29T10:41:56Z</time>
      </trkpt>
      <trkpt lat="48.63823" lon="6.27647">
        <ele>217.4</ele>
        <time>2020-06-29T10:41:57Z</time>
      </trkpt>
      <trkpt lat="48.63827" lon="6.27639">
        <ele>217.2</ele>
        <time>2020-06-29T10:41:58Z</time>
      </trkpt>
      <trkpt lat="48.6383" lon="6.27631">
        <ele>217.1</ele>
        <time>2020-06-29T10:41:59Z</time>
      </trkpt>
      <trkpt lat="48.63833" lon="6.27623">
        <ele>217</ele>
        <time>2020-06-29T10:42:00Z</time>
      </trkpt>
      <trkpt lat="48.63835" lon="6.27619">
        <ele>216.9</ele>
        <time>2020-06-29T10:42:01Z</time>
      </trkpt>
      <trkpt lat="48.63838" lon="6.27613">
        <ele>216.9</ele>
        <time>2020-06-29T10:42:02Z</time>
      </trkpt>
      <trkpt lat="48.63842" lon="6.27603">
        <ele>216.7</ele>
        <time>2020-06-29T10:42:03Z</time>
      </trkpt>
      <trkpt lat="48.63845" lon="6.27596">
        <ele>216.7</ele>
        <time>2020-06-29T10:42:04Z</time>
      </trkpt>
      <trkpt lat="48.63848" lon="6.27589">
        <ele>216.6</ele>
        <time>2020-06-29T10:42:05Z</time>
      </trkpt>
      <trkpt lat="48.63852" lon="6.27581">
        <ele>216.5</ele>
        <time>2020-06-29T10:42:06Z</time>
      </trkpt>
      <trkpt lat="48.63856" lon="6.27573">
        <ele>216.4</ele>
        <time>2020-06-29T10:42:07Z</time>
      </trkpt>
      <trkpt lat="48.63859" lon="6.27565">
        <ele>216.3</ele>
        <time>2020-06-29T10:42:08Z</time>
      </trkpt>
      <trkpt lat="48.63863" lon="6.27556">
        <ele>216.1</ele>
        <time>2020-06-29T10:42:09Z</time>
      </trkpt>
      <trkpt lat="48.63866" lon="6.2755">
        <ele>216.1</ele>
        <time>2020-06-29T10:42:10Z</time>
      </trkpt>
      <trkpt lat="48.63869" lon="6.27544">
        <ele>216</ele>
        <time>2020-06-29T10:42:11Z</time>
      </trkpt>
      <trkpt lat="48.63872" lon="6.27536">
        <ele>215.9</ele>
        <time>2020-06-29T10:42:12Z</time>
      </trkpt>
      <trkpt lat="48.63875" lon="6.27528">
        <ele>215.8</ele>
        <time>2020-06-29T10:42:13Z</time>
      </trkpt>
      <trkpt lat="48.63879" lon="6.27521">
        <ele>215.7</ele>
        <time>2020-06-29T10:42:14Z</time>
      </trkpt>
      <trkpt lat="48.63883" lon="6.27513">
        <ele>215.7</ele>
        <time>2020-06-29T10:42:15Z</time>
      </trkpt>
      <trkpt lat="48.63886" lon="6.27505">
        <ele>215.6</ele>
        <time>2020-06-29T10:42:16Z</time>
      </trkpt>
      <trkpt lat="48.63889" lon="6.27496">
        <ele>215.5</ele>
        <time>2020-06-29T10:42:17Z</time>
      </trkpt>
      <trkpt lat="48.63893" lon="6.27488">
        <ele>215.5</ele>
        <time>2020-06-29T10:42:18Z</time>
      </trkpt>
      <trkpt lat="48.63898" lon="6.27479">
        <ele>215.4</ele>
        <time>2020-06-29T10:42:19Z</time>
      </trkpt>
      <trkpt lat="48.63901" lon="6.27471">
        <ele>215.4</ele>
        <time>2020-06-29T10:42:20Z</time>
      </trkpt>
      <trkpt lat="48.63903" lon="6.27467">
        <ele>215.3</ele>
        <time>2020-06-29T10:42:21Z</time>
      </trkpt>
      <trkpt lat="48.63907" lon="6.27459">
        <ele>215.3</ele>
        <time>2020-06-29T10:42:22Z</time>
      </trkpt>
      <trkpt lat="48.6391" lon="6.2745">
        <ele>215.2</ele>
        <time>2020-06-29T10:42:23Z</time>
      </trkpt>
      <trkpt lat="48.63913" lon="6.27441">
        <ele>215.1</ele>
        <time>2020-06-29T10:42:24Z</time>
      </trkpt>
      <trkpt lat="48.63917" lon="6.27434">
        <ele>215.1</ele>
        <time>2020-06-29T10:42:25Z</time>
      </trkpt>
      <trkpt lat="48.6392" lon="6.27426">
        <ele>215</ele>
        <time>2020-06-29T10:42:26Z</time>
      </trkpt>
      <trkpt lat="48.63923" lon="6.27418">
        <ele>214.9</ele>
        <time>2020-06-29T10:42:27Z</time>
      </trkpt>
      <trkpt lat="48.63926" lon="6.2741">
        <ele>214.8</ele>
        <time>2020-06-29T10:42:28Z</time>
      </trkpt>
      <trkpt lat="48.6393" lon="6.27401">
        <ele>214.8</ele>
        <time>2020-06-29T10:42:29Z</time>
      </trkpt>
      <trkpt lat="48.63933" lon="6.27393">
        <ele>214.7</ele>
        <time>2020-06-29T10:42:30Z</time>
      </trkpt>
      <trkpt lat="48.63936" lon="6.27382">
        <ele>214.6</ele>
        <time>2020-06-29T10:42:31Z</time>
      </trkpt>
      <trkpt lat="48.6394" lon="6.27374">
        <ele>214.5</ele>
        <time>2020-06-29T10:42:32Z</time>
      </trkpt>
      <trkpt lat="48.63942" lon="6.27368">
        <ele>214.5</ele>
        <time>2020-06-29T10:42:33Z</time>
      </trkpt>
      <trkpt lat="48.63946" lon="6.27357">
        <ele>214.4</ele>
        <time>2020-06-29T10:42:34Z</time>
      </trkpt>
      <trkpt lat="48.63949" lon="6.27348">
        <ele>214.4</ele>
        <time>2020-06-29T10:42:35Z</time>
      </trkpt>
      <trkpt lat="48.63953" lon="6.27339">
        <ele>214.3</ele>
        <time>2020-06-29T10:42:36Z</time>
      </trkpt>
      <trkpt lat="48.63956" lon="6.27331">
        <ele>214.3</ele>
        <time>2020-06-29T10:42:37Z</time>
      </trkpt>
      <trkpt lat="48.63959" lon="6.27323">
        <ele>214.2</ele>
        <time>2020-06-29T10:42:38Z</time>
      </trkpt>
      <trkpt lat="48.63961" lon="6.27315">
        <ele>214</ele>
        <time>2020-06-29T10:42:39Z</time>
      </trkpt>
      <trkpt lat="48.63964" lon="6.27306">
        <ele>213.8</ele>
        <time>2020-06-29T10:42:40Z</time>
      </trkpt>
      <trkpt lat="48.63966" lon="6.27297">
        <ele>213.6</ele>
        <time>2020-06-29T10:42:41Z</time>
      </trkpt>
      <trkpt lat="48.6397" lon="6.27288">
        <ele>213.5</ele>
        <time>2020-06-29T10:42:42Z</time>
      </trkpt>
      <trkpt lat="48.63973" lon="6.2728">
        <ele>213.3</ele>
        <time>2020-06-29T10:42:43Z</time>
      </trkpt>
      <trkpt lat="48.63976" lon="6.27271">
        <ele>213.1</ele>
        <time>2020-06-29T10:42:44Z</time>
      </trkpt>
      <trkpt lat="48.63979" lon="6.27261">
        <ele>212.9</ele>
        <time>2020-06-29T10:42:45Z</time>
      </trkpt>
      <trkpt lat="48.63982" lon="6.2725">
        <ele>212.7</ele>
        <time>2020-06-29T10:42:46Z</time>
      </trkpt>
      <trkpt lat="48.63985" lon="6.2724">
        <ele>212.5</ele>
        <time>2020-06-29T10:42:47Z</time>
      </trkpt>
      <trkpt lat="48.63988" lon="6.27229">
        <ele>212.3</ele>
        <time>2020-06-29T10:42:48Z</time>
      </trkpt>
      <trkpt lat="48.63991" lon="6.27219">
        <ele>212.2</ele>
        <time>2020-06-29T10:42:49Z</time>
      </trkpt>
      <trkpt lat="48.63995" lon="6.27209">
        <ele>212.1</ele>
        <time>2020-06-29T10:42:50Z</time>
      </trkpt>
      <trkpt lat="48.63998" lon="6.27199">
        <ele>212</ele>
        <time>2020-06-29T10:42:51Z</time>
      </trkpt>
      <trkpt lat="48.64001" lon="6.27189">
        <ele>211.9</ele>
        <time>2020-06-29T10:42:52Z</time>
      </trkpt>
      <trkpt lat="48.64003" lon="6.27179">
        <ele>211.8</ele>
        <time>2020-06-29T10:42:53Z</time>
      </trkpt>
      <trkpt lat="48.64006" lon="6.2717">
        <ele>211.7</ele>
        <time>2020-06-29T10:42:54Z</time>
      </trkpt>
      <trkpt lat="48.64008" lon="6.27161">
        <ele>211.6</ele>
        <time>2020-06-29T10:42:55Z</time>
      </trkpt>
      <trkpt lat="48.64011" lon="6.27153">
        <ele>211.6</ele>
        <time>2020-06-29T10:42:56Z</time>
      </trkpt>
      <trkpt lat="48.64013" lon="6.27145">
        <ele>211.5</ele>
        <time>2020-06-29T10:42:57Z</time>
      </trkpt>
      <trkpt lat="48.64014" lon="6.27136">
        <ele>211.5</ele>
        <time>2020-06-29T10:42:58Z</time>
      </trkpt>
      <trkpt lat="48.64016" lon="6.27129">
        <ele>211.5</ele>
        <time>2020-06-29T10:42:59Z</time>
      </trkpt>
      <trkpt lat="48.64019" lon="6.27122">
        <ele>211.6</ele>
        <time>2020-06-29T10:43:00Z</time>
      </trkpt>
      <trkpt lat="48.6402" lon="6.27114">
        <ele>211.6</ele>
        <time>2020-06-29T10:43:01Z</time>
      </trkpt>
      <trkpt lat="48.64022" lon="6.27107">
        <ele>211.8</ele>
        <time>2020-06-29T10:43:02Z</time>
      </trkpt>
      <trkpt lat="48.64024" lon="6.271">
        <ele>211.8</ele>
        <time>2020-06-29T10:43:03Z</time>
      </trkpt>
      <trkpt lat="48.64026" lon="6.27094">
        <ele>211.8</ele>
        <time>2020-06-29T10:43:04Z</time>
      </trkpt>
      <trkpt lat="48.64028" lon="6.27087">
        <ele>211.7</ele>
        <time>2020-06-29T10:43:05Z</time>
      </trkpt>
      <trkpt lat="48.64029" lon="6.2708">
        <ele>211.7</ele>
        <time>2020-06-29T10:43:06Z</time>
      </trkpt>
      <trkpt lat="48.64029" lon="6.27072">
        <ele>211.7</ele>
        <time>2020-06-29T10:43:07Z</time>
      </trkpt>
      <trkpt lat="48.64031" lon="6.27065">
        <ele>211.6</ele>
        <time>2020-06-29T10:43:08Z</time>
      </trkpt>
      <trkpt lat="48.64032" lon="6.27057">
        <ele>211.6</ele>
        <time>2020-06-29T10:43:09Z</time>
      </trkpt>
      <trkpt lat="48.64034" lon="6.27049">
        <ele>211.6</ele>
        <time>2020-06-29T10:43:10Z</time>
      </trkpt>
      <trkpt lat="48.64035" lon="6.27041">
        <ele>211.6</ele>
        <time>2020-06-29T10:43:11Z</time>
      </trkpt>
      <trkpt lat="48.64036" lon="6.27032">
        <ele>211.5</ele>
        <time>2020-06-29T10:43:12Z</time>
      </trkpt>
      <trkpt lat="48.64037" lon="6.27025">
        <ele>211.5</ele>
        <time>2020-06-29T10:43:13Z</time>
      </trkpt>
      <trkpt lat="48.64038" lon="6.27017">
        <ele>211.5</ele>
        <time>2020-06-29T10:43:14Z</time>
      </trkpt>
      <trkpt lat="48.6404" lon="6.27009">
        <ele>211.5</ele>
        <time>2020-06-29T10:43:15Z</time>
      </trkpt>
      <trkpt lat="48.64042" lon="6.27001">
        <ele>211.4</ele>
        <time>2020-06-29T10:43:16Z</time>
      </trkpt>
      <trkpt lat="48.64043" lon="6.26992">
        <ele>211.4</ele>
        <time>2020-06-29T10:43:17Z</time>
      </trkpt>
      <trkpt lat="48.64045" lon="6.26984">
        <ele>211.4</ele>
        <time>2020-06-29T10:43:18Z</time>
      </trkpt>
      <trkpt lat="48.64046" lon="6.26976">
        <ele>211.4</ele>
        <time>2020-06-29T10:43:19Z</time>
      </trkpt>
      <trkpt lat="48.64047" lon="6.26968">
        <ele>211.4</ele>
        <time>2020-06-29T10:43:20Z</time>
      </trkpt>
      <trkpt lat="48.64049" lon="6.26961">
        <ele>211.3</ele>
        <time>2020-06-29T10:43:21Z</time>
      </trkpt>
      <trkpt lat="48.64052" lon="6.26953">
        <ele>211.3</ele>
        <time>2020-06-29T10:43:22Z</time>
      </trkpt>
      <trkpt lat="48.64053" lon="6.26945">
        <ele>211.3</ele>
        <time>2020-06-29T10:43:23Z</time>
      </trkpt>
      <trkpt lat="48.64055" lon="6.26937">
        <ele>211.2</ele>
        <time>2020-06-29T10:43:24Z</time>
      </trkpt>
      <trkpt lat="48.64057" lon="6.26928">
        <ele>211.2</ele>
        <time>2020-06-29T10:43:25Z</time>
      </trkpt>
      <trkpt lat="48.64058" lon="6.2692">
        <ele>211.1</ele>
        <time>2020-06-29T10:43:26Z</time>
      </trkpt>
      <trkpt lat="48.6406" lon="6.26911">
        <ele>211.1</ele>
        <time>2020-06-29T10:43:27Z</time>
      </trkpt>
      <trkpt lat="48.64061" lon="6.26902">
        <ele>211.1</ele>
        <time>2020-06-29T10:43:28Z</time>
      </trkpt>
      <trkpt lat="48.64063" lon="6.26894">
        <ele>211</ele>
        <time>2020-06-29T10:43:29Z</time>
      </trkpt>
      <trkpt lat="48.64064" lon="6.26885">
        <ele>211</ele>
        <time>2020-06-29T10:43:30Z</time>
      </trkpt>
      <trkpt lat="48.64066" lon="6.26876">
        <ele>211</ele>
        <time>2020-06-29T10:43:31Z</time>
      </trkpt>
      <trkpt lat="48.64068" lon="6.26868">
        <ele>211</ele>
        <time>2020-06-29T10:43:32Z</time>
      </trkpt>
      <trkpt lat="48.64069" lon="6.26859">
        <ele>210.9</ele>
        <time>2020-06-29T10:43:33Z</time>
      </trkpt>
      <trkpt lat="48.64071" lon="6.2685">
        <ele>210.9</ele>
        <time>2020-06-29T10:43:34Z</time>
      </trkpt>
      <trkpt lat="48.64072" lon="6.26841">
        <ele>210.8</ele>
        <time>2020-06-29T10:43:35Z</time>
      </trkpt>
      <trkpt lat="48.64073" lon="6.26833">
        <ele>210.8</ele>
        <time>2020-06-29T10:43:36Z</time>
      </trkpt>
      <trkpt lat="48.64074" lon="6.26826">
        <ele>210.7</ele>
        <time>2020-06-29T10:43:37Z</time>
      </trkpt>
      <trkpt lat="48.64075" lon="6.26818">
        <ele>210.7</ele>
        <time>2020-06-29T10:43:38Z</time>
      </trkpt>
      <trkpt lat="48.64077" lon="6.26811">
        <ele>210.6</ele>
        <time>2020-06-29T10:43:39Z</time>
      </trkpt>
      <trkpt lat="48.64079" lon="6.26804">
        <ele>210.5</ele>
        <time>2020-06-29T10:43:40Z</time>
      </trkpt>
      <trkpt lat="48.6408" lon="6.26797">
        <ele>210.5</ele>
        <time>2020-06-29T10:43:41Z</time>
      </trkpt>
      <trkpt lat="48.64081" lon="6.26789">
        <ele>210.5</ele>
        <time>2020-06-29T10:43:42Z</time>
      </trkpt>
      <trkpt lat="48.64082" lon="6.26781">
        <ele>210.5</ele>
        <time>2020-06-29T10:43:43Z</time>
      </trkpt>
      <trkpt lat="48.64083" lon="6.26773">
        <ele>210.5</ele>
        <time>2020-06-29T10:43:44Z</time>
      </trkpt>
      <trkpt lat="48.64084" lon="6.26765">
        <ele>210.5</ele>
        <time>2020-06-29T10:43:45Z</time>
      </trkpt>
      <trkpt lat="48.64085" lon="6.26757">
        <ele>210.5</ele>
        <time>2020-06-29T10:43:46Z</time>
      </trkpt>
      <trkpt lat="48.64087" lon="6.26749">
        <ele>210.4</ele>
        <time>2020-06-29T10:43:47Z</time>
      </trkpt>
      <trkpt lat="48.64088" lon="6.26741">
        <ele>210.3</ele>
        <time>2020-06-29T10:43:48Z</time>
      </trkpt>
      <trkpt lat="48.6409" lon="6.26733">
        <ele>210.3</ele>
        <time>2020-06-29T10:43:49Z</time>
      </trkpt>
      <trkpt lat="48.64091" lon="6.26725">
        <ele>210.2</ele>
        <time>2020-06-29T10:43:50Z</time>
      </trkpt>
      <trkpt lat="48.64094" lon="6.26718">
        <ele>210.2</ele>
        <time>2020-06-29T10:43:51Z</time>
      </trkpt>
      <trkpt lat="48.64096" lon="6.2671">
        <ele>210.1</ele>
        <time>2020-06-29T10:43:52Z</time>
      </trkpt>
      <trkpt lat="48.64097" lon="6.26701">
        <ele>210.1</ele>
        <time>2020-06-29T10:43:53Z</time>
      </trkpt>
      <trkpt lat="48.64098" lon="6.26693">
        <ele>210.1</ele>
        <time>2020-06-29T10:43:54Z</time>
      </trkpt>
      <trkpt lat="48.64101" lon="6.26686">
        <ele>210.1</ele>
        <time>2020-06-29T10:43:55Z</time>
      </trkpt>
      <trkpt lat="48.64103" lon="6.26678">
        <ele>210.1</ele>
        <time>2020-06-29T10:43:56Z</time>
      </trkpt>
      <trkpt lat="48.64103" lon="6.26671">
        <ele>210.1</ele>
        <time>2020-06-29T10:43:57Z</time>
      </trkpt>
      <trkpt lat="48.64104" lon="6.26663">
        <ele>210.1</ele>
        <time>2020-06-29T10:43:58Z</time>
      </trkpt>
      <trkpt lat="48.64105" lon="6.26657">
        <ele>210.1</ele>
        <time>2020-06-29T10:43:59Z</time>
      </trkpt>
      <trkpt lat="48.64106" lon="6.26651">
        <ele>210.1</ele>
        <time>2020-06-29T10:44:00Z</time>
      </trkpt>
      <trkpt lat="48.64108" lon="6.26644">
        <ele>210.1</ele>
        <time>2020-06-29T10:44:01Z</time>
      </trkpt>
      <trkpt lat="48.64109" lon="6.26637">
        <ele>210.1</ele>
        <time>2020-06-29T10:44:02Z</time>
      </trkpt>
      <trkpt lat="48.6411" lon="6.26629">
        <ele>210</ele>
        <time>2020-06-29T10:44:03Z</time>
      </trkpt>
      <trkpt lat="48.64111" lon="6.2662">
        <ele>210</ele>
        <time>2020-06-29T10:44:04Z</time>
      </trkpt>
      <trkpt lat="48.64112" lon="6.26611">
        <ele>209.8</ele>
        <time>2020-06-29T10:44:05Z</time>
      </trkpt>
      <trkpt lat="48.64114" lon="6.26603">
        <ele>209.7</ele>
        <time>2020-06-29T10:44:06Z</time>
      </trkpt>
      <trkpt lat="48.64115" lon="6.26596">
        <ele>209.5</ele>
        <time>2020-06-29T10:44:07Z</time>
      </trkpt>
      <trkpt lat="48.64116" lon="6.26588">
        <ele>209.4</ele>
        <time>2020-06-29T10:44:08Z</time>
      </trkpt>
      <trkpt lat="48.64117" lon="6.26581">
        <ele>209.3</ele>
        <time>2020-06-29T10:44:09Z</time>
      </trkpt>
      <trkpt lat="48.64119" lon="6.26574">
        <ele>209.1</ele>
        <time>2020-06-29T10:44:10Z</time>
      </trkpt>
      <trkpt lat="48.6412" lon="6.26566">
        <ele>209</ele>
        <time>2020-06-29T10:44:11Z</time>
      </trkpt>
      <trkpt lat="48.64121" lon="6.26559">
        <ele>208.8</ele>
        <time>2020-06-29T10:44:12Z</time>
      </trkpt>
      <trkpt lat="48.64123" lon="6.26551">
        <ele>208.6</ele>
        <time>2020-06-29T10:44:13Z</time>
      </trkpt>
      <trkpt lat="48.64124" lon="6.26543">
        <ele>208.3</ele>
        <time>2020-06-29T10:44:14Z</time>
      </trkpt>
      <trkpt lat="48.64125" lon="6.26534">
        <ele>208.1</ele>
        <time>2020-06-29T10:44:15Z</time>
      </trkpt>
      <trkpt lat="48.64127" lon="6.26525">
        <ele>207.9</ele>
        <time>2020-06-29T10:44:16Z</time>
      </trkpt>
      <trkpt lat="48.64128" lon="6.26515">
        <ele>207.7</ele>
        <time>2020-06-29T10:44:17Z</time>
      </trkpt>
      <trkpt lat="48.6413" lon="6.26506">
        <ele>207.5</ele>
        <time>2020-06-29T10:44:18Z</time>
      </trkpt>
      <trkpt lat="48.64131" lon="6.26496">
        <ele>207.3</ele>
        <time>2020-06-29T10:44:19Z</time>
      </trkpt>
      <trkpt lat="48.64133" lon="6.26485">
        <ele>207.1</ele>
        <time>2020-06-29T10:44:20Z</time>
      </trkpt>
      <trkpt lat="48.64134" lon="6.26475">
        <ele>206.8</ele>
        <time>2020-06-29T10:44:21Z</time>
      </trkpt>
      <trkpt lat="48.64136" lon="6.26466">
        <ele>206.6</ele>
        <time>2020-06-29T10:44:22Z</time>
      </trkpt>
      <trkpt lat="48.64138" lon="6.26456">
        <ele>206.4</ele>
        <time>2020-06-29T10:44:23Z</time>
      </trkpt>
      <trkpt lat="48.6414" lon="6.26446">
        <ele>206.2</ele>
        <time>2020-06-29T10:44:24Z</time>
      </trkpt>
      <trkpt lat="48.64142" lon="6.26437">
        <ele>206</ele>
        <time>2020-06-29T10:44:25Z</time>
      </trkpt>
      <trkpt lat="48.64144" lon="6.26427">
        <ele>205.7</ele>
        <time>2020-06-29T10:44:26Z</time>
      </trkpt>
      <trkpt lat="48.64145" lon="6.26417">
        <ele>205.5</ele>
        <time>2020-06-29T10:44:27Z</time>
      </trkpt>
      <trkpt lat="48.64147" lon="6.26408">
        <ele>205.3</ele>
        <time>2020-06-29T10:44:28Z</time>
      </trkpt>
      <trkpt lat="48.6415" lon="6.26398">
        <ele>205.2</ele>
        <time>2020-06-29T10:44:29Z</time>
      </trkpt>
      <trkpt lat="48.64152" lon="6.26389">
        <ele>205</ele>
        <time>2020-06-29T10:44:30Z</time>
      </trkpt>
      <trkpt lat="48.64153" lon="6.2638">
        <ele>204.9</ele>
        <time>2020-06-29T10:44:31Z</time>
      </trkpt>
      <trkpt lat="48.64155" lon="6.2637">
        <ele>204.7</ele>
        <time>2020-06-29T10:44:32Z</time>
      </trkpt>
      <trkpt lat="48.64157" lon="6.26361">
        <ele>204.6</ele>
        <time>2020-06-29T10:44:33Z</time>
      </trkpt>
      <trkpt lat="48.64159" lon="6.26352">
        <ele>204.4</ele>
        <time>2020-06-29T10:44:34Z</time>
      </trkpt>
      <trkpt lat="48.6416" lon="6.26343">
        <ele>204.3</ele>
        <time>2020-06-29T10:44:35Z</time>
      </trkpt>
      <trkpt lat="48.64162" lon="6.26335">
        <ele>204.1</ele>
        <time>2020-06-29T10:44:36Z</time>
      </trkpt>
      <trkpt lat="48.64163" lon="6.26326">
        <ele>204</ele>
        <time>2020-06-29T10:44:37Z</time>
      </trkpt>
      <trkpt lat="48.64165" lon="6.26317">
        <ele>204</ele>
        <time>2020-06-29T10:44:38Z</time>
      </trkpt>
      <trkpt lat="48.64167" lon="6.26309">
        <ele>204</ele>
        <time>2020-06-29T10:44:39Z</time>
      </trkpt>
      <trkpt lat="48.64167" lon="6.263">
        <ele>204</ele>
        <time>2020-06-29T10:44:40Z</time>
      </trkpt>
      <trkpt lat="48.64169" lon="6.26292">
        <ele>204</ele>
        <time>2020-06-29T10:44:41Z</time>
      </trkpt>
      <trkpt lat="48.64171" lon="6.26285">
        <ele>203.9</ele>
        <time>2020-06-29T10:44:42Z</time>
      </trkpt>
      <trkpt lat="48.64174" lon="6.26278">
        <ele>203.9</ele>
        <time>2020-06-29T10:44:43Z</time>
      </trkpt>
      <trkpt lat="48.64175" lon="6.26271">
        <ele>203.8</ele>
        <time>2020-06-29T10:44:44Z</time>
      </trkpt>
      <trkpt lat="48.64177" lon="6.26264">
        <ele>203.7</ele>
        <time>2020-06-29T10:44:45Z</time>
      </trkpt>
      <trkpt lat="48.64177" lon="6.26256">
        <ele>203.7</ele>
        <time>2020-06-29T10:44:46Z</time>
      </trkpt>
      <trkpt lat="48.6418" lon="6.2625">
        <ele>203.6</ele>
        <time>2020-06-29T10:44:47Z</time>
      </trkpt>
      <trkpt lat="48.64181" lon="6.26243">
        <ele>203.6</ele>
        <time>2020-06-29T10:44:48Z</time>
      </trkpt>
      <trkpt lat="48.64182" lon="6.26236">
        <ele>203.6</ele>
        <time>2020-06-29T10:44:49Z</time>
      </trkpt>
      <trkpt lat="48.64184" lon="6.26229">
        <ele>203.6</ele>
        <time>2020-06-29T10:44:50Z</time>
      </trkpt>
      <trkpt lat="48.64186" lon="6.26222">
        <ele>203.5</ele>
        <time>2020-06-29T10:44:51Z</time>
      </trkpt>
      <trkpt lat="48.64186" lon="6.26214">
        <ele>203.5</ele>
        <time>2020-06-29T10:44:52Z</time>
      </trkpt>
      <trkpt lat="48.64187" lon="6.26206">
        <ele>203.5</ele>
        <time>2020-06-29T10:44:53Z</time>
      </trkpt>
      <trkpt lat="48.64189" lon="6.26198">
        <ele>203.5</ele>
        <time>2020-06-29T10:44:54Z</time>
      </trkpt>
      <trkpt lat="48.6419" lon="6.2619">
        <ele>203.5</ele>
        <time>2020-06-29T10:44:55Z</time>
      </trkpt>
      <trkpt lat="48.64192" lon="6.26182">
        <ele>203.5</ele>
        <time>2020-06-29T10:44:56Z</time>
      </trkpt>
      <trkpt lat="48.64193" lon="6.26173">
        <ele>203.5</ele>
        <time>2020-06-29T10:44:57Z</time>
      </trkpt>
      <trkpt lat="48.64194" lon="6.26164">
        <ele>203.5</ele>
        <time>2020-06-29T10:44:58Z</time>
      </trkpt>
      <trkpt lat="48.64196" lon="6.26156">
        <ele>203.5</ele>
        <time>2020-06-29T10:44:59Z</time>
      </trkpt>
      <trkpt lat="48.64199" lon="6.26147">
        <ele>203.5</ele>
        <time>2020-06-29T10:45:00Z</time>
      </trkpt>
      <trkpt lat="48.64201" lon="6.26138">
        <ele>203.5</ele>
        <time>2020-06-29T10:45:01Z</time>
      </trkpt>
      <trkpt lat="48.64203" lon="6.26129">
        <ele>203.5</ele>
        <time>2020-06-29T10:45:02Z</time>
      </trkpt>
      <trkpt lat="48.64205" lon="6.26119">
        <ele>203.4</ele>
        <time>2020-06-29T10:45:03Z</time>
      </trkpt>
      <trkpt lat="48.64207" lon="6.2611">
        <ele>203.4</ele>
        <time>2020-06-29T10:45:04Z</time>
      </trkpt>
      <trkpt lat="48.64208" lon="6.261">
        <ele>203.4</ele>
        <time>2020-06-29T10:45:05Z</time>
      </trkpt>
      <trkpt lat="48.6421" lon="6.2609">
        <ele>203.4</ele>
        <time>2020-06-29T10:45:06Z</time>
      </trkpt>
      <trkpt lat="48.64212" lon="6.26081">
        <ele>203.4</ele>
        <time>2020-06-29T10:45:07Z</time>
      </trkpt>
      <trkpt lat="48.64214" lon="6.26071">
        <ele>203.4</ele>
        <time>2020-06-29T10:45:08Z</time>
      </trkpt>
      <trkpt lat="48.64216" lon="6.26062">
        <ele>203.4</ele>
        <time>2020-06-29T10:45:09Z</time>
      </trkpt>
      <trkpt lat="48.64217" lon="6.26052">
        <ele>203.4</ele>
        <time>2020-06-29T10:45:10Z</time>
      </trkpt>
      <trkpt lat="48.64219" lon="6.26043">
        <ele>203.4</ele>
        <time>2020-06-29T10:45:11Z</time>
      </trkpt>
      <trkpt lat="48.64221" lon="6.26033">
        <ele>203.3</ele>
        <time>2020-06-29T10:45:12Z</time>
      </trkpt>
      <trkpt lat="48.64222" lon="6.26024">
        <ele>203.3</ele>
        <time>2020-06-29T10:45:13Z</time>
      </trkpt>
      <trkpt lat="48.64224" lon="6.26015">
        <ele>203.3</ele>
        <time>2020-06-29T10:45:14Z</time>
      </trkpt>
      <trkpt lat="48.64226" lon="6.26006">
        <ele>203.3</ele>
        <time>2020-06-29T10:45:15Z</time>
      </trkpt>
      <trkpt lat="48.64228" lon="6.25997">
        <ele>203.2</ele>
        <time>2020-06-29T10:45:16Z</time>
      </trkpt>
      <trkpt lat="48.6423" lon="6.25987">
        <ele>203.2</ele>
        <time>2020-06-29T10:45:17Z</time>
      </trkpt>
      <trkpt lat="48.64231" lon="6.25978">
        <ele>203.2</ele>
        <time>2020-06-29T10:45:18Z</time>
      </trkpt>
      <trkpt lat="48.64233" lon="6.25968">
        <ele>203.1</ele>
        <time>2020-06-29T10:45:19Z</time>
      </trkpt>
      <trkpt lat="48.64234" lon="6.25959">
        <ele>203.1</ele>
        <time>2020-06-29T10:45:20Z</time>
      </trkpt>
      <trkpt lat="48.64235" lon="6.25949">
        <ele>203.1</ele>
        <time>2020-06-29T10:45:21Z</time>
      </trkpt>
      <trkpt lat="48.64236" lon="6.25939">
        <ele>203</ele>
        <time>2020-06-29T10:45:22Z</time>
      </trkpt>
      <trkpt lat="48.64239" lon="6.2593">
        <ele>203</ele>
        <time>2020-06-29T10:45:23Z</time>
      </trkpt>
      <trkpt lat="48.6424" lon="6.25921">
        <ele>202.9</ele>
        <time>2020-06-29T10:45:24Z</time>
      </trkpt>
      <trkpt lat="48.64243" lon="6.25912">
        <ele>202.9</ele>
        <time>2020-06-29T10:45:25Z</time>
      </trkpt>
      <trkpt lat="48.64244" lon="6.25902">
        <ele>202.8</ele>
        <time>2020-06-29T10:45:26Z</time>
      </trkpt>
      <trkpt lat="48.64246" lon="6.25893">
        <ele>202.8</ele>
        <time>2020-06-29T10:45:27Z</time>
      </trkpt>
      <trkpt lat="48.64247" lon="6.25883">
        <ele>202.7</ele>
        <time>2020-06-29T10:45:28Z</time>
      </trkpt>
      <trkpt lat="48.64249" lon="6.25873">
        <ele>202.7</ele>
        <time>2020-06-29T10:45:29Z</time>
      </trkpt>
      <trkpt lat="48.6425" lon="6.25863">
        <ele>202.6</ele>
        <time>2020-06-29T10:45:30Z</time>
      </trkpt>
      <trkpt lat="48.64251" lon="6.25853">
        <ele>202.6</ele>
        <time>2020-06-29T10:45:31Z</time>
      </trkpt>
      <trkpt lat="48.64253" lon="6.25844">
        <ele>202.5</ele>
        <time>2020-06-29T10:45:32Z</time>
      </trkpt>
      <trkpt lat="48.64254" lon="6.25834">
        <ele>202.5</ele>
        <time>2020-06-29T10:45:33Z</time>
      </trkpt>
      <trkpt lat="48.64256" lon="6.25825">
        <ele>202.5</ele>
        <time>2020-06-29T10:45:34Z</time>
      </trkpt>
      <trkpt lat="48.64258" lon="6.25815">
        <ele>202.4</ele>
        <time>2020-06-29T10:45:35Z</time>
      </trkpt>
      <trkpt lat="48.6426" lon="6.25806">
        <ele>202.4</ele>
        <time>2020-06-29T10:45:36Z</time>
      </trkpt>
      <trkpt lat="48.64261" lon="6.25796">
        <ele>202.4</ele>
        <time>2020-06-29T10:45:37Z</time>
      </trkpt>
      <trkpt lat="48.64263" lon="6.25787">
        <ele>202.4</ele>
        <time>2020-06-29T10:45:38Z</time>
      </trkpt>
      <trkpt lat="48.64265" lon="6.25778">
        <ele>202.4</ele>
        <time>2020-06-29T10:45:39Z</time>
      </trkpt>
      <trkpt lat="48.64267" lon="6.25768">
        <ele>202.4</ele>
        <time>2020-06-29T10:45:40Z</time>
      </trkpt>
      <trkpt lat="48.64269" lon="6.25758">
        <ele>202.4</ele>
        <time>2020-06-29T10:45:41Z</time>
      </trkpt>
      <trkpt lat="48.6427" lon="6.25749">
        <ele>202.4</ele>
        <time>2020-06-29T10:45:42Z</time>
      </trkpt>
      <trkpt lat="48.64272" lon="6.25739">
        <ele>202.4</ele>
        <time>2020-06-29T10:45:43Z</time>
      </trkpt>
      <trkpt lat="48.64274" lon="6.2573">
        <ele>202.5</ele>
        <time>2020-06-29T10:45:44Z</time>
      </trkpt>
      <trkpt lat="48.64276" lon="6.2572">
        <ele>202.5</ele>
        <time>2020-06-29T10:45:45Z</time>
      </trkpt>
      <trkpt lat="48.64278" lon="6.25711">
        <ele>202.5</ele>
        <time>2020-06-29T10:45:46Z</time>
      </trkpt>
      <trkpt lat="48.6428" lon="6.25702">
        <ele>202.6</ele>
        <time>2020-06-29T10:45:47Z</time>
      </trkpt>
      <trkpt lat="48.64282" lon="6.25692">
        <ele>202.6</ele>
        <time>2020-06-29T10:45:48Z</time>
      </trkpt>
      <trkpt lat="48.64283" lon="6.25683">
        <ele>202.7</ele>
        <time>2020-06-29T10:45:49Z</time>
      </trkpt>
      <trkpt lat="48.64285" lon="6.25674">
        <ele>202.8</ele>
        <time>2020-06-29T10:45:50Z</time>
      </trkpt>
      <trkpt lat="48.64287" lon="6.25665">
        <ele>202.8</ele>
        <time>2020-06-29T10:45:51Z</time>
      </trkpt>
      <trkpt lat="48.64289" lon="6.25655">
        <ele>202.8</ele>
        <time>2020-06-29T10:45:52Z</time>
      </trkpt>
      <trkpt lat="48.64291" lon="6.25646">
        <ele>202.8</ele>
        <time>2020-06-29T10:45:53Z</time>
      </trkpt>
      <trkpt lat="48.64292" lon="6.25636">
        <ele>202.8</ele>
        <time>2020-06-29T10:45:54Z</time>
      </trkpt>
      <trkpt lat="48.64293" lon="6.25627">
        <ele>202.9</ele>
        <time>2020-06-29T10:45:55Z</time>
      </trkpt>
      <trkpt lat="48.64295" lon="6.25617">
        <ele>202.9</ele>
        <time>2020-06-29T10:45:56Z</time>
      </trkpt>
      <trkpt lat="48.64296" lon="6.25608">
        <ele>202.9</ele>
        <time>2020-06-29T10:45:57Z</time>
      </trkpt>
      <trkpt lat="48.64298" lon="6.25599">
        <ele>202.8</ele>
        <time>2020-06-29T10:45:58Z</time>
      </trkpt>
      <trkpt lat="48.643" lon="6.25589">
        <ele>202.8</ele>
        <time>2020-06-29T10:45:59Z</time>
      </trkpt>
      <trkpt lat="48.64301" lon="6.2558">
        <ele>202.8</ele>
        <time>2020-06-29T10:46:00Z</time>
      </trkpt>
      <trkpt lat="48.64304" lon="6.25571">
        <ele>202.7</ele>
        <time>2020-06-29T10:46:01Z</time>
      </trkpt>
      <trkpt lat="48.64306" lon="6.25562">
        <ele>202.7</ele>
        <time>2020-06-29T10:46:02Z</time>
      </trkpt>
      <trkpt lat="48.64308" lon="6.25552">
        <ele>202.7</ele>
        <time>2020-06-29T10:46:03Z</time>
      </trkpt>
      <trkpt lat="48.6431" lon="6.25543">
        <ele>202.6</ele>
        <time>2020-06-29T10:46:04Z</time>
      </trkpt>
      <trkpt lat="48.64311" lon="6.25533">
        <ele>202.6</ele>
        <time>2020-06-29T10:46:05Z</time>
      </trkpt>
      <trkpt lat="48.64313" lon="6.25524">
        <ele>202.6</ele>
        <time>2020-06-29T10:46:06Z</time>
      </trkpt>
      <trkpt lat="48.64314" lon="6.25515">
        <ele>202.5</ele>
        <time>2020-06-29T10:46:07Z</time>
      </trkpt>
      <trkpt lat="48.64316" lon="6.25506">
        <ele>202.5</ele>
        <time>2020-06-29T10:46:08Z</time>
      </trkpt>
      <trkpt lat="48.64317" lon="6.25497">
        <ele>202.5</ele>
        <time>2020-06-29T10:46:09Z</time>
      </trkpt>
      <trkpt lat="48.64319" lon="6.25488">
        <ele>202.4</ele>
        <time>2020-06-29T10:46:10Z</time>
      </trkpt>
      <trkpt lat="48.64321" lon="6.25478">
        <ele>202.4</ele>
        <time>2020-06-29T10:46:11Z</time>
      </trkpt>
      <trkpt lat="48.64322" lon="6.25468">
        <ele>202.3</ele>
        <time>2020-06-29T10:46:12Z</time>
      </trkpt>
      <trkpt lat="48.64324" lon="6.25459">
        <ele>202.2</ele>
        <time>2020-06-29T10:46:13Z</time>
      </trkpt>
      <trkpt lat="48.64325" lon="6.25449">
        <ele>202.1</ele>
        <time>2020-06-29T10:46:14Z</time>
      </trkpt>
      <trkpt lat="48.64327" lon="6.2544">
        <ele>202.1</ele>
        <time>2020-06-29T10:46:15Z</time>
      </trkpt>
      <trkpt lat="48.64329" lon="6.2543">
        <ele>202</ele>
        <time>2020-06-29T10:46:16Z</time>
      </trkpt>
      <trkpt lat="48.64331" lon="6.25422">
        <ele>202</ele>
        <time>2020-06-29T10:46:17Z</time>
      </trkpt>
      <trkpt lat="48.64333" lon="6.25413">
        <ele>201.9</ele>
        <time>2020-06-29T10:46:18Z</time>
      </trkpt>
      <trkpt lat="48.64335" lon="6.25404">
        <ele>201.9</ele>
        <time>2020-06-29T10:46:19Z</time>
      </trkpt>
      <trkpt lat="48.64337" lon="6.25396">
        <ele>201.8</ele>
        <time>2020-06-29T10:46:20Z</time>
      </trkpt>
      <trkpt lat="48.6434" lon="6.25388">
        <ele>201.8</ele>
        <time>2020-06-29T10:46:21Z</time>
      </trkpt>
      <trkpt lat="48.64341" lon="6.25379">
        <ele>201.8</ele>
        <time>2020-06-29T10:46:22Z</time>
      </trkpt>
      <trkpt lat="48.64343" lon="6.25371">
        <ele>201.7</ele>
        <time>2020-06-29T10:46:23Z</time>
      </trkpt>
      <trkpt lat="48.64345" lon="6.25364">
        <ele>201.7</ele>
        <time>2020-06-29T10:46:24Z</time>
      </trkpt>
      <trkpt lat="48.64347" lon="6.25357">
        <ele>201.6</ele>
        <time>2020-06-29T10:46:25Z</time>
      </trkpt>
      <trkpt lat="48.6435" lon="6.25351">
        <ele>201.5</ele>
        <time>2020-06-29T10:46:26Z</time>
      </trkpt>
      <trkpt lat="48.64353" lon="6.25343">
        <ele>201.4</ele>
        <time>2020-06-29T10:46:27Z</time>
      </trkpt>
      <trkpt lat="48.64355" lon="6.25334">
        <ele>201.3</ele>
        <time>2020-06-29T10:46:28Z</time>
      </trkpt>
      <trkpt lat="48.64356" lon="6.25325">
        <ele>201.2</ele>
        <time>2020-06-29T10:46:29Z</time>
      </trkpt>
      <trkpt lat="48.64357" lon="6.25315">
        <ele>201.1</ele>
        <time>2020-06-29T10:46:30Z</time>
      </trkpt>
      <trkpt lat="48.64357" lon="6.25306">
        <ele>201</ele>
        <time>2020-06-29T10:46:31Z</time>
      </trkpt>
      <trkpt lat="48.64358" lon="6.25296">
        <ele>201</ele>
        <time>2020-06-29T10:46:32Z</time>
      </trkpt>
      <trkpt lat="48.6436" lon="6.25286">
        <ele>200.9</ele>
        <time>2020-06-29T10:46:33Z</time>
      </trkpt>
      <trkpt lat="48.64362" lon="6.25276">
        <ele>200.9</ele>
        <time>2020-06-29T10:46:34Z</time>
      </trkpt>
      <trkpt lat="48.64365" lon="6.25267">
        <ele>200.8</ele>
        <time>2020-06-29T10:46:35Z</time>
      </trkpt>
      <trkpt lat="48.64367" lon="6.25258">
        <ele>200.9</ele>
        <time>2020-06-29T10:46:36Z</time>
      </trkpt>
      <trkpt lat="48.64369" lon="6.25249">
        <ele>200.9</ele>
        <time>2020-06-29T10:46:37Z</time>
      </trkpt>
      <trkpt lat="48.64372" lon="6.25239">
        <ele>200.9</ele>
        <time>2020-06-29T10:46:38Z</time>
      </trkpt>
      <trkpt lat="48.64375" lon="6.2523">
        <ele>200.9</ele>
        <time>2020-06-29T10:46:39Z</time>
      </trkpt>
      <trkpt lat="48.64378" lon="6.25221">
        <ele>200.9</ele>
        <time>2020-06-29T10:46:40Z</time>
      </trkpt>
      <trkpt lat="48.6438" lon="6.25211">
        <ele>200.8</ele>
        <time>2020-06-29T10:46:41Z</time>
      </trkpt>
      <trkpt lat="48.64383" lon="6.25202">
        <ele>200.8</ele>
        <time>2020-06-29T10:46:42Z</time>
      </trkpt>
      <trkpt lat="48.64385" lon="6.25193">
        <ele>200.8</ele>
        <time>2020-06-29T10:46:43Z</time>
      </trkpt>
      <trkpt lat="48.64388" lon="6.25183">
        <ele>200.8</ele>
        <time>2020-06-29T10:46:44Z</time>
      </trkpt>
      <trkpt lat="48.64391" lon="6.25175">
        <ele>200.8</ele>
        <time>2020-06-29T10:46:45Z</time>
      </trkpt>
      <trkpt lat="48.64394" lon="6.25166">
        <ele>200.9</ele>
        <time>2020-06-29T10:46:46Z</time>
      </trkpt>
      <trkpt lat="48.64397" lon="6.25157">
        <ele>200.9</ele>
        <time>2020-06-29T10:46:47Z</time>
      </trkpt>
      <trkpt lat="48.644" lon="6.25148">
        <ele>200.9</ele>
        <time>2020-06-29T10:46:48Z</time>
      </trkpt>
      <trkpt lat="48.64402" lon="6.25139">
        <ele>200.9</ele>
        <time>2020-06-29T10:46:49Z</time>
      </trkpt>
      <trkpt lat="48.64405" lon="6.2513">
        <ele>200.9</ele>
        <time>2020-06-29T10:46:50Z</time>
      </trkpt>
      <trkpt lat="48.64408" lon="6.25121">
        <ele>200.9</ele>
        <time>2020-06-29T10:46:51Z</time>
      </trkpt>
      <trkpt lat="48.6441" lon="6.25111">
        <ele>200.9</ele>
        <time>2020-06-29T10:46:52Z</time>
      </trkpt>
      <trkpt lat="48.64413" lon="6.25103">
        <ele>200.9</ele>
        <time>2020-06-29T10:46:53Z</time>
      </trkpt>
      <trkpt lat="48.64416" lon="6.25093">
        <ele>200.9</ele>
        <time>2020-06-29T10:46:54Z</time>
      </trkpt>
      <trkpt lat="48.64418" lon="6.25084">
        <ele>200.9</ele>
        <time>2020-06-29T10:46:55Z</time>
      </trkpt>
      <trkpt lat="48.64421" lon="6.25075">
        <ele>201</ele>
        <time>2020-06-29T10:46:56Z</time>
      </trkpt>
      <trkpt lat="48.64424" lon="6.25066">
        <ele>201</ele>
        <time>2020-06-29T10:46:57Z</time>
      </trkpt>
      <trkpt lat="48.64427" lon="6.25057">
        <ele>201</ele>
        <time>2020-06-29T10:46:58Z</time>
      </trkpt>
      <trkpt lat="48.6443" lon="6.25048">
        <ele>201</ele>
        <time>2020-06-29T10:46:59Z</time>
      </trkpt>
      <trkpt lat="48.64433" lon="6.25039">
        <ele>201</ele>
        <time>2020-06-29T10:47:00Z</time>
      </trkpt>
      <trkpt lat="48.64435" lon="6.2503">
        <ele>201</ele>
        <time>2020-06-29T10:47:01Z</time>
      </trkpt>
      <trkpt lat="48.64438" lon="6.2502">
        <ele>201</ele>
        <time>2020-06-29T10:47:02Z</time>
      </trkpt>
      <trkpt lat="48.6444" lon="6.25011">
        <ele>201.1</ele>
        <time>2020-06-29T10:47:03Z</time>
      </trkpt>
      <trkpt lat="48.64443" lon="6.25002">
        <ele>201.1</ele>
        <time>2020-06-29T10:47:04Z</time>
      </trkpt>
      <trkpt lat="48.64446" lon="6.24994">
        <ele>201.1</ele>
        <time>2020-06-29T10:47:05Z</time>
      </trkpt>
      <trkpt lat="48.64448" lon="6.24985">
        <ele>201.2</ele>
        <time>2020-06-29T10:47:06Z</time>
      </trkpt>
      <trkpt lat="48.64451" lon="6.24976">
        <ele>201.2</ele>
        <time>2020-06-29T10:47:07Z</time>
      </trkpt>
      <trkpt lat="48.64454" lon="6.24968">
        <ele>201.3</ele>
        <time>2020-06-29T10:47:08Z</time>
      </trkpt>
      <trkpt lat="48.64457" lon="6.24959">
        <ele>201.3</ele>
        <time>2020-06-29T10:47:09Z</time>
      </trkpt>
      <trkpt lat="48.64459" lon="6.24951">
        <ele>201.3</ele>
        <time>2020-06-29T10:47:10Z</time>
      </trkpt>
      <trkpt lat="48.64463" lon="6.24943">
        <ele>201.3</ele>
        <time>2020-06-29T10:47:11Z</time>
      </trkpt>
      <trkpt lat="48.64466" lon="6.24934">
        <ele>201.3</ele>
        <time>2020-06-29T10:47:12Z</time>
      </trkpt>
      <trkpt lat="48.64469" lon="6.24926">
        <ele>201.4</ele>
        <time>2020-06-29T10:47:13Z</time>
      </trkpt>
      <trkpt lat="48.64472" lon="6.24917">
        <ele>201.4</ele>
        <time>2020-06-29T10:47:14Z</time>
      </trkpt>
      <trkpt lat="48.64475" lon="6.24909">
        <ele>201.4</ele>
        <time>2020-06-29T10:47:15Z</time>
      </trkpt>
      <trkpt lat="48.64478" lon="6.24901">
        <ele>201.5</ele>
        <time>2020-06-29T10:47:16Z</time>
      </trkpt>
      <trkpt lat="48.64482" lon="6.24892">
        <ele>201.5</ele>
        <time>2020-06-29T10:47:17Z</time>
      </trkpt>
      <trkpt lat="48.64485" lon="6.24884">
        <ele>201.6</ele>
        <time>2020-06-29T10:47:18Z</time>
      </trkpt>
      <trkpt lat="48.64489" lon="6.24876">
        <ele>201.7</ele>
        <time>2020-06-29T10:47:19Z</time>
      </trkpt>
      <trkpt lat="48.64492" lon="6.24868">
        <ele>201.7</ele>
        <time>2020-06-29T10:47:20Z</time>
      </trkpt>
      <trkpt lat="48.64496" lon="6.24861">
        <ele>201.8</ele>
        <time>2020-06-29T10:47:21Z</time>
      </trkpt>
      <trkpt lat="48.64499" lon="6.24853">
        <ele>201.9</ele>
        <time>2020-06-29T10:47:22Z</time>
      </trkpt>
      <trkpt lat="48.64503" lon="6.24846">
        <ele>201.9</ele>
        <time>2020-06-29T10:47:23Z</time>
      </trkpt>
      <trkpt lat="48.64507" lon="6.24838">
        <ele>202</ele>
        <time>2020-06-29T10:47:24Z</time>
      </trkpt>
      <trkpt lat="48.6451" lon="6.24831">
        <ele>202</ele>
        <time>2020-06-29T10:47:25Z</time>
      </trkpt>
      <trkpt lat="48.64514" lon="6.24824">
        <ele>202.1</ele>
        <time>2020-06-29T10:47:26Z</time>
      </trkpt>
      <trkpt lat="48.64519" lon="6.24818">
        <ele>202.2</ele>
        <time>2020-06-29T10:47:27Z</time>
      </trkpt>
      <trkpt lat="48.64523" lon="6.24811">
        <ele>202.3</ele>
        <time>2020-06-29T10:47:28Z</time>
      </trkpt>
      <trkpt lat="48.64527" lon="6.24803">
        <ele>202.4</ele>
        <time>2020-06-29T10:47:29Z</time>
      </trkpt>
      <trkpt lat="48.64531" lon="6.24796">
        <ele>202.5</ele>
        <time>2020-06-29T10:47:30Z</time>
      </trkpt>
      <trkpt lat="48.64535" lon="6.24789">
        <ele>202.6</ele>
        <time>2020-06-29T10:47:31Z</time>
      </trkpt>
      <trkpt lat="48.64538" lon="6.24782">
        <ele>202.7</ele>
        <time>2020-06-29T10:47:32Z</time>
      </trkpt>
      <trkpt lat="48.64542" lon="6.24775">
        <ele>202.8</ele>
        <time>2020-06-29T10:47:33Z</time>
      </trkpt>
      <trkpt lat="48.64546" lon="6.24768">
        <ele>202.9</ele>
        <time>2020-06-29T10:47:34Z</time>
      </trkpt>
      <trkpt lat="48.64549" lon="6.2476">
        <ele>203</ele>
        <time>2020-06-29T10:47:35Z</time>
      </trkpt>
      <trkpt lat="48.64553" lon="6.24753">
        <ele>203.1</ele>
        <time>2020-06-29T10:47:36Z</time>
      </trkpt>
      <trkpt lat="48.64556" lon="6.24745">
        <ele>203.3</ele>
        <time>2020-06-29T10:47:37Z</time>
      </trkpt>
      <trkpt lat="48.6456" lon="6.24738">
        <ele>203.4</ele>
        <time>2020-06-29T10:47:38Z</time>
      </trkpt>
      <trkpt lat="48.64563" lon="6.24731">
        <ele>203.5</ele>
        <time>2020-06-29T10:47:39Z</time>
      </trkpt>
      <trkpt lat="48.64567" lon="6.24725">
        <ele>203.6</ele>
        <time>2020-06-29T10:47:40Z</time>
      </trkpt>
      <trkpt lat="48.6457" lon="6.24718">
        <ele>203.7</ele>
        <time>2020-06-29T10:47:41Z</time>
      </trkpt>
      <trkpt lat="48.64574" lon="6.24712">
        <ele>203.8</ele>
        <time>2020-06-29T10:47:42Z</time>
      </trkpt>
      <trkpt lat="48.64577" lon="6.24706">
        <ele>203.9</ele>
        <time>2020-06-29T10:47:43Z</time>
      </trkpt>
      <trkpt lat="48.6458" lon="6.24699">
        <ele>204</ele>
        <time>2020-06-29T10:47:44Z</time>
      </trkpt>
      <trkpt lat="48.64584" lon="6.24692">
        <ele>204.2</ele>
        <time>2020-06-29T10:47:45Z</time>
      </trkpt>
      <trkpt lat="48.64587" lon="6.24686">
        <ele>204.3</ele>
        <time>2020-06-29T10:47:46Z</time>
      </trkpt>
      <trkpt lat="48.6459" lon="6.24678">
        <ele>204.5</ele>
        <time>2020-06-29T10:47:47Z</time>
      </trkpt>
      <trkpt lat="48.64594" lon="6.24671">
        <ele>204.6</ele>
        <time>2020-06-29T10:47:48Z</time>
      </trkpt>
      <trkpt lat="48.64599" lon="6.24665">
        <ele>204.7</ele>
        <time>2020-06-29T10:47:49Z</time>
      </trkpt>
      <trkpt lat="48.64603" lon="6.24659">
        <ele>204.8</ele>
        <time>2020-06-29T10:47:50Z</time>
      </trkpt>
      <trkpt lat="48.64607" lon="6.24652">
        <ele>204.9</ele>
        <time>2020-06-29T10:47:51Z</time>
      </trkpt>
      <trkpt lat="48.6461" lon="6.24645">
        <ele>205</ele>
        <time>2020-06-29T10:47:52Z</time>
      </trkpt>
      <trkpt lat="48.64613" lon="6.24638">
        <ele>205</ele>
        <time>2020-06-29T10:47:53Z</time>
      </trkpt>
      <trkpt lat="48.64617" lon="6.2463">
        <ele>205.1</ele>
        <time>2020-06-29T10:47:54Z</time>
      </trkpt>
      <trkpt lat="48.6462" lon="6.24622">
        <ele>205.1</ele>
        <time>2020-06-29T10:47:55Z</time>
      </trkpt>
      <trkpt lat="48.64624" lon="6.24614">
        <ele>205.1</ele>
        <time>2020-06-29T10:47:56Z</time>
      </trkpt>
      <trkpt lat="48.64627" lon="6.24606">
        <ele>205.2</ele>
        <time>2020-06-29T10:47:57Z</time>
      </trkpt>
      <trkpt lat="48.64631" lon="6.24597">
        <ele>205.2</ele>
        <time>2020-06-29T10:47:58Z</time>
      </trkpt>
      <trkpt lat="48.64634" lon="6.24589">
        <ele>205.2</ele>
        <time>2020-06-29T10:47:59Z</time>
      </trkpt>
      <trkpt lat="48.64637" lon="6.2458">
        <ele>205.2</ele>
        <time>2020-06-29T10:48:00Z</time>
      </trkpt>
      <trkpt lat="48.64639" lon="6.24572">
        <ele>205.2</ele>
        <time>2020-06-29T10:48:01Z</time>
      </trkpt>
      <trkpt lat="48.64642" lon="6.24563">
        <ele>205.2</ele>
        <time>2020-06-29T10:48:02Z</time>
      </trkpt>
      <trkpt lat="48.64644" lon="6.24553">
        <ele>205.3</ele>
        <time>2020-06-29T10:48:03Z</time>
      </trkpt>
      <trkpt lat="48.64647" lon="6.24544">
        <ele>205.3</ele>
        <time>2020-06-29T10:48:04Z</time>
      </trkpt>
      <trkpt lat="48.6465" lon="6.24534">
        <ele>205.3</ele>
        <time>2020-06-29T10:48:05Z</time>
      </trkpt>
      <trkpt lat="48.64653" lon="6.24525">
        <ele>205.4</ele>
        <time>2020-06-29T10:48:06Z</time>
      </trkpt>
      <trkpt lat="48.64656" lon="6.24517">
        <ele>205.4</ele>
        <time>2020-06-29T10:48:07Z</time>
      </trkpt>
      <trkpt lat="48.64658" lon="6.24507">
        <ele>205.5</ele>
        <time>2020-06-29T10:48:08Z</time>
      </trkpt>
      <trkpt lat="48.64661" lon="6.24498">
        <ele>205.5</ele>
        <time>2020-06-29T10:48:09Z</time>
      </trkpt>
      <trkpt lat="48.64664" lon="6.24489">
        <ele>205.5</ele>
        <time>2020-06-29T10:48:10Z</time>
      </trkpt>
      <trkpt lat="48.64666" lon="6.2448">
        <ele>205.6</ele>
        <time>2020-06-29T10:48:11Z</time>
      </trkpt>
      <trkpt lat="48.64669" lon="6.2447">
        <ele>205.6</ele>
        <time>2020-06-29T10:48:12Z</time>
      </trkpt>
      <trkpt lat="48.64671" lon="6.24462">
        <ele>205.6</ele>
        <time>2020-06-29T10:48:13Z</time>
      </trkpt>
      <trkpt lat="48.64674" lon="6.24454">
        <ele>205.6</ele>
        <time>2020-06-29T10:48:14Z</time>
      </trkpt>
      <trkpt lat="48.64676" lon="6.24445">
        <ele>205.6</ele>
        <time>2020-06-29T10:48:15Z</time>
      </trkpt>
      <trkpt lat="48.64678" lon="6.24437">
        <ele>205.6</ele>
        <time>2020-06-29T10:48:16Z</time>
      </trkpt>
      <trkpt lat="48.64681" lon="6.24428">
        <ele>205.6</ele>
        <time>2020-06-29T10:48:17Z</time>
      </trkpt>
      <trkpt lat="48.64684" lon="6.2442">
        <ele>205.7</ele>
        <time>2020-06-29T10:48:18Z</time>
      </trkpt>
      <trkpt lat="48.64686" lon="6.24411">
        <ele>205.7</ele>
        <time>2020-06-29T10:48:19Z</time>
      </trkpt>
      <trkpt lat="48.64689" lon="6.24402">
        <ele>205.7</ele>
        <time>2020-06-29T10:48:20Z</time>
      </trkpt>
      <trkpt lat="48.64691" lon="6.24393">
        <ele>205.7</ele>
        <time>2020-06-29T10:48:21Z</time>
      </trkpt>
      <trkpt lat="48.64694" lon="6.24385">
        <ele>205.8</ele>
        <time>2020-06-29T10:48:22Z</time>
      </trkpt>
      <trkpt lat="48.64698" lon="6.24377">
        <ele>205.8</ele>
        <time>2020-06-29T10:48:23Z</time>
      </trkpt>
      <trkpt lat="48.64701" lon="6.24369">
        <ele>205.8</ele>
        <time>2020-06-29T10:48:24Z</time>
      </trkpt>
      <trkpt lat="48.64705" lon="6.24361">
        <ele>205.9</ele>
        <time>2020-06-29T10:48:25Z</time>
      </trkpt>
      <trkpt lat="48.64708" lon="6.24353">
        <ele>205.9</ele>
        <time>2020-06-29T10:48:26Z</time>
      </trkpt>
      <trkpt lat="48.64712" lon="6.24345">
        <ele>206</ele>
        <time>2020-06-29T10:48:27Z</time>
      </trkpt>
      <trkpt lat="48.64716" lon="6.24337">
        <ele>206.1</ele>
        <time>2020-06-29T10:48:28Z</time>
      </trkpt>
      <trkpt lat="48.6472" lon="6.24329">
        <ele>206.2</ele>
        <time>2020-06-29T10:48:29Z</time>
      </trkpt>
      <trkpt lat="48.64725" lon="6.24322">
        <ele>206.3</ele>
        <time>2020-06-29T10:48:30Z</time>
      </trkpt>
      <trkpt lat="48.64729" lon="6.24315">
        <ele>206.4</ele>
        <time>2020-06-29T10:48:31Z</time>
      </trkpt>
      <trkpt lat="48.64734" lon="6.24307">
        <ele>206.5</ele>
        <time>2020-06-29T10:48:32Z</time>
      </trkpt>
      <trkpt lat="48.64738" lon="6.24299">
        <ele>206.6</ele>
        <time>2020-06-29T10:48:33Z</time>
      </trkpt>
      <trkpt lat="48.64742" lon="6.24292">
        <ele>206.7</ele>
        <time>2020-06-29T10:48:34Z</time>
      </trkpt>
      <trkpt lat="48.64747" lon="6.24285">
        <ele>206.7</ele>
        <time>2020-06-29T10:48:35Z</time>
      </trkpt>
      <trkpt lat="48.64751" lon="6.24278">
        <ele>206.8</ele>
        <time>2020-06-29T10:48:36Z</time>
      </trkpt>
      <trkpt lat="48.64755" lon="6.24271">
        <ele>206.9</ele>
        <time>2020-06-29T10:48:37Z</time>
      </trkpt>
      <trkpt lat="48.64759" lon="6.24264">
        <ele>207.1</ele>
        <time>2020-06-29T10:48:38Z</time>
      </trkpt>
      <trkpt lat="48.64763" lon="6.24257">
        <ele>207.3</ele>
        <time>2020-06-29T10:48:39Z</time>
      </trkpt>
      <trkpt lat="48.64767" lon="6.24249">
        <ele>207.5</ele>
        <time>2020-06-29T10:48:40Z</time>
      </trkpt>
      <trkpt lat="48.64771" lon="6.24242">
        <ele>207.8</ele>
        <time>2020-06-29T10:48:41Z</time>
      </trkpt>
      <trkpt lat="48.64773" lon="6.24236">
        <ele>208</ele>
        <time>2020-06-29T10:48:42Z</time>
      </trkpt>
      <trkpt lat="48.64776" lon="6.2423">
        <ele>208.2</ele>
        <time>2020-06-29T10:48:43Z</time>
      </trkpt>
      <trkpt lat="48.64779" lon="6.24223">
        <ele>208.4</ele>
        <time>2020-06-29T10:48:44Z</time>
      </trkpt>
      <trkpt lat="48.64782" lon="6.24215">
        <ele>208.6</ele>
        <time>2020-06-29T10:48:45Z</time>
      </trkpt>
      <trkpt lat="48.64786" lon="6.24208">
        <ele>208.7</ele>
        <time>2020-06-29T10:48:46Z</time>
      </trkpt>
      <trkpt lat="48.64788" lon="6.24204">
        <ele>208.8</ele>
        <time>2020-06-29T10:48:47Z</time>
      </trkpt>
      <trkpt lat="48.64791" lon="6.24198">
        <ele>209</ele>
        <time>2020-06-29T10:48:48Z</time>
      </trkpt>
      <trkpt lat="48.64794" lon="6.24192">
        <ele>209.2</ele>
        <time>2020-06-29T10:48:49Z</time>
      </trkpt>
      <trkpt lat="48.64799" lon="6.24184">
        <ele>209.4</ele>
        <time>2020-06-29T10:48:50Z</time>
      </trkpt>
      <trkpt lat="48.64803" lon="6.24178">
        <ele>209.6</ele>
        <time>2020-06-29T10:48:51Z</time>
      </trkpt>
      <trkpt lat="48.64808" lon="6.24172">
        <ele>209.9</ele>
        <time>2020-06-29T10:48:52Z</time>
      </trkpt>
      <trkpt lat="48.64813" lon="6.24165">
        <ele>210.3</ele>
        <time>2020-06-29T10:48:53Z</time>
      </trkpt>
      <trkpt lat="48.64817" lon="6.2416">
        <ele>210.4</ele>
        <time>2020-06-29T10:48:54Z</time>
      </trkpt>
      <trkpt lat="48.64822" lon="6.24156">
        <ele>210.5</ele>
        <time>2020-06-29T10:48:55Z</time>
      </trkpt>
      <trkpt lat="48.64825" lon="6.24153">
        <ele>210.5</ele>
        <time>2020-06-29T10:48:56Z</time>
      </trkpt>
      <trkpt lat="48.64828" lon="6.24147">
        <ele>210.6</ele>
        <time>2020-06-29T10:48:57Z</time>
      </trkpt>
      <trkpt lat="48.6483" lon="6.24139">
        <ele>210.8</ele>
        <time>2020-06-29T10:48:58Z</time>
      </trkpt>
      <trkpt lat="48.64831" lon="6.24132">
        <ele>211.2</ele>
        <time>2020-06-29T10:48:59Z</time>
      </trkpt>
      <trkpt lat="48.64832" lon="6.24126">
        <ele>211.5</ele>
        <time>2020-06-29T10:49:00Z</time>
      </trkpt>
      <trkpt lat="48.64834" lon="6.24122">
        <ele>211.8</ele>
        <time>2020-06-29T10:49:01Z</time>
      </trkpt>
      <trkpt lat="48.64837" lon="6.24116">
        <ele>212.1</ele>
        <time>2020-06-29T10:49:02Z</time>
      </trkpt>
      <trkpt lat="48.64839" lon="6.2411">
        <ele>212.5</ele>
        <time>2020-06-29T10:49:03Z</time>
      </trkpt>
      <trkpt lat="48.64842" lon="6.24104">
        <ele>212.8</ele>
        <time>2020-06-29T10:49:04Z</time>
      </trkpt>
      <trkpt lat="48.64844" lon="6.24099">
        <ele>213.1</ele>
        <time>2020-06-29T10:49:05Z</time>
      </trkpt>
      <trkpt lat="48.64846" lon="6.24094">
        <ele>213.4</ele>
        <time>2020-06-29T10:49:06Z</time>
      </trkpt>
      <trkpt lat="48.64848" lon="6.24089">
        <ele>213.6</ele>
        <time>2020-06-29T10:49:07Z</time>
      </trkpt>
      <trkpt lat="48.64851" lon="6.24085">
        <ele>213.7</ele>
        <time>2020-06-29T10:49:08Z</time>
      </trkpt>
      <trkpt lat="48.64854" lon="6.24079">
        <ele>213.9</ele>
        <time>2020-06-29T10:49:09Z</time>
      </trkpt>
      <trkpt lat="48.64858" lon="6.24074">
        <ele>214.1</ele>
        <time>2020-06-29T10:49:10Z</time>
      </trkpt>
      <trkpt lat="48.64862" lon="6.24068">
        <ele>214.2</ele>
        <time>2020-06-29T10:49:11Z</time>
      </trkpt>
      <trkpt lat="48.64865" lon="6.24062">
        <ele>214.3</ele>
        <time>2020-06-29T10:49:12Z</time>
      </trkpt>
      <trkpt lat="48.64869" lon="6.24055">
        <ele>214.5</ele>
        <time>2020-06-29T10:49:13Z</time>
      </trkpt>
      <trkpt lat="48.64872" lon="6.24049">
        <ele>214.6</ele>
        <time>2020-06-29T10:49:14Z</time>
      </trkpt>
      <trkpt lat="48.64875" lon="6.24043">
        <ele>214.6</ele>
        <time>2020-06-29T10:49:15Z</time>
      </trkpt>
      <trkpt lat="48.64878" lon="6.24037">
        <ele>214.7</ele>
        <time>2020-06-29T10:49:16Z</time>
      </trkpt>
      <trkpt lat="48.64881" lon="6.24032">
        <ele>214.7</ele>
        <time>2020-06-29T10:49:17Z</time>
      </trkpt>
      <trkpt lat="48.64885" lon="6.24022">
        <ele>214.8</ele>
        <time>2020-06-29T10:49:18Z</time>
      </trkpt>
      <trkpt lat="48.64888" lon="6.24017">
        <ele>214.9</ele>
        <time>2020-06-29T10:49:19Z</time>
      </trkpt>
      <trkpt lat="48.64892" lon="6.2401">
        <ele>214.9</ele>
        <time>2020-06-29T10:49:20Z</time>
      </trkpt>
      <trkpt lat="48.64895" lon="6.24003">
        <ele>215</ele>
        <time>2020-06-29T10:49:21Z</time>
      </trkpt>
      <trkpt lat="48.64898" lon="6.23997">
        <ele>215</ele>
        <time>2020-06-29T10:49:22Z</time>
      </trkpt>
      <trkpt lat="48.64901" lon="6.23989">
        <ele>215</ele>
        <time>2020-06-29T10:49:23Z</time>
      </trkpt>
      <trkpt lat="48.64905" lon="6.23982">
        <ele>214.9</ele>
        <time>2020-06-29T10:49:24Z</time>
      </trkpt>
      <trkpt lat="48.64909" lon="6.23974">
        <ele>214.9</ele>
        <time>2020-06-29T10:49:25Z</time>
      </trkpt>
      <trkpt lat="48.64912" lon="6.23969">
        <ele>214.9</ele>
        <time>2020-06-29T10:49:26Z</time>
      </trkpt>
      <trkpt lat="48.64916" lon="6.23962">
        <ele>214.9</ele>
        <time>2020-06-29T10:49:27Z</time>
      </trkpt>
      <trkpt lat="48.6492" lon="6.23954">
        <ele>214.9</ele>
        <time>2020-06-29T10:49:28Z</time>
      </trkpt>
      <trkpt lat="48.64923" lon="6.23948">
        <ele>214.8</ele>
        <time>2020-06-29T10:49:29Z</time>
      </trkpt>
      <trkpt lat="48.64926" lon="6.23942">
        <ele>214.8</ele>
        <time>2020-06-29T10:49:30Z</time>
      </trkpt>
      <trkpt lat="48.6493" lon="6.23935">
        <ele>214.8</ele>
        <time>2020-06-29T10:49:31Z</time>
      </trkpt>
      <trkpt lat="48.64935" lon="6.23928">
        <ele>214.8</ele>
        <time>2020-06-29T10:49:32Z</time>
      </trkpt>
      <trkpt lat="48.64939" lon="6.2392">
        <ele>214.8</ele>
        <time>2020-06-29T10:49:33Z</time>
      </trkpt>
      <trkpt lat="48.64943" lon="6.23914">
        <ele>214.8</ele>
        <time>2020-06-29T10:49:34Z</time>
      </trkpt>
      <trkpt lat="48.64946" lon="6.23909">
        <ele>214.8</ele>
        <time>2020-06-29T10:49:35Z</time>
      </trkpt>
      <trkpt lat="48.6495" lon="6.23903">
        <ele>214.8</ele>
        <time>2020-06-29T10:49:36Z</time>
      </trkpt>
      <trkpt lat="48.64953" lon="6.23895">
        <ele>214.9</ele>
        <time>2020-06-29T10:49:37Z</time>
      </trkpt>
      <trkpt lat="48.64957" lon="6.23888">
        <ele>214.9</ele>
        <time>2020-06-29T10:49:38Z</time>
      </trkpt>
      <trkpt lat="48.6496" lon="6.23882">
        <ele>214.9</ele>
        <time>2020-06-29T10:49:39Z</time>
      </trkpt>
      <trkpt lat="48.64964" lon="6.23877">
        <ele>214.9</ele>
        <time>2020-06-29T10:49:40Z</time>
      </trkpt>
      <trkpt lat="48.64967" lon="6.23871">
        <ele>214.9</ele>
        <time>2020-06-29T10:49:41Z</time>
      </trkpt>
      <trkpt lat="48.6497" lon="6.23865">
        <ele>215</ele>
        <time>2020-06-29T10:49:42Z</time>
      </trkpt>
      <trkpt lat="48.64974" lon="6.23859">
        <ele>215</ele>
        <time>2020-06-29T10:49:43Z</time>
      </trkpt>
      <trkpt lat="48.64978" lon="6.23852">
        <ele>215.1</ele>
        <time>2020-06-29T10:49:44Z</time>
      </trkpt>
      <trkpt lat="48.64982" lon="6.23845">
        <ele>215.1</ele>
        <time>2020-06-29T10:49:45Z</time>
      </trkpt>
      <trkpt lat="48.64986" lon="6.23839">
        <ele>215.1</ele>
        <time>2020-06-29T10:49:46Z</time>
      </trkpt>
      <trkpt lat="48.64989" lon="6.23834">
        <ele>215.1</ele>
        <time>2020-06-29T10:49:47Z</time>
      </trkpt>
      <trkpt lat="48.64993" lon="6.23826">
        <ele>215.1</ele>
        <time>2020-06-29T10:49:48Z</time>
      </trkpt>
      <trkpt lat="48.64997" lon="6.23818">
        <ele>215.1</ele>
        <time>2020-06-29T10:49:49Z</time>
      </trkpt>
      <trkpt lat="48.65" lon="6.2381">
        <ele>215.1</ele>
        <time>2020-06-29T10:49:50Z</time>
      </trkpt>
      <trkpt lat="48.65003" lon="6.23803">
        <ele>215.1</ele>
        <time>2020-06-29T10:49:51Z</time>
      </trkpt>
      <trkpt lat="48.65007" lon="6.23795">
        <ele>215.1</ele>
        <time>2020-06-29T10:49:52Z</time>
      </trkpt>
      <trkpt lat="48.6501" lon="6.2379">
        <ele>215.1</ele>
        <time>2020-06-29T10:49:53Z</time>
      </trkpt>
      <trkpt lat="48.65014" lon="6.23784">
        <ele>215.1</ele>
        <time>2020-06-29T10:49:54Z</time>
      </trkpt>
      <trkpt lat="48.65017" lon="6.23777">
        <ele>215.1</ele>
        <time>2020-06-29T10:49:55Z</time>
      </trkpt>
      <trkpt lat="48.65021" lon="6.23772">
        <ele>215.1</ele>
        <time>2020-06-29T10:49:56Z</time>
      </trkpt>
      <trkpt lat="48.65024" lon="6.23764">
        <ele>215.1</ele>
        <time>2020-06-29T10:49:57Z</time>
      </trkpt>
      <trkpt lat="48.65027" lon="6.23759">
        <ele>215.1</ele>
        <time>2020-06-29T10:49:58Z</time>
      </trkpt>
      <trkpt lat="48.65031" lon="6.23752">
        <ele>215.1</ele>
        <time>2020-06-29T10:49:59Z</time>
      </trkpt>
      <trkpt lat="48.65036" lon="6.23745">
        <ele>215.1</ele>
        <time>2020-06-29T10:50:00Z</time>
      </trkpt>
      <trkpt lat="48.6504" lon="6.23739">
        <ele>215.1</ele>
        <time>2020-06-29T10:50:01Z</time>
      </trkpt>
      <trkpt lat="48.65044" lon="6.23732">
        <ele>215.1</ele>
        <time>2020-06-29T10:50:02Z</time>
      </trkpt>
      <trkpt lat="48.65049" lon="6.23725">
        <ele>215.1</ele>
        <time>2020-06-29T10:50:03Z</time>
      </trkpt>
      <trkpt lat="48.65053" lon="6.23718">
        <ele>215.1</ele>
        <time>2020-06-29T10:50:04Z</time>
      </trkpt>
      <trkpt lat="48.65057" lon="6.2371">
        <ele>215.1</ele>
        <time>2020-06-29T10:50:05Z</time>
      </trkpt>
      <trkpt lat="48.6506" lon="6.23703">
        <ele>215.1</ele>
        <time>2020-06-29T10:50:06Z</time>
      </trkpt>
      <trkpt lat="48.65064" lon="6.23696">
        <ele>215.2</ele>
        <time>2020-06-29T10:50:07Z</time>
      </trkpt>
      <trkpt lat="48.65067" lon="6.23688">
        <ele>215.2</ele>
        <time>2020-06-29T10:50:08Z</time>
      </trkpt>
      <trkpt lat="48.6507" lon="6.2368">
        <ele>215.2</ele>
        <time>2020-06-29T10:50:09Z</time>
      </trkpt>
      <trkpt lat="48.65074" lon="6.23674">
        <ele>215.2</ele>
        <time>2020-06-29T10:50:10Z</time>
      </trkpt>
      <trkpt lat="48.65078" lon="6.23667">
        <ele>215.3</ele>
        <time>2020-06-29T10:50:11Z</time>
      </trkpt>
      <trkpt lat="48.65082" lon="6.2366">
        <ele>215.3</ele>
        <time>2020-06-29T10:50:12Z</time>
      </trkpt>
      <trkpt lat="48.65085" lon="6.23654">
        <ele>215.3</ele>
        <time>2020-06-29T10:50:13Z</time>
      </trkpt>
      <trkpt lat="48.65089" lon="6.23647">
        <ele>215.3</ele>
        <time>2020-06-29T10:50:14Z</time>
      </trkpt>
      <trkpt lat="48.65093" lon="6.23641">
        <ele>215.3</ele>
        <time>2020-06-29T10:50:15Z</time>
      </trkpt>
      <trkpt lat="48.65097" lon="6.23634">
        <ele>215.3</ele>
        <time>2020-06-29T10:50:16Z</time>
      </trkpt>
      <trkpt lat="48.651" lon="6.23628">
        <ele>215.3</ele>
        <time>2020-06-29T10:50:17Z</time>
      </trkpt>
      <trkpt lat="48.65104" lon="6.23621">
        <ele>215.3</ele>
        <time>2020-06-29T10:50:18Z</time>
      </trkpt>
      <trkpt lat="48.65107" lon="6.23613">
        <ele>215.2</ele>
        <time>2020-06-29T10:50:19Z</time>
      </trkpt>
      <trkpt lat="48.65112" lon="6.23605">
        <ele>215.2</ele>
        <time>2020-06-29T10:50:20Z</time>
      </trkpt>
      <trkpt lat="48.65115" lon="6.23597">
        <ele>215.2</ele>
        <time>2020-06-29T10:50:21Z</time>
      </trkpt>
      <trkpt lat="48.65119" lon="6.2359">
        <ele>215.3</ele>
        <time>2020-06-29T10:50:22Z</time>
      </trkpt>
      <trkpt lat="48.65124" lon="6.23581">
        <ele>215.3</ele>
        <time>2020-06-29T10:50:23Z</time>
      </trkpt>
      <trkpt lat="48.65128" lon="6.23574">
        <ele>215.3</ele>
        <time>2020-06-29T10:50:24Z</time>
      </trkpt>
      <trkpt lat="48.65132" lon="6.23566">
        <ele>215.3</ele>
        <time>2020-06-29T10:50:25Z</time>
      </trkpt>
      <trkpt lat="48.65136" lon="6.23559">
        <ele>215.3</ele>
        <time>2020-06-29T10:50:26Z</time>
      </trkpt>
      <trkpt lat="48.6514" lon="6.23552">
        <ele>215.3</ele>
        <time>2020-06-29T10:50:27Z</time>
      </trkpt>
      <trkpt lat="48.65145" lon="6.23545">
        <ele>215.3</ele>
        <time>2020-06-29T10:50:28Z</time>
      </trkpt>
      <trkpt lat="48.65149" lon="6.23539">
        <ele>215.3</ele>
        <time>2020-06-29T10:50:29Z</time>
      </trkpt>
      <trkpt lat="48.65152" lon="6.2353">
        <ele>215.4</ele>
        <time>2020-06-29T10:50:30Z</time>
      </trkpt>
      <trkpt lat="48.65156" lon="6.23523">
        <ele>215.4</ele>
        <time>2020-06-29T10:50:31Z</time>
      </trkpt>
      <trkpt lat="48.65159" lon="6.23516">
        <ele>215.4</ele>
        <time>2020-06-29T10:50:32Z</time>
      </trkpt>
      <trkpt lat="48.65164" lon="6.23507">
        <ele>215.5</ele>
        <time>2020-06-29T10:50:33Z</time>
      </trkpt>
      <trkpt lat="48.65168" lon="6.23501">
        <ele>215.5</ele>
        <time>2020-06-29T10:50:34Z</time>
      </trkpt>
      <trkpt lat="48.65172" lon="6.23494">
        <ele>215.4</ele>
        <time>2020-06-29T10:50:35Z</time>
      </trkpt>
      <trkpt lat="48.65176" lon="6.23488">
        <ele>215.4</ele>
        <time>2020-06-29T10:50:36Z</time>
      </trkpt>
      <trkpt lat="48.6518" lon="6.23481">
        <ele>215.4</ele>
        <time>2020-06-29T10:50:37Z</time>
      </trkpt>
      <trkpt lat="48.65183" lon="6.23475">
        <ele>215.4</ele>
        <time>2020-06-29T10:50:38Z</time>
      </trkpt>
      <trkpt lat="48.65187" lon="6.23467">
        <ele>215.3</ele>
        <time>2020-06-29T10:50:39Z</time>
      </trkpt>
      <trkpt lat="48.65191" lon="6.2346">
        <ele>215.3</ele>
        <time>2020-06-29T10:50:40Z</time>
      </trkpt>
      <trkpt lat="48.65195" lon="6.23454">
        <ele>215.3</ele>
        <time>2020-06-29T10:50:41Z</time>
      </trkpt>
      <trkpt lat="48.65198" lon="6.23449">
        <ele>215.3</ele>
        <time>2020-06-29T10:50:42Z</time>
      </trkpt>
      <trkpt lat="48.65201" lon="6.23443">
        <ele>215.3</ele>
        <time>2020-06-29T10:50:43Z</time>
      </trkpt>
      <trkpt lat="48.65205" lon="6.23439">
        <ele>215.4</ele>
        <time>2020-06-29T10:50:44Z</time>
      </trkpt>
      <trkpt lat="48.6521" lon="6.23436">
        <ele>215.4</ele>
        <time>2020-06-29T10:50:45Z</time>
      </trkpt>
      <trkpt lat="48.65215" lon="6.23436">
        <ele>215.4</ele>
        <time>2020-06-29T10:50:46Z</time>
      </trkpt>
      <trkpt lat="48.6522" lon="6.23438">
        <ele>215.5</ele>
        <time>2020-06-29T10:50:47Z</time>
      </trkpt>
      <trkpt lat="48.65225" lon="6.23439">
        <ele>215.6</ele>
        <time>2020-06-29T10:50:48Z</time>
      </trkpt>
      <trkpt lat="48.6523" lon="6.23438">
        <ele>215.6</ele>
        <time>2020-06-29T10:50:49Z</time>
      </trkpt>
      <trkpt lat="48.65236" lon="6.23433">
        <ele>215.7</ele>
        <time>2020-06-29T10:50:50Z</time>
      </trkpt>
      <trkpt lat="48.65238" lon="6.23426">
        <ele>215.7</ele>
        <time>2020-06-29T10:50:51Z</time>
      </trkpt>
      <trkpt lat="48.6524" lon="6.2342">
        <ele>216</ele>
        <time>2020-06-29T10:50:52Z</time>
      </trkpt>
      <trkpt lat="48.65239" lon="6.23415">
        <ele>216</ele>
        <time>2020-06-29T10:50:53Z</time>
      </trkpt>
      <trkpt lat="48.65239" lon="6.23409">
        <ele>216</ele>
        <time>2020-06-29T10:50:54Z</time>
      </trkpt>
      <trkpt lat="48.65239" lon="6.23404">
        <ele>216.2</ele>
        <time>2020-06-29T10:50:55Z</time>
      </trkpt>
      <trkpt lat="48.6524" lon="6.23398">
        <ele>216.2</ele>
        <time>2020-06-29T10:50:56Z</time>
      </trkpt>
      <trkpt lat="48.65241" lon="6.23393">
        <ele>216.2</ele>
        <time>2020-06-29T10:50:57Z</time>
      </trkpt>
      <trkpt lat="48.65244" lon="6.23388">
        <ele>216.2</ele>
        <time>2020-06-29T10:50:58Z</time>
      </trkpt>
      <trkpt lat="48.65245" lon="6.23384">
        <ele>216.2</ele>
        <time>2020-06-29T10:50:59Z</time>
      </trkpt>
      <trkpt lat="48.65248" lon="6.23381">
        <ele>216.1</ele>
        <time>2020-06-29T10:51:00Z</time>
      </trkpt>
      <trkpt lat="48.6525" lon="6.23377">
        <ele>216.1</ele>
        <time>2020-06-29T10:51:01Z</time>
      </trkpt>
      <trkpt lat="48.65252" lon="6.23373">
        <ele>216.1</ele>
        <time>2020-06-29T10:51:02Z</time>
      </trkpt>
      <trkpt lat="48.65255" lon="6.23371">
        <ele>216</ele>
        <time>2020-06-29T10:51:03Z</time>
      </trkpt>
      <trkpt lat="48.65259" lon="6.23369">
        <ele>216</ele>
        <time>2020-06-29T10:51:04Z</time>
      </trkpt>
      <trkpt lat="48.65264" lon="6.23366">
        <ele>216</ele>
        <time>2020-06-29T10:51:05Z</time>
      </trkpt>
      <trkpt lat="48.65269" lon="6.23363">
        <ele>215.9</ele>
        <time>2020-06-29T10:51:06Z</time>
      </trkpt>
      <trkpt lat="48.65274" lon="6.2336">
        <ele>215.9</ele>
        <time>2020-06-29T10:51:07Z</time>
      </trkpt>
      <trkpt lat="48.65279" lon="6.23355">
        <ele>215.8</ele>
        <time>2020-06-29T10:51:08Z</time>
      </trkpt>
      <trkpt lat="48.65283" lon="6.23351">
        <ele>215.8</ele>
        <time>2020-06-29T10:51:09Z</time>
      </trkpt>
      <trkpt lat="48.65288" lon="6.23345">
        <ele>215.7</ele>
        <time>2020-06-29T10:51:10Z</time>
      </trkpt>
      <trkpt lat="48.65292" lon="6.23341">
        <ele>215.7</ele>
        <time>2020-06-29T10:51:11Z</time>
      </trkpt>
      <trkpt lat="48.65297" lon="6.23338">
        <ele>215.6</ele>
        <time>2020-06-29T10:51:12Z</time>
      </trkpt>
      <trkpt lat="48.65301" lon="6.23335">
        <ele>215.6</ele>
        <time>2020-06-29T10:51:13Z</time>
      </trkpt>
      <trkpt lat="48.65306" lon="6.2333">
        <ele>215.5</ele>
        <time>2020-06-29T10:51:14Z</time>
      </trkpt>
      <trkpt lat="48.6531" lon="6.23326">
        <ele>215.5</ele>
        <time>2020-06-29T10:51:15Z</time>
      </trkpt>
      <trkpt lat="48.65315" lon="6.23322">
        <ele>215.4</ele>
        <time>2020-06-29T10:51:16Z</time>
      </trkpt>
      <trkpt lat="48.6532" lon="6.23318">
        <ele>215.4</ele>
        <time>2020-06-29T10:51:17Z</time>
      </trkpt>
      <trkpt lat="48.65326" lon="6.23315">
        <ele>215.3</ele>
        <time>2020-06-29T10:51:18Z</time>
      </trkpt>
      <trkpt lat="48.65331" lon="6.23312">
        <ele>215.3</ele>
        <time>2020-06-29T10:51:19Z</time>
      </trkpt>
      <trkpt lat="48.65338" lon="6.23306">
        <ele>215.3</ele>
        <time>2020-06-29T10:51:20Z</time>
      </trkpt>
      <trkpt lat="48.65344" lon="6.233">
        <ele>215.2</ele>
        <time>2020-06-29T10:51:21Z</time>
      </trkpt>
      <trkpt lat="48.65349" lon="6.23296">
        <ele>215.1</ele>
        <time>2020-06-29T10:51:22Z</time>
      </trkpt>
      <trkpt lat="48.65355" lon="6.23291">
        <ele>215.1</ele>
        <time>2020-06-29T10:51:23Z</time>
      </trkpt>
      <trkpt lat="48.65361" lon="6.23286">
        <ele>215</ele>
        <time>2020-06-29T10:51:24Z</time>
      </trkpt>
      <trkpt lat="48.65367" lon="6.23283">
        <ele>214.9</ele>
        <time>2020-06-29T10:51:25Z</time>
      </trkpt>
      <trkpt lat="48.65372" lon="6.23281">
        <ele>214.8</ele>
        <time>2020-06-29T10:51:26Z</time>
      </trkpt>
      <trkpt lat="48.65377" lon="6.23278">
        <ele>214.7</ele>
        <time>2020-06-29T10:51:27Z</time>
      </trkpt>
      <trkpt lat="48.65383" lon="6.23275">
        <ele>214.6</ele>
        <time>2020-06-29T10:51:28Z</time>
      </trkpt>
      <trkpt lat="48.6539" lon="6.23273">
        <ele>214.5</ele>
        <time>2020-06-29T10:51:29Z</time>
      </trkpt>
      <trkpt lat="48.65396" lon="6.2327">
        <ele>214.5</ele>
        <time>2020-06-29T10:51:30Z</time>
      </trkpt>
      <trkpt lat="48.65403" lon="6.23268">
        <ele>214.4</ele>
        <time>2020-06-29T10:51:31Z</time>
      </trkpt>
      <trkpt lat="48.6541" lon="6.23265">
        <ele>214.3</ele>
        <time>2020-06-29T10:51:32Z</time>
      </trkpt>
      <trkpt lat="48.65415" lon="6.23262">
        <ele>214.3</ele>
        <time>2020-06-29T10:51:33Z</time>
      </trkpt>
      <trkpt lat="48.65421" lon="6.2326">
        <ele>214.2</ele>
        <time>2020-06-29T10:51:34Z</time>
      </trkpt>
      <trkpt lat="48.65428" lon="6.23256">
        <ele>214.2</ele>
        <time>2020-06-29T10:51:35Z</time>
      </trkpt>
      <trkpt lat="48.65434" lon="6.23251">
        <ele>214.1</ele>
        <time>2020-06-29T10:51:36Z</time>
      </trkpt>
      <trkpt lat="48.6544" lon="6.23249">
        <ele>214</ele>
        <time>2020-06-29T10:51:37Z</time>
      </trkpt>
      <trkpt lat="48.65447" lon="6.23247">
        <ele>214</ele>
        <time>2020-06-29T10:51:38Z</time>
      </trkpt>
      <trkpt lat="48.65453" lon="6.23243">
        <ele>213.9</ele>
        <time>2020-06-29T10:51:39Z</time>
      </trkpt>
      <trkpt lat="48.6546" lon="6.23239">
        <ele>213.9</ele>
        <time>2020-06-29T10:51:40Z</time>
      </trkpt>
      <trkpt lat="48.65467" lon="6.23236">
        <ele>213.8</ele>
        <time>2020-06-29T10:51:41Z</time>
      </trkpt>
      <trkpt lat="48.65473" lon="6.23234">
        <ele>213.8</ele>
        <time>2020-06-29T10:51:42Z</time>
      </trkpt>
      <trkpt lat="48.6548" lon="6.23231">
        <ele>213.8</ele>
        <time>2020-06-29T10:51:43Z</time>
      </trkpt>
      <trkpt lat="48.65484" lon="6.23228">
        <ele>213.7</ele>
        <time>2020-06-29T10:51:44Z</time>
      </trkpt>
      <trkpt lat="48.6549" lon="6.23226">
        <ele>213.7</ele>
        <time>2020-06-29T10:51:45Z</time>
      </trkpt>
      <trkpt lat="48.65497" lon="6.23225">
        <ele>213.6</ele>
        <time>2020-06-29T10:51:46Z</time>
      </trkpt>
      <trkpt lat="48.65501" lon="6.23223">
        <ele>213.6</ele>
        <time>2020-06-29T10:51:47Z</time>
      </trkpt>
      <trkpt lat="48.65508" lon="6.2322">
        <ele>213.6</ele>
        <time>2020-06-29T10:51:48Z</time>
      </trkpt>
      <trkpt lat="48.65514" lon="6.23218">
        <ele>213.6</ele>
        <time>2020-06-29T10:51:49Z</time>
      </trkpt>
      <trkpt lat="48.65519" lon="6.23215">
        <ele>213.6</ele>
        <time>2020-06-29T10:51:50Z</time>
      </trkpt>
      <trkpt lat="48.65525" lon="6.23213">
        <ele>213.6</ele>
        <time>2020-06-29T10:51:51Z</time>
      </trkpt>
      <trkpt lat="48.6553" lon="6.23212">
        <ele>213.5</ele>
        <time>2020-06-29T10:51:52Z</time>
      </trkpt>
      <trkpt lat="48.65536" lon="6.2321">
        <ele>213.4</ele>
        <time>2020-06-29T10:51:53Z</time>
      </trkpt>
      <trkpt lat="48.65541" lon="6.23208">
        <ele>213.3</ele>
        <time>2020-06-29T10:51:54Z</time>
      </trkpt>
      <trkpt lat="48.65547" lon="6.23206">
        <ele>213.2</ele>
        <time>2020-06-29T10:51:55Z</time>
      </trkpt>
      <trkpt lat="48.65551" lon="6.23203">
        <ele>213</ele>
        <time>2020-06-29T10:51:56Z</time>
      </trkpt>
      <trkpt lat="48.65557" lon="6.23199">
        <ele>212.9</ele>
        <time>2020-06-29T10:51:57Z</time>
      </trkpt>
      <trkpt lat="48.65564" lon="6.23193">
        <ele>212.7</ele>
        <time>2020-06-29T10:51:58Z</time>
      </trkpt>
      <trkpt lat="48.65573" lon="6.23189">
        <ele>212.5</ele>
        <time>2020-06-29T10:51:59Z</time>
      </trkpt>
      <trkpt lat="48.65579" lon="6.23184">
        <ele>212.3</ele>
        <time>2020-06-29T10:52:00Z</time>
      </trkpt>
      <trkpt lat="48.65586" lon="6.23179">
        <ele>212.1</ele>
        <time>2020-06-29T10:52:01Z</time>
      </trkpt>
      <trkpt lat="48.65591" lon="6.23175">
        <ele>212</ele>
        <time>2020-06-29T10:52:02Z</time>
      </trkpt>
      <trkpt lat="48.65597" lon="6.23169">
        <ele>211.9</ele>
        <time>2020-06-29T10:52:03Z</time>
      </trkpt>
      <trkpt lat="48.65602" lon="6.23164">
        <ele>211.9</ele>
        <time>2020-06-29T10:52:04Z</time>
      </trkpt>
      <trkpt lat="48.65607" lon="6.23159">
        <ele>211.8</ele>
        <time>2020-06-29T10:52:05Z</time>
      </trkpt>
      <trkpt lat="48.65612" lon="6.23154">
        <ele>211.7</ele>
        <time>2020-06-29T10:52:06Z</time>
      </trkpt>
      <trkpt lat="48.65618" lon="6.23149">
        <ele>211.6</ele>
        <time>2020-06-29T10:52:07Z</time>
      </trkpt>
      <trkpt lat="48.65622" lon="6.23143">
        <ele>211.6</ele>
        <time>2020-06-29T10:52:08Z</time>
      </trkpt>
      <trkpt lat="48.65627" lon="6.23138">
        <ele>211.5</ele>
        <time>2020-06-29T10:52:09Z</time>
      </trkpt>
      <trkpt lat="48.65633" lon="6.23134">
        <ele>211.4</ele>
        <time>2020-06-29T10:52:10Z</time>
      </trkpt>
      <trkpt lat="48.65638" lon="6.2313">
        <ele>211.3</ele>
        <time>2020-06-29T10:52:11Z</time>
      </trkpt>
      <trkpt lat="48.65644" lon="6.23125">
        <ele>211.2</ele>
        <time>2020-06-29T10:52:12Z</time>
      </trkpt>
      <trkpt lat="48.6565" lon="6.23122">
        <ele>211</ele>
        <time>2020-06-29T10:52:13Z</time>
      </trkpt>
      <trkpt lat="48.65656" lon="6.23119">
        <ele>210.9</ele>
        <time>2020-06-29T10:52:14Z</time>
      </trkpt>
      <trkpt lat="48.65662" lon="6.23116">
        <ele>210.8</ele>
        <time>2020-06-29T10:52:15Z</time>
      </trkpt>
      <trkpt lat="48.65668" lon="6.23113">
        <ele>210.7</ele>
        <time>2020-06-29T10:52:16Z</time>
      </trkpt>
      <trkpt lat="48.65673" lon="6.2311">
        <ele>210.6</ele>
        <time>2020-06-29T10:52:17Z</time>
      </trkpt>
      <trkpt lat="48.65677" lon="6.23106">
        <ele>210.5</ele>
        <time>2020-06-29T10:52:18Z</time>
      </trkpt>
      <trkpt lat="48.65682" lon="6.23103">
        <ele>210.4</ele>
        <time>2020-06-29T10:52:19Z</time>
      </trkpt>
      <trkpt lat="48.65686" lon="6.231">
        <ele>210.3</ele>
        <time>2020-06-29T10:52:20Z</time>
      </trkpt>
      <trkpt lat="48.6569" lon="6.23096">
        <ele>210.3</ele>
        <time>2020-06-29T10:52:21Z</time>
      </trkpt>
      <trkpt lat="48.65695" lon="6.23093">
        <ele>210.2</ele>
        <time>2020-06-29T10:52:22Z</time>
      </trkpt>
      <trkpt lat="48.65699" lon="6.2309">
        <ele>210.1</ele>
        <time>2020-06-29T10:52:23Z</time>
      </trkpt>
      <trkpt lat="48.65704" lon="6.23087">
        <ele>210</ele>
        <time>2020-06-29T10:52:24Z</time>
      </trkpt>
      <trkpt lat="48.65708" lon="6.23083">
        <ele>210</ele>
        <time>2020-06-29T10:52:25Z</time>
      </trkpt>
      <trkpt lat="48.65713" lon="6.2308">
        <ele>209.8</ele>
        <time>2020-06-29T10:52:26Z</time>
      </trkpt>
      <trkpt lat="48.65717" lon="6.23077">
        <ele>209.8</ele>
        <time>2020-06-29T10:52:27Z</time>
      </trkpt>
      <trkpt lat="48.65722" lon="6.23074">
        <ele>209.5</ele>
        <time>2020-06-29T10:52:28Z</time>
      </trkpt>
      <trkpt lat="48.65727" lon="6.23072">
        <ele>209.4</ele>
        <time>2020-06-29T10:52:29Z</time>
      </trkpt>
      <trkpt lat="48.65732" lon="6.23069">
        <ele>209.2</ele>
        <time>2020-06-29T10:52:30Z</time>
      </trkpt>
      <trkpt lat="48.65737" lon="6.23068">
        <ele>209</ele>
        <time>2020-06-29T10:52:31Z</time>
      </trkpt>
      <trkpt lat="48.65742" lon="6.23065">
        <ele>208.8</ele>
        <time>2020-06-29T10:52:32Z</time>
      </trkpt>
      <trkpt lat="48.65747" lon="6.23062">
        <ele>208.5</ele>
        <time>2020-06-29T10:52:33Z</time>
      </trkpt>
      <trkpt lat="48.65753" lon="6.23061">
        <ele>208.2</ele>
        <time>2020-06-29T10:52:34Z</time>
      </trkpt>
      <trkpt lat="48.65759" lon="6.23056">
        <ele>207.9</ele>
        <time>2020-06-29T10:52:35Z</time>
      </trkpt>
      <trkpt lat="48.65766" lon="6.23052">
        <ele>207.4</ele>
        <time>2020-06-29T10:52:36Z</time>
      </trkpt>
      <trkpt lat="48.65773" lon="6.23049">
        <ele>207</ele>
        <time>2020-06-29T10:52:37Z</time>
      </trkpt>
      <trkpt lat="48.6578" lon="6.23046">
        <ele>206.7</ele>
        <time>2020-06-29T10:52:38Z</time>
      </trkpt>
      <trkpt lat="48.65787" lon="6.23045">
        <ele>206.3</ele>
        <time>2020-06-29T10:52:39Z</time>
      </trkpt>
      <trkpt lat="48.65795" lon="6.23044">
        <ele>206</ele>
        <time>2020-06-29T10:52:40Z</time>
      </trkpt>
      <trkpt lat="48.65802" lon="6.2304">
        <ele>205.7</ele>
        <time>2020-06-29T10:52:41Z</time>
      </trkpt>
      <trkpt lat="48.65809" lon="6.23036">
        <ele>205.4</ele>
        <time>2020-06-29T10:52:42Z</time>
      </trkpt>
      <trkpt lat="48.65815" lon="6.2303">
        <ele>205.1</ele>
        <time>2020-06-29T10:52:43Z</time>
      </trkpt>
      <trkpt lat="48.65821" lon="6.23022">
        <ele>204.8</ele>
        <time>2020-06-29T10:52:44Z</time>
      </trkpt>
      <trkpt lat="48.65825" lon="6.23016">
        <ele>204.3</ele>
        <time>2020-06-29T10:52:45Z</time>
      </trkpt>
      <trkpt lat="48.6583" lon="6.23011">
        <ele>204.3</ele>
        <time>2020-06-29T10:52:46Z</time>
      </trkpt>
      <trkpt lat="48.65835" lon="6.23006">
        <ele>204.3</ele>
        <time>2020-06-29T10:52:47Z</time>
      </trkpt>
      <trkpt lat="48.6584" lon="6.23002">
        <ele>204.3</ele>
        <time>2020-06-29T10:52:48Z</time>
      </trkpt>
      <trkpt lat="48.65844" lon="6.22997">
        <ele>204.3</ele>
        <time>2020-06-29T10:52:49Z</time>
      </trkpt>
      <trkpt lat="48.6585" lon="6.22998">
        <ele>204.3</ele>
        <time>2020-06-29T10:52:50Z</time>
      </trkpt>
      <trkpt lat="48.65855" lon="6.22999">
        <ele>204.3</ele>
        <time>2020-06-29T10:52:51Z</time>
      </trkpt>
      <trkpt lat="48.6586" lon="6.23004">
        <ele>204.1</ele>
        <time>2020-06-29T10:52:52Z</time>
      </trkpt>
      <trkpt lat="48.65864" lon="6.23007">
        <ele>203.9</ele>
        <time>2020-06-29T10:52:53Z</time>
      </trkpt>
      <trkpt lat="48.65868" lon="6.23011">
        <ele>203.7</ele>
        <time>2020-06-29T10:52:54Z</time>
      </trkpt>
      <trkpt lat="48.65873" lon="6.23015">
        <ele>203.4</ele>
        <time>2020-06-29T10:52:55Z</time>
      </trkpt>
      <trkpt lat="48.65877" lon="6.23019">
        <ele>203.3</ele>
        <time>2020-06-29T10:52:56Z</time>
      </trkpt>
      <trkpt lat="48.65881" lon="6.23022">
        <ele>203.2</ele>
        <time>2020-06-29T10:52:57Z</time>
      </trkpt>
      <trkpt lat="48.65886" lon="6.23027">
        <ele>203.1</ele>
        <time>2020-06-29T10:52:58Z</time>
      </trkpt>
      <trkpt lat="48.65891" lon="6.2303">
        <ele>203</ele>
        <time>2020-06-29T10:52:59Z</time>
      </trkpt>
      <trkpt lat="48.65896" lon="6.23033">
        <ele>202.9</ele>
        <time>2020-06-29T10:53:00Z</time>
      </trkpt>
      <trkpt lat="48.65901" lon="6.23037">
        <ele>202.8</ele>
        <time>2020-06-29T10:53:01Z</time>
      </trkpt>
      <trkpt lat="48.65906" lon="6.23041">
        <ele>202.8</ele>
        <time>2020-06-29T10:53:02Z</time>
      </trkpt>
      <trkpt lat="48.65911" lon="6.23045">
        <ele>202.8</ele>
        <time>2020-06-29T10:53:03Z</time>
      </trkpt>
      <trkpt lat="48.65914" lon="6.2305">
        <ele>202.8</ele>
        <time>2020-06-29T10:53:04Z</time>
      </trkpt>
      <trkpt lat="48.65918" lon="6.23056">
        <ele>202.8</ele>
        <time>2020-06-29T10:53:05Z</time>
      </trkpt>
      <trkpt lat="48.65921" lon="6.23062">
        <ele>202.9</ele>
        <time>2020-06-29T10:53:06Z</time>
      </trkpt>
      <trkpt lat="48.65923" lon="6.23068">
        <ele>203</ele>
        <time>2020-06-29T10:53:07Z</time>
      </trkpt>
      <trkpt lat="48.65925" lon="6.23072">
        <ele>203</ele>
        <time>2020-06-29T10:53:08Z</time>
      </trkpt>
      <trkpt lat="48.65928" lon="6.23076">
        <ele>203.1</ele>
        <time>2020-06-29T10:53:09Z</time>
      </trkpt>
      <trkpt lat="48.65929" lon="6.23081">
        <ele>203.1</ele>
        <time>2020-06-29T10:53:10Z</time>
      </trkpt>
      <trkpt lat="48.65931" lon="6.23084">
        <ele>203.1</ele>
        <time>2020-06-29T10:53:11Z</time>
      </trkpt>
      <trkpt lat="48.65933" lon="6.23088">
        <ele>203.1</ele>
        <time>2020-06-29T10:53:12Z</time>
      </trkpt>
      <trkpt lat="48.65935" lon="6.23093">
        <ele>203.1</ele>
        <time>2020-06-29T10:53:13Z</time>
      </trkpt>
      <trkpt lat="48.65937" lon="6.23096">
        <ele>203.1</ele>
        <time>2020-06-29T10:53:14Z</time>
      </trkpt>
      <trkpt lat="48.65939" lon="6.23099">
        <ele>203.1</ele>
        <time>2020-06-29T10:53:15Z</time>
      </trkpt>
      <trkpt lat="48.65941" lon="6.23103">
        <ele>203.2</ele>
        <time>2020-06-29T10:53:16Z</time>
      </trkpt>
      <trkpt lat="48.65942" lon="6.23104">
        <ele>203.2</ele>
        <time>2020-06-29T10:53:17Z</time>
      </trkpt>
      <trkpt lat="48.65944" lon="6.23109">
        <ele>203.2</ele>
        <time>2020-06-29T10:53:18Z</time>
      </trkpt>
      <trkpt lat="48.65944" lon="6.2311">
        <ele>203.2</ele>
        <time>2020-06-29T10:53:19Z</time>
      </trkpt>
      <trkpt lat="48.65946" lon="6.23115">
        <ele>203.3</ele>
        <time>2020-06-29T10:53:20Z</time>
      </trkpt>
      <trkpt lat="48.65946" lon="6.23117">
        <ele>203.3</ele>
        <time>2020-06-29T10:53:21Z</time>
      </trkpt>
      <trkpt lat="48.65949" lon="6.23119">
        <ele>203.3</ele>
        <time>2020-06-29T10:53:22Z</time>
      </trkpt>
      <trkpt lat="48.65951" lon="6.23122">
        <ele>203.3</ele>
        <time>2020-06-29T10:53:23Z</time>
      </trkpt>
      <trkpt lat="48.65953" lon="6.23127">
        <ele>203.3</ele>
        <time>2020-06-29T10:53:24Z</time>
      </trkpt>
      <trkpt lat="48.65954" lon="6.23132">
        <ele>203.3</ele>
        <time>2020-06-29T10:53:25Z</time>
      </trkpt>
      <trkpt lat="48.65956" lon="6.23137">
        <ele>203.3</ele>
        <time>2020-06-29T10:53:26Z</time>
      </trkpt>
      <trkpt lat="48.65958" lon="6.23142">
        <ele>203.3</ele>
        <time>2020-06-29T10:53:27Z</time>
      </trkpt>
      <trkpt lat="48.65959" lon="6.23146">
        <ele>203.2</ele>
        <time>2020-06-29T10:53:28Z</time>
      </trkpt>
      <trkpt lat="48.65961" lon="6.2315">
        <ele>203.1</ele>
        <time>2020-06-29T10:53:29Z</time>
      </trkpt>
      <trkpt lat="48.65962" lon="6.23155">
        <ele>203</ele>
        <time>2020-06-29T10:53:30Z</time>
      </trkpt>
      <trkpt lat="48.65964" lon="6.23161">
        <ele>202.8</ele>
        <time>2020-06-29T10:53:31Z</time>
      </trkpt>
      <trkpt lat="48.65967" lon="6.23168">
        <ele>202.7</ele>
        <time>2020-06-29T10:53:32Z</time>
      </trkpt>
      <trkpt lat="48.6597" lon="6.23174">
        <ele>202.5</ele>
        <time>2020-06-29T10:53:33Z</time>
      </trkpt>
      <trkpt lat="48.65972" lon="6.23181">
        <ele>202.3</ele>
        <time>2020-06-29T10:53:34Z</time>
      </trkpt>
      <trkpt lat="48.65974" lon="6.23187">
        <ele>202.1</ele>
        <time>2020-06-29T10:53:35Z</time>
      </trkpt>
      <trkpt lat="48.65975" lon="6.23192">
        <ele>202</ele>
        <time>2020-06-29T10:53:36Z</time>
      </trkpt>
      <trkpt lat="48.65973" lon="6.232">
        <ele>201.7</ele>
        <time>2020-06-29T10:53:37Z</time>
      </trkpt>
      <trkpt lat="48.6597" lon="6.23208">
        <ele>201.5</ele>
        <time>2020-06-29T10:53:38Z</time>
      </trkpt>
      <trkpt lat="48.65967" lon="6.23217">
        <ele>201.2</ele>
        <time>2020-06-29T10:53:39Z</time>
      </trkpt>
      <trkpt lat="48.65964" lon="6.23223">
        <ele>201</ele>
        <time>2020-06-29T10:53:40Z</time>
      </trkpt>
      <trkpt lat="48.6596" lon="6.2323">
        <ele>200.7</ele>
        <time>2020-06-29T10:53:41Z</time>
      </trkpt>
      <trkpt lat="48.65955" lon="6.23237">
        <ele>200.5</ele>
        <time>2020-06-29T10:53:42Z</time>
      </trkpt>
      <trkpt lat="48.65952" lon="6.23243">
        <ele>200.2</ele>
        <time>2020-06-29T10:53:43Z</time>
      </trkpt>
      <trkpt lat="48.65948" lon="6.23245">
        <ele>200.2</ele>
        <time>2020-06-29T10:53:44Z</time>
      </trkpt>
      <trkpt lat="48.65945" lon="6.23246">
        <ele>200.1</ele>
        <time>2020-06-29T10:53:45Z</time>
      </trkpt>
      <trkpt lat="48.65944" lon="6.23244">
        <ele>200.1</ele>
        <time>2020-06-29T10:53:46Z</time>
      </trkpt>
      <trkpt lat="48.65944" lon="6.23242">
        <ele>200.1</ele>
        <time>2020-06-29T10:53:47Z</time>
      </trkpt>
      <trkpt lat="48.65945" lon="6.23241">
        <ele>200.1</ele>
        <time>2020-06-29T10:53:48Z</time>
      </trkpt>
      <trkpt lat="48.65944" lon="6.2324">
        <ele>200.1</ele>
        <time>2020-06-29T10:53:49Z</time>
      </trkpt>
      <trkpt lat="48.65944" lon="6.23239">
        <ele>200.1</ele>
        <time>2020-06-29T10:53:50Z</time>
      </trkpt>
      <trkpt lat="48.65945" lon="6.23236">
        <ele>200.1</ele>
        <time>2020-06-29T10:53:51Z</time>
      </trkpt>
      <trkpt lat="48.65946" lon="6.23235">
        <ele>200.1</ele>
        <time>2020-06-29T10:53:52Z</time>
      </trkpt>
      <trkpt lat="48.65947" lon="6.23235">
        <ele>200.1</ele>
        <time>2020-06-29T10:53:53Z</time>
      </trkpt>
      <trkpt lat="48.65948" lon="6.23235">
        <ele>200.1</ele>
        <time>2020-06-29T10:53:54Z</time>
      </trkpt>
      <trkpt lat="48.65948" lon="6.23234">
        <ele>200.1</ele>
        <time>2020-06-29T10:53:55Z</time>
      </trkpt>
      <trkpt lat="48.65948" lon="6.23234">
        <ele>200.1</ele>
        <time>2020-06-29T10:53:56Z</time>
      </trkpt>
      <trkpt lat="48.65947" lon="6.23236">
        <ele>200.1</ele>
        <time>2020-06-29T10:53:57Z</time>
      </trkpt>
      <trkpt lat="48.65948" lon="6.23237">
        <ele>200.1</ele>
        <time>2020-06-29T10:53:58Z</time>
      </trkpt>
      <trkpt lat="48.65947" lon="6.23239">
        <ele>200.1</ele>
        <time>2020-06-29T10:53:59Z</time>
      </trkpt>
      <trkpt lat="48.65946" lon="6.23243">
        <ele>200.1</ele>
        <time>2020-06-29T10:54:00Z</time>
      </trkpt>
      <trkpt lat="48.65945" lon="6.23245">
        <ele>200.1</ele>
        <time>2020-06-29T10:54:01Z</time>
      </trkpt>
      <trkpt lat="48.65944" lon="6.23249">
        <ele>200.1</ele>
        <time>2020-06-29T10:54:02Z</time>
      </trkpt>
      <trkpt lat="48.65944" lon="6.23251">
        <ele>200.1</ele>
        <time>2020-06-29T10:54:03Z</time>
      </trkpt>
      <trkpt lat="48.65943" lon="6.23255">
        <ele>200.1</ele>
        <time>2020-06-29T10:54:04Z</time>
      </trkpt>
      <trkpt lat="48.65942" lon="6.2326">
        <ele>200.2</ele>
        <time>2020-06-29T10:54:05Z</time>
      </trkpt>
      <trkpt lat="48.65943" lon="6.23262">
        <ele>200.2</ele>
        <time>2020-06-29T10:54:06Z</time>
      </trkpt>
      <trkpt lat="48.65943" lon="6.23265">
        <ele>200.1</ele>
        <time>2020-06-29T10:54:07Z</time>
      </trkpt>
      <trkpt lat="48.65946" lon="6.23266">
        <ele>200.1</ele>
        <time>2020-06-29T10:54:08Z</time>
      </trkpt>
      <trkpt lat="48.65947" lon="6.23267">
        <ele>200.1</ele>
        <time>2020-06-29T10:54:09Z</time>
      </trkpt>
      <trkpt lat="48.65949" lon="6.23263">
        <ele>200.1</ele>
        <time>2020-06-29T10:54:10Z</time>
      </trkpt>
      <trkpt lat="48.6595" lon="6.23261">
        <ele>200.1</ele>
        <time>2020-06-29T10:54:11Z</time>
      </trkpt>
      <trkpt lat="48.65952" lon="6.23255">
        <ele>200.1</ele>
        <time>2020-06-29T10:54:12Z</time>
      </trkpt>
      <trkpt lat="48.65953" lon="6.23254">
        <ele>200.1</ele>
        <time>2020-06-29T10:54:13Z</time>
      </trkpt>
      <trkpt lat="48.65955" lon="6.2325">
        <ele>200.1</ele>
        <time>2020-06-29T10:54:14Z</time>
      </trkpt>
      <trkpt lat="48.65958" lon="6.23245">
        <ele>200.1</ele>
        <time>2020-06-29T10:54:15Z</time>
      </trkpt>
      <trkpt lat="48.65961" lon="6.2324">
        <ele>200.1</ele>
        <time>2020-06-29T10:54:16Z</time>
      </trkpt>
      <trkpt lat="48.65964" lon="6.23236">
        <ele>200.1</ele>
        <time>2020-06-29T10:54:17Z</time>
      </trkpt>
      <trkpt lat="48.65966" lon="6.23232">
        <ele>200.1</ele>
        <time>2020-06-29T10:54:18Z</time>
      </trkpt>
      <trkpt lat="48.6597" lon="6.23228">
        <ele>200.1</ele>
        <time>2020-06-29T10:54:19Z</time>
      </trkpt>
      <trkpt lat="48.65973" lon="6.23225">
        <ele>200</ele>
        <time>2020-06-29T10:54:20Z</time>
      </trkpt>
      <trkpt lat="48.65975" lon="6.2322">
        <ele>200</ele>
        <time>2020-06-29T10:54:21Z</time>
      </trkpt>
      <trkpt lat="48.65977" lon="6.23215">
        <ele>200</ele>
        <time>2020-06-29T10:54:22Z</time>
      </trkpt>
      <trkpt lat="48.6598" lon="6.23211">
        <ele>200</ele>
        <time>2020-06-29T10:54:23Z</time>
      </trkpt>
      <trkpt lat="48.65982" lon="6.23206">
        <ele>199.8</ele>
        <time>2020-06-29T10:54:24Z</time>
      </trkpt>
      <trkpt lat="48.65985" lon="6.23201">
        <ele>199.8</ele>
        <time>2020-06-29T10:54:25Z</time>
      </trkpt>
      <trkpt lat="48.65988" lon="6.23196">
        <ele>199.7</ele>
        <time>2020-06-29T10:54:26Z</time>
      </trkpt>
      <trkpt lat="48.6599" lon="6.23191">
        <ele>199.6</ele>
        <time>2020-06-29T10:54:27Z</time>
      </trkpt>
      <trkpt lat="48.65992" lon="6.23184">
        <ele>199.6</ele>
        <time>2020-06-29T10:54:28Z</time>
      </trkpt>
      <trkpt lat="48.65993" lon="6.23177">
        <ele>199.5</ele>
        <time>2020-06-29T10:54:29Z</time>
      </trkpt>
      <trkpt lat="48.65994" lon="6.2317">
        <ele>199.5</ele>
        <time>2020-06-29T10:54:30Z</time>
      </trkpt>
      <trkpt lat="48.65995" lon="6.23164">
        <ele>199.4</ele>
        <time>2020-06-29T10:54:31Z</time>
      </trkpt>
      <trkpt lat="48.65995" lon="6.2316">
        <ele>199.4</ele>
        <time>2020-06-29T10:54:32Z</time>
      </trkpt>
      <trkpt lat="48.65995" lon="6.23155">
        <ele>199.4</ele>
        <time>2020-06-29T10:54:33Z</time>
      </trkpt>
      <trkpt lat="48.65994" lon="6.2315">
        <ele>199.3</ele>
        <time>2020-06-29T10:54:34Z</time>
      </trkpt>
      <trkpt lat="48.65993" lon="6.23145">
        <ele>199.3</ele>
        <time>2020-06-29T10:54:35Z</time>
      </trkpt>
      <trkpt lat="48.65991" lon="6.2314">
        <ele>199.3</ele>
        <time>2020-06-29T10:54:36Z</time>
      </trkpt>
      <trkpt lat="48.65989" lon="6.23137">
        <ele>199.2</ele>
        <time>2020-06-29T10:54:37Z</time>
      </trkpt>
      <trkpt lat="48.65988" lon="6.23132">
        <ele>199.2</ele>
        <time>2020-06-29T10:54:38Z</time>
      </trkpt>
      <trkpt lat="48.65986" lon="6.23127">
        <ele>199.2</ele>
        <time>2020-06-29T10:54:39Z</time>
      </trkpt>
      <trkpt lat="48.65984" lon="6.23123">
        <ele>199.2</ele>
        <time>2020-06-29T10:54:40Z</time>
      </trkpt>
      <trkpt lat="48.65984" lon="6.23116">
        <ele>199.2</ele>
        <time>2020-06-29T10:54:41Z</time>
      </trkpt>
      <trkpt lat="48.65985" lon="6.23111">
        <ele>199.2</ele>
        <time>2020-06-29T10:54:42Z</time>
      </trkpt>
      <trkpt lat="48.65989" lon="6.23104">
        <ele>199.1</ele>
        <time>2020-06-29T10:54:43Z</time>
      </trkpt>
      <trkpt lat="48.65993" lon="6.231">
        <ele>199.1</ele>
        <time>2020-06-29T10:54:44Z</time>
      </trkpt>
      <trkpt lat="48.65996" lon="6.23096">
        <ele>199.1</ele>
        <time>2020-06-29T10:54:45Z</time>
      </trkpt>
      <trkpt lat="48.65998" lon="6.23091">
        <ele>199.1</ele>
        <time>2020-06-29T10:54:46Z</time>
      </trkpt>
      <trkpt lat="48.66001" lon="6.23086">
        <ele>199.1</ele>
        <time>2020-06-29T10:54:47Z</time>
      </trkpt>
      <trkpt lat="48.66003" lon="6.2308">
        <ele>199</ele>
        <time>2020-06-29T10:54:48Z</time>
      </trkpt>
      <trkpt lat="48.66005" lon="6.23073">
        <ele>199</ele>
        <time>2020-06-29T10:54:49Z</time>
      </trkpt>
      <trkpt lat="48.66008" lon="6.23066">
        <ele>199</ele>
        <time>2020-06-29T10:54:50Z</time>
      </trkpt>
      <trkpt lat="48.66012" lon="6.23061">
        <ele>199.1</ele>
        <time>2020-06-29T10:54:51Z</time>
      </trkpt>
      <trkpt lat="48.66015" lon="6.23055">
        <ele>199.1</ele>
        <time>2020-06-29T10:54:52Z</time>
      </trkpt>
      <trkpt lat="48.66018" lon="6.23049">
        <ele>199.1</ele>
        <time>2020-06-29T10:54:53Z</time>
      </trkpt>
      <trkpt lat="48.6602" lon="6.23043">
        <ele>199.1</ele>
        <time>2020-06-29T10:54:54Z</time>
      </trkpt>
      <trkpt lat="48.66021" lon="6.23037">
        <ele>199.1</ele>
        <time>2020-06-29T10:54:55Z</time>
      </trkpt>
      <trkpt lat="48.66025" lon="6.23032">
        <ele>199.1</ele>
        <time>2020-06-29T10:54:56Z</time>
      </trkpt>
      <trkpt lat="48.66028" lon="6.23025">
        <ele>199.1</ele>
        <time>2020-06-29T10:54:57Z</time>
      </trkpt>
      <trkpt lat="48.6603" lon="6.23019">
        <ele>199.1</ele>
        <time>2020-06-29T10:54:58Z</time>
      </trkpt>
      <trkpt lat="48.66033" lon="6.23014">
        <ele>199.1</ele>
        <time>2020-06-29T10:54:59Z</time>
      </trkpt>
      <trkpt lat="48.66037" lon="6.23008">
        <ele>199.1</ele>
        <time>2020-06-29T10:55:00Z</time>
      </trkpt>
      <trkpt lat="48.6604" lon="6.23001">
        <ele>199.1</ele>
        <time>2020-06-29T10:55:01Z</time>
      </trkpt>
      <trkpt lat="48.66043" lon="6.22995">
        <ele>199.1</ele>
        <time>2020-06-29T10:55:02Z</time>
      </trkpt>
      <trkpt lat="48.66046" lon="6.22988">
        <ele>199.1</ele>
        <time>2020-06-29T10:55:03Z</time>
      </trkpt>
      <trkpt lat="48.6605" lon="6.2298">
        <ele>199.1</ele>
        <time>2020-06-29T10:55:04Z</time>
      </trkpt>
      <trkpt lat="48.66053" lon="6.22973">
        <ele>199.1</ele>
        <time>2020-06-29T10:55:05Z</time>
      </trkpt>
      <trkpt lat="48.66056" lon="6.22966">
        <ele>199.2</ele>
        <time>2020-06-29T10:55:06Z</time>
      </trkpt>
      <trkpt lat="48.6606" lon="6.2296">
        <ele>199.2</ele>
        <time>2020-06-29T10:55:07Z</time>
      </trkpt>
      <trkpt lat="48.66064" lon="6.22954">
        <ele>199.2</ele>
        <time>2020-06-29T10:55:08Z</time>
      </trkpt>
      <trkpt lat="48.66068" lon="6.22948">
        <ele>199.2</ele>
        <time>2020-06-29T10:55:09Z</time>
      </trkpt>
      <trkpt lat="48.66071" lon="6.22942">
        <ele>199.2</ele>
        <time>2020-06-29T10:55:10Z</time>
      </trkpt>
      <trkpt lat="48.66073" lon="6.22934">
        <ele>199.2</ele>
        <time>2020-06-29T10:55:11Z</time>
      </trkpt>
      <trkpt lat="48.66075" lon="6.22926">
        <ele>199.2</ele>
        <time>2020-06-29T10:55:12Z</time>
      </trkpt>
      <trkpt lat="48.66078" lon="6.22919">
        <ele>199.2</ele>
        <time>2020-06-29T10:55:13Z</time>
      </trkpt>
      <trkpt lat="48.66082" lon="6.22912">
        <ele>199.2</ele>
        <time>2020-06-29T10:55:14Z</time>
      </trkpt>
      <trkpt lat="48.66086" lon="6.22906">
        <ele>199.2</ele>
        <time>2020-06-29T10:55:15Z</time>
      </trkpt>
      <trkpt lat="48.66089" lon="6.22899">
        <ele>199.2</ele>
        <time>2020-06-29T10:55:16Z</time>
      </trkpt>
      <trkpt lat="48.66093" lon="6.22892">
        <ele>199.1</ele>
        <time>2020-06-29T10:55:17Z</time>
      </trkpt>
      <trkpt lat="48.66097" lon="6.22885">
        <ele>199.1</ele>
        <time>2020-06-29T10:55:18Z</time>
      </trkpt>
      <trkpt lat="48.661" lon="6.22879">
        <ele>199.1</ele>
        <time>2020-06-29T10:55:19Z</time>
      </trkpt>
      <trkpt lat="48.66104" lon="6.22873">
        <ele>199.1</ele>
        <time>2020-06-29T10:55:20Z</time>
      </trkpt>
      <trkpt lat="48.66108" lon="6.22867">
        <ele>199.1</ele>
        <time>2020-06-29T10:55:21Z</time>
      </trkpt>
      <trkpt lat="48.66112" lon="6.2286">
        <ele>199.1</ele>
        <time>2020-06-29T10:55:22Z</time>
      </trkpt>
      <trkpt lat="48.66116" lon="6.22854">
        <ele>199.1</ele>
        <time>2020-06-29T10:55:23Z</time>
      </trkpt>
      <trkpt lat="48.6612" lon="6.22847">
        <ele>199.1</ele>
        <time>2020-06-29T10:55:24Z</time>
      </trkpt>
      <trkpt lat="48.66124" lon="6.22841">
        <ele>199.1</ele>
        <time>2020-06-29T10:55:25Z</time>
      </trkpt>
      <trkpt lat="48.66128" lon="6.22835">
        <ele>199.1</ele>
        <time>2020-06-29T10:55:26Z</time>
      </trkpt>
      <trkpt lat="48.66131" lon="6.22827">
        <ele>199.1</ele>
        <time>2020-06-29T10:55:27Z</time>
      </trkpt>
      <trkpt lat="48.66135" lon="6.2282">
        <ele>199.1</ele>
        <time>2020-06-29T10:55:28Z</time>
      </trkpt>
      <trkpt lat="48.66139" lon="6.22813">
        <ele>199.1</ele>
        <time>2020-06-29T10:55:29Z</time>
      </trkpt>
      <trkpt lat="48.66143" lon="6.22808">
        <ele>199.2</ele>
        <time>2020-06-29T10:55:30Z</time>
      </trkpt>
      <trkpt lat="48.66146" lon="6.228">
        <ele>199.2</ele>
        <time>2020-06-29T10:55:31Z</time>
      </trkpt>
      <trkpt lat="48.66149" lon="6.22794">
        <ele>199.3</ele>
        <time>2020-06-29T10:55:32Z</time>
      </trkpt>
      <trkpt lat="48.66152" lon="6.22788">
        <ele>199.3</ele>
        <time>2020-06-29T10:55:33Z</time>
      </trkpt>
      <trkpt lat="48.66155" lon="6.22782">
        <ele>199.3</ele>
        <time>2020-06-29T10:55:34Z</time>
      </trkpt>
      <trkpt lat="48.66158" lon="6.22776">
        <ele>199.3</ele>
        <time>2020-06-29T10:55:35Z</time>
      </trkpt>
      <trkpt lat="48.66161" lon="6.22768">
        <ele>199.4</ele>
        <time>2020-06-29T10:55:36Z</time>
      </trkpt>
      <trkpt lat="48.66165" lon="6.2276">
        <ele>199.4</ele>
        <time>2020-06-29T10:55:37Z</time>
      </trkpt>
      <trkpt lat="48.66169" lon="6.22754">
        <ele>199.4</ele>
        <time>2020-06-29T10:55:38Z</time>
      </trkpt>
      <trkpt lat="48.66172" lon="6.22746">
        <ele>199.4</ele>
        <time>2020-06-29T10:55:39Z</time>
      </trkpt>
      <trkpt lat="48.66177" lon="6.22738">
        <ele>199.4</ele>
        <time>2020-06-29T10:55:40Z</time>
      </trkpt>
      <trkpt lat="48.66182" lon="6.22731">
        <ele>199.3</ele>
        <time>2020-06-29T10:55:41Z</time>
      </trkpt>
      <trkpt lat="48.66186" lon="6.22724">
        <ele>199.3</ele>
        <time>2020-06-29T10:55:42Z</time>
      </trkpt>
      <trkpt lat="48.6619" lon="6.22717">
        <ele>199.3</ele>
        <time>2020-06-29T10:55:43Z</time>
      </trkpt>
      <trkpt lat="48.66194" lon="6.22709">
        <ele>199.4</ele>
        <time>2020-06-29T10:55:44Z</time>
      </trkpt>
      <trkpt lat="48.66197" lon="6.22701">
        <ele>199.4</ele>
        <time>2020-06-29T10:55:45Z</time>
      </trkpt>
      <trkpt lat="48.662" lon="6.22694">
        <ele>199.4</ele>
        <time>2020-06-29T10:55:46Z</time>
      </trkpt>
      <trkpt lat="48.66204" lon="6.22687">
        <ele>199.4</ele>
        <time>2020-06-29T10:55:47Z</time>
      </trkpt>
      <trkpt lat="48.66207" lon="6.2268">
        <ele>199.4</ele>
        <time>2020-06-29T10:55:48Z</time>
      </trkpt>
      <trkpt lat="48.66211" lon="6.22672">
        <ele>199.4</ele>
        <time>2020-06-29T10:55:49Z</time>
      </trkpt>
      <trkpt lat="48.66215" lon="6.22665">
        <ele>199.4</ele>
        <time>2020-06-29T10:55:50Z</time>
      </trkpt>
      <trkpt lat="48.66218" lon="6.22657">
        <ele>199.3</ele>
        <time>2020-06-29T10:55:51Z</time>
      </trkpt>
      <trkpt lat="48.66222" lon="6.22652">
        <ele>199.4</ele>
        <time>2020-06-29T10:55:52Z</time>
      </trkpt>
      <trkpt lat="48.66226" lon="6.22646">
        <ele>199.4</ele>
        <time>2020-06-29T10:55:53Z</time>
      </trkpt>
      <trkpt lat="48.6623" lon="6.2264">
        <ele>199.4</ele>
        <time>2020-06-29T10:55:54Z</time>
      </trkpt>
      <trkpt lat="48.66234" lon="6.22634">
        <ele>199.4</ele>
        <time>2020-06-29T10:55:55Z</time>
      </trkpt>
      <trkpt lat="48.66238" lon="6.22627">
        <ele>199.5</ele>
        <time>2020-06-29T10:55:56Z</time>
      </trkpt>
      <trkpt lat="48.66242" lon="6.22621">
        <ele>199.5</ele>
        <time>2020-06-29T10:55:57Z</time>
      </trkpt>
      <trkpt lat="48.66245" lon="6.22613">
        <ele>199.4</ele>
        <time>2020-06-29T10:55:58Z</time>
      </trkpt>
      <trkpt lat="48.66249" lon="6.22605">
        <ele>199.4</ele>
        <time>2020-06-29T10:55:59Z</time>
      </trkpt>
      <trkpt lat="48.66252" lon="6.22599">
        <ele>199.4</ele>
        <time>2020-06-29T10:56:00Z</time>
      </trkpt>
      <trkpt lat="48.66256" lon="6.22593">
        <ele>199.4</ele>
        <time>2020-06-29T10:56:01Z</time>
      </trkpt>
      <trkpt lat="48.66259" lon="6.22586">
        <ele>199.4</ele>
        <time>2020-06-29T10:56:02Z</time>
      </trkpt>
      <trkpt lat="48.66262" lon="6.2258">
        <ele>199.4</ele>
        <time>2020-06-29T10:56:03Z</time>
      </trkpt>
      <trkpt lat="48.66265" lon="6.22574">
        <ele>199.5</ele>
        <time>2020-06-29T10:56:04Z</time>
      </trkpt>
      <trkpt lat="48.66268" lon="6.22568">
        <ele>199.5</ele>
        <time>2020-06-29T10:56:05Z</time>
      </trkpt>
      <trkpt lat="48.6627" lon="6.22562">
        <ele>199.5</ele>
        <time>2020-06-29T10:56:06Z</time>
      </trkpt>
      <trkpt lat="48.66273" lon="6.22558">
        <ele>199.5</ele>
        <time>2020-06-29T10:56:07Z</time>
      </trkpt>
      <trkpt lat="48.66276" lon="6.22551">
        <ele>199.4</ele>
        <time>2020-06-29T10:56:08Z</time>
      </trkpt>
      <trkpt lat="48.66279" lon="6.22545">
        <ele>199.4</ele>
        <time>2020-06-29T10:56:09Z</time>
      </trkpt>
      <trkpt lat="48.66282" lon="6.22537">
        <ele>199.4</ele>
        <time>2020-06-29T10:56:10Z</time>
      </trkpt>
      <trkpt lat="48.66285" lon="6.22531">
        <ele>199.4</ele>
        <time>2020-06-29T10:56:11Z</time>
      </trkpt>
      <trkpt lat="48.66288" lon="6.22525">
        <ele>199.4</ele>
        <time>2020-06-29T10:56:12Z</time>
      </trkpt>
      <trkpt lat="48.66291" lon="6.22518">
        <ele>199.4</ele>
        <time>2020-06-29T10:56:13Z</time>
      </trkpt>
      <trkpt lat="48.66295" lon="6.22512">
        <ele>199.3</ele>
        <time>2020-06-29T10:56:14Z</time>
      </trkpt>
      <trkpt lat="48.66298" lon="6.22505">
        <ele>199.3</ele>
        <time>2020-06-29T10:56:15Z</time>
      </trkpt>
      <trkpt lat="48.66302" lon="6.22498">
        <ele>199.3</ele>
        <time>2020-06-29T10:56:16Z</time>
      </trkpt>
      <trkpt lat="48.66305" lon="6.22491">
        <ele>199.3</ele>
        <time>2020-06-29T10:56:17Z</time>
      </trkpt>
      <trkpt lat="48.66309" lon="6.22485">
        <ele>199.4</ele>
        <time>2020-06-29T10:56:18Z</time>
      </trkpt>
      <trkpt lat="48.66312" lon="6.22477">
        <ele>199.4</ele>
        <time>2020-06-29T10:56:19Z</time>
      </trkpt>
      <trkpt lat="48.66316" lon="6.2247">
        <ele>199.4</ele>
        <time>2020-06-29T10:56:20Z</time>
      </trkpt>
      <trkpt lat="48.66319" lon="6.22461">
        <ele>199.4</ele>
        <time>2020-06-29T10:56:21Z</time>
      </trkpt>
      <trkpt lat="48.66323" lon="6.22454">
        <ele>199.4</ele>
        <time>2020-06-29T10:56:22Z</time>
      </trkpt>
      <trkpt lat="48.66328" lon="6.22448">
        <ele>199.4</ele>
        <time>2020-06-29T10:56:23Z</time>
      </trkpt>
      <trkpt lat="48.66333" lon="6.22441">
        <ele>199.5</ele>
        <time>2020-06-29T10:56:24Z</time>
      </trkpt>
      <trkpt lat="48.66336" lon="6.22434">
        <ele>199.6</ele>
        <time>2020-06-29T10:56:25Z</time>
      </trkpt>
      <trkpt lat="48.66341" lon="6.22427">
        <ele>199.6</ele>
        <time>2020-06-29T10:56:26Z</time>
      </trkpt>
      <trkpt lat="48.66345" lon="6.2242">
        <ele>199.6</ele>
        <time>2020-06-29T10:56:27Z</time>
      </trkpt>
      <trkpt lat="48.6635" lon="6.22414">
        <ele>199.6</ele>
        <time>2020-06-29T10:56:28Z</time>
      </trkpt>
      <trkpt lat="48.66355" lon="6.22407">
        <ele>199.6</ele>
        <time>2020-06-29T10:56:29Z</time>
      </trkpt>
      <trkpt lat="48.6636" lon="6.224">
        <ele>199.6</ele>
        <time>2020-06-29T10:56:30Z</time>
      </trkpt>
      <trkpt lat="48.66364" lon="6.22393">
        <ele>199.6</ele>
        <time>2020-06-29T10:56:31Z</time>
      </trkpt>
      <trkpt lat="48.66367" lon="6.22387">
        <ele>199.6</ele>
        <time>2020-06-29T10:56:32Z</time>
      </trkpt>
      <trkpt lat="48.66371" lon="6.2238">
        <ele>199.7</ele>
        <time>2020-06-29T10:56:33Z</time>
      </trkpt>
      <trkpt lat="48.66375" lon="6.22373">
        <ele>199.7</ele>
        <time>2020-06-29T10:56:34Z</time>
      </trkpt>
      <trkpt lat="48.66379" lon="6.22366">
        <ele>199.7</ele>
        <time>2020-06-29T10:56:35Z</time>
      </trkpt>
      <trkpt lat="48.66383" lon="6.2236">
        <ele>199.7</ele>
        <time>2020-06-29T10:56:36Z</time>
      </trkpt>
      <trkpt lat="48.66387" lon="6.22353">
        <ele>199.7</ele>
        <time>2020-06-29T10:56:37Z</time>
      </trkpt>
      <trkpt lat="48.66391" lon="6.22345">
        <ele>199.7</ele>
        <time>2020-06-29T10:56:38Z</time>
      </trkpt>
      <trkpt lat="48.66395" lon="6.22338">
        <ele>199.7</ele>
        <time>2020-06-29T10:56:39Z</time>
      </trkpt>
      <trkpt lat="48.66399" lon="6.2233">
        <ele>199.7</ele>
        <time>2020-06-29T10:56:40Z</time>
      </trkpt>
      <trkpt lat="48.66403" lon="6.22323">
        <ele>199.7</ele>
        <time>2020-06-29T10:56:41Z</time>
      </trkpt>
      <trkpt lat="48.66407" lon="6.22315">
        <ele>199.7</ele>
        <time>2020-06-29T10:56:42Z</time>
      </trkpt>
      <trkpt lat="48.66411" lon="6.22308">
        <ele>199.7</ele>
        <time>2020-06-29T10:56:43Z</time>
      </trkpt>
      <trkpt lat="48.66415" lon="6.22299">
        <ele>199.7</ele>
        <time>2020-06-29T10:56:44Z</time>
      </trkpt>
      <trkpt lat="48.66418" lon="6.22293">
        <ele>199.6</ele>
        <time>2020-06-29T10:56:45Z</time>
      </trkpt>
      <trkpt lat="48.66422" lon="6.22286">
        <ele>199.6</ele>
        <time>2020-06-29T10:56:46Z</time>
      </trkpt>
      <trkpt lat="48.66424" lon="6.22278">
        <ele>199.6</ele>
        <time>2020-06-29T10:56:47Z</time>
      </trkpt>
      <trkpt lat="48.66427" lon="6.22269">
        <ele>199.6</ele>
        <time>2020-06-29T10:56:48Z</time>
      </trkpt>
      <trkpt lat="48.6643" lon="6.22261">
        <ele>199.5</ele>
        <time>2020-06-29T10:56:49Z</time>
      </trkpt>
      <trkpt lat="48.66433" lon="6.22252">
        <ele>199.5</ele>
        <time>2020-06-29T10:56:50Z</time>
      </trkpt>
      <trkpt lat="48.66436" lon="6.22244">
        <ele>199.6</ele>
        <time>2020-06-29T10:56:51Z</time>
      </trkpt>
      <trkpt lat="48.66439" lon="6.22236">
        <ele>199.6</ele>
        <time>2020-06-29T10:56:52Z</time>
      </trkpt>
      <trkpt lat="48.66443" lon="6.22228">
        <ele>199.6</ele>
        <time>2020-06-29T10:56:53Z</time>
      </trkpt>
      <trkpt lat="48.66446" lon="6.2222">
        <ele>199.6</ele>
        <time>2020-06-29T10:56:54Z</time>
      </trkpt>
      <trkpt lat="48.6645" lon="6.22211">
        <ele>199.6</ele>
        <time>2020-06-29T10:56:55Z</time>
      </trkpt>
      <trkpt lat="48.66454" lon="6.22204">
        <ele>199.6</ele>
        <time>2020-06-29T10:56:56Z</time>
      </trkpt>
      <trkpt lat="48.66458" lon="6.22196">
        <ele>199.6</ele>
        <time>2020-06-29T10:56:57Z</time>
      </trkpt>
      <trkpt lat="48.6646" lon="6.22189">
        <ele>199.6</ele>
        <time>2020-06-29T10:56:58Z</time>
      </trkpt>
      <trkpt lat="48.66463" lon="6.22182">
        <ele>199.6</ele>
        <time>2020-06-29T10:56:59Z</time>
      </trkpt>
      <trkpt lat="48.66466" lon="6.22175">
        <ele>199.6</ele>
        <time>2020-06-29T10:57:00Z</time>
      </trkpt>
      <trkpt lat="48.66469" lon="6.22167">
        <ele>199.6</ele>
        <time>2020-06-29T10:57:01Z</time>
      </trkpt>
      <trkpt lat="48.66472" lon="6.22159">
        <ele>199.6</ele>
        <time>2020-06-29T10:57:02Z</time>
      </trkpt>
      <trkpt lat="48.66476" lon="6.22153">
        <ele>199.6</ele>
        <time>2020-06-29T10:57:03Z</time>
      </trkpt>
      <trkpt lat="48.66479" lon="6.22147">
        <ele>199.6</ele>
        <time>2020-06-29T10:57:04Z</time>
      </trkpt>
      <trkpt lat="48.66481" lon="6.2214">
        <ele>199.6</ele>
        <time>2020-06-29T10:57:05Z</time>
      </trkpt>
      <trkpt lat="48.66484" lon="6.22134">
        <ele>199.6</ele>
        <time>2020-06-29T10:57:06Z</time>
      </trkpt>
      <trkpt lat="48.66486" lon="6.22128">
        <ele>199.6</ele>
        <time>2020-06-29T10:57:07Z</time>
      </trkpt>
      <trkpt lat="48.66488" lon="6.22122">
        <ele>199.6</ele>
        <time>2020-06-29T10:57:08Z</time>
      </trkpt>
      <trkpt lat="48.66491" lon="6.22114">
        <ele>199.7</ele>
        <time>2020-06-29T10:57:09Z</time>
      </trkpt>
      <trkpt lat="48.66494" lon="6.22105">
        <ele>199.7</ele>
        <time>2020-06-29T10:57:10Z</time>
      </trkpt>
      <trkpt lat="48.66497" lon="6.22097">
        <ele>199.7</ele>
        <time>2020-06-29T10:57:11Z</time>
      </trkpt>
      <trkpt lat="48.665" lon="6.22089">
        <ele>199.7</ele>
        <time>2020-06-29T10:57:12Z</time>
      </trkpt>
      <trkpt lat="48.66503" lon="6.22082">
        <ele>199.7</ele>
        <time>2020-06-29T10:57:13Z</time>
      </trkpt>
      <trkpt lat="48.66505" lon="6.22074">
        <ele>199.7</ele>
        <time>2020-06-29T10:57:14Z</time>
      </trkpt>
      <trkpt lat="48.66508" lon="6.22065">
        <ele>199.7</ele>
        <time>2020-06-29T10:57:15Z</time>
      </trkpt>
      <trkpt lat="48.6651" lon="6.22057">
        <ele>199.7</ele>
        <time>2020-06-29T10:57:16Z</time>
      </trkpt>
      <trkpt lat="48.66513" lon="6.2205">
        <ele>199.7</ele>
        <time>2020-06-29T10:57:17Z</time>
      </trkpt>
      <trkpt lat="48.66516" lon="6.2204">
        <ele>199.7</ele>
        <time>2020-06-29T10:57:18Z</time>
      </trkpt>
      <trkpt lat="48.66519" lon="6.22032">
        <ele>199.7</ele>
        <time>2020-06-29T10:57:19Z</time>
      </trkpt>
      <trkpt lat="48.66522" lon="6.22024">
        <ele>199.7</ele>
        <time>2020-06-29T10:57:20Z</time>
      </trkpt>
      <trkpt lat="48.66525" lon="6.22017">
        <ele>199.7</ele>
        <time>2020-06-29T10:57:21Z</time>
      </trkpt>
      <trkpt lat="48.66528" lon="6.2201">
        <ele>199.7</ele>
        <time>2020-06-29T10:57:22Z</time>
      </trkpt>
      <trkpt lat="48.66531" lon="6.22003">
        <ele>199.7</ele>
        <time>2020-06-29T10:57:23Z</time>
      </trkpt>
      <trkpt lat="48.66535" lon="6.21993">
        <ele>199.7</ele>
        <time>2020-06-29T10:57:24Z</time>
      </trkpt>
      <trkpt lat="48.66538" lon="6.21986">
        <ele>199.7</ele>
        <time>2020-06-29T10:57:25Z</time>
      </trkpt>
      <trkpt lat="48.66541" lon="6.21977">
        <ele>199.7</ele>
        <time>2020-06-29T10:57:26Z</time>
      </trkpt>
      <trkpt lat="48.66545" lon="6.21968">
        <ele>199.6</ele>
        <time>2020-06-29T10:57:27Z</time>
      </trkpt>
      <trkpt lat="48.66548" lon="6.21959">
        <ele>199.6</ele>
        <time>2020-06-29T10:57:28Z</time>
      </trkpt>
      <trkpt lat="48.66552" lon="6.21952">
        <ele>199.6</ele>
        <time>2020-06-29T10:57:29Z</time>
      </trkpt>
      <trkpt lat="48.66555" lon="6.21944">
        <ele>199.5</ele>
        <time>2020-06-29T10:57:30Z</time>
      </trkpt>
      <trkpt lat="48.66559" lon="6.21936">
        <ele>199.5</ele>
        <time>2020-06-29T10:57:31Z</time>
      </trkpt>
      <trkpt lat="48.66561" lon="6.21926">
        <ele>199.5</ele>
        <time>2020-06-29T10:57:32Z</time>
      </trkpt>
      <trkpt lat="48.66564" lon="6.21919">
        <ele>199.5</ele>
        <time>2020-06-29T10:57:33Z</time>
      </trkpt>
      <trkpt lat="48.66567" lon="6.21912">
        <ele>199.6</ele>
        <time>2020-06-29T10:57:34Z</time>
      </trkpt>
      <trkpt lat="48.6657" lon="6.21904">
        <ele>199.6</ele>
        <time>2020-06-29T10:57:35Z</time>
      </trkpt>
      <trkpt lat="48.66573" lon="6.21897">
        <ele>199.6</ele>
        <time>2020-06-29T10:57:36Z</time>
      </trkpt>
      <trkpt lat="48.66576" lon="6.2189">
        <ele>199.6</ele>
        <time>2020-06-29T10:57:37Z</time>
      </trkpt>
      <trkpt lat="48.66578" lon="6.21883">
        <ele>199.6</ele>
        <time>2020-06-29T10:57:38Z</time>
      </trkpt>
      <trkpt lat="48.66582" lon="6.21877">
        <ele>199.5</ele>
        <time>2020-06-29T10:57:39Z</time>
      </trkpt>
      <trkpt lat="48.66586" lon="6.21869">
        <ele>199.5</ele>
        <time>2020-06-29T10:57:40Z</time>
      </trkpt>
      <trkpt lat="48.66589" lon="6.2186">
        <ele>199.5</ele>
        <time>2020-06-29T10:57:41Z</time>
      </trkpt>
      <trkpt lat="48.66592" lon="6.21851">
        <ele>199.5</ele>
        <time>2020-06-29T10:57:42Z</time>
      </trkpt>
      <trkpt lat="48.66595" lon="6.21843">
        <ele>199.5</ele>
        <time>2020-06-29T10:57:43Z</time>
      </trkpt>
      <trkpt lat="48.66599" lon="6.21835">
        <ele>199.6</ele>
        <time>2020-06-29T10:57:44Z</time>
      </trkpt>
      <trkpt lat="48.66603" lon="6.21828">
        <ele>199.6</ele>
        <time>2020-06-29T10:57:45Z</time>
      </trkpt>
      <trkpt lat="48.66605" lon="6.2182">
        <ele>199.5</ele>
        <time>2020-06-29T10:57:46Z</time>
      </trkpt>
      <trkpt lat="48.66607" lon="6.21813">
        <ele>199.5</ele>
        <time>2020-06-29T10:57:47Z</time>
      </trkpt>
      <trkpt lat="48.6661" lon="6.21804">
        <ele>199.5</ele>
        <time>2020-06-29T10:57:48Z</time>
      </trkpt>
      <trkpt lat="48.66612" lon="6.21793">
        <ele>199.5</ele>
        <time>2020-06-29T10:57:49Z</time>
      </trkpt>
      <trkpt lat="48.66615" lon="6.21783">
        <ele>199.4</ele>
        <time>2020-06-29T10:57:50Z</time>
      </trkpt>
      <trkpt lat="48.66618" lon="6.21775">
        <ele>199.5</ele>
        <time>2020-06-29T10:57:51Z</time>
      </trkpt>
      <trkpt lat="48.66622" lon="6.21767">
        <ele>199.5</ele>
        <time>2020-06-29T10:57:52Z</time>
      </trkpt>
      <trkpt lat="48.66625" lon="6.2176">
        <ele>199.5</ele>
        <time>2020-06-29T10:57:53Z</time>
      </trkpt>
      <trkpt lat="48.66628" lon="6.21752">
        <ele>199.4</ele>
        <time>2020-06-29T10:57:54Z</time>
      </trkpt>
      <trkpt lat="48.66631" lon="6.21744">
        <ele>199.4</ele>
        <time>2020-06-29T10:57:55Z</time>
      </trkpt>
      <trkpt lat="48.66634" lon="6.21736">
        <ele>199.4</ele>
        <time>2020-06-29T10:57:56Z</time>
      </trkpt>
      <trkpt lat="48.66637" lon="6.21728">
        <ele>199.5</ele>
        <time>2020-06-29T10:57:57Z</time>
      </trkpt>
      <trkpt lat="48.6664" lon="6.21718">
        <ele>199.5</ele>
        <time>2020-06-29T10:57:58Z</time>
      </trkpt>
      <trkpt lat="48.66642" lon="6.2171">
        <ele>199.5</ele>
        <time>2020-06-29T10:57:59Z</time>
      </trkpt>
      <trkpt lat="48.66646" lon="6.21702">
        <ele>199.5</ele>
        <time>2020-06-29T10:58:00Z</time>
      </trkpt>
      <trkpt lat="48.66648" lon="6.21694">
        <ele>199.5</ele>
        <time>2020-06-29T10:58:01Z</time>
      </trkpt>
      <trkpt lat="48.66651" lon="6.21685">
        <ele>199.5</ele>
        <time>2020-06-29T10:58:02Z</time>
      </trkpt>
      <trkpt lat="48.66655" lon="6.21676">
        <ele>199.5</ele>
        <time>2020-06-29T10:58:03Z</time>
      </trkpt>
      <trkpt lat="48.66658" lon="6.21668">
        <ele>199.5</ele>
        <time>2020-06-29T10:58:04Z</time>
      </trkpt>
      <trkpt lat="48.6666" lon="6.21662">
        <ele>199.5</ele>
        <time>2020-06-29T10:58:05Z</time>
      </trkpt>
      <trkpt lat="48.66663" lon="6.21652">
        <ele>199.5</ele>
        <time>2020-06-29T10:58:06Z</time>
      </trkpt>
      <trkpt lat="48.66667" lon="6.21644">
        <ele>199.5</ele>
        <time>2020-06-29T10:58:07Z</time>
      </trkpt>
      <trkpt lat="48.6667" lon="6.21635">
        <ele>199.5</ele>
        <time>2020-06-29T10:58:08Z</time>
      </trkpt>
      <trkpt lat="48.66673" lon="6.21626">
        <ele>199.4</ele>
        <time>2020-06-29T10:58:09Z</time>
      </trkpt>
      <trkpt lat="48.66676" lon="6.21619">
        <ele>199.4</ele>
        <time>2020-06-29T10:58:10Z</time>
      </trkpt>
      <trkpt lat="48.66679" lon="6.21611">
        <ele>199.4</ele>
        <time>2020-06-29T10:58:11Z</time>
      </trkpt>
      <trkpt lat="48.66682" lon="6.21603">
        <ele>199.4</ele>
        <time>2020-06-29T10:58:12Z</time>
      </trkpt>
      <trkpt lat="48.66685" lon="6.21597">
        <ele>199.4</ele>
        <time>2020-06-29T10:58:13Z</time>
      </trkpt>
      <trkpt lat="48.66689" lon="6.21589">
        <ele>199.4</ele>
        <time>2020-06-29T10:58:14Z</time>
      </trkpt>
      <trkpt lat="48.66693" lon="6.21581">
        <ele>199.4</ele>
        <time>2020-06-29T10:58:15Z</time>
      </trkpt>
      <trkpt lat="48.66697" lon="6.21573">
        <ele>199.4</ele>
        <time>2020-06-29T10:58:16Z</time>
      </trkpt>
      <trkpt lat="48.667" lon="6.21565">
        <ele>199.4</ele>
        <time>2020-06-29T10:58:17Z</time>
      </trkpt>
      <trkpt lat="48.66703" lon="6.21557">
        <ele>199.4</ele>
        <time>2020-06-29T10:58:18Z</time>
      </trkpt>
      <trkpt lat="48.66707" lon="6.21551">
        <ele>199.4</ele>
        <time>2020-06-29T10:58:19Z</time>
      </trkpt>
      <trkpt lat="48.66709" lon="6.21545">
        <ele>199.4</ele>
        <time>2020-06-29T10:58:20Z</time>
      </trkpt>
      <trkpt lat="48.66712" lon="6.21538">
        <ele>199.4</ele>
        <time>2020-06-29T10:58:21Z</time>
      </trkpt>
      <trkpt lat="48.66717" lon="6.21529">
        <ele>199.4</ele>
        <time>2020-06-29T10:58:22Z</time>
      </trkpt>
      <trkpt lat="48.6672" lon="6.21521">
        <ele>199.3</ele>
        <time>2020-06-29T10:58:23Z</time>
      </trkpt>
      <trkpt lat="48.66723" lon="6.21514">
        <ele>199.3</ele>
        <time>2020-06-29T10:58:24Z</time>
      </trkpt>
      <trkpt lat="48.66726" lon="6.21507">
        <ele>199.3</ele>
        <time>2020-06-29T10:58:25Z</time>
      </trkpt>
      <trkpt lat="48.66729" lon="6.215">
        <ele>199.3</ele>
        <time>2020-06-29T10:58:26Z</time>
      </trkpt>
      <trkpt lat="48.66731" lon="6.21496">
        <ele>199.3</ele>
        <time>2020-06-29T10:58:27Z</time>
      </trkpt>
      <trkpt lat="48.66735" lon="6.21487">
        <ele>199.3</ele>
        <time>2020-06-29T10:58:28Z</time>
      </trkpt>
      <trkpt lat="48.66738" lon="6.21479">
        <ele>199.4</ele>
        <time>2020-06-29T10:58:29Z</time>
      </trkpt>
      <trkpt lat="48.66742" lon="6.2147">
        <ele>199.4</ele>
        <time>2020-06-29T10:58:30Z</time>
      </trkpt>
      <trkpt lat="48.66745" lon="6.21461">
        <ele>199.4</ele>
        <time>2020-06-29T10:58:31Z</time>
      </trkpt>
      <trkpt lat="48.66749" lon="6.21452">
        <ele>199.3</ele>
        <time>2020-06-29T10:58:32Z</time>
      </trkpt>
      <trkpt lat="48.66751" lon="6.21444">
        <ele>199.3</ele>
        <time>2020-06-29T10:58:33Z</time>
      </trkpt>
      <trkpt lat="48.66754" lon="6.21435">
        <ele>199.3</ele>
        <time>2020-06-29T10:58:34Z</time>
      </trkpt>
      <trkpt lat="48.66757" lon="6.21426">
        <ele>199.3</ele>
        <time>2020-06-29T10:58:35Z</time>
      </trkpt>
      <trkpt lat="48.6676" lon="6.21417">
        <ele>199.4</ele>
        <time>2020-06-29T10:58:36Z</time>
      </trkpt>
      <trkpt lat="48.66763" lon="6.21409">
        <ele>199.4</ele>
        <time>2020-06-29T10:58:37Z</time>
      </trkpt>
      <trkpt lat="48.66766" lon="6.214">
        <ele>199.4</ele>
        <time>2020-06-29T10:58:38Z</time>
      </trkpt>
      <trkpt lat="48.66769" lon="6.21393">
        <ele>199.4</ele>
        <time>2020-06-29T10:58:39Z</time>
      </trkpt>
      <trkpt lat="48.66772" lon="6.21386">
        <ele>199.4</ele>
        <time>2020-06-29T10:58:40Z</time>
      </trkpt>
      <trkpt lat="48.66776" lon="6.21378">
        <ele>199.4</ele>
        <time>2020-06-29T10:58:41Z</time>
      </trkpt>
      <trkpt lat="48.66779" lon="6.2137">
        <ele>199.5</ele>
        <time>2020-06-29T10:58:42Z</time>
      </trkpt>
      <trkpt lat="48.66781" lon="6.2136">
        <ele>199.5</ele>
        <time>2020-06-29T10:58:43Z</time>
      </trkpt>
      <trkpt lat="48.66783" lon="6.21352">
        <ele>199.5</ele>
        <time>2020-06-29T10:58:44Z</time>
      </trkpt>
      <trkpt lat="48.66786" lon="6.21345">
        <ele>199.5</ele>
        <time>2020-06-29T10:58:45Z</time>
      </trkpt>
      <trkpt lat="48.66789" lon="6.21339">
        <ele>199.5</ele>
        <time>2020-06-29T10:58:46Z</time>
      </trkpt>
      <trkpt lat="48.66792" lon="6.21332">
        <ele>199.5</ele>
        <time>2020-06-29T10:58:47Z</time>
      </trkpt>
      <trkpt lat="48.66796" lon="6.21323">
        <ele>199.5</ele>
        <time>2020-06-29T10:58:48Z</time>
      </trkpt>
      <trkpt lat="48.66798" lon="6.21315">
        <ele>199.5</ele>
        <time>2020-06-29T10:58:49Z</time>
      </trkpt>
      <trkpt lat="48.668" lon="6.21306">
        <ele>199.5</ele>
        <time>2020-06-29T10:58:50Z</time>
      </trkpt>
      <trkpt lat="48.66804" lon="6.21299">
        <ele>199.5</ele>
        <time>2020-06-29T10:58:51Z</time>
      </trkpt>
      <trkpt lat="48.66807" lon="6.21291">
        <ele>199.5</ele>
        <time>2020-06-29T10:58:52Z</time>
      </trkpt>
      <trkpt lat="48.6681" lon="6.21283">
        <ele>199.4</ele>
        <time>2020-06-29T10:58:53Z</time>
      </trkpt>
      <trkpt lat="48.66813" lon="6.21275">
        <ele>199.4</ele>
        <time>2020-06-29T10:58:54Z</time>
      </trkpt>
      <trkpt lat="48.66817" lon="6.21268">
        <ele>199.4</ele>
        <time>2020-06-29T10:58:55Z</time>
      </trkpt>
      <trkpt lat="48.66821" lon="6.2126">
        <ele>199.4</ele>
        <time>2020-06-29T10:58:56Z</time>
      </trkpt>
      <trkpt lat="48.66824" lon="6.21253">
        <ele>199.4</ele>
        <time>2020-06-29T10:58:57Z</time>
      </trkpt>
      <trkpt lat="48.66827" lon="6.21244">
        <ele>199.4</ele>
        <time>2020-06-29T10:58:58Z</time>
      </trkpt>
      <trkpt lat="48.66831" lon="6.21236">
        <ele>199.4</ele>
        <time>2020-06-29T10:58:59Z</time>
      </trkpt>
      <trkpt lat="48.66835" lon="6.21228">
        <ele>199.4</ele>
        <time>2020-06-29T10:59:00Z</time>
      </trkpt>
      <trkpt lat="48.66839" lon="6.21219">
        <ele>199.4</ele>
        <time>2020-06-29T10:59:01Z</time>
      </trkpt>
      <trkpt lat="48.66842" lon="6.21212">
        <ele>199.4</ele>
        <time>2020-06-29T10:59:02Z</time>
      </trkpt>
      <trkpt lat="48.66846" lon="6.21204">
        <ele>199.4</ele>
        <time>2020-06-29T10:59:03Z</time>
      </trkpt>
      <trkpt lat="48.66849" lon="6.21196">
        <ele>199.3</ele>
        <time>2020-06-29T10:59:04Z</time>
      </trkpt>
      <trkpt lat="48.66854" lon="6.21189">
        <ele>199.3</ele>
        <time>2020-06-29T10:59:05Z</time>
      </trkpt>
      <trkpt lat="48.66858" lon="6.21181">
        <ele>199.3</ele>
        <time>2020-06-29T10:59:06Z</time>
      </trkpt>
      <trkpt lat="48.66861" lon="6.21174">
        <ele>199.3</ele>
        <time>2020-06-29T10:59:07Z</time>
      </trkpt>
      <trkpt lat="48.66865" lon="6.21166">
        <ele>199.3</ele>
        <time>2020-06-29T10:59:08Z</time>
      </trkpt>
      <trkpt lat="48.66869" lon="6.21159">
        <ele>199.4</ele>
        <time>2020-06-29T10:59:09Z</time>
      </trkpt>
      <trkpt lat="48.66872" lon="6.21152">
        <ele>199.4</ele>
        <time>2020-06-29T10:59:10Z</time>
      </trkpt>
      <trkpt lat="48.66876" lon="6.21146">
        <ele>199.4</ele>
        <time>2020-06-29T10:59:11Z</time>
      </trkpt>
      <trkpt lat="48.66879" lon="6.21139">
        <ele>199.5</ele>
        <time>2020-06-29T10:59:12Z</time>
      </trkpt>
      <trkpt lat="48.66883" lon="6.21133">
        <ele>199.5</ele>
        <time>2020-06-29T10:59:13Z</time>
      </trkpt>
      <trkpt lat="48.66885" lon="6.21127">
        <ele>199.5</ele>
        <time>2020-06-29T10:59:14Z</time>
      </trkpt>
      <trkpt lat="48.66889" lon="6.2112">
        <ele>199.5</ele>
        <time>2020-06-29T10:59:15Z</time>
      </trkpt>
      <trkpt lat="48.66892" lon="6.21112">
        <ele>199.5</ele>
        <time>2020-06-29T10:59:16Z</time>
      </trkpt>
      <trkpt lat="48.66896" lon="6.21106">
        <ele>199.6</ele>
        <time>2020-06-29T10:59:17Z</time>
      </trkpt>
      <trkpt lat="48.669" lon="6.211">
        <ele>199.6</ele>
        <time>2020-06-29T10:59:18Z</time>
      </trkpt>
      <trkpt lat="48.66904" lon="6.21094">
        <ele>199.6</ele>
        <time>2020-06-29T10:59:19Z</time>
      </trkpt>
      <trkpt lat="48.66907" lon="6.21088">
        <ele>199.6</ele>
        <time>2020-06-29T10:59:20Z</time>
      </trkpt>
      <trkpt lat="48.66911" lon="6.21082">
        <ele>199.6</ele>
        <time>2020-06-29T10:59:21Z</time>
      </trkpt>
      <trkpt lat="48.66916" lon="6.21076">
        <ele>199.6</ele>
        <time>2020-06-29T10:59:22Z</time>
      </trkpt>
      <trkpt lat="48.6692" lon="6.2107">
        <ele>199.6</ele>
        <time>2020-06-29T10:59:23Z</time>
      </trkpt>
      <trkpt lat="48.66924" lon="6.21063">
        <ele>199.6</ele>
        <time>2020-06-29T10:59:24Z</time>
      </trkpt>
      <trkpt lat="48.66928" lon="6.21057">
        <ele>199.6</ele>
        <time>2020-06-29T10:59:25Z</time>
      </trkpt>
      <trkpt lat="48.66932" lon="6.21051">
        <ele>199.6</ele>
        <time>2020-06-29T10:59:26Z</time>
      </trkpt>
      <trkpt lat="48.66936" lon="6.21044">
        <ele>199.6</ele>
        <time>2020-06-29T10:59:27Z</time>
      </trkpt>
      <trkpt lat="48.6694" lon="6.21038">
        <ele>199.6</ele>
        <time>2020-06-29T10:59:28Z</time>
      </trkpt>
      <trkpt lat="48.66944" lon="6.21031">
        <ele>199.6</ele>
        <time>2020-06-29T10:59:29Z</time>
      </trkpt>
      <trkpt lat="48.66948" lon="6.21025">
        <ele>199.5</ele>
        <time>2020-06-29T10:59:30Z</time>
      </trkpt>
      <trkpt lat="48.6695" lon="6.21019">
        <ele>199.5</ele>
        <time>2020-06-29T10:59:31Z</time>
      </trkpt>
      <trkpt lat="48.66954" lon="6.21014">
        <ele>199.5</ele>
        <time>2020-06-29T10:59:32Z</time>
      </trkpt>
      <trkpt lat="48.6696" lon="6.2101">
        <ele>199.5</ele>
        <time>2020-06-29T10:59:33Z</time>
      </trkpt>
      <trkpt lat="48.66964" lon="6.21002">
        <ele>199.5</ele>
        <time>2020-06-29T10:59:34Z</time>
      </trkpt>
      <trkpt lat="48.66967" lon="6.20997">
        <ele>199.5</ele>
        <time>2020-06-29T10:59:35Z</time>
      </trkpt>
      <trkpt lat="48.66972" lon="6.20988">
        <ele>199.5</ele>
        <time>2020-06-29T10:59:36Z</time>
      </trkpt>
      <trkpt lat="48.66976" lon="6.20982">
        <ele>199.5</ele>
        <time>2020-06-29T10:59:37Z</time>
      </trkpt>
      <trkpt lat="48.6698" lon="6.20977">
        <ele>199.5</ele>
        <time>2020-06-29T10:59:38Z</time>
      </trkpt>
      <trkpt lat="48.66984" lon="6.20971">
        <ele>199.5</ele>
        <time>2020-06-29T10:59:39Z</time>
      </trkpt>
      <trkpt lat="48.66988" lon="6.20966">
        <ele>199.5</ele>
        <time>2020-06-29T10:59:40Z</time>
      </trkpt>
      <trkpt lat="48.66992" lon="6.20961">
        <ele>199.6</ele>
        <time>2020-06-29T10:59:41Z</time>
      </trkpt>
      <trkpt lat="48.66996" lon="6.20955">
        <ele>199.6</ele>
        <time>2020-06-29T10:59:42Z</time>
      </trkpt>
      <trkpt lat="48.67" lon="6.20947">
        <ele>199.6</ele>
        <time>2020-06-29T10:59:43Z</time>
      </trkpt>
      <trkpt lat="48.67005" lon="6.20941">
        <ele>199.6</ele>
        <time>2020-06-29T10:59:44Z</time>
      </trkpt>
      <trkpt lat="48.6701" lon="6.20936">
        <ele>199.6</ele>
        <time>2020-06-29T10:59:45Z</time>
      </trkpt>
      <trkpt lat="48.67014" lon="6.2093">
        <ele>199.6</ele>
        <time>2020-06-29T10:59:46Z</time>
      </trkpt>
      <trkpt lat="48.67017" lon="6.20924">
        <ele>199.6</ele>
        <time>2020-06-29T10:59:47Z</time>
      </trkpt>
      <trkpt lat="48.67021" lon="6.20919">
        <ele>199.6</ele>
        <time>2020-06-29T10:59:48Z</time>
      </trkpt>
      <trkpt lat="48.67026" lon="6.20911">
        <ele>199.6</ele>
        <time>2020-06-29T10:59:49Z</time>
      </trkpt>
      <trkpt lat="48.6703" lon="6.20905">
        <ele>199.7</ele>
        <time>2020-06-29T10:59:50Z</time>
      </trkpt>
      <trkpt lat="48.67035" lon="6.20899">
        <ele>199.7</ele>
        <time>2020-06-29T10:59:51Z</time>
      </trkpt>
      <trkpt lat="48.67039" lon="6.20894">
        <ele>199.7</ele>
        <time>2020-06-29T10:59:52Z</time>
      </trkpt>
      <trkpt lat="48.67044" lon="6.20887">
        <ele>199.7</ele>
        <time>2020-06-29T10:59:53Z</time>
      </trkpt>
      <trkpt lat="48.67049" lon="6.20881">
        <ele>199.7</ele>
        <time>2020-06-29T10:59:54Z</time>
      </trkpt>
      <trkpt lat="48.67053" lon="6.20875">
        <ele>199.7</ele>
        <time>2020-06-29T10:59:55Z</time>
      </trkpt>
      <trkpt lat="48.67057" lon="6.2087">
        <ele>199.7</ele>
        <time>2020-06-29T10:59:56Z</time>
      </trkpt>
      <trkpt lat="48.67062" lon="6.20865">
        <ele>199.7</ele>
        <time>2020-06-29T10:59:57Z</time>
      </trkpt>
      <trkpt lat="48.67067" lon="6.2086">
        <ele>199.7</ele>
        <time>2020-06-29T10:59:58Z</time>
      </trkpt>
      <trkpt lat="48.67071" lon="6.20855">
        <ele>199.7</ele>
        <time>2020-06-29T10:59:59Z</time>
      </trkpt>
      <trkpt lat="48.67075" lon="6.2085">
        <ele>199.7</ele>
        <time>2020-06-29T11:00:00Z</time>
      </trkpt>
      <trkpt lat="48.67079" lon="6.20844">
        <ele>199.7</ele>
        <time>2020-06-29T11:00:01Z</time>
      </trkpt>
      <trkpt lat="48.67084" lon="6.20838">
        <ele>199.7</ele>
        <time>2020-06-29T11:00:02Z</time>
      </trkpt>
      <trkpt lat="48.67088" lon="6.20832">
        <ele>199.7</ele>
        <time>2020-06-29T11:00:03Z</time>
      </trkpt>
      <trkpt lat="48.67093" lon="6.20825">
        <ele>199.6</ele>
        <time>2020-06-29T11:00:04Z</time>
      </trkpt>
      <trkpt lat="48.67098" lon="6.20821">
        <ele>199.6</ele>
        <time>2020-06-29T11:00:05Z</time>
      </trkpt>
      <trkpt lat="48.67103" lon="6.20817">
        <ele>199.6</ele>
        <time>2020-06-29T11:00:06Z</time>
      </trkpt>
      <trkpt lat="48.67108" lon="6.20815">
        <ele>199.6</ele>
        <time>2020-06-29T11:00:07Z</time>
      </trkpt>
      <trkpt lat="48.67114" lon="6.20812">
        <ele>199.6</ele>
        <time>2020-06-29T11:00:08Z</time>
      </trkpt>
      <trkpt lat="48.67119" lon="6.20807">
        <ele>199.6</ele>
        <time>2020-06-29T11:00:09Z</time>
      </trkpt>
      <trkpt lat="48.67124" lon="6.20804">
        <ele>199.6</ele>
        <time>2020-06-29T11:00:10Z</time>
      </trkpt>
      <trkpt lat="48.6713" lon="6.20801">
        <ele>199.6</ele>
        <time>2020-06-29T11:00:11Z</time>
      </trkpt>
      <trkpt lat="48.67134" lon="6.20797">
        <ele>199.6</ele>
        <time>2020-06-29T11:00:12Z</time>
      </trkpt>
      <trkpt lat="48.67138" lon="6.20792">
        <ele>199.5</ele>
        <time>2020-06-29T11:00:13Z</time>
      </trkpt>
      <trkpt lat="48.67142" lon="6.20786">
        <ele>199.5</ele>
        <time>2020-06-29T11:00:14Z</time>
      </trkpt>
      <trkpt lat="48.67147" lon="6.20779">
        <ele>199.5</ele>
        <time>2020-06-29T11:00:15Z</time>
      </trkpt>
      <trkpt lat="48.6715" lon="6.20773">
        <ele>199.5</ele>
        <time>2020-06-29T11:00:16Z</time>
      </trkpt>
      <trkpt lat="48.67155" lon="6.20767">
        <ele>199.5</ele>
        <time>2020-06-29T11:00:17Z</time>
      </trkpt>
      <trkpt lat="48.67159" lon="6.20761">
        <ele>199.4</ele>
        <time>2020-06-29T11:00:18Z</time>
      </trkpt>
      <trkpt lat="48.67162" lon="6.20756">
        <ele>199.4</ele>
        <time>2020-06-29T11:00:19Z</time>
      </trkpt>
      <trkpt lat="48.67166" lon="6.20751">
        <ele>199.4</ele>
        <time>2020-06-29T11:00:20Z</time>
      </trkpt>
      <trkpt lat="48.67169" lon="6.20747">
        <ele>199.4</ele>
        <time>2020-06-29T11:00:21Z</time>
      </trkpt>
      <trkpt lat="48.67172" lon="6.20743">
        <ele>199.4</ele>
        <time>2020-06-29T11:00:22Z</time>
      </trkpt>
      <trkpt lat="48.67176" lon="6.20738">
        <ele>199.4</ele>
        <time>2020-06-29T11:00:23Z</time>
      </trkpt>
      <trkpt lat="48.6718" lon="6.20734">
        <ele>199.4</ele>
        <time>2020-06-29T11:00:24Z</time>
      </trkpt>
      <trkpt lat="48.67183" lon="6.2073">
        <ele>199.4</ele>
        <time>2020-06-29T11:00:25Z</time>
      </trkpt>
      <trkpt lat="48.67186" lon="6.20726">
        <ele>199.4</ele>
        <time>2020-06-29T11:00:26Z</time>
      </trkpt>
      <trkpt lat="48.67189" lon="6.2072">
        <ele>199.4</ele>
        <time>2020-06-29T11:00:27Z</time>
      </trkpt>
      <trkpt lat="48.67194" lon="6.20713">
        <ele>199.4</ele>
        <time>2020-06-29T11:00:28Z</time>
      </trkpt>
      <trkpt lat="48.67197" lon="6.20708">
        <ele>199.3</ele>
        <time>2020-06-29T11:00:29Z</time>
      </trkpt>
      <trkpt lat="48.67201" lon="6.20702">
        <ele>199.3</ele>
        <time>2020-06-29T11:00:30Z</time>
      </trkpt>
      <trkpt lat="48.67205" lon="6.20696">
        <ele>199.4</ele>
        <time>2020-06-29T11:00:31Z</time>
      </trkpt>
      <trkpt lat="48.67208" lon="6.2069">
        <ele>199.4</ele>
        <time>2020-06-29T11:00:32Z</time>
      </trkpt>
      <trkpt lat="48.67211" lon="6.20684">
        <ele>199.4</ele>
        <time>2020-06-29T11:00:33Z</time>
      </trkpt>
      <trkpt lat="48.67214" lon="6.20679">
        <ele>199.4</ele>
        <time>2020-06-29T11:00:34Z</time>
      </trkpt>
      <trkpt lat="48.67217" lon="6.20675">
        <ele>199.4</ele>
        <time>2020-06-29T11:00:35Z</time>
      </trkpt>
      <trkpt lat="48.67219" lon="6.20671">
        <ele>199.4</ele>
        <time>2020-06-29T11:00:36Z</time>
      </trkpt>
      <trkpt lat="48.67222" lon="6.20667">
        <ele>199.4</ele>
        <time>2020-06-29T11:00:37Z</time>
      </trkpt>
      <trkpt lat="48.67224" lon="6.20664">
        <ele>199.4</ele>
        <time>2020-06-29T11:00:38Z</time>
      </trkpt>
      <trkpt lat="48.67226" lon="6.2066">
        <ele>199.4</ele>
        <time>2020-06-29T11:00:39Z</time>
      </trkpt>
      <trkpt lat="48.67229" lon="6.20656">
        <ele>199.3</ele>
        <time>2020-06-29T11:00:40Z</time>
      </trkpt>
      <trkpt lat="48.67231" lon="6.20653">
        <ele>199.2</ele>
        <time>2020-06-29T11:00:41Z</time>
      </trkpt>
      <trkpt lat="48.67235" lon="6.20651">
        <ele>199</ele>
        <time>2020-06-29T11:00:42Z</time>
      </trkpt>
      <trkpt lat="48.67236" lon="6.2065">
        <ele>199</ele>
        <time>2020-06-29T11:00:43Z</time>
      </trkpt>
      <trkpt lat="48.67239" lon="6.20647">
        <ele>198.8</ele>
        <time>2020-06-29T11:00:44Z</time>
      </trkpt>
      <trkpt lat="48.67242" lon="6.2064">
        <ele>198.5</ele>
        <time>2020-06-29T11:00:45Z</time>
      </trkpt>
      <trkpt lat="48.67248" lon="6.20632">
        <ele>198.1</ele>
        <time>2020-06-29T11:00:46Z</time>
      </trkpt>
      <trkpt lat="48.67252" lon="6.20627">
        <ele>197.8</ele>
        <time>2020-06-29T11:00:47Z</time>
      </trkpt>
      <trkpt lat="48.67257" lon="6.20621">
        <ele>197.5</ele>
        <time>2020-06-29T11:00:48Z</time>
      </trkpt>
      <trkpt lat="48.67262" lon="6.20615">
        <ele>197.3</ele>
        <time>2020-06-29T11:00:49Z</time>
      </trkpt>
      <trkpt lat="48.67266" lon="6.2061">
        <ele>197.2</ele>
        <time>2020-06-29T11:00:50Z</time>
      </trkpt>
      <trkpt lat="48.67271" lon="6.20605">
        <ele>197.1</ele>
        <time>2020-06-29T11:00:51Z</time>
      </trkpt>
      <trkpt lat="48.67278" lon="6.20599">
        <ele>197.1</ele>
        <time>2020-06-29T11:00:52Z</time>
      </trkpt>
      <trkpt lat="48.67283" lon="6.20593">
        <ele>197.1</ele>
        <time>2020-06-29T11:00:53Z</time>
      </trkpt>
      <trkpt lat="48.67288" lon="6.20587">
        <ele>197.1</ele>
        <time>2020-06-29T11:00:54Z</time>
      </trkpt>
      <trkpt lat="48.67293" lon="6.2058">
        <ele>197.2</ele>
        <time>2020-06-29T11:00:55Z</time>
      </trkpt>
      <trkpt lat="48.67295" lon="6.20574">
        <ele>197.2</ele>
        <time>2020-06-29T11:00:56Z</time>
      </trkpt>
      <trkpt lat="48.67297" lon="6.20566">
        <ele>197.2</ele>
        <time>2020-06-29T11:00:57Z</time>
      </trkpt>
      <trkpt lat="48.673" lon="6.2056">
        <ele>197.2</ele>
        <time>2020-06-29T11:00:58Z</time>
      </trkpt>
      <trkpt lat="48.67303" lon="6.20552">
        <ele>197.2</ele>
        <time>2020-06-29T11:00:59Z</time>
      </trkpt>
      <trkpt lat="48.67306" lon="6.20546">
        <ele>197.2</ele>
        <time>2020-06-29T11:01:00Z</time>
      </trkpt>
      <trkpt lat="48.6731" lon="6.20541">
        <ele>197.2</ele>
        <time>2020-06-29T11:01:01Z</time>
      </trkpt>
      <trkpt lat="48.67312" lon="6.20536">
        <ele>197.2</ele>
        <time>2020-06-29T11:01:02Z</time>
      </trkpt>
      <trkpt lat="48.67315" lon="6.2053">
        <ele>197.2</ele>
        <time>2020-06-29T11:01:03Z</time>
      </trkpt>
      <trkpt lat="48.67319" lon="6.20524">
        <ele>197.2</ele>
        <time>2020-06-29T11:01:04Z</time>
      </trkpt>
      <trkpt lat="48.67323" lon="6.20519">
        <ele>197.2</ele>
        <time>2020-06-29T11:01:05Z</time>
      </trkpt>
      <trkpt lat="48.67326" lon="6.20515">
        <ele>197.2</ele>
        <time>2020-06-29T11:01:06Z</time>
      </trkpt>
      <trkpt lat="48.6733" lon="6.2051">
        <ele>197.2</ele>
        <time>2020-06-29T11:01:07Z</time>
      </trkpt>
      <trkpt lat="48.67334" lon="6.20506">
        <ele>197.2</ele>
        <time>2020-06-29T11:01:08Z</time>
      </trkpt>
      <trkpt lat="48.67338" lon="6.20501">
        <ele>197.3</ele>
        <time>2020-06-29T11:01:09Z</time>
      </trkpt>
      <trkpt lat="48.67343" lon="6.20496">
        <ele>197.3</ele>
        <time>2020-06-29T11:01:10Z</time>
      </trkpt>
      <trkpt lat="48.67348" lon="6.20489">
        <ele>197.3</ele>
        <time>2020-06-29T11:01:11Z</time>
      </trkpt>
      <trkpt lat="48.67351" lon="6.20484">
        <ele>197.3</ele>
        <time>2020-06-29T11:01:12Z</time>
      </trkpt>
      <trkpt lat="48.67356" lon="6.20479">
        <ele>197.4</ele>
        <time>2020-06-29T11:01:13Z</time>
      </trkpt>
      <trkpt lat="48.6736" lon="6.20474">
        <ele>197.3</ele>
        <time>2020-06-29T11:01:14Z</time>
      </trkpt>
      <trkpt lat="48.67364" lon="6.20471">
        <ele>197.3</ele>
        <time>2020-06-29T11:01:15Z</time>
      </trkpt>
      <trkpt lat="48.67369" lon="6.20467">
        <ele>197.3</ele>
        <time>2020-06-29T11:01:16Z</time>
      </trkpt>
      <trkpt lat="48.67374" lon="6.20462">
        <ele>197.3</ele>
        <time>2020-06-29T11:01:17Z</time>
      </trkpt>
      <trkpt lat="48.67379" lon="6.20456">
        <ele>197.3</ele>
        <time>2020-06-29T11:01:18Z</time>
      </trkpt>
      <trkpt lat="48.67384" lon="6.2045">
        <ele>197.3</ele>
        <time>2020-06-29T11:01:19Z</time>
      </trkpt>
      <trkpt lat="48.67389" lon="6.20445">
        <ele>197.4</ele>
        <time>2020-06-29T11:01:20Z</time>
      </trkpt>
      <trkpt lat="48.67394" lon="6.2044">
        <ele>197.4</ele>
        <time>2020-06-29T11:01:21Z</time>
      </trkpt>
      <trkpt lat="48.67398" lon="6.20436">
        <ele>197.5</ele>
        <time>2020-06-29T11:01:22Z</time>
      </trkpt>
      <trkpt lat="48.67403" lon="6.2043">
        <ele>197.5</ele>
        <time>2020-06-29T11:01:23Z</time>
      </trkpt>
      <trkpt lat="48.67408" lon="6.20424">
        <ele>197.6</ele>
        <time>2020-06-29T11:01:24Z</time>
      </trkpt>
      <trkpt lat="48.67412" lon="6.20419">
        <ele>197.7</ele>
        <time>2020-06-29T11:01:25Z</time>
      </trkpt>
      <trkpt lat="48.67417" lon="6.20414">
        <ele>197.8</ele>
        <time>2020-06-29T11:01:26Z</time>
      </trkpt>
      <trkpt lat="48.67423" lon="6.20408">
        <ele>197.9</ele>
        <time>2020-06-29T11:01:27Z</time>
      </trkpt>
      <trkpt lat="48.67428" lon="6.20403">
        <ele>197.9</ele>
        <time>2020-06-29T11:01:28Z</time>
      </trkpt>
      <trkpt lat="48.67432" lon="6.204">
        <ele>197.9</ele>
        <time>2020-06-29T11:01:29Z</time>
      </trkpt>
      <trkpt lat="48.67437" lon="6.20395">
        <ele>198</ele>
        <time>2020-06-29T11:01:30Z</time>
      </trkpt>
      <trkpt lat="48.6744" lon="6.2039">
        <ele>198</ele>
        <time>2020-06-29T11:01:31Z</time>
      </trkpt>
      <trkpt lat="48.67442" lon="6.20386">
        <ele>198.1</ele>
        <time>2020-06-29T11:01:32Z</time>
      </trkpt>
      <trkpt lat="48.67445" lon="6.20382">
        <ele>198.1</ele>
        <time>2020-06-29T11:01:33Z</time>
      </trkpt>
      <trkpt lat="48.67448" lon="6.20379">
        <ele>198.1</ele>
        <time>2020-06-29T11:01:34Z</time>
      </trkpt>
      <trkpt lat="48.67452" lon="6.20376">
        <ele>198.1</ele>
        <time>2020-06-29T11:01:35Z</time>
      </trkpt>
      <trkpt lat="48.67456" lon="6.20373">
        <ele>198.1</ele>
        <time>2020-06-29T11:01:36Z</time>
      </trkpt>
      <trkpt lat="48.67461" lon="6.20369">
        <ele>198.1</ele>
        <time>2020-06-29T11:01:37Z</time>
      </trkpt>
      <trkpt lat="48.67466" lon="6.20365">
        <ele>198.2</ele>
        <time>2020-06-29T11:01:38Z</time>
      </trkpt>
      <trkpt lat="48.6747" lon="6.20362">
        <ele>198.2</ele>
        <time>2020-06-29T11:01:39Z</time>
      </trkpt>
      <trkpt lat="48.67475" lon="6.2036">
        <ele>198.2</ele>
        <time>2020-06-29T11:01:40Z</time>
      </trkpt>
      <trkpt lat="48.67479" lon="6.20357">
        <ele>198.2</ele>
        <time>2020-06-29T11:01:41Z</time>
      </trkpt>
      <trkpt lat="48.67483" lon="6.20353">
        <ele>198.2</ele>
        <time>2020-06-29T11:01:42Z</time>
      </trkpt>
      <trkpt lat="48.67489" lon="6.20349">
        <ele>198.3</ele>
        <time>2020-06-29T11:01:43Z</time>
      </trkpt>
      <trkpt lat="48.67494" lon="6.20345">
        <ele>198.3</ele>
        <time>2020-06-29T11:01:44Z</time>
      </trkpt>
      <trkpt lat="48.67499" lon="6.20343">
        <ele>198.3</ele>
        <time>2020-06-29T11:01:45Z</time>
      </trkpt>
      <trkpt lat="48.67504" lon="6.20338">
        <ele>198.3</ele>
        <time>2020-06-29T11:01:46Z</time>
      </trkpt>
      <trkpt lat="48.67509" lon="6.20334">
        <ele>198.3</ele>
        <time>2020-06-29T11:01:47Z</time>
      </trkpt>
      <trkpt lat="48.67513" lon="6.20331">
        <ele>198.3</ele>
        <time>2020-06-29T11:01:48Z</time>
      </trkpt>
      <trkpt lat="48.67515" lon="6.20329">
        <ele>198.3</ele>
        <time>2020-06-29T11:01:49Z</time>
      </trkpt>
      <trkpt lat="48.67519" lon="6.20326">
        <ele>198.3</ele>
        <time>2020-06-29T11:01:50Z</time>
      </trkpt>
      <trkpt lat="48.67524" lon="6.20323">
        <ele>198.3</ele>
        <time>2020-06-29T11:01:51Z</time>
      </trkpt>
      <trkpt lat="48.67529" lon="6.20318">
        <ele>198.3</ele>
        <time>2020-06-29T11:01:52Z</time>
      </trkpt>
      <trkpt lat="48.67533" lon="6.20314">
        <ele>198.3</ele>
        <time>2020-06-29T11:01:53Z</time>
      </trkpt>
      <trkpt lat="48.67537" lon="6.20311">
        <ele>198.2</ele>
        <time>2020-06-29T11:01:54Z</time>
      </trkpt>
      <trkpt lat="48.67541" lon="6.20309">
        <ele>198.2</ele>
        <time>2020-06-29T11:01:55Z</time>
      </trkpt>
      <trkpt lat="48.67546" lon="6.20308">
        <ele>198.2</ele>
        <time>2020-06-29T11:01:56Z</time>
      </trkpt>
      <trkpt lat="48.67551" lon="6.20305">
        <ele>198.1</ele>
        <time>2020-06-29T11:01:57Z</time>
      </trkpt>
      <trkpt lat="48.67557" lon="6.20301">
        <ele>198.1</ele>
        <time>2020-06-29T11:01:58Z</time>
      </trkpt>
      <trkpt lat="48.67561" lon="6.20297">
        <ele>198.1</ele>
        <time>2020-06-29T11:01:59Z</time>
      </trkpt>
      <trkpt lat="48.67566" lon="6.20294">
        <ele>198</ele>
        <time>2020-06-29T11:02:00Z</time>
      </trkpt>
      <trkpt lat="48.67571" lon="6.20291">
        <ele>198</ele>
        <time>2020-06-29T11:02:01Z</time>
      </trkpt>
      <trkpt lat="48.67576" lon="6.2029">
        <ele>198</ele>
        <time>2020-06-29T11:02:02Z</time>
      </trkpt>
      <trkpt lat="48.6758" lon="6.20287">
        <ele>198</ele>
        <time>2020-06-29T11:02:03Z</time>
      </trkpt>
      <trkpt lat="48.67586" lon="6.20285">
        <ele>198.1</ele>
        <time>2020-06-29T11:02:04Z</time>
      </trkpt>
      <trkpt lat="48.67592" lon="6.20282">
        <ele>198.1</ele>
        <time>2020-06-29T11:02:05Z</time>
      </trkpt>
      <trkpt lat="48.67598" lon="6.20279">
        <ele>198</ele>
        <time>2020-06-29T11:02:06Z</time>
      </trkpt>
      <trkpt lat="48.67604" lon="6.20276">
        <ele>198</ele>
        <time>2020-06-29T11:02:07Z</time>
      </trkpt>
      <trkpt lat="48.67609" lon="6.20273">
        <ele>198</ele>
        <time>2020-06-29T11:02:08Z</time>
      </trkpt>
      <trkpt lat="48.67615" lon="6.20269">
        <ele>198</ele>
        <time>2020-06-29T11:02:09Z</time>
      </trkpt>
      <trkpt lat="48.67622" lon="6.20266">
        <ele>198</ele>
        <time>2020-06-29T11:02:10Z</time>
      </trkpt>
      <trkpt lat="48.67626" lon="6.20262">
        <ele>198</ele>
        <time>2020-06-29T11:02:11Z</time>
      </trkpt>
      <trkpt lat="48.67632" lon="6.2026">
        <ele>198.1</ele>
        <time>2020-06-29T11:02:12Z</time>
      </trkpt>
      <trkpt lat="48.67636" lon="6.20257">
        <ele>198.1</ele>
        <time>2020-06-29T11:02:13Z</time>
      </trkpt>
      <trkpt lat="48.67641" lon="6.20255">
        <ele>198.1</ele>
        <time>2020-06-29T11:02:14Z</time>
      </trkpt>
      <trkpt lat="48.67646" lon="6.20253">
        <ele>198.1</ele>
        <time>2020-06-29T11:02:15Z</time>
      </trkpt>
      <trkpt lat="48.6765" lon="6.2025">
        <ele>198.2</ele>
        <time>2020-06-29T11:02:16Z</time>
      </trkpt>
      <trkpt lat="48.67654" lon="6.20248">
        <ele>198.2</ele>
        <time>2020-06-29T11:02:17Z</time>
      </trkpt>
      <trkpt lat="48.67658" lon="6.20245">
        <ele>198.2</ele>
        <time>2020-06-29T11:02:18Z</time>
      </trkpt>
      <trkpt lat="48.67662" lon="6.20244">
        <ele>198.2</ele>
        <time>2020-06-29T11:02:19Z</time>
      </trkpt>
      <trkpt lat="48.67667" lon="6.20243">
        <ele>198.2</ele>
        <time>2020-06-29T11:02:20Z</time>
      </trkpt>
      <trkpt lat="48.67672" lon="6.20242">
        <ele>198.1</ele>
        <time>2020-06-29T11:02:21Z</time>
      </trkpt>
      <trkpt lat="48.67676" lon="6.20239">
        <ele>198.1</ele>
        <time>2020-06-29T11:02:22Z</time>
      </trkpt>
      <trkpt lat="48.67681" lon="6.20237">
        <ele>198.1</ele>
        <time>2020-06-29T11:02:23Z</time>
      </trkpt>
      <trkpt lat="48.67688" lon="6.20233">
        <ele>198.1</ele>
        <time>2020-06-29T11:02:24Z</time>
      </trkpt>
      <trkpt lat="48.67694" lon="6.20231">
        <ele>198</ele>
        <time>2020-06-29T11:02:25Z</time>
      </trkpt>
      <trkpt lat="48.67699" lon="6.20229">
        <ele>198</ele>
        <time>2020-06-29T11:02:26Z</time>
      </trkpt>
      <trkpt lat="48.67704" lon="6.20226">
        <ele>198</ele>
        <time>2020-06-29T11:02:27Z</time>
      </trkpt>
      <trkpt lat="48.67709" lon="6.20223">
        <ele>198</ele>
        <time>2020-06-29T11:02:28Z</time>
      </trkpt>
      <trkpt lat="48.67713" lon="6.2022">
        <ele>198</ele>
        <time>2020-06-29T11:02:29Z</time>
      </trkpt>
      <trkpt lat="48.67718" lon="6.20218">
        <ele>198</ele>
        <time>2020-06-29T11:02:30Z</time>
      </trkpt>
      <trkpt lat="48.67722" lon="6.20215">
        <ele>198</ele>
        <time>2020-06-29T11:02:31Z</time>
      </trkpt>
      <trkpt lat="48.67726" lon="6.20214">
        <ele>198</ele>
        <time>2020-06-29T11:02:32Z</time>
      </trkpt>
      <trkpt lat="48.6773" lon="6.20213">
        <ele>198</ele>
        <time>2020-06-29T11:02:33Z</time>
      </trkpt>
      <trkpt lat="48.67733" lon="6.20212">
        <ele>198</ele>
        <time>2020-06-29T11:02:34Z</time>
      </trkpt>
      <trkpt lat="48.67737" lon="6.2021">
        <ele>198</ele>
        <time>2020-06-29T11:02:35Z</time>
      </trkpt>
      <trkpt lat="48.67741" lon="6.20208">
        <ele>198</ele>
        <time>2020-06-29T11:02:36Z</time>
      </trkpt>
      <trkpt lat="48.67743" lon="6.20207">
        <ele>198</ele>
        <time>2020-06-29T11:02:37Z</time>
      </trkpt>
      <trkpt lat="48.67746" lon="6.20205">
        <ele>198</ele>
        <time>2020-06-29T11:02:38Z</time>
      </trkpt>
      <trkpt lat="48.6775" lon="6.20204">
        <ele>198</ele>
        <time>2020-06-29T11:02:39Z</time>
      </trkpt>
      <trkpt lat="48.67754" lon="6.20201">
        <ele>198</ele>
        <time>2020-06-29T11:02:40Z</time>
      </trkpt>
      <trkpt lat="48.67757" lon="6.20199">
        <ele>198</ele>
        <time>2020-06-29T11:02:41Z</time>
      </trkpt>
      <trkpt lat="48.67761" lon="6.20198">
        <ele>198</ele>
        <time>2020-06-29T11:02:42Z</time>
      </trkpt>
      <trkpt lat="48.67765" lon="6.20195">
        <ele>198</ele>
        <time>2020-06-29T11:02:43Z</time>
      </trkpt>
      <trkpt lat="48.67769" lon="6.20192">
        <ele>198</ele>
        <time>2020-06-29T11:02:44Z</time>
      </trkpt>
      <trkpt lat="48.67773" lon="6.20189">
        <ele>198</ele>
        <time>2020-06-29T11:02:45Z</time>
      </trkpt>
      <trkpt lat="48.67777" lon="6.20187">
        <ele>198</ele>
        <time>2020-06-29T11:02:46Z</time>
      </trkpt>
      <trkpt lat="48.67781" lon="6.20185">
        <ele>197.9</ele>
        <time>2020-06-29T11:02:47Z</time>
      </trkpt>
      <trkpt lat="48.67784" lon="6.20183">
        <ele>197.9</ele>
        <time>2020-06-29T11:02:48Z</time>
      </trkpt>
      <trkpt lat="48.67788" lon="6.20183">
        <ele>197.8</ele>
        <time>2020-06-29T11:02:49Z</time>
      </trkpt>
      <trkpt lat="48.67791" lon="6.20182">
        <ele>197.8</ele>
        <time>2020-06-29T11:02:50Z</time>
      </trkpt>
      <trkpt lat="48.67795" lon="6.2018">
        <ele>197.7</ele>
        <time>2020-06-29T11:02:51Z</time>
      </trkpt>
      <trkpt lat="48.678" lon="6.20179">
        <ele>197.6</ele>
        <time>2020-06-29T11:02:52Z</time>
      </trkpt>
      <trkpt lat="48.67804" lon="6.20177">
        <ele>197.5</ele>
        <time>2020-06-29T11:02:53Z</time>
      </trkpt>
      <trkpt lat="48.67809" lon="6.20175">
        <ele>197.4</ele>
        <time>2020-06-29T11:02:54Z</time>
      </trkpt>
      <trkpt lat="48.67814" lon="6.20172">
        <ele>197.3</ele>
        <time>2020-06-29T11:02:55Z</time>
      </trkpt>
      <trkpt lat="48.67817" lon="6.20169">
        <ele>197.3</ele>
        <time>2020-06-29T11:02:56Z</time>
      </trkpt>
      <trkpt lat="48.67821" lon="6.20167">
        <ele>197.3</ele>
        <time>2020-06-29T11:02:57Z</time>
      </trkpt>
      <trkpt lat="48.67825" lon="6.20165">
        <ele>197.3</ele>
        <time>2020-06-29T11:02:58Z</time>
      </trkpt>
      <trkpt lat="48.67829" lon="6.20163">
        <ele>197.3</ele>
        <time>2020-06-29T11:02:59Z</time>
      </trkpt>
      <trkpt lat="48.67833" lon="6.2016">
        <ele>197.4</ele>
        <time>2020-06-29T11:03:00Z</time>
      </trkpt>
      <trkpt lat="48.67837" lon="6.20158">
        <ele>197.4</ele>
        <time>2020-06-29T11:03:01Z</time>
      </trkpt>
      <trkpt lat="48.67841" lon="6.20153">
        <ele>197.5</ele>
        <time>2020-06-29T11:03:02Z</time>
      </trkpt>
      <trkpt lat="48.67846" lon="6.2015">
        <ele>197.6</ele>
        <time>2020-06-29T11:03:03Z</time>
      </trkpt>
      <trkpt lat="48.6785" lon="6.20149">
        <ele>197.7</ele>
        <time>2020-06-29T11:03:04Z</time>
      </trkpt>
      <trkpt lat="48.67853" lon="6.20148">
        <ele>197.7</ele>
        <time>2020-06-29T11:03:05Z</time>
      </trkpt>
      <trkpt lat="48.67857" lon="6.20147">
        <ele>197.8</ele>
        <time>2020-06-29T11:03:06Z</time>
      </trkpt>
      <trkpt lat="48.6786" lon="6.20145">
        <ele>197.8</ele>
        <time>2020-06-29T11:03:07Z</time>
      </trkpt>
      <trkpt lat="48.67864" lon="6.20143">
        <ele>197.8</ele>
        <time>2020-06-29T11:03:08Z</time>
      </trkpt>
      <trkpt lat="48.67868" lon="6.20142">
        <ele>197.9</ele>
        <time>2020-06-29T11:03:09Z</time>
      </trkpt>
      <trkpt lat="48.67871" lon="6.20141">
        <ele>197.9</ele>
        <time>2020-06-29T11:03:10Z</time>
      </trkpt>
      <trkpt lat="48.67875" lon="6.20139">
        <ele>197.9</ele>
        <time>2020-06-29T11:03:11Z</time>
      </trkpt>
      <trkpt lat="48.67879" lon="6.20137">
        <ele>197.9</ele>
        <time>2020-06-29T11:03:12Z</time>
      </trkpt>
      <trkpt lat="48.67882" lon="6.20135">
        <ele>197.9</ele>
        <time>2020-06-29T11:03:13Z</time>
      </trkpt>
      <trkpt lat="48.67886" lon="6.20133">
        <ele>197.9</ele>
        <time>2020-06-29T11:03:14Z</time>
      </trkpt>
      <trkpt lat="48.67889" lon="6.20131">
        <ele>197.9</ele>
        <time>2020-06-29T11:03:15Z</time>
      </trkpt>
      <trkpt lat="48.67893" lon="6.20129">
        <ele>197.9</ele>
        <time>2020-06-29T11:03:16Z</time>
      </trkpt>
      <trkpt lat="48.67897" lon="6.20127">
        <ele>197.9</ele>
        <time>2020-06-29T11:03:17Z</time>
      </trkpt>
      <trkpt lat="48.67901" lon="6.20125">
        <ele>197.8</ele>
        <time>2020-06-29T11:03:18Z</time>
      </trkpt>
      <trkpt lat="48.67905" lon="6.20124">
        <ele>197.8</ele>
        <time>2020-06-29T11:03:19Z</time>
      </trkpt>
      <trkpt lat="48.67909" lon="6.20122">
        <ele>197.8</ele>
        <time>2020-06-29T11:03:20Z</time>
      </trkpt>
      <trkpt lat="48.67912" lon="6.20121">
        <ele>197.8</ele>
        <time>2020-06-29T11:03:21Z</time>
      </trkpt>
      <trkpt lat="48.67915" lon="6.20119">
        <ele>197.8</ele>
        <time>2020-06-29T11:03:22Z</time>
      </trkpt>
      <trkpt lat="48.67919" lon="6.20117">
        <ele>197.8</ele>
        <time>2020-06-29T11:03:23Z</time>
      </trkpt>
      <trkpt lat="48.67923" lon="6.20115">
        <ele>197.8</ele>
        <time>2020-06-29T11:03:24Z</time>
      </trkpt>
      <trkpt lat="48.67927" lon="6.20114">
        <ele>197.8</ele>
        <time>2020-06-29T11:03:25Z</time>
      </trkpt>
      <trkpt lat="48.67931" lon="6.20113">
        <ele>197.8</ele>
        <time>2020-06-29T11:03:26Z</time>
      </trkpt>
      <trkpt lat="48.67935" lon="6.2011">
        <ele>197.8</ele>
        <time>2020-06-29T11:03:27Z</time>
      </trkpt>
      <trkpt lat="48.67939" lon="6.20108">
        <ele>197.8</ele>
        <time>2020-06-29T11:03:28Z</time>
      </trkpt>
      <trkpt lat="48.67942" lon="6.20107">
        <ele>197.8</ele>
        <time>2020-06-29T11:03:29Z</time>
      </trkpt>
      <trkpt lat="48.67945" lon="6.20105">
        <ele>197.8</ele>
        <time>2020-06-29T11:03:30Z</time>
      </trkpt>
      <trkpt lat="48.67949" lon="6.20105">
        <ele>197.8</ele>
        <time>2020-06-29T11:03:31Z</time>
      </trkpt>
      <trkpt lat="48.67952" lon="6.20105">
        <ele>197.8</ele>
        <time>2020-06-29T11:03:32Z</time>
      </trkpt>
      <trkpt lat="48.67956" lon="6.20104">
        <ele>197.8</ele>
        <time>2020-06-29T11:03:33Z</time>
      </trkpt>
      <trkpt lat="48.67958" lon="6.20104">
        <ele>197.8</ele>
        <time>2020-06-29T11:03:34Z</time>
      </trkpt>
      <trkpt lat="48.6796" lon="6.20101">
        <ele>197.8</ele>
        <time>2020-06-29T11:03:35Z</time>
      </trkpt>
      <trkpt lat="48.67962" lon="6.20098">
        <ele>197.8</ele>
        <time>2020-06-29T11:03:36Z</time>
      </trkpt>
      <trkpt lat="48.67965" lon="6.20096">
        <ele>197.8</ele>
        <time>2020-06-29T11:03:37Z</time>
      </trkpt>
      <trkpt lat="48.67968" lon="6.20094">
        <ele>197.8</ele>
        <time>2020-06-29T11:03:38Z</time>
      </trkpt>
      <trkpt lat="48.67971" lon="6.20094">
        <ele>197.8</ele>
        <time>2020-06-29T11:03:39Z</time>
      </trkpt>
      <trkpt lat="48.67974" lon="6.20092">
        <ele>197.9</ele>
        <time>2020-06-29T11:03:40Z</time>
      </trkpt>
      <trkpt lat="48.67977" lon="6.2009">
        <ele>197.9</ele>
        <time>2020-06-29T11:03:41Z</time>
      </trkpt>
      <trkpt lat="48.6798" lon="6.2009">
        <ele>197.9</ele>
        <time>2020-06-29T11:03:42Z</time>
      </trkpt>
      <trkpt lat="48.67984" lon="6.20088">
        <ele>197.9</ele>
        <time>2020-06-29T11:03:43Z</time>
      </trkpt>
      <trkpt lat="48.67988" lon="6.20087">
        <ele>197.9</ele>
        <time>2020-06-29T11:03:44Z</time>
      </trkpt>
      <trkpt lat="48.67992" lon="6.20083">
        <ele>197.8</ele>
        <time>2020-06-29T11:03:45Z</time>
      </trkpt>
      <trkpt lat="48.67996" lon="6.20081">
        <ele>197.8</ele>
        <time>2020-06-29T11:03:46Z</time>
      </trkpt>
      <trkpt lat="48.67999" lon="6.2008">
        <ele>197.8</ele>
        <time>2020-06-29T11:03:47Z</time>
      </trkpt>
      <trkpt lat="48.68003" lon="6.20079">
        <ele>197.8</ele>
        <time>2020-06-29T11:03:48Z</time>
      </trkpt>
      <trkpt lat="48.68007" lon="6.20077">
        <ele>197.8</ele>
        <time>2020-06-29T11:03:49Z</time>
      </trkpt>
      <trkpt lat="48.6801" lon="6.20074">
        <ele>197.8</ele>
        <time>2020-06-29T11:03:50Z</time>
      </trkpt>
      <trkpt lat="48.68014" lon="6.20072">
        <ele>197.8</ele>
        <time>2020-06-29T11:03:51Z</time>
      </trkpt>
      <trkpt lat="48.68018" lon="6.2007">
        <ele>197.8</ele>
        <time>2020-06-29T11:03:52Z</time>
      </trkpt>
      <trkpt lat="48.68021" lon="6.20068">
        <ele>197.8</ele>
        <time>2020-06-29T11:03:53Z</time>
      </trkpt>
      <trkpt lat="48.68025" lon="6.20065">
        <ele>197.9</ele>
        <time>2020-06-29T11:03:54Z</time>
      </trkpt>
      <trkpt lat="48.68028" lon="6.20066">
        <ele>197.9</ele>
        <time>2020-06-29T11:03:55Z</time>
      </trkpt>
      <trkpt lat="48.68032" lon="6.20065">
        <ele>197.9</ele>
        <time>2020-06-29T11:03:56Z</time>
      </trkpt>
      <trkpt lat="48.68036" lon="6.20062">
        <ele>197.9</ele>
        <time>2020-06-29T11:03:57Z</time>
      </trkpt>
      <trkpt lat="48.6804" lon="6.2006">
        <ele>197.9</ele>
        <time>2020-06-29T11:03:58Z</time>
      </trkpt>
      <trkpt lat="48.68044" lon="6.20057">
        <ele>197.9</ele>
        <time>2020-06-29T11:03:59Z</time>
      </trkpt>
      <trkpt lat="48.68048" lon="6.20054">
        <ele>197.9</ele>
        <time>2020-06-29T11:04:00Z</time>
      </trkpt>
      <trkpt lat="48.68053" lon="6.20052">
        <ele>197.9</ele>
        <time>2020-06-29T11:04:01Z</time>
      </trkpt>
      <trkpt lat="48.68057" lon="6.20049">
        <ele>197.9</ele>
        <time>2020-06-29T11:04:02Z</time>
      </trkpt>
      <trkpt lat="48.68061" lon="6.20046">
        <ele>197.9</ele>
        <time>2020-06-29T11:04:03Z</time>
      </trkpt>
      <trkpt lat="48.68065" lon="6.20044">
        <ele>197.9</ele>
        <time>2020-06-29T11:04:04Z</time>
      </trkpt>
      <trkpt lat="48.6807" lon="6.20042">
        <ele>197.9</ele>
        <time>2020-06-29T11:04:05Z</time>
      </trkpt>
      <trkpt lat="48.68075" lon="6.20039">
        <ele>197.9</ele>
        <time>2020-06-29T11:04:06Z</time>
      </trkpt>
      <trkpt lat="48.6808" lon="6.20037">
        <ele>197.9</ele>
        <time>2020-06-29T11:04:07Z</time>
      </trkpt>
      <trkpt lat="48.68084" lon="6.20035">
        <ele>197.9</ele>
        <time>2020-06-29T11:04:08Z</time>
      </trkpt>
      <trkpt lat="48.68089" lon="6.20033">
        <ele>197.8</ele>
        <time>2020-06-29T11:04:09Z</time>
      </trkpt>
      <trkpt lat="48.68094" lon="6.20031">
        <ele>197.8</ele>
        <time>2020-06-29T11:04:10Z</time>
      </trkpt>
      <trkpt lat="48.68099" lon="6.20028">
        <ele>197.8</ele>
        <time>2020-06-29T11:04:11Z</time>
      </trkpt>
      <trkpt lat="48.68103" lon="6.20027">
        <ele>197.8</ele>
        <time>2020-06-29T11:04:12Z</time>
      </trkpt>
      <trkpt lat="48.68108" lon="6.20025">
        <ele>197.8</ele>
        <time>2020-06-29T11:04:13Z</time>
      </trkpt>
      <trkpt lat="48.68112" lon="6.20022">
        <ele>197.8</ele>
        <time>2020-06-29T11:04:14Z</time>
      </trkpt>
      <trkpt lat="48.68116" lon="6.2002">
        <ele>197.8</ele>
        <time>2020-06-29T11:04:15Z</time>
      </trkpt>
      <trkpt lat="48.6812" lon="6.20018">
        <ele>197.8</ele>
        <time>2020-06-29T11:04:16Z</time>
      </trkpt>
      <trkpt lat="48.68123" lon="6.20016">
        <ele>197.8</ele>
        <time>2020-06-29T11:04:17Z</time>
      </trkpt>
      <trkpt lat="48.68127" lon="6.20014">
        <ele>197.8</ele>
        <time>2020-06-29T11:04:18Z</time>
      </trkpt>
      <trkpt lat="48.68131" lon="6.20012">
        <ele>197.8</ele>
        <time>2020-06-29T11:04:19Z</time>
      </trkpt>
      <trkpt lat="48.68134" lon="6.2001">
        <ele>197.8</ele>
        <time>2020-06-29T11:04:20Z</time>
      </trkpt>
      <trkpt lat="48.68138" lon="6.20008">
        <ele>197.8</ele>
        <time>2020-06-29T11:04:21Z</time>
      </trkpt>
      <trkpt lat="48.68142" lon="6.20006">
        <ele>197.8</ele>
        <time>2020-06-29T11:04:22Z</time>
      </trkpt>
      <trkpt lat="48.68146" lon="6.20005">
        <ele>197.8</ele>
        <time>2020-06-29T11:04:23Z</time>
      </trkpt>
      <trkpt lat="48.6815" lon="6.20003">
        <ele>197.8</ele>
        <time>2020-06-29T11:04:24Z</time>
      </trkpt>
      <trkpt lat="48.68153" lon="6.2">
        <ele>197.7</ele>
        <time>2020-06-29T11:04:25Z</time>
      </trkpt>
      <trkpt lat="48.68157" lon="6.19998">
        <ele>197.7</ele>
        <time>2020-06-29T11:04:26Z</time>
      </trkpt>
      <trkpt lat="48.68161" lon="6.19996">
        <ele>197.7</ele>
        <time>2020-06-29T11:04:27Z</time>
      </trkpt>
      <trkpt lat="48.68166" lon="6.19994">
        <ele>197.7</ele>
        <time>2020-06-29T11:04:28Z</time>
      </trkpt>
      <trkpt lat="48.6817" lon="6.19991">
        <ele>197.7</ele>
        <time>2020-06-29T11:04:29Z</time>
      </trkpt>
      <trkpt lat="48.68176" lon="6.19989">
        <ele>197.6</ele>
        <time>2020-06-29T11:04:30Z</time>
      </trkpt>
      <trkpt lat="48.6818" lon="6.19987">
        <ele>197.6</ele>
        <time>2020-06-29T11:04:31Z</time>
      </trkpt>
      <trkpt lat="48.68184" lon="6.19985">
        <ele>197.6</ele>
        <time>2020-06-29T11:04:32Z</time>
      </trkpt>
      <trkpt lat="48.68189" lon="6.19983">
        <ele>197.6</ele>
        <time>2020-06-29T11:04:33Z</time>
      </trkpt>
      <trkpt lat="48.68194" lon="6.19981">
        <ele>197.6</ele>
        <time>2020-06-29T11:04:34Z</time>
      </trkpt>
      <trkpt lat="48.68199" lon="6.19979">
        <ele>197.6</ele>
        <time>2020-06-29T11:04:35Z</time>
      </trkpt>
      <trkpt lat="48.68203" lon="6.19978">
        <ele>197.6</ele>
        <time>2020-06-29T11:04:36Z</time>
      </trkpt>
      <trkpt lat="48.68208" lon="6.19976">
        <ele>197.6</ele>
        <time>2020-06-29T11:04:37Z</time>
      </trkpt>
      <trkpt lat="48.68212" lon="6.19974">
        <ele>197.7</ele>
        <time>2020-06-29T11:04:38Z</time>
      </trkpt>
      <trkpt lat="48.68216" lon="6.19972">
        <ele>197.7</ele>
        <time>2020-06-29T11:04:39Z</time>
      </trkpt>
      <trkpt lat="48.6822" lon="6.1997">
        <ele>197.7</ele>
        <time>2020-06-29T11:04:40Z</time>
      </trkpt>
      <trkpt lat="48.68223" lon="6.19969">
        <ele>197.6</ele>
        <time>2020-06-29T11:04:41Z</time>
      </trkpt>
      <trkpt lat="48.68226" lon="6.19967">
        <ele>197.6</ele>
        <time>2020-06-29T11:04:42Z</time>
      </trkpt>
      <trkpt lat="48.68231" lon="6.19965">
        <ele>197.6</ele>
        <time>2020-06-29T11:04:43Z</time>
      </trkpt>
      <trkpt lat="48.68236" lon="6.19962">
        <ele>197.6</ele>
        <time>2020-06-29T11:04:44Z</time>
      </trkpt>
      <trkpt lat="48.6824" lon="6.1996">
        <ele>197.5</ele>
        <time>2020-06-29T11:04:45Z</time>
      </trkpt>
      <trkpt lat="48.68247" lon="6.19956">
        <ele>197.5</ele>
        <time>2020-06-29T11:04:46Z</time>
      </trkpt>
      <trkpt lat="48.68252" lon="6.19953">
        <ele>197.5</ele>
        <time>2020-06-29T11:04:47Z</time>
      </trkpt>
      <trkpt lat="48.68258" lon="6.1995">
        <ele>197.5</ele>
        <time>2020-06-29T11:04:48Z</time>
      </trkpt>
      <trkpt lat="48.68263" lon="6.19947">
        <ele>197.5</ele>
        <time>2020-06-29T11:04:49Z</time>
      </trkpt>
      <trkpt lat="48.68268" lon="6.19944">
        <ele>197.5</ele>
        <time>2020-06-29T11:04:50Z</time>
      </trkpt>
      <trkpt lat="48.68272" lon="6.19941">
        <ele>197.5</ele>
        <time>2020-06-29T11:04:51Z</time>
      </trkpt>
      <trkpt lat="48.68277" lon="6.19939">
        <ele>197.5</ele>
        <time>2020-06-29T11:04:52Z</time>
      </trkpt>
      <trkpt lat="48.68281" lon="6.19937">
        <ele>197.5</ele>
        <time>2020-06-29T11:04:53Z</time>
      </trkpt>
      <trkpt lat="48.68286" lon="6.19934">
        <ele>197.5</ele>
        <time>2020-06-29T11:04:54Z</time>
      </trkpt>
      <trkpt lat="48.68291" lon="6.19931">
        <ele>197.5</ele>
        <time>2020-06-29T11:04:55Z</time>
      </trkpt>
      <trkpt lat="48.68297" lon="6.19929">
        <ele>197.5</ele>
        <time>2020-06-29T11:04:56Z</time>
      </trkpt>
      <trkpt lat="48.68301" lon="6.19926">
        <ele>197.5</ele>
        <time>2020-06-29T11:04:57Z</time>
      </trkpt>
      <trkpt lat="48.68306" lon="6.19922">
        <ele>197.5</ele>
        <time>2020-06-29T11:04:58Z</time>
      </trkpt>
      <trkpt lat="48.68311" lon="6.19919">
        <ele>197.4</ele>
        <time>2020-06-29T11:04:59Z</time>
      </trkpt>
      <trkpt lat="48.68316" lon="6.19917">
        <ele>197.4</ele>
        <time>2020-06-29T11:05:00Z</time>
      </trkpt>
      <trkpt lat="48.68321" lon="6.19915">
        <ele>197.4</ele>
        <time>2020-06-29T11:05:01Z</time>
      </trkpt>
      <trkpt lat="48.68326" lon="6.19913">
        <ele>197.4</ele>
        <time>2020-06-29T11:05:02Z</time>
      </trkpt>
      <trkpt lat="48.68331" lon="6.19911">
        <ele>197.4</ele>
        <time>2020-06-29T11:05:03Z</time>
      </trkpt>
      <trkpt lat="48.68337" lon="6.19909">
        <ele>197.4</ele>
        <time>2020-06-29T11:05:04Z</time>
      </trkpt>
      <trkpt lat="48.68342" lon="6.19907">
        <ele>197.4</ele>
        <time>2020-06-29T11:05:05Z</time>
      </trkpt>
      <trkpt lat="48.68347" lon="6.19905">
        <ele>197.4</ele>
        <time>2020-06-29T11:05:06Z</time>
      </trkpt>
      <trkpt lat="48.68353" lon="6.19902">
        <ele>197.4</ele>
        <time>2020-06-29T11:05:07Z</time>
      </trkpt>
      <trkpt lat="48.68358" lon="6.199">
        <ele>197.5</ele>
        <time>2020-06-29T11:05:08Z</time>
      </trkpt>
      <trkpt lat="48.68364" lon="6.19896">
        <ele>197.5</ele>
        <time>2020-06-29T11:05:09Z</time>
      </trkpt>
      <trkpt lat="48.68369" lon="6.19893">
        <ele>197.5</ele>
        <time>2020-06-29T11:05:10Z</time>
      </trkpt>
      <trkpt lat="48.68375" lon="6.19891">
        <ele>197.5</ele>
        <time>2020-06-29T11:05:11Z</time>
      </trkpt>
      <trkpt lat="48.68381" lon="6.19889">
        <ele>197.5</ele>
        <time>2020-06-29T11:05:12Z</time>
      </trkpt>
      <trkpt lat="48.68386" lon="6.19887">
        <ele>197.5</ele>
        <time>2020-06-29T11:05:13Z</time>
      </trkpt>
      <trkpt lat="48.68392" lon="6.19884">
        <ele>197.6</ele>
        <time>2020-06-29T11:05:14Z</time>
      </trkpt>
      <trkpt lat="48.68397" lon="6.19882">
        <ele>197.6</ele>
        <time>2020-06-29T11:05:15Z</time>
      </trkpt>
      <trkpt lat="48.68403" lon="6.19878">
        <ele>197.6</ele>
        <time>2020-06-29T11:05:16Z</time>
      </trkpt>
      <trkpt lat="48.68408" lon="6.19876">
        <ele>197.6</ele>
        <time>2020-06-29T11:05:17Z</time>
      </trkpt>
      <trkpt lat="48.68413" lon="6.19873">
        <ele>197.6</ele>
        <time>2020-06-29T11:05:18Z</time>
      </trkpt>
      <trkpt lat="48.68417" lon="6.1987">
        <ele>197.6</ele>
        <time>2020-06-29T11:05:19Z</time>
      </trkpt>
      <trkpt lat="48.68422" lon="6.19869">
        <ele>197.5</ele>
        <time>2020-06-29T11:05:20Z</time>
      </trkpt>
      <trkpt lat="48.68428" lon="6.19866">
        <ele>197.5</ele>
        <time>2020-06-29T11:05:21Z</time>
      </trkpt>
      <trkpt lat="48.68434" lon="6.19862">
        <ele>197.5</ele>
        <time>2020-06-29T11:05:22Z</time>
      </trkpt>
      <trkpt lat="48.68439" lon="6.19859">
        <ele>197.5</ele>
        <time>2020-06-29T11:05:23Z</time>
      </trkpt>
      <trkpt lat="48.68445" lon="6.19855">
        <ele>197.4</ele>
        <time>2020-06-29T11:05:24Z</time>
      </trkpt>
      <trkpt lat="48.6845" lon="6.19851">
        <ele>197.4</ele>
        <time>2020-06-29T11:05:25Z</time>
      </trkpt>
      <trkpt lat="48.68456" lon="6.19848">
        <ele>197.3</ele>
        <time>2020-06-29T11:05:26Z</time>
      </trkpt>
      <trkpt lat="48.68461" lon="6.19844">
        <ele>197.3</ele>
        <time>2020-06-29T11:05:27Z</time>
      </trkpt>
      <trkpt lat="48.68465" lon="6.19842">
        <ele>197.3</ele>
        <time>2020-06-29T11:05:28Z</time>
      </trkpt>
      <trkpt lat="48.6847" lon="6.1984">
        <ele>197.2</ele>
        <time>2020-06-29T11:05:29Z</time>
      </trkpt>
      <trkpt lat="48.68476" lon="6.19836">
        <ele>197.2</ele>
        <time>2020-06-29T11:05:30Z</time>
      </trkpt>
      <trkpt lat="48.68481" lon="6.19833">
        <ele>197.2</ele>
        <time>2020-06-29T11:05:31Z</time>
      </trkpt>
      <trkpt lat="48.68486" lon="6.19828">
        <ele>197.2</ele>
        <time>2020-06-29T11:05:32Z</time>
      </trkpt>
      <trkpt lat="48.68491" lon="6.19824">
        <ele>197.2</ele>
        <time>2020-06-29T11:05:33Z</time>
      </trkpt>
      <trkpt lat="48.68495" lon="6.19822">
        <ele>197.2</ele>
        <time>2020-06-29T11:05:34Z</time>
      </trkpt>
      <trkpt lat="48.68499" lon="6.1982">
        <ele>197.2</ele>
        <time>2020-06-29T11:05:35Z</time>
      </trkpt>
      <trkpt lat="48.68502" lon="6.19817">
        <ele>197.2</ele>
        <time>2020-06-29T11:05:36Z</time>
      </trkpt>
      <trkpt lat="48.68505" lon="6.19816">
        <ele>197.2</ele>
        <time>2020-06-29T11:05:37Z</time>
      </trkpt>
      <trkpt lat="48.68511" lon="6.19815">
        <ele>197.2</ele>
        <time>2020-06-29T11:05:38Z</time>
      </trkpt>
      <trkpt lat="48.68517" lon="6.19813">
        <ele>197.2</ele>
        <time>2020-06-29T11:05:39Z</time>
      </trkpt>
      <trkpt lat="48.68522" lon="6.19811">
        <ele>197.1</ele>
        <time>2020-06-29T11:05:40Z</time>
      </trkpt>
      <trkpt lat="48.68527" lon="6.19808">
        <ele>197.1</ele>
        <time>2020-06-29T11:05:41Z</time>
      </trkpt>
      <trkpt lat="48.68533" lon="6.19805">
        <ele>197.1</ele>
        <time>2020-06-29T11:05:42Z</time>
      </trkpt>
      <trkpt lat="48.68539" lon="6.19803">
        <ele>197.1</ele>
        <time>2020-06-29T11:05:43Z</time>
      </trkpt>
      <trkpt lat="48.68544" lon="6.19801">
        <ele>197.1</ele>
        <time>2020-06-29T11:05:44Z</time>
      </trkpt>
      <trkpt lat="48.68549" lon="6.198">
        <ele>197.1</ele>
        <time>2020-06-29T11:05:45Z</time>
      </trkpt>
      <trkpt lat="48.68554" lon="6.19798">
        <ele>197.1</ele>
        <time>2020-06-29T11:05:46Z</time>
      </trkpt>
      <trkpt lat="48.68558" lon="6.19794">
        <ele>197.1</ele>
        <time>2020-06-29T11:05:47Z</time>
      </trkpt>
      <trkpt lat="48.68563" lon="6.19789">
        <ele>197</ele>
        <time>2020-06-29T11:05:48Z</time>
      </trkpt>
      <trkpt lat="48.68567" lon="6.19787">
        <ele>197</ele>
        <time>2020-06-29T11:05:49Z</time>
      </trkpt>
      <trkpt lat="48.68571" lon="6.19784">
        <ele>197</ele>
        <time>2020-06-29T11:05:50Z</time>
      </trkpt>
      <trkpt lat="48.68575" lon="6.19781">
        <ele>197</ele>
        <time>2020-06-29T11:05:51Z</time>
      </trkpt>
      <trkpt lat="48.68581" lon="6.19776">
        <ele>197</ele>
        <time>2020-06-29T11:05:52Z</time>
      </trkpt>
      <trkpt lat="48.68586" lon="6.19774">
        <ele>197</ele>
        <time>2020-06-29T11:05:53Z</time>
      </trkpt>
      <trkpt lat="48.6859" lon="6.19773">
        <ele>197</ele>
        <time>2020-06-29T11:05:54Z</time>
      </trkpt>
      <trkpt lat="48.68596" lon="6.19772">
        <ele>197</ele>
        <time>2020-06-29T11:05:55Z</time>
      </trkpt>
      <trkpt lat="48.686" lon="6.19771">
        <ele>197</ele>
        <time>2020-06-29T11:05:56Z</time>
      </trkpt>
      <trkpt lat="48.68605" lon="6.19768">
        <ele>197</ele>
        <time>2020-06-29T11:05:57Z</time>
      </trkpt>
      <trkpt lat="48.68609" lon="6.19766">
        <ele>197</ele>
        <time>2020-06-29T11:05:58Z</time>
      </trkpt>
      <trkpt lat="48.68614" lon="6.19761">
        <ele>197</ele>
        <time>2020-06-29T11:05:59Z</time>
      </trkpt>
      <trkpt lat="48.68619" lon="6.19758">
        <ele>197</ele>
        <time>2020-06-29T11:06:00Z</time>
      </trkpt>
      <trkpt lat="48.68624" lon="6.19756">
        <ele>197</ele>
        <time>2020-06-29T11:06:01Z</time>
      </trkpt>
      <trkpt lat="48.6863" lon="6.19753">
        <ele>197</ele>
        <time>2020-06-29T11:06:02Z</time>
      </trkpt>
      <trkpt lat="48.68635" lon="6.19749">
        <ele>197</ele>
        <time>2020-06-29T11:06:03Z</time>
      </trkpt>
      <trkpt lat="48.6864" lon="6.19746">
        <ele>197</ele>
        <time>2020-06-29T11:06:04Z</time>
      </trkpt>
      <trkpt lat="48.68645" lon="6.19743">
        <ele>197</ele>
        <time>2020-06-29T11:06:05Z</time>
      </trkpt>
      <trkpt lat="48.68649" lon="6.19744">
        <ele>197</ele>
        <time>2020-06-29T11:06:06Z</time>
      </trkpt>
      <trkpt lat="48.68651" lon="6.19744">
        <ele>197</ele>
        <time>2020-06-29T11:06:07Z</time>
      </trkpt>
      <trkpt lat="48.68654" lon="6.19742">
        <ele>197</ele>
        <time>2020-06-29T11:06:08Z</time>
      </trkpt>
      <trkpt lat="48.68658" lon="6.1974">
        <ele>197</ele>
        <time>2020-06-29T11:06:09Z</time>
      </trkpt>
      <trkpt lat="48.6866" lon="6.19739">
        <ele>197</ele>
        <time>2020-06-29T11:06:10Z</time>
      </trkpt>
      <trkpt lat="48.68664" lon="6.19739">
        <ele>197</ele>
        <time>2020-06-29T11:06:11Z</time>
      </trkpt>
      <trkpt lat="48.68668" lon="6.19741">
        <ele>197</ele>
        <time>2020-06-29T11:06:12Z</time>
      </trkpt>
      <trkpt lat="48.68673" lon="6.19739">
        <ele>197.1</ele>
        <time>2020-06-29T11:06:13Z</time>
      </trkpt>
      <trkpt lat="48.68678" lon="6.19738">
        <ele>197.1</ele>
        <time>2020-06-29T11:06:14Z</time>
      </trkpt>
      <trkpt lat="48.68683" lon="6.19735">
        <ele>197</ele>
        <time>2020-06-29T11:06:15Z</time>
      </trkpt>
      <trkpt lat="48.68686" lon="6.19732">
        <ele>197</ele>
        <time>2020-06-29T11:06:16Z</time>
      </trkpt>
      <trkpt lat="48.6869" lon="6.1973">
        <ele>197</ele>
        <time>2020-06-29T11:06:17Z</time>
      </trkpt>
      <trkpt lat="48.68694" lon="6.19729">
        <ele>197</ele>
        <time>2020-06-29T11:06:18Z</time>
      </trkpt>
      <trkpt lat="48.68698" lon="6.19725">
        <ele>197</ele>
        <time>2020-06-29T11:06:19Z</time>
      </trkpt>
      <trkpt lat="48.68702" lon="6.19724">
        <ele>197</ele>
        <time>2020-06-29T11:06:20Z</time>
      </trkpt>
      <trkpt lat="48.68705" lon="6.19723">
        <ele>196.9</ele>
        <time>2020-06-29T11:06:21Z</time>
      </trkpt>
      <trkpt lat="48.68707" lon="6.19721">
        <ele>196.9</ele>
        <time>2020-06-29T11:06:22Z</time>
      </trkpt>
      <trkpt lat="48.68711" lon="6.19717">
        <ele>196.9</ele>
        <time>2020-06-29T11:06:23Z</time>
      </trkpt>
      <trkpt lat="48.68712" lon="6.19716">
        <ele>196.9</ele>
        <time>2020-06-29T11:06:24Z</time>
      </trkpt>
      <trkpt lat="48.68715" lon="6.19714">
        <ele>196.9</ele>
        <time>2020-06-29T11:06:25Z</time>
      </trkpt>
      <trkpt lat="48.68719" lon="6.19713">
        <ele>196.9</ele>
        <time>2020-06-29T11:06:26Z</time>
      </trkpt>
      <trkpt lat="48.68721" lon="6.19711">
        <ele>196.9</ele>
        <time>2020-06-29T11:06:27Z</time>
      </trkpt>
      <trkpt lat="48.68724" lon="6.19708">
        <ele>196.9</ele>
        <time>2020-06-29T11:06:28Z</time>
      </trkpt>
      <trkpt lat="48.68727" lon="6.19706">
        <ele>196.9</ele>
        <time>2020-06-29T11:06:29Z</time>
      </trkpt>
      <trkpt lat="48.6873" lon="6.19705">
        <ele>196.8</ele>
        <time>2020-06-29T11:06:30Z</time>
      </trkpt>
      <trkpt lat="48.68731" lon="6.19705">
        <ele>196.8</ele>
        <time>2020-06-29T11:06:31Z</time>
      </trkpt>
      <trkpt lat="48.68735" lon="6.19703">
        <ele>196.8</ele>
        <time>2020-06-29T11:06:32Z</time>
      </trkpt>
      <trkpt lat="48.68736" lon="6.19703">
        <ele>196.8</ele>
        <time>2020-06-29T11:06:33Z</time>
      </trkpt>
      <trkpt lat="48.68738" lon="6.19702">
        <ele>196.8</ele>
        <time>2020-06-29T11:06:34Z</time>
      </trkpt>
      <trkpt lat="48.68739" lon="6.19702">
        <ele>196.8</ele>
        <time>2020-06-29T11:06:35Z</time>
      </trkpt>
      <trkpt lat="48.68741" lon="6.19702">
        <ele>196.8</ele>
        <time>2020-06-29T11:06:36Z</time>
      </trkpt>
      <trkpt lat="48.68743" lon="6.19698">
        <ele>196.8</ele>
        <time>2020-06-29T11:06:37Z</time>
      </trkpt>
      <trkpt lat="48.68746" lon="6.19696">
        <ele>196.8</ele>
        <time>2020-06-29T11:06:38Z</time>
      </trkpt>
      <trkpt lat="48.68748" lon="6.19694">
        <ele>196.8</ele>
        <time>2020-06-29T11:06:39Z</time>
      </trkpt>
      <trkpt lat="48.68751" lon="6.19695">
        <ele>196.8</ele>
        <time>2020-06-29T11:06:40Z</time>
      </trkpt>
      <trkpt lat="48.68755" lon="6.19693">
        <ele>196.8</ele>
        <time>2020-06-29T11:06:41Z</time>
      </trkpt>
      <trkpt lat="48.6876" lon="6.1969">
        <ele>196.8</ele>
        <time>2020-06-29T11:06:42Z</time>
      </trkpt>
      <trkpt lat="48.68764" lon="6.19688">
        <ele>196.8</ele>
        <time>2020-06-29T11:06:43Z</time>
      </trkpt>
      <trkpt lat="48.68769" lon="6.19687">
        <ele>196.8</ele>
        <time>2020-06-29T11:06:44Z</time>
      </trkpt>
      <trkpt lat="48.68772" lon="6.19686">
        <ele>196.8</ele>
        <time>2020-06-29T11:06:45Z</time>
      </trkpt>
      <trkpt lat="48.68774" lon="6.19685">
        <ele>196.8</ele>
        <time>2020-06-29T11:06:46Z</time>
      </trkpt>
      <trkpt lat="48.68774" lon="6.19684">
        <ele>196.8</ele>
        <time>2020-06-29T11:06:47Z</time>
      </trkpt>
      <trkpt lat="48.68774" lon="6.19684">
        <ele>196.8</ele>
        <time>2020-06-29T11:06:48Z</time>
      </trkpt>
      <trkpt lat="48.68775" lon="6.19685">
        <ele>196.8</ele>
        <time>2020-06-29T11:06:49Z</time>
      </trkpt>
      <trkpt lat="48.68776" lon="6.19686">
        <ele>196.8</ele>
        <time>2020-06-29T11:06:50Z</time>
      </trkpt>
      <trkpt lat="48.68777" lon="6.19687">
        <ele>196.8</ele>
        <time>2020-06-29T11:06:51Z</time>
      </trkpt>
      <trkpt lat="48.68778" lon="6.19686">
        <ele>196.8</ele>
        <time>2020-06-29T11:06:52Z</time>
      </trkpt>
      <trkpt lat="48.6878" lon="6.19685">
        <ele>196.8</ele>
        <time>2020-06-29T11:06:53Z</time>
      </trkpt>
      <trkpt lat="48.68781" lon="6.19685">
        <ele>196.8</ele>
        <time>2020-06-29T11:06:54Z</time>
      </trkpt>
      <trkpt lat="48.68783" lon="6.19684">
        <ele>196.8</ele>
        <time>2020-06-29T11:06:55Z</time>
      </trkpt>
      <trkpt lat="48.68784" lon="6.19683">
        <ele>196.8</ele>
        <time>2020-06-29T11:06:56Z</time>
      </trkpt>
      <trkpt lat="48.68785" lon="6.19683">
        <ele>196.8</ele>
        <time>2020-06-29T11:06:57Z</time>
      </trkpt>
      <trkpt lat="48.68787" lon="6.19682">
        <ele>196.8</ele>
        <time>2020-06-29T11:07:12Z</time>
      </trkpt>
      <trkpt lat="48.68788" lon="6.19681">
        <ele>196.8</ele>
        <time>2020-06-29T11:07:13Z</time>
      </trkpt>
      <trkpt lat="48.68793" lon="6.19677">
        <ele>196.8</ele>
        <time>2020-06-29T11:07:14Z</time>
      </trkpt>
      <trkpt lat="48.68798" lon="6.19676">
        <ele>196.8</ele>
        <time>2020-06-29T11:07:15Z</time>
      </trkpt>
      <trkpt lat="48.68802" lon="6.19673">
        <ele>196.8</ele>
        <time>2020-06-29T11:07:16Z</time>
      </trkpt>
      <trkpt lat="48.68806" lon="6.19671">
        <ele>196.8</ele>
        <time>2020-06-29T11:07:17Z</time>
      </trkpt>
      <trkpt lat="48.68811" lon="6.1967">
        <ele>196.8</ele>
        <time>2020-06-29T11:07:18Z</time>
      </trkpt>
      <trkpt lat="48.68815" lon="6.19667">
        <ele>196.8</ele>
        <time>2020-06-29T11:07:19Z</time>
      </trkpt>
      <trkpt lat="48.6882" lon="6.19663">
        <ele>196.8</ele>
        <time>2020-06-29T11:07:20Z</time>
      </trkpt>
      <trkpt lat="48.68825" lon="6.19661">
        <ele>196.8</ele>
        <time>2020-06-29T11:07:21Z</time>
      </trkpt>
      <trkpt lat="48.68831" lon="6.19657">
        <ele>196.8</ele>
        <time>2020-06-29T11:07:22Z</time>
      </trkpt>
      <trkpt lat="48.68837" lon="6.19654">
        <ele>196.8</ele>
        <time>2020-06-29T11:07:23Z</time>
      </trkpt>
      <trkpt lat="48.68843" lon="6.19651">
        <ele>196.8</ele>
        <time>2020-06-29T11:07:24Z</time>
      </trkpt>
      <trkpt lat="48.68848" lon="6.19648">
        <ele>196.8</ele>
        <time>2020-06-29T11:07:25Z</time>
      </trkpt>
      <trkpt lat="48.68852" lon="6.19646">
        <ele>196.8</ele>
        <time>2020-06-29T11:07:26Z</time>
      </trkpt>
      <trkpt lat="48.68856" lon="6.19644">
        <ele>196.8</ele>
        <time>2020-06-29T11:07:27Z</time>
      </trkpt>
      <trkpt lat="48.6886" lon="6.19642">
        <ele>196.7</ele>
        <time>2020-06-29T11:07:28Z</time>
      </trkpt>
      <trkpt lat="48.68864" lon="6.19639">
        <ele>196.7</ele>
        <time>2020-06-29T11:07:29Z</time>
      </trkpt>
      <trkpt lat="48.68867" lon="6.19636">
        <ele>196.7</ele>
        <time>2020-06-29T11:07:30Z</time>
      </trkpt>
      <trkpt lat="48.68871" lon="6.19634">
        <ele>196.7</ele>
        <time>2020-06-29T11:07:31Z</time>
      </trkpt>
      <trkpt lat="48.68876" lon="6.19632">
        <ele>196.7</ele>
        <time>2020-06-29T11:07:32Z</time>
      </trkpt>
      <trkpt lat="48.68881" lon="6.1963">
        <ele>196.7</ele>
        <time>2020-06-29T11:07:33Z</time>
      </trkpt>
      <trkpt lat="48.68886" lon="6.19627">
        <ele>196.7</ele>
        <time>2020-06-29T11:07:34Z</time>
      </trkpt>
      <trkpt lat="48.68892" lon="6.19627">
        <ele>196.7</ele>
        <time>2020-06-29T11:07:35Z</time>
      </trkpt>
      <trkpt lat="48.68896" lon="6.19623">
        <ele>196.7</ele>
        <time>2020-06-29T11:07:36Z</time>
      </trkpt>
      <trkpt lat="48.68901" lon="6.19621">
        <ele>196.7</ele>
        <time>2020-06-29T11:07:37Z</time>
      </trkpt>
      <trkpt lat="48.68906" lon="6.19618">
        <ele>196.7</ele>
        <time>2020-06-29T11:07:38Z</time>
      </trkpt>
      <trkpt lat="48.6891" lon="6.19616">
        <ele>196.7</ele>
        <time>2020-06-29T11:07:39Z</time>
      </trkpt>
      <trkpt lat="48.68915" lon="6.19614">
        <ele>196.7</ele>
        <time>2020-06-29T11:07:40Z</time>
      </trkpt>
      <trkpt lat="48.68919" lon="6.19612">
        <ele>196.7</ele>
        <time>2020-06-29T11:07:41Z</time>
      </trkpt>
      <trkpt lat="48.68922" lon="6.1961">
        <ele>196.7</ele>
        <time>2020-06-29T11:07:42Z</time>
      </trkpt>
      <trkpt lat="48.68926" lon="6.19608">
        <ele>196.7</ele>
        <time>2020-06-29T11:07:43Z</time>
      </trkpt>
      <trkpt lat="48.6893" lon="6.19606">
        <ele>196.7</ele>
        <time>2020-06-29T11:07:44Z</time>
      </trkpt>
      <trkpt lat="48.68934" lon="6.19603">
        <ele>196.7</ele>
        <time>2020-06-29T11:07:45Z</time>
      </trkpt>
      <trkpt lat="48.68939" lon="6.19602">
        <ele>196.7</ele>
        <time>2020-06-29T11:07:46Z</time>
      </trkpt>
      <trkpt lat="48.68945" lon="6.196">
        <ele>196.7</ele>
        <time>2020-06-29T11:07:47Z</time>
      </trkpt>
      <trkpt lat="48.6895" lon="6.19596">
        <ele>196.8</ele>
        <time>2020-06-29T11:07:48Z</time>
      </trkpt>
      <trkpt lat="48.68956" lon="6.19595">
        <ele>196.8</ele>
        <time>2020-06-29T11:07:49Z</time>
      </trkpt>
      <trkpt lat="48.68962" lon="6.19591">
        <ele>196.8</ele>
        <time>2020-06-29T11:07:50Z</time>
      </trkpt>
      <trkpt lat="48.68968" lon="6.1959">
        <ele>196.8</ele>
        <time>2020-06-29T11:07:51Z</time>
      </trkpt>
      <trkpt lat="48.68973" lon="6.19589">
        <ele>196.8</ele>
        <time>2020-06-29T11:07:52Z</time>
      </trkpt>
      <trkpt lat="48.68977" lon="6.19588">
        <ele>196.8</ele>
        <time>2020-06-29T11:07:53Z</time>
      </trkpt>
      <trkpt lat="48.68981" lon="6.19587">
        <ele>196.8</ele>
        <time>2020-06-29T11:07:54Z</time>
      </trkpt>
      <trkpt lat="48.68985" lon="6.19586">
        <ele>196.8</ele>
        <time>2020-06-29T11:07:55Z</time>
      </trkpt>
      <trkpt lat="48.68989" lon="6.19583">
        <ele>196.8</ele>
        <time>2020-06-29T11:07:56Z</time>
      </trkpt>
      <trkpt lat="48.68994" lon="6.19581">
        <ele>196.8</ele>
        <time>2020-06-29T11:07:57Z</time>
      </trkpt>
      <trkpt lat="48.68998" lon="6.19578">
        <ele>196.8</ele>
        <time>2020-06-29T11:07:58Z</time>
      </trkpt>
      <trkpt lat="48.69003" lon="6.19575">
        <ele>196.8</ele>
        <time>2020-06-29T11:07:59Z</time>
      </trkpt>
      <trkpt lat="48.69009" lon="6.19574">
        <ele>196.8</ele>
        <time>2020-06-29T11:08:00Z</time>
      </trkpt>
      <trkpt lat="48.69014" lon="6.19572">
        <ele>196.7</ele>
        <time>2020-06-29T11:08:01Z</time>
      </trkpt>
      <trkpt lat="48.6902" lon="6.19569">
        <ele>196.7</ele>
        <time>2020-06-29T11:08:02Z</time>
      </trkpt>
      <trkpt lat="48.69024" lon="6.19566">
        <ele>196.7</ele>
        <time>2020-06-29T11:08:03Z</time>
      </trkpt>
      <trkpt lat="48.6903" lon="6.19563">
        <ele>196.7</ele>
        <time>2020-06-29T11:08:04Z</time>
      </trkpt>
      <trkpt lat="48.69036" lon="6.19557">
        <ele>196.7</ele>
        <time>2020-06-29T11:08:05Z</time>
      </trkpt>
      <trkpt lat="48.69041" lon="6.19555">
        <ele>196.7</ele>
        <time>2020-06-29T11:08:06Z</time>
      </trkpt>
      <trkpt lat="48.69046" lon="6.19551">
        <ele>196.7</ele>
        <time>2020-06-29T11:08:07Z</time>
      </trkpt>
      <trkpt lat="48.69052" lon="6.19547">
        <ele>196.7</ele>
        <time>2020-06-29T11:08:08Z</time>
      </trkpt>
      <trkpt lat="48.69057" lon="6.19544">
        <ele>196.7</ele>
        <time>2020-06-29T11:08:09Z</time>
      </trkpt>
      <trkpt lat="48.69062" lon="6.1954">
        <ele>196.7</ele>
        <time>2020-06-29T11:08:10Z</time>
      </trkpt>
      <trkpt lat="48.69067" lon="6.19538">
        <ele>196.7</ele>
        <time>2020-06-29T11:08:11Z</time>
      </trkpt>
      <trkpt lat="48.69072" lon="6.19536">
        <ele>196.7</ele>
        <time>2020-06-29T11:08:12Z</time>
      </trkpt>
      <trkpt lat="48.69076" lon="6.1953">
        <ele>196.7</ele>
        <time>2020-06-29T11:08:13Z</time>
      </trkpt>
      <trkpt lat="48.69082" lon="6.19528">
        <ele>196.7</ele>
        <time>2020-06-29T11:08:14Z</time>
      </trkpt>
      <trkpt lat="48.69087" lon="6.19525">
        <ele>196.7</ele>
        <time>2020-06-29T11:08:15Z</time>
      </trkpt>
      <trkpt lat="48.69092" lon="6.19524">
        <ele>196.7</ele>
        <time>2020-06-29T11:08:16Z</time>
      </trkpt>
      <trkpt lat="48.69096" lon="6.19521">
        <ele>196.7</ele>
        <time>2020-06-29T11:08:17Z</time>
      </trkpt>
      <trkpt lat="48.691" lon="6.19519">
        <ele>196.7</ele>
        <time>2020-06-29T11:08:18Z</time>
      </trkpt>
      <trkpt lat="48.69105" lon="6.19515">
        <ele>196.7</ele>
        <time>2020-06-29T11:08:19Z</time>
      </trkpt>
      <trkpt lat="48.69108" lon="6.19514">
        <ele>196.7</ele>
        <time>2020-06-29T11:08:20Z</time>
      </trkpt>
      <trkpt lat="48.69111" lon="6.19512">
        <ele>196.7</ele>
        <time>2020-06-29T11:08:21Z</time>
      </trkpt>
      <trkpt lat="48.69115" lon="6.19511">
        <ele>196.7</ele>
        <time>2020-06-29T11:08:22Z</time>
      </trkpt>
      <trkpt lat="48.69119" lon="6.19509">
        <ele>196.7</ele>
        <time>2020-06-29T11:08:23Z</time>
      </trkpt>
      <trkpt lat="48.69123" lon="6.19508">
        <ele>196.7</ele>
        <time>2020-06-29T11:08:24Z</time>
      </trkpt>
      <trkpt lat="48.69126" lon="6.19505">
        <ele>196.7</ele>
        <time>2020-06-29T11:08:25Z</time>
      </trkpt>
      <trkpt lat="48.6913" lon="6.19503">
        <ele>196.7</ele>
        <time>2020-06-29T11:08:26Z</time>
      </trkpt>
      <trkpt lat="48.69134" lon="6.19501">
        <ele>196.7</ele>
        <time>2020-06-29T11:08:27Z</time>
      </trkpt>
      <trkpt lat="48.69138" lon="6.19498">
        <ele>196.7</ele>
        <time>2020-06-29T11:08:28Z</time>
      </trkpt>
      <trkpt lat="48.69142" lon="6.19496">
        <ele>196.7</ele>
        <time>2020-06-29T11:08:29Z</time>
      </trkpt>
      <trkpt lat="48.69145" lon="6.19493">
        <ele>196.7</ele>
        <time>2020-06-29T11:08:30Z</time>
      </trkpt>
      <trkpt lat="48.69149" lon="6.1949">
        <ele>196.7</ele>
        <time>2020-06-29T11:08:31Z</time>
      </trkpt>
      <trkpt lat="48.69152" lon="6.19487">
        <ele>196.7</ele>
        <time>2020-06-29T11:08:32Z</time>
      </trkpt>
      <trkpt lat="48.69155" lon="6.19484">
        <ele>196.7</ele>
        <time>2020-06-29T11:08:33Z</time>
      </trkpt>
      <trkpt lat="48.69158" lon="6.1948">
        <ele>196.7</ele>
        <time>2020-06-29T11:08:34Z</time>
      </trkpt>
      <trkpt lat="48.69161" lon="6.19477">
        <ele>196.7</ele>
        <time>2020-06-29T11:08:35Z</time>
      </trkpt>
      <trkpt lat="48.69164" lon="6.19474">
        <ele>196.7</ele>
        <time>2020-06-29T11:08:36Z</time>
      </trkpt>
      <trkpt lat="48.69168" lon="6.19471">
        <ele>196.7</ele>
        <time>2020-06-29T11:08:37Z</time>
      </trkpt>
      <trkpt lat="48.69171" lon="6.19467">
        <ele>196.7</ele>
        <time>2020-06-29T11:08:38Z</time>
      </trkpt>
      <trkpt lat="48.69174" lon="6.19464">
        <ele>196.7</ele>
        <time>2020-06-29T11:08:39Z</time>
      </trkpt>
      <trkpt lat="48.69179" lon="6.1946">
        <ele>196.7</ele>
        <time>2020-06-29T11:08:40Z</time>
      </trkpt>
      <trkpt lat="48.69185" lon="6.19457">
        <ele>196.7</ele>
        <time>2020-06-29T11:08:41Z</time>
      </trkpt>
      <trkpt lat="48.69189" lon="6.19454">
        <ele>196.7</ele>
        <time>2020-06-29T11:08:42Z</time>
      </trkpt>
      <trkpt lat="48.69193" lon="6.19451">
        <ele>196.7</ele>
        <time>2020-06-29T11:08:43Z</time>
      </trkpt>
      <trkpt lat="48.69196" lon="6.19448">
        <ele>196.7</ele>
        <time>2020-06-29T11:08:44Z</time>
      </trkpt>
      <trkpt lat="48.692" lon="6.19445">
        <ele>196.7</ele>
        <time>2020-06-29T11:08:45Z</time>
      </trkpt>
      <trkpt lat="48.69204" lon="6.19441">
        <ele>196.7</ele>
        <time>2020-06-29T11:08:46Z</time>
      </trkpt>
      <trkpt lat="48.69207" lon="6.19438">
        <ele>196.7</ele>
        <time>2020-06-29T11:08:47Z</time>
      </trkpt>
      <trkpt lat="48.6921" lon="6.19436">
        <ele>196.7</ele>
        <time>2020-06-29T11:08:48Z</time>
      </trkpt>
      <trkpt lat="48.69214" lon="6.19433">
        <ele>196.7</ele>
        <time>2020-06-29T11:08:49Z</time>
      </trkpt>
      <trkpt lat="48.69217" lon="6.19431">
        <ele>196.7</ele>
        <time>2020-06-29T11:08:50Z</time>
      </trkpt>
      <trkpt lat="48.69221" lon="6.1943">
        <ele>196.7</ele>
        <time>2020-06-29T11:08:51Z</time>
      </trkpt>
      <trkpt lat="48.69225" lon="6.19429">
        <ele>196.7</ele>
        <time>2020-06-29T11:08:52Z</time>
      </trkpt>
      <trkpt lat="48.69229" lon="6.19425">
        <ele>196.7</ele>
        <time>2020-06-29T11:08:53Z</time>
      </trkpt>
      <trkpt lat="48.69233" lon="6.19422">
        <ele>196.7</ele>
        <time>2020-06-29T11:08:54Z</time>
      </trkpt>
      <trkpt lat="48.69237" lon="6.19419">
        <ele>196.6</ele>
        <time>2020-06-29T11:08:55Z</time>
      </trkpt>
      <trkpt lat="48.6924" lon="6.19416">
        <ele>196.6</ele>
        <time>2020-06-29T11:08:56Z</time>
      </trkpt>
      <trkpt lat="48.69245" lon="6.19415">
        <ele>196.6</ele>
        <time>2020-06-29T11:08:57Z</time>
      </trkpt>
      <trkpt lat="48.69249" lon="6.19412">
        <ele>196.6</ele>
        <time>2020-06-29T11:08:58Z</time>
      </trkpt>
      <trkpt lat="48.69253" lon="6.19409">
        <ele>196.6</ele>
        <time>2020-06-29T11:08:59Z</time>
      </trkpt>
      <trkpt lat="48.69258" lon="6.19407">
        <ele>196.6</ele>
        <time>2020-06-29T11:09:00Z</time>
      </trkpt>
      <trkpt lat="48.69261" lon="6.19405">
        <ele>196.6</ele>
        <time>2020-06-29T11:09:01Z</time>
      </trkpt>
      <trkpt lat="48.69266" lon="6.19401">
        <ele>196.6</ele>
        <time>2020-06-29T11:09:02Z</time>
      </trkpt>
      <trkpt lat="48.6927" lon="6.19398">
        <ele>196.6</ele>
        <time>2020-06-29T11:09:03Z</time>
      </trkpt>
      <trkpt lat="48.69275" lon="6.19395">
        <ele>196.6</ele>
        <time>2020-06-29T11:09:04Z</time>
      </trkpt>
      <trkpt lat="48.69279" lon="6.19392">
        <ele>196.6</ele>
        <time>2020-06-29T11:09:05Z</time>
      </trkpt>
      <trkpt lat="48.69284" lon="6.1939">
        <ele>196.6</ele>
        <time>2020-06-29T11:09:06Z</time>
      </trkpt>
      <trkpt lat="48.69288" lon="6.19387">
        <ele>196.6</ele>
        <time>2020-06-29T11:09:07Z</time>
      </trkpt>
      <trkpt lat="48.69293" lon="6.19384">
        <ele>196.6</ele>
        <time>2020-06-29T11:09:08Z</time>
      </trkpt>
      <trkpt lat="48.69298" lon="6.19381">
        <ele>196.7</ele>
        <time>2020-06-29T11:09:09Z</time>
      </trkpt>
      <trkpt lat="48.69303" lon="6.19379">
        <ele>196.7</ele>
        <time>2020-06-29T11:09:10Z</time>
      </trkpt>
      <trkpt lat="48.69308" lon="6.19376">
        <ele>196.7</ele>
        <time>2020-06-29T11:09:11Z</time>
      </trkpt>
      <trkpt lat="48.69312" lon="6.19373">
        <ele>196.7</ele>
        <time>2020-06-29T11:09:12Z</time>
      </trkpt>
      <trkpt lat="48.69316" lon="6.1937">
        <ele>196.7</ele>
        <time>2020-06-29T11:09:13Z</time>
      </trkpt>
      <trkpt lat="48.69321" lon="6.19367">
        <ele>196.7</ele>
        <time>2020-06-29T11:09:14Z</time>
      </trkpt>
      <trkpt lat="48.69324" lon="6.19363">
        <ele>196.7</ele>
        <time>2020-06-29T11:09:15Z</time>
      </trkpt>
      <trkpt lat="48.69328" lon="6.19361">
        <ele>196.7</ele>
        <time>2020-06-29T11:09:16Z</time>
      </trkpt>
      <trkpt lat="48.69333" lon="6.19358">
        <ele>196.7</ele>
        <time>2020-06-29T11:09:17Z</time>
      </trkpt>
      <trkpt lat="48.69337" lon="6.19353">
        <ele>196.7</ele>
        <time>2020-06-29T11:09:18Z</time>
      </trkpt>
      <trkpt lat="48.69344" lon="6.1935">
        <ele>196.7</ele>
        <time>2020-06-29T11:09:19Z</time>
      </trkpt>
      <trkpt lat="48.6935" lon="6.19346">
        <ele>196.7</ele>
        <time>2020-06-29T11:09:20Z</time>
      </trkpt>
      <trkpt lat="48.69355" lon="6.19343">
        <ele>196.7</ele>
        <time>2020-06-29T11:09:21Z</time>
      </trkpt>
      <trkpt lat="48.69359" lon="6.1934">
        <ele>196.6</ele>
        <time>2020-06-29T11:09:22Z</time>
      </trkpt>
      <trkpt lat="48.69363" lon="6.19339">
        <ele>196.6</ele>
        <time>2020-06-29T11:09:23Z</time>
      </trkpt>
      <trkpt lat="48.69367" lon="6.19336">
        <ele>196.6</ele>
        <time>2020-06-29T11:09:24Z</time>
      </trkpt>
      <trkpt lat="48.69371" lon="6.19332">
        <ele>196.6</ele>
        <time>2020-06-29T11:09:25Z</time>
      </trkpt>
      <trkpt lat="48.69375" lon="6.19329">
        <ele>196.6</ele>
        <time>2020-06-29T11:09:26Z</time>
      </trkpt>
      <trkpt lat="48.69378" lon="6.19326">
        <ele>196.7</ele>
        <time>2020-06-29T11:09:27Z</time>
      </trkpt>
      <trkpt lat="48.69381" lon="6.19324">
        <ele>196.7</ele>
        <time>2020-06-29T11:09:28Z</time>
      </trkpt>
      <trkpt lat="48.69386" lon="6.19321">
        <ele>196.7</ele>
        <time>2020-06-29T11:09:29Z</time>
      </trkpt>
      <trkpt lat="48.6939" lon="6.19318">
        <ele>196.7</ele>
        <time>2020-06-29T11:09:30Z</time>
      </trkpt>
      <trkpt lat="48.69393" lon="6.19318">
        <ele>196.7</ele>
        <time>2020-06-29T11:09:31Z</time>
      </trkpt>
      <trkpt lat="48.69396" lon="6.19316">
        <ele>196.7</ele>
        <time>2020-06-29T11:09:32Z</time>
      </trkpt>
      <trkpt lat="48.69399" lon="6.19315">
        <ele>196.7</ele>
        <time>2020-06-29T11:09:33Z</time>
      </trkpt>
      <trkpt lat="48.69402" lon="6.19313">
        <ele>196.7</ele>
        <time>2020-06-29T11:09:34Z</time>
      </trkpt>
      <trkpt lat="48.69407" lon="6.1931">
        <ele>196.7</ele>
        <time>2020-06-29T11:09:35Z</time>
      </trkpt>
      <trkpt lat="48.6941" lon="6.1931">
        <ele>196.7</ele>
        <time>2020-06-29T11:09:36Z</time>
      </trkpt>
      <trkpt lat="48.69414" lon="6.19307">
        <ele>196.7</ele>
        <time>2020-06-29T11:09:37Z</time>
      </trkpt>
      <trkpt lat="48.69418" lon="6.19305">
        <ele>196.7</ele>
        <time>2020-06-29T11:09:38Z</time>
      </trkpt>
      <trkpt lat="48.69422" lon="6.19303">
        <ele>196.7</ele>
        <time>2020-06-29T11:09:39Z</time>
      </trkpt>
      <trkpt lat="48.69426" lon="6.19301">
        <ele>196.7</ele>
        <time>2020-06-29T11:09:40Z</time>
      </trkpt>
      <trkpt lat="48.6943" lon="6.19299">
        <ele>196.7</ele>
        <time>2020-06-29T11:09:41Z</time>
      </trkpt>
      <trkpt lat="48.69432" lon="6.19297">
        <ele>196.7</ele>
        <time>2020-06-29T11:09:42Z</time>
      </trkpt>
      <trkpt lat="48.69435" lon="6.19294">
        <ele>196.7</ele>
        <time>2020-06-29T11:09:43Z</time>
      </trkpt>
      <trkpt lat="48.69437" lon="6.19292">
        <ele>196.7</ele>
        <time>2020-06-29T11:09:44Z</time>
      </trkpt>
      <trkpt lat="48.69441" lon="6.19289">
        <ele>196.7</ele>
        <time>2020-06-29T11:09:45Z</time>
      </trkpt>
      <trkpt lat="48.69442" lon="6.19288">
        <ele>196.7</ele>
        <time>2020-06-29T11:09:46Z</time>
      </trkpt>
      <trkpt lat="48.69444" lon="6.19286">
        <ele>196.7</ele>
        <time>2020-06-29T11:09:47Z</time>
      </trkpt>
      <trkpt lat="48.69447" lon="6.19283">
        <ele>196.7</ele>
        <time>2020-06-29T11:09:48Z</time>
      </trkpt>
      <trkpt lat="48.69451" lon="6.19281">
        <ele>196.7</ele>
        <time>2020-06-29T11:09:49Z</time>
      </trkpt>
      <trkpt lat="48.69454" lon="6.19278">
        <ele>196.7</ele>
        <time>2020-06-29T11:09:50Z</time>
      </trkpt>
      <trkpt lat="48.69457" lon="6.19276">
        <ele>196.7</ele>
        <time>2020-06-29T11:09:51Z</time>
      </trkpt>
      <trkpt lat="48.69459" lon="6.19276">
        <ele>196.7</ele>
        <time>2020-06-29T11:09:52Z</time>
      </trkpt>
      <trkpt lat="48.69462" lon="6.19273">
        <ele>196.7</ele>
        <time>2020-06-29T11:09:53Z</time>
      </trkpt>
      <trkpt lat="48.69464" lon="6.19269">
        <ele>196.8</ele>
        <time>2020-06-29T11:09:54Z</time>
      </trkpt>
      <trkpt lat="48.69467" lon="6.19268">
        <ele>196.8</ele>
        <time>2020-06-29T11:09:55Z</time>
      </trkpt>
      <trkpt lat="48.6947" lon="6.19266">
        <ele>196.8</ele>
        <time>2020-06-29T11:09:56Z</time>
      </trkpt>
      <trkpt lat="48.69472" lon="6.19264">
        <ele>196.8</ele>
        <time>2020-06-29T11:09:57Z</time>
      </trkpt>
      <trkpt lat="48.69475" lon="6.19262">
        <ele>196.8</ele>
        <time>2020-06-29T11:09:58Z</time>
      </trkpt>
      <trkpt lat="48.69479" lon="6.19259">
        <ele>196.8</ele>
        <time>2020-06-29T11:09:59Z</time>
      </trkpt>
      <trkpt lat="48.69484" lon="6.19256">
        <ele>196.8</ele>
        <time>2020-06-29T11:10:00Z</time>
      </trkpt>
      <trkpt lat="48.69488" lon="6.19253">
        <ele>196.8</ele>
        <time>2020-06-29T11:10:01Z</time>
      </trkpt>
      <trkpt lat="48.69492" lon="6.1925">
        <ele>196.8</ele>
        <time>2020-06-29T11:10:02Z</time>
      </trkpt>
      <trkpt lat="48.69497" lon="6.19245">
        <ele>196.8</ele>
        <time>2020-06-29T11:10:03Z</time>
      </trkpt>
      <trkpt lat="48.69501" lon="6.19241">
        <ele>196.8</ele>
        <time>2020-06-29T11:10:04Z</time>
      </trkpt>
      <trkpt lat="48.69505" lon="6.19237">
        <ele>196.8</ele>
        <time>2020-06-29T11:10:05Z</time>
      </trkpt>
      <trkpt lat="48.69509" lon="6.19233">
        <ele>196.8</ele>
        <time>2020-06-29T11:10:06Z</time>
      </trkpt>
      <trkpt lat="48.69513" lon="6.19231">
        <ele>196.8</ele>
        <time>2020-06-29T11:10:07Z</time>
      </trkpt>
      <trkpt lat="48.69516" lon="6.19229">
        <ele>196.8</ele>
        <time>2020-06-29T11:10:08Z</time>
      </trkpt>
      <trkpt lat="48.69519" lon="6.19229">
        <ele>196.8</ele>
        <time>2020-06-29T11:10:09Z</time>
      </trkpt>
      <trkpt lat="48.69523" lon="6.19229">
        <ele>196.8</ele>
        <time>2020-06-29T11:10:10Z</time>
      </trkpt>
      <trkpt lat="48.69526" lon="6.19227">
        <ele>196.8</ele>
        <time>2020-06-29T11:10:11Z</time>
      </trkpt>
      <trkpt lat="48.69529" lon="6.19225">
        <ele>196.8</ele>
        <time>2020-06-29T11:10:12Z</time>
      </trkpt>
      <trkpt lat="48.69532" lon="6.19222">
        <ele>196.9</ele>
        <time>2020-06-29T11:10:13Z</time>
      </trkpt>
      <trkpt lat="48.69536" lon="6.1922">
        <ele>196.9</ele>
        <time>2020-06-29T11:10:14Z</time>
      </trkpt>
      <trkpt lat="48.69539" lon="6.19219">
        <ele>196.9</ele>
        <time>2020-06-29T11:10:15Z</time>
      </trkpt>
      <trkpt lat="48.6954" lon="6.19218">
        <ele>196.9</ele>
        <time>2020-06-29T11:10:16Z</time>
      </trkpt>
      <trkpt lat="48.69543" lon="6.19215">
        <ele>197</ele>
        <time>2020-06-29T11:10:17Z</time>
      </trkpt>
      <trkpt lat="48.69546" lon="6.19213">
        <ele>197</ele>
        <time>2020-06-29T11:10:18Z</time>
      </trkpt>
      <trkpt lat="48.6955" lon="6.1921">
        <ele>197</ele>
        <time>2020-06-29T11:10:19Z</time>
      </trkpt>
      <trkpt lat="48.69554" lon="6.19209">
        <ele>197.1</ele>
        <time>2020-06-29T11:10:20Z</time>
      </trkpt>
      <trkpt lat="48.69557" lon="6.19207">
        <ele>197.1</ele>
        <time>2020-06-29T11:10:21Z</time>
      </trkpt>
      <trkpt lat="48.69562" lon="6.19204">
        <ele>197.2</ele>
        <time>2020-06-29T11:10:22Z</time>
      </trkpt>
      <trkpt lat="48.69565" lon="6.192">
        <ele>197.2</ele>
        <time>2020-06-29T11:10:23Z</time>
      </trkpt>
      <trkpt lat="48.69569" lon="6.19197">
        <ele>197.3</ele>
        <time>2020-06-29T11:10:24Z</time>
      </trkpt>
      <trkpt lat="48.69572" lon="6.19195">
        <ele>197.3</ele>
        <time>2020-06-29T11:10:25Z</time>
      </trkpt>
      <trkpt lat="48.69577" lon="6.19192">
        <ele>197.4</ele>
        <time>2020-06-29T11:10:26Z</time>
      </trkpt>
      <trkpt lat="48.6958" lon="6.19191">
        <ele>197.4</ele>
        <time>2020-06-29T11:10:27Z</time>
      </trkpt>
      <trkpt lat="48.69584" lon="6.1919">
        <ele>197.5</ele>
        <time>2020-06-29T11:10:28Z</time>
      </trkpt>
      <trkpt lat="48.69587" lon="6.19188">
        <ele>197.5</ele>
        <time>2020-06-29T11:10:29Z</time>
      </trkpt>
      <trkpt lat="48.6959" lon="6.19186">
        <ele>197.6</ele>
        <time>2020-06-29T11:10:30Z</time>
      </trkpt>
      <trkpt lat="48.69591" lon="6.19186">
        <ele>197.6</ele>
        <time>2020-06-29T11:10:31Z</time>
      </trkpt>
      <trkpt lat="48.69594" lon="6.19184">
        <ele>197.6</ele>
        <time>2020-06-29T11:10:32Z</time>
      </trkpt>
      <trkpt lat="48.69595" lon="6.19184">
        <ele>197.6</ele>
        <time>2020-06-29T11:10:33Z</time>
      </trkpt>
      <trkpt lat="48.69596" lon="6.19181">
        <ele>197.6</ele>
        <time>2020-06-29T11:10:34Z</time>
      </trkpt>
      <trkpt lat="48.69596" lon="6.1918">
        <ele>197.7</ele>
        <time>2020-06-29T11:10:35Z</time>
      </trkpt>
      <trkpt lat="48.69597" lon="6.19176">
        <ele>197.7</ele>
        <time>2020-06-29T11:10:36Z</time>
      </trkpt>
      <trkpt lat="48.69598" lon="6.19174">
        <ele>197.7</ele>
        <time>2020-06-29T11:10:37Z</time>
      </trkpt>
      <trkpt lat="48.69597" lon="6.19168">
        <ele>197.8</ele>
        <time>2020-06-29T11:10:38Z</time>
      </trkpt>
      <trkpt lat="48.69597" lon="6.19166">
        <ele>198</ele>
        <time>2020-06-29T11:10:39Z</time>
      </trkpt>
      <trkpt lat="48.69597" lon="6.19162">
        <ele>198</ele>
        <time>2020-06-29T11:10:40Z</time>
      </trkpt>
      <trkpt lat="48.69596" lon="6.19157">
        <ele>198</ele>
        <time>2020-06-29T11:10:41Z</time>
      </trkpt>
      <trkpt lat="48.69596" lon="6.19152">
        <ele>198</ele>
        <time>2020-06-29T11:10:42Z</time>
      </trkpt>
      <trkpt lat="48.69596" lon="6.1915">
        <ele>198</ele>
        <time>2020-06-29T11:10:43Z</time>
      </trkpt>
      <trkpt lat="48.69594" lon="6.19145">
        <ele>197.9</ele>
        <time>2020-06-29T11:10:44Z</time>
      </trkpt>
      <trkpt lat="48.69594" lon="6.19144">
        <ele>197.8</ele>
        <time>2020-06-29T11:10:45Z</time>
      </trkpt>
      <trkpt lat="48.69593" lon="6.19138">
        <ele>197.8</ele>
        <time>2020-06-29T11:10:46Z</time>
      </trkpt>
      <trkpt lat="48.69593" lon="6.19136">
        <ele>197.8</ele>
        <time>2020-06-29T11:10:47Z</time>
      </trkpt>
      <trkpt lat="48.6959" lon="6.19131">
        <ele>197.8</ele>
        <time>2020-06-29T11:10:48Z</time>
      </trkpt>
      <trkpt lat="48.69589" lon="6.19129">
        <ele>197.8</ele>
        <time>2020-06-29T11:10:49Z</time>
      </trkpt>
      <trkpt lat="48.69587" lon="6.19122">
        <ele>197.7</ele>
        <time>2020-06-29T11:10:50Z</time>
      </trkpt>
      <trkpt lat="48.69586" lon="6.19115">
        <ele>197.7</ele>
        <time>2020-06-29T11:10:51Z</time>
      </trkpt>
      <trkpt lat="48.69585" lon="6.1911">
        <ele>197.7</ele>
        <time>2020-06-29T11:10:52Z</time>
      </trkpt>
      <trkpt lat="48.69584" lon="6.19105">
        <ele>197.7</ele>
        <time>2020-06-29T11:10:53Z</time>
      </trkpt>
      <trkpt lat="48.69582" lon="6.19098">
        <ele>197.6</ele>
        <time>2020-06-29T11:10:54Z</time>
      </trkpt>
      <trkpt lat="48.6958" lon="6.19092">
        <ele>197.6</ele>
        <time>2020-06-29T11:10:55Z</time>
      </trkpt>
      <trkpt lat="48.69579" lon="6.19085">
        <ele>197.6</ele>
        <time>2020-06-29T11:10:56Z</time>
      </trkpt>
      <trkpt lat="48.69579" lon="6.19079">
        <ele>197.6</ele>
        <time>2020-06-29T11:10:57Z</time>
      </trkpt>
      <trkpt lat="48.69577" lon="6.19074">
        <ele>197.6</ele>
        <time>2020-06-29T11:10:58Z</time>
      </trkpt>
      <trkpt lat="48.69577" lon="6.19072">
        <ele>197.6</ele>
        <time>2020-06-29T11:10:59Z</time>
      </trkpt>
      <trkpt lat="48.69574" lon="6.19069">
        <ele>197.6</ele>
        <time>2020-06-29T11:11:00Z</time>
      </trkpt>
      <trkpt lat="48.69573" lon="6.19065">
        <ele>197.6</ele>
        <time>2020-06-29T11:11:01Z</time>
      </trkpt>
      <trkpt lat="48.69571" lon="6.19061">
        <ele>197.7</ele>
        <time>2020-06-29T11:11:02Z</time>
      </trkpt>
      <trkpt lat="48.6957" lon="6.19058">
        <ele>197.7</ele>
        <time>2020-06-29T11:11:03Z</time>
      </trkpt>
      <trkpt lat="48.6957" lon="6.19056">
        <ele>197.7</ele>
        <time>2020-06-29T11:11:04Z</time>
      </trkpt>
      <trkpt lat="48.69568" lon="6.19051">
        <ele>197.7</ele>
        <time>2020-06-29T11:11:05Z</time>
      </trkpt>
      <trkpt lat="48.69567" lon="6.1905">
        <ele>197.7</ele>
        <time>2020-06-29T11:11:06Z</time>
      </trkpt>
      <trkpt lat="48.69564" lon="6.19045">
        <ele>197.8</ele>
        <time>2020-06-29T11:11:07Z</time>
      </trkpt>
      <trkpt lat="48.69564" lon="6.19044">
        <ele>197.8</ele>
        <time>2020-06-29T11:11:08Z</time>
      </trkpt>
      <trkpt lat="48.69562" lon="6.19039">
        <ele>197.8</ele>
        <time>2020-06-29T11:11:09Z</time>
      </trkpt>
      <trkpt lat="48.69561" lon="6.19038">
        <ele>197.8</ele>
        <time>2020-06-29T11:11:10Z</time>
      </trkpt>
      <trkpt lat="48.69559" lon="6.19035">
        <ele>197.8</ele>
        <time>2020-06-29T11:11:11Z</time>
      </trkpt>
      <trkpt lat="48.69559" lon="6.19034">
        <ele>197.8</ele>
        <time>2020-06-29T11:11:12Z</time>
      </trkpt>
      <trkpt lat="48.69556" lon="6.19031">
        <ele>197.9</ele>
        <time>2020-06-29T11:11:13Z</time>
      </trkpt>
      <trkpt lat="48.69554" lon="6.19031">
        <ele>197.9</ele>
        <time>2020-06-29T11:11:14Z</time>
      </trkpt>
      <trkpt lat="48.69554" lon="6.1903">
        <ele>197.9</ele>
        <time>2020-06-29T11:11:15Z</time>
      </trkpt>
      <trkpt lat="48.69554" lon="6.19029">
        <ele>197.9</ele>
        <time>2020-06-29T11:11:16Z</time>
      </trkpt>
      <trkpt lat="48.69554" lon="6.19028">
        <ele>197.8</ele>
        <time>2020-06-29T11:11:17Z</time>
      </trkpt>
      <trkpt lat="48.69554" lon="6.19027">
        <ele>197.8</ele>
        <time>2020-06-29T11:11:18Z</time>
      </trkpt>
      <trkpt lat="48.69554" lon="6.19027">
        <ele>197.8</ele>
        <time>2020-06-29T11:11:19Z</time>
      </trkpt>
      <trkpt lat="48.69553" lon="6.19026">
        <ele>197.8</ele>
        <time>2020-06-29T11:11:20Z</time>
      </trkpt>
      <trkpt lat="48.69553" lon="6.19025">
        <ele>197.8</ele>
        <time>2020-06-29T11:11:21Z</time>
      </trkpt>
      <trkpt lat="48.69553" lon="6.19024">
        <ele>197.8</ele>
        <time>2020-06-29T11:11:22Z</time>
      </trkpt>
      <trkpt lat="48.69553" lon="6.19023">
        <ele>197.8</ele>
        <time>2020-06-29T11:11:23Z</time>
      </trkpt>
      <trkpt lat="48.69553" lon="6.19022">
        <ele>197.8</ele>
        <time>2020-06-29T11:11:24Z</time>
      </trkpt>
      <trkpt lat="48.69553" lon="6.19022">
        <ele>197.8</ele>
        <time>2020-06-29T11:11:53Z</time>
      </trkpt>
      <trkpt lat="48.69553" lon="6.19021">
        <ele>197.8</ele>
        <time>2020-06-29T11:11:54Z</time>
      </trkpt>
      <trkpt lat="48.69555" lon="6.19017">
        <ele>197.8</ele>
        <time>2020-06-29T11:11:55Z</time>
      </trkpt>
      <trkpt lat="48.69556" lon="6.19016">
        <ele>197.8</ele>
        <time>2020-06-29T11:11:56Z</time>
      </trkpt>
      <trkpt lat="48.69559" lon="6.19011">
        <ele>197.8</ele>
        <time>2020-06-29T11:11:57Z</time>
      </trkpt>
      <trkpt lat="48.6956" lon="6.19009">
        <ele>197.9</ele>
        <time>2020-06-29T11:11:58Z</time>
      </trkpt>
      <trkpt lat="48.69558" lon="6.19003">
        <ele>198.3</ele>
        <time>2020-06-29T11:11:59Z</time>
      </trkpt>
      <trkpt lat="48.69557" lon="6.19">
        <ele>198.2</ele>
        <time>2020-06-29T11:12:00Z</time>
      </trkpt>
      <trkpt lat="48.69555" lon="6.18997">
        <ele>198.2</ele>
        <time>2020-06-29T11:12:01Z</time>
      </trkpt>
      <trkpt lat="48.69554" lon="6.18993">
        <ele>198.2</ele>
        <time>2020-06-29T11:12:02Z</time>
      </trkpt>
      <trkpt lat="48.69553" lon="6.18988">
        <ele>197.9</ele>
        <time>2020-06-29T11:12:03Z</time>
      </trkpt>
      <trkpt lat="48.69552" lon="6.18983">
        <ele>197.8</ele>
        <time>2020-06-29T11:12:04Z</time>
      </trkpt>
      <trkpt lat="48.6955" lon="6.18977">
        <ele>197.8</ele>
        <time>2020-06-29T11:12:05Z</time>
      </trkpt>
      <trkpt lat="48.6955" lon="6.18972">
        <ele>197.7</ele>
        <time>2020-06-29T11:12:06Z</time>
      </trkpt>
      <trkpt lat="48.69549" lon="6.18967">
        <ele>197.7</ele>
        <time>2020-06-29T11:12:07Z</time>
      </trkpt>
      <trkpt lat="48.69547" lon="6.1896">
        <ele>197.7</ele>
        <time>2020-06-29T11:12:08Z</time>
      </trkpt>
      <trkpt lat="48.69546" lon="6.18955">
        <ele>197.7</ele>
        <time>2020-06-29T11:12:09Z</time>
      </trkpt>
      <trkpt lat="48.69543" lon="6.18948">
        <ele>197.7</ele>
        <time>2020-06-29T11:12:10Z</time>
      </trkpt>
      <trkpt lat="48.69541" lon="6.18941">
        <ele>197.7</ele>
        <time>2020-06-29T11:12:11Z</time>
      </trkpt>
      <trkpt lat="48.69538" lon="6.18934">
        <ele>197.6</ele>
        <time>2020-06-29T11:12:12Z</time>
      </trkpt>
      <trkpt lat="48.69537" lon="6.18929">
        <ele>197.6</ele>
        <time>2020-06-29T11:12:13Z</time>
      </trkpt>
      <trkpt lat="48.69534" lon="6.18924">
        <ele>197.6</ele>
        <time>2020-06-29T11:12:14Z</time>
      </trkpt>
      <trkpt lat="48.69532" lon="6.18918">
        <ele>197.6</ele>
        <time>2020-06-29T11:12:15Z</time>
      </trkpt>
      <trkpt lat="48.69531" lon="6.18913">
        <ele>197.6</ele>
        <time>2020-06-29T11:12:16Z</time>
      </trkpt>
      <trkpt lat="48.69529" lon="6.18906">
        <ele>197.6</ele>
        <time>2020-06-29T11:12:17Z</time>
      </trkpt>
      <trkpt lat="48.69528" lon="6.18899">
        <ele>197.6</ele>
        <time>2020-06-29T11:12:18Z</time>
      </trkpt>
      <trkpt lat="48.69526" lon="6.18891">
        <ele>197.6</ele>
        <time>2020-06-29T11:12:19Z</time>
      </trkpt>
      <trkpt lat="48.69524" lon="6.18883">
        <ele>197.6</ele>
        <time>2020-06-29T11:12:20Z</time>
      </trkpt>
      <trkpt lat="48.69522" lon="6.18877">
        <ele>197.6</ele>
        <time>2020-06-29T11:12:21Z</time>
      </trkpt>
      <trkpt lat="48.69522" lon="6.18869">
        <ele>197.6</ele>
        <time>2020-06-29T11:12:22Z</time>
      </trkpt>
      <trkpt lat="48.6952" lon="6.18862">
        <ele>197.6</ele>
        <time>2020-06-29T11:12:23Z</time>
      </trkpt>
      <trkpt lat="48.69518" lon="6.18856">
        <ele>197.6</ele>
        <time>2020-06-29T11:12:24Z</time>
      </trkpt>
      <trkpt lat="48.69516" lon="6.18851">
        <ele>197.7</ele>
        <time>2020-06-29T11:12:25Z</time>
      </trkpt>
      <trkpt lat="48.69515" lon="6.18845">
        <ele>197.7</ele>
        <time>2020-06-29T11:12:26Z</time>
      </trkpt>
      <trkpt lat="48.69513" lon="6.18839">
        <ele>197.7</ele>
        <time>2020-06-29T11:12:27Z</time>
      </trkpt>
      <trkpt lat="48.69511" lon="6.1883">
        <ele>197.7</ele>
        <time>2020-06-29T11:12:28Z</time>
      </trkpt>
      <trkpt lat="48.69509" lon="6.18824">
        <ele>197.7</ele>
        <time>2020-06-29T11:12:29Z</time>
      </trkpt>
      <trkpt lat="48.69506" lon="6.18817">
        <ele>197.7</ele>
        <time>2020-06-29T11:12:30Z</time>
      </trkpt>
      <trkpt lat="48.69504" lon="6.18811">
        <ele>197.7</ele>
        <time>2020-06-29T11:12:31Z</time>
      </trkpt>
      <trkpt lat="48.69501" lon="6.18804">
        <ele>197.7</ele>
        <time>2020-06-29T11:12:32Z</time>
      </trkpt>
      <trkpt lat="48.695" lon="6.18798">
        <ele>197.8</ele>
        <time>2020-06-29T11:12:33Z</time>
      </trkpt>
      <trkpt lat="48.69498" lon="6.18792">
        <ele>197.8</ele>
        <time>2020-06-29T11:12:34Z</time>
      </trkpt>
      <trkpt lat="48.69498" lon="6.18784">
        <ele>197.8</ele>
        <time>2020-06-29T11:12:35Z</time>
      </trkpt>
      <trkpt lat="48.69497" lon="6.18776">
        <ele>197.8</ele>
        <time>2020-06-29T11:12:36Z</time>
      </trkpt>
      <trkpt lat="48.69496" lon="6.18768">
        <ele>197.9</ele>
        <time>2020-06-29T11:12:37Z</time>
      </trkpt>
      <trkpt lat="48.69493" lon="6.18761">
        <ele>197.9</ele>
        <time>2020-06-29T11:12:38Z</time>
      </trkpt>
      <trkpt lat="48.6949" lon="6.18756">
        <ele>197.9</ele>
        <time>2020-06-29T11:12:39Z</time>
      </trkpt>
      <trkpt lat="48.69487" lon="6.18751">
        <ele>197.9</ele>
        <time>2020-06-29T11:12:40Z</time>
      </trkpt>
      <trkpt lat="48.69485" lon="6.18745">
        <ele>197.9</ele>
        <time>2020-06-29T11:12:41Z</time>
      </trkpt>
      <trkpt lat="48.69483" lon="6.1874">
        <ele>197.9</ele>
        <time>2020-06-29T11:12:42Z</time>
      </trkpt>
      <trkpt lat="48.69482" lon="6.18734">
        <ele>198</ele>
        <time>2020-06-29T11:12:43Z</time>
      </trkpt>
      <trkpt lat="48.6948" lon="6.18728">
        <ele>198</ele>
        <time>2020-06-29T11:12:44Z</time>
      </trkpt>
      <trkpt lat="48.69477" lon="6.18722">
        <ele>198</ele>
        <time>2020-06-29T11:12:45Z</time>
      </trkpt>
      <trkpt lat="48.69474" lon="6.18718">
        <ele>198</ele>
        <time>2020-06-29T11:12:46Z</time>
      </trkpt>
      <trkpt lat="48.69472" lon="6.18713">
        <ele>198</ele>
        <time>2020-06-29T11:12:47Z</time>
      </trkpt>
      <trkpt lat="48.69469" lon="6.18707">
        <ele>198.1</ele>
        <time>2020-06-29T11:12:48Z</time>
      </trkpt>
      <trkpt lat="48.69468" lon="6.18701">
        <ele>198.2</ele>
        <time>2020-06-29T11:12:49Z</time>
      </trkpt>
      <trkpt lat="48.69466" lon="6.18695">
        <ele>198.2</ele>
        <time>2020-06-29T11:12:50Z</time>
      </trkpt>
      <trkpt lat="48.69464" lon="6.1869">
        <ele>198.3</ele>
        <time>2020-06-29T11:12:51Z</time>
      </trkpt>
      <trkpt lat="48.69462" lon="6.18684">
        <ele>198.4</ele>
        <time>2020-06-29T11:12:52Z</time>
      </trkpt>
      <trkpt lat="48.6946" lon="6.18678">
        <ele>198.4</ele>
        <time>2020-06-29T11:12:53Z</time>
      </trkpt>
      <trkpt lat="48.69458" lon="6.18672">
        <ele>198.5</ele>
        <time>2020-06-29T11:12:54Z</time>
      </trkpt>
      <trkpt lat="48.69457" lon="6.18666">
        <ele>198.6</ele>
        <time>2020-06-29T11:12:55Z</time>
      </trkpt>
      <trkpt lat="48.69456" lon="6.1866">
        <ele>198.6</ele>
        <time>2020-06-29T11:12:56Z</time>
      </trkpt>
      <trkpt lat="48.69454" lon="6.18653">
        <ele>198.7</ele>
        <time>2020-06-29T11:12:57Z</time>
      </trkpt>
      <trkpt lat="48.69452" lon="6.18646">
        <ele>198.8</ele>
        <time>2020-06-29T11:12:58Z</time>
      </trkpt>
      <trkpt lat="48.69449" lon="6.18639">
        <ele>198.9</ele>
        <time>2020-06-29T11:12:59Z</time>
      </trkpt>
      <trkpt lat="48.69447" lon="6.18632">
        <ele>199</ele>
        <time>2020-06-29T11:13:00Z</time>
      </trkpt>
      <trkpt lat="48.69446" lon="6.18625">
        <ele>199.1</ele>
        <time>2020-06-29T11:13:01Z</time>
      </trkpt>
      <trkpt lat="48.69443" lon="6.18618">
        <ele>199.1</ele>
        <time>2020-06-29T11:13:02Z</time>
      </trkpt>
      <trkpt lat="48.69441" lon="6.18611">
        <ele>199.2</ele>
        <time>2020-06-29T11:13:03Z</time>
      </trkpt>
      <trkpt lat="48.6944" lon="6.18603">
        <ele>199.3</ele>
        <time>2020-06-29T11:13:04Z</time>
      </trkpt>
      <trkpt lat="48.69439" lon="6.18593">
        <ele>199.3</ele>
        <time>2020-06-29T11:13:05Z</time>
      </trkpt>
      <trkpt lat="48.69437" lon="6.18586">
        <ele>199.4</ele>
        <time>2020-06-29T11:13:06Z</time>
      </trkpt>
      <trkpt lat="48.69435" lon="6.1858">
        <ele>199.5</ele>
        <time>2020-06-29T11:13:07Z</time>
      </trkpt>
      <trkpt lat="48.69431" lon="6.18577">
        <ele>199.5</ele>
        <time>2020-06-29T11:13:08Z</time>
      </trkpt>
      <trkpt lat="48.6943" lon="6.18572">
        <ele>199.6</ele>
        <time>2020-06-29T11:13:09Z</time>
      </trkpt>
      <trkpt lat="48.69429" lon="6.18568">
        <ele>199.6</ele>
        <time>2020-06-29T11:13:10Z</time>
      </trkpt>
      <trkpt lat="48.69426" lon="6.18562">
        <ele>199.7</ele>
        <time>2020-06-29T11:13:11Z</time>
      </trkpt>
      <trkpt lat="48.69423" lon="6.1856">
        <ele>199.7</ele>
        <time>2020-06-29T11:13:12Z</time>
      </trkpt>
      <trkpt lat="48.69419" lon="6.18559">
        <ele>199.9</ele>
        <time>2020-06-29T11:13:13Z</time>
      </trkpt>
      <trkpt lat="48.69413" lon="6.18561">
        <ele>200.1</ele>
        <time>2020-06-29T11:13:14Z</time>
      </trkpt>
      <trkpt lat="48.69407" lon="6.18564">
        <ele>200.3</ele>
        <time>2020-06-29T11:13:15Z</time>
      </trkpt>
      <trkpt lat="48.69402" lon="6.18568">
        <ele>200.5</ele>
        <time>2020-06-29T11:13:16Z</time>
      </trkpt>
      <trkpt lat="48.69398" lon="6.18572">
        <ele>200.6</ele>
        <time>2020-06-29T11:13:17Z</time>
      </trkpt>
      <trkpt lat="48.69395" lon="6.18577">
        <ele>200.8</ele>
        <time>2020-06-29T11:13:18Z</time>
      </trkpt>
      <trkpt lat="48.69391" lon="6.1858">
        <ele>200.9</ele>
        <time>2020-06-29T11:13:19Z</time>
      </trkpt>
      <trkpt lat="48.69388" lon="6.18584">
        <ele>201.1</ele>
        <time>2020-06-29T11:13:20Z</time>
      </trkpt>
      <trkpt lat="48.69384" lon="6.18586">
        <ele>201.1</ele>
        <time>2020-06-29T11:13:21Z</time>
      </trkpt>
      <trkpt lat="48.69381" lon="6.18588">
        <ele>201.1</ele>
        <time>2020-06-29T11:13:22Z</time>
      </trkpt>
      <trkpt lat="48.69377" lon="6.18591">
        <ele>201.1</ele>
        <time>2020-06-29T11:13:23Z</time>
      </trkpt>
      <trkpt lat="48.69373" lon="6.18593">
        <ele>201.1</ele>
        <time>2020-06-29T11:13:24Z</time>
      </trkpt>
      <trkpt lat="48.69368" lon="6.18594">
        <ele>201.1</ele>
        <time>2020-06-29T11:13:25Z</time>
      </trkpt>
      <trkpt lat="48.69364" lon="6.18595">
        <ele>201.1</ele>
        <time>2020-06-29T11:13:26Z</time>
      </trkpt>
      <trkpt lat="48.6936" lon="6.18596">
        <ele>201.1</ele>
        <time>2020-06-29T11:13:27Z</time>
      </trkpt>
      <trkpt lat="48.69356" lon="6.18597">
        <ele>201.1</ele>
        <time>2020-06-29T11:13:28Z</time>
      </trkpt>
      <trkpt lat="48.69351" lon="6.18598">
        <ele>201.1</ele>
        <time>2020-06-29T11:13:29Z</time>
      </trkpt>
      <trkpt lat="48.69348" lon="6.186">
        <ele>201</ele>
        <time>2020-06-29T11:13:30Z</time>
      </trkpt>
      <trkpt lat="48.69345" lon="6.18601">
        <ele>201</ele>
        <time>2020-06-29T11:13:31Z</time>
      </trkpt>
      <trkpt lat="48.69342" lon="6.18602">
        <ele>201</ele>
        <time>2020-06-29T11:13:32Z</time>
      </trkpt>
      <trkpt lat="48.69338" lon="6.186">
        <ele>201</ele>
        <time>2020-06-29T11:13:33Z</time>
      </trkpt>
      <trkpt lat="48.69337" lon="6.18599">
        <ele>200.8</ele>
        <time>2020-06-29T11:13:34Z</time>
      </trkpt>
      <trkpt lat="48.69335" lon="6.18595">
        <ele>200.8</ele>
        <time>2020-06-29T11:13:35Z</time>
      </trkpt>
      <trkpt lat="48.69332" lon="6.1859">
        <ele>200.7</ele>
        <time>2020-06-29T11:13:36Z</time>
      </trkpt>
      <trkpt lat="48.6933" lon="6.18586">
        <ele>200.7</ele>
        <time>2020-06-29T11:13:37Z</time>
      </trkpt>
      <trkpt lat="48.69327" lon="6.18581">
        <ele>200.6</ele>
        <time>2020-06-29T11:13:38Z</time>
      </trkpt>
      <trkpt lat="48.69325" lon="6.18576">
        <ele>200.6</ele>
        <time>2020-06-29T11:13:39Z</time>
      </trkpt>
      <trkpt lat="48.69323" lon="6.1857">
        <ele>200.5</ele>
        <time>2020-06-29T11:13:40Z</time>
      </trkpt>
      <trkpt lat="48.69322" lon="6.18562">
        <ele>200.5</ele>
        <time>2020-06-29T11:13:41Z</time>
      </trkpt>
      <trkpt lat="48.69319" lon="6.18559">
        <ele>200.5</ele>
        <time>2020-06-29T11:13:42Z</time>
      </trkpt>
      <trkpt lat="48.69318" lon="6.18553">
        <ele>200.4</ele>
        <time>2020-06-29T11:13:43Z</time>
      </trkpt>
      <trkpt lat="48.69316" lon="6.18547">
        <ele>200.4</ele>
        <time>2020-06-29T11:13:44Z</time>
      </trkpt>
      <trkpt lat="48.69314" lon="6.18542">
        <ele>200.4</ele>
        <time>2020-06-29T11:13:45Z</time>
      </trkpt>
      <trkpt lat="48.69313" lon="6.18536">
        <ele>200.4</ele>
        <time>2020-06-29T11:13:46Z</time>
      </trkpt>
      <trkpt lat="48.69311" lon="6.18531">
        <ele>200.3</ele>
        <time>2020-06-29T11:13:47Z</time>
      </trkpt>
      <trkpt lat="48.6931" lon="6.18525">
        <ele>200.3</ele>
        <time>2020-06-29T11:13:48Z</time>
      </trkpt>
      <trkpt lat="48.69309" lon="6.1852">
        <ele>200.3</ele>
        <time>2020-06-29T11:13:49Z</time>
      </trkpt>
      <trkpt lat="48.69309" lon="6.18516">
        <ele>200.3</ele>
        <time>2020-06-29T11:13:50Z</time>
      </trkpt>
      <trkpt lat="48.69308" lon="6.18511">
        <ele>200.3</ele>
        <time>2020-06-29T11:13:51Z</time>
      </trkpt>
      <trkpt lat="48.69307" lon="6.18505">
        <ele>200.3</ele>
        <time>2020-06-29T11:13:52Z</time>
      </trkpt>
      <trkpt lat="48.69307" lon="6.18503">
        <ele>200.3</ele>
        <time>2020-06-29T11:13:53Z</time>
      </trkpt>
      <trkpt lat="48.69306" lon="6.18499">
        <ele>200.4</ele>
        <time>2020-06-29T11:13:54Z</time>
      </trkpt>
      <trkpt lat="48.69304" lon="6.18495">
        <ele>200.4</ele>
        <time>2020-06-29T11:13:55Z</time>
      </trkpt>
      <trkpt lat="48.69302" lon="6.18489">
        <ele>200.4</ele>
        <time>2020-06-29T11:13:56Z</time>
      </trkpt>
      <trkpt lat="48.69301" lon="6.18484">
        <ele>200.5</ele>
        <time>2020-06-29T11:13:57Z</time>
      </trkpt>
      <trkpt lat="48.69299" lon="6.18479">
        <ele>200.5</ele>
        <time>2020-06-29T11:13:58Z</time>
      </trkpt>
      <trkpt lat="48.69298" lon="6.18477">
        <ele>200.5</ele>
        <time>2020-06-29T11:13:59Z</time>
      </trkpt>
      <trkpt lat="48.69297" lon="6.18473">
        <ele>200.5</ele>
        <time>2020-06-29T11:14:00Z</time>
      </trkpt>
      <trkpt lat="48.69295" lon="6.18469">
        <ele>200.5</ele>
        <time>2020-06-29T11:14:01Z</time>
      </trkpt>
      <trkpt lat="48.69294" lon="6.18468">
        <ele>200.4</ele>
        <time>2020-06-29T11:14:02Z</time>
      </trkpt>
      <trkpt lat="48.69291" lon="6.18466">
        <ele>200.4</ele>
        <time>2020-06-29T11:14:03Z</time>
      </trkpt>
      <trkpt lat="48.69289" lon="6.18466">
        <ele>200.4</ele>
        <time>2020-06-29T11:14:04Z</time>
      </trkpt>
      <trkpt lat="48.69289" lon="6.18466">
        <ele>200.4</ele>
        <time>2020-06-29T11:14:05Z</time>
      </trkpt>
      <trkpt lat="48.69289" lon="6.18466">
        <ele>200.4</ele>
        <time>2020-06-29T11:14:06Z</time>
      </trkpt>
      <trkpt lat="48.69289" lon="6.18465">
        <ele>200.4</ele>
        <time>2020-06-29T11:14:07Z</time>
      </trkpt>
      <trkpt lat="48.69289" lon="6.18466">
        <ele>200.4</ele>
        <time>2020-06-29T11:14:08Z</time>
      </trkpt>
      <trkpt lat="48.69289" lon="6.18465">
        <ele>200.4</ele>
        <time>2020-06-29T11:14:09Z</time>
      </trkpt>
      <trkpt lat="48.69289" lon="6.18465">
        <ele>200.4</ele>
        <time>2020-06-29T11:14:10Z</time>
      </trkpt>
      <trkpt lat="48.69289" lon="6.18465">
        <ele>200.4</ele>
        <time>2020-06-29T11:14:11Z</time>
      </trkpt>
      <trkpt lat="48.69289" lon="6.18464">
        <ele>200.4</ele>
        <time>2020-06-29T11:14:12Z</time>
      </trkpt>
      <trkpt lat="48.69289" lon="6.18464">
        <ele>200.4</ele>
        <time>2020-06-29T11:14:13Z</time>
      </trkpt>
      <trkpt lat="48.69287" lon="6.18463">
        <ele>200.4</ele>
        <time>2020-06-29T11:14:14Z</time>
      </trkpt>
      <trkpt lat="48.69287" lon="6.18462">
        <ele>200.4</ele>
        <time>2020-06-29T11:14:15Z</time>
      </trkpt>
      <trkpt lat="48.69286" lon="6.18462">
        <ele>200.5</ele>
        <time>2020-06-29T11:14:16Z</time>
      </trkpt>
      <trkpt lat="48.69287" lon="6.18461">
        <ele>200.5</ele>
        <time>2020-06-29T11:14:17Z</time>
      </trkpt>
      <trkpt lat="48.69287" lon="6.1846">
        <ele>200.5</ele>
        <time>2020-06-29T11:14:18Z</time>
      </trkpt>
      <trkpt lat="48.69286" lon="6.1846">
        <ele>200.5</ele>
        <time>2020-06-29T11:14:19Z</time>
      </trkpt>
      <trkpt lat="48.69286" lon="6.1846">
        <ele>200.5</ele>
        <time>2020-06-29T11:14:20Z</time>
      </trkpt>
      <trkpt lat="48.69285" lon="6.18461">
        <ele>200.5</ele>
        <time>2020-06-29T11:14:21Z</time>
      </trkpt>
      <trkpt lat="48.69285" lon="6.18461">
        <ele>200.5</ele>
        <time>2020-06-29T11:14:22Z</time>
      </trkpt>
      <trkpt lat="48.69285" lon="6.18461">
        <ele>200.5</ele>
        <time>2020-06-29T11:14:23Z</time>
      </trkpt>
      <trkpt lat="48.69286" lon="6.18461">
        <ele>200.5</ele>
        <time>2020-06-29T11:14:24Z</time>
      </trkpt>
      <trkpt lat="48.69286" lon="6.18461">
        <ele>200.5</ele>
        <time>2020-06-29T11:14:25Z</time>
      </trkpt>
      <trkpt lat="48.69287" lon="6.18461">
        <ele>200.5</ele>
        <time>2020-06-29T11:14:26Z</time>
      </trkpt>
      <trkpt lat="48.69287" lon="6.18461">
        <ele>200.5</ele>
        <time>2020-06-29T11:14:27Z</time>
      </trkpt>
      <trkpt lat="48.69287" lon="6.1846">
        <ele>200.5</ele>
        <time>2020-06-29T11:14:28Z</time>
      </trkpt>
      <trkpt lat="48.69288" lon="6.1846">
        <ele>200.5</ele>
        <time>2020-06-29T11:14:29Z</time>
      </trkpt>
      <trkpt lat="48.69288" lon="6.1846">
        <ele>200.5</ele>
        <time>2020-06-29T11:14:30Z</time>
      </trkpt>
      <trkpt lat="48.69289" lon="6.1846">
        <ele>200.5</ele>
        <time>2020-06-29T11:14:31Z</time>
      </trkpt>
      <trkpt lat="48.69292" lon="6.18457">
        <ele>200.5</ele>
        <time>2020-06-29T11:14:32Z</time>
      </trkpt>
      <trkpt lat="48.69293" lon="6.18456">
        <ele>200.6</ele>
        <time>2020-06-29T11:14:33Z</time>
      </trkpt>
      <trkpt lat="48.69297" lon="6.18453">
        <ele>200.6</ele>
        <time>2020-06-29T11:14:34Z</time>
      </trkpt>
      <trkpt lat="48.69299" lon="6.18449">
        <ele>200.6</ele>
        <time>2020-06-29T11:14:35Z</time>
      </trkpt>
      <trkpt lat="48.69303" lon="6.18447">
        <ele>200.7</ele>
        <time>2020-06-29T11:14:36Z</time>
      </trkpt>
      <trkpt lat="48.69307" lon="6.18444">
        <ele>200.7</ele>
        <time>2020-06-29T11:14:37Z</time>
      </trkpt>
      <trkpt lat="48.69309" lon="6.18441">
        <ele>200.7</ele>
        <time>2020-06-29T11:14:38Z</time>
      </trkpt>
      <trkpt lat="48.69313" lon="6.18439">
        <ele>200.7</ele>
        <time>2020-06-29T11:14:39Z</time>
      </trkpt>
      <trkpt lat="48.69315" lon="6.18436">
        <ele>200.8</ele>
        <time>2020-06-29T11:14:40Z</time>
      </trkpt>
      <trkpt lat="48.69319" lon="6.18433">
        <ele>200.8</ele>
        <time>2020-06-29T11:14:41Z</time>
      </trkpt>
      <trkpt lat="48.69321" lon="6.1843">
        <ele>200.8</ele>
        <time>2020-06-29T11:14:42Z</time>
      </trkpt>
      <trkpt lat="48.69323" lon="6.18427">
        <ele>200.8</ele>
        <time>2020-06-29T11:14:43Z</time>
      </trkpt>
      <trkpt lat="48.69326" lon="6.18425">
        <ele>200.8</ele>
        <time>2020-06-29T11:14:44Z</time>
      </trkpt>
      <trkpt lat="48.69329" lon="6.18425">
        <ele>201</ele>
        <time>2020-06-29T11:14:45Z</time>
      </trkpt>
      <trkpt lat="48.6933" lon="6.18425">
        <ele>201</ele>
        <time>2020-06-29T11:14:46Z</time>
      </trkpt>
      <trkpt lat="48.69333" lon="6.18423">
        <ele>201</ele>
        <time>2020-06-29T11:14:47Z</time>
      </trkpt>
      <trkpt lat="48.69333" lon="6.18422">
        <ele>201</ele>
        <time>2020-06-29T11:14:48Z</time>
      </trkpt>
      <trkpt lat="48.69334" lon="6.1842">
        <ele>201</ele>
        <time>2020-06-29T11:14:49Z</time>
      </trkpt>
      <trkpt lat="48.69334" lon="6.18418">
        <ele>201</ele>
        <time>2020-06-29T11:14:50Z</time>
      </trkpt>
      <trkpt lat="48.69334" lon="6.18415">
        <ele>201</ele>
        <time>2020-06-29T11:14:51Z</time>
      </trkpt>
      <trkpt lat="48.69334" lon="6.18413">
        <ele>201</ele>
        <time>2020-06-29T11:14:52Z</time>
      </trkpt>
      <trkpt lat="48.69334" lon="6.18411">
        <ele>201.1</ele>
        <time>2020-06-29T11:14:53Z</time>
      </trkpt>
      <trkpt lat="48.69334" lon="6.18406">
        <ele>201</ele>
        <time>2020-06-29T11:14:54Z</time>
      </trkpt>
      <trkpt lat="48.69335" lon="6.184">
        <ele>201</ele>
        <time>2020-06-29T11:14:55Z</time>
      </trkpt>
      <trkpt lat="48.69335" lon="6.18398">
        <ele>201</ele>
        <time>2020-06-29T11:14:56Z</time>
      </trkpt>
      <trkpt lat="48.69338" lon="6.18395">
        <ele>200.9</ele>
        <time>2020-06-29T11:14:57Z</time>
      </trkpt>
      <trkpt lat="48.69339" lon="6.18394">
        <ele>200.9</ele>
        <time>2020-06-29T11:14:58Z</time>
      </trkpt>
      <trkpt lat="48.69339" lon="6.18392">
        <ele>200.9</ele>
        <time>2020-06-29T11:14:59Z</time>
      </trkpt>
      <trkpt lat="48.6934" lon="6.18389">
        <ele>200.8</ele>
        <time>2020-06-29T11:15:00Z</time>
      </trkpt>
      <trkpt lat="48.69341" lon="6.18387">
        <ele>200.7</ele>
        <time>2020-06-29T11:15:01Z</time>
      </trkpt>
      <trkpt lat="48.69342" lon="6.18385">
        <ele>200.8</ele>
        <time>2020-06-29T11:15:02Z</time>
      </trkpt>
      <trkpt lat="48.69343" lon="6.1838">
        <ele>200.5</ele>
        <time>2020-06-29T11:15:03Z</time>
      </trkpt>
      <trkpt lat="48.69344" lon="6.18378">
        <ele>200.5</ele>
        <time>2020-06-29T11:15:04Z</time>
      </trkpt>
      <trkpt lat="48.69345" lon="6.18375">
        <ele>200.3</ele>
        <time>2020-06-29T11:15:05Z</time>
      </trkpt>
      <trkpt lat="48.69346" lon="6.18373">
        <ele>200.3</ele>
        <time>2020-06-29T11:15:06Z</time>
      </trkpt>
      <trkpt lat="48.69348" lon="6.18369">
        <ele>200.3</ele>
        <time>2020-06-29T11:15:07Z</time>
      </trkpt>
      <trkpt lat="48.69349" lon="6.18368">
        <ele>200.2</ele>
        <time>2020-06-29T11:15:08Z</time>
      </trkpt>
      <trkpt lat="48.6935" lon="6.18365">
        <ele>200.1</ele>
        <time>2020-06-29T11:15:09Z</time>
      </trkpt>
      <trkpt lat="48.69349" lon="6.18362">
        <ele>200</ele>
        <time>2020-06-29T11:15:10Z</time>
      </trkpt>
      <trkpt lat="48.69349" lon="6.18361">
        <ele>200</ele>
        <time>2020-06-29T11:15:11Z</time>
      </trkpt>
      <trkpt lat="48.69349" lon="6.18357">
        <ele>200</ele>
        <time>2020-06-29T11:15:12Z</time>
      </trkpt>
      <trkpt lat="48.69349" lon="6.18355">
        <ele>200</ele>
        <time>2020-06-29T11:15:13Z</time>
      </trkpt>
      <trkpt lat="48.69349" lon="6.18354">
        <ele>200</ele>
        <time>2020-06-29T11:15:14Z</time>
      </trkpt>
      <trkpt lat="48.6935" lon="6.18354">
        <ele>200</ele>
        <time>2020-06-29T11:15:15Z</time>
      </trkpt>
      <trkpt lat="48.69352" lon="6.18354">
        <ele>199.9</ele>
        <time>2020-06-29T11:15:16Z</time>
      </trkpt>
      <trkpt lat="48.69353" lon="6.18353">
        <ele>199.9</ele>
        <time>2020-06-29T11:15:17Z</time>
      </trkpt>
      <trkpt lat="48.69354" lon="6.18354">
        <ele>199.8</ele>
        <time>2020-06-29T11:15:18Z</time>
      </trkpt>
      <trkpt lat="48.69356" lon="6.18353">
        <ele>199.8</ele>
        <time>2020-06-29T11:15:19Z</time>
      </trkpt>
      <trkpt lat="48.69358" lon="6.18355">
        <ele>199.8</ele>
        <time>2020-06-29T11:15:20Z</time>
      </trkpt>
      <trkpt lat="48.69359" lon="6.18353">
        <ele>199.7</ele>
        <time>2020-06-29T11:15:21Z</time>
      </trkpt>
      <trkpt lat="48.6936" lon="6.18351">
        <ele>199.7</ele>
        <time>2020-06-29T11:15:22Z</time>
      </trkpt>
      <trkpt lat="48.6936" lon="6.18349">
        <ele>199.6</ele>
        <time>2020-06-29T11:15:23Z</time>
      </trkpt>
      <trkpt lat="48.69362" lon="6.18346">
        <ele>199.6</ele>
        <time>2020-06-29T11:15:24Z</time>
      </trkpt>
      <trkpt lat="48.69363" lon="6.18345">
        <ele>199.5</ele>
        <time>2020-06-29T11:15:25Z</time>
      </trkpt>
      <trkpt lat="48.69366" lon="6.18343">
        <ele>199.5</ele>
        <time>2020-06-29T11:15:26Z</time>
      </trkpt>
      <trkpt lat="48.69367" lon="6.18342">
        <ele>199.5</ele>
        <time>2020-06-29T11:15:27Z</time>
      </trkpt>
      <trkpt lat="48.69368" lon="6.1834">
        <ele>199.4</ele>
        <time>2020-06-29T11:15:28Z</time>
      </trkpt>
      <trkpt lat="48.69369" lon="6.18338">
        <ele>199.4</ele>
        <time>2020-06-29T11:15:29Z</time>
      </trkpt>
      <trkpt lat="48.69368" lon="6.18334">
        <ele>199.4</ele>
        <time>2020-06-29T11:15:30Z</time>
      </trkpt>
      <trkpt lat="48.69368" lon="6.18332">
        <ele>199.4</ele>
        <time>2020-06-29T11:15:31Z</time>
      </trkpt>
      <trkpt lat="48.69367" lon="6.18332">
        <ele>199.5</ele>
        <time>2020-06-29T11:15:32Z</time>
      </trkpt>
      <trkpt lat="48.69366" lon="6.18331">
        <ele>199.5</ele>
        <time>2020-06-29T11:15:33Z</time>
      </trkpt>
      <trkpt lat="48.69366" lon="6.1833">
        <ele>199.5</ele>
        <time>2020-06-29T11:15:34Z</time>
      </trkpt>
      <trkpt lat="48.69366" lon="6.1833">
        <ele>199.5</ele>
        <time>2020-06-29T11:15:35Z</time>
      </trkpt>
      <trkpt lat="48.69366" lon="6.18331">
        <ele>199.6</ele>
        <time>2020-06-29T11:15:36Z</time>
      </trkpt>
      <trkpt lat="48.69366" lon="6.18331">
        <ele>199.6</ele>
        <time>2020-06-29T11:15:37Z</time>
      </trkpt>
      <trkpt lat="48.69366" lon="6.18331">
        <ele>199.6</ele>
        <time>2020-06-29T11:15:38Z</time>
      </trkpt>
      <trkpt lat="48.69365" lon="6.18331">
        <ele>199.7</ele>
        <time>2020-06-29T11:15:39Z</time>
      </trkpt>
      <trkpt lat="48.69365" lon="6.18329">
        <ele>199.7</ele>
        <time>2020-06-29T11:15:40Z</time>
      </trkpt>
      <trkpt lat="48.69364" lon="6.18327">
        <ele>199.7</ele>
        <time>2020-06-29T11:15:41Z</time>
      </trkpt>
      <trkpt lat="48.69364" lon="6.18325">
        <ele>199.7</ele>
        <time>2020-06-29T11:15:42Z</time>
      </trkpt>
      <trkpt lat="48.69363" lon="6.18323">
        <ele>199.8</ele>
        <time>2020-06-29T11:15:43Z</time>
      </trkpt>
      <trkpt lat="48.69363" lon="6.18321">
        <ele>199.8</ele>
        <time>2020-06-29T11:15:49Z</time>
      </trkpt>
      <trkpt lat="48.69363" lon="6.18319">
        <ele>199.8</ele>
        <time>2020-06-29T11:15:50Z</time>
      </trkpt>
      <trkpt lat="48.69362" lon="6.18318">
        <ele>199.9</ele>
        <time>2020-06-29T11:15:51Z</time>
      </trkpt>
      <trkpt lat="48.69361" lon="6.18315">
        <ele>200</ele>
        <time>2020-06-29T11:15:52Z</time>
      </trkpt>
      <trkpt lat="48.69359" lon="6.18312">
        <ele>200.1</ele>
        <time>2020-06-29T11:15:53Z</time>
      </trkpt>
      <trkpt lat="48.69357" lon="6.18307">
        <ele>200.2</ele>
        <time>2020-06-29T11:15:54Z</time>
      </trkpt>
      <trkpt lat="48.69354" lon="6.18303">
        <ele>200.5</ele>
        <time>2020-06-29T11:15:55Z</time>
      </trkpt>
      <trkpt lat="48.69351" lon="6.18299">
        <ele>200.6</ele>
        <time>2020-06-29T11:15:56Z</time>
      </trkpt>
      <trkpt lat="48.6935" lon="6.18297">
        <ele>200.8</ele>
        <time>2020-06-29T11:15:57Z</time>
      </trkpt>
      <trkpt lat="48.69349" lon="6.18293">
        <ele>200.8</ele>
        <time>2020-06-29T11:15:58Z</time>
      </trkpt>
      <trkpt lat="48.69348" lon="6.18292">
        <ele>200.9</ele>
        <time>2020-06-29T11:15:59Z</time>
      </trkpt>
      <trkpt lat="48.69347" lon="6.18287">
        <ele>201.1</ele>
        <time>2020-06-29T11:16:00Z</time>
      </trkpt>
      <trkpt lat="48.69346" lon="6.18285">
        <ele>201.2</ele>
        <time>2020-06-29T11:16:01Z</time>
      </trkpt>
      <trkpt lat="48.69343" lon="6.18277">
        <ele>201.4</ele>
        <time>2020-06-29T11:16:02Z</time>
      </trkpt>
      <trkpt lat="48.6934" lon="6.1827">
        <ele>201.7</ele>
        <time>2020-06-29T11:16:03Z</time>
      </trkpt>
      <trkpt lat="48.69338" lon="6.18263">
        <ele>202</ele>
        <time>2020-06-29T11:16:04Z</time>
      </trkpt>
      <trkpt lat="48.69337" lon="6.18259">
        <ele>202.3</ele>
        <time>2020-06-29T11:16:05Z</time>
      </trkpt>
      <trkpt lat="48.69335" lon="6.18253">
        <ele>202.3</ele>
        <time>2020-06-29T11:16:06Z</time>
      </trkpt>
      <trkpt lat="48.69334" lon="6.18251">
        <ele>202.3</ele>
        <time>2020-06-29T11:16:07Z</time>
      </trkpt>
      <trkpt lat="48.69333" lon="6.18245">
        <ele>202.4</ele>
        <time>2020-06-29T11:16:08Z</time>
      </trkpt>
      <trkpt lat="48.69332" lon="6.18243">
        <ele>202.4</ele>
        <time>2020-06-29T11:16:09Z</time>
      </trkpt>
      <trkpt lat="48.69331" lon="6.18239">
        <ele>202.5</ele>
        <time>2020-06-29T11:16:10Z</time>
      </trkpt>
      <trkpt lat="48.69329" lon="6.18234">
        <ele>202.6</ele>
        <time>2020-06-29T11:16:11Z</time>
      </trkpt>
      <trkpt lat="48.69328" lon="6.18232">
        <ele>202.6</ele>
        <time>2020-06-29T11:16:12Z</time>
      </trkpt>
      <trkpt lat="48.69328" lon="6.18228">
        <ele>202.7</ele>
        <time>2020-06-29T11:16:13Z</time>
      </trkpt>
      <trkpt lat="48.69327" lon="6.18226">
        <ele>202.7</ele>
        <time>2020-06-29T11:16:14Z</time>
      </trkpt>
      <trkpt lat="48.69326" lon="6.18222">
        <ele>202.8</ele>
        <time>2020-06-29T11:16:15Z</time>
      </trkpt>
      <trkpt lat="48.69326" lon="6.18221">
        <ele>202.8</ele>
        <time>2020-06-29T11:16:16Z</time>
      </trkpt>
      <trkpt lat="48.69324" lon="6.18216">
        <ele>202.9</ele>
        <time>2020-06-29T11:16:17Z</time>
      </trkpt>
      <trkpt lat="48.69324" lon="6.18215">
        <ele>202.9</ele>
        <time>2020-06-29T11:16:18Z</time>
      </trkpt>
      <trkpt lat="48.69322" lon="6.1821">
        <ele>203.1</ele>
        <time>2020-06-29T11:16:19Z</time>
      </trkpt>
      <trkpt lat="48.69322" lon="6.18208">
        <ele>203.1</ele>
        <time>2020-06-29T11:16:20Z</time>
      </trkpt>
      <trkpt lat="48.6932" lon="6.18204">
        <ele>203.2</ele>
        <time>2020-06-29T11:16:21Z</time>
      </trkpt>
      <trkpt lat="48.69319" lon="6.18203">
        <ele>203.2</ele>
        <time>2020-06-29T11:16:22Z</time>
      </trkpt>
      <trkpt lat="48.69317" lon="6.18199">
        <ele>203.4</ele>
        <time>2020-06-29T11:16:23Z</time>
      </trkpt>
      <trkpt lat="48.69316" lon="6.18198">
        <ele>203.4</ele>
        <time>2020-06-29T11:16:24Z</time>
      </trkpt>
      <trkpt lat="48.69315" lon="6.18193">
        <ele>203.5</ele>
        <time>2020-06-29T11:16:25Z</time>
      </trkpt>
      <trkpt lat="48.69314" lon="6.18191">
        <ele>203.6</ele>
        <time>2020-06-29T11:16:26Z</time>
      </trkpt>
      <trkpt lat="48.69313" lon="6.18185">
        <ele>203.7</ele>
        <time>2020-06-29T11:16:27Z</time>
      </trkpt>
      <trkpt lat="48.69312" lon="6.1818">
        <ele>203.8</ele>
        <time>2020-06-29T11:16:28Z</time>
      </trkpt>
      <trkpt lat="48.69312" lon="6.18178">
        <ele>203.8</ele>
        <time>2020-06-29T11:16:29Z</time>
      </trkpt>
      <trkpt lat="48.69311" lon="6.18174">
        <ele>203.9</ele>
        <time>2020-06-29T11:16:30Z</time>
      </trkpt>
      <trkpt lat="48.6931" lon="6.18169">
        <ele>204.1</ele>
        <time>2020-06-29T11:16:31Z</time>
      </trkpt>
      <trkpt lat="48.6931" lon="6.18167">
        <ele>204.1</ele>
        <time>2020-06-29T11:16:32Z</time>
      </trkpt>
      <trkpt lat="48.6931" lon="6.18164">
        <ele>204.2</ele>
        <time>2020-06-29T11:16:33Z</time>
      </trkpt>
      <trkpt lat="48.6931" lon="6.18162">
        <ele>204.3</ele>
        <time>2020-06-29T11:16:34Z</time>
      </trkpt>
      <trkpt lat="48.69309" lon="6.18157">
        <ele>204.4</ele>
        <time>2020-06-29T11:16:35Z</time>
      </trkpt>
      <trkpt lat="48.69308" lon="6.18152">
        <ele>204.5</ele>
        <time>2020-06-29T11:16:36Z</time>
      </trkpt>
      <trkpt lat="48.69307" lon="6.18148">
        <ele>204.6</ele>
        <time>2020-06-29T11:16:37Z</time>
      </trkpt>
      <trkpt lat="48.69306" lon="6.18146">
        <ele>204.7</ele>
        <time>2020-06-29T11:16:38Z</time>
      </trkpt>
      <trkpt lat="48.69304" lon="6.18142">
        <ele>204.8</ele>
        <time>2020-06-29T11:16:39Z</time>
      </trkpt>
      <trkpt lat="48.69304" lon="6.18141">
        <ele>204.9</ele>
        <time>2020-06-29T11:16:40Z</time>
      </trkpt>
      <trkpt lat="48.69302" lon="6.18136">
        <ele>205</ele>
        <time>2020-06-29T11:16:41Z</time>
      </trkpt>
      <trkpt lat="48.69301" lon="6.18135">
        <ele>205</ele>
        <time>2020-06-29T11:16:42Z</time>
      </trkpt>
      <trkpt lat="48.693" lon="6.18132">
        <ele>205.1</ele>
        <time>2020-06-29T11:16:43Z</time>
      </trkpt>
      <trkpt lat="48.693" lon="6.1813">
        <ele>205.2</ele>
        <time>2020-06-29T11:16:44Z</time>
      </trkpt>
      <trkpt lat="48.69298" lon="6.18127">
        <ele>205.3</ele>
        <time>2020-06-29T11:16:45Z</time>
      </trkpt>
      <trkpt lat="48.69297" lon="6.18126">
        <ele>205.3</ele>
        <time>2020-06-29T11:16:46Z</time>
      </trkpt>
      <trkpt lat="48.69296" lon="6.18121">
        <ele>205.4</ele>
        <time>2020-06-29T11:16:47Z</time>
      </trkpt>
      <trkpt lat="48.69296" lon="6.18118">
        <ele>205.4</ele>
        <time>2020-06-29T11:16:48Z</time>
      </trkpt>
      <trkpt lat="48.69295" lon="6.18113">
        <ele>205.5</ele>
        <time>2020-06-29T11:16:49Z</time>
      </trkpt>
      <trkpt lat="48.69294" lon="6.18111">
        <ele>205.5</ele>
        <time>2020-06-29T11:16:50Z</time>
      </trkpt>
      <trkpt lat="48.69293" lon="6.18109">
        <ele>205.6</ele>
        <time>2020-06-29T11:16:51Z</time>
      </trkpt>
      <trkpt lat="48.69292" lon="6.18107">
        <ele>205.6</ele>
        <time>2020-06-29T11:16:52Z</time>
      </trkpt>
      <trkpt lat="48.69291" lon="6.18106">
        <ele>205.6</ele>
        <time>2020-06-29T11:16:53Z</time>
      </trkpt>
      <trkpt lat="48.69291" lon="6.18104">
        <ele>205.7</ele>
        <time>2020-06-29T11:16:54Z</time>
      </trkpt>
      <trkpt lat="48.6929" lon="6.18103">
        <ele>205.7</ele>
        <time>2020-06-29T11:16:55Z</time>
      </trkpt>
      <trkpt lat="48.6929" lon="6.18103">
        <ele>205.7</ele>
        <time>2020-06-29T11:16:56Z</time>
      </trkpt>
      <trkpt lat="48.6929" lon="6.18103">
        <ele>205.7</ele>
        <time>2020-06-29T11:16:57Z</time>
      </trkpt>
      <trkpt lat="48.6929" lon="6.18103">
        <ele>205.7</ele>
        <time>2020-06-29T11:16:58Z</time>
      </trkpt>
      <trkpt lat="48.6929" lon="6.18102">
        <ele>205.7</ele>
        <time>2020-06-29T11:16:59Z</time>
      </trkpt>
      <trkpt lat="48.69288" lon="6.18103">
        <ele>205.7</ele>
        <time>2020-06-29T11:17:00Z</time>
      </trkpt>
      <trkpt lat="48.69288" lon="6.18101">
        <ele>205.8</ele>
        <time>2020-06-29T11:17:01Z</time>
      </trkpt>
      <trkpt lat="48.69288" lon="6.18099">
        <ele>205.8</ele>
        <time>2020-06-29T11:17:02Z</time>
      </trkpt>
      <trkpt lat="48.69288" lon="6.18098">
        <ele>205.8</ele>
        <time>2020-06-29T11:17:03Z</time>
      </trkpt>
      <trkpt lat="48.69288" lon="6.18098">
        <ele>205.8</ele>
        <time>2020-06-29T11:17:04Z</time>
      </trkpt>
      <trkpt lat="48.69288" lon="6.18097">
        <ele>205.8</ele>
        <time>2020-06-29T11:17:05Z</time>
      </trkpt>
      <trkpt lat="48.69288" lon="6.18097">
        <ele>205.8</ele>
        <time>2020-06-29T11:17:06Z</time>
      </trkpt>
      <trkpt lat="48.69289" lon="6.18097">
        <ele>205.8</ele>
        <time>2020-06-29T11:17:07Z</time>
      </trkpt>
      <trkpt lat="48.69289" lon="6.18096">
        <ele>205.8</ele>
        <time>2020-06-29T11:17:08Z</time>
      </trkpt>
      <trkpt lat="48.69289" lon="6.18096">
        <ele>205.8</ele>
        <time>2020-06-29T11:17:09Z</time>
      </trkpt>
      <trkpt lat="48.69289" lon="6.18095">
        <ele>205.8</ele>
        <time>2020-06-29T11:17:10Z</time>
      </trkpt>
      <trkpt lat="48.69289" lon="6.18095">
        <ele>205.8</ele>
        <time>2020-06-29T11:17:11Z</time>
      </trkpt>
      <trkpt lat="48.6929" lon="6.18094">
        <ele>205.8</ele>
        <time>2020-06-29T11:17:12Z</time>
      </trkpt>
      <trkpt lat="48.6929" lon="6.18092">
        <ele>205.8</ele>
        <time>2020-06-29T11:17:13Z</time>
      </trkpt>
      <trkpt lat="48.69291" lon="6.18091">
        <ele>205.9</ele>
        <time>2020-06-29T11:17:14Z</time>
      </trkpt>
      <trkpt lat="48.6929" lon="6.18093">
        <ele>205.9</ele>
        <time>2020-06-29T11:17:15Z</time>
      </trkpt>
      <trkpt lat="48.69291" lon="6.18092">
        <ele>205.9</ele>
        <time>2020-06-29T11:17:16Z</time>
      </trkpt>
      <trkpt lat="48.6929" lon="6.18091">
        <ele>205.9</ele>
        <time>2020-06-29T11:17:17Z</time>
      </trkpt>
      <trkpt lat="48.6929" lon="6.18091">
        <ele>205.9</ele>
        <time>2020-06-29T11:17:18Z</time>
      </trkpt>
      <trkpt lat="48.69289" lon="6.18091">
        <ele>205.9</ele>
        <time>2020-06-29T11:17:19Z</time>
      </trkpt>
      <trkpt lat="48.69289" lon="6.1809">
        <ele>205.9</ele>
        <time>2020-06-29T11:17:20Z</time>
      </trkpt>
      <trkpt lat="48.69289" lon="6.1809">
        <ele>205.9</ele>
        <time>2020-06-29T11:17:21Z</time>
      </trkpt>
      <trkpt lat="48.69288" lon="6.1809">
        <ele>205.9</ele>
        <time>2020-06-29T11:17:22Z</time>
      </trkpt>
      <trkpt lat="48.69288" lon="6.18089">
        <ele>205.9</ele>
        <time>2020-06-29T11:17:23Z</time>
      </trkpt>
      <trkpt lat="48.69288" lon="6.18088">
        <ele>205.9</ele>
        <time>2020-06-29T11:17:24Z</time>
      </trkpt>
      <trkpt lat="48.69289" lon="6.18087">
        <ele>205.9</ele>
        <time>2020-06-29T11:17:25Z</time>
      </trkpt>
      <trkpt lat="48.69289" lon="6.18086">
        <ele>205.9</ele>
        <time>2020-06-29T11:17:26Z</time>
      </trkpt>
      <trkpt lat="48.69289" lon="6.18086">
        <ele>205.9</ele>
        <time>2020-06-29T11:17:27Z</time>
      </trkpt>
      <trkpt lat="48.6929" lon="6.18086">
        <ele>205.9</ele>
        <time>2020-06-29T11:17:28Z</time>
      </trkpt>
      <trkpt lat="48.6929" lon="6.18086">
        <ele>205.9</ele>
        <time>2020-06-29T11:17:29Z</time>
      </trkpt>
      <trkpt lat="48.6929" lon="6.18086">
        <ele>205.9</ele>
        <time>2020-06-29T11:17:30Z</time>
      </trkpt>
      <trkpt lat="48.6929" lon="6.18086">
        <ele>205.9</ele>
        <time>2020-06-29T11:17:31Z</time>
      </trkpt>
      <trkpt lat="48.6929" lon="6.18086">
        <ele>205.9</ele>
        <time>2020-06-29T11:17:32Z</time>
      </trkpt>
      <trkpt lat="48.6929" lon="6.18086">
        <ele>205.9</ele>
        <time>2020-06-29T11:17:33Z</time>
      </trkpt>
      <trkpt lat="48.6929" lon="6.18086">
        <ele>205.9</ele>
        <time>2020-06-29T11:17:34Z</time>
      </trkpt>
      <trkpt lat="48.6929" lon="6.18088">
        <ele>205.9</ele>
        <time>2020-06-29T11:17:35Z</time>
      </trkpt>
      <trkpt lat="48.6929" lon="6.18089">
        <ele>205.9</ele>
        <time>2020-06-29T11:17:36Z</time>
      </trkpt>
      <trkpt lat="48.69289" lon="6.1809">
        <ele>205.9</ele>
        <time>2020-06-29T11:17:37Z</time>
      </trkpt>
      <trkpt lat="48.69283" lon="6.1809">
        <ele>205.9</ele>
        <time>2020-06-29T12:00:05Z</time>
      </trkpt>
      <trkpt lat="48.69283" lon="6.1809">
        <ele>205.9</ele>
        <time>2020-06-29T12:00:06Z</time>
      </trkpt>
      <trkpt lat="48.69283" lon="6.1809">
        <ele>205.9</ele>
        <time>2020-06-29T12:00:07Z</time>
      </trkpt>
      <trkpt lat="48.69283" lon="6.1809">
        <ele>205.9</ele>
        <time>2020-06-29T12:00:08Z</time>
      </trkpt>
      <trkpt lat="48.69283" lon="6.1809">
        <ele>205.9</ele>
        <time>2020-06-29T12:00:09Z</time>
      </trkpt>
      <trkpt lat="48.69283" lon="6.1809">
        <ele>205.9</ele>
        <time>2020-06-29T12:00:10Z</time>
      </trkpt>
      <trkpt lat="48.69283" lon="6.1809">
        <ele>205.9</ele>
        <time>2020-06-29T12:00:11Z</time>
      </trkpt>
      <trkpt lat="48.69283" lon="6.1809">
        <ele>205.9</ele>
        <time>2020-06-29T12:00:12Z</time>
      </trkpt>
      <trkpt lat="48.69282" lon="6.18089">
        <ele>206</ele>
        <time>2020-06-29T12:00:13Z</time>
      </trkpt>
      <trkpt lat="48.69282" lon="6.18089">
        <ele>206</ele>
        <time>2020-06-29T12:00:14Z</time>
      </trkpt>
      <trkpt lat="48.69282" lon="6.18088">
        <ele>206</ele>
        <time>2020-06-29T12:00:15Z</time>
      </trkpt>
      <trkpt lat="48.6929" lon="6.18099">
        <ele>206</ele>
        <time>2020-06-29T12:02:36Z</time>
      </trkpt>
      <trkpt lat="48.69291" lon="6.18099">
        <ele>206</ele>
        <time>2020-06-29T12:02:37Z</time>
      </trkpt>
      <trkpt lat="48.69291" lon="6.18099">
        <ele>206</ele>
        <time>2020-06-29T12:02:38Z</time>
      </trkpt>
      <trkpt lat="48.69291" lon="6.18099">
        <ele>206</ele>
        <time>2020-06-29T12:02:39Z</time>
      </trkpt>
      <trkpt lat="48.69291" lon="6.18099">
        <ele>206</ele>
        <time>2020-06-29T12:02:40Z</time>
      </trkpt>
      <trkpt lat="48.69292" lon="6.18099">
        <ele>206</ele>
        <time>2020-06-29T12:02:41Z</time>
      </trkpt>
      <trkpt lat="48.69293" lon="6.181">
        <ele>206</ele>
        <time>2020-06-29T12:02:42Z</time>
      </trkpt>
      <trkpt lat="48.69294" lon="6.181">
        <ele>206</ele>
        <time>2020-06-29T12:02:43Z</time>
      </trkpt>
      <trkpt lat="48.69294" lon="6.181">
        <ele>206</ele>
        <time>2020-06-29T12:02:44Z</time>
      </trkpt>
      <trkpt lat="48.69294" lon="6.181">
        <ele>206</ele>
        <time>2020-06-29T12:02:45Z</time>
      </trkpt>
      <trkpt lat="48.69294" lon="6.181">
        <ele>206</ele>
        <time>2020-06-29T12:02:46Z</time>
      </trkpt>
      <trkpt lat="48.69294" lon="6.181">
        <ele>206</ele>
        <time>2020-06-29T12:02:47Z</time>
      </trkpt>
      <trkpt lat="48.69294" lon="6.181">
        <ele>206</ele>
        <time>2020-06-29T12:02:48Z</time>
      </trkpt>
      <trkpt lat="48.69293" lon="6.181">
        <ele>206</ele>
        <time>2020-06-29T12:02:49Z</time>
      </trkpt>
      <trkpt lat="48.69292" lon="6.18101">
        <ele>206</ele>
        <time>2020-06-29T12:02:50Z</time>
      </trkpt>
      <trkpt lat="48.69292" lon="6.181">
        <ele>206</ele>
        <time>2020-06-29T12:02:51Z</time>
      </trkpt>
      <trkpt lat="48.69292" lon="6.181">
        <ele>206</ele>
        <time>2020-06-29T12:02:52Z</time>
      </trkpt>
      <trkpt lat="48.69292" lon="6.181">
        <ele>206</ele>
        <time>2020-06-29T12:02:53Z</time>
      </trkpt>
      <trkpt lat="48.69292" lon="6.181">
        <ele>206</ele>
        <time>2020-06-29T12:02:54Z</time>
      </trkpt>
      <trkpt lat="48.69292" lon="6.181">
        <ele>206</ele>
        <time>2020-06-29T12:02:55Z</time>
      </trkpt>
      <trkpt lat="48.69291" lon="6.181">
        <ele>206</ele>
        <time>2020-06-29T12:02:56Z</time>
      </trkpt>
      <trkpt lat="48.69291" lon="6.181">
        <ele>206</ele>
        <time>2020-06-29T12:02:57Z</time>
      </trkpt>
      <trkpt lat="48.69291" lon="6.181">
        <ele>206</ele>
        <time>2020-06-29T12:02:58Z</time>
      </trkpt>
      <trkpt lat="48.69291" lon="6.181">
        <ele>206</ele>
        <time>2020-06-29T12:02:59Z</time>
      </trkpt>
      <trkpt lat="48.69291" lon="6.181">
        <ele>206</ele>
        <time>2020-06-29T12:03:00Z</time>
      </trkpt>
      <trkpt lat="48.69291" lon="6.181">
        <ele>206</ele>
        <time>2020-06-29T12:03:01Z</time>
      </trkpt>
      <trkpt lat="48.69291" lon="6.181">
        <ele>206</ele>
        <time>2020-06-29T12:03:02Z</time>
      </trkpt>
      <trkpt lat="48.69283" lon="6.18102">
        <ele>206</ele>
        <time>2020-06-29T12:03:29Z</time>
      </trkpt>
      <trkpt lat="48.69282" lon="6.18101">
        <ele>206</ele>
        <time>2020-06-29T12:03:30Z</time>
      </trkpt>
      <trkpt lat="48.69282" lon="6.18101">
        <ele>206</ele>
        <time>2020-06-29T12:03:31Z</time>
      </trkpt>
      <trkpt lat="48.69282" lon="6.18101">
        <ele>206</ele>
        <time>2020-06-29T12:03:32Z</time>
      </trkpt>
      <trkpt lat="48.69282" lon="6.18101">
        <ele>206</ele>
        <time>2020-06-29T12:03:33Z</time>
      </trkpt>
      <trkpt lat="48.69281" lon="6.181">
        <ele>206</ele>
        <time>2020-06-29T12:03:34Z</time>
      </trkpt>
      <trkpt lat="48.69281" lon="6.181">
        <ele>206</ele>
        <time>2020-06-29T12:03:35Z</time>
      </trkpt>
      <trkpt lat="48.69281" lon="6.181">
        <ele>206</ele>
        <time>2020-06-29T12:03:36Z</time>
      </trkpt>
      <trkpt lat="48.69281" lon="6.181">
        <ele>206</ele>
        <time>2020-06-29T12:03:37Z</time>
      </trkpt>
      <trkpt lat="48.69281" lon="6.181">
        <ele>206</ele>
        <time>2020-06-29T12:03:38Z</time>
      </trkpt>
      <trkpt lat="48.69282" lon="6.181">
        <ele>206</ele>
        <time>2020-06-29T12:03:39Z</time>
      </trkpt>
      <trkpt lat="48.69282" lon="6.181">
        <ele>206</ele>
        <time>2020-06-29T12:03:40Z</time>
      </trkpt>
      <trkpt lat="48.69282" lon="6.181">
        <ele>206</ele>
        <time>2020-06-29T12:03:41Z</time>
      </trkpt>
      <trkpt lat="48.69282" lon="6.181">
        <ele>206</ele>
        <time>2020-06-29T12:03:42Z</time>
      </trkpt>
      <trkpt lat="48.69282" lon="6.18099">
        <ele>206</ele>
        <time>2020-06-29T12:03:43Z</time>
      </trkpt>
      <trkpt lat="48.69282" lon="6.18099">
        <ele>206</ele>
        <time>2020-06-29T12:03:44Z</time>
      </trkpt>
      <trkpt lat="48.69282" lon="6.18098">
        <ele>206</ele>
        <time>2020-06-29T12:03:45Z</time>
      </trkpt>
      <trkpt lat="48.69281" lon="6.18097">
        <ele>206</ele>
        <time>2020-06-29T12:03:46Z</time>
      </trkpt>
      <trkpt lat="48.69282" lon="6.18099">
        <ele>206</ele>
        <time>2020-06-29T12:03:47Z</time>
      </trkpt>
      <trkpt lat="48.69286" lon="6.18092">
        <ele>206</ele>
        <time>2020-06-29T12:05:57Z</time>
      </trkpt>
      <trkpt lat="48.69286" lon="6.18093">
        <ele>206</ele>
        <time>2020-06-29T12:05:58Z</time>
      </trkpt>
      <trkpt lat="48.69286" lon="6.18094">
        <ele>206</ele>
        <time>2020-06-29T12:05:59Z</time>
      </trkpt>
      <trkpt lat="48.69287" lon="6.18095">
        <ele>206</ele>
        <time>2020-06-29T12:06:00Z</time>
      </trkpt>
      <trkpt lat="48.69288" lon="6.18095">
        <ele>206</ele>
        <time>2020-06-29T12:06:01Z</time>
      </trkpt>
      <trkpt lat="48.69288" lon="6.18096">
        <ele>206</ele>
        <time>2020-06-29T12:06:02Z</time>
      </trkpt>
      <trkpt lat="48.69288" lon="6.18097">
        <ele>206</ele>
        <time>2020-06-29T12:06:03Z</time>
      </trkpt>
      <trkpt lat="48.69288" lon="6.18097">
        <ele>206</ele>
        <time>2020-06-29T12:06:04Z</time>
      </trkpt>
      <trkpt lat="48.69288" lon="6.18097">
        <ele>206</ele>
        <time>2020-06-29T12:06:05Z</time>
      </trkpt>
      <trkpt lat="48.69288" lon="6.18097">
        <ele>206</ele>
        <time>2020-06-29T12:06:06Z</time>
      </trkpt>
      <trkpt lat="48.69288" lon="6.18097">
        <ele>206</ele>
        <time>2020-06-29T12:06:07Z</time>
      </trkpt>
      <trkpt lat="48.69289" lon="6.18097">
        <ele>206</ele>
        <time>2020-06-29T12:06:08Z</time>
      </trkpt>
      <trkpt lat="48.69289" lon="6.18097">
        <ele>206</ele>
        <time>2020-06-29T12:06:09Z</time>
      </trkpt>
      <trkpt lat="48.6929" lon="6.18097">
        <ele>206</ele>
        <time>2020-06-29T12:06:10Z</time>
      </trkpt>
      <trkpt lat="48.6929" lon="6.18097">
        <ele>206</ele>
        <time>2020-06-29T12:06:11Z</time>
      </trkpt>
      <trkpt lat="48.6929" lon="6.18097">
        <ele>206</ele>
        <time>2020-06-29T12:06:12Z</time>
      </trkpt>
      <trkpt lat="48.6929" lon="6.18097">
        <ele>206</ele>
        <time>2020-06-29T12:06:13Z</time>
      </trkpt>
      <trkpt lat="48.6929" lon="6.18096">
        <ele>206</ele>
        <time>2020-06-29T12:06:14Z</time>
      </trkpt>
      <trkpt lat="48.69291" lon="6.18096">
        <ele>206</ele>
        <time>2020-06-29T12:06:15Z</time>
      </trkpt>
      <trkpt lat="48.6929" lon="6.18096">
        <ele>206</ele>
        <time>2020-06-29T12:06:16Z</time>
      </trkpt>
      <trkpt lat="48.6929" lon="6.18096">
        <ele>206</ele>
        <time>2020-06-29T12:06:17Z</time>
      </trkpt>
      <trkpt lat="48.69291" lon="6.18096">
        <ele>206</ele>
        <time>2020-06-29T12:06:18Z</time>
      </trkpt>
      <trkpt lat="48.69292" lon="6.18097">
        <ele>206</ele>
        <time>2020-06-29T12:06:19Z</time>
      </trkpt>
      <trkpt lat="48.69292" lon="6.18097">
        <ele>206</ele>
        <time>2020-06-29T12:06:20Z</time>
      </trkpt>
      <trkpt lat="48.69292" lon="6.18097">
        <ele>206</ele>
        <time>2020-06-29T12:06:21Z</time>
      </trkpt>
      <trkpt lat="48.69292" lon="6.18097">
        <ele>206</ele>
        <time>2020-06-29T12:06:22Z</time>
      </trkpt>
      <trkpt lat="48.69292" lon="6.18097">
        <ele>206</ele>
        <time>2020-06-29T12:06:23Z</time>
      </trkpt>
      <trkpt lat="48.69292" lon="6.18097">
        <ele>206</ele>
        <time>2020-06-29T12:06:24Z</time>
      </trkpt>
      <trkpt lat="48.69292" lon="6.18097">
        <ele>206</ele>
        <time>2020-06-29T12:06:25Z</time>
      </trkpt>
      <trkpt lat="48.69292" lon="6.18097">
        <ele>206</ele>
        <time>2020-06-29T12:06:26Z</time>
      </trkpt>
      <trkpt lat="48.69292" lon="6.18097">
        <ele>206</ele>
        <time>2020-06-29T12:06:27Z</time>
      </trkpt>
      <trkpt lat="48.69292" lon="6.18097">
        <ele>206</ele>
        <time>2020-06-29T12:06:28Z</time>
      </trkpt>
      <trkpt lat="48.69293" lon="6.18096">
        <ele>206</ele>
        <time>2020-06-29T12:06:29Z</time>
      </trkpt>
      <trkpt lat="48.69293" lon="6.18096">
        <ele>206</ele>
        <time>2020-06-29T12:06:30Z</time>
      </trkpt>
      <trkpt lat="48.69293" lon="6.18096">
        <ele>206</ele>
        <time>2020-06-29T12:06:31Z</time>
      </trkpt>
      <trkpt lat="48.69294" lon="6.18095">
        <ele>206</ele>
        <time>2020-06-29T12:06:32Z</time>
      </trkpt>
      <trkpt lat="48.69294" lon="6.18095">
        <ele>206</ele>
        <time>2020-06-29T12:06:33Z</time>
      </trkpt>
      <trkpt lat="48.69295" lon="6.18095">
        <ele>206</ele>
        <time>2020-06-29T12:06:34Z</time>
      </trkpt>
      <trkpt lat="48.69295" lon="6.18094">
        <ele>206</ele>
        <time>2020-06-29T12:06:35Z</time>
      </trkpt>
      <trkpt lat="48.69296" lon="6.18094">
        <ele>206</ele>
        <time>2020-06-29T12:06:36Z</time>
      </trkpt>
      <trkpt lat="48.69296" lon="6.18093">
        <ele>206</ele>
        <time>2020-06-29T12:06:37Z</time>
      </trkpt>
      <trkpt lat="48.69296" lon="6.18093">
        <ele>206</ele>
        <time>2020-06-29T12:06:38Z</time>
      </trkpt>
      <trkpt lat="48.69296" lon="6.18093">
        <ele>206</ele>
        <time>2020-06-29T12:06:39Z</time>
      </trkpt>
      <trkpt lat="48.69296" lon="6.18093">
        <ele>206</ele>
        <time>2020-06-29T12:06:40Z</time>
      </trkpt>
      <trkpt lat="48.69296" lon="6.18093">
        <ele>206</ele>
        <time>2020-06-29T12:06:41Z</time>
      </trkpt>
      <trkpt lat="48.69296" lon="6.18093">
        <ele>206</ele>
        <time>2020-06-29T12:06:42Z</time>
      </trkpt>
      <trkpt lat="48.69296" lon="6.18093">
        <ele>206</ele>
        <time>2020-06-29T12:06:43Z</time>
      </trkpt>
      <trkpt lat="48.69297" lon="6.18093">
        <ele>206</ele>
        <time>2020-06-29T12:06:44Z</time>
      </trkpt>
      <trkpt lat="48.69297" lon="6.18092">
        <ele>206</ele>
        <time>2020-06-29T12:06:45Z</time>
      </trkpt>
      <trkpt lat="48.69297" lon="6.18093">
        <ele>206</ele>
        <time>2020-06-29T12:06:46Z</time>
      </trkpt>
      <trkpt lat="48.69297" lon="6.18093">
        <ele>206</ele>
        <time>2020-06-29T12:06:47Z</time>
      </trkpt>
      <trkpt lat="48.69297" lon="6.18094">
        <ele>206</ele>
        <time>2020-06-29T12:06:48Z</time>
      </trkpt>
      <trkpt lat="48.69298" lon="6.18094">
        <ele>206</ele>
        <time>2020-06-29T12:06:49Z</time>
      </trkpt>
      <trkpt lat="48.69298" lon="6.18093">
        <ele>206</ele>
        <time>2020-06-29T12:06:50Z</time>
      </trkpt>
      <trkpt lat="48.69298" lon="6.18093">
        <ele>206</ele>
        <time>2020-06-29T12:06:51Z</time>
      </trkpt>
      <trkpt lat="48.69298" lon="6.18094">
        <ele>206</ele>
        <time>2020-06-29T12:06:52Z</time>
      </trkpt>
      <trkpt lat="48.69298" lon="6.18094">
        <ele>206</ele>
        <time>2020-06-29T12:06:53Z</time>
      </trkpt>
      <trkpt lat="48.69297" lon="6.18094">
        <ele>206</ele>
        <time>2020-06-29T12:06:54Z</time>
      </trkpt>
      <trkpt lat="48.69297" lon="6.18094">
        <ele>206</ele>
        <time>2020-06-29T12:06:55Z</time>
      </trkpt>
      <trkpt lat="48.69296" lon="6.18094">
        <ele>206</ele>
        <time>2020-06-29T12:06:56Z</time>
      </trkpt>
      <trkpt lat="48.69296" lon="6.18094">
        <ele>206</ele>
        <time>2020-06-29T12:06:57Z</time>
      </trkpt>
      <trkpt lat="48.69296" lon="6.18095">
        <ele>206</ele>
        <time>2020-06-29T12:06:58Z</time>
      </trkpt>
      <trkpt lat="48.69296" lon="6.18094">
        <ele>206</ele>
        <time>2020-06-29T12:06:59Z</time>
      </trkpt>
      <trkpt lat="48.69296" lon="6.18093">
        <ele>206</ele>
        <time>2020-06-29T12:07:00Z</time>
      </trkpt>
      <trkpt lat="48.69296" lon="6.18092">
        <ele>206</ele>
        <time>2020-06-29T12:07:01Z</time>
      </trkpt>
      <trkpt lat="48.69296" lon="6.18092">
        <ele>206</ele>
        <time>2020-06-29T12:07:02Z</time>
      </trkpt>
      <trkpt lat="48.69295" lon="6.18092">
        <ele>206</ele>
        <time>2020-06-29T12:07:03Z</time>
      </trkpt>
      <trkpt lat="48.69295" lon="6.18091">
        <ele>206</ele>
        <time>2020-06-29T12:07:04Z</time>
      </trkpt>
      <trkpt lat="48.69295" lon="6.18091">
        <ele>206</ele>
        <time>2020-06-29T12:07:05Z</time>
      </trkpt>
      <trkpt lat="48.69294" lon="6.18091">
        <ele>206</ele>
        <time>2020-06-29T12:07:06Z</time>
      </trkpt>
      <trkpt lat="48.69294" lon="6.18091">
        <ele>206</ele>
        <time>2020-06-29T12:07:07Z</time>
      </trkpt>
      <trkpt lat="48.69288" lon="6.18072">
        <ele>206</ele>
        <time>2020-06-29T12:08:20Z</time>
      </trkpt>
      <trkpt lat="48.69288" lon="6.1807">
        <ele>206</ele>
        <time>2020-06-29T12:08:21Z</time>
      </trkpt>
      <trkpt lat="48.69289" lon="6.18069">
        <ele>206</ele>
        <time>2020-06-29T12:08:22Z</time>
      </trkpt>
      <trkpt lat="48.69288" lon="6.18069">
        <ele>206</ele>
        <time>2020-06-29T12:08:23Z</time>
      </trkpt>
      <trkpt lat="48.69288" lon="6.1807">
        <ele>206</ele>
        <time>2020-06-29T12:08:24Z</time>
      </trkpt>
      <trkpt lat="48.69288" lon="6.18071">
        <ele>206</ele>
        <time>2020-06-29T12:08:25Z</time>
      </trkpt>
      <trkpt lat="48.69288" lon="6.18071">
        <ele>206</ele>
        <time>2020-06-29T12:08:26Z</time>
      </trkpt>
      <trkpt lat="48.69288" lon="6.18071">
        <ele>206</ele>
        <time>2020-06-29T12:08:27Z</time>
      </trkpt>
      <trkpt lat="48.69288" lon="6.1807">
        <ele>206</ele>
        <time>2020-06-29T12:08:28Z</time>
      </trkpt>
      <trkpt lat="48.69288" lon="6.1807">
        <ele>206</ele>
        <time>2020-06-29T12:08:29Z</time>
      </trkpt>
      <trkpt lat="48.69288" lon="6.1807">
        <ele>206</ele>
        <time>2020-06-29T12:08:30Z</time>
      </trkpt>
      <trkpt lat="48.69289" lon="6.1807">
        <ele>206</ele>
        <time>2020-06-29T12:08:31Z</time>
      </trkpt>
      <trkpt lat="48.69289" lon="6.18069">
        <ele>206</ele>
        <time>2020-06-29T12:08:32Z</time>
      </trkpt>
      <trkpt lat="48.69289" lon="6.18068">
        <ele>206</ele>
        <time>2020-06-29T12:08:33Z</time>
      </trkpt>
      <trkpt lat="48.6929" lon="6.18068">
        <ele>206</ele>
        <time>2020-06-29T12:08:34Z</time>
      </trkpt>
      <trkpt lat="48.6929" lon="6.18068">
        <ele>206</ele>
        <time>2020-06-29T12:08:35Z</time>
      </trkpt>
      <trkpt lat="48.6929" lon="6.18068">
        <ele>206</ele>
        <time>2020-06-29T12:08:36Z</time>
      </trkpt>
      <trkpt lat="48.69289" lon="6.18068">
        <ele>206</ele>
        <time>2020-06-29T12:08:37Z</time>
      </trkpt>
      <trkpt lat="48.69289" lon="6.18069">
        <ele>206</ele>
        <time>2020-06-29T12:08:38Z</time>
      </trkpt>
      <trkpt lat="48.6929" lon="6.18068">
        <ele>206</ele>
        <time>2020-06-29T12:08:39Z</time>
      </trkpt>
      <trkpt lat="48.6929" lon="6.18067">
        <ele>206.1</ele>
        <time>2020-06-29T12:08:40Z</time>
      </trkpt>
      <trkpt lat="48.6929" lon="6.18067">
        <ele>206.1</ele>
        <time>2020-06-29T12:08:41Z</time>
      </trkpt>
      <trkpt lat="48.6929" lon="6.18066">
        <ele>206.1</ele>
        <time>2020-06-29T12:08:42Z</time>
      </trkpt>
      <trkpt lat="48.6929" lon="6.18066">
        <ele>206.1</ele>
        <time>2020-06-29T12:08:43Z</time>
      </trkpt>
      <trkpt lat="48.6929" lon="6.18066">
        <ele>206.1</ele>
        <time>2020-06-29T12:08:44Z</time>
      </trkpt>
      <trkpt lat="48.6929" lon="6.18067">
        <ele>206.1</ele>
        <time>2020-06-29T12:08:45Z</time>
      </trkpt>
      <trkpt lat="48.69289" lon="6.18067">
        <ele>206.1</ele>
        <time>2020-06-29T12:08:46Z</time>
      </trkpt>
      <trkpt lat="48.69289" lon="6.18067">
        <ele>206.1</ele>
        <time>2020-06-29T12:08:47Z</time>
      </trkpt>
      <trkpt lat="48.69289" lon="6.18068">
        <ele>206.1</ele>
        <time>2020-06-29T12:08:48Z</time>
      </trkpt>
      <trkpt lat="48.69289" lon="6.18068">
        <ele>206.1</ele>
        <time>2020-06-29T12:08:49Z</time>
      </trkpt>
      <trkpt lat="48.69289" lon="6.18069">
        <ele>206.1</ele>
        <time>2020-06-29T12:08:50Z</time>
      </trkpt>
      <trkpt lat="48.69289" lon="6.18071">
        <ele>206.1</ele>
        <time>2020-06-29T12:08:51Z</time>
      </trkpt>
      <trkpt lat="48.69288" lon="6.18094">
        <ele>206.1</ele>
        <time>2020-06-29T12:09:38Z</time>
      </trkpt>
      <trkpt lat="48.69289" lon="6.18094">
        <ele>206.1</ele>
        <time>2020-06-29T12:09:39Z</time>
      </trkpt>
      <trkpt lat="48.69289" lon="6.18095">
        <ele>206.1</ele>
        <time>2020-06-29T12:09:40Z</time>
      </trkpt>
      <trkpt lat="48.69289" lon="6.18095">
        <ele>206.1</ele>
        <time>2020-06-29T12:09:41Z</time>
      </trkpt>
      <trkpt lat="48.6929" lon="6.18096">
        <ele>206.1</ele>
        <time>2020-06-29T12:09:42Z</time>
      </trkpt>
      <trkpt lat="48.6929" lon="6.18097">
        <ele>206.1</ele>
        <time>2020-06-29T12:09:43Z</time>
      </trkpt>
      <trkpt lat="48.69291" lon="6.18097">
        <ele>206.1</ele>
        <time>2020-06-29T12:09:44Z</time>
      </trkpt>
      <trkpt lat="48.69292" lon="6.18098">
        <ele>206.1</ele>
        <time>2020-06-29T12:09:45Z</time>
      </trkpt>
      <trkpt lat="48.69293" lon="6.18099">
        <ele>206.1</ele>
        <time>2020-06-29T12:09:46Z</time>
      </trkpt>
      <trkpt lat="48.69294" lon="6.181">
        <ele>206.1</ele>
        <time>2020-06-29T12:09:47Z</time>
      </trkpt>
      <trkpt lat="48.69295" lon="6.18101">
        <ele>206.1</ele>
        <time>2020-06-29T12:09:48Z</time>
      </trkpt>
      <trkpt lat="48.69295" lon="6.18101">
        <ele>206.1</ele>
        <time>2020-06-29T12:09:49Z</time>
      </trkpt>
      <trkpt lat="48.69296" lon="6.18101">
        <ele>206.1</ele>
        <time>2020-06-29T12:09:50Z</time>
      </trkpt>
      <trkpt lat="48.69297" lon="6.18101">
        <ele>206.1</ele>
        <time>2020-06-29T12:09:51Z</time>
      </trkpt>
      <trkpt lat="48.69297" lon="6.18102">
        <ele>206.1</ele>
        <time>2020-06-29T12:09:52Z</time>
      </trkpt>
      <trkpt lat="48.69298" lon="6.18102">
        <ele>206.1</ele>
        <time>2020-06-29T12:09:53Z</time>
      </trkpt>
      <trkpt lat="48.69299" lon="6.18102">
        <ele>206.1</ele>
        <time>2020-06-29T12:09:54Z</time>
      </trkpt>
      <trkpt lat="48.69299" lon="6.18102">
        <ele>206.1</ele>
        <time>2020-06-29T12:09:55Z</time>
      </trkpt>
      <trkpt lat="48.69299" lon="6.18102">
        <ele>206.1</ele>
        <time>2020-06-29T12:09:56Z</time>
      </trkpt>
      <trkpt lat="48.69299" lon="6.18102">
        <ele>206.1</ele>
        <time>2020-06-29T12:09:57Z</time>
      </trkpt>
      <trkpt lat="48.69299" lon="6.18102">
        <ele>206.1</ele>
        <time>2020-06-29T12:09:58Z</time>
      </trkpt>
      <trkpt lat="48.69299" lon="6.18102">
        <ele>206.1</ele>
        <time>2020-06-29T12:09:59Z</time>
      </trkpt>
      <trkpt lat="48.693" lon="6.18103">
        <ele>206.1</ele>
        <time>2020-06-29T12:10:00Z</time>
      </trkpt>
      <trkpt lat="48.693" lon="6.18103">
        <ele>206.1</ele>
        <time>2020-06-29T12:10:01Z</time>
      </trkpt>
      <trkpt lat="48.693" lon="6.18103">
        <ele>206.1</ele>
        <time>2020-06-29T12:10:02Z</time>
      </trkpt>
      <trkpt lat="48.693" lon="6.18103">
        <ele>206.1</ele>
        <time>2020-06-29T12:10:03Z</time>
      </trkpt>
      <trkpt lat="48.693" lon="6.18104">
        <ele>206.1</ele>
        <time>2020-06-29T12:10:04Z</time>
      </trkpt>
      <trkpt lat="48.693" lon="6.18104">
        <ele>206.1</ele>
        <time>2020-06-29T12:10:05Z</time>
      </trkpt>
      <trkpt lat="48.693" lon="6.18104">
        <ele>206.1</ele>
        <time>2020-06-29T12:10:06Z</time>
      </trkpt>
      <trkpt lat="48.69299" lon="6.18103">
        <ele>206.1</ele>
        <time>2020-06-29T12:10:07Z</time>
      </trkpt>
      <trkpt lat="48.69299" lon="6.18103">
        <ele>206.1</ele>
        <time>2020-06-29T12:10:08Z</time>
      </trkpt>
      <trkpt lat="48.69298" lon="6.18103">
        <ele>206.1</ele>
        <time>2020-06-29T12:10:09Z</time>
      </trkpt>
      <trkpt lat="48.69298" lon="6.18102">
        <ele>206.1</ele>
        <time>2020-06-29T12:10:10Z</time>
      </trkpt>
      <trkpt lat="48.69298" lon="6.18102">
        <ele>206.1</ele>
        <time>2020-06-29T12:10:11Z</time>
      </trkpt>
      <trkpt lat="48.69298" lon="6.18102">
        <ele>206.1</ele>
        <time>2020-06-29T12:10:12Z</time>
      </trkpt>
      <trkpt lat="48.69297" lon="6.18102">
        <ele>206.1</ele>
        <time>2020-06-29T12:10:13Z</time>
      </trkpt>
      <trkpt lat="48.69281" lon="6.18085">
        <ele>206.2</ele>
        <time>2020-06-29T12:18:20Z</time>
      </trkpt>
      <trkpt lat="48.69282" lon="6.18085">
        <ele>206.2</ele>
        <time>2020-06-29T12:18:21Z</time>
      </trkpt>
      <trkpt lat="48.69282" lon="6.18084">
        <ele>206.2</ele>
        <time>2020-06-29T12:18:22Z</time>
      </trkpt>
      <trkpt lat="48.69284" lon="6.18083">
        <ele>206.2</ele>
        <time>2020-06-29T12:18:23Z</time>
      </trkpt>
      <trkpt lat="48.69284" lon="6.18084">
        <ele>206.2</ele>
        <time>2020-06-29T12:18:24Z</time>
      </trkpt>
      <trkpt lat="48.69285" lon="6.18085">
        <ele>206.2</ele>
        <time>2020-06-29T12:18:25Z</time>
      </trkpt>
      <trkpt lat="48.69285" lon="6.18085">
        <ele>206.2</ele>
        <time>2020-06-29T12:18:26Z</time>
      </trkpt>
      <trkpt lat="48.69285" lon="6.18085">
        <ele>206.2</ele>
        <time>2020-06-29T12:18:27Z</time>
      </trkpt>
      <trkpt lat="48.69285" lon="6.18085">
        <ele>206.2</ele>
        <time>2020-06-29T12:18:28Z</time>
      </trkpt>
      <trkpt lat="48.69285" lon="6.18085">
        <ele>206.2</ele>
        <time>2020-06-29T12:18:29Z</time>
      </trkpt>
      <trkpt lat="48.69285" lon="6.18085">
        <ele>206.2</ele>
        <time>2020-06-29T12:18:30Z</time>
      </trkpt>
      <trkpt lat="48.69285" lon="6.18085">
        <ele>206.2</ele>
        <time>2020-06-29T12:18:31Z</time>
      </trkpt>
      <trkpt lat="48.69285" lon="6.18085">
        <ele>206.2</ele>
        <time>2020-06-29T12:18:32Z</time>
      </trkpt>
      <trkpt lat="48.69285" lon="6.18085">
        <ele>206.2</ele>
        <time>2020-06-29T12:18:33Z</time>
      </trkpt>
      <trkpt lat="48.69285" lon="6.18085">
        <ele>206.2</ele>
        <time>2020-06-29T12:18:34Z</time>
      </trkpt>
      <trkpt lat="48.69285" lon="6.18084">
        <ele>206.2</ele>
        <time>2020-06-29T12:18:35Z</time>
      </trkpt>
      <trkpt lat="48.69285" lon="6.18084">
        <ele>206.2</ele>
        <time>2020-06-29T12:18:36Z</time>
      </trkpt>
      <trkpt lat="48.69282" lon="6.1808">
        <ele>206.2</ele>
        <time>2020-06-29T12:18:55Z</time>
      </trkpt>
      <trkpt lat="48.69282" lon="6.18079">
        <ele>206.2</ele>
        <time>2020-06-29T12:18:56Z</time>
      </trkpt>
      <trkpt lat="48.69282" lon="6.1808">
        <ele>206.2</ele>
        <time>2020-06-29T12:18:57Z</time>
      </trkpt>
      <trkpt lat="48.69282" lon="6.18081">
        <ele>206.2</ele>
        <time>2020-06-29T12:18:58Z</time>
      </trkpt>
      <trkpt lat="48.69282" lon="6.1808">
        <ele>206.2</ele>
        <time>2020-06-29T12:18:59Z</time>
      </trkpt>
      <trkpt lat="48.69281" lon="6.18079">
        <ele>206.2</ele>
        <time>2020-06-29T12:19:00Z</time>
      </trkpt>
      <trkpt lat="48.69281" lon="6.18078">
        <ele>206.2</ele>
        <time>2020-06-29T12:19:01Z</time>
      </trkpt>
      <trkpt lat="48.69281" lon="6.18078">
        <ele>206.2</ele>
        <time>2020-06-29T12:19:02Z</time>
      </trkpt>
      <trkpt lat="48.69281" lon="6.18079">
        <ele>206.2</ele>
        <time>2020-06-29T12:19:03Z</time>
      </trkpt>
      <trkpt lat="48.69281" lon="6.18079">
        <ele>206.2</ele>
        <time>2020-06-29T12:19:04Z</time>
      </trkpt>
      <trkpt lat="48.69281" lon="6.1808">
        <ele>206.2</ele>
        <time>2020-06-29T12:19:05Z</time>
      </trkpt>
      <trkpt lat="48.69281" lon="6.1808">
        <ele>206.2</ele>
        <time>2020-06-29T12:19:06Z</time>
      </trkpt>
      <trkpt lat="48.69281" lon="6.1808">
        <ele>206.2</ele>
        <time>2020-06-29T12:19:07Z</time>
      </trkpt>
      <trkpt lat="48.69282" lon="6.1808">
        <ele>206.2</ele>
        <time>2020-06-29T12:19:08Z</time>
      </trkpt>
      <trkpt lat="48.69281" lon="6.1808">
        <ele>206.2</ele>
        <time>2020-06-29T12:19:09Z</time>
      </trkpt>
      <trkpt lat="48.69281" lon="6.1808">
        <ele>206.2</ele>
        <time>2020-06-29T12:19:10Z</time>
      </trkpt>
      <trkpt lat="48.69281" lon="6.18079">
        <ele>206.2</ele>
        <time>2020-06-29T12:19:11Z</time>
      </trkpt>
      <trkpt lat="48.69282" lon="6.18079">
        <ele>206.2</ele>
        <time>2020-06-29T12:19:12Z</time>
      </trkpt>
      <trkpt lat="48.69282" lon="6.18079">
        <ele>206.2</ele>
        <time>2020-06-29T12:19:13Z</time>
      </trkpt>
      <trkpt lat="48.69283" lon="6.1808">
        <ele>206.2</ele>
        <time>2020-06-29T12:19:14Z</time>
      </trkpt>
      <trkpt lat="48.69283" lon="6.1808">
        <ele>206.2</ele>
        <time>2020-06-29T12:19:15Z</time>
      </trkpt>
      <trkpt lat="48.69284" lon="6.1808">
        <ele>206.2</ele>
        <time>2020-06-29T12:19:16Z</time>
      </trkpt>
      <trkpt lat="48.69285" lon="6.18079">
        <ele>206.2</ele>
        <time>2020-06-29T12:19:17Z</time>
      </trkpt>
      <trkpt lat="48.69285" lon="6.18079">
        <ele>206.2</ele>
        <time>2020-06-29T12:19:18Z</time>
      </trkpt>
      <trkpt lat="48.69286" lon="6.1808">
        <ele>206.2</ele>
        <time>2020-06-29T12:19:19Z</time>
      </trkpt>
      <trkpt lat="48.69287" lon="6.18081">
        <ele>206.2</ele>
        <time>2020-06-29T12:19:20Z</time>
      </trkpt>
      <trkpt lat="48.69288" lon="6.1808">
        <ele>206.2</ele>
        <time>2020-06-29T12:19:21Z</time>
      </trkpt>
      <trkpt lat="48.69288" lon="6.18081">
        <ele>206.2</ele>
        <time>2020-06-29T12:19:22Z</time>
      </trkpt>
      <trkpt lat="48.69288" lon="6.18081">
        <ele>206.2</ele>
        <time>2020-06-29T12:19:23Z</time>
      </trkpt>
      <trkpt lat="48.69288" lon="6.18082">
        <ele>206.2</ele>
        <time>2020-06-29T12:19:24Z</time>
      </trkpt>
      <trkpt lat="48.69288" lon="6.18082">
        <ele>206.2</ele>
        <time>2020-06-29T12:19:25Z</time>
      </trkpt>
      <trkpt lat="48.69288" lon="6.18082">
        <ele>206.2</ele>
        <time>2020-06-29T12:19:26Z</time>
      </trkpt>
      <trkpt lat="48.69288" lon="6.18082">
        <ele>206.2</ele>
        <time>2020-06-29T12:19:27Z</time>
      </trkpt>
      <trkpt lat="48.69288" lon="6.18082">
        <ele>206.2</ele>
        <time>2020-06-29T12:19:28Z</time>
      </trkpt>
      <trkpt lat="48.69287" lon="6.18083">
        <ele>206.2</ele>
        <time>2020-06-29T12:19:29Z</time>
      </trkpt>
      <trkpt lat="48.69287" lon="6.18082">
        <ele>206.2</ele>
        <time>2020-06-29T12:19:30Z</time>
      </trkpt>
      <trkpt lat="48.69287" lon="6.18082">
        <ele>206.2</ele>
        <time>2020-06-29T12:19:31Z</time>
      </trkpt>
      <trkpt lat="48.69287" lon="6.18083">
        <ele>206.2</ele>
        <time>2020-06-29T12:19:32Z</time>
      </trkpt>
      <trkpt lat="48.69288" lon="6.18091">
        <ele>206.3</ele>
        <time>2020-06-29T12:22:20Z</time>
      </trkpt>
      <trkpt lat="48.69288" lon="6.1809">
        <ele>206.3</ele>
        <time>2020-06-29T12:22:21Z</time>
      </trkpt>
      <trkpt lat="48.69288" lon="6.18089">
        <ele>206.3</ele>
        <time>2020-06-29T12:22:22Z</time>
      </trkpt>
      <trkpt lat="48.69288" lon="6.1809">
        <ele>206.3</ele>
        <time>2020-06-29T12:22:23Z</time>
      </trkpt>
      <trkpt lat="48.69287" lon="6.18089">
        <ele>206.3</ele>
        <time>2020-06-29T12:22:24Z</time>
      </trkpt>
      <trkpt lat="48.69287" lon="6.18089">
        <ele>206.3</ele>
        <time>2020-06-29T12:22:25Z</time>
      </trkpt>
      <trkpt lat="48.69287" lon="6.1809">
        <ele>206.3</ele>
        <time>2020-06-29T12:22:26Z</time>
      </trkpt>
      <trkpt lat="48.69287" lon="6.1809">
        <ele>206.3</ele>
        <time>2020-06-29T12:22:27Z</time>
      </trkpt>
      <trkpt lat="48.69287" lon="6.18091">
        <ele>206.3</ele>
        <time>2020-06-29T12:22:28Z</time>
      </trkpt>
      <trkpt lat="48.69288" lon="6.18091">
        <ele>206.3</ele>
        <time>2020-06-29T12:22:29Z</time>
      </trkpt>
      <trkpt lat="48.69289" lon="6.18091">
        <ele>206.3</ele>
        <time>2020-06-29T12:22:30Z</time>
      </trkpt>
      <trkpt lat="48.6929" lon="6.1809">
        <ele>206.3</ele>
        <time>2020-06-29T12:22:31Z</time>
      </trkpt>
      <trkpt lat="48.6929" lon="6.1809">
        <ele>206.3</ele>
        <time>2020-06-29T12:22:32Z</time>
      </trkpt>
      <trkpt lat="48.6929" lon="6.1809">
        <ele>206.3</ele>
        <time>2020-06-29T12:22:33Z</time>
      </trkpt>
      <trkpt lat="48.6929" lon="6.1809">
        <ele>206.3</ele>
        <time>2020-06-29T12:22:34Z</time>
      </trkpt>
      <trkpt lat="48.69288" lon="6.1808">
        <ele>206.3</ele>
        <time>2020-06-29T12:24:42Z</time>
      </trkpt>
      <trkpt lat="48.69288" lon="6.18077">
        <ele>206.3</ele>
        <time>2020-06-29T12:24:43Z</time>
      </trkpt>
      <trkpt lat="48.69287" lon="6.18075">
        <ele>206.3</ele>
        <time>2020-06-29T12:24:44Z</time>
      </trkpt>
      <trkpt lat="48.69286" lon="6.18074">
        <ele>206.3</ele>
        <time>2020-06-29T12:24:45Z</time>
      </trkpt>
      <trkpt lat="48.69286" lon="6.18073">
        <ele>206.3</ele>
        <time>2020-06-29T12:24:46Z</time>
      </trkpt>
      <trkpt lat="48.69285" lon="6.18071">
        <ele>206.3</ele>
        <time>2020-06-29T12:24:47Z</time>
      </trkpt>
      <trkpt lat="48.69286" lon="6.18069">
        <ele>206.3</ele>
        <time>2020-06-29T12:24:48Z</time>
      </trkpt>
      <trkpt lat="48.69285" lon="6.18069">
        <ele>206.3</ele>
        <time>2020-06-29T12:24:49Z</time>
      </trkpt>
      <trkpt lat="48.69286" lon="6.18069">
        <ele>206.3</ele>
        <time>2020-06-29T12:24:50Z</time>
      </trkpt>
      <trkpt lat="48.69286" lon="6.18069">
        <ele>206.3</ele>
        <time>2020-06-29T12:24:51Z</time>
      </trkpt>
      <trkpt lat="48.69286" lon="6.18069">
        <ele>206.3</ele>
        <time>2020-06-29T12:24:52Z</time>
      </trkpt>
      <trkpt lat="48.69285" lon="6.18068">
        <ele>206.3</ele>
        <time>2020-06-29T12:24:53Z</time>
      </trkpt>
      <trkpt lat="48.69285" lon="6.18068">
        <ele>206.3</ele>
        <time>2020-06-29T12:24:54Z</time>
      </trkpt>
      <trkpt lat="48.69286" lon="6.18067">
        <ele>206.3</ele>
        <time>2020-06-29T12:24:55Z</time>
      </trkpt>
      <trkpt lat="48.69286" lon="6.18068">
        <ele>206.3</ele>
        <time>2020-06-29T12:24:56Z</time>
      </trkpt>
      <trkpt lat="48.69286" lon="6.18067">
        <ele>206.3</ele>
        <time>2020-06-29T12:24:57Z</time>
      </trkpt>
      <trkpt lat="48.69287" lon="6.18067">
        <ele>206.3</ele>
        <time>2020-06-29T12:24:58Z</time>
      </trkpt>
      <trkpt lat="48.69286" lon="6.18062">
        <ele>206.3</ele>
        <time>2020-06-29T12:25:22Z</time>
      </trkpt>
      <trkpt lat="48.69286" lon="6.1806">
        <ele>206.3</ele>
        <time>2020-06-29T12:25:23Z</time>
      </trkpt>
      <trkpt lat="48.69286" lon="6.1806">
        <ele>206.3</ele>
        <time>2020-06-29T12:25:24Z</time>
      </trkpt>
      <trkpt lat="48.69286" lon="6.18059">
        <ele>206.3</ele>
        <time>2020-06-29T12:25:25Z</time>
      </trkpt>
      <trkpt lat="48.69285" lon="6.18058">
        <ele>206.3</ele>
        <time>2020-06-29T12:25:26Z</time>
      </trkpt>
      <trkpt lat="48.69284" lon="6.18057">
        <ele>206.3</ele>
        <time>2020-06-29T12:25:27Z</time>
      </trkpt>
      <trkpt lat="48.69283" lon="6.18057">
        <ele>206.3</ele>
        <time>2020-06-29T12:25:28Z</time>
      </trkpt>
      <trkpt lat="48.69282" lon="6.18056">
        <ele>206.3</ele>
        <time>2020-06-29T12:25:29Z</time>
      </trkpt>
      <trkpt lat="48.69282" lon="6.18056">
        <ele>206.3</ele>
        <time>2020-06-29T12:25:30Z</time>
      </trkpt>
      <trkpt lat="48.69281" lon="6.18056">
        <ele>206.3</ele>
        <time>2020-06-29T12:25:31Z</time>
      </trkpt>
      <trkpt lat="48.69282" lon="6.18055">
        <ele>206.3</ele>
        <time>2020-06-29T12:25:32Z</time>
      </trkpt>
      <trkpt lat="48.69282" lon="6.18054">
        <ele>206.3</ele>
        <time>2020-06-29T12:25:33Z</time>
      </trkpt>
      <trkpt lat="48.69283" lon="6.18054">
        <ele>206.3</ele>
        <time>2020-06-29T12:25:34Z</time>
      </trkpt>
      <trkpt lat="48.69283" lon="6.18054">
        <ele>206.3</ele>
        <time>2020-06-29T12:25:35Z</time>
      </trkpt>
      <trkpt lat="48.69283" lon="6.18054">
        <ele>206.3</ele>
        <time>2020-06-29T12:25:36Z</time>
      </trkpt>
      <trkpt lat="48.69283" lon="6.18054">
        <ele>206.3</ele>
        <time>2020-06-29T12:25:37Z</time>
      </trkpt>
      <trkpt lat="48.69283" lon="6.18054">
        <ele>206.3</ele>
        <time>2020-06-29T12:25:38Z</time>
      </trkpt>
      <trkpt lat="48.69283" lon="6.18055">
        <ele>206.3</ele>
        <time>2020-06-29T12:25:39Z</time>
      </trkpt>
      <trkpt lat="48.69283" lon="6.18055">
        <ele>206.3</ele>
        <time>2020-06-29T12:25:40Z</time>
      </trkpt>
      <trkpt lat="48.69283" lon="6.18055">
        <ele>206.3</ele>
        <time>2020-06-29T12:25:41Z</time>
      </trkpt>
      <trkpt lat="48.69283" lon="6.18054">
        <ele>206.3</ele>
        <time>2020-06-29T12:25:42Z</time>
      </trkpt>
      <trkpt lat="48.69283" lon="6.18054">
        <ele>206.3</ele>
        <time>2020-06-29T12:25:43Z</time>
      </trkpt>
      <trkpt lat="48.69283" lon="6.18054">
        <ele>206.3</ele>
        <time>2020-06-29T12:25:44Z</time>
      </trkpt>
      <trkpt lat="48.69277" lon="6.18051">
        <ele>206.4</ele>
        <time>2020-06-29T12:26:01Z</time>
      </trkpt>
      <trkpt lat="48.69278" lon="6.18052">
        <ele>206.4</ele>
        <time>2020-06-29T12:26:02Z</time>
      </trkpt>
      <trkpt lat="48.69279" lon="6.18054">
        <ele>206.4</ele>
        <time>2020-06-29T12:26:03Z</time>
      </trkpt>
      <trkpt lat="48.69279" lon="6.18055">
        <ele>206.4</ele>
        <time>2020-06-29T12:26:04Z</time>
      </trkpt>
      <trkpt lat="48.69279" lon="6.18056">
        <ele>206.4</ele>
        <time>2020-06-29T12:26:05Z</time>
      </trkpt>
      <trkpt lat="48.69279" lon="6.18056">
        <ele>206.4</ele>
        <time>2020-06-29T12:26:06Z</time>
      </trkpt>
      <trkpt lat="48.69279" lon="6.18058">
        <ele>206.4</ele>
        <time>2020-06-29T12:26:07Z</time>
      </trkpt>
      <trkpt lat="48.6928" lon="6.18058">
        <ele>206.3</ele>
        <time>2020-06-29T12:26:08Z</time>
      </trkpt>
      <trkpt lat="48.69279" lon="6.18058">
        <ele>206.3</ele>
        <time>2020-06-29T12:26:09Z</time>
      </trkpt>
      <trkpt lat="48.6928" lon="6.18058">
        <ele>206.3</ele>
        <time>2020-06-29T12:26:10Z</time>
      </trkpt>
      <trkpt lat="48.6928" lon="6.18059">
        <ele>206.3</ele>
        <time>2020-06-29T12:26:11Z</time>
      </trkpt>
      <trkpt lat="48.69285" lon="6.18061">
        <ele>206.2</ele>
        <time>2020-06-29T12:26:12Z</time>
      </trkpt>
      <trkpt lat="48.69288" lon="6.18064">
        <ele>206.1</ele>
        <time>2020-06-29T12:26:13Z</time>
      </trkpt>
      <trkpt lat="48.69288" lon="6.18065">
        <ele>206.1</ele>
        <time>2020-06-29T12:26:14Z</time>
      </trkpt>
      <trkpt lat="48.69288" lon="6.18066">
        <ele>206.1</ele>
        <time>2020-06-29T12:26:15Z</time>
      </trkpt>
      <trkpt lat="48.69288" lon="6.18066">
        <ele>206.1</ele>
        <time>2020-06-29T12:26:35Z</time>
      </trkpt>
      <trkpt lat="48.69288" lon="6.18067">
        <ele>206.1</ele>
        <time>2020-06-29T12:26:36Z</time>
      </trkpt>
      <trkpt lat="48.69288" lon="6.18068">
        <ele>206.1</ele>
        <time>2020-06-29T12:26:37Z</time>
      </trkpt>
      <trkpt lat="48.69288" lon="6.18069">
        <ele>206.1</ele>
        <time>2020-06-29T12:26:38Z</time>
      </trkpt>
      <trkpt lat="48.69288" lon="6.18069">
        <ele>206.1</ele>
        <time>2020-06-29T12:26:39Z</time>
      </trkpt>
      <trkpt lat="48.69288" lon="6.1807">
        <ele>206.1</ele>
        <time>2020-06-29T12:26:40Z</time>
      </trkpt>
      <trkpt lat="48.69288" lon="6.18071">
        <ele>206.1</ele>
        <time>2020-06-29T12:26:41Z</time>
      </trkpt>
      <trkpt lat="48.69288" lon="6.18072">
        <ele>206</ele>
        <time>2020-06-29T12:26:42Z</time>
      </trkpt>
      <trkpt lat="48.69288" lon="6.18073">
        <ele>206</ele>
        <time>2020-06-29T12:26:43Z</time>
      </trkpt>
      <trkpt lat="48.69288" lon="6.18073">
        <ele>206</ele>
        <time>2020-06-29T12:26:44Z</time>
      </trkpt>
      <trkpt lat="48.69288" lon="6.18074">
        <ele>206</ele>
        <time>2020-06-29T12:26:45Z</time>
      </trkpt>
      <trkpt lat="48.69288" lon="6.18075">
        <ele>206</ele>
        <time>2020-06-29T12:27:00Z</time>
      </trkpt>
      <trkpt lat="48.69287" lon="6.18076">
        <ele>206</ele>
        <time>2020-06-29T12:27:01Z</time>
      </trkpt>
      <trkpt lat="48.69287" lon="6.18077">
        <ele>206</ele>
        <time>2020-06-29T12:27:02Z</time>
      </trkpt>
      <trkpt lat="48.69287" lon="6.18077">
        <ele>206</ele>
        <time>2020-06-29T12:27:03Z</time>
      </trkpt>
      <trkpt lat="48.69287" lon="6.18078">
        <ele>206</ele>
        <time>2020-06-29T12:27:04Z</time>
      </trkpt>
      <trkpt lat="48.69287" lon="6.18079">
        <ele>206</ele>
        <time>2020-06-29T12:27:05Z</time>
      </trkpt>
      <trkpt lat="48.69287" lon="6.1808">
        <ele>206</ele>
        <time>2020-06-29T12:27:06Z</time>
      </trkpt>
      <trkpt lat="48.69287" lon="6.1808">
        <ele>206</ele>
        <time>2020-06-29T12:27:07Z</time>
      </trkpt>
      <trkpt lat="48.69287" lon="6.18081">
        <ele>206</ele>
        <time>2020-06-29T12:27:08Z</time>
      </trkpt>
      <trkpt lat="48.69287" lon="6.18082">
        <ele>206</ele>
        <time>2020-06-29T12:27:09Z</time>
      </trkpt>
      <trkpt lat="48.69287" lon="6.18083">
        <ele>206</ele>
        <time>2020-06-29T12:27:10Z</time>
      </trkpt>
      <trkpt lat="48.69287" lon="6.18084">
        <ele>205.9</ele>
        <time>2020-06-29T12:27:25Z</time>
      </trkpt>
      <trkpt lat="48.69287" lon="6.18084">
        <ele>205.9</ele>
        <time>2020-06-29T12:27:26Z</time>
      </trkpt>
      <trkpt lat="48.69287" lon="6.18085">
        <ele>205.9</ele>
        <time>2020-06-29T12:27:27Z</time>
      </trkpt>
      <trkpt lat="48.69287" lon="6.18086">
        <ele>205.9</ele>
        <time>2020-06-29T12:27:28Z</time>
      </trkpt>
      <trkpt lat="48.69287" lon="6.18087">
        <ele>205.9</ele>
        <time>2020-06-29T12:27:29Z</time>
      </trkpt>
      <trkpt lat="48.69287" lon="6.18088">
        <ele>205.9</ele>
        <time>2020-06-29T12:27:30Z</time>
      </trkpt>
      <trkpt lat="48.69287" lon="6.18088">
        <ele>205.9</ele>
        <time>2020-06-29T12:27:31Z</time>
      </trkpt>
      <trkpt lat="48.69287" lon="6.18089">
        <ele>205.9</ele>
        <time>2020-06-29T12:27:32Z</time>
      </trkpt>
      <trkpt lat="48.69287" lon="6.1809">
        <ele>205.9</ele>
        <time>2020-06-29T12:27:33Z</time>
      </trkpt>
      <trkpt lat="48.69287" lon="6.18091">
        <ele>205.9</ele>
        <time>2020-06-29T12:27:34Z</time>
      </trkpt>
      <trkpt lat="48.69287" lon="6.18091">
        <ele>205.9</ele>
        <time>2020-06-29T12:27:35Z</time>
      </trkpt>
      <trkpt lat="48.69287" lon="6.18092">
        <ele>205.9</ele>
        <time>2020-06-29T12:27:36Z</time>
      </trkpt>
      <trkpt lat="48.69286" lon="6.18093">
        <ele>205.9</ele>
        <time>2020-06-29T12:27:37Z</time>
      </trkpt>
      <trkpt lat="48.69286" lon="6.18094">
        <ele>205.9</ele>
        <time>2020-06-29T12:27:38Z</time>
      </trkpt>
      <trkpt lat="48.69286" lon="6.18096">
        <ele>205.9</ele>
        <time>2020-06-29T12:27:39Z</time>
      </trkpt>
      <trkpt lat="48.69287" lon="6.18097">
        <ele>205.9</ele>
        <time>2020-06-29T12:27:40Z</time>
      </trkpt>
      <trkpt lat="48.69287" lon="6.18097">
        <ele>205.9</ele>
        <time>2020-06-29T12:27:41Z</time>
      </trkpt>
      <trkpt lat="48.69287" lon="6.18097">
        <ele>205.9</ele>
        <time>2020-06-29T12:27:42Z</time>
      </trkpt>
      <trkpt lat="48.69298" lon="6.18098">
        <ele>205.9</ele>
        <time>2020-06-29T12:33:52Z</time>
      </trkpt>
      <trkpt lat="48.69299" lon="6.18097">
        <ele>205.9</ele>
        <time>2020-06-29T12:33:53Z</time>
      </trkpt>
      <trkpt lat="48.693" lon="6.18096">
        <ele>205.9</ele>
        <time>2020-06-29T12:33:54Z</time>
      </trkpt>
      <trkpt lat="48.693" lon="6.18096">
        <ele>205.9</ele>
        <time>2020-06-29T12:33:55Z</time>
      </trkpt>
      <trkpt lat="48.69301" lon="6.18093">
        <ele>205.8</ele>
        <time>2020-06-29T12:33:56Z</time>
      </trkpt>
      <trkpt lat="48.69301" lon="6.18095">
        <ele>205.8</ele>
        <time>2020-06-29T12:33:57Z</time>
      </trkpt>
      <trkpt lat="48.69299" lon="6.18095">
        <ele>205.8</ele>
        <time>2020-06-29T12:33:58Z</time>
      </trkpt>
      <trkpt lat="48.69297" lon="6.18095">
        <ele>205.8</ele>
        <time>2020-06-29T12:33:59Z</time>
      </trkpt>
      <trkpt lat="48.69297" lon="6.18095">
        <ele>205.8</ele>
        <time>2020-06-29T12:34:00Z</time>
      </trkpt>
      <trkpt lat="48.69297" lon="6.18096">
        <ele>205.8</ele>
        <time>2020-06-29T12:34:01Z</time>
      </trkpt>
      <trkpt lat="48.69296" lon="6.18096">
        <ele>205.8</ele>
        <time>2020-06-29T12:34:02Z</time>
      </trkpt>
      <trkpt lat="48.69296" lon="6.18097">
        <ele>205.8</ele>
        <time>2020-06-29T12:34:03Z</time>
      </trkpt>
      <trkpt lat="48.69295" lon="6.18097">
        <ele>205.8</ele>
        <time>2020-06-29T12:34:04Z</time>
      </trkpt>
      <trkpt lat="48.69294" lon="6.18099">
        <ele>205.8</ele>
        <time>2020-06-29T12:34:05Z</time>
      </trkpt>
      <trkpt lat="48.69294" lon="6.181">
        <ele>205.8</ele>
        <time>2020-06-29T12:34:06Z</time>
      </trkpt>
      <trkpt lat="48.69294" lon="6.18101">
        <ele>205.8</ele>
        <time>2020-06-29T12:34:07Z</time>
      </trkpt>
      <trkpt lat="48.69294" lon="6.18101">
        <ele>205.8</ele>
        <time>2020-06-29T12:34:08Z</time>
      </trkpt>
      <trkpt lat="48.69294" lon="6.18101">
        <ele>205.8</ele>
        <time>2020-06-29T12:34:09Z</time>
      </trkpt>
      <trkpt lat="48.69294" lon="6.18101">
        <ele>205.8</ele>
        <time>2020-06-29T12:34:10Z</time>
      </trkpt>
      <trkpt lat="48.69293" lon="6.18101">
        <ele>205.8</ele>
        <time>2020-06-29T12:34:11Z</time>
      </trkpt>
      <trkpt lat="48.69293" lon="6.18101">
        <ele>205.8</ele>
        <time>2020-06-29T12:34:12Z</time>
      </trkpt>
      <trkpt lat="48.69291" lon="6.18101">
        <ele>205.8</ele>
        <time>2020-06-29T12:34:13Z</time>
      </trkpt>
      <trkpt lat="48.69291" lon="6.18101">
        <ele>205.8</ele>
        <time>2020-06-29T12:34:14Z</time>
      </trkpt>
      <trkpt lat="48.69291" lon="6.18101">
        <ele>205.8</ele>
        <time>2020-06-29T12:34:15Z</time>
      </trkpt>
      <trkpt lat="48.69291" lon="6.18101">
        <ele>205.8</ele>
        <time>2020-06-29T12:34:16Z</time>
      </trkpt>
      <trkpt lat="48.69291" lon="6.18101">
        <ele>205.8</ele>
        <time>2020-06-29T12:34:17Z</time>
      </trkpt>
      <trkpt lat="48.69291" lon="6.18101">
        <ele>205.8</ele>
        <time>2020-06-29T12:34:18Z</time>
      </trkpt>
      <trkpt lat="48.69293" lon="6.18111">
        <ele>205.8</ele>
        <time>2020-06-29T12:35:19Z</time>
      </trkpt>
      <trkpt lat="48.69293" lon="6.18112">
        <ele>205.8</ele>
        <time>2020-06-29T12:35:20Z</time>
      </trkpt>
      <trkpt lat="48.69293" lon="6.18112">
        <ele>205.8</ele>
        <time>2020-06-29T12:35:21Z</time>
      </trkpt>
      <trkpt lat="48.69292" lon="6.18112">
        <ele>205.8</ele>
        <time>2020-06-29T12:35:22Z</time>
      </trkpt>
      <trkpt lat="48.69292" lon="6.18112">
        <ele>205.8</ele>
        <time>2020-06-29T12:35:23Z</time>
      </trkpt>
      <trkpt lat="48.69292" lon="6.18111">
        <ele>205.8</ele>
        <time>2020-06-29T12:35:24Z</time>
      </trkpt>
      <trkpt lat="48.69291" lon="6.18111">
        <ele>205.8</ele>
        <time>2020-06-29T12:35:25Z</time>
      </trkpt>
      <trkpt lat="48.69291" lon="6.18111">
        <ele>205.8</ele>
        <time>2020-06-29T12:35:26Z</time>
      </trkpt>
      <trkpt lat="48.69291" lon="6.18111">
        <ele>205.8</ele>
        <time>2020-06-29T12:35:27Z</time>
      </trkpt>
      <trkpt lat="48.69291" lon="6.18111">
        <ele>205.8</ele>
        <time>2020-06-29T12:35:28Z</time>
      </trkpt>
      <trkpt lat="48.6929" lon="6.18111">
        <ele>205.8</ele>
        <time>2020-06-29T12:35:29Z</time>
      </trkpt>
      <trkpt lat="48.6929" lon="6.1811">
        <ele>205.8</ele>
        <time>2020-06-29T12:35:30Z</time>
      </trkpt>
      <trkpt lat="48.6929" lon="6.1811">
        <ele>205.8</ele>
        <time>2020-06-29T12:35:31Z</time>
      </trkpt>
      <trkpt lat="48.69289" lon="6.1811">
        <ele>205.8</ele>
        <time>2020-06-29T12:35:32Z</time>
      </trkpt>
      <trkpt lat="48.69289" lon="6.18109">
        <ele>205.8</ele>
        <time>2020-06-29T12:35:33Z</time>
      </trkpt>
      <trkpt lat="48.69288" lon="6.1811">
        <ele>205.7</ele>
        <time>2020-06-29T12:35:34Z</time>
      </trkpt>
      <trkpt lat="48.69287" lon="6.18109">
        <ele>205.7</ele>
        <time>2020-06-29T12:35:35Z</time>
      </trkpt>
      <trkpt lat="48.69287" lon="6.18108">
        <ele>205.7</ele>
        <time>2020-06-29T12:35:36Z</time>
      </trkpt>
      <trkpt lat="48.69286" lon="6.18107">
        <ele>205.7</ele>
        <time>2020-06-29T12:35:37Z</time>
      </trkpt>
      <trkpt lat="48.69286" lon="6.18107">
        <ele>205.7</ele>
        <time>2020-06-29T12:35:38Z</time>
      </trkpt>
      <trkpt lat="48.69286" lon="6.18107">
        <ele>205.7</ele>
        <time>2020-06-29T12:35:39Z</time>
      </trkpt>
      <trkpt lat="48.69286" lon="6.18107">
        <ele>205.7</ele>
        <time>2020-06-29T12:35:40Z</time>
      </trkpt>
      <trkpt lat="48.69286" lon="6.18107">
        <ele>205.7</ele>
        <time>2020-06-29T12:35:41Z</time>
      </trkpt>
      <trkpt lat="48.69286" lon="6.18107">
        <ele>205.7</ele>
        <time>2020-06-29T12:35:42Z</time>
      </trkpt>
      <trkpt lat="48.69286" lon="6.18106">
        <ele>205.7</ele>
        <time>2020-06-29T12:35:43Z</time>
      </trkpt>
      <trkpt lat="48.69287" lon="6.18095">
        <ele>205.7</ele>
        <time>2020-06-29T12:48:05Z</time>
      </trkpt>
      <trkpt lat="48.69287" lon="6.18095">
        <ele>205.7</ele>
        <time>2020-06-29T12:48:06Z</time>
      </trkpt>
      <trkpt lat="48.69286" lon="6.18095">
        <ele>205.7</ele>
        <time>2020-06-29T12:48:07Z</time>
      </trkpt>
      <trkpt lat="48.69287" lon="6.18096">
        <ele>205.7</ele>
        <time>2020-06-29T12:48:08Z</time>
      </trkpt>
      <trkpt lat="48.69287" lon="6.18097">
        <ele>205.7</ele>
        <time>2020-06-29T12:48:09Z</time>
      </trkpt>
      <trkpt lat="48.69286" lon="6.18098">
        <ele>205.7</ele>
        <time>2020-06-29T12:48:10Z</time>
      </trkpt>
      <trkpt lat="48.69285" lon="6.18098">
        <ele>205.7</ele>
        <time>2020-06-29T12:48:11Z</time>
      </trkpt>
      <trkpt lat="48.69285" lon="6.18098">
        <ele>205.7</ele>
        <time>2020-06-29T12:48:12Z</time>
      </trkpt>
      <trkpt lat="48.69285" lon="6.18097">
        <ele>205.7</ele>
        <time>2020-06-29T12:48:13Z</time>
      </trkpt>
      <trkpt lat="48.69285" lon="6.18097">
        <ele>205.7</ele>
        <time>2020-06-29T12:48:14Z</time>
      </trkpt>
      <trkpt lat="48.69285" lon="6.18097">
        <ele>205.7</ele>
        <time>2020-06-29T12:48:15Z</time>
      </trkpt>
      <trkpt lat="48.69285" lon="6.18098">
        <ele>205.7</ele>
        <time>2020-06-29T12:48:16Z</time>
      </trkpt>
      <trkpt lat="48.69284" lon="6.18098">
        <ele>205.7</ele>
        <time>2020-06-29T12:48:17Z</time>
      </trkpt>
      <trkpt lat="48.69284" lon="6.18098">
        <ele>205.7</ele>
        <time>2020-06-29T12:48:18Z</time>
      </trkpt>
      <trkpt lat="48.69283" lon="6.18099">
        <ele>205.7</ele>
        <time>2020-06-29T12:48:19Z</time>
      </trkpt>
      <trkpt lat="48.69283" lon="6.181">
        <ele>205.7</ele>
        <time>2020-06-29T12:48:20Z</time>
      </trkpt>
      <trkpt lat="48.69283" lon="6.181">
        <ele>205.7</ele>
        <time>2020-06-29T12:48:21Z</time>
      </trkpt>
      <trkpt lat="48.69283" lon="6.18101">
        <ele>205.7</ele>
        <time>2020-06-29T12:48:22Z</time>
      </trkpt>
      <trkpt lat="48.69282" lon="6.18101">
        <ele>205.7</ele>
        <time>2020-06-29T12:48:23Z</time>
      </trkpt>
      <trkpt lat="48.69282" lon="6.18101">
        <ele>205.7</ele>
        <time>2020-06-29T12:48:24Z</time>
      </trkpt>
      <trkpt lat="48.69282" lon="6.18102">
        <ele>205.7</ele>
        <time>2020-06-29T12:48:25Z</time>
      </trkpt>
      <trkpt lat="48.69282" lon="6.18102">
        <ele>205.7</ele>
        <time>2020-06-29T12:48:26Z</time>
      </trkpt>
      <trkpt lat="48.69282" lon="6.18102">
        <ele>205.7</ele>
        <time>2020-06-29T12:48:27Z</time>
      </trkpt>
      <trkpt lat="48.69282" lon="6.18103">
        <ele>205.7</ele>
        <time>2020-06-29T12:48:28Z</time>
      </trkpt>
      <trkpt lat="48.69282" lon="6.18103">
        <ele>205.6</ele>
        <time>2020-06-29T12:48:29Z</time>
      </trkpt>
      <trkpt lat="48.69282" lon="6.18104">
        <ele>205.6</ele>
        <time>2020-06-29T12:48:30Z</time>
      </trkpt>
      <trkpt lat="48.69282" lon="6.18104">
        <ele>205.6</ele>
        <time>2020-06-29T12:48:31Z</time>
      </trkpt>
      <trkpt lat="48.69281" lon="6.18104">
        <ele>205.6</ele>
        <time>2020-06-29T12:48:32Z</time>
      </trkpt>
      <trkpt lat="48.69281" lon="6.18105">
        <ele>205.6</ele>
        <time>2020-06-29T12:48:33Z</time>
      </trkpt>
      <trkpt lat="48.69281" lon="6.18105">
        <ele>205.6</ele>
        <time>2020-06-29T12:48:34Z</time>
      </trkpt>
      <trkpt lat="48.69281" lon="6.18105">
        <ele>205.6</ele>
        <time>2020-06-29T12:48:44Z</time>
      </trkpt>
      <trkpt lat="48.69281" lon="6.18106">
        <ele>205.6</ele>
        <time>2020-06-29T12:48:45Z</time>
      </trkpt>
      <trkpt lat="48.69281" lon="6.18106">
        <ele>205.6</ele>
        <time>2020-06-29T12:48:46Z</time>
      </trkpt>
      <trkpt lat="48.69281" lon="6.18107">
        <ele>205.6</ele>
        <time>2020-06-29T12:48:47Z</time>
      </trkpt>
      <trkpt lat="48.69281" lon="6.18107">
        <ele>205.6</ele>
        <time>2020-06-29T12:48:48Z</time>
      </trkpt>
      <trkpt lat="48.69281" lon="6.18107">
        <ele>205.6</ele>
        <time>2020-06-29T12:48:49Z</time>
      </trkpt>
      <trkpt lat="48.6928" lon="6.18108">
        <ele>205.6</ele>
        <time>2020-06-29T12:48:50Z</time>
      </trkpt>
      <trkpt lat="48.6928" lon="6.18109">
        <ele>205.6</ele>
        <time>2020-06-29T12:48:51Z</time>
      </trkpt>
      <trkpt lat="48.6928" lon="6.1811">
        <ele>205.6</ele>
        <time>2020-06-29T12:48:52Z</time>
      </trkpt>
      <trkpt lat="48.6928" lon="6.18111">
        <ele>205.6</ele>
        <time>2020-06-29T12:48:53Z</time>
      </trkpt>
      <trkpt lat="48.6928" lon="6.1811">
        <ele>205.6</ele>
        <time>2020-06-29T12:48:54Z</time>
      </trkpt>
      <trkpt lat="48.6928" lon="6.1811">
        <ele>205.6</ele>
        <time>2020-06-29T12:48:55Z</time>
      </trkpt>
      <trkpt lat="48.6928" lon="6.1811">
        <ele>205.6</ele>
        <time>2020-06-29T12:48:56Z</time>
      </trkpt>
      <trkpt lat="48.6928" lon="6.1811">
        <ele>205.6</ele>
        <time>2020-06-29T12:48:57Z</time>
      </trkpt>
      <trkpt lat="48.6928" lon="6.18111">
        <ele>205.6</ele>
        <time>2020-06-29T12:48:58Z</time>
      </trkpt>
      <trkpt lat="48.6928" lon="6.1811">
        <ele>205.6</ele>
        <time>2020-06-29T12:48:59Z</time>
      </trkpt>
      <trkpt lat="48.6928" lon="6.1811">
        <ele>205.6</ele>
        <time>2020-06-29T12:49:00Z</time>
      </trkpt>
      <trkpt lat="48.6928" lon="6.1811">
        <ele>205.6</ele>
        <time>2020-06-29T12:49:01Z</time>
      </trkpt>
      <trkpt lat="48.6928" lon="6.1811">
        <ele>205.6</ele>
        <time>2020-06-29T12:49:02Z</time>
      </trkpt>
      <trkpt lat="48.6928" lon="6.1811">
        <ele>205.6</ele>
        <time>2020-06-29T12:49:03Z</time>
      </trkpt>
      <trkpt lat="48.6928" lon="6.1811">
        <ele>205.6</ele>
        <time>2020-06-29T12:49:04Z</time>
      </trkpt>
      <trkpt lat="48.6928" lon="6.1811">
        <ele>205.6</ele>
        <time>2020-06-29T12:49:05Z</time>
      </trkpt>
      <trkpt lat="48.6928" lon="6.1811">
        <ele>205.6</ele>
        <time>2020-06-29T12:49:06Z</time>
      </trkpt>
      <trkpt lat="48.69278" lon="6.18119">
        <ele>205.6</ele>
        <time>2020-06-29T12:49:49Z</time>
      </trkpt>
      <trkpt lat="48.69277" lon="6.1812">
        <ele>205.6</ele>
        <time>2020-06-29T12:49:50Z</time>
      </trkpt>
      <trkpt lat="48.69277" lon="6.1812">
        <ele>205.6</ele>
        <time>2020-06-29T12:49:51Z</time>
      </trkpt>
      <trkpt lat="48.69277" lon="6.18121">
        <ele>205.6</ele>
        <time>2020-06-29T12:49:52Z</time>
      </trkpt>
      <trkpt lat="48.69277" lon="6.18121">
        <ele>205.6</ele>
        <time>2020-06-29T12:49:53Z</time>
      </trkpt>
      <trkpt lat="48.69277" lon="6.18121">
        <ele>205.6</ele>
        <time>2020-06-29T12:49:54Z</time>
      </trkpt>
      <trkpt lat="48.69278" lon="6.18121">
        <ele>205.6</ele>
        <time>2020-06-29T12:49:55Z</time>
      </trkpt>
      <trkpt lat="48.69278" lon="6.18122">
        <ele>205.6</ele>
        <time>2020-06-29T12:49:56Z</time>
      </trkpt>
      <trkpt lat="48.69278" lon="6.18122">
        <ele>205.6</ele>
        <time>2020-06-29T12:49:57Z</time>
      </trkpt>
      <trkpt lat="48.69278" lon="6.18122">
        <ele>205.6</ele>
        <time>2020-06-29T12:49:58Z</time>
      </trkpt>
      <trkpt lat="48.69278" lon="6.18123">
        <ele>205.6</ele>
        <time>2020-06-29T12:49:59Z</time>
      </trkpt>
      <trkpt lat="48.69278" lon="6.18123">
        <ele>205.6</ele>
        <time>2020-06-29T12:50:00Z</time>
      </trkpt>
      <trkpt lat="48.69278" lon="6.18123">
        <ele>205.6</ele>
        <time>2020-06-29T12:50:01Z</time>
      </trkpt>
      <trkpt lat="48.69278" lon="6.18124">
        <ele>205.6</ele>
        <time>2020-06-29T12:50:02Z</time>
      </trkpt>
      <trkpt lat="48.69276" lon="6.18132">
        <ele>205.5</ele>
        <time>2020-06-29T12:50:23Z</time>
      </trkpt>
      <trkpt lat="48.69275" lon="6.18132">
        <ele>205.5</ele>
        <time>2020-06-29T12:50:24Z</time>
      </trkpt>
      <trkpt lat="48.69275" lon="6.18133">
        <ele>205.5</ele>
        <time>2020-06-29T12:50:25Z</time>
      </trkpt>
      <trkpt lat="48.69274" lon="6.18133">
        <ele>205.5</ele>
        <time>2020-06-29T12:50:26Z</time>
      </trkpt>
      <trkpt lat="48.69273" lon="6.18133">
        <ele>205.5</ele>
        <time>2020-06-29T12:50:27Z</time>
      </trkpt>
      <trkpt lat="48.69272" lon="6.18133">
        <ele>205.5</ele>
        <time>2020-06-29T12:50:28Z</time>
      </trkpt>
      <trkpt lat="48.6927" lon="6.18133">
        <ele>205.5</ele>
        <time>2020-06-29T12:50:29Z</time>
      </trkpt>
      <trkpt lat="48.69269" lon="6.18133">
        <ele>205.5</ele>
        <time>2020-06-29T12:50:30Z</time>
      </trkpt>
      <trkpt lat="48.69269" lon="6.18134">
        <ele>205.5</ele>
        <time>2020-06-29T12:50:31Z</time>
      </trkpt>
      <trkpt lat="48.69269" lon="6.18134">
        <ele>205.5</ele>
        <time>2020-06-29T12:50:32Z</time>
      </trkpt>
      <trkpt lat="48.6927" lon="6.18134">
        <ele>205.5</ele>
        <time>2020-06-29T12:50:33Z</time>
      </trkpt>
      <trkpt lat="48.6927" lon="6.18133">
        <ele>205.5</ele>
        <time>2020-06-29T12:50:34Z</time>
      </trkpt>
      <trkpt lat="48.6927" lon="6.18133">
        <ele>205.5</ele>
        <time>2020-06-29T12:50:35Z</time>
      </trkpt>
      <trkpt lat="48.6927" lon="6.18133">
        <ele>205.5</ele>
        <time>2020-06-29T12:50:36Z</time>
      </trkpt>
      <trkpt lat="48.69271" lon="6.18133">
        <ele>205.5</ele>
        <time>2020-06-29T12:50:37Z</time>
      </trkpt>
      <trkpt lat="48.69271" lon="6.18133">
        <ele>205.5</ele>
        <time>2020-06-29T12:50:38Z</time>
      </trkpt>
      <trkpt lat="48.69271" lon="6.18133">
        <ele>205.5</ele>
        <time>2020-06-29T12:50:39Z</time>
      </trkpt>
      <trkpt lat="48.69272" lon="6.18132">
        <ele>205.5</ele>
        <time>2020-06-29T12:50:40Z</time>
      </trkpt>
      <trkpt lat="48.69272" lon="6.18132">
        <ele>205.5</ele>
        <time>2020-06-29T12:50:41Z</time>
      </trkpt>
      <trkpt lat="48.69272" lon="6.18132">
        <ele>205.5</ele>
        <time>2020-06-29T12:50:42Z</time>
      </trkpt>
      <trkpt lat="48.69273" lon="6.18132">
        <ele>205.5</ele>
        <time>2020-06-29T12:50:43Z</time>
      </trkpt>
      <trkpt lat="48.69273" lon="6.18132">
        <ele>205.5</ele>
        <time>2020-06-29T12:50:44Z</time>
      </trkpt>
      <trkpt lat="48.69273" lon="6.18131">
        <ele>205.4</ele>
        <time>2020-06-29T12:50:45Z</time>
      </trkpt>
      <trkpt lat="48.69274" lon="6.18131">
        <ele>205.4</ele>
        <time>2020-06-29T12:50:46Z</time>
      </trkpt>
      <trkpt lat="48.69275" lon="6.1813">
        <ele>205.4</ele>
        <time>2020-06-29T12:50:47Z</time>
      </trkpt>
      <trkpt lat="48.69276" lon="6.1813">
        <ele>205.4</ele>
        <time>2020-06-29T12:50:48Z</time>
      </trkpt>
      <trkpt lat="48.69276" lon="6.1813">
        <ele>205.4</ele>
        <time>2020-06-29T12:50:49Z</time>
      </trkpt>
      <trkpt lat="48.69277" lon="6.1813">
        <ele>205.4</ele>
        <time>2020-06-29T12:50:50Z</time>
      </trkpt>
      <trkpt lat="48.69278" lon="6.1813">
        <ele>205.4</ele>
        <time>2020-06-29T12:50:51Z</time>
      </trkpt>
      <trkpt lat="48.69279" lon="6.1813">
        <ele>205.4</ele>
        <time>2020-06-29T12:50:52Z</time>
      </trkpt>
      <trkpt lat="48.69279" lon="6.1813">
        <ele>205.4</ele>
        <time>2020-06-29T12:50:53Z</time>
      </trkpt>
      <trkpt lat="48.69279" lon="6.18132">
        <ele>205.4</ele>
        <time>2020-06-29T12:50:54Z</time>
      </trkpt>
      <trkpt lat="48.69279" lon="6.18133">
        <ele>205.4</ele>
        <time>2020-06-29T12:50:55Z</time>
      </trkpt>
      <trkpt lat="48.69277" lon="6.18136">
        <ele>205.4</ele>
        <time>2020-06-29T12:50:57Z</time>
      </trkpt>
      <trkpt lat="48.69276" lon="6.18136">
        <ele>205.4</ele>
        <time>2020-06-29T12:50:58Z</time>
      </trkpt>
      <trkpt lat="48.69275" lon="6.18136">
        <ele>205.4</ele>
        <time>2020-06-29T12:50:59Z</time>
      </trkpt>
      <trkpt lat="48.69275" lon="6.18136">
        <ele>205.4</ele>
        <time>2020-06-29T12:51:00Z</time>
      </trkpt>
      <trkpt lat="48.69275" lon="6.18136">
        <ele>205.4</ele>
        <time>2020-06-29T12:51:01Z</time>
      </trkpt>
      <trkpt lat="48.69275" lon="6.18136">
        <ele>205.4</ele>
        <time>2020-06-29T12:51:02Z</time>
      </trkpt>
      <trkpt lat="48.69274" lon="6.18137">
        <ele>205.4</ele>
        <time>2020-06-29T12:51:03Z</time>
      </trkpt>
      <trkpt lat="48.69274" lon="6.18137">
        <ele>205.4</ele>
        <time>2020-06-29T12:51:04Z</time>
      </trkpt>
      <trkpt lat="48.69274" lon="6.18137">
        <ele>205.4</ele>
        <time>2020-06-29T12:51:05Z</time>
      </trkpt>
      <trkpt lat="48.69273" lon="6.18136">
        <ele>205.4</ele>
        <time>2020-06-29T12:51:06Z</time>
      </trkpt>
      <trkpt lat="48.69273" lon="6.18136">
        <ele>205.4</ele>
        <time>2020-06-29T12:51:07Z</time>
      </trkpt>
      <trkpt lat="48.69273" lon="6.18136">
        <ele>205.4</ele>
        <time>2020-06-29T12:51:08Z</time>
      </trkpt>
      <trkpt lat="48.69273" lon="6.18136">
        <ele>205.4</ele>
        <time>2020-06-29T12:51:09Z</time>
      </trkpt>
      <trkpt lat="48.69273" lon="6.18136">
        <ele>205.4</ele>
        <time>2020-06-29T12:51:10Z</time>
      </trkpt>
      <trkpt lat="48.69274" lon="6.18136">
        <ele>205.4</ele>
        <time>2020-06-29T12:51:11Z</time>
      </trkpt>
      <trkpt lat="48.69275" lon="6.18135">
        <ele>205.3</ele>
        <time>2020-06-29T12:51:12Z</time>
      </trkpt>
      <trkpt lat="48.69276" lon="6.18135">
        <ele>205.3</ele>
        <time>2020-06-29T12:51:13Z</time>
      </trkpt>
      <trkpt lat="48.69277" lon="6.18134">
        <ele>205.3</ele>
        <time>2020-06-29T12:51:14Z</time>
      </trkpt>
      <trkpt lat="48.69277" lon="6.18134">
        <ele>205.3</ele>
        <time>2020-06-29T12:51:15Z</time>
      </trkpt>
      <trkpt lat="48.69278" lon="6.18134">
        <ele>205.3</ele>
        <time>2020-06-29T12:51:16Z</time>
      </trkpt>
      <trkpt lat="48.69278" lon="6.18134">
        <ele>205.3</ele>
        <time>2020-06-29T12:51:17Z</time>
      </trkpt>
      <trkpt lat="48.69279" lon="6.18133">
        <ele>205.3</ele>
        <time>2020-06-29T12:51:18Z</time>
      </trkpt>
      <trkpt lat="48.69279" lon="6.18134">
        <ele>205.3</ele>
        <time>2020-06-29T12:51:19Z</time>
      </trkpt>
      <trkpt lat="48.69279" lon="6.18134">
        <ele>205.3</ele>
        <time>2020-06-29T12:51:20Z</time>
      </trkpt>
      <trkpt lat="48.69279" lon="6.18134">
        <ele>205.3</ele>
        <time>2020-06-29T12:51:21Z</time>
      </trkpt>
      <trkpt lat="48.69279" lon="6.18134">
        <ele>205.3</ele>
        <time>2020-06-29T12:51:22Z</time>
      </trkpt>
      <trkpt lat="48.69279" lon="6.18134">
        <ele>205.3</ele>
        <time>2020-06-29T12:51:23Z</time>
      </trkpt>
      <trkpt lat="48.69279" lon="6.18134">
        <ele>205.3</ele>
        <time>2020-06-29T12:51:24Z</time>
      </trkpt>
      <trkpt lat="48.69279" lon="6.18134">
        <ele>205.3</ele>
        <time>2020-06-29T12:51:25Z</time>
      </trkpt>
      <trkpt lat="48.69279" lon="6.18134">
        <ele>205.3</ele>
        <time>2020-06-29T12:51:26Z</time>
      </trkpt>
      <trkpt lat="48.69278" lon="6.18135">
        <ele>205.3</ele>
        <time>2020-06-29T12:51:27Z</time>
      </trkpt>
      <trkpt lat="48.69278" lon="6.18135">
        <ele>205.3</ele>
        <time>2020-06-29T12:51:28Z</time>
      </trkpt>
      <trkpt lat="48.69279" lon="6.18135">
        <ele>205.3</ele>
        <time>2020-06-29T12:51:29Z</time>
      </trkpt>
      <trkpt lat="48.69279" lon="6.18135">
        <ele>205.3</ele>
        <time>2020-06-29T12:51:30Z</time>
      </trkpt>
      <trkpt lat="48.6928" lon="6.18134">
        <ele>205.3</ele>
        <time>2020-06-29T12:51:31Z</time>
      </trkpt>
      <trkpt lat="48.6928" lon="6.18135">
        <ele>205.3</ele>
        <time>2020-06-29T12:51:32Z</time>
      </trkpt>
      <trkpt lat="48.69281" lon="6.18134">
        <ele>205.3</ele>
        <time>2020-06-29T12:51:33Z</time>
      </trkpt>
      <trkpt lat="48.69281" lon="6.18133">
        <ele>205.3</ele>
        <time>2020-06-29T12:51:34Z</time>
      </trkpt>
      <trkpt lat="48.69281" lon="6.18132">
        <ele>205.3</ele>
        <time>2020-06-29T12:51:35Z</time>
      </trkpt>
      <trkpt lat="48.69282" lon="6.18133">
        <ele>205.3</ele>
        <time>2020-06-29T12:51:36Z</time>
      </trkpt>
      <trkpt lat="48.69282" lon="6.18133">
        <ele>205.3</ele>
        <time>2020-06-29T12:51:37Z</time>
      </trkpt>
      <trkpt lat="48.69283" lon="6.18131">
        <ele>205.3</ele>
        <time>2020-06-29T12:51:38Z</time>
      </trkpt>
      <trkpt lat="48.69283" lon="6.18131">
        <ele>205.3</ele>
        <time>2020-06-29T12:51:39Z</time>
      </trkpt>
      <trkpt lat="48.69284" lon="6.18132">
        <ele>205.3</ele>
        <time>2020-06-29T12:51:40Z</time>
      </trkpt>
      <trkpt lat="48.69284" lon="6.18134">
        <ele>204.9</ele>
        <time>2020-06-29T12:51:41Z</time>
      </trkpt>
      <trkpt lat="48.69284" lon="6.18136">
        <ele>204.9</ele>
        <time>2020-06-29T12:51:42Z</time>
      </trkpt>
      <trkpt lat="48.69284" lon="6.18138">
        <ele>204.9</ele>
        <time>2020-06-29T12:51:43Z</time>
      </trkpt>
      <trkpt lat="48.69285" lon="6.1814">
        <ele>204.9</ele>
        <time>2020-06-29T12:51:44Z</time>
      </trkpt>
      <trkpt lat="48.69285" lon="6.18142">
        <ele>204.9</ele>
        <time>2020-06-29T12:51:45Z</time>
      </trkpt>
      <trkpt lat="48.69286" lon="6.18144">
        <ele>204.9</ele>
        <time>2020-06-29T12:51:46Z</time>
      </trkpt>
      <trkpt lat="48.69286" lon="6.18145">
        <ele>204.9</ele>
        <time>2020-06-29T12:51:47Z</time>
      </trkpt>
      <trkpt lat="48.69286" lon="6.18146">
        <ele>204.9</ele>
        <time>2020-06-29T12:51:48Z</time>
      </trkpt>
      <trkpt lat="48.69286" lon="6.18147">
        <ele>204.9</ele>
        <time>2020-06-29T12:51:49Z</time>
      </trkpt>
      <trkpt lat="48.69286" lon="6.18147">
        <ele>204.9</ele>
        <time>2020-06-29T12:51:50Z</time>
      </trkpt>
      <trkpt lat="48.69286" lon="6.18147">
        <ele>204.9</ele>
        <time>2020-06-29T12:51:51Z</time>
      </trkpt>
      <trkpt lat="48.69287" lon="6.18147">
        <ele>204.9</ele>
        <time>2020-06-29T12:51:52Z</time>
      </trkpt>
      <trkpt lat="48.69287" lon="6.18145">
        <ele>204.9</ele>
        <time>2020-06-29T12:51:53Z</time>
      </trkpt>
      <trkpt lat="48.69287" lon="6.18144">
        <ele>204.9</ele>
        <time>2020-06-29T12:51:54Z</time>
      </trkpt>
      <trkpt lat="48.69287" lon="6.18142">
        <ele>204.9</ele>
        <time>2020-06-29T12:51:55Z</time>
      </trkpt>
      <trkpt lat="48.69287" lon="6.18143">
        <ele>204.9</ele>
        <time>2020-06-29T12:51:56Z</time>
      </trkpt>
      <trkpt lat="48.69287" lon="6.18141">
        <ele>204.9</ele>
        <time>2020-06-29T12:51:57Z</time>
      </trkpt>
      <trkpt lat="48.69287" lon="6.18141">
        <ele>204.9</ele>
        <time>2020-06-29T12:51:58Z</time>
      </trkpt>
      <trkpt lat="48.69287" lon="6.1814">
        <ele>204.9</ele>
        <time>2020-06-29T12:51:59Z</time>
      </trkpt>
      <trkpt lat="48.69287" lon="6.18141">
        <ele>204.9</ele>
        <time>2020-06-29T12:52:00Z</time>
      </trkpt>
      <trkpt lat="48.69287" lon="6.1814">
        <ele>204.9</ele>
        <time>2020-06-29T12:52:01Z</time>
      </trkpt>
      <trkpt lat="48.69288" lon="6.1814">
        <ele>204.9</ele>
        <time>2020-06-29T12:52:02Z</time>
      </trkpt>
      <trkpt lat="48.69288" lon="6.1814">
        <ele>204.9</ele>
        <time>2020-06-29T12:52:03Z</time>
      </trkpt>
      <trkpt lat="48.69288" lon="6.18139">
        <ele>204.9</ele>
        <time>2020-06-29T12:52:04Z</time>
      </trkpt>
      <trkpt lat="48.69288" lon="6.18139">
        <ele>204.9</ele>
        <time>2020-06-29T12:52:05Z</time>
      </trkpt>
      <trkpt lat="48.69288" lon="6.18139">
        <ele>204.9</ele>
        <time>2020-06-29T12:52:06Z</time>
      </trkpt>
      <trkpt lat="48.69288" lon="6.18138">
        <ele>204.9</ele>
        <time>2020-06-29T12:52:07Z</time>
      </trkpt>
      <trkpt lat="48.69289" lon="6.18138">
        <ele>204.9</ele>
        <time>2020-06-29T12:52:08Z</time>
      </trkpt>
      <trkpt lat="48.69289" lon="6.18137">
        <ele>204.9</ele>
        <time>2020-06-29T12:52:09Z</time>
      </trkpt>
      <trkpt lat="48.69289" lon="6.18136">
        <ele>204.9</ele>
        <time>2020-06-29T12:52:10Z</time>
      </trkpt>
      <trkpt lat="48.69289" lon="6.18135">
        <ele>204.9</ele>
        <time>2020-06-29T12:52:11Z</time>
      </trkpt>
      <trkpt lat="48.69288" lon="6.18134">
        <ele>204.9</ele>
        <time>2020-06-29T12:52:12Z</time>
      </trkpt>
      <trkpt lat="48.69288" lon="6.18133">
        <ele>205</ele>
        <time>2020-06-29T12:52:13Z</time>
      </trkpt>
      <trkpt lat="48.69288" lon="6.18131">
        <ele>205</ele>
        <time>2020-06-29T12:52:14Z</time>
      </trkpt>
      <trkpt lat="48.69288" lon="6.1813">
        <ele>205</ele>
        <time>2020-06-29T12:54:07Z</time>
      </trkpt>
      <trkpt lat="48.69288" lon="6.18129">
        <ele>205</ele>
        <time>2020-06-29T12:54:08Z</time>
      </trkpt>
      <trkpt lat="48.69288" lon="6.18128">
        <ele>205</ele>
        <time>2020-06-29T12:54:09Z</time>
      </trkpt>
      <trkpt lat="48.69288" lon="6.18126">
        <ele>205</ele>
        <time>2020-06-29T12:54:10Z</time>
      </trkpt>
      <trkpt lat="48.69288" lon="6.18125">
        <ele>205</ele>
        <time>2020-06-29T12:54:11Z</time>
      </trkpt>
      <trkpt lat="48.69288" lon="6.18124">
        <ele>205</ele>
        <time>2020-06-29T12:54:12Z</time>
      </trkpt>
      <trkpt lat="48.69288" lon="6.18123">
        <ele>205</ele>
        <time>2020-06-29T12:54:13Z</time>
      </trkpt>
      <trkpt lat="48.69288" lon="6.18122">
        <ele>205.1</ele>
        <time>2020-06-29T12:54:14Z</time>
      </trkpt>
      <trkpt lat="48.69288" lon="6.1812">
        <ele>205.1</ele>
        <time>2020-06-29T12:54:15Z</time>
      </trkpt>
      <trkpt lat="48.69289" lon="6.18119">
        <ele>205.1</ele>
        <time>2020-06-29T12:54:16Z</time>
      </trkpt>
      <trkpt lat="48.69289" lon="6.18118">
        <ele>205.1</ele>
        <time>2020-06-29T12:54:17Z</time>
      </trkpt>
      <trkpt lat="48.69289" lon="6.18117">
        <ele>205.1</ele>
        <time>2020-06-29T12:54:18Z</time>
      </trkpt>
      <trkpt lat="48.69289" lon="6.18115">
        <ele>205.1</ele>
        <time>2020-06-29T12:54:19Z</time>
      </trkpt>
      <trkpt lat="48.69289" lon="6.18114">
        <ele>205.1</ele>
        <time>2020-06-29T12:54:20Z</time>
      </trkpt>
      <trkpt lat="48.6929" lon="6.18115">
        <ele>205.1</ele>
        <time>2020-06-29T12:54:21Z</time>
      </trkpt>
      <trkpt lat="48.69291" lon="6.18116">
        <ele>205.1</ele>
        <time>2020-06-29T12:54:22Z</time>
      </trkpt>
      <trkpt lat="48.69292" lon="6.18115">
        <ele>205.1</ele>
        <time>2020-06-29T12:54:23Z</time>
      </trkpt>
      <trkpt lat="48.69292" lon="6.18116">
        <ele>205.1</ele>
        <time>2020-06-29T12:54:24Z</time>
      </trkpt>
      <trkpt lat="48.69292" lon="6.18117">
        <ele>205.1</ele>
        <time>2020-06-29T12:54:25Z</time>
      </trkpt>
      <trkpt lat="48.69292" lon="6.18118">
        <ele>205.1</ele>
        <time>2020-06-29T12:54:26Z</time>
      </trkpt>
      <trkpt lat="48.69292" lon="6.18119">
        <ele>205.1</ele>
        <time>2020-06-29T12:54:27Z</time>
      </trkpt>
      <trkpt lat="48.69292" lon="6.1812">
        <ele>205.1</ele>
        <time>2020-06-29T12:54:28Z</time>
      </trkpt>
      <trkpt lat="48.69292" lon="6.1812">
        <ele>205.1</ele>
        <time>2020-06-29T12:54:29Z</time>
      </trkpt>
      <trkpt lat="48.69293" lon="6.18122">
        <ele>205.1</ele>
        <time>2020-06-29T12:54:30Z</time>
      </trkpt>
      <trkpt lat="48.69293" lon="6.18124">
        <ele>205.1</ele>
        <time>2020-06-29T12:54:31Z</time>
      </trkpt>
      <trkpt lat="48.69294" lon="6.18128">
        <ele>205.2</ele>
        <time>2020-06-29T12:54:32Z</time>
      </trkpt>
      <trkpt lat="48.69295" lon="6.18129">
        <ele>204.7</ele>
        <time>2020-06-29T12:54:33Z</time>
      </trkpt>
      <trkpt lat="48.69296" lon="6.18133">
        <ele>204.6</ele>
        <time>2020-06-29T12:54:34Z</time>
      </trkpt>
      <trkpt lat="48.69296" lon="6.18134">
        <ele>204.6</ele>
        <time>2020-06-29T12:54:35Z</time>
      </trkpt>
      <trkpt lat="48.69297" lon="6.18136">
        <ele>204.5</ele>
        <time>2020-06-29T12:54:36Z</time>
      </trkpt>
      <trkpt lat="48.69297" lon="6.18137">
        <ele>204.5</ele>
        <time>2020-06-29T12:54:37Z</time>
      </trkpt>
      <trkpt lat="48.69297" lon="6.18138">
        <ele>204.5</ele>
        <time>2020-06-29T12:54:38Z</time>
      </trkpt>
      <trkpt lat="48.69297" lon="6.18139">
        <ele>204.5</ele>
        <time>2020-06-29T12:54:39Z</time>
      </trkpt>
      <trkpt lat="48.69297" lon="6.18139">
        <ele>204.5</ele>
        <time>2020-06-29T12:54:40Z</time>
      </trkpt>
      <trkpt lat="48.69297" lon="6.1814">
        <ele>204.4</ele>
        <time>2020-06-29T12:54:41Z</time>
      </trkpt>
      <trkpt lat="48.69297" lon="6.18141">
        <ele>204.4</ele>
        <time>2020-06-29T12:54:42Z</time>
      </trkpt>
      <trkpt lat="48.69297" lon="6.18141">
        <ele>204.4</ele>
        <time>2020-06-29T12:54:43Z</time>
      </trkpt>
      <trkpt lat="48.69297" lon="6.18143">
        <ele>204.4</ele>
        <time>2020-06-29T12:54:44Z</time>
      </trkpt>
      <trkpt lat="48.69297" lon="6.18143">
        <ele>204.4</ele>
        <time>2020-06-29T12:54:45Z</time>
      </trkpt>
      <trkpt lat="48.69298" lon="6.18145">
        <ele>204.3</ele>
        <time>2020-06-29T12:54:46Z</time>
      </trkpt>
      <trkpt lat="48.69298" lon="6.18146">
        <ele>204.3</ele>
        <time>2020-06-29T12:54:47Z</time>
      </trkpt>
      <trkpt lat="48.69299" lon="6.18147">
        <ele>204.3</ele>
        <time>2020-06-29T12:54:48Z</time>
      </trkpt>
      <trkpt lat="48.69299" lon="6.18149">
        <ele>204.3</ele>
        <time>2020-06-29T12:54:49Z</time>
      </trkpt>
      <trkpt lat="48.69299" lon="6.18149">
        <ele>204.2</ele>
        <time>2020-06-29T12:54:50Z</time>
      </trkpt>
      <trkpt lat="48.69299" lon="6.1815">
        <ele>204.2</ele>
        <time>2020-06-29T12:54:51Z</time>
      </trkpt>
      <trkpt lat="48.69299" lon="6.1815">
        <ele>204.2</ele>
        <time>2020-06-29T12:54:52Z</time>
      </trkpt>
      <trkpt lat="48.69299" lon="6.18151">
        <ele>204.2</ele>
        <time>2020-06-29T12:54:53Z</time>
      </trkpt>
      <trkpt lat="48.69299" lon="6.18151">
        <ele>204.2</ele>
        <time>2020-06-29T12:54:54Z</time>
      </trkpt>
      <trkpt lat="48.693" lon="6.18151">
        <ele>204.2</ele>
        <time>2020-06-29T12:54:55Z</time>
      </trkpt>
      <trkpt lat="48.693" lon="6.18152">
        <ele>204.2</ele>
        <time>2020-06-29T12:54:56Z</time>
      </trkpt>
      <trkpt lat="48.693" lon="6.18152">
        <ele>204.2</ele>
        <time>2020-06-29T12:54:57Z</time>
      </trkpt>
      <trkpt lat="48.69299" lon="6.18154">
        <ele>204.1</ele>
        <time>2020-06-29T12:54:58Z</time>
      </trkpt>
      <trkpt lat="48.69298" lon="6.18155">
        <ele>204.1</ele>
        <time>2020-06-29T12:54:59Z</time>
      </trkpt>
      <trkpt lat="48.69296" lon="6.18155">
        <ele>204.1</ele>
        <time>2020-06-29T12:55:03Z</time>
      </trkpt>
      <trkpt lat="48.69295" lon="6.18156">
        <ele>204</ele>
        <time>2020-06-29T12:55:04Z</time>
      </trkpt>
      <trkpt lat="48.69294" lon="6.18157">
        <ele>204</ele>
        <time>2020-06-29T12:55:05Z</time>
      </trkpt>
      <trkpt lat="48.6929" lon="6.18156">
        <ele>204</ele>
        <time>2020-06-29T12:55:06Z</time>
      </trkpt>
      <trkpt lat="48.69288" lon="6.18155">
        <ele>204</ele>
        <time>2020-06-29T12:55:07Z</time>
      </trkpt>
      <trkpt lat="48.69286" lon="6.18155">
        <ele>204</ele>
        <time>2020-06-29T12:55:08Z</time>
      </trkpt>
      <trkpt lat="48.69282" lon="6.18154">
        <ele>204</ele>
        <time>2020-06-29T12:55:09Z</time>
      </trkpt>
      <trkpt lat="48.69281" lon="6.18153">
        <ele>204</ele>
        <time>2020-06-29T12:55:10Z</time>
      </trkpt>
      <trkpt lat="48.6928" lon="6.18152">
        <ele>204.1</ele>
        <time>2020-06-29T12:55:11Z</time>
      </trkpt>
      <trkpt lat="48.69279" lon="6.18151">
        <ele>204.1</ele>
        <time>2020-06-29T12:55:12Z</time>
      </trkpt>
      <trkpt lat="48.69278" lon="6.18151">
        <ele>204.1</ele>
        <time>2020-06-29T12:55:13Z</time>
      </trkpt>
      <trkpt lat="48.69277" lon="6.1815">
        <ele>204.1</ele>
        <time>2020-06-29T12:55:14Z</time>
      </trkpt>
      <trkpt lat="48.69276" lon="6.18149">
        <ele>204.1</ele>
        <time>2020-06-29T12:55:15Z</time>
      </trkpt>
      <trkpt lat="48.69274" lon="6.18148">
        <ele>204.3</ele>
        <time>2020-06-29T12:55:16Z</time>
      </trkpt>
      <trkpt lat="48.69273" lon="6.18148">
        <ele>204.3</ele>
        <time>2020-06-29T12:55:17Z</time>
      </trkpt>
      <trkpt lat="48.69274" lon="6.18147">
        <ele>204.3</ele>
        <time>2020-06-29T12:55:18Z</time>
      </trkpt>
      <trkpt lat="48.69273" lon="6.18147">
        <ele>204.3</ele>
        <time>2020-06-29T12:55:19Z</time>
      </trkpt>
      <trkpt lat="48.69273" lon="6.18147">
        <ele>204.3</ele>
        <time>2020-06-29T12:55:20Z</time>
      </trkpt>
      <trkpt lat="48.69273" lon="6.18147">
        <ele>204.3</ele>
        <time>2020-06-29T12:55:21Z</time>
      </trkpt>
      <trkpt lat="48.69273" lon="6.18147">
        <ele>204.3</ele>
        <time>2020-06-29T12:55:22Z</time>
      </trkpt>
      <trkpt lat="48.69274" lon="6.18147">
        <ele>204.3</ele>
        <time>2020-06-29T12:55:23Z</time>
      </trkpt>
      <trkpt lat="48.69274" lon="6.18147">
        <ele>204.3</ele>
        <time>2020-06-29T12:55:24Z</time>
      </trkpt>
      <trkpt lat="48.69274" lon="6.18147">
        <ele>204.3</ele>
        <time>2020-06-29T12:55:25Z</time>
      </trkpt>
      <trkpt lat="48.69273" lon="6.18147">
        <ele>204.3</ele>
        <time>2020-06-29T12:55:26Z</time>
      </trkpt>
      <trkpt lat="48.69273" lon="6.18147">
        <ele>204.3</ele>
        <time>2020-06-29T12:55:27Z</time>
      </trkpt>
      <trkpt lat="48.69273" lon="6.18147">
        <ele>204.3</ele>
        <time>2020-06-29T12:55:28Z</time>
      </trkpt>
      <trkpt lat="48.69269" lon="6.18147">
        <ele>204.3</ele>
        <time>2020-06-29T12:55:46Z</time>
      </trkpt>
      <trkpt lat="48.69267" lon="6.18145">
        <ele>204.3</ele>
        <time>2020-06-29T12:55:47Z</time>
      </trkpt>
      <trkpt lat="48.69264" lon="6.18143">
        <ele>204.5</ele>
        <time>2020-06-29T12:55:48Z</time>
      </trkpt>
      <trkpt lat="48.69262" lon="6.18142">
        <ele>204.5</ele>
        <time>2020-06-29T12:55:49Z</time>
      </trkpt>
      <trkpt lat="48.69261" lon="6.18141">
        <ele>204.5</ele>
        <time>2020-06-29T12:55:50Z</time>
      </trkpt>
      <trkpt lat="48.69259" lon="6.1814">
        <ele>204.6</ele>
        <time>2020-06-29T12:55:51Z</time>
      </trkpt>
      <trkpt lat="48.69256" lon="6.18136">
        <ele>204.8</ele>
        <time>2020-06-29T12:55:52Z</time>
      </trkpt>
      <trkpt lat="48.69254" lon="6.18133">
        <ele>205</ele>
        <time>2020-06-29T12:55:53Z</time>
      </trkpt>
      <trkpt lat="48.69253" lon="6.18133">
        <ele>205</ele>
        <time>2020-06-29T12:55:54Z</time>
      </trkpt>
      <trkpt lat="48.69246" lon="6.18132">
        <ele>205.2</ele>
        <time>2020-06-29T12:55:55Z</time>
      </trkpt>
      <trkpt lat="48.69244" lon="6.18133">
        <ele>205.2</ele>
        <time>2020-06-29T12:55:56Z</time>
      </trkpt>
      <trkpt lat="48.6924" lon="6.18137">
        <ele>205.2</ele>
        <time>2020-06-29T12:55:57Z</time>
      </trkpt>
      <trkpt lat="48.69236" lon="6.18137">
        <ele>205.3</ele>
        <time>2020-06-29T12:55:58Z</time>
      </trkpt>
      <trkpt lat="48.69234" lon="6.18133">
        <ele>205.5</ele>
        <time>2020-06-29T12:55:59Z</time>
      </trkpt>
      <trkpt lat="48.6923" lon="6.18132">
        <ele>205.6</ele>
        <time>2020-06-29T12:56:00Z</time>
      </trkpt>
      <trkpt lat="48.69223" lon="6.18131">
        <ele>206</ele>
        <time>2020-06-29T12:56:01Z</time>
      </trkpt>
      <trkpt lat="48.6922" lon="6.18131">
        <ele>206</ele>
        <time>2020-06-29T12:56:02Z</time>
      </trkpt>
      <trkpt lat="48.69218" lon="6.18131">
        <ele>206</ele>
        <time>2020-06-29T12:56:03Z</time>
      </trkpt>
      <trkpt lat="48.69215" lon="6.18132">
        <ele>206</ele>
        <time>2020-06-29T12:56:04Z</time>
      </trkpt>
      <trkpt lat="48.69212" lon="6.18132">
        <ele>206.1</ele>
        <time>2020-06-29T12:56:05Z</time>
      </trkpt>
      <trkpt lat="48.69209" lon="6.18132">
        <ele>206.2</ele>
        <time>2020-06-29T12:56:06Z</time>
      </trkpt>
      <trkpt lat="48.69206" lon="6.18132">
        <ele>206.2</ele>
        <time>2020-06-29T12:56:07Z</time>
      </trkpt>
      <trkpt lat="48.69202" lon="6.18132">
        <ele>206.3</ele>
        <time>2020-06-29T12:56:08Z</time>
      </trkpt>
      <trkpt lat="48.69201" lon="6.18132">
        <ele>206.3</ele>
        <time>2020-06-29T12:56:09Z</time>
      </trkpt>
      <trkpt lat="48.692" lon="6.18132">
        <ele>206.3</ele>
        <time>2020-06-29T12:56:10Z</time>
      </trkpt>
      <trkpt lat="48.69198" lon="6.18132">
        <ele>206.3</ele>
        <time>2020-06-29T12:56:11Z</time>
      </trkpt>
      <trkpt lat="48.69197" lon="6.18132">
        <ele>206.4</ele>
        <time>2020-06-29T12:56:12Z</time>
      </trkpt>
      <trkpt lat="48.69197" lon="6.18132">
        <ele>206.4</ele>
        <time>2020-06-29T12:56:13Z</time>
      </trkpt>
      <trkpt lat="48.69197" lon="6.18132">
        <ele>206.4</ele>
        <time>2020-06-29T12:56:14Z</time>
      </trkpt>
      <trkpt lat="48.69196" lon="6.18133">
        <ele>206.4</ele>
        <time>2020-06-29T12:56:15Z</time>
      </trkpt>
      <trkpt lat="48.69195" lon="6.18133">
        <ele>206.4</ele>
        <time>2020-06-29T12:56:16Z</time>
      </trkpt>
      <trkpt lat="48.69194" lon="6.18133">
        <ele>206.4</ele>
        <time>2020-06-29T12:56:17Z</time>
      </trkpt>
      <trkpt lat="48.69193" lon="6.18133">
        <ele>206.4</ele>
        <time>2020-06-29T12:56:18Z</time>
      </trkpt>
      <trkpt lat="48.69192" lon="6.18133">
        <ele>206.4</ele>
        <time>2020-06-29T12:56:19Z</time>
      </trkpt>
      <trkpt lat="48.69192" lon="6.18134">
        <ele>206.5</ele>
        <time>2020-06-29T12:56:20Z</time>
      </trkpt>
      <trkpt lat="48.69191" lon="6.18134">
        <ele>206.5</ele>
        <time>2020-06-29T12:56:21Z</time>
      </trkpt>
      <trkpt lat="48.6919" lon="6.18134">
        <ele>206.5</ele>
        <time>2020-06-29T12:56:22Z</time>
      </trkpt>
      <trkpt lat="48.69191" lon="6.18163">
        <ele>205.4</ele>
        <time>2020-06-29T12:56:23Z</time>
      </trkpt>
      <trkpt lat="48.69189" lon="6.18164">
        <ele>205.5</ele>
        <time>2020-06-29T12:56:24Z</time>
      </trkpt>
      <trkpt lat="48.69188" lon="6.18165">
        <ele>205.5</ele>
        <time>2020-06-29T12:56:25Z</time>
      </trkpt>
      <trkpt lat="48.69194" lon="6.18177">
        <ele>204.9</ele>
        <time>2020-06-29T12:56:26Z</time>
      </trkpt>
      <trkpt lat="48.692" lon="6.18187">
        <ele>204.3</ele>
        <time>2020-06-29T12:56:27Z</time>
      </trkpt>
      <trkpt lat="48.69207" lon="6.18198">
        <ele>204</ele>
        <time>2020-06-29T12:56:28Z</time>
      </trkpt>
      <trkpt lat="48.69213" lon="6.18208">
        <ele>203.7</ele>
        <time>2020-06-29T12:56:29Z</time>
      </trkpt>
      <trkpt lat="48.69212" lon="6.1821">
        <ele>203.7</ele>
        <time>2020-06-29T12:56:30Z</time>
      </trkpt>
      <trkpt lat="48.69211" lon="6.18211">
        <ele>203.7</ele>
        <time>2020-06-29T12:56:31Z</time>
      </trkpt>
      <trkpt lat="48.69214" lon="6.18211">
        <ele>203.6</ele>
        <time>2020-06-29T12:56:32Z</time>
      </trkpt>
      <trkpt lat="48.69217" lon="6.18212">
        <ele>203.6</ele>
        <time>2020-06-29T12:56:33Z</time>
      </trkpt>
      <trkpt lat="48.6922" lon="6.18212">
        <ele>203.5</ele>
        <time>2020-06-29T12:56:34Z</time>
      </trkpt>
      <trkpt lat="48.69223" lon="6.18213">
        <ele>203.5</ele>
        <time>2020-06-29T12:56:35Z</time>
      </trkpt>
      <trkpt lat="48.69225" lon="6.18213">
        <ele>203.5</ele>
        <time>2020-06-29T12:56:36Z</time>
      </trkpt>
      <trkpt lat="48.69228" lon="6.18214">
        <ele>203.4</ele>
        <time>2020-06-29T12:56:37Z</time>
      </trkpt>
      <trkpt lat="48.69229" lon="6.18213">
        <ele>203.4</ele>
        <time>2020-06-29T12:56:38Z</time>
      </trkpt>
      <trkpt lat="48.69226" lon="6.18217">
        <ele>203.5</ele>
        <time>2020-06-29T12:56:39Z</time>
      </trkpt>
      <trkpt lat="48.69224" lon="6.18219">
        <ele>203.4</ele>
        <time>2020-06-29T12:56:40Z</time>
      </trkpt>
      <trkpt lat="48.6923" lon="6.18226">
        <ele>203.4</ele>
        <time>2020-06-29T12:56:41Z</time>
      </trkpt>
      <trkpt lat="48.69229" lon="6.18227">
        <ele>203.4</ele>
        <time>2020-06-29T12:56:42Z</time>
      </trkpt>
      <trkpt lat="48.69228" lon="6.18229">
        <ele>203.4</ele>
        <time>2020-06-29T12:56:43Z</time>
      </trkpt>
      <trkpt lat="48.69226" lon="6.18231">
        <ele>203.4</ele>
        <time>2020-06-29T12:56:44Z</time>
      </trkpt>
      <trkpt lat="48.69226" lon="6.1823">
        <ele>203.4</ele>
        <time>2020-06-29T12:56:45Z</time>
      </trkpt>
      <trkpt lat="48.69227" lon="6.18228">
        <ele>203.4</ele>
        <time>2020-06-29T12:56:46Z</time>
      </trkpt>
      <trkpt lat="48.69222" lon="6.18224">
        <ele>203.4</ele>
        <time>2020-06-29T12:56:47Z</time>
      </trkpt>
      <trkpt lat="48.6922" lon="6.18226">
        <ele>203.4</ele>
        <time>2020-06-29T12:56:48Z</time>
      </trkpt>
      <trkpt lat="48.69219" lon="6.18226">
        <ele>203.4</ele>
        <time>2020-06-29T12:56:50Z</time>
      </trkpt>
      <trkpt lat="48.69217" lon="6.18225">
        <ele>203.5</ele>
        <time>2020-06-29T12:56:51Z</time>
      </trkpt>
      <trkpt lat="48.69216" lon="6.18223">
        <ele>203.5</ele>
        <time>2020-06-29T12:56:52Z</time>
      </trkpt>
      <trkpt lat="48.69215" lon="6.1822">
        <ele>203.5</ele>
        <time>2020-06-29T12:56:53Z</time>
      </trkpt>
      <trkpt lat="48.69214" lon="6.18218">
        <ele>203.5</ele>
        <time>2020-06-29T12:56:54Z</time>
      </trkpt>
      <trkpt lat="48.69211" lon="6.18219">
        <ele>203.6</ele>
        <time>2020-06-29T12:56:55Z</time>
      </trkpt>
      <trkpt lat="48.69209" lon="6.1822">
        <ele>203.6</ele>
        <time>2020-06-29T12:56:56Z</time>
      </trkpt>
      <trkpt lat="48.69206" lon="6.18215">
        <ele>203.7</ele>
        <time>2020-06-29T12:56:57Z</time>
      </trkpt>
      <trkpt lat="48.69204" lon="6.18211">
        <ele>203.7</ele>
        <time>2020-06-29T12:56:58Z</time>
      </trkpt>
      <trkpt lat="48.69203" lon="6.18207">
        <ele>203.9</ele>
        <time>2020-06-29T12:56:59Z</time>
      </trkpt>
      <trkpt lat="48.69201" lon="6.18203">
        <ele>203.9</ele>
        <time>2020-06-29T12:57:00Z</time>
      </trkpt>
      <trkpt lat="48.692" lon="6.18199">
        <ele>204.1</ele>
        <time>2020-06-29T12:57:01Z</time>
      </trkpt>
      <trkpt lat="48.69198" lon="6.18195">
        <ele>204.3</ele>
        <time>2020-06-29T12:57:02Z</time>
      </trkpt>
      <trkpt lat="48.69196" lon="6.18191">
        <ele>204.3</ele>
        <time>2020-06-29T12:57:03Z</time>
      </trkpt>
      <trkpt lat="48.69195" lon="6.18188">
        <ele>204.5</ele>
        <time>2020-06-29T12:57:04Z</time>
      </trkpt>
      <trkpt lat="48.69192" lon="6.18187">
        <ele>204.7</ele>
        <time>2020-06-29T12:57:05Z</time>
      </trkpt>
      <trkpt lat="48.6919" lon="6.18188">
        <ele>204.5</ele>
        <time>2020-06-29T12:57:06Z</time>
      </trkpt>
      <trkpt lat="48.69189" lon="6.18189">
        <ele>204.6</ele>
        <time>2020-06-29T12:57:07Z</time>
      </trkpt>
      <trkpt lat="48.69188" lon="6.1819">
        <ele>204.6</ele>
        <time>2020-06-29T12:57:08Z</time>
      </trkpt>
      <trkpt lat="48.69187" lon="6.18191">
        <ele>204.6</ele>
        <time>2020-06-29T12:57:09Z</time>
      </trkpt>
      <trkpt lat="48.69186" lon="6.18192">
        <ele>204.5</ele>
        <time>2020-06-29T12:57:10Z</time>
      </trkpt>
      <trkpt lat="48.69185" lon="6.18193">
        <ele>204.5</ele>
        <time>2020-06-29T12:57:11Z</time>
      </trkpt>
      <trkpt lat="48.69184" lon="6.18194">
        <ele>204.5</ele>
        <time>2020-06-29T12:57:12Z</time>
      </trkpt>
      <trkpt lat="48.69183" lon="6.18194">
        <ele>204.6</ele>
        <time>2020-06-29T12:57:13Z</time>
      </trkpt>
      <trkpt lat="48.69182" lon="6.18195">
        <ele>204.6</ele>
        <time>2020-06-29T12:57:14Z</time>
      </trkpt>
      <trkpt lat="48.69181" lon="6.18196">
        <ele>204.5</ele>
        <time>2020-06-29T12:57:15Z</time>
      </trkpt>
      <trkpt lat="48.6918" lon="6.18197">
        <ele>204.5</ele>
        <time>2020-06-29T12:57:16Z</time>
      </trkpt>
      <trkpt lat="48.69179" lon="6.18198">
        <ele>204.5</ele>
        <time>2020-06-29T12:57:18Z</time>
      </trkpt>
      <trkpt lat="48.69177" lon="6.18198">
        <ele>204.5</ele>
        <time>2020-06-29T12:57:19Z</time>
      </trkpt>
      <trkpt lat="48.69177" lon="6.18197">
        <ele>204.5</ele>
        <time>2020-06-29T12:57:20Z</time>
      </trkpt>
      <trkpt lat="48.69176" lon="6.18196">
        <ele>204.5</ele>
        <time>2020-06-29T12:57:21Z</time>
      </trkpt>
      <trkpt lat="48.69176" lon="6.18195">
        <ele>204.6</ele>
        <time>2020-06-29T12:57:22Z</time>
      </trkpt>
      <trkpt lat="48.69175" lon="6.18194">
        <ele>204.7</ele>
        <time>2020-06-29T12:57:23Z</time>
      </trkpt>
      <trkpt lat="48.69175" lon="6.18193">
        <ele>204.7</ele>
        <time>2020-06-29T12:57:24Z</time>
      </trkpt>
      <trkpt lat="48.69174" lon="6.18192">
        <ele>204.7</ele>
        <time>2020-06-29T12:57:25Z</time>
      </trkpt>
      <trkpt lat="48.69174" lon="6.18191">
        <ele>204.8</ele>
        <time>2020-06-29T12:57:26Z</time>
      </trkpt>
      <trkpt lat="48.69173" lon="6.1819">
        <ele>204.8</ele>
        <time>2020-06-29T12:57:27Z</time>
      </trkpt>
      <trkpt lat="48.69172" lon="6.18189">
        <ele>204.9</ele>
        <time>2020-06-29T12:57:28Z</time>
      </trkpt>
      <trkpt lat="48.69172" lon="6.18188">
        <ele>204.9</ele>
        <time>2020-06-29T12:57:29Z</time>
      </trkpt>
      <trkpt lat="48.69174" lon="6.18187">
        <ele>204.9</ele>
        <time>2020-06-29T12:57:30Z</time>
      </trkpt>
      <trkpt lat="48.69175" lon="6.18186">
        <ele>204.9</ele>
        <time>2020-06-29T12:57:31Z</time>
      </trkpt>
      <trkpt lat="48.69174" lon="6.18184">
        <ele>204.9</ele>
        <time>2020-06-29T12:57:32Z</time>
      </trkpt>
      <trkpt lat="48.69174" lon="6.18184">
        <ele>204.9</ele>
        <time>2020-06-29T12:57:33Z</time>
      </trkpt>
      <trkpt lat="48.69174" lon="6.18184">
        <ele>204.9</ele>
        <time>2020-06-29T12:57:34Z</time>
      </trkpt>
      <trkpt lat="48.69174" lon="6.18184">
        <ele>204.9</ele>
        <time>2020-06-29T12:57:35Z</time>
      </trkpt>
      <trkpt lat="48.69174" lon="6.18184">
        <ele>204.9</ele>
        <time>2020-06-29T12:57:36Z</time>
      </trkpt>
      <trkpt lat="48.69174" lon="6.18184">
        <ele>204.9</ele>
        <time>2020-06-29T12:57:37Z</time>
      </trkpt>
      <trkpt lat="48.69174" lon="6.18182">
        <ele>205.1</ele>
        <time>2020-06-29T12:57:38Z</time>
      </trkpt>
      <trkpt lat="48.69174" lon="6.18182">
        <ele>205.1</ele>
        <time>2020-06-29T12:57:39Z</time>
      </trkpt>
      <trkpt lat="48.69174" lon="6.18182">
        <ele>205.1</ele>
        <time>2020-06-29T12:57:40Z</time>
      </trkpt>
      <trkpt lat="48.69318" lon="6.18165">
        <ele>203.6</ele>
        <time>2020-06-29T13:04:44Z</time>
      </trkpt>
      <trkpt lat="48.69317" lon="6.18159">
        <ele>203.8</ele>
        <time>2020-06-29T13:04:45Z</time>
      </trkpt>
      <trkpt lat="48.69316" lon="6.18153">
        <ele>203.9</ele>
        <time>2020-06-29T13:04:46Z</time>
      </trkpt>
      <trkpt lat="48.69314" lon="6.18151">
        <ele>204</ele>
        <time>2020-06-29T13:04:47Z</time>
      </trkpt>
      <trkpt lat="48.69314" lon="6.18153">
        <ele>204</ele>
        <time>2020-06-29T13:04:48Z</time>
      </trkpt>
      <trkpt lat="48.69315" lon="6.18155">
        <ele>203.9</ele>
        <time>2020-06-29T13:04:49Z</time>
      </trkpt>
      <trkpt lat="48.69315" lon="6.18153">
        <ele>204</ele>
        <time>2020-06-29T13:04:50Z</time>
      </trkpt>
      <trkpt lat="48.69315" lon="6.18153">
        <ele>203.9</ele>
        <time>2020-06-29T13:04:51Z</time>
      </trkpt>
      <trkpt lat="48.69315" lon="6.18154">
        <ele>203.9</ele>
        <time>2020-06-29T13:04:52Z</time>
      </trkpt>
      <trkpt lat="48.69314" lon="6.18153">
        <ele>203.9</ele>
        <time>2020-06-29T13:04:53Z</time>
      </trkpt>
      <trkpt lat="48.69314" lon="6.18153">
        <ele>204</ele>
        <time>2020-06-29T13:04:54Z</time>
      </trkpt>
      <trkpt lat="48.69322" lon="6.18165">
        <ele>203.6</ele>
        <time>2020-06-29T13:05:06Z</time>
      </trkpt>
      <trkpt lat="48.69322" lon="6.18165">
        <ele>203.6</ele>
        <time>2020-06-29T13:05:07Z</time>
      </trkpt>
      <trkpt lat="48.69322" lon="6.18167">
        <ele>203.5</ele>
        <time>2020-06-29T13:05:08Z</time>
      </trkpt>
      <trkpt lat="48.69324" lon="6.1817">
        <ele>203.5</ele>
        <time>2020-06-29T13:05:09Z</time>
      </trkpt>
      <trkpt lat="48.69324" lon="6.18169">
        <ele>203.5</ele>
        <time>2020-06-29T13:05:10Z</time>
      </trkpt>
      <trkpt lat="48.69325" lon="6.1817">
        <ele>203.5</ele>
        <time>2020-06-29T13:05:11Z</time>
      </trkpt>
      <trkpt lat="48.69326" lon="6.18173">
        <ele>203.3</ele>
        <time>2020-06-29T13:05:12Z</time>
      </trkpt>
      <trkpt lat="48.69327" lon="6.18175">
        <ele>203.2</ele>
        <time>2020-06-29T13:05:13Z</time>
      </trkpt>
      <trkpt lat="48.69329" lon="6.18177">
        <ele>203.2</ele>
        <time>2020-06-29T13:05:14Z</time>
      </trkpt>
      <trkpt lat="48.6933" lon="6.18177">
        <ele>203.2</ele>
        <time>2020-06-29T13:05:15Z</time>
      </trkpt>
      <trkpt lat="48.69331" lon="6.18179">
        <ele>203.1</ele>
        <time>2020-06-29T13:05:16Z</time>
      </trkpt>
      <trkpt lat="48.69333" lon="6.18182">
        <ele>203.1</ele>
        <time>2020-06-29T13:05:17Z</time>
      </trkpt>
      <trkpt lat="48.69336" lon="6.18187">
        <ele>202.9</ele>
        <time>2020-06-29T13:05:21Z</time>
      </trkpt>
      <trkpt lat="48.69337" lon="6.18183">
        <ele>202.9</ele>
        <time>2020-06-29T13:05:22Z</time>
      </trkpt>
      <trkpt lat="48.69325" lon="6.18174">
        <ele>203.4</ele>
        <time>2020-06-29T13:05:23Z</time>
      </trkpt>
      <trkpt lat="48.69325" lon="6.18173">
        <ele>203.4</ele>
        <time>2020-06-29T13:05:24Z</time>
      </trkpt>
      <trkpt lat="48.69326" lon="6.18174">
        <ele>203.3</ele>
        <time>2020-06-29T13:05:25Z</time>
      </trkpt>
      <trkpt lat="48.69326" lon="6.18172">
        <ele>203.4</ele>
        <time>2020-06-29T13:05:26Z</time>
      </trkpt>
      <trkpt lat="48.69327" lon="6.18173">
        <ele>203.3</ele>
        <time>2020-06-29T13:05:27Z</time>
      </trkpt>
      <trkpt lat="48.69328" lon="6.18175">
        <ele>203.2</ele>
        <time>2020-06-29T13:05:28Z</time>
      </trkpt>
      <trkpt lat="48.69329" lon="6.18176">
        <ele>203.2</ele>
        <time>2020-06-29T13:05:29Z</time>
      </trkpt>
      <trkpt lat="48.6933" lon="6.18178">
        <ele>203.2</ele>
        <time>2020-06-29T13:05:30Z</time>
      </trkpt>
      <trkpt lat="48.69332" lon="6.18179">
        <ele>203.1</ele>
        <time>2020-06-29T13:05:31Z</time>
      </trkpt>
      <trkpt lat="48.69324" lon="6.18182">
        <ele>203.2</ele>
        <time>2020-06-29T13:06:08Z</time>
      </trkpt>
      <trkpt lat="48.69325" lon="6.18184">
        <ele>203.1</ele>
        <time>2020-06-29T13:06:09Z</time>
      </trkpt>
      <trkpt lat="48.69305" lon="6.18152">
        <ele>204.1</ele>
        <time>2020-06-29T13:06:10Z</time>
      </trkpt>
      <trkpt lat="48.69305" lon="6.18153">
        <ele>204</ele>
        <time>2020-06-29T13:06:11Z</time>
      </trkpt>
      <trkpt lat="48.69306" lon="6.18155">
        <ele>204</ele>
        <time>2020-06-29T13:06:12Z</time>
      </trkpt>
      <trkpt lat="48.69306" lon="6.18156">
        <ele>204</ele>
        <time>2020-06-29T13:06:13Z</time>
      </trkpt>
      <trkpt lat="48.69306" lon="6.18157">
        <ele>204</ele>
        <time>2020-06-29T13:06:14Z</time>
      </trkpt>
      <trkpt lat="48.69306" lon="6.18157">
        <ele>203.9</ele>
        <time>2020-06-29T13:06:15Z</time>
      </trkpt>
      <trkpt lat="48.69302" lon="6.1816">
        <ele>203.9</ele>
        <time>2020-06-29T13:06:16Z</time>
      </trkpt>
      <trkpt lat="48.69303" lon="6.18161">
        <ele>203.9</ele>
        <time>2020-06-29T13:06:17Z</time>
      </trkpt>
      <trkpt lat="48.69303" lon="6.18162">
        <ele>203.8</ele>
        <time>2020-06-29T13:06:18Z</time>
      </trkpt>
      <trkpt lat="48.69297" lon="6.18147">
        <ele>204.3</ele>
        <time>2020-06-29T13:08:12Z</time>
      </trkpt>
      <trkpt lat="48.69296" lon="6.18148">
        <ele>204.3</ele>
        <time>2020-06-29T13:08:13Z</time>
      </trkpt>
      <trkpt lat="48.69294" lon="6.18147">
        <ele>204.3</ele>
        <time>2020-06-29T13:08:14Z</time>
      </trkpt>
      <trkpt lat="48.69293" lon="6.18147">
        <ele>204.3</ele>
        <time>2020-06-29T13:08:15Z</time>
      </trkpt>
      <trkpt lat="48.69292" lon="6.18147">
        <ele>204.3</ele>
        <time>2020-06-29T13:08:16Z</time>
      </trkpt>
      <trkpt lat="48.69292" lon="6.18147">
        <ele>204.3</ele>
        <time>2020-06-29T13:08:17Z</time>
      </trkpt>
      <trkpt lat="48.69291" lon="6.18147">
        <ele>204.3</ele>
        <time>2020-06-29T13:08:18Z</time>
      </trkpt>
      <trkpt lat="48.6929" lon="6.18147">
        <ele>204.3</ele>
        <time>2020-06-29T13:08:19Z</time>
      </trkpt>
      <trkpt lat="48.6929" lon="6.18147">
        <ele>204.3</ele>
        <time>2020-06-29T13:08:20Z</time>
      </trkpt>
      <trkpt lat="48.6929" lon="6.18147">
        <ele>204.3</ele>
        <time>2020-06-29T13:08:21Z</time>
      </trkpt>
      <trkpt lat="48.69289" lon="6.18147">
        <ele>204.3</ele>
        <time>2020-06-29T13:08:22Z</time>
      </trkpt>
      <trkpt lat="48.69288" lon="6.18147">
        <ele>204.2</ele>
        <time>2020-06-29T13:08:23Z</time>
      </trkpt>
      <trkpt lat="48.69288" lon="6.18146">
        <ele>204.2</ele>
        <time>2020-06-29T13:08:24Z</time>
      </trkpt>
      <trkpt lat="48.69288" lon="6.18146">
        <ele>204.2</ele>
        <time>2020-06-29T13:08:25Z</time>
      </trkpt>
      <trkpt lat="48.69288" lon="6.18146">
        <ele>204.2</ele>
        <time>2020-06-29T13:08:26Z</time>
      </trkpt>
      <trkpt lat="48.69288" lon="6.18145">
        <ele>204.2</ele>
        <time>2020-06-29T13:08:27Z</time>
      </trkpt>
      <trkpt lat="48.69288" lon="6.18144">
        <ele>204.2</ele>
        <time>2020-06-29T13:08:28Z</time>
      </trkpt>
      <trkpt lat="48.69289" lon="6.18144">
        <ele>204.3</ele>
        <time>2020-06-29T13:08:29Z</time>
      </trkpt>
      <trkpt lat="48.69289" lon="6.18144">
        <ele>204.3</ele>
        <time>2020-06-29T13:08:30Z</time>
      </trkpt>
      <trkpt lat="48.69289" lon="6.18144">
        <ele>204.3</ele>
        <time>2020-06-29T13:08:31Z</time>
      </trkpt>
      <trkpt lat="48.69289" lon="6.18144">
        <ele>204.3</ele>
        <time>2020-06-29T13:08:32Z</time>
      </trkpt>
      <trkpt lat="48.69288" lon="6.18144">
        <ele>204.2</ele>
        <time>2020-06-29T13:08:33Z</time>
      </trkpt>
      <trkpt lat="48.69289" lon="6.18144">
        <ele>204.4</ele>
        <time>2020-06-29T13:08:34Z</time>
      </trkpt>
      <trkpt lat="48.69288" lon="6.18144">
        <ele>204.4</ele>
        <time>2020-06-29T13:08:35Z</time>
      </trkpt>
      <trkpt lat="48.69287" lon="6.18144">
        <ele>204.2</ele>
        <time>2020-06-29T13:08:36Z</time>
      </trkpt>
      <trkpt lat="48.69285" lon="6.18146">
        <ele>204.2</ele>
        <time>2020-06-29T13:08:37Z</time>
      </trkpt>
      <trkpt lat="48.69284" lon="6.18146">
        <ele>204.2</ele>
        <time>2020-06-29T13:08:38Z</time>
      </trkpt>
      <trkpt lat="48.69284" lon="6.18147">
        <ele>204.2</ele>
        <time>2020-06-29T13:08:39Z</time>
      </trkpt>
      <trkpt lat="48.69283" lon="6.18147">
        <ele>204.2</ele>
        <time>2020-06-29T13:08:40Z</time>
      </trkpt>
      <trkpt lat="48.69281" lon="6.18148">
        <ele>204.2</ele>
        <time>2020-06-29T13:08:41Z</time>
      </trkpt>
      <trkpt lat="48.69281" lon="6.18148">
        <ele>204.2</ele>
        <time>2020-06-29T13:08:42Z</time>
      </trkpt>
      <trkpt lat="48.6928" lon="6.18148">
        <ele>204.2</ele>
        <time>2020-06-29T13:08:43Z</time>
      </trkpt>
      <trkpt lat="48.69279" lon="6.18148">
        <ele>204.1</ele>
        <time>2020-06-29T13:08:44Z</time>
      </trkpt>
      <trkpt lat="48.69279" lon="6.18148">
        <ele>204.2</ele>
        <time>2020-06-29T13:08:45Z</time>
      </trkpt>
      <trkpt lat="48.69278" lon="6.18148">
        <ele>204.2</ele>
        <time>2020-06-29T13:08:46Z</time>
      </trkpt>
      <trkpt lat="48.69277" lon="6.18149">
        <ele>204.1</ele>
        <time>2020-06-29T13:08:47Z</time>
      </trkpt>
      <trkpt lat="48.69276" lon="6.18149">
        <ele>204.1</ele>
        <time>2020-06-29T13:08:48Z</time>
      </trkpt>
      <trkpt lat="48.69275" lon="6.18149">
        <ele>204.1</ele>
        <time>2020-06-29T13:08:49Z</time>
      </trkpt>
      <trkpt lat="48.69274" lon="6.1815">
        <ele>204.1</ele>
        <time>2020-06-29T13:08:50Z</time>
      </trkpt>
      <trkpt lat="48.69274" lon="6.1815">
        <ele>204.1</ele>
        <time>2020-06-29T13:08:51Z</time>
      </trkpt>
      <trkpt lat="48.69272" lon="6.1815">
        <ele>204.1</ele>
        <time>2020-06-29T13:08:52Z</time>
      </trkpt>
      <trkpt lat="48.69272" lon="6.1815">
        <ele>204.1</ele>
        <time>2020-06-29T13:08:53Z</time>
      </trkpt>
      <trkpt lat="48.69272" lon="6.18149">
        <ele>204.1</ele>
        <time>2020-06-29T13:08:54Z</time>
      </trkpt>
      <trkpt lat="48.69272" lon="6.18149">
        <ele>204.1</ele>
        <time>2020-06-29T13:08:55Z</time>
      </trkpt>
      <trkpt lat="48.69272" lon="6.18149">
        <ele>204.1</ele>
        <time>2020-06-29T13:08:56Z</time>
      </trkpt>
      <trkpt lat="48.69272" lon="6.18149">
        <ele>204.1</ele>
        <time>2020-06-29T13:08:57Z</time>
      </trkpt>
      <trkpt lat="48.69272" lon="6.18149">
        <ele>204.1</ele>
        <time>2020-06-29T13:08:58Z</time>
      </trkpt>
      <trkpt lat="48.69272" lon="6.18149">
        <ele>204.1</ele>
        <time>2020-06-29T13:08:59Z</time>
      </trkpt>
      <trkpt lat="48.69271" lon="6.1815">
        <ele>204.1</ele>
        <time>2020-06-29T13:09:00Z</time>
      </trkpt>
      <trkpt lat="48.69271" lon="6.1815">
        <ele>204.1</ele>
        <time>2020-06-29T13:09:01Z</time>
      </trkpt>
      <trkpt lat="48.69271" lon="6.1815">
        <ele>204.1</ele>
        <time>2020-06-29T13:09:02Z</time>
      </trkpt>
      <trkpt lat="48.69271" lon="6.1815">
        <ele>204.1</ele>
        <time>2020-06-29T13:09:03Z</time>
      </trkpt>
      <trkpt lat="48.69271" lon="6.1815">
        <ele>204.1</ele>
        <time>2020-06-29T13:09:04Z</time>
      </trkpt>
      <trkpt lat="48.69271" lon="6.1815">
        <ele>204.1</ele>
        <time>2020-06-29T13:09:05Z</time>
      </trkpt>
      <trkpt lat="48.69271" lon="6.1815">
        <ele>204.1</ele>
        <time>2020-06-29T13:09:06Z</time>
      </trkpt>
      <trkpt lat="48.69271" lon="6.1815">
        <ele>204.1</ele>
        <time>2020-06-29T13:09:07Z</time>
      </trkpt>
      <trkpt lat="48.6928" lon="6.18173">
        <ele>203.6</ele>
        <time>2020-06-29T13:11:34Z</time>
      </trkpt>
      <trkpt lat="48.69279" lon="6.18173">
        <ele>203.6</ele>
        <time>2020-06-29T13:11:35Z</time>
      </trkpt>
      <trkpt lat="48.69278" lon="6.18173">
        <ele>203.6</ele>
        <time>2020-06-29T13:11:36Z</time>
      </trkpt>
      <trkpt lat="48.69277" lon="6.18173">
        <ele>203.6</ele>
        <time>2020-06-29T13:11:37Z</time>
      </trkpt>
      <trkpt lat="48.69276" lon="6.18172">
        <ele>203.6</ele>
        <time>2020-06-29T13:11:38Z</time>
      </trkpt>
      <trkpt lat="48.69276" lon="6.18172">
        <ele>203.6</ele>
        <time>2020-06-29T13:11:39Z</time>
      </trkpt>
      <trkpt lat="48.69277" lon="6.18171">
        <ele>203.6</ele>
        <time>2020-06-29T13:11:40Z</time>
      </trkpt>
      <trkpt lat="48.69277" lon="6.18172">
        <ele>203.6</ele>
        <time>2020-06-29T13:11:41Z</time>
      </trkpt>
      <trkpt lat="48.69277" lon="6.18172">
        <ele>203.6</ele>
        <time>2020-06-29T13:11:42Z</time>
      </trkpt>
      <trkpt lat="48.69277" lon="6.18172">
        <ele>203.6</ele>
        <time>2020-06-29T13:11:43Z</time>
      </trkpt>
      <trkpt lat="48.69276" lon="6.18173">
        <ele>203.6</ele>
        <time>2020-06-29T13:11:44Z</time>
      </trkpt>
      <trkpt lat="48.69276" lon="6.18172">
        <ele>203.6</ele>
        <time>2020-06-29T13:11:45Z</time>
      </trkpt>
      <trkpt lat="48.69276" lon="6.18172">
        <ele>203.6</ele>
        <time>2020-06-29T13:11:46Z</time>
      </trkpt>
      <trkpt lat="48.69276" lon="6.18173">
        <ele>203.6</ele>
        <time>2020-06-29T13:11:47Z</time>
      </trkpt>
      <trkpt lat="48.69276" lon="6.18173">
        <ele>203.6</ele>
        <time>2020-06-29T13:11:48Z</time>
      </trkpt>
      <trkpt lat="48.69276" lon="6.18173">
        <ele>203.6</ele>
        <time>2020-06-29T13:11:49Z</time>
      </trkpt>
      <trkpt lat="48.69275" lon="6.18175">
        <ele>203.5</ele>
        <time>2020-06-29T13:11:50Z</time>
      </trkpt>
      <trkpt lat="48.69275" lon="6.18176">
        <ele>203.5</ele>
        <time>2020-06-29T13:11:51Z</time>
      </trkpt>
      <trkpt lat="48.69276" lon="6.18175">
        <ele>203.5</ele>
        <time>2020-06-29T13:11:52Z</time>
      </trkpt>
      <trkpt lat="48.69275" lon="6.18175">
        <ele>203.5</ele>
        <time>2020-06-29T13:11:53Z</time>
      </trkpt>
      <trkpt lat="48.69275" lon="6.18175">
        <ele>203.5</ele>
        <time>2020-06-29T13:11:54Z</time>
      </trkpt>
      <trkpt lat="48.69277" lon="6.18174">
        <ele>203.6</ele>
        <time>2020-06-29T13:11:55Z</time>
      </trkpt>
      <trkpt lat="48.69275" lon="6.18171">
        <ele>203.6</ele>
        <time>2020-06-29T13:11:56Z</time>
      </trkpt>
      <trkpt lat="48.69277" lon="6.18166">
        <ele>203.7</ele>
        <time>2020-06-29T13:11:57Z</time>
      </trkpt>
      <trkpt lat="48.69279" lon="6.18162">
        <ele>203.7</ele>
        <time>2020-06-29T13:11:58Z</time>
      </trkpt>
      <trkpt lat="48.69282" lon="6.18159">
        <ele>203.8</ele>
        <time>2020-06-29T13:11:59Z</time>
      </trkpt>
      <trkpt lat="48.69284" lon="6.18155">
        <ele>204</ele>
        <time>2020-06-29T13:12:00Z</time>
      </trkpt>
      <trkpt lat="48.69284" lon="6.18152">
        <ele>204.1</ele>
        <time>2020-06-29T13:12:01Z</time>
      </trkpt>
      <trkpt lat="48.69284" lon="6.1815">
        <ele>204.1</ele>
        <time>2020-06-29T13:12:02Z</time>
      </trkpt>
      <trkpt lat="48.69284" lon="6.18148">
        <ele>204.2</ele>
        <time>2020-06-29T13:12:03Z</time>
      </trkpt>
      <trkpt lat="48.69283" lon="6.18143">
        <ele>204.4</ele>
        <time>2020-06-29T13:12:04Z</time>
      </trkpt>
      <trkpt lat="48.69283" lon="6.18142">
        <ele>204.4</ele>
        <time>2020-06-29T13:12:05Z</time>
      </trkpt>
      <trkpt lat="48.69283" lon="6.18141">
        <ele>204.4</ele>
        <time>2020-06-29T13:12:06Z</time>
      </trkpt>
      <trkpt lat="48.69283" lon="6.1814">
        <ele>204.6</ele>
        <time>2020-06-29T13:12:07Z</time>
      </trkpt>
      <trkpt lat="48.69283" lon="6.18139">
        <ele>204.6</ele>
        <time>2020-06-29T13:12:08Z</time>
      </trkpt>
      <trkpt lat="48.69283" lon="6.18138">
        <ele>204.6</ele>
        <time>2020-06-29T13:12:09Z</time>
      </trkpt>
      <trkpt lat="48.69282" lon="6.18138">
        <ele>204.6</ele>
        <time>2020-06-29T13:12:10Z</time>
      </trkpt>
      <trkpt lat="48.69282" lon="6.18136">
        <ele>204.6</ele>
        <time>2020-06-29T13:12:11Z</time>
      </trkpt>
      <trkpt lat="48.69281" lon="6.18134">
        <ele>204.7</ele>
        <time>2020-06-29T13:12:12Z</time>
      </trkpt>
      <trkpt lat="48.69281" lon="6.18133">
        <ele>204.7</ele>
        <time>2020-06-29T13:12:13Z</time>
      </trkpt>
      <trkpt lat="48.6928" lon="6.18133">
        <ele>204.8</ele>
        <time>2020-06-29T13:12:14Z</time>
      </trkpt>
      <trkpt lat="48.69279" lon="6.18131">
        <ele>204.9</ele>
        <time>2020-06-29T13:12:15Z</time>
      </trkpt>
      <trkpt lat="48.69279" lon="6.18129">
        <ele>204.9</ele>
        <time>2020-06-29T13:12:16Z</time>
      </trkpt>
      <trkpt lat="48.69278" lon="6.18127">
        <ele>204.9</ele>
        <time>2020-06-29T13:12:17Z</time>
      </trkpt>
      <trkpt lat="48.69279" lon="6.18126">
        <ele>205.1</ele>
        <time>2020-06-29T13:12:18Z</time>
      </trkpt>
      <trkpt lat="48.69279" lon="6.18125">
        <ele>205.1</ele>
        <time>2020-06-29T13:12:19Z</time>
      </trkpt>
      <trkpt lat="48.69279" lon="6.18124">
        <ele>205.1</ele>
        <time>2020-06-29T13:12:20Z</time>
      </trkpt>
      <trkpt lat="48.69279" lon="6.18122">
        <ele>205.2</ele>
        <time>2020-06-29T13:12:21Z</time>
      </trkpt>
      <trkpt lat="48.69279" lon="6.18119">
        <ele>205.2</ele>
        <time>2020-06-29T13:12:22Z</time>
      </trkpt>
      <trkpt lat="48.69279" lon="6.18118">
        <ele>205.4</ele>
        <time>2020-06-29T13:12:23Z</time>
      </trkpt>
      <trkpt lat="48.69279" lon="6.18116">
        <ele>205.4</ele>
        <time>2020-06-29T13:12:24Z</time>
      </trkpt>
      <trkpt lat="48.69278" lon="6.18115">
        <ele>205.4</ele>
        <time>2020-06-29T13:12:25Z</time>
      </trkpt>
      <trkpt lat="48.69278" lon="6.18113">
        <ele>205.5</ele>
        <time>2020-06-29T13:12:26Z</time>
      </trkpt>
      <trkpt lat="48.69278" lon="6.18112">
        <ele>205.5</ele>
        <time>2020-06-29T13:12:27Z</time>
      </trkpt>
      <trkpt lat="48.69278" lon="6.1811">
        <ele>205.6</ele>
        <time>2020-06-29T13:12:28Z</time>
      </trkpt>
      <trkpt lat="48.69278" lon="6.18108">
        <ele>205.6</ele>
        <time>2020-06-29T13:12:29Z</time>
      </trkpt>
      <trkpt lat="48.69278" lon="6.18106">
        <ele>205.6</ele>
        <time>2020-06-29T13:12:30Z</time>
      </trkpt>
      <trkpt lat="48.69279" lon="6.18103">
        <ele>205.7</ele>
        <time>2020-06-29T13:12:31Z</time>
      </trkpt>
      <trkpt lat="48.6928" lon="6.18101">
        <ele>205.7</ele>
        <time>2020-06-29T13:12:32Z</time>
      </trkpt>
      <trkpt lat="48.69281" lon="6.181">
        <ele>205.7</ele>
        <time>2020-06-29T13:12:33Z</time>
      </trkpt>
      <trkpt lat="48.69282" lon="6.18099">
        <ele>205.7</ele>
        <time>2020-06-29T13:12:34Z</time>
      </trkpt>
      <trkpt lat="48.69282" lon="6.18097">
        <ele>205.7</ele>
        <time>2020-06-29T13:12:35Z</time>
      </trkpt>
      <trkpt lat="48.69282" lon="6.18097">
        <ele>205.9</ele>
        <time>2020-06-29T13:12:36Z</time>
      </trkpt>
      <trkpt lat="48.69282" lon="6.18096">
        <ele>205.9</ele>
        <time>2020-06-29T13:12:37Z</time>
      </trkpt>
      <trkpt lat="48.69283" lon="6.18095">
        <ele>205.9</ele>
        <time>2020-06-29T13:12:38Z</time>
      </trkpt>
      <trkpt lat="48.69283" lon="6.18095">
        <ele>205.9</ele>
        <time>2020-06-29T13:12:39Z</time>
      </trkpt>
      <trkpt lat="48.69283" lon="6.18096">
        <ele>205.9</ele>
        <time>2020-06-29T13:12:40Z</time>
      </trkpt>
      <trkpt lat="48.69283" lon="6.18096">
        <ele>205.9</ele>
        <time>2020-06-29T13:12:41Z</time>
      </trkpt>
      <trkpt lat="48.69284" lon="6.18095">
        <ele>205.8</ele>
        <time>2020-06-29T13:12:42Z</time>
      </trkpt>
      <trkpt lat="48.69284" lon="6.18094">
        <ele>205.8</ele>
        <time>2020-06-29T13:12:43Z</time>
      </trkpt>
      <trkpt lat="48.69284" lon="6.18093">
        <ele>205.8</ele>
        <time>2020-06-29T13:12:44Z</time>
      </trkpt>
      <trkpt lat="48.69284" lon="6.18092">
        <ele>205.9</ele>
        <time>2020-06-29T13:12:45Z</time>
      </trkpt>
      <trkpt lat="48.69284" lon="6.18092">
        <ele>205.9</ele>
        <time>2020-06-29T13:12:46Z</time>
      </trkpt>
      <trkpt lat="48.69285" lon="6.18091">
        <ele>205.9</ele>
        <time>2020-06-29T13:12:47Z</time>
      </trkpt>
      <trkpt lat="48.69285" lon="6.1809">
        <ele>205.9</ele>
        <time>2020-06-29T13:12:48Z</time>
      </trkpt>
      <trkpt lat="48.69284" lon="6.1809">
        <ele>205.9</ele>
        <time>2020-06-29T13:12:49Z</time>
      </trkpt>
      <trkpt lat="48.69284" lon="6.1809">
        <ele>205.9</ele>
        <time>2020-06-29T13:12:50Z</time>
      </trkpt>
      <trkpt lat="48.69285" lon="6.1809">
        <ele>205.9</ele>
        <time>2020-06-29T13:12:51Z</time>
      </trkpt>
      <trkpt lat="48.69285" lon="6.1809">
        <ele>205.9</ele>
        <time>2020-06-29T13:12:52Z</time>
      </trkpt>
      <trkpt lat="48.69285" lon="6.18091">
        <ele>205.9</ele>
        <time>2020-06-29T13:12:53Z</time>
      </trkpt>
      <trkpt lat="48.69285" lon="6.18092">
        <ele>205.9</ele>
        <time>2020-06-29T13:12:54Z</time>
      </trkpt>
      <trkpt lat="48.69286" lon="6.18092">
        <ele>205.9</ele>
        <time>2020-06-29T13:12:55Z</time>
      </trkpt>
      <trkpt lat="48.69286" lon="6.18092">
        <ele>205.9</ele>
        <time>2020-06-29T13:12:56Z</time>
      </trkpt>
      <trkpt lat="48.69286" lon="6.18093">
        <ele>205.8</ele>
        <time>2020-06-29T13:12:57Z</time>
      </trkpt>
      <trkpt lat="48.69286" lon="6.18093">
        <ele>205.8</ele>
        <time>2020-06-29T13:12:58Z</time>
      </trkpt>
      <trkpt lat="48.69286" lon="6.18094">
        <ele>205.8</ele>
        <time>2020-06-29T13:12:59Z</time>
      </trkpt>
      <trkpt lat="48.69286" lon="6.18095">
        <ele>205.8</ele>
        <time>2020-06-29T13:13:00Z</time>
      </trkpt>
      <trkpt lat="48.69285" lon="6.18097">
        <ele>205.8</ele>
        <time>2020-06-29T13:13:01Z</time>
      </trkpt>
      <trkpt lat="48.69285" lon="6.18099">
        <ele>205.7</ele>
        <time>2020-06-29T13:13:02Z</time>
      </trkpt>
      <trkpt lat="48.69285" lon="6.181">
        <ele>205.7</ele>
        <time>2020-06-29T13:13:03Z</time>
      </trkpt>
      <trkpt lat="48.69285" lon="6.181">
        <ele>205.7</ele>
        <time>2020-06-29T13:13:04Z</time>
      </trkpt>
      <trkpt lat="48.69285" lon="6.181">
        <ele>205.7</ele>
        <time>2020-06-29T13:13:05Z</time>
      </trkpt>
      <trkpt lat="48.69285" lon="6.181">
        <ele>205.7</ele>
        <time>2020-06-29T13:13:06Z</time>
      </trkpt>
      <trkpt lat="48.69285" lon="6.181">
        <ele>205.7</ele>
        <time>2020-06-29T13:13:07Z</time>
      </trkpt>
      <trkpt lat="48.69286" lon="6.18101">
        <ele>205.7</ele>
        <time>2020-06-29T13:13:08Z</time>
      </trkpt>
      <trkpt lat="48.69286" lon="6.18101">
        <ele>205.7</ele>
        <time>2020-06-29T13:13:09Z</time>
      </trkpt>
      <trkpt lat="48.69287" lon="6.18101">
        <ele>205.7</ele>
        <time>2020-06-29T13:13:10Z</time>
      </trkpt>
      <trkpt lat="48.69286" lon="6.18102">
        <ele>205.6</ele>
        <time>2020-06-29T13:13:11Z</time>
      </trkpt>
      <trkpt lat="48.69288" lon="6.18104">
        <ele>205.6</ele>
        <time>2020-06-29T13:13:12Z</time>
      </trkpt>
      <trkpt lat="48.69289" lon="6.18106">
        <ele>205.5</ele>
        <time>2020-06-29T13:13:13Z</time>
      </trkpt>
      <trkpt lat="48.6929" lon="6.18106">
        <ele>205.5</ele>
        <time>2020-06-29T13:13:14Z</time>
      </trkpt>
      <trkpt lat="48.69291" lon="6.18106">
        <ele>205.5</ele>
        <time>2020-06-29T13:13:15Z</time>
      </trkpt>
      <trkpt lat="48.69292" lon="6.18106">
        <ele>205.5</ele>
        <time>2020-06-29T13:13:16Z</time>
      </trkpt>
      <trkpt lat="48.69293" lon="6.18106">
        <ele>205.5</ele>
        <time>2020-06-29T13:13:17Z</time>
      </trkpt>
      <trkpt lat="48.69293" lon="6.18105">
        <ele>205.5</ele>
        <time>2020-06-29T13:13:18Z</time>
      </trkpt>
      <trkpt lat="48.69293" lon="6.18104">
        <ele>205.5</ele>
        <time>2020-06-29T13:13:19Z</time>
      </trkpt>
      <trkpt lat="48.69294" lon="6.18105">
        <ele>205.5</ele>
        <time>2020-06-29T13:13:20Z</time>
      </trkpt>
      <trkpt lat="48.69294" lon="6.18106">
        <ele>205.5</ele>
        <time>2020-06-29T13:13:21Z</time>
      </trkpt>
      <trkpt lat="48.69294" lon="6.18106">
        <ele>205.5</ele>
        <time>2020-06-29T13:13:22Z</time>
      </trkpt>
      <trkpt lat="48.69294" lon="6.18106">
        <ele>205.6</ele>
        <time>2020-06-29T13:13:23Z</time>
      </trkpt>
      <trkpt lat="48.69294" lon="6.18104">
        <ele>205.6</ele>
        <time>2020-06-29T13:13:24Z</time>
      </trkpt>
      <trkpt lat="48.69294" lon="6.18104">
        <ele>205.6</ele>
        <time>2020-06-29T13:13:25Z</time>
      </trkpt>
      <trkpt lat="48.69294" lon="6.18103">
        <ele>205.6</ele>
        <time>2020-06-29T13:13:26Z</time>
      </trkpt>
      <trkpt lat="48.69294" lon="6.18103">
        <ele>205.6</ele>
        <time>2020-06-29T13:13:27Z</time>
      </trkpt>
      <trkpt lat="48.69294" lon="6.18103">
        <ele>205.6</ele>
        <time>2020-06-29T13:13:28Z</time>
      </trkpt>
      <trkpt lat="48.69294" lon="6.18103">
        <ele>205.6</ele>
        <time>2020-06-29T13:13:29Z</time>
      </trkpt>
      <trkpt lat="48.69294" lon="6.18104">
        <ele>205.6</ele>
        <time>2020-06-29T13:13:30Z</time>
      </trkpt>
      <trkpt lat="48.69295" lon="6.18105">
        <ele>205.6</ele>
        <time>2020-06-29T13:13:31Z</time>
      </trkpt>
      <trkpt lat="48.69296" lon="6.18106">
        <ele>205.5</ele>
        <time>2020-06-29T13:13:32Z</time>
      </trkpt>
      <trkpt lat="48.69296" lon="6.18106">
        <ele>205.5</ele>
        <time>2020-06-29T13:13:33Z</time>
      </trkpt>
      <trkpt lat="48.69296" lon="6.18106">
        <ele>205.5</ele>
        <time>2020-06-29T13:13:34Z</time>
      </trkpt>
      <trkpt lat="48.69296" lon="6.18106">
        <ele>205.5</ele>
        <time>2020-06-29T13:13:35Z</time>
      </trkpt>
      <trkpt lat="48.69296" lon="6.18106">
        <ele>205.5</ele>
        <time>2020-06-29T13:13:36Z</time>
      </trkpt>
      <trkpt lat="48.69296" lon="6.18106">
        <ele>205.5</ele>
        <time>2020-06-29T13:13:37Z</time>
      </trkpt>
      <trkpt lat="48.69296" lon="6.18106">
        <ele>205.6</ele>
        <time>2020-06-29T13:13:38Z</time>
      </trkpt>
      <trkpt lat="48.69297" lon="6.18106">
        <ele>205.6</ele>
        <time>2020-06-29T13:13:39Z</time>
      </trkpt>
      <trkpt lat="48.69297" lon="6.18106">
        <ele>205.6</ele>
        <time>2020-06-29T13:13:40Z</time>
      </trkpt>
      <trkpt lat="48.69298" lon="6.18106">
        <ele>205.6</ele>
        <time>2020-06-29T13:13:41Z</time>
      </trkpt>
      <trkpt lat="48.69298" lon="6.18106">
        <ele>205.6</ele>
        <time>2020-06-29T13:13:42Z</time>
      </trkpt>
      <trkpt lat="48.69299" lon="6.18105">
        <ele>205.7</ele>
        <time>2020-06-29T13:13:43Z</time>
      </trkpt>
      <trkpt lat="48.69304" lon="6.18101">
        <ele>205.6</ele>
        <time>2020-06-29T13:14:27Z</time>
      </trkpt>
      <trkpt lat="48.69304" lon="6.18102">
        <ele>205.6</ele>
        <time>2020-06-29T13:14:28Z</time>
      </trkpt>
      <trkpt lat="48.69304" lon="6.18103">
        <ele>205.6</ele>
        <time>2020-06-29T13:14:29Z</time>
      </trkpt>
      <trkpt lat="48.69304" lon="6.18103">
        <ele>205.6</ele>
        <time>2020-06-29T13:14:30Z</time>
      </trkpt>
      <trkpt lat="48.69304" lon="6.18103">
        <ele>205.6</ele>
        <time>2020-06-29T13:14:31Z</time>
      </trkpt>
      <trkpt lat="48.69304" lon="6.18103">
        <ele>205.6</ele>
        <time>2020-06-29T13:14:32Z</time>
      </trkpt>
      <trkpt lat="48.69304" lon="6.18103">
        <ele>205.6</ele>
        <time>2020-06-29T13:14:33Z</time>
      </trkpt>
      <trkpt lat="48.69304" lon="6.18103">
        <ele>205.6</ele>
        <time>2020-06-29T13:14:34Z</time>
      </trkpt>
      <trkpt lat="48.69305" lon="6.18103">
        <ele>205.6</ele>
        <time>2020-06-29T13:14:35Z</time>
      </trkpt>
      <trkpt lat="48.69305" lon="6.18103">
        <ele>205.6</ele>
        <time>2020-06-29T13:14:36Z</time>
      </trkpt>
      <trkpt lat="48.69305" lon="6.18103">
        <ele>205.6</ele>
        <time>2020-06-29T13:14:37Z</time>
      </trkpt>
      <trkpt lat="48.69306" lon="6.18103">
        <ele>205.7</ele>
        <time>2020-06-29T13:14:38Z</time>
      </trkpt>
      <trkpt lat="48.69306" lon="6.18102">
        <ele>205.7</ele>
        <time>2020-06-29T13:14:39Z</time>
      </trkpt>
      <trkpt lat="48.69306" lon="6.18102">
        <ele>205.7</ele>
        <time>2020-06-29T13:14:40Z</time>
      </trkpt>
      <trkpt lat="48.69306" lon="6.18102">
        <ele>205.7</ele>
        <time>2020-06-29T13:14:41Z</time>
      </trkpt>
      <trkpt lat="48.69306" lon="6.18101">
        <ele>205.7</ele>
        <time>2020-06-29T13:14:42Z</time>
      </trkpt>
      <trkpt lat="48.69306" lon="6.18101">
        <ele>205.7</ele>
        <time>2020-06-29T13:14:43Z</time>
      </trkpt>
      <trkpt lat="48.69305" lon="6.18101">
        <ele>205.7</ele>
        <time>2020-06-29T13:14:44Z</time>
      </trkpt>
      <trkpt lat="48.69306" lon="6.181">
        <ele>205.7</ele>
        <time>2020-06-29T13:14:45Z</time>
      </trkpt>
      <trkpt lat="48.69304" lon="6.181">
        <ele>205.8</ele>
        <time>2020-06-29T13:14:46Z</time>
      </trkpt>
      <trkpt lat="48.69304" lon="6.181">
        <ele>205.8</ele>
        <time>2020-06-29T13:14:47Z</time>
      </trkpt>
      <trkpt lat="48.69304" lon="6.18099">
        <ele>205.8</ele>
        <time>2020-06-29T13:14:48Z</time>
      </trkpt>
      <trkpt lat="48.69305" lon="6.18099">
        <ele>205.8</ele>
        <time>2020-06-29T13:14:49Z</time>
      </trkpt>
      <trkpt lat="48.69305" lon="6.18099">
        <ele>205.8</ele>
        <time>2020-06-29T13:14:50Z</time>
      </trkpt>
      <trkpt lat="48.69306" lon="6.18098">
        <ele>205.8</ele>
        <time>2020-06-29T13:14:51Z</time>
      </trkpt>
      <trkpt lat="48.69306" lon="6.18098">
        <ele>205.8</ele>
        <time>2020-06-29T13:14:52Z</time>
      </trkpt>
      <trkpt lat="48.69306" lon="6.18098">
        <ele>205.8</ele>
        <time>2020-06-29T13:14:53Z</time>
      </trkpt>
      <trkpt lat="48.69307" lon="6.18098">
        <ele>205.8</ele>
        <time>2020-06-29T13:14:54Z</time>
      </trkpt>
      <trkpt lat="48.69307" lon="6.18097">
        <ele>205.8</ele>
        <time>2020-06-29T13:14:55Z</time>
      </trkpt>
      <trkpt lat="48.69308" lon="6.18097">
        <ele>205.8</ele>
        <time>2020-06-29T13:14:56Z</time>
      </trkpt>
      <trkpt lat="48.69309" lon="6.18097">
        <ele>205.8</ele>
        <time>2020-06-29T13:14:57Z</time>
      </trkpt>
      <trkpt lat="48.69307" lon="6.18098">
        <ele>205.8</ele>
        <time>2020-06-29T13:14:58Z</time>
      </trkpt>
      <trkpt lat="48.69306" lon="6.18098">
        <ele>205.8</ele>
        <time>2020-06-29T13:14:59Z</time>
      </trkpt>
      <trkpt lat="48.69306" lon="6.18097">
        <ele>205.8</ele>
        <time>2020-06-29T13:15:00Z</time>
      </trkpt>
      <trkpt lat="48.69306" lon="6.18098">
        <ele>205.8</ele>
        <time>2020-06-29T13:15:01Z</time>
      </trkpt>
      <trkpt lat="48.69306" lon="6.18097">
        <ele>205.8</ele>
        <time>2020-06-29T13:15:02Z</time>
      </trkpt>
      <trkpt lat="48.69305" lon="6.18097">
        <ele>205.8</ele>
        <time>2020-06-29T13:15:03Z</time>
      </trkpt>
      <trkpt lat="48.69305" lon="6.18097">
        <ele>205.8</ele>
        <time>2020-06-29T13:15:04Z</time>
      </trkpt>
      <trkpt lat="48.69306" lon="6.18097">
        <ele>205.9</ele>
        <time>2020-06-29T13:15:05Z</time>
      </trkpt>
      <trkpt lat="48.69305" lon="6.18096">
        <ele>205.9</ele>
        <time>2020-06-29T13:15:06Z</time>
      </trkpt>
      <trkpt lat="48.69305" lon="6.18096">
        <ele>205.9</ele>
        <time>2020-06-29T13:15:07Z</time>
      </trkpt>
      <trkpt lat="48.69305" lon="6.18095">
        <ele>205.9</ele>
        <time>2020-06-29T13:15:08Z</time>
      </trkpt>
      <trkpt lat="48.69305" lon="6.18095">
        <ele>205.9</ele>
        <time>2020-06-29T13:15:09Z</time>
      </trkpt>
      <trkpt lat="48.69305" lon="6.18095">
        <ele>205.9</ele>
        <time>2020-06-29T13:15:10Z</time>
      </trkpt>
      <trkpt lat="48.69305" lon="6.18094">
        <ele>205.9</ele>
        <time>2020-06-29T13:15:11Z</time>
      </trkpt>
      <trkpt lat="48.69305" lon="6.18094">
        <ele>205.9</ele>
        <time>2020-06-29T13:15:12Z</time>
      </trkpt>
      <trkpt lat="48.69304" lon="6.18095">
        <ele>205.9</ele>
        <time>2020-06-29T13:15:13Z</time>
      </trkpt>
      <trkpt lat="48.69304" lon="6.18096">
        <ele>205.9</ele>
        <time>2020-06-29T13:15:14Z</time>
      </trkpt>
      <trkpt lat="48.69303" lon="6.18097">
        <ele>205.9</ele>
        <time>2020-06-29T13:15:15Z</time>
      </trkpt>
      <trkpt lat="48.69303" lon="6.18097">
        <ele>205.9</ele>
        <time>2020-06-29T13:15:16Z</time>
      </trkpt>
      <trkpt lat="48.69303" lon="6.18097">
        <ele>205.9</ele>
        <time>2020-06-29T13:15:17Z</time>
      </trkpt>
      <trkpt lat="48.69297" lon="6.18094">
        <ele>205.9</ele>
        <time>2020-06-29T13:28:46Z</time>
      </trkpt>
      <trkpt lat="48.69298" lon="6.18094">
        <ele>205.9</ele>
        <time>2020-06-29T13:28:47Z</time>
      </trkpt>
      <trkpt lat="48.693" lon="6.18094">
        <ele>206</ele>
        <time>2020-06-29T13:28:48Z</time>
      </trkpt>
      <trkpt lat="48.693" lon="6.18094">
        <ele>205.9</ele>
        <time>2020-06-29T13:28:49Z</time>
      </trkpt>
      <trkpt lat="48.693" lon="6.18094">
        <ele>205.9</ele>
        <time>2020-06-29T13:28:50Z</time>
      </trkpt>
      <trkpt lat="48.693" lon="6.18094">
        <ele>205.9</ele>
        <time>2020-06-29T13:28:51Z</time>
      </trkpt>
      <trkpt lat="48.693" lon="6.18094">
        <ele>206</ele>
        <time>2020-06-29T13:28:52Z</time>
      </trkpt>
      <trkpt lat="48.693" lon="6.18094">
        <ele>206</ele>
        <time>2020-06-29T13:28:53Z</time>
      </trkpt>
      <trkpt lat="48.69301" lon="6.18094">
        <ele>206</ele>
        <time>2020-06-29T13:28:54Z</time>
      </trkpt>
      <trkpt lat="48.69301" lon="6.18094">
        <ele>206</ele>
        <time>2020-06-29T13:28:55Z</time>
      </trkpt>
      <trkpt lat="48.69301" lon="6.18094">
        <ele>206</ele>
        <time>2020-06-29T13:28:56Z</time>
      </trkpt>
      <trkpt lat="48.69301" lon="6.18094">
        <ele>206</ele>
        <time>2020-06-29T13:28:57Z</time>
      </trkpt>
      <trkpt lat="48.69301" lon="6.18094">
        <ele>206</ele>
        <time>2020-06-29T13:28:58Z</time>
      </trkpt>
      <trkpt lat="48.69301" lon="6.18094">
        <ele>206</ele>
        <time>2020-06-29T13:28:59Z</time>
      </trkpt>
      <trkpt lat="48.69301" lon="6.18094">
        <ele>206</ele>
        <time>2020-06-29T13:29:00Z</time>
      </trkpt>
      <trkpt lat="48.69301" lon="6.18094">
        <ele>206</ele>
        <time>2020-06-29T13:29:01Z</time>
      </trkpt>
      <trkpt lat="48.69301" lon="6.18094">
        <ele>206</ele>
        <time>2020-06-29T13:29:02Z</time>
      </trkpt>
      <trkpt lat="48.69301" lon="6.18094">
        <ele>206</ele>
        <time>2020-06-29T13:29:03Z</time>
      </trkpt>
      <trkpt lat="48.69301" lon="6.18095">
        <ele>206</ele>
        <time>2020-06-29T13:29:04Z</time>
      </trkpt>
      <trkpt lat="48.69302" lon="6.18095">
        <ele>206</ele>
        <time>2020-06-29T13:29:05Z</time>
      </trkpt>
      <trkpt lat="48.69299" lon="6.18103">
        <ele>206</ele>
        <time>2020-06-29T13:36:20Z</time>
      </trkpt>
      <trkpt lat="48.693" lon="6.18102">
        <ele>206</ele>
        <time>2020-06-29T13:36:21Z</time>
      </trkpt>
      <trkpt lat="48.693" lon="6.18102">
        <ele>206</ele>
        <time>2020-06-29T13:36:22Z</time>
      </trkpt>
      <trkpt lat="48.693" lon="6.18101">
        <ele>206</ele>
        <time>2020-06-29T13:36:23Z</time>
      </trkpt>
      <trkpt lat="48.69301" lon="6.18101">
        <ele>206</ele>
        <time>2020-06-29T13:36:24Z</time>
      </trkpt>
      <trkpt lat="48.69301" lon="6.181">
        <ele>206</ele>
        <time>2020-06-29T13:36:25Z</time>
      </trkpt>
      <trkpt lat="48.69302" lon="6.18099">
        <ele>206</ele>
        <time>2020-06-29T13:36:26Z</time>
      </trkpt>
      <trkpt lat="48.69302" lon="6.18098">
        <ele>206</ele>
        <time>2020-06-29T13:36:27Z</time>
      </trkpt>
      <trkpt lat="48.69303" lon="6.18098">
        <ele>206</ele>
        <time>2020-06-29T13:36:28Z</time>
      </trkpt>
      <trkpt lat="48.69303" lon="6.18097">
        <ele>206</ele>
        <time>2020-06-29T13:36:29Z</time>
      </trkpt>
      <trkpt lat="48.69303" lon="6.18096">
        <ele>206</ele>
        <time>2020-06-29T13:36:30Z</time>
      </trkpt>
      <trkpt lat="48.69303" lon="6.18096">
        <ele>206</ele>
        <time>2020-06-29T13:36:31Z</time>
      </trkpt>
      <trkpt lat="48.69303" lon="6.18095">
        <ele>206</ele>
        <time>2020-06-29T13:36:32Z</time>
      </trkpt>
      <trkpt lat="48.69303" lon="6.18095">
        <ele>206</ele>
        <time>2020-06-29T13:36:33Z</time>
      </trkpt>
      <trkpt lat="48.69303" lon="6.18095">
        <ele>206</ele>
        <time>2020-06-29T13:36:34Z</time>
      </trkpt>
      <trkpt lat="48.69302" lon="6.18094">
        <ele>206</ele>
        <time>2020-06-29T13:36:35Z</time>
      </trkpt>
      <trkpt lat="48.69303" lon="6.18093">
        <ele>206</ele>
        <time>2020-06-29T13:36:36Z</time>
      </trkpt>
      <trkpt lat="48.69303" lon="6.18092">
        <ele>206</ele>
        <time>2020-06-29T13:36:37Z</time>
      </trkpt>
      <trkpt lat="48.69303" lon="6.18091">
        <ele>206</ele>
        <time>2020-06-29T13:36:38Z</time>
      </trkpt>
      <trkpt lat="48.69304" lon="6.1809">
        <ele>206</ele>
        <time>2020-06-29T13:36:39Z</time>
      </trkpt>
      <trkpt lat="48.69304" lon="6.1809">
        <ele>206</ele>
        <time>2020-06-29T13:36:40Z</time>
      </trkpt>
      <trkpt lat="48.69304" lon="6.18091">
        <ele>206</ele>
        <time>2020-06-29T13:36:41Z</time>
      </trkpt>
      <trkpt lat="48.69303" lon="6.18093">
        <ele>206</ele>
        <time>2020-06-29T13:36:42Z</time>
      </trkpt>
      <trkpt lat="48.69303" lon="6.18094">
        <ele>206</ele>
        <time>2020-06-29T13:36:43Z</time>
      </trkpt>
      <trkpt lat="48.69302" lon="6.18095">
        <ele>206</ele>
        <time>2020-06-29T13:36:44Z</time>
      </trkpt>
      <trkpt lat="48.69302" lon="6.18095">
        <ele>206</ele>
        <time>2020-06-29T13:36:45Z</time>
      </trkpt>
      <trkpt lat="48.69302" lon="6.18095">
        <ele>206</ele>
        <time>2020-06-29T13:36:46Z</time>
      </trkpt>
      <trkpt lat="48.69302" lon="6.18095">
        <ele>206</ele>
        <time>2020-06-29T13:36:47Z</time>
      </trkpt>
      <trkpt lat="48.69301" lon="6.18096">
        <ele>206</ele>
        <time>2020-06-29T13:36:48Z</time>
      </trkpt>
      <trkpt lat="48.69301" lon="6.18097">
        <ele>206</ele>
        <time>2020-06-29T13:36:49Z</time>
      </trkpt>
      <trkpt lat="48.69301" lon="6.18098">
        <ele>206</ele>
        <time>2020-06-29T13:36:50Z</time>
      </trkpt>
      <trkpt lat="48.69291" lon="6.18105">
        <ele>205.9</ele>
        <time>2020-06-29T13:38:10Z</time>
      </trkpt>
      <trkpt lat="48.6929" lon="6.18104">
        <ele>205.9</ele>
        <time>2020-06-29T13:38:11Z</time>
      </trkpt>
      <trkpt lat="48.69289" lon="6.18102">
        <ele>205.9</ele>
        <time>2020-06-29T13:38:12Z</time>
      </trkpt>
      <trkpt lat="48.69289" lon="6.18102">
        <ele>205.9</ele>
        <time>2020-06-29T13:38:13Z</time>
      </trkpt>
      <trkpt lat="48.69289" lon="6.18102">
        <ele>205.9</ele>
        <time>2020-06-29T13:38:14Z</time>
      </trkpt>
      <trkpt lat="48.69289" lon="6.18102">
        <ele>205.9</ele>
        <time>2020-06-29T13:38:15Z</time>
      </trkpt>
      <trkpt lat="48.69289" lon="6.18102">
        <ele>205.9</ele>
        <time>2020-06-29T13:38:16Z</time>
      </trkpt>
      <trkpt lat="48.69289" lon="6.18102">
        <ele>205.9</ele>
        <time>2020-06-29T13:38:17Z</time>
      </trkpt>
      <trkpt lat="48.69289" lon="6.18102">
        <ele>205.9</ele>
        <time>2020-06-29T13:38:18Z</time>
      </trkpt>
      <trkpt lat="48.69289" lon="6.18102">
        <ele>205.9</ele>
        <time>2020-06-29T13:38:19Z</time>
      </trkpt>
      <trkpt lat="48.69289" lon="6.18102">
        <ele>205.9</ele>
        <time>2020-06-29T13:38:20Z</time>
      </trkpt>
      <trkpt lat="48.69289" lon="6.18102">
        <ele>205.9</ele>
        <time>2020-06-29T13:38:21Z</time>
      </trkpt>
      <trkpt lat="48.69289" lon="6.18101">
        <ele>205.9</ele>
        <time>2020-06-29T13:38:22Z</time>
      </trkpt>
      <trkpt lat="48.69288" lon="6.181">
        <ele>206</ele>
        <time>2020-06-29T13:38:23Z</time>
      </trkpt>
      <trkpt lat="48.69296" lon="6.18103">
        <ele>206</ele>
        <time>2020-06-29T13:50:32Z</time>
      </trkpt>
      <trkpt lat="48.69295" lon="6.18102">
        <ele>206</ele>
        <time>2020-06-29T13:50:33Z</time>
      </trkpt>
      <trkpt lat="48.69295" lon="6.18102">
        <ele>206</ele>
        <time>2020-06-29T13:50:34Z</time>
      </trkpt>
      <trkpt lat="48.69295" lon="6.181">
        <ele>206</ele>
        <time>2020-06-29T13:50:35Z</time>
      </trkpt>
      <trkpt lat="48.69295" lon="6.18099">
        <ele>206</ele>
        <time>2020-06-29T13:50:36Z</time>
      </trkpt>
      <trkpt lat="48.69295" lon="6.18099">
        <ele>206</ele>
        <time>2020-06-29T13:50:37Z</time>
      </trkpt>
      <trkpt lat="48.69296" lon="6.18099">
        <ele>206</ele>
        <time>2020-06-29T13:50:38Z</time>
      </trkpt>
      <trkpt lat="48.69295" lon="6.18099">
        <ele>206</ele>
        <time>2020-06-29T13:50:39Z</time>
      </trkpt>
      <trkpt lat="48.69295" lon="6.18099">
        <ele>206</ele>
        <time>2020-06-29T13:50:40Z</time>
      </trkpt>
      <trkpt lat="48.69295" lon="6.18099">
        <ele>206</ele>
        <time>2020-06-29T13:50:41Z</time>
      </trkpt>
      <trkpt lat="48.69295" lon="6.18098">
        <ele>206</ele>
        <time>2020-06-29T13:50:42Z</time>
      </trkpt>
      <trkpt lat="48.69295" lon="6.18098">
        <ele>206</ele>
        <time>2020-06-29T13:50:43Z</time>
      </trkpt>
      <trkpt lat="48.69294" lon="6.18098">
        <ele>206</ele>
        <time>2020-06-29T13:50:44Z</time>
      </trkpt>
      <trkpt lat="48.69289" lon="6.18095">
        <ele>206.1</ele>
        <time>2020-06-29T13:53:12Z</time>
      </trkpt>
      <trkpt lat="48.69289" lon="6.18096">
        <ele>206.1</ele>
        <time>2020-06-29T13:53:13Z</time>
      </trkpt>
      <trkpt lat="48.69288" lon="6.18096">
        <ele>206.1</ele>
        <time>2020-06-29T13:53:14Z</time>
      </trkpt>
      <trkpt lat="48.69289" lon="6.18096">
        <ele>206.1</ele>
        <time>2020-06-29T13:53:15Z</time>
      </trkpt>
      <trkpt lat="48.69289" lon="6.18097">
        <ele>206.1</ele>
        <time>2020-06-29T13:53:16Z</time>
      </trkpt>
      <trkpt lat="48.69289" lon="6.18097">
        <ele>206.1</ele>
        <time>2020-06-29T13:53:17Z</time>
      </trkpt>
      <trkpt lat="48.69289" lon="6.18096">
        <ele>206.1</ele>
        <time>2020-06-29T13:53:18Z</time>
      </trkpt>
      <trkpt lat="48.6929" lon="6.18096">
        <ele>206.1</ele>
        <time>2020-06-29T13:53:19Z</time>
      </trkpt>
      <trkpt lat="48.6929" lon="6.18096">
        <ele>206.1</ele>
        <time>2020-06-29T13:53:20Z</time>
      </trkpt>
      <trkpt lat="48.6929" lon="6.18095">
        <ele>206.1</ele>
        <time>2020-06-29T13:53:21Z</time>
      </trkpt>
      <trkpt lat="48.6929" lon="6.18096">
        <ele>206.1</ele>
        <time>2020-06-29T13:53:22Z</time>
      </trkpt>
      <trkpt lat="48.6929" lon="6.18094">
        <ele>206.1</ele>
        <time>2020-06-29T13:53:23Z</time>
      </trkpt>
      <trkpt lat="48.6929" lon="6.18094">
        <ele>206.1</ele>
        <time>2020-06-29T13:53:24Z</time>
      </trkpt>
      <trkpt lat="48.69291" lon="6.18095">
        <ele>206.2</ele>
        <time>2020-06-29T13:53:25Z</time>
      </trkpt>
      <trkpt lat="48.69292" lon="6.18096">
        <ele>206.2</ele>
        <time>2020-06-29T13:53:26Z</time>
      </trkpt>
      <trkpt lat="48.69293" lon="6.18095">
        <ele>206.2</ele>
        <time>2020-06-29T13:53:27Z</time>
      </trkpt>
      <trkpt lat="48.69294" lon="6.18095">
        <ele>206.2</ele>
        <time>2020-06-29T13:53:28Z</time>
      </trkpt>
      <trkpt lat="48.69294" lon="6.18095">
        <ele>206.2</ele>
        <time>2020-06-29T13:53:29Z</time>
      </trkpt>
      <trkpt lat="48.69293" lon="6.18095">
        <ele>206.2</ele>
        <time>2020-06-29T13:53:30Z</time>
      </trkpt>
      <trkpt lat="48.69293" lon="6.18095">
        <ele>206.2</ele>
        <time>2020-06-29T13:53:31Z</time>
      </trkpt>
      <trkpt lat="48.69293" lon="6.18095">
        <ele>206.2</ele>
        <time>2020-06-29T13:53:32Z</time>
      </trkpt>
      <trkpt lat="48.69293" lon="6.18095">
        <ele>206.2</ele>
        <time>2020-06-29T13:53:33Z</time>
      </trkpt>
      <trkpt lat="48.69293" lon="6.18095">
        <ele>206.2</ele>
        <time>2020-06-29T13:53:34Z</time>
      </trkpt>
      <trkpt lat="48.69293" lon="6.18096">
        <ele>206.2</ele>
        <time>2020-06-29T13:53:35Z</time>
      </trkpt>
      <trkpt lat="48.69293" lon="6.18096">
        <ele>206.2</ele>
        <time>2020-06-29T13:53:36Z</time>
      </trkpt>
      <trkpt lat="48.69294" lon="6.18096">
        <ele>206.2</ele>
        <time>2020-06-29T13:53:37Z</time>
      </trkpt>
      <trkpt lat="48.69294" lon="6.18095">
        <ele>206.2</ele>
        <time>2020-06-29T13:53:38Z</time>
      </trkpt>
      <trkpt lat="48.69295" lon="6.18095">
        <ele>206.3</ele>
        <time>2020-06-29T13:53:39Z</time>
      </trkpt>
      <trkpt lat="48.69295" lon="6.18094">
        <ele>206.3</ele>
        <time>2020-06-29T13:53:40Z</time>
      </trkpt>
      <trkpt lat="48.69295" lon="6.18094">
        <ele>206.3</ele>
        <time>2020-06-29T13:53:41Z</time>
      </trkpt>
      <trkpt lat="48.69296" lon="6.18095">
        <ele>206.3</ele>
        <time>2020-06-29T13:53:42Z</time>
      </trkpt>
      <trkpt lat="48.69297" lon="6.18094">
        <ele>206.3</ele>
        <time>2020-06-29T13:53:43Z</time>
      </trkpt>
      <trkpt lat="48.69298" lon="6.18094">
        <ele>206.3</ele>
        <time>2020-06-29T13:53:44Z</time>
      </trkpt>
      <trkpt lat="48.69298" lon="6.18094">
        <ele>206.3</ele>
        <time>2020-06-29T13:53:45Z</time>
      </trkpt>
      <trkpt lat="48.69298" lon="6.18094">
        <ele>206.3</ele>
        <time>2020-06-29T13:53:46Z</time>
      </trkpt>
      <trkpt lat="48.69299" lon="6.18095">
        <ele>206.3</ele>
        <time>2020-06-29T13:53:47Z</time>
      </trkpt>
      <trkpt lat="48.69299" lon="6.18094">
        <ele>206.3</ele>
        <time>2020-06-29T13:53:48Z</time>
      </trkpt>
      <trkpt lat="48.69299" lon="6.18093">
        <ele>206.3</ele>
        <time>2020-06-29T13:53:49Z</time>
      </trkpt>
      <trkpt lat="48.69299" lon="6.18093">
        <ele>206.3</ele>
        <time>2020-06-29T13:53:50Z</time>
      </trkpt>
      <trkpt lat="48.693" lon="6.18096">
        <ele>206.4</ele>
        <time>2020-06-29T13:54:17Z</time>
      </trkpt>
      <trkpt lat="48.69301" lon="6.18095">
        <ele>206.4</ele>
        <time>2020-06-29T13:54:18Z</time>
      </trkpt>
      <trkpt lat="48.69301" lon="6.18096">
        <ele>206.4</ele>
        <time>2020-06-29T13:54:19Z</time>
      </trkpt>
      <trkpt lat="48.69301" lon="6.18096">
        <ele>206.4</ele>
        <time>2020-06-29T13:54:20Z</time>
      </trkpt>
      <trkpt lat="48.69301" lon="6.18097">
        <ele>206.4</ele>
        <time>2020-06-29T13:54:21Z</time>
      </trkpt>
      <trkpt lat="48.69301" lon="6.18096">
        <ele>206.4</ele>
        <time>2020-06-29T13:54:22Z</time>
      </trkpt>
      <trkpt lat="48.69301" lon="6.18096">
        <ele>206.4</ele>
        <time>2020-06-29T13:54:23Z</time>
      </trkpt>
      <trkpt lat="48.69301" lon="6.18096">
        <ele>206.4</ele>
        <time>2020-06-29T13:54:24Z</time>
      </trkpt>
      <trkpt lat="48.69301" lon="6.18095">
        <ele>206.4</ele>
        <time>2020-06-29T13:54:25Z</time>
      </trkpt>
      <trkpt lat="48.69301" lon="6.18096">
        <ele>206.4</ele>
        <time>2020-06-29T13:54:26Z</time>
      </trkpt>
      <trkpt lat="48.693" lon="6.18096">
        <ele>206.4</ele>
        <time>2020-06-29T13:54:27Z</time>
      </trkpt>
      <trkpt lat="48.693" lon="6.18096">
        <ele>206.4</ele>
        <time>2020-06-29T13:54:28Z</time>
      </trkpt>
      <trkpt lat="48.693" lon="6.18097">
        <ele>206.4</ele>
        <time>2020-06-29T13:54:29Z</time>
      </trkpt>
      <trkpt lat="48.693" lon="6.18098">
        <ele>206.4</ele>
        <time>2020-06-29T13:54:30Z</time>
      </trkpt>
      <trkpt lat="48.693" lon="6.18098">
        <ele>206.4</ele>
        <time>2020-06-29T13:54:31Z</time>
      </trkpt>
      <trkpt lat="48.693" lon="6.18098">
        <ele>206.4</ele>
        <time>2020-06-29T13:54:32Z</time>
      </trkpt>
      <trkpt lat="48.693" lon="6.18097">
        <ele>206.4</ele>
        <time>2020-06-29T13:54:33Z</time>
      </trkpt>
      <trkpt lat="48.69301" lon="6.18096">
        <ele>206.5</ele>
        <time>2020-06-29T13:54:34Z</time>
      </trkpt>
      <trkpt lat="48.69301" lon="6.18095">
        <ele>206.5</ele>
        <time>2020-06-29T13:54:35Z</time>
      </trkpt>
      <trkpt lat="48.69302" lon="6.18094">
        <ele>206.5</ele>
        <time>2020-06-29T13:54:36Z</time>
      </trkpt>
      <trkpt lat="48.69301" lon="6.18095">
        <ele>206.5</ele>
        <time>2020-06-29T13:54:37Z</time>
      </trkpt>
      <trkpt lat="48.69302" lon="6.18093">
        <ele>206.5</ele>
        <time>2020-06-29T13:54:38Z</time>
      </trkpt>
      <trkpt lat="48.69301" lon="6.18093">
        <ele>206.5</ele>
        <time>2020-06-29T13:54:39Z</time>
      </trkpt>
      <trkpt lat="48.69302" lon="6.18092">
        <ele>206.5</ele>
        <time>2020-06-29T13:54:40Z</time>
      </trkpt>
      <trkpt lat="48.693" lon="6.1809">
        <ele>206.6</ele>
        <time>2020-06-29T13:54:41Z</time>
      </trkpt>
      <trkpt lat="48.69298" lon="6.18088">
        <ele>206.6</ele>
        <time>2020-06-29T13:54:42Z</time>
      </trkpt>
      <trkpt lat="48.69296" lon="6.18087">
        <ele>206.7</ele>
        <time>2020-06-29T13:54:43Z</time>
      </trkpt>
      <trkpt lat="48.69293" lon="6.18086">
        <ele>206.7</ele>
        <time>2020-06-29T13:54:44Z</time>
      </trkpt>
      <trkpt lat="48.69291" lon="6.18085">
        <ele>206.7</ele>
        <time>2020-06-29T13:54:45Z</time>
      </trkpt>
      <trkpt lat="48.69289" lon="6.18084">
        <ele>206.8</ele>
        <time>2020-06-29T13:54:46Z</time>
      </trkpt>
      <trkpt lat="48.69286" lon="6.18082">
        <ele>206.8</ele>
        <time>2020-06-29T13:59:44Z</time>
      </trkpt>
      <trkpt lat="48.69284" lon="6.18081">
        <ele>206.9</ele>
        <time>2020-06-29T13:59:45Z</time>
      </trkpt>
      <trkpt lat="48.69284" lon="6.18077">
        <ele>206.9</ele>
        <time>2020-06-29T13:59:46Z</time>
      </trkpt>
      <trkpt lat="48.69283" lon="6.18073">
        <ele>207</ele>
        <time>2020-06-29T13:59:47Z</time>
      </trkpt>
      <trkpt lat="48.69282" lon="6.18069">
        <ele>207</ele>
        <time>2020-06-29T13:59:48Z</time>
      </trkpt>
      <trkpt lat="48.69281" lon="6.18063">
        <ele>207.1</ele>
        <time>2020-06-29T13:59:49Z</time>
      </trkpt>
      <trkpt lat="48.69281" lon="6.18062">
        <ele>207.1</ele>
        <time>2020-06-29T13:59:50Z</time>
      </trkpt>
      <trkpt lat="48.6928" lon="6.18058">
        <ele>207.1</ele>
        <time>2020-06-29T13:59:51Z</time>
      </trkpt>
      <trkpt lat="48.69279" lon="6.18054">
        <ele>207.2</ele>
        <time>2020-06-29T13:59:52Z</time>
      </trkpt>
      <trkpt lat="48.69278" lon="6.18049">
        <ele>207.2</ele>
        <time>2020-06-29T13:59:53Z</time>
      </trkpt>
      <trkpt lat="48.69278" lon="6.18048">
        <ele>207.2</ele>
        <time>2020-06-29T13:59:54Z</time>
      </trkpt>
      <trkpt lat="48.69276" lon="6.18043">
        <ele>207.3</ele>
        <time>2020-06-29T13:59:55Z</time>
      </trkpt>
      <trkpt lat="48.69276" lon="6.18042">
        <ele>207.3</ele>
        <time>2020-06-29T13:59:56Z</time>
      </trkpt>
      <trkpt lat="48.69274" lon="6.18037">
        <ele>207.4</ele>
        <time>2020-06-29T13:59:57Z</time>
      </trkpt>
      <trkpt lat="48.69274" lon="6.18035">
        <ele>207.4</ele>
        <time>2020-06-29T13:59:58Z</time>
      </trkpt>
      <trkpt lat="48.69272" lon="6.18031">
        <ele>207.5</ele>
        <time>2020-06-29T13:59:59Z</time>
      </trkpt>
      <trkpt lat="48.6927" lon="6.18026">
        <ele>207.5</ele>
        <time>2020-06-29T14:00:00Z</time>
      </trkpt>
      <trkpt lat="48.69269" lon="6.18022">
        <ele>207.6</ele>
        <time>2020-06-29T14:00:01Z</time>
      </trkpt>
      <trkpt lat="48.69267" lon="6.18017">
        <ele>207.7</ele>
        <time>2020-06-29T14:00:02Z</time>
      </trkpt>
      <trkpt lat="48.69265" lon="6.18011">
        <ele>207.8</ele>
        <time>2020-06-29T14:00:03Z</time>
      </trkpt>
      <trkpt lat="48.69263" lon="6.18005">
        <ele>207.9</ele>
        <time>2020-06-29T14:00:04Z</time>
      </trkpt>
      <trkpt lat="48.69262" lon="6.18001">
        <ele>207.9</ele>
        <time>2020-06-29T14:00:05Z</time>
      </trkpt>
      <trkpt lat="48.69261" lon="6.17996">
        <ele>208</ele>
        <time>2020-06-29T14:00:06Z</time>
      </trkpt>
      <trkpt lat="48.69259" lon="6.17991">
        <ele>208.1</ele>
        <time>2020-06-29T14:00:07Z</time>
      </trkpt>
      <trkpt lat="48.69257" lon="6.17986">
        <ele>208.1</ele>
        <time>2020-06-29T14:00:08Z</time>
      </trkpt>
      <trkpt lat="48.69256" lon="6.17981">
        <ele>208.3</ele>
        <time>2020-06-29T14:00:09Z</time>
      </trkpt>
      <trkpt lat="48.69255" lon="6.17976">
        <ele>208.5</ele>
        <time>2020-06-29T14:00:10Z</time>
      </trkpt>
      <trkpt lat="48.69253" lon="6.17972">
        <ele>208.6</ele>
        <time>2020-06-29T14:00:11Z</time>
      </trkpt>
      <trkpt lat="48.69252" lon="6.17968">
        <ele>208.7</ele>
        <time>2020-06-29T14:00:12Z</time>
      </trkpt>
      <trkpt lat="48.69249" lon="6.17963">
        <ele>208.9</ele>
        <time>2020-06-29T14:00:13Z</time>
      </trkpt>
      <trkpt lat="48.69248" lon="6.17959">
        <ele>209</ele>
        <time>2020-06-29T14:00:14Z</time>
      </trkpt>
      <trkpt lat="48.69247" lon="6.17954">
        <ele>209.1</ele>
        <time>2020-06-29T14:00:15Z</time>
      </trkpt>
      <trkpt lat="48.69246" lon="6.17952">
        <ele>209.1</ele>
        <time>2020-06-29T14:00:16Z</time>
      </trkpt>
      <trkpt lat="48.69245" lon="6.17947">
        <ele>209.2</ele>
        <time>2020-06-29T14:00:17Z</time>
      </trkpt>
      <trkpt lat="48.69244" lon="6.17943">
        <ele>209.4</ele>
        <time>2020-06-29T14:00:18Z</time>
      </trkpt>
      <trkpt lat="48.69243" lon="6.17937">
        <ele>209.5</ele>
        <time>2020-06-29T14:00:19Z</time>
      </trkpt>
      <trkpt lat="48.69242" lon="6.1793">
        <ele>209.7</ele>
        <time>2020-06-29T14:00:20Z</time>
      </trkpt>
      <trkpt lat="48.69241" lon="6.17923">
        <ele>209.8</ele>
        <time>2020-06-29T14:00:21Z</time>
      </trkpt>
      <trkpt lat="48.6924" lon="6.17919">
        <ele>209.9</ele>
        <time>2020-06-29T14:00:22Z</time>
      </trkpt>
      <trkpt lat="48.69239" lon="6.17915">
        <ele>210</ele>
        <time>2020-06-29T14:00:23Z</time>
      </trkpt>
      <trkpt lat="48.69238" lon="6.17911">
        <ele>210.1</ele>
        <time>2020-06-29T14:00:24Z</time>
      </trkpt>
      <trkpt lat="48.69238" lon="6.17909">
        <ele>210.2</ele>
        <time>2020-06-29T14:00:25Z</time>
      </trkpt>
      <trkpt lat="48.69236" lon="6.17907">
        <ele>210.3</ele>
        <time>2020-06-29T14:00:26Z</time>
      </trkpt>
      <trkpt lat="48.69234" lon="6.17903">
        <ele>210.3</ele>
        <time>2020-06-29T14:00:27Z</time>
      </trkpt>
      <trkpt lat="48.69233" lon="6.17898">
        <ele>210.5</ele>
        <time>2020-06-29T14:00:28Z</time>
      </trkpt>
      <trkpt lat="48.69232" lon="6.17896">
        <ele>210.5</ele>
        <time>2020-06-29T14:00:29Z</time>
      </trkpt>
      <trkpt lat="48.6923" lon="6.17892">
        <ele>210.6</ele>
        <time>2020-06-29T14:00:30Z</time>
      </trkpt>
      <trkpt lat="48.69229" lon="6.17887">
        <ele>210.6</ele>
        <time>2020-06-29T14:00:31Z</time>
      </trkpt>
      <trkpt lat="48.69227" lon="6.17881">
        <ele>210.7</ele>
        <time>2020-06-29T14:00:32Z</time>
      </trkpt>
      <trkpt lat="48.69224" lon="6.17874">
        <ele>210.8</ele>
        <time>2020-06-29T14:00:33Z</time>
      </trkpt>
      <trkpt lat="48.69217" lon="6.17866">
        <ele>210.9</ele>
        <time>2020-06-29T14:00:34Z</time>
      </trkpt>
      <trkpt lat="48.69214" lon="6.17859">
        <ele>211</ele>
        <time>2020-06-29T14:00:35Z</time>
      </trkpt>
      <trkpt lat="48.69211" lon="6.17851">
        <ele>211.2</ele>
        <time>2020-06-29T14:00:36Z</time>
      </trkpt>
      <trkpt lat="48.69208" lon="6.17843">
        <ele>211.3</ele>
        <time>2020-06-29T14:00:37Z</time>
      </trkpt>
      <trkpt lat="48.69206" lon="6.17838">
        <ele>211.4</ele>
        <time>2020-06-29T14:00:38Z</time>
      </trkpt>
      <trkpt lat="48.69205" lon="6.17833">
        <ele>211.5</ele>
        <time>2020-06-29T14:00:39Z</time>
      </trkpt>
      <trkpt lat="48.69204" lon="6.17828">
        <ele>211.6</ele>
        <time>2020-06-29T14:00:40Z</time>
      </trkpt>
      <trkpt lat="48.69202" lon="6.17823">
        <ele>211.7</ele>
        <time>2020-06-29T14:00:41Z</time>
      </trkpt>
      <trkpt lat="48.69201" lon="6.17818">
        <ele>211.8</ele>
        <time>2020-06-29T14:00:42Z</time>
      </trkpt>
      <trkpt lat="48.69199" lon="6.17813">
        <ele>211.9</ele>
        <time>2020-06-29T14:00:43Z</time>
      </trkpt>
      <trkpt lat="48.69198" lon="6.17806">
        <ele>212</ele>
        <time>2020-06-29T14:00:44Z</time>
      </trkpt>
      <trkpt lat="48.69199" lon="6.17796">
        <ele>212.2</ele>
        <time>2020-06-29T14:00:45Z</time>
      </trkpt>
      <trkpt lat="48.69197" lon="6.1779">
        <ele>212.3</ele>
        <time>2020-06-29T14:00:46Z</time>
      </trkpt>
      <trkpt lat="48.69196" lon="6.17785">
        <ele>212.4</ele>
        <time>2020-06-29T14:00:47Z</time>
      </trkpt>
      <trkpt lat="48.69195" lon="6.17779">
        <ele>212.5</ele>
        <time>2020-06-29T14:00:48Z</time>
      </trkpt>
      <trkpt lat="48.69194" lon="6.17775">
        <ele>212.6</ele>
        <time>2020-06-29T14:00:49Z</time>
      </trkpt>
      <trkpt lat="48.69192" lon="6.1777">
        <ele>212.6</ele>
        <time>2020-06-29T14:00:50Z</time>
      </trkpt>
      <trkpt lat="48.6919" lon="6.17764">
        <ele>212.6</ele>
        <time>2020-06-29T14:00:51Z</time>
      </trkpt>
      <trkpt lat="48.69188" lon="6.17758">
        <ele>212.6</ele>
        <time>2020-06-29T14:00:52Z</time>
      </trkpt>
      <trkpt lat="48.69185" lon="6.1775">
        <ele>212.7</ele>
        <time>2020-06-29T14:00:53Z</time>
      </trkpt>
      <trkpt lat="48.69181" lon="6.17743">
        <ele>212.8</ele>
        <time>2020-06-29T14:00:54Z</time>
      </trkpt>
      <trkpt lat="48.69178" lon="6.17734">
        <ele>213</ele>
        <time>2020-06-29T14:00:55Z</time>
      </trkpt>
      <trkpt lat="48.69175" lon="6.17727">
        <ele>213.1</ele>
        <time>2020-06-29T14:00:56Z</time>
      </trkpt>
      <trkpt lat="48.69173" lon="6.17721">
        <ele>213.2</ele>
        <time>2020-06-29T14:00:57Z</time>
      </trkpt>
      <trkpt lat="48.6917" lon="6.17715">
        <ele>213.3</ele>
        <time>2020-06-29T14:00:58Z</time>
      </trkpt>
      <trkpt lat="48.69169" lon="6.17709">
        <ele>213.4</ele>
        <time>2020-06-29T14:00:59Z</time>
      </trkpt>
      <trkpt lat="48.69168" lon="6.17704">
        <ele>213.5</ele>
        <time>2020-06-29T14:01:00Z</time>
      </trkpt>
      <trkpt lat="48.69166" lon="6.177">
        <ele>213.5</ele>
        <time>2020-06-29T14:01:01Z</time>
      </trkpt>
      <trkpt lat="48.69165" lon="6.17695">
        <ele>213.6</ele>
        <time>2020-06-29T14:01:02Z</time>
      </trkpt>
      <trkpt lat="48.69165" lon="6.17693">
        <ele>213.6</ele>
        <time>2020-06-29T14:01:03Z</time>
      </trkpt>
      <trkpt lat="48.69164" lon="6.17688">
        <ele>213.7</ele>
        <time>2020-06-29T14:01:04Z</time>
      </trkpt>
      <trkpt lat="48.69164" lon="6.17686">
        <ele>213.7</ele>
        <time>2020-06-29T14:01:05Z</time>
      </trkpt>
      <trkpt lat="48.69162" lon="6.17682">
        <ele>213.7</ele>
        <time>2020-06-29T14:01:06Z</time>
      </trkpt>
      <trkpt lat="48.69161" lon="6.17681">
        <ele>213.7</ele>
        <time>2020-06-29T14:01:07Z</time>
      </trkpt>
      <trkpt lat="48.69161" lon="6.17679">
        <ele>213.8</ele>
        <time>2020-06-29T14:01:08Z</time>
      </trkpt>
      <trkpt lat="48.69161" lon="6.17678">
        <ele>213.8</ele>
        <time>2020-06-29T14:01:09Z</time>
      </trkpt>
      <trkpt lat="48.6916" lon="6.17677">
        <ele>213.8</ele>
        <time>2020-06-29T14:01:10Z</time>
      </trkpt>
      <trkpt lat="48.6916" lon="6.17674">
        <ele>213.8</ele>
        <time>2020-06-29T14:01:11Z</time>
      </trkpt>
      <trkpt lat="48.6916" lon="6.17673">
        <ele>213.8</ele>
        <time>2020-06-29T14:01:12Z</time>
      </trkpt>
      <trkpt lat="48.6916" lon="6.17672">
        <ele>213.9</ele>
        <time>2020-06-29T14:01:13Z</time>
      </trkpt>
      <trkpt lat="48.6916" lon="6.17671">
        <ele>213.9</ele>
        <time>2020-06-29T14:01:14Z</time>
      </trkpt>
      <trkpt lat="48.6916" lon="6.17667">
        <ele>213.9</ele>
        <time>2020-06-29T14:01:15Z</time>
      </trkpt>
      <trkpt lat="48.69159" lon="6.17666">
        <ele>213.9</ele>
        <time>2020-06-29T14:01:16Z</time>
      </trkpt>
      <trkpt lat="48.69158" lon="6.1766">
        <ele>214</ele>
        <time>2020-06-29T14:01:17Z</time>
      </trkpt>
      <trkpt lat="48.69157" lon="6.17658">
        <ele>214</ele>
        <time>2020-06-29T14:01:18Z</time>
      </trkpt>
      <trkpt lat="48.69156" lon="6.17653">
        <ele>214.1</ele>
        <time>2020-06-29T14:01:19Z</time>
      </trkpt>
      <trkpt lat="48.69155" lon="6.17649">
        <ele>214.1</ele>
        <time>2020-06-29T14:01:20Z</time>
      </trkpt>
      <trkpt lat="48.69153" lon="6.17643">
        <ele>214.2</ele>
        <time>2020-06-29T14:01:21Z</time>
      </trkpt>
      <trkpt lat="48.69152" lon="6.17634">
        <ele>214.2</ele>
        <time>2020-06-29T14:01:22Z</time>
      </trkpt>
      <trkpt lat="48.69149" lon="6.17627">
        <ele>214.3</ele>
        <time>2020-06-29T14:01:23Z</time>
      </trkpt>
      <trkpt lat="48.69146" lon="6.17621">
        <ele>214.4</ele>
        <time>2020-06-29T14:01:24Z</time>
      </trkpt>
      <trkpt lat="48.69144" lon="6.17611">
        <ele>214.6</ele>
        <time>2020-06-29T14:01:25Z</time>
      </trkpt>
      <trkpt lat="48.69142" lon="6.17604">
        <ele>214.7</ele>
        <time>2020-06-29T14:01:26Z</time>
      </trkpt>
      <trkpt lat="48.69139" lon="6.17595">
        <ele>214.8</ele>
        <time>2020-06-29T14:01:27Z</time>
      </trkpt>
      <trkpt lat="48.69137" lon="6.17587">
        <ele>214.9</ele>
        <time>2020-06-29T14:01:28Z</time>
      </trkpt>
      <trkpt lat="48.69135" lon="6.1758">
        <ele>215</ele>
        <time>2020-06-29T14:01:29Z</time>
      </trkpt>
      <trkpt lat="48.69133" lon="6.17574">
        <ele>215.1</ele>
        <time>2020-06-29T14:01:30Z</time>
      </trkpt>
      <trkpt lat="48.69132" lon="6.17568">
        <ele>215.2</ele>
        <time>2020-06-29T14:01:31Z</time>
      </trkpt>
      <trkpt lat="48.6913" lon="6.17563">
        <ele>215.2</ele>
        <time>2020-06-29T14:01:32Z</time>
      </trkpt>
      <trkpt lat="48.69128" lon="6.17558">
        <ele>215.3</ele>
        <time>2020-06-29T14:01:33Z</time>
      </trkpt>
      <trkpt lat="48.69126" lon="6.17553">
        <ele>215.4</ele>
        <time>2020-06-29T14:01:34Z</time>
      </trkpt>
      <trkpt lat="48.69123" lon="6.17549">
        <ele>215.5</ele>
        <time>2020-06-29T14:01:35Z</time>
      </trkpt>
      <trkpt lat="48.69121" lon="6.17545">
        <ele>215.6</ele>
        <time>2020-06-29T14:01:36Z</time>
      </trkpt>
      <trkpt lat="48.69119" lon="6.17543">
        <ele>215.6</ele>
        <time>2020-06-29T14:01:37Z</time>
      </trkpt>
      <trkpt lat="48.69117" lon="6.17538">
        <ele>215.6</ele>
        <time>2020-06-29T14:01:38Z</time>
      </trkpt>
      <trkpt lat="48.69116" lon="6.17536">
        <ele>215.6</ele>
        <time>2020-06-29T14:01:39Z</time>
      </trkpt>
      <trkpt lat="48.69117" lon="6.17535">
        <ele>215.6</ele>
        <time>2020-06-29T14:01:40Z</time>
      </trkpt>
      <trkpt lat="48.69117" lon="6.17533">
        <ele>215.6</ele>
        <time>2020-06-29T14:01:41Z</time>
      </trkpt>
      <trkpt lat="48.69116" lon="6.17534">
        <ele>215.6</ele>
        <time>2020-06-29T14:01:42Z</time>
      </trkpt>
      <trkpt lat="48.69114" lon="6.17532">
        <ele>215.6</ele>
        <time>2020-06-29T14:01:43Z</time>
      </trkpt>
      <trkpt lat="48.69114" lon="6.17531">
        <ele>215.6</ele>
        <time>2020-06-29T14:01:44Z</time>
      </trkpt>
      <trkpt lat="48.69113" lon="6.1753">
        <ele>215.6</ele>
        <time>2020-06-29T14:01:45Z</time>
      </trkpt>
      <trkpt lat="48.69113" lon="6.17531">
        <ele>215.6</ele>
        <time>2020-06-29T14:01:46Z</time>
      </trkpt>
      <trkpt lat="48.69113" lon="6.1753">
        <ele>215.6</ele>
        <time>2020-06-29T14:01:47Z</time>
      </trkpt>
      <trkpt lat="48.69113" lon="6.17529">
        <ele>215.6</ele>
        <time>2020-06-29T14:01:48Z</time>
      </trkpt>
      <trkpt lat="48.69112" lon="6.17529">
        <ele>215.6</ele>
        <time>2020-06-29T14:01:49Z</time>
      </trkpt>
      <trkpt lat="48.69111" lon="6.17525">
        <ele>215.6</ele>
        <time>2020-06-29T14:01:50Z</time>
      </trkpt>
      <trkpt lat="48.6911" lon="6.17529">
        <ele>215.6</ele>
        <time>2020-06-29T14:01:51Z</time>
      </trkpt>
      <trkpt lat="48.69111" lon="6.17529">
        <ele>215.6</ele>
        <time>2020-06-29T14:01:52Z</time>
      </trkpt>
      <trkpt lat="48.69111" lon="6.17528">
        <ele>215.6</ele>
        <time>2020-06-29T14:01:53Z</time>
      </trkpt>
      <trkpt lat="48.69111" lon="6.17529">
        <ele>215.6</ele>
        <time>2020-06-29T14:01:54Z</time>
      </trkpt>
      <trkpt lat="48.6911" lon="6.17529">
        <ele>215.6</ele>
        <time>2020-06-29T14:01:55Z</time>
      </trkpt>
      <trkpt lat="48.6911" lon="6.17529">
        <ele>215.6</ele>
        <time>2020-06-29T14:01:56Z</time>
      </trkpt>
      <trkpt lat="48.69109" lon="6.17529">
        <ele>215.5</ele>
        <time>2020-06-29T14:01:57Z</time>
      </trkpt>
      <trkpt lat="48.69109" lon="6.17528">
        <ele>215.5</ele>
        <time>2020-06-29T14:01:58Z</time>
      </trkpt>
      <trkpt lat="48.69108" lon="6.17515">
        <ele>215.5</ele>
        <time>2020-06-29T14:02:15Z</time>
      </trkpt>
      <trkpt lat="48.69108" lon="6.17511">
        <ele>215.5</ele>
        <time>2020-06-29T14:02:16Z</time>
      </trkpt>
      <trkpt lat="48.69106" lon="6.17505">
        <ele>215.5</ele>
        <time>2020-06-29T14:02:17Z</time>
      </trkpt>
      <trkpt lat="48.69104" lon="6.17502">
        <ele>215.5</ele>
        <time>2020-06-29T14:02:18Z</time>
      </trkpt>
      <trkpt lat="48.69102" lon="6.17495">
        <ele>215.5</ele>
        <time>2020-06-29T14:02:19Z</time>
      </trkpt>
      <trkpt lat="48.69099" lon="6.1749">
        <ele>215.6</ele>
        <time>2020-06-29T14:02:20Z</time>
      </trkpt>
      <trkpt lat="48.69097" lon="6.17484">
        <ele>215.7</ele>
        <time>2020-06-29T14:02:21Z</time>
      </trkpt>
      <trkpt lat="48.69095" lon="6.17478">
        <ele>215.7</ele>
        <time>2020-06-29T14:02:22Z</time>
      </trkpt>
      <trkpt lat="48.69095" lon="6.17473">
        <ele>215.8</ele>
        <time>2020-06-29T14:02:23Z</time>
      </trkpt>
      <trkpt lat="48.69094" lon="6.17465">
        <ele>215.8</ele>
        <time>2020-06-29T14:02:24Z</time>
      </trkpt>
      <trkpt lat="48.69091" lon="6.1746">
        <ele>215.9</ele>
        <time>2020-06-29T14:02:25Z</time>
      </trkpt>
      <trkpt lat="48.69089" lon="6.17454">
        <ele>216</ele>
        <time>2020-06-29T14:02:26Z</time>
      </trkpt>
      <trkpt lat="48.69087" lon="6.17448">
        <ele>216.1</ele>
        <time>2020-06-29T14:02:27Z</time>
      </trkpt>
      <trkpt lat="48.69085" lon="6.17443">
        <ele>216.2</ele>
        <time>2020-06-29T14:02:28Z</time>
      </trkpt>
      <trkpt lat="48.69083" lon="6.17439">
        <ele>216.2</ele>
        <time>2020-06-29T14:02:29Z</time>
      </trkpt>
      <trkpt lat="48.69082" lon="6.17435">
        <ele>216.2</ele>
        <time>2020-06-29T14:02:30Z</time>
      </trkpt>
      <trkpt lat="48.6908" lon="6.17427">
        <ele>216.2</ele>
        <time>2020-06-29T14:02:31Z</time>
      </trkpt>
      <trkpt lat="48.69076" lon="6.17421">
        <ele>216.3</ele>
        <time>2020-06-29T14:02:32Z</time>
      </trkpt>
      <trkpt lat="48.69075" lon="6.17415">
        <ele>216.3</ele>
        <time>2020-06-29T14:02:33Z</time>
      </trkpt>
      <trkpt lat="48.69074" lon="6.17409">
        <ele>216.3</ele>
        <time>2020-06-29T14:02:34Z</time>
      </trkpt>
      <trkpt lat="48.69072" lon="6.17404">
        <ele>216.3</ele>
        <time>2020-06-29T14:02:35Z</time>
      </trkpt>
      <trkpt lat="48.69072" lon="6.17399">
        <ele>216.3</ele>
        <time>2020-06-29T14:02:36Z</time>
      </trkpt>
      <trkpt lat="48.69069" lon="6.17393">
        <ele>216.3</ele>
        <time>2020-06-29T14:02:37Z</time>
      </trkpt>
      <trkpt lat="48.69067" lon="6.17385">
        <ele>216.4</ele>
        <time>2020-06-29T14:02:38Z</time>
      </trkpt>
      <trkpt lat="48.69066" lon="6.17377">
        <ele>216.4</ele>
        <time>2020-06-29T14:02:39Z</time>
      </trkpt>
      <trkpt lat="48.69064" lon="6.1737">
        <ele>216.5</ele>
        <time>2020-06-29T14:02:40Z</time>
      </trkpt>
      <trkpt lat="48.69061" lon="6.17363">
        <ele>217</ele>
        <time>2020-06-29T14:02:41Z</time>
      </trkpt>
      <trkpt lat="48.69059" lon="6.17356">
        <ele>217.1</ele>
        <time>2020-06-29T14:02:42Z</time>
      </trkpt>
      <trkpt lat="48.69056" lon="6.1735">
        <ele>217.1</ele>
        <time>2020-06-29T14:02:43Z</time>
      </trkpt>
      <trkpt lat="48.69054" lon="6.17342">
        <ele>217.1</ele>
        <time>2020-06-29T14:02:44Z</time>
      </trkpt>
      <trkpt lat="48.69053" lon="6.17335">
        <ele>217.2</ele>
        <time>2020-06-29T14:02:45Z</time>
      </trkpt>
      <trkpt lat="48.69051" lon="6.17328">
        <ele>217.3</ele>
        <time>2020-06-29T14:02:46Z</time>
      </trkpt>
      <trkpt lat="48.69049" lon="6.17322">
        <ele>217.3</ele>
        <time>2020-06-29T14:02:47Z</time>
      </trkpt>
      <trkpt lat="48.69048" lon="6.17316">
        <ele>217.4</ele>
        <time>2020-06-29T14:02:48Z</time>
      </trkpt>
      <trkpt lat="48.69046" lon="6.1731">
        <ele>217.5</ele>
        <time>2020-06-29T14:02:49Z</time>
      </trkpt>
      <trkpt lat="48.69044" lon="6.17305">
        <ele>217.6</ele>
        <time>2020-06-29T14:02:50Z</time>
      </trkpt>
      <trkpt lat="48.69044" lon="6.17301">
        <ele>217.8</ele>
        <time>2020-06-29T14:02:51Z</time>
      </trkpt>
      <trkpt lat="48.69044" lon="6.17299">
        <ele>217.8</ele>
        <time>2020-06-29T14:02:52Z</time>
      </trkpt>
      <trkpt lat="48.69043" lon="6.17296">
        <ele>217.9</ele>
        <time>2020-06-29T14:02:53Z</time>
      </trkpt>
      <trkpt lat="48.69042" lon="6.1729">
        <ele>217.9</ele>
        <time>2020-06-29T14:02:54Z</time>
      </trkpt>
      <trkpt lat="48.69041" lon="6.17284">
        <ele>217.9</ele>
        <time>2020-06-29T14:02:55Z</time>
      </trkpt>
      <trkpt lat="48.6904" lon="6.17277">
        <ele>218</ele>
        <time>2020-06-29T14:02:56Z</time>
      </trkpt>
      <trkpt lat="48.69038" lon="6.17269">
        <ele>218</ele>
        <time>2020-06-29T14:02:57Z</time>
      </trkpt>
      <trkpt lat="48.69035" lon="6.17263">
        <ele>218</ele>
        <time>2020-06-29T14:02:58Z</time>
      </trkpt>
      <trkpt lat="48.69031" lon="6.17257">
        <ele>218.1</ele>
        <time>2020-06-29T14:02:59Z</time>
      </trkpt>
      <trkpt lat="48.6903" lon="6.17251">
        <ele>218.1</ele>
        <time>2020-06-29T14:03:00Z</time>
      </trkpt>
      <trkpt lat="48.69028" lon="6.17246">
        <ele>218.1</ele>
        <time>2020-06-29T14:03:01Z</time>
      </trkpt>
      <trkpt lat="48.69025" lon="6.1724">
        <ele>218.2</ele>
        <time>2020-06-29T14:03:02Z</time>
      </trkpt>
      <trkpt lat="48.69023" lon="6.17235">
        <ele>218.2</ele>
        <time>2020-06-29T14:03:03Z</time>
      </trkpt>
      <trkpt lat="48.69021" lon="6.17229">
        <ele>218.3</ele>
        <time>2020-06-29T14:03:04Z</time>
      </trkpt>
      <trkpt lat="48.69019" lon="6.17225">
        <ele>218.4</ele>
        <time>2020-06-29T14:03:05Z</time>
      </trkpt>
      <trkpt lat="48.69017" lon="6.17221">
        <ele>218.4</ele>
        <time>2020-06-29T14:03:06Z</time>
      </trkpt>
      <trkpt lat="48.69015" lon="6.17217">
        <ele>218.5</ele>
        <time>2020-06-29T14:03:07Z</time>
      </trkpt>
      <trkpt lat="48.69014" lon="6.17212">
        <ele>218.5</ele>
        <time>2020-06-29T14:03:08Z</time>
      </trkpt>
      <trkpt lat="48.69012" lon="6.17206">
        <ele>218.6</ele>
        <time>2020-06-29T14:03:09Z</time>
      </trkpt>
      <trkpt lat="48.6901" lon="6.17199">
        <ele>218.6</ele>
        <time>2020-06-29T14:03:10Z</time>
      </trkpt>
      <trkpt lat="48.69009" lon="6.17192">
        <ele>218.6</ele>
        <time>2020-06-29T14:03:11Z</time>
      </trkpt>
      <trkpt lat="48.69007" lon="6.17185">
        <ele>218.7</ele>
        <time>2020-06-29T14:03:12Z</time>
      </trkpt>
      <trkpt lat="48.69005" lon="6.17178">
        <ele>218.7</ele>
        <time>2020-06-29T14:03:13Z</time>
      </trkpt>
      <trkpt lat="48.69004" lon="6.17172">
        <ele>218.7</ele>
        <time>2020-06-29T14:03:14Z</time>
      </trkpt>
      <trkpt lat="48.69003" lon="6.17166">
        <ele>218.7</ele>
        <time>2020-06-29T14:03:15Z</time>
      </trkpt>
      <trkpt lat="48.69002" lon="6.1716">
        <ele>218.7</ele>
        <time>2020-06-29T14:03:16Z</time>
      </trkpt>
      <trkpt lat="48.69" lon="6.17153">
        <ele>218.7</ele>
        <time>2020-06-29T14:03:17Z</time>
      </trkpt>
      <trkpt lat="48.68998" lon="6.17149">
        <ele>218.7</ele>
        <time>2020-06-29T14:03:18Z</time>
      </trkpt>
      <trkpt lat="48.68996" lon="6.17145">
        <ele>218.8</ele>
        <time>2020-06-29T14:03:19Z</time>
      </trkpt>
      <trkpt lat="48.68994" lon="6.17138">
        <ele>218.8</ele>
        <time>2020-06-29T14:03:20Z</time>
      </trkpt>
      <trkpt lat="48.68992" lon="6.17133">
        <ele>218.8</ele>
        <time>2020-06-29T14:03:21Z</time>
      </trkpt>
      <trkpt lat="48.68989" lon="6.17126">
        <ele>218.8</ele>
        <time>2020-06-29T14:03:22Z</time>
      </trkpt>
      <trkpt lat="48.68987" lon="6.17119">
        <ele>218.9</ele>
        <time>2020-06-29T14:03:23Z</time>
      </trkpt>
      <trkpt lat="48.68986" lon="6.17114">
        <ele>218.9</ele>
        <time>2020-06-29T14:03:24Z</time>
      </trkpt>
      <trkpt lat="48.68983" lon="6.17108">
        <ele>218.9</ele>
        <time>2020-06-29T14:03:25Z</time>
      </trkpt>
      <trkpt lat="48.68982" lon="6.17102">
        <ele>218.9</ele>
        <time>2020-06-29T14:03:26Z</time>
      </trkpt>
      <trkpt lat="48.6898" lon="6.17097">
        <ele>219</ele>
        <time>2020-06-29T14:03:27Z</time>
      </trkpt>
      <trkpt lat="48.68979" lon="6.1709">
        <ele>219</ele>
        <time>2020-06-29T14:03:28Z</time>
      </trkpt>
      <trkpt lat="48.68978" lon="6.17083">
        <ele>219</ele>
        <time>2020-06-29T14:03:29Z</time>
      </trkpt>
      <trkpt lat="48.68976" lon="6.17076">
        <ele>219</ele>
        <time>2020-06-29T14:03:30Z</time>
      </trkpt>
      <trkpt lat="48.68974" lon="6.17069">
        <ele>219.1</ele>
        <time>2020-06-29T14:03:31Z</time>
      </trkpt>
      <trkpt lat="48.68972" lon="6.17064">
        <ele>219.1</ele>
        <time>2020-06-29T14:03:32Z</time>
      </trkpt>
      <trkpt lat="48.6897" lon="6.17059">
        <ele>219.2</ele>
        <time>2020-06-29T14:03:33Z</time>
      </trkpt>
      <trkpt lat="48.68967" lon="6.17052">
        <ele>219.3</ele>
        <time>2020-06-29T14:03:34Z</time>
      </trkpt>
      <trkpt lat="48.68965" lon="6.17044">
        <ele>219.4</ele>
        <time>2020-06-29T14:03:35Z</time>
      </trkpt>
      <trkpt lat="48.68963" lon="6.17038">
        <ele>219.4</ele>
        <time>2020-06-29T14:03:36Z</time>
      </trkpt>
      <trkpt lat="48.68961" lon="6.1703">
        <ele>219.5</ele>
        <time>2020-06-29T14:03:37Z</time>
      </trkpt>
      <trkpt lat="48.68958" lon="6.1702">
        <ele>219.6</ele>
        <time>2020-06-29T14:03:38Z</time>
      </trkpt>
      <trkpt lat="48.68956" lon="6.17011">
        <ele>219.8</ele>
        <time>2020-06-29T14:03:39Z</time>
      </trkpt>
      <trkpt lat="48.68954" lon="6.17002">
        <ele>219.9</ele>
        <time>2020-06-29T14:03:40Z</time>
      </trkpt>
      <trkpt lat="48.68952" lon="6.16995">
        <ele>220</ele>
        <time>2020-06-29T14:03:41Z</time>
      </trkpt>
      <trkpt lat="48.6895" lon="6.16989">
        <ele>220.1</ele>
        <time>2020-06-29T14:03:42Z</time>
      </trkpt>
      <trkpt lat="48.68948" lon="6.16983">
        <ele>220.2</ele>
        <time>2020-06-29T14:03:43Z</time>
      </trkpt>
      <trkpt lat="48.68946" lon="6.16977">
        <ele>220.2</ele>
        <time>2020-06-29T14:03:44Z</time>
      </trkpt>
      <trkpt lat="48.68944" lon="6.16972">
        <ele>220.3</ele>
        <time>2020-06-29T14:03:45Z</time>
      </trkpt>
      <trkpt lat="48.68944" lon="6.16966">
        <ele>220.3</ele>
        <time>2020-06-29T14:03:46Z</time>
      </trkpt>
      <trkpt lat="48.68943" lon="6.1696">
        <ele>220.3</ele>
        <time>2020-06-29T14:03:47Z</time>
      </trkpt>
      <trkpt lat="48.68942" lon="6.16953">
        <ele>220.3</ele>
        <time>2020-06-29T14:03:48Z</time>
      </trkpt>
      <trkpt lat="48.6894" lon="6.16946">
        <ele>220.3</ele>
        <time>2020-06-29T14:03:49Z</time>
      </trkpt>
      <trkpt lat="48.68938" lon="6.16939">
        <ele>220.3</ele>
        <time>2020-06-29T14:03:50Z</time>
      </trkpt>
      <trkpt lat="48.68935" lon="6.16931">
        <ele>220.3</ele>
        <time>2020-06-29T14:03:51Z</time>
      </trkpt>
      <trkpt lat="48.68931" lon="6.16924">
        <ele>220.3</ele>
        <time>2020-06-29T14:03:52Z</time>
      </trkpt>
      <trkpt lat="48.68928" lon="6.16917">
        <ele>220.3</ele>
        <time>2020-06-29T14:03:53Z</time>
      </trkpt>
      <trkpt lat="48.68925" lon="6.16911">
        <ele>220.4</ele>
        <time>2020-06-29T14:03:54Z</time>
      </trkpt>
      <trkpt lat="48.68923" lon="6.16904">
        <ele>220.4</ele>
        <time>2020-06-29T14:03:55Z</time>
      </trkpt>
      <trkpt lat="48.6892" lon="6.16898">
        <ele>220.4</ele>
        <time>2020-06-29T14:03:56Z</time>
      </trkpt>
      <trkpt lat="48.68918" lon="6.16892">
        <ele>220.5</ele>
        <time>2020-06-29T14:03:57Z</time>
      </trkpt>
      <trkpt lat="48.68915" lon="6.16886">
        <ele>220.5</ele>
        <time>2020-06-29T14:03:58Z</time>
      </trkpt>
      <trkpt lat="48.68913" lon="6.16878">
        <ele>220.5</ele>
        <time>2020-06-29T14:03:59Z</time>
      </trkpt>
      <trkpt lat="48.68909" lon="6.16872">
        <ele>220.6</ele>
        <time>2020-06-29T14:04:00Z</time>
      </trkpt>
      <trkpt lat="48.68906" lon="6.16866">
        <ele>220.6</ele>
        <time>2020-06-29T14:04:01Z</time>
      </trkpt>
      <trkpt lat="48.68902" lon="6.16859">
        <ele>220.6</ele>
        <time>2020-06-29T14:04:02Z</time>
      </trkpt>
      <trkpt lat="48.68899" lon="6.16851">
        <ele>220.6</ele>
        <time>2020-06-29T14:04:03Z</time>
      </trkpt>
      <trkpt lat="48.68897" lon="6.16845">
        <ele>220.6</ele>
        <time>2020-06-29T14:04:04Z</time>
      </trkpt>
      <trkpt lat="48.68896" lon="6.16838">
        <ele>220.7</ele>
        <time>2020-06-29T14:04:05Z</time>
      </trkpt>
      <trkpt lat="48.68893" lon="6.16833">
        <ele>220.7</ele>
        <time>2020-06-29T14:04:06Z</time>
      </trkpt>
      <trkpt lat="48.68891" lon="6.16824">
        <ele>220.7</ele>
        <time>2020-06-29T14:04:07Z</time>
      </trkpt>
      <trkpt lat="48.68888" lon="6.16817">
        <ele>220.7</ele>
        <time>2020-06-29T14:04:08Z</time>
      </trkpt>
      <trkpt lat="48.68887" lon="6.16809">
        <ele>220.7</ele>
        <time>2020-06-29T14:04:09Z</time>
      </trkpt>
      <trkpt lat="48.68885" lon="6.16802">
        <ele>220.8</ele>
        <time>2020-06-29T14:04:10Z</time>
      </trkpt>
      <trkpt lat="48.68883" lon="6.16796">
        <ele>220.8</ele>
        <time>2020-06-29T14:04:11Z</time>
      </trkpt>
      <trkpt lat="48.68883" lon="6.16789">
        <ele>220.8</ele>
        <time>2020-06-29T14:04:12Z</time>
      </trkpt>
      <trkpt lat="48.68882" lon="6.16783">
        <ele>220.8</ele>
        <time>2020-06-29T14:04:13Z</time>
      </trkpt>
      <trkpt lat="48.6888" lon="6.16776">
        <ele>220.8</ele>
        <time>2020-06-29T14:04:14Z</time>
      </trkpt>
      <trkpt lat="48.68878" lon="6.1677">
        <ele>220.8</ele>
        <time>2020-06-29T14:04:15Z</time>
      </trkpt>
      <trkpt lat="48.68877" lon="6.16762">
        <ele>220.8</ele>
        <time>2020-06-29T14:04:16Z</time>
      </trkpt>
      <trkpt lat="48.68875" lon="6.16755">
        <ele>220.8</ele>
        <time>2020-06-29T14:04:17Z</time>
      </trkpt>
      <trkpt lat="48.68873" lon="6.16748">
        <ele>220.9</ele>
        <time>2020-06-29T14:04:18Z</time>
      </trkpt>
      <trkpt lat="48.68871" lon="6.16741">
        <ele>220.9</ele>
        <time>2020-06-29T14:04:19Z</time>
      </trkpt>
      <trkpt lat="48.68869" lon="6.16734">
        <ele>220.9</ele>
        <time>2020-06-29T14:04:20Z</time>
      </trkpt>
      <trkpt lat="48.68867" lon="6.16728">
        <ele>220.9</ele>
        <time>2020-06-29T14:04:21Z</time>
      </trkpt>
      <trkpt lat="48.68864" lon="6.16722">
        <ele>220.9</ele>
        <time>2020-06-29T14:04:22Z</time>
      </trkpt>
      <trkpt lat="48.68862" lon="6.16714">
        <ele>220.9</ele>
        <time>2020-06-29T14:04:23Z</time>
      </trkpt>
      <trkpt lat="48.68861" lon="6.16702">
        <ele>220.9</ele>
        <time>2020-06-29T14:04:24Z</time>
      </trkpt>
      <trkpt lat="48.68859" lon="6.16693">
        <ele>220.9</ele>
        <time>2020-06-29T14:04:25Z</time>
      </trkpt>
      <trkpt lat="48.68857" lon="6.16686">
        <ele>220.9</ele>
        <time>2020-06-29T14:04:26Z</time>
      </trkpt>
      <trkpt lat="48.68855" lon="6.16679">
        <ele>220.9</ele>
        <time>2020-06-29T14:04:27Z</time>
      </trkpt>
      <trkpt lat="48.68853" lon="6.16672">
        <ele>220.9</ele>
        <time>2020-06-29T14:04:28Z</time>
      </trkpt>
      <trkpt lat="48.68851" lon="6.16665">
        <ele>220.9</ele>
        <time>2020-06-29T14:04:29Z</time>
      </trkpt>
      <trkpt lat="48.68849" lon="6.16656">
        <ele>220.8</ele>
        <time>2020-06-29T14:04:30Z</time>
      </trkpt>
      <trkpt lat="48.68847" lon="6.1665">
        <ele>220.8</ele>
        <time>2020-06-29T14:04:31Z</time>
      </trkpt>
      <trkpt lat="48.68845" lon="6.16645">
        <ele>220.8</ele>
        <time>2020-06-29T14:04:32Z</time>
      </trkpt>
      <trkpt lat="48.68843" lon="6.16639">
        <ele>220.8</ele>
        <time>2020-06-29T14:04:33Z</time>
      </trkpt>
      <trkpt lat="48.6884" lon="6.16631">
        <ele>220.8</ele>
        <time>2020-06-29T14:04:34Z</time>
      </trkpt>
      <trkpt lat="48.68837" lon="6.16622">
        <ele>220.9</ele>
        <time>2020-06-29T14:04:35Z</time>
      </trkpt>
      <trkpt lat="48.68836" lon="6.16613">
        <ele>220.9</ele>
        <time>2020-06-29T14:04:36Z</time>
      </trkpt>
      <trkpt lat="48.68835" lon="6.16606">
        <ele>220.9</ele>
        <time>2020-06-29T14:04:37Z</time>
      </trkpt>
      <trkpt lat="48.68834" lon="6.16598">
        <ele>221</ele>
        <time>2020-06-29T14:04:38Z</time>
      </trkpt>
      <trkpt lat="48.68834" lon="6.1659">
        <ele>221</ele>
        <time>2020-06-29T14:04:39Z</time>
      </trkpt>
      <trkpt lat="48.68834" lon="6.16582">
        <ele>221</ele>
        <time>2020-06-29T14:04:40Z</time>
      </trkpt>
      <trkpt lat="48.68836" lon="6.16574">
        <ele>221.1</ele>
        <time>2020-06-29T14:04:41Z</time>
      </trkpt>
      <trkpt lat="48.68837" lon="6.16566">
        <ele>221.1</ele>
        <time>2020-06-29T14:04:42Z</time>
      </trkpt>
      <trkpt lat="48.68839" lon="6.16558">
        <ele>221.2</ele>
        <time>2020-06-29T14:04:43Z</time>
      </trkpt>
      <trkpt lat="48.6884" lon="6.16549">
        <ele>221.2</ele>
        <time>2020-06-29T14:04:44Z</time>
      </trkpt>
      <trkpt lat="48.68841" lon="6.16541">
        <ele>221.3</ele>
        <time>2020-06-29T14:04:45Z</time>
      </trkpt>
      <trkpt lat="48.68844" lon="6.16536">
        <ele>221.3</ele>
        <time>2020-06-29T14:04:46Z</time>
      </trkpt>
      <trkpt lat="48.68846" lon="6.16529">
        <ele>221.4</ele>
        <time>2020-06-29T14:04:47Z</time>
      </trkpt>
      <trkpt lat="48.68847" lon="6.16523">
        <ele>221.4</ele>
        <time>2020-06-29T14:04:48Z</time>
      </trkpt>
      <trkpt lat="48.68848" lon="6.16515">
        <ele>221.4</ele>
        <time>2020-06-29T14:04:49Z</time>
      </trkpt>
      <trkpt lat="48.68849" lon="6.16508">
        <ele>221.5</ele>
        <time>2020-06-29T14:04:50Z</time>
      </trkpt>
      <trkpt lat="48.68851" lon="6.16501">
        <ele>221.6</ele>
        <time>2020-06-29T14:04:51Z</time>
      </trkpt>
      <trkpt lat="48.68852" lon="6.16494">
        <ele>221.6</ele>
        <time>2020-06-29T14:04:52Z</time>
      </trkpt>
      <trkpt lat="48.68853" lon="6.16487">
        <ele>221.7</ele>
        <time>2020-06-29T14:04:53Z</time>
      </trkpt>
      <trkpt lat="48.68855" lon="6.16481">
        <ele>221.7</ele>
        <time>2020-06-29T14:04:54Z</time>
      </trkpt>
      <trkpt lat="48.68856" lon="6.16474">
        <ele>221.8</ele>
        <time>2020-06-29T14:04:55Z</time>
      </trkpt>
      <trkpt lat="48.68857" lon="6.16468">
        <ele>222</ele>
        <time>2020-06-29T14:04:56Z</time>
      </trkpt>
      <trkpt lat="48.68859" lon="6.16461">
        <ele>222.2</ele>
        <time>2020-06-29T14:04:57Z</time>
      </trkpt>
      <trkpt lat="48.68862" lon="6.16455">
        <ele>222.4</ele>
        <time>2020-06-29T14:04:58Z</time>
      </trkpt>
      <trkpt lat="48.68863" lon="6.16447">
        <ele>222.6</ele>
        <time>2020-06-29T14:04:59Z</time>
      </trkpt>
      <trkpt lat="48.68865" lon="6.1644">
        <ele>222.8</ele>
        <time>2020-06-29T14:05:00Z</time>
      </trkpt>
      <trkpt lat="48.68866" lon="6.16433">
        <ele>223</ele>
        <time>2020-06-29T14:05:01Z</time>
      </trkpt>
      <trkpt lat="48.68867" lon="6.16426">
        <ele>223.2</ele>
        <time>2020-06-29T14:05:02Z</time>
      </trkpt>
      <trkpt lat="48.6887" lon="6.16419">
        <ele>223.4</ele>
        <time>2020-06-29T14:05:03Z</time>
      </trkpt>
      <trkpt lat="48.68871" lon="6.16414">
        <ele>223.5</ele>
        <time>2020-06-29T14:05:04Z</time>
      </trkpt>
      <trkpt lat="48.68872" lon="6.16408">
        <ele>223.6</ele>
        <time>2020-06-29T14:05:05Z</time>
      </trkpt>
      <trkpt lat="48.68873" lon="6.16403">
        <ele>223.6</ele>
        <time>2020-06-29T14:05:06Z</time>
      </trkpt>
      <trkpt lat="48.68873" lon="6.16396">
        <ele>223.6</ele>
        <time>2020-06-29T14:05:07Z</time>
      </trkpt>
      <trkpt lat="48.68874" lon="6.1639">
        <ele>223.7</ele>
        <time>2020-06-29T14:05:08Z</time>
      </trkpt>
      <trkpt lat="48.68876" lon="6.16384">
        <ele>223.8</ele>
        <time>2020-06-29T14:05:09Z</time>
      </trkpt>
      <trkpt lat="48.68878" lon="6.16379">
        <ele>223.9</ele>
        <time>2020-06-29T14:05:10Z</time>
      </trkpt>
      <trkpt lat="48.68879" lon="6.16374">
        <ele>224</ele>
        <time>2020-06-29T14:05:11Z</time>
      </trkpt>
      <trkpt lat="48.68881" lon="6.16368">
        <ele>224.2</ele>
        <time>2020-06-29T14:05:12Z</time>
      </trkpt>
      <trkpt lat="48.68882" lon="6.16362">
        <ele>224.3</ele>
        <time>2020-06-29T14:05:13Z</time>
      </trkpt>
      <trkpt lat="48.68883" lon="6.16355">
        <ele>224.5</ele>
        <time>2020-06-29T14:05:14Z</time>
      </trkpt>
      <trkpt lat="48.68884" lon="6.16349">
        <ele>224.6</ele>
        <time>2020-06-29T14:05:15Z</time>
      </trkpt>
      <trkpt lat="48.68886" lon="6.16343">
        <ele>224.8</ele>
        <time>2020-06-29T14:05:16Z</time>
      </trkpt>
      <trkpt lat="48.68887" lon="6.16338">
        <ele>224.9</ele>
        <time>2020-06-29T14:05:17Z</time>
      </trkpt>
      <trkpt lat="48.68888" lon="6.16332">
        <ele>225.1</ele>
        <time>2020-06-29T14:05:18Z</time>
      </trkpt>
      <trkpt lat="48.6889" lon="6.16327">
        <ele>225.2</ele>
        <time>2020-06-29T14:05:19Z</time>
      </trkpt>
      <trkpt lat="48.68891" lon="6.1632">
        <ele>225.4</ele>
        <time>2020-06-29T14:05:20Z</time>
      </trkpt>
      <trkpt lat="48.68893" lon="6.16315">
        <ele>225.6</ele>
        <time>2020-06-29T14:05:21Z</time>
      </trkpt>
      <trkpt lat="48.68895" lon="6.1631">
        <ele>225.8</ele>
        <time>2020-06-29T14:05:22Z</time>
      </trkpt>
      <trkpt lat="48.68896" lon="6.16306">
        <ele>226</ele>
        <time>2020-06-29T14:05:23Z</time>
      </trkpt>
      <trkpt lat="48.68896" lon="6.16301">
        <ele>226.2</ele>
        <time>2020-06-29T14:05:24Z</time>
      </trkpt>
      <trkpt lat="48.68898" lon="6.16297">
        <ele>226.4</ele>
        <time>2020-06-29T14:05:25Z</time>
      </trkpt>
      <trkpt lat="48.68898" lon="6.16292">
        <ele>226.6</ele>
        <time>2020-06-29T14:05:26Z</time>
      </trkpt>
      <trkpt lat="48.68899" lon="6.16287">
        <ele>226.9</ele>
        <time>2020-06-29T14:05:27Z</time>
      </trkpt>
      <trkpt lat="48.689" lon="6.16283">
        <ele>227.1</ele>
        <time>2020-06-29T14:05:28Z</time>
      </trkpt>
      <trkpt lat="48.68901" lon="6.16279">
        <ele>227.3</ele>
        <time>2020-06-29T14:05:29Z</time>
      </trkpt>
      <trkpt lat="48.68901" lon="6.16274">
        <ele>227.6</ele>
        <time>2020-06-29T14:05:30Z</time>
      </trkpt>
      <trkpt lat="48.68902" lon="6.16269">
        <ele>227.8</ele>
        <time>2020-06-29T14:05:31Z</time>
      </trkpt>
      <trkpt lat="48.68903" lon="6.16264">
        <ele>228.1</ele>
        <time>2020-06-29T14:05:32Z</time>
      </trkpt>
      <trkpt lat="48.68904" lon="6.16258">
        <ele>228.3</ele>
        <time>2020-06-29T14:05:33Z</time>
      </trkpt>
      <trkpt lat="48.68905" lon="6.16254">
        <ele>228.5</ele>
        <time>2020-06-29T14:05:34Z</time>
      </trkpt>
      <trkpt lat="48.68906" lon="6.1625">
        <ele>228.8</ele>
        <time>2020-06-29T14:05:35Z</time>
      </trkpt>
      <trkpt lat="48.68907" lon="6.16245">
        <ele>228.9</ele>
        <time>2020-06-29T14:05:36Z</time>
      </trkpt>
      <trkpt lat="48.68909" lon="6.16241">
        <ele>229.1</ele>
        <time>2020-06-29T14:05:37Z</time>
      </trkpt>
      <trkpt lat="48.6891" lon="6.16237">
        <ele>229.2</ele>
        <time>2020-06-29T14:05:38Z</time>
      </trkpt>
      <trkpt lat="48.6891" lon="6.16232">
        <ele>229.3</ele>
        <time>2020-06-29T14:05:39Z</time>
      </trkpt>
      <trkpt lat="48.68911" lon="6.16227">
        <ele>229.5</ele>
        <time>2020-06-29T14:05:40Z</time>
      </trkpt>
      <trkpt lat="48.68912" lon="6.16223">
        <ele>229.7</ele>
        <time>2020-06-29T14:05:41Z</time>
      </trkpt>
      <trkpt lat="48.68914" lon="6.16217">
        <ele>230.1</ele>
        <time>2020-06-29T14:05:42Z</time>
      </trkpt>
      <trkpt lat="48.68915" lon="6.16215">
        <ele>230.2</ele>
        <time>2020-06-29T14:05:43Z</time>
      </trkpt>
      <trkpt lat="48.68916" lon="6.16209">
        <ele>230.5</ele>
        <time>2020-06-29T14:05:44Z</time>
      </trkpt>
      <trkpt lat="48.68916" lon="6.16207">
        <ele>230.6</ele>
        <time>2020-06-29T14:05:45Z</time>
      </trkpt>
      <trkpt lat="48.68918" lon="6.16203">
        <ele>230.9</ele>
        <time>2020-06-29T14:05:46Z</time>
      </trkpt>
      <trkpt lat="48.6892" lon="6.16199">
        <ele>231.2</ele>
        <time>2020-06-29T14:05:47Z</time>
      </trkpt>
      <trkpt lat="48.68921" lon="6.16196">
        <ele>231.4</ele>
        <time>2020-06-29T14:05:48Z</time>
      </trkpt>
      <trkpt lat="48.68923" lon="6.16192">
        <ele>231.6</ele>
        <time>2020-06-29T14:05:49Z</time>
      </trkpt>
      <trkpt lat="48.68925" lon="6.16187">
        <ele>232</ele>
        <time>2020-06-29T14:05:50Z</time>
      </trkpt>
      <trkpt lat="48.68925" lon="6.16185">
        <ele>232.1</ele>
        <time>2020-06-29T14:05:51Z</time>
      </trkpt>
      <trkpt lat="48.68925" lon="6.16179">
        <ele>232.4</ele>
        <time>2020-06-29T14:05:52Z</time>
      </trkpt>
      <trkpt lat="48.68925" lon="6.16177">
        <ele>232.5</ele>
        <time>2020-06-29T14:05:53Z</time>
      </trkpt>
      <trkpt lat="48.68926" lon="6.16172">
        <ele>232.7</ele>
        <time>2020-06-29T14:05:54Z</time>
      </trkpt>
      <trkpt lat="48.68926" lon="6.16168">
        <ele>233</ele>
        <time>2020-06-29T14:05:55Z</time>
      </trkpt>
      <trkpt lat="48.68927" lon="6.16164">
        <ele>233.2</ele>
        <time>2020-06-29T14:05:56Z</time>
      </trkpt>
      <trkpt lat="48.68927" lon="6.16159">
        <ele>233.3</ele>
        <time>2020-06-29T14:05:57Z</time>
      </trkpt>
      <trkpt lat="48.68927" lon="6.16155">
        <ele>233.5</ele>
        <time>2020-06-29T14:05:58Z</time>
      </trkpt>
      <trkpt lat="48.68929" lon="6.16149">
        <ele>233.7</ele>
        <time>2020-06-29T14:05:59Z</time>
      </trkpt>
      <trkpt lat="48.6893" lon="6.16147">
        <ele>233.7</ele>
        <time>2020-06-29T14:06:00Z</time>
      </trkpt>
      <trkpt lat="48.68931" lon="6.16143">
        <ele>233.9</ele>
        <time>2020-06-29T14:06:01Z</time>
      </trkpt>
      <trkpt lat="48.68932" lon="6.16138">
        <ele>234.1</ele>
        <time>2020-06-29T14:06:02Z</time>
      </trkpt>
      <trkpt lat="48.68933" lon="6.16134">
        <ele>234.3</ele>
        <time>2020-06-29T14:06:03Z</time>
      </trkpt>
      <trkpt lat="48.68934" lon="6.16129">
        <ele>234.5</ele>
        <time>2020-06-29T14:06:04Z</time>
      </trkpt>
      <trkpt lat="48.68934" lon="6.16125">
        <ele>234.7</ele>
        <time>2020-06-29T14:06:05Z</time>
      </trkpt>
      <trkpt lat="48.68935" lon="6.1612">
        <ele>234.9</ele>
        <time>2020-06-29T14:06:06Z</time>
      </trkpt>
      <trkpt lat="48.68935" lon="6.16115">
        <ele>235</ele>
        <time>2020-06-29T14:06:07Z</time>
      </trkpt>
      <trkpt lat="48.68936" lon="6.16111">
        <ele>235.2</ele>
        <time>2020-06-29T14:06:08Z</time>
      </trkpt>
      <trkpt lat="48.68937" lon="6.16106">
        <ele>235.4</ele>
        <time>2020-06-29T14:06:09Z</time>
      </trkpt>
      <trkpt lat="48.68938" lon="6.16102">
        <ele>235.5</ele>
        <time>2020-06-29T14:06:10Z</time>
      </trkpt>
      <trkpt lat="48.68938" lon="6.16097">
        <ele>235.7</ele>
        <time>2020-06-29T14:06:11Z</time>
      </trkpt>
      <trkpt lat="48.6894" lon="6.16093">
        <ele>235.9</ele>
        <time>2020-06-29T14:06:12Z</time>
      </trkpt>
      <trkpt lat="48.6894" lon="6.16089">
        <ele>236.1</ele>
        <time>2020-06-29T14:06:13Z</time>
      </trkpt>
      <trkpt lat="48.68941" lon="6.16084">
        <ele>236.3</ele>
        <time>2020-06-29T14:06:14Z</time>
      </trkpt>
      <trkpt lat="48.68943" lon="6.1608">
        <ele>236.4</ele>
        <time>2020-06-29T14:06:15Z</time>
      </trkpt>
      <trkpt lat="48.68944" lon="6.16075">
        <ele>236.6</ele>
        <time>2020-06-29T14:06:16Z</time>
      </trkpt>
      <trkpt lat="48.68945" lon="6.1607">
        <ele>236.9</ele>
        <time>2020-06-29T14:06:17Z</time>
      </trkpt>
      <trkpt lat="48.68946" lon="6.16068">
        <ele>236.9</ele>
        <time>2020-06-29T14:06:18Z</time>
      </trkpt>
      <trkpt lat="48.68947" lon="6.16063">
        <ele>237.2</ele>
        <time>2020-06-29T14:06:19Z</time>
      </trkpt>
      <trkpt lat="48.68948" lon="6.16061">
        <ele>237.2</ele>
        <time>2020-06-29T14:06:20Z</time>
      </trkpt>
      <trkpt lat="48.68948" lon="6.16055">
        <ele>237.6</ele>
        <time>2020-06-29T14:06:21Z</time>
      </trkpt>
      <trkpt lat="48.68949" lon="6.16053">
        <ele>237.7</ele>
        <time>2020-06-29T14:06:22Z</time>
      </trkpt>
      <trkpt lat="48.6895" lon="6.16048">
        <ele>237.9</ele>
        <time>2020-06-29T14:06:23Z</time>
      </trkpt>
      <trkpt lat="48.6895" lon="6.16046">
        <ele>238</ele>
        <time>2020-06-29T14:06:24Z</time>
      </trkpt>
      <trkpt lat="48.68951" lon="6.16041">
        <ele>238.3</ele>
        <time>2020-06-29T14:06:25Z</time>
      </trkpt>
      <trkpt lat="48.68951" lon="6.16039">
        <ele>238.4</ele>
        <time>2020-06-29T14:06:26Z</time>
      </trkpt>
      <trkpt lat="48.68952" lon="6.16033">
        <ele>238.7</ele>
        <time>2020-06-29T14:06:27Z</time>
      </trkpt>
      <trkpt lat="48.68952" lon="6.16031">
        <ele>238.8</ele>
        <time>2020-06-29T14:06:28Z</time>
      </trkpt>
      <trkpt lat="48.68952" lon="6.16025">
        <ele>239.1</ele>
        <time>2020-06-29T14:06:29Z</time>
      </trkpt>
      <trkpt lat="48.68953" lon="6.16023">
        <ele>239.2</ele>
        <time>2020-06-29T14:06:30Z</time>
      </trkpt>
      <trkpt lat="48.68954" lon="6.16019">
        <ele>239.4</ele>
        <time>2020-06-29T14:06:31Z</time>
      </trkpt>
      <trkpt lat="48.68954" lon="6.16015">
        <ele>239.6</ele>
        <time>2020-06-29T14:06:32Z</time>
      </trkpt>
      <trkpt lat="48.68955" lon="6.16009">
        <ele>240</ele>
        <time>2020-06-29T14:06:33Z</time>
      </trkpt>
      <trkpt lat="48.68955" lon="6.16006">
        <ele>240.1</ele>
        <time>2020-06-29T14:06:34Z</time>
      </trkpt>
      <trkpt lat="48.68956" lon="6.16002">
        <ele>240.3</ele>
        <time>2020-06-29T14:06:35Z</time>
      </trkpt>
      <trkpt lat="48.68957" lon="6.15996">
        <ele>240.6</ele>
        <time>2020-06-29T14:06:36Z</time>
      </trkpt>
      <trkpt lat="48.68957" lon="6.15995">
        <ele>240.7</ele>
        <time>2020-06-29T14:06:37Z</time>
      </trkpt>
      <trkpt lat="48.68958" lon="6.15989">
        <ele>241</ele>
        <time>2020-06-29T14:06:38Z</time>
      </trkpt>
      <trkpt lat="48.6896" lon="6.15984">
        <ele>241.3</ele>
        <time>2020-06-29T14:06:39Z</time>
      </trkpt>
      <trkpt lat="48.6896" lon="6.15983">
        <ele>241.4</ele>
        <time>2020-06-29T14:06:40Z</time>
      </trkpt>
      <trkpt lat="48.68962" lon="6.15978">
        <ele>241.6</ele>
        <time>2020-06-29T14:06:41Z</time>
      </trkpt>
      <trkpt lat="48.68963" lon="6.15976">
        <ele>241.7</ele>
        <time>2020-06-29T14:06:42Z</time>
      </trkpt>
      <trkpt lat="48.68964" lon="6.15971">
        <ele>242</ele>
        <time>2020-06-29T14:06:43Z</time>
      </trkpt>
      <trkpt lat="48.68965" lon="6.15966">
        <ele>242.3</ele>
        <time>2020-06-29T14:06:44Z</time>
      </trkpt>
      <trkpt lat="48.68965" lon="6.15964">
        <ele>242.4</ele>
        <time>2020-06-29T14:06:45Z</time>
      </trkpt>
      <trkpt lat="48.68967" lon="6.15958">
        <ele>242.7</ele>
        <time>2020-06-29T14:06:46Z</time>
      </trkpt>
      <trkpt lat="48.68967" lon="6.15957">
        <ele>242.8</ele>
        <time>2020-06-29T14:06:47Z</time>
      </trkpt>
      <trkpt lat="48.68969" lon="6.15952">
        <ele>243.2</ele>
        <time>2020-06-29T14:06:48Z</time>
      </trkpt>
      <trkpt lat="48.68969" lon="6.1595">
        <ele>243.3</ele>
        <time>2020-06-29T14:06:49Z</time>
      </trkpt>
      <trkpt lat="48.6897" lon="6.15944">
        <ele>243.7</ele>
        <time>2020-06-29T14:06:50Z</time>
      </trkpt>
      <trkpt lat="48.6897" lon="6.15943">
        <ele>243.8</ele>
        <time>2020-06-29T14:06:51Z</time>
      </trkpt>
      <trkpt lat="48.6897" lon="6.15938">
        <ele>244.1</ele>
        <time>2020-06-29T14:06:52Z</time>
      </trkpt>
      <trkpt lat="48.68972" lon="6.15932">
        <ele>244.4</ele>
        <time>2020-06-29T14:06:53Z</time>
      </trkpt>
      <trkpt lat="48.68972" lon="6.1593">
        <ele>244.6</ele>
        <time>2020-06-29T14:06:54Z</time>
      </trkpt>
      <trkpt lat="48.68973" lon="6.15926">
        <ele>244.8</ele>
        <time>2020-06-29T14:06:55Z</time>
      </trkpt>
      <trkpt lat="48.68975" lon="6.15922">
        <ele>245.1</ele>
        <time>2020-06-29T14:06:56Z</time>
      </trkpt>
      <trkpt lat="48.68975" lon="6.1592">
        <ele>245.2</ele>
        <time>2020-06-29T14:06:57Z</time>
      </trkpt>
      <trkpt lat="48.68976" lon="6.15916">
        <ele>245.5</ele>
        <time>2020-06-29T14:06:58Z</time>
      </trkpt>
      <trkpt lat="48.68977" lon="6.15915">
        <ele>245.6</ele>
        <time>2020-06-29T14:06:59Z</time>
      </trkpt>
      <trkpt lat="48.68978" lon="6.15909">
        <ele>245.9</ele>
        <time>2020-06-29T14:07:00Z</time>
      </trkpt>
      <trkpt lat="48.68978" lon="6.15908">
        <ele>246</ele>
        <time>2020-06-29T14:07:01Z</time>
      </trkpt>
      <trkpt lat="48.6898" lon="6.15903">
        <ele>246.4</ele>
        <time>2020-06-29T14:07:02Z</time>
      </trkpt>
      <trkpt lat="48.6898" lon="6.159">
        <ele>246.5</ele>
        <time>2020-06-29T14:07:03Z</time>
      </trkpt>
      <trkpt lat="48.68981" lon="6.15896">
        <ele>246.8</ele>
        <time>2020-06-29T14:07:04Z</time>
      </trkpt>
      <trkpt lat="48.68982" lon="6.15892">
        <ele>247</ele>
        <time>2020-06-29T14:07:05Z</time>
      </trkpt>
      <trkpt lat="48.68983" lon="6.1589">
        <ele>247.2</ele>
        <time>2020-06-29T14:07:06Z</time>
      </trkpt>
      <trkpt lat="48.68984" lon="6.15888">
        <ele>247.3</ele>
        <time>2020-06-29T14:07:07Z</time>
      </trkpt>
      <trkpt lat="48.68986" lon="6.15882">
        <ele>247.7</ele>
        <time>2020-06-29T14:07:08Z</time>
      </trkpt>
      <trkpt lat="48.68986" lon="6.1588">
        <ele>247.8</ele>
        <time>2020-06-29T14:07:09Z</time>
      </trkpt>
      <trkpt lat="48.68988" lon="6.15878">
        <ele>248</ele>
        <time>2020-06-29T14:07:10Z</time>
      </trkpt>
      <trkpt lat="48.68988" lon="6.15876">
        <ele>248.1</ele>
        <time>2020-06-29T14:07:11Z</time>
      </trkpt>
      <trkpt lat="48.68989" lon="6.15875">
        <ele>248.2</ele>
        <time>2020-06-29T14:07:12Z</time>
      </trkpt>
      <trkpt lat="48.6899" lon="6.15873">
        <ele>248.3</ele>
        <time>2020-06-29T14:07:13Z</time>
      </trkpt>
      <trkpt lat="48.68991" lon="6.15869">
        <ele>248.5</ele>
        <time>2020-06-29T14:07:14Z</time>
      </trkpt>
      <trkpt lat="48.68991" lon="6.15867">
        <ele>248.6</ele>
        <time>2020-06-29T14:07:15Z</time>
      </trkpt>
      <trkpt lat="48.68991" lon="6.15863">
        <ele>248.8</ele>
        <time>2020-06-29T14:07:16Z</time>
      </trkpt>
      <trkpt lat="48.68991" lon="6.15861">
        <ele>248.9</ele>
        <time>2020-06-29T14:07:17Z</time>
      </trkpt>
      <trkpt lat="48.68992" lon="6.15857">
        <ele>249.1</ele>
        <time>2020-06-29T14:07:18Z</time>
      </trkpt>
      <trkpt lat="48.68992" lon="6.15855">
        <ele>249.2</ele>
        <time>2020-06-29T14:07:19Z</time>
      </trkpt>
      <trkpt lat="48.68994" lon="6.1585">
        <ele>249.5</ele>
        <time>2020-06-29T14:07:20Z</time>
      </trkpt>
      <trkpt lat="48.68995" lon="6.15845">
        <ele>249.8</ele>
        <time>2020-06-29T14:07:21Z</time>
      </trkpt>
      <trkpt lat="48.68996" lon="6.1584">
        <ele>250</ele>
        <time>2020-06-29T14:07:22Z</time>
      </trkpt>
      <trkpt lat="48.68996" lon="6.15838">
        <ele>250.1</ele>
        <time>2020-06-29T14:07:23Z</time>
      </trkpt>
      <trkpt lat="48.68997" lon="6.15833">
        <ele>250.5</ele>
        <time>2020-06-29T14:07:24Z</time>
      </trkpt>
      <trkpt lat="48.68997" lon="6.15831">
        <ele>250.6</ele>
        <time>2020-06-29T14:07:25Z</time>
      </trkpt>
      <trkpt lat="48.68998" lon="6.15826">
        <ele>250.9</ele>
        <time>2020-06-29T14:07:26Z</time>
      </trkpt>
      <trkpt lat="48.68998" lon="6.15824">
        <ele>251</ele>
        <time>2020-06-29T14:07:27Z</time>
      </trkpt>
      <trkpt lat="48.68999" lon="6.1582">
        <ele>251.3</ele>
        <time>2020-06-29T14:07:28Z</time>
      </trkpt>
      <trkpt lat="48.69" lon="6.15816">
        <ele>251.5</ele>
        <time>2020-06-29T14:07:29Z</time>
      </trkpt>
      <trkpt lat="48.69" lon="6.1581">
        <ele>251.9</ele>
        <time>2020-06-29T14:07:30Z</time>
      </trkpt>
      <trkpt lat="48.69001" lon="6.15808">
        <ele>252</ele>
        <time>2020-06-29T14:07:31Z</time>
      </trkpt>
      <trkpt lat="48.69002" lon="6.15806">
        <ele>252.5</ele>
        <time>2020-06-29T14:07:32Z</time>
      </trkpt>
      <trkpt lat="48.69002" lon="6.15803">
        <ele>252.7</ele>
        <time>2020-06-29T14:07:33Z</time>
      </trkpt>
      <trkpt lat="48.69003" lon="6.15798">
        <ele>253</ele>
        <time>2020-06-29T14:07:34Z</time>
      </trkpt>
      <trkpt lat="48.69003" lon="6.15797">
        <ele>253.1</ele>
        <time>2020-06-29T14:07:35Z</time>
      </trkpt>
      <trkpt lat="48.69004" lon="6.15794">
        <ele>253.3</ele>
        <time>2020-06-29T14:07:36Z</time>
      </trkpt>
      <trkpt lat="48.69004" lon="6.15792">
        <ele>253.4</ele>
        <time>2020-06-29T14:07:37Z</time>
      </trkpt>
      <trkpt lat="48.69005" lon="6.15786">
        <ele>253.8</ele>
        <time>2020-06-29T14:07:38Z</time>
      </trkpt>
      <trkpt lat="48.69006" lon="6.15784">
        <ele>254</ele>
        <time>2020-06-29T14:07:39Z</time>
      </trkpt>
      <trkpt lat="48.69006" lon="6.15781">
        <ele>254.1</ele>
        <time>2020-06-29T14:07:40Z</time>
      </trkpt>
      <trkpt lat="48.69006" lon="6.1578">
        <ele>254.2</ele>
        <time>2020-06-29T14:07:41Z</time>
      </trkpt>
      <trkpt lat="48.69008" lon="6.15776">
        <ele>254.5</ele>
        <time>2020-06-29T14:07:42Z</time>
      </trkpt>
      <trkpt lat="48.69008" lon="6.15774">
        <ele>254.6</ele>
        <time>2020-06-29T14:07:43Z</time>
      </trkpt>
      <trkpt lat="48.69008" lon="6.1577">
        <ele>254.9</ele>
        <time>2020-06-29T14:07:44Z</time>
      </trkpt>
      <trkpt lat="48.69009" lon="6.15766">
        <ele>255.1</ele>
        <time>2020-06-29T14:07:45Z</time>
      </trkpt>
      <trkpt lat="48.6901" lon="6.15762">
        <ele>255.4</ele>
        <time>2020-06-29T14:07:46Z</time>
      </trkpt>
      <trkpt lat="48.69011" lon="6.1576">
        <ele>255.5</ele>
        <time>2020-06-29T14:07:47Z</time>
      </trkpt>
      <trkpt lat="48.69012" lon="6.15755">
        <ele>255.8</ele>
        <time>2020-06-29T14:07:48Z</time>
      </trkpt>
      <trkpt lat="48.69012" lon="6.15753">
        <ele>256</ele>
        <time>2020-06-29T14:07:49Z</time>
      </trkpt>
      <trkpt lat="48.69013" lon="6.15747">
        <ele>256.3</ele>
        <time>2020-06-29T14:07:50Z</time>
      </trkpt>
      <trkpt lat="48.69013" lon="6.15746">
        <ele>256.4</ele>
        <time>2020-06-29T14:07:51Z</time>
      </trkpt>
      <trkpt lat="48.69014" lon="6.15741">
        <ele>256.7</ele>
        <time>2020-06-29T14:07:52Z</time>
      </trkpt>
      <trkpt lat="48.69015" lon="6.15736">
        <ele>257</ele>
        <time>2020-06-29T14:07:53Z</time>
      </trkpt>
      <trkpt lat="48.69016" lon="6.15734">
        <ele>257.2</ele>
        <time>2020-06-29T14:07:54Z</time>
      </trkpt>
      <trkpt lat="48.69018" lon="6.15729">
        <ele>257.5</ele>
        <time>2020-06-29T14:07:55Z</time>
      </trkpt>
      <trkpt lat="48.69018" lon="6.15728">
        <ele>257.6</ele>
        <time>2020-06-29T14:07:56Z</time>
      </trkpt>
      <trkpt lat="48.69018" lon="6.15723">
        <ele>257.9</ele>
        <time>2020-06-29T14:07:57Z</time>
      </trkpt>
      <trkpt lat="48.69018" lon="6.15719">
        <ele>258.1</ele>
        <time>2020-06-29T14:07:58Z</time>
      </trkpt>
      <trkpt lat="48.69018" lon="6.15717">
        <ele>258.2</ele>
        <time>2020-06-29T14:07:59Z</time>
      </trkpt>
      <trkpt lat="48.69019" lon="6.15712">
        <ele>258.5</ele>
        <time>2020-06-29T14:08:00Z</time>
      </trkpt>
      <trkpt lat="48.69018" lon="6.15707">
        <ele>258.9</ele>
        <time>2020-06-29T14:08:01Z</time>
      </trkpt>
      <trkpt lat="48.69018" lon="6.15705">
        <ele>259</ele>
        <time>2020-06-29T14:08:02Z</time>
      </trkpt>
      <trkpt lat="48.69019" lon="6.15701">
        <ele>259.2</ele>
        <time>2020-06-29T14:08:03Z</time>
      </trkpt>
      <trkpt lat="48.6902" lon="6.15695">
        <ele>259.6</ele>
        <time>2020-06-29T14:08:04Z</time>
      </trkpt>
      <trkpt lat="48.6902" lon="6.15693">
        <ele>259.7</ele>
        <time>2020-06-29T14:08:05Z</time>
      </trkpt>
      <trkpt lat="48.69019" lon="6.15688">
        <ele>259.9</ele>
        <time>2020-06-29T14:08:06Z</time>
      </trkpt>
      <trkpt lat="48.69019" lon="6.15687">
        <ele>260</ele>
        <time>2020-06-29T14:08:07Z</time>
      </trkpt>
      <trkpt lat="48.6902" lon="6.15683">
        <ele>260.2</ele>
        <time>2020-06-29T14:08:08Z</time>
      </trkpt>
      <trkpt lat="48.69021" lon="6.15681">
        <ele>260.4</ele>
        <time>2020-06-29T14:08:09Z</time>
      </trkpt>
      <trkpt lat="48.69022" lon="6.15676">
        <ele>260.6</ele>
        <time>2020-06-29T14:08:10Z</time>
      </trkpt>
      <trkpt lat="48.69023" lon="6.15675">
        <ele>260.8</ele>
        <time>2020-06-29T14:08:11Z</time>
      </trkpt>
      <trkpt lat="48.69024" lon="6.1567">
        <ele>261</ele>
        <time>2020-06-29T14:08:12Z</time>
      </trkpt>
      <trkpt lat="48.69024" lon="6.15666">
        <ele>261.3</ele>
        <time>2020-06-29T14:08:13Z</time>
      </trkpt>
      <trkpt lat="48.69026" lon="6.1566">
        <ele>261.6</ele>
        <time>2020-06-29T14:08:14Z</time>
      </trkpt>
      <trkpt lat="48.69028" lon="6.15654">
        <ele>262</ele>
        <time>2020-06-29T14:08:15Z</time>
      </trkpt>
      <trkpt lat="48.69029" lon="6.15649">
        <ele>262.3</ele>
        <time>2020-06-29T14:08:16Z</time>
      </trkpt>
      <trkpt lat="48.69029" lon="6.15647">
        <ele>262.4</ele>
        <time>2020-06-29T14:08:17Z</time>
      </trkpt>
      <trkpt lat="48.6903" lon="6.15643">
        <ele>262.7</ele>
        <time>2020-06-29T14:08:18Z</time>
      </trkpt>
      <trkpt lat="48.6903" lon="6.15642">
        <ele>262.8</ele>
        <time>2020-06-29T14:08:19Z</time>
      </trkpt>
      <trkpt lat="48.69031" lon="6.15637">
        <ele>263.1</ele>
        <time>2020-06-29T14:08:20Z</time>
      </trkpt>
      <trkpt lat="48.69031" lon="6.15634">
        <ele>263.3</ele>
        <time>2020-06-29T14:08:21Z</time>
      </trkpt>
      <trkpt lat="48.69033" lon="6.15631">
        <ele>263.5</ele>
        <time>2020-06-29T14:08:22Z</time>
      </trkpt>
      <trkpt lat="48.69033" lon="6.15629">
        <ele>263.6</ele>
        <time>2020-06-29T14:08:23Z</time>
      </trkpt>
      <trkpt lat="48.69033" lon="6.15628">
        <ele>263.7</ele>
        <time>2020-06-29T14:08:24Z</time>
      </trkpt>
      <trkpt lat="48.69036" lon="6.15623">
        <ele>264.1</ele>
        <time>2020-06-29T14:08:25Z</time>
      </trkpt>
      <trkpt lat="48.69037" lon="6.15621">
        <ele>264.3</ele>
        <time>2020-06-29T14:08:26Z</time>
      </trkpt>
      <trkpt lat="48.69039" lon="6.15616">
        <ele>264.7</ele>
        <time>2020-06-29T14:08:27Z</time>
      </trkpt>
      <trkpt lat="48.69041" lon="6.15613">
        <ele>265</ele>
        <time>2020-06-29T14:08:28Z</time>
      </trkpt>
      <trkpt lat="48.69042" lon="6.15612">
        <ele>265.1</ele>
        <time>2020-06-29T14:08:29Z</time>
      </trkpt>
      <trkpt lat="48.69044" lon="6.15607">
        <ele>265.4</ele>
        <time>2020-06-29T14:08:30Z</time>
      </trkpt>
      <trkpt lat="48.69044" lon="6.15606">
        <ele>265.5</ele>
        <time>2020-06-29T14:08:31Z</time>
      </trkpt>
      <trkpt lat="48.69045" lon="6.156">
        <ele>265.9</ele>
        <time>2020-06-29T14:08:32Z</time>
      </trkpt>
      <trkpt lat="48.69046" lon="6.15597">
        <ele>266.1</ele>
        <time>2020-06-29T14:08:33Z</time>
      </trkpt>
      <trkpt lat="48.69047" lon="6.15593">
        <ele>266.3</ele>
        <time>2020-06-29T14:08:34Z</time>
      </trkpt>
      <trkpt lat="48.69047" lon="6.15592">
        <ele>266.4</ele>
        <time>2020-06-29T14:08:35Z</time>
      </trkpt>
      <trkpt lat="48.69048" lon="6.15587">
        <ele>266.7</ele>
        <time>2020-06-29T14:08:36Z</time>
      </trkpt>
      <trkpt lat="48.69048" lon="6.15586">
        <ele>266.8</ele>
        <time>2020-06-29T14:08:37Z</time>
      </trkpt>
      <trkpt lat="48.69049" lon="6.1558">
        <ele>267.2</ele>
        <time>2020-06-29T14:08:38Z</time>
      </trkpt>
      <trkpt lat="48.69049" lon="6.15577">
        <ele>267.3</ele>
        <time>2020-06-29T14:08:39Z</time>
      </trkpt>
      <trkpt lat="48.6905" lon="6.15571">
        <ele>267.7</ele>
        <time>2020-06-29T14:08:40Z</time>
      </trkpt>
      <trkpt lat="48.6905" lon="6.15569">
        <ele>267.8</ele>
        <time>2020-06-29T14:08:41Z</time>
      </trkpt>
      <trkpt lat="48.69051" lon="6.15565">
        <ele>268</ele>
        <time>2020-06-29T14:08:42Z</time>
      </trkpt>
      <trkpt lat="48.69052" lon="6.15561">
        <ele>268.4</ele>
        <time>2020-06-29T14:08:43Z</time>
      </trkpt>
      <trkpt lat="48.69053" lon="6.15559">
        <ele>268.5</ele>
        <time>2020-06-29T14:08:44Z</time>
      </trkpt>
      <trkpt lat="48.69055" lon="6.15555">
        <ele>268.7</ele>
        <time>2020-06-29T14:08:45Z</time>
      </trkpt>
      <trkpt lat="48.69056" lon="6.15554">
        <ele>268.8</ele>
        <time>2020-06-29T14:08:46Z</time>
      </trkpt>
      <trkpt lat="48.69056" lon="6.1555">
        <ele>269.1</ele>
        <time>2020-06-29T14:08:47Z</time>
      </trkpt>
      <trkpt lat="48.69056" lon="6.15548">
        <ele>269.2</ele>
        <time>2020-06-29T14:08:48Z</time>
      </trkpt>
      <trkpt lat="48.69056" lon="6.15543">
        <ele>269.5</ele>
        <time>2020-06-29T14:08:49Z</time>
      </trkpt>
      <trkpt lat="48.69056" lon="6.15542">
        <ele>269.6</ele>
        <time>2020-06-29T14:08:50Z</time>
      </trkpt>
      <trkpt lat="48.69057" lon="6.15538">
        <ele>269.8</ele>
        <time>2020-06-29T14:08:51Z</time>
      </trkpt>
      <trkpt lat="48.69057" lon="6.15536">
        <ele>269.9</ele>
        <time>2020-06-29T14:08:52Z</time>
      </trkpt>
      <trkpt lat="48.69057" lon="6.15534">
        <ele>270.1</ele>
        <time>2020-06-29T14:08:53Z</time>
      </trkpt>
      <trkpt lat="48.69057" lon="6.15531">
        <ele>270.2</ele>
        <time>2020-06-29T14:08:54Z</time>
      </trkpt>
      <trkpt lat="48.69057" lon="6.15527">
        <ele>270.5</ele>
        <time>2020-06-29T14:08:55Z</time>
      </trkpt>
      <trkpt lat="48.69057" lon="6.15526">
        <ele>270.6</ele>
        <time>2020-06-29T14:08:56Z</time>
      </trkpt>
      <trkpt lat="48.69058" lon="6.15521">
        <ele>270.9</ele>
        <time>2020-06-29T14:08:57Z</time>
      </trkpt>
      <trkpt lat="48.69059" lon="6.15518">
        <ele>271.1</ele>
        <time>2020-06-29T14:08:58Z</time>
      </trkpt>
      <trkpt lat="48.69059" lon="6.15514">
        <ele>271.4</ele>
        <time>2020-06-29T14:08:59Z</time>
      </trkpt>
      <trkpt lat="48.6906" lon="6.15512">
        <ele>271.5</ele>
        <time>2020-06-29T14:09:00Z</time>
      </trkpt>
      <trkpt lat="48.69061" lon="6.15508">
        <ele>271.8</ele>
        <time>2020-06-29T14:09:01Z</time>
      </trkpt>
      <trkpt lat="48.69061" lon="6.15506">
        <ele>271.9</ele>
        <time>2020-06-29T14:09:02Z</time>
      </trkpt>
      <trkpt lat="48.69061" lon="6.15504">
        <ele>272</ele>
        <time>2020-06-29T14:09:03Z</time>
      </trkpt>
      <trkpt lat="48.69062" lon="6.15502">
        <ele>272.2</ele>
        <time>2020-06-29T14:09:04Z</time>
      </trkpt>
      <trkpt lat="48.69064" lon="6.15498">
        <ele>272.5</ele>
        <time>2020-06-29T14:09:05Z</time>
      </trkpt>
      <trkpt lat="48.69064" lon="6.15497">
        <ele>272.7</ele>
        <time>2020-06-29T14:09:06Z</time>
      </trkpt>
      <trkpt lat="48.69066" lon="6.15492">
        <ele>273</ele>
        <time>2020-06-29T14:09:07Z</time>
      </trkpt>
      <trkpt lat="48.69065" lon="6.1549">
        <ele>273.2</ele>
        <time>2020-06-29T14:09:08Z</time>
      </trkpt>
      <trkpt lat="48.69066" lon="6.15488">
        <ele>273.3</ele>
        <time>2020-06-29T14:09:09Z</time>
      </trkpt>
      <trkpt lat="48.69066" lon="6.15486">
        <ele>273.5</ele>
        <time>2020-06-29T14:09:10Z</time>
      </trkpt>
      <trkpt lat="48.69067" lon="6.15483">
        <ele>273.7</ele>
        <time>2020-06-29T14:09:11Z</time>
      </trkpt>
      <trkpt lat="48.69068" lon="6.15481">
        <ele>273.9</ele>
        <time>2020-06-29T14:09:12Z</time>
      </trkpt>
      <trkpt lat="48.69069" lon="6.15479">
        <ele>274</ele>
        <time>2020-06-29T14:09:13Z</time>
      </trkpt>
      <trkpt lat="48.6907" lon="6.15476">
        <ele>274.3</ele>
        <time>2020-06-29T14:09:14Z</time>
      </trkpt>
      <trkpt lat="48.6907" lon="6.15474">
        <ele>274.4</ele>
        <time>2020-06-29T14:09:15Z</time>
      </trkpt>
      <trkpt lat="48.69071" lon="6.15471">
        <ele>274.6</ele>
        <time>2020-06-29T14:09:16Z</time>
      </trkpt>
      <trkpt lat="48.69072" lon="6.1547">
        <ele>274.7</ele>
        <time>2020-06-29T14:09:17Z</time>
      </trkpt>
      <trkpt lat="48.69072" lon="6.15469">
        <ele>274.7</ele>
        <time>2020-06-29T14:09:18Z</time>
      </trkpt>
      <trkpt lat="48.69073" lon="6.15466">
        <ele>274.9</ele>
        <time>2020-06-29T14:09:19Z</time>
      </trkpt>
      <trkpt lat="48.69073" lon="6.15464">
        <ele>275.1</ele>
        <time>2020-06-29T14:09:20Z</time>
      </trkpt>
      <trkpt lat="48.69074" lon="6.1546">
        <ele>275.5</ele>
        <time>2020-06-29T14:09:21Z</time>
      </trkpt>
      <trkpt lat="48.69075" lon="6.15455">
        <ele>275.8</ele>
        <time>2020-06-29T14:09:22Z</time>
      </trkpt>
      <trkpt lat="48.69075" lon="6.15454">
        <ele>275.9</ele>
        <time>2020-06-29T14:09:23Z</time>
      </trkpt>
      <trkpt lat="48.69076" lon="6.15452">
        <ele>276</ele>
        <time>2020-06-29T14:09:24Z</time>
      </trkpt>
      <trkpt lat="48.69077" lon="6.15449">
        <ele>276.1</ele>
        <time>2020-06-29T14:09:25Z</time>
      </trkpt>
      <trkpt lat="48.69077" lon="6.15448">
        <ele>276.2</ele>
        <time>2020-06-29T14:09:26Z</time>
      </trkpt>
      <trkpt lat="48.69079" lon="6.15443">
        <ele>276.5</ele>
        <time>2020-06-29T14:09:27Z</time>
      </trkpt>
      <trkpt lat="48.69079" lon="6.15441">
        <ele>276.6</ele>
        <time>2020-06-29T14:09:28Z</time>
      </trkpt>
      <trkpt lat="48.6908" lon="6.15437">
        <ele>276.8</ele>
        <time>2020-06-29T14:09:29Z</time>
      </trkpt>
      <trkpt lat="48.69081" lon="6.15436">
        <ele>276.9</ele>
        <time>2020-06-29T14:09:30Z</time>
      </trkpt>
      <trkpt lat="48.69082" lon="6.15432">
        <ele>277.2</ele>
        <time>2020-06-29T14:09:31Z</time>
      </trkpt>
      <trkpt lat="48.69082" lon="6.15427">
        <ele>277.4</ele>
        <time>2020-06-29T14:09:32Z</time>
      </trkpt>
      <trkpt lat="48.69083" lon="6.15423">
        <ele>277.6</ele>
        <time>2020-06-29T14:09:33Z</time>
      </trkpt>
      <trkpt lat="48.69082" lon="6.15421">
        <ele>277.7</ele>
        <time>2020-06-29T14:09:34Z</time>
      </trkpt>
      <trkpt lat="48.69083" lon="6.15415">
        <ele>278.2</ele>
        <time>2020-06-29T14:09:35Z</time>
      </trkpt>
      <trkpt lat="48.69085" lon="6.15412">
        <ele>278.6</ele>
        <time>2020-06-29T14:09:36Z</time>
      </trkpt>
      <trkpt lat="48.69086" lon="6.15411">
        <ele>278.6</ele>
        <time>2020-06-29T14:09:37Z</time>
      </trkpt>
      <trkpt lat="48.69088" lon="6.15406">
        <ele>279</ele>
        <time>2020-06-29T14:09:38Z</time>
      </trkpt>
      <trkpt lat="48.69088" lon="6.15405">
        <ele>279.1</ele>
        <time>2020-06-29T14:09:39Z</time>
      </trkpt>
      <trkpt lat="48.69088" lon="6.154">
        <ele>279.5</ele>
        <time>2020-06-29T14:09:40Z</time>
      </trkpt>
      <trkpt lat="48.69089" lon="6.15399">
        <ele>279.6</ele>
        <time>2020-06-29T14:09:41Z</time>
      </trkpt>
      <trkpt lat="48.6909" lon="6.15394">
        <ele>279.9</ele>
        <time>2020-06-29T14:09:42Z</time>
      </trkpt>
      <trkpt lat="48.6909" lon="6.15393">
        <ele>280</ele>
        <time>2020-06-29T14:09:43Z</time>
      </trkpt>
      <trkpt lat="48.69091" lon="6.15388">
        <ele>280.3</ele>
        <time>2020-06-29T14:09:44Z</time>
      </trkpt>
      <trkpt lat="48.69092" lon="6.15387">
        <ele>280.4</ele>
        <time>2020-06-29T14:09:45Z</time>
      </trkpt>
      <trkpt lat="48.69091" lon="6.15385">
        <ele>280.5</ele>
        <time>2020-06-29T14:09:46Z</time>
      </trkpt>
      <trkpt lat="48.69092" lon="6.15381">
        <ele>280.8</ele>
        <time>2020-06-29T14:09:47Z</time>
      </trkpt>
      <trkpt lat="48.69092" lon="6.15379">
        <ele>281</ele>
        <time>2020-06-29T14:09:48Z</time>
      </trkpt>
      <trkpt lat="48.69093" lon="6.15376">
        <ele>281.2</ele>
        <time>2020-06-29T14:09:49Z</time>
      </trkpt>
      <trkpt lat="48.69094" lon="6.15372">
        <ele>281.5</ele>
        <time>2020-06-29T14:09:50Z</time>
      </trkpt>
      <trkpt lat="48.69095" lon="6.15371">
        <ele>281.6</ele>
        <time>2020-06-29T14:09:51Z</time>
      </trkpt>
      <trkpt lat="48.69095" lon="6.15367">
        <ele>281.9</ele>
        <time>2020-06-29T14:09:52Z</time>
      </trkpt>
      <trkpt lat="48.69095" lon="6.15364">
        <ele>282.1</ele>
        <time>2020-06-29T14:09:53Z</time>
      </trkpt>
      <trkpt lat="48.69096" lon="6.15362">
        <ele>282.8</ele>
        <time>2020-06-29T14:09:54Z</time>
      </trkpt>
      <trkpt lat="48.69096" lon="6.15359">
        <ele>282.9</ele>
        <time>2020-06-29T14:09:55Z</time>
      </trkpt>
      <trkpt lat="48.69097" lon="6.15355">
        <ele>283.1</ele>
        <time>2020-06-29T14:09:56Z</time>
      </trkpt>
      <trkpt lat="48.69097" lon="6.15353">
        <ele>283.2</ele>
        <time>2020-06-29T14:09:57Z</time>
      </trkpt>
      <trkpt lat="48.69097" lon="6.15348">
        <ele>283.5</ele>
        <time>2020-06-29T14:09:58Z</time>
      </trkpt>
      <trkpt lat="48.69097" lon="6.15346">
        <ele>283.6</ele>
        <time>2020-06-29T14:09:59Z</time>
      </trkpt>
      <trkpt lat="48.69096" lon="6.15342">
        <ele>283.8</ele>
        <time>2020-06-29T14:10:00Z</time>
      </trkpt>
      <trkpt lat="48.69096" lon="6.1534">
        <ele>283.9</ele>
        <time>2020-06-29T14:10:01Z</time>
      </trkpt>
      <trkpt lat="48.69098" lon="6.15336">
        <ele>284.2</ele>
        <time>2020-06-29T14:10:02Z</time>
      </trkpt>
      <trkpt lat="48.691" lon="6.1533">
        <ele>284.6</ele>
        <time>2020-06-29T14:10:03Z</time>
      </trkpt>
      <trkpt lat="48.691" lon="6.15328">
        <ele>284.7</ele>
        <time>2020-06-29T14:10:04Z</time>
      </trkpt>
      <trkpt lat="48.69101" lon="6.15323">
        <ele>285</ele>
        <time>2020-06-29T14:10:05Z</time>
      </trkpt>
      <trkpt lat="48.69102" lon="6.15321">
        <ele>285.1</ele>
        <time>2020-06-29T14:10:06Z</time>
      </trkpt>
      <trkpt lat="48.69103" lon="6.15316">
        <ele>285.4</ele>
        <time>2020-06-29T14:10:07Z</time>
      </trkpt>
      <trkpt lat="48.69103" lon="6.15315">
        <ele>285.5</ele>
        <time>2020-06-29T14:10:08Z</time>
      </trkpt>
      <trkpt lat="48.69104" lon="6.1531">
        <ele>285.8</ele>
        <time>2020-06-29T14:10:09Z</time>
      </trkpt>
      <trkpt lat="48.69104" lon="6.15309">
        <ele>285.9</ele>
        <time>2020-06-29T14:10:10Z</time>
      </trkpt>
      <trkpt lat="48.69105" lon="6.15306">
        <ele>286.1</ele>
        <time>2020-06-29T14:10:11Z</time>
      </trkpt>
      <trkpt lat="48.69105" lon="6.15304">
        <ele>286.2</ele>
        <time>2020-06-29T14:10:12Z</time>
      </trkpt>
      <trkpt lat="48.69107" lon="6.153">
        <ele>286.4</ele>
        <time>2020-06-29T14:10:13Z</time>
      </trkpt>
      <trkpt lat="48.69108" lon="6.15299">
        <ele>286.5</ele>
        <time>2020-06-29T14:10:14Z</time>
      </trkpt>
      <trkpt lat="48.69108" lon="6.15294">
        <ele>286.8</ele>
        <time>2020-06-29T14:10:15Z</time>
      </trkpt>
      <trkpt lat="48.69108" lon="6.15293">
        <ele>286.9</ele>
        <time>2020-06-29T14:10:16Z</time>
      </trkpt>
      <trkpt lat="48.69108" lon="6.15288">
        <ele>287.1</ele>
        <time>2020-06-29T14:10:17Z</time>
      </trkpt>
      <trkpt lat="48.69109" lon="6.15286">
        <ele>287.2</ele>
        <time>2020-06-29T14:10:18Z</time>
      </trkpt>
      <trkpt lat="48.6911" lon="6.15284">
        <ele>287.4</ele>
        <time>2020-06-29T14:10:19Z</time>
      </trkpt>
      <trkpt lat="48.6911" lon="6.15282">
        <ele>287.5</ele>
        <time>2020-06-29T14:10:20Z</time>
      </trkpt>
      <trkpt lat="48.69111" lon="6.15277">
        <ele>287.8</ele>
        <time>2020-06-29T14:10:21Z</time>
      </trkpt>
      <trkpt lat="48.69112" lon="6.15275">
        <ele>287.9</ele>
        <time>2020-06-29T14:10:22Z</time>
      </trkpt>
      <trkpt lat="48.69112" lon="6.1527">
        <ele>288.3</ele>
        <time>2020-06-29T14:10:23Z</time>
      </trkpt>
      <trkpt lat="48.69113" lon="6.15269">
        <ele>288.3</ele>
        <time>2020-06-29T14:10:24Z</time>
      </trkpt>
      <trkpt lat="48.69113" lon="6.15266">
        <ele>288.5</ele>
        <time>2020-06-29T14:10:25Z</time>
      </trkpt>
      <trkpt lat="48.69114" lon="6.15264">
        <ele>288.7</ele>
        <time>2020-06-29T14:10:26Z</time>
      </trkpt>
      <trkpt lat="48.69115" lon="6.15259">
        <ele>289</ele>
        <time>2020-06-29T14:10:27Z</time>
      </trkpt>
      <trkpt lat="48.69116" lon="6.15257">
        <ele>289.1</ele>
        <time>2020-06-29T14:10:28Z</time>
      </trkpt>
      <trkpt lat="48.69117" lon="6.15253">
        <ele>289.4</ele>
        <time>2020-06-29T14:10:29Z</time>
      </trkpt>
      <trkpt lat="48.69117" lon="6.15251">
        <ele>289.5</ele>
        <time>2020-06-29T14:10:30Z</time>
      </trkpt>
      <trkpt lat="48.69117" lon="6.15249">
        <ele>289.6</ele>
        <time>2020-06-29T14:10:31Z</time>
      </trkpt>
      <trkpt lat="48.69117" lon="6.15247">
        <ele>289.7</ele>
        <time>2020-06-29T14:10:32Z</time>
      </trkpt>
      <trkpt lat="48.69117" lon="6.15244">
        <ele>289.9</ele>
        <time>2020-06-29T14:10:33Z</time>
      </trkpt>
      <trkpt lat="48.69117" lon="6.15241">
        <ele>290.1</ele>
        <time>2020-06-29T14:10:34Z</time>
      </trkpt>
      <trkpt lat="48.69118" lon="6.15237">
        <ele>290.4</ele>
        <time>2020-06-29T14:10:35Z</time>
      </trkpt>
      <trkpt lat="48.69118" lon="6.15236">
        <ele>290.4</ele>
        <time>2020-06-29T14:10:36Z</time>
      </trkpt>
      <trkpt lat="48.6912" lon="6.15233">
        <ele>290.7</ele>
        <time>2020-06-29T14:10:37Z</time>
      </trkpt>
      <trkpt lat="48.69121" lon="6.15232">
        <ele>290.8</ele>
        <time>2020-06-29T14:10:38Z</time>
      </trkpt>
      <trkpt lat="48.69121" lon="6.15227">
        <ele>291.1</ele>
        <time>2020-06-29T14:10:39Z</time>
      </trkpt>
      <trkpt lat="48.69121" lon="6.15226">
        <ele>291.1</ele>
        <time>2020-06-29T14:10:40Z</time>
      </trkpt>
      <trkpt lat="48.69122" lon="6.15221">
        <ele>291.4</ele>
        <time>2020-06-29T14:10:41Z</time>
      </trkpt>
      <trkpt lat="48.69122" lon="6.1522">
        <ele>291.5</ele>
        <time>2020-06-29T14:10:42Z</time>
      </trkpt>
      <trkpt lat="48.69123" lon="6.15214">
        <ele>291.9</ele>
        <time>2020-06-29T14:10:43Z</time>
      </trkpt>
      <trkpt lat="48.69123" lon="6.15213">
        <ele>292</ele>
        <time>2020-06-29T14:10:44Z</time>
      </trkpt>
      <trkpt lat="48.69124" lon="6.15208">
        <ele>292.3</ele>
        <time>2020-06-29T14:10:45Z</time>
      </trkpt>
      <trkpt lat="48.69124" lon="6.15206">
        <ele>292.4</ele>
        <time>2020-06-29T14:10:46Z</time>
      </trkpt>
      <trkpt lat="48.69125" lon="6.15201">
        <ele>292.7</ele>
        <time>2020-06-29T14:10:47Z</time>
      </trkpt>
      <trkpt lat="48.69126" lon="6.152">
        <ele>292.8</ele>
        <time>2020-06-29T14:10:48Z</time>
      </trkpt>
      <trkpt lat="48.69127" lon="6.15196">
        <ele>293.1</ele>
        <time>2020-06-29T14:10:49Z</time>
      </trkpt>
      <trkpt lat="48.69127" lon="6.15194">
        <ele>293.2</ele>
        <time>2020-06-29T14:10:50Z</time>
      </trkpt>
      <trkpt lat="48.69129" lon="6.1519">
        <ele>293.5</ele>
        <time>2020-06-29T14:10:51Z</time>
      </trkpt>
      <trkpt lat="48.6913" lon="6.15188">
        <ele>293.6</ele>
        <time>2020-06-29T14:10:52Z</time>
      </trkpt>
      <trkpt lat="48.69131" lon="6.15184">
        <ele>293.9</ele>
        <time>2020-06-29T14:10:53Z</time>
      </trkpt>
      <trkpt lat="48.69132" lon="6.15182">
        <ele>293.9</ele>
        <time>2020-06-29T14:10:54Z</time>
      </trkpt>
      <trkpt lat="48.69132" lon="6.15178">
        <ele>294.3</ele>
        <time>2020-06-29T14:10:55Z</time>
      </trkpt>
      <trkpt lat="48.69133" lon="6.15176">
        <ele>294.4</ele>
        <time>2020-06-29T14:10:56Z</time>
      </trkpt>
      <trkpt lat="48.69134" lon="6.15172">
        <ele>294.8</ele>
        <time>2020-06-29T14:10:57Z</time>
      </trkpt>
      <trkpt lat="48.69135" lon="6.1517">
        <ele>294.9</ele>
        <time>2020-06-29T14:10:58Z</time>
      </trkpt>
      <trkpt lat="48.69135" lon="6.15167">
        <ele>295.2</ele>
        <time>2020-06-29T14:10:59Z</time>
      </trkpt>
      <trkpt lat="48.69134" lon="6.15166">
        <ele>295.3</ele>
        <time>2020-06-29T14:11:00Z</time>
      </trkpt>
      <trkpt lat="48.69136" lon="6.15161">
        <ele>295.6</ele>
        <time>2020-06-29T14:11:01Z</time>
      </trkpt>
      <trkpt lat="48.69137" lon="6.1516">
        <ele>295.7</ele>
        <time>2020-06-29T14:11:02Z</time>
      </trkpt>
      <trkpt lat="48.69137" lon="6.15155">
        <ele>296</ele>
        <time>2020-06-29T14:11:03Z</time>
      </trkpt>
      <trkpt lat="48.69138" lon="6.15154">
        <ele>296.1</ele>
        <time>2020-06-29T14:11:04Z</time>
      </trkpt>
      <trkpt lat="48.69139" lon="6.1515">
        <ele>296.4</ele>
        <time>2020-06-29T14:11:05Z</time>
      </trkpt>
      <trkpt lat="48.69139" lon="6.15145">
        <ele>296.7</ele>
        <time>2020-06-29T14:11:06Z</time>
      </trkpt>
      <trkpt lat="48.69139" lon="6.15143">
        <ele>296.8</ele>
        <time>2020-06-29T14:11:07Z</time>
      </trkpt>
      <trkpt lat="48.6914" lon="6.15141">
        <ele>297</ele>
        <time>2020-06-29T14:11:08Z</time>
      </trkpt>
      <trkpt lat="48.6914" lon="6.15139">
        <ele>297.2</ele>
        <time>2020-06-29T14:11:09Z</time>
      </trkpt>
      <trkpt lat="48.69141" lon="6.15137">
        <ele>297.3</ele>
        <time>2020-06-29T14:11:10Z</time>
      </trkpt>
      <trkpt lat="48.69142" lon="6.15136">
        <ele>297.4</ele>
        <time>2020-06-29T14:11:11Z</time>
      </trkpt>
      <trkpt lat="48.69143" lon="6.15133">
        <ele>297.6</ele>
        <time>2020-06-29T14:11:12Z</time>
      </trkpt>
      <trkpt lat="48.69143" lon="6.15131">
        <ele>297.8</ele>
        <time>2020-06-29T14:11:13Z</time>
      </trkpt>
      <trkpt lat="48.69147" lon="6.15129">
        <ele>298.2</ele>
        <time>2020-06-29T14:11:14Z</time>
      </trkpt>
      <trkpt lat="48.69148" lon="6.15127">
        <ele>298.3</ele>
        <time>2020-06-29T14:11:15Z</time>
      </trkpt>
      <trkpt lat="48.69149" lon="6.15123">
        <ele>298.7</ele>
        <time>2020-06-29T14:11:16Z</time>
      </trkpt>
      <trkpt lat="48.69149" lon="6.15121">
        <ele>298.8</ele>
        <time>2020-06-29T14:11:17Z</time>
      </trkpt>
      <trkpt lat="48.69151" lon="6.15116">
        <ele>299.1</ele>
        <time>2020-06-29T14:11:18Z</time>
      </trkpt>
      <trkpt lat="48.69151" lon="6.15113">
        <ele>299.4</ele>
        <time>2020-06-29T14:11:19Z</time>
      </trkpt>
      <trkpt lat="48.69151" lon="6.15111">
        <ele>299.5</ele>
        <time>2020-06-29T14:11:20Z</time>
      </trkpt>
      <trkpt lat="48.69151" lon="6.15108">
        <ele>299.7</ele>
        <time>2020-06-29T14:11:21Z</time>
      </trkpt>
      <trkpt lat="48.6915" lon="6.15106">
        <ele>299.8</ele>
        <time>2020-06-29T14:11:22Z</time>
      </trkpt>
      <trkpt lat="48.69151" lon="6.151">
        <ele>300.2</ele>
        <time>2020-06-29T14:11:23Z</time>
      </trkpt>
      <trkpt lat="48.69151" lon="6.15098">
        <ele>300.3</ele>
        <time>2020-06-29T14:11:24Z</time>
      </trkpt>
      <trkpt lat="48.69153" lon="6.15094">
        <ele>300.6</ele>
        <time>2020-06-29T14:11:25Z</time>
      </trkpt>
      <trkpt lat="48.69153" lon="6.15092">
        <ele>300.7</ele>
        <time>2020-06-29T14:11:26Z</time>
      </trkpt>
      <trkpt lat="48.69154" lon="6.15089">
        <ele>300.9</ele>
        <time>2020-06-29T14:11:27Z</time>
      </trkpt>
      <trkpt lat="48.69153" lon="6.15087">
        <ele>301.1</ele>
        <time>2020-06-29T14:11:28Z</time>
      </trkpt>
      <trkpt lat="48.69153" lon="6.15082">
        <ele>301.4</ele>
        <time>2020-06-29T14:11:29Z</time>
      </trkpt>
      <trkpt lat="48.69153" lon="6.1508">
        <ele>301.5</ele>
        <time>2020-06-29T14:11:30Z</time>
      </trkpt>
      <trkpt lat="48.69153" lon="6.15076">
        <ele>301.7</ele>
        <time>2020-06-29T14:11:31Z</time>
      </trkpt>
      <trkpt lat="48.69153" lon="6.15074">
        <ele>301.8</ele>
        <time>2020-06-29T14:11:32Z</time>
      </trkpt>
      <trkpt lat="48.69154" lon="6.15069">
        <ele>302.1</ele>
        <time>2020-06-29T14:11:33Z</time>
      </trkpt>
      <trkpt lat="48.69154" lon="6.15068">
        <ele>302.2</ele>
        <time>2020-06-29T14:11:34Z</time>
      </trkpt>
      <trkpt lat="48.69155" lon="6.15064">
        <ele>302.4</ele>
        <time>2020-06-29T14:11:35Z</time>
      </trkpt>
      <trkpt lat="48.69155" lon="6.15063">
        <ele>302.6</ele>
        <time>2020-06-29T14:11:36Z</time>
      </trkpt>
      <trkpt lat="48.69156" lon="6.1506">
        <ele>302.7</ele>
        <time>2020-06-29T14:11:37Z</time>
      </trkpt>
      <trkpt lat="48.69157" lon="6.15055">
        <ele>303.1</ele>
        <time>2020-06-29T14:11:38Z</time>
      </trkpt>
      <trkpt lat="48.69158" lon="6.15053">
        <ele>303.2</ele>
        <time>2020-06-29T14:11:39Z</time>
      </trkpt>
      <trkpt lat="48.6916" lon="6.15049">
        <ele>303.5</ele>
        <time>2020-06-29T14:11:40Z</time>
      </trkpt>
      <trkpt lat="48.6916" lon="6.15047">
        <ele>303.7</ele>
        <time>2020-06-29T14:11:41Z</time>
      </trkpt>
      <trkpt lat="48.69162" lon="6.15043">
        <ele>303.9</ele>
        <time>2020-06-29T14:11:42Z</time>
      </trkpt>
      <trkpt lat="48.69161" lon="6.15038">
        <ele>304.2</ele>
        <time>2020-06-29T14:11:43Z</time>
      </trkpt>
      <trkpt lat="48.69162" lon="6.15037">
        <ele>304.3</ele>
        <time>2020-06-29T14:11:44Z</time>
      </trkpt>
      <trkpt lat="48.69161" lon="6.15032">
        <ele>304.6</ele>
        <time>2020-06-29T14:11:45Z</time>
      </trkpt>
      <trkpt lat="48.6916" lon="6.1503">
        <ele>304.8</ele>
        <time>2020-06-29T14:11:46Z</time>
      </trkpt>
      <trkpt lat="48.69162" lon="6.15029">
        <ele>304.9</ele>
        <time>2020-06-29T14:11:47Z</time>
      </trkpt>
      <trkpt lat="48.69163" lon="6.15028">
        <ele>305</ele>
        <time>2020-06-29T14:11:48Z</time>
      </trkpt>
      <trkpt lat="48.69164" lon="6.15026">
        <ele>305.2</ele>
        <time>2020-06-29T14:11:49Z</time>
      </trkpt>
      <trkpt lat="48.69164" lon="6.15024">
        <ele>305.4</ele>
        <time>2020-06-29T14:11:50Z</time>
      </trkpt>
      <trkpt lat="48.69165" lon="6.1502">
        <ele>305.6</ele>
        <time>2020-06-29T14:11:51Z</time>
      </trkpt>
      <trkpt lat="48.69165" lon="6.15019">
        <ele>305.6</ele>
        <time>2020-06-29T14:11:52Z</time>
      </trkpt>
      <trkpt lat="48.69165" lon="6.15018">
        <ele>305.7</ele>
        <time>2020-06-29T14:11:53Z</time>
      </trkpt>
      <trkpt lat="48.69165" lon="6.15015">
        <ele>305.9</ele>
        <time>2020-06-29T14:11:54Z</time>
      </trkpt>
      <trkpt lat="48.69166" lon="6.15013">
        <ele>306.1</ele>
        <time>2020-06-29T14:11:55Z</time>
      </trkpt>
      <trkpt lat="48.69168" lon="6.15009">
        <ele>306.5</ele>
        <time>2020-06-29T14:11:56Z</time>
      </trkpt>
      <trkpt lat="48.69169" lon="6.15008">
        <ele>306.6</ele>
        <time>2020-06-29T14:11:57Z</time>
      </trkpt>
      <trkpt lat="48.6917" lon="6.15004">
        <ele>306.9</ele>
        <time>2020-06-29T14:11:58Z</time>
      </trkpt>
      <trkpt lat="48.6917" lon="6.15002">
        <ele>307</ele>
        <time>2020-06-29T14:11:59Z</time>
      </trkpt>
      <trkpt lat="48.69172" lon="6.14998">
        <ele>307.3</ele>
        <time>2020-06-29T14:12:00Z</time>
      </trkpt>
      <trkpt lat="48.69174" lon="6.14993">
        <ele>307.6</ele>
        <time>2020-06-29T14:12:01Z</time>
      </trkpt>
      <trkpt lat="48.69174" lon="6.14992">
        <ele>307.7</ele>
        <time>2020-06-29T14:12:02Z</time>
      </trkpt>
      <trkpt lat="48.69175" lon="6.14986">
        <ele>308</ele>
        <time>2020-06-29T14:12:03Z</time>
      </trkpt>
      <trkpt lat="48.69175" lon="6.14985">
        <ele>308.1</ele>
        <time>2020-06-29T14:12:04Z</time>
      </trkpt>
      <trkpt lat="48.69176" lon="6.14979">
        <ele>308.4</ele>
        <time>2020-06-29T14:12:05Z</time>
      </trkpt>
      <trkpt lat="48.69176" lon="6.14978">
        <ele>308.5</ele>
        <time>2020-06-29T14:12:06Z</time>
      </trkpt>
      <trkpt lat="48.69177" lon="6.14974">
        <ele>308.8</ele>
        <time>2020-06-29T14:12:07Z</time>
      </trkpt>
      <trkpt lat="48.69177" lon="6.14972">
        <ele>308.9</ele>
        <time>2020-06-29T14:12:08Z</time>
      </trkpt>
      <trkpt lat="48.69177" lon="6.14967">
        <ele>309.1</ele>
        <time>2020-06-29T14:12:09Z</time>
      </trkpt>
      <trkpt lat="48.69178" lon="6.14961">
        <ele>309.5</ele>
        <time>2020-06-29T14:12:10Z</time>
      </trkpt>
      <trkpt lat="48.69178" lon="6.14959">
        <ele>309.6</ele>
        <time>2020-06-29T14:12:11Z</time>
      </trkpt>
      <trkpt lat="48.69178" lon="6.14954">
        <ele>309.8</ele>
        <time>2020-06-29T14:12:12Z</time>
      </trkpt>
      <trkpt lat="48.69178" lon="6.14953">
        <ele>309.9</ele>
        <time>2020-06-29T14:12:13Z</time>
      </trkpt>
      <trkpt lat="48.69179" lon="6.14948">
        <ele>310.2</ele>
        <time>2020-06-29T14:12:14Z</time>
      </trkpt>
      <trkpt lat="48.6918" lon="6.14947">
        <ele>310.2</ele>
        <time>2020-06-29T14:12:15Z</time>
      </trkpt>
      <trkpt lat="48.69181" lon="6.14943">
        <ele>310.5</ele>
        <time>2020-06-29T14:12:16Z</time>
      </trkpt>
      <trkpt lat="48.69182" lon="6.14942">
        <ele>310.6</ele>
        <time>2020-06-29T14:12:17Z</time>
      </trkpt>
      <trkpt lat="48.69182" lon="6.14937">
        <ele>310.9</ele>
        <time>2020-06-29T14:12:18Z</time>
      </trkpt>
      <trkpt lat="48.69182" lon="6.14935">
        <ele>311</ele>
        <time>2020-06-29T14:12:19Z</time>
      </trkpt>
      <trkpt lat="48.69184" lon="6.1493">
        <ele>311.2</ele>
        <time>2020-06-29T14:12:20Z</time>
      </trkpt>
      <trkpt lat="48.69184" lon="6.14929">
        <ele>311.3</ele>
        <time>2020-06-29T14:12:21Z</time>
      </trkpt>
      <trkpt lat="48.69185" lon="6.14925">
        <ele>311.6</ele>
        <time>2020-06-29T14:12:22Z</time>
      </trkpt>
      <trkpt lat="48.69186" lon="6.14923">
        <ele>311.7</ele>
        <time>2020-06-29T14:12:23Z</time>
      </trkpt>
      <trkpt lat="48.69185" lon="6.14918">
        <ele>311.9</ele>
        <time>2020-06-29T14:12:24Z</time>
      </trkpt>
      <trkpt lat="48.69185" lon="6.14917">
        <ele>312</ele>
        <time>2020-06-29T14:12:25Z</time>
      </trkpt>
      <trkpt lat="48.69186" lon="6.14912">
        <ele>312.3</ele>
        <time>2020-06-29T14:12:26Z</time>
      </trkpt>
      <trkpt lat="48.69186" lon="6.1491">
        <ele>312.4</ele>
        <time>2020-06-29T14:12:27Z</time>
      </trkpt>
      <trkpt lat="48.69186" lon="6.14904">
        <ele>312.7</ele>
        <time>2020-06-29T14:12:28Z</time>
      </trkpt>
      <trkpt lat="48.69186" lon="6.14902">
        <ele>312.9</ele>
        <time>2020-06-29T14:12:29Z</time>
      </trkpt>
      <trkpt lat="48.69187" lon="6.149">
        <ele>313</ele>
        <time>2020-06-29T14:12:30Z</time>
      </trkpt>
      <trkpt lat="48.69187" lon="6.14897">
        <ele>313.2</ele>
        <time>2020-06-29T14:12:31Z</time>
      </trkpt>
      <trkpt lat="48.69188" lon="6.14893">
        <ele>313.4</ele>
        <time>2020-06-29T14:12:32Z</time>
      </trkpt>
      <trkpt lat="48.69188" lon="6.14891">
        <ele>313.5</ele>
        <time>2020-06-29T14:12:33Z</time>
      </trkpt>
      <trkpt lat="48.69189" lon="6.14889">
        <ele>313.7</ele>
        <time>2020-06-29T14:12:34Z</time>
      </trkpt>
      <trkpt lat="48.6919" lon="6.14887">
        <ele>313.8</ele>
        <time>2020-06-29T14:12:35Z</time>
      </trkpt>
      <trkpt lat="48.69192" lon="6.14884">
        <ele>314.1</ele>
        <time>2020-06-29T14:12:36Z</time>
      </trkpt>
      <trkpt lat="48.69193" lon="6.14882">
        <ele>314.2</ele>
        <time>2020-06-29T14:12:37Z</time>
      </trkpt>
      <trkpt lat="48.69193" lon="6.14878">
        <ele>314.4</ele>
        <time>2020-06-29T14:12:38Z</time>
      </trkpt>
      <trkpt lat="48.69194" lon="6.14876">
        <ele>314.5</ele>
        <time>2020-06-29T14:12:39Z</time>
      </trkpt>
      <trkpt lat="48.69194" lon="6.14873">
        <ele>314.7</ele>
        <time>2020-06-29T14:12:40Z</time>
      </trkpt>
      <trkpt lat="48.69195" lon="6.14871">
        <ele>314.8</ele>
        <time>2020-06-29T14:12:41Z</time>
      </trkpt>
      <trkpt lat="48.69196" lon="6.14868">
        <ele>315</ele>
        <time>2020-06-29T14:12:42Z</time>
      </trkpt>
      <trkpt lat="48.69197" lon="6.14867">
        <ele>315.1</ele>
        <time>2020-06-29T14:12:43Z</time>
      </trkpt>
      <trkpt lat="48.69198" lon="6.14864">
        <ele>315.2</ele>
        <time>2020-06-29T14:12:44Z</time>
      </trkpt>
      <trkpt lat="48.69198" lon="6.14862">
        <ele>315.3</ele>
        <time>2020-06-29T14:12:45Z</time>
      </trkpt>
      <trkpt lat="48.692" lon="6.14858">
        <ele>315.6</ele>
        <time>2020-06-29T14:12:46Z</time>
      </trkpt>
      <trkpt lat="48.692" lon="6.14857">
        <ele>315.6</ele>
        <time>2020-06-29T14:12:47Z</time>
      </trkpt>
      <trkpt lat="48.69201" lon="6.14853">
        <ele>316</ele>
        <time>2020-06-29T14:12:48Z</time>
      </trkpt>
      <trkpt lat="48.69203" lon="6.14849">
        <ele>316.2</ele>
        <time>2020-06-29T14:12:49Z</time>
      </trkpt>
      <trkpt lat="48.69204" lon="6.14843">
        <ele>316.6</ele>
        <time>2020-06-29T14:12:50Z</time>
      </trkpt>
      <trkpt lat="48.69204" lon="6.14842">
        <ele>316.7</ele>
        <time>2020-06-29T14:12:51Z</time>
      </trkpt>
      <trkpt lat="48.69204" lon="6.14836">
        <ele>317</ele>
        <time>2020-06-29T14:12:52Z</time>
      </trkpt>
      <trkpt lat="48.69204" lon="6.14835">
        <ele>317.1</ele>
        <time>2020-06-29T14:12:53Z</time>
      </trkpt>
      <trkpt lat="48.69205" lon="6.1483">
        <ele>317.3</ele>
        <time>2020-06-29T14:12:54Z</time>
      </trkpt>
      <trkpt lat="48.69205" lon="6.14829">
        <ele>317.4</ele>
        <time>2020-06-29T14:12:55Z</time>
      </trkpt>
      <trkpt lat="48.69206" lon="6.14824">
        <ele>317.7</ele>
        <time>2020-06-29T14:12:56Z</time>
      </trkpt>
      <trkpt lat="48.69207" lon="6.14822">
        <ele>317.8</ele>
        <time>2020-06-29T14:12:57Z</time>
      </trkpt>
      <trkpt lat="48.69208" lon="6.1482">
        <ele>318</ele>
        <time>2020-06-29T14:12:58Z</time>
      </trkpt>
      <trkpt lat="48.69209" lon="6.14818">
        <ele>318.1</ele>
        <time>2020-06-29T14:12:59Z</time>
      </trkpt>
      <trkpt lat="48.69209" lon="6.14815">
        <ele>318.2</ele>
        <time>2020-06-29T14:13:00Z</time>
      </trkpt>
      <trkpt lat="48.69209" lon="6.14813">
        <ele>318.4</ele>
        <time>2020-06-29T14:13:01Z</time>
      </trkpt>
      <trkpt lat="48.6921" lon="6.1481">
        <ele>318.5</ele>
        <time>2020-06-29T14:13:02Z</time>
      </trkpt>
      <trkpt lat="48.69211" lon="6.14809">
        <ele>318.6</ele>
        <time>2020-06-29T14:13:03Z</time>
      </trkpt>
      <trkpt lat="48.69211" lon="6.14807">
        <ele>318.7</ele>
        <time>2020-06-29T14:13:04Z</time>
      </trkpt>
      <trkpt lat="48.69211" lon="6.14805">
        <ele>318.8</ele>
        <time>2020-06-29T14:13:05Z</time>
      </trkpt>
      <trkpt lat="48.69211" lon="6.14803">
        <ele>318.9</ele>
        <time>2020-06-29T14:13:06Z</time>
      </trkpt>
      <trkpt lat="48.69212" lon="6.14797">
        <ele>319.3</ele>
        <time>2020-06-29T14:13:07Z</time>
      </trkpt>
      <trkpt lat="48.69213" lon="6.14795">
        <ele>319.4</ele>
        <time>2020-06-29T14:13:08Z</time>
      </trkpt>
      <trkpt lat="48.69214" lon="6.14791">
        <ele>319.7</ele>
        <time>2020-06-29T14:13:09Z</time>
      </trkpt>
      <trkpt lat="48.69215" lon="6.14789">
        <ele>319.8</ele>
        <time>2020-06-29T14:13:10Z</time>
      </trkpt>
      <trkpt lat="48.69216" lon="6.14785">
        <ele>320</ele>
        <time>2020-06-29T14:13:11Z</time>
      </trkpt>
      <trkpt lat="48.69217" lon="6.1478">
        <ele>320.4</ele>
        <time>2020-06-29T14:13:12Z</time>
      </trkpt>
      <trkpt lat="48.69218" lon="6.14778">
        <ele>320.5</ele>
        <time>2020-06-29T14:13:13Z</time>
      </trkpt>
      <trkpt lat="48.6922" lon="6.14774">
        <ele>320.8</ele>
        <time>2020-06-29T14:13:14Z</time>
      </trkpt>
      <trkpt lat="48.6922" lon="6.14772">
        <ele>320.9</ele>
        <time>2020-06-29T14:13:15Z</time>
      </trkpt>
      <trkpt lat="48.69222" lon="6.14767">
        <ele>321.1</ele>
        <time>2020-06-29T14:13:16Z</time>
      </trkpt>
      <trkpt lat="48.69222" lon="6.14765">
        <ele>321.2</ele>
        <time>2020-06-29T14:13:17Z</time>
      </trkpt>
      <trkpt lat="48.69223" lon="6.1476">
        <ele>321.5</ele>
        <time>2020-06-29T14:13:18Z</time>
      </trkpt>
      <trkpt lat="48.69224" lon="6.14759">
        <ele>321.6</ele>
        <time>2020-06-29T14:13:19Z</time>
      </trkpt>
      <trkpt lat="48.69225" lon="6.14755">
        <ele>321.8</ele>
        <time>2020-06-29T14:13:20Z</time>
      </trkpt>
      <trkpt lat="48.69225" lon="6.14753">
        <ele>321.8</ele>
        <time>2020-06-29T14:13:21Z</time>
      </trkpt>
      <trkpt lat="48.69225" lon="6.14751">
        <ele>321.9</ele>
        <time>2020-06-29T14:13:22Z</time>
      </trkpt>
      <trkpt lat="48.69225" lon="6.14749">
        <ele>322</ele>
        <time>2020-06-29T14:13:23Z</time>
      </trkpt>
      <trkpt lat="48.69227" lon="6.14745">
        <ele>322.4</ele>
        <time>2020-06-29T14:13:24Z</time>
      </trkpt>
      <trkpt lat="48.69228" lon="6.14743">
        <ele>322.4</ele>
        <time>2020-06-29T14:13:25Z</time>
      </trkpt>
      <trkpt lat="48.69229" lon="6.14739">
        <ele>322.6</ele>
        <time>2020-06-29T14:13:26Z</time>
      </trkpt>
      <trkpt lat="48.6923" lon="6.14737">
        <ele>322.7</ele>
        <time>2020-06-29T14:13:27Z</time>
      </trkpt>
      <trkpt lat="48.6923" lon="6.14735">
        <ele>322.8</ele>
        <time>2020-06-29T14:13:28Z</time>
      </trkpt>
      <trkpt lat="48.69231" lon="6.14732">
        <ele>322.9</ele>
        <time>2020-06-29T14:13:29Z</time>
      </trkpt>
      <trkpt lat="48.69232" lon="6.14728">
        <ele>323.1</ele>
        <time>2020-06-29T14:13:30Z</time>
      </trkpt>
      <trkpt lat="48.69232" lon="6.14724">
        <ele>323.3</ele>
        <time>2020-06-29T14:13:31Z</time>
      </trkpt>
      <trkpt lat="48.69232" lon="6.14723">
        <ele>323.3</ele>
        <time>2020-06-29T14:13:32Z</time>
      </trkpt>
      <trkpt lat="48.69232" lon="6.14717">
        <ele>323.5</ele>
        <time>2020-06-29T14:13:33Z</time>
      </trkpt>
      <trkpt lat="48.69233" lon="6.14716">
        <ele>323.6</ele>
        <time>2020-06-29T14:13:34Z</time>
      </trkpt>
      <trkpt lat="48.69233" lon="6.14711">
        <ele>323.7</ele>
        <time>2020-06-29T14:13:35Z</time>
      </trkpt>
      <trkpt lat="48.69233" lon="6.14709">
        <ele>323.8</ele>
        <time>2020-06-29T14:13:36Z</time>
      </trkpt>
      <trkpt lat="48.69234" lon="6.14705">
        <ele>324</ele>
        <time>2020-06-29T14:13:37Z</time>
      </trkpt>
      <trkpt lat="48.69236" lon="6.147">
        <ele>324.2</ele>
        <time>2020-06-29T14:13:38Z</time>
      </trkpt>
      <trkpt lat="48.69236" lon="6.14699">
        <ele>324.3</ele>
        <time>2020-06-29T14:13:39Z</time>
      </trkpt>
      <trkpt lat="48.69238" lon="6.14695">
        <ele>324.6</ele>
        <time>2020-06-29T14:13:40Z</time>
      </trkpt>
      <trkpt lat="48.69239" lon="6.14691">
        <ele>324.9</ele>
        <time>2020-06-29T14:13:41Z</time>
      </trkpt>
      <trkpt lat="48.69239" lon="6.14689">
        <ele>324.9</ele>
        <time>2020-06-29T14:13:42Z</time>
      </trkpt>
      <trkpt lat="48.69238" lon="6.14686">
        <ele>325.1</ele>
        <time>2020-06-29T14:13:43Z</time>
      </trkpt>
      <trkpt lat="48.69239" lon="6.14684">
        <ele>325.3</ele>
        <time>2020-06-29T14:13:44Z</time>
      </trkpt>
      <trkpt lat="48.6924" lon="6.14678">
        <ele>325.6</ele>
        <time>2020-06-29T14:13:45Z</time>
      </trkpt>
      <trkpt lat="48.69241" lon="6.14677">
        <ele>325.7</ele>
        <time>2020-06-29T14:13:46Z</time>
      </trkpt>
      <trkpt lat="48.69241" lon="6.14672">
        <ele>326</ele>
        <time>2020-06-29T14:13:47Z</time>
      </trkpt>
      <trkpt lat="48.69242" lon="6.1467">
        <ele>326.1</ele>
        <time>2020-06-29T14:13:48Z</time>
      </trkpt>
      <trkpt lat="48.69242" lon="6.14664">
        <ele>326.4</ele>
        <time>2020-06-29T14:13:49Z</time>
      </trkpt>
      <trkpt lat="48.69242" lon="6.14662">
        <ele>326.5</ele>
        <time>2020-06-29T14:13:50Z</time>
      </trkpt>
      <trkpt lat="48.69243" lon="6.14658">
        <ele>326.7</ele>
        <time>2020-06-29T14:13:51Z</time>
      </trkpt>
      <trkpt lat="48.69244" lon="6.14654">
        <ele>326.9</ele>
        <time>2020-06-29T14:13:52Z</time>
      </trkpt>
      <trkpt lat="48.69245" lon="6.1465">
        <ele>327.1</ele>
        <time>2020-06-29T14:13:53Z</time>
      </trkpt>
      <trkpt lat="48.69247" lon="6.14645">
        <ele>327.3</ele>
        <time>2020-06-29T14:13:54Z</time>
      </trkpt>
      <trkpt lat="48.69247" lon="6.1464">
        <ele>327.5</ele>
        <time>2020-06-29T14:13:55Z</time>
      </trkpt>
      <trkpt lat="48.69248" lon="6.14636">
        <ele>327.7</ele>
        <time>2020-06-29T14:13:56Z</time>
      </trkpt>
      <trkpt lat="48.69249" lon="6.14632">
        <ele>327.9</ele>
        <time>2020-06-29T14:13:57Z</time>
      </trkpt>
      <trkpt lat="48.6925" lon="6.14627">
        <ele>328.1</ele>
        <time>2020-06-29T14:13:58Z</time>
      </trkpt>
      <trkpt lat="48.6925" lon="6.14625">
        <ele>328.2</ele>
        <time>2020-06-29T14:13:59Z</time>
      </trkpt>
      <trkpt lat="48.69251" lon="6.1462">
        <ele>328.4</ele>
        <time>2020-06-29T14:14:00Z</time>
      </trkpt>
      <trkpt lat="48.69251" lon="6.14618">
        <ele>328.5</ele>
        <time>2020-06-29T14:14:01Z</time>
      </trkpt>
      <trkpt lat="48.69252" lon="6.14613">
        <ele>328.7</ele>
        <time>2020-06-29T14:14:02Z</time>
      </trkpt>
      <trkpt lat="48.69253" lon="6.14611">
        <ele>328.8</ele>
        <time>2020-06-29T14:14:03Z</time>
      </trkpt>
      <trkpt lat="48.69254" lon="6.14606">
        <ele>329</ele>
        <time>2020-06-29T14:14:04Z</time>
      </trkpt>
      <trkpt lat="48.69254" lon="6.14604">
        <ele>329.1</ele>
        <time>2020-06-29T14:14:05Z</time>
      </trkpt>
      <trkpt lat="48.69255" lon="6.146">
        <ele>329.3</ele>
        <time>2020-06-29T14:14:06Z</time>
      </trkpt>
      <trkpt lat="48.69256" lon="6.14596">
        <ele>329.4</ele>
        <time>2020-06-29T14:14:07Z</time>
      </trkpt>
      <trkpt lat="48.69257" lon="6.14591">
        <ele>329.7</ele>
        <time>2020-06-29T14:14:08Z</time>
      </trkpt>
      <trkpt lat="48.69257" lon="6.14589">
        <ele>329.7</ele>
        <time>2020-06-29T14:14:09Z</time>
      </trkpt>
      <trkpt lat="48.69258" lon="6.14584">
        <ele>330</ele>
        <time>2020-06-29T14:14:10Z</time>
      </trkpt>
      <trkpt lat="48.69259" lon="6.14582">
        <ele>330</ele>
        <time>2020-06-29T14:14:11Z</time>
      </trkpt>
      <trkpt lat="48.69261" lon="6.14578">
        <ele>330.2</ele>
        <time>2020-06-29T14:14:12Z</time>
      </trkpt>
      <trkpt lat="48.69262" lon="6.14573">
        <ele>330.4</ele>
        <time>2020-06-29T14:14:13Z</time>
      </trkpt>
      <trkpt lat="48.69262" lon="6.14571">
        <ele>330.5</ele>
        <time>2020-06-29T14:14:14Z</time>
      </trkpt>
      <trkpt lat="48.69263" lon="6.14566">
        <ele>330.7</ele>
        <time>2020-06-29T14:14:15Z</time>
      </trkpt>
      <trkpt lat="48.69264" lon="6.14561">
        <ele>330.9</ele>
        <time>2020-06-29T14:14:16Z</time>
      </trkpt>
      <trkpt lat="48.69265" lon="6.14558">
        <ele>331</ele>
        <time>2020-06-29T14:14:17Z</time>
      </trkpt>
      <trkpt lat="48.69266" lon="6.14554">
        <ele>331.2</ele>
        <time>2020-06-29T14:14:18Z</time>
      </trkpt>
      <trkpt lat="48.69267" lon="6.1455">
        <ele>331.3</ele>
        <time>2020-06-29T14:14:19Z</time>
      </trkpt>
      <trkpt lat="48.69267" lon="6.14549">
        <ele>331.4</ele>
        <time>2020-06-29T14:14:20Z</time>
      </trkpt>
      <trkpt lat="48.69268" lon="6.14545">
        <ele>331.6</ele>
        <time>2020-06-29T14:14:21Z</time>
      </trkpt>
      <trkpt lat="48.69269" lon="6.14541">
        <ele>331.7</ele>
        <time>2020-06-29T14:14:22Z</time>
      </trkpt>
      <trkpt lat="48.69269" lon="6.14539">
        <ele>331.8</ele>
        <time>2020-06-29T14:14:23Z</time>
      </trkpt>
      <trkpt lat="48.6927" lon="6.14535">
        <ele>332</ele>
        <time>2020-06-29T14:14:24Z</time>
      </trkpt>
      <trkpt lat="48.69271" lon="6.14531">
        <ele>332.1</ele>
        <time>2020-06-29T14:14:25Z</time>
      </trkpt>
      <trkpt lat="48.69272" lon="6.14525">
        <ele>332.4</ele>
        <time>2020-06-29T14:14:26Z</time>
      </trkpt>
      <trkpt lat="48.69272" lon="6.14523">
        <ele>332.4</ele>
        <time>2020-06-29T14:14:27Z</time>
      </trkpt>
      <trkpt lat="48.69272" lon="6.14518">
        <ele>332.6</ele>
        <time>2020-06-29T14:14:28Z</time>
      </trkpt>
      <trkpt lat="48.69273" lon="6.14513">
        <ele>332.8</ele>
        <time>2020-06-29T14:14:29Z</time>
      </trkpt>
      <trkpt lat="48.69274" lon="6.14509">
        <ele>333</ele>
        <time>2020-06-29T14:14:30Z</time>
      </trkpt>
      <trkpt lat="48.69275" lon="6.14503">
        <ele>333.2</ele>
        <time>2020-06-29T14:14:31Z</time>
      </trkpt>
      <trkpt lat="48.69276" lon="6.14501">
        <ele>333.2</ele>
        <time>2020-06-29T14:14:32Z</time>
      </trkpt>
      <trkpt lat="48.69277" lon="6.14496">
        <ele>333.4</ele>
        <time>2020-06-29T14:14:33Z</time>
      </trkpt>
      <trkpt lat="48.69278" lon="6.14494">
        <ele>333.5</ele>
        <time>2020-06-29T14:14:34Z</time>
      </trkpt>
      <trkpt lat="48.69279" lon="6.14489">
        <ele>333.7</ele>
        <time>2020-06-29T14:14:35Z</time>
      </trkpt>
      <trkpt lat="48.69279" lon="6.14487">
        <ele>333.7</ele>
        <time>2020-06-29T14:14:36Z</time>
      </trkpt>
      <trkpt lat="48.69281" lon="6.14481">
        <ele>333.9</ele>
        <time>2020-06-29T14:14:37Z</time>
      </trkpt>
      <trkpt lat="48.69281" lon="6.14479">
        <ele>334</ele>
        <time>2020-06-29T14:14:38Z</time>
      </trkpt>
      <trkpt lat="48.69282" lon="6.14474">
        <ele>334.2</ele>
        <time>2020-06-29T14:14:39Z</time>
      </trkpt>
      <trkpt lat="48.69283" lon="6.1447">
        <ele>334.3</ele>
        <time>2020-06-29T14:14:40Z</time>
      </trkpt>
      <trkpt lat="48.69283" lon="6.14465">
        <ele>334.4</ele>
        <time>2020-06-29T14:14:41Z</time>
      </trkpt>
      <trkpt lat="48.69284" lon="6.14461">
        <ele>334.5</ele>
        <time>2020-06-29T14:14:42Z</time>
      </trkpt>
      <trkpt lat="48.69284" lon="6.14457">
        <ele>334.6</ele>
        <time>2020-06-29T14:14:43Z</time>
      </trkpt>
      <trkpt lat="48.69285" lon="6.14453">
        <ele>334.7</ele>
        <time>2020-06-29T14:14:44Z</time>
      </trkpt>
      <trkpt lat="48.69285" lon="6.14448">
        <ele>334.8</ele>
        <time>2020-06-29T14:14:45Z</time>
      </trkpt>
      <trkpt lat="48.69286" lon="6.14444">
        <ele>334.9</ele>
        <time>2020-06-29T14:14:46Z</time>
      </trkpt>
      <trkpt lat="48.69287" lon="6.14439">
        <ele>335</ele>
        <time>2020-06-29T14:14:47Z</time>
      </trkpt>
      <trkpt lat="48.69287" lon="6.14434">
        <ele>335.2</ele>
        <time>2020-06-29T14:14:48Z</time>
      </trkpt>
      <trkpt lat="48.69287" lon="6.14428">
        <ele>335.3</ele>
        <time>2020-06-29T14:14:49Z</time>
      </trkpt>
      <trkpt lat="48.69287" lon="6.14426">
        <ele>335.3</ele>
        <time>2020-06-29T14:14:50Z</time>
      </trkpt>
      <trkpt lat="48.69287" lon="6.14421">
        <ele>335.4</ele>
        <time>2020-06-29T14:14:51Z</time>
      </trkpt>
      <trkpt lat="48.69287" lon="6.14417">
        <ele>335.4</ele>
        <time>2020-06-29T14:14:52Z</time>
      </trkpt>
      <trkpt lat="48.69288" lon="6.14412">
        <ele>335.5</ele>
        <time>2020-06-29T14:14:53Z</time>
      </trkpt>
      <trkpt lat="48.69289" lon="6.14407">
        <ele>335.5</ele>
        <time>2020-06-29T14:14:54Z</time>
      </trkpt>
      <trkpt lat="48.69289" lon="6.14401">
        <ele>335.5</ele>
        <time>2020-06-29T14:14:55Z</time>
      </trkpt>
      <trkpt lat="48.6929" lon="6.14397">
        <ele>335.6</ele>
        <time>2020-06-29T14:14:56Z</time>
      </trkpt>
      <trkpt lat="48.69291" lon="6.14391">
        <ele>335.6</ele>
        <time>2020-06-29T14:14:57Z</time>
      </trkpt>
      <trkpt lat="48.69292" lon="6.14385">
        <ele>335.6</ele>
        <time>2020-06-29T14:14:58Z</time>
      </trkpt>
      <trkpt lat="48.69292" lon="6.14383">
        <ele>335.6</ele>
        <time>2020-06-29T14:14:59Z</time>
      </trkpt>
      <trkpt lat="48.69293" lon="6.14378">
        <ele>335.7</ele>
        <time>2020-06-29T14:15:00Z</time>
      </trkpt>
      <trkpt lat="48.69294" lon="6.14373">
        <ele>335.7</ele>
        <time>2020-06-29T14:15:01Z</time>
      </trkpt>
      <trkpt lat="48.69295" lon="6.14368">
        <ele>335.7</ele>
        <time>2020-06-29T14:15:02Z</time>
      </trkpt>
      <trkpt lat="48.69296" lon="6.14362">
        <ele>335.7</ele>
        <time>2020-06-29T14:15:03Z</time>
      </trkpt>
      <trkpt lat="48.69297" lon="6.14357">
        <ele>335.8</ele>
        <time>2020-06-29T14:15:04Z</time>
      </trkpt>
      <trkpt lat="48.69299" lon="6.14351">
        <ele>335.9</ele>
        <time>2020-06-29T14:15:05Z</time>
      </trkpt>
      <trkpt lat="48.69299" lon="6.14344">
        <ele>335.9</ele>
        <time>2020-06-29T14:15:06Z</time>
      </trkpt>
      <trkpt lat="48.69299" lon="6.14338">
        <ele>336.1</ele>
        <time>2020-06-29T14:15:07Z</time>
      </trkpt>
      <trkpt lat="48.69299" lon="6.14333">
        <ele>336.1</ele>
        <time>2020-06-29T14:15:08Z</time>
      </trkpt>
      <trkpt lat="48.69301" lon="6.14327">
        <ele>336</ele>
        <time>2020-06-29T14:15:09Z</time>
      </trkpt>
      <trkpt lat="48.69302" lon="6.1432">
        <ele>336</ele>
        <time>2020-06-29T14:15:10Z</time>
      </trkpt>
      <trkpt lat="48.69303" lon="6.14315">
        <ele>336</ele>
        <time>2020-06-29T14:15:11Z</time>
      </trkpt>
      <trkpt lat="48.69304" lon="6.14309">
        <ele>335.9</ele>
        <time>2020-06-29T14:15:12Z</time>
      </trkpt>
      <trkpt lat="48.69304" lon="6.14303">
        <ele>335.9</ele>
        <time>2020-06-29T14:15:13Z</time>
      </trkpt>
      <trkpt lat="48.69304" lon="6.14297">
        <ele>335.9</ele>
        <time>2020-06-29T14:15:14Z</time>
      </trkpt>
      <trkpt lat="48.69305" lon="6.14291">
        <ele>335.9</ele>
        <time>2020-06-29T14:15:15Z</time>
      </trkpt>
      <trkpt lat="48.69305" lon="6.14285">
        <ele>335.9</ele>
        <time>2020-06-29T14:15:16Z</time>
      </trkpt>
      <trkpt lat="48.69306" lon="6.14279">
        <ele>335.8</ele>
        <time>2020-06-29T14:15:17Z</time>
      </trkpt>
      <trkpt lat="48.69307" lon="6.14273">
        <ele>335.8</ele>
        <time>2020-06-29T14:15:18Z</time>
      </trkpt>
      <trkpt lat="48.69307" lon="6.14267">
        <ele>335.7</ele>
        <time>2020-06-29T14:15:19Z</time>
      </trkpt>
      <trkpt lat="48.69308" lon="6.14259">
        <ele>335.7</ele>
        <time>2020-06-29T14:15:20Z</time>
      </trkpt>
      <trkpt lat="48.69308" lon="6.14253">
        <ele>335.6</ele>
        <time>2020-06-29T14:15:21Z</time>
      </trkpt>
      <trkpt lat="48.69308" lon="6.14248">
        <ele>335.6</ele>
        <time>2020-06-29T14:15:22Z</time>
      </trkpt>
      <trkpt lat="48.69308" lon="6.14243">
        <ele>335.5</ele>
        <time>2020-06-29T14:15:23Z</time>
      </trkpt>
      <trkpt lat="48.69309" lon="6.14238">
        <ele>335.5</ele>
        <time>2020-06-29T14:15:24Z</time>
      </trkpt>
      <trkpt lat="48.6931" lon="6.14234">
        <ele>335.5</ele>
        <time>2020-06-29T14:15:25Z</time>
      </trkpt>
      <trkpt lat="48.69311" lon="6.1423">
        <ele>335.4</ele>
        <time>2020-06-29T14:15:26Z</time>
      </trkpt>
      <trkpt lat="48.69312" lon="6.14223">
        <ele>335.4</ele>
        <time>2020-06-29T14:15:27Z</time>
      </trkpt>
      <trkpt lat="48.69313" lon="6.14216">
        <ele>335.3</ele>
        <time>2020-06-29T14:15:28Z</time>
      </trkpt>
      <trkpt lat="48.69313" lon="6.14209">
        <ele>335.3</ele>
        <time>2020-06-29T14:15:29Z</time>
      </trkpt>
      <trkpt lat="48.69313" lon="6.14203">
        <ele>335.2</ele>
        <time>2020-06-29T14:15:30Z</time>
      </trkpt>
      <trkpt lat="48.69314" lon="6.14198">
        <ele>335.2</ele>
        <time>2020-06-29T14:15:31Z</time>
      </trkpt>
      <trkpt lat="48.69314" lon="6.14197">
        <ele>335.2</ele>
        <time>2020-06-29T14:15:32Z</time>
      </trkpt>
      <trkpt lat="48.69314" lon="6.14194">
        <ele>335.1</ele>
        <time>2020-06-29T14:15:33Z</time>
      </trkpt>
      <trkpt lat="48.69314" lon="6.14192">
        <ele>335.1</ele>
        <time>2020-06-29T14:15:34Z</time>
      </trkpt>
      <trkpt lat="48.69314" lon="6.14191">
        <ele>335.1</ele>
        <time>2020-06-29T14:15:35Z</time>
      </trkpt>
      <trkpt lat="48.69312" lon="6.1419">
        <ele>335.1</ele>
        <time>2020-06-29T14:15:36Z</time>
      </trkpt>
      <trkpt lat="48.69312" lon="6.14189">
        <ele>335</ele>
        <time>2020-06-29T14:15:37Z</time>
      </trkpt>
      <trkpt lat="48.69313" lon="6.14189">
        <ele>335</ele>
        <time>2020-06-29T14:15:38Z</time>
      </trkpt>
      <trkpt lat="48.69313" lon="6.14189">
        <ele>335</ele>
        <time>2020-06-29T14:15:39Z</time>
      </trkpt>
      <trkpt lat="48.69312" lon="6.1419">
        <ele>335</ele>
        <time>2020-06-29T14:15:40Z</time>
      </trkpt>
      <trkpt lat="48.69312" lon="6.1419">
        <ele>335</ele>
        <time>2020-06-29T14:15:41Z</time>
      </trkpt>
      <trkpt lat="48.69311" lon="6.1419">
        <ele>335</ele>
        <time>2020-06-29T14:15:42Z</time>
      </trkpt>
      <trkpt lat="48.69311" lon="6.1419">
        <ele>335</ele>
        <time>2020-06-29T14:15:43Z</time>
      </trkpt>
      <trkpt lat="48.69311" lon="6.1419">
        <ele>335</ele>
        <time>2020-06-29T14:15:44Z</time>
      </trkpt>
      <trkpt lat="48.69311" lon="6.1419">
        <ele>335</ele>
        <time>2020-06-29T14:15:45Z</time>
      </trkpt>
      <trkpt lat="48.69311" lon="6.1419">
        <ele>335</ele>
        <time>2020-06-29T14:15:46Z</time>
      </trkpt>
      <trkpt lat="48.69311" lon="6.1419">
        <ele>335</ele>
        <time>2020-06-29T14:15:47Z</time>
      </trkpt>
      <trkpt lat="48.69315" lon="6.14182">
        <ele>334.8</ele>
        <time>2020-06-29T14:16:19Z</time>
      </trkpt>
      <trkpt lat="48.69314" lon="6.1418">
        <ele>334.8</ele>
        <time>2020-06-29T14:16:20Z</time>
      </trkpt>
      <trkpt lat="48.69314" lon="6.14177">
        <ele>334.8</ele>
        <time>2020-06-29T14:16:21Z</time>
      </trkpt>
      <trkpt lat="48.69315" lon="6.14175">
        <ele>334.8</ele>
        <time>2020-06-29T14:16:22Z</time>
      </trkpt>
      <trkpt lat="48.69315" lon="6.14174">
        <ele>334.7</ele>
        <time>2020-06-29T14:16:23Z</time>
      </trkpt>
      <trkpt lat="48.69315" lon="6.14168">
        <ele>334.7</ele>
        <time>2020-06-29T14:16:24Z</time>
      </trkpt>
      <trkpt lat="48.69315" lon="6.14166">
        <ele>334.6</ele>
        <time>2020-06-29T14:16:25Z</time>
      </trkpt>
      <trkpt lat="48.69316" lon="6.1416">
        <ele>334.6</ele>
        <time>2020-06-29T14:16:26Z</time>
      </trkpt>
      <trkpt lat="48.69316" lon="6.14159">
        <ele>334.6</ele>
        <time>2020-06-29T14:16:27Z</time>
      </trkpt>
      <trkpt lat="48.69316" lon="6.14153">
        <ele>334.5</ele>
        <time>2020-06-29T14:16:28Z</time>
      </trkpt>
      <trkpt lat="48.69316" lon="6.14151">
        <ele>334.5</ele>
        <time>2020-06-29T14:16:29Z</time>
      </trkpt>
      <trkpt lat="48.69318" lon="6.14145">
        <ele>334.4</ele>
        <time>2020-06-29T14:16:30Z</time>
      </trkpt>
      <trkpt lat="48.69319" lon="6.14142">
        <ele>334.4</ele>
        <time>2020-06-29T14:16:31Z</time>
      </trkpt>
      <trkpt lat="48.6932" lon="6.14136">
        <ele>334.3</ele>
        <time>2020-06-29T14:16:32Z</time>
      </trkpt>
      <trkpt lat="48.6932" lon="6.1413">
        <ele>334.2</ele>
        <time>2020-06-29T14:16:33Z</time>
      </trkpt>
      <trkpt lat="48.69321" lon="6.14123">
        <ele>334.1</ele>
        <time>2020-06-29T14:16:34Z</time>
      </trkpt>
      <trkpt lat="48.69321" lon="6.14116">
        <ele>334</ele>
        <time>2020-06-29T14:16:35Z</time>
      </trkpt>
      <trkpt lat="48.69323" lon="6.1411">
        <ele>333.8</ele>
        <time>2020-06-29T14:16:36Z</time>
      </trkpt>
      <trkpt lat="48.69323" lon="6.14104">
        <ele>333.7</ele>
        <time>2020-06-29T14:16:37Z</time>
      </trkpt>
      <trkpt lat="48.69325" lon="6.14097">
        <ele>333.6</ele>
        <time>2020-06-29T14:16:38Z</time>
      </trkpt>
      <trkpt lat="48.69324" lon="6.14091">
        <ele>333.5</ele>
        <time>2020-06-29T14:16:39Z</time>
      </trkpt>
      <trkpt lat="48.69326" lon="6.14084">
        <ele>333.4</ele>
        <time>2020-06-29T14:16:40Z</time>
      </trkpt>
      <trkpt lat="48.69326" lon="6.14077">
        <ele>333.2</ele>
        <time>2020-06-29T14:16:41Z</time>
      </trkpt>
      <trkpt lat="48.69326" lon="6.1407">
        <ele>333.1</ele>
        <time>2020-06-29T14:16:42Z</time>
      </trkpt>
      <trkpt lat="48.69327" lon="6.14063">
        <ele>332.9</ele>
        <time>2020-06-29T14:16:43Z</time>
      </trkpt>
      <trkpt lat="48.69327" lon="6.14056">
        <ele>332.7</ele>
        <time>2020-06-29T14:16:44Z</time>
      </trkpt>
      <trkpt lat="48.69328" lon="6.14049">
        <ele>332.5</ele>
        <time>2020-06-29T14:16:45Z</time>
      </trkpt>
      <trkpt lat="48.69328" lon="6.1404">
        <ele>332.3</ele>
        <time>2020-06-29T14:16:46Z</time>
      </trkpt>
      <trkpt lat="48.69329" lon="6.14033">
        <ele>332.1</ele>
        <time>2020-06-29T14:16:47Z</time>
      </trkpt>
      <trkpt lat="48.69329" lon="6.14025">
        <ele>332</ele>
        <time>2020-06-29T14:16:48Z</time>
      </trkpt>
      <trkpt lat="48.6933" lon="6.14017">
        <ele>331.8</ele>
        <time>2020-06-29T14:16:49Z</time>
      </trkpt>
      <trkpt lat="48.69331" lon="6.1401">
        <ele>331.6</ele>
        <time>2020-06-29T14:16:50Z</time>
      </trkpt>
      <trkpt lat="48.69332" lon="6.14003">
        <ele>331.5</ele>
        <time>2020-06-29T14:16:51Z</time>
      </trkpt>
      <trkpt lat="48.69333" lon="6.13995">
        <ele>331.3</ele>
        <time>2020-06-29T14:16:52Z</time>
      </trkpt>
      <trkpt lat="48.69334" lon="6.13987">
        <ele>331.1</ele>
        <time>2020-06-29T14:16:53Z</time>
      </trkpt>
      <trkpt lat="48.69336" lon="6.1398">
        <ele>331</ele>
        <time>2020-06-29T14:16:54Z</time>
      </trkpt>
      <trkpt lat="48.69339" lon="6.13971">
        <ele>330.8</ele>
        <time>2020-06-29T14:16:55Z</time>
      </trkpt>
      <trkpt lat="48.69341" lon="6.13962">
        <ele>330.6</ele>
        <time>2020-06-29T14:16:56Z</time>
      </trkpt>
      <trkpt lat="48.69342" lon="6.13952">
        <ele>330.4</ele>
        <time>2020-06-29T14:16:57Z</time>
      </trkpt>
      <trkpt lat="48.69342" lon="6.13942">
        <ele>330.2</ele>
        <time>2020-06-29T14:16:58Z</time>
      </trkpt>
      <trkpt lat="48.69343" lon="6.13933">
        <ele>330</ele>
        <time>2020-06-29T14:16:59Z</time>
      </trkpt>
      <trkpt lat="48.69343" lon="6.13923">
        <ele>329.8</ele>
        <time>2020-06-29T14:17:00Z</time>
      </trkpt>
      <trkpt lat="48.69343" lon="6.13914">
        <ele>329.6</ele>
        <time>2020-06-29T14:17:01Z</time>
      </trkpt>
      <trkpt lat="48.69345" lon="6.13906">
        <ele>329.3</ele>
        <time>2020-06-29T14:17:02Z</time>
      </trkpt>
      <trkpt lat="48.69347" lon="6.13897">
        <ele>329</ele>
        <time>2020-06-29T14:17:03Z</time>
      </trkpt>
      <trkpt lat="48.69348" lon="6.13887">
        <ele>328.8</ele>
        <time>2020-06-29T14:17:04Z</time>
      </trkpt>
      <trkpt lat="48.6935" lon="6.13877">
        <ele>328.8</ele>
        <time>2020-06-29T14:17:05Z</time>
      </trkpt>
      <trkpt lat="48.6935" lon="6.13867">
        <ele>328.6</ele>
        <time>2020-06-29T14:17:06Z</time>
      </trkpt>
      <trkpt lat="48.69349" lon="6.13858">
        <ele>328.6</ele>
        <time>2020-06-29T14:17:07Z</time>
      </trkpt>
      <trkpt lat="48.69349" lon="6.13851">
        <ele>328.5</ele>
        <time>2020-06-29T14:17:08Z</time>
      </trkpt>
      <trkpt lat="48.6935" lon="6.13842">
        <ele>328.4</ele>
        <time>2020-06-29T14:17:09Z</time>
      </trkpt>
      <trkpt lat="48.69351" lon="6.13835">
        <ele>328.4</ele>
        <time>2020-06-29T14:17:10Z</time>
      </trkpt>
      <trkpt lat="48.69352" lon="6.13827">
        <ele>328.4</ele>
        <time>2020-06-29T14:17:11Z</time>
      </trkpt>
      <trkpt lat="48.69353" lon="6.1382">
        <ele>328.3</ele>
        <time>2020-06-29T14:17:12Z</time>
      </trkpt>
      <trkpt lat="48.69354" lon="6.13811">
        <ele>328.3</ele>
        <time>2020-06-29T14:17:13Z</time>
      </trkpt>
      <trkpt lat="48.69354" lon="6.13802">
        <ele>328.3</ele>
        <time>2020-06-29T14:17:14Z</time>
      </trkpt>
      <trkpt lat="48.69356" lon="6.13794">
        <ele>328.2</ele>
        <time>2020-06-29T14:17:15Z</time>
      </trkpt>
      <trkpt lat="48.69357" lon="6.13785">
        <ele>328.2</ele>
        <time>2020-06-29T14:17:16Z</time>
      </trkpt>
      <trkpt lat="48.69358" lon="6.13778">
        <ele>328.2</ele>
        <time>2020-06-29T14:17:17Z</time>
      </trkpt>
      <trkpt lat="48.6936" lon="6.13771">
        <ele>328.1</ele>
        <time>2020-06-29T14:17:18Z</time>
      </trkpt>
      <trkpt lat="48.69361" lon="6.13764">
        <ele>328</ele>
        <time>2020-06-29T14:17:19Z</time>
      </trkpt>
      <trkpt lat="48.69362" lon="6.13757">
        <ele>327.9</ele>
        <time>2020-06-29T14:17:20Z</time>
      </trkpt>
      <trkpt lat="48.69363" lon="6.1375">
        <ele>327.8</ele>
        <time>2020-06-29T14:17:21Z</time>
      </trkpt>
      <trkpt lat="48.69363" lon="6.13743">
        <ele>327.7</ele>
        <time>2020-06-29T14:17:22Z</time>
      </trkpt>
      <trkpt lat="48.69364" lon="6.13737">
        <ele>327.5</ele>
        <time>2020-06-29T14:17:23Z</time>
      </trkpt>
      <trkpt lat="48.69365" lon="6.1373">
        <ele>327.4</ele>
        <time>2020-06-29T14:17:24Z</time>
      </trkpt>
      <trkpt lat="48.69365" lon="6.13724">
        <ele>327.3</ele>
        <time>2020-06-29T14:17:25Z</time>
      </trkpt>
      <trkpt lat="48.69365" lon="6.13717">
        <ele>327.3</ele>
        <time>2020-06-29T14:17:26Z</time>
      </trkpt>
      <trkpt lat="48.69365" lon="6.1371">
        <ele>327.2</ele>
        <time>2020-06-29T14:17:27Z</time>
      </trkpt>
      <trkpt lat="48.69366" lon="6.13703">
        <ele>327.1</ele>
        <time>2020-06-29T14:17:28Z</time>
      </trkpt>
      <trkpt lat="48.69367" lon="6.13695">
        <ele>327.1</ele>
        <time>2020-06-29T14:17:29Z</time>
      </trkpt>
      <trkpt lat="48.69367" lon="6.13689">
        <ele>327.1</ele>
        <time>2020-06-29T14:17:30Z</time>
      </trkpt>
      <trkpt lat="48.69368" lon="6.13681">
        <ele>327.1</ele>
        <time>2020-06-29T14:17:31Z</time>
      </trkpt>
      <trkpt lat="48.69368" lon="6.13672">
        <ele>327.1</ele>
        <time>2020-06-29T14:17:32Z</time>
      </trkpt>
      <trkpt lat="48.69368" lon="6.13664">
        <ele>327.1</ele>
        <time>2020-06-29T14:17:33Z</time>
      </trkpt>
      <trkpt lat="48.69369" lon="6.13657">
        <ele>327.1</ele>
        <time>2020-06-29T14:17:34Z</time>
      </trkpt>
      <trkpt lat="48.6937" lon="6.13649">
        <ele>327.1</ele>
        <time>2020-06-29T14:17:35Z</time>
      </trkpt>
      <trkpt lat="48.6937" lon="6.13642">
        <ele>327.2</ele>
        <time>2020-06-29T14:17:36Z</time>
      </trkpt>
      <trkpt lat="48.69371" lon="6.13636">
        <ele>327.2</ele>
        <time>2020-06-29T14:17:37Z</time>
      </trkpt>
      <trkpt lat="48.69371" lon="6.13628">
        <ele>327.3</ele>
        <time>2020-06-29T14:17:38Z</time>
      </trkpt>
      <trkpt lat="48.69373" lon="6.13621">
        <ele>327.4</ele>
        <time>2020-06-29T14:17:39Z</time>
      </trkpt>
      <trkpt lat="48.69374" lon="6.13614">
        <ele>327.4</ele>
        <time>2020-06-29T14:17:40Z</time>
      </trkpt>
      <trkpt lat="48.69374" lon="6.13609">
        <ele>327.4</ele>
        <time>2020-06-29T14:17:41Z</time>
      </trkpt>
      <trkpt lat="48.69375" lon="6.13602">
        <ele>327.4</ele>
        <time>2020-06-29T14:17:42Z</time>
      </trkpt>
      <trkpt lat="48.69375" lon="6.13594">
        <ele>327.4</ele>
        <time>2020-06-29T14:17:43Z</time>
      </trkpt>
      <trkpt lat="48.69376" lon="6.13587">
        <ele>327.4</ele>
        <time>2020-06-29T14:17:44Z</time>
      </trkpt>
      <trkpt lat="48.69378" lon="6.13579">
        <ele>327.4</ele>
        <time>2020-06-29T14:17:45Z</time>
      </trkpt>
      <trkpt lat="48.69379" lon="6.13572">
        <ele>327.4</ele>
        <time>2020-06-29T14:17:46Z</time>
      </trkpt>
      <trkpt lat="48.6938" lon="6.13563">
        <ele>327.4</ele>
        <time>2020-06-29T14:17:47Z</time>
      </trkpt>
      <trkpt lat="48.69382" lon="6.13558">
        <ele>327.4</ele>
        <time>2020-06-29T14:17:48Z</time>
      </trkpt>
      <trkpt lat="48.69383" lon="6.13551">
        <ele>327.4</ele>
        <time>2020-06-29T14:17:49Z</time>
      </trkpt>
      <trkpt lat="48.69385" lon="6.13546">
        <ele>327.4</ele>
        <time>2020-06-29T14:17:50Z</time>
      </trkpt>
      <trkpt lat="48.69386" lon="6.13541">
        <ele>327.4</ele>
        <time>2020-06-29T14:17:51Z</time>
      </trkpt>
      <trkpt lat="48.69387" lon="6.13536">
        <ele>327.4</ele>
        <time>2020-06-29T14:17:52Z</time>
      </trkpt>
      <trkpt lat="48.69389" lon="6.13532">
        <ele>327.4</ele>
        <time>2020-06-29T14:17:53Z</time>
      </trkpt>
      <trkpt lat="48.69391" lon="6.13527">
        <ele>327.4</ele>
        <time>2020-06-29T14:17:54Z</time>
      </trkpt>
      <trkpt lat="48.69391" lon="6.13525">
        <ele>327.4</ele>
        <time>2020-06-29T14:17:55Z</time>
      </trkpt>
      <trkpt lat="48.69394" lon="6.13526">
        <ele>327.3</ele>
        <time>2020-06-29T14:17:56Z</time>
      </trkpt>
      <trkpt lat="48.69395" lon="6.13526">
        <ele>327.3</ele>
        <time>2020-06-29T14:17:57Z</time>
      </trkpt>
      <trkpt lat="48.69396" lon="6.13527">
        <ele>327.2</ele>
        <time>2020-06-29T14:17:58Z</time>
      </trkpt>
      <trkpt lat="48.69397" lon="6.13528">
        <ele>327.2</ele>
        <time>2020-06-29T14:17:59Z</time>
      </trkpt>
      <trkpt lat="48.69398" lon="6.13528">
        <ele>327.2</ele>
        <time>2020-06-29T14:18:00Z</time>
      </trkpt>
      <trkpt lat="48.69398" lon="6.13528">
        <ele>327.2</ele>
        <time>2020-06-29T14:18:01Z</time>
      </trkpt>
      <trkpt lat="48.69398" lon="6.13528">
        <ele>327.2</ele>
        <time>2020-06-29T14:18:02Z</time>
      </trkpt>
      <trkpt lat="48.69398" lon="6.13527">
        <ele>327.2</ele>
        <time>2020-06-29T14:18:03Z</time>
      </trkpt>
      <trkpt lat="48.69399" lon="6.13527">
        <ele>327.2</ele>
        <time>2020-06-29T14:18:04Z</time>
      </trkpt>
      <trkpt lat="48.69399" lon="6.13526">
        <ele>327.2</ele>
        <time>2020-06-29T14:18:05Z</time>
      </trkpt>
      <trkpt lat="48.69399" lon="6.13526">
        <ele>327.2</ele>
        <time>2020-06-29T14:18:06Z</time>
      </trkpt>
      <trkpt lat="48.69399" lon="6.13526">
        <ele>327.1</ele>
        <time>2020-06-29T14:18:07Z</time>
      </trkpt>
      <trkpt lat="48.69399" lon="6.13525">
        <ele>327.1</ele>
        <time>2020-06-29T14:18:08Z</time>
      </trkpt>
      <trkpt lat="48.694" lon="6.13525">
        <ele>327.1</ele>
        <time>2020-06-29T14:18:09Z</time>
      </trkpt>
      <trkpt lat="48.694" lon="6.13524">
        <ele>327.1</ele>
        <time>2020-06-29T14:18:10Z</time>
      </trkpt>
      <trkpt lat="48.694" lon="6.13524">
        <ele>327.1</ele>
        <time>2020-06-29T14:18:11Z</time>
      </trkpt>
      <trkpt lat="48.694" lon="6.13523">
        <ele>327.1</ele>
        <time>2020-06-29T14:18:18Z</time>
      </trkpt>
      <trkpt lat="48.694" lon="6.13523">
        <ele>327.1</ele>
        <time>2020-06-29T14:18:19Z</time>
      </trkpt>
      <trkpt lat="48.69402" lon="6.13519">
        <ele>327.3</ele>
        <time>2020-06-29T14:18:20Z</time>
      </trkpt>
      <trkpt lat="48.69403" lon="6.13517">
        <ele>327.3</ele>
        <time>2020-06-29T14:18:21Z</time>
      </trkpt>
      <trkpt lat="48.69405" lon="6.13512">
        <ele>327.5</ele>
        <time>2020-06-29T14:18:22Z</time>
      </trkpt>
      <trkpt lat="48.69405" lon="6.13511">
        <ele>327.6</ele>
        <time>2020-06-29T14:18:23Z</time>
      </trkpt>
      <trkpt lat="48.69407" lon="6.13507">
        <ele>327.7</ele>
        <time>2020-06-29T14:18:24Z</time>
      </trkpt>
      <trkpt lat="48.69407" lon="6.13502">
        <ele>327.8</ele>
        <time>2020-06-29T14:18:25Z</time>
      </trkpt>
      <trkpt lat="48.69407" lon="6.13501">
        <ele>327.9</ele>
        <time>2020-06-29T14:18:26Z</time>
      </trkpt>
      <trkpt lat="48.69407" lon="6.13498">
        <ele>327.9</ele>
        <time>2020-06-29T14:18:27Z</time>
      </trkpt>
      <trkpt lat="48.69408" lon="6.13496">
        <ele>328</ele>
        <time>2020-06-29T14:18:28Z</time>
      </trkpt>
      <trkpt lat="48.69408" lon="6.13491">
        <ele>328.1</ele>
        <time>2020-06-29T14:18:29Z</time>
      </trkpt>
      <trkpt lat="48.69408" lon="6.13489">
        <ele>328.2</ele>
        <time>2020-06-29T14:18:30Z</time>
      </trkpt>
      <trkpt lat="48.69409" lon="6.13485">
        <ele>328.4</ele>
        <time>2020-06-29T14:18:31Z</time>
      </trkpt>
      <trkpt lat="48.6941" lon="6.13478">
        <ele>328.7</ele>
        <time>2020-06-29T14:18:32Z</time>
      </trkpt>
      <trkpt lat="48.6941" lon="6.13476">
        <ele>328.8</ele>
        <time>2020-06-29T14:18:33Z</time>
      </trkpt>
      <trkpt lat="48.6941" lon="6.1347">
        <ele>329.1</ele>
        <time>2020-06-29T14:18:34Z</time>
      </trkpt>
      <trkpt lat="48.6941" lon="6.13464">
        <ele>329.4</ele>
        <time>2020-06-29T14:18:35Z</time>
      </trkpt>
      <trkpt lat="48.6941" lon="6.13461">
        <ele>329.5</ele>
        <time>2020-06-29T14:18:36Z</time>
      </trkpt>
      <trkpt lat="48.69409" lon="6.13456">
        <ele>329.8</ele>
        <time>2020-06-29T14:18:37Z</time>
      </trkpt>
      <trkpt lat="48.69409" lon="6.13452">
        <ele>330</ele>
        <time>2020-06-29T14:18:38Z</time>
      </trkpt>
      <trkpt lat="48.69408" lon="6.13447">
        <ele>330.2</ele>
        <time>2020-06-29T14:18:39Z</time>
      </trkpt>
      <trkpt lat="48.69408" lon="6.13442">
        <ele>330.4</ele>
        <time>2020-06-29T14:18:40Z</time>
      </trkpt>
      <trkpt lat="48.69407" lon="6.13438">
        <ele>330.6</ele>
        <time>2020-06-29T14:18:41Z</time>
      </trkpt>
      <trkpt lat="48.69407" lon="6.13433">
        <ele>330.8</ele>
        <time>2020-06-29T14:18:42Z</time>
      </trkpt>
      <trkpt lat="48.69407" lon="6.13428">
        <ele>331.1</ele>
        <time>2020-06-29T14:18:43Z</time>
      </trkpt>
      <trkpt lat="48.69407" lon="6.13421">
        <ele>331.4</ele>
        <time>2020-06-29T14:18:44Z</time>
      </trkpt>
      <trkpt lat="48.69407" lon="6.13415">
        <ele>331.6</ele>
        <time>2020-06-29T14:18:45Z</time>
      </trkpt>
      <trkpt lat="48.69407" lon="6.13409">
        <ele>331.9</ele>
        <time>2020-06-29T14:18:46Z</time>
      </trkpt>
      <trkpt lat="48.69406" lon="6.13404">
        <ele>332.1</ele>
        <time>2020-06-29T14:18:47Z</time>
      </trkpt>
      <trkpt lat="48.69406" lon="6.13398">
        <ele>332.4</ele>
        <time>2020-06-29T14:18:48Z</time>
      </trkpt>
      <trkpt lat="48.69405" lon="6.13391">
        <ele>332.4</ele>
        <time>2020-06-29T14:18:49Z</time>
      </trkpt>
      <trkpt lat="48.69405" lon="6.13385">
        <ele>331.8</ele>
        <time>2020-06-29T14:18:50Z</time>
      </trkpt>
      <trkpt lat="48.69403" lon="6.1338">
        <ele>331.9</ele>
        <time>2020-06-29T14:18:51Z</time>
      </trkpt>
      <trkpt lat="48.69403" lon="6.13374">
        <ele>332.1</ele>
        <time>2020-06-29T14:18:52Z</time>
      </trkpt>
      <trkpt lat="48.69403" lon="6.13368">
        <ele>332.2</ele>
        <time>2020-06-29T14:18:53Z</time>
      </trkpt>
      <trkpt lat="48.69404" lon="6.13363">
        <ele>332.3</ele>
        <time>2020-06-29T14:18:54Z</time>
      </trkpt>
      <trkpt lat="48.69404" lon="6.13356">
        <ele>332.5</ele>
        <time>2020-06-29T14:18:55Z</time>
      </trkpt>
      <trkpt lat="48.69404" lon="6.1335">
        <ele>332.6</ele>
        <time>2020-06-29T14:18:56Z</time>
      </trkpt>
      <trkpt lat="48.69404" lon="6.13345">
        <ele>332.7</ele>
        <time>2020-06-29T14:18:57Z</time>
      </trkpt>
      <trkpt lat="48.69405" lon="6.13338">
        <ele>332.8</ele>
        <time>2020-06-29T14:18:58Z</time>
      </trkpt>
      <trkpt lat="48.69406" lon="6.13332">
        <ele>332.9</ele>
        <time>2020-06-29T14:18:59Z</time>
      </trkpt>
      <trkpt lat="48.69407" lon="6.13326">
        <ele>333.1</ele>
        <time>2020-06-29T14:19:00Z</time>
      </trkpt>
      <trkpt lat="48.69407" lon="6.1332">
        <ele>333.3</ele>
        <time>2020-06-29T14:19:01Z</time>
      </trkpt>
      <trkpt lat="48.69409" lon="6.13315">
        <ele>333.6</ele>
        <time>2020-06-29T14:19:02Z</time>
      </trkpt>
      <trkpt lat="48.6941" lon="6.1331">
        <ele>333.8</ele>
        <time>2020-06-29T14:19:03Z</time>
      </trkpt>
      <trkpt lat="48.69411" lon="6.13306">
        <ele>334</ele>
        <time>2020-06-29T14:19:04Z</time>
      </trkpt>
      <trkpt lat="48.69412" lon="6.13302">
        <ele>334.2</ele>
        <time>2020-06-29T14:19:05Z</time>
      </trkpt>
      <trkpt lat="48.69414" lon="6.13298">
        <ele>334.3</ele>
        <time>2020-06-29T14:19:06Z</time>
      </trkpt>
      <trkpt lat="48.69415" lon="6.13292">
        <ele>334.6</ele>
        <time>2020-06-29T14:19:07Z</time>
      </trkpt>
      <trkpt lat="48.69415" lon="6.1329">
        <ele>334.7</ele>
        <time>2020-06-29T14:19:08Z</time>
      </trkpt>
      <trkpt lat="48.69416" lon="6.13285">
        <ele>334.9</ele>
        <time>2020-06-29T14:19:09Z</time>
      </trkpt>
      <trkpt lat="48.69416" lon="6.13279">
        <ele>335.1</ele>
        <time>2020-06-29T14:19:10Z</time>
      </trkpt>
      <trkpt lat="48.69417" lon="6.13274">
        <ele>335.3</ele>
        <time>2020-06-29T14:19:11Z</time>
      </trkpt>
      <trkpt lat="48.69418" lon="6.13269">
        <ele>335.5</ele>
        <time>2020-06-29T14:19:12Z</time>
      </trkpt>
      <trkpt lat="48.69419" lon="6.13265">
        <ele>335.7</ele>
        <time>2020-06-29T14:19:13Z</time>
      </trkpt>
      <trkpt lat="48.6942" lon="6.13258">
        <ele>335.9</ele>
        <time>2020-06-29T14:19:14Z</time>
      </trkpt>
      <trkpt lat="48.69421" lon="6.13253">
        <ele>336.2</ele>
        <time>2020-06-29T14:19:15Z</time>
      </trkpt>
      <trkpt lat="48.69422" lon="6.13248">
        <ele>336.2</ele>
        <time>2020-06-29T14:19:16Z</time>
      </trkpt>
      <trkpt lat="48.69422" lon="6.13243">
        <ele>336.3</ele>
        <time>2020-06-29T14:19:17Z</time>
      </trkpt>
      <trkpt lat="48.69423" lon="6.13239">
        <ele>336.3</ele>
        <time>2020-06-29T14:19:18Z</time>
      </trkpt>
      <trkpt lat="48.69425" lon="6.13234">
        <ele>336.4</ele>
        <time>2020-06-29T14:19:19Z</time>
      </trkpt>
      <trkpt lat="48.69426" lon="6.1323">
        <ele>336.5</ele>
        <time>2020-06-29T14:19:20Z</time>
      </trkpt>
      <trkpt lat="48.69425" lon="6.13225">
        <ele>336.6</ele>
        <time>2020-06-29T14:19:21Z</time>
      </trkpt>
      <trkpt lat="48.69425" lon="6.13222">
        <ele>336.7</ele>
        <time>2020-06-29T14:19:22Z</time>
      </trkpt>
      <trkpt lat="48.69425" lon="6.13217">
        <ele>336.8</ele>
        <time>2020-06-29T14:19:23Z</time>
      </trkpt>
      <trkpt lat="48.69425" lon="6.13212">
        <ele>336.9</ele>
        <time>2020-06-29T14:19:24Z</time>
      </trkpt>
      <trkpt lat="48.69426" lon="6.13207">
        <ele>337</ele>
        <time>2020-06-29T14:19:25Z</time>
      </trkpt>
      <trkpt lat="48.69429" lon="6.13201">
        <ele>337.2</ele>
        <time>2020-06-29T14:19:26Z</time>
      </trkpt>
      <trkpt lat="48.6943" lon="6.13196">
        <ele>337.3</ele>
        <time>2020-06-29T14:19:27Z</time>
      </trkpt>
      <trkpt lat="48.6943" lon="6.13192">
        <ele>337.4</ele>
        <time>2020-06-29T14:19:28Z</time>
      </trkpt>
      <trkpt lat="48.69432" lon="6.13186">
        <ele>337.5</ele>
        <time>2020-06-29T14:19:29Z</time>
      </trkpt>
      <trkpt lat="48.69433" lon="6.13184">
        <ele>337.5</ele>
        <time>2020-06-29T14:19:30Z</time>
      </trkpt>
      <trkpt lat="48.69435" lon="6.13181">
        <ele>337.5</ele>
        <time>2020-06-29T14:19:31Z</time>
      </trkpt>
      <trkpt lat="48.69438" lon="6.13178">
        <ele>337.5</ele>
        <time>2020-06-29T14:19:32Z</time>
      </trkpt>
      <trkpt lat="48.69439" lon="6.13177">
        <ele>337.5</ele>
        <time>2020-06-29T14:19:33Z</time>
      </trkpt>
      <trkpt lat="48.69441" lon="6.13175">
        <ele>337.5</ele>
        <time>2020-06-29T14:19:34Z</time>
      </trkpt>
      <trkpt lat="48.69445" lon="6.13174">
        <ele>337.3</ele>
        <time>2020-06-29T14:19:35Z</time>
      </trkpt>
      <trkpt lat="48.69446" lon="6.13174">
        <ele>337.2</ele>
        <time>2020-06-29T14:19:36Z</time>
      </trkpt>
      <trkpt lat="48.69449" lon="6.13174">
        <ele>337</ele>
        <time>2020-06-29T14:19:37Z</time>
      </trkpt>
      <trkpt lat="48.69453" lon="6.13176">
        <ele>336.7</ele>
        <time>2020-06-29T14:19:38Z</time>
      </trkpt>
      <trkpt lat="48.69457" lon="6.13176">
        <ele>336.5</ele>
        <time>2020-06-29T14:19:39Z</time>
      </trkpt>
      <trkpt lat="48.69461" lon="6.13177">
        <ele>336.2</ele>
        <time>2020-06-29T14:19:40Z</time>
      </trkpt>
      <trkpt lat="48.69467" lon="6.13178">
        <ele>335.7</ele>
        <time>2020-06-29T14:19:41Z</time>
      </trkpt>
      <trkpt lat="48.69471" lon="6.1318">
        <ele>335.3</ele>
        <time>2020-06-29T14:19:42Z</time>
      </trkpt>
      <trkpt lat="48.69477" lon="6.13182">
        <ele>335.1</ele>
        <time>2020-06-29T14:19:43Z</time>
      </trkpt>
      <trkpt lat="48.69484" lon="6.13183">
        <ele>334.8</ele>
        <time>2020-06-29T14:19:44Z</time>
      </trkpt>
      <trkpt lat="48.69491" lon="6.13184">
        <ele>334.5</ele>
        <time>2020-06-29T14:19:45Z</time>
      </trkpt>
      <trkpt lat="48.695" lon="6.13186">
        <ele>334.2</ele>
        <time>2020-06-29T14:19:46Z</time>
      </trkpt>
      <trkpt lat="48.69508" lon="6.13186">
        <ele>333.8</ele>
        <time>2020-06-29T14:19:47Z</time>
      </trkpt>
      <trkpt lat="48.69517" lon="6.13187">
        <ele>333.5</ele>
        <time>2020-06-29T14:19:48Z</time>
      </trkpt>
      <trkpt lat="48.69525" lon="6.13188">
        <ele>333.3</ele>
        <time>2020-06-29T14:19:49Z</time>
      </trkpt>
      <trkpt lat="48.69531" lon="6.13188">
        <ele>333.1</ele>
        <time>2020-06-29T14:19:50Z</time>
      </trkpt>
      <trkpt lat="48.69538" lon="6.13187">
        <ele>332.9</ele>
        <time>2020-06-29T14:19:51Z</time>
      </trkpt>
      <trkpt lat="48.69545" lon="6.13186">
        <ele>333</ele>
        <time>2020-06-29T14:19:52Z</time>
      </trkpt>
      <trkpt lat="48.69552" lon="6.13184">
        <ele>333.1</ele>
        <time>2020-06-29T14:19:53Z</time>
      </trkpt>
      <trkpt lat="48.69559" lon="6.13182">
        <ele>333.1</ele>
        <time>2020-06-29T14:19:54Z</time>
      </trkpt>
      <trkpt lat="48.69564" lon="6.1318">
        <ele>333.1</ele>
        <time>2020-06-29T14:19:55Z</time>
      </trkpt>
      <trkpt lat="48.6957" lon="6.13177">
        <ele>333.5</ele>
        <time>2020-06-29T14:19:56Z</time>
      </trkpt>
      <trkpt lat="48.69576" lon="6.13174">
        <ele>333.9</ele>
        <time>2020-06-29T14:19:57Z</time>
      </trkpt>
      <trkpt lat="48.6958" lon="6.13171">
        <ele>334</ele>
        <time>2020-06-29T14:19:58Z</time>
      </trkpt>
      <trkpt lat="48.69585" lon="6.13168">
        <ele>334.2</ele>
        <time>2020-06-29T14:19:59Z</time>
      </trkpt>
      <trkpt lat="48.69589" lon="6.13163">
        <ele>334.5</ele>
        <time>2020-06-29T14:20:00Z</time>
      </trkpt>
      <trkpt lat="48.69593" lon="6.1316">
        <ele>334.7</ele>
        <time>2020-06-29T14:20:01Z</time>
      </trkpt>
      <trkpt lat="48.69598" lon="6.13156">
        <ele>334.9</ele>
        <time>2020-06-29T14:20:02Z</time>
      </trkpt>
      <trkpt lat="48.69602" lon="6.13152">
        <ele>335.2</ele>
        <time>2020-06-29T14:20:03Z</time>
      </trkpt>
      <trkpt lat="48.69607" lon="6.13148">
        <ele>335.4</ele>
        <time>2020-06-29T14:20:04Z</time>
      </trkpt>
      <trkpt lat="48.69611" lon="6.13145">
        <ele>335.6</ele>
        <time>2020-06-29T14:20:05Z</time>
      </trkpt>
      <trkpt lat="48.69614" lon="6.13141">
        <ele>335.8</ele>
        <time>2020-06-29T14:20:06Z</time>
      </trkpt>
      <trkpt lat="48.69617" lon="6.13137">
        <ele>336</ele>
        <time>2020-06-29T14:20:07Z</time>
      </trkpt>
      <trkpt lat="48.6962" lon="6.13133">
        <ele>336.1</ele>
        <time>2020-06-29T14:20:08Z</time>
      </trkpt>
      <trkpt lat="48.69622" lon="6.1313">
        <ele>336.2</ele>
        <time>2020-06-29T14:20:09Z</time>
      </trkpt>
      <trkpt lat="48.69625" lon="6.13127">
        <ele>336.5</ele>
        <time>2020-06-29T14:20:10Z</time>
      </trkpt>
      <trkpt lat="48.69628" lon="6.13124">
        <ele>336.7</ele>
        <time>2020-06-29T14:20:11Z</time>
      </trkpt>
      <trkpt lat="48.69631" lon="6.13121">
        <ele>336.9</ele>
        <time>2020-06-29T14:20:12Z</time>
      </trkpt>
      <trkpt lat="48.69634" lon="6.13117">
        <ele>337.1</ele>
        <time>2020-06-29T14:20:13Z</time>
      </trkpt>
      <trkpt lat="48.69638" lon="6.13115">
        <ele>337.2</ele>
        <time>2020-06-29T14:20:14Z</time>
      </trkpt>
      <trkpt lat="48.69639" lon="6.13111">
        <ele>337.3</ele>
        <time>2020-06-29T14:20:15Z</time>
      </trkpt>
      <trkpt lat="48.69641" lon="6.13108">
        <ele>337.4</ele>
        <time>2020-06-29T14:20:16Z</time>
      </trkpt>
      <trkpt lat="48.69644" lon="6.13105">
        <ele>337.5</ele>
        <time>2020-06-29T14:20:17Z</time>
      </trkpt>
      <trkpt lat="48.69646" lon="6.13104">
        <ele>337.6</ele>
        <time>2020-06-29T14:20:18Z</time>
      </trkpt>
      <trkpt lat="48.69649" lon="6.13102">
        <ele>337.7</ele>
        <time>2020-06-29T14:20:19Z</time>
      </trkpt>
      <trkpt lat="48.6965" lon="6.13101">
        <ele>337.7</ele>
        <time>2020-06-29T14:20:20Z</time>
      </trkpt>
      <trkpt lat="48.69652" lon="6.13098">
        <ele>337.7</ele>
        <time>2020-06-29T14:20:21Z</time>
      </trkpt>
      <trkpt lat="48.69655" lon="6.13094">
        <ele>337.8</ele>
        <time>2020-06-29T14:20:22Z</time>
      </trkpt>
      <trkpt lat="48.6966" lon="6.1309">
        <ele>337.8</ele>
        <time>2020-06-29T14:20:23Z</time>
      </trkpt>
      <trkpt lat="48.69663" lon="6.13088">
        <ele>337.8</ele>
        <time>2020-06-29T14:20:24Z</time>
      </trkpt>
      <trkpt lat="48.69667" lon="6.13087">
        <ele>337.8</ele>
        <time>2020-06-29T14:20:25Z</time>
      </trkpt>
      <trkpt lat="48.69669" lon="6.13088">
        <ele>337.8</ele>
        <time>2020-06-29T14:20:26Z</time>
      </trkpt>
      <trkpt lat="48.69673" lon="6.13093">
        <ele>337.8</ele>
        <time>2020-06-29T14:20:27Z</time>
      </trkpt>
      <trkpt lat="48.69676" lon="6.131">
        <ele>337.8</ele>
        <time>2020-06-29T14:20:28Z</time>
      </trkpt>
      <trkpt lat="48.6968" lon="6.13107">
        <ele>337.9</ele>
        <time>2020-06-29T14:20:29Z</time>
      </trkpt>
      <trkpt lat="48.69684" lon="6.13113">
        <ele>337.9</ele>
        <time>2020-06-29T14:20:30Z</time>
      </trkpt>
      <trkpt lat="48.69688" lon="6.13119">
        <ele>338</ele>
        <time>2020-06-29T14:20:31Z</time>
      </trkpt>
      <trkpt lat="48.69692" lon="6.13124">
        <ele>338</ele>
        <time>2020-06-29T14:20:32Z</time>
      </trkpt>
      <trkpt lat="48.69696" lon="6.13128">
        <ele>338.1</ele>
        <time>2020-06-29T14:20:33Z</time>
      </trkpt>
      <trkpt lat="48.697" lon="6.13132">
        <ele>338.1</ele>
        <time>2020-06-29T14:20:34Z</time>
      </trkpt>
      <trkpt lat="48.69704" lon="6.13137">
        <ele>338.2</ele>
        <time>2020-06-29T14:20:35Z</time>
      </trkpt>
      <trkpt lat="48.69708" lon="6.13141">
        <ele>338.3</ele>
        <time>2020-06-29T14:20:36Z</time>
      </trkpt>
      <trkpt lat="48.69711" lon="6.13145">
        <ele>338.3</ele>
        <time>2020-06-29T14:20:37Z</time>
      </trkpt>
      <trkpt lat="48.69715" lon="6.13148">
        <ele>338.4</ele>
        <time>2020-06-29T14:20:38Z</time>
      </trkpt>
      <trkpt lat="48.69718" lon="6.13153">
        <ele>338.4</ele>
        <time>2020-06-29T14:20:39Z</time>
      </trkpt>
      <trkpt lat="48.69721" lon="6.13159">
        <ele>338.5</ele>
        <time>2020-06-29T14:20:40Z</time>
      </trkpt>
      <trkpt lat="48.69726" lon="6.13165">
        <ele>338.6</ele>
        <time>2020-06-29T14:20:41Z</time>
      </trkpt>
      <trkpt lat="48.69729" lon="6.1317">
        <ele>338.7</ele>
        <time>2020-06-29T14:20:42Z</time>
      </trkpt>
      <trkpt lat="48.69733" lon="6.13176">
        <ele>338.9</ele>
        <time>2020-06-29T14:20:43Z</time>
      </trkpt>
      <trkpt lat="48.69738" lon="6.13181">
        <ele>339.1</ele>
        <time>2020-06-29T14:20:44Z</time>
      </trkpt>
      <trkpt lat="48.69741" lon="6.13185">
        <ele>339.2</ele>
        <time>2020-06-29T14:20:45Z</time>
      </trkpt>
      <trkpt lat="48.69745" lon="6.13189">
        <ele>339.4</ele>
        <time>2020-06-29T14:20:46Z</time>
      </trkpt>
      <trkpt lat="48.6975" lon="6.13194">
        <ele>339.6</ele>
        <time>2020-06-29T14:20:47Z</time>
      </trkpt>
      <trkpt lat="48.69753" lon="6.13199">
        <ele>339.8</ele>
        <time>2020-06-29T14:20:48Z</time>
      </trkpt>
      <trkpt lat="48.69757" lon="6.13203">
        <ele>339.9</ele>
        <time>2020-06-29T14:20:49Z</time>
      </trkpt>
      <trkpt lat="48.6976" lon="6.13207">
        <ele>340.1</ele>
        <time>2020-06-29T14:20:50Z</time>
      </trkpt>
      <trkpt lat="48.69763" lon="6.1321">
        <ele>340.2</ele>
        <time>2020-06-29T14:20:51Z</time>
      </trkpt>
      <trkpt lat="48.69766" lon="6.13213">
        <ele>340.4</ele>
        <time>2020-06-29T14:20:52Z</time>
      </trkpt>
      <trkpt lat="48.69768" lon="6.13216">
        <ele>340.5</ele>
        <time>2020-06-29T14:20:53Z</time>
      </trkpt>
      <trkpt lat="48.69771" lon="6.13218">
        <ele>340.6</ele>
        <time>2020-06-29T14:20:54Z</time>
      </trkpt>
      <trkpt lat="48.69774" lon="6.1322">
        <ele>340.7</ele>
        <time>2020-06-29T14:20:55Z</time>
      </trkpt>
      <trkpt lat="48.69777" lon="6.13222">
        <ele>340.8</ele>
        <time>2020-06-29T14:20:56Z</time>
      </trkpt>
      <trkpt lat="48.69781" lon="6.13224">
        <ele>341</ele>
        <time>2020-06-29T14:20:57Z</time>
      </trkpt>
      <trkpt lat="48.69786" lon="6.13227">
        <ele>341.2</ele>
        <time>2020-06-29T14:20:58Z</time>
      </trkpt>
      <trkpt lat="48.6979" lon="6.13228">
        <ele>341.4</ele>
        <time>2020-06-29T14:20:59Z</time>
      </trkpt>
      <trkpt lat="48.69795" lon="6.1323">
        <ele>341.6</ele>
        <time>2020-06-29T14:21:00Z</time>
      </trkpt>
      <trkpt lat="48.69799" lon="6.1323">
        <ele>341.8</ele>
        <time>2020-06-29T14:21:01Z</time>
      </trkpt>
      <trkpt lat="48.69803" lon="6.13231">
        <ele>341.9</ele>
        <time>2020-06-29T14:21:02Z</time>
      </trkpt>
      <trkpt lat="48.69808" lon="6.13232">
        <ele>342.1</ele>
        <time>2020-06-29T14:21:03Z</time>
      </trkpt>
      <trkpt lat="48.69813" lon="6.13232">
        <ele>342.2</ele>
        <time>2020-06-29T14:21:04Z</time>
      </trkpt>
      <trkpt lat="48.69817" lon="6.13234">
        <ele>342.4</ele>
        <time>2020-06-29T14:21:05Z</time>
      </trkpt>
      <trkpt lat="48.69821" lon="6.13234">
        <ele>342.5</ele>
        <time>2020-06-29T14:21:06Z</time>
      </trkpt>
      <trkpt lat="48.69825" lon="6.13235">
        <ele>342.6</ele>
        <time>2020-06-29T14:21:07Z</time>
      </trkpt>
      <trkpt lat="48.69829" lon="6.13236">
        <ele>342.7</ele>
        <time>2020-06-29T14:21:08Z</time>
      </trkpt>
      <trkpt lat="48.69832" lon="6.13237">
        <ele>342.8</ele>
        <time>2020-06-29T14:21:09Z</time>
      </trkpt>
      <trkpt lat="48.69836" lon="6.13236">
        <ele>342.9</ele>
        <time>2020-06-29T14:21:10Z</time>
      </trkpt>
      <trkpt lat="48.69839" lon="6.13236">
        <ele>342.9</ele>
        <time>2020-06-29T14:21:11Z</time>
      </trkpt>
      <trkpt lat="48.69845" lon="6.13237">
        <ele>343</ele>
        <time>2020-06-29T14:21:12Z</time>
      </trkpt>
      <trkpt lat="48.69849" lon="6.13237">
        <ele>343.1</ele>
        <time>2020-06-29T14:21:13Z</time>
      </trkpt>
      <trkpt lat="48.69854" lon="6.13235">
        <ele>343.1</ele>
        <time>2020-06-29T14:21:14Z</time>
      </trkpt>
      <trkpt lat="48.6986" lon="6.13236">
        <ele>343.1</ele>
        <time>2020-06-29T14:21:15Z</time>
      </trkpt>
      <trkpt lat="48.69864" lon="6.13235">
        <ele>343.2</ele>
        <time>2020-06-29T14:21:16Z</time>
      </trkpt>
      <trkpt lat="48.69871" lon="6.13232">
        <ele>343.2</ele>
        <time>2020-06-29T14:21:17Z</time>
      </trkpt>
      <trkpt lat="48.69878" lon="6.13228">
        <ele>343.3</ele>
        <time>2020-06-29T14:21:18Z</time>
      </trkpt>
      <trkpt lat="48.69884" lon="6.13225">
        <ele>343.4</ele>
        <time>2020-06-29T14:21:19Z</time>
      </trkpt>
      <trkpt lat="48.6989" lon="6.13223">
        <ele>343.4</ele>
        <time>2020-06-29T14:21:20Z</time>
      </trkpt>
      <trkpt lat="48.69897" lon="6.13221">
        <ele>343.5</ele>
        <time>2020-06-29T14:21:21Z</time>
      </trkpt>
      <trkpt lat="48.69903" lon="6.13216">
        <ele>343.5</ele>
        <time>2020-06-29T14:21:22Z</time>
      </trkpt>
      <trkpt lat="48.69907" lon="6.13212">
        <ele>343.6</ele>
        <time>2020-06-29T14:21:23Z</time>
      </trkpt>
      <trkpt lat="48.69911" lon="6.13209">
        <ele>343.6</ele>
        <time>2020-06-29T14:21:24Z</time>
      </trkpt>
      <trkpt lat="48.69916" lon="6.13206">
        <ele>343.7</ele>
        <time>2020-06-29T14:21:25Z</time>
      </trkpt>
      <trkpt lat="48.69921" lon="6.13202">
        <ele>343.7</ele>
        <time>2020-06-29T14:21:26Z</time>
      </trkpt>
      <trkpt lat="48.69925" lon="6.13198">
        <ele>343.7</ele>
        <time>2020-06-29T14:21:27Z</time>
      </trkpt>
      <trkpt lat="48.6993" lon="6.13195">
        <ele>343.8</ele>
        <time>2020-06-29T14:21:28Z</time>
      </trkpt>
      <trkpt lat="48.69933" lon="6.13192">
        <ele>343.8</ele>
        <time>2020-06-29T14:21:29Z</time>
      </trkpt>
      <trkpt lat="48.69937" lon="6.13187">
        <ele>343.9</ele>
        <time>2020-06-29T14:21:30Z</time>
      </trkpt>
      <trkpt lat="48.6994" lon="6.13182">
        <ele>344</ele>
        <time>2020-06-29T14:21:31Z</time>
      </trkpt>
      <trkpt lat="48.69943" lon="6.13178">
        <ele>344.1</ele>
        <time>2020-06-29T14:21:32Z</time>
      </trkpt>
      <trkpt lat="48.69947" lon="6.13174">
        <ele>344.2</ele>
        <time>2020-06-29T14:21:33Z</time>
      </trkpt>
      <trkpt lat="48.6995" lon="6.13171">
        <ele>344.3</ele>
        <time>2020-06-29T14:21:34Z</time>
      </trkpt>
      <trkpt lat="48.69954" lon="6.13166">
        <ele>344.4</ele>
        <time>2020-06-29T14:21:35Z</time>
      </trkpt>
      <trkpt lat="48.69957" lon="6.13161">
        <ele>344.5</ele>
        <time>2020-06-29T14:21:36Z</time>
      </trkpt>
      <trkpt lat="48.69958" lon="6.13156">
        <ele>344.6</ele>
        <time>2020-06-29T14:21:37Z</time>
      </trkpt>
      <trkpt lat="48.6996" lon="6.13149">
        <ele>344.7</ele>
        <time>2020-06-29T14:21:38Z</time>
      </trkpt>
      <trkpt lat="48.69963" lon="6.13142">
        <ele>344.8</ele>
        <time>2020-06-29T14:21:39Z</time>
      </trkpt>
      <trkpt lat="48.69966" lon="6.13136">
        <ele>345</ele>
        <time>2020-06-29T14:21:40Z</time>
      </trkpt>
      <trkpt lat="48.6997" lon="6.13132">
        <ele>345.2</ele>
        <time>2020-06-29T14:21:41Z</time>
      </trkpt>
      <trkpt lat="48.69973" lon="6.13126">
        <ele>345.3</ele>
        <time>2020-06-29T14:21:42Z</time>
      </trkpt>
      <trkpt lat="48.69975" lon="6.13121">
        <ele>345.4</ele>
        <time>2020-06-29T14:21:43Z</time>
      </trkpt>
      <trkpt lat="48.69978" lon="6.13116">
        <ele>345.6</ele>
        <time>2020-06-29T14:21:44Z</time>
      </trkpt>
      <trkpt lat="48.6998" lon="6.13111">
        <ele>345.6</ele>
        <time>2020-06-29T14:21:45Z</time>
      </trkpt>
      <trkpt lat="48.69982" lon="6.13107">
        <ele>345.8</ele>
        <time>2020-06-29T14:21:46Z</time>
      </trkpt>
      <trkpt lat="48.69985" lon="6.13101">
        <ele>345.9</ele>
        <time>2020-06-29T14:21:47Z</time>
      </trkpt>
      <trkpt lat="48.69988" lon="6.13095">
        <ele>346</ele>
        <time>2020-06-29T14:21:48Z</time>
      </trkpt>
      <trkpt lat="48.6999" lon="6.1309">
        <ele>346.2</ele>
        <time>2020-06-29T14:21:49Z</time>
      </trkpt>
      <trkpt lat="48.69992" lon="6.13085">
        <ele>346.2</ele>
        <time>2020-06-29T14:21:50Z</time>
      </trkpt>
      <trkpt lat="48.69994" lon="6.13079">
        <ele>346.3</ele>
        <time>2020-06-29T14:21:51Z</time>
      </trkpt>
      <trkpt lat="48.69997" lon="6.13074">
        <ele>346.4</ele>
        <time>2020-06-29T14:21:52Z</time>
      </trkpt>
      <trkpt lat="48.69999" lon="6.13069">
        <ele>346.5</ele>
        <time>2020-06-29T14:21:53Z</time>
      </trkpt>
      <trkpt lat="48.70001" lon="6.13063">
        <ele>346.6</ele>
        <time>2020-06-29T14:21:54Z</time>
      </trkpt>
      <trkpt lat="48.70004" lon="6.13058">
        <ele>346.7</ele>
        <time>2020-06-29T14:21:55Z</time>
      </trkpt>
      <trkpt lat="48.70006" lon="6.13054">
        <ele>346.8</ele>
        <time>2020-06-29T14:21:56Z</time>
      </trkpt>
      <trkpt lat="48.70007" lon="6.13047">
        <ele>346.8</ele>
        <time>2020-06-29T14:21:57Z</time>
      </trkpt>
      <trkpt lat="48.70007" lon="6.13044">
        <ele>346.9</ele>
        <time>2020-06-29T14:21:58Z</time>
      </trkpt>
      <trkpt lat="48.70009" lon="6.13037">
        <ele>347.1</ele>
        <time>2020-06-29T14:21:59Z</time>
      </trkpt>
      <trkpt lat="48.70009" lon="6.13031">
        <ele>347.2</ele>
        <time>2020-06-29T14:22:00Z</time>
      </trkpt>
      <trkpt lat="48.70009" lon="6.13023">
        <ele>347.3</ele>
        <time>2020-06-29T14:22:01Z</time>
      </trkpt>
      <trkpt lat="48.70009" lon="6.13015">
        <ele>347.4</ele>
        <time>2020-06-29T14:22:02Z</time>
      </trkpt>
      <trkpt lat="48.70008" lon="6.13007">
        <ele>347.6</ele>
        <time>2020-06-29T14:22:03Z</time>
      </trkpt>
      <trkpt lat="48.70007" lon="6.13003">
        <ele>347.7</ele>
        <time>2020-06-29T14:22:04Z</time>
      </trkpt>
      <trkpt lat="48.70006" lon="6.12998">
        <ele>347.8</ele>
        <time>2020-06-29T14:22:05Z</time>
      </trkpt>
      <trkpt lat="48.70006" lon="6.12993">
        <ele>347.9</ele>
        <time>2020-06-29T14:22:06Z</time>
      </trkpt>
      <trkpt lat="48.70006" lon="6.12988">
        <ele>348.1</ele>
        <time>2020-06-29T14:22:07Z</time>
      </trkpt>
      <trkpt lat="48.70006" lon="6.12983">
        <ele>348.1</ele>
        <time>2020-06-29T14:22:08Z</time>
      </trkpt>
      <trkpt lat="48.70005" lon="6.12978">
        <ele>348.2</ele>
        <time>2020-06-29T14:22:09Z</time>
      </trkpt>
      <trkpt lat="48.70004" lon="6.12974">
        <ele>348.2</ele>
        <time>2020-06-29T14:22:10Z</time>
      </trkpt>
      <trkpt lat="48.70003" lon="6.1297">
        <ele>348.2</ele>
        <time>2020-06-29T14:22:11Z</time>
      </trkpt>
      <trkpt lat="48.70002" lon="6.12965">
        <ele>348.2</ele>
        <time>2020-06-29T14:22:12Z</time>
      </trkpt>
      <trkpt lat="48.70001" lon="6.12961">
        <ele>348.3</ele>
        <time>2020-06-29T14:22:13Z</time>
      </trkpt>
      <trkpt lat="48.69999" lon="6.12956">
        <ele>348.3</ele>
        <time>2020-06-29T14:22:14Z</time>
      </trkpt>
      <trkpt lat="48.69997" lon="6.12951">
        <ele>348.4</ele>
        <time>2020-06-29T14:22:15Z</time>
      </trkpt>
      <trkpt lat="48.69993" lon="6.12944">
        <ele>348.4</ele>
        <time>2020-06-29T14:22:16Z</time>
      </trkpt>
      <trkpt lat="48.69991" lon="6.12938">
        <ele>348.5</ele>
        <time>2020-06-29T14:22:17Z</time>
      </trkpt>
      <trkpt lat="48.6999" lon="6.12933">
        <ele>348.5</ele>
        <time>2020-06-29T14:22:18Z</time>
      </trkpt>
      <trkpt lat="48.69988" lon="6.12929">
        <ele>348.6</ele>
        <time>2020-06-29T14:22:19Z</time>
      </trkpt>
      <trkpt lat="48.69986" lon="6.12923">
        <ele>348.6</ele>
        <time>2020-06-29T14:22:20Z</time>
      </trkpt>
      <trkpt lat="48.69984" lon="6.12918">
        <ele>348.7</ele>
        <time>2020-06-29T14:22:21Z</time>
      </trkpt>
      <trkpt lat="48.69983" lon="6.12915">
        <ele>348.7</ele>
        <time>2020-06-29T14:22:22Z</time>
      </trkpt>
      <trkpt lat="48.69981" lon="6.12911">
        <ele>348.8</ele>
        <time>2020-06-29T14:22:23Z</time>
      </trkpt>
      <trkpt lat="48.69981" lon="6.12908">
        <ele>348.8</ele>
        <time>2020-06-29T14:22:24Z</time>
      </trkpt>
      <trkpt lat="48.69979" lon="6.12906">
        <ele>348.8</ele>
        <time>2020-06-29T14:22:25Z</time>
      </trkpt>
      <trkpt lat="48.69977" lon="6.12903">
        <ele>348.8</ele>
        <time>2020-06-29T14:22:26Z</time>
      </trkpt>
      <trkpt lat="48.69975" lon="6.12901">
        <ele>348.8</ele>
        <time>2020-06-29T14:22:27Z</time>
      </trkpt>
      <trkpt lat="48.69974" lon="6.12901">
        <ele>348.7</ele>
        <time>2020-06-29T14:22:28Z</time>
      </trkpt>
      <trkpt lat="48.69973" lon="6.12901">
        <ele>348.7</ele>
        <time>2020-06-29T14:22:29Z</time>
      </trkpt>
      <trkpt lat="48.69972" lon="6.12903">
        <ele>348.7</ele>
        <time>2020-06-29T14:22:30Z</time>
      </trkpt>
      <trkpt lat="48.69972" lon="6.12904">
        <ele>348.7</ele>
        <time>2020-06-29T14:22:31Z</time>
      </trkpt>
      <trkpt lat="48.69972" lon="6.12906">
        <ele>348.7</ele>
        <time>2020-06-29T14:22:32Z</time>
      </trkpt>
      <trkpt lat="48.69973" lon="6.12909">
        <ele>348.7</ele>
        <time>2020-06-29T14:22:33Z</time>
      </trkpt>
      <trkpt lat="48.69974" lon="6.12914">
        <ele>348.6</ele>
        <time>2020-06-29T14:22:34Z</time>
      </trkpt>
      <trkpt lat="48.69974" lon="6.12915">
        <ele>348.6</ele>
        <time>2020-06-29T14:22:35Z</time>
      </trkpt>
      <trkpt lat="48.69976" lon="6.1292">
        <ele>348.6</ele>
        <time>2020-06-29T14:22:36Z</time>
      </trkpt>
      <trkpt lat="48.69976" lon="6.12922">
        <ele>348.6</ele>
        <time>2020-06-29T14:22:37Z</time>
      </trkpt>
      <trkpt lat="48.69978" lon="6.12926">
        <ele>348.5</ele>
        <time>2020-06-29T14:22:38Z</time>
      </trkpt>
      <trkpt lat="48.6998" lon="6.12929">
        <ele>348.5</ele>
        <time>2020-06-29T14:22:39Z</time>
      </trkpt>
      <trkpt lat="48.69982" lon="6.12933">
        <ele>348.5</ele>
        <time>2020-06-29T14:22:40Z</time>
      </trkpt>
      <trkpt lat="48.69984" lon="6.12938">
        <ele>348.4</ele>
        <time>2020-06-29T14:22:41Z</time>
      </trkpt>
      <trkpt lat="48.69986" lon="6.12942">
        <ele>348.4</ele>
        <time>2020-06-29T14:22:42Z</time>
      </trkpt>
      <trkpt lat="48.69988" lon="6.12947">
        <ele>348.3</ele>
        <time>2020-06-29T14:22:43Z</time>
      </trkpt>
      <trkpt lat="48.6999" lon="6.12953">
        <ele>348.3</ele>
        <time>2020-06-29T14:22:44Z</time>
      </trkpt>
      <trkpt lat="48.69992" lon="6.12958">
        <ele>348.3</ele>
        <time>2020-06-29T14:22:45Z</time>
      </trkpt>
      <trkpt lat="48.69993" lon="6.12965">
        <ele>348.2</ele>
        <time>2020-06-29T14:22:46Z</time>
      </trkpt>
      <trkpt lat="48.69995" lon="6.12971">
        <ele>348.2</ele>
        <time>2020-06-29T14:22:47Z</time>
      </trkpt>
      <trkpt lat="48.69996" lon="6.12979">
        <ele>348.2</ele>
        <time>2020-06-29T14:22:48Z</time>
      </trkpt>
      <trkpt lat="48.69997" lon="6.12986">
        <ele>348.1</ele>
        <time>2020-06-29T14:22:49Z</time>
      </trkpt>
      <trkpt lat="48.69998" lon="6.12992">
        <ele>347.9</ele>
        <time>2020-06-29T14:22:50Z</time>
      </trkpt>
      <trkpt lat="48.69999" lon="6.13">
        <ele>347.8</ele>
        <time>2020-06-29T14:22:51Z</time>
      </trkpt>
      <trkpt lat="48.7" lon="6.13006">
        <ele>347.6</ele>
        <time>2020-06-29T14:22:52Z</time>
      </trkpt>
      <trkpt lat="48.7" lon="6.13014">
        <ele>347.5</ele>
        <time>2020-06-29T14:22:53Z</time>
      </trkpt>
      <trkpt lat="48.7" lon="6.13021">
        <ele>347.3</ele>
        <time>2020-06-29T14:22:54Z</time>
      </trkpt>
      <trkpt lat="48.7" lon="6.13027">
        <ele>347.2</ele>
        <time>2020-06-29T14:22:55Z</time>
      </trkpt>
      <trkpt lat="48.7" lon="6.13033">
        <ele>347.1</ele>
        <time>2020-06-29T14:22:56Z</time>
      </trkpt>
      <trkpt lat="48.7" lon="6.13038">
        <ele>347</ele>
        <time>2020-06-29T14:22:57Z</time>
      </trkpt>
      <trkpt lat="48.69999" lon="6.13043">
        <ele>346.9</ele>
        <time>2020-06-29T14:22:58Z</time>
      </trkpt>
      <trkpt lat="48.69998" lon="6.13048">
        <ele>346.8</ele>
        <time>2020-06-29T14:22:59Z</time>
      </trkpt>
      <trkpt lat="48.69997" lon="6.13054">
        <ele>346.7</ele>
        <time>2020-06-29T14:23:00Z</time>
      </trkpt>
      <trkpt lat="48.69995" lon="6.1306">
        <ele>346.7</ele>
        <time>2020-06-29T14:23:01Z</time>
      </trkpt>
      <trkpt lat="48.69994" lon="6.13064">
        <ele>346.6</ele>
        <time>2020-06-29T14:23:02Z</time>
      </trkpt>
      <trkpt lat="48.69993" lon="6.13069">
        <ele>346.5</ele>
        <time>2020-06-29T14:23:03Z</time>
      </trkpt>
      <trkpt lat="48.69994" lon="6.13073">
        <ele>346.4</ele>
        <time>2020-06-29T14:23:04Z</time>
      </trkpt>
      <trkpt lat="48.69994" lon="6.13075">
        <ele>346.4</ele>
        <time>2020-06-29T14:23:05Z</time>
      </trkpt>
      <trkpt lat="48.69996" lon="6.13079">
        <ele>346.8</ele>
        <time>2020-06-29T14:23:06Z</time>
      </trkpt>
      <trkpt lat="48.69997" lon="6.1308">
        <ele>346.9</ele>
        <time>2020-06-29T14:23:07Z</time>
      </trkpt>
      <trkpt lat="48.7" lon="6.1308">
        <ele>347.1</ele>
        <time>2020-06-29T14:23:08Z</time>
      </trkpt>
      <trkpt lat="48.70001" lon="6.1308">
        <ele>347.2</ele>
        <time>2020-06-29T14:23:09Z</time>
      </trkpt>
      <trkpt lat="48.70004" lon="6.13079">
        <ele>347.4</ele>
        <time>2020-06-29T14:23:10Z</time>
      </trkpt>
      <trkpt lat="48.70007" lon="6.13081">
        <ele>347.6</ele>
        <time>2020-06-29T14:23:11Z</time>
      </trkpt>
      <trkpt lat="48.7001" lon="6.13082">
        <ele>347.8</ele>
        <time>2020-06-29T14:23:12Z</time>
      </trkpt>
      <trkpt lat="48.70011" lon="6.13083">
        <ele>347.8</ele>
        <time>2020-06-29T14:23:13Z</time>
      </trkpt>
      <trkpt lat="48.70015" lon="6.13083">
        <ele>348</ele>
        <time>2020-06-29T14:23:14Z</time>
      </trkpt>
      <trkpt lat="48.70017" lon="6.13082">
        <ele>348.2</ele>
        <time>2020-06-29T14:23:15Z</time>
      </trkpt>
      <trkpt lat="48.7002" lon="6.13082">
        <ele>348.3</ele>
        <time>2020-06-29T14:23:16Z</time>
      </trkpt>
      <trkpt lat="48.70024" lon="6.13083">
        <ele>348.5</ele>
        <time>2020-06-29T14:23:17Z</time>
      </trkpt>
      <trkpt lat="48.70026" lon="6.13083">
        <ele>348.6</ele>
        <time>2020-06-29T14:23:18Z</time>
      </trkpt>
      <trkpt lat="48.70029" lon="6.13083">
        <ele>348.8</ele>
        <time>2020-06-29T14:23:19Z</time>
      </trkpt>
      <trkpt lat="48.70032" lon="6.13085">
        <ele>349</ele>
        <time>2020-06-29T14:23:20Z</time>
      </trkpt>
      <trkpt lat="48.70035" lon="6.13086">
        <ele>349.1</ele>
        <time>2020-06-29T14:23:21Z</time>
      </trkpt>
      <trkpt lat="48.70038" lon="6.13088">
        <ele>349.3</ele>
        <time>2020-06-29T14:23:22Z</time>
      </trkpt>
      <trkpt lat="48.70041" lon="6.13087">
        <ele>349.4</ele>
        <time>2020-06-29T14:23:23Z</time>
      </trkpt>
      <trkpt lat="48.70044" lon="6.13088">
        <ele>349.6</ele>
        <time>2020-06-29T14:23:24Z</time>
      </trkpt>
      <trkpt lat="48.70047" lon="6.13088">
        <ele>349.7</ele>
        <time>2020-06-29T14:23:25Z</time>
      </trkpt>
      <trkpt lat="48.7005" lon="6.13089">
        <ele>349.8</ele>
        <time>2020-06-29T14:23:26Z</time>
      </trkpt>
      <trkpt lat="48.70054" lon="6.13091">
        <ele>350</ele>
        <time>2020-06-29T14:23:27Z</time>
      </trkpt>
      <trkpt lat="48.70058" lon="6.13093">
        <ele>350.2</ele>
        <time>2020-06-29T14:23:28Z</time>
      </trkpt>
      <trkpt lat="48.70062" lon="6.13094">
        <ele>350.4</ele>
        <time>2020-06-29T14:23:29Z</time>
      </trkpt>
      <trkpt lat="48.70065" lon="6.13094">
        <ele>350.6</ele>
        <time>2020-06-29T14:23:30Z</time>
      </trkpt>
      <trkpt lat="48.70068" lon="6.13095">
        <ele>350.8</ele>
        <time>2020-06-29T14:23:31Z</time>
      </trkpt>
      <trkpt lat="48.70072" lon="6.13096">
        <ele>351.1</ele>
        <time>2020-06-29T14:23:32Z</time>
      </trkpt>
      <trkpt lat="48.70076" lon="6.13096">
        <ele>351.3</ele>
        <time>2020-06-29T14:23:33Z</time>
      </trkpt>
      <trkpt lat="48.70078" lon="6.13095">
        <ele>351.4</ele>
        <time>2020-06-29T14:23:34Z</time>
      </trkpt>
      <trkpt lat="48.70083" lon="6.13095">
        <ele>351.5</ele>
        <time>2020-06-29T14:23:35Z</time>
      </trkpt>
      <trkpt lat="48.70084" lon="6.13096">
        <ele>351.6</ele>
        <time>2020-06-29T14:23:36Z</time>
      </trkpt>
      <trkpt lat="48.70088" lon="6.13096">
        <ele>351.7</ele>
        <time>2020-06-29T14:23:37Z</time>
      </trkpt>
      <trkpt lat="48.70092" lon="6.13096">
        <ele>351.8</ele>
        <time>2020-06-29T14:23:38Z</time>
      </trkpt>
      <trkpt lat="48.70094" lon="6.13097">
        <ele>351.8</ele>
        <time>2020-06-29T14:23:39Z</time>
      </trkpt>
      <trkpt lat="48.70097" lon="6.13099">
        <ele>352</ele>
        <time>2020-06-29T14:23:40Z</time>
      </trkpt>
      <trkpt lat="48.70099" lon="6.13099">
        <ele>352</ele>
        <time>2020-06-29T14:23:41Z</time>
      </trkpt>
      <trkpt lat="48.70103" lon="6.13099">
        <ele>352.1</ele>
        <time>2020-06-29T14:23:42Z</time>
      </trkpt>
      <trkpt lat="48.70104" lon="6.13099">
        <ele>352.2</ele>
        <time>2020-06-29T14:23:43Z</time>
      </trkpt>
      <trkpt lat="48.70108" lon="6.13095">
        <ele>352.3</ele>
        <time>2020-06-29T14:23:44Z</time>
      </trkpt>
      <trkpt lat="48.70109" lon="6.13094">
        <ele>352.3</ele>
        <time>2020-06-29T14:23:45Z</time>
      </trkpt>
      <trkpt lat="48.70112" lon="6.13095">
        <ele>352.4</ele>
        <time>2020-06-29T14:23:46Z</time>
      </trkpt>
      <trkpt lat="48.70112" lon="6.13095">
        <ele>352.4</ele>
        <time>2020-06-29T14:23:47Z</time>
      </trkpt>
      <trkpt lat="48.70115" lon="6.13096">
        <ele>352.5</ele>
        <time>2020-06-29T14:23:48Z</time>
      </trkpt>
      <trkpt lat="48.70116" lon="6.13096">
        <ele>352.5</ele>
        <time>2020-06-29T14:23:49Z</time>
      </trkpt>
      <trkpt lat="48.70119" lon="6.13096">
        <ele>352.6</ele>
        <time>2020-06-29T14:23:50Z</time>
      </trkpt>
      <trkpt lat="48.7012" lon="6.13096">
        <ele>352.7</ele>
        <time>2020-06-29T14:23:51Z</time>
      </trkpt>
      <trkpt lat="48.70123" lon="6.13095">
        <ele>352.8</ele>
        <time>2020-06-29T14:23:52Z</time>
      </trkpt>
      <trkpt lat="48.70125" lon="6.13094">
        <ele>352.8</ele>
        <time>2020-06-29T14:23:53Z</time>
      </trkpt>
      <trkpt lat="48.70126" lon="6.13094">
        <ele>352.9</ele>
        <time>2020-06-29T14:23:54Z</time>
      </trkpt>
      <trkpt lat="48.70128" lon="6.13094">
        <ele>353.1</ele>
        <time>2020-06-29T14:23:55Z</time>
      </trkpt>
      <trkpt lat="48.70129" lon="6.13094">
        <ele>353.1</ele>
        <time>2020-06-29T14:23:56Z</time>
      </trkpt>
      <trkpt lat="48.70131" lon="6.13094">
        <ele>353.1</ele>
        <time>2020-06-29T14:23:57Z</time>
      </trkpt>
      <trkpt lat="48.70133" lon="6.13094">
        <ele>353.1</ele>
        <time>2020-06-29T14:23:58Z</time>
      </trkpt>
      <trkpt lat="48.70134" lon="6.13093">
        <ele>353.1</ele>
        <time>2020-06-29T14:23:59Z</time>
      </trkpt>
      <trkpt lat="48.70136" lon="6.13094">
        <ele>353.1</ele>
        <time>2020-06-29T14:24:00Z</time>
      </trkpt>
      <trkpt lat="48.70137" lon="6.13094">
        <ele>353.1</ele>
        <time>2020-06-29T14:24:01Z</time>
      </trkpt>
      <trkpt lat="48.70139" lon="6.13095">
        <ele>353.1</ele>
        <time>2020-06-29T14:24:02Z</time>
      </trkpt>
      <trkpt lat="48.7014" lon="6.13094">
        <ele>353.1</ele>
        <time>2020-06-29T14:24:03Z</time>
      </trkpt>
      <trkpt lat="48.70142" lon="6.13094">
        <ele>353.1</ele>
        <time>2020-06-29T14:24:04Z</time>
      </trkpt>
      <trkpt lat="48.70143" lon="6.13092">
        <ele>353.1</ele>
        <time>2020-06-29T14:24:05Z</time>
      </trkpt>
      <trkpt lat="48.70145" lon="6.13092">
        <ele>353.1</ele>
        <time>2020-06-29T14:24:06Z</time>
      </trkpt>
      <trkpt lat="48.70146" lon="6.13092">
        <ele>353.1</ele>
        <time>2020-06-29T14:24:07Z</time>
      </trkpt>
      <trkpt lat="48.70146" lon="6.13092">
        <ele>353.1</ele>
        <time>2020-06-29T14:24:08Z</time>
      </trkpt>
      <trkpt lat="48.70146" lon="6.13092">
        <ele>353.1</ele>
        <time>2020-06-29T14:24:09Z</time>
      </trkpt>
      <trkpt lat="48.70148" lon="6.13091">
        <ele>353.1</ele>
        <time>2020-06-29T14:24:10Z</time>
      </trkpt>
      <trkpt lat="48.70149" lon="6.1309">
        <ele>353.2</ele>
        <time>2020-06-29T14:24:11Z</time>
      </trkpt>
      <trkpt lat="48.7015" lon="6.13089">
        <ele>353.2</ele>
        <time>2020-06-29T14:24:12Z</time>
      </trkpt>
      <trkpt lat="48.70152" lon="6.13088">
        <ele>353.2</ele>
        <time>2020-06-29T14:24:13Z</time>
      </trkpt>
      <trkpt lat="48.70153" lon="6.13087">
        <ele>353.2</ele>
        <time>2020-06-29T14:24:14Z</time>
      </trkpt>
      <trkpt lat="48.70154" lon="6.13086">
        <ele>353.3</ele>
        <time>2020-06-29T14:24:15Z</time>
      </trkpt>
      <trkpt lat="48.70155" lon="6.13085">
        <ele>353.3</ele>
        <time>2020-06-29T14:24:16Z</time>
      </trkpt>
      <trkpt lat="48.70156" lon="6.13084">
        <ele>353.3</ele>
        <time>2020-06-29T14:24:17Z</time>
      </trkpt>
      <trkpt lat="48.70158" lon="6.13083">
        <ele>353.3</ele>
        <time>2020-06-29T14:24:18Z</time>
      </trkpt>
      <trkpt lat="48.70159" lon="6.13082">
        <ele>353.4</ele>
        <time>2020-06-29T14:24:19Z</time>
      </trkpt>
      <trkpt lat="48.7016" lon="6.13081">
        <ele>353.4</ele>
        <time>2020-06-29T14:25:13Z</time>
      </trkpt>
      <trkpt lat="48.70161" lon="6.1308">
        <ele>353.4</ele>
        <time>2020-06-29T14:25:14Z</time>
      </trkpt>
      <trkpt lat="48.70164" lon="6.13078">
        <ele>353.5</ele>
        <time>2020-06-29T14:25:15Z</time>
      </trkpt>
      <trkpt lat="48.70164" lon="6.13078">
        <ele>353.5</ele>
        <time>2020-06-29T14:25:16Z</time>
      </trkpt>
      <trkpt lat="48.70166" lon="6.13076">
        <ele>353.5</ele>
        <time>2020-06-29T14:25:17Z</time>
      </trkpt>
      <trkpt lat="48.70167" lon="6.13075">
        <ele>353.5</ele>
        <time>2020-06-29T14:25:18Z</time>
      </trkpt>
      <trkpt lat="48.70169" lon="6.13074">
        <ele>353.5</ele>
        <time>2020-06-29T14:25:19Z</time>
      </trkpt>
      <trkpt lat="48.70171" lon="6.13073">
        <ele>353.5</ele>
        <time>2020-06-29T14:25:20Z</time>
      </trkpt>
      <trkpt lat="48.70174" lon="6.13071">
        <ele>353.5</ele>
        <time>2020-06-29T14:25:21Z</time>
      </trkpt>
      <trkpt lat="48.70175" lon="6.1307">
        <ele>353.5</ele>
        <time>2020-06-29T14:25:22Z</time>
      </trkpt>
      <trkpt lat="48.70178" lon="6.13069">
        <ele>353.5</ele>
        <time>2020-06-29T14:25:23Z</time>
      </trkpt>
      <trkpt lat="48.7018" lon="6.13068">
        <ele>353.5</ele>
        <time>2020-06-29T14:25:24Z</time>
      </trkpt>
      <trkpt lat="48.70182" lon="6.13067">
        <ele>353.5</ele>
        <time>2020-06-29T14:25:25Z</time>
      </trkpt>
      <trkpt lat="48.70186" lon="6.13065">
        <ele>353.5</ele>
        <time>2020-06-29T14:25:26Z</time>
      </trkpt>
      <trkpt lat="48.70187" lon="6.13065">
        <ele>353.5</ele>
        <time>2020-06-29T14:25:27Z</time>
      </trkpt>
      <trkpt lat="48.70192" lon="6.13066">
        <ele>353.5</ele>
        <time>2020-06-29T14:25:28Z</time>
      </trkpt>
      <trkpt lat="48.70195" lon="6.13065">
        <ele>353.6</ele>
        <time>2020-06-29T14:25:29Z</time>
      </trkpt>
      <trkpt lat="48.70198" lon="6.13064">
        <ele>353.7</ele>
        <time>2020-06-29T14:25:30Z</time>
      </trkpt>
      <trkpt lat="48.70201" lon="6.13062">
        <ele>353.7</ele>
        <time>2020-06-29T14:25:31Z</time>
      </trkpt>
      <trkpt lat="48.70203" lon="6.13058">
        <ele>353.8</ele>
        <time>2020-06-29T14:25:32Z</time>
      </trkpt>
      <trkpt lat="48.70203" lon="6.13058">
        <ele>353.8</ele>
        <time>2020-06-29T14:25:33Z</time>
      </trkpt>
      <trkpt lat="48.70204" lon="6.13056">
        <ele>353.8</ele>
        <time>2020-06-29T14:25:34Z</time>
      </trkpt>
      <trkpt lat="48.70205" lon="6.13055">
        <ele>353.9</ele>
        <time>2020-06-29T14:25:35Z</time>
      </trkpt>
      <trkpt lat="48.70206" lon="6.13055">
        <ele>353.9</ele>
        <time>2020-06-29T14:25:36Z</time>
      </trkpt>
      <trkpt lat="48.70207" lon="6.13053">
        <ele>353.9</ele>
        <time>2020-06-29T14:25:37Z</time>
      </trkpt>
      <trkpt lat="48.70208" lon="6.13052">
        <ele>353.9</ele>
        <time>2020-06-29T14:25:38Z</time>
      </trkpt>
      <trkpt lat="48.70209" lon="6.13051">
        <ele>354</ele>
        <time>2020-06-29T14:25:39Z</time>
      </trkpt>
      <trkpt lat="48.70209" lon="6.1305">
        <ele>354</ele>
        <time>2020-06-29T14:25:40Z</time>
      </trkpt>
      <trkpt lat="48.7021" lon="6.13047">
        <ele>354</ele>
        <time>2020-06-29T14:25:41Z</time>
      </trkpt>
      <trkpt lat="48.70211" lon="6.13044">
        <ele>354</ele>
        <time>2020-06-29T14:25:42Z</time>
      </trkpt>
      <trkpt lat="48.70212" lon="6.13042">
        <ele>354</ele>
        <time>2020-06-29T14:25:43Z</time>
      </trkpt>
      <trkpt lat="48.70214" lon="6.13039">
        <ele>355.9</ele>
        <time>2020-06-29T14:25:44Z</time>
      </trkpt>
      <trkpt lat="48.70215" lon="6.13038">
        <ele>355.9</ele>
        <time>2020-06-29T14:25:45Z</time>
      </trkpt>
      <trkpt lat="48.70218" lon="6.13035">
        <ele>356</ele>
        <time>2020-06-29T14:25:46Z</time>
      </trkpt>
      <trkpt lat="48.70219" lon="6.13034">
        <ele>356</ele>
        <time>2020-06-29T14:25:47Z</time>
      </trkpt>
      <trkpt lat="48.70222" lon="6.1303">
        <ele>356.2</ele>
        <time>2020-06-29T14:25:48Z</time>
      </trkpt>
      <trkpt lat="48.70223" lon="6.13029">
        <ele>356.3</ele>
        <time>2020-06-29T14:25:49Z</time>
      </trkpt>
      <trkpt lat="48.70225" lon="6.13027">
        <ele>356.3</ele>
        <time>2020-06-29T14:25:50Z</time>
      </trkpt>
      <trkpt lat="48.70226" lon="6.13025">
        <ele>356.4</ele>
        <time>2020-06-29T14:25:51Z</time>
      </trkpt>
      <trkpt lat="48.70226" lon="6.13022">
        <ele>356.4</ele>
        <time>2020-06-29T14:25:52Z</time>
      </trkpt>
      <trkpt lat="48.70227" lon="6.13021">
        <ele>356.5</ele>
        <time>2020-06-29T14:25:53Z</time>
      </trkpt>
      <trkpt lat="48.70227" lon="6.13019">
        <ele>356.5</ele>
        <time>2020-06-29T14:25:54Z</time>
      </trkpt>
      <trkpt lat="48.70227" lon="6.13015">
        <ele>356.6</ele>
        <time>2020-06-29T14:25:55Z</time>
      </trkpt>
      <trkpt lat="48.70227" lon="6.13013">
        <ele>356.7</ele>
        <time>2020-06-29T14:25:56Z</time>
      </trkpt>
      <trkpt lat="48.70227" lon="6.13008">
        <ele>356.6</ele>
        <time>2020-06-29T14:25:57Z</time>
      </trkpt>
      <trkpt lat="48.70228" lon="6.13002">
        <ele>356.5</ele>
        <time>2020-06-29T14:25:58Z</time>
      </trkpt>
      <trkpt lat="48.70227" lon="6.12993">
        <ele>356.3</ele>
        <time>2020-06-29T14:25:59Z</time>
      </trkpt>
      <trkpt lat="48.70227" lon="6.12986">
        <ele>356.2</ele>
        <time>2020-06-29T14:26:00Z</time>
      </trkpt>
      <trkpt lat="48.70226" lon="6.12979">
        <ele>356.1</ele>
        <time>2020-06-29T14:26:01Z</time>
      </trkpt>
      <trkpt lat="48.70225" lon="6.12972">
        <ele>355.8</ele>
        <time>2020-06-29T14:26:02Z</time>
      </trkpt>
      <trkpt lat="48.70224" lon="6.12964">
        <ele>355.8</ele>
        <time>2020-06-29T14:26:03Z</time>
      </trkpt>
      <trkpt lat="48.70224" lon="6.12957">
        <ele>355.8</ele>
        <time>2020-06-29T14:26:04Z</time>
      </trkpt>
      <trkpt lat="48.70222" lon="6.12951">
        <ele>355.7</ele>
        <time>2020-06-29T14:26:05Z</time>
      </trkpt>
      <trkpt lat="48.7022" lon="6.12945">
        <ele>355.7</ele>
        <time>2020-06-29T14:26:06Z</time>
      </trkpt>
      <trkpt lat="48.70218" lon="6.1294">
        <ele>355.7</ele>
        <time>2020-06-29T14:26:07Z</time>
      </trkpt>
      <trkpt lat="48.70216" lon="6.12935">
        <ele>355.6</ele>
        <time>2020-06-29T14:26:08Z</time>
      </trkpt>
      <trkpt lat="48.70213" lon="6.12928">
        <ele>355.5</ele>
        <time>2020-06-29T14:26:09Z</time>
      </trkpt>
      <trkpt lat="48.7021" lon="6.12924">
        <ele>355.4</ele>
        <time>2020-06-29T14:26:10Z</time>
      </trkpt>
      <trkpt lat="48.70208" lon="6.1292">
        <ele>355.4</ele>
        <time>2020-06-29T14:26:11Z</time>
      </trkpt>
      <trkpt lat="48.70207" lon="6.12916">
        <ele>355.4</ele>
        <time>2020-06-29T14:26:12Z</time>
      </trkpt>
      <trkpt lat="48.70204" lon="6.12913">
        <ele>355.4</ele>
        <time>2020-06-29T14:26:13Z</time>
      </trkpt>
      <trkpt lat="48.70203" lon="6.12912">
        <ele>355.4</ele>
        <time>2020-06-29T14:26:14Z</time>
      </trkpt>
      <trkpt lat="48.70203" lon="6.12913">
        <ele>355.4</ele>
        <time>2020-06-29T14:26:15Z</time>
      </trkpt>
      <trkpt lat="48.70203" lon="6.12914">
        <ele>355.5</ele>
        <time>2020-06-29T14:26:16Z</time>
      </trkpt>
      <trkpt lat="48.70203" lon="6.12915">
        <ele>355.5</ele>
        <time>2020-06-29T14:26:17Z</time>
      </trkpt>
      <trkpt lat="48.70204" lon="6.12916">
        <ele>355.5</ele>
        <time>2020-06-29T14:26:18Z</time>
      </trkpt>
      <trkpt lat="48.70204" lon="6.12917">
        <ele>355.5</ele>
        <time>2020-06-29T14:26:19Z</time>
      </trkpt>
      <trkpt lat="48.70205" lon="6.12922">
        <ele>355.5</ele>
        <time>2020-06-29T14:26:20Z</time>
      </trkpt>
      <trkpt lat="48.70206" lon="6.12924">
        <ele>355.5</ele>
        <time>2020-06-29T14:26:21Z</time>
      </trkpt>
      <trkpt lat="48.70207" lon="6.12927">
        <ele>355.5</ele>
        <time>2020-06-29T14:26:22Z</time>
      </trkpt>
      <trkpt lat="48.70209" lon="6.12931">
        <ele>355.5</ele>
        <time>2020-06-29T14:26:23Z</time>
      </trkpt>
      <trkpt lat="48.70212" lon="6.12935">
        <ele>355.6</ele>
        <time>2020-06-29T14:26:24Z</time>
      </trkpt>
      <trkpt lat="48.70213" lon="6.12939">
        <ele>355.7</ele>
        <time>2020-06-29T14:26:25Z</time>
      </trkpt>
      <trkpt lat="48.70216" lon="6.12944">
        <ele>355.7</ele>
        <time>2020-06-29T14:26:26Z</time>
      </trkpt>
      <trkpt lat="48.70218" lon="6.12948">
        <ele>355.7</ele>
        <time>2020-06-29T14:26:27Z</time>
      </trkpt>
      <trkpt lat="48.70221" lon="6.12953">
        <ele>355.7</ele>
        <time>2020-06-29T14:26:28Z</time>
      </trkpt>
      <trkpt lat="48.70224" lon="6.12961">
        <ele>355.8</ele>
        <time>2020-06-29T14:26:29Z</time>
      </trkpt>
      <trkpt lat="48.70225" lon="6.12966">
        <ele>355.8</ele>
        <time>2020-06-29T14:26:30Z</time>
      </trkpt>
      <trkpt lat="48.70228" lon="6.12971">
        <ele>355.9</ele>
        <time>2020-06-29T14:26:31Z</time>
      </trkpt>
      <trkpt lat="48.70229" lon="6.12977">
        <ele>356.1</ele>
        <time>2020-06-29T14:26:32Z</time>
      </trkpt>
      <trkpt lat="48.70231" lon="6.12982">
        <ele>356.2</ele>
        <time>2020-06-29T14:26:33Z</time>
      </trkpt>
      <trkpt lat="48.70233" lon="6.12989">
        <ele>356.3</ele>
        <time>2020-06-29T14:26:34Z</time>
      </trkpt>
      <trkpt lat="48.70236" lon="6.12995">
        <ele>356.5</ele>
        <time>2020-06-29T14:26:35Z</time>
      </trkpt>
      <trkpt lat="48.70237" lon="6.13001">
        <ele>356.6</ele>
        <time>2020-06-29T14:26:36Z</time>
      </trkpt>
      <trkpt lat="48.7024" lon="6.13008">
        <ele>356.9</ele>
        <time>2020-06-29T14:26:37Z</time>
      </trkpt>
      <trkpt lat="48.70242" lon="6.13014">
        <ele>357.1</ele>
        <time>2020-06-29T14:26:38Z</time>
      </trkpt>
      <trkpt lat="48.70245" lon="6.13016">
        <ele>357.5</ele>
        <time>2020-06-29T14:26:39Z</time>
      </trkpt>
      <trkpt lat="48.70247" lon="6.13021">
        <ele>357.5</ele>
        <time>2020-06-29T14:26:40Z</time>
      </trkpt>
      <trkpt lat="48.70249" lon="6.13027">
        <ele>357.6</ele>
        <time>2020-06-29T14:26:41Z</time>
      </trkpt>
      <trkpt lat="48.70251" lon="6.13034">
        <ele>357.7</ele>
        <time>2020-06-29T14:26:42Z</time>
      </trkpt>
      <trkpt lat="48.70253" lon="6.13041">
        <ele>357.8</ele>
        <time>2020-06-29T14:26:43Z</time>
      </trkpt>
      <trkpt lat="48.70256" lon="6.13045">
        <ele>357.9</ele>
        <time>2020-06-29T14:26:44Z</time>
      </trkpt>
      <trkpt lat="48.70259" lon="6.13049">
        <ele>358</ele>
        <time>2020-06-29T14:26:45Z</time>
      </trkpt>
      <trkpt lat="48.70262" lon="6.13053">
        <ele>358</ele>
        <time>2020-06-29T14:26:46Z</time>
      </trkpt>
      <trkpt lat="48.70264" lon="6.13056">
        <ele>358.1</ele>
        <time>2020-06-29T14:26:47Z</time>
      </trkpt>
      <trkpt lat="48.70267" lon="6.13058">
        <ele>358.2</ele>
        <time>2020-06-29T14:26:48Z</time>
      </trkpt>
      <trkpt lat="48.70268" lon="6.13059">
        <ele>358.2</ele>
        <time>2020-06-29T14:26:49Z</time>
      </trkpt>
      <trkpt lat="48.70271" lon="6.13057">
        <ele>358.4</ele>
        <time>2020-06-29T14:26:50Z</time>
      </trkpt>
      <trkpt lat="48.70272" lon="6.13056">
        <ele>358.4</ele>
        <time>2020-06-29T14:26:51Z</time>
      </trkpt>
      <trkpt lat="48.70274" lon="6.13052">
        <ele>358.4</ele>
        <time>2020-06-29T14:26:52Z</time>
      </trkpt>
      <trkpt lat="48.70277" lon="6.1305">
        <ele>358.4</ele>
        <time>2020-06-29T14:26:53Z</time>
      </trkpt>
      <trkpt lat="48.7028" lon="6.13048">
        <ele>358.4</ele>
        <time>2020-06-29T14:26:54Z</time>
      </trkpt>
      <trkpt lat="48.70281" lon="6.13046">
        <ele>358.4</ele>
        <time>2020-06-29T14:26:55Z</time>
      </trkpt>
      <trkpt lat="48.70285" lon="6.13044">
        <ele>358.4</ele>
        <time>2020-06-29T14:26:56Z</time>
      </trkpt>
      <trkpt lat="48.70288" lon="6.13041">
        <ele>358.4</ele>
        <time>2020-06-29T14:26:57Z</time>
      </trkpt>
      <trkpt lat="48.70291" lon="6.13039">
        <ele>358.4</ele>
        <time>2020-06-29T14:26:58Z</time>
      </trkpt>
      <trkpt lat="48.70293" lon="6.13038">
        <ele>358.4</ele>
        <time>2020-06-29T14:26:59Z</time>
      </trkpt>
      <trkpt lat="48.70296" lon="6.13035">
        <ele>358.4</ele>
        <time>2020-06-29T14:27:00Z</time>
      </trkpt>
      <trkpt lat="48.70299" lon="6.13032">
        <ele>358.4</ele>
        <time>2020-06-29T14:27:01Z</time>
      </trkpt>
      <trkpt lat="48.70301" lon="6.1303">
        <ele>358.4</ele>
        <time>2020-06-29T14:27:02Z</time>
      </trkpt>
      <trkpt lat="48.70305" lon="6.13027">
        <ele>358.4</ele>
        <time>2020-06-29T14:27:03Z</time>
      </trkpt>
      <trkpt lat="48.70306" lon="6.13026">
        <ele>358.4</ele>
        <time>2020-06-29T14:27:04Z</time>
      </trkpt>
      <trkpt lat="48.70308" lon="6.13023">
        <ele>358.4</ele>
        <time>2020-06-29T14:27:05Z</time>
      </trkpt>
      <trkpt lat="48.70311" lon="6.13022">
        <ele>357.9</ele>
        <time>2020-06-29T14:27:06Z</time>
      </trkpt>
      <trkpt lat="48.70312" lon="6.13021">
        <ele>357.8</ele>
        <time>2020-06-29T14:27:07Z</time>
      </trkpt>
      <trkpt lat="48.70315" lon="6.13018">
        <ele>357.7</ele>
        <time>2020-06-29T14:27:08Z</time>
      </trkpt>
      <trkpt lat="48.70315" lon="6.13016">
        <ele>357.7</ele>
        <time>2020-06-29T14:27:09Z</time>
      </trkpt>
      <trkpt lat="48.70315" lon="6.13012">
        <ele>357.6</ele>
        <time>2020-06-29T14:27:10Z</time>
      </trkpt>
      <trkpt lat="48.70315" lon="6.1301">
        <ele>357.6</ele>
        <time>2020-06-29T14:27:11Z</time>
      </trkpt>
      <trkpt lat="48.70313" lon="6.13006">
        <ele>357.1</ele>
        <time>2020-06-29T14:27:12Z</time>
      </trkpt>
      <trkpt lat="48.70312" lon="6.13">
        <ele>357.1</ele>
        <time>2020-06-29T14:27:13Z</time>
      </trkpt>
      <trkpt lat="48.70311" lon="6.12995">
        <ele>357.1</ele>
        <time>2020-06-29T14:27:14Z</time>
      </trkpt>
      <trkpt lat="48.70309" lon="6.1299">
        <ele>357.1</ele>
        <time>2020-06-29T14:27:15Z</time>
      </trkpt>
      <trkpt lat="48.70308" lon="6.12986">
        <ele>357</ele>
        <time>2020-06-29T14:27:16Z</time>
      </trkpt>
      <trkpt lat="48.70307" lon="6.12981">
        <ele>357</ele>
        <time>2020-06-29T14:27:17Z</time>
      </trkpt>
      <trkpt lat="48.70306" lon="6.12978">
        <ele>357</ele>
        <time>2020-06-29T14:27:18Z</time>
      </trkpt>
      <trkpt lat="48.70307" lon="6.12974">
        <ele>357</ele>
        <time>2020-06-29T14:27:19Z</time>
      </trkpt>
      <trkpt lat="48.70307" lon="6.12973">
        <ele>357</ele>
        <time>2020-06-29T14:27:20Z</time>
      </trkpt>
      <trkpt lat="48.70308" lon="6.12972">
        <ele>357</ele>
        <time>2020-06-29T14:27:21Z</time>
      </trkpt>
      <trkpt lat="48.70309" lon="6.12967">
        <ele>357</ele>
        <time>2020-06-29T14:27:22Z</time>
      </trkpt>
      <trkpt lat="48.7031" lon="6.12964">
        <ele>357</ele>
        <time>2020-06-29T14:27:23Z</time>
      </trkpt>
      <trkpt lat="48.70311" lon="6.12959">
        <ele>357.1</ele>
        <time>2020-06-29T14:27:24Z</time>
      </trkpt>
      <trkpt lat="48.70311" lon="6.12957">
        <ele>357.1</ele>
        <time>2020-06-29T14:27:25Z</time>
      </trkpt>
      <trkpt lat="48.7031" lon="6.12951">
        <ele>357.3</ele>
        <time>2020-06-29T14:27:26Z</time>
      </trkpt>
      <trkpt lat="48.70308" lon="6.12947">
        <ele>357.1</ele>
        <time>2020-06-29T14:27:27Z</time>
      </trkpt>
      <trkpt lat="48.70307" lon="6.12942">
        <ele>357</ele>
        <time>2020-06-29T14:27:28Z</time>
      </trkpt>
      <trkpt lat="48.70305" lon="6.12936">
        <ele>356.9</ele>
        <time>2020-06-29T14:27:29Z</time>
      </trkpt>
      <trkpt lat="48.70304" lon="6.12934">
        <ele>356.8</ele>
        <time>2020-06-29T14:27:30Z</time>
      </trkpt>
      <trkpt lat="48.70301" lon="6.12929">
        <ele>356.7</ele>
        <time>2020-06-29T14:27:31Z</time>
      </trkpt>
      <trkpt lat="48.703" lon="6.12924">
        <ele>356.6</ele>
        <time>2020-06-29T14:27:32Z</time>
      </trkpt>
      <trkpt lat="48.70298" lon="6.1292">
        <ele>356.6</ele>
        <time>2020-06-29T14:27:33Z</time>
      </trkpt>
      <trkpt lat="48.70296" lon="6.12915">
        <ele>356.5</ele>
        <time>2020-06-29T14:27:34Z</time>
      </trkpt>
      <trkpt lat="48.70294" lon="6.1291">
        <ele>356.4</ele>
        <time>2020-06-29T14:27:35Z</time>
      </trkpt>
      <trkpt lat="48.70292" lon="6.12905">
        <ele>356.3</ele>
        <time>2020-06-29T14:27:36Z</time>
      </trkpt>
      <trkpt lat="48.70292" lon="6.12897">
        <ele>356.2</ele>
        <time>2020-06-29T14:27:37Z</time>
      </trkpt>
      <trkpt lat="48.7029" lon="6.12891">
        <ele>356.2</ele>
        <time>2020-06-29T14:27:38Z</time>
      </trkpt>
      <trkpt lat="48.70288" lon="6.12886">
        <ele>356.1</ele>
        <time>2020-06-29T14:27:39Z</time>
      </trkpt>
      <trkpt lat="48.70286" lon="6.1288">
        <ele>356.2</ele>
        <time>2020-06-29T14:27:40Z</time>
      </trkpt>
      <trkpt lat="48.70284" lon="6.12873">
        <ele>356.2</ele>
        <time>2020-06-29T14:27:41Z</time>
      </trkpt>
      <trkpt lat="48.70282" lon="6.12866">
        <ele>356.2</ele>
        <time>2020-06-29T14:27:42Z</time>
      </trkpt>
      <trkpt lat="48.7028" lon="6.1286">
        <ele>356.1</ele>
        <time>2020-06-29T14:27:43Z</time>
      </trkpt>
      <trkpt lat="48.70279" lon="6.12854">
        <ele>356.1</ele>
        <time>2020-06-29T14:27:44Z</time>
      </trkpt>
      <trkpt lat="48.70278" lon="6.12849">
        <ele>356</ele>
        <time>2020-06-29T14:27:45Z</time>
      </trkpt>
      <trkpt lat="48.70276" lon="6.12842">
        <ele>355.9</ele>
        <time>2020-06-29T14:27:46Z</time>
      </trkpt>
      <trkpt lat="48.70274" lon="6.12834">
        <ele>355.8</ele>
        <time>2020-06-29T14:27:47Z</time>
      </trkpt>
      <trkpt lat="48.70272" lon="6.12828">
        <ele>355.7</ele>
        <time>2020-06-29T14:27:48Z</time>
      </trkpt>
      <trkpt lat="48.7027" lon="6.12821">
        <ele>355.6</ele>
        <time>2020-06-29T14:27:49Z</time>
      </trkpt>
      <trkpt lat="48.70267" lon="6.12814">
        <ele>355.5</ele>
        <time>2020-06-29T14:27:50Z</time>
      </trkpt>
      <trkpt lat="48.70264" lon="6.12806">
        <ele>355.4</ele>
        <time>2020-06-29T14:27:51Z</time>
      </trkpt>
      <trkpt lat="48.70262" lon="6.12799">
        <ele>355.4</ele>
        <time>2020-06-29T14:27:52Z</time>
      </trkpt>
      <trkpt lat="48.70259" lon="6.12792">
        <ele>355.3</ele>
        <time>2020-06-29T14:27:53Z</time>
      </trkpt>
      <trkpt lat="48.70255" lon="6.12786">
        <ele>355.2</ele>
        <time>2020-06-29T14:27:54Z</time>
      </trkpt>
      <trkpt lat="48.70252" lon="6.12778">
        <ele>355.1</ele>
        <time>2020-06-29T14:27:55Z</time>
      </trkpt>
      <trkpt lat="48.7025" lon="6.12772">
        <ele>355.1</ele>
        <time>2020-06-29T14:27:56Z</time>
      </trkpt>
      <trkpt lat="48.70248" lon="6.12767">
        <ele>355</ele>
        <time>2020-06-29T14:27:57Z</time>
      </trkpt>
      <trkpt lat="48.70247" lon="6.12763">
        <ele>355</ele>
        <time>2020-06-29T14:27:58Z</time>
      </trkpt>
      <trkpt lat="48.70246" lon="6.12762">
        <ele>355</ele>
        <time>2020-06-29T14:27:59Z</time>
      </trkpt>
      <trkpt lat="48.70246" lon="6.12761">
        <ele>355</ele>
        <time>2020-06-29T14:28:00Z</time>
      </trkpt>
      <trkpt lat="48.70246" lon="6.1276">
        <ele>355</ele>
        <time>2020-06-29T14:28:01Z</time>
      </trkpt>
      <trkpt lat="48.70246" lon="6.1276">
        <ele>355</ele>
        <time>2020-06-29T14:28:02Z</time>
      </trkpt>
      <trkpt lat="48.70246" lon="6.12758">
        <ele>354.9</ele>
        <time>2020-06-29T14:28:03Z</time>
      </trkpt>
      <trkpt lat="48.70246" lon="6.12758">
        <ele>354.9</ele>
        <time>2020-06-29T14:28:04Z</time>
      </trkpt>
      <trkpt lat="48.70247" lon="6.12759">
        <ele>354.9</ele>
        <time>2020-06-29T14:28:05Z</time>
      </trkpt>
      <trkpt lat="48.70247" lon="6.1276">
        <ele>354.9</ele>
        <time>2020-06-29T14:28:06Z</time>
      </trkpt>
      <trkpt lat="48.70247" lon="6.1276">
        <ele>354.9</ele>
        <time>2020-06-29T14:28:07Z</time>
      </trkpt>
      <trkpt lat="48.70248" lon="6.12758">
        <ele>354.9</ele>
        <time>2020-06-29T14:28:08Z</time>
      </trkpt>
      <trkpt lat="48.70248" lon="6.12758">
        <ele>354.9</ele>
        <time>2020-06-29T14:28:09Z</time>
      </trkpt>
      <trkpt lat="48.70248" lon="6.12757">
        <ele>354.9</ele>
        <time>2020-06-29T14:28:10Z</time>
      </trkpt>
      <trkpt lat="48.70248" lon="6.12756">
        <ele>354.9</ele>
        <time>2020-06-29T14:28:11Z</time>
      </trkpt>
      <trkpt lat="48.70247" lon="6.12755">
        <ele>354.9</ele>
        <time>2020-06-29T14:28:12Z</time>
      </trkpt>
      <trkpt lat="48.70246" lon="6.12755">
        <ele>354.8</ele>
        <time>2020-06-29T14:28:13Z</time>
      </trkpt>
      <trkpt lat="48.70245" lon="6.12754">
        <ele>354.8</ele>
        <time>2020-06-29T14:28:14Z</time>
      </trkpt>
      <trkpt lat="48.70245" lon="6.12753">
        <ele>354.8</ele>
        <time>2020-06-29T14:28:15Z</time>
      </trkpt>
      <trkpt lat="48.70244" lon="6.12752">
        <ele>354.8</ele>
        <time>2020-06-29T14:28:16Z</time>
      </trkpt>
      <trkpt lat="48.70243" lon="6.12751">
        <ele>354.8</ele>
        <time>2020-06-29T14:28:17Z</time>
      </trkpt>
      <trkpt lat="48.70243" lon="6.1275">
        <ele>354.8</ele>
        <time>2020-06-29T14:28:18Z</time>
      </trkpt>
      <trkpt lat="48.70242" lon="6.12749">
        <ele>354.8</ele>
        <time>2020-06-29T14:29:23Z</time>
      </trkpt>
      <trkpt lat="48.70241" lon="6.12748">
        <ele>354.8</ele>
        <time>2020-06-29T14:29:24Z</time>
      </trkpt>
      <trkpt lat="48.70239" lon="6.12743">
        <ele>354.7</ele>
        <time>2020-06-29T14:29:25Z</time>
      </trkpt>
      <trkpt lat="48.70239" lon="6.12741">
        <ele>354.7</ele>
        <time>2020-06-29T14:29:26Z</time>
      </trkpt>
      <trkpt lat="48.70239" lon="6.12736">
        <ele>354</ele>
        <time>2020-06-29T14:29:27Z</time>
      </trkpt>
      <trkpt lat="48.70239" lon="6.12734">
        <ele>354</ele>
        <time>2020-06-29T14:29:28Z</time>
      </trkpt>
      <trkpt lat="48.70239" lon="6.12732">
        <ele>354</ele>
        <time>2020-06-29T14:29:29Z</time>
      </trkpt>
      <trkpt lat="48.7024" lon="6.1273">
        <ele>353.9</ele>
        <time>2020-06-29T14:29:30Z</time>
      </trkpt>
      <trkpt lat="48.7024" lon="6.12729">
        <ele>353.9</ele>
        <time>2020-06-29T14:29:31Z</time>
      </trkpt>
      <trkpt lat="48.7024" lon="6.12728">
        <ele>353.9</ele>
        <time>2020-06-29T14:29:32Z</time>
      </trkpt>
      <trkpt lat="48.7024" lon="6.12728">
        <ele>353.9</ele>
        <time>2020-06-29T14:29:33Z</time>
      </trkpt>
      <trkpt lat="48.70241" lon="6.12728">
        <ele>353.9</ele>
        <time>2020-06-29T14:29:34Z</time>
      </trkpt>
      <trkpt lat="48.70241" lon="6.12727">
        <ele>353.9</ele>
        <time>2020-06-29T14:29:35Z</time>
      </trkpt>
      <trkpt lat="48.70242" lon="6.12726">
        <ele>353.9</ele>
        <time>2020-06-29T14:29:36Z</time>
      </trkpt>
      <trkpt lat="48.70242" lon="6.12725">
        <ele>353.9</ele>
        <time>2020-06-29T14:29:37Z</time>
      </trkpt>
      <trkpt lat="48.70243" lon="6.12724">
        <ele>353.9</ele>
        <time>2020-06-29T14:29:38Z</time>
      </trkpt>
      <trkpt lat="48.70244" lon="6.12724">
        <ele>353.9</ele>
        <time>2020-06-29T14:29:39Z</time>
      </trkpt>
      <trkpt lat="48.70245" lon="6.12724">
        <ele>353.8</ele>
        <time>2020-06-29T14:29:40Z</time>
      </trkpt>
      <trkpt lat="48.70246" lon="6.12723">
        <ele>353.8</ele>
        <time>2020-06-29T14:29:41Z</time>
      </trkpt>
      <trkpt lat="48.70247" lon="6.12723">
        <ele>353.8</ele>
        <time>2020-06-29T14:29:42Z</time>
      </trkpt>
      <trkpt lat="48.70248" lon="6.12723">
        <ele>353.8</ele>
        <time>2020-06-29T14:29:43Z</time>
      </trkpt>
      <trkpt lat="48.70249" lon="6.12722">
        <ele>353.8</ele>
        <time>2020-06-29T14:29:44Z</time>
      </trkpt>
      <trkpt lat="48.7025" lon="6.12722">
        <ele>353.8</ele>
        <time>2020-06-29T14:29:45Z</time>
      </trkpt>
      <trkpt lat="48.70251" lon="6.12721">
        <ele>353.8</ele>
        <time>2020-06-29T14:29:46Z</time>
      </trkpt>
      <trkpt lat="48.70251" lon="6.12721">
        <ele>353.8</ele>
        <time>2020-06-29T14:29:47Z</time>
      </trkpt>
      <trkpt lat="48.70252" lon="6.12721">
        <ele>353.7</ele>
        <time>2020-06-29T14:29:48Z</time>
      </trkpt>
      <trkpt lat="48.70253" lon="6.1272">
        <ele>353.7</ele>
        <time>2020-06-29T14:40:08Z</time>
      </trkpt>
      <trkpt lat="48.70254" lon="6.1272">
        <ele>353.7</ele>
        <time>2020-06-29T14:40:09Z</time>
      </trkpt>
      <trkpt lat="48.70258" lon="6.12717">
        <ele>353.7</ele>
        <time>2020-06-29T14:40:10Z</time>
      </trkpt>
      <trkpt lat="48.70261" lon="6.12715">
        <ele>353.6</ele>
        <time>2020-06-29T14:40:11Z</time>
      </trkpt>
      <trkpt lat="48.70265" lon="6.12712">
        <ele>353.5</ele>
        <time>2020-06-29T14:40:12Z</time>
      </trkpt>
      <trkpt lat="48.70268" lon="6.12708">
        <ele>353.5</ele>
        <time>2020-06-29T14:40:13Z</time>
      </trkpt>
      <trkpt lat="48.70271" lon="6.12705">
        <ele>353.4</ele>
        <time>2020-06-29T14:40:14Z</time>
      </trkpt>
      <trkpt lat="48.70273" lon="6.127">
        <ele>353.4</ele>
        <time>2020-06-29T14:40:15Z</time>
      </trkpt>
      <trkpt lat="48.70275" lon="6.12695">
        <ele>353.3</ele>
        <time>2020-06-29T14:40:16Z</time>
      </trkpt>
      <trkpt lat="48.70277" lon="6.12691">
        <ele>353.3</ele>
        <time>2020-06-29T14:40:17Z</time>
      </trkpt>
      <trkpt lat="48.70278" lon="6.12687">
        <ele>353.3</ele>
        <time>2020-06-29T14:40:18Z</time>
      </trkpt>
      <trkpt lat="48.70278" lon="6.12686">
        <ele>353.3</ele>
        <time>2020-06-29T14:40:19Z</time>
      </trkpt>
      <trkpt lat="48.70276" lon="6.12687">
        <ele>353.2</ele>
        <time>2020-06-29T14:40:20Z</time>
      </trkpt>
      <trkpt lat="48.70274" lon="6.12689">
        <ele>353.2</ele>
        <time>2020-06-29T14:40:21Z</time>
      </trkpt>
      <trkpt lat="48.70273" lon="6.1269">
        <ele>353.2</ele>
        <time>2020-06-29T14:40:22Z</time>
      </trkpt>
      <trkpt lat="48.70265" lon="6.12694">
        <ele>353.3</ele>
        <time>2020-06-29T14:40:23Z</time>
      </trkpt>
      <trkpt lat="48.70259" lon="6.12699">
        <ele>353.4</ele>
        <time>2020-06-29T14:40:24Z</time>
      </trkpt>
      <trkpt lat="48.70253" lon="6.12704">
        <ele>353.5</ele>
        <time>2020-06-29T14:40:25Z</time>
      </trkpt>
      <trkpt lat="48.70249" lon="6.12709">
        <ele>353.6</ele>
        <time>2020-06-29T14:40:26Z</time>
      </trkpt>
      <trkpt lat="48.70244" lon="6.12712">
        <ele>353.7</ele>
        <time>2020-06-29T14:40:27Z</time>
      </trkpt>
      <trkpt lat="48.7024" lon="6.12715">
        <ele>353.8</ele>
        <time>2020-06-29T14:40:28Z</time>
      </trkpt>
      <trkpt lat="48.70236" lon="6.12719">
        <ele>353.9</ele>
        <time>2020-06-29T14:40:29Z</time>
      </trkpt>
      <trkpt lat="48.70234" lon="6.12722">
        <ele>354</ele>
        <time>2020-06-29T14:40:30Z</time>
      </trkpt>
      <trkpt lat="48.7023" lon="6.12723">
        <ele>354</ele>
        <time>2020-06-29T14:40:31Z</time>
      </trkpt>
      <trkpt lat="48.70226" lon="6.12723">
        <ele>354.1</ele>
        <time>2020-06-29T14:40:32Z</time>
      </trkpt>
      <trkpt lat="48.70223" lon="6.12721">
        <ele>354.1</ele>
        <time>2020-06-29T14:40:33Z</time>
      </trkpt>
      <trkpt lat="48.70221" lon="6.12717">
        <ele>354.1</ele>
        <time>2020-06-29T14:40:34Z</time>
      </trkpt>
      <trkpt lat="48.70219" lon="6.12713">
        <ele>354.1</ele>
        <time>2020-06-29T14:40:35Z</time>
      </trkpt>
      <trkpt lat="48.70218" lon="6.12708">
        <ele>354</ele>
        <time>2020-06-29T14:40:36Z</time>
      </trkpt>
      <trkpt lat="48.70216" lon="6.12703">
        <ele>354</ele>
        <time>2020-06-29T14:40:37Z</time>
      </trkpt>
      <trkpt lat="48.70213" lon="6.12697">
        <ele>353.9</ele>
        <time>2020-06-29T14:40:38Z</time>
      </trkpt>
      <trkpt lat="48.70211" lon="6.12691">
        <ele>353.8</ele>
        <time>2020-06-29T14:40:39Z</time>
      </trkpt>
      <trkpt lat="48.70208" lon="6.12686">
        <ele>353.7</ele>
        <time>2020-06-29T14:40:40Z</time>
      </trkpt>
      <trkpt lat="48.70206" lon="6.12679">
        <ele>353.6</ele>
        <time>2020-06-29T14:40:41Z</time>
      </trkpt>
      <trkpt lat="48.70205" lon="6.12675">
        <ele>353.5</ele>
        <time>2020-06-29T14:40:42Z</time>
      </trkpt>
      <trkpt lat="48.70204" lon="6.1267">
        <ele>353.5</ele>
        <time>2020-06-29T14:40:43Z</time>
      </trkpt>
      <trkpt lat="48.70202" lon="6.12667">
        <ele>353.4</ele>
        <time>2020-06-29T14:40:44Z</time>
      </trkpt>
      <trkpt lat="48.702" lon="6.12663">
        <ele>353.3</ele>
        <time>2020-06-29T14:40:45Z</time>
      </trkpt>
      <trkpt lat="48.70198" lon="6.12657">
        <ele>353.2</ele>
        <time>2020-06-29T14:40:46Z</time>
      </trkpt>
      <trkpt lat="48.70195" lon="6.12653">
        <ele>353.1</ele>
        <time>2020-06-29T14:40:47Z</time>
      </trkpt>
      <trkpt lat="48.70193" lon="6.12648">
        <ele>353.1</ele>
        <time>2020-06-29T14:40:48Z</time>
      </trkpt>
      <trkpt lat="48.70191" lon="6.12642">
        <ele>353</ele>
        <time>2020-06-29T14:40:49Z</time>
      </trkpt>
      <trkpt lat="48.7019" lon="6.12636">
        <ele>352.9</ele>
        <time>2020-06-29T14:40:50Z</time>
      </trkpt>
      <trkpt lat="48.70188" lon="6.12629">
        <ele>352.8</ele>
        <time>2020-06-29T14:40:51Z</time>
      </trkpt>
      <trkpt lat="48.70186" lon="6.12623">
        <ele>352.7</ele>
        <time>2020-06-29T14:40:52Z</time>
      </trkpt>
      <trkpt lat="48.70185" lon="6.12615">
        <ele>352.6</ele>
        <time>2020-06-29T14:40:53Z</time>
      </trkpt>
      <trkpt lat="48.70184" lon="6.12607">
        <ele>352.4</ele>
        <time>2020-06-29T14:40:54Z</time>
      </trkpt>
      <trkpt lat="48.70181" lon="6.12599">
        <ele>352.3</ele>
        <time>2020-06-29T14:40:55Z</time>
      </trkpt>
      <trkpt lat="48.70178" lon="6.12593">
        <ele>352.2</ele>
        <time>2020-06-29T14:40:56Z</time>
      </trkpt>
      <trkpt lat="48.70179" lon="6.12585">
        <ele>352.2</ele>
        <time>2020-06-29T14:40:57Z</time>
      </trkpt>
      <trkpt lat="48.70175" lon="6.12578">
        <ele>352.1</ele>
        <time>2020-06-29T14:40:58Z</time>
      </trkpt>
      <trkpt lat="48.70171" lon="6.12572">
        <ele>351.9</ele>
        <time>2020-06-29T14:40:59Z</time>
      </trkpt>
      <trkpt lat="48.70167" lon="6.12567">
        <ele>351.8</ele>
        <time>2020-06-29T14:41:00Z</time>
      </trkpt>
      <trkpt lat="48.70164" lon="6.1256">
        <ele>351.7</ele>
        <time>2020-06-29T14:41:01Z</time>
      </trkpt>
      <trkpt lat="48.70161" lon="6.12554">
        <ele>351.6</ele>
        <time>2020-06-29T14:41:02Z</time>
      </trkpt>
      <trkpt lat="48.70158" lon="6.12547">
        <ele>351.5</ele>
        <time>2020-06-29T14:41:03Z</time>
      </trkpt>
      <trkpt lat="48.70154" lon="6.12541">
        <ele>351.3</ele>
        <time>2020-06-29T14:41:04Z</time>
      </trkpt>
      <trkpt lat="48.70152" lon="6.12536">
        <ele>351.3</ele>
        <time>2020-06-29T14:41:05Z</time>
      </trkpt>
      <trkpt lat="48.70149" lon="6.12528">
        <ele>351.1</ele>
        <time>2020-06-29T14:41:06Z</time>
      </trkpt>
      <trkpt lat="48.70146" lon="6.12523">
        <ele>351.2</ele>
        <time>2020-06-29T14:41:07Z</time>
      </trkpt>
      <trkpt lat="48.70142" lon="6.12515">
        <ele>351.2</ele>
        <time>2020-06-29T14:41:08Z</time>
      </trkpt>
      <trkpt lat="48.70138" lon="6.12507">
        <ele>351.1</ele>
        <time>2020-06-29T14:41:09Z</time>
      </trkpt>
      <trkpt lat="48.70133" lon="6.125">
        <ele>350.9</ele>
        <time>2020-06-29T14:41:10Z</time>
      </trkpt>
      <trkpt lat="48.70129" lon="6.12493">
        <ele>350.8</ele>
        <time>2020-06-29T14:41:11Z</time>
      </trkpt>
      <trkpt lat="48.70125" lon="6.12485">
        <ele>350.7</ele>
        <time>2020-06-29T14:41:12Z</time>
      </trkpt>
      <trkpt lat="48.70122" lon="6.12478">
        <ele>350.6</ele>
        <time>2020-06-29T14:41:13Z</time>
      </trkpt>
      <trkpt lat="48.70118" lon="6.1247">
        <ele>350.5</ele>
        <time>2020-06-29T14:41:14Z</time>
      </trkpt>
      <trkpt lat="48.70114" lon="6.12462">
        <ele>350.4</ele>
        <time>2020-06-29T14:41:15Z</time>
      </trkpt>
      <trkpt lat="48.70111" lon="6.12455">
        <ele>350.3</ele>
        <time>2020-06-29T14:41:16Z</time>
      </trkpt>
      <trkpt lat="48.70107" lon="6.12448">
        <ele>350.1</ele>
        <time>2020-06-29T14:41:17Z</time>
      </trkpt>
      <trkpt lat="48.70104" lon="6.12441">
        <ele>350</ele>
        <time>2020-06-29T14:41:18Z</time>
      </trkpt>
      <trkpt lat="48.701" lon="6.12433">
        <ele>349.8</ele>
        <time>2020-06-29T14:41:19Z</time>
      </trkpt>
      <trkpt lat="48.70097" lon="6.12425">
        <ele>349.7</ele>
        <time>2020-06-29T14:41:20Z</time>
      </trkpt>
      <trkpt lat="48.70093" lon="6.12416">
        <ele>349.5</ele>
        <time>2020-06-29T14:41:21Z</time>
      </trkpt>
      <trkpt lat="48.70089" lon="6.12408">
        <ele>349.4</ele>
        <time>2020-06-29T14:41:22Z</time>
      </trkpt>
      <trkpt lat="48.70085" lon="6.124">
        <ele>349.2</ele>
        <time>2020-06-29T14:41:23Z</time>
      </trkpt>
      <trkpt lat="48.70081" lon="6.12391">
        <ele>349.1</ele>
        <time>2020-06-29T14:41:24Z</time>
      </trkpt>
      <trkpt lat="48.70077" lon="6.12384">
        <ele>348.9</ele>
        <time>2020-06-29T14:41:25Z</time>
      </trkpt>
      <trkpt lat="48.70073" lon="6.12376">
        <ele>348.7</ele>
        <time>2020-06-29T14:41:26Z</time>
      </trkpt>
      <trkpt lat="48.7007" lon="6.12368">
        <ele>348.6</ele>
        <time>2020-06-29T14:41:27Z</time>
      </trkpt>
      <trkpt lat="48.70065" lon="6.12359">
        <ele>348.4</ele>
        <time>2020-06-29T14:41:28Z</time>
      </trkpt>
      <trkpt lat="48.7006" lon="6.1235">
        <ele>348.3</ele>
        <time>2020-06-29T14:41:29Z</time>
      </trkpt>
      <trkpt lat="48.70055" lon="6.12341">
        <ele>348.1</ele>
        <time>2020-06-29T14:41:30Z</time>
      </trkpt>
      <trkpt lat="48.70051" lon="6.12333">
        <ele>347.9</ele>
        <time>2020-06-29T14:41:31Z</time>
      </trkpt>
      <trkpt lat="48.70048" lon="6.12326">
        <ele>347.8</ele>
        <time>2020-06-29T14:41:32Z</time>
      </trkpt>
      <trkpt lat="48.70043" lon="6.12319">
        <ele>347.7</ele>
        <time>2020-06-29T14:41:33Z</time>
      </trkpt>
      <trkpt lat="48.7004" lon="6.12312">
        <ele>347.6</ele>
        <time>2020-06-29T14:41:34Z</time>
      </trkpt>
      <trkpt lat="48.70036" lon="6.12304">
        <ele>347.5</ele>
        <time>2020-06-29T14:41:35Z</time>
      </trkpt>
      <trkpt lat="48.70032" lon="6.12297">
        <ele>347.4</ele>
        <time>2020-06-29T14:41:36Z</time>
      </trkpt>
      <trkpt lat="48.70029" lon="6.12289">
        <ele>347.2</ele>
        <time>2020-06-29T14:41:37Z</time>
      </trkpt>
      <trkpt lat="48.70025" lon="6.12281">
        <ele>347.1</ele>
        <time>2020-06-29T14:41:38Z</time>
      </trkpt>
      <trkpt lat="48.70021" lon="6.12273">
        <ele>347</ele>
        <time>2020-06-29T14:41:39Z</time>
      </trkpt>
      <trkpt lat="48.70017" lon="6.12265">
        <ele>346.9</ele>
        <time>2020-06-29T14:41:40Z</time>
      </trkpt>
      <trkpt lat="48.70013" lon="6.12257">
        <ele>346.8</ele>
        <time>2020-06-29T14:41:41Z</time>
      </trkpt>
      <trkpt lat="48.70009" lon="6.12249">
        <ele>346.6</ele>
        <time>2020-06-29T14:41:42Z</time>
      </trkpt>
      <trkpt lat="48.70005" lon="6.12241">
        <ele>346.5</ele>
        <time>2020-06-29T14:41:43Z</time>
      </trkpt>
      <trkpt lat="48.70001" lon="6.12234">
        <ele>346.4</ele>
        <time>2020-06-29T14:41:44Z</time>
      </trkpt>
      <trkpt lat="48.69997" lon="6.12226">
        <ele>346.3</ele>
        <time>2020-06-29T14:41:45Z</time>
      </trkpt>
      <trkpt lat="48.69993" lon="6.12219">
        <ele>346.2</ele>
        <time>2020-06-29T14:41:46Z</time>
      </trkpt>
      <trkpt lat="48.69989" lon="6.12211">
        <ele>346</ele>
        <time>2020-06-29T14:41:47Z</time>
      </trkpt>
      <trkpt lat="48.69985" lon="6.12204">
        <ele>345.9</ele>
        <time>2020-06-29T14:41:48Z</time>
      </trkpt>
      <trkpt lat="48.69981" lon="6.12196">
        <ele>345.8</ele>
        <time>2020-06-29T14:41:49Z</time>
      </trkpt>
      <trkpt lat="48.69977" lon="6.12189">
        <ele>345.6</ele>
        <time>2020-06-29T14:41:50Z</time>
      </trkpt>
      <trkpt lat="48.69974" lon="6.12181">
        <ele>345.4</ele>
        <time>2020-06-29T14:41:51Z</time>
      </trkpt>
      <trkpt lat="48.6997" lon="6.12173">
        <ele>345.2</ele>
        <time>2020-06-29T14:41:52Z</time>
      </trkpt>
      <trkpt lat="48.69966" lon="6.12166">
        <ele>345</ele>
        <time>2020-06-29T14:41:53Z</time>
      </trkpt>
      <trkpt lat="48.69961" lon="6.12159">
        <ele>344.9</ele>
        <time>2020-06-29T14:41:54Z</time>
      </trkpt>
      <trkpt lat="48.69957" lon="6.12152">
        <ele>344.7</ele>
        <time>2020-06-29T14:41:55Z</time>
      </trkpt>
      <trkpt lat="48.69953" lon="6.12144">
        <ele>344.6</ele>
        <time>2020-06-29T14:41:56Z</time>
      </trkpt>
      <trkpt lat="48.69949" lon="6.12136">
        <ele>344.4</ele>
        <time>2020-06-29T14:41:57Z</time>
      </trkpt>
      <trkpt lat="48.69945" lon="6.12128">
        <ele>344.2</ele>
        <time>2020-06-29T14:41:58Z</time>
      </trkpt>
      <trkpt lat="48.69941" lon="6.1212">
        <ele>344</ele>
        <time>2020-06-29T14:41:59Z</time>
      </trkpt>
      <trkpt lat="48.69937" lon="6.12113">
        <ele>343.7</ele>
        <time>2020-06-29T14:42:00Z</time>
      </trkpt>
      <trkpt lat="48.69934" lon="6.12107">
        <ele>343.5</ele>
        <time>2020-06-29T14:42:01Z</time>
      </trkpt>
      <trkpt lat="48.6993" lon="6.121">
        <ele>343.3</ele>
        <time>2020-06-29T14:42:02Z</time>
      </trkpt>
      <trkpt lat="48.69926" lon="6.12093">
        <ele>343</ele>
        <time>2020-06-29T14:42:03Z</time>
      </trkpt>
      <trkpt lat="48.69922" lon="6.12085">
        <ele>342.8</ele>
        <time>2020-06-29T14:42:04Z</time>
      </trkpt>
      <trkpt lat="48.69917" lon="6.12077">
        <ele>342.6</ele>
        <time>2020-06-29T14:42:05Z</time>
      </trkpt>
      <trkpt lat="48.69913" lon="6.1207">
        <ele>342.3</ele>
        <time>2020-06-29T14:42:06Z</time>
      </trkpt>
      <trkpt lat="48.69909" lon="6.12062">
        <ele>342</ele>
        <time>2020-06-29T14:42:07Z</time>
      </trkpt>
      <trkpt lat="48.69905" lon="6.12055">
        <ele>341.8</ele>
        <time>2020-06-29T14:42:08Z</time>
      </trkpt>
      <trkpt lat="48.699" lon="6.12047">
        <ele>341.5</ele>
        <time>2020-06-29T14:42:09Z</time>
      </trkpt>
      <trkpt lat="48.69896" lon="6.1204">
        <ele>341.2</ele>
        <time>2020-06-29T14:42:10Z</time>
      </trkpt>
      <trkpt lat="48.69891" lon="6.12033">
        <ele>340.9</ele>
        <time>2020-06-29T14:42:11Z</time>
      </trkpt>
      <trkpt lat="48.69887" lon="6.12026">
        <ele>340.6</ele>
        <time>2020-06-29T14:42:12Z</time>
      </trkpt>
      <trkpt lat="48.69882" lon="6.12018">
        <ele>340.4</ele>
        <time>2020-06-29T14:42:13Z</time>
      </trkpt>
      <trkpt lat="48.69877" lon="6.1201">
        <ele>340.1</ele>
        <time>2020-06-29T14:42:14Z</time>
      </trkpt>
      <trkpt lat="48.69872" lon="6.12002">
        <ele>339.8</ele>
        <time>2020-06-29T14:42:15Z</time>
      </trkpt>
      <trkpt lat="48.69867" lon="6.11995">
        <ele>339.4</ele>
        <time>2020-06-29T14:42:16Z</time>
      </trkpt>
      <trkpt lat="48.69862" lon="6.11987">
        <ele>339.1</ele>
        <time>2020-06-29T14:42:17Z</time>
      </trkpt>
      <trkpt lat="48.69858" lon="6.11979">
        <ele>338.7</ele>
        <time>2020-06-29T14:42:18Z</time>
      </trkpt>
      <trkpt lat="48.69853" lon="6.1197">
        <ele>338.3</ele>
        <time>2020-06-29T14:42:19Z</time>
      </trkpt>
      <trkpt lat="48.69848" lon="6.11962">
        <ele>338</ele>
        <time>2020-06-29T14:42:20Z</time>
      </trkpt>
      <trkpt lat="48.69843" lon="6.11954">
        <ele>337.6</ele>
        <time>2020-06-29T14:42:21Z</time>
      </trkpt>
      <trkpt lat="48.69839" lon="6.11945">
        <ele>337.2</ele>
        <time>2020-06-29T14:42:22Z</time>
      </trkpt>
      <trkpt lat="48.69834" lon="6.11937">
        <ele>336.8</ele>
        <time>2020-06-29T14:42:23Z</time>
      </trkpt>
      <trkpt lat="48.6983" lon="6.11928">
        <ele>336.4</ele>
        <time>2020-06-29T14:42:24Z</time>
      </trkpt>
      <trkpt lat="48.69825" lon="6.1192">
        <ele>336</ele>
        <time>2020-06-29T14:42:25Z</time>
      </trkpt>
      <trkpt lat="48.6982" lon="6.11911">
        <ele>335.5</ele>
        <time>2020-06-29T14:42:26Z</time>
      </trkpt>
      <trkpt lat="48.69816" lon="6.11902">
        <ele>335.1</ele>
        <time>2020-06-29T14:42:27Z</time>
      </trkpt>
      <trkpt lat="48.69811" lon="6.11893">
        <ele>334.7</ele>
        <time>2020-06-29T14:42:28Z</time>
      </trkpt>
      <trkpt lat="48.69805" lon="6.11885">
        <ele>334.2</ele>
        <time>2020-06-29T14:42:29Z</time>
      </trkpt>
      <trkpt lat="48.698" lon="6.11877">
        <ele>333.8</ele>
        <time>2020-06-29T14:42:30Z</time>
      </trkpt>
      <trkpt lat="48.69795" lon="6.11868">
        <ele>333.4</ele>
        <time>2020-06-29T14:42:31Z</time>
      </trkpt>
      <trkpt lat="48.6979" lon="6.11858">
        <ele>332.9</ele>
        <time>2020-06-29T14:42:32Z</time>
      </trkpt>
      <trkpt lat="48.69786" lon="6.11848">
        <ele>332.4</ele>
        <time>2020-06-29T14:42:33Z</time>
      </trkpt>
      <trkpt lat="48.69782" lon="6.11839">
        <ele>332</ele>
        <time>2020-06-29T14:42:34Z</time>
      </trkpt>
      <trkpt lat="48.69777" lon="6.11829">
        <ele>331.5</ele>
        <time>2020-06-29T14:42:35Z</time>
      </trkpt>
      <trkpt lat="48.69773" lon="6.11819">
        <ele>331.1</ele>
        <time>2020-06-29T14:42:36Z</time>
      </trkpt>
      <trkpt lat="48.69768" lon="6.11809">
        <ele>330.7</ele>
        <time>2020-06-29T14:42:37Z</time>
      </trkpt>
      <trkpt lat="48.69764" lon="6.11799">
        <ele>330.2</ele>
        <time>2020-06-29T14:42:38Z</time>
      </trkpt>
      <trkpt lat="48.69759" lon="6.11789">
        <ele>329.8</ele>
        <time>2020-06-29T14:42:39Z</time>
      </trkpt>
      <trkpt lat="48.69754" lon="6.11779">
        <ele>329.3</ele>
        <time>2020-06-29T14:42:40Z</time>
      </trkpt>
      <trkpt lat="48.6975" lon="6.11769">
        <ele>328.8</ele>
        <time>2020-06-29T14:42:41Z</time>
      </trkpt>
      <trkpt lat="48.69746" lon="6.11759">
        <ele>328.4</ele>
        <time>2020-06-29T14:42:42Z</time>
      </trkpt>
      <trkpt lat="48.69741" lon="6.11749">
        <ele>327.9</ele>
        <time>2020-06-29T14:42:43Z</time>
      </trkpt>
      <trkpt lat="48.69737" lon="6.11739">
        <ele>327.5</ele>
        <time>2020-06-29T14:42:44Z</time>
      </trkpt>
      <trkpt lat="48.69733" lon="6.11728">
        <ele>327</ele>
        <time>2020-06-29T14:42:45Z</time>
      </trkpt>
      <trkpt lat="48.69728" lon="6.11718">
        <ele>326.5</ele>
        <time>2020-06-29T14:42:46Z</time>
      </trkpt>
      <trkpt lat="48.69723" lon="6.11707">
        <ele>326</ele>
        <time>2020-06-29T14:42:47Z</time>
      </trkpt>
      <trkpt lat="48.69718" lon="6.11697">
        <ele>325.7</ele>
        <time>2020-06-29T14:42:48Z</time>
      </trkpt>
      <trkpt lat="48.69713" lon="6.11686">
        <ele>325.4</ele>
        <time>2020-06-29T14:42:49Z</time>
      </trkpt>
      <trkpt lat="48.69709" lon="6.11675">
        <ele>324.9</ele>
        <time>2020-06-29T14:42:50Z</time>
      </trkpt>
      <trkpt lat="48.69704" lon="6.11664">
        <ele>324.4</ele>
        <time>2020-06-29T14:42:51Z</time>
      </trkpt>
      <trkpt lat="48.697" lon="6.11652">
        <ele>324</ele>
        <time>2020-06-29T14:42:52Z</time>
      </trkpt>
      <trkpt lat="48.69696" lon="6.11641">
        <ele>323.5</ele>
        <time>2020-06-29T14:42:53Z</time>
      </trkpt>
      <trkpt lat="48.69692" lon="6.1163">
        <ele>323.1</ele>
        <time>2020-06-29T14:42:54Z</time>
      </trkpt>
      <trkpt lat="48.69688" lon="6.11618">
        <ele>322.8</ele>
        <time>2020-06-29T14:42:55Z</time>
      </trkpt>
      <trkpt lat="48.69684" lon="6.11607">
        <ele>322.4</ele>
        <time>2020-06-29T14:42:56Z</time>
      </trkpt>
      <trkpt lat="48.6968" lon="6.11596">
        <ele>322.1</ele>
        <time>2020-06-29T14:42:57Z</time>
      </trkpt>
      <trkpt lat="48.69676" lon="6.11585">
        <ele>321.8</ele>
        <time>2020-06-29T14:42:58Z</time>
      </trkpt>
      <trkpt lat="48.69672" lon="6.11574">
        <ele>321.5</ele>
        <time>2020-06-29T14:42:59Z</time>
      </trkpt>
      <trkpt lat="48.69669" lon="6.11563">
        <ele>321.2</ele>
        <time>2020-06-29T14:43:00Z</time>
      </trkpt>
      <trkpt lat="48.69665" lon="6.11553">
        <ele>320.9</ele>
        <time>2020-06-29T14:43:01Z</time>
      </trkpt>
      <trkpt lat="48.69662" lon="6.11542">
        <ele>320.6</ele>
        <time>2020-06-29T14:43:02Z</time>
      </trkpt>
      <trkpt lat="48.69658" lon="6.11532">
        <ele>320.3</ele>
        <time>2020-06-29T14:43:03Z</time>
      </trkpt>
      <trkpt lat="48.69655" lon="6.11521">
        <ele>320</ele>
        <time>2020-06-29T14:43:04Z</time>
      </trkpt>
      <trkpt lat="48.69651" lon="6.11511">
        <ele>319.8</ele>
        <time>2020-06-29T14:43:05Z</time>
      </trkpt>
      <trkpt lat="48.69648" lon="6.11501">
        <ele>319.6</ele>
        <time>2020-06-29T14:43:06Z</time>
      </trkpt>
      <trkpt lat="48.69644" lon="6.11491">
        <ele>319.4</ele>
        <time>2020-06-29T14:43:07Z</time>
      </trkpt>
      <trkpt lat="48.6964" lon="6.11481">
        <ele>319.1</ele>
        <time>2020-06-29T14:43:08Z</time>
      </trkpt>
      <trkpt lat="48.69637" lon="6.1147">
        <ele>318.9</ele>
        <time>2020-06-29T14:43:09Z</time>
      </trkpt>
      <trkpt lat="48.69634" lon="6.11459">
        <ele>318.6</ele>
        <time>2020-06-29T14:43:10Z</time>
      </trkpt>
      <trkpt lat="48.6963" lon="6.11449">
        <ele>318.4</ele>
        <time>2020-06-29T14:43:11Z</time>
      </trkpt>
      <trkpt lat="48.69627" lon="6.11439">
        <ele>318.2</ele>
        <time>2020-06-29T14:43:12Z</time>
      </trkpt>
      <trkpt lat="48.69623" lon="6.11429">
        <ele>318</ele>
        <time>2020-06-29T14:43:13Z</time>
      </trkpt>
      <trkpt lat="48.6962" lon="6.11419">
        <ele>317.8</ele>
        <time>2020-06-29T14:43:14Z</time>
      </trkpt>
      <trkpt lat="48.69616" lon="6.11409">
        <ele>317.6</ele>
        <time>2020-06-29T14:43:15Z</time>
      </trkpt>
      <trkpt lat="48.69612" lon="6.114">
        <ele>317.4</ele>
        <time>2020-06-29T14:43:16Z</time>
      </trkpt>
      <trkpt lat="48.69609" lon="6.11391">
        <ele>317.2</ele>
        <time>2020-06-29T14:43:17Z</time>
      </trkpt>
      <trkpt lat="48.69605" lon="6.11381">
        <ele>317</ele>
        <time>2020-06-29T14:43:18Z</time>
      </trkpt>
      <trkpt lat="48.69601" lon="6.11371">
        <ele>316.7</ele>
        <time>2020-06-29T14:43:19Z</time>
      </trkpt>
      <trkpt lat="48.69598" lon="6.1136">
        <ele>316.5</ele>
        <time>2020-06-29T14:43:20Z</time>
      </trkpt>
      <trkpt lat="48.69594" lon="6.1135">
        <ele>316.3</ele>
        <time>2020-06-29T14:43:21Z</time>
      </trkpt>
      <trkpt lat="48.6959" lon="6.1134">
        <ele>316.1</ele>
        <time>2020-06-29T14:43:22Z</time>
      </trkpt>
      <trkpt lat="48.69587" lon="6.11329">
        <ele>315.9</ele>
        <time>2020-06-29T14:43:23Z</time>
      </trkpt>
      <trkpt lat="48.69584" lon="6.11319">
        <ele>315.7</ele>
        <time>2020-06-29T14:43:24Z</time>
      </trkpt>
      <trkpt lat="48.6958" lon="6.11309">
        <ele>315.5</ele>
        <time>2020-06-29T14:43:25Z</time>
      </trkpt>
      <trkpt lat="48.69577" lon="6.11298">
        <ele>315.2</ele>
        <time>2020-06-29T14:43:26Z</time>
      </trkpt>
      <trkpt lat="48.69573" lon="6.11288">
        <ele>315</ele>
        <time>2020-06-29T14:43:27Z</time>
      </trkpt>
      <trkpt lat="48.6957" lon="6.11278">
        <ele>314.8</ele>
        <time>2020-06-29T14:43:28Z</time>
      </trkpt>
      <trkpt lat="48.69566" lon="6.11267">
        <ele>314.6</ele>
        <time>2020-06-29T14:43:29Z</time>
      </trkpt>
      <trkpt lat="48.69563" lon="6.11257">
        <ele>314.4</ele>
        <time>2020-06-29T14:43:30Z</time>
      </trkpt>
      <trkpt lat="48.6956" lon="6.11247">
        <ele>314.2</ele>
        <time>2020-06-29T14:43:31Z</time>
      </trkpt>
      <trkpt lat="48.69557" lon="6.11236">
        <ele>314</ele>
        <time>2020-06-29T14:43:32Z</time>
      </trkpt>
      <trkpt lat="48.69554" lon="6.11225">
        <ele>313.8</ele>
        <time>2020-06-29T14:43:33Z</time>
      </trkpt>
      <trkpt lat="48.69551" lon="6.11214">
        <ele>313.6</ele>
        <time>2020-06-29T14:43:34Z</time>
      </trkpt>
      <trkpt lat="48.69548" lon="6.11204">
        <ele>313.3</ele>
        <time>2020-06-29T14:43:35Z</time>
      </trkpt>
      <trkpt lat="48.69545" lon="6.11193">
        <ele>313.1</ele>
        <time>2020-06-29T14:43:36Z</time>
      </trkpt>
      <trkpt lat="48.69542" lon="6.11182">
        <ele>312.8</ele>
        <time>2020-06-29T14:43:37Z</time>
      </trkpt>
      <trkpt lat="48.69539" lon="6.11171">
        <ele>312.6</ele>
        <time>2020-06-29T14:43:38Z</time>
      </trkpt>
      <trkpt lat="48.69536" lon="6.1116">
        <ele>312.4</ele>
        <time>2020-06-29T14:43:39Z</time>
      </trkpt>
      <trkpt lat="48.69534" lon="6.11149">
        <ele>312.1</ele>
        <time>2020-06-29T14:43:40Z</time>
      </trkpt>
      <trkpt lat="48.69531" lon="6.11138">
        <ele>311.9</ele>
        <time>2020-06-29T14:43:41Z</time>
      </trkpt>
      <trkpt lat="48.69528" lon="6.11127">
        <ele>311.6</ele>
        <time>2020-06-29T14:43:42Z</time>
      </trkpt>
      <trkpt lat="48.69525" lon="6.11116">
        <ele>311.4</ele>
        <time>2020-06-29T14:43:43Z</time>
      </trkpt>
      <trkpt lat="48.69523" lon="6.11104">
        <ele>311</ele>
        <time>2020-06-29T14:43:44Z</time>
      </trkpt>
      <trkpt lat="48.69521" lon="6.11091">
        <ele>310.7</ele>
        <time>2020-06-29T14:43:45Z</time>
      </trkpt>
      <trkpt lat="48.69518" lon="6.11078">
        <ele>310.4</ele>
        <time>2020-06-29T14:43:46Z</time>
      </trkpt>
      <trkpt lat="48.69516" lon="6.11064">
        <ele>310</ele>
        <time>2020-06-29T14:43:47Z</time>
      </trkpt>
      <trkpt lat="48.69513" lon="6.1105">
        <ele>309.6</ele>
        <time>2020-06-29T14:43:48Z</time>
      </trkpt>
      <trkpt lat="48.6951" lon="6.11035">
        <ele>309.2</ele>
        <time>2020-06-29T14:43:49Z</time>
      </trkpt>
      <trkpt lat="48.69508" lon="6.11021">
        <ele>308.8</ele>
        <time>2020-06-29T14:43:50Z</time>
      </trkpt>
      <trkpt lat="48.69505" lon="6.11006">
        <ele>308.4</ele>
        <time>2020-06-29T14:43:51Z</time>
      </trkpt>
      <trkpt lat="48.69502" lon="6.10991">
        <ele>307.9</ele>
        <time>2020-06-29T14:43:52Z</time>
      </trkpt>
      <trkpt lat="48.695" lon="6.10975">
        <ele>307.5</ele>
        <time>2020-06-29T14:43:53Z</time>
      </trkpt>
      <trkpt lat="48.69498" lon="6.1096">
        <ele>307.1</ele>
        <time>2020-06-29T14:43:54Z</time>
      </trkpt>
      <trkpt lat="48.69496" lon="6.10945">
        <ele>306.8</ele>
        <time>2020-06-29T14:43:55Z</time>
      </trkpt>
      <trkpt lat="48.69495" lon="6.1093">
        <ele>306.4</ele>
        <time>2020-06-29T14:43:56Z</time>
      </trkpt>
      <trkpt lat="48.69492" lon="6.10915">
        <ele>306</ele>
        <time>2020-06-29T14:43:57Z</time>
      </trkpt>
      <trkpt lat="48.69491" lon="6.10899">
        <ele>305.6</ele>
        <time>2020-06-29T14:43:58Z</time>
      </trkpt>
      <trkpt lat="48.69491" lon="6.10884">
        <ele>305.1</ele>
        <time>2020-06-29T14:43:59Z</time>
      </trkpt>
      <trkpt lat="48.6949" lon="6.1087">
        <ele>304.7</ele>
        <time>2020-06-29T14:44:00Z</time>
      </trkpt>
      <trkpt lat="48.6949" lon="6.10855">
        <ele>304.3</ele>
        <time>2020-06-29T14:44:01Z</time>
      </trkpt>
      <trkpt lat="48.69489" lon="6.1084">
        <ele>303.8</ele>
        <time>2020-06-29T14:44:02Z</time>
      </trkpt>
      <trkpt lat="48.69488" lon="6.10825">
        <ele>303.4</ele>
        <time>2020-06-29T14:44:03Z</time>
      </trkpt>
      <trkpt lat="48.69486" lon="6.10811">
        <ele>303</ele>
        <time>2020-06-29T14:44:04Z</time>
      </trkpt>
      <trkpt lat="48.69485" lon="6.10796">
        <ele>302.6</ele>
        <time>2020-06-29T14:44:05Z</time>
      </trkpt>
      <trkpt lat="48.69484" lon="6.10782">
        <ele>302.3</ele>
        <time>2020-06-29T14:44:06Z</time>
      </trkpt>
      <trkpt lat="48.69482" lon="6.10768">
        <ele>302</ele>
        <time>2020-06-29T14:44:07Z</time>
      </trkpt>
      <trkpt lat="48.69482" lon="6.10755">
        <ele>301.7</ele>
        <time>2020-06-29T14:44:08Z</time>
      </trkpt>
      <trkpt lat="48.69481" lon="6.10742">
        <ele>301.5</ele>
        <time>2020-06-29T14:44:09Z</time>
      </trkpt>
      <trkpt lat="48.69481" lon="6.10729">
        <ele>301.2</ele>
        <time>2020-06-29T14:44:10Z</time>
      </trkpt>
      <trkpt lat="48.69481" lon="6.10717">
        <ele>301</ele>
        <time>2020-06-29T14:44:11Z</time>
      </trkpt>
      <trkpt lat="48.6948" lon="6.10705">
        <ele>300.8</ele>
        <time>2020-06-29T14:44:12Z</time>
      </trkpt>
      <trkpt lat="48.69479" lon="6.10693">
        <ele>300.6</ele>
        <time>2020-06-29T14:44:13Z</time>
      </trkpt>
      <trkpt lat="48.69479" lon="6.10681">
        <ele>300.5</ele>
        <time>2020-06-29T14:44:14Z</time>
      </trkpt>
      <trkpt lat="48.69478" lon="6.1067">
        <ele>300.3</ele>
        <time>2020-06-29T14:44:15Z</time>
      </trkpt>
      <trkpt lat="48.69478" lon="6.10659">
        <ele>300.2</ele>
        <time>2020-06-29T14:44:16Z</time>
      </trkpt>
      <trkpt lat="48.69477" lon="6.10647">
        <ele>300.1</ele>
        <time>2020-06-29T14:44:17Z</time>
      </trkpt>
      <trkpt lat="48.69477" lon="6.10636">
        <ele>299.9</ele>
        <time>2020-06-29T14:44:18Z</time>
      </trkpt>
      <trkpt lat="48.69477" lon="6.10625">
        <ele>299.8</ele>
        <time>2020-06-29T14:44:19Z</time>
      </trkpt>
      <trkpt lat="48.69476" lon="6.10613">
        <ele>299.7</ele>
        <time>2020-06-29T14:44:20Z</time>
      </trkpt>
      <trkpt lat="48.69476" lon="6.10602">
        <ele>299.7</ele>
        <time>2020-06-29T14:44:21Z</time>
      </trkpt>
      <trkpt lat="48.69475" lon="6.10591">
        <ele>299.6</ele>
        <time>2020-06-29T14:44:22Z</time>
      </trkpt>
      <trkpt lat="48.69474" lon="6.10579">
        <ele>299.6</ele>
        <time>2020-06-29T14:44:23Z</time>
      </trkpt>
      <trkpt lat="48.69474" lon="6.10568">
        <ele>299.5</ele>
        <time>2020-06-29T14:44:24Z</time>
      </trkpt>
      <trkpt lat="48.69474" lon="6.10556">
        <ele>299.5</ele>
        <time>2020-06-29T14:44:25Z</time>
      </trkpt>
      <trkpt lat="48.69473" lon="6.10545">
        <ele>299.5</ele>
        <time>2020-06-29T14:44:26Z</time>
      </trkpt>
      <trkpt lat="48.69473" lon="6.10534">
        <ele>299.5</ele>
        <time>2020-06-29T14:44:27Z</time>
      </trkpt>
      <trkpt lat="48.69472" lon="6.10523">
        <ele>299.5</ele>
        <time>2020-06-29T14:44:28Z</time>
      </trkpt>
      <trkpt lat="48.69472" lon="6.10512">
        <ele>299.5</ele>
        <time>2020-06-29T14:44:29Z</time>
      </trkpt>
      <trkpt lat="48.69472" lon="6.10502">
        <ele>299.5</ele>
        <time>2020-06-29T14:44:30Z</time>
      </trkpt>
      <trkpt lat="48.69473" lon="6.10492">
        <ele>299.6</ele>
        <time>2020-06-29T14:44:31Z</time>
      </trkpt>
      <trkpt lat="48.69474" lon="6.10483">
        <ele>299.7</ele>
        <time>2020-06-29T14:44:32Z</time>
      </trkpt>
      <trkpt lat="48.69476" lon="6.10473">
        <ele>299.8</ele>
        <time>2020-06-29T14:44:33Z</time>
      </trkpt>
      <trkpt lat="48.69478" lon="6.10465">
        <ele>299.9</ele>
        <time>2020-06-29T14:44:34Z</time>
      </trkpt>
      <trkpt lat="48.69481" lon="6.10457">
        <ele>300</ele>
        <time>2020-06-29T14:44:35Z</time>
      </trkpt>
      <trkpt lat="48.69484" lon="6.1045">
        <ele>300.1</ele>
        <time>2020-06-29T14:44:36Z</time>
      </trkpt>
      <trkpt lat="48.69486" lon="6.10443">
        <ele>300.1</ele>
        <time>2020-06-29T14:44:37Z</time>
      </trkpt>
      <trkpt lat="48.69489" lon="6.10438">
        <ele>300.2</ele>
        <time>2020-06-29T14:44:38Z</time>
      </trkpt>
      <trkpt lat="48.69491" lon="6.10432">
        <ele>300.3</ele>
        <time>2020-06-29T14:44:39Z</time>
      </trkpt>
      <trkpt lat="48.69494" lon="6.10428">
        <ele>300.3</ele>
        <time>2020-06-29T14:44:40Z</time>
      </trkpt>
      <trkpt lat="48.69498" lon="6.10427">
        <ele>300.4</ele>
        <time>2020-06-29T14:44:41Z</time>
      </trkpt>
      <trkpt lat="48.695" lon="6.10425">
        <ele>300.5</ele>
        <time>2020-06-29T14:44:42Z</time>
      </trkpt>
      <trkpt lat="48.69504" lon="6.10423">
        <ele>300.5</ele>
        <time>2020-06-29T14:44:43Z</time>
      </trkpt>
      <trkpt lat="48.69505" lon="6.10422">
        <ele>300.5</ele>
        <time>2020-06-29T14:44:44Z</time>
      </trkpt>
      <trkpt lat="48.69508" lon="6.10419">
        <ele>300.6</ele>
        <time>2020-06-29T14:44:45Z</time>
      </trkpt>
      <trkpt lat="48.69509" lon="6.10419">
        <ele>300.7</ele>
        <time>2020-06-29T14:44:46Z</time>
      </trkpt>
      <trkpt lat="48.69513" lon="6.10419">
        <ele>300.7</ele>
        <time>2020-06-29T14:44:47Z</time>
      </trkpt>
      <trkpt lat="48.69514" lon="6.10419">
        <ele>300.8</ele>
        <time>2020-06-29T14:44:48Z</time>
      </trkpt>
      <trkpt lat="48.69517" lon="6.10419">
        <ele>300.9</ele>
        <time>2020-06-29T14:44:49Z</time>
      </trkpt>
      <trkpt lat="48.69521" lon="6.10417">
        <ele>300.9</ele>
        <time>2020-06-29T14:44:50Z</time>
      </trkpt>
      <trkpt lat="48.69524" lon="6.10415">
        <ele>301</ele>
        <time>2020-06-29T14:44:51Z</time>
      </trkpt>
      <trkpt lat="48.69527" lon="6.10411">
        <ele>301</ele>
        <time>2020-06-29T14:44:52Z</time>
      </trkpt>
      <trkpt lat="48.69529" lon="6.10406">
        <ele>301.1</ele>
        <time>2020-06-29T14:44:53Z</time>
      </trkpt>
      <trkpt lat="48.6953" lon="6.10401">
        <ele>301.2</ele>
        <time>2020-06-29T14:44:54Z</time>
      </trkpt>
      <trkpt lat="48.69531" lon="6.10395">
        <ele>301.2</ele>
        <time>2020-06-29T14:44:55Z</time>
      </trkpt>
      <trkpt lat="48.69531" lon="6.1039">
        <ele>301.3</ele>
        <time>2020-06-29T14:44:56Z</time>
      </trkpt>
      <trkpt lat="48.69532" lon="6.10384">
        <ele>301.4</ele>
        <time>2020-06-29T14:44:57Z</time>
      </trkpt>
      <trkpt lat="48.69532" lon="6.10378">
        <ele>301.7</ele>
        <time>2020-06-29T14:44:58Z</time>
      </trkpt>
      <trkpt lat="48.69532" lon="6.10372">
        <ele>301.6</ele>
        <time>2020-06-29T14:44:59Z</time>
      </trkpt>
      <trkpt lat="48.69533" lon="6.10367">
        <ele>301.6</ele>
        <time>2020-06-29T14:45:00Z</time>
      </trkpt>
      <trkpt lat="48.69533" lon="6.10361">
        <ele>301.4</ele>
        <time>2020-06-29T14:45:01Z</time>
      </trkpt>
      <trkpt lat="48.69534" lon="6.10354">
        <ele>301.3</ele>
        <time>2020-06-29T14:45:02Z</time>
      </trkpt>
      <trkpt lat="48.69535" lon="6.10348">
        <ele>301.2</ele>
        <time>2020-06-29T14:45:03Z</time>
      </trkpt>
      <trkpt lat="48.69537" lon="6.10341">
        <ele>300.9</ele>
        <time>2020-06-29T14:45:04Z</time>
      </trkpt>
      <trkpt lat="48.6954" lon="6.10333">
        <ele>300.7</ele>
        <time>2020-06-29T14:45:05Z</time>
      </trkpt>
      <trkpt lat="48.69541" lon="6.10326">
        <ele>300.5</ele>
        <time>2020-06-29T14:45:06Z</time>
      </trkpt>
      <trkpt lat="48.69543" lon="6.10318">
        <ele>300.4</ele>
        <time>2020-06-29T14:45:07Z</time>
      </trkpt>
      <trkpt lat="48.69544" lon="6.10311">
        <ele>300.4</ele>
        <time>2020-06-29T14:45:08Z</time>
      </trkpt>
      <trkpt lat="48.69544" lon="6.10302">
        <ele>300.3</ele>
        <time>2020-06-29T14:45:09Z</time>
      </trkpt>
      <trkpt lat="48.69545" lon="6.10294">
        <ele>300.2</ele>
        <time>2020-06-29T14:45:10Z</time>
      </trkpt>
      <trkpt lat="48.69544" lon="6.10285">
        <ele>300.1</ele>
        <time>2020-06-29T14:45:11Z</time>
      </trkpt>
      <trkpt lat="48.69545" lon="6.10277">
        <ele>300</ele>
        <time>2020-06-29T14:45:12Z</time>
      </trkpt>
      <trkpt lat="48.69545" lon="6.10268">
        <ele>300</ele>
        <time>2020-06-29T14:45:13Z</time>
      </trkpt>
      <trkpt lat="48.69545" lon="6.1026">
        <ele>299.9</ele>
        <time>2020-06-29T14:45:14Z</time>
      </trkpt>
      <trkpt lat="48.69545" lon="6.10251">
        <ele>299.9</ele>
        <time>2020-06-29T14:45:15Z</time>
      </trkpt>
      <trkpt lat="48.69544" lon="6.10242">
        <ele>299.9</ele>
        <time>2020-06-29T14:45:16Z</time>
      </trkpt>
      <trkpt lat="48.69544" lon="6.10234">
        <ele>300</ele>
        <time>2020-06-29T14:45:17Z</time>
      </trkpt>
      <trkpt lat="48.69543" lon="6.10226">
        <ele>300</ele>
        <time>2020-06-29T14:45:18Z</time>
      </trkpt>
      <trkpt lat="48.69542" lon="6.10218">
        <ele>300</ele>
        <time>2020-06-29T14:45:19Z</time>
      </trkpt>
      <trkpt lat="48.6954" lon="6.1021">
        <ele>300</ele>
        <time>2020-06-29T14:45:20Z</time>
      </trkpt>
      <trkpt lat="48.69539" lon="6.10201">
        <ele>300.1</ele>
        <time>2020-06-29T14:45:21Z</time>
      </trkpt>
      <trkpt lat="48.69537" lon="6.10193">
        <ele>300.1</ele>
        <time>2020-06-29T14:45:22Z</time>
      </trkpt>
      <trkpt lat="48.69536" lon="6.10185">
        <ele>300.1</ele>
        <time>2020-06-29T14:45:23Z</time>
      </trkpt>
      <trkpt lat="48.69534" lon="6.10177">
        <ele>300.2</ele>
        <time>2020-06-29T14:45:24Z</time>
      </trkpt>
      <trkpt lat="48.69533" lon="6.10169">
        <ele>300.2</ele>
        <time>2020-06-29T14:45:25Z</time>
      </trkpt>
      <trkpt lat="48.69531" lon="6.10161">
        <ele>300.3</ele>
        <time>2020-06-29T14:45:26Z</time>
      </trkpt>
      <trkpt lat="48.6953" lon="6.10153">
        <ele>300.3</ele>
        <time>2020-06-29T14:45:27Z</time>
      </trkpt>
      <trkpt lat="48.69529" lon="6.10144">
        <ele>300.3</ele>
        <time>2020-06-29T14:45:28Z</time>
      </trkpt>
      <trkpt lat="48.69527" lon="6.10136">
        <ele>300.4</ele>
        <time>2020-06-29T14:45:29Z</time>
      </trkpt>
      <trkpt lat="48.69526" lon="6.10129">
        <ele>300.4</ele>
        <time>2020-06-29T14:45:30Z</time>
      </trkpt>
      <trkpt lat="48.69525" lon="6.10121">
        <ele>300.4</ele>
        <time>2020-06-29T14:45:31Z</time>
      </trkpt>
      <trkpt lat="48.69524" lon="6.10114">
        <ele>300.4</ele>
        <time>2020-06-29T14:45:32Z</time>
      </trkpt>
      <trkpt lat="48.69523" lon="6.10106">
        <ele>300.4</ele>
        <time>2020-06-29T14:45:33Z</time>
      </trkpt>
      <trkpt lat="48.69522" lon="6.10099">
        <ele>300.3</ele>
        <time>2020-06-29T14:45:34Z</time>
      </trkpt>
      <trkpt lat="48.69521" lon="6.10091">
        <ele>300.3</ele>
        <time>2020-06-29T14:45:35Z</time>
      </trkpt>
      <trkpt lat="48.6952" lon="6.10084">
        <ele>300.3</ele>
        <time>2020-06-29T14:45:36Z</time>
      </trkpt>
      <trkpt lat="48.69518" lon="6.10076">
        <ele>300.2</ele>
        <time>2020-06-29T14:45:37Z</time>
      </trkpt>
      <trkpt lat="48.69519" lon="6.10068">
        <ele>300.2</ele>
        <time>2020-06-29T14:45:38Z</time>
      </trkpt>
      <trkpt lat="48.69519" lon="6.1006">
        <ele>300.1</ele>
        <time>2020-06-29T14:45:39Z</time>
      </trkpt>
      <trkpt lat="48.69516" lon="6.10051">
        <ele>300</ele>
        <time>2020-06-29T14:45:40Z</time>
      </trkpt>
      <trkpt lat="48.69515" lon="6.10042">
        <ele>300</ele>
        <time>2020-06-29T14:45:41Z</time>
      </trkpt>
      <trkpt lat="48.69515" lon="6.10033">
        <ele>299.9</ele>
        <time>2020-06-29T14:45:42Z</time>
      </trkpt>
      <trkpt lat="48.69516" lon="6.10025">
        <ele>299.8</ele>
        <time>2020-06-29T14:45:43Z</time>
      </trkpt>
      <trkpt lat="48.69516" lon="6.10016">
        <ele>299.8</ele>
        <time>2020-06-29T14:45:44Z</time>
      </trkpt>
      <trkpt lat="48.69516" lon="6.10007">
        <ele>299.7</ele>
        <time>2020-06-29T14:45:45Z</time>
      </trkpt>
      <trkpt lat="48.69517" lon="6.09998">
        <ele>299.6</ele>
        <time>2020-06-29T14:45:46Z</time>
      </trkpt>
      <trkpt lat="48.69516" lon="6.09989">
        <ele>299.4</ele>
        <time>2020-06-29T14:45:47Z</time>
      </trkpt>
      <trkpt lat="48.69516" lon="6.0998">
        <ele>299.3</ele>
        <time>2020-06-29T14:45:48Z</time>
      </trkpt>
      <trkpt lat="48.69516" lon="6.09971">
        <ele>299.2</ele>
        <time>2020-06-29T14:45:49Z</time>
      </trkpt>
      <trkpt lat="48.69516" lon="6.09961">
        <ele>299</ele>
        <time>2020-06-29T14:45:50Z</time>
      </trkpt>
      <trkpt lat="48.69517" lon="6.09951">
        <ele>298.9</ele>
        <time>2020-06-29T14:45:51Z</time>
      </trkpt>
      <trkpt lat="48.69517" lon="6.09942">
        <ele>298.9</ele>
        <time>2020-06-29T14:45:52Z</time>
      </trkpt>
      <trkpt lat="48.69516" lon="6.09932">
        <ele>298.8</ele>
        <time>2020-06-29T14:45:53Z</time>
      </trkpt>
      <trkpt lat="48.69516" lon="6.09922">
        <ele>298.7</ele>
        <time>2020-06-29T14:45:54Z</time>
      </trkpt>
      <trkpt lat="48.69516" lon="6.09912">
        <ele>298.6</ele>
        <time>2020-06-29T14:45:55Z</time>
      </trkpt>
      <trkpt lat="48.69515" lon="6.09903">
        <ele>298.6</ele>
        <time>2020-06-29T14:45:56Z</time>
      </trkpt>
      <trkpt lat="48.69514" lon="6.09893">
        <ele>298.6</ele>
        <time>2020-06-29T14:45:57Z</time>
      </trkpt>
      <trkpt lat="48.69514" lon="6.09884">
        <ele>298.6</ele>
        <time>2020-06-29T14:45:58Z</time>
      </trkpt>
      <trkpt lat="48.69513" lon="6.09875">
        <ele>298.6</ele>
        <time>2020-06-29T14:45:59Z</time>
      </trkpt>
      <trkpt lat="48.69513" lon="6.09866">
        <ele>298.6</ele>
        <time>2020-06-29T14:46:00Z</time>
      </trkpt>
      <trkpt lat="48.69512" lon="6.09858">
        <ele>298.6</ele>
        <time>2020-06-29T14:46:01Z</time>
      </trkpt>
      <trkpt lat="48.69512" lon="6.0985">
        <ele>298.6</ele>
        <time>2020-06-29T14:46:02Z</time>
      </trkpt>
      <trkpt lat="48.69511" lon="6.09842">
        <ele>298.7</ele>
        <time>2020-06-29T14:46:03Z</time>
      </trkpt>
      <trkpt lat="48.6951" lon="6.09834">
        <ele>298.7</ele>
        <time>2020-06-29T14:46:04Z</time>
      </trkpt>
      <trkpt lat="48.69508" lon="6.09827">
        <ele>298.8</ele>
        <time>2020-06-29T14:46:05Z</time>
      </trkpt>
      <trkpt lat="48.69507" lon="6.0982">
        <ele>298.9</ele>
        <time>2020-06-29T14:46:06Z</time>
      </trkpt>
      <trkpt lat="48.69506" lon="6.09813">
        <ele>299.1</ele>
        <time>2020-06-29T14:46:07Z</time>
      </trkpt>
      <trkpt lat="48.69506" lon="6.09806">
        <ele>299.2</ele>
        <time>2020-06-29T14:46:08Z</time>
      </trkpt>
      <trkpt lat="48.69504" lon="6.098">
        <ele>299.3</ele>
        <time>2020-06-29T14:46:09Z</time>
      </trkpt>
      <trkpt lat="48.69503" lon="6.09793">
        <ele>299.4</ele>
        <time>2020-06-29T14:46:10Z</time>
      </trkpt>
      <trkpt lat="48.69502" lon="6.09786">
        <ele>299.4</ele>
        <time>2020-06-29T14:46:11Z</time>
      </trkpt>
      <trkpt lat="48.69501" lon="6.0978">
        <ele>299.6</ele>
        <time>2020-06-29T14:46:12Z</time>
      </trkpt>
      <trkpt lat="48.695" lon="6.09774">
        <ele>299.7</ele>
        <time>2020-06-29T14:46:13Z</time>
      </trkpt>
      <trkpt lat="48.695" lon="6.09768">
        <ele>299.9</ele>
        <time>2020-06-29T14:46:14Z</time>
      </trkpt>
      <trkpt lat="48.695" lon="6.09762">
        <ele>300</ele>
        <time>2020-06-29T14:46:15Z</time>
      </trkpt>
      <trkpt lat="48.69498" lon="6.09756">
        <ele>300.1</ele>
        <time>2020-06-29T14:46:16Z</time>
      </trkpt>
      <trkpt lat="48.69497" lon="6.09749">
        <ele>300.3</ele>
        <time>2020-06-29T14:46:17Z</time>
      </trkpt>
      <trkpt lat="48.69497" lon="6.09743">
        <ele>300.4</ele>
        <time>2020-06-29T14:46:18Z</time>
      </trkpt>
      <trkpt lat="48.69495" lon="6.09737">
        <ele>300.5</ele>
        <time>2020-06-29T14:46:19Z</time>
      </trkpt>
      <trkpt lat="48.69495" lon="6.09731">
        <ele>300.7</ele>
        <time>2020-06-29T14:46:20Z</time>
      </trkpt>
      <trkpt lat="48.69493" lon="6.09725">
        <ele>300.9</ele>
        <time>2020-06-29T14:46:21Z</time>
      </trkpt>
      <trkpt lat="48.69491" lon="6.0972">
        <ele>301</ele>
        <time>2020-06-29T14:46:22Z</time>
      </trkpt>
      <trkpt lat="48.69489" lon="6.09714">
        <ele>301.2</ele>
        <time>2020-06-29T14:46:23Z</time>
      </trkpt>
      <trkpt lat="48.69487" lon="6.09709">
        <ele>301.4</ele>
        <time>2020-06-29T14:46:24Z</time>
      </trkpt>
      <trkpt lat="48.69486" lon="6.09703">
        <ele>301.6</ele>
        <time>2020-06-29T14:46:25Z</time>
      </trkpt>
      <trkpt lat="48.69484" lon="6.09696">
        <ele>301.9</ele>
        <time>2020-06-29T14:46:26Z</time>
      </trkpt>
      <trkpt lat="48.69482" lon="6.0969">
        <ele>302.1</ele>
        <time>2020-06-29T14:46:27Z</time>
      </trkpt>
      <trkpt lat="48.69481" lon="6.09684">
        <ele>302.3</ele>
        <time>2020-06-29T14:46:28Z</time>
      </trkpt>
      <trkpt lat="48.69479" lon="6.09678">
        <ele>302.5</ele>
        <time>2020-06-29T14:46:29Z</time>
      </trkpt>
      <trkpt lat="48.69477" lon="6.09671">
        <ele>302.8</ele>
        <time>2020-06-29T14:46:30Z</time>
      </trkpt>
      <trkpt lat="48.69474" lon="6.09663">
        <ele>303.1</ele>
        <time>2020-06-29T14:46:31Z</time>
      </trkpt>
      <trkpt lat="48.69471" lon="6.09658">
        <ele>303.3</ele>
        <time>2020-06-29T14:46:32Z</time>
      </trkpt>
      <trkpt lat="48.69469" lon="6.09653">
        <ele>303.4</ele>
        <time>2020-06-29T14:46:33Z</time>
      </trkpt>
      <trkpt lat="48.69468" lon="6.09649">
        <ele>303.6</ele>
        <time>2020-06-29T14:46:34Z</time>
      </trkpt>
      <trkpt lat="48.69466" lon="6.09644">
        <ele>303.8</ele>
        <time>2020-06-29T14:46:35Z</time>
      </trkpt>
      <trkpt lat="48.69464" lon="6.09638">
        <ele>304</ele>
        <time>2020-06-29T14:46:36Z</time>
      </trkpt>
      <trkpt lat="48.69462" lon="6.09632">
        <ele>304.1</ele>
        <time>2020-06-29T14:46:37Z</time>
      </trkpt>
      <trkpt lat="48.6946" lon="6.09625">
        <ele>304.3</ele>
        <time>2020-06-29T14:46:38Z</time>
      </trkpt>
      <trkpt lat="48.69459" lon="6.09619">
        <ele>304.5</ele>
        <time>2020-06-29T14:46:39Z</time>
      </trkpt>
      <trkpt lat="48.69458" lon="6.09614">
        <ele>304.6</ele>
        <time>2020-06-29T14:46:40Z</time>
      </trkpt>
      <trkpt lat="48.69457" lon="6.09609">
        <ele>304.8</ele>
        <time>2020-06-29T14:46:41Z</time>
      </trkpt>
      <trkpt lat="48.69455" lon="6.09604">
        <ele>304.9</ele>
        <time>2020-06-29T14:46:42Z</time>
      </trkpt>
      <trkpt lat="48.69455" lon="6.09598">
        <ele>305</ele>
        <time>2020-06-29T14:46:43Z</time>
      </trkpt>
      <trkpt lat="48.69454" lon="6.09596">
        <ele>305.1</ele>
        <time>2020-06-29T14:46:44Z</time>
      </trkpt>
      <trkpt lat="48.69453" lon="6.09589">
        <ele>305.2</ele>
        <time>2020-06-29T14:46:45Z</time>
      </trkpt>
      <trkpt lat="48.69452" lon="6.09582">
        <ele>305.4</ele>
        <time>2020-06-29T14:46:46Z</time>
      </trkpt>
      <trkpt lat="48.69451" lon="6.09574">
        <ele>305.5</ele>
        <time>2020-06-29T14:46:47Z</time>
      </trkpt>
      <trkpt lat="48.69449" lon="6.09567">
        <ele>305.6</ele>
        <time>2020-06-29T14:46:48Z</time>
      </trkpt>
      <trkpt lat="48.69448" lon="6.09558">
        <ele>305.8</ele>
        <time>2020-06-29T14:46:49Z</time>
      </trkpt>
      <trkpt lat="48.69447" lon="6.09552">
        <ele>305.8</ele>
        <time>2020-06-29T14:46:50Z</time>
      </trkpt>
      <trkpt lat="48.69446" lon="6.09545">
        <ele>305.9</ele>
        <time>2020-06-29T14:46:51Z</time>
      </trkpt>
      <trkpt lat="48.69445" lon="6.09541">
        <ele>306</ele>
        <time>2020-06-29T14:46:52Z</time>
      </trkpt>
      <trkpt lat="48.69445" lon="6.09536">
        <ele>306</ele>
        <time>2020-06-29T14:46:53Z</time>
      </trkpt>
      <trkpt lat="48.69445" lon="6.0953">
        <ele>306.1</ele>
        <time>2020-06-29T14:46:54Z</time>
      </trkpt>
      <trkpt lat="48.69445" lon="6.09523">
        <ele>306.1</ele>
        <time>2020-06-29T14:46:55Z</time>
      </trkpt>
      <trkpt lat="48.69445" lon="6.09517">
        <ele>306.2</ele>
        <time>2020-06-29T14:46:56Z</time>
      </trkpt>
      <trkpt lat="48.69444" lon="6.0951">
        <ele>306.2</ele>
        <time>2020-06-29T14:46:57Z</time>
      </trkpt>
      <trkpt lat="48.69444" lon="6.09503">
        <ele>306.3</ele>
        <time>2020-06-29T14:46:58Z</time>
      </trkpt>
      <trkpt lat="48.69443" lon="6.09495">
        <ele>306.3</ele>
        <time>2020-06-29T14:46:59Z</time>
      </trkpt>
      <trkpt lat="48.69443" lon="6.09488">
        <ele>306.3</ele>
        <time>2020-06-29T14:47:00Z</time>
      </trkpt>
      <trkpt lat="48.69442" lon="6.0948">
        <ele>306.3</ele>
        <time>2020-06-29T14:47:01Z</time>
      </trkpt>
      <trkpt lat="48.69442" lon="6.09475">
        <ele>306.3</ele>
        <time>2020-06-29T14:47:02Z</time>
      </trkpt>
      <trkpt lat="48.69441" lon="6.09467">
        <ele>306.3</ele>
        <time>2020-06-29T14:47:03Z</time>
      </trkpt>
      <trkpt lat="48.69442" lon="6.0946">
        <ele>306.3</ele>
        <time>2020-06-29T14:47:04Z</time>
      </trkpt>
      <trkpt lat="48.6944" lon="6.09453">
        <ele>306.2</ele>
        <time>2020-06-29T14:47:05Z</time>
      </trkpt>
      <trkpt lat="48.6944" lon="6.09445">
        <ele>306.2</ele>
        <time>2020-06-29T14:47:06Z</time>
      </trkpt>
      <trkpt lat="48.69441" lon="6.09437">
        <ele>306.1</ele>
        <time>2020-06-29T14:47:07Z</time>
      </trkpt>
      <trkpt lat="48.6944" lon="6.09429">
        <ele>306</ele>
        <time>2020-06-29T14:47:08Z</time>
      </trkpt>
      <trkpt lat="48.6944" lon="6.09422">
        <ele>306</ele>
        <time>2020-06-29T14:47:09Z</time>
      </trkpt>
      <trkpt lat="48.69439" lon="6.09414">
        <ele>305.9</ele>
        <time>2020-06-29T14:47:10Z</time>
      </trkpt>
      <trkpt lat="48.69439" lon="6.09404">
        <ele>305.7</ele>
        <time>2020-06-29T14:47:11Z</time>
      </trkpt>
      <trkpt lat="48.69438" lon="6.09398">
        <ele>305.6</ele>
        <time>2020-06-29T14:47:12Z</time>
      </trkpt>
      <trkpt lat="48.69439" lon="6.09388">
        <ele>305.4</ele>
        <time>2020-06-29T14:47:13Z</time>
      </trkpt>
      <trkpt lat="48.69438" lon="6.09382">
        <ele>305.3</ele>
        <time>2020-06-29T14:47:14Z</time>
      </trkpt>
      <trkpt lat="48.69438" lon="6.09375">
        <ele>305.2</ele>
        <time>2020-06-29T14:47:15Z</time>
      </trkpt>
      <trkpt lat="48.69437" lon="6.09366">
        <ele>304.9</ele>
        <time>2020-06-29T14:47:16Z</time>
      </trkpt>
      <trkpt lat="48.69437" lon="6.09357">
        <ele>304.7</ele>
        <time>2020-06-29T14:47:17Z</time>
      </trkpt>
      <trkpt lat="48.69436" lon="6.09348">
        <ele>304.5</ele>
        <time>2020-06-29T14:47:18Z</time>
      </trkpt>
      <trkpt lat="48.69436" lon="6.09339">
        <ele>304.2</ele>
        <time>2020-06-29T14:47:19Z</time>
      </trkpt>
      <trkpt lat="48.69436" lon="6.09333">
        <ele>304.1</ele>
        <time>2020-06-29T14:47:20Z</time>
      </trkpt>
      <trkpt lat="48.69436" lon="6.09323">
        <ele>303.8</ele>
        <time>2020-06-29T14:47:21Z</time>
      </trkpt>
      <trkpt lat="48.69435" lon="6.09313">
        <ele>303.4</ele>
        <time>2020-06-29T14:47:22Z</time>
      </trkpt>
      <trkpt lat="48.69434" lon="6.09302">
        <ele>303</ele>
        <time>2020-06-29T14:47:23Z</time>
      </trkpt>
      <trkpt lat="48.69433" lon="6.09289">
        <ele>302.5</ele>
        <time>2020-06-29T14:47:24Z</time>
      </trkpt>
      <trkpt lat="48.69433" lon="6.09279">
        <ele>302.1</ele>
        <time>2020-06-29T14:47:25Z</time>
      </trkpt>
      <trkpt lat="48.69433" lon="6.09268">
        <ele>301.6</ele>
        <time>2020-06-29T14:47:26Z</time>
      </trkpt>
      <trkpt lat="48.69432" lon="6.09257">
        <ele>301</ele>
        <time>2020-06-29T14:47:27Z</time>
      </trkpt>
      <trkpt lat="48.69432" lon="6.09245">
        <ele>300.5</ele>
        <time>2020-06-29T14:47:28Z</time>
      </trkpt>
      <trkpt lat="48.69432" lon="6.09233">
        <ele>300</ele>
        <time>2020-06-29T14:47:29Z</time>
      </trkpt>
      <trkpt lat="48.69431" lon="6.09221">
        <ele>299.4</ele>
        <time>2020-06-29T14:47:30Z</time>
      </trkpt>
      <trkpt lat="48.69431" lon="6.09208">
        <ele>298.8</ele>
        <time>2020-06-29T14:47:31Z</time>
      </trkpt>
      <trkpt lat="48.6943" lon="6.09196">
        <ele>298.3</ele>
        <time>2020-06-29T14:47:32Z</time>
      </trkpt>
      <trkpt lat="48.6943" lon="6.09184">
        <ele>297.7</ele>
        <time>2020-06-29T14:47:33Z</time>
      </trkpt>
      <trkpt lat="48.69429" lon="6.09171">
        <ele>297.2</ele>
        <time>2020-06-29T14:47:34Z</time>
      </trkpt>
      <trkpt lat="48.69428" lon="6.09159">
        <ele>296.6</ele>
        <time>2020-06-29T14:47:35Z</time>
      </trkpt>
      <trkpt lat="48.69428" lon="6.09146">
        <ele>296</ele>
        <time>2020-06-29T14:47:36Z</time>
      </trkpt>
      <trkpt lat="48.69428" lon="6.09133">
        <ele>295.5</ele>
        <time>2020-06-29T14:47:37Z</time>
      </trkpt>
      <trkpt lat="48.69427" lon="6.09119">
        <ele>294.9</ele>
        <time>2020-06-29T14:47:38Z</time>
      </trkpt>
      <trkpt lat="48.69426" lon="6.09106">
        <ele>294.3</ele>
        <time>2020-06-29T14:47:39Z</time>
      </trkpt>
      <trkpt lat="48.69426" lon="6.09092">
        <ele>293.8</ele>
        <time>2020-06-29T14:47:40Z</time>
      </trkpt>
      <trkpt lat="48.69425" lon="6.09079">
        <ele>293.3</ele>
        <time>2020-06-29T14:47:41Z</time>
      </trkpt>
      <trkpt lat="48.69425" lon="6.09066">
        <ele>292.8</ele>
        <time>2020-06-29T14:47:42Z</time>
      </trkpt>
      <trkpt lat="48.69424" lon="6.09052">
        <ele>292.3</ele>
        <time>2020-06-29T14:47:43Z</time>
      </trkpt>
      <trkpt lat="48.69424" lon="6.09039">
        <ele>292</ele>
        <time>2020-06-29T14:47:44Z</time>
      </trkpt>
      <trkpt lat="48.69423" lon="6.09026">
        <ele>291.6</ele>
        <time>2020-06-29T14:47:45Z</time>
      </trkpt>
      <trkpt lat="48.69423" lon="6.09013">
        <ele>291.3</ele>
        <time>2020-06-29T14:47:46Z</time>
      </trkpt>
      <trkpt lat="48.69422" lon="6.09">
        <ele>291</ele>
        <time>2020-06-29T14:47:47Z</time>
      </trkpt>
      <trkpt lat="48.69422" lon="6.08987">
        <ele>290.6</ele>
        <time>2020-06-29T14:47:48Z</time>
      </trkpt>
      <trkpt lat="48.69422" lon="6.08975">
        <ele>290.4</ele>
        <time>2020-06-29T14:47:49Z</time>
      </trkpt>
      <trkpt lat="48.69422" lon="6.08963">
        <ele>290.2</ele>
        <time>2020-06-29T14:47:50Z</time>
      </trkpt>
      <trkpt lat="48.69421" lon="6.08951">
        <ele>290</ele>
        <time>2020-06-29T14:47:51Z</time>
      </trkpt>
      <trkpt lat="48.69421" lon="6.08939">
        <ele>289.8</ele>
        <time>2020-06-29T14:47:52Z</time>
      </trkpt>
      <trkpt lat="48.69421" lon="6.08928">
        <ele>289.6</ele>
        <time>2020-06-29T14:47:53Z</time>
      </trkpt>
      <trkpt lat="48.69421" lon="6.08916">
        <ele>289.5</ele>
        <time>2020-06-29T14:47:54Z</time>
      </trkpt>
      <trkpt lat="48.6942" lon="6.08905">
        <ele>289.4</ele>
        <time>2020-06-29T14:47:55Z</time>
      </trkpt>
      <trkpt lat="48.6942" lon="6.08893">
        <ele>289.3</ele>
        <time>2020-06-29T14:47:56Z</time>
      </trkpt>
      <trkpt lat="48.6942" lon="6.08882">
        <ele>289.2</ele>
        <time>2020-06-29T14:47:57Z</time>
      </trkpt>
      <trkpt lat="48.69419" lon="6.08871">
        <ele>289.2</ele>
        <time>2020-06-29T14:47:58Z</time>
      </trkpt>
      <trkpt lat="48.69419" lon="6.0886">
        <ele>289.2</ele>
        <time>2020-06-29T14:47:59Z</time>
      </trkpt>
      <trkpt lat="48.69418" lon="6.08849">
        <ele>289.2</ele>
        <time>2020-06-29T14:48:00Z</time>
      </trkpt>
      <trkpt lat="48.69418" lon="6.08839">
        <ele>289.2</ele>
        <time>2020-06-29T14:48:01Z</time>
      </trkpt>
      <trkpt lat="48.69418" lon="6.08828">
        <ele>289.3</ele>
        <time>2020-06-29T14:48:02Z</time>
      </trkpt>
      <trkpt lat="48.69417" lon="6.08818">
        <ele>289.4</ele>
        <time>2020-06-29T14:48:03Z</time>
      </trkpt>
      <trkpt lat="48.69417" lon="6.08808">
        <ele>289.5</ele>
        <time>2020-06-29T14:48:04Z</time>
      </trkpt>
      <trkpt lat="48.69417" lon="6.08797">
        <ele>289.6</ele>
        <time>2020-06-29T14:48:05Z</time>
      </trkpt>
      <trkpt lat="48.69417" lon="6.08788">
        <ele>289.7</ele>
        <time>2020-06-29T14:48:06Z</time>
      </trkpt>
      <trkpt lat="48.69417" lon="6.08778">
        <ele>289.9</ele>
        <time>2020-06-29T14:48:07Z</time>
      </trkpt>
      <trkpt lat="48.69416" lon="6.08769">
        <ele>290</ele>
        <time>2020-06-29T14:48:08Z</time>
      </trkpt>
      <trkpt lat="48.69416" lon="6.0876">
        <ele>290.2</ele>
        <time>2020-06-29T14:48:09Z</time>
      </trkpt>
      <trkpt lat="48.69415" lon="6.08751">
        <ele>290.4</ele>
        <time>2020-06-29T14:48:10Z</time>
      </trkpt>
      <trkpt lat="48.69413" lon="6.08742">
        <ele>290.7</ele>
        <time>2020-06-29T14:48:11Z</time>
      </trkpt>
      <trkpt lat="48.69413" lon="6.08733">
        <ele>291</ele>
        <time>2020-06-29T14:48:12Z</time>
      </trkpt>
      <trkpt lat="48.69413" lon="6.08725">
        <ele>291.2</ele>
        <time>2020-06-29T14:48:13Z</time>
      </trkpt>
      <trkpt lat="48.69413" lon="6.08716">
        <ele>291.5</ele>
        <time>2020-06-29T14:48:14Z</time>
      </trkpt>
      <trkpt lat="48.69414" lon="6.08708">
        <ele>291.8</ele>
        <time>2020-06-29T14:48:15Z</time>
      </trkpt>
      <trkpt lat="48.69414" lon="6.087">
        <ele>292.1</ele>
        <time>2020-06-29T14:48:16Z</time>
      </trkpt>
      <trkpt lat="48.69414" lon="6.08693">
        <ele>292.3</ele>
        <time>2020-06-29T14:48:17Z</time>
      </trkpt>
      <trkpt lat="48.69413" lon="6.08686">
        <ele>292.6</ele>
        <time>2020-06-29T14:48:18Z</time>
      </trkpt>
      <trkpt lat="48.69413" lon="6.0868">
        <ele>292.9</ele>
        <time>2020-06-29T14:48:19Z</time>
      </trkpt>
      <trkpt lat="48.69413" lon="6.08673">
        <ele>293.1</ele>
        <time>2020-06-29T14:48:20Z</time>
      </trkpt>
      <trkpt lat="48.69414" lon="6.08667">
        <ele>293.4</ele>
        <time>2020-06-29T14:48:21Z</time>
      </trkpt>
      <trkpt lat="48.69416" lon="6.0866">
        <ele>293.7</ele>
        <time>2020-06-29T14:48:22Z</time>
      </trkpt>
      <trkpt lat="48.69417" lon="6.08655">
        <ele>294</ele>
        <time>2020-06-29T14:48:23Z</time>
      </trkpt>
      <trkpt lat="48.69418" lon="6.08649">
        <ele>294.3</ele>
        <time>2020-06-29T14:48:24Z</time>
      </trkpt>
      <trkpt lat="48.69418" lon="6.08643">
        <ele>294.6</ele>
        <time>2020-06-29T14:48:25Z</time>
      </trkpt>
      <trkpt lat="48.69417" lon="6.08637">
        <ele>294.9</ele>
        <time>2020-06-29T14:48:26Z</time>
      </trkpt>
      <trkpt lat="48.69417" lon="6.08632">
        <ele>295.2</ele>
        <time>2020-06-29T14:48:27Z</time>
      </trkpt>
      <trkpt lat="48.69417" lon="6.08627">
        <ele>295.5</ele>
        <time>2020-06-29T14:48:28Z</time>
      </trkpt>
      <trkpt lat="48.69416" lon="6.08621">
        <ele>295.8</ele>
        <time>2020-06-29T14:48:29Z</time>
      </trkpt>
      <trkpt lat="48.69415" lon="6.08616">
        <ele>296.1</ele>
        <time>2020-06-29T14:48:30Z</time>
      </trkpt>
      <trkpt lat="48.69416" lon="6.08611">
        <ele>296.3</ele>
        <time>2020-06-29T14:48:31Z</time>
      </trkpt>
      <trkpt lat="48.69416" lon="6.08605">
        <ele>296.6</ele>
        <time>2020-06-29T14:48:32Z</time>
      </trkpt>
      <trkpt lat="48.69416" lon="6.086">
        <ele>296.9</ele>
        <time>2020-06-29T14:48:33Z</time>
      </trkpt>
      <trkpt lat="48.69415" lon="6.08594">
        <ele>297.2</ele>
        <time>2020-06-29T14:48:34Z</time>
      </trkpt>
      <trkpt lat="48.69415" lon="6.08589">
        <ele>297.4</ele>
        <time>2020-06-29T14:48:35Z</time>
      </trkpt>
      <trkpt lat="48.69414" lon="6.08584">
        <ele>297.7</ele>
        <time>2020-06-29T14:48:36Z</time>
      </trkpt>
      <trkpt lat="48.69414" lon="6.0858">
        <ele>298</ele>
        <time>2020-06-29T14:48:37Z</time>
      </trkpt>
      <trkpt lat="48.69414" lon="6.08575">
        <ele>298.2</ele>
        <time>2020-06-29T14:48:38Z</time>
      </trkpt>
      <trkpt lat="48.69414" lon="6.08571">
        <ele>298.4</ele>
        <time>2020-06-29T14:48:39Z</time>
      </trkpt>
      <trkpt lat="48.69414" lon="6.08566">
        <ele>298.7</ele>
        <time>2020-06-29T14:48:40Z</time>
      </trkpt>
      <trkpt lat="48.69413" lon="6.08562">
        <ele>298.9</ele>
        <time>2020-06-29T14:48:41Z</time>
      </trkpt>
      <trkpt lat="48.69413" lon="6.08557">
        <ele>299.2</ele>
        <time>2020-06-29T14:48:42Z</time>
      </trkpt>
      <trkpt lat="48.69413" lon="6.08551">
        <ele>299.5</ele>
        <time>2020-06-29T14:48:43Z</time>
      </trkpt>
      <trkpt lat="48.69413" lon="6.08546">
        <ele>299.8</ele>
        <time>2020-06-29T14:48:44Z</time>
      </trkpt>
      <trkpt lat="48.69414" lon="6.08541">
        <ele>300.1</ele>
        <time>2020-06-29T14:48:45Z</time>
      </trkpt>
      <trkpt lat="48.69414" lon="6.08535">
        <ele>300.4</ele>
        <time>2020-06-29T14:48:46Z</time>
      </trkpt>
      <trkpt lat="48.69414" lon="6.0853">
        <ele>300.6</ele>
        <time>2020-06-29T14:48:47Z</time>
      </trkpt>
      <trkpt lat="48.69412" lon="6.08526">
        <ele>300.9</ele>
        <time>2020-06-29T14:48:48Z</time>
      </trkpt>
      <trkpt lat="48.69412" lon="6.08521">
        <ele>301.1</ele>
        <time>2020-06-29T14:48:49Z</time>
      </trkpt>
      <trkpt lat="48.69413" lon="6.08517">
        <ele>301.3</ele>
        <time>2020-06-29T14:48:50Z</time>
      </trkpt>
      <trkpt lat="48.69413" lon="6.08513">
        <ele>301.6</ele>
        <time>2020-06-29T14:48:51Z</time>
      </trkpt>
      <trkpt lat="48.69412" lon="6.08507">
        <ele>301.9</ele>
        <time>2020-06-29T14:48:52Z</time>
      </trkpt>
      <trkpt lat="48.69412" lon="6.08505">
        <ele>302</ele>
        <time>2020-06-29T14:48:53Z</time>
      </trkpt>
      <trkpt lat="48.69412" lon="6.085">
        <ele>302.2</ele>
        <time>2020-06-29T14:48:54Z</time>
      </trkpt>
      <trkpt lat="48.6941" lon="6.08495">
        <ele>302.5</ele>
        <time>2020-06-29T14:48:55Z</time>
      </trkpt>
      <trkpt lat="48.6941" lon="6.0849">
        <ele>302.7</ele>
        <time>2020-06-29T14:48:56Z</time>
      </trkpt>
      <trkpt lat="48.69409" lon="6.08485">
        <ele>302.9</ele>
        <time>2020-06-29T14:48:57Z</time>
      </trkpt>
      <trkpt lat="48.69409" lon="6.08481">
        <ele>303.2</ele>
        <time>2020-06-29T14:48:58Z</time>
      </trkpt>
      <trkpt lat="48.6941" lon="6.08476">
        <ele>303.4</ele>
        <time>2020-06-29T14:48:59Z</time>
      </trkpt>
      <trkpt lat="48.69411" lon="6.08471">
        <ele>303.7</ele>
        <time>2020-06-29T14:49:00Z</time>
      </trkpt>
      <trkpt lat="48.6941" lon="6.08466">
        <ele>303.9</ele>
        <time>2020-06-29T14:49:01Z</time>
      </trkpt>
      <trkpt lat="48.6941" lon="6.08461">
        <ele>304.2</ele>
        <time>2020-06-29T14:49:02Z</time>
      </trkpt>
      <trkpt lat="48.69409" lon="6.08456">
        <ele>304.4</ele>
        <time>2020-06-29T14:49:03Z</time>
      </trkpt>
      <trkpt lat="48.69409" lon="6.08451">
        <ele>304.7</ele>
        <time>2020-06-29T14:49:04Z</time>
      </trkpt>
      <trkpt lat="48.69409" lon="6.08446">
        <ele>304.9</ele>
        <time>2020-06-29T14:49:05Z</time>
      </trkpt>
      <trkpt lat="48.6941" lon="6.08442">
        <ele>305.1</ele>
        <time>2020-06-29T14:49:06Z</time>
      </trkpt>
      <trkpt lat="48.6941" lon="6.08437">
        <ele>305.3</ele>
        <time>2020-06-29T14:49:07Z</time>
      </trkpt>
      <trkpt lat="48.69409" lon="6.08433">
        <ele>305.5</ele>
        <time>2020-06-29T14:49:08Z</time>
      </trkpt>
      <trkpt lat="48.69409" lon="6.08428">
        <ele>305.8</ele>
        <time>2020-06-29T14:49:09Z</time>
      </trkpt>
      <trkpt lat="48.69408" lon="6.08423">
        <ele>306</ele>
        <time>2020-06-29T14:49:10Z</time>
      </trkpt>
      <trkpt lat="48.69408" lon="6.08418">
        <ele>306.2</ele>
        <time>2020-06-29T14:49:11Z</time>
      </trkpt>
      <trkpt lat="48.69409" lon="6.08413">
        <ele>306.5</ele>
        <time>2020-06-29T14:49:12Z</time>
      </trkpt>
      <trkpt lat="48.6941" lon="6.08409">
        <ele>306.7</ele>
        <time>2020-06-29T14:49:13Z</time>
      </trkpt>
      <trkpt lat="48.69409" lon="6.08404">
        <ele>306.9</ele>
        <time>2020-06-29T14:49:14Z</time>
      </trkpt>
      <trkpt lat="48.69409" lon="6.08398">
        <ele>307.2</ele>
        <time>2020-06-29T14:49:15Z</time>
      </trkpt>
      <trkpt lat="48.69409" lon="6.08393">
        <ele>307.4</ele>
        <time>2020-06-29T14:49:16Z</time>
      </trkpt>
      <trkpt lat="48.69409" lon="6.08388">
        <ele>307.6</ele>
        <time>2020-06-29T14:49:17Z</time>
      </trkpt>
      <trkpt lat="48.69409" lon="6.08383">
        <ele>307.8</ele>
        <time>2020-06-29T14:49:18Z</time>
      </trkpt>
      <trkpt lat="48.69409" lon="6.08378">
        <ele>308</ele>
        <time>2020-06-29T14:49:19Z</time>
      </trkpt>
      <trkpt lat="48.69408" lon="6.08374">
        <ele>308.2</ele>
        <time>2020-06-29T14:49:20Z</time>
      </trkpt>
      <trkpt lat="48.69408" lon="6.08369">
        <ele>308.4</ele>
        <time>2020-06-29T14:49:21Z</time>
      </trkpt>
      <trkpt lat="48.69409" lon="6.08364">
        <ele>308.7</ele>
        <time>2020-06-29T14:49:22Z</time>
      </trkpt>
      <trkpt lat="48.69409" lon="6.08359">
        <ele>308.9</ele>
        <time>2020-06-29T14:49:23Z</time>
      </trkpt>
      <trkpt lat="48.69409" lon="6.08354">
        <ele>309.1</ele>
        <time>2020-06-29T14:49:24Z</time>
      </trkpt>
      <trkpt lat="48.69407" lon="6.08349">
        <ele>309.4</ele>
        <time>2020-06-29T14:49:25Z</time>
      </trkpt>
      <trkpt lat="48.69407" lon="6.08345">
        <ele>309.6</ele>
        <time>2020-06-29T14:49:26Z</time>
      </trkpt>
      <trkpt lat="48.69406" lon="6.08341">
        <ele>309.7</ele>
        <time>2020-06-29T14:49:27Z</time>
      </trkpt>
      <trkpt lat="48.69405" lon="6.08337">
        <ele>309.9</ele>
        <time>2020-06-29T14:49:28Z</time>
      </trkpt>
      <trkpt lat="48.69406" lon="6.08333">
        <ele>310.1</ele>
        <time>2020-06-29T14:49:29Z</time>
      </trkpt>
      <trkpt lat="48.69408" lon="6.08329">
        <ele>310.3</ele>
        <time>2020-06-29T14:49:30Z</time>
      </trkpt>
      <trkpt lat="48.69409" lon="6.08324">
        <ele>310.5</ele>
        <time>2020-06-29T14:49:31Z</time>
      </trkpt>
      <trkpt lat="48.69409" lon="6.0832">
        <ele>310.7</ele>
        <time>2020-06-29T14:49:32Z</time>
      </trkpt>
      <trkpt lat="48.69408" lon="6.08315">
        <ele>310.9</ele>
        <time>2020-06-29T14:49:33Z</time>
      </trkpt>
      <trkpt lat="48.69408" lon="6.08311">
        <ele>311.1</ele>
        <time>2020-06-29T14:49:34Z</time>
      </trkpt>
      <trkpt lat="48.69408" lon="6.08307">
        <ele>311.3</ele>
        <time>2020-06-29T14:49:35Z</time>
      </trkpt>
      <trkpt lat="48.69408" lon="6.08302">
        <ele>311.5</ele>
        <time>2020-06-29T14:49:36Z</time>
      </trkpt>
      <trkpt lat="48.69407" lon="6.08298">
        <ele>311.7</ele>
        <time>2020-06-29T14:49:37Z</time>
      </trkpt>
      <trkpt lat="48.69407" lon="6.08293">
        <ele>311.9</ele>
        <time>2020-06-29T14:49:38Z</time>
      </trkpt>
      <trkpt lat="48.69408" lon="6.08289">
        <ele>312.1</ele>
        <time>2020-06-29T14:49:39Z</time>
      </trkpt>
      <trkpt lat="48.69408" lon="6.08285">
        <ele>312.3</ele>
        <time>2020-06-29T14:49:40Z</time>
      </trkpt>
      <trkpt lat="48.69408" lon="6.0828">
        <ele>312.5</ele>
        <time>2020-06-29T14:49:41Z</time>
      </trkpt>
      <trkpt lat="48.69407" lon="6.08275">
        <ele>312.7</ele>
        <time>2020-06-29T14:49:42Z</time>
      </trkpt>
      <trkpt lat="48.69406" lon="6.0827">
        <ele>313</ele>
        <time>2020-06-29T14:49:43Z</time>
      </trkpt>
      <trkpt lat="48.69406" lon="6.08266">
        <ele>313.1</ele>
        <time>2020-06-29T14:49:44Z</time>
      </trkpt>
      <trkpt lat="48.69406" lon="6.0826">
        <ele>313.4</ele>
        <time>2020-06-29T14:49:45Z</time>
      </trkpt>
      <trkpt lat="48.69405" lon="6.08254">
        <ele>313.7</ele>
        <time>2020-06-29T14:49:46Z</time>
      </trkpt>
      <trkpt lat="48.69404" lon="6.08249">
        <ele>313.9</ele>
        <time>2020-06-29T14:49:47Z</time>
      </trkpt>
      <trkpt lat="48.69405" lon="6.08242">
        <ele>314.2</ele>
        <time>2020-06-29T14:49:48Z</time>
      </trkpt>
      <trkpt lat="48.69405" lon="6.0824">
        <ele>314.3</ele>
        <time>2020-06-29T14:49:49Z</time>
      </trkpt>
      <trkpt lat="48.69405" lon="6.08235">
        <ele>314.4</ele>
        <time>2020-06-29T14:49:50Z</time>
      </trkpt>
      <trkpt lat="48.69404" lon="6.0823">
        <ele>314.7</ele>
        <time>2020-06-29T14:49:51Z</time>
      </trkpt>
      <trkpt lat="48.69404" lon="6.08224">
        <ele>314.9</ele>
        <time>2020-06-29T14:49:52Z</time>
      </trkpt>
      <trkpt lat="48.69405" lon="6.08218">
        <ele>315.2</ele>
        <time>2020-06-29T14:49:53Z</time>
      </trkpt>
      <trkpt lat="48.69404" lon="6.08214">
        <ele>315.3</ele>
        <time>2020-06-29T14:49:54Z</time>
      </trkpt>
      <trkpt lat="48.69404" lon="6.08209">
        <ele>315.6</ele>
        <time>2020-06-29T14:49:55Z</time>
      </trkpt>
      <trkpt lat="48.69403" lon="6.08204">
        <ele>315.7</ele>
        <time>2020-06-29T14:49:56Z</time>
      </trkpt>
      <trkpt lat="48.69403" lon="6.082">
        <ele>315.9</ele>
        <time>2020-06-29T14:49:57Z</time>
      </trkpt>
      <trkpt lat="48.69403" lon="6.08195">
        <ele>316.1</ele>
        <time>2020-06-29T14:49:58Z</time>
      </trkpt>
      <trkpt lat="48.69403" lon="6.08189">
        <ele>316.3</ele>
        <time>2020-06-29T14:49:59Z</time>
      </trkpt>
      <trkpt lat="48.69404" lon="6.08187">
        <ele>316.4</ele>
        <time>2020-06-29T14:50:00Z</time>
      </trkpt>
      <trkpt lat="48.69404" lon="6.08182">
        <ele>316.6</ele>
        <time>2020-06-29T14:50:01Z</time>
      </trkpt>
      <trkpt lat="48.69403" lon="6.08178">
        <ele>316.8</ele>
        <time>2020-06-29T14:50:02Z</time>
      </trkpt>
      <trkpt lat="48.69403" lon="6.08174">
        <ele>316.9</ele>
        <time>2020-06-29T14:50:03Z</time>
      </trkpt>
      <trkpt lat="48.69403" lon="6.08169">
        <ele>317.1</ele>
        <time>2020-06-29T14:50:04Z</time>
      </trkpt>
      <trkpt lat="48.69402" lon="6.08163">
        <ele>317.3</ele>
        <time>2020-06-29T14:50:05Z</time>
      </trkpt>
      <trkpt lat="48.69401" lon="6.0816">
        <ele>317.4</ele>
        <time>2020-06-29T14:50:06Z</time>
      </trkpt>
      <trkpt lat="48.69401" lon="6.08155">
        <ele>317.6</ele>
        <time>2020-06-29T14:50:07Z</time>
      </trkpt>
      <trkpt lat="48.69401" lon="6.08149">
        <ele>317.8</ele>
        <time>2020-06-29T14:50:08Z</time>
      </trkpt>
      <trkpt lat="48.69401" lon="6.08144">
        <ele>317.9</ele>
        <time>2020-06-29T14:50:09Z</time>
      </trkpt>
      <trkpt lat="48.69401" lon="6.0814">
        <ele>318.1</ele>
        <time>2020-06-29T14:50:10Z</time>
      </trkpt>
      <trkpt lat="48.694" lon="6.08132">
        <ele>318.3</ele>
        <time>2020-06-29T14:50:11Z</time>
      </trkpt>
      <trkpt lat="48.694" lon="6.08125">
        <ele>318.5</ele>
        <time>2020-06-29T14:50:12Z</time>
      </trkpt>
      <trkpt lat="48.694" lon="6.08122">
        <ele>318.6</ele>
        <time>2020-06-29T14:50:13Z</time>
      </trkpt>
      <trkpt lat="48.694" lon="6.08117">
        <ele>318.8</ele>
        <time>2020-06-29T14:50:14Z</time>
      </trkpt>
      <trkpt lat="48.694" lon="6.08111">
        <ele>318.9</ele>
        <time>2020-06-29T14:50:15Z</time>
      </trkpt>
      <trkpt lat="48.694" lon="6.08105">
        <ele>319.1</ele>
        <time>2020-06-29T14:50:16Z</time>
      </trkpt>
      <trkpt lat="48.694" lon="6.081">
        <ele>319.2</ele>
        <time>2020-06-29T14:50:17Z</time>
      </trkpt>
      <trkpt lat="48.69399" lon="6.08093">
        <ele>319.4</ele>
        <time>2020-06-29T14:50:18Z</time>
      </trkpt>
      <trkpt lat="48.69399" lon="6.08085">
        <ele>319.6</ele>
        <time>2020-06-29T14:50:19Z</time>
      </trkpt>
      <trkpt lat="48.69398" lon="6.0808">
        <ele>319.7</ele>
        <time>2020-06-29T14:50:20Z</time>
      </trkpt>
      <trkpt lat="48.69398" lon="6.08073">
        <ele>319.9</ele>
        <time>2020-06-29T14:50:21Z</time>
      </trkpt>
      <trkpt lat="48.69397" lon="6.08067">
        <ele>320</ele>
        <time>2020-06-29T14:50:22Z</time>
      </trkpt>
      <trkpt lat="48.69397" lon="6.08062">
        <ele>320.1</ele>
        <time>2020-06-29T14:50:23Z</time>
      </trkpt>
      <trkpt lat="48.69396" lon="6.08057">
        <ele>320.2</ele>
        <time>2020-06-29T14:50:24Z</time>
      </trkpt>
      <trkpt lat="48.69396" lon="6.0805">
        <ele>320.4</ele>
        <time>2020-06-29T14:50:25Z</time>
      </trkpt>
      <trkpt lat="48.69396" lon="6.08045">
        <ele>320.5</ele>
        <time>2020-06-29T14:50:26Z</time>
      </trkpt>
      <trkpt lat="48.69396" lon="6.08039">
        <ele>320.6</ele>
        <time>2020-06-29T14:50:27Z</time>
      </trkpt>
      <trkpt lat="48.69396" lon="6.08034">
        <ele>320.8</ele>
        <time>2020-06-29T14:50:28Z</time>
      </trkpt>
      <trkpt lat="48.69396" lon="6.08029">
        <ele>320.9</ele>
        <time>2020-06-29T14:50:29Z</time>
      </trkpt>
      <trkpt lat="48.69395" lon="6.08023">
        <ele>321</ele>
        <time>2020-06-29T14:50:30Z</time>
      </trkpt>
      <trkpt lat="48.69394" lon="6.08019">
        <ele>321.1</ele>
        <time>2020-06-29T14:50:31Z</time>
      </trkpt>
      <trkpt lat="48.69394" lon="6.08013">
        <ele>321.3</ele>
        <time>2020-06-29T14:50:32Z</time>
      </trkpt>
      <trkpt lat="48.69394" lon="6.08008">
        <ele>321.4</ele>
        <time>2020-06-29T14:50:33Z</time>
      </trkpt>
      <trkpt lat="48.69394" lon="6.08002">
        <ele>321.6</ele>
        <time>2020-06-29T14:50:34Z</time>
      </trkpt>
      <trkpt lat="48.69394" lon="6.07997">
        <ele>321.7</ele>
        <time>2020-06-29T14:50:35Z</time>
      </trkpt>
      <trkpt lat="48.69394" lon="6.07991">
        <ele>321.9</ele>
        <time>2020-06-29T14:50:36Z</time>
      </trkpt>
      <trkpt lat="48.69393" lon="6.07985">
        <ele>322</ele>
        <time>2020-06-29T14:50:37Z</time>
      </trkpt>
      <trkpt lat="48.69394" lon="6.0798">
        <ele>322.1</ele>
        <time>2020-06-29T14:50:38Z</time>
      </trkpt>
      <trkpt lat="48.69394" lon="6.07975">
        <ele>322.3</ele>
        <time>2020-06-29T14:50:39Z</time>
      </trkpt>
      <trkpt lat="48.69395" lon="6.07969">
        <ele>322.4</ele>
        <time>2020-06-29T14:50:40Z</time>
      </trkpt>
      <trkpt lat="48.69397" lon="6.07965">
        <ele>322.5</ele>
        <time>2020-06-29T14:50:41Z</time>
      </trkpt>
      <trkpt lat="48.69397" lon="6.07961">
        <ele>322.6</ele>
        <time>2020-06-29T14:50:42Z</time>
      </trkpt>
      <trkpt lat="48.69396" lon="6.07954">
        <ele>322.7</ele>
        <time>2020-06-29T14:50:43Z</time>
      </trkpt>
      <trkpt lat="48.69395" lon="6.07947">
        <ele>322.9</ele>
        <time>2020-06-29T14:50:44Z</time>
      </trkpt>
      <trkpt lat="48.69395" lon="6.07942">
        <ele>323</ele>
        <time>2020-06-29T14:50:45Z</time>
      </trkpt>
      <trkpt lat="48.69394" lon="6.07935">
        <ele>323.2</ele>
        <time>2020-06-29T14:50:46Z</time>
      </trkpt>
      <trkpt lat="48.69395" lon="6.0793">
        <ele>323.3</ele>
        <time>2020-06-29T14:50:47Z</time>
      </trkpt>
      <trkpt lat="48.69394" lon="6.07925">
        <ele>323.4</ele>
        <time>2020-06-29T14:50:48Z</time>
      </trkpt>
      <trkpt lat="48.69394" lon="6.07919">
        <ele>323.5</ele>
        <time>2020-06-29T14:50:49Z</time>
      </trkpt>
      <trkpt lat="48.69393" lon="6.07912">
        <ele>323.7</ele>
        <time>2020-06-29T14:50:50Z</time>
      </trkpt>
      <trkpt lat="48.69393" lon="6.07908">
        <ele>323.8</ele>
        <time>2020-06-29T14:50:51Z</time>
      </trkpt>
      <trkpt lat="48.69393" lon="6.07902">
        <ele>323.9</ele>
        <time>2020-06-29T14:50:52Z</time>
      </trkpt>
      <trkpt lat="48.69392" lon="6.07895">
        <ele>324</ele>
        <time>2020-06-29T14:50:53Z</time>
      </trkpt>
      <trkpt lat="48.69392" lon="6.07888">
        <ele>324.2</ele>
        <time>2020-06-29T14:50:54Z</time>
      </trkpt>
      <trkpt lat="48.69392" lon="6.07881">
        <ele>324.3</ele>
        <time>2020-06-29T14:50:55Z</time>
      </trkpt>
      <trkpt lat="48.69392" lon="6.07875">
        <ele>324.4</ele>
        <time>2020-06-29T14:50:56Z</time>
      </trkpt>
      <trkpt lat="48.69391" lon="6.07869">
        <ele>324.5</ele>
        <time>2020-06-29T14:50:57Z</time>
      </trkpt>
      <trkpt lat="48.69391" lon="6.07863">
        <ele>324.6</ele>
        <time>2020-06-29T14:50:58Z</time>
      </trkpt>
      <trkpt lat="48.6939" lon="6.07855">
        <ele>324.8</ele>
        <time>2020-06-29T14:50:59Z</time>
      </trkpt>
      <trkpt lat="48.69389" lon="6.07848">
        <ele>324.9</ele>
        <time>2020-06-29T14:51:00Z</time>
      </trkpt>
      <trkpt lat="48.69389" lon="6.07841">
        <ele>325</ele>
        <time>2020-06-29T14:51:01Z</time>
      </trkpt>
      <trkpt lat="48.6939" lon="6.07837">
        <ele>325.1</ele>
        <time>2020-06-29T14:51:02Z</time>
      </trkpt>
      <trkpt lat="48.69389" lon="6.07831">
        <ele>325.2</ele>
        <time>2020-06-29T14:51:03Z</time>
      </trkpt>
      <trkpt lat="48.69388" lon="6.07825">
        <ele>325.3</ele>
        <time>2020-06-29T14:51:04Z</time>
      </trkpt>
      <trkpt lat="48.69387" lon="6.0782">
        <ele>325.4</ele>
        <time>2020-06-29T14:51:05Z</time>
      </trkpt>
      <trkpt lat="48.69386" lon="6.07814">
        <ele>325.6</ele>
        <time>2020-06-29T14:51:06Z</time>
      </trkpt>
      <trkpt lat="48.69386" lon="6.07808">
        <ele>325.7</ele>
        <time>2020-06-29T14:51:07Z</time>
      </trkpt>
      <trkpt lat="48.69384" lon="6.07801">
        <ele>325.9</ele>
        <time>2020-06-29T14:51:08Z</time>
      </trkpt>
      <trkpt lat="48.69385" lon="6.07795">
        <ele>326</ele>
        <time>2020-06-29T14:51:09Z</time>
      </trkpt>
      <trkpt lat="48.69384" lon="6.07789">
        <ele>326.1</ele>
        <time>2020-06-29T14:51:10Z</time>
      </trkpt>
      <trkpt lat="48.69383" lon="6.07783">
        <ele>326.3</ele>
        <time>2020-06-29T14:51:11Z</time>
      </trkpt>
      <trkpt lat="48.69382" lon="6.07778">
        <ele>326.4</ele>
        <time>2020-06-29T14:51:12Z</time>
      </trkpt>
      <trkpt lat="48.69382" lon="6.07771">
        <ele>326.5</ele>
        <time>2020-06-29T14:51:13Z</time>
      </trkpt>
      <trkpt lat="48.6938" lon="6.07763">
        <ele>326.7</ele>
        <time>2020-06-29T14:51:14Z</time>
      </trkpt>
      <trkpt lat="48.6938" lon="6.07757">
        <ele>326.8</ele>
        <time>2020-06-29T14:51:15Z</time>
      </trkpt>
      <trkpt lat="48.69381" lon="6.07752">
        <ele>326.9</ele>
        <time>2020-06-29T14:51:16Z</time>
      </trkpt>
      <trkpt lat="48.69381" lon="6.07745">
        <ele>327.1</ele>
        <time>2020-06-29T14:51:17Z</time>
      </trkpt>
      <trkpt lat="48.6938" lon="6.07738">
        <ele>327.2</ele>
        <time>2020-06-29T14:51:18Z</time>
      </trkpt>
      <trkpt lat="48.69379" lon="6.07732">
        <ele>327.3</ele>
        <time>2020-06-29T14:51:19Z</time>
      </trkpt>
      <trkpt lat="48.69379" lon="6.07726">
        <ele>327.5</ele>
        <time>2020-06-29T14:51:20Z</time>
      </trkpt>
      <trkpt lat="48.69378" lon="6.0772">
        <ele>327.6</ele>
        <time>2020-06-29T14:51:21Z</time>
      </trkpt>
      <trkpt lat="48.69378" lon="6.07715">
        <ele>327.7</ele>
        <time>2020-06-29T14:51:22Z</time>
      </trkpt>
      <trkpt lat="48.69377" lon="6.07709">
        <ele>327.8</ele>
        <time>2020-06-29T14:51:23Z</time>
      </trkpt>
      <trkpt lat="48.69377" lon="6.07703">
        <ele>328</ele>
        <time>2020-06-29T14:51:24Z</time>
      </trkpt>
      <trkpt lat="48.69376" lon="6.07697">
        <ele>328.1</ele>
        <time>2020-06-29T14:51:25Z</time>
      </trkpt>
      <trkpt lat="48.69376" lon="6.07692">
        <ele>328.2</ele>
        <time>2020-06-29T14:51:26Z</time>
      </trkpt>
      <trkpt lat="48.69376" lon="6.07688">
        <ele>328.3</ele>
        <time>2020-06-29T14:51:27Z</time>
      </trkpt>
      <trkpt lat="48.69376" lon="6.07682">
        <ele>328.4</ele>
        <time>2020-06-29T14:51:28Z</time>
      </trkpt>
      <trkpt lat="48.69376" lon="6.07675">
        <ele>328.5</ele>
        <time>2020-06-29T14:51:29Z</time>
      </trkpt>
      <trkpt lat="48.69376" lon="6.0767">
        <ele>328.6</ele>
        <time>2020-06-29T14:51:30Z</time>
      </trkpt>
      <trkpt lat="48.69375" lon="6.07662">
        <ele>328.8</ele>
        <time>2020-06-29T14:51:31Z</time>
      </trkpt>
      <trkpt lat="48.69375" lon="6.07655">
        <ele>329</ele>
        <time>2020-06-29T14:51:32Z</time>
      </trkpt>
      <trkpt lat="48.69375" lon="6.07648">
        <ele>329.1</ele>
        <time>2020-06-29T14:51:33Z</time>
      </trkpt>
      <trkpt lat="48.69374" lon="6.07641">
        <ele>329.3</ele>
        <time>2020-06-29T14:51:34Z</time>
      </trkpt>
      <trkpt lat="48.69374" lon="6.07635">
        <ele>329.4</ele>
        <time>2020-06-29T14:51:35Z</time>
      </trkpt>
      <trkpt lat="48.69374" lon="6.0763">
        <ele>329.5</ele>
        <time>2020-06-29T14:51:36Z</time>
      </trkpt>
      <trkpt lat="48.69374" lon="6.07624">
        <ele>329.7</ele>
        <time>2020-06-29T14:51:37Z</time>
      </trkpt>
      <trkpt lat="48.69373" lon="6.07618">
        <ele>329.8</ele>
        <time>2020-06-29T14:51:38Z</time>
      </trkpt>
      <trkpt lat="48.69373" lon="6.07611">
        <ele>330</ele>
        <time>2020-06-29T14:51:39Z</time>
      </trkpt>
      <trkpt lat="48.69372" lon="6.07604">
        <ele>330.1</ele>
        <time>2020-06-29T14:51:40Z</time>
      </trkpt>
      <trkpt lat="48.69372" lon="6.07598">
        <ele>330.2</ele>
        <time>2020-06-29T14:51:41Z</time>
      </trkpt>
      <trkpt lat="48.69371" lon="6.07591">
        <ele>330.4</ele>
        <time>2020-06-29T14:51:42Z</time>
      </trkpt>
      <trkpt lat="48.6937" lon="6.07586">
        <ele>330.5</ele>
        <time>2020-06-29T14:51:43Z</time>
      </trkpt>
      <trkpt lat="48.69369" lon="6.07581">
        <ele>330.6</ele>
        <time>2020-06-29T14:51:44Z</time>
      </trkpt>
      <trkpt lat="48.69368" lon="6.07574">
        <ele>330.8</ele>
        <time>2020-06-29T14:51:45Z</time>
      </trkpt>
      <trkpt lat="48.69367" lon="6.07567">
        <ele>330.9</ele>
        <time>2020-06-29T14:51:46Z</time>
      </trkpt>
      <trkpt lat="48.69367" lon="6.0756">
        <ele>331.1</ele>
        <time>2020-06-29T14:51:47Z</time>
      </trkpt>
      <trkpt lat="48.69367" lon="6.07554">
        <ele>331.3</ele>
        <time>2020-06-29T14:51:48Z</time>
      </trkpt>
      <trkpt lat="48.69365" lon="6.07546">
        <ele>331.5</ele>
        <time>2020-06-29T14:51:49Z</time>
      </trkpt>
      <trkpt lat="48.69365" lon="6.07539">
        <ele>331.6</ele>
        <time>2020-06-29T14:51:50Z</time>
      </trkpt>
      <trkpt lat="48.69364" lon="6.07533">
        <ele>331.8</ele>
        <time>2020-06-29T14:51:51Z</time>
      </trkpt>
      <trkpt lat="48.69364" lon="6.07527">
        <ele>332</ele>
        <time>2020-06-29T14:51:52Z</time>
      </trkpt>
      <trkpt lat="48.69364" lon="6.07522">
        <ele>332.1</ele>
        <time>2020-06-29T14:51:53Z</time>
      </trkpt>
      <trkpt lat="48.69363" lon="6.07516">
        <ele>332.3</ele>
        <time>2020-06-29T14:51:54Z</time>
      </trkpt>
      <trkpt lat="48.69362" lon="6.07509">
        <ele>332.5</ele>
        <time>2020-06-29T14:51:55Z</time>
      </trkpt>
      <trkpt lat="48.69361" lon="6.07502">
        <ele>332.7</ele>
        <time>2020-06-29T14:51:56Z</time>
      </trkpt>
      <trkpt lat="48.6936" lon="6.07495">
        <ele>332.9</ele>
        <time>2020-06-29T14:51:57Z</time>
      </trkpt>
      <trkpt lat="48.69359" lon="6.07488">
        <ele>333.1</ele>
        <time>2020-06-29T14:51:58Z</time>
      </trkpt>
      <trkpt lat="48.69359" lon="6.0748">
        <ele>333.3</ele>
        <time>2020-06-29T14:51:59Z</time>
      </trkpt>
      <trkpt lat="48.6936" lon="6.07474">
        <ele>333.4</ele>
        <time>2020-06-29T14:52:00Z</time>
      </trkpt>
      <trkpt lat="48.6936" lon="6.07468">
        <ele>333.6</ele>
        <time>2020-06-29T14:52:01Z</time>
      </trkpt>
      <trkpt lat="48.6936" lon="6.07462">
        <ele>333.8</ele>
        <time>2020-06-29T14:52:02Z</time>
      </trkpt>
      <trkpt lat="48.69359" lon="6.07455">
        <ele>334</ele>
        <time>2020-06-29T14:52:03Z</time>
      </trkpt>
      <trkpt lat="48.69359" lon="6.0745">
        <ele>334.2</ele>
        <time>2020-06-29T14:52:04Z</time>
      </trkpt>
      <trkpt lat="48.69359" lon="6.07443">
        <ele>334.4</ele>
        <time>2020-06-29T14:52:05Z</time>
      </trkpt>
      <trkpt lat="48.69359" lon="6.07438">
        <ele>334.6</ele>
        <time>2020-06-29T14:52:06Z</time>
      </trkpt>
      <trkpt lat="48.6936" lon="6.07433">
        <ele>334.7</ele>
        <time>2020-06-29T14:52:07Z</time>
      </trkpt>
      <trkpt lat="48.69359" lon="6.07426">
        <ele>335</ele>
        <time>2020-06-29T14:52:08Z</time>
      </trkpt>
      <trkpt lat="48.6936" lon="6.0742">
        <ele>335.2</ele>
        <time>2020-06-29T14:52:09Z</time>
      </trkpt>
      <trkpt lat="48.6936" lon="6.07414">
        <ele>335.4</ele>
        <time>2020-06-29T14:52:10Z</time>
      </trkpt>
      <trkpt lat="48.69361" lon="6.07408">
        <ele>335.6</ele>
        <time>2020-06-29T14:52:11Z</time>
      </trkpt>
      <trkpt lat="48.69361" lon="6.07402">
        <ele>335.7</ele>
        <time>2020-06-29T14:52:12Z</time>
      </trkpt>
      <trkpt lat="48.69362" lon="6.07396">
        <ele>335.8</ele>
        <time>2020-06-29T14:52:13Z</time>
      </trkpt>
      <trkpt lat="48.69362" lon="6.07389">
        <ele>336</ele>
        <time>2020-06-29T14:52:14Z</time>
      </trkpt>
      <trkpt lat="48.69362" lon="6.07383">
        <ele>336.1</ele>
        <time>2020-06-29T14:52:15Z</time>
      </trkpt>
      <trkpt lat="48.69362" lon="6.07377">
        <ele>336.3</ele>
        <time>2020-06-29T14:52:16Z</time>
      </trkpt>
      <trkpt lat="48.69362" lon="6.07372">
        <ele>336.4</ele>
        <time>2020-06-29T14:52:17Z</time>
      </trkpt>
      <trkpt lat="48.69362" lon="6.07366">
        <ele>336.5</ele>
        <time>2020-06-29T14:52:18Z</time>
      </trkpt>
      <trkpt lat="48.69363" lon="6.07359">
        <ele>336.7</ele>
        <time>2020-06-29T14:52:19Z</time>
      </trkpt>
      <trkpt lat="48.69362" lon="6.07353">
        <ele>337</ele>
        <time>2020-06-29T14:52:20Z</time>
      </trkpt>
      <trkpt lat="48.69362" lon="6.07346">
        <ele>337.1</ele>
        <time>2020-06-29T14:52:21Z</time>
      </trkpt>
      <trkpt lat="48.69363" lon="6.0734">
        <ele>337.2</ele>
        <time>2020-06-29T14:52:22Z</time>
      </trkpt>
      <trkpt lat="48.69364" lon="6.07332">
        <ele>337.3</ele>
        <time>2020-06-29T14:52:23Z</time>
      </trkpt>
      <trkpt lat="48.69365" lon="6.07325">
        <ele>337.4</ele>
        <time>2020-06-29T14:52:24Z</time>
      </trkpt>
      <trkpt lat="48.69365" lon="6.07321">
        <ele>337.5</ele>
        <time>2020-06-29T14:52:25Z</time>
      </trkpt>
      <trkpt lat="48.69367" lon="6.07315">
        <ele>337.6</ele>
        <time>2020-06-29T14:52:26Z</time>
      </trkpt>
      <trkpt lat="48.69368" lon="6.07309">
        <ele>337.7</ele>
        <time>2020-06-29T14:52:27Z</time>
      </trkpt>
      <trkpt lat="48.69369" lon="6.07303">
        <ele>337.9</ele>
        <time>2020-06-29T14:52:28Z</time>
      </trkpt>
      <trkpt lat="48.6937" lon="6.07298">
        <ele>338</ele>
        <time>2020-06-29T14:52:29Z</time>
      </trkpt>
      <trkpt lat="48.6937" lon="6.07292">
        <ele>338.1</ele>
        <time>2020-06-29T14:52:30Z</time>
      </trkpt>
      <trkpt lat="48.69371" lon="6.07285">
        <ele>338.2</ele>
        <time>2020-06-29T14:52:31Z</time>
      </trkpt>
      <trkpt lat="48.69371" lon="6.07279">
        <ele>338.3</ele>
        <time>2020-06-29T14:52:32Z</time>
      </trkpt>
      <trkpt lat="48.69372" lon="6.07273">
        <ele>338.4</ele>
        <time>2020-06-29T14:52:33Z</time>
      </trkpt>
      <trkpt lat="48.69373" lon="6.07267">
        <ele>338.5</ele>
        <time>2020-06-29T14:52:34Z</time>
      </trkpt>
      <trkpt lat="48.69375" lon="6.07262">
        <ele>338.6</ele>
        <time>2020-06-29T14:52:35Z</time>
      </trkpt>
      <trkpt lat="48.69376" lon="6.07257">
        <ele>338.7</ele>
        <time>2020-06-29T14:52:36Z</time>
      </trkpt>
      <trkpt lat="48.69378" lon="6.07251">
        <ele>338.8</ele>
        <time>2020-06-29T14:52:37Z</time>
      </trkpt>
      <trkpt lat="48.69378" lon="6.07243">
        <ele>339</ele>
        <time>2020-06-29T14:52:38Z</time>
      </trkpt>
      <trkpt lat="48.69381" lon="6.07238">
        <ele>339.1</ele>
        <time>2020-06-29T14:52:39Z</time>
      </trkpt>
      <trkpt lat="48.69383" lon="6.07233">
        <ele>339.2</ele>
        <time>2020-06-29T14:52:40Z</time>
      </trkpt>
      <trkpt lat="48.69386" lon="6.07228">
        <ele>339.3</ele>
        <time>2020-06-29T14:52:41Z</time>
      </trkpt>
      <trkpt lat="48.69388" lon="6.07223">
        <ele>339.4</ele>
        <time>2020-06-29T14:52:42Z</time>
      </trkpt>
      <trkpt lat="48.6939" lon="6.07217">
        <ele>339.6</ele>
        <time>2020-06-29T14:52:43Z</time>
      </trkpt>
      <trkpt lat="48.69392" lon="6.07212">
        <ele>339.7</ele>
        <time>2020-06-29T14:52:44Z</time>
      </trkpt>
      <trkpt lat="48.69393" lon="6.07207">
        <ele>339.8</ele>
        <time>2020-06-29T14:52:45Z</time>
      </trkpt>
      <trkpt lat="48.69395" lon="6.07202">
        <ele>339.9</ele>
        <time>2020-06-29T14:52:46Z</time>
      </trkpt>
      <trkpt lat="48.69394" lon="6.07197">
        <ele>340.1</ele>
        <time>2020-06-29T14:52:47Z</time>
      </trkpt>
      <trkpt lat="48.69396" lon="6.0719">
        <ele>340.2</ele>
        <time>2020-06-29T14:52:48Z</time>
      </trkpt>
      <trkpt lat="48.69397" lon="6.07184">
        <ele>340.3</ele>
        <time>2020-06-29T14:52:49Z</time>
      </trkpt>
      <trkpt lat="48.69399" lon="6.07177">
        <ele>340.5</ele>
        <time>2020-06-29T14:52:50Z</time>
      </trkpt>
      <trkpt lat="48.69399" lon="6.0717">
        <ele>340.6</ele>
        <time>2020-06-29T14:52:51Z</time>
      </trkpt>
      <trkpt lat="48.69399" lon="6.07164">
        <ele>340.8</ele>
        <time>2020-06-29T14:52:52Z</time>
      </trkpt>
      <trkpt lat="48.69399" lon="6.07157">
        <ele>340.9</ele>
        <time>2020-06-29T14:52:53Z</time>
      </trkpt>
      <trkpt lat="48.694" lon="6.07151">
        <ele>341</ele>
        <time>2020-06-29T14:52:54Z</time>
      </trkpt>
      <trkpt lat="48.69398" lon="6.07144">
        <ele>341.1</ele>
        <time>2020-06-29T14:52:55Z</time>
      </trkpt>
      <trkpt lat="48.69396" lon="6.07137">
        <ele>341.3</ele>
        <time>2020-06-29T14:52:56Z</time>
      </trkpt>
      <trkpt lat="48.69395" lon="6.0713">
        <ele>341.5</ele>
        <time>2020-06-29T14:52:57Z</time>
      </trkpt>
      <trkpt lat="48.69393" lon="6.07122">
        <ele>341.7</ele>
        <time>2020-06-29T14:52:58Z</time>
      </trkpt>
      <trkpt lat="48.6939" lon="6.07116">
        <ele>341.8</ele>
        <time>2020-06-29T14:52:59Z</time>
      </trkpt>
      <trkpt lat="48.69388" lon="6.07108">
        <ele>342</ele>
        <time>2020-06-29T14:53:00Z</time>
      </trkpt>
      <trkpt lat="48.69386" lon="6.07102">
        <ele>342.1</ele>
        <time>2020-06-29T14:53:01Z</time>
      </trkpt>
      <trkpt lat="48.69384" lon="6.07095">
        <ele>342.2</ele>
        <time>2020-06-29T14:53:02Z</time>
      </trkpt>
      <trkpt lat="48.69382" lon="6.07089">
        <ele>342.3</ele>
        <time>2020-06-29T14:53:03Z</time>
      </trkpt>
      <trkpt lat="48.6938" lon="6.07084">
        <ele>342.4</ele>
        <time>2020-06-29T14:53:04Z</time>
      </trkpt>
      <trkpt lat="48.6938" lon="6.07078">
        <ele>342.5</ele>
        <time>2020-06-29T14:53:05Z</time>
      </trkpt>
      <trkpt lat="48.69381" lon="6.07071">
        <ele>342.5</ele>
        <time>2020-06-29T14:53:06Z</time>
      </trkpt>
      <trkpt lat="48.69382" lon="6.07064">
        <ele>342.5</ele>
        <time>2020-06-29T14:53:07Z</time>
      </trkpt>
      <trkpt lat="48.69382" lon="6.07057">
        <ele>342.5</ele>
        <time>2020-06-29T14:53:08Z</time>
      </trkpt>
      <trkpt lat="48.6938" lon="6.07049">
        <ele>342.5</ele>
        <time>2020-06-29T14:53:09Z</time>
      </trkpt>
      <trkpt lat="48.69378" lon="6.07043">
        <ele>342.5</ele>
        <time>2020-06-29T14:53:10Z</time>
      </trkpt>
      <trkpt lat="48.69376" lon="6.07037">
        <ele>342.6</ele>
        <time>2020-06-29T14:53:11Z</time>
      </trkpt>
      <trkpt lat="48.69373" lon="6.07031">
        <ele>342.6</ele>
        <time>2020-06-29T14:53:12Z</time>
      </trkpt>
      <trkpt lat="48.6937" lon="6.07026">
        <ele>342.6</ele>
        <time>2020-06-29T14:53:13Z</time>
      </trkpt>
      <trkpt lat="48.69367" lon="6.07021">
        <ele>342.6</ele>
        <time>2020-06-29T14:53:14Z</time>
      </trkpt>
      <trkpt lat="48.69367" lon="6.07014">
        <ele>342.6</ele>
        <time>2020-06-29T14:53:15Z</time>
      </trkpt>
      <trkpt lat="48.69366" lon="6.07007">
        <ele>342.6</ele>
        <time>2020-06-29T14:53:16Z</time>
      </trkpt>
      <trkpt lat="48.69366" lon="6.06999">
        <ele>342.6</ele>
        <time>2020-06-29T14:53:17Z</time>
      </trkpt>
      <trkpt lat="48.69365" lon="6.06991">
        <ele>342.6</ele>
        <time>2020-06-29T14:53:18Z</time>
      </trkpt>
      <trkpt lat="48.69365" lon="6.06984">
        <ele>342.6</ele>
        <time>2020-06-29T14:53:19Z</time>
      </trkpt>
      <trkpt lat="48.69364" lon="6.06978">
        <ele>342.6</ele>
        <time>2020-06-29T14:53:20Z</time>
      </trkpt>
      <trkpt lat="48.69362" lon="6.06973">
        <ele>342.6</ele>
        <time>2020-06-29T14:53:21Z</time>
      </trkpt>
      <trkpt lat="48.6936" lon="6.06966">
        <ele>342.7</ele>
        <time>2020-06-29T14:53:22Z</time>
      </trkpt>
      <trkpt lat="48.69357" lon="6.0696">
        <ele>342.8</ele>
        <time>2020-06-29T14:53:23Z</time>
      </trkpt>
      <trkpt lat="48.69355" lon="6.06954">
        <ele>342.9</ele>
        <time>2020-06-29T14:53:24Z</time>
      </trkpt>
      <trkpt lat="48.69352" lon="6.06948">
        <ele>343</ele>
        <time>2020-06-29T14:53:25Z</time>
      </trkpt>
      <trkpt lat="48.6935" lon="6.06943">
        <ele>343.1</ele>
        <time>2020-06-29T14:53:26Z</time>
      </trkpt>
      <trkpt lat="48.69348" lon="6.06937">
        <ele>343.1</ele>
        <time>2020-06-29T14:53:27Z</time>
      </trkpt>
      <trkpt lat="48.69345" lon="6.06932">
        <ele>343.2</ele>
        <time>2020-06-29T14:53:28Z</time>
      </trkpt>
      <trkpt lat="48.69342" lon="6.06927">
        <ele>343.3</ele>
        <time>2020-06-29T14:53:29Z</time>
      </trkpt>
      <trkpt lat="48.6934" lon="6.0692">
        <ele>343.4</ele>
        <time>2020-06-29T14:53:30Z</time>
      </trkpt>
      <trkpt lat="48.69338" lon="6.06915">
        <ele>343.4</ele>
        <time>2020-06-29T14:53:31Z</time>
      </trkpt>
      <trkpt lat="48.69336" lon="6.06908">
        <ele>343.5</ele>
        <time>2020-06-29T14:53:32Z</time>
      </trkpt>
      <trkpt lat="48.69334" lon="6.06901">
        <ele>343.6</ele>
        <time>2020-06-29T14:53:33Z</time>
      </trkpt>
      <trkpt lat="48.69331" lon="6.06896">
        <ele>343.6</ele>
        <time>2020-06-29T14:53:34Z</time>
      </trkpt>
      <trkpt lat="48.69329" lon="6.0689">
        <ele>343.7</ele>
        <time>2020-06-29T14:53:35Z</time>
      </trkpt>
      <trkpt lat="48.69327" lon="6.06884">
        <ele>343.7</ele>
        <time>2020-06-29T14:53:36Z</time>
      </trkpt>
      <trkpt lat="48.69327" lon="6.06878">
        <ele>343.8</ele>
        <time>2020-06-29T14:53:37Z</time>
      </trkpt>
      <trkpt lat="48.69326" lon="6.06871">
        <ele>343.9</ele>
        <time>2020-06-29T14:53:38Z</time>
      </trkpt>
      <trkpt lat="48.69324" lon="6.06865">
        <ele>343.9</ele>
        <time>2020-06-29T14:53:39Z</time>
      </trkpt>
      <trkpt lat="48.69321" lon="6.06859">
        <ele>344</ele>
        <time>2020-06-29T14:53:40Z</time>
      </trkpt>
      <trkpt lat="48.69319" lon="6.06852">
        <ele>344</ele>
        <time>2020-06-29T14:53:41Z</time>
      </trkpt>
      <trkpt lat="48.69317" lon="6.06846">
        <ele>344.1</ele>
        <time>2020-06-29T14:53:42Z</time>
      </trkpt>
      <trkpt lat="48.69316" lon="6.0684">
        <ele>344.1</ele>
        <time>2020-06-29T14:53:43Z</time>
      </trkpt>
      <trkpt lat="48.69315" lon="6.06833">
        <ele>344.1</ele>
        <time>2020-06-29T14:53:44Z</time>
      </trkpt>
      <trkpt lat="48.69314" lon="6.06825">
        <ele>344.2</ele>
        <time>2020-06-29T14:53:45Z</time>
      </trkpt>
      <trkpt lat="48.69314" lon="6.06819">
        <ele>344.2</ele>
        <time>2020-06-29T14:53:46Z</time>
      </trkpt>
      <trkpt lat="48.69315" lon="6.06813">
        <ele>344.2</ele>
        <time>2020-06-29T14:53:47Z</time>
      </trkpt>
      <trkpt lat="48.69314" lon="6.06806">
        <ele>344.2</ele>
        <time>2020-06-29T14:53:48Z</time>
      </trkpt>
      <trkpt lat="48.69314" lon="6.068">
        <ele>344.2</ele>
        <time>2020-06-29T14:53:49Z</time>
      </trkpt>
      <trkpt lat="48.69313" lon="6.06792">
        <ele>344.2</ele>
        <time>2020-06-29T14:53:50Z</time>
      </trkpt>
      <trkpt lat="48.69311" lon="6.06783">
        <ele>344.2</ele>
        <time>2020-06-29T14:53:51Z</time>
      </trkpt>
      <trkpt lat="48.69311" lon="6.06775">
        <ele>344.2</ele>
        <time>2020-06-29T14:53:52Z</time>
      </trkpt>
      <trkpt lat="48.69311" lon="6.06767">
        <ele>344.1</ele>
        <time>2020-06-29T14:53:53Z</time>
      </trkpt>
      <trkpt lat="48.6931" lon="6.06759">
        <ele>344.1</ele>
        <time>2020-06-29T14:53:54Z</time>
      </trkpt>
      <trkpt lat="48.6931" lon="6.06751">
        <ele>344.1</ele>
        <time>2020-06-29T14:53:55Z</time>
      </trkpt>
      <trkpt lat="48.6931" lon="6.06742">
        <ele>344.1</ele>
        <time>2020-06-29T14:53:56Z</time>
      </trkpt>
      <trkpt lat="48.6931" lon="6.06733">
        <ele>344</ele>
        <time>2020-06-29T14:53:57Z</time>
      </trkpt>
      <trkpt lat="48.6931" lon="6.06727">
        <ele>344</ele>
        <time>2020-06-29T14:53:58Z</time>
      </trkpt>
      <trkpt lat="48.6931" lon="6.06719">
        <ele>344</ele>
        <time>2020-06-29T14:53:59Z</time>
      </trkpt>
      <trkpt lat="48.69309" lon="6.06711">
        <ele>343.9</ele>
        <time>2020-06-29T14:54:00Z</time>
      </trkpt>
      <trkpt lat="48.69308" lon="6.06704">
        <ele>343.9</ele>
        <time>2020-06-29T14:54:01Z</time>
      </trkpt>
      <trkpt lat="48.69309" lon="6.06698">
        <ele>343.8</ele>
        <time>2020-06-29T14:54:02Z</time>
      </trkpt>
      <trkpt lat="48.69308" lon="6.06689">
        <ele>343.7</ele>
        <time>2020-06-29T14:54:03Z</time>
      </trkpt>
      <trkpt lat="48.69308" lon="6.0668">
        <ele>343.7</ele>
        <time>2020-06-29T14:54:04Z</time>
      </trkpt>
      <trkpt lat="48.69308" lon="6.06671">
        <ele>343.6</ele>
        <time>2020-06-29T14:54:05Z</time>
      </trkpt>
      <trkpt lat="48.69308" lon="6.06663">
        <ele>343.6</ele>
        <time>2020-06-29T14:54:06Z</time>
      </trkpt>
      <trkpt lat="48.69307" lon="6.06656">
        <ele>343.5</ele>
        <time>2020-06-29T14:54:07Z</time>
      </trkpt>
      <trkpt lat="48.69306" lon="6.06646">
        <ele>343.4</ele>
        <time>2020-06-29T14:54:08Z</time>
      </trkpt>
      <trkpt lat="48.69305" lon="6.06639">
        <ele>343.3</ele>
        <time>2020-06-29T14:54:09Z</time>
      </trkpt>
      <trkpt lat="48.69305" lon="6.06631">
        <ele>343.1</ele>
        <time>2020-06-29T14:54:10Z</time>
      </trkpt>
      <trkpt lat="48.69304" lon="6.06624">
        <ele>343</ele>
        <time>2020-06-29T14:54:11Z</time>
      </trkpt>
      <trkpt lat="48.69304" lon="6.06616">
        <ele>342.8</ele>
        <time>2020-06-29T14:54:12Z</time>
      </trkpt>
      <trkpt lat="48.69305" lon="6.06607">
        <ele>342.6</ele>
        <time>2020-06-29T14:54:13Z</time>
      </trkpt>
      <trkpt lat="48.69304" lon="6.06599">
        <ele>342.5</ele>
        <time>2020-06-29T14:54:14Z</time>
      </trkpt>
      <trkpt lat="48.69304" lon="6.0659">
        <ele>342.3</ele>
        <time>2020-06-29T14:54:15Z</time>
      </trkpt>
      <trkpt lat="48.69304" lon="6.06583">
        <ele>342.2</ele>
        <time>2020-06-29T14:54:16Z</time>
      </trkpt>
      <trkpt lat="48.69303" lon="6.06575">
        <ele>342</ele>
        <time>2020-06-29T14:54:17Z</time>
      </trkpt>
      <trkpt lat="48.69303" lon="6.06567">
        <ele>341.8</ele>
        <time>2020-06-29T14:54:18Z</time>
      </trkpt>
      <trkpt lat="48.69304" lon="6.06558">
        <ele>341.6</ele>
        <time>2020-06-29T14:54:19Z</time>
      </trkpt>
      <trkpt lat="48.69303" lon="6.06548">
        <ele>341.4</ele>
        <time>2020-06-29T14:54:20Z</time>
      </trkpt>
      <trkpt lat="48.69303" lon="6.0654">
        <ele>341.2</ele>
        <time>2020-06-29T14:54:21Z</time>
      </trkpt>
      <trkpt lat="48.69302" lon="6.06531">
        <ele>341</ele>
        <time>2020-06-29T14:54:22Z</time>
      </trkpt>
      <trkpt lat="48.69301" lon="6.06522">
        <ele>340.8</ele>
        <time>2020-06-29T14:54:23Z</time>
      </trkpt>
      <trkpt lat="48.69301" lon="6.06513">
        <ele>340.6</ele>
        <time>2020-06-29T14:54:24Z</time>
      </trkpt>
      <trkpt lat="48.69301" lon="6.06503">
        <ele>340.3</ele>
        <time>2020-06-29T14:54:25Z</time>
      </trkpt>
      <trkpt lat="48.69301" lon="6.06494">
        <ele>340.1</ele>
        <time>2020-06-29T14:54:26Z</time>
      </trkpt>
      <trkpt lat="48.693" lon="6.06485">
        <ele>339.8</ele>
        <time>2020-06-29T14:54:27Z</time>
      </trkpt>
      <trkpt lat="48.693" lon="6.06476">
        <ele>339.6</ele>
        <time>2020-06-29T14:54:28Z</time>
      </trkpt>
      <trkpt lat="48.693" lon="6.06467">
        <ele>339.4</ele>
        <time>2020-06-29T14:54:29Z</time>
      </trkpt>
      <trkpt lat="48.693" lon="6.06458">
        <ele>339.2</ele>
        <time>2020-06-29T14:54:30Z</time>
      </trkpt>
      <trkpt lat="48.69301" lon="6.0645">
        <ele>339.1</ele>
        <time>2020-06-29T14:54:31Z</time>
      </trkpt>
      <trkpt lat="48.69301" lon="6.06442">
        <ele>338.9</ele>
        <time>2020-06-29T14:54:32Z</time>
      </trkpt>
      <trkpt lat="48.69301" lon="6.06432">
        <ele>338.6</ele>
        <time>2020-06-29T14:54:33Z</time>
      </trkpt>
      <trkpt lat="48.69301" lon="6.06423">
        <ele>338.4</ele>
        <time>2020-06-29T14:54:34Z</time>
      </trkpt>
      <trkpt lat="48.69301" lon="6.06413">
        <ele>338.1</ele>
        <time>2020-06-29T14:54:35Z</time>
      </trkpt>
      <trkpt lat="48.69301" lon="6.06404">
        <ele>338</ele>
        <time>2020-06-29T14:54:36Z</time>
      </trkpt>
      <trkpt lat="48.69299" lon="6.06391">
        <ele>337.7</ele>
        <time>2020-06-29T14:54:37Z</time>
      </trkpt>
      <trkpt lat="48.69299" lon="6.06381">
        <ele>337.5</ele>
        <time>2020-06-29T14:54:38Z</time>
      </trkpt>
      <trkpt lat="48.69298" lon="6.06368">
        <ele>337.3</ele>
        <time>2020-06-29T14:54:39Z</time>
      </trkpt>
      <trkpt lat="48.69297" lon="6.06356">
        <ele>336.9</ele>
        <time>2020-06-29T14:54:40Z</time>
      </trkpt>
      <trkpt lat="48.69297" lon="6.06347">
        <ele>336.7</ele>
        <time>2020-06-29T14:54:41Z</time>
      </trkpt>
      <trkpt lat="48.69297" lon="6.06336">
        <ele>336.4</ele>
        <time>2020-06-29T14:54:42Z</time>
      </trkpt>
      <trkpt lat="48.69297" lon="6.06325">
        <ele>336.2</ele>
        <time>2020-06-29T14:54:43Z</time>
      </trkpt>
      <trkpt lat="48.69297" lon="6.06315">
        <ele>336</ele>
        <time>2020-06-29T14:54:44Z</time>
      </trkpt>
      <trkpt lat="48.69296" lon="6.06304">
        <ele>335.8</ele>
        <time>2020-06-29T14:54:45Z</time>
      </trkpt>
      <trkpt lat="48.69296" lon="6.06293">
        <ele>335.7</ele>
        <time>2020-06-29T14:54:46Z</time>
      </trkpt>
      <trkpt lat="48.69296" lon="6.06282">
        <ele>335.6</ele>
        <time>2020-06-29T14:54:47Z</time>
      </trkpt>
      <trkpt lat="48.69295" lon="6.06272">
        <ele>335.5</ele>
        <time>2020-06-29T14:54:48Z</time>
      </trkpt>
      <trkpt lat="48.69294" lon="6.06262">
        <ele>335.4</ele>
        <time>2020-06-29T14:54:49Z</time>
      </trkpt>
      <trkpt lat="48.69293" lon="6.06252">
        <ele>335.3</ele>
        <time>2020-06-29T14:54:50Z</time>
      </trkpt>
      <trkpt lat="48.69293" lon="6.06242">
        <ele>335.2</ele>
        <time>2020-06-29T14:54:51Z</time>
      </trkpt>
      <trkpt lat="48.69292" lon="6.06232">
        <ele>335.1</ele>
        <time>2020-06-29T14:54:52Z</time>
      </trkpt>
      <trkpt lat="48.69291" lon="6.06221">
        <ele>335.1</ele>
        <time>2020-06-29T14:54:53Z</time>
      </trkpt>
      <trkpt lat="48.69291" lon="6.06211">
        <ele>335</ele>
        <time>2020-06-29T14:54:54Z</time>
      </trkpt>
      <trkpt lat="48.69291" lon="6.06201">
        <ele>334.9</ele>
        <time>2020-06-29T14:54:55Z</time>
      </trkpt>
      <trkpt lat="48.6929" lon="6.06191">
        <ele>334.8</ele>
        <time>2020-06-29T14:54:56Z</time>
      </trkpt>
      <trkpt lat="48.69289" lon="6.06182">
        <ele>334.7</ele>
        <time>2020-06-29T14:54:57Z</time>
      </trkpt>
      <trkpt lat="48.69288" lon="6.06172">
        <ele>334.6</ele>
        <time>2020-06-29T14:54:58Z</time>
      </trkpt>
      <trkpt lat="48.69287" lon="6.06162">
        <ele>334.5</ele>
        <time>2020-06-29T14:54:59Z</time>
      </trkpt>
      <trkpt lat="48.69287" lon="6.06153">
        <ele>334.4</ele>
        <time>2020-06-29T14:55:00Z</time>
      </trkpt>
      <trkpt lat="48.69286" lon="6.06143">
        <ele>334.3</ele>
        <time>2020-06-29T14:55:01Z</time>
      </trkpt>
      <trkpt lat="48.69286" lon="6.06133">
        <ele>334.1</ele>
        <time>2020-06-29T14:55:02Z</time>
      </trkpt>
      <trkpt lat="48.69285" lon="6.06123">
        <ele>334</ele>
        <time>2020-06-29T14:55:03Z</time>
      </trkpt>
      <trkpt lat="48.69285" lon="6.06114">
        <ele>333.9</ele>
        <time>2020-06-29T14:55:04Z</time>
      </trkpt>
      <trkpt lat="48.69284" lon="6.06105">
        <ele>333.9</ele>
        <time>2020-06-29T14:55:05Z</time>
      </trkpt>
      <trkpt lat="48.69284" lon="6.06095">
        <ele>333.7</ele>
        <time>2020-06-29T14:55:06Z</time>
      </trkpt>
      <trkpt lat="48.69285" lon="6.06086">
        <ele>333.6</ele>
        <time>2020-06-29T14:55:07Z</time>
      </trkpt>
      <trkpt lat="48.69285" lon="6.06076">
        <ele>333.5</ele>
        <time>2020-06-29T14:55:08Z</time>
      </trkpt>
      <trkpt lat="48.69284" lon="6.06067">
        <ele>333.4</ele>
        <time>2020-06-29T14:55:09Z</time>
      </trkpt>
      <trkpt lat="48.69285" lon="6.06057">
        <ele>333.3</ele>
        <time>2020-06-29T14:55:10Z</time>
      </trkpt>
      <trkpt lat="48.69285" lon="6.06047">
        <ele>333.1</ele>
        <time>2020-06-29T14:55:11Z</time>
      </trkpt>
      <trkpt lat="48.69285" lon="6.06036">
        <ele>333</ele>
        <time>2020-06-29T14:55:12Z</time>
      </trkpt>
      <trkpt lat="48.69285" lon="6.06025">
        <ele>332.9</ele>
        <time>2020-06-29T14:55:13Z</time>
      </trkpt>
      <trkpt lat="48.69285" lon="6.06014">
        <ele>332.7</ele>
        <time>2020-06-29T14:55:14Z</time>
      </trkpt>
      <trkpt lat="48.69284" lon="6.06003">
        <ele>332.5</ele>
        <time>2020-06-29T14:55:15Z</time>
      </trkpt>
      <trkpt lat="48.69283" lon="6.05991">
        <ele>332.4</ele>
        <time>2020-06-29T14:55:16Z</time>
      </trkpt>
      <trkpt lat="48.69283" lon="6.0598">
        <ele>332.2</ele>
        <time>2020-06-29T14:55:17Z</time>
      </trkpt>
      <trkpt lat="48.69282" lon="6.05968">
        <ele>332.1</ele>
        <time>2020-06-29T14:55:18Z</time>
      </trkpt>
      <trkpt lat="48.69282" lon="6.05956">
        <ele>331.9</ele>
        <time>2020-06-29T14:55:19Z</time>
      </trkpt>
      <trkpt lat="48.69282" lon="6.05944">
        <ele>331.8</ele>
        <time>2020-06-29T14:55:20Z</time>
      </trkpt>
      <trkpt lat="48.69282" lon="6.05932">
        <ele>331.7</ele>
        <time>2020-06-29T14:55:21Z</time>
      </trkpt>
      <trkpt lat="48.69281" lon="6.0592">
        <ele>331.5</ele>
        <time>2020-06-29T14:55:22Z</time>
      </trkpt>
      <trkpt lat="48.69281" lon="6.05908">
        <ele>331.4</ele>
        <time>2020-06-29T14:55:23Z</time>
      </trkpt>
      <trkpt lat="48.69281" lon="6.05896">
        <ele>331.3</ele>
        <time>2020-06-29T14:55:24Z</time>
      </trkpt>
      <trkpt lat="48.69281" lon="6.05884">
        <ele>331.2</ele>
        <time>2020-06-29T14:55:25Z</time>
      </trkpt>
      <trkpt lat="48.6928" lon="6.05872">
        <ele>331.1</ele>
        <time>2020-06-29T14:55:26Z</time>
      </trkpt>
      <trkpt lat="48.6928" lon="6.05861">
        <ele>331</ele>
        <time>2020-06-29T14:55:27Z</time>
      </trkpt>
      <trkpt lat="48.69279" lon="6.0585">
        <ele>330.8</ele>
        <time>2020-06-29T14:55:28Z</time>
      </trkpt>
      <trkpt lat="48.69279" lon="6.05838">
        <ele>330.7</ele>
        <time>2020-06-29T14:55:29Z</time>
      </trkpt>
      <trkpt lat="48.69279" lon="6.05827">
        <ele>330.6</ele>
        <time>2020-06-29T14:55:30Z</time>
      </trkpt>
      <trkpt lat="48.69278" lon="6.05816">
        <ele>330.5</ele>
        <time>2020-06-29T14:55:31Z</time>
      </trkpt>
      <trkpt lat="48.69278" lon="6.05805">
        <ele>330.4</ele>
        <time>2020-06-29T14:55:32Z</time>
      </trkpt>
      <trkpt lat="48.69278" lon="6.05793">
        <ele>330.3</ele>
        <time>2020-06-29T14:55:33Z</time>
      </trkpt>
      <trkpt lat="48.69277" lon="6.05782">
        <ele>330.2</ele>
        <time>2020-06-29T14:55:34Z</time>
      </trkpt>
      <trkpt lat="48.69276" lon="6.0577">
        <ele>330.1</ele>
        <time>2020-06-29T14:55:35Z</time>
      </trkpt>
      <trkpt lat="48.69276" lon="6.05758">
        <ele>330.1</ele>
        <time>2020-06-29T14:55:36Z</time>
      </trkpt>
      <trkpt lat="48.69275" lon="6.05747">
        <ele>330</ele>
        <time>2020-06-29T14:55:37Z</time>
      </trkpt>
      <trkpt lat="48.69275" lon="6.05735">
        <ele>329.9</ele>
        <time>2020-06-29T14:55:38Z</time>
      </trkpt>
      <trkpt lat="48.69275" lon="6.05723">
        <ele>329.8</ele>
        <time>2020-06-29T14:55:39Z</time>
      </trkpt>
      <trkpt lat="48.69274" lon="6.05712">
        <ele>329.7</ele>
        <time>2020-06-29T14:55:40Z</time>
      </trkpt>
      <trkpt lat="48.69273" lon="6.057">
        <ele>329.6</ele>
        <time>2020-06-29T14:55:41Z</time>
      </trkpt>
      <trkpt lat="48.69272" lon="6.05688">
        <ele>329.5</ele>
        <time>2020-06-29T14:55:42Z</time>
      </trkpt>
      <trkpt lat="48.69272" lon="6.05676">
        <ele>329.3</ele>
        <time>2020-06-29T14:55:43Z</time>
      </trkpt>
      <trkpt lat="48.69272" lon="6.05665">
        <ele>329.2</ele>
        <time>2020-06-29T14:55:44Z</time>
      </trkpt>
      <trkpt lat="48.69271" lon="6.05653">
        <ele>329.1</ele>
        <time>2020-06-29T14:55:45Z</time>
      </trkpt>
      <trkpt lat="48.69271" lon="6.05642">
        <ele>329</ele>
        <time>2020-06-29T14:55:46Z</time>
      </trkpt>
      <trkpt lat="48.69271" lon="6.05631">
        <ele>328.8</ele>
        <time>2020-06-29T14:55:47Z</time>
      </trkpt>
      <trkpt lat="48.69271" lon="6.0562">
        <ele>328.6</ele>
        <time>2020-06-29T14:55:48Z</time>
      </trkpt>
      <trkpt lat="48.69271" lon="6.05608">
        <ele>328.4</ele>
        <time>2020-06-29T14:55:49Z</time>
      </trkpt>
      <trkpt lat="48.6927" lon="6.05597">
        <ele>328.3</ele>
        <time>2020-06-29T14:55:50Z</time>
      </trkpt>
      <trkpt lat="48.69269" lon="6.05586">
        <ele>328.1</ele>
        <time>2020-06-29T14:55:51Z</time>
      </trkpt>
      <trkpt lat="48.69269" lon="6.05575">
        <ele>327.9</ele>
        <time>2020-06-29T14:55:52Z</time>
      </trkpt>
      <trkpt lat="48.69268" lon="6.05564">
        <ele>327.8</ele>
        <time>2020-06-29T14:55:53Z</time>
      </trkpt>
      <trkpt lat="48.69268" lon="6.05553">
        <ele>327.6</ele>
        <time>2020-06-29T14:55:54Z</time>
      </trkpt>
      <trkpt lat="48.69268" lon="6.05542">
        <ele>327.4</ele>
        <time>2020-06-29T14:55:55Z</time>
      </trkpt>
      <trkpt lat="48.69268" lon="6.0553">
        <ele>327.2</ele>
        <time>2020-06-29T14:55:56Z</time>
      </trkpt>
      <trkpt lat="48.69267" lon="6.05519">
        <ele>327</ele>
        <time>2020-06-29T14:55:57Z</time>
      </trkpt>
      <trkpt lat="48.69267" lon="6.05508">
        <ele>326.8</ele>
        <time>2020-06-29T14:55:58Z</time>
      </trkpt>
      <trkpt lat="48.69267" lon="6.05497">
        <ele>326.6</ele>
        <time>2020-06-29T14:55:59Z</time>
      </trkpt>
      <trkpt lat="48.69266" lon="6.05486">
        <ele>326.5</ele>
        <time>2020-06-29T14:56:00Z</time>
      </trkpt>
      <trkpt lat="48.69266" lon="6.05475">
        <ele>326.3</ele>
        <time>2020-06-29T14:56:01Z</time>
      </trkpt>
      <trkpt lat="48.69266" lon="6.05463">
        <ele>326.1</ele>
        <time>2020-06-29T14:56:02Z</time>
      </trkpt>
      <trkpt lat="48.69266" lon="6.05452">
        <ele>325.9</ele>
        <time>2020-06-29T14:56:03Z</time>
      </trkpt>
      <trkpt lat="48.69265" lon="6.05442">
        <ele>325.7</ele>
        <time>2020-06-29T14:56:04Z</time>
      </trkpt>
      <trkpt lat="48.69265" lon="6.05431">
        <ele>325.4</ele>
        <time>2020-06-29T14:56:05Z</time>
      </trkpt>
      <trkpt lat="48.69264" lon="6.0542">
        <ele>325.2</ele>
        <time>2020-06-29T14:56:06Z</time>
      </trkpt>
      <trkpt lat="48.69264" lon="6.05409">
        <ele>325</ele>
        <time>2020-06-29T14:56:07Z</time>
      </trkpt>
      <trkpt lat="48.69263" lon="6.05398">
        <ele>324.7</ele>
        <time>2020-06-29T14:56:08Z</time>
      </trkpt>
      <trkpt lat="48.69263" lon="6.05387">
        <ele>324.5</ele>
        <time>2020-06-29T14:56:09Z</time>
      </trkpt>
      <trkpt lat="48.69262" lon="6.05376">
        <ele>324.2</ele>
        <time>2020-06-29T14:56:10Z</time>
      </trkpt>
      <trkpt lat="48.69262" lon="6.05366">
        <ele>324</ele>
        <time>2020-06-29T14:56:11Z</time>
      </trkpt>
      <trkpt lat="48.69261" lon="6.05355">
        <ele>323.8</ele>
        <time>2020-06-29T14:56:12Z</time>
      </trkpt>
      <trkpt lat="48.69261" lon="6.05344">
        <ele>323.5</ele>
        <time>2020-06-29T14:56:13Z</time>
      </trkpt>
      <trkpt lat="48.69261" lon="6.05334">
        <ele>323.3</ele>
        <time>2020-06-29T14:56:14Z</time>
      </trkpt>
      <trkpt lat="48.69261" lon="6.05323">
        <ele>323</ele>
        <time>2020-06-29T14:56:15Z</time>
      </trkpt>
      <trkpt lat="48.69261" lon="6.05313">
        <ele>322.8</ele>
        <time>2020-06-29T14:56:16Z</time>
      </trkpt>
      <trkpt lat="48.6926" lon="6.05302">
        <ele>322.5</ele>
        <time>2020-06-29T14:56:17Z</time>
      </trkpt>
      <trkpt lat="48.6926" lon="6.05291">
        <ele>322.2</ele>
        <time>2020-06-29T14:56:18Z</time>
      </trkpt>
      <trkpt lat="48.6926" lon="6.05281">
        <ele>322</ele>
        <time>2020-06-29T14:56:19Z</time>
      </trkpt>
      <trkpt lat="48.69259" lon="6.0527">
        <ele>321.7</ele>
        <time>2020-06-29T14:56:20Z</time>
      </trkpt>
      <trkpt lat="48.69259" lon="6.0526">
        <ele>321.4</ele>
        <time>2020-06-29T14:56:21Z</time>
      </trkpt>
      <trkpt lat="48.69259" lon="6.05249">
        <ele>321</ele>
        <time>2020-06-29T14:56:22Z</time>
      </trkpt>
      <trkpt lat="48.69258" lon="6.05238">
        <ele>320.7</ele>
        <time>2020-06-29T14:56:23Z</time>
      </trkpt>
      <trkpt lat="48.69258" lon="6.05227">
        <ele>320.4</ele>
        <time>2020-06-29T14:56:24Z</time>
      </trkpt>
      <trkpt lat="48.69257" lon="6.05216">
        <ele>320</ele>
        <time>2020-06-29T14:56:25Z</time>
      </trkpt>
      <trkpt lat="48.69257" lon="6.05205">
        <ele>319.7</ele>
        <time>2020-06-29T14:56:26Z</time>
      </trkpt>
      <trkpt lat="48.69257" lon="6.05194">
        <ele>319.4</ele>
        <time>2020-06-29T14:56:27Z</time>
      </trkpt>
      <trkpt lat="48.69257" lon="6.05183">
        <ele>319</ele>
        <time>2020-06-29T14:56:28Z</time>
      </trkpt>
      <trkpt lat="48.69256" lon="6.05171">
        <ele>318.7</ele>
        <time>2020-06-29T14:56:29Z</time>
      </trkpt>
      <trkpt lat="48.69256" lon="6.0516">
        <ele>318.3</ele>
        <time>2020-06-29T14:56:30Z</time>
      </trkpt>
      <trkpt lat="48.69256" lon="6.05148">
        <ele>317.9</ele>
        <time>2020-06-29T14:56:31Z</time>
      </trkpt>
      <trkpt lat="48.69255" lon="6.05136">
        <ele>317.6</ele>
        <time>2020-06-29T14:56:32Z</time>
      </trkpt>
      <trkpt lat="48.69254" lon="6.05124">
        <ele>317</ele>
        <time>2020-06-29T14:56:33Z</time>
      </trkpt>
      <trkpt lat="48.69254" lon="6.05112">
        <ele>316.1</ele>
        <time>2020-06-29T14:56:34Z</time>
      </trkpt>
      <trkpt lat="48.69253" lon="6.05101">
        <ele>315.7</ele>
        <time>2020-06-29T14:56:35Z</time>
      </trkpt>
      <trkpt lat="48.69252" lon="6.05089">
        <ele>315.3</ele>
        <time>2020-06-29T14:56:36Z</time>
      </trkpt>
      <trkpt lat="48.69252" lon="6.05078">
        <ele>314.9</ele>
        <time>2020-06-29T14:56:37Z</time>
      </trkpt>
      <trkpt lat="48.69252" lon="6.05066">
        <ele>314.6</ele>
        <time>2020-06-29T14:56:38Z</time>
      </trkpt>
      <trkpt lat="48.69252" lon="6.05054">
        <ele>314.3</ele>
        <time>2020-06-29T14:56:39Z</time>
      </trkpt>
      <trkpt lat="48.69252" lon="6.05043">
        <ele>314</ele>
        <time>2020-06-29T14:56:40Z</time>
      </trkpt>
      <trkpt lat="48.69252" lon="6.05032">
        <ele>313.8</ele>
        <time>2020-06-29T14:56:41Z</time>
      </trkpt>
      <trkpt lat="48.69252" lon="6.0502">
        <ele>313.5</ele>
        <time>2020-06-29T14:56:42Z</time>
      </trkpt>
      <trkpt lat="48.69252" lon="6.05009">
        <ele>313.3</ele>
        <time>2020-06-29T14:56:43Z</time>
      </trkpt>
      <trkpt lat="48.69252" lon="6.04997">
        <ele>313.1</ele>
        <time>2020-06-29T14:56:44Z</time>
      </trkpt>
      <trkpt lat="48.69252" lon="6.04986">
        <ele>312.9</ele>
        <time>2020-06-29T14:56:45Z</time>
      </trkpt>
      <trkpt lat="48.69251" lon="6.04974">
        <ele>312.7</ele>
        <time>2020-06-29T14:56:46Z</time>
      </trkpt>
      <trkpt lat="48.69251" lon="6.04963">
        <ele>312.5</ele>
        <time>2020-06-29T14:56:47Z</time>
      </trkpt>
      <trkpt lat="48.6925" lon="6.04951">
        <ele>312.3</ele>
        <time>2020-06-29T14:56:48Z</time>
      </trkpt>
      <trkpt lat="48.69249" lon="6.0494">
        <ele>312.1</ele>
        <time>2020-06-29T14:56:49Z</time>
      </trkpt>
      <trkpt lat="48.69249" lon="6.04929">
        <ele>311.8</ele>
        <time>2020-06-29T14:56:50Z</time>
      </trkpt>
      <trkpt lat="48.69248" lon="6.04918">
        <ele>311.6</ele>
        <time>2020-06-29T14:56:51Z</time>
      </trkpt>
      <trkpt lat="48.69248" lon="6.04907">
        <ele>311.4</ele>
        <time>2020-06-29T14:56:52Z</time>
      </trkpt>
      <trkpt lat="48.69247" lon="6.04896">
        <ele>311.2</ele>
        <time>2020-06-29T14:56:53Z</time>
      </trkpt>
      <trkpt lat="48.69247" lon="6.04885">
        <ele>311</ele>
        <time>2020-06-29T14:56:54Z</time>
      </trkpt>
      <trkpt lat="48.69246" lon="6.04874">
        <ele>310.8</ele>
        <time>2020-06-29T14:56:55Z</time>
      </trkpt>
      <trkpt lat="48.69245" lon="6.04863">
        <ele>310.6</ele>
        <time>2020-06-29T14:56:56Z</time>
      </trkpt>
      <trkpt lat="48.69245" lon="6.04851">
        <ele>310.4</ele>
        <time>2020-06-29T14:56:57Z</time>
      </trkpt>
      <trkpt lat="48.69244" lon="6.0484">
        <ele>310.2</ele>
        <time>2020-06-29T14:56:58Z</time>
      </trkpt>
      <trkpt lat="48.69243" lon="6.04829">
        <ele>310</ele>
        <time>2020-06-29T14:56:59Z</time>
      </trkpt>
      <trkpt lat="48.69242" lon="6.04817">
        <ele>309.8</ele>
        <time>2020-06-29T14:57:00Z</time>
      </trkpt>
      <trkpt lat="48.69242" lon="6.04806">
        <ele>309.6</ele>
        <time>2020-06-29T14:57:01Z</time>
      </trkpt>
      <trkpt lat="48.69242" lon="6.04795">
        <ele>309.4</ele>
        <time>2020-06-29T14:57:02Z</time>
      </trkpt>
      <trkpt lat="48.69241" lon="6.04784">
        <ele>309.2</ele>
        <time>2020-06-29T14:57:03Z</time>
      </trkpt>
      <trkpt lat="48.69241" lon="6.04773">
        <ele>309</ele>
        <time>2020-06-29T14:57:04Z</time>
      </trkpt>
      <trkpt lat="48.69241" lon="6.04762">
        <ele>308.8</ele>
        <time>2020-06-29T14:57:05Z</time>
      </trkpt>
      <trkpt lat="48.69241" lon="6.0475">
        <ele>308.5</ele>
        <time>2020-06-29T14:57:06Z</time>
      </trkpt>
      <trkpt lat="48.6924" lon="6.04739">
        <ele>308.3</ele>
        <time>2020-06-29T14:57:07Z</time>
      </trkpt>
      <trkpt lat="48.69239" lon="6.04728">
        <ele>308.1</ele>
        <time>2020-06-29T14:57:08Z</time>
      </trkpt>
      <trkpt lat="48.69238" lon="6.04717">
        <ele>307.8</ele>
        <time>2020-06-29T14:57:09Z</time>
      </trkpt>
      <trkpt lat="48.69237" lon="6.04705">
        <ele>307.6</ele>
        <time>2020-06-29T14:57:10Z</time>
      </trkpt>
      <trkpt lat="48.69237" lon="6.04694">
        <ele>307.3</ele>
        <time>2020-06-29T14:57:11Z</time>
      </trkpt>
      <trkpt lat="48.69237" lon="6.04682">
        <ele>307</ele>
        <time>2020-06-29T14:57:12Z</time>
      </trkpt>
      <trkpt lat="48.69236" lon="6.0467">
        <ele>306.8</ele>
        <time>2020-06-29T14:57:13Z</time>
      </trkpt>
      <trkpt lat="48.69236" lon="6.04659">
        <ele>306.5</ele>
        <time>2020-06-29T14:57:14Z</time>
      </trkpt>
      <trkpt lat="48.69236" lon="6.04648">
        <ele>306.3</ele>
        <time>2020-06-29T14:57:15Z</time>
      </trkpt>
      <trkpt lat="48.69235" lon="6.04636">
        <ele>306</ele>
        <time>2020-06-29T14:57:16Z</time>
      </trkpt>
      <trkpt lat="48.69235" lon="6.04625">
        <ele>305.8</ele>
        <time>2020-06-29T14:57:17Z</time>
      </trkpt>
      <trkpt lat="48.69235" lon="6.04613">
        <ele>305.5</ele>
        <time>2020-06-29T14:57:18Z</time>
      </trkpt>
      <trkpt lat="48.69235" lon="6.04601">
        <ele>305.2</ele>
        <time>2020-06-29T14:57:19Z</time>
      </trkpt>
      <trkpt lat="48.69235" lon="6.04589">
        <ele>304.8</ele>
        <time>2020-06-29T14:57:20Z</time>
      </trkpt>
      <trkpt lat="48.69235" lon="6.04578">
        <ele>304.5</ele>
        <time>2020-06-29T14:57:21Z</time>
      </trkpt>
      <trkpt lat="48.69234" lon="6.04566">
        <ele>304.3</ele>
        <time>2020-06-29T14:57:22Z</time>
      </trkpt>
      <trkpt lat="48.69234" lon="6.04555">
        <ele>304</ele>
        <time>2020-06-29T14:57:23Z</time>
      </trkpt>
      <trkpt lat="48.69233" lon="6.04543">
        <ele>303.7</ele>
        <time>2020-06-29T14:57:24Z</time>
      </trkpt>
      <trkpt lat="48.69233" lon="6.04531">
        <ele>303.4</ele>
        <time>2020-06-29T14:57:25Z</time>
      </trkpt>
      <trkpt lat="48.69233" lon="6.0452">
        <ele>303.1</ele>
        <time>2020-06-29T14:57:26Z</time>
      </trkpt>
      <trkpt lat="48.69232" lon="6.04508">
        <ele>302.8</ele>
        <time>2020-06-29T14:57:27Z</time>
      </trkpt>
      <trkpt lat="48.69232" lon="6.04496">
        <ele>302.6</ele>
        <time>2020-06-29T14:57:28Z</time>
      </trkpt>
      <trkpt lat="48.69231" lon="6.04485">
        <ele>302.3</ele>
        <time>2020-06-29T14:57:29Z</time>
      </trkpt>
      <trkpt lat="48.69231" lon="6.04473">
        <ele>302</ele>
        <time>2020-06-29T14:57:30Z</time>
      </trkpt>
      <trkpt lat="48.69231" lon="6.04461">
        <ele>301.7</ele>
        <time>2020-06-29T14:57:31Z</time>
      </trkpt>
      <trkpt lat="48.6923" lon="6.04448">
        <ele>301.4</ele>
        <time>2020-06-29T14:57:32Z</time>
      </trkpt>
      <trkpt lat="48.6923" lon="6.04436">
        <ele>301.1</ele>
        <time>2020-06-29T14:57:33Z</time>
      </trkpt>
      <trkpt lat="48.69229" lon="6.04424">
        <ele>300.8</ele>
        <time>2020-06-29T14:57:34Z</time>
      </trkpt>
      <trkpt lat="48.69228" lon="6.04412">
        <ele>300.5</ele>
        <time>2020-06-29T14:57:35Z</time>
      </trkpt>
      <trkpt lat="48.69228" lon="6.04399">
        <ele>300.2</ele>
        <time>2020-06-29T14:57:36Z</time>
      </trkpt>
      <trkpt lat="48.69228" lon="6.04386">
        <ele>299.9</ele>
        <time>2020-06-29T14:57:37Z</time>
      </trkpt>
      <trkpt lat="48.69228" lon="6.04374">
        <ele>299.5</ele>
        <time>2020-06-29T14:57:38Z</time>
      </trkpt>
      <trkpt lat="48.69228" lon="6.04361">
        <ele>299.2</ele>
        <time>2020-06-29T14:57:39Z</time>
      </trkpt>
      <trkpt lat="48.69227" lon="6.04348">
        <ele>299</ele>
        <time>2020-06-29T14:57:40Z</time>
      </trkpt>
      <trkpt lat="48.69227" lon="6.04336">
        <ele>298.7</ele>
        <time>2020-06-29T14:57:41Z</time>
      </trkpt>
      <trkpt lat="48.69226" lon="6.04323">
        <ele>298.4</ele>
        <time>2020-06-29T14:57:42Z</time>
      </trkpt>
      <trkpt lat="48.69225" lon="6.0431">
        <ele>298.1</ele>
        <time>2020-06-29T14:57:43Z</time>
      </trkpt>
      <trkpt lat="48.69224" lon="6.04297">
        <ele>297.8</ele>
        <time>2020-06-29T14:57:44Z</time>
      </trkpt>
      <trkpt lat="48.69224" lon="6.04284">
        <ele>297.5</ele>
        <time>2020-06-29T14:57:45Z</time>
      </trkpt>
      <trkpt lat="48.69224" lon="6.04271">
        <ele>297.3</ele>
        <time>2020-06-29T14:57:46Z</time>
      </trkpt>
      <trkpt lat="48.69223" lon="6.04259">
        <ele>297.2</ele>
        <time>2020-06-29T14:57:47Z</time>
      </trkpt>
      <trkpt lat="48.69222" lon="6.04246">
        <ele>297.2</ele>
        <time>2020-06-29T14:57:48Z</time>
      </trkpt>
      <trkpt lat="48.69221" lon="6.04233">
        <ele>297</ele>
        <time>2020-06-29T14:57:49Z</time>
      </trkpt>
      <trkpt lat="48.69221" lon="6.04221">
        <ele>296.9</ele>
        <time>2020-06-29T14:57:50Z</time>
      </trkpt>
      <trkpt lat="48.69221" lon="6.04208">
        <ele>296.8</ele>
        <time>2020-06-29T14:57:51Z</time>
      </trkpt>
      <trkpt lat="48.69221" lon="6.04196">
        <ele>296.7</ele>
        <time>2020-06-29T14:57:52Z</time>
      </trkpt>
      <trkpt lat="48.6922" lon="6.04184">
        <ele>296.6</ele>
        <time>2020-06-29T14:57:53Z</time>
      </trkpt>
      <trkpt lat="48.6922" lon="6.04173">
        <ele>296.5</ele>
        <time>2020-06-29T14:57:54Z</time>
      </trkpt>
      <trkpt lat="48.69219" lon="6.04162">
        <ele>296.4</ele>
        <time>2020-06-29T14:57:55Z</time>
      </trkpt>
      <trkpt lat="48.69219" lon="6.0415">
        <ele>296.3</ele>
        <time>2020-06-29T14:57:56Z</time>
      </trkpt>
      <trkpt lat="48.69219" lon="6.0414">
        <ele>296.2</ele>
        <time>2020-06-29T14:57:57Z</time>
      </trkpt>
      <trkpt lat="48.69218" lon="6.04129">
        <ele>296.2</ele>
        <time>2020-06-29T14:57:58Z</time>
      </trkpt>
      <trkpt lat="48.69217" lon="6.04118">
        <ele>296.1</ele>
        <time>2020-06-29T14:57:59Z</time>
      </trkpt>
      <trkpt lat="48.69217" lon="6.04107">
        <ele>296.1</ele>
        <time>2020-06-29T14:58:00Z</time>
      </trkpt>
      <trkpt lat="48.69216" lon="6.04097">
        <ele>296</ele>
        <time>2020-06-29T14:58:01Z</time>
      </trkpt>
      <trkpt lat="48.69216" lon="6.04086">
        <ele>295.8</ele>
        <time>2020-06-29T14:58:02Z</time>
      </trkpt>
      <trkpt lat="48.69216" lon="6.04075">
        <ele>295.7</ele>
        <time>2020-06-29T14:58:03Z</time>
      </trkpt>
      <trkpt lat="48.69215" lon="6.04065">
        <ele>295.5</ele>
        <time>2020-06-29T14:58:04Z</time>
      </trkpt>
      <trkpt lat="48.69214" lon="6.04055">
        <ele>295.4</ele>
        <time>2020-06-29T14:58:05Z</time>
      </trkpt>
      <trkpt lat="48.69214" lon="6.04045">
        <ele>295.2</ele>
        <time>2020-06-29T14:58:06Z</time>
      </trkpt>
      <trkpt lat="48.69213" lon="6.04035">
        <ele>295</ele>
        <time>2020-06-29T14:58:07Z</time>
      </trkpt>
      <trkpt lat="48.69213" lon="6.04026">
        <ele>294.8</ele>
        <time>2020-06-29T14:58:08Z</time>
      </trkpt>
      <trkpt lat="48.69214" lon="6.04017">
        <ele>294.5</ele>
        <time>2020-06-29T14:58:09Z</time>
      </trkpt>
      <trkpt lat="48.69213" lon="6.04007">
        <ele>294.3</ele>
        <time>2020-06-29T14:58:10Z</time>
      </trkpt>
      <trkpt lat="48.69212" lon="6.03997">
        <ele>294.1</ele>
        <time>2020-06-29T14:58:11Z</time>
      </trkpt>
      <trkpt lat="48.69211" lon="6.03987">
        <ele>293.8</ele>
        <time>2020-06-29T14:58:12Z</time>
      </trkpt>
      <trkpt lat="48.6921" lon="6.03977">
        <ele>293.6</ele>
        <time>2020-06-29T14:58:13Z</time>
      </trkpt>
      <trkpt lat="48.69209" lon="6.03967">
        <ele>293.3</ele>
        <time>2020-06-29T14:58:14Z</time>
      </trkpt>
      <trkpt lat="48.69209" lon="6.03957">
        <ele>293.1</ele>
        <time>2020-06-29T14:58:15Z</time>
      </trkpt>
      <trkpt lat="48.69207" lon="6.03945">
        <ele>292.8</ele>
        <time>2020-06-29T14:58:16Z</time>
      </trkpt>
      <trkpt lat="48.69207" lon="6.03934">
        <ele>292.5</ele>
        <time>2020-06-29T14:58:17Z</time>
      </trkpt>
      <trkpt lat="48.69206" lon="6.03922">
        <ele>292.2</ele>
        <time>2020-06-29T14:58:18Z</time>
      </trkpt>
      <trkpt lat="48.69205" lon="6.03909">
        <ele>292</ele>
        <time>2020-06-29T14:58:19Z</time>
      </trkpt>
      <trkpt lat="48.69203" lon="6.03897">
        <ele>291.7</ele>
        <time>2020-06-29T14:58:20Z</time>
      </trkpt>
      <trkpt lat="48.69203" lon="6.03885">
        <ele>291.5</ele>
        <time>2020-06-29T14:58:21Z</time>
      </trkpt>
      <trkpt lat="48.69202" lon="6.03873">
        <ele>291.3</ele>
        <time>2020-06-29T14:58:22Z</time>
      </trkpt>
      <trkpt lat="48.69202" lon="6.03861">
        <ele>291</ele>
        <time>2020-06-29T14:58:23Z</time>
      </trkpt>
      <trkpt lat="48.692" lon="6.03849">
        <ele>290.8</ele>
        <time>2020-06-29T14:58:24Z</time>
      </trkpt>
      <trkpt lat="48.692" lon="6.03837">
        <ele>290.5</ele>
        <time>2020-06-29T14:58:25Z</time>
      </trkpt>
      <trkpt lat="48.692" lon="6.03825">
        <ele>290.3</ele>
        <time>2020-06-29T14:58:26Z</time>
      </trkpt>
      <trkpt lat="48.692" lon="6.03813">
        <ele>290.1</ele>
        <time>2020-06-29T14:58:27Z</time>
      </trkpt>
      <trkpt lat="48.692" lon="6.03803">
        <ele>289.8</ele>
        <time>2020-06-29T14:58:28Z</time>
      </trkpt>
      <trkpt lat="48.69199" lon="6.03792">
        <ele>289.6</ele>
        <time>2020-06-29T14:58:29Z</time>
      </trkpt>
      <trkpt lat="48.69198" lon="6.0378">
        <ele>289.4</ele>
        <time>2020-06-29T14:58:30Z</time>
      </trkpt>
      <trkpt lat="48.69197" lon="6.03768">
        <ele>289.1</ele>
        <time>2020-06-29T14:58:31Z</time>
      </trkpt>
      <trkpt lat="48.69197" lon="6.03755">
        <ele>288.9</ele>
        <time>2020-06-29T14:58:32Z</time>
      </trkpt>
      <trkpt lat="48.69196" lon="6.03743">
        <ele>288.7</ele>
        <time>2020-06-29T14:58:33Z</time>
      </trkpt>
      <trkpt lat="48.69196" lon="6.0373">
        <ele>288.5</ele>
        <time>2020-06-29T14:58:34Z</time>
      </trkpt>
      <trkpt lat="48.69195" lon="6.03717">
        <ele>288.3</ele>
        <time>2020-06-29T14:58:35Z</time>
      </trkpt>
      <trkpt lat="48.69195" lon="6.03704">
        <ele>288</ele>
        <time>2020-06-29T14:58:36Z</time>
      </trkpt>
      <trkpt lat="48.69195" lon="6.03691">
        <ele>287.9</ele>
        <time>2020-06-29T14:58:37Z</time>
      </trkpt>
      <trkpt lat="48.69196" lon="6.03677">
        <ele>287.7</ele>
        <time>2020-06-29T14:58:38Z</time>
      </trkpt>
      <trkpt lat="48.69196" lon="6.03664">
        <ele>287.6</ele>
        <time>2020-06-29T14:58:39Z</time>
      </trkpt>
      <trkpt lat="48.69196" lon="6.03651">
        <ele>287.5</ele>
        <time>2020-06-29T14:58:40Z</time>
      </trkpt>
      <trkpt lat="48.69195" lon="6.03638">
        <ele>287.4</ele>
        <time>2020-06-29T14:58:41Z</time>
      </trkpt>
      <trkpt lat="48.69195" lon="6.03625">
        <ele>287.3</ele>
        <time>2020-06-29T14:58:42Z</time>
      </trkpt>
      <trkpt lat="48.69193" lon="6.03611">
        <ele>287.3</ele>
        <time>2020-06-29T14:58:43Z</time>
      </trkpt>
      <trkpt lat="48.69193" lon="6.03598">
        <ele>287.3</ele>
        <time>2020-06-29T14:58:44Z</time>
      </trkpt>
      <trkpt lat="48.69193" lon="6.03585">
        <ele>287.3</ele>
        <time>2020-06-29T14:58:45Z</time>
      </trkpt>
      <trkpt lat="48.69193" lon="6.03572">
        <ele>287.3</ele>
        <time>2020-06-29T14:58:46Z</time>
      </trkpt>
      <trkpt lat="48.69193" lon="6.0356">
        <ele>287.3</ele>
        <time>2020-06-29T14:58:47Z</time>
      </trkpt>
      <trkpt lat="48.69192" lon="6.03548">
        <ele>287.3</ele>
        <time>2020-06-29T14:58:48Z</time>
      </trkpt>
      <trkpt lat="48.69192" lon="6.03537">
        <ele>287.3</ele>
        <time>2020-06-29T14:58:49Z</time>
      </trkpt>
      <trkpt lat="48.69192" lon="6.03525">
        <ele>287.3</ele>
        <time>2020-06-29T14:58:50Z</time>
      </trkpt>
      <trkpt lat="48.69191" lon="6.03514">
        <ele>287.4</ele>
        <time>2020-06-29T14:58:51Z</time>
      </trkpt>
      <trkpt lat="48.69191" lon="6.03503">
        <ele>287.3</ele>
        <time>2020-06-29T14:58:52Z</time>
      </trkpt>
      <trkpt lat="48.6919" lon="6.03493">
        <ele>287.3</ele>
        <time>2020-06-29T14:58:53Z</time>
      </trkpt>
      <trkpt lat="48.69189" lon="6.03482">
        <ele>287.3</ele>
        <time>2020-06-29T14:58:54Z</time>
      </trkpt>
      <trkpt lat="48.69189" lon="6.03471">
        <ele>287.2</ele>
        <time>2020-06-29T14:58:55Z</time>
      </trkpt>
      <trkpt lat="48.69188" lon="6.03461">
        <ele>287.2</ele>
        <time>2020-06-29T14:58:56Z</time>
      </trkpt>
      <trkpt lat="48.69187" lon="6.0345">
        <ele>287.1</ele>
        <time>2020-06-29T14:58:57Z</time>
      </trkpt>
      <trkpt lat="48.69186" lon="6.0344">
        <ele>287.1</ele>
        <time>2020-06-29T14:58:58Z</time>
      </trkpt>
      <trkpt lat="48.69184" lon="6.0343">
        <ele>287</ele>
        <time>2020-06-29T14:58:59Z</time>
      </trkpt>
      <trkpt lat="48.69182" lon="6.0342">
        <ele>286.9</ele>
        <time>2020-06-29T14:59:00Z</time>
      </trkpt>
      <trkpt lat="48.69181" lon="6.0341">
        <ele>286.8</ele>
        <time>2020-06-29T14:59:01Z</time>
      </trkpt>
      <trkpt lat="48.6918" lon="6.034">
        <ele>286.7</ele>
        <time>2020-06-29T14:59:02Z</time>
      </trkpt>
      <trkpt lat="48.69179" lon="6.0339">
        <ele>286.7</ele>
        <time>2020-06-29T14:59:03Z</time>
      </trkpt>
      <trkpt lat="48.69178" lon="6.03381">
        <ele>286.6</ele>
        <time>2020-06-29T14:59:04Z</time>
      </trkpt>
      <trkpt lat="48.69177" lon="6.03371">
        <ele>286.5</ele>
        <time>2020-06-29T14:59:05Z</time>
      </trkpt>
      <trkpt lat="48.69176" lon="6.03362">
        <ele>286.4</ele>
        <time>2020-06-29T14:59:06Z</time>
      </trkpt>
      <trkpt lat="48.69176" lon="6.03352">
        <ele>286.3</ele>
        <time>2020-06-29T14:59:07Z</time>
      </trkpt>
      <trkpt lat="48.69175" lon="6.03342">
        <ele>286.2</ele>
        <time>2020-06-29T14:59:08Z</time>
      </trkpt>
      <trkpt lat="48.69175" lon="6.03333">
        <ele>286.1</ele>
        <time>2020-06-29T14:59:09Z</time>
      </trkpt>
      <trkpt lat="48.69174" lon="6.03324">
        <ele>286</ele>
        <time>2020-06-29T14:59:10Z</time>
      </trkpt>
      <trkpt lat="48.69174" lon="6.03316">
        <ele>285.9</ele>
        <time>2020-06-29T14:59:11Z</time>
      </trkpt>
      <trkpt lat="48.69174" lon="6.03308">
        <ele>285.9</ele>
        <time>2020-06-29T14:59:12Z</time>
      </trkpt>
      <trkpt lat="48.69174" lon="6.033">
        <ele>285.9</ele>
        <time>2020-06-29T14:59:13Z</time>
      </trkpt>
      <trkpt lat="48.69173" lon="6.03294">
        <ele>285.9</ele>
        <time>2020-06-29T14:59:14Z</time>
      </trkpt>
      <trkpt lat="48.69172" lon="6.03288">
        <ele>285.8</ele>
        <time>2020-06-29T14:59:15Z</time>
      </trkpt>
      <trkpt lat="48.69172" lon="6.03281">
        <ele>285.7</ele>
        <time>2020-06-29T14:59:16Z</time>
      </trkpt>
      <trkpt lat="48.69171" lon="6.03275">
        <ele>285.6</ele>
        <time>2020-06-29T14:59:17Z</time>
      </trkpt>
      <trkpt lat="48.69173" lon="6.03269">
        <ele>285.5</ele>
        <time>2020-06-29T14:59:18Z</time>
      </trkpt>
      <trkpt lat="48.69173" lon="6.03262">
        <ele>285.4</ele>
        <time>2020-06-29T14:59:19Z</time>
      </trkpt>
      <trkpt lat="48.69173" lon="6.03255">
        <ele>285.3</ele>
        <time>2020-06-29T14:59:20Z</time>
      </trkpt>
      <trkpt lat="48.69173" lon="6.03247">
        <ele>285.2</ele>
        <time>2020-06-29T14:59:21Z</time>
      </trkpt>
      <trkpt lat="48.69172" lon="6.0324">
        <ele>285.1</ele>
        <time>2020-06-29T14:59:22Z</time>
      </trkpt>
      <trkpt lat="48.69171" lon="6.03232">
        <ele>285.1</ele>
        <time>2020-06-29T14:59:23Z</time>
      </trkpt>
      <trkpt lat="48.69169" lon="6.03225">
        <ele>285</ele>
        <time>2020-06-29T14:59:24Z</time>
      </trkpt>
      <trkpt lat="48.69168" lon="6.03218">
        <ele>284.9</ele>
        <time>2020-06-29T14:59:25Z</time>
      </trkpt>
      <trkpt lat="48.69168" lon="6.0321">
        <ele>284.8</ele>
        <time>2020-06-29T14:59:26Z</time>
      </trkpt>
      <trkpt lat="48.69168" lon="6.03202">
        <ele>284.7</ele>
        <time>2020-06-29T14:59:27Z</time>
      </trkpt>
      <trkpt lat="48.69167" lon="6.03194">
        <ele>284.5</ele>
        <time>2020-06-29T14:59:28Z</time>
      </trkpt>
      <trkpt lat="48.69166" lon="6.03186">
        <ele>284.4</ele>
        <time>2020-06-29T14:59:29Z</time>
      </trkpt>
      <trkpt lat="48.69166" lon="6.03177">
        <ele>284.2</ele>
        <time>2020-06-29T14:59:30Z</time>
      </trkpt>
      <trkpt lat="48.69165" lon="6.03169">
        <ele>284</ele>
        <time>2020-06-29T14:59:31Z</time>
      </trkpt>
      <trkpt lat="48.69165" lon="6.0316">
        <ele>283.8</ele>
        <time>2020-06-29T14:59:32Z</time>
      </trkpt>
      <trkpt lat="48.69165" lon="6.03152">
        <ele>283.5</ele>
        <time>2020-06-29T14:59:33Z</time>
      </trkpt>
      <trkpt lat="48.69164" lon="6.03143">
        <ele>283.3</ele>
        <time>2020-06-29T14:59:34Z</time>
      </trkpt>
      <trkpt lat="48.69163" lon="6.03135">
        <ele>283</ele>
        <time>2020-06-29T14:59:35Z</time>
      </trkpt>
      <trkpt lat="48.69162" lon="6.03126">
        <ele>282.7</ele>
        <time>2020-06-29T14:59:36Z</time>
      </trkpt>
      <trkpt lat="48.69161" lon="6.03117">
        <ele>282.4</ele>
        <time>2020-06-29T14:59:37Z</time>
      </trkpt>
      <trkpt lat="48.6916" lon="6.03107">
        <ele>282.1</ele>
        <time>2020-06-29T14:59:38Z</time>
      </trkpt>
      <trkpt lat="48.6916" lon="6.03096">
        <ele>281.7</ele>
        <time>2020-06-29T14:59:39Z</time>
      </trkpt>
      <trkpt lat="48.69161" lon="6.03085">
        <ele>281.4</ele>
        <time>2020-06-29T14:59:40Z</time>
      </trkpt>
      <trkpt lat="48.69159" lon="6.03074">
        <ele>281</ele>
        <time>2020-06-29T14:59:41Z</time>
      </trkpt>
      <trkpt lat="48.69158" lon="6.03063">
        <ele>280.8</ele>
        <time>2020-06-29T14:59:42Z</time>
      </trkpt>
      <trkpt lat="48.69156" lon="6.03052">
        <ele>280.5</ele>
        <time>2020-06-29T14:59:43Z</time>
      </trkpt>
      <trkpt lat="48.69154" lon="6.0304">
        <ele>280.2</ele>
        <time>2020-06-29T14:59:44Z</time>
      </trkpt>
      <trkpt lat="48.69153" lon="6.03029">
        <ele>279.9</ele>
        <time>2020-06-29T14:59:45Z</time>
      </trkpt>
      <trkpt lat="48.69152" lon="6.03017">
        <ele>279.6</ele>
        <time>2020-06-29T14:59:46Z</time>
      </trkpt>
      <trkpt lat="48.69151" lon="6.03005">
        <ele>279.4</ele>
        <time>2020-06-29T14:59:47Z</time>
      </trkpt>
      <trkpt lat="48.6915" lon="6.02993">
        <ele>279.1</ele>
        <time>2020-06-29T14:59:48Z</time>
      </trkpt>
      <trkpt lat="48.69148" lon="6.02982">
        <ele>278.8</ele>
        <time>2020-06-29T14:59:49Z</time>
      </trkpt>
      <trkpt lat="48.69147" lon="6.0297">
        <ele>278.5</ele>
        <time>2020-06-29T14:59:50Z</time>
      </trkpt>
      <trkpt lat="48.69145" lon="6.02959">
        <ele>278.3</ele>
        <time>2020-06-29T14:59:51Z</time>
      </trkpt>
      <trkpt lat="48.69145" lon="6.02947">
        <ele>278</ele>
        <time>2020-06-29T14:59:52Z</time>
      </trkpt>
      <trkpt lat="48.69144" lon="6.02935">
        <ele>277.7</ele>
        <time>2020-06-29T14:59:53Z</time>
      </trkpt>
      <trkpt lat="48.69143" lon="6.02924">
        <ele>277.4</ele>
        <time>2020-06-29T14:59:54Z</time>
      </trkpt>
      <trkpt lat="48.69142" lon="6.02912">
        <ele>277.1</ele>
        <time>2020-06-29T14:59:55Z</time>
      </trkpt>
      <trkpt lat="48.69142" lon="6.029">
        <ele>276.9</ele>
        <time>2020-06-29T14:59:56Z</time>
      </trkpt>
      <trkpt lat="48.6914" lon="6.02889">
        <ele>276.6</ele>
        <time>2020-06-29T14:59:57Z</time>
      </trkpt>
      <trkpt lat="48.69139" lon="6.02878">
        <ele>276.4</ele>
        <time>2020-06-29T14:59:58Z</time>
      </trkpt>
      <trkpt lat="48.69137" lon="6.02866">
        <ele>276.1</ele>
        <time>2020-06-29T14:59:59Z</time>
      </trkpt>
      <trkpt lat="48.69136" lon="6.02854">
        <ele>275.8</ele>
        <time>2020-06-29T15:00:00Z</time>
      </trkpt>
      <trkpt lat="48.69135" lon="6.02842">
        <ele>275.6</ele>
        <time>2020-06-29T15:00:01Z</time>
      </trkpt>
      <trkpt lat="48.69134" lon="6.0283">
        <ele>275.3</ele>
        <time>2020-06-29T15:00:02Z</time>
      </trkpt>
      <trkpt lat="48.69133" lon="6.02818">
        <ele>275</ele>
        <time>2020-06-29T15:00:03Z</time>
      </trkpt>
      <trkpt lat="48.69131" lon="6.02806">
        <ele>274.8</ele>
        <time>2020-06-29T15:00:04Z</time>
      </trkpt>
      <trkpt lat="48.6913" lon="6.02794">
        <ele>274.6</ele>
        <time>2020-06-29T15:00:05Z</time>
      </trkpt>
      <trkpt lat="48.6913" lon="6.02781">
        <ele>274.4</ele>
        <time>2020-06-29T15:00:06Z</time>
      </trkpt>
      <trkpt lat="48.69128" lon="6.02769">
        <ele>274.2</ele>
        <time>2020-06-29T15:00:07Z</time>
      </trkpt>
      <trkpt lat="48.69127" lon="6.02758">
        <ele>274</ele>
        <time>2020-06-29T15:00:08Z</time>
      </trkpt>
      <trkpt lat="48.69127" lon="6.02746">
        <ele>273.8</ele>
        <time>2020-06-29T15:00:09Z</time>
      </trkpt>
      <trkpt lat="48.69127" lon="6.02734">
        <ele>273.5</ele>
        <time>2020-06-29T15:00:10Z</time>
      </trkpt>
      <trkpt lat="48.69126" lon="6.02722">
        <ele>273.3</ele>
        <time>2020-06-29T15:00:11Z</time>
      </trkpt>
      <trkpt lat="48.69125" lon="6.02709">
        <ele>273.1</ele>
        <time>2020-06-29T15:00:12Z</time>
      </trkpt>
      <trkpt lat="48.69124" lon="6.02697">
        <ele>272.9</ele>
        <time>2020-06-29T15:00:13Z</time>
      </trkpt>
      <trkpt lat="48.69124" lon="6.02685">
        <ele>272.6</ele>
        <time>2020-06-29T15:00:14Z</time>
      </trkpt>
      <trkpt lat="48.69124" lon="6.02673">
        <ele>272.4</ele>
        <time>2020-06-29T15:00:15Z</time>
      </trkpt>
      <trkpt lat="48.69123" lon="6.02662">
        <ele>272.3</ele>
        <time>2020-06-29T15:00:16Z</time>
      </trkpt>
      <trkpt lat="48.69121" lon="6.02651">
        <ele>272.1</ele>
        <time>2020-06-29T15:00:17Z</time>
      </trkpt>
      <trkpt lat="48.6912" lon="6.0264">
        <ele>272</ele>
        <time>2020-06-29T15:00:18Z</time>
      </trkpt>
      <trkpt lat="48.69119" lon="6.02628">
        <ele>271.8</ele>
        <time>2020-06-29T15:00:19Z</time>
      </trkpt>
      <trkpt lat="48.69118" lon="6.02617">
        <ele>271.8</ele>
        <time>2020-06-29T15:00:20Z</time>
      </trkpt>
      <trkpt lat="48.69117" lon="6.02606">
        <ele>271.8</ele>
        <time>2020-06-29T15:00:21Z</time>
      </trkpt>
      <trkpt lat="48.69117" lon="6.02594">
        <ele>271.9</ele>
        <time>2020-06-29T15:00:22Z</time>
      </trkpt>
      <trkpt lat="48.69116" lon="6.02582">
        <ele>271.9</ele>
        <time>2020-06-29T15:00:23Z</time>
      </trkpt>
      <trkpt lat="48.69115" lon="6.02571">
        <ele>271.8</ele>
        <time>2020-06-29T15:00:24Z</time>
      </trkpt>
      <trkpt lat="48.69114" lon="6.02559">
        <ele>271.7</ele>
        <time>2020-06-29T15:00:25Z</time>
      </trkpt>
      <trkpt lat="48.69113" lon="6.02547">
        <ele>271.5</ele>
        <time>2020-06-29T15:00:26Z</time>
      </trkpt>
      <trkpt lat="48.69112" lon="6.02536">
        <ele>271.4</ele>
        <time>2020-06-29T15:00:27Z</time>
      </trkpt>
      <trkpt lat="48.69111" lon="6.02524">
        <ele>271.3</ele>
        <time>2020-06-29T15:00:28Z</time>
      </trkpt>
      <trkpt lat="48.69111" lon="6.02514">
        <ele>271.2</ele>
        <time>2020-06-29T15:00:29Z</time>
      </trkpt>
      <trkpt lat="48.6911" lon="6.02502">
        <ele>271.1</ele>
        <time>2020-06-29T15:00:30Z</time>
      </trkpt>
      <trkpt lat="48.69109" lon="6.0249">
        <ele>271.1</ele>
        <time>2020-06-29T15:00:31Z</time>
      </trkpt>
      <trkpt lat="48.69108" lon="6.02479">
        <ele>271.1</ele>
        <time>2020-06-29T15:00:32Z</time>
      </trkpt>
      <trkpt lat="48.69107" lon="6.02468">
        <ele>271.2</ele>
        <time>2020-06-29T15:00:33Z</time>
      </trkpt>
      <trkpt lat="48.69106" lon="6.02456">
        <ele>270.7</ele>
        <time>2020-06-29T15:00:34Z</time>
      </trkpt>
      <trkpt lat="48.69105" lon="6.02444">
        <ele>270.1</ele>
        <time>2020-06-29T15:00:35Z</time>
      </trkpt>
      <trkpt lat="48.69104" lon="6.02432">
        <ele>269.6</ele>
        <time>2020-06-29T15:00:36Z</time>
      </trkpt>
      <trkpt lat="48.69103" lon="6.0242">
        <ele>269.3</ele>
        <time>2020-06-29T15:00:37Z</time>
      </trkpt>
      <trkpt lat="48.69102" lon="6.02408">
        <ele>269.1</ele>
        <time>2020-06-29T15:00:38Z</time>
      </trkpt>
      <trkpt lat="48.69101" lon="6.02396">
        <ele>268.8</ele>
        <time>2020-06-29T15:00:39Z</time>
      </trkpt>
      <trkpt lat="48.691" lon="6.02384">
        <ele>268.6</ele>
        <time>2020-06-29T15:00:40Z</time>
      </trkpt>
      <trkpt lat="48.69098" lon="6.02372">
        <ele>268.4</ele>
        <time>2020-06-29T15:00:41Z</time>
      </trkpt>
      <trkpt lat="48.69097" lon="6.0236">
        <ele>268.3</ele>
        <time>2020-06-29T15:00:42Z</time>
      </trkpt>
      <trkpt lat="48.69096" lon="6.02348">
        <ele>268.1</ele>
        <time>2020-06-29T15:00:43Z</time>
      </trkpt>
      <trkpt lat="48.69096" lon="6.02336">
        <ele>267.9</ele>
        <time>2020-06-29T15:00:44Z</time>
      </trkpt>
      <trkpt lat="48.69095" lon="6.02325">
        <ele>267.7</ele>
        <time>2020-06-29T15:00:45Z</time>
      </trkpt>
      <trkpt lat="48.69094" lon="6.02313">
        <ele>267.5</ele>
        <time>2020-06-29T15:00:46Z</time>
      </trkpt>
      <trkpt lat="48.69092" lon="6.02302">
        <ele>267.4</ele>
        <time>2020-06-29T15:00:47Z</time>
      </trkpt>
      <trkpt lat="48.69091" lon="6.02291">
        <ele>267.3</ele>
        <time>2020-06-29T15:00:48Z</time>
      </trkpt>
      <trkpt lat="48.69089" lon="6.0228">
        <ele>267.2</ele>
        <time>2020-06-29T15:00:49Z</time>
      </trkpt>
      <trkpt lat="48.69088" lon="6.02268">
        <ele>267</ele>
        <time>2020-06-29T15:00:50Z</time>
      </trkpt>
      <trkpt lat="48.69087" lon="6.02257">
        <ele>266.8</ele>
        <time>2020-06-29T15:00:51Z</time>
      </trkpt>
      <trkpt lat="48.69086" lon="6.02246">
        <ele>266.7</ele>
        <time>2020-06-29T15:00:52Z</time>
      </trkpt>
      <trkpt lat="48.69085" lon="6.02236">
        <ele>266.5</ele>
        <time>2020-06-29T15:00:53Z</time>
      </trkpt>
      <trkpt lat="48.69084" lon="6.02225">
        <ele>266.4</ele>
        <time>2020-06-29T15:00:54Z</time>
      </trkpt>
      <trkpt lat="48.69082" lon="6.02215">
        <ele>266.3</ele>
        <time>2020-06-29T15:00:55Z</time>
      </trkpt>
      <trkpt lat="48.69082" lon="6.02204">
        <ele>266.2</ele>
        <time>2020-06-29T15:00:56Z</time>
      </trkpt>
      <trkpt lat="48.6908" lon="6.02194">
        <ele>266.1</ele>
        <time>2020-06-29T15:00:57Z</time>
      </trkpt>
      <trkpt lat="48.69079" lon="6.02183">
        <ele>265.9</ele>
        <time>2020-06-29T15:00:58Z</time>
      </trkpt>
      <trkpt lat="48.69079" lon="6.02173">
        <ele>265.8</ele>
        <time>2020-06-29T15:00:59Z</time>
      </trkpt>
      <trkpt lat="48.69079" lon="6.02162">
        <ele>265.7</ele>
        <time>2020-06-29T15:01:00Z</time>
      </trkpt>
      <trkpt lat="48.69078" lon="6.02152">
        <ele>265.6</ele>
        <time>2020-06-29T15:01:01Z</time>
      </trkpt>
      <trkpt lat="48.69077" lon="6.02141">
        <ele>265.4</ele>
        <time>2020-06-29T15:01:02Z</time>
      </trkpt>
      <trkpt lat="48.69076" lon="6.02132">
        <ele>265.3</ele>
        <time>2020-06-29T15:01:03Z</time>
      </trkpt>
      <trkpt lat="48.69075" lon="6.02122">
        <ele>265.2</ele>
        <time>2020-06-29T15:01:04Z</time>
      </trkpt>
      <trkpt lat="48.69075" lon="6.02112">
        <ele>265.1</ele>
        <time>2020-06-29T15:01:05Z</time>
      </trkpt>
      <trkpt lat="48.69074" lon="6.02102">
        <ele>265</ele>
        <time>2020-06-29T15:01:06Z</time>
      </trkpt>
      <trkpt lat="48.69073" lon="6.02092">
        <ele>265</ele>
        <time>2020-06-29T15:01:07Z</time>
      </trkpt>
      <trkpt lat="48.69073" lon="6.02082">
        <ele>264.9</ele>
        <time>2020-06-29T15:01:08Z</time>
      </trkpt>
      <trkpt lat="48.69072" lon="6.02071">
        <ele>264.8</ele>
        <time>2020-06-29T15:01:09Z</time>
      </trkpt>
      <trkpt lat="48.69072" lon="6.02061">
        <ele>264.8</ele>
        <time>2020-06-29T15:01:10Z</time>
      </trkpt>
      <trkpt lat="48.6907" lon="6.02051">
        <ele>264.7</ele>
        <time>2020-06-29T15:01:11Z</time>
      </trkpt>
      <trkpt lat="48.6907" lon="6.02041">
        <ele>264.7</ele>
        <time>2020-06-29T15:01:12Z</time>
      </trkpt>
      <trkpt lat="48.69069" lon="6.02031">
        <ele>264.6</ele>
        <time>2020-06-29T15:01:13Z</time>
      </trkpt>
      <trkpt lat="48.69068" lon="6.02022">
        <ele>264.6</ele>
        <time>2020-06-29T15:01:14Z</time>
      </trkpt>
      <trkpt lat="48.69067" lon="6.02012">
        <ele>264.5</ele>
        <time>2020-06-29T15:01:15Z</time>
      </trkpt>
      <trkpt lat="48.69066" lon="6.02002">
        <ele>264.5</ele>
        <time>2020-06-29T15:01:16Z</time>
      </trkpt>
      <trkpt lat="48.69065" lon="6.01993">
        <ele>264.4</ele>
        <time>2020-06-29T15:01:17Z</time>
      </trkpt>
      <trkpt lat="48.69064" lon="6.01983">
        <ele>264.3</ele>
        <time>2020-06-29T15:01:18Z</time>
      </trkpt>
      <trkpt lat="48.69063" lon="6.01973">
        <ele>264.2</ele>
        <time>2020-06-29T15:01:19Z</time>
      </trkpt>
      <trkpt lat="48.69062" lon="6.01963">
        <ele>264</ele>
        <time>2020-06-29T15:01:20Z</time>
      </trkpt>
      <trkpt lat="48.69061" lon="6.01953">
        <ele>263.9</ele>
        <time>2020-06-29T15:01:21Z</time>
      </trkpt>
      <trkpt lat="48.6906" lon="6.01943">
        <ele>263.8</ele>
        <time>2020-06-29T15:01:22Z</time>
      </trkpt>
      <trkpt lat="48.69059" lon="6.01934">
        <ele>263.7</ele>
        <time>2020-06-29T15:01:23Z</time>
      </trkpt>
      <trkpt lat="48.69058" lon="6.01924">
        <ele>263.6</ele>
        <time>2020-06-29T15:01:24Z</time>
      </trkpt>
      <trkpt lat="48.69057" lon="6.01914">
        <ele>263.6</ele>
        <time>2020-06-29T15:01:25Z</time>
      </trkpt>
      <trkpt lat="48.69056" lon="6.01904">
        <ele>263.5</ele>
        <time>2020-06-29T15:01:26Z</time>
      </trkpt>
      <trkpt lat="48.69055" lon="6.01894">
        <ele>263.4</ele>
        <time>2020-06-29T15:01:27Z</time>
      </trkpt>
      <trkpt lat="48.69054" lon="6.01885">
        <ele>263.3</ele>
        <time>2020-06-29T15:01:28Z</time>
      </trkpt>
      <trkpt lat="48.69053" lon="6.01875">
        <ele>263.2</ele>
        <time>2020-06-29T15:01:29Z</time>
      </trkpt>
      <trkpt lat="48.69052" lon="6.01865">
        <ele>263.1</ele>
        <time>2020-06-29T15:01:30Z</time>
      </trkpt>
      <trkpt lat="48.69052" lon="6.01855">
        <ele>263</ele>
        <time>2020-06-29T15:01:31Z</time>
      </trkpt>
      <trkpt lat="48.69051" lon="6.01846">
        <ele>262.9</ele>
        <time>2020-06-29T15:01:32Z</time>
      </trkpt>
      <trkpt lat="48.6905" lon="6.01836">
        <ele>262.7</ele>
        <time>2020-06-29T15:01:33Z</time>
      </trkpt>
      <trkpt lat="48.69049" lon="6.01826">
        <ele>262.7</ele>
        <time>2020-06-29T15:01:34Z</time>
      </trkpt>
      <trkpt lat="48.69048" lon="6.01816">
        <ele>262.6</ele>
        <time>2020-06-29T15:01:35Z</time>
      </trkpt>
      <trkpt lat="48.69047" lon="6.01806">
        <ele>262.5</ele>
        <time>2020-06-29T15:01:36Z</time>
      </trkpt>
      <trkpt lat="48.69046" lon="6.01797">
        <ele>262.3</ele>
        <time>2020-06-29T15:01:37Z</time>
      </trkpt>
      <trkpt lat="48.69045" lon="6.01787">
        <ele>262.2</ele>
        <time>2020-06-29T15:01:38Z</time>
      </trkpt>
      <trkpt lat="48.69044" lon="6.01777">
        <ele>262.1</ele>
        <time>2020-06-29T15:01:39Z</time>
      </trkpt>
      <trkpt lat="48.69043" lon="6.01768">
        <ele>262</ele>
        <time>2020-06-29T15:01:40Z</time>
      </trkpt>
      <trkpt lat="48.69043" lon="6.01758">
        <ele>261.8</ele>
        <time>2020-06-29T15:01:41Z</time>
      </trkpt>
      <trkpt lat="48.69043" lon="6.01748">
        <ele>261.7</ele>
        <time>2020-06-29T15:01:42Z</time>
      </trkpt>
      <trkpt lat="48.69042" lon="6.01739">
        <ele>261.6</ele>
        <time>2020-06-29T15:01:43Z</time>
      </trkpt>
      <trkpt lat="48.69041" lon="6.0173">
        <ele>261.5</ele>
        <time>2020-06-29T15:01:44Z</time>
      </trkpt>
      <trkpt lat="48.6904" lon="6.0172">
        <ele>261.4</ele>
        <time>2020-06-29T15:01:45Z</time>
      </trkpt>
      <trkpt lat="48.69039" lon="6.01711">
        <ele>261.3</ele>
        <time>2020-06-29T15:01:46Z</time>
      </trkpt>
      <trkpt lat="48.69039" lon="6.01701">
        <ele>261.2</ele>
        <time>2020-06-29T15:01:47Z</time>
      </trkpt>
      <trkpt lat="48.69038" lon="6.01691">
        <ele>261.1</ele>
        <time>2020-06-29T15:01:48Z</time>
      </trkpt>
      <trkpt lat="48.69037" lon="6.01681">
        <ele>261</ele>
        <time>2020-06-29T15:01:49Z</time>
      </trkpt>
      <trkpt lat="48.69036" lon="6.01671">
        <ele>261</ele>
        <time>2020-06-29T15:01:50Z</time>
      </trkpt>
      <trkpt lat="48.69035" lon="6.01661">
        <ele>260.7</ele>
        <time>2020-06-29T15:01:51Z</time>
      </trkpt>
      <trkpt lat="48.69035" lon="6.0165">
        <ele>260.5</ele>
        <time>2020-06-29T15:01:52Z</time>
      </trkpt>
      <trkpt lat="48.69034" lon="6.01639">
        <ele>260.4</ele>
        <time>2020-06-29T15:01:53Z</time>
      </trkpt>
      <trkpt lat="48.69032" lon="6.01628">
        <ele>260.3</ele>
        <time>2020-06-29T15:01:54Z</time>
      </trkpt>
      <trkpt lat="48.69031" lon="6.01617">
        <ele>260.2</ele>
        <time>2020-06-29T15:01:55Z</time>
      </trkpt>
      <trkpt lat="48.6903" lon="6.01607">
        <ele>260.1</ele>
        <time>2020-06-29T15:01:56Z</time>
      </trkpt>
      <trkpt lat="48.69029" lon="6.01596">
        <ele>260</ele>
        <time>2020-06-29T15:01:57Z</time>
      </trkpt>
      <trkpt lat="48.69028" lon="6.01586">
        <ele>260</ele>
        <time>2020-06-29T15:01:58Z</time>
      </trkpt>
      <trkpt lat="48.69027" lon="6.01576">
        <ele>260</ele>
        <time>2020-06-29T15:01:59Z</time>
      </trkpt>
      <trkpt lat="48.69027" lon="6.01567">
        <ele>260</ele>
        <time>2020-06-29T15:02:00Z</time>
      </trkpt>
      <trkpt lat="48.69026" lon="6.01558">
        <ele>260</ele>
        <time>2020-06-29T15:02:01Z</time>
      </trkpt>
      <trkpt lat="48.69025" lon="6.0155">
        <ele>260</ele>
        <time>2020-06-29T15:02:02Z</time>
      </trkpt>
      <trkpt lat="48.69024" lon="6.01541">
        <ele>260</ele>
        <time>2020-06-29T15:02:03Z</time>
      </trkpt>
      <trkpt lat="48.69023" lon="6.01533">
        <ele>260</ele>
        <time>2020-06-29T15:02:04Z</time>
      </trkpt>
      <trkpt lat="48.69023" lon="6.01524">
        <ele>260</ele>
        <time>2020-06-29T15:02:05Z</time>
      </trkpt>
      <trkpt lat="48.69023" lon="6.01516">
        <ele>260</ele>
        <time>2020-06-29T15:02:06Z</time>
      </trkpt>
      <trkpt lat="48.69022" lon="6.01508">
        <ele>260</ele>
        <time>2020-06-29T15:02:07Z</time>
      </trkpt>
      <trkpt lat="48.69021" lon="6.015">
        <ele>260</ele>
        <time>2020-06-29T15:02:08Z</time>
      </trkpt>
      <trkpt lat="48.6902" lon="6.01492">
        <ele>260</ele>
        <time>2020-06-29T15:02:09Z</time>
      </trkpt>
      <trkpt lat="48.69019" lon="6.01483">
        <ele>260.1</ele>
        <time>2020-06-29T15:02:10Z</time>
      </trkpt>
      <trkpt lat="48.69018" lon="6.01474">
        <ele>260.1</ele>
        <time>2020-06-29T15:02:11Z</time>
      </trkpt>
      <trkpt lat="48.69018" lon="6.01465">
        <ele>260.2</ele>
        <time>2020-06-29T15:02:12Z</time>
      </trkpt>
      <trkpt lat="48.69019" lon="6.01456">
        <ele>260.3</ele>
        <time>2020-06-29T15:02:13Z</time>
      </trkpt>
      <trkpt lat="48.69018" lon="6.01448">
        <ele>260.4</ele>
        <time>2020-06-29T15:02:14Z</time>
      </trkpt>
      <trkpt lat="48.69018" lon="6.01438">
        <ele>260.4</ele>
        <time>2020-06-29T15:02:15Z</time>
      </trkpt>
      <trkpt lat="48.69017" lon="6.01429">
        <ele>260.5</ele>
        <time>2020-06-29T15:02:16Z</time>
      </trkpt>
      <trkpt lat="48.69016" lon="6.0142">
        <ele>260.6</ele>
        <time>2020-06-29T15:02:17Z</time>
      </trkpt>
      <trkpt lat="48.69015" lon="6.01412">
        <ele>260.7</ele>
        <time>2020-06-29T15:02:18Z</time>
      </trkpt>
      <trkpt lat="48.69013" lon="6.01404">
        <ele>260.8</ele>
        <time>2020-06-29T15:02:19Z</time>
      </trkpt>
      <trkpt lat="48.69012" lon="6.01396">
        <ele>260.8</ele>
        <time>2020-06-29T15:02:20Z</time>
      </trkpt>
      <trkpt lat="48.69012" lon="6.01388">
        <ele>260.9</ele>
        <time>2020-06-29T15:02:21Z</time>
      </trkpt>
      <trkpt lat="48.69012" lon="6.0138">
        <ele>260.9</ele>
        <time>2020-06-29T15:02:22Z</time>
      </trkpt>
      <trkpt lat="48.69011" lon="6.01373">
        <ele>260.9</ele>
        <time>2020-06-29T15:02:23Z</time>
      </trkpt>
      <trkpt lat="48.6901" lon="6.01365">
        <ele>260.9</ele>
        <time>2020-06-29T15:02:24Z</time>
      </trkpt>
      <trkpt lat="48.69009" lon="6.01357">
        <ele>260.8</ele>
        <time>2020-06-29T15:02:25Z</time>
      </trkpt>
      <trkpt lat="48.69008" lon="6.01349">
        <ele>260.8</ele>
        <time>2020-06-29T15:02:26Z</time>
      </trkpt>
      <trkpt lat="48.69007" lon="6.0134">
        <ele>260.8</ele>
        <time>2020-06-29T15:02:27Z</time>
      </trkpt>
      <trkpt lat="48.69007" lon="6.01332">
        <ele>260.7</ele>
        <time>2020-06-29T15:02:28Z</time>
      </trkpt>
      <trkpt lat="48.69006" lon="6.01323">
        <ele>260.7</ele>
        <time>2020-06-29T15:02:29Z</time>
      </trkpt>
      <trkpt lat="48.69005" lon="6.01314">
        <ele>260.7</ele>
        <time>2020-06-29T15:02:30Z</time>
      </trkpt>
      <trkpt lat="48.69004" lon="6.01305">
        <ele>260.7</ele>
        <time>2020-06-29T15:02:31Z</time>
      </trkpt>
      <trkpt lat="48.69004" lon="6.01295">
        <ele>260.6</ele>
        <time>2020-06-29T15:02:32Z</time>
      </trkpt>
      <trkpt lat="48.69003" lon="6.01286">
        <ele>260.5</ele>
        <time>2020-06-29T15:02:33Z</time>
      </trkpt>
      <trkpt lat="48.69002" lon="6.01277">
        <ele>260.4</ele>
        <time>2020-06-29T15:02:34Z</time>
      </trkpt>
      <trkpt lat="48.69001" lon="6.01267">
        <ele>260.2</ele>
        <time>2020-06-29T15:02:35Z</time>
      </trkpt>
      <trkpt lat="48.69001" lon="6.01258">
        <ele>260.1</ele>
        <time>2020-06-29T15:02:36Z</time>
      </trkpt>
      <trkpt lat="48.69" lon="6.01248">
        <ele>259.9</ele>
        <time>2020-06-29T15:02:37Z</time>
      </trkpt>
      <trkpt lat="48.68999" lon="6.01238">
        <ele>259.7</ele>
        <time>2020-06-29T15:02:38Z</time>
      </trkpt>
      <trkpt lat="48.68999" lon="6.01228">
        <ele>259.6</ele>
        <time>2020-06-29T15:02:39Z</time>
      </trkpt>
      <trkpt lat="48.68998" lon="6.01218">
        <ele>259.4</ele>
        <time>2020-06-29T15:02:40Z</time>
      </trkpt>
      <trkpt lat="48.68997" lon="6.01208">
        <ele>259.2</ele>
        <time>2020-06-29T15:02:41Z</time>
      </trkpt>
      <trkpt lat="48.68996" lon="6.01197">
        <ele>259</ele>
        <time>2020-06-29T15:02:42Z</time>
      </trkpt>
      <trkpt lat="48.68995" lon="6.01187">
        <ele>258.8</ele>
        <time>2020-06-29T15:02:43Z</time>
      </trkpt>
      <trkpt lat="48.68994" lon="6.01177">
        <ele>258.7</ele>
        <time>2020-06-29T15:02:44Z</time>
      </trkpt>
      <trkpt lat="48.68993" lon="6.01166">
        <ele>258.5</ele>
        <time>2020-06-29T15:02:45Z</time>
      </trkpt>
      <trkpt lat="48.68991" lon="6.01155">
        <ele>258.3</ele>
        <time>2020-06-29T15:02:46Z</time>
      </trkpt>
      <trkpt lat="48.6899" lon="6.01145">
        <ele>258</ele>
        <time>2020-06-29T15:02:47Z</time>
      </trkpt>
      <trkpt lat="48.68989" lon="6.01134">
        <ele>257.8</ele>
        <time>2020-06-29T15:02:48Z</time>
      </trkpt>
      <trkpt lat="48.68988" lon="6.01124">
        <ele>257.5</ele>
        <time>2020-06-29T15:02:49Z</time>
      </trkpt>
      <trkpt lat="48.68986" lon="6.01113">
        <ele>257.3</ele>
        <time>2020-06-29T15:02:50Z</time>
      </trkpt>
      <trkpt lat="48.68985" lon="6.01103">
        <ele>257.1</ele>
        <time>2020-06-29T15:02:51Z</time>
      </trkpt>
      <trkpt lat="48.68984" lon="6.01092">
        <ele>257</ele>
        <time>2020-06-29T15:02:52Z</time>
      </trkpt>
      <trkpt lat="48.68983" lon="6.01082">
        <ele>256.8</ele>
        <time>2020-06-29T15:02:53Z</time>
      </trkpt>
      <trkpt lat="48.68982" lon="6.01072">
        <ele>256.6</ele>
        <time>2020-06-29T15:02:54Z</time>
      </trkpt>
      <trkpt lat="48.68981" lon="6.01062">
        <ele>256.5</ele>
        <time>2020-06-29T15:02:55Z</time>
      </trkpt>
      <trkpt lat="48.6898" lon="6.01052">
        <ele>256.4</ele>
        <time>2020-06-29T15:02:56Z</time>
      </trkpt>
      <trkpt lat="48.68979" lon="6.01043">
        <ele>256.3</ele>
        <time>2020-06-29T15:02:57Z</time>
      </trkpt>
      <trkpt lat="48.68978" lon="6.01034">
        <ele>256.2</ele>
        <time>2020-06-29T15:02:58Z</time>
      </trkpt>
      <trkpt lat="48.68978" lon="6.01025">
        <ele>256.1</ele>
        <time>2020-06-29T15:02:59Z</time>
      </trkpt>
      <trkpt lat="48.68978" lon="6.01016">
        <ele>256</ele>
        <time>2020-06-29T15:03:00Z</time>
      </trkpt>
      <trkpt lat="48.68977" lon="6.01007">
        <ele>255.9</ele>
        <time>2020-06-29T15:03:01Z</time>
      </trkpt>
      <trkpt lat="48.68976" lon="6.00998">
        <ele>255.9</ele>
        <time>2020-06-29T15:03:02Z</time>
      </trkpt>
      <trkpt lat="48.68975" lon="6.00989">
        <ele>255.8</ele>
        <time>2020-06-29T15:03:03Z</time>
      </trkpt>
      <trkpt lat="48.68974" lon="6.0098">
        <ele>255.8</ele>
        <time>2020-06-29T15:03:04Z</time>
      </trkpt>
      <trkpt lat="48.68973" lon="6.00971">
        <ele>255.7</ele>
        <time>2020-06-29T15:03:05Z</time>
      </trkpt>
      <trkpt lat="48.68972" lon="6.00962">
        <ele>255.7</ele>
        <time>2020-06-29T15:03:06Z</time>
      </trkpt>
      <trkpt lat="48.68971" lon="6.00954">
        <ele>255.7</ele>
        <time>2020-06-29T15:03:07Z</time>
      </trkpt>
      <trkpt lat="48.68971" lon="6.00946">
        <ele>255.6</ele>
        <time>2020-06-29T15:03:08Z</time>
      </trkpt>
      <trkpt lat="48.6897" lon="6.00937">
        <ele>255.6</ele>
        <time>2020-06-29T15:03:09Z</time>
      </trkpt>
      <trkpt lat="48.6897" lon="6.00929">
        <ele>255.6</ele>
        <time>2020-06-29T15:03:10Z</time>
      </trkpt>
      <trkpt lat="48.68969" lon="6.00921">
        <ele>255.6</ele>
        <time>2020-06-29T15:03:11Z</time>
      </trkpt>
      <trkpt lat="48.68969" lon="6.00912">
        <ele>255.6</ele>
        <time>2020-06-29T15:03:12Z</time>
      </trkpt>
      <trkpt lat="48.68968" lon="6.00904">
        <ele>255.7</ele>
        <time>2020-06-29T15:03:13Z</time>
      </trkpt>
      <trkpt lat="48.68967" lon="6.00896">
        <ele>255.8</ele>
        <time>2020-06-29T15:03:14Z</time>
      </trkpt>
      <trkpt lat="48.68967" lon="6.00889">
        <ele>255.8</ele>
        <time>2020-06-29T15:03:15Z</time>
      </trkpt>
      <trkpt lat="48.68966" lon="6.00881">
        <ele>255.9</ele>
        <time>2020-06-29T15:03:16Z</time>
      </trkpt>
      <trkpt lat="48.68965" lon="6.00874">
        <ele>256</ele>
        <time>2020-06-29T15:03:17Z</time>
      </trkpt>
      <trkpt lat="48.68964" lon="6.00867">
        <ele>256</ele>
        <time>2020-06-29T15:03:18Z</time>
      </trkpt>
      <trkpt lat="48.68963" lon="6.00859">
        <ele>256</ele>
        <time>2020-06-29T15:03:19Z</time>
      </trkpt>
      <trkpt lat="48.68963" lon="6.00849">
        <ele>256.1</ele>
        <time>2020-06-29T15:03:20Z</time>
      </trkpt>
      <trkpt lat="48.68962" lon="6.00841">
        <ele>256.2</ele>
        <time>2020-06-29T15:03:21Z</time>
      </trkpt>
      <trkpt lat="48.68961" lon="6.00832">
        <ele>256.3</ele>
        <time>2020-06-29T15:03:22Z</time>
      </trkpt>
      <trkpt lat="48.6896" lon="6.00825">
        <ele>256.3</ele>
        <time>2020-06-29T15:03:23Z</time>
      </trkpt>
      <trkpt lat="48.68959" lon="6.00818">
        <ele>256.4</ele>
        <time>2020-06-29T15:03:24Z</time>
      </trkpt>
      <trkpt lat="48.68958" lon="6.0081">
        <ele>256.4</ele>
        <time>2020-06-29T15:03:25Z</time>
      </trkpt>
      <trkpt lat="48.68958" lon="6.00804">
        <ele>256.5</ele>
        <time>2020-06-29T15:03:26Z</time>
      </trkpt>
      <trkpt lat="48.68957" lon="6.00797">
        <ele>256.5</ele>
        <time>2020-06-29T15:03:27Z</time>
      </trkpt>
      <trkpt lat="48.68957" lon="6.00791">
        <ele>256.6</ele>
        <time>2020-06-29T15:03:28Z</time>
      </trkpt>
      <trkpt lat="48.68956" lon="6.00782">
        <ele>256.6</ele>
        <time>2020-06-29T15:03:29Z</time>
      </trkpt>
      <trkpt lat="48.68955" lon="6.00774">
        <ele>256.7</ele>
        <time>2020-06-29T15:03:30Z</time>
      </trkpt>
      <trkpt lat="48.68955" lon="6.00767">
        <ele>256.7</ele>
        <time>2020-06-29T15:03:31Z</time>
      </trkpt>
      <trkpt lat="48.68955" lon="6.0076">
        <ele>256.8</ele>
        <time>2020-06-29T15:03:32Z</time>
      </trkpt>
      <trkpt lat="48.68954" lon="6.00753">
        <ele>256.9</ele>
        <time>2020-06-29T15:03:33Z</time>
      </trkpt>
      <trkpt lat="48.68953" lon="6.00743">
        <ele>257.1</ele>
        <time>2020-06-29T15:03:34Z</time>
      </trkpt>
      <trkpt lat="48.68952" lon="6.00735">
        <ele>257.3</ele>
        <time>2020-06-29T15:03:35Z</time>
      </trkpt>
      <trkpt lat="48.68951" lon="6.00727">
        <ele>257.4</ele>
        <time>2020-06-29T15:03:36Z</time>
      </trkpt>
      <trkpt lat="48.6895" lon="6.00719">
        <ele>257.6</ele>
        <time>2020-06-29T15:03:37Z</time>
      </trkpt>
      <trkpt lat="48.68949" lon="6.00711">
        <ele>257.7</ele>
        <time>2020-06-29T15:03:38Z</time>
      </trkpt>
      <trkpt lat="48.68949" lon="6.00703">
        <ele>257.8</ele>
        <time>2020-06-29T15:03:39Z</time>
      </trkpt>
      <trkpt lat="48.68948" lon="6.00695">
        <ele>257.8</ele>
        <time>2020-06-29T15:03:40Z</time>
      </trkpt>
      <trkpt lat="48.68946" lon="6.00684">
        <ele>257.7</ele>
        <time>2020-06-29T15:03:41Z</time>
      </trkpt>
      <trkpt lat="48.68946" lon="6.00676">
        <ele>257.7</ele>
        <time>2020-06-29T15:03:42Z</time>
      </trkpt>
      <trkpt lat="48.68946" lon="6.00668">
        <ele>257.7</ele>
        <time>2020-06-29T15:03:43Z</time>
      </trkpt>
      <trkpt lat="48.68945" lon="6.0066">
        <ele>257.6</ele>
        <time>2020-06-29T15:03:44Z</time>
      </trkpt>
      <trkpt lat="48.68944" lon="6.00652">
        <ele>257.6</ele>
        <time>2020-06-29T15:03:45Z</time>
      </trkpt>
      <trkpt lat="48.68944" lon="6.00645">
        <ele>257.5</ele>
        <time>2020-06-29T15:03:46Z</time>
      </trkpt>
      <trkpt lat="48.68944" lon="6.00638">
        <ele>257.4</ele>
        <time>2020-06-29T15:03:47Z</time>
      </trkpt>
      <trkpt lat="48.68943" lon="6.00629">
        <ele>257.3</ele>
        <time>2020-06-29T15:03:48Z</time>
      </trkpt>
      <trkpt lat="48.68942" lon="6.00617">
        <ele>257.2</ele>
        <time>2020-06-29T15:03:49Z</time>
      </trkpt>
      <trkpt lat="48.68941" lon="6.00606">
        <ele>257.1</ele>
        <time>2020-06-29T15:03:50Z</time>
      </trkpt>
      <trkpt lat="48.6894" lon="6.00597">
        <ele>257</ele>
        <time>2020-06-29T15:03:51Z</time>
      </trkpt>
      <trkpt lat="48.6894" lon="6.00588">
        <ele>256.9</ele>
        <time>2020-06-29T15:03:52Z</time>
      </trkpt>
      <trkpt lat="48.68938" lon="6.00579">
        <ele>256.7</ele>
        <time>2020-06-29T15:03:53Z</time>
      </trkpt>
      <trkpt lat="48.68937" lon="6.00571">
        <ele>256.6</ele>
        <time>2020-06-29T15:03:54Z</time>
      </trkpt>
      <trkpt lat="48.68936" lon="6.00564">
        <ele>256.4</ele>
        <time>2020-06-29T15:03:55Z</time>
      </trkpt>
      <trkpt lat="48.68935" lon="6.00554">
        <ele>256.2</ele>
        <time>2020-06-29T15:03:56Z</time>
      </trkpt>
      <trkpt lat="48.68934" lon="6.00542">
        <ele>255.9</ele>
        <time>2020-06-29T15:03:57Z</time>
      </trkpt>
      <trkpt lat="48.68933" lon="6.00531">
        <ele>255.7</ele>
        <time>2020-06-29T15:03:58Z</time>
      </trkpt>
      <trkpt lat="48.68932" lon="6.00519">
        <ele>255.4</ele>
        <time>2020-06-29T15:03:59Z</time>
      </trkpt>
      <trkpt lat="48.68931" lon="6.00509">
        <ele>255.2</ele>
        <time>2020-06-29T15:04:00Z</time>
      </trkpt>
      <trkpt lat="48.68931" lon="6.00498">
        <ele>255</ele>
        <time>2020-06-29T15:04:01Z</time>
      </trkpt>
      <trkpt lat="48.6893" lon="6.00488">
        <ele>254.7</ele>
        <time>2020-06-29T15:04:02Z</time>
      </trkpt>
      <trkpt lat="48.6893" lon="6.00476">
        <ele>254.5</ele>
        <time>2020-06-29T15:04:03Z</time>
      </trkpt>
      <trkpt lat="48.68929" lon="6.00464">
        <ele>254.2</ele>
        <time>2020-06-29T15:04:04Z</time>
      </trkpt>
      <trkpt lat="48.68928" lon="6.00453">
        <ele>253.9</ele>
        <time>2020-06-29T15:04:05Z</time>
      </trkpt>
      <trkpt lat="48.68927" lon="6.00442">
        <ele>253.6</ele>
        <time>2020-06-29T15:04:06Z</time>
      </trkpt>
      <trkpt lat="48.68927" lon="6.00431">
        <ele>253.3</ele>
        <time>2020-06-29T15:04:07Z</time>
      </trkpt>
      <trkpt lat="48.68926" lon="6.00418">
        <ele>253.1</ele>
        <time>2020-06-29T15:04:08Z</time>
      </trkpt>
      <trkpt lat="48.68925" lon="6.00406">
        <ele>252.9</ele>
        <time>2020-06-29T15:04:09Z</time>
      </trkpt>
      <trkpt lat="48.68923" lon="6.00393">
        <ele>252.7</ele>
        <time>2020-06-29T15:04:10Z</time>
      </trkpt>
      <trkpt lat="48.68922" lon="6.00382">
        <ele>252.5</ele>
        <time>2020-06-29T15:04:11Z</time>
      </trkpt>
      <trkpt lat="48.68921" lon="6.00371">
        <ele>252.4</ele>
        <time>2020-06-29T15:04:12Z</time>
      </trkpt>
      <trkpt lat="48.6892" lon="6.00359">
        <ele>252.3</ele>
        <time>2020-06-29T15:04:13Z</time>
      </trkpt>
      <trkpt lat="48.68919" lon="6.00348">
        <ele>252.1</ele>
        <time>2020-06-29T15:04:14Z</time>
      </trkpt>
      <trkpt lat="48.68918" lon="6.00336">
        <ele>251.9</ele>
        <time>2020-06-29T15:04:15Z</time>
      </trkpt>
      <trkpt lat="48.68918" lon="6.00325">
        <ele>251.8</ele>
        <time>2020-06-29T15:04:16Z</time>
      </trkpt>
      <trkpt lat="48.68917" lon="6.00315">
        <ele>251.6</ele>
        <time>2020-06-29T15:04:17Z</time>
      </trkpt>
      <trkpt lat="48.68916" lon="6.00304">
        <ele>251.5</ele>
        <time>2020-06-29T15:04:18Z</time>
      </trkpt>
      <trkpt lat="48.68915" lon="6.00293">
        <ele>251.3</ele>
        <time>2020-06-29T15:04:19Z</time>
      </trkpt>
      <trkpt lat="48.68914" lon="6.00283">
        <ele>251.2</ele>
        <time>2020-06-29T15:04:20Z</time>
      </trkpt>
      <trkpt lat="48.68914" lon="6.00272">
        <ele>251.1</ele>
        <time>2020-06-29T15:04:21Z</time>
      </trkpt>
      <trkpt lat="48.68912" lon="6.00262">
        <ele>250.9</ele>
        <time>2020-06-29T15:04:22Z</time>
      </trkpt>
      <trkpt lat="48.68911" lon="6.00251">
        <ele>250.8</ele>
        <time>2020-06-29T15:04:23Z</time>
      </trkpt>
      <trkpt lat="48.68909" lon="6.00241">
        <ele>250.7</ele>
        <time>2020-06-29T15:04:24Z</time>
      </trkpt>
      <trkpt lat="48.68908" lon="6.00231">
        <ele>250.6</ele>
        <time>2020-06-29T15:04:25Z</time>
      </trkpt>
      <trkpt lat="48.68907" lon="6.0022">
        <ele>250.4</ele>
        <time>2020-06-29T15:04:26Z</time>
      </trkpt>
      <trkpt lat="48.68906" lon="6.00209">
        <ele>250.3</ele>
        <time>2020-06-29T15:04:27Z</time>
      </trkpt>
      <trkpt lat="48.68905" lon="6.00199">
        <ele>250.2</ele>
        <time>2020-06-29T15:04:28Z</time>
      </trkpt>
      <trkpt lat="48.68904" lon="6.00188">
        <ele>250.1</ele>
        <time>2020-06-29T15:04:29Z</time>
      </trkpt>
      <trkpt lat="48.68903" lon="6.00178">
        <ele>250.1</ele>
        <time>2020-06-29T15:04:30Z</time>
      </trkpt>
      <trkpt lat="48.68902" lon="6.00168">
        <ele>250</ele>
        <time>2020-06-29T15:04:31Z</time>
      </trkpt>
      <trkpt lat="48.68901" lon="6.00158">
        <ele>250</ele>
        <time>2020-06-29T15:04:32Z</time>
      </trkpt>
      <trkpt lat="48.689" lon="6.00147">
        <ele>250.1</ele>
        <time>2020-06-29T15:04:33Z</time>
      </trkpt>
      <trkpt lat="48.68899" lon="6.00136">
        <ele>250.1</ele>
        <time>2020-06-29T15:04:34Z</time>
      </trkpt>
      <trkpt lat="48.68897" lon="6.00126">
        <ele>250.2</ele>
        <time>2020-06-29T15:04:35Z</time>
      </trkpt>
      <trkpt lat="48.68896" lon="6.00116">
        <ele>250.3</ele>
        <time>2020-06-29T15:04:36Z</time>
      </trkpt>
      <trkpt lat="48.68895" lon="6.00106">
        <ele>250.3</ele>
        <time>2020-06-29T15:04:37Z</time>
      </trkpt>
      <trkpt lat="48.68894" lon="6.00095">
        <ele>250.4</ele>
        <time>2020-06-29T15:04:38Z</time>
      </trkpt>
      <trkpt lat="48.68893" lon="6.00085">
        <ele>250.5</ele>
        <time>2020-06-29T15:04:39Z</time>
      </trkpt>
      <trkpt lat="48.68892" lon="6.00075">
        <ele>250.6</ele>
        <time>2020-06-29T15:04:40Z</time>
      </trkpt>
      <trkpt lat="48.68891" lon="6.00066">
        <ele>250.8</ele>
        <time>2020-06-29T15:04:41Z</time>
      </trkpt>
      <trkpt lat="48.6889" lon="6.00056">
        <ele>250.9</ele>
        <time>2020-06-29T15:04:42Z</time>
      </trkpt>
      <trkpt lat="48.68889" lon="6.00047">
        <ele>251</ele>
        <time>2020-06-29T15:04:43Z</time>
      </trkpt>
      <trkpt lat="48.68889" lon="6.00039">
        <ele>251.1</ele>
        <time>2020-06-29T15:04:44Z</time>
      </trkpt>
      <trkpt lat="48.68888" lon="6.0003">
        <ele>251.2</ele>
        <time>2020-06-29T15:04:45Z</time>
      </trkpt>
      <trkpt lat="48.68888" lon="6.00021">
        <ele>251.3</ele>
        <time>2020-06-29T15:04:46Z</time>
      </trkpt>
      <trkpt lat="48.68886" lon="6.00013">
        <ele>251.4</ele>
        <time>2020-06-29T15:04:47Z</time>
      </trkpt>
      <trkpt lat="48.68886" lon="6.00004">
        <ele>251.5</ele>
        <time>2020-06-29T15:04:48Z</time>
      </trkpt>
      <trkpt lat="48.68885" lon="5.99996">
        <ele>251.7</ele>
        <time>2020-06-29T15:04:49Z</time>
      </trkpt>
      <trkpt lat="48.68885" lon="5.99987">
        <ele>251.8</ele>
        <time>2020-06-29T15:04:50Z</time>
      </trkpt>
      <trkpt lat="48.68886" lon="5.99978">
        <ele>252</ele>
        <time>2020-06-29T15:04:51Z</time>
      </trkpt>
      <trkpt lat="48.68885" lon="5.9997">
        <ele>252.1</ele>
        <time>2020-06-29T15:04:52Z</time>
      </trkpt>
      <trkpt lat="48.68886" lon="5.99961">
        <ele>252.2</ele>
        <time>2020-06-29T15:04:53Z</time>
      </trkpt>
      <trkpt lat="48.68886" lon="5.99954">
        <ele>252.3</ele>
        <time>2020-06-29T15:04:54Z</time>
      </trkpt>
      <trkpt lat="48.68887" lon="5.99946">
        <ele>252.4</ele>
        <time>2020-06-29T15:04:55Z</time>
      </trkpt>
      <trkpt lat="48.68887" lon="5.99938">
        <ele>252.5</ele>
        <time>2020-06-29T15:04:56Z</time>
      </trkpt>
      <trkpt lat="48.68887" lon="5.9993">
        <ele>252.6</ele>
        <time>2020-06-29T15:04:57Z</time>
      </trkpt>
      <trkpt lat="48.68889" lon="5.99922">
        <ele>252.7</ele>
        <time>2020-06-29T15:04:58Z</time>
      </trkpt>
      <trkpt lat="48.6889" lon="5.99913">
        <ele>252.9</ele>
        <time>2020-06-29T15:04:59Z</time>
      </trkpt>
      <trkpt lat="48.6889" lon="5.99905">
        <ele>253</ele>
        <time>2020-06-29T15:05:00Z</time>
      </trkpt>
      <trkpt lat="48.68891" lon="5.99896">
        <ele>253.2</ele>
        <time>2020-06-29T15:05:01Z</time>
      </trkpt>
      <trkpt lat="48.68891" lon="5.99888">
        <ele>253.3</ele>
        <time>2020-06-29T15:05:02Z</time>
      </trkpt>
      <trkpt lat="48.68891" lon="5.9988">
        <ele>253.5</ele>
        <time>2020-06-29T15:05:03Z</time>
      </trkpt>
      <trkpt lat="48.68893" lon="5.99872">
        <ele>253.6</ele>
        <time>2020-06-29T15:05:04Z</time>
      </trkpt>
      <trkpt lat="48.68894" lon="5.99864">
        <ele>253.7</ele>
        <time>2020-06-29T15:05:05Z</time>
      </trkpt>
      <trkpt lat="48.68894" lon="5.99856">
        <ele>253.8</ele>
        <time>2020-06-29T15:05:06Z</time>
      </trkpt>
      <trkpt lat="48.68895" lon="5.99848">
        <ele>253.9</ele>
        <time>2020-06-29T15:05:07Z</time>
      </trkpt>
      <trkpt lat="48.68895" lon="5.9984">
        <ele>254</ele>
        <time>2020-06-29T15:05:08Z</time>
      </trkpt>
      <trkpt lat="48.68895" lon="5.99831">
        <ele>254.1</ele>
        <time>2020-06-29T15:05:09Z</time>
      </trkpt>
      <trkpt lat="48.68896" lon="5.99823">
        <ele>254.2</ele>
        <time>2020-06-29T15:05:10Z</time>
      </trkpt>
      <trkpt lat="48.68898" lon="5.99815">
        <ele>254.3</ele>
        <time>2020-06-29T15:05:11Z</time>
      </trkpt>
      <trkpt lat="48.68898" lon="5.99807">
        <ele>254.4</ele>
        <time>2020-06-29T15:05:12Z</time>
      </trkpt>
      <trkpt lat="48.68898" lon="5.99798">
        <ele>254.6</ele>
        <time>2020-06-29T15:05:13Z</time>
      </trkpt>
      <trkpt lat="48.68898" lon="5.9979">
        <ele>254.7</ele>
        <time>2020-06-29T15:05:14Z</time>
      </trkpt>
      <trkpt lat="48.68899" lon="5.99781">
        <ele>254.8</ele>
        <time>2020-06-29T15:05:15Z</time>
      </trkpt>
      <trkpt lat="48.68899" lon="5.99773">
        <ele>254.9</ele>
        <time>2020-06-29T15:05:16Z</time>
      </trkpt>
      <trkpt lat="48.68899" lon="5.99765">
        <ele>254.9</ele>
        <time>2020-06-29T15:05:17Z</time>
      </trkpt>
      <trkpt lat="48.689" lon="5.99755">
        <ele>255</ele>
        <time>2020-06-29T15:05:18Z</time>
      </trkpt>
      <trkpt lat="48.68901" lon="5.99742">
        <ele>255.1</ele>
        <time>2020-06-29T15:05:19Z</time>
      </trkpt>
      <trkpt lat="48.68901" lon="5.99732">
        <ele>255.2</ele>
        <time>2020-06-29T15:05:20Z</time>
      </trkpt>
      <trkpt lat="48.68902" lon="5.99719">
        <ele>255.3</ele>
        <time>2020-06-29T15:05:21Z</time>
      </trkpt>
      <trkpt lat="48.68901" lon="5.99704">
        <ele>255.3</ele>
        <time>2020-06-29T15:05:22Z</time>
      </trkpt>
      <trkpt lat="48.68902" lon="5.99694">
        <ele>255.3</ele>
        <time>2020-06-29T15:05:23Z</time>
      </trkpt>
      <trkpt lat="48.68902" lon="5.99684">
        <ele>255.4</ele>
        <time>2020-06-29T15:05:24Z</time>
      </trkpt>
      <trkpt lat="48.68903" lon="5.99674">
        <ele>255.4</ele>
        <time>2020-06-29T15:05:25Z</time>
      </trkpt>
      <trkpt lat="48.68904" lon="5.99666">
        <ele>255.4</ele>
        <time>2020-06-29T15:05:26Z</time>
      </trkpt>
      <trkpt lat="48.68905" lon="5.99656">
        <ele>255.5</ele>
        <time>2020-06-29T15:05:27Z</time>
      </trkpt>
      <trkpt lat="48.68905" lon="5.99648">
        <ele>255.5</ele>
        <time>2020-06-29T15:05:28Z</time>
      </trkpt>
      <trkpt lat="48.68905" lon="5.99639">
        <ele>255.6</ele>
        <time>2020-06-29T15:05:29Z</time>
      </trkpt>
      <trkpt lat="48.68905" lon="5.99629">
        <ele>255.7</ele>
        <time>2020-06-29T15:05:30Z</time>
      </trkpt>
      <trkpt lat="48.68905" lon="5.99618">
        <ele>255.8</ele>
        <time>2020-06-29T15:05:31Z</time>
      </trkpt>
      <trkpt lat="48.68906" lon="5.99608">
        <ele>255.7</ele>
        <time>2020-06-29T15:05:32Z</time>
      </trkpt>
      <trkpt lat="48.68905" lon="5.99597">
        <ele>255.6</ele>
        <time>2020-06-29T15:05:33Z</time>
      </trkpt>
      <trkpt lat="48.68906" lon="5.99588">
        <ele>255.6</ele>
        <time>2020-06-29T15:05:34Z</time>
      </trkpt>
      <trkpt lat="48.68906" lon="5.99577">
        <ele>255.5</ele>
        <time>2020-06-29T15:05:35Z</time>
      </trkpt>
      <trkpt lat="48.68906" lon="5.99566">
        <ele>255.4</ele>
        <time>2020-06-29T15:05:36Z</time>
      </trkpt>
      <trkpt lat="48.68906" lon="5.99555">
        <ele>255.3</ele>
        <time>2020-06-29T15:05:37Z</time>
      </trkpt>
      <trkpt lat="48.68907" lon="5.99544">
        <ele>255.2</ele>
        <time>2020-06-29T15:05:38Z</time>
      </trkpt>
      <trkpt lat="48.68908" lon="5.99533">
        <ele>255.1</ele>
        <time>2020-06-29T15:05:39Z</time>
      </trkpt>
      <trkpt lat="48.68908" lon="5.99523">
        <ele>255</ele>
        <time>2020-06-29T15:05:40Z</time>
      </trkpt>
      <trkpt lat="48.68909" lon="5.99511">
        <ele>254.9</ele>
        <time>2020-06-29T15:05:41Z</time>
      </trkpt>
      <trkpt lat="48.6891" lon="5.995">
        <ele>254.7</ele>
        <time>2020-06-29T15:05:42Z</time>
      </trkpt>
      <trkpt lat="48.68911" lon="5.99489">
        <ele>254.6</ele>
        <time>2020-06-29T15:05:43Z</time>
      </trkpt>
      <trkpt lat="48.68911" lon="5.99478">
        <ele>254.4</ele>
        <time>2020-06-29T15:05:44Z</time>
      </trkpt>
      <trkpt lat="48.68912" lon="5.99467">
        <ele>254.2</ele>
        <time>2020-06-29T15:05:45Z</time>
      </trkpt>
      <trkpt lat="48.68912" lon="5.99455">
        <ele>254</ele>
        <time>2020-06-29T15:05:46Z</time>
      </trkpt>
      <trkpt lat="48.68912" lon="5.99444">
        <ele>253.8</ele>
        <time>2020-06-29T15:05:47Z</time>
      </trkpt>
      <trkpt lat="48.68914" lon="5.99433">
        <ele>253.5</ele>
        <time>2020-06-29T15:05:48Z</time>
      </trkpt>
      <trkpt lat="48.68914" lon="5.99421">
        <ele>253.3</ele>
        <time>2020-06-29T15:05:49Z</time>
      </trkpt>
      <trkpt lat="48.68915" lon="5.99409">
        <ele>253.1</ele>
        <time>2020-06-29T15:05:50Z</time>
      </trkpt>
      <trkpt lat="48.68915" lon="5.99398">
        <ele>252.9</ele>
        <time>2020-06-29T15:05:51Z</time>
      </trkpt>
      <trkpt lat="48.68916" lon="5.99386">
        <ele>252.7</ele>
        <time>2020-06-29T15:05:52Z</time>
      </trkpt>
      <trkpt lat="48.68917" lon="5.99373">
        <ele>252.4</ele>
        <time>2020-06-29T15:05:53Z</time>
      </trkpt>
      <trkpt lat="48.68917" lon="5.99361">
        <ele>252.2</ele>
        <time>2020-06-29T15:05:54Z</time>
      </trkpt>
      <trkpt lat="48.68918" lon="5.99349">
        <ele>251.9</ele>
        <time>2020-06-29T15:05:55Z</time>
      </trkpt>
      <trkpt lat="48.68918" lon="5.99336">
        <ele>251.6</ele>
        <time>2020-06-29T15:05:56Z</time>
      </trkpt>
      <trkpt lat="48.68919" lon="5.99324">
        <ele>251.3</ele>
        <time>2020-06-29T15:05:57Z</time>
      </trkpt>
      <trkpt lat="48.6892" lon="5.99311">
        <ele>251.1</ele>
        <time>2020-06-29T15:05:58Z</time>
      </trkpt>
      <trkpt lat="48.68921" lon="5.99299">
        <ele>250.8</ele>
        <time>2020-06-29T15:05:59Z</time>
      </trkpt>
      <trkpt lat="48.68922" lon="5.99287">
        <ele>250.5</ele>
        <time>2020-06-29T15:06:00Z</time>
      </trkpt>
      <trkpt lat="48.68922" lon="5.99274">
        <ele>250.3</ele>
        <time>2020-06-29T15:06:01Z</time>
      </trkpt>
      <trkpt lat="48.68923" lon="5.99262">
        <ele>250</ele>
        <time>2020-06-29T15:06:02Z</time>
      </trkpt>
      <trkpt lat="48.68924" lon="5.99249">
        <ele>249.8</ele>
        <time>2020-06-29T15:06:03Z</time>
      </trkpt>
      <trkpt lat="48.68924" lon="5.99237">
        <ele>249.5</ele>
        <time>2020-06-29T15:06:04Z</time>
      </trkpt>
      <trkpt lat="48.68925" lon="5.99224">
        <ele>249.2</ele>
        <time>2020-06-29T15:06:05Z</time>
      </trkpt>
      <trkpt lat="48.68925" lon="5.99212">
        <ele>249</ele>
        <time>2020-06-29T15:06:06Z</time>
      </trkpt>
      <trkpt lat="48.68925" lon="5.992">
        <ele>248.7</ele>
        <time>2020-06-29T15:06:07Z</time>
      </trkpt>
      <trkpt lat="48.68926" lon="5.99188">
        <ele>248.5</ele>
        <time>2020-06-29T15:06:08Z</time>
      </trkpt>
      <trkpt lat="48.68927" lon="5.99175">
        <ele>248.3</ele>
        <time>2020-06-29T15:06:09Z</time>
      </trkpt>
      <trkpt lat="48.68928" lon="5.99163">
        <ele>248.2</ele>
        <time>2020-06-29T15:06:10Z</time>
      </trkpt>
      <trkpt lat="48.68929" lon="5.9915">
        <ele>248</ele>
        <time>2020-06-29T15:06:11Z</time>
      </trkpt>
      <trkpt lat="48.6893" lon="5.99138">
        <ele>247.8</ele>
        <time>2020-06-29T15:06:12Z</time>
      </trkpt>
      <trkpt lat="48.68931" lon="5.99125">
        <ele>247.6</ele>
        <time>2020-06-29T15:06:13Z</time>
      </trkpt>
      <trkpt lat="48.68931" lon="5.99113">
        <ele>247.5</ele>
        <time>2020-06-29T15:06:14Z</time>
      </trkpt>
      <trkpt lat="48.68932" lon="5.99101">
        <ele>247.3</ele>
        <time>2020-06-29T15:06:15Z</time>
      </trkpt>
      <trkpt lat="48.68933" lon="5.99089">
        <ele>247.2</ele>
        <time>2020-06-29T15:06:16Z</time>
      </trkpt>
      <trkpt lat="48.68933" lon="5.99076">
        <ele>247</ele>
        <time>2020-06-29T15:06:17Z</time>
      </trkpt>
      <trkpt lat="48.68934" lon="5.99064">
        <ele>246.8</ele>
        <time>2020-06-29T15:06:18Z</time>
      </trkpt>
      <trkpt lat="48.68935" lon="5.99051">
        <ele>246.5</ele>
        <time>2020-06-29T15:06:19Z</time>
      </trkpt>
      <trkpt lat="48.68936" lon="5.99039">
        <ele>246.3</ele>
        <time>2020-06-29T15:06:20Z</time>
      </trkpt>
      <trkpt lat="48.68937" lon="5.99027">
        <ele>246.1</ele>
        <time>2020-06-29T15:06:21Z</time>
      </trkpt>
      <trkpt lat="48.68936" lon="5.99014">
        <ele>246</ele>
        <time>2020-06-29T15:06:22Z</time>
      </trkpt>
      <trkpt lat="48.68937" lon="5.99003">
        <ele>245.8</ele>
        <time>2020-06-29T15:06:23Z</time>
      </trkpt>
      <trkpt lat="48.68938" lon="5.98991">
        <ele>245.7</ele>
        <time>2020-06-29T15:06:24Z</time>
      </trkpt>
      <trkpt lat="48.68939" lon="5.98979">
        <ele>245.5</ele>
        <time>2020-06-29T15:06:25Z</time>
      </trkpt>
      <trkpt lat="48.68939" lon="5.98967">
        <ele>245.3</ele>
        <time>2020-06-29T15:06:26Z</time>
      </trkpt>
      <trkpt lat="48.6894" lon="5.98955">
        <ele>245.1</ele>
        <time>2020-06-29T15:06:27Z</time>
      </trkpt>
      <trkpt lat="48.6894" lon="5.98943">
        <ele>244.9</ele>
        <time>2020-06-29T15:06:28Z</time>
      </trkpt>
      <trkpt lat="48.68941" lon="5.98932">
        <ele>244.6</ele>
        <time>2020-06-29T15:06:29Z</time>
      </trkpt>
      <trkpt lat="48.68941" lon="5.9892">
        <ele>244.4</ele>
        <time>2020-06-29T15:06:30Z</time>
      </trkpt>
      <trkpt lat="48.68942" lon="5.98908">
        <ele>244.1</ele>
        <time>2020-06-29T15:06:31Z</time>
      </trkpt>
      <trkpt lat="48.68943" lon="5.98897">
        <ele>243.8</ele>
        <time>2020-06-29T15:06:32Z</time>
      </trkpt>
      <trkpt lat="48.68943" lon="5.98885">
        <ele>243.6</ele>
        <time>2020-06-29T15:06:33Z</time>
      </trkpt>
      <trkpt lat="48.68944" lon="5.98874">
        <ele>243.4</ele>
        <time>2020-06-29T15:06:34Z</time>
      </trkpt>
      <trkpt lat="48.68944" lon="5.98863">
        <ele>243.1</ele>
        <time>2020-06-29T15:06:35Z</time>
      </trkpt>
      <trkpt lat="48.68945" lon="5.98851">
        <ele>242.8</ele>
        <time>2020-06-29T15:06:36Z</time>
      </trkpt>
      <trkpt lat="48.68945" lon="5.9884">
        <ele>242.5</ele>
        <time>2020-06-29T15:06:37Z</time>
      </trkpt>
      <trkpt lat="48.68946" lon="5.98829">
        <ele>242.1</ele>
        <time>2020-06-29T15:06:38Z</time>
      </trkpt>
      <trkpt lat="48.68947" lon="5.98817">
        <ele>241.8</ele>
        <time>2020-06-29T15:06:39Z</time>
      </trkpt>
      <trkpt lat="48.68948" lon="5.98805">
        <ele>241.4</ele>
        <time>2020-06-29T15:06:40Z</time>
      </trkpt>
      <trkpt lat="48.68949" lon="5.98793">
        <ele>240.9</ele>
        <time>2020-06-29T15:06:41Z</time>
      </trkpt>
      <trkpt lat="48.68949" lon="5.98781">
        <ele>240.5</ele>
        <time>2020-06-29T15:06:42Z</time>
      </trkpt>
      <trkpt lat="48.6895" lon="5.98768">
        <ele>240</ele>
        <time>2020-06-29T15:06:43Z</time>
      </trkpt>
      <trkpt lat="48.68951" lon="5.98756">
        <ele>239.5</ele>
        <time>2020-06-29T15:06:44Z</time>
      </trkpt>
      <trkpt lat="48.68952" lon="5.98743">
        <ele>239</ele>
        <time>2020-06-29T15:06:45Z</time>
      </trkpt>
      <trkpt lat="48.68954" lon="5.9873">
        <ele>238.5</ele>
        <time>2020-06-29T15:06:46Z</time>
      </trkpt>
      <trkpt lat="48.68957" lon="5.98717">
        <ele>238</ele>
        <time>2020-06-29T15:06:47Z</time>
      </trkpt>
      <trkpt lat="48.68959" lon="5.98704">
        <ele>237.5</ele>
        <time>2020-06-29T15:06:48Z</time>
      </trkpt>
      <trkpt lat="48.68962" lon="5.98691">
        <ele>236.9</ele>
        <time>2020-06-29T15:06:49Z</time>
      </trkpt>
      <trkpt lat="48.68965" lon="5.98678">
        <ele>236.4</ele>
        <time>2020-06-29T15:06:50Z</time>
      </trkpt>
      <trkpt lat="48.68969" lon="5.98666">
        <ele>235.8</ele>
        <time>2020-06-29T15:06:51Z</time>
      </trkpt>
      <trkpt lat="48.68973" lon="5.98654">
        <ele>235.2</ele>
        <time>2020-06-29T15:06:52Z</time>
      </trkpt>
      <trkpt lat="48.68978" lon="5.98643">
        <ele>234.6</ele>
        <time>2020-06-29T15:06:53Z</time>
      </trkpt>
      <trkpt lat="48.68983" lon="5.98631">
        <ele>234</ele>
        <time>2020-06-29T15:06:54Z</time>
      </trkpt>
      <trkpt lat="48.68988" lon="5.9862">
        <ele>233.4</ele>
        <time>2020-06-29T15:06:55Z</time>
      </trkpt>
      <trkpt lat="48.68994" lon="5.98609">
        <ele>232.9</ele>
        <time>2020-06-29T15:06:56Z</time>
      </trkpt>
      <trkpt lat="48.69" lon="5.98598">
        <ele>232.4</ele>
        <time>2020-06-29T15:06:57Z</time>
      </trkpt>
      <trkpt lat="48.69006" lon="5.98588">
        <ele>232</ele>
        <time>2020-06-29T15:06:58Z</time>
      </trkpt>
      <trkpt lat="48.69013" lon="5.98579">
        <ele>231.5</ele>
        <time>2020-06-29T15:06:59Z</time>
      </trkpt>
      <trkpt lat="48.6902" lon="5.98569">
        <ele>231.1</ele>
        <time>2020-06-29T15:07:00Z</time>
      </trkpt>
      <trkpt lat="48.69026" lon="5.9856">
        <ele>230.6</ele>
        <time>2020-06-29T15:07:01Z</time>
      </trkpt>
      <trkpt lat="48.69033" lon="5.9855">
        <ele>230.2</ele>
        <time>2020-06-29T15:07:02Z</time>
      </trkpt>
      <trkpt lat="48.69039" lon="5.98541">
        <ele>229.9</ele>
        <time>2020-06-29T15:07:03Z</time>
      </trkpt>
      <trkpt lat="48.69046" lon="5.98532">
        <ele>229.7</ele>
        <time>2020-06-29T15:07:04Z</time>
      </trkpt>
      <trkpt lat="48.69051" lon="5.98524">
        <ele>229.5</ele>
        <time>2020-06-29T15:07:05Z</time>
      </trkpt>
      <trkpt lat="48.69057" lon="5.98516">
        <ele>229.3</ele>
        <time>2020-06-29T15:07:06Z</time>
      </trkpt>
      <trkpt lat="48.69063" lon="5.98507">
        <ele>229.2</ele>
        <time>2020-06-29T15:07:07Z</time>
      </trkpt>
      <trkpt lat="48.69068" lon="5.98499">
        <ele>229.2</ele>
        <time>2020-06-29T15:07:08Z</time>
      </trkpt>
      <trkpt lat="48.69073" lon="5.9849">
        <ele>229.2</ele>
        <time>2020-06-29T15:07:09Z</time>
      </trkpt>
      <trkpt lat="48.69078" lon="5.98482">
        <ele>229.2</ele>
        <time>2020-06-29T15:07:10Z</time>
      </trkpt>
      <trkpt lat="48.69082" lon="5.98473">
        <ele>229.3</ele>
        <time>2020-06-29T15:07:11Z</time>
      </trkpt>
      <trkpt lat="48.69086" lon="5.98464">
        <ele>229.4</ele>
        <time>2020-06-29T15:07:12Z</time>
      </trkpt>
      <trkpt lat="48.69089" lon="5.98455">
        <ele>229.5</ele>
        <time>2020-06-29T15:07:13Z</time>
      </trkpt>
      <trkpt lat="48.69092" lon="5.98447">
        <ele>229.7</ele>
        <time>2020-06-29T15:07:14Z</time>
      </trkpt>
      <trkpt lat="48.69095" lon="5.98438">
        <ele>229.8</ele>
        <time>2020-06-29T15:07:15Z</time>
      </trkpt>
      <trkpt lat="48.69097" lon="5.9843">
        <ele>230</ele>
        <time>2020-06-29T15:07:16Z</time>
      </trkpt>
      <trkpt lat="48.69099" lon="5.98422">
        <ele>230.2</ele>
        <time>2020-06-29T15:07:17Z</time>
      </trkpt>
      <trkpt lat="48.69102" lon="5.98414">
        <ele>230.5</ele>
        <time>2020-06-29T15:07:18Z</time>
      </trkpt>
      <trkpt lat="48.69104" lon="5.98406">
        <ele>230.7</ele>
        <time>2020-06-29T15:07:19Z</time>
      </trkpt>
      <trkpt lat="48.69106" lon="5.98398">
        <ele>231</ele>
        <time>2020-06-29T15:07:20Z</time>
      </trkpt>
      <trkpt lat="48.69107" lon="5.9839">
        <ele>231.2</ele>
        <time>2020-06-29T15:07:21Z</time>
      </trkpt>
      <trkpt lat="48.69108" lon="5.98383">
        <ele>231.5</ele>
        <time>2020-06-29T15:07:22Z</time>
      </trkpt>
      <trkpt lat="48.6911" lon="5.98375">
        <ele>231.5</ele>
        <time>2020-06-29T15:07:23Z</time>
      </trkpt>
      <trkpt lat="48.6911" lon="5.98368">
        <ele>231.6</ele>
        <time>2020-06-29T15:07:24Z</time>
      </trkpt>
      <trkpt lat="48.69111" lon="5.9836">
        <ele>231.6</ele>
        <time>2020-06-29T15:07:25Z</time>
      </trkpt>
      <trkpt lat="48.69112" lon="5.98353">
        <ele>231.6</ele>
        <time>2020-06-29T15:07:26Z</time>
      </trkpt>
      <trkpt lat="48.69112" lon="5.98346">
        <ele>231.7</ele>
        <time>2020-06-29T15:07:27Z</time>
      </trkpt>
      <trkpt lat="48.69113" lon="5.98339">
        <ele>231.8</ele>
        <time>2020-06-29T15:07:28Z</time>
      </trkpt>
      <trkpt lat="48.69114" lon="5.98332">
        <ele>231.9</ele>
        <time>2020-06-29T15:07:29Z</time>
      </trkpt>
      <trkpt lat="48.69115" lon="5.98326">
        <ele>232</ele>
        <time>2020-06-29T15:07:30Z</time>
      </trkpt>
      <trkpt lat="48.69117" lon="5.98319">
        <ele>232.1</ele>
        <time>2020-06-29T15:07:31Z</time>
      </trkpt>
      <trkpt lat="48.69118" lon="5.98313">
        <ele>232.3</ele>
        <time>2020-06-29T15:07:32Z</time>
      </trkpt>
      <trkpt lat="48.69119" lon="5.98307">
        <ele>232.4</ele>
        <time>2020-06-29T15:07:33Z</time>
      </trkpt>
      <trkpt lat="48.69119" lon="5.98302">
        <ele>232.5</ele>
        <time>2020-06-29T15:07:34Z</time>
      </trkpt>
      <trkpt lat="48.6912" lon="5.98297">
        <ele>232.7</ele>
        <time>2020-06-29T15:07:35Z</time>
      </trkpt>
      <trkpt lat="48.6912" lon="5.98293">
        <ele>232.8</ele>
        <time>2020-06-29T15:07:36Z</time>
      </trkpt>
      <trkpt lat="48.69122" lon="5.98288">
        <ele>232.9</ele>
        <time>2020-06-29T15:07:37Z</time>
      </trkpt>
      <trkpt lat="48.69122" lon="5.98286">
        <ele>232.9</ele>
        <time>2020-06-29T15:07:38Z</time>
      </trkpt>
      <trkpt lat="48.69125" lon="5.98283">
        <ele>233</ele>
        <time>2020-06-29T15:07:39Z</time>
      </trkpt>
      <trkpt lat="48.69126" lon="5.98284">
        <ele>233</ele>
        <time>2020-06-29T15:07:40Z</time>
      </trkpt>
      <trkpt lat="48.6913" lon="5.98284">
        <ele>233</ele>
        <time>2020-06-29T15:07:41Z</time>
      </trkpt>
      <trkpt lat="48.69135" lon="5.98284">
        <ele>233</ele>
        <time>2020-06-29T15:07:42Z</time>
      </trkpt>
      <trkpt lat="48.69139" lon="5.98282">
        <ele>233</ele>
        <time>2020-06-29T15:07:43Z</time>
      </trkpt>
      <trkpt lat="48.69143" lon="5.98279">
        <ele>233.1</ele>
        <time>2020-06-29T15:07:44Z</time>
      </trkpt>
      <trkpt lat="48.69146" lon="5.98274">
        <ele>233.1</ele>
        <time>2020-06-29T15:07:45Z</time>
      </trkpt>
      <trkpt lat="48.69149" lon="5.98269">
        <ele>233.2</ele>
        <time>2020-06-29T15:07:46Z</time>
      </trkpt>
      <trkpt lat="48.69152" lon="5.98263">
        <ele>233.2</ele>
        <time>2020-06-29T15:07:47Z</time>
      </trkpt>
      <trkpt lat="48.69154" lon="5.98257">
        <ele>233.3</ele>
        <time>2020-06-29T15:07:48Z</time>
      </trkpt>
      <trkpt lat="48.69156" lon="5.9825">
        <ele>233.4</ele>
        <time>2020-06-29T15:07:49Z</time>
      </trkpt>
      <trkpt lat="48.69157" lon="5.98243">
        <ele>233.4</ele>
        <time>2020-06-29T15:07:50Z</time>
      </trkpt>
      <trkpt lat="48.69156" lon="5.98235">
        <ele>233.5</ele>
        <time>2020-06-29T15:07:51Z</time>
      </trkpt>
      <trkpt lat="48.69155" lon="5.98228">
        <ele>233.6</ele>
        <time>2020-06-29T15:07:52Z</time>
      </trkpt>
      <trkpt lat="48.69154" lon="5.98221">
        <ele>233.6</ele>
        <time>2020-06-29T15:07:53Z</time>
      </trkpt>
      <trkpt lat="48.69153" lon="5.98214">
        <ele>233.7</ele>
        <time>2020-06-29T15:07:54Z</time>
      </trkpt>
      <trkpt lat="48.69151" lon="5.98208">
        <ele>233.8</ele>
        <time>2020-06-29T15:07:55Z</time>
      </trkpt>
      <trkpt lat="48.69149" lon="5.98202">
        <ele>233.9</ele>
        <time>2020-06-29T15:07:56Z</time>
      </trkpt>
      <trkpt lat="48.69147" lon="5.98196">
        <ele>234</ele>
        <time>2020-06-29T15:07:57Z</time>
      </trkpt>
      <trkpt lat="48.69145" lon="5.9819">
        <ele>234</ele>
        <time>2020-06-29T15:07:58Z</time>
      </trkpt>
      <trkpt lat="48.69144" lon="5.98183">
        <ele>234</ele>
        <time>2020-06-29T15:07:59Z</time>
      </trkpt>
      <trkpt lat="48.69143" lon="5.98176">
        <ele>234</ele>
        <time>2020-06-29T15:08:00Z</time>
      </trkpt>
      <trkpt lat="48.69145" lon="5.9817">
        <ele>234</ele>
        <time>2020-06-29T15:08:01Z</time>
      </trkpt>
      <trkpt lat="48.69147" lon="5.98162">
        <ele>233.9</ele>
        <time>2020-06-29T15:08:02Z</time>
      </trkpt>
      <trkpt lat="48.69148" lon="5.98155">
        <ele>233.9</ele>
        <time>2020-06-29T15:08:03Z</time>
      </trkpt>
      <trkpt lat="48.69149" lon="5.98147">
        <ele>233.8</ele>
        <time>2020-06-29T15:08:04Z</time>
      </trkpt>
      <trkpt lat="48.69151" lon="5.98139">
        <ele>233.8</ele>
        <time>2020-06-29T15:08:05Z</time>
      </trkpt>
      <trkpt lat="48.69152" lon="5.9813">
        <ele>233.7</ele>
        <time>2020-06-29T15:08:06Z</time>
      </trkpt>
      <trkpt lat="48.69153" lon="5.98122">
        <ele>233.6</ele>
        <time>2020-06-29T15:08:07Z</time>
      </trkpt>
      <trkpt lat="48.69154" lon="5.98113">
        <ele>233.5</ele>
        <time>2020-06-29T15:08:08Z</time>
      </trkpt>
      <trkpt lat="48.69155" lon="5.98104">
        <ele>233.4</ele>
        <time>2020-06-29T15:08:09Z</time>
      </trkpt>
      <trkpt lat="48.69156" lon="5.98095">
        <ele>233.4</ele>
        <time>2020-06-29T15:08:10Z</time>
      </trkpt>
      <trkpt lat="48.69156" lon="5.98086">
        <ele>233.3</ele>
        <time>2020-06-29T15:08:11Z</time>
      </trkpt>
      <trkpt lat="48.69155" lon="5.98077">
        <ele>233.3</ele>
        <time>2020-06-29T15:08:12Z</time>
      </trkpt>
      <trkpt lat="48.69154" lon="5.98068">
        <ele>233.2</ele>
        <time>2020-06-29T15:08:13Z</time>
      </trkpt>
      <trkpt lat="48.69152" lon="5.98059">
        <ele>233.1</ele>
        <time>2020-06-29T15:08:14Z</time>
      </trkpt>
      <trkpt lat="48.6915" lon="5.9805">
        <ele>233</ele>
        <time>2020-06-29T15:08:15Z</time>
      </trkpt>
      <trkpt lat="48.69148" lon="5.98041">
        <ele>233</ele>
        <time>2020-06-29T15:08:16Z</time>
      </trkpt>
      <trkpt lat="48.69146" lon="5.98032">
        <ele>232.9</ele>
        <time>2020-06-29T15:08:17Z</time>
      </trkpt>
      <trkpt lat="48.69143" lon="5.98023">
        <ele>232.8</ele>
        <time>2020-06-29T15:08:18Z</time>
      </trkpt>
      <trkpt lat="48.6914" lon="5.98015">
        <ele>232.7</ele>
        <time>2020-06-29T15:08:19Z</time>
      </trkpt>
      <trkpt lat="48.69136" lon="5.98007">
        <ele>232.6</ele>
        <time>2020-06-29T15:08:20Z</time>
      </trkpt>
      <trkpt lat="48.69133" lon="5.98">
        <ele>232.5</ele>
        <time>2020-06-29T15:08:21Z</time>
      </trkpt>
      <trkpt lat="48.69129" lon="5.97992">
        <ele>232.4</ele>
        <time>2020-06-29T15:08:22Z</time>
      </trkpt>
      <trkpt lat="48.69125" lon="5.97986">
        <ele>232.3</ele>
        <time>2020-06-29T15:08:23Z</time>
      </trkpt>
      <trkpt lat="48.6912" lon="5.97979">
        <ele>232.3</ele>
        <time>2020-06-29T15:08:24Z</time>
      </trkpt>
      <trkpt lat="48.69116" lon="5.97973">
        <ele>232.2</ele>
        <time>2020-06-29T15:08:25Z</time>
      </trkpt>
      <trkpt lat="48.69112" lon="5.97967">
        <ele>232</ele>
        <time>2020-06-29T15:08:26Z</time>
      </trkpt>
      <trkpt lat="48.69107" lon="5.97961">
        <ele>231.9</ele>
        <time>2020-06-29T15:08:27Z</time>
      </trkpt>
      <trkpt lat="48.69102" lon="5.97955">
        <ele>231.8</ele>
        <time>2020-06-29T15:08:28Z</time>
      </trkpt>
      <trkpt lat="48.69098" lon="5.97948">
        <ele>231.8</ele>
        <time>2020-06-29T15:08:29Z</time>
      </trkpt>
      <trkpt lat="48.69093" lon="5.97942">
        <ele>231.7</ele>
        <time>2020-06-29T15:08:30Z</time>
      </trkpt>
      <trkpt lat="48.69089" lon="5.97935">
        <ele>231.6</ele>
        <time>2020-06-29T15:08:31Z</time>
      </trkpt>
      <trkpt lat="48.69085" lon="5.97928">
        <ele>231.5</ele>
        <time>2020-06-29T15:08:32Z</time>
      </trkpt>
      <trkpt lat="48.69081" lon="5.97922">
        <ele>231.5</ele>
        <time>2020-06-29T15:08:33Z</time>
      </trkpt>
      <trkpt lat="48.69076" lon="5.97916">
        <ele>231.4</ele>
        <time>2020-06-29T15:08:34Z</time>
      </trkpt>
      <trkpt lat="48.69071" lon="5.97909">
        <ele>231.3</ele>
        <time>2020-06-29T15:08:35Z</time>
      </trkpt>
      <trkpt lat="48.69067" lon="5.97902">
        <ele>231.3</ele>
        <time>2020-06-29T15:08:36Z</time>
      </trkpt>
      <trkpt lat="48.69063" lon="5.97894">
        <ele>231.2</ele>
        <time>2020-06-29T15:08:37Z</time>
      </trkpt>
      <trkpt lat="48.69059" lon="5.97886">
        <ele>231.1</ele>
        <time>2020-06-29T15:08:38Z</time>
      </trkpt>
      <trkpt lat="48.69055" lon="5.97878">
        <ele>231.1</ele>
        <time>2020-06-29T15:08:39Z</time>
      </trkpt>
      <trkpt lat="48.69051" lon="5.9787">
        <ele>231</ele>
        <time>2020-06-29T15:08:40Z</time>
      </trkpt>
      <trkpt lat="48.69048" lon="5.97862">
        <ele>230.9</ele>
        <time>2020-06-29T15:08:41Z</time>
      </trkpt>
      <trkpt lat="48.69044" lon="5.97854">
        <ele>230.8</ele>
        <time>2020-06-29T15:08:42Z</time>
      </trkpt>
      <trkpt lat="48.6904" lon="5.97845">
        <ele>230.7</ele>
        <time>2020-06-29T15:08:43Z</time>
      </trkpt>
      <trkpt lat="48.69037" lon="5.97836">
        <ele>230.6</ele>
        <time>2020-06-29T15:08:44Z</time>
      </trkpt>
      <trkpt lat="48.69033" lon="5.97827">
        <ele>230.5</ele>
        <time>2020-06-29T15:08:45Z</time>
      </trkpt>
      <trkpt lat="48.6903" lon="5.97819">
        <ele>230.4</ele>
        <time>2020-06-29T15:08:46Z</time>
      </trkpt>
      <trkpt lat="48.69027" lon="5.9781">
        <ele>230.3</ele>
        <time>2020-06-29T15:08:47Z</time>
      </trkpt>
      <trkpt lat="48.69024" lon="5.97801">
        <ele>230.2</ele>
        <time>2020-06-29T15:08:48Z</time>
      </trkpt>
      <trkpt lat="48.69021" lon="5.97791">
        <ele>230.1</ele>
        <time>2020-06-29T15:08:49Z</time>
      </trkpt>
      <trkpt lat="48.69019" lon="5.97782">
        <ele>230</ele>
        <time>2020-06-29T15:08:50Z</time>
      </trkpt>
      <trkpt lat="48.69017" lon="5.97774">
        <ele>229.8</ele>
        <time>2020-06-29T15:08:51Z</time>
      </trkpt>
      <trkpt lat="48.69015" lon="5.97765">
        <ele>229.7</ele>
        <time>2020-06-29T15:08:52Z</time>
      </trkpt>
      <trkpt lat="48.69013" lon="5.97756">
        <ele>229.6</ele>
        <time>2020-06-29T15:08:53Z</time>
      </trkpt>
      <trkpt lat="48.6901" lon="5.97746">
        <ele>229.5</ele>
        <time>2020-06-29T15:08:54Z</time>
      </trkpt>
      <trkpt lat="48.69008" lon="5.97736">
        <ele>229.4</ele>
        <time>2020-06-29T15:08:55Z</time>
      </trkpt>
      <trkpt lat="48.69007" lon="5.97726">
        <ele>229.4</ele>
        <time>2020-06-29T15:08:56Z</time>
      </trkpt>
      <trkpt lat="48.69006" lon="5.97717">
        <ele>229.2</ele>
        <time>2020-06-29T15:08:57Z</time>
      </trkpt>
      <trkpt lat="48.69005" lon="5.97707">
        <ele>229</ele>
        <time>2020-06-29T15:08:58Z</time>
      </trkpt>
      <trkpt lat="48.69004" lon="5.97698">
        <ele>228.9</ele>
        <time>2020-06-29T15:08:59Z</time>
      </trkpt>
      <trkpt lat="48.69003" lon="5.97688">
        <ele>228.7</ele>
        <time>2020-06-29T15:09:00Z</time>
      </trkpt>
      <trkpt lat="48.69002" lon="5.97678">
        <ele>228.5</ele>
        <time>2020-06-29T15:09:01Z</time>
      </trkpt>
      <trkpt lat="48.69001" lon="5.97668">
        <ele>228.3</ele>
        <time>2020-06-29T15:09:02Z</time>
      </trkpt>
      <trkpt lat="48.69001" lon="5.97657">
        <ele>228.1</ele>
        <time>2020-06-29T15:09:03Z</time>
      </trkpt>
      <trkpt lat="48.69001" lon="5.97647">
        <ele>227.8</ele>
        <time>2020-06-29T15:09:04Z</time>
      </trkpt>
      <trkpt lat="48.69001" lon="5.97636">
        <ele>227.6</ele>
        <time>2020-06-29T15:09:05Z</time>
      </trkpt>
      <trkpt lat="48.69001" lon="5.97626">
        <ele>227.4</ele>
        <time>2020-06-29T15:09:06Z</time>
      </trkpt>
      <trkpt lat="48.69002" lon="5.97616">
        <ele>227.3</ele>
        <time>2020-06-29T15:09:07Z</time>
      </trkpt>
      <trkpt lat="48.69003" lon="5.97606">
        <ele>227.1</ele>
        <time>2020-06-29T15:09:08Z</time>
      </trkpt>
      <trkpt lat="48.69004" lon="5.97596">
        <ele>226.9</ele>
        <time>2020-06-29T15:09:09Z</time>
      </trkpt>
      <trkpt lat="48.69005" lon="5.97586">
        <ele>226.7</ele>
        <time>2020-06-29T15:09:10Z</time>
      </trkpt>
      <trkpt lat="48.69005" lon="5.97576">
        <ele>226.5</ele>
        <time>2020-06-29T15:09:11Z</time>
      </trkpt>
      <trkpt lat="48.69005" lon="5.97565">
        <ele>226.3</ele>
        <time>2020-06-29T15:09:12Z</time>
      </trkpt>
      <trkpt lat="48.69006" lon="5.97555">
        <ele>226.2</ele>
        <time>2020-06-29T15:09:13Z</time>
      </trkpt>
      <trkpt lat="48.69006" lon="5.97546">
        <ele>226</ele>
        <time>2020-06-29T15:09:14Z</time>
      </trkpt>
      <trkpt lat="48.69007" lon="5.97536">
        <ele>226</ele>
        <time>2020-06-29T15:09:15Z</time>
      </trkpt>
      <trkpt lat="48.69008" lon="5.97528">
        <ele>225.9</ele>
        <time>2020-06-29T15:09:16Z</time>
      </trkpt>
      <trkpt lat="48.69009" lon="5.97521">
        <ele>225.8</ele>
        <time>2020-06-29T15:09:17Z</time>
      </trkpt>
      <trkpt lat="48.69012" lon="5.97518">
        <ele>225.8</ele>
        <time>2020-06-29T15:09:18Z</time>
      </trkpt>
      <trkpt lat="48.69016" lon="5.97515">
        <ele>224.6</ele>
        <time>2020-06-29T15:09:19Z</time>
      </trkpt>
      <trkpt lat="48.69022" lon="5.9751">
        <ele>224.1</ele>
        <time>2020-06-29T15:09:20Z</time>
      </trkpt>
      <trkpt lat="48.69028" lon="5.97504">
        <ele>223.6</ele>
        <time>2020-06-29T15:09:21Z</time>
      </trkpt>
      <trkpt lat="48.69033" lon="5.97497">
        <ele>223.2</ele>
        <time>2020-06-29T15:09:22Z</time>
      </trkpt>
      <trkpt lat="48.69038" lon="5.97488">
        <ele>222.9</ele>
        <time>2020-06-29T15:09:23Z</time>
      </trkpt>
      <trkpt lat="48.69043" lon="5.97478">
        <ele>222.6</ele>
        <time>2020-06-29T15:09:24Z</time>
      </trkpt>
      <trkpt lat="48.69047" lon="5.97469">
        <ele>222.4</ele>
        <time>2020-06-29T15:09:25Z</time>
      </trkpt>
      <trkpt lat="48.69051" lon="5.9746">
        <ele>222.2</ele>
        <time>2020-06-29T15:09:26Z</time>
      </trkpt>
      <trkpt lat="48.69056" lon="5.97452">
        <ele>222</ele>
        <time>2020-06-29T15:09:27Z</time>
      </trkpt>
      <trkpt lat="48.6906" lon="5.97444">
        <ele>221.8</ele>
        <time>2020-06-29T15:09:28Z</time>
      </trkpt>
      <trkpt lat="48.69065" lon="5.97436">
        <ele>221.6</ele>
        <time>2020-06-29T15:09:29Z</time>
      </trkpt>
      <trkpt lat="48.69069" lon="5.97429">
        <ele>221.4</ele>
        <time>2020-06-29T15:09:30Z</time>
      </trkpt>
      <trkpt lat="48.69073" lon="5.97422">
        <ele>221.3</ele>
        <time>2020-06-29T15:09:31Z</time>
      </trkpt>
      <trkpt lat="48.69077" lon="5.97415">
        <ele>221.2</ele>
        <time>2020-06-29T15:09:32Z</time>
      </trkpt>
      <trkpt lat="48.6908" lon="5.97408">
        <ele>221.1</ele>
        <time>2020-06-29T15:09:33Z</time>
      </trkpt>
      <trkpt lat="48.69084" lon="5.97401">
        <ele>220.9</ele>
        <time>2020-06-29T15:09:34Z</time>
      </trkpt>
      <trkpt lat="48.69086" lon="5.97394">
        <ele>220.8</ele>
        <time>2020-06-29T15:09:35Z</time>
      </trkpt>
      <trkpt lat="48.6909" lon="5.97389">
        <ele>220.7</ele>
        <time>2020-06-29T15:09:36Z</time>
      </trkpt>
      <trkpt lat="48.69094" lon="5.97384">
        <ele>220.6</ele>
        <time>2020-06-29T15:09:37Z</time>
      </trkpt>
      <trkpt lat="48.69098" lon="5.97379">
        <ele>220.4</ele>
        <time>2020-06-29T15:09:38Z</time>
      </trkpt>
      <trkpt lat="48.69101" lon="5.97373">
        <ele>220.3</ele>
        <time>2020-06-29T15:09:39Z</time>
      </trkpt>
      <trkpt lat="48.69104" lon="5.97367">
        <ele>220.2</ele>
        <time>2020-06-29T15:09:40Z</time>
      </trkpt>
      <trkpt lat="48.69108" lon="5.97361">
        <ele>220.1</ele>
        <time>2020-06-29T15:09:41Z</time>
      </trkpt>
      <trkpt lat="48.69111" lon="5.97355">
        <ele>219.9</ele>
        <time>2020-06-29T15:09:42Z</time>
      </trkpt>
      <trkpt lat="48.69115" lon="5.97349">
        <ele>219.8</ele>
        <time>2020-06-29T15:09:43Z</time>
      </trkpt>
      <trkpt lat="48.69118" lon="5.97343">
        <ele>219.7</ele>
        <time>2020-06-29T15:09:44Z</time>
      </trkpt>
      <trkpt lat="48.69122" lon="5.97336">
        <ele>219.4</ele>
        <time>2020-06-29T15:09:45Z</time>
      </trkpt>
      <trkpt lat="48.69125" lon="5.97331">
        <ele>219.4</ele>
        <time>2020-06-29T15:09:46Z</time>
      </trkpt>
      <trkpt lat="48.69128" lon="5.97325">
        <ele>219.3</ele>
        <time>2020-06-29T15:09:47Z</time>
      </trkpt>
      <trkpt lat="48.69132" lon="5.97319">
        <ele>219.3</ele>
        <time>2020-06-29T15:09:48Z</time>
      </trkpt>
      <trkpt lat="48.69135" lon="5.97312">
        <ele>219.3</ele>
        <time>2020-06-29T15:09:49Z</time>
      </trkpt>
      <trkpt lat="48.69139" lon="5.97305">
        <ele>219.2</ele>
        <time>2020-06-29T15:09:50Z</time>
      </trkpt>
      <trkpt lat="48.69144" lon="5.97298">
        <ele>219.2</ele>
        <time>2020-06-29T15:09:51Z</time>
      </trkpt>
      <trkpt lat="48.69148" lon="5.9729">
        <ele>218.9</ele>
        <time>2020-06-29T15:09:52Z</time>
      </trkpt>
      <trkpt lat="48.69153" lon="5.97283">
        <ele>218.7</ele>
        <time>2020-06-29T15:09:53Z</time>
      </trkpt>
      <trkpt lat="48.69157" lon="5.97275">
        <ele>218.5</ele>
        <time>2020-06-29T15:09:54Z</time>
      </trkpt>
      <trkpt lat="48.69159" lon="5.97266">
        <ele>218.3</ele>
        <time>2020-06-29T15:09:55Z</time>
      </trkpt>
      <trkpt lat="48.69162" lon="5.97257">
        <ele>218.1</ele>
        <time>2020-06-29T15:09:56Z</time>
      </trkpt>
      <trkpt lat="48.69165" lon="5.97248">
        <ele>218</ele>
        <time>2020-06-29T15:09:57Z</time>
      </trkpt>
      <trkpt lat="48.69168" lon="5.97239">
        <ele>217.8</ele>
        <time>2020-06-29T15:09:58Z</time>
      </trkpt>
      <trkpt lat="48.6917" lon="5.97231">
        <ele>217.6</ele>
        <time>2020-06-29T15:09:59Z</time>
      </trkpt>
      <trkpt lat="48.69172" lon="5.97222">
        <ele>217.5</ele>
        <time>2020-06-29T15:10:00Z</time>
      </trkpt>
      <trkpt lat="48.69174" lon="5.97214">
        <ele>217.4</ele>
        <time>2020-06-29T15:10:01Z</time>
      </trkpt>
      <trkpt lat="48.69176" lon="5.97206">
        <ele>217.2</ele>
        <time>2020-06-29T15:10:02Z</time>
      </trkpt>
      <trkpt lat="48.69178" lon="5.97198">
        <ele>217.1</ele>
        <time>2020-06-29T15:10:03Z</time>
      </trkpt>
      <trkpt lat="48.69181" lon="5.9719">
        <ele>217</ele>
        <time>2020-06-29T15:10:04Z</time>
      </trkpt>
      <trkpt lat="48.69183" lon="5.97181">
        <ele>216.9</ele>
        <time>2020-06-29T15:10:05Z</time>
      </trkpt>
      <trkpt lat="48.69185" lon="5.97173">
        <ele>216.8</ele>
        <time>2020-06-29T15:10:06Z</time>
      </trkpt>
      <trkpt lat="48.69187" lon="5.97164">
        <ele>216.7</ele>
        <time>2020-06-29T15:10:07Z</time>
      </trkpt>
      <trkpt lat="48.69189" lon="5.97156">
        <ele>216.7</ele>
        <time>2020-06-29T15:10:08Z</time>
      </trkpt>
      <trkpt lat="48.6919" lon="5.97148">
        <ele>216.6</ele>
        <time>2020-06-29T15:10:09Z</time>
      </trkpt>
      <trkpt lat="48.69193" lon="5.97141">
        <ele>216.6</ele>
        <time>2020-06-29T15:10:10Z</time>
      </trkpt>
      <trkpt lat="48.69194" lon="5.97134">
        <ele>216.6</ele>
        <time>2020-06-29T15:10:11Z</time>
      </trkpt>
      <trkpt lat="48.69196" lon="5.97127">
        <ele>216.5</ele>
        <time>2020-06-29T15:10:12Z</time>
      </trkpt>
      <trkpt lat="48.69197" lon="5.9712">
        <ele>216.5</ele>
        <time>2020-06-29T15:10:13Z</time>
      </trkpt>
      <trkpt lat="48.69199" lon="5.97113">
        <ele>216.5</ele>
        <time>2020-06-29T15:10:14Z</time>
      </trkpt>
      <trkpt lat="48.69201" lon="5.97106">
        <ele>216.5</ele>
        <time>2020-06-29T15:10:15Z</time>
      </trkpt>
      <trkpt lat="48.69203" lon="5.97099">
        <ele>216.5</ele>
        <time>2020-06-29T15:10:16Z</time>
      </trkpt>
      <trkpt lat="48.69205" lon="5.97093">
        <ele>216.5</ele>
        <time>2020-06-29T15:10:17Z</time>
      </trkpt>
      <trkpt lat="48.69206" lon="5.97086">
        <ele>216.5</ele>
        <time>2020-06-29T15:10:18Z</time>
      </trkpt>
      <trkpt lat="48.69207" lon="5.97079">
        <ele>216.4</ele>
        <time>2020-06-29T15:10:19Z</time>
      </trkpt>
      <trkpt lat="48.6921" lon="5.97073">
        <ele>216.4</ele>
        <time>2020-06-29T15:10:20Z</time>
      </trkpt>
      <trkpt lat="48.69211" lon="5.97066">
        <ele>216.4</ele>
        <time>2020-06-29T15:10:21Z</time>
      </trkpt>
      <trkpt lat="48.69214" lon="5.97059">
        <ele>216.4</ele>
        <time>2020-06-29T15:10:22Z</time>
      </trkpt>
      <trkpt lat="48.69216" lon="5.97052">
        <ele>216.4</ele>
        <time>2020-06-29T15:10:23Z</time>
      </trkpt>
      <trkpt lat="48.69218" lon="5.97044">
        <ele>216.4</ele>
        <time>2020-06-29T15:10:24Z</time>
      </trkpt>
      <trkpt lat="48.69219" lon="5.97037">
        <ele>216.4</ele>
        <time>2020-06-29T15:10:25Z</time>
      </trkpt>
      <trkpt lat="48.69221" lon="5.97029">
        <ele>216.3</ele>
        <time>2020-06-29T15:10:26Z</time>
      </trkpt>
      <trkpt lat="48.69222" lon="5.97021">
        <ele>216.3</ele>
        <time>2020-06-29T15:10:27Z</time>
      </trkpt>
      <trkpt lat="48.69224" lon="5.97014">
        <ele>216.2</ele>
        <time>2020-06-29T15:10:28Z</time>
      </trkpt>
      <trkpt lat="48.69225" lon="5.97006">
        <ele>216.2</ele>
        <time>2020-06-29T15:10:29Z</time>
      </trkpt>
      <trkpt lat="48.69227" lon="5.96999">
        <ele>216.2</ele>
        <time>2020-06-29T15:10:30Z</time>
      </trkpt>
      <trkpt lat="48.69228" lon="5.96992">
        <ele>216.2</ele>
        <time>2020-06-29T15:10:31Z</time>
      </trkpt>
      <trkpt lat="48.69229" lon="5.96985">
        <ele>216.3</ele>
        <time>2020-06-29T15:10:32Z</time>
      </trkpt>
      <trkpt lat="48.6923" lon="5.96977">
        <ele>216.3</ele>
        <time>2020-06-29T15:10:33Z</time>
      </trkpt>
      <trkpt lat="48.69231" lon="5.96969">
        <ele>216.4</ele>
        <time>2020-06-29T15:10:34Z</time>
      </trkpt>
      <trkpt lat="48.69232" lon="5.96962">
        <ele>216.4</ele>
        <time>2020-06-29T15:10:35Z</time>
      </trkpt>
      <trkpt lat="48.69234" lon="5.96954">
        <ele>216.5</ele>
        <time>2020-06-29T15:10:36Z</time>
      </trkpt>
      <trkpt lat="48.69235" lon="5.96947">
        <ele>216.6</ele>
        <time>2020-06-29T15:10:37Z</time>
      </trkpt>
      <trkpt lat="48.69236" lon="5.96939">
        <ele>216.7</ele>
        <time>2020-06-29T15:10:38Z</time>
      </trkpt>
      <trkpt lat="48.69238" lon="5.96932">
        <ele>216.8</ele>
        <time>2020-06-29T15:10:39Z</time>
      </trkpt>
      <trkpt lat="48.69239" lon="5.96925">
        <ele>216.9</ele>
        <time>2020-06-29T15:10:40Z</time>
      </trkpt>
      <trkpt lat="48.6924" lon="5.96918">
        <ele>217</ele>
        <time>2020-06-29T15:10:41Z</time>
      </trkpt>
      <trkpt lat="48.69243" lon="5.96911">
        <ele>216.8</ele>
        <time>2020-06-29T15:10:42Z</time>
      </trkpt>
      <trkpt lat="48.69245" lon="5.96904">
        <ele>216.8</ele>
        <time>2020-06-29T15:10:43Z</time>
      </trkpt>
      <trkpt lat="48.69247" lon="5.96898">
        <ele>216.8</ele>
        <time>2020-06-29T15:10:44Z</time>
      </trkpt>
      <trkpt lat="48.69249" lon="5.96891">
        <ele>216.7</ele>
        <time>2020-06-29T15:10:45Z</time>
      </trkpt>
      <trkpt lat="48.69251" lon="5.96884">
        <ele>216.7</ele>
        <time>2020-06-29T15:10:46Z</time>
      </trkpt>
      <trkpt lat="48.69252" lon="5.96877">
        <ele>216.7</ele>
        <time>2020-06-29T15:10:47Z</time>
      </trkpt>
      <trkpt lat="48.69254" lon="5.9687">
        <ele>216.7</ele>
        <time>2020-06-29T15:10:48Z</time>
      </trkpt>
      <trkpt lat="48.69255" lon="5.96863">
        <ele>216.7</ele>
        <time>2020-06-29T15:10:49Z</time>
      </trkpt>
      <trkpt lat="48.69257" lon="5.96856">
        <ele>216.7</ele>
        <time>2020-06-29T15:10:50Z</time>
      </trkpt>
      <trkpt lat="48.69259" lon="5.96849">
        <ele>216.7</ele>
        <time>2020-06-29T15:10:51Z</time>
      </trkpt>
      <trkpt lat="48.69261" lon="5.96842">
        <ele>216.7</ele>
        <time>2020-06-29T15:10:52Z</time>
      </trkpt>
      <trkpt lat="48.69262" lon="5.96835">
        <ele>216.7</ele>
        <time>2020-06-29T15:10:53Z</time>
      </trkpt>
      <trkpt lat="48.69262" lon="5.96828">
        <ele>216.7</ele>
        <time>2020-06-29T15:10:54Z</time>
      </trkpt>
      <trkpt lat="48.69264" lon="5.96821">
        <ele>216.7</ele>
        <time>2020-06-29T15:10:55Z</time>
      </trkpt>
      <trkpt lat="48.69266" lon="5.96814">
        <ele>216.7</ele>
        <time>2020-06-29T15:10:56Z</time>
      </trkpt>
      <trkpt lat="48.69267" lon="5.96807">
        <ele>216.7</ele>
        <time>2020-06-29T15:10:57Z</time>
      </trkpt>
      <trkpt lat="48.69269" lon="5.968">
        <ele>216.8</ele>
        <time>2020-06-29T15:10:58Z</time>
      </trkpt>
      <trkpt lat="48.69271" lon="5.96793">
        <ele>216.8</ele>
        <time>2020-06-29T15:10:59Z</time>
      </trkpt>
      <trkpt lat="48.69273" lon="5.96786">
        <ele>216.8</ele>
        <time>2020-06-29T15:11:00Z</time>
      </trkpt>
      <trkpt lat="48.69274" lon="5.96779">
        <ele>216.8</ele>
        <time>2020-06-29T15:11:01Z</time>
      </trkpt>
      <trkpt lat="48.69275" lon="5.96771">
        <ele>216.8</ele>
        <time>2020-06-29T15:11:02Z</time>
      </trkpt>
      <trkpt lat="48.69277" lon="5.96764">
        <ele>216.8</ele>
        <time>2020-06-29T15:11:03Z</time>
      </trkpt>
      <trkpt lat="48.69278" lon="5.96757">
        <ele>216.8</ele>
        <time>2020-06-29T15:11:04Z</time>
      </trkpt>
      <trkpt lat="48.6928" lon="5.9675">
        <ele>216.8</ele>
        <time>2020-06-29T15:11:05Z</time>
      </trkpt>
      <trkpt lat="48.69282" lon="5.96743">
        <ele>216.7</ele>
        <time>2020-06-29T15:11:06Z</time>
      </trkpt>
      <trkpt lat="48.69283" lon="5.96735">
        <ele>216.7</ele>
        <time>2020-06-29T15:11:07Z</time>
      </trkpt>
      <trkpt lat="48.69284" lon="5.96727">
        <ele>216.6</ele>
        <time>2020-06-29T15:11:08Z</time>
      </trkpt>
      <trkpt lat="48.69286" lon="5.9672">
        <ele>216.6</ele>
        <time>2020-06-29T15:11:09Z</time>
      </trkpt>
      <trkpt lat="48.69288" lon="5.96712">
        <ele>216.5</ele>
        <time>2020-06-29T15:11:10Z</time>
      </trkpt>
      <trkpt lat="48.69289" lon="5.96705">
        <ele>216.5</ele>
        <time>2020-06-29T15:11:11Z</time>
      </trkpt>
      <trkpt lat="48.6929" lon="5.96696">
        <ele>216.4</ele>
        <time>2020-06-29T15:11:12Z</time>
      </trkpt>
      <trkpt lat="48.69292" lon="5.96688">
        <ele>216.4</ele>
        <time>2020-06-29T15:11:13Z</time>
      </trkpt>
      <trkpt lat="48.69294" lon="5.96681">
        <ele>216.3</ele>
        <time>2020-06-29T15:11:14Z</time>
      </trkpt>
      <trkpt lat="48.69297" lon="5.96672">
        <ele>216.3</ele>
        <time>2020-06-29T15:11:15Z</time>
      </trkpt>
      <trkpt lat="48.69299" lon="5.96664">
        <ele>216.3</ele>
        <time>2020-06-29T15:11:16Z</time>
      </trkpt>
      <trkpt lat="48.69301" lon="5.96655">
        <ele>216.2</ele>
        <time>2020-06-29T15:11:17Z</time>
      </trkpt>
      <trkpt lat="48.69302" lon="5.96647">
        <ele>216.1</ele>
        <time>2020-06-29T15:11:18Z</time>
      </trkpt>
      <trkpt lat="48.69303" lon="5.96639">
        <ele>216</ele>
        <time>2020-06-29T15:11:19Z</time>
      </trkpt>
      <trkpt lat="48.69304" lon="5.9663">
        <ele>215.8</ele>
        <time>2020-06-29T15:11:20Z</time>
      </trkpt>
      <trkpt lat="48.69304" lon="5.96622">
        <ele>215.8</ele>
        <time>2020-06-29T15:11:21Z</time>
      </trkpt>
      <trkpt lat="48.69304" lon="5.96614">
        <ele>215.7</ele>
        <time>2020-06-29T15:11:22Z</time>
      </trkpt>
      <trkpt lat="48.69304" lon="5.96606">
        <ele>215.6</ele>
        <time>2020-06-29T15:11:23Z</time>
      </trkpt>
      <trkpt lat="48.69304" lon="5.96598">
        <ele>215.5</ele>
        <time>2020-06-29T15:11:24Z</time>
      </trkpt>
      <trkpt lat="48.69304" lon="5.9659">
        <ele>215.5</ele>
        <time>2020-06-29T15:11:25Z</time>
      </trkpt>
      <trkpt lat="48.69302" lon="5.96582">
        <ele>215.4</ele>
        <time>2020-06-29T15:11:26Z</time>
      </trkpt>
      <trkpt lat="48.69302" lon="5.96575">
        <ele>215.3</ele>
        <time>2020-06-29T15:11:27Z</time>
      </trkpt>
      <trkpt lat="48.69303" lon="5.96567">
        <ele>215.2</ele>
        <time>2020-06-29T15:11:28Z</time>
      </trkpt>
      <trkpt lat="48.69302" lon="5.96559">
        <ele>215.2</ele>
        <time>2020-06-29T15:11:29Z</time>
      </trkpt>
      <trkpt lat="48.69303" lon="5.96551">
        <ele>215.1</ele>
        <time>2020-06-29T15:11:30Z</time>
      </trkpt>
      <trkpt lat="48.69302" lon="5.96543">
        <ele>215</ele>
        <time>2020-06-29T15:11:31Z</time>
      </trkpt>
      <trkpt lat="48.69302" lon="5.96535">
        <ele>215</ele>
        <time>2020-06-29T15:11:32Z</time>
      </trkpt>
      <trkpt lat="48.69302" lon="5.96526">
        <ele>214.9</ele>
        <time>2020-06-29T15:11:33Z</time>
      </trkpt>
      <trkpt lat="48.69302" lon="5.96518">
        <ele>214.8</ele>
        <time>2020-06-29T15:11:34Z</time>
      </trkpt>
      <trkpt lat="48.69302" lon="5.96509">
        <ele>214.7</ele>
        <time>2020-06-29T15:11:35Z</time>
      </trkpt>
      <trkpt lat="48.69302" lon="5.965">
        <ele>214.7</ele>
        <time>2020-06-29T15:11:36Z</time>
      </trkpt>
      <trkpt lat="48.69302" lon="5.96492">
        <ele>214.6</ele>
        <time>2020-06-29T15:11:37Z</time>
      </trkpt>
      <trkpt lat="48.69301" lon="5.96484">
        <ele>214.5</ele>
        <time>2020-06-29T15:11:38Z</time>
      </trkpt>
      <trkpt lat="48.69302" lon="5.96476">
        <ele>214.4</ele>
        <time>2020-06-29T15:11:39Z</time>
      </trkpt>
      <trkpt lat="48.69302" lon="5.96468">
        <ele>214.3</ele>
        <time>2020-06-29T15:11:40Z</time>
      </trkpt>
      <trkpt lat="48.69303" lon="5.9646">
        <ele>214.1</ele>
        <time>2020-06-29T15:11:41Z</time>
      </trkpt>
      <trkpt lat="48.69303" lon="5.96452">
        <ele>214</ele>
        <time>2020-06-29T15:11:42Z</time>
      </trkpt>
      <trkpt lat="48.69303" lon="5.96444">
        <ele>213.8</ele>
        <time>2020-06-29T15:11:43Z</time>
      </trkpt>
      <trkpt lat="48.69303" lon="5.96436">
        <ele>213.7</ele>
        <time>2020-06-29T15:11:44Z</time>
      </trkpt>
      <trkpt lat="48.69304" lon="5.96428">
        <ele>213.5</ele>
        <time>2020-06-29T15:11:45Z</time>
      </trkpt>
      <trkpt lat="48.69305" lon="5.96421">
        <ele>213.3</ele>
        <time>2020-06-29T15:11:46Z</time>
      </trkpt>
      <trkpt lat="48.69307" lon="5.96414">
        <ele>213.2</ele>
        <time>2020-06-29T15:11:47Z</time>
      </trkpt>
      <trkpt lat="48.69308" lon="5.96407">
        <ele>213</ele>
        <time>2020-06-29T15:11:48Z</time>
      </trkpt>
      <trkpt lat="48.69308" lon="5.964">
        <ele>212.8</ele>
        <time>2020-06-29T15:11:49Z</time>
      </trkpt>
      <trkpt lat="48.69309" lon="5.96393">
        <ele>212.7</ele>
        <time>2020-06-29T15:11:50Z</time>
      </trkpt>
      <trkpt lat="48.69309" lon="5.96387">
        <ele>212.5</ele>
        <time>2020-06-29T15:11:51Z</time>
      </trkpt>
      <trkpt lat="48.6931" lon="5.96382">
        <ele>212.4</ele>
        <time>2020-06-29T15:11:52Z</time>
      </trkpt>
      <trkpt lat="48.6931" lon="5.96377">
        <ele>212.4</ele>
        <time>2020-06-29T15:11:53Z</time>
      </trkpt>
      <trkpt lat="48.69311" lon="5.96371">
        <ele>212.3</ele>
        <time>2020-06-29T15:11:54Z</time>
      </trkpt>
      <trkpt lat="48.69313" lon="5.96366">
        <ele>212</ele>
        <time>2020-06-29T15:11:55Z</time>
      </trkpt>
      <trkpt lat="48.69313" lon="5.9636">
        <ele>211.7</ele>
        <time>2020-06-29T15:11:56Z</time>
      </trkpt>
      <trkpt lat="48.69312" lon="5.96353">
        <ele>211.2</ele>
        <time>2020-06-29T15:11:57Z</time>
      </trkpt>
      <trkpt lat="48.69312" lon="5.96346">
        <ele>210.8</ele>
        <time>2020-06-29T15:11:58Z</time>
      </trkpt>
      <trkpt lat="48.69312" lon="5.96338">
        <ele>210.3</ele>
        <time>2020-06-29T15:11:59Z</time>
      </trkpt>
      <trkpt lat="48.69311" lon="5.96329">
        <ele>209.8</ele>
        <time>2020-06-29T15:12:00Z</time>
      </trkpt>
      <trkpt lat="48.69313" lon="5.96321">
        <ele>209.3</ele>
        <time>2020-06-29T15:12:01Z</time>
      </trkpt>
      <trkpt lat="48.69315" lon="5.9631">
        <ele>208.7</ele>
        <time>2020-06-29T15:12:02Z</time>
      </trkpt>
      <trkpt lat="48.69318" lon="5.96301">
        <ele>208.2</ele>
        <time>2020-06-29T15:12:03Z</time>
      </trkpt>
      <trkpt lat="48.6932" lon="5.96294">
        <ele>207.7</ele>
        <time>2020-06-29T15:12:04Z</time>
      </trkpt>
      <trkpt lat="48.69324" lon="5.96287">
        <ele>207.3</ele>
        <time>2020-06-29T15:12:05Z</time>
      </trkpt>
      <trkpt lat="48.69327" lon="5.9628">
        <ele>206.9</ele>
        <time>2020-06-29T15:12:06Z</time>
      </trkpt>
      <trkpt lat="48.69331" lon="5.96273">
        <ele>206.3</ele>
        <time>2020-06-29T15:12:07Z</time>
      </trkpt>
      <trkpt lat="48.69335" lon="5.96266">
        <ele>206.2</ele>
        <time>2020-06-29T15:12:08Z</time>
      </trkpt>
      <trkpt lat="48.69339" lon="5.96259">
        <ele>206</ele>
        <time>2020-06-29T15:12:09Z</time>
      </trkpt>
      <trkpt lat="48.69342" lon="5.96252">
        <ele>205.9</ele>
        <time>2020-06-29T15:12:10Z</time>
      </trkpt>
      <trkpt lat="48.69345" lon="5.96243">
        <ele>205.8</ele>
        <time>2020-06-29T15:12:11Z</time>
      </trkpt>
      <trkpt lat="48.69349" lon="5.96235">
        <ele>205.6</ele>
        <time>2020-06-29T15:12:12Z</time>
      </trkpt>
      <trkpt lat="48.69353" lon="5.96228">
        <ele>205.4</ele>
        <time>2020-06-29T15:12:13Z</time>
      </trkpt>
      <trkpt lat="48.69356" lon="5.9622">
        <ele>205.1</ele>
        <time>2020-06-29T15:12:14Z</time>
      </trkpt>
      <trkpt lat="48.69359" lon="5.96212">
        <ele>204.9</ele>
        <time>2020-06-29T15:12:15Z</time>
      </trkpt>
      <trkpt lat="48.69364" lon="5.96206">
        <ele>204.7</ele>
        <time>2020-06-29T15:12:16Z</time>
      </trkpt>
      <trkpt lat="48.69368" lon="5.96199">
        <ele>204.6</ele>
        <time>2020-06-29T15:12:17Z</time>
      </trkpt>
      <trkpt lat="48.69372" lon="5.96193">
        <ele>204.4</ele>
        <time>2020-06-29T15:12:18Z</time>
      </trkpt>
      <trkpt lat="48.69376" lon="5.96187">
        <ele>204.2</ele>
        <time>2020-06-29T15:12:19Z</time>
      </trkpt>
      <trkpt lat="48.69379" lon="5.96181">
        <ele>204.1</ele>
        <time>2020-06-29T15:12:20Z</time>
      </trkpt>
      <trkpt lat="48.69383" lon="5.96175">
        <ele>203.9</ele>
        <time>2020-06-29T15:12:21Z</time>
      </trkpt>
      <trkpt lat="48.69386" lon="5.9617">
        <ele>203.7</ele>
        <time>2020-06-29T15:12:22Z</time>
      </trkpt>
      <trkpt lat="48.69389" lon="5.96164">
        <ele>203.6</ele>
        <time>2020-06-29T15:12:23Z</time>
      </trkpt>
      <trkpt lat="48.69393" lon="5.96159">
        <ele>203.5</ele>
        <time>2020-06-29T15:12:24Z</time>
      </trkpt>
      <trkpt lat="48.69396" lon="5.96153">
        <ele>203.3</ele>
        <time>2020-06-29T15:12:25Z</time>
      </trkpt>
      <trkpt lat="48.694" lon="5.96146">
        <ele>203.2</ele>
        <time>2020-06-29T15:12:26Z</time>
      </trkpt>
      <trkpt lat="48.69404" lon="5.9614">
        <ele>203.2</ele>
        <time>2020-06-29T15:12:27Z</time>
      </trkpt>
      <trkpt lat="48.69407" lon="5.96132">
        <ele>203.1</ele>
        <time>2020-06-29T15:12:28Z</time>
      </trkpt>
      <trkpt lat="48.69411" lon="5.96126">
        <ele>202.9</ele>
        <time>2020-06-29T15:12:29Z</time>
      </trkpt>
      <trkpt lat="48.69414" lon="5.96118">
        <ele>202.9</ele>
        <time>2020-06-29T15:12:30Z</time>
      </trkpt>
      <trkpt lat="48.69418" lon="5.96111">
        <ele>202.9</ele>
        <time>2020-06-29T15:12:31Z</time>
      </trkpt>
      <trkpt lat="48.69421" lon="5.96104">
        <ele>202.9</ele>
        <time>2020-06-29T15:12:32Z</time>
      </trkpt>
      <trkpt lat="48.69424" lon="5.96097">
        <ele>202.9</ele>
        <time>2020-06-29T15:12:33Z</time>
      </trkpt>
      <trkpt lat="48.69427" lon="5.9609">
        <ele>202.7</ele>
        <time>2020-06-29T15:12:34Z</time>
      </trkpt>
      <trkpt lat="48.6943" lon="5.96083">
        <ele>202.5</ele>
        <time>2020-06-29T15:12:35Z</time>
      </trkpt>
      <trkpt lat="48.69433" lon="5.96078">
        <ele>202.3</ele>
        <time>2020-06-29T15:12:36Z</time>
      </trkpt>
      <trkpt lat="48.69436" lon="5.96072">
        <ele>202.2</ele>
        <time>2020-06-29T15:12:37Z</time>
      </trkpt>
      <trkpt lat="48.69439" lon="5.96069">
        <ele>202.2</ele>
        <time>2020-06-29T15:12:38Z</time>
      </trkpt>
      <trkpt lat="48.69441" lon="5.96063">
        <ele>202.1</ele>
        <time>2020-06-29T15:12:39Z</time>
      </trkpt>
      <trkpt lat="48.69443" lon="5.96056">
        <ele>201.9</ele>
        <time>2020-06-29T15:12:40Z</time>
      </trkpt>
      <trkpt lat="48.69447" lon="5.96053">
        <ele>201.9</ele>
        <time>2020-06-29T15:12:41Z</time>
      </trkpt>
      <trkpt lat="48.69452" lon="5.96052">
        <ele>201.9</ele>
        <time>2020-06-29T15:12:42Z</time>
      </trkpt>
      <trkpt lat="48.69457" lon="5.96051">
        <ele>201.8</ele>
        <time>2020-06-29T15:12:43Z</time>
      </trkpt>
      <trkpt lat="48.69463" lon="5.96056">
        <ele>201.8</ele>
        <time>2020-06-29T15:12:44Z</time>
      </trkpt>
      <trkpt lat="48.69469" lon="5.96058">
        <ele>201.7</ele>
        <time>2020-06-29T15:12:45Z</time>
      </trkpt>
      <trkpt lat="48.69473" lon="5.96055">
        <ele>201.7</ele>
        <time>2020-06-29T15:12:46Z</time>
      </trkpt>
      <trkpt lat="48.69478" lon="5.9605">
        <ele>201.8</ele>
        <time>2020-06-29T15:12:47Z</time>
      </trkpt>
      <trkpt lat="48.69482" lon="5.96045">
        <ele>201.8</ele>
        <time>2020-06-29T15:12:48Z</time>
      </trkpt>
      <trkpt lat="48.69486" lon="5.96041">
        <ele>201.7</ele>
        <time>2020-06-29T15:12:49Z</time>
      </trkpt>
      <trkpt lat="48.69489" lon="5.96035">
        <ele>201.7</ele>
        <time>2020-06-29T15:12:50Z</time>
      </trkpt>
      <trkpt lat="48.69492" lon="5.96028">
        <ele>201.7</ele>
        <time>2020-06-29T15:12:51Z</time>
      </trkpt>
      <trkpt lat="48.69496" lon="5.96023">
        <ele>201.6</ele>
        <time>2020-06-29T15:12:52Z</time>
      </trkpt>
      <trkpt lat="48.695" lon="5.96018">
        <ele>201.6</ele>
        <time>2020-06-29T15:12:53Z</time>
      </trkpt>
      <trkpt lat="48.69503" lon="5.96012">
        <ele>201.6</ele>
        <time>2020-06-29T15:12:54Z</time>
      </trkpt>
      <trkpt lat="48.69506" lon="5.96007">
        <ele>201.5</ele>
        <time>2020-06-29T15:12:55Z</time>
      </trkpt>
      <trkpt lat="48.6951" lon="5.96002">
        <ele>201.5</ele>
        <time>2020-06-29T15:12:56Z</time>
      </trkpt>
      <trkpt lat="48.69512" lon="5.95995">
        <ele>201.4</ele>
        <time>2020-06-29T15:12:57Z</time>
      </trkpt>
      <trkpt lat="48.69515" lon="5.95989">
        <ele>201.4</ele>
        <time>2020-06-29T15:12:58Z</time>
      </trkpt>
      <trkpt lat="48.69518" lon="5.95982">
        <ele>201.3</ele>
        <time>2020-06-29T15:12:59Z</time>
      </trkpt>
      <trkpt lat="48.69521" lon="5.95975">
        <ele>201.3</ele>
        <time>2020-06-29T15:13:00Z</time>
      </trkpt>
      <trkpt lat="48.69524" lon="5.95968">
        <ele>201.3</ele>
        <time>2020-06-29T15:13:01Z</time>
      </trkpt>
      <trkpt lat="48.69528" lon="5.95962">
        <ele>201.2</ele>
        <time>2020-06-29T15:13:02Z</time>
      </trkpt>
      <trkpt lat="48.69531" lon="5.95954">
        <ele>201.2</ele>
        <time>2020-06-29T15:13:03Z</time>
      </trkpt>
      <trkpt lat="48.69534" lon="5.95948">
        <ele>201.2</ele>
        <time>2020-06-29T15:13:04Z</time>
      </trkpt>
      <trkpt lat="48.69538" lon="5.95942">
        <ele>201.2</ele>
        <time>2020-06-29T15:13:05Z</time>
      </trkpt>
      <trkpt lat="48.69542" lon="5.95938">
        <ele>201.3</ele>
        <time>2020-06-29T15:13:06Z</time>
      </trkpt>
      <trkpt lat="48.69546" lon="5.95933">
        <ele>201.3</ele>
        <time>2020-06-29T15:13:07Z</time>
      </trkpt>
      <trkpt lat="48.69549" lon="5.95929">
        <ele>201.3</ele>
        <time>2020-06-29T15:13:08Z</time>
      </trkpt>
      <trkpt lat="48.69552" lon="5.95925">
        <ele>201.3</ele>
        <time>2020-06-29T15:13:09Z</time>
      </trkpt>
      <trkpt lat="48.69554" lon="5.95921">
        <ele>201.4</ele>
        <time>2020-06-29T15:13:10Z</time>
      </trkpt>
      <trkpt lat="48.69556" lon="5.95917">
        <ele>201.4</ele>
        <time>2020-06-29T15:13:11Z</time>
      </trkpt>
      <trkpt lat="48.69558" lon="5.95914">
        <ele>201.5</ele>
        <time>2020-06-29T15:13:12Z</time>
      </trkpt>
      <trkpt lat="48.6956" lon="5.9591">
        <ele>201.5</ele>
        <time>2020-06-29T15:13:13Z</time>
      </trkpt>
      <trkpt lat="48.69561" lon="5.95905">
        <ele>201.6</ele>
        <time>2020-06-29T15:13:14Z</time>
      </trkpt>
      <trkpt lat="48.69562" lon="5.95902">
        <ele>201.6</ele>
        <time>2020-06-29T15:13:15Z</time>
      </trkpt>
      <trkpt lat="48.69564" lon="5.95898">
        <ele>201.7</ele>
        <time>2020-06-29T15:13:16Z</time>
      </trkpt>
      <trkpt lat="48.6957" lon="5.95899">
        <ele>201.7</ele>
        <time>2020-06-29T15:13:17Z</time>
      </trkpt>
      <trkpt lat="48.69572" lon="5.95896">
        <ele>201.8</ele>
        <time>2020-06-29T15:13:18Z</time>
      </trkpt>
      <trkpt lat="48.69574" lon="5.95892">
        <ele>201.8</ele>
        <time>2020-06-29T15:13:19Z</time>
      </trkpt>
      <trkpt lat="48.69575" lon="5.95888">
        <ele>201.9</ele>
        <time>2020-06-29T15:13:20Z</time>
      </trkpt>
      <trkpt lat="48.69577" lon="5.95885">
        <ele>201.9</ele>
        <time>2020-06-29T15:13:21Z</time>
      </trkpt>
      <trkpt lat="48.6958" lon="5.95882">
        <ele>201.9</ele>
        <time>2020-06-29T15:13:22Z</time>
      </trkpt>
      <trkpt lat="48.69583" lon="5.95879">
        <ele>202</ele>
        <time>2020-06-29T15:13:23Z</time>
      </trkpt>
      <trkpt lat="48.69583" lon="5.95878">
        <ele>202</ele>
        <time>2020-06-29T15:13:24Z</time>
      </trkpt>
      <trkpt lat="48.69587" lon="5.95876">
        <ele>202</ele>
        <time>2020-06-29T15:13:25Z</time>
      </trkpt>
      <trkpt lat="48.69589" lon="5.95876">
        <ele>202</ele>
        <time>2020-06-29T15:13:26Z</time>
      </trkpt>
      <trkpt lat="48.69592" lon="5.95872">
        <ele>202.1</ele>
        <time>2020-06-29T15:13:27Z</time>
      </trkpt>
      <trkpt lat="48.69592" lon="5.95871">
        <ele>202.1</ele>
        <time>2020-06-29T15:13:28Z</time>
      </trkpt>
      <trkpt lat="48.69595" lon="5.95867">
        <ele>202.1</ele>
        <time>2020-06-29T15:13:29Z</time>
      </trkpt>
      <trkpt lat="48.69597" lon="5.95866">
        <ele>202.1</ele>
        <time>2020-06-29T15:13:30Z</time>
      </trkpt>
      <trkpt lat="48.69599" lon="5.9586">
        <ele>202.1</ele>
        <time>2020-06-29T15:13:31Z</time>
      </trkpt>
      <trkpt lat="48.69599" lon="5.95858">
        <ele>202.1</ele>
        <time>2020-06-29T15:13:32Z</time>
      </trkpt>
      <trkpt lat="48.69602" lon="5.95855">
        <ele>202.2</ele>
        <time>2020-06-29T15:13:33Z</time>
      </trkpt>
      <trkpt lat="48.69604" lon="5.95851">
        <ele>202.2</ele>
        <time>2020-06-29T15:13:34Z</time>
      </trkpt>
      <trkpt lat="48.69606" lon="5.95847">
        <ele>202.2</ele>
        <time>2020-06-29T15:13:35Z</time>
      </trkpt>
      <trkpt lat="48.69608" lon="5.95842">
        <ele>202.2</ele>
        <time>2020-06-29T15:13:36Z</time>
      </trkpt>
      <trkpt lat="48.6961" lon="5.95837">
        <ele>202.2</ele>
        <time>2020-06-29T15:13:37Z</time>
      </trkpt>
      <trkpt lat="48.69613" lon="5.95833">
        <ele>202.2</ele>
        <time>2020-06-29T15:13:38Z</time>
      </trkpt>
      <trkpt lat="48.69615" lon="5.95829">
        <ele>202.2</ele>
        <time>2020-06-29T15:13:39Z</time>
      </trkpt>
      <trkpt lat="48.69617" lon="5.95824">
        <ele>202.2</ele>
        <time>2020-06-29T15:13:40Z</time>
      </trkpt>
      <trkpt lat="48.69619" lon="5.95819">
        <ele>202.2</ele>
        <time>2020-06-29T15:13:41Z</time>
      </trkpt>
      <trkpt lat="48.69621" lon="5.95815">
        <ele>202.1</ele>
        <time>2020-06-29T15:13:42Z</time>
      </trkpt>
      <trkpt lat="48.69623" lon="5.95811">
        <ele>202.1</ele>
        <time>2020-06-29T15:13:43Z</time>
      </trkpt>
      <trkpt lat="48.69625" lon="5.95808">
        <ele>202.1</ele>
        <time>2020-06-29T15:13:44Z</time>
      </trkpt>
      <trkpt lat="48.69627" lon="5.95804">
        <ele>202.1</ele>
        <time>2020-06-29T15:13:45Z</time>
      </trkpt>
      <trkpt lat="48.6963" lon="5.95801">
        <ele>202.1</ele>
        <time>2020-06-29T15:13:46Z</time>
      </trkpt>
      <trkpt lat="48.69632" lon="5.95798">
        <ele>202.1</ele>
        <time>2020-06-29T15:13:47Z</time>
      </trkpt>
      <trkpt lat="48.69634" lon="5.95794">
        <ele>202.1</ele>
        <time>2020-06-29T15:13:48Z</time>
      </trkpt>
      <trkpt lat="48.69636" lon="5.9579">
        <ele>202</ele>
        <time>2020-06-29T15:13:49Z</time>
      </trkpt>
      <trkpt lat="48.69638" lon="5.95787">
        <ele>202</ele>
        <time>2020-06-29T15:13:50Z</time>
      </trkpt>
      <trkpt lat="48.6964" lon="5.95784">
        <ele>202</ele>
        <time>2020-06-29T15:13:51Z</time>
      </trkpt>
      <trkpt lat="48.69642" lon="5.95782">
        <ele>202</ele>
        <time>2020-06-29T15:13:52Z</time>
      </trkpt>
      <trkpt lat="48.69644" lon="5.95777">
        <ele>202</ele>
        <time>2020-06-29T15:13:53Z</time>
      </trkpt>
      <trkpt lat="48.69645" lon="5.95776">
        <ele>202</ele>
        <time>2020-06-29T15:13:54Z</time>
      </trkpt>
      <trkpt lat="48.69647" lon="5.95771">
        <ele>202</ele>
        <time>2020-06-29T15:13:55Z</time>
      </trkpt>
      <trkpt lat="48.69648" lon="5.9577">
        <ele>202</ele>
        <time>2020-06-29T15:13:56Z</time>
      </trkpt>
      <trkpt lat="48.6965" lon="5.95765">
        <ele>201.9</ele>
        <time>2020-06-29T15:13:57Z</time>
      </trkpt>
      <trkpt lat="48.69651" lon="5.95763">
        <ele>201.9</ele>
        <time>2020-06-29T15:13:58Z</time>
      </trkpt>
      <trkpt lat="48.69653" lon="5.9576">
        <ele>201.8</ele>
        <time>2020-06-29T15:13:59Z</time>
      </trkpt>
      <trkpt lat="48.69656" lon="5.95757">
        <ele>201.7</ele>
        <time>2020-06-29T15:14:00Z</time>
      </trkpt>
      <trkpt lat="48.6966" lon="5.95754">
        <ele>201.5</ele>
        <time>2020-06-29T15:14:01Z</time>
      </trkpt>
      <trkpt lat="48.69663" lon="5.95749">
        <ele>201.4</ele>
        <time>2020-06-29T15:14:02Z</time>
      </trkpt>
      <trkpt lat="48.69665" lon="5.95743">
        <ele>201.2</ele>
        <time>2020-06-29T15:14:03Z</time>
      </trkpt>
      <trkpt lat="48.69668" lon="5.95738">
        <ele>201</ele>
        <time>2020-06-29T15:14:04Z</time>
      </trkpt>
      <trkpt lat="48.69672" lon="5.95733">
        <ele>200.7</ele>
        <time>2020-06-29T15:14:05Z</time>
      </trkpt>
      <trkpt lat="48.69675" lon="5.95728">
        <ele>200.5</ele>
        <time>2020-06-29T15:14:06Z</time>
      </trkpt>
      <trkpt lat="48.69677" lon="5.9572">
        <ele>200.2</ele>
        <time>2020-06-29T15:14:07Z</time>
      </trkpt>
      <trkpt lat="48.69681" lon="5.95714">
        <ele>200</ele>
        <time>2020-06-29T15:14:08Z</time>
      </trkpt>
      <trkpt lat="48.69686" lon="5.95707">
        <ele>199.7</ele>
        <time>2020-06-29T15:14:09Z</time>
      </trkpt>
      <trkpt lat="48.6969" lon="5.957">
        <ele>199.5</ele>
        <time>2020-06-29T15:14:10Z</time>
      </trkpt>
      <trkpt lat="48.69694" lon="5.95693">
        <ele>199.3</ele>
        <time>2020-06-29T15:14:11Z</time>
      </trkpt>
      <trkpt lat="48.69697" lon="5.95685">
        <ele>199.1</ele>
        <time>2020-06-29T15:14:12Z</time>
      </trkpt>
      <trkpt lat="48.69701" lon="5.95677">
        <ele>198.9</ele>
        <time>2020-06-29T15:14:13Z</time>
      </trkpt>
      <trkpt lat="48.69703" lon="5.95669">
        <ele>198.8</ele>
        <time>2020-06-29T15:14:14Z</time>
      </trkpt>
      <trkpt lat="48.69707" lon="5.95662">
        <ele>198.7</ele>
        <time>2020-06-29T15:14:15Z</time>
      </trkpt>
      <trkpt lat="48.69708" lon="5.95655">
        <ele>198.6</ele>
        <time>2020-06-29T15:14:16Z</time>
      </trkpt>
      <trkpt lat="48.69711" lon="5.95647">
        <ele>198.6</ele>
        <time>2020-06-29T15:14:17Z</time>
      </trkpt>
      <trkpt lat="48.69713" lon="5.95639">
        <ele>198.6</ele>
        <time>2020-06-29T15:14:18Z</time>
      </trkpt>
      <trkpt lat="48.69715" lon="5.95632">
        <ele>198.5</ele>
        <time>2020-06-29T15:14:19Z</time>
      </trkpt>
      <trkpt lat="48.69714" lon="5.95625">
        <ele>198.5</ele>
        <time>2020-06-29T15:14:20Z</time>
      </trkpt>
      <trkpt lat="48.69713" lon="5.95619">
        <ele>198.5</ele>
        <time>2020-06-29T15:14:21Z</time>
      </trkpt>
      <trkpt lat="48.69714" lon="5.95612">
        <ele>198.5</ele>
        <time>2020-06-29T15:14:22Z</time>
      </trkpt>
      <trkpt lat="48.69714" lon="5.95606">
        <ele>198.4</ele>
        <time>2020-06-29T15:14:23Z</time>
      </trkpt>
      <trkpt lat="48.69715" lon="5.956">
        <ele>198.4</ele>
        <time>2020-06-29T15:14:24Z</time>
      </trkpt>
      <trkpt lat="48.69715" lon="5.95594">
        <ele>198.4</ele>
        <time>2020-06-29T15:14:25Z</time>
      </trkpt>
      <trkpt lat="48.69715" lon="5.95587">
        <ele>198.4</ele>
        <time>2020-06-29T15:14:26Z</time>
      </trkpt>
      <trkpt lat="48.69715" lon="5.95582">
        <ele>198.4</ele>
        <time>2020-06-29T15:14:27Z</time>
      </trkpt>
      <trkpt lat="48.69714" lon="5.95576">
        <ele>198.4</ele>
        <time>2020-06-29T15:14:28Z</time>
      </trkpt>
      <trkpt lat="48.69714" lon="5.95571">
        <ele>198.4</ele>
        <time>2020-06-29T15:14:29Z</time>
      </trkpt>
      <trkpt lat="48.69713" lon="5.95565">
        <ele>198.4</ele>
        <time>2020-06-29T15:14:30Z</time>
      </trkpt>
      <trkpt lat="48.69711" lon="5.95558">
        <ele>198.4</ele>
        <time>2020-06-29T15:14:31Z</time>
      </trkpt>
      <trkpt lat="48.69709" lon="5.95551">
        <ele>198.4</ele>
        <time>2020-06-29T15:14:32Z</time>
      </trkpt>
      <trkpt lat="48.69707" lon="5.95544">
        <ele>198.4</ele>
        <time>2020-06-29T15:14:33Z</time>
      </trkpt>
      <trkpt lat="48.69706" lon="5.95538">
        <ele>198.4</ele>
        <time>2020-06-29T15:14:34Z</time>
      </trkpt>
      <trkpt lat="48.69705" lon="5.95531">
        <ele>198.3</ele>
        <time>2020-06-29T15:14:35Z</time>
      </trkpt>
      <trkpt lat="48.69703" lon="5.95524">
        <ele>198.3</ele>
        <time>2020-06-29T15:14:36Z</time>
      </trkpt>
      <trkpt lat="48.69702" lon="5.95516">
        <ele>198.3</ele>
        <time>2020-06-29T15:14:37Z</time>
      </trkpt>
      <trkpt lat="48.697" lon="5.95508">
        <ele>198.3</ele>
        <time>2020-06-29T15:14:38Z</time>
      </trkpt>
      <trkpt lat="48.69698" lon="5.95501">
        <ele>198.3</ele>
        <time>2020-06-29T15:14:39Z</time>
      </trkpt>
      <trkpt lat="48.69696" lon="5.95494">
        <ele>198.3</ele>
        <time>2020-06-29T15:14:40Z</time>
      </trkpt>
      <trkpt lat="48.69693" lon="5.95488">
        <ele>198.3</ele>
        <time>2020-06-29T15:14:41Z</time>
      </trkpt>
      <trkpt lat="48.69691" lon="5.95482">
        <ele>198.4</ele>
        <time>2020-06-29T15:14:42Z</time>
      </trkpt>
      <trkpt lat="48.69688" lon="5.95477">
        <ele>198.4</ele>
        <time>2020-06-29T15:14:43Z</time>
      </trkpt>
      <trkpt lat="48.69685" lon="5.95472">
        <ele>198.4</ele>
        <time>2020-06-29T15:14:44Z</time>
      </trkpt>
      <trkpt lat="48.69681" lon="5.95468">
        <ele>198.5</ele>
        <time>2020-06-29T15:14:45Z</time>
      </trkpt>
      <trkpt lat="48.69678" lon="5.95463">
        <ele>198.5</ele>
        <time>2020-06-29T15:14:46Z</time>
      </trkpt>
      <trkpt lat="48.69674" lon="5.95459">
        <ele>198.6</ele>
        <time>2020-06-29T15:14:47Z</time>
      </trkpt>
      <trkpt lat="48.69669" lon="5.95454">
        <ele>198.7</ele>
        <time>2020-06-29T15:14:48Z</time>
      </trkpt>
      <trkpt lat="48.69666" lon="5.95449">
        <ele>198.7</ele>
        <time>2020-06-29T15:14:49Z</time>
      </trkpt>
      <trkpt lat="48.69662" lon="5.95444">
        <ele>198.8</ele>
        <time>2020-06-29T15:14:50Z</time>
      </trkpt>
      <trkpt lat="48.69658" lon="5.95439">
        <ele>198.9</ele>
        <time>2020-06-29T15:14:51Z</time>
      </trkpt>
      <trkpt lat="48.69654" lon="5.95435">
        <ele>198.9</ele>
        <time>2020-06-29T15:14:52Z</time>
      </trkpt>
      <trkpt lat="48.6965" lon="5.95431">
        <ele>198.9</ele>
        <time>2020-06-29T15:14:53Z</time>
      </trkpt>
      <trkpt lat="48.69646" lon="5.95427">
        <ele>199</ele>
        <time>2020-06-29T15:14:54Z</time>
      </trkpt>
      <trkpt lat="48.69642" lon="5.95423">
        <ele>199</ele>
        <time>2020-06-29T15:14:55Z</time>
      </trkpt>
      <trkpt lat="48.69638" lon="5.9542">
        <ele>199</ele>
        <time>2020-06-29T15:14:56Z</time>
      </trkpt>
      <trkpt lat="48.69634" lon="5.95416">
        <ele>199</ele>
        <time>2020-06-29T15:14:57Z</time>
      </trkpt>
      <trkpt lat="48.6963" lon="5.95412">
        <ele>199</ele>
        <time>2020-06-29T15:14:58Z</time>
      </trkpt>
      <trkpt lat="48.69625" lon="5.95409">
        <ele>198.9</ele>
        <time>2020-06-29T15:14:59Z</time>
      </trkpt>
      <trkpt lat="48.6962" lon="5.95406">
        <ele>198.9</ele>
        <time>2020-06-29T15:15:00Z</time>
      </trkpt>
      <trkpt lat="48.69615" lon="5.95403">
        <ele>198.9</ele>
        <time>2020-06-29T15:15:01Z</time>
      </trkpt>
      <trkpt lat="48.6961" lon="5.95399">
        <ele>198.8</ele>
        <time>2020-06-29T15:15:02Z</time>
      </trkpt>
      <trkpt lat="48.69605" lon="5.95394">
        <ele>198.8</ele>
        <time>2020-06-29T15:15:03Z</time>
      </trkpt>
      <trkpt lat="48.696" lon="5.95389">
        <ele>198.7</ele>
        <time>2020-06-29T15:15:04Z</time>
      </trkpt>
      <trkpt lat="48.69596" lon="5.95384">
        <ele>198.7</ele>
        <time>2020-06-29T15:15:05Z</time>
      </trkpt>
      <trkpt lat="48.69591" lon="5.9538">
        <ele>198.7</ele>
        <time>2020-06-29T15:15:06Z</time>
      </trkpt>
      <trkpt lat="48.69587" lon="5.95377">
        <ele>198.6</ele>
        <time>2020-06-29T15:15:07Z</time>
      </trkpt>
      <trkpt lat="48.69582" lon="5.95373">
        <ele>198.6</ele>
        <time>2020-06-29T15:15:08Z</time>
      </trkpt>
      <trkpt lat="48.69578" lon="5.95369">
        <ele>198.6</ele>
        <time>2020-06-29T15:15:09Z</time>
      </trkpt>
      <trkpt lat="48.69573" lon="5.95367">
        <ele>198.6</ele>
        <time>2020-06-29T15:15:10Z</time>
      </trkpt>
      <trkpt lat="48.69568" lon="5.95363">
        <ele>198.6</ele>
        <time>2020-06-29T15:15:11Z</time>
      </trkpt>
      <trkpt lat="48.69564" lon="5.95359">
        <ele>198.6</ele>
        <time>2020-06-29T15:15:12Z</time>
      </trkpt>
      <trkpt lat="48.6956" lon="5.95355">
        <ele>198.6</ele>
        <time>2020-06-29T15:15:13Z</time>
      </trkpt>
      <trkpt lat="48.69556" lon="5.95351">
        <ele>198.6</ele>
        <time>2020-06-29T15:15:14Z</time>
      </trkpt>
      <trkpt lat="48.69552" lon="5.95344">
        <ele>198.6</ele>
        <time>2020-06-29T15:15:15Z</time>
      </trkpt>
      <trkpt lat="48.6955" lon="5.95338">
        <ele>198.6</ele>
        <time>2020-06-29T15:15:16Z</time>
      </trkpt>
      <trkpt lat="48.69547" lon="5.95331">
        <ele>198.6</ele>
        <time>2020-06-29T15:15:17Z</time>
      </trkpt>
      <trkpt lat="48.69544" lon="5.95325">
        <ele>198.6</ele>
        <time>2020-06-29T15:15:18Z</time>
      </trkpt>
      <trkpt lat="48.69542" lon="5.95319">
        <ele>198.6</ele>
        <time>2020-06-29T15:15:19Z</time>
      </trkpt>
      <trkpt lat="48.6954" lon="5.95313">
        <ele>198.6</ele>
        <time>2020-06-29T15:15:20Z</time>
      </trkpt>
      <trkpt lat="48.69538" lon="5.95306">
        <ele>198.6</ele>
        <time>2020-06-29T15:15:21Z</time>
      </trkpt>
      <trkpt lat="48.69536" lon="5.95299">
        <ele>198.6</ele>
        <time>2020-06-29T15:15:22Z</time>
      </trkpt>
      <trkpt lat="48.69535" lon="5.95292">
        <ele>198.6</ele>
        <time>2020-06-29T15:15:23Z</time>
      </trkpt>
      <trkpt lat="48.69533" lon="5.95285">
        <ele>198.6</ele>
        <time>2020-06-29T15:15:24Z</time>
      </trkpt>
      <trkpt lat="48.69531" lon="5.95279">
        <ele>198.7</ele>
        <time>2020-06-29T15:15:25Z</time>
      </trkpt>
      <trkpt lat="48.69529" lon="5.95273">
        <ele>198.7</ele>
        <time>2020-06-29T15:15:26Z</time>
      </trkpt>
      <trkpt lat="48.69528" lon="5.95267">
        <ele>198.7</ele>
        <time>2020-06-29T15:15:27Z</time>
      </trkpt>
      <trkpt lat="48.69527" lon="5.95261">
        <ele>198.7</ele>
        <time>2020-06-29T15:15:28Z</time>
      </trkpt>
      <trkpt lat="48.69525" lon="5.95255">
        <ele>198.7</ele>
        <time>2020-06-29T15:15:29Z</time>
      </trkpt>
      <trkpt lat="48.69523" lon="5.95248">
        <ele>198.7</ele>
        <time>2020-06-29T15:15:30Z</time>
      </trkpt>
      <trkpt lat="48.69521" lon="5.95243">
        <ele>198.7</ele>
        <time>2020-06-29T15:15:31Z</time>
      </trkpt>
      <trkpt lat="48.69519" lon="5.95237">
        <ele>198.7</ele>
        <time>2020-06-29T15:15:32Z</time>
      </trkpt>
      <trkpt lat="48.69518" lon="5.95231">
        <ele>198.7</ele>
        <time>2020-06-29T15:15:33Z</time>
      </trkpt>
      <trkpt lat="48.69517" lon="5.95225">
        <ele>198.7</ele>
        <time>2020-06-29T15:15:34Z</time>
      </trkpt>
      <trkpt lat="48.69515" lon="5.95219">
        <ele>198.7</ele>
        <time>2020-06-29T15:15:35Z</time>
      </trkpt>
      <trkpt lat="48.69513" lon="5.95214">
        <ele>198.7</ele>
        <time>2020-06-29T15:15:36Z</time>
      </trkpt>
      <trkpt lat="48.69512" lon="5.95208">
        <ele>198.7</ele>
        <time>2020-06-29T15:15:37Z</time>
      </trkpt>
      <trkpt lat="48.6951" lon="5.95201">
        <ele>198.7</ele>
        <time>2020-06-29T15:15:38Z</time>
      </trkpt>
      <trkpt lat="48.69509" lon="5.95195">
        <ele>198.7</ele>
        <time>2020-06-29T15:15:39Z</time>
      </trkpt>
      <trkpt lat="48.69507" lon="5.95189">
        <ele>198.7</ele>
        <time>2020-06-29T15:15:40Z</time>
      </trkpt>
      <trkpt lat="48.69506" lon="5.95182">
        <ele>198.7</ele>
        <time>2020-06-29T15:15:41Z</time>
      </trkpt>
      <trkpt lat="48.69504" lon="5.95176">
        <ele>198.7</ele>
        <time>2020-06-29T15:15:42Z</time>
      </trkpt>
      <trkpt lat="48.69501" lon="5.95169">
        <ele>198.7</ele>
        <time>2020-06-29T15:15:43Z</time>
      </trkpt>
      <trkpt lat="48.69499" lon="5.95163">
        <ele>198.7</ele>
        <time>2020-06-29T15:15:44Z</time>
      </trkpt>
      <trkpt lat="48.69497" lon="5.95156">
        <ele>198.7</ele>
        <time>2020-06-29T15:15:45Z</time>
      </trkpt>
      <trkpt lat="48.69496" lon="5.9515">
        <ele>198.7</ele>
        <time>2020-06-29T15:15:46Z</time>
      </trkpt>
      <trkpt lat="48.69494" lon="5.95143">
        <ele>198.7</ele>
        <time>2020-06-29T15:15:47Z</time>
      </trkpt>
      <trkpt lat="48.69493" lon="5.95136">
        <ele>198.7</ele>
        <time>2020-06-29T15:15:48Z</time>
      </trkpt>
      <trkpt lat="48.69492" lon="5.95128">
        <ele>198.7</ele>
        <time>2020-06-29T15:15:49Z</time>
      </trkpt>
      <trkpt lat="48.6949" lon="5.95121">
        <ele>198.7</ele>
        <time>2020-06-29T15:15:50Z</time>
      </trkpt>
      <trkpt lat="48.69488" lon="5.95114">
        <ele>198.7</ele>
        <time>2020-06-29T15:15:51Z</time>
      </trkpt>
      <trkpt lat="48.69486" lon="5.95107">
        <ele>198.7</ele>
        <time>2020-06-29T15:15:52Z</time>
      </trkpt>
      <trkpt lat="48.69484" lon="5.951">
        <ele>198.7</ele>
        <time>2020-06-29T15:15:53Z</time>
      </trkpt>
      <trkpt lat="48.69481" lon="5.95094">
        <ele>198.7</ele>
        <time>2020-06-29T15:15:54Z</time>
      </trkpt>
      <trkpt lat="48.6948" lon="5.95087">
        <ele>198.6</ele>
        <time>2020-06-29T15:15:55Z</time>
      </trkpt>
      <trkpt lat="48.69478" lon="5.9508">
        <ele>198.6</ele>
        <time>2020-06-29T15:15:56Z</time>
      </trkpt>
      <trkpt lat="48.69476" lon="5.95074">
        <ele>198.6</ele>
        <time>2020-06-29T15:15:57Z</time>
      </trkpt>
      <trkpt lat="48.69474" lon="5.95067">
        <ele>198.6</ele>
        <time>2020-06-29T15:15:58Z</time>
      </trkpt>
      <trkpt lat="48.69472" lon="5.95061">
        <ele>198.6</ele>
        <time>2020-06-29T15:15:59Z</time>
      </trkpt>
      <trkpt lat="48.6947" lon="5.95053">
        <ele>198.6</ele>
        <time>2020-06-29T15:16:00Z</time>
      </trkpt>
      <trkpt lat="48.69468" lon="5.95046">
        <ele>198.6</ele>
        <time>2020-06-29T15:16:01Z</time>
      </trkpt>
      <trkpt lat="48.69465" lon="5.95039">
        <ele>198.6</ele>
        <time>2020-06-29T15:16:02Z</time>
      </trkpt>
      <trkpt lat="48.69463" lon="5.95032">
        <ele>198.6</ele>
        <time>2020-06-29T15:16:03Z</time>
      </trkpt>
      <trkpt lat="48.6946" lon="5.95025">
        <ele>198.6</ele>
        <time>2020-06-29T15:16:04Z</time>
      </trkpt>
      <trkpt lat="48.69458" lon="5.95017">
        <ele>198.6</ele>
        <time>2020-06-29T15:16:05Z</time>
      </trkpt>
      <trkpt lat="48.69455" lon="5.9501">
        <ele>198.7</ele>
        <time>2020-06-29T15:16:06Z</time>
      </trkpt>
      <trkpt lat="48.69452" lon="5.95002">
        <ele>198.7</ele>
        <time>2020-06-29T15:16:07Z</time>
      </trkpt>
      <trkpt lat="48.69449" lon="5.94995">
        <ele>198.7</ele>
        <time>2020-06-29T15:16:08Z</time>
      </trkpt>
      <trkpt lat="48.69446" lon="5.94988">
        <ele>198.7</ele>
        <time>2020-06-29T15:16:09Z</time>
      </trkpt>
      <trkpt lat="48.69444" lon="5.94982">
        <ele>198.7</ele>
        <time>2020-06-29T15:16:10Z</time>
      </trkpt>
      <trkpt lat="48.69441" lon="5.94976">
        <ele>198.7</ele>
        <time>2020-06-29T15:16:11Z</time>
      </trkpt>
      <trkpt lat="48.69439" lon="5.9497">
        <ele>198.7</ele>
        <time>2020-06-29T15:16:12Z</time>
      </trkpt>
      <trkpt lat="48.69436" lon="5.94965">
        <ele>198.7</ele>
        <time>2020-06-29T15:16:13Z</time>
      </trkpt>
      <trkpt lat="48.69434" lon="5.9496">
        <ele>198.7</ele>
        <time>2020-06-29T15:16:14Z</time>
      </trkpt>
      <trkpt lat="48.69432" lon="5.94954">
        <ele>198.7</ele>
        <time>2020-06-29T15:16:15Z</time>
      </trkpt>
      <trkpt lat="48.6943" lon="5.94947">
        <ele>198.7</ele>
        <time>2020-06-29T15:16:16Z</time>
      </trkpt>
      <trkpt lat="48.69429" lon="5.94941">
        <ele>198.7</ele>
        <time>2020-06-29T15:16:17Z</time>
      </trkpt>
      <trkpt lat="48.69428" lon="5.94934">
        <ele>198.7</ele>
        <time>2020-06-29T15:16:18Z</time>
      </trkpt>
      <trkpt lat="48.69427" lon="5.94927">
        <ele>198.7</ele>
        <time>2020-06-29T15:16:19Z</time>
      </trkpt>
      <trkpt lat="48.69426" lon="5.9492">
        <ele>198.7</ele>
        <time>2020-06-29T15:16:20Z</time>
      </trkpt>
      <trkpt lat="48.69426" lon="5.94913">
        <ele>198.7</ele>
        <time>2020-06-29T15:16:21Z</time>
      </trkpt>
      <trkpt lat="48.69426" lon="5.94905">
        <ele>198.7</ele>
        <time>2020-06-29T15:16:22Z</time>
      </trkpt>
      <trkpt lat="48.69426" lon="5.94898">
        <ele>198.7</ele>
        <time>2020-06-29T15:16:23Z</time>
      </trkpt>
      <trkpt lat="48.69425" lon="5.9489">
        <ele>198.7</ele>
        <time>2020-06-29T15:16:24Z</time>
      </trkpt>
      <trkpt lat="48.69425" lon="5.94883">
        <ele>198.7</ele>
        <time>2020-06-29T15:16:25Z</time>
      </trkpt>
      <trkpt lat="48.69425" lon="5.94875">
        <ele>198.7</ele>
        <time>2020-06-29T15:16:26Z</time>
      </trkpt>
      <trkpt lat="48.69423" lon="5.94869">
        <ele>198.8</ele>
        <time>2020-06-29T15:16:27Z</time>
      </trkpt>
      <trkpt lat="48.69421" lon="5.94861">
        <ele>198.8</ele>
        <time>2020-06-29T15:16:28Z</time>
      </trkpt>
      <trkpt lat="48.69419" lon="5.94855">
        <ele>198.8</ele>
        <time>2020-06-29T15:16:29Z</time>
      </trkpt>
      <trkpt lat="48.69417" lon="5.94849">
        <ele>198.9</ele>
        <time>2020-06-29T15:16:30Z</time>
      </trkpt>
      <trkpt lat="48.69414" lon="5.94844">
        <ele>198.9</ele>
        <time>2020-06-29T15:16:31Z</time>
      </trkpt>
      <trkpt lat="48.69412" lon="5.94839">
        <ele>198.9</ele>
        <time>2020-06-29T15:16:32Z</time>
      </trkpt>
      <trkpt lat="48.69409" lon="5.94835">
        <ele>198.9</ele>
        <time>2020-06-29T15:16:33Z</time>
      </trkpt>
      <trkpt lat="48.69406" lon="5.9483">
        <ele>198.9</ele>
        <time>2020-06-29T15:16:34Z</time>
      </trkpt>
      <trkpt lat="48.69403" lon="5.94826">
        <ele>198.9</ele>
        <time>2020-06-29T15:16:35Z</time>
      </trkpt>
      <trkpt lat="48.694" lon="5.94821">
        <ele>198.9</ele>
        <time>2020-06-29T15:16:36Z</time>
      </trkpt>
      <trkpt lat="48.69397" lon="5.94816">
        <ele>198.9</ele>
        <time>2020-06-29T15:16:37Z</time>
      </trkpt>
      <trkpt lat="48.69394" lon="5.94811">
        <ele>198.9</ele>
        <time>2020-06-29T15:16:38Z</time>
      </trkpt>
      <trkpt lat="48.69391" lon="5.94807">
        <ele>198.9</ele>
        <time>2020-06-29T15:16:39Z</time>
      </trkpt>
      <trkpt lat="48.69388" lon="5.94802">
        <ele>198.9</ele>
        <time>2020-06-29T15:16:40Z</time>
      </trkpt>
      <trkpt lat="48.69383" lon="5.94795">
        <ele>198.9</ele>
        <time>2020-06-29T15:16:41Z</time>
      </trkpt>
      <trkpt lat="48.69379" lon="5.94787">
        <ele>199</ele>
        <time>2020-06-29T15:16:42Z</time>
      </trkpt>
      <trkpt lat="48.69375" lon="5.9478">
        <ele>199</ele>
        <time>2020-06-29T15:16:43Z</time>
      </trkpt>
      <trkpt lat="48.6937" lon="5.94773">
        <ele>199.1</ele>
        <time>2020-06-29T15:16:44Z</time>
      </trkpt>
      <trkpt lat="48.69367" lon="5.94767">
        <ele>199.1</ele>
        <time>2020-06-29T15:16:45Z</time>
      </trkpt>
      <trkpt lat="48.69362" lon="5.94762">
        <ele>199.2</ele>
        <time>2020-06-29T15:16:46Z</time>
      </trkpt>
      <trkpt lat="48.69358" lon="5.94756">
        <ele>199.2</ele>
        <time>2020-06-29T15:16:47Z</time>
      </trkpt>
      <trkpt lat="48.69355" lon="5.94749">
        <ele>199.3</ele>
        <time>2020-06-29T15:16:48Z</time>
      </trkpt>
      <trkpt lat="48.69351" lon="5.94743">
        <ele>199.3</ele>
        <time>2020-06-29T15:16:49Z</time>
      </trkpt>
      <trkpt lat="48.69348" lon="5.94737">
        <ele>199.3</ele>
        <time>2020-06-29T15:16:50Z</time>
      </trkpt>
      <trkpt lat="48.69345" lon="5.94732">
        <ele>199.4</ele>
        <time>2020-06-29T15:16:51Z</time>
      </trkpt>
      <trkpt lat="48.69342" lon="5.94726">
        <ele>199.4</ele>
        <time>2020-06-29T15:16:52Z</time>
      </trkpt>
      <trkpt lat="48.69339" lon="5.94722">
        <ele>199.4</ele>
        <time>2020-06-29T15:16:53Z</time>
      </trkpt>
      <trkpt lat="48.69336" lon="5.94717">
        <ele>199.4</ele>
        <time>2020-06-29T15:16:54Z</time>
      </trkpt>
      <trkpt lat="48.69333" lon="5.94714">
        <ele>199.4</ele>
        <time>2020-06-29T15:16:55Z</time>
      </trkpt>
      <trkpt lat="48.6933" lon="5.94709">
        <ele>199.4</ele>
        <time>2020-06-29T15:16:56Z</time>
      </trkpt>
      <trkpt lat="48.69327" lon="5.94705">
        <ele>199.5</ele>
        <time>2020-06-29T15:16:57Z</time>
      </trkpt>
      <trkpt lat="48.69324" lon="5.94701">
        <ele>199.5</ele>
        <time>2020-06-29T15:16:58Z</time>
      </trkpt>
      <trkpt lat="48.69322" lon="5.94697">
        <ele>199.5</ele>
        <time>2020-06-29T15:16:59Z</time>
      </trkpt>
      <trkpt lat="48.6932" lon="5.94693">
        <ele>199.5</ele>
        <time>2020-06-29T15:17:00Z</time>
      </trkpt>
      <trkpt lat="48.69317" lon="5.94689">
        <ele>199.6</ele>
        <time>2020-06-29T15:17:01Z</time>
      </trkpt>
      <trkpt lat="48.69314" lon="5.94684">
        <ele>199.6</ele>
        <time>2020-06-29T15:17:02Z</time>
      </trkpt>
      <trkpt lat="48.69311" lon="5.94679">
        <ele>199.6</ele>
        <time>2020-06-29T15:17:03Z</time>
      </trkpt>
      <trkpt lat="48.69308" lon="5.94674">
        <ele>199.7</ele>
        <time>2020-06-29T15:17:04Z</time>
      </trkpt>
      <trkpt lat="48.69305" lon="5.9467">
        <ele>199.7</ele>
        <time>2020-06-29T15:17:05Z</time>
      </trkpt>
      <trkpt lat="48.69302" lon="5.94665">
        <ele>199.7</ele>
        <time>2020-06-29T15:17:06Z</time>
      </trkpt>
      <trkpt lat="48.69299" lon="5.9466">
        <ele>199.7</ele>
        <time>2020-06-29T15:17:07Z</time>
      </trkpt>
      <trkpt lat="48.69296" lon="5.94656">
        <ele>199.8</ele>
        <time>2020-06-29T15:17:08Z</time>
      </trkpt>
      <trkpt lat="48.69294" lon="5.94652">
        <ele>199.8</ele>
        <time>2020-06-29T15:17:09Z</time>
      </trkpt>
      <trkpt lat="48.69291" lon="5.94647">
        <ele>199.8</ele>
        <time>2020-06-29T15:17:10Z</time>
      </trkpt>
      <trkpt lat="48.69289" lon="5.94642">
        <ele>199.8</ele>
        <time>2020-06-29T15:17:11Z</time>
      </trkpt>
      <trkpt lat="48.69286" lon="5.94637">
        <ele>199.8</ele>
        <time>2020-06-29T15:17:12Z</time>
      </trkpt>
      <trkpt lat="48.69284" lon="5.94631">
        <ele>199.8</ele>
        <time>2020-06-29T15:17:13Z</time>
      </trkpt>
      <trkpt lat="48.69281" lon="5.94626">
        <ele>199.9</ele>
        <time>2020-06-29T15:17:14Z</time>
      </trkpt>
      <trkpt lat="48.69277" lon="5.94622">
        <ele>199.9</ele>
        <time>2020-06-29T15:17:15Z</time>
      </trkpt>
      <trkpt lat="48.69273" lon="5.94617">
        <ele>199.9</ele>
        <time>2020-06-29T15:17:16Z</time>
      </trkpt>
      <trkpt lat="48.6927" lon="5.94611">
        <ele>199.9</ele>
        <time>2020-06-29T15:17:17Z</time>
      </trkpt>
      <trkpt lat="48.69267" lon="5.94605">
        <ele>199.9</ele>
        <time>2020-06-29T15:17:18Z</time>
      </trkpt>
      <trkpt lat="48.69264" lon="5.94599">
        <ele>200</ele>
        <time>2020-06-29T15:17:19Z</time>
      </trkpt>
      <trkpt lat="48.69263" lon="5.94596">
        <ele>200</ele>
        <time>2020-06-29T15:17:20Z</time>
      </trkpt>
      <trkpt lat="48.6926" lon="5.94591">
        <ele>200</ele>
        <time>2020-06-29T15:17:21Z</time>
      </trkpt>
      <trkpt lat="48.69256" lon="5.94586">
        <ele>200.1</ele>
        <time>2020-06-29T15:17:22Z</time>
      </trkpt>
      <trkpt lat="48.69253" lon="5.9458">
        <ele>200.1</ele>
        <time>2020-06-29T15:17:23Z</time>
      </trkpt>
      <trkpt lat="48.6925" lon="5.94574">
        <ele>200.2</ele>
        <time>2020-06-29T15:17:24Z</time>
      </trkpt>
      <trkpt lat="48.69246" lon="5.94569">
        <ele>200.2</ele>
        <time>2020-06-29T15:17:25Z</time>
      </trkpt>
      <trkpt lat="48.69243" lon="5.94564">
        <ele>200.2</ele>
        <time>2020-06-29T15:17:26Z</time>
      </trkpt>
      <trkpt lat="48.69239" lon="5.94558">
        <ele>200.3</ele>
        <time>2020-06-29T15:17:27Z</time>
      </trkpt>
      <trkpt lat="48.69236" lon="5.94552">
        <ele>200.3</ele>
        <time>2020-06-29T15:17:28Z</time>
      </trkpt>
      <trkpt lat="48.69232" lon="5.94546">
        <ele>200.3</ele>
        <time>2020-06-29T15:17:29Z</time>
      </trkpt>
      <trkpt lat="48.69229" lon="5.9454">
        <ele>200.4</ele>
        <time>2020-06-29T15:17:30Z</time>
      </trkpt>
      <trkpt lat="48.69226" lon="5.94535">
        <ele>200.4</ele>
        <time>2020-06-29T15:17:31Z</time>
      </trkpt>
      <trkpt lat="48.69223" lon="5.94531">
        <ele>200.4</ele>
        <time>2020-06-29T15:17:32Z</time>
      </trkpt>
      <trkpt lat="48.69219" lon="5.94526">
        <ele>200.4</ele>
        <time>2020-06-29T15:17:33Z</time>
      </trkpt>
      <trkpt lat="48.69217" lon="5.94521">
        <ele>200.5</ele>
        <time>2020-06-29T15:17:34Z</time>
      </trkpt>
      <trkpt lat="48.69214" lon="5.94515">
        <ele>200.5</ele>
        <time>2020-06-29T15:17:35Z</time>
      </trkpt>
      <trkpt lat="48.69211" lon="5.94511">
        <ele>200.5</ele>
        <time>2020-06-29T15:17:36Z</time>
      </trkpt>
      <trkpt lat="48.69207" lon="5.94506">
        <ele>200.5</ele>
        <time>2020-06-29T15:17:37Z</time>
      </trkpt>
      <trkpt lat="48.69204" lon="5.94502">
        <ele>200.5</ele>
        <time>2020-06-29T15:17:38Z</time>
      </trkpt>
      <trkpt lat="48.692" lon="5.94498">
        <ele>200.6</ele>
        <time>2020-06-29T15:17:39Z</time>
      </trkpt>
      <trkpt lat="48.69197" lon="5.94494">
        <ele>200.6</ele>
        <time>2020-06-29T15:17:40Z</time>
      </trkpt>
      <trkpt lat="48.69194" lon="5.9449">
        <ele>200.6</ele>
        <time>2020-06-29T15:17:41Z</time>
      </trkpt>
      <trkpt lat="48.69191" lon="5.94486">
        <ele>200.6</ele>
        <time>2020-06-29T15:17:42Z</time>
      </trkpt>
      <trkpt lat="48.69187" lon="5.94482">
        <ele>200.6</ele>
        <time>2020-06-29T15:17:43Z</time>
      </trkpt>
      <trkpt lat="48.69184" lon="5.94478">
        <ele>200.7</ele>
        <time>2020-06-29T15:17:44Z</time>
      </trkpt>
      <trkpt lat="48.69179" lon="5.94475">
        <ele>200.7</ele>
        <time>2020-06-29T15:17:45Z</time>
      </trkpt>
      <trkpt lat="48.69176" lon="5.94471">
        <ele>200.7</ele>
        <time>2020-06-29T15:17:46Z</time>
      </trkpt>
      <trkpt lat="48.69172" lon="5.94466">
        <ele>200.7</ele>
        <time>2020-06-29T15:17:47Z</time>
      </trkpt>
      <trkpt lat="48.69167" lon="5.94462">
        <ele>200.7</ele>
        <time>2020-06-29T15:17:48Z</time>
      </trkpt>
      <trkpt lat="48.69162" lon="5.94459">
        <ele>200.9</ele>
        <time>2020-06-29T15:17:49Z</time>
      </trkpt>
      <trkpt lat="48.69158" lon="5.94455">
        <ele>200.9</ele>
        <time>2020-06-29T15:17:50Z</time>
      </trkpt>
      <trkpt lat="48.69154" lon="5.94452">
        <ele>201</ele>
        <time>2020-06-29T15:17:51Z</time>
      </trkpt>
      <trkpt lat="48.69149" lon="5.94447">
        <ele>201</ele>
        <time>2020-06-29T15:17:52Z</time>
      </trkpt>
      <trkpt lat="48.69145" lon="5.94442">
        <ele>201.1</ele>
        <time>2020-06-29T15:17:53Z</time>
      </trkpt>
      <trkpt lat="48.69141" lon="5.94438">
        <ele>201.2</ele>
        <time>2020-06-29T15:17:54Z</time>
      </trkpt>
      <trkpt lat="48.69137" lon="5.94434">
        <ele>201.3</ele>
        <time>2020-06-29T15:17:55Z</time>
      </trkpt>
      <trkpt lat="48.69133" lon="5.94429">
        <ele>201.3</ele>
        <time>2020-06-29T15:17:56Z</time>
      </trkpt>
      <trkpt lat="48.69128" lon="5.94424">
        <ele>201.4</ele>
        <time>2020-06-29T15:17:57Z</time>
      </trkpt>
      <trkpt lat="48.69123" lon="5.94419">
        <ele>201.5</ele>
        <time>2020-06-29T15:17:58Z</time>
      </trkpt>
      <trkpt lat="48.69119" lon="5.94415">
        <ele>201.6</ele>
        <time>2020-06-29T15:17:59Z</time>
      </trkpt>
      <trkpt lat="48.69114" lon="5.94409">
        <ele>201.7</ele>
        <time>2020-06-29T15:18:00Z</time>
      </trkpt>
      <trkpt lat="48.6911" lon="5.94405">
        <ele>201.8</ele>
        <time>2020-06-29T15:18:01Z</time>
      </trkpt>
      <trkpt lat="48.69106" lon="5.94401">
        <ele>201.9</ele>
        <time>2020-06-29T15:18:02Z</time>
      </trkpt>
      <trkpt lat="48.69103" lon="5.94397">
        <ele>202</ele>
        <time>2020-06-29T15:18:03Z</time>
      </trkpt>
      <trkpt lat="48.691" lon="5.94393">
        <ele>202</ele>
        <time>2020-06-29T15:18:04Z</time>
      </trkpt>
      <trkpt lat="48.69097" lon="5.94389">
        <ele>202.1</ele>
        <time>2020-06-29T15:18:05Z</time>
      </trkpt>
      <trkpt lat="48.69094" lon="5.94386">
        <ele>202.2</ele>
        <time>2020-06-29T15:18:06Z</time>
      </trkpt>
      <trkpt lat="48.69091" lon="5.94383">
        <ele>202.2</ele>
        <time>2020-06-29T15:18:07Z</time>
      </trkpt>
      <trkpt lat="48.69088" lon="5.9438">
        <ele>202.3</ele>
        <time>2020-06-29T15:18:08Z</time>
      </trkpt>
      <trkpt lat="48.69085" lon="5.94376">
        <ele>202.4</ele>
        <time>2020-06-29T15:18:09Z</time>
      </trkpt>
      <trkpt lat="48.69082" lon="5.94372">
        <ele>202.5</ele>
        <time>2020-06-29T15:18:10Z</time>
      </trkpt>
      <trkpt lat="48.6908" lon="5.9437">
        <ele>202.5</ele>
        <time>2020-06-29T15:18:11Z</time>
      </trkpt>
      <trkpt lat="48.69078" lon="5.94366">
        <ele>202.6</ele>
        <time>2020-06-29T15:18:12Z</time>
      </trkpt>
      <trkpt lat="48.69074" lon="5.94363">
        <ele>202.7</ele>
        <time>2020-06-29T15:18:13Z</time>
      </trkpt>
      <trkpt lat="48.69073" lon="5.94362">
        <ele>202.8</ele>
        <time>2020-06-29T15:18:14Z</time>
      </trkpt>
      <trkpt lat="48.69072" lon="5.94357">
        <ele>202.9</ele>
        <time>2020-06-29T15:18:15Z</time>
      </trkpt>
      <trkpt lat="48.69072" lon="5.94356">
        <ele>202.9</ele>
        <time>2020-06-29T15:18:16Z</time>
      </trkpt>
      <trkpt lat="48.69071" lon="5.94354">
        <ele>202.9</ele>
        <time>2020-06-29T15:18:17Z</time>
      </trkpt>
      <trkpt lat="48.69071" lon="5.94351">
        <ele>203</ele>
        <time>2020-06-29T15:18:18Z</time>
      </trkpt>
      <trkpt lat="48.69071" lon="5.94348">
        <ele>203</ele>
        <time>2020-06-29T15:18:19Z</time>
      </trkpt>
      <trkpt lat="48.69071" lon="5.94346">
        <ele>203.1</ele>
        <time>2020-06-29T15:18:20Z</time>
      </trkpt>
      <trkpt lat="48.69071" lon="5.94345">
        <ele>203.1</ele>
        <time>2020-06-29T15:18:21Z</time>
      </trkpt>
      <trkpt lat="48.69071" lon="5.94346">
        <ele>203.1</ele>
        <time>2020-06-29T15:18:22Z</time>
      </trkpt>
      <trkpt lat="48.69071" lon="5.94347">
        <ele>203.2</ele>
        <time>2020-06-29T15:18:23Z</time>
      </trkpt>
      <trkpt lat="48.69071" lon="5.94348">
        <ele>203.2</ele>
        <time>2020-06-29T15:18:24Z</time>
      </trkpt>
      <trkpt lat="48.69071" lon="5.94349">
        <ele>203.2</ele>
        <time>2020-06-29T15:18:25Z</time>
      </trkpt>
      <trkpt lat="48.69071" lon="5.9435">
        <ele>203.2</ele>
        <time>2020-06-29T15:18:26Z</time>
      </trkpt>
      <trkpt lat="48.69071" lon="5.94351">
        <ele>203.2</ele>
        <time>2020-06-29T15:18:27Z</time>
      </trkpt>
      <trkpt lat="48.69071" lon="5.94352">
        <ele>203.3</ele>
        <time>2020-06-29T15:18:28Z</time>
      </trkpt>
      <trkpt lat="48.69071" lon="5.94354">
        <ele>203.3</ele>
        <time>2020-06-29T15:18:29Z</time>
      </trkpt>
      <trkpt lat="48.69071" lon="5.94355">
        <ele>203.3</ele>
        <time>2020-06-29T15:18:30Z</time>
      </trkpt>
      <trkpt lat="48.69074" lon="5.9436">
        <ele>203.1</ele>
        <time>2020-06-29T15:18:31Z</time>
      </trkpt>
      <trkpt lat="48.69075" lon="5.94362">
        <ele>203.1</ele>
        <time>2020-06-29T15:18:32Z</time>
      </trkpt>
      <trkpt lat="48.69078" lon="5.94367">
        <ele>202.9</ele>
        <time>2020-06-29T15:18:33Z</time>
      </trkpt>
      <trkpt lat="48.6908" lon="5.94372">
        <ele>202.8</ele>
        <time>2020-06-29T15:18:34Z</time>
      </trkpt>
      <trkpt lat="48.69083" lon="5.94378">
        <ele>202.6</ele>
        <time>2020-06-29T15:18:35Z</time>
      </trkpt>
      <trkpt lat="48.69085" lon="5.94383">
        <ele>202.5</ele>
        <time>2020-06-29T15:18:36Z</time>
      </trkpt>
      <trkpt lat="48.69087" lon="5.94388">
        <ele>202.4</ele>
        <time>2020-06-29T15:18:37Z</time>
      </trkpt>
      <trkpt lat="48.69092" lon="5.9439">
        <ele>202.2</ele>
        <time>2020-06-29T15:18:38Z</time>
      </trkpt>
      <trkpt lat="48.69096" lon="5.94394">
        <ele>202.1</ele>
        <time>2020-06-29T15:18:39Z</time>
      </trkpt>
      <trkpt lat="48.69101" lon="5.94398">
        <ele>202</ele>
        <time>2020-06-29T15:18:40Z</time>
      </trkpt>
      <trkpt lat="48.69106" lon="5.94401">
        <ele>201.8</ele>
        <time>2020-06-29T15:18:41Z</time>
      </trkpt>
      <trkpt lat="48.69111" lon="5.94402">
        <ele>201.7</ele>
        <time>2020-06-29T15:18:42Z</time>
      </trkpt>
      <trkpt lat="48.69118" lon="5.94401">
        <ele>201.8</ele>
        <time>2020-06-29T15:18:43Z</time>
      </trkpt>
      <trkpt lat="48.69122" lon="5.94393">
        <ele>201.8</ele>
        <time>2020-06-29T15:18:44Z</time>
      </trkpt>
      <trkpt lat="48.69126" lon="5.94387">
        <ele>201.8</ele>
        <time>2020-06-29T15:18:45Z</time>
      </trkpt>
      <trkpt lat="48.6913" lon="5.94381">
        <ele>201.9</ele>
        <time>2020-06-29T15:18:46Z</time>
      </trkpt>
      <trkpt lat="48.69133" lon="5.94377">
        <ele>201.9</ele>
        <time>2020-06-29T15:18:47Z</time>
      </trkpt>
      <trkpt lat="48.69138" lon="5.9437">
        <ele>202</ele>
        <time>2020-06-29T15:18:48Z</time>
      </trkpt>
      <trkpt lat="48.69142" lon="5.94365">
        <ele>202.1</ele>
        <time>2020-06-29T15:18:49Z</time>
      </trkpt>
      <trkpt lat="48.69145" lon="5.94361">
        <ele>202.2</ele>
        <time>2020-06-29T15:18:50Z</time>
      </trkpt>
      <trkpt lat="48.69148" lon="5.94356">
        <ele>202.2</ele>
        <time>2020-06-29T15:18:51Z</time>
      </trkpt>
      <trkpt lat="48.6915" lon="5.94351">
        <ele>202.2</ele>
        <time>2020-06-29T15:18:52Z</time>
      </trkpt>
      <trkpt lat="48.69149" lon="5.94345">
        <ele>202.3</ele>
        <time>2020-06-29T15:18:53Z</time>
      </trkpt>
      <trkpt lat="48.69148" lon="5.94343">
        <ele>202.3</ele>
        <time>2020-06-29T15:18:54Z</time>
      </trkpt>
      <trkpt lat="48.69146" lon="5.94338">
        <ele>202.4</ele>
        <time>2020-06-29T15:18:55Z</time>
      </trkpt>
      <trkpt lat="48.69143" lon="5.94331">
        <ele>202.4</ele>
        <time>2020-06-29T15:18:56Z</time>
      </trkpt>
      <trkpt lat="48.69141" lon="5.94326">
        <ele>202.4</ele>
        <time>2020-06-29T15:18:57Z</time>
      </trkpt>
      <trkpt lat="48.69137" lon="5.94318">
        <ele>202.5</ele>
        <time>2020-06-29T15:18:58Z</time>
      </trkpt>
      <trkpt lat="48.69134" lon="5.94313">
        <ele>202.5</ele>
        <time>2020-06-29T15:18:59Z</time>
      </trkpt>
      <trkpt lat="48.69131" lon="5.94306">
        <ele>202.4</ele>
        <time>2020-06-29T15:19:00Z</time>
      </trkpt>
      <trkpt lat="48.69129" lon="5.94301">
        <ele>202.4</ele>
        <time>2020-06-29T15:19:01Z</time>
      </trkpt>
      <trkpt lat="48.69127" lon="5.94295">
        <ele>202.4</ele>
        <time>2020-06-29T15:19:02Z</time>
      </trkpt>
      <trkpt lat="48.69125" lon="5.94289">
        <ele>202.4</ele>
        <time>2020-06-29T15:19:03Z</time>
      </trkpt>
      <trkpt lat="48.69125" lon="5.94283">
        <ele>202.4</ele>
        <time>2020-06-29T15:19:04Z</time>
      </trkpt>
      <trkpt lat="48.69125" lon="5.94277">
        <ele>202.4</ele>
        <time>2020-06-29T15:19:05Z</time>
      </trkpt>
      <trkpt lat="48.69126" lon="5.9427">
        <ele>202.4</ele>
        <time>2020-06-29T15:19:06Z</time>
      </trkpt>
      <trkpt lat="48.69127" lon="5.94265">
        <ele>202.5</ele>
        <time>2020-06-29T15:19:07Z</time>
      </trkpt>
      <trkpt lat="48.69127" lon="5.9426">
        <ele>202.5</ele>
        <time>2020-06-29T15:19:08Z</time>
      </trkpt>
      <trkpt lat="48.69125" lon="5.94256">
        <ele>202.5</ele>
        <time>2020-06-29T15:19:09Z</time>
      </trkpt>
      <trkpt lat="48.69125" lon="5.94255">
        <ele>202.5</ele>
        <time>2020-06-29T15:19:10Z</time>
      </trkpt>
      <trkpt lat="48.69122" lon="5.94251">
        <ele>202.5</ele>
        <time>2020-06-29T15:19:11Z</time>
      </trkpt>
      <trkpt lat="48.69121" lon="5.9425">
        <ele>202.5</ele>
        <time>2020-06-29T15:19:12Z</time>
      </trkpt>
      <trkpt lat="48.69117" lon="5.94248">
        <ele>202.5</ele>
        <time>2020-06-29T15:19:13Z</time>
      </trkpt>
      <trkpt lat="48.69116" lon="5.94247">
        <ele>202.5</ele>
        <time>2020-06-29T15:19:14Z</time>
      </trkpt>
      <trkpt lat="48.69114" lon="5.94245">
        <ele>202.5</ele>
        <time>2020-06-29T15:19:15Z</time>
      </trkpt>
      <trkpt lat="48.69111" lon="5.94243">
        <ele>202.5</ele>
        <time>2020-06-29T15:19:16Z</time>
      </trkpt>
      <trkpt lat="48.69108" lon="5.9424">
        <ele>202.5</ele>
        <time>2020-06-29T15:19:17Z</time>
      </trkpt>
      <trkpt lat="48.69106" lon="5.9424">
        <ele>202.5</ele>
        <time>2020-06-29T15:19:18Z</time>
      </trkpt>
      <trkpt lat="48.69104" lon="5.9424">
        <ele>202.5</ele>
        <time>2020-06-29T15:19:19Z</time>
      </trkpt>
      <trkpt lat="48.69103" lon="5.9424">
        <ele>202.5</ele>
        <time>2020-06-29T15:19:20Z</time>
      </trkpt>
      <trkpt lat="48.69102" lon="5.94239">
        <ele>202.5</ele>
        <time>2020-06-29T15:19:21Z</time>
      </trkpt>
      <trkpt lat="48.69101" lon="5.94239">
        <ele>202.6</ele>
        <time>2020-06-29T15:19:22Z</time>
      </trkpt>
      <trkpt lat="48.691" lon="5.94237">
        <ele>202.6</ele>
        <time>2020-06-29T15:19:23Z</time>
      </trkpt>
      <trkpt lat="48.69099" lon="5.94233">
        <ele>202.6</ele>
        <time>2020-06-29T15:19:24Z</time>
      </trkpt>
      <trkpt lat="48.69097" lon="5.9423">
        <ele>202.6</ele>
        <time>2020-06-29T15:19:25Z</time>
      </trkpt>
      <trkpt lat="48.69095" lon="5.94226">
        <ele>202.6</ele>
        <time>2020-06-29T15:19:26Z</time>
      </trkpt>
      <trkpt lat="48.69093" lon="5.94221">
        <ele>202.6</ele>
        <time>2020-06-29T15:19:27Z</time>
      </trkpt>
      <trkpt lat="48.69091" lon="5.94216">
        <ele>202.6</ele>
        <time>2020-06-29T15:19:28Z</time>
      </trkpt>
      <trkpt lat="48.6909" lon="5.94211">
        <ele>202.6</ele>
        <time>2020-06-29T15:19:29Z</time>
      </trkpt>
      <trkpt lat="48.69088" lon="5.94207">
        <ele>202.7</ele>
        <time>2020-06-29T15:19:30Z</time>
      </trkpt>
      <trkpt lat="48.69085" lon="5.94202">
        <ele>202.7</ele>
        <time>2020-06-29T15:19:31Z</time>
      </trkpt>
      <trkpt lat="48.69084" lon="5.94196">
        <ele>202.7</ele>
        <time>2020-06-29T15:19:32Z</time>
      </trkpt>
      <trkpt lat="48.69082" lon="5.94191">
        <ele>202.7</ele>
        <time>2020-06-29T15:19:33Z</time>
      </trkpt>
      <trkpt lat="48.69079" lon="5.94184">
        <ele>202.7</ele>
        <time>2020-06-29T15:19:34Z</time>
      </trkpt>
      <trkpt lat="48.69077" lon="5.94179">
        <ele>202.7</ele>
        <time>2020-06-29T15:19:35Z</time>
      </trkpt>
      <trkpt lat="48.69074" lon="5.94173">
        <ele>202.7</ele>
        <time>2020-06-29T15:19:36Z</time>
      </trkpt>
      <trkpt lat="48.69071" lon="5.94168">
        <ele>202.7</ele>
        <time>2020-06-29T15:19:37Z</time>
      </trkpt>
      <trkpt lat="48.69069" lon="5.94163">
        <ele>202.7</ele>
        <time>2020-06-29T15:19:38Z</time>
      </trkpt>
      <trkpt lat="48.69066" lon="5.94156">
        <ele>202.7</ele>
        <time>2020-06-29T15:19:39Z</time>
      </trkpt>
      <trkpt lat="48.69065" lon="5.9415">
        <ele>202.7</ele>
        <time>2020-06-29T15:19:40Z</time>
      </trkpt>
      <trkpt lat="48.69063" lon="5.94144">
        <ele>202.7</ele>
        <time>2020-06-29T15:19:41Z</time>
      </trkpt>
      <trkpt lat="48.69061" lon="5.94138">
        <ele>202.7</ele>
        <time>2020-06-29T15:19:42Z</time>
      </trkpt>
      <trkpt lat="48.69059" lon="5.94133">
        <ele>202.7</ele>
        <time>2020-06-29T15:19:43Z</time>
      </trkpt>
      <trkpt lat="48.69057" lon="5.94127">
        <ele>202.7</ele>
        <time>2020-06-29T15:19:44Z</time>
      </trkpt>
      <trkpt lat="48.69055" lon="5.94121">
        <ele>202.8</ele>
        <time>2020-06-29T15:19:45Z</time>
      </trkpt>
      <trkpt lat="48.69052" lon="5.94114">
        <ele>202.8</ele>
        <time>2020-06-29T15:19:46Z</time>
      </trkpt>
      <trkpt lat="48.6905" lon="5.94107">
        <ele>202.8</ele>
        <time>2020-06-29T15:19:47Z</time>
      </trkpt>
      <trkpt lat="48.69047" lon="5.94101">
        <ele>202.8</ele>
        <time>2020-06-29T15:19:48Z</time>
      </trkpt>
      <trkpt lat="48.69044" lon="5.94094">
        <ele>202.8</ele>
        <time>2020-06-29T15:19:49Z</time>
      </trkpt>
      <trkpt lat="48.69042" lon="5.94086">
        <ele>202.8</ele>
        <time>2020-06-29T15:19:50Z</time>
      </trkpt>
      <trkpt lat="48.69039" lon="5.94078">
        <ele>202.8</ele>
        <time>2020-06-29T15:19:51Z</time>
      </trkpt>
      <trkpt lat="48.69037" lon="5.94069">
        <ele>202.8</ele>
        <time>2020-06-29T15:19:52Z</time>
      </trkpt>
      <trkpt lat="48.69033" lon="5.94062">
        <ele>202.8</ele>
        <time>2020-06-29T15:19:53Z</time>
      </trkpt>
      <trkpt lat="48.69031" lon="5.94055">
        <ele>202.8</ele>
        <time>2020-06-29T15:19:54Z</time>
      </trkpt>
      <trkpt lat="48.69029" lon="5.94048">
        <ele>202.8</ele>
        <time>2020-06-29T15:19:55Z</time>
      </trkpt>
      <trkpt lat="48.69027" lon="5.94042">
        <ele>202.8</ele>
        <time>2020-06-29T15:19:56Z</time>
      </trkpt>
      <trkpt lat="48.69025" lon="5.94035">
        <ele>202.8</ele>
        <time>2020-06-29T15:19:57Z</time>
      </trkpt>
      <trkpt lat="48.69023" lon="5.94028">
        <ele>202.8</ele>
        <time>2020-06-29T15:19:58Z</time>
      </trkpt>
      <trkpt lat="48.6902" lon="5.94021">
        <ele>202.9</ele>
        <time>2020-06-29T15:19:59Z</time>
      </trkpt>
      <trkpt lat="48.69018" lon="5.94014">
        <ele>202.9</ele>
        <time>2020-06-29T15:20:00Z</time>
      </trkpt>
      <trkpt lat="48.69016" lon="5.94008">
        <ele>202.9</ele>
        <time>2020-06-29T15:20:01Z</time>
      </trkpt>
      <trkpt lat="48.69014" lon="5.94">
        <ele>202.9</ele>
        <time>2020-06-29T15:20:02Z</time>
      </trkpt>
      <trkpt lat="48.69011" lon="5.93994">
        <ele>202.9</ele>
        <time>2020-06-29T15:20:03Z</time>
      </trkpt>
      <trkpt lat="48.69008" lon="5.93987">
        <ele>202.9</ele>
        <time>2020-06-29T15:20:04Z</time>
      </trkpt>
      <trkpt lat="48.69005" lon="5.93981">
        <ele>202.9</ele>
        <time>2020-06-29T15:20:05Z</time>
      </trkpt>
      <trkpt lat="48.69003" lon="5.93974">
        <ele>202.9</ele>
        <time>2020-06-29T15:20:06Z</time>
      </trkpt>
      <trkpt lat="48.69001" lon="5.93967">
        <ele>202.9</ele>
        <time>2020-06-29T15:20:07Z</time>
      </trkpt>
      <trkpt lat="48.69" lon="5.93959">
        <ele>202.9</ele>
        <time>2020-06-29T15:20:08Z</time>
      </trkpt>
      <trkpt lat="48.68997" lon="5.93952">
        <ele>202.9</ele>
        <time>2020-06-29T15:20:09Z</time>
      </trkpt>
      <trkpt lat="48.68996" lon="5.93945">
        <ele>202.9</ele>
        <time>2020-06-29T15:20:10Z</time>
      </trkpt>
      <trkpt lat="48.68994" lon="5.93938">
        <ele>202.9</ele>
        <time>2020-06-29T15:20:11Z</time>
      </trkpt>
      <trkpt lat="48.68992" lon="5.93932">
        <ele>202.9</ele>
        <time>2020-06-29T15:20:12Z</time>
      </trkpt>
      <trkpt lat="48.6899" lon="5.93926">
        <ele>202.9</ele>
        <time>2020-06-29T15:20:13Z</time>
      </trkpt>
      <trkpt lat="48.68988" lon="5.93919">
        <ele>202.9</ele>
        <time>2020-06-29T15:20:14Z</time>
      </trkpt>
      <trkpt lat="48.68986" lon="5.93911">
        <ele>202.9</ele>
        <time>2020-06-29T15:20:15Z</time>
      </trkpt>
      <trkpt lat="48.68983" lon="5.93903">
        <ele>202.9</ele>
        <time>2020-06-29T15:20:16Z</time>
      </trkpt>
      <trkpt lat="48.68981" lon="5.93896">
        <ele>202.9</ele>
        <time>2020-06-29T15:20:17Z</time>
      </trkpt>
      <trkpt lat="48.68979" lon="5.93889">
        <ele>203</ele>
        <time>2020-06-29T15:20:18Z</time>
      </trkpt>
      <trkpt lat="48.68977" lon="5.93882">
        <ele>203</ele>
        <time>2020-06-29T15:20:19Z</time>
      </trkpt>
      <trkpt lat="48.68974" lon="5.93875">
        <ele>203</ele>
        <time>2020-06-29T15:20:20Z</time>
      </trkpt>
      <trkpt lat="48.68972" lon="5.93868">
        <ele>203</ele>
        <time>2020-06-29T15:20:21Z</time>
      </trkpt>
      <trkpt lat="48.6897" lon="5.93861">
        <ele>203</ele>
        <time>2020-06-29T15:20:22Z</time>
      </trkpt>
      <trkpt lat="48.68968" lon="5.93854">
        <ele>203</ele>
        <time>2020-06-29T15:20:23Z</time>
      </trkpt>
      <trkpt lat="48.68966" lon="5.93847">
        <ele>202.9</ele>
        <time>2020-06-29T15:20:24Z</time>
      </trkpt>
      <trkpt lat="48.68964" lon="5.93839">
        <ele>202.9</ele>
        <time>2020-06-29T15:20:25Z</time>
      </trkpt>
      <trkpt lat="48.68962" lon="5.93832">
        <ele>203</ele>
        <time>2020-06-29T15:20:26Z</time>
      </trkpt>
      <trkpt lat="48.6896" lon="5.93824">
        <ele>203</ele>
        <time>2020-06-29T15:20:27Z</time>
      </trkpt>
      <trkpt lat="48.68959" lon="5.93817">
        <ele>203</ele>
        <time>2020-06-29T15:20:28Z</time>
      </trkpt>
      <trkpt lat="48.68957" lon="5.93809">
        <ele>203</ele>
        <time>2020-06-29T15:20:29Z</time>
      </trkpt>
      <trkpt lat="48.68956" lon="5.938">
        <ele>203</ele>
        <time>2020-06-29T15:20:30Z</time>
      </trkpt>
      <trkpt lat="48.68953" lon="5.93793">
        <ele>203</ele>
        <time>2020-06-29T15:20:31Z</time>
      </trkpt>
      <trkpt lat="48.68951" lon="5.93786">
        <ele>203</ele>
        <time>2020-06-29T15:20:32Z</time>
      </trkpt>
      <trkpt lat="48.68949" lon="5.93779">
        <ele>203</ele>
        <time>2020-06-29T15:20:33Z</time>
      </trkpt>
      <trkpt lat="48.68947" lon="5.93772">
        <ele>203</ele>
        <time>2020-06-29T15:20:34Z</time>
      </trkpt>
      <trkpt lat="48.68945" lon="5.93765">
        <ele>203</ele>
        <time>2020-06-29T15:20:35Z</time>
      </trkpt>
      <trkpt lat="48.68943" lon="5.93759">
        <ele>203</ele>
        <time>2020-06-29T15:20:36Z</time>
      </trkpt>
      <trkpt lat="48.68941" lon="5.93752">
        <ele>203</ele>
        <time>2020-06-29T15:20:37Z</time>
      </trkpt>
      <trkpt lat="48.6894" lon="5.93744">
        <ele>203</ele>
        <time>2020-06-29T15:20:38Z</time>
      </trkpt>
      <trkpt lat="48.68938" lon="5.93738">
        <ele>203</ele>
        <time>2020-06-29T15:20:39Z</time>
      </trkpt>
      <trkpt lat="48.68936" lon="5.93732">
        <ele>203</ele>
        <time>2020-06-29T15:20:40Z</time>
      </trkpt>
      <trkpt lat="48.68934" lon="5.93726">
        <ele>203</ele>
        <time>2020-06-29T15:20:41Z</time>
      </trkpt>
      <trkpt lat="48.68933" lon="5.93721">
        <ele>203</ele>
        <time>2020-06-29T15:20:42Z</time>
      </trkpt>
      <trkpt lat="48.68931" lon="5.93714">
        <ele>203</ele>
        <time>2020-06-29T15:20:43Z</time>
      </trkpt>
      <trkpt lat="48.6893" lon="5.93708">
        <ele>203</ele>
        <time>2020-06-29T15:20:44Z</time>
      </trkpt>
      <trkpt lat="48.68928" lon="5.93702">
        <ele>203</ele>
        <time>2020-06-29T15:20:45Z</time>
      </trkpt>
      <trkpt lat="48.68926" lon="5.93695">
        <ele>203</ele>
        <time>2020-06-29T15:20:46Z</time>
      </trkpt>
      <trkpt lat="48.68925" lon="5.93688">
        <ele>203</ele>
        <time>2020-06-29T15:20:47Z</time>
      </trkpt>
      <trkpt lat="48.68923" lon="5.93682">
        <ele>203</ele>
        <time>2020-06-29T15:20:48Z</time>
      </trkpt>
      <trkpt lat="48.68923" lon="5.93676">
        <ele>203</ele>
        <time>2020-06-29T15:20:49Z</time>
      </trkpt>
      <trkpt lat="48.68921" lon="5.93669">
        <ele>203</ele>
        <time>2020-06-29T15:20:50Z</time>
      </trkpt>
      <trkpt lat="48.6892" lon="5.93661">
        <ele>203</ele>
        <time>2020-06-29T15:20:51Z</time>
      </trkpt>
      <trkpt lat="48.68919" lon="5.93655">
        <ele>203</ele>
        <time>2020-06-29T15:20:52Z</time>
      </trkpt>
      <trkpt lat="48.68917" lon="5.93648">
        <ele>203</ele>
        <time>2020-06-29T15:20:53Z</time>
      </trkpt>
      <trkpt lat="48.68916" lon="5.93642">
        <ele>203</ele>
        <time>2020-06-29T15:20:54Z</time>
      </trkpt>
      <trkpt lat="48.68915" lon="5.93635">
        <ele>203</ele>
        <time>2020-06-29T15:20:55Z</time>
      </trkpt>
      <trkpt lat="48.68914" lon="5.93626">
        <ele>203</ele>
        <time>2020-06-29T15:20:56Z</time>
      </trkpt>
      <trkpt lat="48.68912" lon="5.93619">
        <ele>203</ele>
        <time>2020-06-29T15:20:57Z</time>
      </trkpt>
      <trkpt lat="48.68911" lon="5.93612">
        <ele>203</ele>
        <time>2020-06-29T15:20:58Z</time>
      </trkpt>
      <trkpt lat="48.68909" lon="5.93607">
        <ele>203</ele>
        <time>2020-06-29T15:20:59Z</time>
      </trkpt>
      <trkpt lat="48.68907" lon="5.936">
        <ele>203</ele>
        <time>2020-06-29T15:21:00Z</time>
      </trkpt>
      <trkpt lat="48.68905" lon="5.93593">
        <ele>203</ele>
        <time>2020-06-29T15:21:01Z</time>
      </trkpt>
      <trkpt lat="48.68903" lon="5.93585">
        <ele>203</ele>
        <time>2020-06-29T15:21:02Z</time>
      </trkpt>
      <trkpt lat="48.68901" lon="5.93578">
        <ele>203</ele>
        <time>2020-06-29T15:21:03Z</time>
      </trkpt>
      <trkpt lat="48.689" lon="5.9357">
        <ele>202.9</ele>
        <time>2020-06-29T15:21:04Z</time>
      </trkpt>
      <trkpt lat="48.68898" lon="5.93563">
        <ele>202.9</ele>
        <time>2020-06-29T15:21:05Z</time>
      </trkpt>
      <trkpt lat="48.68896" lon="5.93556">
        <ele>202.9</ele>
        <time>2020-06-29T15:21:06Z</time>
      </trkpt>
      <trkpt lat="48.68896" lon="5.93549">
        <ele>202.9</ele>
        <time>2020-06-29T15:21:07Z</time>
      </trkpt>
      <trkpt lat="48.68895" lon="5.93543">
        <ele>202.9</ele>
        <time>2020-06-29T15:21:08Z</time>
      </trkpt>
      <trkpt lat="48.68894" lon="5.93536">
        <ele>202.9</ele>
        <time>2020-06-29T15:21:09Z</time>
      </trkpt>
      <trkpt lat="48.68892" lon="5.93529">
        <ele>202.9</ele>
        <time>2020-06-29T15:21:10Z</time>
      </trkpt>
      <trkpt lat="48.68891" lon="5.93522">
        <ele>202.9</ele>
        <time>2020-06-29T15:21:11Z</time>
      </trkpt>
      <trkpt lat="48.68891" lon="5.93515">
        <ele>203</ele>
        <time>2020-06-29T15:21:12Z</time>
      </trkpt>
      <trkpt lat="48.6889" lon="5.93509">
        <ele>203</ele>
        <time>2020-06-29T15:21:13Z</time>
      </trkpt>
      <trkpt lat="48.68889" lon="5.93502">
        <ele>203</ele>
        <time>2020-06-29T15:21:14Z</time>
      </trkpt>
      <trkpt lat="48.68887" lon="5.93496">
        <ele>203</ele>
        <time>2020-06-29T15:21:15Z</time>
      </trkpt>
      <trkpt lat="48.68886" lon="5.93488">
        <ele>203</ele>
        <time>2020-06-29T15:21:16Z</time>
      </trkpt>
      <trkpt lat="48.68885" lon="5.93481">
        <ele>203</ele>
        <time>2020-06-29T15:21:17Z</time>
      </trkpt>
      <trkpt lat="48.68884" lon="5.93474">
        <ele>203</ele>
        <time>2020-06-29T15:21:18Z</time>
      </trkpt>
      <trkpt lat="48.68882" lon="5.93468">
        <ele>203</ele>
        <time>2020-06-29T15:21:19Z</time>
      </trkpt>
      <trkpt lat="48.68881" lon="5.93461">
        <ele>203</ele>
        <time>2020-06-29T15:21:20Z</time>
      </trkpt>
      <trkpt lat="48.68879" lon="5.93454">
        <ele>203</ele>
        <time>2020-06-29T15:21:21Z</time>
      </trkpt>
      <trkpt lat="48.68878" lon="5.93448">
        <ele>203</ele>
        <time>2020-06-29T15:21:22Z</time>
      </trkpt>
      <trkpt lat="48.68877" lon="5.93442">
        <ele>203</ele>
        <time>2020-06-29T15:21:23Z</time>
      </trkpt>
      <trkpt lat="48.68876" lon="5.93435">
        <ele>203</ele>
        <time>2020-06-29T15:21:24Z</time>
      </trkpt>
      <trkpt lat="48.68875" lon="5.93428">
        <ele>203</ele>
        <time>2020-06-29T15:21:25Z</time>
      </trkpt>
      <trkpt lat="48.68874" lon="5.93422">
        <ele>203</ele>
        <time>2020-06-29T15:21:26Z</time>
      </trkpt>
      <trkpt lat="48.68873" lon="5.93415">
        <ele>203</ele>
        <time>2020-06-29T15:21:27Z</time>
      </trkpt>
      <trkpt lat="48.68872" lon="5.93407">
        <ele>203</ele>
        <time>2020-06-29T15:21:28Z</time>
      </trkpt>
      <trkpt lat="48.68871" lon="5.934">
        <ele>203</ele>
        <time>2020-06-29T15:21:29Z</time>
      </trkpt>
      <trkpt lat="48.6887" lon="5.93392">
        <ele>203</ele>
        <time>2020-06-29T15:21:30Z</time>
      </trkpt>
      <trkpt lat="48.68869" lon="5.93384">
        <ele>203</ele>
        <time>2020-06-29T15:21:31Z</time>
      </trkpt>
      <trkpt lat="48.68868" lon="5.93377">
        <ele>203</ele>
        <time>2020-06-29T15:21:32Z</time>
      </trkpt>
      <trkpt lat="48.68867" lon="5.93369">
        <ele>203</ele>
        <time>2020-06-29T15:21:33Z</time>
      </trkpt>
      <trkpt lat="48.68866" lon="5.93362">
        <ele>203</ele>
        <time>2020-06-29T15:21:34Z</time>
      </trkpt>
      <trkpt lat="48.68865" lon="5.93355">
        <ele>203</ele>
        <time>2020-06-29T15:21:35Z</time>
      </trkpt>
      <trkpt lat="48.68864" lon="5.93349">
        <ele>203</ele>
        <time>2020-06-29T15:21:36Z</time>
      </trkpt>
      <trkpt lat="48.68862" lon="5.93341">
        <ele>203.1</ele>
        <time>2020-06-29T15:21:37Z</time>
      </trkpt>
      <trkpt lat="48.68861" lon="5.93333">
        <ele>203.1</ele>
        <time>2020-06-29T15:21:38Z</time>
      </trkpt>
      <trkpt lat="48.68859" lon="5.93324">
        <ele>203.1</ele>
        <time>2020-06-29T15:21:39Z</time>
      </trkpt>
      <trkpt lat="48.68858" lon="5.93316">
        <ele>203.1</ele>
        <time>2020-06-29T15:21:40Z</time>
      </trkpt>
      <trkpt lat="48.68858" lon="5.93309">
        <ele>203.1</ele>
        <time>2020-06-29T15:21:41Z</time>
      </trkpt>
      <trkpt lat="48.68857" lon="5.93302">
        <ele>203.1</ele>
        <time>2020-06-29T15:21:42Z</time>
      </trkpt>
      <trkpt lat="48.68856" lon="5.93296">
        <ele>203.1</ele>
        <time>2020-06-29T15:21:43Z</time>
      </trkpt>
      <trkpt lat="48.68855" lon="5.93289">
        <ele>203.1</ele>
        <time>2020-06-29T15:21:44Z</time>
      </trkpt>
      <trkpt lat="48.68854" lon="5.93281">
        <ele>203.1</ele>
        <time>2020-06-29T15:21:45Z</time>
      </trkpt>
      <trkpt lat="48.68853" lon="5.93274">
        <ele>203.1</ele>
        <time>2020-06-29T15:21:46Z</time>
      </trkpt>
      <trkpt lat="48.68852" lon="5.93265">
        <ele>203.1</ele>
        <time>2020-06-29T15:21:47Z</time>
      </trkpt>
      <trkpt lat="48.68851" lon="5.93257">
        <ele>203.1</ele>
        <time>2020-06-29T15:21:48Z</time>
      </trkpt>
      <trkpt lat="48.6885" lon="5.93249">
        <ele>203.1</ele>
        <time>2020-06-29T15:21:49Z</time>
      </trkpt>
      <trkpt lat="48.68849" lon="5.93242">
        <ele>203.1</ele>
        <time>2020-06-29T15:21:50Z</time>
      </trkpt>
      <trkpt lat="48.68847" lon="5.93234">
        <ele>203.1</ele>
        <time>2020-06-29T15:21:51Z</time>
      </trkpt>
      <trkpt lat="48.68846" lon="5.93228">
        <ele>203.1</ele>
        <time>2020-06-29T15:21:52Z</time>
      </trkpt>
      <trkpt lat="48.68846" lon="5.9322">
        <ele>203.1</ele>
        <time>2020-06-29T15:21:53Z</time>
      </trkpt>
      <trkpt lat="48.68845" lon="5.93213">
        <ele>203.1</ele>
        <time>2020-06-29T15:21:54Z</time>
      </trkpt>
      <trkpt lat="48.68845" lon="5.93207">
        <ele>203.1</ele>
        <time>2020-06-29T15:21:55Z</time>
      </trkpt>
      <trkpt lat="48.68845" lon="5.93202">
        <ele>203.1</ele>
        <time>2020-06-29T15:21:56Z</time>
      </trkpt>
      <trkpt lat="48.68844" lon="5.93196">
        <ele>203.1</ele>
        <time>2020-06-29T15:21:57Z</time>
      </trkpt>
      <trkpt lat="48.68844" lon="5.9319">
        <ele>203</ele>
        <time>2020-06-29T15:21:58Z</time>
      </trkpt>
      <trkpt lat="48.68843" lon="5.93183">
        <ele>203</ele>
        <time>2020-06-29T15:21:59Z</time>
      </trkpt>
      <trkpt lat="48.68843" lon="5.93177">
        <ele>203</ele>
        <time>2020-06-29T15:22:00Z</time>
      </trkpt>
      <trkpt lat="48.68843" lon="5.93169">
        <ele>203</ele>
        <time>2020-06-29T15:22:01Z</time>
      </trkpt>
      <trkpt lat="48.68842" lon="5.93161">
        <ele>203</ele>
        <time>2020-06-29T15:22:02Z</time>
      </trkpt>
      <trkpt lat="48.68841" lon="5.93154">
        <ele>203</ele>
        <time>2020-06-29T15:22:03Z</time>
      </trkpt>
      <trkpt lat="48.6884" lon="5.93147">
        <ele>203.1</ele>
        <time>2020-06-29T15:22:04Z</time>
      </trkpt>
      <trkpt lat="48.6884" lon="5.93139">
        <ele>203.1</ele>
        <time>2020-06-29T15:22:05Z</time>
      </trkpt>
      <trkpt lat="48.68839" lon="5.93131">
        <ele>203.2</ele>
        <time>2020-06-29T15:22:06Z</time>
      </trkpt>
      <trkpt lat="48.68838" lon="5.93125">
        <ele>203.2</ele>
        <time>2020-06-29T15:22:07Z</time>
      </trkpt>
      <trkpt lat="48.68838" lon="5.93118">
        <ele>203.2</ele>
        <time>2020-06-29T15:22:08Z</time>
      </trkpt>
      <trkpt lat="48.68837" lon="5.93111">
        <ele>203.2</ele>
        <time>2020-06-29T15:22:09Z</time>
      </trkpt>
      <trkpt lat="48.68837" lon="5.93105">
        <ele>203.3</ele>
        <time>2020-06-29T15:22:10Z</time>
      </trkpt>
      <trkpt lat="48.68836" lon="5.931">
        <ele>203.3</ele>
        <time>2020-06-29T15:22:11Z</time>
      </trkpt>
      <trkpt lat="48.68836" lon="5.93093">
        <ele>203.3</ele>
        <time>2020-06-29T15:22:12Z</time>
      </trkpt>
      <trkpt lat="48.68835" lon="5.93086">
        <ele>203.3</ele>
        <time>2020-06-29T15:22:13Z</time>
      </trkpt>
      <trkpt lat="48.68835" lon="5.93081">
        <ele>203.3</ele>
        <time>2020-06-29T15:22:14Z</time>
      </trkpt>
      <trkpt lat="48.68835" lon="5.93074">
        <ele>203.4</ele>
        <time>2020-06-29T15:22:15Z</time>
      </trkpt>
      <trkpt lat="48.68834" lon="5.93067">
        <ele>203.4</ele>
        <time>2020-06-29T15:22:16Z</time>
      </trkpt>
      <trkpt lat="48.68834" lon="5.93058">
        <ele>203.4</ele>
        <time>2020-06-29T15:22:17Z</time>
      </trkpt>
      <trkpt lat="48.68833" lon="5.93049">
        <ele>203.4</ele>
        <time>2020-06-29T15:22:18Z</time>
      </trkpt>
      <trkpt lat="48.68833" lon="5.93039">
        <ele>203.4</ele>
        <time>2020-06-29T15:22:19Z</time>
      </trkpt>
      <trkpt lat="48.68832" lon="5.9303">
        <ele>203.3</ele>
        <time>2020-06-29T15:22:20Z</time>
      </trkpt>
      <trkpt lat="48.68831" lon="5.93021">
        <ele>203.3</ele>
        <time>2020-06-29T15:22:21Z</time>
      </trkpt>
      <trkpt lat="48.68831" lon="5.93012">
        <ele>203.3</ele>
        <time>2020-06-29T15:22:22Z</time>
      </trkpt>
      <trkpt lat="48.68829" lon="5.93003">
        <ele>203.3</ele>
        <time>2020-06-29T15:22:23Z</time>
      </trkpt>
      <trkpt lat="48.68829" lon="5.92995">
        <ele>203.4</ele>
        <time>2020-06-29T15:22:24Z</time>
      </trkpt>
      <trkpt lat="48.68828" lon="5.92989">
        <ele>203.4</ele>
        <time>2020-06-29T15:22:25Z</time>
      </trkpt>
      <trkpt lat="48.68828" lon="5.92981">
        <ele>203.4</ele>
        <time>2020-06-29T15:22:26Z</time>
      </trkpt>
      <trkpt lat="48.68829" lon="5.92974">
        <ele>203.4</ele>
        <time>2020-06-29T15:22:27Z</time>
      </trkpt>
      <trkpt lat="48.6883" lon="5.92966">
        <ele>203.4</ele>
        <time>2020-06-29T15:22:28Z</time>
      </trkpt>
      <trkpt lat="48.68829" lon="5.92958">
        <ele>203.4</ele>
        <time>2020-06-29T15:22:29Z</time>
      </trkpt>
      <trkpt lat="48.6883" lon="5.9295">
        <ele>203.4</ele>
        <time>2020-06-29T15:22:30Z</time>
      </trkpt>
      <trkpt lat="48.6883" lon="5.92942">
        <ele>203.4</ele>
        <time>2020-06-29T15:22:31Z</time>
      </trkpt>
      <trkpt lat="48.68829" lon="5.92935">
        <ele>203.4</ele>
        <time>2020-06-29T15:22:32Z</time>
      </trkpt>
      <trkpt lat="48.68828" lon="5.92927">
        <ele>203.4</ele>
        <time>2020-06-29T15:22:33Z</time>
      </trkpt>
      <trkpt lat="48.68827" lon="5.9292">
        <ele>203.4</ele>
        <time>2020-06-29T15:22:34Z</time>
      </trkpt>
      <trkpt lat="48.68827" lon="5.92911">
        <ele>203.4</ele>
        <time>2020-06-29T15:22:35Z</time>
      </trkpt>
      <trkpt lat="48.68827" lon="5.92904">
        <ele>203.4</ele>
        <time>2020-06-29T15:22:36Z</time>
      </trkpt>
      <trkpt lat="48.68827" lon="5.92896">
        <ele>203.4</ele>
        <time>2020-06-29T15:22:37Z</time>
      </trkpt>
      <trkpt lat="48.68827" lon="5.92888">
        <ele>203.4</ele>
        <time>2020-06-29T15:22:38Z</time>
      </trkpt>
      <trkpt lat="48.68826" lon="5.92882">
        <ele>203.4</ele>
        <time>2020-06-29T15:22:39Z</time>
      </trkpt>
      <trkpt lat="48.68826" lon="5.92874">
        <ele>203.4</ele>
        <time>2020-06-29T15:22:40Z</time>
      </trkpt>
      <trkpt lat="48.68826" lon="5.92867">
        <ele>203.4</ele>
        <time>2020-06-29T15:22:41Z</time>
      </trkpt>
      <trkpt lat="48.68825" lon="5.92859">
        <ele>203.4</ele>
        <time>2020-06-29T15:22:42Z</time>
      </trkpt>
      <trkpt lat="48.68824" lon="5.92852">
        <ele>203.4</ele>
        <time>2020-06-29T15:22:43Z</time>
      </trkpt>
      <trkpt lat="48.68824" lon="5.92844">
        <ele>203.4</ele>
        <time>2020-06-29T15:22:44Z</time>
      </trkpt>
      <trkpt lat="48.68824" lon="5.92836">
        <ele>203.4</ele>
        <time>2020-06-29T15:22:45Z</time>
      </trkpt>
      <trkpt lat="48.68824" lon="5.92827">
        <ele>203.4</ele>
        <time>2020-06-29T15:22:46Z</time>
      </trkpt>
      <trkpt lat="48.68824" lon="5.9282">
        <ele>203.4</ele>
        <time>2020-06-29T15:22:47Z</time>
      </trkpt>
      <trkpt lat="48.68824" lon="5.92811">
        <ele>203.4</ele>
        <time>2020-06-29T15:22:48Z</time>
      </trkpt>
      <trkpt lat="48.68824" lon="5.92803">
        <ele>203.4</ele>
        <time>2020-06-29T15:22:49Z</time>
      </trkpt>
      <trkpt lat="48.68824" lon="5.92795">
        <ele>203.4</ele>
        <time>2020-06-29T15:22:50Z</time>
      </trkpt>
      <trkpt lat="48.68823" lon="5.92788">
        <ele>203.4</ele>
        <time>2020-06-29T15:22:51Z</time>
      </trkpt>
      <trkpt lat="48.68824" lon="5.92779">
        <ele>203.4</ele>
        <time>2020-06-29T15:22:52Z</time>
      </trkpt>
      <trkpt lat="48.68824" lon="5.92771">
        <ele>203.4</ele>
        <time>2020-06-29T15:22:53Z</time>
      </trkpt>
      <trkpt lat="48.68823" lon="5.92763">
        <ele>203.4</ele>
        <time>2020-06-29T15:22:54Z</time>
      </trkpt>
      <trkpt lat="48.68824" lon="5.92756">
        <ele>203.4</ele>
        <time>2020-06-29T15:22:55Z</time>
      </trkpt>
      <trkpt lat="48.68824" lon="5.92749">
        <ele>203.5</ele>
        <time>2020-06-29T15:22:56Z</time>
      </trkpt>
      <trkpt lat="48.68823" lon="5.92742">
        <ele>203.5</ele>
        <time>2020-06-29T15:22:57Z</time>
      </trkpt>
      <trkpt lat="48.68823" lon="5.92735">
        <ele>203.5</ele>
        <time>2020-06-29T15:22:58Z</time>
      </trkpt>
      <trkpt lat="48.68822" lon="5.92727">
        <ele>203.5</ele>
        <time>2020-06-29T15:22:59Z</time>
      </trkpt>
      <trkpt lat="48.68822" lon="5.92719">
        <ele>203.5</ele>
        <time>2020-06-29T15:23:00Z</time>
      </trkpt>
      <trkpt lat="48.68822" lon="5.92713">
        <ele>203.6</ele>
        <time>2020-06-29T15:23:01Z</time>
      </trkpt>
      <trkpt lat="48.68822" lon="5.92706">
        <ele>203.6</ele>
        <time>2020-06-29T15:23:02Z</time>
      </trkpt>
      <trkpt lat="48.68822" lon="5.92701">
        <ele>203.6</ele>
        <time>2020-06-29T15:23:03Z</time>
      </trkpt>
      <trkpt lat="48.68822" lon="5.92695">
        <ele>203.6</ele>
        <time>2020-06-29T15:23:04Z</time>
      </trkpt>
      <trkpt lat="48.68822" lon="5.9269">
        <ele>203.6</ele>
        <time>2020-06-29T15:23:05Z</time>
      </trkpt>
      <trkpt lat="48.68821" lon="5.92684">
        <ele>203.6</ele>
        <time>2020-06-29T15:23:06Z</time>
      </trkpt>
      <trkpt lat="48.68822" lon="5.92679">
        <ele>203.6</ele>
        <time>2020-06-29T15:23:07Z</time>
      </trkpt>
      <trkpt lat="48.68822" lon="5.92675">
        <ele>203.6</ele>
        <time>2020-06-29T15:23:08Z</time>
      </trkpt>
      <trkpt lat="48.68821" lon="5.9267">
        <ele>203.6</ele>
        <time>2020-06-29T15:23:09Z</time>
      </trkpt>
      <trkpt lat="48.68821" lon="5.92669">
        <ele>203.6</ele>
        <time>2020-06-29T15:23:10Z</time>
      </trkpt>
      <trkpt lat="48.68822" lon="5.92669">
        <ele>203.6</ele>
        <time>2020-06-29T15:23:11Z</time>
      </trkpt>
      <trkpt lat="48.68823" lon="5.92672">
        <ele>203.6</ele>
        <time>2020-06-29T15:23:12Z</time>
      </trkpt>
      <trkpt lat="48.68823" lon="5.92673">
        <ele>203.6</ele>
        <time>2020-06-29T15:23:13Z</time>
      </trkpt>
      <trkpt lat="48.68823" lon="5.9267">
        <ele>203.6</ele>
        <time>2020-06-29T15:23:14Z</time>
      </trkpt>
      <trkpt lat="48.68823" lon="5.92669">
        <ele>203.6</ele>
        <time>2020-06-29T15:23:15Z</time>
      </trkpt>
      <trkpt lat="48.68823" lon="5.92668">
        <ele>203.6</ele>
        <time>2020-06-29T15:23:16Z</time>
      </trkpt>
      <trkpt lat="48.68823" lon="5.92666">
        <ele>203.6</ele>
        <time>2020-06-29T15:23:17Z</time>
      </trkpt>
      <trkpt lat="48.68823" lon="5.92665">
        <ele>203.6</ele>
        <time>2020-06-29T15:23:18Z</time>
      </trkpt>
      <trkpt lat="48.68823" lon="5.92663">
        <ele>203.6</ele>
        <time>2020-06-29T15:23:19Z</time>
      </trkpt>
      <trkpt lat="48.68823" lon="5.92662">
        <ele>203.6</ele>
        <time>2020-06-29T15:23:20Z</time>
      </trkpt>
      <trkpt lat="48.68823" lon="5.9266">
        <ele>203.6</ele>
        <time>2020-06-29T15:23:21Z</time>
      </trkpt>
      <trkpt lat="48.68823" lon="5.92659">
        <ele>203.6</ele>
        <time>2020-06-29T15:23:22Z</time>
      </trkpt>
      <trkpt lat="48.68824" lon="5.92658">
        <ele>203.6</ele>
        <time>2020-06-29T15:23:23Z</time>
      </trkpt>
      <trkpt lat="48.68824" lon="5.92656">
        <ele>203.6</ele>
        <time>2020-06-29T15:25:32Z</time>
      </trkpt>
      <trkpt lat="48.68824" lon="5.92655">
        <ele>203.6</ele>
        <time>2020-06-29T15:25:33Z</time>
      </trkpt>
      <trkpt lat="48.68823" lon="5.92651">
        <ele>203.6</ele>
        <time>2020-06-29T15:25:34Z</time>
      </trkpt>
      <trkpt lat="48.68822" lon="5.92644">
        <ele>203.5</ele>
        <time>2020-06-29T15:25:35Z</time>
      </trkpt>
      <trkpt lat="48.68822" lon="5.92635">
        <ele>203.5</ele>
        <time>2020-06-29T15:25:36Z</time>
      </trkpt>
      <trkpt lat="48.68822" lon="5.9263">
        <ele>203.5</ele>
        <time>2020-06-29T15:25:37Z</time>
      </trkpt>
      <trkpt lat="48.68822" lon="5.92622">
        <ele>203.5</ele>
        <time>2020-06-29T15:25:38Z</time>
      </trkpt>
      <trkpt lat="48.68822" lon="5.92615">
        <ele>203.5</ele>
        <time>2020-06-29T15:25:39Z</time>
      </trkpt>
      <trkpt lat="48.68822" lon="5.92609">
        <ele>203.5</ele>
        <time>2020-06-29T15:25:40Z</time>
      </trkpt>
      <trkpt lat="48.68822" lon="5.92602">
        <ele>203.5</ele>
        <time>2020-06-29T15:25:41Z</time>
      </trkpt>
      <trkpt lat="48.68822" lon="5.92594">
        <ele>203.5</ele>
        <time>2020-06-29T15:25:42Z</time>
      </trkpt>
      <trkpt lat="48.68822" lon="5.92587">
        <ele>203.5</ele>
        <time>2020-06-29T15:25:43Z</time>
      </trkpt>
      <trkpt lat="48.68822" lon="5.92579">
        <ele>203.5</ele>
        <time>2020-06-29T15:25:44Z</time>
      </trkpt>
      <trkpt lat="48.68821" lon="5.92572">
        <ele>203.5</ele>
        <time>2020-06-29T15:25:45Z</time>
      </trkpt>
      <trkpt lat="48.68822" lon="5.92566">
        <ele>203.5</ele>
        <time>2020-06-29T15:25:46Z</time>
      </trkpt>
      <trkpt lat="48.68821" lon="5.92559">
        <ele>203.5</ele>
        <time>2020-06-29T15:25:47Z</time>
      </trkpt>
      <trkpt lat="48.68821" lon="5.92553">
        <ele>203.5</ele>
        <time>2020-06-29T15:25:48Z</time>
      </trkpt>
      <trkpt lat="48.68821" lon="5.92546">
        <ele>203.5</ele>
        <time>2020-06-29T15:25:49Z</time>
      </trkpt>
      <trkpt lat="48.68821" lon="5.92539">
        <ele>203.5</ele>
        <time>2020-06-29T15:25:50Z</time>
      </trkpt>
      <trkpt lat="48.6882" lon="5.92531">
        <ele>203.5</ele>
        <time>2020-06-29T15:25:51Z</time>
      </trkpt>
      <trkpt lat="48.6882" lon="5.92524">
        <ele>203.5</ele>
        <time>2020-06-29T15:25:52Z</time>
      </trkpt>
      <trkpt lat="48.68819" lon="5.92516">
        <ele>203.5</ele>
        <time>2020-06-29T15:25:53Z</time>
      </trkpt>
      <trkpt lat="48.68819" lon="5.92508">
        <ele>203.5</ele>
        <time>2020-06-29T15:25:54Z</time>
      </trkpt>
      <trkpt lat="48.68819" lon="5.925">
        <ele>203.5</ele>
        <time>2020-06-29T15:25:55Z</time>
      </trkpt>
      <trkpt lat="48.68819" lon="5.92494">
        <ele>203.5</ele>
        <time>2020-06-29T15:25:56Z</time>
      </trkpt>
      <trkpt lat="48.68818" lon="5.92488">
        <ele>203.5</ele>
        <time>2020-06-29T15:25:57Z</time>
      </trkpt>
      <trkpt lat="48.68818" lon="5.92482">
        <ele>203.5</ele>
        <time>2020-06-29T15:25:58Z</time>
      </trkpt>
      <trkpt lat="48.68818" lon="5.92478">
        <ele>203.5</ele>
        <time>2020-06-29T15:25:59Z</time>
      </trkpt>
      <trkpt lat="48.68818" lon="5.92472">
        <ele>203.6</ele>
        <time>2020-06-29T15:26:00Z</time>
      </trkpt>
      <trkpt lat="48.68818" lon="5.92469">
        <ele>203.6</ele>
        <time>2020-06-29T15:26:01Z</time>
      </trkpt>
      <trkpt lat="48.68818" lon="5.92465">
        <ele>203.6</ele>
        <time>2020-06-29T15:26:02Z</time>
      </trkpt>
      <trkpt lat="48.68818" lon="5.92459">
        <ele>203.6</ele>
        <time>2020-06-29T15:26:03Z</time>
      </trkpt>
      <trkpt lat="48.68818" lon="5.92457">
        <ele>203.6</ele>
        <time>2020-06-29T15:26:04Z</time>
      </trkpt>
      <trkpt lat="48.68818" lon="5.92451">
        <ele>203.6</ele>
        <time>2020-06-29T15:26:05Z</time>
      </trkpt>
      <trkpt lat="48.68817" lon="5.92446">
        <ele>203.6</ele>
        <time>2020-06-29T15:26:06Z</time>
      </trkpt>
      <trkpt lat="48.68818" lon="5.92441">
        <ele>203.6</ele>
        <time>2020-06-29T15:26:07Z</time>
      </trkpt>
      <trkpt lat="48.68818" lon="5.92435">
        <ele>203.6</ele>
        <time>2020-06-29T15:26:08Z</time>
      </trkpt>
      <trkpt lat="48.68818" lon="5.9243">
        <ele>203.6</ele>
        <time>2020-06-29T15:26:09Z</time>
      </trkpt>
      <trkpt lat="48.68817" lon="5.92423">
        <ele>203.6</ele>
        <time>2020-06-29T15:26:10Z</time>
      </trkpt>
      <trkpt lat="48.68816" lon="5.92417">
        <ele>203.6</ele>
        <time>2020-06-29T15:26:11Z</time>
      </trkpt>
      <trkpt lat="48.68816" lon="5.92411">
        <ele>203.6</ele>
        <time>2020-06-29T15:26:12Z</time>
      </trkpt>
      <trkpt lat="48.68816" lon="5.92405">
        <ele>203.6</ele>
        <time>2020-06-29T15:26:13Z</time>
      </trkpt>
      <trkpt lat="48.68816" lon="5.92398">
        <ele>203.6</ele>
        <time>2020-06-29T15:26:14Z</time>
      </trkpt>
      <trkpt lat="48.68816" lon="5.92391">
        <ele>203.6</ele>
        <time>2020-06-29T15:26:15Z</time>
      </trkpt>
      <trkpt lat="48.68816" lon="5.92384">
        <ele>203.6</ele>
        <time>2020-06-29T15:26:16Z</time>
      </trkpt>
      <trkpt lat="48.68817" lon="5.92378">
        <ele>203.5</ele>
        <time>2020-06-29T15:26:17Z</time>
      </trkpt>
      <trkpt lat="48.68815" lon="5.92371">
        <ele>203.5</ele>
        <time>2020-06-29T15:26:18Z</time>
      </trkpt>
      <trkpt lat="48.68815" lon="5.92364">
        <ele>203.6</ele>
        <time>2020-06-29T15:26:19Z</time>
      </trkpt>
      <trkpt lat="48.68815" lon="5.92359">
        <ele>203.6</ele>
        <time>2020-06-29T15:26:20Z</time>
      </trkpt>
      <trkpt lat="48.68814" lon="5.92352">
        <ele>203.6</ele>
        <time>2020-06-29T15:26:21Z</time>
      </trkpt>
      <trkpt lat="48.68814" lon="5.92346">
        <ele>203.6</ele>
        <time>2020-06-29T15:26:22Z</time>
      </trkpt>
      <trkpt lat="48.68813" lon="5.9234">
        <ele>203.6</ele>
        <time>2020-06-29T15:26:23Z</time>
      </trkpt>
      <trkpt lat="48.68813" lon="5.92333">
        <ele>203.6</ele>
        <time>2020-06-29T15:26:24Z</time>
      </trkpt>
      <trkpt lat="48.68813" lon="5.92326">
        <ele>203.6</ele>
        <time>2020-06-29T15:26:25Z</time>
      </trkpt>
      <trkpt lat="48.68813" lon="5.92321">
        <ele>203.6</ele>
        <time>2020-06-29T15:26:26Z</time>
      </trkpt>
      <trkpt lat="48.68812" lon="5.92315">
        <ele>203.6</ele>
        <time>2020-06-29T15:26:27Z</time>
      </trkpt>
      <trkpt lat="48.68812" lon="5.92309">
        <ele>203.6</ele>
        <time>2020-06-29T15:26:28Z</time>
      </trkpt>
      <trkpt lat="48.68811" lon="5.92304">
        <ele>203.6</ele>
        <time>2020-06-29T15:26:29Z</time>
      </trkpt>
      <trkpt lat="48.68811" lon="5.92298">
        <ele>203.6</ele>
        <time>2020-06-29T15:26:30Z</time>
      </trkpt>
      <trkpt lat="48.68812" lon="5.92296">
        <ele>203.6</ele>
        <time>2020-06-29T15:26:31Z</time>
      </trkpt>
      <trkpt lat="48.68811" lon="5.92291">
        <ele>203.6</ele>
        <time>2020-06-29T15:26:32Z</time>
      </trkpt>
      <trkpt lat="48.68811" lon="5.92286">
        <ele>203.6</ele>
        <time>2020-06-29T15:26:33Z</time>
      </trkpt>
      <trkpt lat="48.68811" lon="5.92281">
        <ele>203.6</ele>
        <time>2020-06-29T15:26:34Z</time>
      </trkpt>
      <trkpt lat="48.68811" lon="5.92276">
        <ele>203.6</ele>
        <time>2020-06-29T15:26:35Z</time>
      </trkpt>
      <trkpt lat="48.68811" lon="5.92274">
        <ele>203.6</ele>
        <time>2020-06-29T15:26:36Z</time>
      </trkpt>
      <trkpt lat="48.68811" lon="5.92269">
        <ele>203.6</ele>
        <time>2020-06-29T15:26:37Z</time>
      </trkpt>
      <trkpt lat="48.68811" lon="5.92267">
        <ele>203.6</ele>
        <time>2020-06-29T15:26:38Z</time>
      </trkpt>
      <trkpt lat="48.68811" lon="5.92262">
        <ele>203.6</ele>
        <time>2020-06-29T15:26:39Z</time>
      </trkpt>
      <trkpt lat="48.68811" lon="5.92255">
        <ele>203.6</ele>
        <time>2020-06-29T15:26:40Z</time>
      </trkpt>
      <trkpt lat="48.68811" lon="5.92251">
        <ele>203.6</ele>
        <time>2020-06-29T15:26:41Z</time>
      </trkpt>
      <trkpt lat="48.68811" lon="5.92245">
        <ele>203.5</ele>
        <time>2020-06-29T15:26:42Z</time>
      </trkpt>
      <trkpt lat="48.68811" lon="5.92238">
        <ele>203.5</ele>
        <time>2020-06-29T15:26:43Z</time>
      </trkpt>
      <trkpt lat="48.6881" lon="5.9223">
        <ele>203.5</ele>
        <time>2020-06-29T15:26:44Z</time>
      </trkpt>
      <trkpt lat="48.68809" lon="5.92223">
        <ele>203.5</ele>
        <time>2020-06-29T15:26:45Z</time>
      </trkpt>
      <trkpt lat="48.68809" lon="5.92215">
        <ele>203.5</ele>
        <time>2020-06-29T15:26:46Z</time>
      </trkpt>
      <trkpt lat="48.68808" lon="5.92208">
        <ele>203.5</ele>
        <time>2020-06-29T15:26:47Z</time>
      </trkpt>
      <trkpt lat="48.68807" lon="5.92201">
        <ele>203.5</ele>
        <time>2020-06-29T15:26:48Z</time>
      </trkpt>
      <trkpt lat="48.68807" lon="5.92192">
        <ele>203.5</ele>
        <time>2020-06-29T15:26:49Z</time>
      </trkpt>
      <trkpt lat="48.68807" lon="5.92185">
        <ele>203.5</ele>
        <time>2020-06-29T15:26:50Z</time>
      </trkpt>
      <trkpt lat="48.68807" lon="5.92178">
        <ele>203.5</ele>
        <time>2020-06-29T15:26:51Z</time>
      </trkpt>
      <trkpt lat="48.68807" lon="5.92172">
        <ele>203.5</ele>
        <time>2020-06-29T15:26:52Z</time>
      </trkpt>
      <trkpt lat="48.68807" lon="5.92166">
        <ele>203.5</ele>
        <time>2020-06-29T15:26:53Z</time>
      </trkpt>
      <trkpt lat="48.68806" lon="5.9216">
        <ele>203.5</ele>
        <time>2020-06-29T15:26:54Z</time>
      </trkpt>
      <trkpt lat="48.68806" lon="5.92153">
        <ele>203.6</ele>
        <time>2020-06-29T15:26:55Z</time>
      </trkpt>
      <trkpt lat="48.68805" lon="5.92147">
        <ele>203.6</ele>
        <time>2020-06-29T15:26:56Z</time>
      </trkpt>
      <trkpt lat="48.68806" lon="5.92141">
        <ele>203.6</ele>
        <time>2020-06-29T15:26:57Z</time>
      </trkpt>
      <trkpt lat="48.68806" lon="5.92134">
        <ele>203.6</ele>
        <time>2020-06-29T15:26:58Z</time>
      </trkpt>
      <trkpt lat="48.68805" lon="5.92127">
        <ele>203.6</ele>
        <time>2020-06-29T15:26:59Z</time>
      </trkpt>
      <trkpt lat="48.68804" lon="5.92121">
        <ele>203.6</ele>
        <time>2020-06-29T15:27:00Z</time>
      </trkpt>
      <trkpt lat="48.68803" lon="5.92114">
        <ele>203.7</ele>
        <time>2020-06-29T15:27:01Z</time>
      </trkpt>
      <trkpt lat="48.68804" lon="5.92108">
        <ele>203.7</ele>
        <time>2020-06-29T15:27:02Z</time>
      </trkpt>
      <trkpt lat="48.68803" lon="5.92101">
        <ele>203.7</ele>
        <time>2020-06-29T15:27:03Z</time>
      </trkpt>
      <trkpt lat="48.68802" lon="5.92094">
        <ele>203.7</ele>
        <time>2020-06-29T15:27:04Z</time>
      </trkpt>
      <trkpt lat="48.68802" lon="5.92085">
        <ele>203.7</ele>
        <time>2020-06-29T15:27:05Z</time>
      </trkpt>
      <trkpt lat="48.68801" lon="5.92079">
        <ele>203.8</ele>
        <time>2020-06-29T15:27:06Z</time>
      </trkpt>
      <trkpt lat="48.68801" lon="5.92072">
        <ele>203.8</ele>
        <time>2020-06-29T15:27:07Z</time>
      </trkpt>
      <trkpt lat="48.68799" lon="5.92065">
        <ele>203.7</ele>
        <time>2020-06-29T15:27:08Z</time>
      </trkpt>
      <trkpt lat="48.68799" lon="5.9206">
        <ele>203.7</ele>
        <time>2020-06-29T15:27:09Z</time>
      </trkpt>
      <trkpt lat="48.68798" lon="5.92054">
        <ele>203.7</ele>
        <time>2020-06-29T15:27:10Z</time>
      </trkpt>
      <trkpt lat="48.68798" lon="5.92048">
        <ele>203.7</ele>
        <time>2020-06-29T15:27:11Z</time>
      </trkpt>
      <trkpt lat="48.68797" lon="5.92041">
        <ele>203.8</ele>
        <time>2020-06-29T15:27:12Z</time>
      </trkpt>
      <trkpt lat="48.68797" lon="5.92035">
        <ele>203.8</ele>
        <time>2020-06-29T15:27:13Z</time>
      </trkpt>
      <trkpt lat="48.68797" lon="5.92029">
        <ele>203.8</ele>
        <time>2020-06-29T15:27:14Z</time>
      </trkpt>
      <trkpt lat="48.68796" lon="5.92023">
        <ele>203.8</ele>
        <time>2020-06-29T15:27:15Z</time>
      </trkpt>
      <trkpt lat="48.68796" lon="5.92016">
        <ele>203.8</ele>
        <time>2020-06-29T15:27:16Z</time>
      </trkpt>
      <trkpt lat="48.68795" lon="5.92009">
        <ele>203.8</ele>
        <time>2020-06-29T15:27:17Z</time>
      </trkpt>
      <trkpt lat="48.68795" lon="5.92002">
        <ele>203.8</ele>
        <time>2020-06-29T15:27:18Z</time>
      </trkpt>
      <trkpt lat="48.68795" lon="5.91996">
        <ele>203.7</ele>
        <time>2020-06-29T15:27:19Z</time>
      </trkpt>
      <trkpt lat="48.68795" lon="5.91989">
        <ele>203.7</ele>
        <time>2020-06-29T15:27:20Z</time>
      </trkpt>
      <trkpt lat="48.68794" lon="5.91983">
        <ele>203.7</ele>
        <time>2020-06-29T15:27:21Z</time>
      </trkpt>
      <trkpt lat="48.68794" lon="5.91976">
        <ele>203.7</ele>
        <time>2020-06-29T15:27:22Z</time>
      </trkpt>
      <trkpt lat="48.68794" lon="5.9197">
        <ele>203.7</ele>
        <time>2020-06-29T15:27:23Z</time>
      </trkpt>
      <trkpt lat="48.68794" lon="5.91962">
        <ele>203.7</ele>
        <time>2020-06-29T15:27:24Z</time>
      </trkpt>
      <trkpt lat="48.68794" lon="5.91956">
        <ele>203.7</ele>
        <time>2020-06-29T15:27:25Z</time>
      </trkpt>
      <trkpt lat="48.68793" lon="5.9195">
        <ele>203.7</ele>
        <time>2020-06-29T15:27:26Z</time>
      </trkpt>
      <trkpt lat="48.68793" lon="5.91944">
        <ele>203.7</ele>
        <time>2020-06-29T15:27:27Z</time>
      </trkpt>
      <trkpt lat="48.68792" lon="5.91937">
        <ele>203.8</ele>
        <time>2020-06-29T15:27:28Z</time>
      </trkpt>
      <trkpt lat="48.68792" lon="5.9193">
        <ele>203.8</ele>
        <time>2020-06-29T15:27:29Z</time>
      </trkpt>
      <trkpt lat="48.68791" lon="5.91924">
        <ele>203.8</ele>
        <time>2020-06-29T15:27:30Z</time>
      </trkpt>
      <trkpt lat="48.68789" lon="5.91918">
        <ele>203.8</ele>
        <time>2020-06-29T15:27:31Z</time>
      </trkpt>
      <trkpt lat="48.68788" lon="5.91911">
        <ele>203.7</ele>
        <time>2020-06-29T15:27:32Z</time>
      </trkpt>
      <trkpt lat="48.68788" lon="5.91904">
        <ele>203.7</ele>
        <time>2020-06-29T15:27:33Z</time>
      </trkpt>
      <trkpt lat="48.68787" lon="5.91897">
        <ele>203.7</ele>
        <time>2020-06-29T15:27:34Z</time>
      </trkpt>
      <trkpt lat="48.68786" lon="5.9189">
        <ele>203.7</ele>
        <time>2020-06-29T15:27:35Z</time>
      </trkpt>
      <trkpt lat="48.68784" lon="5.91883">
        <ele>203.6</ele>
        <time>2020-06-29T15:27:36Z</time>
      </trkpt>
      <trkpt lat="48.68783" lon="5.91876">
        <ele>203.6</ele>
        <time>2020-06-29T15:27:37Z</time>
      </trkpt>
      <trkpt lat="48.68782" lon="5.91869">
        <ele>203.6</ele>
        <time>2020-06-29T15:27:38Z</time>
      </trkpt>
      <trkpt lat="48.68781" lon="5.91862">
        <ele>203.6</ele>
        <time>2020-06-29T15:27:39Z</time>
      </trkpt>
      <trkpt lat="48.6878" lon="5.91854">
        <ele>203.7</ele>
        <time>2020-06-29T15:27:40Z</time>
      </trkpt>
      <trkpt lat="48.6878" lon="5.91846">
        <ele>203.7</ele>
        <time>2020-06-29T15:27:41Z</time>
      </trkpt>
      <trkpt lat="48.68779" lon="5.91839">
        <ele>203.7</ele>
        <time>2020-06-29T15:27:42Z</time>
      </trkpt>
      <trkpt lat="48.68777" lon="5.91833">
        <ele>203.7</ele>
        <time>2020-06-29T15:27:43Z</time>
      </trkpt>
      <trkpt lat="48.68775" lon="5.91826">
        <ele>203.7</ele>
        <time>2020-06-29T15:27:44Z</time>
      </trkpt>
      <trkpt lat="48.68773" lon="5.91817">
        <ele>203.7</ele>
        <time>2020-06-29T15:27:45Z</time>
      </trkpt>
      <trkpt lat="48.68772" lon="5.9181">
        <ele>203.7</ele>
        <time>2020-06-29T15:27:46Z</time>
      </trkpt>
      <trkpt lat="48.68771" lon="5.91801">
        <ele>203.7</ele>
        <time>2020-06-29T15:27:47Z</time>
      </trkpt>
      <trkpt lat="48.68769" lon="5.91793">
        <ele>203.7</ele>
        <time>2020-06-29T15:27:48Z</time>
      </trkpt>
      <trkpt lat="48.68768" lon="5.91786">
        <ele>203.7</ele>
        <time>2020-06-29T15:27:49Z</time>
      </trkpt>
      <trkpt lat="48.68766" lon="5.91778">
        <ele>203.6</ele>
        <time>2020-06-29T15:27:50Z</time>
      </trkpt>
      <trkpt lat="48.68766" lon="5.91769">
        <ele>203.6</ele>
        <time>2020-06-29T15:27:51Z</time>
      </trkpt>
      <trkpt lat="48.68765" lon="5.91762">
        <ele>203.6</ele>
        <time>2020-06-29T15:27:52Z</time>
      </trkpt>
      <trkpt lat="48.68763" lon="5.91754">
        <ele>203.7</ele>
        <time>2020-06-29T15:27:53Z</time>
      </trkpt>
      <trkpt lat="48.68762" lon="5.91746">
        <ele>203.7</ele>
        <time>2020-06-29T15:27:54Z</time>
      </trkpt>
      <trkpt lat="48.68761" lon="5.91738">
        <ele>203.7</ele>
        <time>2020-06-29T15:27:55Z</time>
      </trkpt>
      <trkpt lat="48.6876" lon="5.91731">
        <ele>203.7</ele>
        <time>2020-06-29T15:27:56Z</time>
      </trkpt>
      <trkpt lat="48.68758" lon="5.91723">
        <ele>203.7</ele>
        <time>2020-06-29T15:27:57Z</time>
      </trkpt>
      <trkpt lat="48.68757" lon="5.91716">
        <ele>203.6</ele>
        <time>2020-06-29T15:27:58Z</time>
      </trkpt>
      <trkpt lat="48.68756" lon="5.91708">
        <ele>203.6</ele>
        <time>2020-06-29T15:27:59Z</time>
      </trkpt>
      <trkpt lat="48.68754" lon="5.91702">
        <ele>203.6</ele>
        <time>2020-06-29T15:28:00Z</time>
      </trkpt>
      <trkpt lat="48.68752" lon="5.91695">
        <ele>203.7</ele>
        <time>2020-06-29T15:28:01Z</time>
      </trkpt>
      <trkpt lat="48.68751" lon="5.91687">
        <ele>203.7</ele>
        <time>2020-06-29T15:28:02Z</time>
      </trkpt>
      <trkpt lat="48.68749" lon="5.91679">
        <ele>203.7</ele>
        <time>2020-06-29T15:28:03Z</time>
      </trkpt>
      <trkpt lat="48.68747" lon="5.91674">
        <ele>203.7</ele>
        <time>2020-06-29T15:28:04Z</time>
      </trkpt>
      <trkpt lat="48.68746" lon="5.91667">
        <ele>203.7</ele>
        <time>2020-06-29T15:28:05Z</time>
      </trkpt>
      <trkpt lat="48.68745" lon="5.91661">
        <ele>203.7</ele>
        <time>2020-06-29T15:28:06Z</time>
      </trkpt>
      <trkpt lat="48.68743" lon="5.91655">
        <ele>203.7</ele>
        <time>2020-06-29T15:28:07Z</time>
      </trkpt>
      <trkpt lat="48.68742" lon="5.91647">
        <ele>203.7</ele>
        <time>2020-06-29T15:28:08Z</time>
      </trkpt>
      <trkpt lat="48.6874" lon="5.9164">
        <ele>203.8</ele>
        <time>2020-06-29T15:28:09Z</time>
      </trkpt>
      <trkpt lat="48.68739" lon="5.91633">
        <ele>203.8</ele>
        <time>2020-06-29T15:28:10Z</time>
      </trkpt>
      <trkpt lat="48.68737" lon="5.91626">
        <ele>203.8</ele>
        <time>2020-06-29T15:28:11Z</time>
      </trkpt>
      <trkpt lat="48.68735" lon="5.91617">
        <ele>203.8</ele>
        <time>2020-06-29T15:28:12Z</time>
      </trkpt>
      <trkpt lat="48.68733" lon="5.91611">
        <ele>203.8</ele>
        <time>2020-06-29T15:28:13Z</time>
      </trkpt>
      <trkpt lat="48.68731" lon="5.91605">
        <ele>203.8</ele>
        <time>2020-06-29T15:28:14Z</time>
      </trkpt>
      <trkpt lat="48.6873" lon="5.91598">
        <ele>203.8</ele>
        <time>2020-06-29T15:28:15Z</time>
      </trkpt>
      <trkpt lat="48.68728" lon="5.91591">
        <ele>203.7</ele>
        <time>2020-06-29T15:28:16Z</time>
      </trkpt>
      <trkpt lat="48.68727" lon="5.91585">
        <ele>203.7</ele>
        <time>2020-06-29T15:28:17Z</time>
      </trkpt>
      <trkpt lat="48.68725" lon="5.91578">
        <ele>203.7</ele>
        <time>2020-06-29T15:28:18Z</time>
      </trkpt>
      <trkpt lat="48.68724" lon="5.91571">
        <ele>203.7</ele>
        <time>2020-06-29T15:28:19Z</time>
      </trkpt>
      <trkpt lat="48.68722" lon="5.91564">
        <ele>203.7</ele>
        <time>2020-06-29T15:28:20Z</time>
      </trkpt>
      <trkpt lat="48.68721" lon="5.91557">
        <ele>203.7</ele>
        <time>2020-06-29T15:28:21Z</time>
      </trkpt>
      <trkpt lat="48.68719" lon="5.9155">
        <ele>203.7</ele>
        <time>2020-06-29T15:28:22Z</time>
      </trkpt>
      <trkpt lat="48.68717" lon="5.91544">
        <ele>203.6</ele>
        <time>2020-06-29T15:28:23Z</time>
      </trkpt>
      <trkpt lat="48.68715" lon="5.91537">
        <ele>203.6</ele>
        <time>2020-06-29T15:28:24Z</time>
      </trkpt>
      <trkpt lat="48.68714" lon="5.9153">
        <ele>203.6</ele>
        <time>2020-06-29T15:28:25Z</time>
      </trkpt>
      <trkpt lat="48.68712" lon="5.91523">
        <ele>203.6</ele>
        <time>2020-06-29T15:28:26Z</time>
      </trkpt>
      <trkpt lat="48.6871" lon="5.91515">
        <ele>203.6</ele>
        <time>2020-06-29T15:28:27Z</time>
      </trkpt>
      <trkpt lat="48.68708" lon="5.91508">
        <ele>203.6</ele>
        <time>2020-06-29T15:28:28Z</time>
      </trkpt>
      <trkpt lat="48.68706" lon="5.91501">
        <ele>203.6</ele>
        <time>2020-06-29T15:28:29Z</time>
      </trkpt>
      <trkpt lat="48.68704" lon="5.91493">
        <ele>203.7</ele>
        <time>2020-06-29T15:28:30Z</time>
      </trkpt>
      <trkpt lat="48.68701" lon="5.91487">
        <ele>203.7</ele>
        <time>2020-06-29T15:28:31Z</time>
      </trkpt>
      <trkpt lat="48.68699" lon="5.9148">
        <ele>203.7</ele>
        <time>2020-06-29T15:28:32Z</time>
      </trkpt>
      <trkpt lat="48.68698" lon="5.91474">
        <ele>203.7</ele>
        <time>2020-06-29T15:28:33Z</time>
      </trkpt>
      <trkpt lat="48.68696" lon="5.91468">
        <ele>203.7</ele>
        <time>2020-06-29T15:28:34Z</time>
      </trkpt>
      <trkpt lat="48.68694" lon="5.91461">
        <ele>203.7</ele>
        <time>2020-06-29T15:28:35Z</time>
      </trkpt>
      <trkpt lat="48.68691" lon="5.91454">
        <ele>203.7</ele>
        <time>2020-06-29T15:28:36Z</time>
      </trkpt>
      <trkpt lat="48.68689" lon="5.91448">
        <ele>203.7</ele>
        <time>2020-06-29T15:28:37Z</time>
      </trkpt>
      <trkpt lat="48.68687" lon="5.91441">
        <ele>203.7</ele>
        <time>2020-06-29T15:28:38Z</time>
      </trkpt>
      <trkpt lat="48.68685" lon="5.91436">
        <ele>203.7</ele>
        <time>2020-06-29T15:28:39Z</time>
      </trkpt>
      <trkpt lat="48.68684" lon="5.91428">
        <ele>203.7</ele>
        <time>2020-06-29T15:28:40Z</time>
      </trkpt>
      <trkpt lat="48.68681" lon="5.91422">
        <ele>203.7</ele>
        <time>2020-06-29T15:28:41Z</time>
      </trkpt>
      <trkpt lat="48.68679" lon="5.91416">
        <ele>203.7</ele>
        <time>2020-06-29T15:28:42Z</time>
      </trkpt>
      <trkpt lat="48.68677" lon="5.91409">
        <ele>203.7</ele>
        <time>2020-06-29T15:28:43Z</time>
      </trkpt>
      <trkpt lat="48.68674" lon="5.91401">
        <ele>203.7</ele>
        <time>2020-06-29T15:28:44Z</time>
      </trkpt>
      <trkpt lat="48.68672" lon="5.91395">
        <ele>203.7</ele>
        <time>2020-06-29T15:28:45Z</time>
      </trkpt>
      <trkpt lat="48.6867" lon="5.91387">
        <ele>203.7</ele>
        <time>2020-06-29T15:28:46Z</time>
      </trkpt>
      <trkpt lat="48.68668" lon="5.9138">
        <ele>203.7</ele>
        <time>2020-06-29T15:28:47Z</time>
      </trkpt>
      <trkpt lat="48.68665" lon="5.91373">
        <ele>203.7</ele>
        <time>2020-06-29T15:28:48Z</time>
      </trkpt>
      <trkpt lat="48.68663" lon="5.91367">
        <ele>203.7</ele>
        <time>2020-06-29T15:28:49Z</time>
      </trkpt>
      <trkpt lat="48.68661" lon="5.91361">
        <ele>203.7</ele>
        <time>2020-06-29T15:28:50Z</time>
      </trkpt>
      <trkpt lat="48.68659" lon="5.91356">
        <ele>203.7</ele>
        <time>2020-06-29T15:28:51Z</time>
      </trkpt>
      <trkpt lat="48.68657" lon="5.9135">
        <ele>203.7</ele>
        <time>2020-06-29T15:28:52Z</time>
      </trkpt>
      <trkpt lat="48.68654" lon="5.91344">
        <ele>203.7</ele>
        <time>2020-06-29T15:28:53Z</time>
      </trkpt>
      <trkpt lat="48.68651" lon="5.91337">
        <ele>203.7</ele>
        <time>2020-06-29T15:28:54Z</time>
      </trkpt>
      <trkpt lat="48.6865" lon="5.91331">
        <ele>203.7</ele>
        <time>2020-06-29T15:28:55Z</time>
      </trkpt>
      <trkpt lat="48.68648" lon="5.91323">
        <ele>203.7</ele>
        <time>2020-06-29T15:28:56Z</time>
      </trkpt>
      <trkpt lat="48.68645" lon="5.91316">
        <ele>203.7</ele>
        <time>2020-06-29T15:28:57Z</time>
      </trkpt>
      <trkpt lat="48.68643" lon="5.9131">
        <ele>203.7</ele>
        <time>2020-06-29T15:28:58Z</time>
      </trkpt>
      <trkpt lat="48.6864" lon="5.91305">
        <ele>203.7</ele>
        <time>2020-06-29T15:28:59Z</time>
      </trkpt>
      <trkpt lat="48.68638" lon="5.91299">
        <ele>203.7</ele>
        <time>2020-06-29T15:29:00Z</time>
      </trkpt>
      <trkpt lat="48.68635" lon="5.91294">
        <ele>203.7</ele>
        <time>2020-06-29T15:29:01Z</time>
      </trkpt>
      <trkpt lat="48.68633" lon="5.91288">
        <ele>203.7</ele>
        <time>2020-06-29T15:29:02Z</time>
      </trkpt>
      <trkpt lat="48.6863" lon="5.91281">
        <ele>203.8</ele>
        <time>2020-06-29T15:29:03Z</time>
      </trkpt>
      <trkpt lat="48.68628" lon="5.91276">
        <ele>203.8</ele>
        <time>2020-06-29T15:29:04Z</time>
      </trkpt>
      <trkpt lat="48.68626" lon="5.91268">
        <ele>203.8</ele>
        <time>2020-06-29T15:29:05Z</time>
      </trkpt>
      <trkpt lat="48.68623" lon="5.91261">
        <ele>203.8</ele>
        <time>2020-06-29T15:29:06Z</time>
      </trkpt>
      <trkpt lat="48.68621" lon="5.91255">
        <ele>203.8</ele>
        <time>2020-06-29T15:29:07Z</time>
      </trkpt>
      <trkpt lat="48.68618" lon="5.9125">
        <ele>203.8</ele>
        <time>2020-06-29T15:29:08Z</time>
      </trkpt>
      <trkpt lat="48.68617" lon="5.91243">
        <ele>203.8</ele>
        <time>2020-06-29T15:29:09Z</time>
      </trkpt>
      <trkpt lat="48.68615" lon="5.91237">
        <ele>203.8</ele>
        <time>2020-06-29T15:29:10Z</time>
      </trkpt>
      <trkpt lat="48.68612" lon="5.91231">
        <ele>203.8</ele>
        <time>2020-06-29T15:29:11Z</time>
      </trkpt>
      <trkpt lat="48.6861" lon="5.91225">
        <ele>203.8</ele>
        <time>2020-06-29T15:29:12Z</time>
      </trkpt>
      <trkpt lat="48.68607" lon="5.9122">
        <ele>203.7</ele>
        <time>2020-06-29T15:29:13Z</time>
      </trkpt>
      <trkpt lat="48.68604" lon="5.91213">
        <ele>203.7</ele>
        <time>2020-06-29T15:29:14Z</time>
      </trkpt>
      <trkpt lat="48.68602" lon="5.91207">
        <ele>203.7</ele>
        <time>2020-06-29T15:29:15Z</time>
      </trkpt>
      <trkpt lat="48.686" lon="5.91201">
        <ele>203.7</ele>
        <time>2020-06-29T15:29:16Z</time>
      </trkpt>
      <trkpt lat="48.68598" lon="5.91194">
        <ele>203.7</ele>
        <time>2020-06-29T15:29:17Z</time>
      </trkpt>
      <trkpt lat="48.68596" lon="5.91188">
        <ele>203.8</ele>
        <time>2020-06-29T15:29:18Z</time>
      </trkpt>
      <trkpt lat="48.68593" lon="5.91182">
        <ele>203.8</ele>
        <time>2020-06-29T15:29:19Z</time>
      </trkpt>
      <trkpt lat="48.68591" lon="5.91176">
        <ele>203.8</ele>
        <time>2020-06-29T15:29:20Z</time>
      </trkpt>
      <trkpt lat="48.68587" lon="5.9117">
        <ele>203.8</ele>
        <time>2020-06-29T15:29:21Z</time>
      </trkpt>
      <trkpt lat="48.68585" lon="5.91163">
        <ele>203.8</ele>
        <time>2020-06-29T15:29:22Z</time>
      </trkpt>
      <trkpt lat="48.68581" lon="5.91158">
        <ele>203.8</ele>
        <time>2020-06-29T15:29:23Z</time>
      </trkpt>
      <trkpt lat="48.68578" lon="5.91153">
        <ele>203.7</ele>
        <time>2020-06-29T15:29:24Z</time>
      </trkpt>
      <trkpt lat="48.68573" lon="5.91149">
        <ele>203.7</ele>
        <time>2020-06-29T15:29:25Z</time>
      </trkpt>
      <trkpt lat="48.68571" lon="5.91143">
        <ele>203.7</ele>
        <time>2020-06-29T15:29:26Z</time>
      </trkpt>
      <trkpt lat="48.68567" lon="5.91137">
        <ele>203.6</ele>
        <time>2020-06-29T15:29:27Z</time>
      </trkpt>
      <trkpt lat="48.68564" lon="5.9113">
        <ele>203.6</ele>
        <time>2020-06-29T15:29:28Z</time>
      </trkpt>
      <trkpt lat="48.68562" lon="5.91123">
        <ele>203.6</ele>
        <time>2020-06-29T15:29:29Z</time>
      </trkpt>
      <trkpt lat="48.68559" lon="5.91116">
        <ele>203.6</ele>
        <time>2020-06-29T15:29:30Z</time>
      </trkpt>
      <trkpt lat="48.68556" lon="5.9111">
        <ele>203.5</ele>
        <time>2020-06-29T15:29:31Z</time>
      </trkpt>
      <trkpt lat="48.68553" lon="5.91104">
        <ele>203.5</ele>
        <time>2020-06-29T15:29:32Z</time>
      </trkpt>
      <trkpt lat="48.6855" lon="5.91098">
        <ele>203.5</ele>
        <time>2020-06-29T15:29:33Z</time>
      </trkpt>
      <trkpt lat="48.68547" lon="5.91092">
        <ele>203.5</ele>
        <time>2020-06-29T15:29:34Z</time>
      </trkpt>
      <trkpt lat="48.68544" lon="5.91086">
        <ele>203.5</ele>
        <time>2020-06-29T15:29:35Z</time>
      </trkpt>
      <trkpt lat="48.68541" lon="5.91079">
        <ele>203.5</ele>
        <time>2020-06-29T15:29:36Z</time>
      </trkpt>
      <trkpt lat="48.68538" lon="5.91073">
        <ele>203.4</ele>
        <time>2020-06-29T15:29:37Z</time>
      </trkpt>
      <trkpt lat="48.68535" lon="5.91067">
        <ele>203.4</ele>
        <time>2020-06-29T15:29:38Z</time>
      </trkpt>
      <trkpt lat="48.68532" lon="5.91062">
        <ele>203.4</ele>
        <time>2020-06-29T15:29:39Z</time>
      </trkpt>
      <trkpt lat="48.6853" lon="5.91056">
        <ele>203.4</ele>
        <time>2020-06-29T15:29:40Z</time>
      </trkpt>
      <trkpt lat="48.68526" lon="5.9105">
        <ele>203.4</ele>
        <time>2020-06-29T15:29:41Z</time>
      </trkpt>
      <trkpt lat="48.68523" lon="5.91045">
        <ele>203.4</ele>
        <time>2020-06-29T15:29:42Z</time>
      </trkpt>
      <trkpt lat="48.6852" lon="5.91038">
        <ele>203.3</ele>
        <time>2020-06-29T15:29:43Z</time>
      </trkpt>
      <trkpt lat="48.68518" lon="5.91032">
        <ele>203.3</ele>
        <time>2020-06-29T15:29:44Z</time>
      </trkpt>
      <trkpt lat="48.68515" lon="5.91026">
        <ele>203.3</ele>
        <time>2020-06-29T15:29:45Z</time>
      </trkpt>
      <trkpt lat="48.68511" lon="5.9102">
        <ele>203.3</ele>
        <time>2020-06-29T15:29:46Z</time>
      </trkpt>
      <trkpt lat="48.68508" lon="5.91014">
        <ele>203.2</ele>
        <time>2020-06-29T15:29:47Z</time>
      </trkpt>
      <trkpt lat="48.68504" lon="5.91008">
        <ele>203.2</ele>
        <time>2020-06-29T15:29:48Z</time>
      </trkpt>
      <trkpt lat="48.685" lon="5.91001">
        <ele>203.2</ele>
        <time>2020-06-29T15:29:49Z</time>
      </trkpt>
      <trkpt lat="48.68497" lon="5.90995">
        <ele>203.1</ele>
        <time>2020-06-29T15:29:50Z</time>
      </trkpt>
      <trkpt lat="48.68493" lon="5.90989">
        <ele>203.1</ele>
        <time>2020-06-29T15:29:51Z</time>
      </trkpt>
      <trkpt lat="48.6849" lon="5.90982">
        <ele>203.1</ele>
        <time>2020-06-29T15:29:52Z</time>
      </trkpt>
      <trkpt lat="48.68487" lon="5.90976">
        <ele>203</ele>
        <time>2020-06-29T15:29:53Z</time>
      </trkpt>
      <trkpt lat="48.68484" lon="5.9097">
        <ele>203</ele>
        <time>2020-06-29T15:29:54Z</time>
      </trkpt>
      <trkpt lat="48.6848" lon="5.90964">
        <ele>203</ele>
        <time>2020-06-29T15:29:55Z</time>
      </trkpt>
      <trkpt lat="48.68476" lon="5.90959">
        <ele>202.8</ele>
        <time>2020-06-29T15:29:56Z</time>
      </trkpt>
      <trkpt lat="48.68473" lon="5.90953">
        <ele>202.7</ele>
        <time>2020-06-29T15:29:57Z</time>
      </trkpt>
      <trkpt lat="48.6847" lon="5.90947">
        <ele>202.5</ele>
        <time>2020-06-29T15:29:58Z</time>
      </trkpt>
      <trkpt lat="48.68467" lon="5.90942">
        <ele>202.3</ele>
        <time>2020-06-29T15:29:59Z</time>
      </trkpt>
      <trkpt lat="48.68464" lon="5.90936">
        <ele>202.2</ele>
        <time>2020-06-29T15:30:00Z</time>
      </trkpt>
      <trkpt lat="48.68461" lon="5.90929">
        <ele>202</ele>
        <time>2020-06-29T15:30:01Z</time>
      </trkpt>
      <trkpt lat="48.68459" lon="5.90923">
        <ele>201.8</ele>
        <time>2020-06-29T15:30:02Z</time>
      </trkpt>
      <trkpt lat="48.68457" lon="5.90915">
        <ele>201.6</ele>
        <time>2020-06-29T15:30:03Z</time>
      </trkpt>
      <trkpt lat="48.68456" lon="5.90907">
        <ele>201.4</ele>
        <time>2020-06-29T15:30:04Z</time>
      </trkpt>
      <trkpt lat="48.68454" lon="5.90899">
        <ele>201.2</ele>
        <time>2020-06-29T15:30:05Z</time>
      </trkpt>
      <trkpt lat="48.68453" lon="5.90888">
        <ele>201.1</ele>
        <time>2020-06-29T15:30:06Z</time>
      </trkpt>
      <trkpt lat="48.6845" lon="5.90881">
        <ele>201.1</ele>
        <time>2020-06-29T15:30:07Z</time>
      </trkpt>
      <trkpt lat="48.68447" lon="5.90874">
        <ele>201.1</ele>
        <time>2020-06-29T15:30:08Z</time>
      </trkpt>
      <trkpt lat="48.68443" lon="5.90869">
        <ele>201.1</ele>
        <time>2020-06-29T15:30:09Z</time>
      </trkpt>
      <trkpt lat="48.68437" lon="5.90863">
        <ele>201.2</ele>
        <time>2020-06-29T15:30:10Z</time>
      </trkpt>
      <trkpt lat="48.68432" lon="5.90858">
        <ele>201.2</ele>
        <time>2020-06-29T15:30:11Z</time>
      </trkpt>
      <trkpt lat="48.68427" lon="5.90853">
        <ele>201.2</ele>
        <time>2020-06-29T15:30:12Z</time>
      </trkpt>
      <trkpt lat="48.68422" lon="5.9085">
        <ele>201.3</ele>
        <time>2020-06-29T15:30:13Z</time>
      </trkpt>
      <trkpt lat="48.68416" lon="5.90845">
        <ele>201.3</ele>
        <time>2020-06-29T15:30:14Z</time>
      </trkpt>
      <trkpt lat="48.68411" lon="5.90841">
        <ele>201.4</ele>
        <time>2020-06-29T15:30:15Z</time>
      </trkpt>
      <trkpt lat="48.68405" lon="5.90837">
        <ele>201.6</ele>
        <time>2020-06-29T15:30:16Z</time>
      </trkpt>
      <trkpt lat="48.68399" lon="5.90832">
        <ele>201.8</ele>
        <time>2020-06-29T15:30:17Z</time>
      </trkpt>
      <trkpt lat="48.68396" lon="5.9083">
        <ele>202</ele>
        <time>2020-06-29T15:30:18Z</time>
      </trkpt>
      <trkpt lat="48.68392" lon="5.90826">
        <ele>202.2</ele>
        <time>2020-06-29T15:30:19Z</time>
      </trkpt>
      <trkpt lat="48.68387" lon="5.90818">
        <ele>202.6</ele>
        <time>2020-06-29T15:30:20Z</time>
      </trkpt>
      <trkpt lat="48.68384" lon="5.90815">
        <ele>202.8</ele>
        <time>2020-06-29T15:30:21Z</time>
      </trkpt>
      <trkpt lat="48.68381" lon="5.90811">
        <ele>202.9</ele>
        <time>2020-06-29T15:30:22Z</time>
      </trkpt>
      <trkpt lat="48.68378" lon="5.90807">
        <ele>203.1</ele>
        <time>2020-06-29T15:30:23Z</time>
      </trkpt>
      <trkpt lat="48.68376" lon="5.90802">
        <ele>203.2</ele>
        <time>2020-06-29T15:30:24Z</time>
      </trkpt>
      <trkpt lat="48.68372" lon="5.90798">
        <ele>203.4</ele>
        <time>2020-06-29T15:30:25Z</time>
      </trkpt>
      <trkpt lat="48.68368" lon="5.90793">
        <ele>203.5</ele>
        <time>2020-06-29T15:30:26Z</time>
      </trkpt>
      <trkpt lat="48.68365" lon="5.9079">
        <ele>203.5</ele>
        <time>2020-06-29T15:30:27Z</time>
      </trkpt>
      <trkpt lat="48.68363" lon="5.90789">
        <ele>203.6</ele>
        <time>2020-06-29T15:30:28Z</time>
      </trkpt>
      <trkpt lat="48.68361" lon="5.90784">
        <ele>203.7</ele>
        <time>2020-06-29T15:30:29Z</time>
      </trkpt>
      <trkpt lat="48.68357" lon="5.90779">
        <ele>203.7</ele>
        <time>2020-06-29T15:30:30Z</time>
      </trkpt>
      <trkpt lat="48.68354" lon="5.90776">
        <ele>203.8</ele>
        <time>2020-06-29T15:30:31Z</time>
      </trkpt>
      <trkpt lat="48.68351" lon="5.90773">
        <ele>203.8</ele>
        <time>2020-06-29T15:30:32Z</time>
      </trkpt>
      <trkpt lat="48.68347" lon="5.90768">
        <ele>203.9</ele>
        <time>2020-06-29T15:30:33Z</time>
      </trkpt>
      <trkpt lat="48.68342" lon="5.90762">
        <ele>203.9</ele>
        <time>2020-06-29T15:30:34Z</time>
      </trkpt>
      <trkpt lat="48.68339" lon="5.90759">
        <ele>203.9</ele>
        <time>2020-06-29T15:30:35Z</time>
      </trkpt>
      <trkpt lat="48.68337" lon="5.90754">
        <ele>204</ele>
        <time>2020-06-29T15:30:36Z</time>
      </trkpt>
      <trkpt lat="48.68334" lon="5.9075">
        <ele>204</ele>
        <time>2020-06-29T15:30:37Z</time>
      </trkpt>
      <trkpt lat="48.6833" lon="5.90747">
        <ele>204</ele>
        <time>2020-06-29T15:30:38Z</time>
      </trkpt>
      <trkpt lat="48.68327" lon="5.90742">
        <ele>204</ele>
        <time>2020-06-29T15:30:39Z</time>
      </trkpt>
      <trkpt lat="48.68324" lon="5.90738">
        <ele>204.1</ele>
        <time>2020-06-29T15:30:40Z</time>
      </trkpt>
      <trkpt lat="48.68319" lon="5.90733">
        <ele>204.1</ele>
        <time>2020-06-29T15:30:41Z</time>
      </trkpt>
      <trkpt lat="48.68314" lon="5.90726">
        <ele>204.2</ele>
        <time>2020-06-29T15:30:42Z</time>
      </trkpt>
      <trkpt lat="48.68311" lon="5.9072">
        <ele>204.2</ele>
        <time>2020-06-29T15:30:43Z</time>
      </trkpt>
      <trkpt lat="48.68307" lon="5.90716">
        <ele>204.3</ele>
        <time>2020-06-29T15:30:44Z</time>
      </trkpt>
      <trkpt lat="48.68303" lon="5.90711">
        <ele>204.3</ele>
        <time>2020-06-29T15:30:45Z</time>
      </trkpt>
      <trkpt lat="48.68299" lon="5.90707">
        <ele>204.3</ele>
        <time>2020-06-29T15:30:46Z</time>
      </trkpt>
      <trkpt lat="48.68295" lon="5.90703">
        <ele>204.3</ele>
        <time>2020-06-29T15:30:47Z</time>
      </trkpt>
      <trkpt lat="48.6829" lon="5.90698">
        <ele>204.3</ele>
        <time>2020-06-29T15:30:48Z</time>
      </trkpt>
      <trkpt lat="48.68285" lon="5.90693">
        <ele>204.3</ele>
        <time>2020-06-29T15:30:49Z</time>
      </trkpt>
      <trkpt lat="48.68282" lon="5.90689">
        <ele>204.3</ele>
        <time>2020-06-29T15:30:50Z</time>
      </trkpt>
      <trkpt lat="48.68277" lon="5.90684">
        <ele>204.3</ele>
        <time>2020-06-29T15:30:51Z</time>
      </trkpt>
      <trkpt lat="48.68273" lon="5.90679">
        <ele>204.3</ele>
        <time>2020-06-29T15:30:52Z</time>
      </trkpt>
      <trkpt lat="48.68269" lon="5.90675">
        <ele>204.3</ele>
        <time>2020-06-29T15:30:53Z</time>
      </trkpt>
      <trkpt lat="48.68265" lon="5.90671">
        <ele>204.3</ele>
        <time>2020-06-29T15:30:54Z</time>
      </trkpt>
      <trkpt lat="48.68261" lon="5.90666">
        <ele>204.3</ele>
        <time>2020-06-29T15:30:55Z</time>
      </trkpt>
      <trkpt lat="48.68257" lon="5.9066">
        <ele>204.4</ele>
        <time>2020-06-29T15:30:56Z</time>
      </trkpt>
      <trkpt lat="48.68252" lon="5.90656">
        <ele>204.4</ele>
        <time>2020-06-29T15:30:57Z</time>
      </trkpt>
      <trkpt lat="48.68249" lon="5.90653">
        <ele>204.5</ele>
        <time>2020-06-29T15:30:58Z</time>
      </trkpt>
      <trkpt lat="48.68245" lon="5.90647">
        <ele>204.5</ele>
        <time>2020-06-29T15:30:59Z</time>
      </trkpt>
      <trkpt lat="48.68242" lon="5.90643">
        <ele>204.5</ele>
        <time>2020-06-29T15:31:00Z</time>
      </trkpt>
      <trkpt lat="48.68236" lon="5.90636">
        <ele>204.6</ele>
        <time>2020-06-29T15:31:01Z</time>
      </trkpt>
      <trkpt lat="48.68233" lon="5.90633">
        <ele>204.6</ele>
        <time>2020-06-29T15:31:02Z</time>
      </trkpt>
      <trkpt lat="48.68231" lon="5.90632">
        <ele>204.6</ele>
        <time>2020-06-29T15:31:03Z</time>
      </trkpt>
      <trkpt lat="48.68229" lon="5.90628">
        <ele>204.7</ele>
        <time>2020-06-29T15:31:04Z</time>
      </trkpt>
      <trkpt lat="48.68225" lon="5.90625">
        <ele>204.7</ele>
        <time>2020-06-29T15:31:05Z</time>
      </trkpt>
      <trkpt lat="48.68222" lon="5.90623">
        <ele>204.7</ele>
        <time>2020-06-29T15:31:06Z</time>
      </trkpt>
      <trkpt lat="48.68219" lon="5.90621">
        <ele>204.8</ele>
        <time>2020-06-29T15:31:07Z</time>
      </trkpt>
      <trkpt lat="48.68215" lon="5.90619">
        <ele>204.9</ele>
        <time>2020-06-29T15:31:08Z</time>
      </trkpt>
      <trkpt lat="48.68211" lon="5.90616">
        <ele>204.9</ele>
        <time>2020-06-29T15:31:09Z</time>
      </trkpt>
      <trkpt lat="48.68207" lon="5.90613">
        <ele>205</ele>
        <time>2020-06-29T15:31:10Z</time>
      </trkpt>
      <trkpt lat="48.68203" lon="5.90609">
        <ele>205.1</ele>
        <time>2020-06-29T15:31:11Z</time>
      </trkpt>
      <trkpt lat="48.682" lon="5.90606">
        <ele>205.2</ele>
        <time>2020-06-29T15:31:12Z</time>
      </trkpt>
      <trkpt lat="48.68195" lon="5.90602">
        <ele>205.3</ele>
        <time>2020-06-29T15:31:13Z</time>
      </trkpt>
      <trkpt lat="48.68191" lon="5.906">
        <ele>205.4</ele>
        <time>2020-06-29T15:31:14Z</time>
      </trkpt>
      <trkpt lat="48.68187" lon="5.90595">
        <ele>205.5</ele>
        <time>2020-06-29T15:31:15Z</time>
      </trkpt>
      <trkpt lat="48.68183" lon="5.90592">
        <ele>205.6</ele>
        <time>2020-06-29T15:31:16Z</time>
      </trkpt>
      <trkpt lat="48.6818" lon="5.9059">
        <ele>205.6</ele>
        <time>2020-06-29T15:31:17Z</time>
      </trkpt>
      <trkpt lat="48.68175" lon="5.90588">
        <ele>205.7</ele>
        <time>2020-06-29T15:31:18Z</time>
      </trkpt>
      <trkpt lat="48.68171" lon="5.90586">
        <ele>205.9</ele>
        <time>2020-06-29T15:31:19Z</time>
      </trkpt>
      <trkpt lat="48.68168" lon="5.90583">
        <ele>206</ele>
        <time>2020-06-29T15:31:20Z</time>
      </trkpt>
      <trkpt lat="48.68164" lon="5.9058">
        <ele>206.1</ele>
        <time>2020-06-29T15:31:21Z</time>
      </trkpt>
      <trkpt lat="48.68161" lon="5.9058">
        <ele>206.1</ele>
        <time>2020-06-29T15:31:22Z</time>
      </trkpt>
      <trkpt lat="48.68159" lon="5.90577">
        <ele>206.2</ele>
        <time>2020-06-29T15:31:23Z</time>
      </trkpt>
      <trkpt lat="48.68156" lon="5.90575">
        <ele>206.2</ele>
        <time>2020-06-29T15:31:24Z</time>
      </trkpt>
      <trkpt lat="48.68154" lon="5.9057">
        <ele>206.2</ele>
        <time>2020-06-29T15:31:25Z</time>
      </trkpt>
      <trkpt lat="48.68153" lon="5.90566">
        <ele>206.3</ele>
        <time>2020-06-29T15:31:26Z</time>
      </trkpt>
      <trkpt lat="48.68153" lon="5.90561">
        <ele>206.6</ele>
        <time>2020-06-29T15:31:27Z</time>
      </trkpt>
      <trkpt lat="48.68153" lon="5.90559">
        <ele>206.6</ele>
        <time>2020-06-29T15:31:28Z</time>
      </trkpt>
      <trkpt lat="48.68153" lon="5.90555">
        <ele>206.7</ele>
        <time>2020-06-29T15:31:29Z</time>
      </trkpt>
      <trkpt lat="48.68154" lon="5.9055">
        <ele>206.9</ele>
        <time>2020-06-29T15:31:30Z</time>
      </trkpt>
      <trkpt lat="48.68156" lon="5.90547">
        <ele>207.1</ele>
        <time>2020-06-29T15:31:31Z</time>
      </trkpt>
      <trkpt lat="48.68158" lon="5.90542">
        <ele>207.2</ele>
        <time>2020-06-29T15:31:32Z</time>
      </trkpt>
      <trkpt lat="48.6816" lon="5.90538">
        <ele>207.3</ele>
        <time>2020-06-29T15:31:33Z</time>
      </trkpt>
      <trkpt lat="48.6816" lon="5.90534">
        <ele>207.5</ele>
        <time>2020-06-29T15:31:34Z</time>
      </trkpt>
      <trkpt lat="48.68161" lon="5.9053">
        <ele>207.6</ele>
        <time>2020-06-29T15:31:35Z</time>
      </trkpt>
      <trkpt lat="48.68163" lon="5.90527">
        <ele>207.7</ele>
        <time>2020-06-29T15:31:36Z</time>
      </trkpt>
      <trkpt lat="48.68166" lon="5.90524">
        <ele>207.8</ele>
        <time>2020-06-29T15:31:37Z</time>
      </trkpt>
      <trkpt lat="48.68168" lon="5.90523">
        <ele>207.8</ele>
        <time>2020-06-29T15:31:38Z</time>
      </trkpt>
      <trkpt lat="48.68169" lon="5.90518">
        <ele>207.8</ele>
        <time>2020-06-29T15:31:39Z</time>
      </trkpt>
      <trkpt lat="48.6817" lon="5.90516">
        <ele>207.8</ele>
        <time>2020-06-29T15:31:40Z</time>
      </trkpt>
      <trkpt lat="48.68171" lon="5.90512">
        <ele>207.9</ele>
        <time>2020-06-29T15:31:41Z</time>
      </trkpt>
      <trkpt lat="48.68172" lon="5.9051">
        <ele>207.9</ele>
        <time>2020-06-29T15:31:42Z</time>
      </trkpt>
      <trkpt lat="48.68173" lon="5.90505">
        <ele>207.8</ele>
        <time>2020-06-29T15:31:43Z</time>
      </trkpt>
      <trkpt lat="48.68174" lon="5.90503">
        <ele>207.8</ele>
        <time>2020-06-29T15:31:44Z</time>
      </trkpt>
      <trkpt lat="48.68176" lon="5.905">
        <ele>207.8</ele>
        <time>2020-06-29T15:31:45Z</time>
      </trkpt>
      <trkpt lat="48.68178" lon="5.90495">
        <ele>207.7</ele>
        <time>2020-06-29T15:31:46Z</time>
      </trkpt>
      <trkpt lat="48.68178" lon="5.90494">
        <ele>207.6</ele>
        <time>2020-06-29T15:31:47Z</time>
      </trkpt>
      <trkpt lat="48.6818" lon="5.90491">
        <ele>207.5</ele>
        <time>2020-06-29T15:31:48Z</time>
      </trkpt>
      <trkpt lat="48.68182" lon="5.90486">
        <ele>207.4</ele>
        <time>2020-06-29T15:31:49Z</time>
      </trkpt>
      <trkpt lat="48.68183" lon="5.90484">
        <ele>207.3</ele>
        <time>2020-06-29T15:31:50Z</time>
      </trkpt>
      <trkpt lat="48.68185" lon="5.9048">
        <ele>207.1</ele>
        <time>2020-06-29T15:31:51Z</time>
      </trkpt>
      <trkpt lat="48.68186" lon="5.90476">
        <ele>207</ele>
        <time>2020-06-29T15:31:52Z</time>
      </trkpt>
      <trkpt lat="48.68188" lon="5.90471">
        <ele>206.8</ele>
        <time>2020-06-29T15:31:53Z</time>
      </trkpt>
      <trkpt lat="48.68191" lon="5.90466">
        <ele>206.5</ele>
        <time>2020-06-29T15:31:54Z</time>
      </trkpt>
      <trkpt lat="48.68193" lon="5.90459">
        <ele>206.3</ele>
        <time>2020-06-29T15:31:55Z</time>
      </trkpt>
      <trkpt lat="48.68196" lon="5.90451">
        <ele>205.6</ele>
        <time>2020-06-29T15:31:56Z</time>
      </trkpt>
      <trkpt lat="48.68198" lon="5.90443">
        <ele>205.3</ele>
        <time>2020-06-29T15:31:57Z</time>
      </trkpt>
      <trkpt lat="48.68201" lon="5.90434">
        <ele>205</ele>
        <time>2020-06-29T15:31:58Z</time>
      </trkpt>
      <trkpt lat="48.68205" lon="5.90425">
        <ele>204.7</ele>
        <time>2020-06-29T15:31:59Z</time>
      </trkpt>
      <trkpt lat="48.68209" lon="5.90417">
        <ele>204.5</ele>
        <time>2020-06-29T15:32:00Z</time>
      </trkpt>
      <trkpt lat="48.68213" lon="5.90408">
        <ele>204.3</ele>
        <time>2020-06-29T15:32:01Z</time>
      </trkpt>
      <trkpt lat="48.68218" lon="5.90397">
        <ele>204.1</ele>
        <time>2020-06-29T15:32:02Z</time>
      </trkpt>
      <trkpt lat="48.68222" lon="5.90388">
        <ele>203.9</ele>
        <time>2020-06-29T15:32:03Z</time>
      </trkpt>
      <trkpt lat="48.68226" lon="5.90379">
        <ele>203.8</ele>
        <time>2020-06-29T15:32:04Z</time>
      </trkpt>
      <trkpt lat="48.6823" lon="5.9037">
        <ele>203.7</ele>
        <time>2020-06-29T15:32:05Z</time>
      </trkpt>
      <trkpt lat="48.68233" lon="5.90361">
        <ele>203.6</ele>
        <time>2020-06-29T15:32:06Z</time>
      </trkpt>
      <trkpt lat="48.68237" lon="5.90353">
        <ele>203.5</ele>
        <time>2020-06-29T15:32:07Z</time>
      </trkpt>
      <trkpt lat="48.6824" lon="5.90345">
        <ele>203.5</ele>
        <time>2020-06-29T15:32:08Z</time>
      </trkpt>
      <trkpt lat="48.68243" lon="5.90337">
        <ele>203.5</ele>
        <time>2020-06-29T15:32:09Z</time>
      </trkpt>
      <trkpt lat="48.68246" lon="5.9033">
        <ele>203.6</ele>
        <time>2020-06-29T15:32:10Z</time>
      </trkpt>
      <trkpt lat="48.68248" lon="5.90323">
        <ele>203.6</ele>
        <time>2020-06-29T15:32:11Z</time>
      </trkpt>
      <trkpt lat="48.68251" lon="5.90316">
        <ele>203.6</ele>
        <time>2020-06-29T15:32:12Z</time>
      </trkpt>
      <trkpt lat="48.68253" lon="5.9031">
        <ele>203.6</ele>
        <time>2020-06-29T15:32:13Z</time>
      </trkpt>
      <trkpt lat="48.68255" lon="5.90304">
        <ele>203.6</ele>
        <time>2020-06-29T15:32:14Z</time>
      </trkpt>
      <trkpt lat="48.68258" lon="5.90299">
        <ele>203.6</ele>
        <time>2020-06-29T15:32:15Z</time>
      </trkpt>
      <trkpt lat="48.6826" lon="5.90293">
        <ele>203.6</ele>
        <time>2020-06-29T15:32:16Z</time>
      </trkpt>
      <trkpt lat="48.68263" lon="5.90287">
        <ele>203.6</ele>
        <time>2020-06-29T15:32:17Z</time>
      </trkpt>
      <trkpt lat="48.68266" lon="5.9028">
        <ele>203.6</ele>
        <time>2020-06-29T15:32:18Z</time>
      </trkpt>
      <trkpt lat="48.6827" lon="5.90274">
        <ele>203.6</ele>
        <time>2020-06-29T15:32:19Z</time>
      </trkpt>
      <trkpt lat="48.68273" lon="5.90268">
        <ele>203.5</ele>
        <time>2020-06-29T15:32:20Z</time>
      </trkpt>
      <trkpt lat="48.68276" lon="5.90261">
        <ele>203.5</ele>
        <time>2020-06-29T15:32:21Z</time>
      </trkpt>
      <trkpt lat="48.6828" lon="5.90255">
        <ele>203.5</ele>
        <time>2020-06-29T15:32:22Z</time>
      </trkpt>
      <trkpt lat="48.68284" lon="5.90249">
        <ele>203.6</ele>
        <time>2020-06-29T15:32:23Z</time>
      </trkpt>
      <trkpt lat="48.68288" lon="5.90243">
        <ele>203.6</ele>
        <time>2020-06-29T15:32:24Z</time>
      </trkpt>
      <trkpt lat="48.68292" lon="5.90238">
        <ele>203.6</ele>
        <time>2020-06-29T15:32:25Z</time>
      </trkpt>
      <trkpt lat="48.68296" lon="5.90234">
        <ele>203.7</ele>
        <time>2020-06-29T15:32:26Z</time>
      </trkpt>
      <trkpt lat="48.683" lon="5.90231">
        <ele>203.7</ele>
        <time>2020-06-29T15:32:27Z</time>
      </trkpt>
      <trkpt lat="48.68304" lon="5.90228">
        <ele>203.8</ele>
        <time>2020-06-29T15:32:28Z</time>
      </trkpt>
      <trkpt lat="48.68309" lon="5.90223">
        <ele>203.8</ele>
        <time>2020-06-29T15:32:29Z</time>
      </trkpt>
      <trkpt lat="48.68314" lon="5.90219">
        <ele>203.9</ele>
        <time>2020-06-29T15:32:30Z</time>
      </trkpt>
      <trkpt lat="48.68319" lon="5.90215">
        <ele>204</ele>
        <time>2020-06-29T15:32:31Z</time>
      </trkpt>
      <trkpt lat="48.68324" lon="5.90211">
        <ele>204.2</ele>
        <time>2020-06-29T15:32:32Z</time>
      </trkpt>
      <trkpt lat="48.68329" lon="5.90208">
        <ele>204.4</ele>
        <time>2020-06-29T15:32:33Z</time>
      </trkpt>
      <trkpt lat="48.68333" lon="5.90205">
        <ele>204.6</ele>
        <time>2020-06-29T15:32:34Z</time>
      </trkpt>
      <trkpt lat="48.68337" lon="5.90202">
        <ele>204.9</ele>
        <time>2020-06-29T15:32:35Z</time>
      </trkpt>
      <trkpt lat="48.68341" lon="5.90198">
        <ele>205.1</ele>
        <time>2020-06-29T15:32:36Z</time>
      </trkpt>
      <trkpt lat="48.68344" lon="5.90196">
        <ele>205.3</ele>
        <time>2020-06-29T15:32:37Z</time>
      </trkpt>
      <trkpt lat="48.68346" lon="5.90193">
        <ele>205.5</ele>
        <time>2020-06-29T15:32:38Z</time>
      </trkpt>
      <trkpt lat="48.68349" lon="5.90192">
        <ele>205.7</ele>
        <time>2020-06-29T15:32:39Z</time>
      </trkpt>
      <trkpt lat="48.68353" lon="5.90189">
        <ele>206</ele>
        <time>2020-06-29T15:32:40Z</time>
      </trkpt>
      <trkpt lat="48.68354" lon="5.90188">
        <ele>206.1</ele>
        <time>2020-06-29T15:32:41Z</time>
      </trkpt>
      <trkpt lat="48.68357" lon="5.90186">
        <ele>206.4</ele>
        <time>2020-06-29T15:32:42Z</time>
      </trkpt>
      <trkpt lat="48.6836" lon="5.90183">
        <ele>206.6</ele>
        <time>2020-06-29T15:32:43Z</time>
      </trkpt>
      <trkpt lat="48.68363" lon="5.90181">
        <ele>206.8</ele>
        <time>2020-06-29T15:32:44Z</time>
      </trkpt>
      <trkpt lat="48.68364" lon="5.90177">
        <ele>207.1</ele>
        <time>2020-06-29T15:32:45Z</time>
      </trkpt>
      <trkpt lat="48.68367" lon="5.90174">
        <ele>207.3</ele>
        <time>2020-06-29T15:32:46Z</time>
      </trkpt>
      <trkpt lat="48.68367" lon="5.90172">
        <ele>207.4</ele>
        <time>2020-06-29T15:32:47Z</time>
      </trkpt>
      <trkpt lat="48.6837" lon="5.90169">
        <ele>207.6</ele>
        <time>2020-06-29T15:32:48Z</time>
      </trkpt>
      <trkpt lat="48.68372" lon="5.90165">
        <ele>207.9</ele>
        <time>2020-06-29T15:32:49Z</time>
      </trkpt>
      <trkpt lat="48.68372" lon="5.90163">
        <ele>207.9</ele>
        <time>2020-06-29T15:32:50Z</time>
      </trkpt>
      <trkpt lat="48.68373" lon="5.9016">
        <ele>207.9</ele>
        <time>2020-06-29T15:32:51Z</time>
      </trkpt>
      <trkpt lat="48.68374" lon="5.90158">
        <ele>207.9</ele>
        <time>2020-06-29T15:32:52Z</time>
      </trkpt>
      <trkpt lat="48.68374" lon="5.90155">
        <ele>207.9</ele>
        <time>2020-06-29T15:32:53Z</time>
      </trkpt>
      <trkpt lat="48.68375" lon="5.90153">
        <ele>207.9</ele>
        <time>2020-06-29T15:32:54Z</time>
      </trkpt>
      <trkpt lat="48.68374" lon="5.90151">
        <ele>207.9</ele>
        <time>2020-06-29T15:32:55Z</time>
      </trkpt>
      <trkpt lat="48.68373" lon="5.90147">
        <ele>208</ele>
        <time>2020-06-29T15:32:56Z</time>
      </trkpt>
      <trkpt lat="48.68372" lon="5.90146">
        <ele>208</ele>
        <time>2020-06-29T15:32:57Z</time>
      </trkpt>
      <trkpt lat="48.6837" lon="5.90141">
        <ele>208</ele>
        <time>2020-06-29T15:32:58Z</time>
      </trkpt>
      <trkpt lat="48.68369" lon="5.90139">
        <ele>207.9</ele>
        <time>2020-06-29T15:32:59Z</time>
      </trkpt>
      <trkpt lat="48.68367" lon="5.90136">
        <ele>207.9</ele>
        <time>2020-06-29T15:33:00Z</time>
      </trkpt>
      <trkpt lat="48.68365" lon="5.90133">
        <ele>207.9</ele>
        <time>2020-06-29T15:33:01Z</time>
      </trkpt>
      <trkpt lat="48.68364" lon="5.90128">
        <ele>207.8</ele>
        <time>2020-06-29T15:33:02Z</time>
      </trkpt>
      <trkpt lat="48.68364" lon="5.90124">
        <ele>207.7</ele>
        <time>2020-06-29T15:33:03Z</time>
      </trkpt>
      <trkpt lat="48.68362" lon="5.90119">
        <ele>207.7</ele>
        <time>2020-06-29T15:33:04Z</time>
      </trkpt>
      <trkpt lat="48.68361" lon="5.90117">
        <ele>207.6</ele>
        <time>2020-06-29T15:33:05Z</time>
      </trkpt>
      <trkpt lat="48.68359" lon="5.90113">
        <ele>207.5</ele>
        <time>2020-06-29T15:33:06Z</time>
      </trkpt>
      <trkpt lat="48.68357" lon="5.90108">
        <ele>207.4</ele>
        <time>2020-06-29T15:33:07Z</time>
      </trkpt>
      <trkpt lat="48.68357" lon="5.90102">
        <ele>207.3</ele>
        <time>2020-06-29T15:33:08Z</time>
      </trkpt>
      <trkpt lat="48.68356" lon="5.90096">
        <ele>207.1</ele>
        <time>2020-06-29T15:33:09Z</time>
      </trkpt>
      <trkpt lat="48.68357" lon="5.90089">
        <ele>207</ele>
        <time>2020-06-29T15:33:10Z</time>
      </trkpt>
      <trkpt lat="48.68358" lon="5.9008">
        <ele>206.8</ele>
        <time>2020-06-29T15:33:11Z</time>
      </trkpt>
      <trkpt lat="48.68359" lon="5.90071">
        <ele>206.6</ele>
        <time>2020-06-29T15:33:12Z</time>
      </trkpt>
      <trkpt lat="48.68361" lon="5.90062">
        <ele>206.8</ele>
        <time>2020-06-29T15:33:13Z</time>
      </trkpt>
      <trkpt lat="48.68362" lon="5.90054">
        <ele>206.9</ele>
        <time>2020-06-29T15:33:14Z</time>
      </trkpt>
      <trkpt lat="48.68364" lon="5.90046">
        <ele>207.1</ele>
        <time>2020-06-29T15:33:15Z</time>
      </trkpt>
      <trkpt lat="48.68364" lon="5.9004">
        <ele>207.3</ele>
        <time>2020-06-29T15:33:16Z</time>
      </trkpt>
      <trkpt lat="48.68366" lon="5.90034">
        <ele>207.5</ele>
        <time>2020-06-29T15:33:17Z</time>
      </trkpt>
      <trkpt lat="48.68367" lon="5.90029">
        <ele>207.7</ele>
        <time>2020-06-29T15:33:18Z</time>
      </trkpt>
      <trkpt lat="48.68368" lon="5.90024">
        <ele>207.9</ele>
        <time>2020-06-29T15:33:19Z</time>
      </trkpt>
      <trkpt lat="48.68371" lon="5.90021">
        <ele>208.3</ele>
        <time>2020-06-29T15:33:20Z</time>
      </trkpt>
      <trkpt lat="48.68372" lon="5.90017">
        <ele>208.3</ele>
        <time>2020-06-29T15:33:21Z</time>
      </trkpt>
      <trkpt lat="48.68373" lon="5.90013">
        <ele>208.3</ele>
        <time>2020-06-29T15:33:22Z</time>
      </trkpt>
      <trkpt lat="48.68375" lon="5.90009">
        <ele>208.3</ele>
        <time>2020-06-29T15:33:23Z</time>
      </trkpt>
      <trkpt lat="48.68377" lon="5.90006">
        <ele>208.3</ele>
        <time>2020-06-29T15:33:24Z</time>
      </trkpt>
      <trkpt lat="48.6838" lon="5.90004">
        <ele>208.3</ele>
        <time>2020-06-29T15:33:25Z</time>
      </trkpt>
      <trkpt lat="48.68383" lon="5.90002">
        <ele>208.3</ele>
        <time>2020-06-29T15:33:26Z</time>
      </trkpt>
      <trkpt lat="48.68385" lon="5.9">
        <ele>208.3</ele>
        <time>2020-06-29T15:33:27Z</time>
      </trkpt>
      <trkpt lat="48.68387" lon="5.89997">
        <ele>208.1</ele>
        <time>2020-06-29T15:33:28Z</time>
      </trkpt>
      <trkpt lat="48.6839" lon="5.89993">
        <ele>208</ele>
        <time>2020-06-29T15:33:29Z</time>
      </trkpt>
      <trkpt lat="48.68392" lon="5.89989">
        <ele>207.8</ele>
        <time>2020-06-29T15:33:30Z</time>
      </trkpt>
      <trkpt lat="48.68396" lon="5.89985">
        <ele>207.6</ele>
        <time>2020-06-29T15:33:31Z</time>
      </trkpt>
      <trkpt lat="48.684" lon="5.8998">
        <ele>207.3</ele>
        <time>2020-06-29T15:33:32Z</time>
      </trkpt>
      <trkpt lat="48.68404" lon="5.89973">
        <ele>206.9</ele>
        <time>2020-06-29T15:33:33Z</time>
      </trkpt>
      <trkpt lat="48.68409" lon="5.89966">
        <ele>206.7</ele>
        <time>2020-06-29T15:33:34Z</time>
      </trkpt>
      <trkpt lat="48.68414" lon="5.8996">
        <ele>206.6</ele>
        <time>2020-06-29T15:33:35Z</time>
      </trkpt>
      <trkpt lat="48.68417" lon="5.89952">
        <ele>206.5</ele>
        <time>2020-06-29T15:33:36Z</time>
      </trkpt>
      <trkpt lat="48.6842" lon="5.89945">
        <ele>206.5</ele>
        <time>2020-06-29T15:33:37Z</time>
      </trkpt>
      <trkpt lat="48.68423" lon="5.89938">
        <ele>206.4</ele>
        <time>2020-06-29T15:33:38Z</time>
      </trkpt>
      <trkpt lat="48.68426" lon="5.89931">
        <ele>206.3</ele>
        <time>2020-06-29T15:33:39Z</time>
      </trkpt>
      <trkpt lat="48.68429" lon="5.89926">
        <ele>206.3</ele>
        <time>2020-06-29T15:33:40Z</time>
      </trkpt>
      <trkpt lat="48.68432" lon="5.8992">
        <ele>206.3</ele>
        <time>2020-06-29T15:33:41Z</time>
      </trkpt>
      <trkpt lat="48.68435" lon="5.89914">
        <ele>206.3</ele>
        <time>2020-06-29T15:33:42Z</time>
      </trkpt>
      <trkpt lat="48.68436" lon="5.89908">
        <ele>206.3</ele>
        <time>2020-06-29T15:33:43Z</time>
      </trkpt>
      <trkpt lat="48.68438" lon="5.899">
        <ele>206.3</ele>
        <time>2020-06-29T15:33:44Z</time>
      </trkpt>
      <trkpt lat="48.6844" lon="5.89894">
        <ele>206.2</ele>
        <time>2020-06-29T15:33:45Z</time>
      </trkpt>
      <trkpt lat="48.68443" lon="5.89888">
        <ele>206.2</ele>
        <time>2020-06-29T15:33:46Z</time>
      </trkpt>
      <trkpt lat="48.68445" lon="5.89882">
        <ele>206.3</ele>
        <time>2020-06-29T15:33:47Z</time>
      </trkpt>
      <trkpt lat="48.68447" lon="5.89876">
        <ele>206.3</ele>
        <time>2020-06-29T15:33:48Z</time>
      </trkpt>
      <trkpt lat="48.68449" lon="5.89871">
        <ele>206.3</ele>
        <time>2020-06-29T15:33:49Z</time>
      </trkpt>
      <trkpt lat="48.68452" lon="5.89866">
        <ele>206.3</ele>
        <time>2020-06-29T15:33:50Z</time>
      </trkpt>
      <trkpt lat="48.68454" lon="5.89861">
        <ele>206.4</ele>
        <time>2020-06-29T15:33:51Z</time>
      </trkpt>
      <trkpt lat="48.68458" lon="5.89857">
        <ele>206.4</ele>
        <time>2020-06-29T15:33:52Z</time>
      </trkpt>
      <trkpt lat="48.68462" lon="5.89854">
        <ele>206.5</ele>
        <time>2020-06-29T15:33:53Z</time>
      </trkpt>
      <trkpt lat="48.68464" lon="5.89849">
        <ele>206.5</ele>
        <time>2020-06-29T15:33:54Z</time>
      </trkpt>
      <trkpt lat="48.68466" lon="5.89844">
        <ele>206.6</ele>
        <time>2020-06-29T15:33:55Z</time>
      </trkpt>
      <trkpt lat="48.68467" lon="5.89838">
        <ele>206.6</ele>
        <time>2020-06-29T15:33:56Z</time>
      </trkpt>
      <trkpt lat="48.6847" lon="5.89834">
        <ele>206.7</ele>
        <time>2020-06-29T15:33:57Z</time>
      </trkpt>
      <trkpt lat="48.68472" lon="5.89829">
        <ele>206.8</ele>
        <time>2020-06-29T15:33:58Z</time>
      </trkpt>
      <trkpt lat="48.68474" lon="5.89824">
        <ele>206.9</ele>
        <time>2020-06-29T15:33:59Z</time>
      </trkpt>
      <trkpt lat="48.68476" lon="5.8982">
        <ele>206.9</ele>
        <time>2020-06-29T15:34:00Z</time>
      </trkpt>
      <trkpt lat="48.68478" lon="5.89816">
        <ele>207</ele>
        <time>2020-06-29T15:34:01Z</time>
      </trkpt>
      <trkpt lat="48.6848" lon="5.89812">
        <ele>207</ele>
        <time>2020-06-29T15:34:02Z</time>
      </trkpt>
      <trkpt lat="48.68483" lon="5.89811">
        <ele>207.1</ele>
        <time>2020-06-29T15:34:03Z</time>
      </trkpt>
      <trkpt lat="48.68488" lon="5.89811">
        <ele>207.1</ele>
        <time>2020-06-29T15:34:04Z</time>
      </trkpt>
      <trkpt lat="48.68489" lon="5.89808">
        <ele>207.1</ele>
        <time>2020-06-29T15:34:05Z</time>
      </trkpt>
      <trkpt lat="48.6849" lon="5.89806">
        <ele>207.2</ele>
        <time>2020-06-29T15:34:06Z</time>
      </trkpt>
      <trkpt lat="48.6849" lon="5.89804">
        <ele>207.1</ele>
        <time>2020-06-29T15:34:07Z</time>
      </trkpt>
      <trkpt lat="48.68491" lon="5.89803">
        <ele>207.1</ele>
        <time>2020-06-29T15:34:08Z</time>
      </trkpt>
      <trkpt lat="48.68493" lon="5.89803">
        <ele>207.1</ele>
        <time>2020-06-29T15:34:09Z</time>
      </trkpt>
      <trkpt lat="48.68493" lon="5.89803">
        <ele>207</ele>
        <time>2020-06-29T15:34:10Z</time>
      </trkpt>
      <trkpt lat="48.68493" lon="5.89802">
        <ele>207</ele>
        <time>2020-06-29T15:34:11Z</time>
      </trkpt>
      <trkpt lat="48.68493" lon="5.89802">
        <ele>207</ele>
        <time>2020-06-29T15:34:12Z</time>
      </trkpt>
      <trkpt lat="48.68494" lon="5.89802">
        <ele>207</ele>
        <time>2020-06-29T15:34:13Z</time>
      </trkpt>
      <trkpt lat="48.68495" lon="5.89802">
        <ele>207</ele>
        <time>2020-06-29T15:34:14Z</time>
      </trkpt>
      <trkpt lat="48.68496" lon="5.89803">
        <ele>207</ele>
        <time>2020-06-29T15:34:15Z</time>
      </trkpt>
      <trkpt lat="48.68497" lon="5.89803">
        <ele>207</ele>
        <time>2020-06-29T15:34:16Z</time>
      </trkpt>
      <trkpt lat="48.68497" lon="5.89802">
        <ele>207</ele>
        <time>2020-06-29T15:34:17Z</time>
      </trkpt>
      <trkpt lat="48.68497" lon="5.89802">
        <ele>207</ele>
        <time>2020-06-29T15:34:18Z</time>
      </trkpt>
      <trkpt lat="48.68497" lon="5.89802">
        <ele>206.9</ele>
        <time>2020-06-29T15:34:19Z</time>
      </trkpt>
      <trkpt lat="48.68501" lon="5.89793">
        <ele>206.8</ele>
        <time>2020-06-29T15:34:39Z</time>
      </trkpt>
      <trkpt lat="48.68501" lon="5.8979">
        <ele>206.8</ele>
        <time>2020-06-29T15:34:40Z</time>
      </trkpt>
      <trkpt lat="48.68502" lon="5.89786">
        <ele>206.8</ele>
        <time>2020-06-29T15:34:41Z</time>
      </trkpt>
      <trkpt lat="48.68502" lon="5.89784">
        <ele>207.1</ele>
        <time>2020-06-29T15:34:42Z</time>
      </trkpt>
      <trkpt lat="48.68501" lon="5.89779">
        <ele>207.3</ele>
        <time>2020-06-29T15:34:43Z</time>
      </trkpt>
      <trkpt lat="48.685" lon="5.89777">
        <ele>207.4</ele>
        <time>2020-06-29T15:34:44Z</time>
      </trkpt>
      <trkpt lat="48.68499" lon="5.89773">
        <ele>207.5</ele>
        <time>2020-06-29T15:34:45Z</time>
      </trkpt>
      <trkpt lat="48.68497" lon="5.89769">
        <ele>207.6</ele>
        <time>2020-06-29T15:34:46Z</time>
      </trkpt>
      <trkpt lat="48.68494" lon="5.89766">
        <ele>207.8</ele>
        <time>2020-06-29T15:34:47Z</time>
      </trkpt>
      <trkpt lat="48.68492" lon="5.89762">
        <ele>208</ele>
        <time>2020-06-29T15:34:48Z</time>
      </trkpt>
      <trkpt lat="48.68489" lon="5.89757">
        <ele>208.1</ele>
        <time>2020-06-29T15:34:49Z</time>
      </trkpt>
      <trkpt lat="48.68488" lon="5.89752">
        <ele>208.3</ele>
        <time>2020-06-29T15:34:50Z</time>
      </trkpt>
      <trkpt lat="48.68486" lon="5.89747">
        <ele>208.5</ele>
        <time>2020-06-29T15:34:51Z</time>
      </trkpt>
      <trkpt lat="48.68484" lon="5.89743">
        <ele>208.6</ele>
        <time>2020-06-29T15:34:52Z</time>
      </trkpt>
      <trkpt lat="48.68482" lon="5.89739">
        <ele>208.8</ele>
        <time>2020-06-29T15:34:53Z</time>
      </trkpt>
      <trkpt lat="48.6848" lon="5.89734">
        <ele>208.9</ele>
        <time>2020-06-29T15:34:54Z</time>
      </trkpt>
      <trkpt lat="48.68478" lon="5.89731">
        <ele>209.1</ele>
        <time>2020-06-29T15:34:55Z</time>
      </trkpt>
      <trkpt lat="48.68477" lon="5.89727">
        <ele>209.2</ele>
        <time>2020-06-29T15:34:56Z</time>
      </trkpt>
      <trkpt lat="48.68475" lon="5.89722">
        <ele>209.3</ele>
        <time>2020-06-29T15:34:57Z</time>
      </trkpt>
      <trkpt lat="48.68474" lon="5.8972">
        <ele>209.4</ele>
        <time>2020-06-29T15:34:58Z</time>
      </trkpt>
      <trkpt lat="48.68472" lon="5.89715">
        <ele>209.5</ele>
        <time>2020-06-29T15:34:59Z</time>
      </trkpt>
      <trkpt lat="48.68469" lon="5.8971">
        <ele>209.7</ele>
        <time>2020-06-29T15:35:00Z</time>
      </trkpt>
      <trkpt lat="48.68466" lon="5.89704">
        <ele>209.8</ele>
        <time>2020-06-29T15:35:01Z</time>
      </trkpt>
      <trkpt lat="48.68463" lon="5.89699">
        <ele>209.9</ele>
        <time>2020-06-29T15:35:02Z</time>
      </trkpt>
      <trkpt lat="48.6846" lon="5.89694">
        <ele>209.9</ele>
        <time>2020-06-29T15:35:03Z</time>
      </trkpt>
      <trkpt lat="48.68458" lon="5.8969">
        <ele>209.9</ele>
        <time>2020-06-29T15:35:04Z</time>
      </trkpt>
      <trkpt lat="48.68456" lon="5.89684">
        <ele>209.9</ele>
        <time>2020-06-29T15:35:05Z</time>
      </trkpt>
      <trkpt lat="48.68454" lon="5.89681">
        <ele>209.9</ele>
        <time>2020-06-29T15:35:06Z</time>
      </trkpt>
      <trkpt lat="48.68451" lon="5.89677">
        <ele>209.9</ele>
        <time>2020-06-29T15:35:07Z</time>
      </trkpt>
      <trkpt lat="48.68447" lon="5.89673">
        <ele>209.9</ele>
        <time>2020-06-29T15:35:08Z</time>
      </trkpt>
      <trkpt lat="48.68444" lon="5.8967">
        <ele>209.9</ele>
        <time>2020-06-29T15:35:09Z</time>
      </trkpt>
      <trkpt lat="48.68441" lon="5.89667">
        <ele>209.9</ele>
        <time>2020-06-29T15:35:10Z</time>
      </trkpt>
      <trkpt lat="48.68437" lon="5.89661">
        <ele>209.8</ele>
        <time>2020-06-29T15:35:11Z</time>
      </trkpt>
      <trkpt lat="48.68434" lon="5.89658">
        <ele>209.8</ele>
        <time>2020-06-29T15:35:12Z</time>
      </trkpt>
      <trkpt lat="48.6843" lon="5.89652">
        <ele>209.7</ele>
        <time>2020-06-29T15:35:13Z</time>
      </trkpt>
      <trkpt lat="48.68427" lon="5.89648">
        <ele>209.7</ele>
        <time>2020-06-29T15:35:14Z</time>
      </trkpt>
      <trkpt lat="48.68425" lon="5.89643">
        <ele>209.6</ele>
        <time>2020-06-29T15:35:15Z</time>
      </trkpt>
      <trkpt lat="48.6842" lon="5.89638">
        <ele>209.5</ele>
        <time>2020-06-29T15:35:16Z</time>
      </trkpt>
      <trkpt lat="48.68416" lon="5.89633">
        <ele>209.5</ele>
        <time>2020-06-29T15:35:17Z</time>
      </trkpt>
      <trkpt lat="48.68412" lon="5.89627">
        <ele>209.4</ele>
        <time>2020-06-29T15:35:18Z</time>
      </trkpt>
      <trkpt lat="48.68409" lon="5.89623">
        <ele>209.4</ele>
        <time>2020-06-29T15:35:19Z</time>
      </trkpt>
      <trkpt lat="48.68405" lon="5.89618">
        <ele>209.3</ele>
        <time>2020-06-29T15:35:20Z</time>
      </trkpt>
      <trkpt lat="48.68401" lon="5.89612">
        <ele>209.3</ele>
        <time>2020-06-29T15:35:21Z</time>
      </trkpt>
      <trkpt lat="48.68395" lon="5.89606">
        <ele>209.3</ele>
        <time>2020-06-29T15:35:22Z</time>
      </trkpt>
      <trkpt lat="48.68391" lon="5.89601">
        <ele>209.2</ele>
        <time>2020-06-29T15:35:23Z</time>
      </trkpt>
      <trkpt lat="48.68388" lon="5.89597">
        <ele>209.2</ele>
        <time>2020-06-29T15:35:24Z</time>
      </trkpt>
      <trkpt lat="48.68385" lon="5.89593">
        <ele>209.2</ele>
        <time>2020-06-29T15:35:25Z</time>
      </trkpt>
      <trkpt lat="48.68382" lon="5.89589">
        <ele>209.2</ele>
        <time>2020-06-29T15:35:26Z</time>
      </trkpt>
      <trkpt lat="48.68377" lon="5.89583">
        <ele>209.2</ele>
        <time>2020-06-29T15:35:27Z</time>
      </trkpt>
      <trkpt lat="48.68373" lon="5.89578">
        <ele>209.2</ele>
        <time>2020-06-29T15:35:28Z</time>
      </trkpt>
      <trkpt lat="48.68369" lon="5.89572">
        <ele>209.2</ele>
        <time>2020-06-29T15:35:29Z</time>
      </trkpt>
      <trkpt lat="48.68365" lon="5.89567">
        <ele>209.2</ele>
        <time>2020-06-29T15:35:30Z</time>
      </trkpt>
      <trkpt lat="48.68361" lon="5.89561">
        <ele>209.2</ele>
        <time>2020-06-29T15:35:31Z</time>
      </trkpt>
      <trkpt lat="48.68358" lon="5.89555">
        <ele>209.1</ele>
        <time>2020-06-29T15:35:32Z</time>
      </trkpt>
      <trkpt lat="48.68354" lon="5.89547">
        <ele>209.1</ele>
        <time>2020-06-29T15:35:33Z</time>
      </trkpt>
      <trkpt lat="48.68352" lon="5.89543">
        <ele>209.1</ele>
        <time>2020-06-29T15:35:34Z</time>
      </trkpt>
      <trkpt lat="48.68349" lon="5.89536">
        <ele>209.1</ele>
        <time>2020-06-29T15:35:35Z</time>
      </trkpt>
      <trkpt lat="48.68347" lon="5.89529">
        <ele>209.1</ele>
        <time>2020-06-29T15:35:36Z</time>
      </trkpt>
      <trkpt lat="48.68345" lon="5.89522">
        <ele>209.1</ele>
        <time>2020-06-29T15:35:37Z</time>
      </trkpt>
      <trkpt lat="48.68343" lon="5.89514">
        <ele>209.1</ele>
        <time>2020-06-29T15:35:38Z</time>
      </trkpt>
      <trkpt lat="48.68341" lon="5.89504">
        <ele>209.1</ele>
        <time>2020-06-29T15:35:39Z</time>
      </trkpt>
      <trkpt lat="48.6834" lon="5.89496">
        <ele>209.1</ele>
        <time>2020-06-29T15:35:40Z</time>
      </trkpt>
      <trkpt lat="48.68339" lon="5.89488">
        <ele>209.1</ele>
        <time>2020-06-29T15:35:41Z</time>
      </trkpt>
      <trkpt lat="48.68338" lon="5.89481">
        <ele>209.1</ele>
        <time>2020-06-29T15:35:42Z</time>
      </trkpt>
      <trkpt lat="48.68337" lon="5.89473">
        <ele>209.2</ele>
        <time>2020-06-29T15:35:43Z</time>
      </trkpt>
      <trkpt lat="48.68335" lon="5.89466">
        <ele>209.2</ele>
        <time>2020-06-29T15:35:44Z</time>
      </trkpt>
      <trkpt lat="48.68334" lon="5.8946">
        <ele>209.2</ele>
        <time>2020-06-29T15:35:45Z</time>
      </trkpt>
      <trkpt lat="48.68331" lon="5.89453">
        <ele>209.2</ele>
        <time>2020-06-29T15:35:46Z</time>
      </trkpt>
      <trkpt lat="48.68329" lon="5.89444">
        <ele>209.2</ele>
        <time>2020-06-29T15:35:47Z</time>
      </trkpt>
      <trkpt lat="48.68327" lon="5.89436">
        <ele>209.3</ele>
        <time>2020-06-29T15:35:48Z</time>
      </trkpt>
      <trkpt lat="48.68324" lon="5.89429">
        <ele>209.3</ele>
        <time>2020-06-29T15:35:49Z</time>
      </trkpt>
      <trkpt lat="48.68321" lon="5.89423">
        <ele>209.3</ele>
        <time>2020-06-29T15:35:50Z</time>
      </trkpt>
      <trkpt lat="48.68319" lon="5.89418">
        <ele>209.3</ele>
        <time>2020-06-29T15:35:51Z</time>
      </trkpt>
      <trkpt lat="48.68315" lon="5.89412">
        <ele>209.3</ele>
        <time>2020-06-29T15:35:52Z</time>
      </trkpt>
      <trkpt lat="48.68312" lon="5.89406">
        <ele>209.3</ele>
        <time>2020-06-29T15:35:53Z</time>
      </trkpt>
      <trkpt lat="48.68309" lon="5.894">
        <ele>209.3</ele>
        <time>2020-06-29T15:35:54Z</time>
      </trkpt>
      <trkpt lat="48.68307" lon="5.89396">
        <ele>209.3</ele>
        <time>2020-06-29T15:35:55Z</time>
      </trkpt>
      <trkpt lat="48.68303" lon="5.89389">
        <ele>209.2</ele>
        <time>2020-06-29T15:35:56Z</time>
      </trkpt>
      <trkpt lat="48.68299" lon="5.89384">
        <ele>209.2</ele>
        <time>2020-06-29T15:35:57Z</time>
      </trkpt>
      <trkpt lat="48.68296" lon="5.89379">
        <ele>209.2</ele>
        <time>2020-06-29T15:35:58Z</time>
      </trkpt>
      <trkpt lat="48.68293" lon="5.89375">
        <ele>209.2</ele>
        <time>2020-06-29T15:35:59Z</time>
      </trkpt>
      <trkpt lat="48.68288" lon="5.89368">
        <ele>209.2</ele>
        <time>2020-06-29T15:36:00Z</time>
      </trkpt>
      <trkpt lat="48.68286" lon="5.89364">
        <ele>209.1</ele>
        <time>2020-06-29T15:36:01Z</time>
      </trkpt>
      <trkpt lat="48.68282" lon="5.89359">
        <ele>209.1</ele>
        <time>2020-06-29T15:36:02Z</time>
      </trkpt>
      <trkpt lat="48.68278" lon="5.89355">
        <ele>209.1</ele>
        <time>2020-06-29T15:36:03Z</time>
      </trkpt>
      <trkpt lat="48.68276" lon="5.89352">
        <ele>209.1</ele>
        <time>2020-06-29T15:36:04Z</time>
      </trkpt>
      <trkpt lat="48.68271" lon="5.89348">
        <ele>209.1</ele>
        <time>2020-06-29T15:36:05Z</time>
      </trkpt>
      <trkpt lat="48.68267" lon="5.89345">
        <ele>209.1</ele>
        <time>2020-06-29T15:36:06Z</time>
      </trkpt>
      <trkpt lat="48.68264" lon="5.89342">
        <ele>209.1</ele>
        <time>2020-06-29T15:36:07Z</time>
      </trkpt>
      <trkpt lat="48.68261" lon="5.89338">
        <ele>209.1</ele>
        <time>2020-06-29T15:36:08Z</time>
      </trkpt>
      <trkpt lat="48.6826" lon="5.89337">
        <ele>209.1</ele>
        <time>2020-06-29T15:36:09Z</time>
      </trkpt>
      <trkpt lat="48.68257" lon="5.89332">
        <ele>209.1</ele>
        <time>2020-06-29T15:36:10Z</time>
      </trkpt>
      <trkpt lat="48.68256" lon="5.89331">
        <ele>209.1</ele>
        <time>2020-06-29T15:36:11Z</time>
      </trkpt>
      <trkpt lat="48.68255" lon="5.89329">
        <ele>209.1</ele>
        <time>2020-06-29T15:36:12Z</time>
      </trkpt>
      <trkpt lat="48.68253" lon="5.89328">
        <ele>209.1</ele>
        <time>2020-06-29T15:36:13Z</time>
      </trkpt>
      <trkpt lat="48.68253" lon="5.89327">
        <ele>209.1</ele>
        <time>2020-06-29T15:36:14Z</time>
      </trkpt>
      <trkpt lat="48.68252" lon="5.89326">
        <ele>209.1</ele>
        <time>2020-06-29T15:36:15Z</time>
      </trkpt>
      <trkpt lat="48.68251" lon="5.89325">
        <ele>209.1</ele>
        <time>2020-06-29T15:36:16Z</time>
      </trkpt>
      <trkpt lat="48.6825" lon="5.89325">
        <ele>209.1</ele>
        <time>2020-06-29T15:36:17Z</time>
      </trkpt>
      <trkpt lat="48.6825" lon="5.89324">
        <ele>209.1</ele>
        <time>2020-06-29T15:36:18Z</time>
      </trkpt>
      <trkpt lat="48.68249" lon="5.89324">
        <ele>209.1</ele>
        <time>2020-06-29T15:36:19Z</time>
      </trkpt>
      <trkpt lat="48.68249" lon="5.89324">
        <ele>209.1</ele>
        <time>2020-06-29T15:36:20Z</time>
      </trkpt>
      <trkpt lat="48.68248" lon="5.89324">
        <ele>209.1</ele>
        <time>2020-06-29T15:36:21Z</time>
      </trkpt>
      <trkpt lat="48.68245" lon="5.89322">
        <ele>209.1</ele>
        <time>2020-06-29T15:36:22Z</time>
      </trkpt>
      <trkpt lat="48.68243" lon="5.89321">
        <ele>209.1</ele>
        <time>2020-06-29T15:36:23Z</time>
      </trkpt>
      <trkpt lat="48.6824" lon="5.89318">
        <ele>209</ele>
        <time>2020-06-29T15:36:24Z</time>
      </trkpt>
      <trkpt lat="48.68237" lon="5.89315">
        <ele>209</ele>
        <time>2020-06-29T15:36:25Z</time>
      </trkpt>
      <trkpt lat="48.68234" lon="5.89313">
        <ele>209</ele>
        <time>2020-06-29T15:36:26Z</time>
      </trkpt>
      <trkpt lat="48.6823" lon="5.89309">
        <ele>209.1</ele>
        <time>2020-06-29T15:36:27Z</time>
      </trkpt>
      <trkpt lat="48.68227" lon="5.89305">
        <ele>209.1</ele>
        <time>2020-06-29T15:36:28Z</time>
      </trkpt>
      <trkpt lat="48.68224" lon="5.89299">
        <ele>209.4</ele>
        <time>2020-06-29T15:36:29Z</time>
      </trkpt>
      <trkpt lat="48.68225" lon="5.89293">
        <ele>209.4</ele>
        <time>2020-06-29T15:36:30Z</time>
      </trkpt>
      <trkpt lat="48.68227" lon="5.89289">
        <ele>209.5</ele>
        <time>2020-06-29T15:36:31Z</time>
      </trkpt>
      <trkpt lat="48.6823" lon="5.89283">
        <ele>209.6</ele>
        <time>2020-06-29T15:36:32Z</time>
      </trkpt>
      <trkpt lat="48.68232" lon="5.89279">
        <ele>209.6</ele>
        <time>2020-06-29T15:36:33Z</time>
      </trkpt>
      <trkpt lat="48.68235" lon="5.89274">
        <ele>209.7</ele>
        <time>2020-06-29T15:36:34Z</time>
      </trkpt>
      <trkpt lat="48.68239" lon="5.8927">
        <ele>209.7</ele>
        <time>2020-06-29T15:36:35Z</time>
      </trkpt>
      <trkpt lat="48.68242" lon="5.89265">
        <ele>209.8</ele>
        <time>2020-06-29T15:36:36Z</time>
      </trkpt>
      <trkpt lat="48.68245" lon="5.89262">
        <ele>209.8</ele>
        <time>2020-06-29T15:36:37Z</time>
      </trkpt>
      <trkpt lat="48.68248" lon="5.89258">
        <ele>209.9</ele>
        <time>2020-06-29T15:36:38Z</time>
      </trkpt>
      <trkpt lat="48.68251" lon="5.89254">
        <ele>210</ele>
        <time>2020-06-29T15:36:39Z</time>
      </trkpt>
      <trkpt lat="48.68254" lon="5.89252">
        <ele>210</ele>
        <time>2020-06-29T15:36:40Z</time>
      </trkpt>
      <trkpt lat="48.68258" lon="5.89248">
        <ele>210.1</ele>
        <time>2020-06-29T15:36:41Z</time>
      </trkpt>
      <trkpt lat="48.68261" lon="5.89245">
        <ele>210.2</ele>
        <time>2020-06-29T15:36:42Z</time>
      </trkpt>
      <trkpt lat="48.68265" lon="5.8924">
        <ele>210.3</ele>
        <time>2020-06-29T15:36:43Z</time>
      </trkpt>
      <trkpt lat="48.6827" lon="5.89235">
        <ele>210.5</ele>
        <time>2020-06-29T15:36:44Z</time>
      </trkpt>
      <trkpt lat="48.68272" lon="5.89232">
        <ele>210.5</ele>
        <time>2020-06-29T15:36:45Z</time>
      </trkpt>
      <trkpt lat="48.68276" lon="5.8923">
        <ele>210.6</ele>
        <time>2020-06-29T15:36:46Z</time>
      </trkpt>
      <trkpt lat="48.68282" lon="5.89225">
        <ele>210.6</ele>
        <time>2020-06-29T15:36:47Z</time>
      </trkpt>
      <trkpt lat="48.68286" lon="5.8922">
        <ele>210.6</ele>
        <time>2020-06-29T15:36:48Z</time>
      </trkpt>
      <trkpt lat="48.68291" lon="5.89214">
        <ele>210.7</ele>
        <time>2020-06-29T15:36:49Z</time>
      </trkpt>
      <trkpt lat="48.68294" lon="5.89212">
        <ele>210.7</ele>
        <time>2020-06-29T15:36:50Z</time>
      </trkpt>
      <trkpt lat="48.68297" lon="5.89208">
        <ele>210.8</ele>
        <time>2020-06-29T15:36:51Z</time>
      </trkpt>
      <trkpt lat="48.683" lon="5.89205">
        <ele>210.8</ele>
        <time>2020-06-29T15:36:52Z</time>
      </trkpt>
      <trkpt lat="48.68304" lon="5.892">
        <ele>210.9</ele>
        <time>2020-06-29T15:36:53Z</time>
      </trkpt>
      <trkpt lat="48.68308" lon="5.89195">
        <ele>210.9</ele>
        <time>2020-06-29T15:36:54Z</time>
      </trkpt>
      <trkpt lat="48.68311" lon="5.89193">
        <ele>211</ele>
        <time>2020-06-29T15:36:55Z</time>
      </trkpt>
      <trkpt lat="48.68315" lon="5.89189">
        <ele>211.1</ele>
        <time>2020-06-29T15:36:56Z</time>
      </trkpt>
      <trkpt lat="48.6832" lon="5.89185">
        <ele>211.2</ele>
        <time>2020-06-29T15:36:57Z</time>
      </trkpt>
      <trkpt lat="48.68323" lon="5.89182">
        <ele>211.3</ele>
        <time>2020-06-29T15:36:58Z</time>
      </trkpt>
      <trkpt lat="48.68327" lon="5.8918">
        <ele>211.4</ele>
        <time>2020-06-29T15:36:59Z</time>
      </trkpt>
      <trkpt lat="48.68331" lon="5.89177">
        <ele>211.5</ele>
        <time>2020-06-29T15:37:00Z</time>
      </trkpt>
      <trkpt lat="48.68336" lon="5.89173">
        <ele>211.8</ele>
        <time>2020-06-29T15:37:01Z</time>
      </trkpt>
      <trkpt lat="48.68339" lon="5.8917">
        <ele>211.9</ele>
        <time>2020-06-29T15:37:02Z</time>
      </trkpt>
      <trkpt lat="48.68343" lon="5.89166">
        <ele>211.9</ele>
        <time>2020-06-29T15:37:03Z</time>
      </trkpt>
      <trkpt lat="48.68345" lon="5.89164">
        <ele>212.1</ele>
        <time>2020-06-29T15:37:04Z</time>
      </trkpt>
      <trkpt lat="48.6835" lon="5.89156">
        <ele>212.1</ele>
        <time>2020-06-29T15:37:05Z</time>
      </trkpt>
      <trkpt lat="48.68351" lon="5.89151">
        <ele>212.1</ele>
        <time>2020-06-29T15:37:06Z</time>
      </trkpt>
      <trkpt lat="48.68352" lon="5.89145">
        <ele>212.2</ele>
        <time>2020-06-29T15:37:07Z</time>
      </trkpt>
      <trkpt lat="48.68352" lon="5.89139">
        <ele>212.2</ele>
        <time>2020-06-29T15:37:08Z</time>
      </trkpt>
      <trkpt lat="48.68352" lon="5.89136">
        <ele>212.2</ele>
        <time>2020-06-29T15:37:09Z</time>
      </trkpt>
      <trkpt lat="48.68353" lon="5.89132">
        <ele>212.2</ele>
        <time>2020-06-29T15:37:10Z</time>
      </trkpt>
      <trkpt lat="48.68354" lon="5.89127">
        <ele>212.3</ele>
        <time>2020-06-29T15:37:11Z</time>
      </trkpt>
      <trkpt lat="48.68355" lon="5.89125">
        <ele>212.3</ele>
        <time>2020-06-29T15:37:12Z</time>
      </trkpt>
      <trkpt lat="48.68355" lon="5.89122">
        <ele>212.4</ele>
        <time>2020-06-29T15:37:13Z</time>
      </trkpt>
      <trkpt lat="48.68355" lon="5.89121">
        <ele>212.4</ele>
        <time>2020-06-29T15:37:14Z</time>
      </trkpt>
      <trkpt lat="48.68355" lon="5.89119">
        <ele>212.5</ele>
        <time>2020-06-29T15:37:15Z</time>
      </trkpt>
      <trkpt lat="48.68355" lon="5.89118">
        <ele>212.5</ele>
        <time>2020-06-29T15:37:16Z</time>
      </trkpt>
      <trkpt lat="48.68356" lon="5.89116">
        <ele>212.5</ele>
        <time>2020-06-29T15:37:17Z</time>
      </trkpt>
      <trkpt lat="48.68356" lon="5.89114">
        <ele>212.5</ele>
        <time>2020-06-29T15:37:18Z</time>
      </trkpt>
      <trkpt lat="48.68356" lon="5.89114">
        <ele>212.5</ele>
        <time>2020-06-29T15:37:19Z</time>
      </trkpt>
      <trkpt lat="48.68356" lon="5.89114">
        <ele>212.5</ele>
        <time>2020-06-29T15:37:20Z</time>
      </trkpt>
      <trkpt lat="48.68356" lon="5.89114">
        <ele>212.5</ele>
        <time>2020-06-29T15:37:21Z</time>
      </trkpt>
      <trkpt lat="48.68356" lon="5.89114">
        <ele>212.5</ele>
        <time>2020-06-29T15:37:22Z</time>
      </trkpt>
      <trkpt lat="48.68356" lon="5.89114">
        <ele>212.5</ele>
        <time>2020-06-29T15:37:23Z</time>
      </trkpt>
      <trkpt lat="48.68356" lon="5.89114">
        <ele>212.5</ele>
        <time>2020-06-29T15:37:24Z</time>
      </trkpt>
      <trkpt lat="48.68356" lon="5.89115">
        <ele>212.5</ele>
        <time>2020-06-29T15:37:25Z</time>
      </trkpt>
      <trkpt lat="48.68357" lon="5.89114">
        <ele>212.5</ele>
        <time>2020-06-29T15:37:26Z</time>
      </trkpt>
      <trkpt lat="48.68356" lon="5.89114">
        <ele>212.5</ele>
        <time>2020-06-29T15:37:27Z</time>
      </trkpt>
      <trkpt lat="48.68356" lon="5.89115">
        <ele>212.5</ele>
        <time>2020-06-29T15:37:28Z</time>
      </trkpt>
      <trkpt lat="48.68347" lon="5.89131">
        <ele>212.6</ele>
        <time>2020-06-29T15:37:39Z</time>
      </trkpt>
      <trkpt lat="48.68344" lon="5.89133">
        <ele>212.6</ele>
        <time>2020-06-29T15:37:40Z</time>
      </trkpt>
      <trkpt lat="48.6834" lon="5.89137">
        <ele>212.6</ele>
        <time>2020-06-29T15:37:41Z</time>
      </trkpt>
      <trkpt lat="48.68335" lon="5.89139">
        <ele>212.5</ele>
        <time>2020-06-29T15:37:42Z</time>
      </trkpt>
      <trkpt lat="48.6833" lon="5.89137">
        <ele>212.6</ele>
        <time>2020-06-29T15:37:43Z</time>
      </trkpt>
      <trkpt lat="48.68325" lon="5.89133">
        <ele>212.6</ele>
        <time>2020-06-29T15:37:44Z</time>
      </trkpt>
      <trkpt lat="48.68322" lon="5.89129">
        <ele>212.7</ele>
        <time>2020-06-29T15:37:45Z</time>
      </trkpt>
      <trkpt lat="48.68318" lon="5.89125">
        <ele>212.7</ele>
        <time>2020-06-29T15:37:46Z</time>
      </trkpt>
      <trkpt lat="48.68315" lon="5.89121">
        <ele>212.8</ele>
        <time>2020-06-29T15:37:47Z</time>
      </trkpt>
      <trkpt lat="48.68312" lon="5.89116">
        <ele>212.8</ele>
        <time>2020-06-29T15:37:48Z</time>
      </trkpt>
      <trkpt lat="48.6831" lon="5.89112">
        <ele>212.8</ele>
        <time>2020-06-29T15:37:49Z</time>
      </trkpt>
      <trkpt lat="48.68307" lon="5.89108">
        <ele>212.9</ele>
        <time>2020-06-29T15:37:50Z</time>
      </trkpt>
      <trkpt lat="48.68304" lon="5.89104">
        <ele>212.9</ele>
        <time>2020-06-29T15:37:51Z</time>
      </trkpt>
      <trkpt lat="48.68301" lon="5.891">
        <ele>212.9</ele>
        <time>2020-06-29T15:37:52Z</time>
      </trkpt>
      <trkpt lat="48.68298" lon="5.89095">
        <ele>213</ele>
        <time>2020-06-29T15:37:53Z</time>
      </trkpt>
      <trkpt lat="48.68294" lon="5.89089">
        <ele>213</ele>
        <time>2020-06-29T15:37:54Z</time>
      </trkpt>
      <trkpt lat="48.68291" lon="5.89085">
        <ele>213.1</ele>
        <time>2020-06-29T15:37:55Z</time>
      </trkpt>
      <trkpt lat="48.68287" lon="5.89079">
        <ele>213.1</ele>
        <time>2020-06-29T15:37:56Z</time>
      </trkpt>
      <trkpt lat="48.68284" lon="5.89072">
        <ele>213.2</ele>
        <time>2020-06-29T15:37:57Z</time>
      </trkpt>
      <trkpt lat="48.68281" lon="5.89066">
        <ele>213.3</ele>
        <time>2020-06-29T15:37:58Z</time>
      </trkpt>
      <trkpt lat="48.68279" lon="5.89061">
        <ele>213.4</ele>
        <time>2020-06-29T15:37:59Z</time>
      </trkpt>
      <trkpt lat="48.68277" lon="5.89056">
        <ele>213.5</ele>
        <time>2020-06-29T15:38:00Z</time>
      </trkpt>
      <trkpt lat="48.68275" lon="5.89051">
        <ele>213.5</ele>
        <time>2020-06-29T15:38:01Z</time>
      </trkpt>
      <trkpt lat="48.68272" lon="5.89044">
        <ele>213.7</ele>
        <time>2020-06-29T15:38:02Z</time>
      </trkpt>
      <trkpt lat="48.6827" lon="5.89038">
        <ele>213.8</ele>
        <time>2020-06-29T15:38:03Z</time>
      </trkpt>
      <trkpt lat="48.68267" lon="5.89031">
        <ele>213.9</ele>
        <time>2020-06-29T15:38:04Z</time>
      </trkpt>
      <trkpt lat="48.68266" lon="5.89028">
        <ele>213.9</ele>
        <time>2020-06-29T15:38:05Z</time>
      </trkpt>
      <trkpt lat="48.68264" lon="5.89024">
        <ele>214</ele>
        <time>2020-06-29T15:38:06Z</time>
      </trkpt>
      <trkpt lat="48.68261" lon="5.89017">
        <ele>214.1</ele>
        <time>2020-06-29T15:38:07Z</time>
      </trkpt>
      <trkpt lat="48.68259" lon="5.89013">
        <ele>214.1</ele>
        <time>2020-06-29T15:38:08Z</time>
      </trkpt>
      <trkpt lat="48.68257" lon="5.89007">
        <ele>214.2</ele>
        <time>2020-06-29T15:38:09Z</time>
      </trkpt>
      <trkpt lat="48.68255" lon="5.89001">
        <ele>214.3</ele>
        <time>2020-06-29T15:38:10Z</time>
      </trkpt>
      <trkpt lat="48.68253" lon="5.88996">
        <ele>214.4</ele>
        <time>2020-06-29T15:38:11Z</time>
      </trkpt>
      <trkpt lat="48.68251" lon="5.88991">
        <ele>214.5</ele>
        <time>2020-06-29T15:38:12Z</time>
      </trkpt>
      <trkpt lat="48.68249" lon="5.88987">
        <ele>214.5</ele>
        <time>2020-06-29T15:38:13Z</time>
      </trkpt>
      <trkpt lat="48.68247" lon="5.88983">
        <ele>214.6</ele>
        <time>2020-06-29T15:38:14Z</time>
      </trkpt>
      <trkpt lat="48.68245" lon="5.88977">
        <ele>214.7</ele>
        <time>2020-06-29T15:38:15Z</time>
      </trkpt>
      <trkpt lat="48.68244" lon="5.88972">
        <ele>214.7</ele>
        <time>2020-06-29T15:38:16Z</time>
      </trkpt>
      <trkpt lat="48.68244" lon="5.88965">
        <ele>214.8</ele>
        <time>2020-06-29T15:38:17Z</time>
      </trkpt>
      <trkpt lat="48.68244" lon="5.88959">
        <ele>215</ele>
        <time>2020-06-29T15:38:18Z</time>
      </trkpt>
      <trkpt lat="48.68244" lon="5.88953">
        <ele>215.1</ele>
        <time>2020-06-29T15:38:19Z</time>
      </trkpt>
      <trkpt lat="48.68244" lon="5.88946">
        <ele>215.2</ele>
        <time>2020-06-29T15:38:20Z</time>
      </trkpt>
      <trkpt lat="48.68245" lon="5.88941">
        <ele>215.3</ele>
        <time>2020-06-29T15:38:21Z</time>
      </trkpt>
      <trkpt lat="48.68245" lon="5.88935">
        <ele>215.4</ele>
        <time>2020-06-29T15:38:22Z</time>
      </trkpt>
      <trkpt lat="48.68246" lon="5.88931">
        <ele>215.5</ele>
        <time>2020-06-29T15:38:23Z</time>
      </trkpt>
      <trkpt lat="48.68246" lon="5.88927">
        <ele>215.5</ele>
        <time>2020-06-29T15:38:24Z</time>
      </trkpt>
      <trkpt lat="48.68247" lon="5.8892">
        <ele>215.6</ele>
        <time>2020-06-29T15:38:25Z</time>
      </trkpt>
      <trkpt lat="48.68247" lon="5.88917">
        <ele>215.6</ele>
        <time>2020-06-29T15:38:26Z</time>
      </trkpt>
      <trkpt lat="48.68247" lon="5.88912">
        <ele>215.7</ele>
        <time>2020-06-29T15:38:27Z</time>
      </trkpt>
      <trkpt lat="48.68246" lon="5.88906">
        <ele>215.9</ele>
        <time>2020-06-29T15:38:28Z</time>
      </trkpt>
      <trkpt lat="48.68246" lon="5.88902">
        <ele>216</ele>
        <time>2020-06-29T15:38:29Z</time>
      </trkpt>
      <trkpt lat="48.68245" lon="5.88898">
        <ele>216.1</ele>
        <time>2020-06-29T15:38:30Z</time>
      </trkpt>
      <trkpt lat="48.68244" lon="5.88892">
        <ele>216.2</ele>
        <time>2020-06-29T15:38:31Z</time>
      </trkpt>
      <trkpt lat="48.68244" lon="5.8889">
        <ele>216.3</ele>
        <time>2020-06-29T15:38:32Z</time>
      </trkpt>
      <trkpt lat="48.68243" lon="5.88886">
        <ele>216.4</ele>
        <time>2020-06-29T15:38:33Z</time>
      </trkpt>
      <trkpt lat="48.68242" lon="5.88881">
        <ele>216.4</ele>
        <time>2020-06-29T15:38:34Z</time>
      </trkpt>
      <trkpt lat="48.6824" lon="5.88876">
        <ele>216.5</ele>
        <time>2020-06-29T15:38:35Z</time>
      </trkpt>
      <trkpt lat="48.68238" lon="5.8887">
        <ele>216.7</ele>
        <time>2020-06-29T15:38:36Z</time>
      </trkpt>
      <trkpt lat="48.68236" lon="5.88865">
        <ele>216.8</ele>
        <time>2020-06-29T15:38:37Z</time>
      </trkpt>
      <trkpt lat="48.68235" lon="5.88861">
        <ele>216.8</ele>
        <time>2020-06-29T15:38:38Z</time>
      </trkpt>
      <trkpt lat="48.68234" lon="5.88859">
        <ele>216.9</ele>
        <time>2020-06-29T15:38:39Z</time>
      </trkpt>
      <trkpt lat="48.68232" lon="5.88853">
        <ele>217</ele>
        <time>2020-06-29T15:38:40Z</time>
      </trkpt>
      <trkpt lat="48.68231" lon="5.88848">
        <ele>217.1</ele>
        <time>2020-06-29T15:38:41Z</time>
      </trkpt>
      <trkpt lat="48.68229" lon="5.88841">
        <ele>217.2</ele>
        <time>2020-06-29T15:38:42Z</time>
      </trkpt>
      <trkpt lat="48.68228" lon="5.88839">
        <ele>217.2</ele>
        <time>2020-06-29T15:38:43Z</time>
      </trkpt>
      <trkpt lat="48.68227" lon="5.88834">
        <ele>217.3</ele>
        <time>2020-06-29T15:38:44Z</time>
      </trkpt>
      <trkpt lat="48.68226" lon="5.8883">
        <ele>217.4</ele>
        <time>2020-06-29T15:38:45Z</time>
      </trkpt>
      <trkpt lat="48.68224" lon="5.88825">
        <ele>217.5</ele>
        <time>2020-06-29T15:38:46Z</time>
      </trkpt>
      <trkpt lat="48.68223" lon="5.8882">
        <ele>217.5</ele>
        <time>2020-06-29T15:38:47Z</time>
      </trkpt>
      <trkpt lat="48.6822" lon="5.88815">
        <ele>217.6</ele>
        <time>2020-06-29T15:38:48Z</time>
      </trkpt>
      <trkpt lat="48.68218" lon="5.88811">
        <ele>217.7</ele>
        <time>2020-06-29T15:38:49Z</time>
      </trkpt>
      <trkpt lat="48.68216" lon="5.88806">
        <ele>217.7</ele>
        <time>2020-06-29T15:38:50Z</time>
      </trkpt>
      <trkpt lat="48.68213" lon="5.88799">
        <ele>217.8</ele>
        <time>2020-06-29T15:38:51Z</time>
      </trkpt>
      <trkpt lat="48.68211" lon="5.88793">
        <ele>217.8</ele>
        <time>2020-06-29T15:38:52Z</time>
      </trkpt>
      <trkpt lat="48.68208" lon="5.88787">
        <ele>217.9</ele>
        <time>2020-06-29T15:38:53Z</time>
      </trkpt>
      <trkpt lat="48.68206" lon="5.88781">
        <ele>217.9</ele>
        <time>2020-06-29T15:38:54Z</time>
      </trkpt>
      <trkpt lat="48.68204" lon="5.88776">
        <ele>217.9</ele>
        <time>2020-06-29T15:38:55Z</time>
      </trkpt>
      <trkpt lat="48.682" lon="5.88767">
        <ele>218</ele>
        <time>2020-06-29T15:38:56Z</time>
      </trkpt>
      <trkpt lat="48.68198" lon="5.8876">
        <ele>218</ele>
        <time>2020-06-29T15:38:57Z</time>
      </trkpt>
      <trkpt lat="48.68194" lon="5.88752">
        <ele>218</ele>
        <time>2020-06-29T15:38:58Z</time>
      </trkpt>
      <trkpt lat="48.68192" lon="5.88746">
        <ele>218</ele>
        <time>2020-06-29T15:38:59Z</time>
      </trkpt>
      <trkpt lat="48.6819" lon="5.88739">
        <ele>218</ele>
        <time>2020-06-29T15:39:00Z</time>
      </trkpt>
      <trkpt lat="48.68188" lon="5.88732">
        <ele>218</ele>
        <time>2020-06-29T15:39:01Z</time>
      </trkpt>
      <trkpt lat="48.68186" lon="5.88725">
        <ele>218</ele>
        <time>2020-06-29T15:39:02Z</time>
      </trkpt>
      <trkpt lat="48.68183" lon="5.88717">
        <ele>218</ele>
        <time>2020-06-29T15:39:03Z</time>
      </trkpt>
      <trkpt lat="48.68182" lon="5.88709">
        <ele>218</ele>
        <time>2020-06-29T15:39:04Z</time>
      </trkpt>
      <trkpt lat="48.68182" lon="5.88703">
        <ele>218</ele>
        <time>2020-06-29T15:39:05Z</time>
      </trkpt>
      <trkpt lat="48.68181" lon="5.88697">
        <ele>218</ele>
        <time>2020-06-29T15:39:06Z</time>
      </trkpt>
      <trkpt lat="48.6818" lon="5.88692">
        <ele>218</ele>
        <time>2020-06-29T15:39:07Z</time>
      </trkpt>
      <trkpt lat="48.68179" lon="5.88688">
        <ele>218</ele>
        <time>2020-06-29T15:39:08Z</time>
      </trkpt>
      <trkpt lat="48.68177" lon="5.88681">
        <ele>217.9</ele>
        <time>2020-06-29T15:39:09Z</time>
      </trkpt>
      <trkpt lat="48.68174" lon="5.88675">
        <ele>217.9</ele>
        <time>2020-06-29T15:39:10Z</time>
      </trkpt>
      <trkpt lat="48.68172" lon="5.88668">
        <ele>218</ele>
        <time>2020-06-29T15:39:11Z</time>
      </trkpt>
      <trkpt lat="48.68168" lon="5.88662">
        <ele>218</ele>
        <time>2020-06-29T15:39:12Z</time>
      </trkpt>
      <trkpt lat="48.68166" lon="5.88657">
        <ele>218</ele>
        <time>2020-06-29T15:39:13Z</time>
      </trkpt>
      <trkpt lat="48.68163" lon="5.88651">
        <ele>218</ele>
        <time>2020-06-29T15:39:14Z</time>
      </trkpt>
      <trkpt lat="48.68161" lon="5.88647">
        <ele>218</ele>
        <time>2020-06-29T15:39:15Z</time>
      </trkpt>
      <trkpt lat="48.68159" lon="5.88641">
        <ele>218</ele>
        <time>2020-06-29T15:39:16Z</time>
      </trkpt>
      <trkpt lat="48.68156" lon="5.88637">
        <ele>218</ele>
        <time>2020-06-29T15:39:17Z</time>
      </trkpt>
      <trkpt lat="48.68153" lon="5.88632">
        <ele>218</ele>
        <time>2020-06-29T15:39:18Z</time>
      </trkpt>
      <trkpt lat="48.6815" lon="5.88625">
        <ele>218.1</ele>
        <time>2020-06-29T15:39:19Z</time>
      </trkpt>
      <trkpt lat="48.68147" lon="5.88618">
        <ele>218.1</ele>
        <time>2020-06-29T15:39:20Z</time>
      </trkpt>
      <trkpt lat="48.68145" lon="5.88611">
        <ele>218.1</ele>
        <time>2020-06-29T15:39:21Z</time>
      </trkpt>
      <trkpt lat="48.68142" lon="5.88605">
        <ele>218.1</ele>
        <time>2020-06-29T15:39:22Z</time>
      </trkpt>
      <trkpt lat="48.6814" lon="5.88601">
        <ele>218.1</ele>
        <time>2020-06-29T15:39:23Z</time>
      </trkpt>
      <trkpt lat="48.68137" lon="5.88594">
        <ele>218.2</ele>
        <time>2020-06-29T15:39:24Z</time>
      </trkpt>
      <trkpt lat="48.68135" lon="5.88589">
        <ele>218.2</ele>
        <time>2020-06-29T15:39:25Z</time>
      </trkpt>
      <trkpt lat="48.68132" lon="5.88581">
        <ele>218.3</ele>
        <time>2020-06-29T15:39:26Z</time>
      </trkpt>
      <trkpt lat="48.6813" lon="5.88575">
        <ele>218.3</ele>
        <time>2020-06-29T15:39:27Z</time>
      </trkpt>
      <trkpt lat="48.68127" lon="5.88569">
        <ele>218.4</ele>
        <time>2020-06-29T15:39:28Z</time>
      </trkpt>
      <trkpt lat="48.68125" lon="5.88559">
        <ele>218.4</ele>
        <time>2020-06-29T15:39:29Z</time>
      </trkpt>
      <trkpt lat="48.68122" lon="5.88551">
        <ele>218.5</ele>
        <time>2020-06-29T15:39:30Z</time>
      </trkpt>
      <trkpt lat="48.6812" lon="5.88543">
        <ele>218.5</ele>
        <time>2020-06-29T15:39:31Z</time>
      </trkpt>
      <trkpt lat="48.68117" lon="5.88534">
        <ele>218.6</ele>
        <time>2020-06-29T15:39:32Z</time>
      </trkpt>
      <trkpt lat="48.68115" lon="5.88528">
        <ele>218.6</ele>
        <time>2020-06-29T15:39:33Z</time>
      </trkpt>
      <trkpt lat="48.68113" lon="5.88522">
        <ele>218.7</ele>
        <time>2020-06-29T15:39:34Z</time>
      </trkpt>
      <trkpt lat="48.68111" lon="5.88515">
        <ele>218.7</ele>
        <time>2020-06-29T15:39:35Z</time>
      </trkpt>
      <trkpt lat="48.68108" lon="5.88508">
        <ele>218.8</ele>
        <time>2020-06-29T15:39:36Z</time>
      </trkpt>
      <trkpt lat="48.68106" lon="5.88499">
        <ele>218.8</ele>
        <time>2020-06-29T15:39:37Z</time>
      </trkpt>
      <trkpt lat="48.68103" lon="5.88492">
        <ele>218.9</ele>
        <time>2020-06-29T15:39:38Z</time>
      </trkpt>
      <trkpt lat="48.681" lon="5.88486">
        <ele>218.9</ele>
        <time>2020-06-29T15:39:39Z</time>
      </trkpt>
      <trkpt lat="48.68098" lon="5.8848">
        <ele>218.9</ele>
        <time>2020-06-29T15:39:40Z</time>
      </trkpt>
      <trkpt lat="48.68096" lon="5.88475">
        <ele>219</ele>
        <time>2020-06-29T15:39:41Z</time>
      </trkpt>
      <trkpt lat="48.68094" lon="5.8847">
        <ele>219</ele>
        <time>2020-06-29T15:39:42Z</time>
      </trkpt>
      <trkpt lat="48.68092" lon="5.88465">
        <ele>219</ele>
        <time>2020-06-29T15:39:43Z</time>
      </trkpt>
      <trkpt lat="48.68089" lon="5.88457">
        <ele>219.1</ele>
        <time>2020-06-29T15:39:44Z</time>
      </trkpt>
      <trkpt lat="48.68087" lon="5.88451">
        <ele>219.1</ele>
        <time>2020-06-29T15:39:45Z</time>
      </trkpt>
      <trkpt lat="48.68085" lon="5.88444">
        <ele>219.2</ele>
        <time>2020-06-29T15:39:46Z</time>
      </trkpt>
      <trkpt lat="48.68083" lon="5.88437">
        <ele>219.2</ele>
        <time>2020-06-29T15:39:47Z</time>
      </trkpt>
      <trkpt lat="48.68081" lon="5.8843">
        <ele>219.2</ele>
        <time>2020-06-29T15:39:48Z</time>
      </trkpt>
      <trkpt lat="48.68079" lon="5.88425">
        <ele>219.2</ele>
        <time>2020-06-29T15:39:49Z</time>
      </trkpt>
      <trkpt lat="48.68077" lon="5.8842">
        <ele>219.3</ele>
        <time>2020-06-29T15:39:50Z</time>
      </trkpt>
      <trkpt lat="48.68075" lon="5.88414">
        <ele>219.3</ele>
        <time>2020-06-29T15:39:51Z</time>
      </trkpt>
      <trkpt lat="48.68073" lon="5.88408">
        <ele>219.4</ele>
        <time>2020-06-29T15:39:52Z</time>
      </trkpt>
      <trkpt lat="48.6807" lon="5.88401">
        <ele>219.5</ele>
        <time>2020-06-29T15:39:53Z</time>
      </trkpt>
      <trkpt lat="48.68068" lon="5.88396">
        <ele>219.6</ele>
        <time>2020-06-29T15:39:54Z</time>
      </trkpt>
      <trkpt lat="48.68067" lon="5.88391">
        <ele>219.7</ele>
        <time>2020-06-29T15:39:55Z</time>
      </trkpt>
      <trkpt lat="48.68065" lon="5.88384">
        <ele>219.8</ele>
        <time>2020-06-29T15:39:56Z</time>
      </trkpt>
      <trkpt lat="48.68064" lon="5.88378">
        <ele>219.8</ele>
        <time>2020-06-29T15:39:57Z</time>
      </trkpt>
      <trkpt lat="48.68063" lon="5.88372">
        <ele>219.9</ele>
        <time>2020-06-29T15:39:58Z</time>
      </trkpt>
      <trkpt lat="48.68062" lon="5.88368">
        <ele>220</ele>
        <time>2020-06-29T15:39:59Z</time>
      </trkpt>
      <trkpt lat="48.68061" lon="5.88363">
        <ele>220.1</ele>
        <time>2020-06-29T15:40:00Z</time>
      </trkpt>
      <trkpt lat="48.68059" lon="5.88359">
        <ele>220.4</ele>
        <time>2020-06-29T15:40:01Z</time>
      </trkpt>
      <trkpt lat="48.68058" lon="5.88354">
        <ele>220.8</ele>
        <time>2020-06-29T15:40:02Z</time>
      </trkpt>
      <trkpt lat="48.68057" lon="5.88349">
        <ele>221</ele>
        <time>2020-06-29T15:40:03Z</time>
      </trkpt>
      <trkpt lat="48.68056" lon="5.88348">
        <ele>221.1</ele>
        <time>2020-06-29T15:40:04Z</time>
      </trkpt>
      <trkpt lat="48.68055" lon="5.88342">
        <ele>221.5</ele>
        <time>2020-06-29T15:40:05Z</time>
      </trkpt>
      <trkpt lat="48.68054" lon="5.88341">
        <ele>221.6</ele>
        <time>2020-06-29T15:40:06Z</time>
      </trkpt>
      <trkpt lat="48.68054" lon="5.88337">
        <ele>221.8</ele>
        <time>2020-06-29T15:40:07Z</time>
      </trkpt>
      <trkpt lat="48.68053" lon="5.88333">
        <ele>222.1</ele>
        <time>2020-06-29T15:40:08Z</time>
      </trkpt>
      <trkpt lat="48.68053" lon="5.88328">
        <ele>222.4</ele>
        <time>2020-06-29T15:40:09Z</time>
      </trkpt>
      <trkpt lat="48.68053" lon="5.88327">
        <ele>222.5</ele>
        <time>2020-06-29T15:40:10Z</time>
      </trkpt>
      <trkpt lat="48.68054" lon="5.88324">
        <ele>222.7</ele>
        <time>2020-06-29T15:40:11Z</time>
      </trkpt>
      <trkpt lat="48.68054" lon="5.88323">
        <ele>222.8</ele>
        <time>2020-06-29T15:40:12Z</time>
      </trkpt>
      <trkpt lat="48.68055" lon="5.88322">
        <ele>222.9</ele>
        <time>2020-06-29T15:40:13Z</time>
      </trkpt>
      <trkpt lat="48.68056" lon="5.88321">
        <ele>223</ele>
        <time>2020-06-29T15:40:14Z</time>
      </trkpt>
      <trkpt lat="48.68055" lon="5.88321">
        <ele>223.1</ele>
        <time>2020-06-29T15:40:15Z</time>
      </trkpt>
      <trkpt lat="48.68055" lon="5.88321">
        <ele>223.1</ele>
        <time>2020-06-29T15:40:16Z</time>
      </trkpt>
      <trkpt lat="48.68055" lon="5.88321">
        <ele>223.1</ele>
        <time>2020-06-29T15:40:17Z</time>
      </trkpt>
      <trkpt lat="48.68055" lon="5.88321">
        <ele>223.1</ele>
        <time>2020-06-29T15:40:18Z</time>
      </trkpt>
      <trkpt lat="48.68055" lon="5.88322">
        <ele>223.2</ele>
        <time>2020-06-29T15:40:19Z</time>
      </trkpt>
      <trkpt lat="48.68055" lon="5.88322">
        <ele>223.2</ele>
        <time>2020-06-29T15:40:20Z</time>
      </trkpt>
      <trkpt lat="48.68055" lon="5.88324">
        <ele>223.3</ele>
        <time>2020-06-29T15:40:21Z</time>
      </trkpt>
      <trkpt lat="48.68055" lon="5.88324">
        <ele>223.3</ele>
        <time>2020-06-29T15:40:22Z</time>
      </trkpt>
      <trkpt lat="48.68055" lon="5.88323">
        <ele>223.4</ele>
        <time>2020-06-29T15:40:23Z</time>
      </trkpt>
      <trkpt lat="48.68055" lon="5.88323">
        <ele>223.4</ele>
        <time>2020-06-29T15:40:24Z</time>
      </trkpt>
      <trkpt lat="48.68054" lon="5.88322">
        <ele>223.4</ele>
        <time>2020-06-29T15:40:25Z</time>
      </trkpt>
      <trkpt lat="48.68057" lon="5.88316">
        <ele>223.7</ele>
        <time>2020-06-29T15:40:45Z</time>
      </trkpt>
      <trkpt lat="48.68058" lon="5.88313">
        <ele>223.7</ele>
        <time>2020-06-29T15:40:46Z</time>
      </trkpt>
      <trkpt lat="48.68056" lon="5.8831">
        <ele>223.7</ele>
        <time>2020-06-29T15:40:47Z</time>
      </trkpt>
      <trkpt lat="48.68055" lon="5.88308">
        <ele>223.7</ele>
        <time>2020-06-29T15:40:48Z</time>
      </trkpt>
      <trkpt lat="48.68055" lon="5.88305">
        <ele>223.7</ele>
        <time>2020-06-29T15:40:49Z</time>
      </trkpt>
      <trkpt lat="48.68055" lon="5.88303">
        <ele>223.6</ele>
        <time>2020-06-29T15:40:50Z</time>
      </trkpt>
      <trkpt lat="48.68055" lon="5.88299">
        <ele>223.4</ele>
        <time>2020-06-29T15:40:51Z</time>
      </trkpt>
      <trkpt lat="48.68055" lon="5.88298">
        <ele>223.4</ele>
        <time>2020-06-29T15:40:52Z</time>
      </trkpt>
      <trkpt lat="48.68055" lon="5.88295">
        <ele>223.4</ele>
        <time>2020-06-29T15:40:53Z</time>
      </trkpt>
      <trkpt lat="48.68055" lon="5.88293">
        <ele>223.4</ele>
        <time>2020-06-29T15:40:54Z</time>
      </trkpt>
      <trkpt lat="48.68055" lon="5.88292">
        <ele>223.4</ele>
        <time>2020-06-29T15:40:55Z</time>
      </trkpt>
      <trkpt lat="48.68055" lon="5.88291">
        <ele>223.4</ele>
        <time>2020-06-29T15:40:56Z</time>
      </trkpt>
      <trkpt lat="48.68055" lon="5.8829">
        <ele>223.4</ele>
        <time>2020-06-29T15:40:57Z</time>
      </trkpt>
      <trkpt lat="48.68055" lon="5.8829">
        <ele>223.4</ele>
        <time>2020-06-29T15:40:58Z</time>
      </trkpt>
      <trkpt lat="48.68055" lon="5.88291">
        <ele>223.4</ele>
        <time>2020-06-29T15:40:59Z</time>
      </trkpt>
      <trkpt lat="48.68054" lon="5.8829">
        <ele>223.4</ele>
        <time>2020-06-29T15:41:00Z</time>
      </trkpt>
      <trkpt lat="48.68054" lon="5.88289">
        <ele>223.4</ele>
        <time>2020-06-29T15:41:01Z</time>
      </trkpt>
      <trkpt lat="48.68055" lon="5.88287">
        <ele>223.5</ele>
        <time>2020-06-29T15:41:02Z</time>
      </trkpt>
      <trkpt lat="48.68056" lon="5.88283">
        <ele>223.6</ele>
        <time>2020-06-29T15:41:03Z</time>
      </trkpt>
      <trkpt lat="48.68056" lon="5.88281">
        <ele>223.6</ele>
        <time>2020-06-29T15:41:04Z</time>
      </trkpt>
      <trkpt lat="48.68055" lon="5.88275">
        <ele>223.7</ele>
        <time>2020-06-29T15:41:05Z</time>
      </trkpt>
      <trkpt lat="48.68055" lon="5.8827">
        <ele>223.6</ele>
        <time>2020-06-29T15:41:06Z</time>
      </trkpt>
      <trkpt lat="48.68054" lon="5.88265">
        <ele>223.5</ele>
        <time>2020-06-29T15:41:07Z</time>
      </trkpt>
      <trkpt lat="48.68053" lon="5.88259">
        <ele>223.3</ele>
        <time>2020-06-29T15:41:08Z</time>
      </trkpt>
      <trkpt lat="48.68053" lon="5.88253">
        <ele>223.1</ele>
        <time>2020-06-29T15:41:09Z</time>
      </trkpt>
      <trkpt lat="48.68053" lon="5.88247">
        <ele>222.9</ele>
        <time>2020-06-29T15:41:10Z</time>
      </trkpt>
      <trkpt lat="48.68052" lon="5.8824">
        <ele>222.7</ele>
        <time>2020-06-29T15:41:11Z</time>
      </trkpt>
      <trkpt lat="48.68051" lon="5.88234">
        <ele>222.5</ele>
        <time>2020-06-29T15:41:12Z</time>
      </trkpt>
      <trkpt lat="48.6805" lon="5.88228">
        <ele>222.4</ele>
        <time>2020-06-29T15:41:13Z</time>
      </trkpt>
      <trkpt lat="48.6805" lon="5.8822">
        <ele>222.3</ele>
        <time>2020-06-29T15:41:14Z</time>
      </trkpt>
      <trkpt lat="48.68049" lon="5.88213">
        <ele>222.2</ele>
        <time>2020-06-29T15:41:15Z</time>
      </trkpt>
      <trkpt lat="48.68047" lon="5.88205">
        <ele>222.1</ele>
        <time>2020-06-29T15:41:16Z</time>
      </trkpt>
      <trkpt lat="48.68045" lon="5.88197">
        <ele>222</ele>
        <time>2020-06-29T15:41:17Z</time>
      </trkpt>
      <trkpt lat="48.68045" lon="5.8819">
        <ele>221.9</ele>
        <time>2020-06-29T15:41:18Z</time>
      </trkpt>
      <trkpt lat="48.68044" lon="5.88183">
        <ele>221.8</ele>
        <time>2020-06-29T15:41:19Z</time>
      </trkpt>
      <trkpt lat="48.68043" lon="5.88174">
        <ele>221.8</ele>
        <time>2020-06-29T15:41:20Z</time>
      </trkpt>
      <trkpt lat="48.68042" lon="5.88166">
        <ele>221.7</ele>
        <time>2020-06-29T15:41:21Z</time>
      </trkpt>
      <trkpt lat="48.6804" lon="5.88158">
        <ele>221.7</ele>
        <time>2020-06-29T15:41:22Z</time>
      </trkpt>
      <trkpt lat="48.68039" lon="5.8815">
        <ele>221.7</ele>
        <time>2020-06-29T15:41:23Z</time>
      </trkpt>
      <trkpt lat="48.68037" lon="5.88142">
        <ele>221.7</ele>
        <time>2020-06-29T15:41:24Z</time>
      </trkpt>
      <trkpt lat="48.68036" lon="5.88135">
        <ele>221.8</ele>
        <time>2020-06-29T15:41:25Z</time>
      </trkpt>
      <trkpt lat="48.68035" lon="5.88128">
        <ele>221.9</ele>
        <time>2020-06-29T15:41:26Z</time>
      </trkpt>
      <trkpt lat="48.68034" lon="5.8812">
        <ele>222</ele>
        <time>2020-06-29T15:41:27Z</time>
      </trkpt>
      <trkpt lat="48.68033" lon="5.88115">
        <ele>222</ele>
        <time>2020-06-29T15:41:28Z</time>
      </trkpt>
      <trkpt lat="48.68031" lon="5.88108">
        <ele>222.2</ele>
        <time>2020-06-29T15:41:29Z</time>
      </trkpt>
      <trkpt lat="48.68031" lon="5.88102">
        <ele>222.3</ele>
        <time>2020-06-29T15:41:30Z</time>
      </trkpt>
      <trkpt lat="48.68029" lon="5.88093">
        <ele>222.4</ele>
        <time>2020-06-29T15:41:31Z</time>
      </trkpt>
      <trkpt lat="48.68028" lon="5.88087">
        <ele>222.6</ele>
        <time>2020-06-29T15:41:32Z</time>
      </trkpt>
      <trkpt lat="48.68027" lon="5.88081">
        <ele>222.7</ele>
        <time>2020-06-29T15:41:33Z</time>
      </trkpt>
      <trkpt lat="48.68025" lon="5.88075">
        <ele>222.8</ele>
        <time>2020-06-29T15:41:34Z</time>
      </trkpt>
      <trkpt lat="48.68024" lon="5.8807">
        <ele>222.9</ele>
        <time>2020-06-29T15:41:35Z</time>
      </trkpt>
      <trkpt lat="48.68023" lon="5.88064">
        <ele>223.1</ele>
        <time>2020-06-29T15:41:36Z</time>
      </trkpt>
      <trkpt lat="48.68021" lon="5.88059">
        <ele>223.2</ele>
        <time>2020-06-29T15:41:37Z</time>
      </trkpt>
      <trkpt lat="48.68019" lon="5.88054">
        <ele>223.3</ele>
        <time>2020-06-29T15:41:38Z</time>
      </trkpt>
      <trkpt lat="48.68019" lon="5.88049">
        <ele>223.4</ele>
        <time>2020-06-29T15:41:39Z</time>
      </trkpt>
      <trkpt lat="48.68016" lon="5.88044">
        <ele>223.5</ele>
        <time>2020-06-29T15:41:40Z</time>
      </trkpt>
      <trkpt lat="48.68015" lon="5.88038">
        <ele>223.7</ele>
        <time>2020-06-29T15:41:41Z</time>
      </trkpt>
      <trkpt lat="48.68014" lon="5.88034">
        <ele>223.8</ele>
        <time>2020-06-29T15:41:42Z</time>
      </trkpt>
      <trkpt lat="48.68012" lon="5.88029">
        <ele>223.9</ele>
        <time>2020-06-29T15:41:43Z</time>
      </trkpt>
      <trkpt lat="48.6801" lon="5.88024">
        <ele>224</ele>
        <time>2020-06-29T15:41:44Z</time>
      </trkpt>
      <trkpt lat="48.68009" lon="5.8802">
        <ele>224.1</ele>
        <time>2020-06-29T15:41:45Z</time>
      </trkpt>
      <trkpt lat="48.68007" lon="5.88016">
        <ele>224.1</ele>
        <time>2020-06-29T15:41:46Z</time>
      </trkpt>
      <trkpt lat="48.68006" lon="5.88012">
        <ele>224.2</ele>
        <time>2020-06-29T15:41:47Z</time>
      </trkpt>
      <trkpt lat="48.68005" lon="5.88006">
        <ele>224.3</ele>
        <time>2020-06-29T15:41:48Z</time>
      </trkpt>
      <trkpt lat="48.68003" lon="5.88002">
        <ele>224.5</ele>
        <time>2020-06-29T15:41:49Z</time>
      </trkpt>
      <trkpt lat="48.68001" lon="5.87997">
        <ele>224.6</ele>
        <time>2020-06-29T15:41:50Z</time>
      </trkpt>
      <trkpt lat="48.68" lon="5.87993">
        <ele>224.7</ele>
        <time>2020-06-29T15:41:51Z</time>
      </trkpt>
      <trkpt lat="48.67998" lon="5.87989">
        <ele>224.8</ele>
        <time>2020-06-29T15:41:52Z</time>
      </trkpt>
      <trkpt lat="48.67997" lon="5.87984">
        <ele>224.9</ele>
        <time>2020-06-29T15:41:53Z</time>
      </trkpt>
      <trkpt lat="48.67995" lon="5.87979">
        <ele>225</ele>
        <time>2020-06-29T15:41:54Z</time>
      </trkpt>
      <trkpt lat="48.67993" lon="5.87974">
        <ele>225.1</ele>
        <time>2020-06-29T15:41:55Z</time>
      </trkpt>
      <trkpt lat="48.67991" lon="5.8797">
        <ele>225.2</ele>
        <time>2020-06-29T15:41:56Z</time>
      </trkpt>
      <trkpt lat="48.67989" lon="5.87967">
        <ele>225.2</ele>
        <time>2020-06-29T15:41:57Z</time>
      </trkpt>
      <trkpt lat="48.67988" lon="5.87962">
        <ele>225.3</ele>
        <time>2020-06-29T15:41:58Z</time>
      </trkpt>
      <trkpt lat="48.67987" lon="5.87958">
        <ele>225.7</ele>
        <time>2020-06-29T15:41:59Z</time>
      </trkpt>
      <trkpt lat="48.67986" lon="5.87954">
        <ele>225.8</ele>
        <time>2020-06-29T15:42:00Z</time>
      </trkpt>
      <trkpt lat="48.67984" lon="5.87948">
        <ele>225.9</ele>
        <time>2020-06-29T15:42:01Z</time>
      </trkpt>
      <trkpt lat="48.67984" lon="5.87946">
        <ele>226</ele>
        <time>2020-06-29T15:42:02Z</time>
      </trkpt>
      <trkpt lat="48.67983" lon="5.87941">
        <ele>226.1</ele>
        <time>2020-06-29T15:42:03Z</time>
      </trkpt>
      <trkpt lat="48.67982" lon="5.87935">
        <ele>226.2</ele>
        <time>2020-06-29T15:42:04Z</time>
      </trkpt>
      <trkpt lat="48.67981" lon="5.87931">
        <ele>226.3</ele>
        <time>2020-06-29T15:42:05Z</time>
      </trkpt>
      <trkpt lat="48.67979" lon="5.87926">
        <ele>226.4</ele>
        <time>2020-06-29T15:42:06Z</time>
      </trkpt>
      <trkpt lat="48.67977" lon="5.87922">
        <ele>226.5</ele>
        <time>2020-06-29T15:42:07Z</time>
      </trkpt>
      <trkpt lat="48.67977" lon="5.8792">
        <ele>226.6</ele>
        <time>2020-06-29T15:42:08Z</time>
      </trkpt>
      <trkpt lat="48.67976" lon="5.87916">
        <ele>226.9</ele>
        <time>2020-06-29T15:42:09Z</time>
      </trkpt>
      <trkpt lat="48.67975" lon="5.87912">
        <ele>227.1</ele>
        <time>2020-06-29T15:42:10Z</time>
      </trkpt>
      <trkpt lat="48.67973" lon="5.87908">
        <ele>227.3</ele>
        <time>2020-06-29T15:42:11Z</time>
      </trkpt>
      <trkpt lat="48.67973" lon="5.87906">
        <ele>227.3</ele>
        <time>2020-06-29T15:42:12Z</time>
      </trkpt>
      <trkpt lat="48.67972" lon="5.87901">
        <ele>227.5</ele>
        <time>2020-06-29T15:42:13Z</time>
      </trkpt>
      <trkpt lat="48.67971" lon="5.87899">
        <ele>227.6</ele>
        <time>2020-06-29T15:42:14Z</time>
      </trkpt>
      <trkpt lat="48.67971" lon="5.87894">
        <ele>227.8</ele>
        <time>2020-06-29T15:42:15Z</time>
      </trkpt>
      <trkpt lat="48.6797" lon="5.87889">
        <ele>228</ele>
        <time>2020-06-29T15:42:16Z</time>
      </trkpt>
      <trkpt lat="48.6797" lon="5.87887">
        <ele>228</ele>
        <time>2020-06-29T15:42:17Z</time>
      </trkpt>
      <trkpt lat="48.6797" lon="5.87883">
        <ele>228.2</ele>
        <time>2020-06-29T15:42:18Z</time>
      </trkpt>
      <trkpt lat="48.67968" lon="5.87878">
        <ele>228.4</ele>
        <time>2020-06-29T15:42:19Z</time>
      </trkpt>
      <trkpt lat="48.67968" lon="5.87873">
        <ele>228.6</ele>
        <time>2020-06-29T15:42:20Z</time>
      </trkpt>
      <trkpt lat="48.67968" lon="5.87869">
        <ele>228.7</ele>
        <time>2020-06-29T15:42:21Z</time>
      </trkpt>
      <trkpt lat="48.67967" lon="5.87864">
        <ele>228.9</ele>
        <time>2020-06-29T15:42:22Z</time>
      </trkpt>
      <trkpt lat="48.67967" lon="5.87863">
        <ele>229</ele>
        <time>2020-06-29T15:42:23Z</time>
      </trkpt>
      <trkpt lat="48.67968" lon="5.87857">
        <ele>229.2</ele>
        <time>2020-06-29T15:42:24Z</time>
      </trkpt>
      <trkpt lat="48.67968" lon="5.87855">
        <ele>229.3</ele>
        <time>2020-06-29T15:42:25Z</time>
      </trkpt>
      <trkpt lat="48.67968" lon="5.8785">
        <ele>229.5</ele>
        <time>2020-06-29T15:42:26Z</time>
      </trkpt>
      <trkpt lat="48.67968" lon="5.87848">
        <ele>229.6</ele>
        <time>2020-06-29T15:42:27Z</time>
      </trkpt>
      <trkpt lat="48.67967" lon="5.87842">
        <ele>229.8</ele>
        <time>2020-06-29T15:42:28Z</time>
      </trkpt>
      <trkpt lat="48.67967" lon="5.8784">
        <ele>229.9</ele>
        <time>2020-06-29T15:42:29Z</time>
      </trkpt>
      <trkpt lat="48.67967" lon="5.87836">
        <ele>230.1</ele>
        <time>2020-06-29T15:42:30Z</time>
      </trkpt>
      <trkpt lat="48.67967" lon="5.87831">
        <ele>230.3</ele>
        <time>2020-06-29T15:42:31Z</time>
      </trkpt>
      <trkpt lat="48.67967" lon="5.87825">
        <ele>230.6</ele>
        <time>2020-06-29T15:42:32Z</time>
      </trkpt>
      <trkpt lat="48.67967" lon="5.87824">
        <ele>230.6</ele>
        <time>2020-06-29T15:42:33Z</time>
      </trkpt>
      <trkpt lat="48.67967" lon="5.87818">
        <ele>230.9</ele>
        <time>2020-06-29T15:42:34Z</time>
      </trkpt>
      <trkpt lat="48.67967" lon="5.87817">
        <ele>230.9</ele>
        <time>2020-06-29T15:42:35Z</time>
      </trkpt>
      <trkpt lat="48.67968" lon="5.87811">
        <ele>231.2</ele>
        <time>2020-06-29T15:42:36Z</time>
      </trkpt>
      <trkpt lat="48.67968" lon="5.87809">
        <ele>231.3</ele>
        <time>2020-06-29T15:42:37Z</time>
      </trkpt>
      <trkpt lat="48.67967" lon="5.87804">
        <ele>231.4</ele>
        <time>2020-06-29T15:42:38Z</time>
      </trkpt>
      <trkpt lat="48.67967" lon="5.878">
        <ele>231.6</ele>
        <time>2020-06-29T15:42:39Z</time>
      </trkpt>
      <trkpt lat="48.67967" lon="5.87798">
        <ele>231.7</ele>
        <time>2020-06-29T15:42:40Z</time>
      </trkpt>
      <trkpt lat="48.67966" lon="5.87793">
        <ele>231.9</ele>
        <time>2020-06-29T15:42:41Z</time>
      </trkpt>
      <trkpt lat="48.67966" lon="5.87791">
        <ele>231.9</ele>
        <time>2020-06-29T15:42:42Z</time>
      </trkpt>
      <trkpt lat="48.67967" lon="5.87784">
        <ele>232.2</ele>
        <time>2020-06-29T15:42:43Z</time>
      </trkpt>
      <trkpt lat="48.67967" lon="5.87781">
        <ele>232.3</ele>
        <time>2020-06-29T15:42:44Z</time>
      </trkpt>
      <trkpt lat="48.67966" lon="5.87777">
        <ele>232.5</ele>
        <time>2020-06-29T15:42:45Z</time>
      </trkpt>
      <trkpt lat="48.67966" lon="5.87772">
        <ele>232.6</ele>
        <time>2020-06-29T15:42:46Z</time>
      </trkpt>
      <trkpt lat="48.67966" lon="5.87771">
        <ele>232.7</ele>
        <time>2020-06-29T15:42:47Z</time>
      </trkpt>
      <trkpt lat="48.67967" lon="5.87765">
        <ele>232.9</ele>
        <time>2020-06-29T15:42:48Z</time>
      </trkpt>
      <trkpt lat="48.67967" lon="5.87763">
        <ele>232.9</ele>
        <time>2020-06-29T15:42:49Z</time>
      </trkpt>
      <trkpt lat="48.67968" lon="5.87759">
        <ele>233.1</ele>
        <time>2020-06-29T15:42:50Z</time>
      </trkpt>
      <trkpt lat="48.67968" lon="5.87757">
        <ele>233.1</ele>
        <time>2020-06-29T15:42:51Z</time>
      </trkpt>
      <trkpt lat="48.67969" lon="5.87752">
        <ele>233.2</ele>
        <time>2020-06-29T15:42:52Z</time>
      </trkpt>
      <trkpt lat="48.67969" lon="5.8775">
        <ele>233.4</ele>
        <time>2020-06-29T15:42:53Z</time>
      </trkpt>
      <trkpt lat="48.6797" lon="5.87746">
        <ele>233.5</ele>
        <time>2020-06-29T15:42:54Z</time>
      </trkpt>
      <trkpt lat="48.67973" lon="5.87744">
        <ele>233.6</ele>
        <time>2020-06-29T15:42:55Z</time>
      </trkpt>
      <trkpt lat="48.67974" lon="5.8774">
        <ele>233.6</ele>
        <time>2020-06-29T15:42:56Z</time>
      </trkpt>
      <trkpt lat="48.67975" lon="5.87735">
        <ele>233.7</ele>
        <time>2020-06-29T15:42:57Z</time>
      </trkpt>
      <trkpt lat="48.67975" lon="5.87731">
        <ele>233.8</ele>
        <time>2020-06-29T15:42:58Z</time>
      </trkpt>
      <trkpt lat="48.67975" lon="5.87729">
        <ele>233.8</ele>
        <time>2020-06-29T15:42:59Z</time>
      </trkpt>
      <trkpt lat="48.67976" lon="5.87724">
        <ele>234</ele>
        <time>2020-06-29T15:43:00Z</time>
      </trkpt>
      <trkpt lat="48.67976" lon="5.87722">
        <ele>234</ele>
        <time>2020-06-29T15:43:01Z</time>
      </trkpt>
      <trkpt lat="48.67977" lon="5.87715">
        <ele>234.1</ele>
        <time>2020-06-29T15:43:02Z</time>
      </trkpt>
      <trkpt lat="48.67977" lon="5.87712">
        <ele>234.1</ele>
        <time>2020-06-29T15:43:03Z</time>
      </trkpt>
      <trkpt lat="48.67978" lon="5.87707">
        <ele>234.2</ele>
        <time>2020-06-29T15:43:04Z</time>
      </trkpt>
      <trkpt lat="48.67979" lon="5.87704">
        <ele>234.3</ele>
        <time>2020-06-29T15:43:05Z</time>
      </trkpt>
      <trkpt lat="48.67979" lon="5.87699">
        <ele>234.3</ele>
        <time>2020-06-29T15:43:06Z</time>
      </trkpt>
      <trkpt lat="48.67979" lon="5.87697">
        <ele>234.3</ele>
        <time>2020-06-29T15:43:07Z</time>
      </trkpt>
      <trkpt lat="48.6798" lon="5.87693">
        <ele>234.4</ele>
        <time>2020-06-29T15:43:08Z</time>
      </trkpt>
      <trkpt lat="48.67981" lon="5.87688">
        <ele>234.4</ele>
        <time>2020-06-29T15:43:09Z</time>
      </trkpt>
      <trkpt lat="48.67981" lon="5.87684">
        <ele>234.5</ele>
        <time>2020-06-29T15:43:10Z</time>
      </trkpt>
      <trkpt lat="48.67982" lon="5.87682">
        <ele>234.5</ele>
        <time>2020-06-29T15:43:11Z</time>
      </trkpt>
      <trkpt lat="48.67982" lon="5.87677">
        <ele>234.5</ele>
        <time>2020-06-29T15:43:12Z</time>
      </trkpt>
      <trkpt lat="48.67984" lon="5.87672">
        <ele>234.6</ele>
        <time>2020-06-29T15:43:13Z</time>
      </trkpt>
      <trkpt lat="48.67985" lon="5.87668">
        <ele>234.6</ele>
        <time>2020-06-29T15:43:14Z</time>
      </trkpt>
      <trkpt lat="48.67985" lon="5.87663">
        <ele>234.7</ele>
        <time>2020-06-29T15:43:15Z</time>
      </trkpt>
      <trkpt lat="48.67986" lon="5.87658">
        <ele>234.8</ele>
        <time>2020-06-29T15:43:16Z</time>
      </trkpt>
      <trkpt lat="48.67987" lon="5.87654">
        <ele>234.8</ele>
        <time>2020-06-29T15:43:17Z</time>
      </trkpt>
      <trkpt lat="48.67987" lon="5.87649">
        <ele>234.9</ele>
        <time>2020-06-29T15:43:18Z</time>
      </trkpt>
      <trkpt lat="48.67987" lon="5.87643">
        <ele>235</ele>
        <time>2020-06-29T15:43:19Z</time>
      </trkpt>
      <trkpt lat="48.67987" lon="5.8764">
        <ele>235</ele>
        <time>2020-06-29T15:43:20Z</time>
      </trkpt>
      <trkpt lat="48.67988" lon="5.87635">
        <ele>235.1</ele>
        <time>2020-06-29T15:43:21Z</time>
      </trkpt>
      <trkpt lat="48.67989" lon="5.87631">
        <ele>235.1</ele>
        <time>2020-06-29T15:43:22Z</time>
      </trkpt>
      <trkpt lat="48.6799" lon="5.87626">
        <ele>235.2</ele>
        <time>2020-06-29T15:43:23Z</time>
      </trkpt>
      <trkpt lat="48.6799" lon="5.87622">
        <ele>235.2</ele>
        <time>2020-06-29T15:43:24Z</time>
      </trkpt>
      <trkpt lat="48.67989" lon="5.87616">
        <ele>235.2</ele>
        <time>2020-06-29T15:43:25Z</time>
      </trkpt>
      <trkpt lat="48.67989" lon="5.8761">
        <ele>235.3</ele>
        <time>2020-06-29T15:43:26Z</time>
      </trkpt>
      <trkpt lat="48.67989" lon="5.87603">
        <ele>235.3</ele>
        <time>2020-06-29T15:43:27Z</time>
      </trkpt>
      <trkpt lat="48.67989" lon="5.87597">
        <ele>235.3</ele>
        <time>2020-06-29T15:43:28Z</time>
      </trkpt>
      <trkpt lat="48.67989" lon="5.87591">
        <ele>235.4</ele>
        <time>2020-06-29T15:43:29Z</time>
      </trkpt>
      <trkpt lat="48.67989" lon="5.87586">
        <ele>235.4</ele>
        <time>2020-06-29T15:43:30Z</time>
      </trkpt>
      <trkpt lat="48.67989" lon="5.87581">
        <ele>235.4</ele>
        <time>2020-06-29T15:43:31Z</time>
      </trkpt>
      <trkpt lat="48.6799" lon="5.87573">
        <ele>235.5</ele>
        <time>2020-06-29T15:43:32Z</time>
      </trkpt>
      <trkpt lat="48.6799" lon="5.87567">
        <ele>235.5</ele>
        <time>2020-06-29T15:43:33Z</time>
      </trkpt>
      <trkpt lat="48.67989" lon="5.87561">
        <ele>235.1</ele>
        <time>2020-06-29T15:43:34Z</time>
      </trkpt>
      <trkpt lat="48.67988" lon="5.87555">
        <ele>234.9</ele>
        <time>2020-06-29T15:43:35Z</time>
      </trkpt>
      <trkpt lat="48.67988" lon="5.87549">
        <ele>234.8</ele>
        <time>2020-06-29T15:43:36Z</time>
      </trkpt>
      <trkpt lat="48.67988" lon="5.87543">
        <ele>234.5</ele>
        <time>2020-06-29T15:43:37Z</time>
      </trkpt>
      <trkpt lat="48.67988" lon="5.87536">
        <ele>234.4</ele>
        <time>2020-06-29T15:43:38Z</time>
      </trkpt>
      <trkpt lat="48.67988" lon="5.87533">
        <ele>234.4</ele>
        <time>2020-06-29T15:43:39Z</time>
      </trkpt>
      <trkpt lat="48.67988" lon="5.87527">
        <ele>234.3</ele>
        <time>2020-06-29T15:43:40Z</time>
      </trkpt>
      <trkpt lat="48.67987" lon="5.87525">
        <ele>234.2</ele>
        <time>2020-06-29T15:43:41Z</time>
      </trkpt>
      <trkpt lat="48.67987" lon="5.87518">
        <ele>234.1</ele>
        <time>2020-06-29T15:43:42Z</time>
      </trkpt>
      <trkpt lat="48.67986" lon="5.87511">
        <ele>234</ele>
        <time>2020-06-29T15:43:43Z</time>
      </trkpt>
      <trkpt lat="48.67986" lon="5.87504">
        <ele>233.9</ele>
        <time>2020-06-29T15:43:44Z</time>
      </trkpt>
      <trkpt lat="48.67986" lon="5.87498">
        <ele>233.8</ele>
        <time>2020-06-29T15:43:45Z</time>
      </trkpt>
      <trkpt lat="48.67986" lon="5.87492">
        <ele>233.7</ele>
        <time>2020-06-29T15:43:46Z</time>
      </trkpt>
      <trkpt lat="48.67985" lon="5.87487">
        <ele>233.4</ele>
        <time>2020-06-29T15:43:47Z</time>
      </trkpt>
      <trkpt lat="48.67985" lon="5.87481">
        <ele>233.4</ele>
        <time>2020-06-29T15:43:48Z</time>
      </trkpt>
      <trkpt lat="48.67985" lon="5.87475">
        <ele>233.3</ele>
        <time>2020-06-29T15:43:49Z</time>
      </trkpt>
      <trkpt lat="48.67986" lon="5.87473">
        <ele>233.1</ele>
        <time>2020-06-29T15:43:50Z</time>
      </trkpt>
      <trkpt lat="48.67987" lon="5.87467">
        <ele>233</ele>
        <time>2020-06-29T15:43:51Z</time>
      </trkpt>
      <trkpt lat="48.67987" lon="5.87465">
        <ele>232.9</ele>
        <time>2020-06-29T15:43:52Z</time>
      </trkpt>
      <trkpt lat="48.67988" lon="5.87459">
        <ele>232.8</ele>
        <time>2020-06-29T15:43:53Z</time>
      </trkpt>
      <trkpt lat="48.67988" lon="5.87455">
        <ele>232.6</ele>
        <time>2020-06-29T15:43:54Z</time>
      </trkpt>
      <trkpt lat="48.67989" lon="5.87447">
        <ele>232.3</ele>
        <time>2020-06-29T15:43:55Z</time>
      </trkpt>
      <trkpt lat="48.67989" lon="5.8744">
        <ele>231.9</ele>
        <time>2020-06-29T15:43:56Z</time>
      </trkpt>
      <trkpt lat="48.67989" lon="5.87434">
        <ele>231.5</ele>
        <time>2020-06-29T15:43:57Z</time>
      </trkpt>
      <trkpt lat="48.67989" lon="5.87428">
        <ele>231.1</ele>
        <time>2020-06-29T15:43:58Z</time>
      </trkpt>
      <trkpt lat="48.6799" lon="5.87421">
        <ele>230.7</ele>
        <time>2020-06-29T15:43:59Z</time>
      </trkpt>
      <trkpt lat="48.67991" lon="5.87414">
        <ele>230.3</ele>
        <time>2020-06-29T15:44:00Z</time>
      </trkpt>
      <trkpt lat="48.67992" lon="5.87409">
        <ele>229.9</ele>
        <time>2020-06-29T15:44:01Z</time>
      </trkpt>
      <trkpt lat="48.67993" lon="5.87402">
        <ele>229.5</ele>
        <time>2020-06-29T15:44:02Z</time>
      </trkpt>
      <trkpt lat="48.67995" lon="5.87395">
        <ele>229</ele>
        <time>2020-06-29T15:44:03Z</time>
      </trkpt>
      <trkpt lat="48.67996" lon="5.87387">
        <ele>228.5</ele>
        <time>2020-06-29T15:44:04Z</time>
      </trkpt>
      <trkpt lat="48.67998" lon="5.87378">
        <ele>227.9</ele>
        <time>2020-06-29T15:44:05Z</time>
      </trkpt>
      <trkpt lat="48.67999" lon="5.87369">
        <ele>227.3</ele>
        <time>2020-06-29T15:44:06Z</time>
      </trkpt>
      <trkpt lat="48.68" lon="5.87359">
        <ele>226.7</ele>
        <time>2020-06-29T15:44:07Z</time>
      </trkpt>
      <trkpt lat="48.68" lon="5.8735">
        <ele>226.1</ele>
        <time>2020-06-29T15:44:08Z</time>
      </trkpt>
      <trkpt lat="48.68001" lon="5.87339">
        <ele>225.4</ele>
        <time>2020-06-29T15:44:09Z</time>
      </trkpt>
      <trkpt lat="48.68001" lon="5.87329">
        <ele>224.9</ele>
        <time>2020-06-29T15:44:10Z</time>
      </trkpt>
      <trkpt lat="48.68003" lon="5.87316">
        <ele>224.1</ele>
        <time>2020-06-29T15:44:11Z</time>
      </trkpt>
      <trkpt lat="48.68004" lon="5.87306">
        <ele>223.6</ele>
        <time>2020-06-29T15:44:12Z</time>
      </trkpt>
      <trkpt lat="48.68004" lon="5.87294">
        <ele>223</ele>
        <time>2020-06-29T15:44:13Z</time>
      </trkpt>
      <trkpt lat="48.68004" lon="5.87282">
        <ele>222.4</ele>
        <time>2020-06-29T15:44:14Z</time>
      </trkpt>
      <trkpt lat="48.68003" lon="5.87269">
        <ele>221.9</ele>
        <time>2020-06-29T15:44:15Z</time>
      </trkpt>
      <trkpt lat="48.68003" lon="5.87256">
        <ele>221.5</ele>
        <time>2020-06-29T15:44:16Z</time>
      </trkpt>
      <trkpt lat="48.68003" lon="5.87243">
        <ele>221.3</ele>
        <time>2020-06-29T15:44:17Z</time>
      </trkpt>
      <trkpt lat="48.68003" lon="5.87229">
        <ele>221.1</ele>
        <time>2020-06-29T15:44:18Z</time>
      </trkpt>
      <trkpt lat="48.68002" lon="5.87216">
        <ele>221.1</ele>
        <time>2020-06-29T15:44:19Z</time>
      </trkpt>
      <trkpt lat="48.68002" lon="5.87203">
        <ele>221.1</ele>
        <time>2020-06-29T15:44:20Z</time>
      </trkpt>
      <trkpt lat="48.68002" lon="5.8719">
        <ele>221.2</ele>
        <time>2020-06-29T15:44:21Z</time>
      </trkpt>
      <trkpt lat="48.68002" lon="5.87177">
        <ele>221.2</ele>
        <time>2020-06-29T15:44:22Z</time>
      </trkpt>
      <trkpt lat="48.68001" lon="5.87165">
        <ele>221.3</ele>
        <time>2020-06-29T15:44:23Z</time>
      </trkpt>
      <trkpt lat="48.68001" lon="5.87154">
        <ele>221.4</ele>
        <time>2020-06-29T15:44:24Z</time>
      </trkpt>
      <trkpt lat="48.68" lon="5.87144">
        <ele>221.5</ele>
        <time>2020-06-29T15:44:25Z</time>
      </trkpt>
      <trkpt lat="48.68" lon="5.87134">
        <ele>221.7</ele>
        <time>2020-06-29T15:44:26Z</time>
      </trkpt>
      <trkpt lat="48.68" lon="5.87124">
        <ele>221.9</ele>
        <time>2020-06-29T15:44:27Z</time>
      </trkpt>
      <trkpt lat="48.67999" lon="5.87115">
        <ele>222.3</ele>
        <time>2020-06-29T15:44:28Z</time>
      </trkpt>
      <trkpt lat="48.67999" lon="5.87105">
        <ele>222.7</ele>
        <time>2020-06-29T15:44:29Z</time>
      </trkpt>
      <trkpt lat="48.67998" lon="5.87097">
        <ele>223</ele>
        <time>2020-06-29T15:44:30Z</time>
      </trkpt>
      <trkpt lat="48.67998" lon="5.87089">
        <ele>223.4</ele>
        <time>2020-06-29T15:44:31Z</time>
      </trkpt>
      <trkpt lat="48.67998" lon="5.87082">
        <ele>223.7</ele>
        <time>2020-06-29T15:44:32Z</time>
      </trkpt>
      <trkpt lat="48.67999" lon="5.87075">
        <ele>224</ele>
        <time>2020-06-29T15:44:33Z</time>
      </trkpt>
      <trkpt lat="48.67999" lon="5.87068">
        <ele>224.3</ele>
        <time>2020-06-29T15:44:34Z</time>
      </trkpt>
      <trkpt lat="48.67999" lon="5.87062">
        <ele>224.6</ele>
        <time>2020-06-29T15:44:35Z</time>
      </trkpt>
      <trkpt lat="48.67999" lon="5.87056">
        <ele>224.9</ele>
        <time>2020-06-29T15:44:36Z</time>
      </trkpt>
      <trkpt lat="48.67998" lon="5.8705">
        <ele>225.2</ele>
        <time>2020-06-29T15:44:37Z</time>
      </trkpt>
      <trkpt lat="48.67998" lon="5.87044">
        <ele>225.6</ele>
        <time>2020-06-29T15:44:38Z</time>
      </trkpt>
      <trkpt lat="48.67997" lon="5.87039">
        <ele>225.9</ele>
        <time>2020-06-29T15:44:39Z</time>
      </trkpt>
      <trkpt lat="48.67997" lon="5.87034">
        <ele>226.1</ele>
        <time>2020-06-29T15:44:40Z</time>
      </trkpt>
      <trkpt lat="48.67997" lon="5.87029">
        <ele>226.4</ele>
        <time>2020-06-29T15:44:41Z</time>
      </trkpt>
      <trkpt lat="48.67997" lon="5.87024">
        <ele>226.7</ele>
        <time>2020-06-29T15:44:42Z</time>
      </trkpt>
      <trkpt lat="48.67997" lon="5.87019">
        <ele>227.1</ele>
        <time>2020-06-29T15:44:43Z</time>
      </trkpt>
      <trkpt lat="48.67999" lon="5.87015">
        <ele>227.4</ele>
        <time>2020-06-29T15:44:44Z</time>
      </trkpt>
      <trkpt lat="48.68" lon="5.8701">
        <ele>227.7</ele>
        <time>2020-06-29T15:44:45Z</time>
      </trkpt>
      <trkpt lat="48.67999" lon="5.87008">
        <ele>227.8</ele>
        <time>2020-06-29T15:44:46Z</time>
      </trkpt>
      <trkpt lat="48.68" lon="5.87004">
        <ele>228</ele>
        <time>2020-06-29T15:44:47Z</time>
      </trkpt>
      <trkpt lat="48.68" lon="5.87003">
        <ele>228.1</ele>
        <time>2020-06-29T15:44:48Z</time>
      </trkpt>
      <trkpt lat="48.67999" lon="5.87001">
        <ele>228.2</ele>
        <time>2020-06-29T15:44:49Z</time>
      </trkpt>
      <trkpt lat="48.67999" lon="5.86999">
        <ele>228.3</ele>
        <time>2020-06-29T15:44:50Z</time>
      </trkpt>
      <trkpt lat="48.67998" lon="5.86997">
        <ele>228.5</ele>
        <time>2020-06-29T15:44:51Z</time>
      </trkpt>
      <trkpt lat="48.67998" lon="5.86995">
        <ele>228.6</ele>
        <time>2020-06-29T15:44:52Z</time>
      </trkpt>
      <trkpt lat="48.67998" lon="5.8699">
        <ele>228.9</ele>
        <time>2020-06-29T15:44:53Z</time>
      </trkpt>
      <trkpt lat="48.67998" lon="5.86988">
        <ele>229</ele>
        <time>2020-06-29T15:44:54Z</time>
      </trkpt>
      <trkpt lat="48.67998" lon="5.86984">
        <ele>229.2</ele>
        <time>2020-06-29T15:44:55Z</time>
      </trkpt>
      <trkpt lat="48.67998" lon="5.86982">
        <ele>229.3</ele>
        <time>2020-06-29T15:44:56Z</time>
      </trkpt>
      <trkpt lat="48.67997" lon="5.8698">
        <ele>229.5</ele>
        <time>2020-06-29T15:44:57Z</time>
      </trkpt>
      <trkpt lat="48.67998" lon="5.86977">
        <ele>229.6</ele>
        <time>2020-06-29T15:44:58Z</time>
      </trkpt>
      <trkpt lat="48.67998" lon="5.86972">
        <ele>229.9</ele>
        <time>2020-06-29T15:44:59Z</time>
      </trkpt>
      <trkpt lat="48.67998" lon="5.86971">
        <ele>230</ele>
        <time>2020-06-29T15:45:00Z</time>
      </trkpt>
      <trkpt lat="48.67998" lon="5.86965">
        <ele>230.4</ele>
        <time>2020-06-29T15:45:01Z</time>
      </trkpt>
      <trkpt lat="48.67997" lon="5.86963">
        <ele>230.5</ele>
        <time>2020-06-29T15:45:02Z</time>
      </trkpt>
      <trkpt lat="48.67996" lon="5.86959">
        <ele>230.7</ele>
        <time>2020-06-29T15:45:03Z</time>
      </trkpt>
      <trkpt lat="48.67996" lon="5.86958">
        <ele>230.8</ele>
        <time>2020-06-29T15:45:04Z</time>
      </trkpt>
      <trkpt lat="48.67995" lon="5.86953">
        <ele>231.1</ele>
        <time>2020-06-29T15:45:05Z</time>
      </trkpt>
      <trkpt lat="48.67995" lon="5.86951">
        <ele>231.2</ele>
        <time>2020-06-29T15:45:06Z</time>
      </trkpt>
      <trkpt lat="48.67995" lon="5.86948">
        <ele>231.3</ele>
        <time>2020-06-29T15:45:07Z</time>
      </trkpt>
      <trkpt lat="48.67995" lon="5.86946">
        <ele>231.5</ele>
        <time>2020-06-29T15:45:08Z</time>
      </trkpt>
      <trkpt lat="48.67995" lon="5.86943">
        <ele>231.6</ele>
        <time>2020-06-29T15:45:09Z</time>
      </trkpt>
      <trkpt lat="48.67995" lon="5.86941">
        <ele>231.8</ele>
        <time>2020-06-29T15:45:10Z</time>
      </trkpt>
      <trkpt lat="48.67994" lon="5.86937">
        <ele>232</ele>
        <time>2020-06-29T15:45:11Z</time>
      </trkpt>
      <trkpt lat="48.67993" lon="5.86936">
        <ele>232</ele>
        <time>2020-06-29T15:45:12Z</time>
      </trkpt>
      <trkpt lat="48.67993" lon="5.86931">
        <ele>232.3</ele>
        <time>2020-06-29T15:45:13Z</time>
      </trkpt>
      <trkpt lat="48.67992" lon="5.8693">
        <ele>232.4</ele>
        <time>2020-06-29T15:45:14Z</time>
      </trkpt>
      <trkpt lat="48.67992" lon="5.86925">
        <ele>232.6</ele>
        <time>2020-06-29T15:45:15Z</time>
      </trkpt>
      <trkpt lat="48.67992" lon="5.86924">
        <ele>232.7</ele>
        <time>2020-06-29T15:45:16Z</time>
      </trkpt>
      <trkpt lat="48.67992" lon="5.8692">
        <ele>232.9</ele>
        <time>2020-06-29T15:45:17Z</time>
      </trkpt>
      <trkpt lat="48.67992" lon="5.86918">
        <ele>233</ele>
        <time>2020-06-29T15:45:18Z</time>
      </trkpt>
      <trkpt lat="48.67991" lon="5.86914">
        <ele>233.2</ele>
        <time>2020-06-29T15:45:19Z</time>
      </trkpt>
      <trkpt lat="48.67991" lon="5.86913">
        <ele>233.2</ele>
        <time>2020-06-29T15:45:20Z</time>
      </trkpt>
      <trkpt lat="48.67991" lon="5.8691">
        <ele>233.4</ele>
        <time>2020-06-29T15:45:21Z</time>
      </trkpt>
      <trkpt lat="48.6799" lon="5.86908">
        <ele>233.5</ele>
        <time>2020-06-29T15:45:22Z</time>
      </trkpt>
      <trkpt lat="48.6799" lon="5.86903">
        <ele>233.7</ele>
        <time>2020-06-29T15:45:23Z</time>
      </trkpt>
      <trkpt lat="48.6799" lon="5.86902">
        <ele>233.7</ele>
        <time>2020-06-29T15:45:24Z</time>
      </trkpt>
      <trkpt lat="48.6799" lon="5.86899">
        <ele>233.8</ele>
        <time>2020-06-29T15:45:25Z</time>
      </trkpt>
      <trkpt lat="48.6799" lon="5.86897">
        <ele>234</ele>
        <time>2020-06-29T15:45:26Z</time>
      </trkpt>
      <trkpt lat="48.67991" lon="5.86891">
        <ele>234.4</ele>
        <time>2020-06-29T15:45:27Z</time>
      </trkpt>
      <trkpt lat="48.67991" lon="5.86889">
        <ele>234.5</ele>
        <time>2020-06-29T15:45:28Z</time>
      </trkpt>
      <trkpt lat="48.6799" lon="5.86884">
        <ele>234.8</ele>
        <time>2020-06-29T15:45:29Z</time>
      </trkpt>
      <trkpt lat="48.6799" lon="5.86882">
        <ele>234.9</ele>
        <time>2020-06-29T15:45:30Z</time>
      </trkpt>
      <trkpt lat="48.6799" lon="5.86877">
        <ele>235.2</ele>
        <time>2020-06-29T15:45:31Z</time>
      </trkpt>
      <trkpt lat="48.6799" lon="5.86875">
        <ele>235.3</ele>
        <time>2020-06-29T15:45:32Z</time>
      </trkpt>
      <trkpt lat="48.6799" lon="5.86871">
        <ele>235.5</ele>
        <time>2020-06-29T15:45:33Z</time>
      </trkpt>
      <trkpt lat="48.67991" lon="5.86867">
        <ele>235.7</ele>
        <time>2020-06-29T15:45:34Z</time>
      </trkpt>
      <trkpt lat="48.67991" lon="5.86865">
        <ele>235.7</ele>
        <time>2020-06-29T15:45:35Z</time>
      </trkpt>
      <trkpt lat="48.67992" lon="5.8686">
        <ele>235.7</ele>
        <time>2020-06-29T15:45:36Z</time>
      </trkpt>
      <trkpt lat="48.67992" lon="5.86859">
        <ele>235.7</ele>
        <time>2020-06-29T15:45:37Z</time>
      </trkpt>
      <trkpt lat="48.67992" lon="5.86854">
        <ele>235.8</ele>
        <time>2020-06-29T15:45:38Z</time>
      </trkpt>
      <trkpt lat="48.67992" lon="5.86852">
        <ele>235.9</ele>
        <time>2020-06-29T15:45:39Z</time>
      </trkpt>
      <trkpt lat="48.67992" lon="5.86847">
        <ele>236</ele>
        <time>2020-06-29T15:45:40Z</time>
      </trkpt>
      <trkpt lat="48.67992" lon="5.86845">
        <ele>236</ele>
        <time>2020-06-29T15:45:41Z</time>
      </trkpt>
      <trkpt lat="48.67991" lon="5.86841">
        <ele>236</ele>
        <time>2020-06-29T15:45:42Z</time>
      </trkpt>
      <trkpt lat="48.67991" lon="5.86839">
        <ele>236.1</ele>
        <time>2020-06-29T15:45:43Z</time>
      </trkpt>
      <trkpt lat="48.67992" lon="5.86833">
        <ele>236.1</ele>
        <time>2020-06-29T15:45:44Z</time>
      </trkpt>
      <trkpt lat="48.67993" lon="5.86831">
        <ele>236.1</ele>
        <time>2020-06-29T15:45:45Z</time>
      </trkpt>
      <trkpt lat="48.67994" lon="5.86827">
        <ele>236.2</ele>
        <time>2020-06-29T15:45:46Z</time>
      </trkpt>
      <trkpt lat="48.67995" lon="5.86822">
        <ele>236.2</ele>
        <time>2020-06-29T15:45:47Z</time>
      </trkpt>
      <trkpt lat="48.67995" lon="5.86817">
        <ele>236.2</ele>
        <time>2020-06-29T15:45:48Z</time>
      </trkpt>
      <trkpt lat="48.67995" lon="5.86815">
        <ele>236.3</ele>
        <time>2020-06-29T15:45:49Z</time>
      </trkpt>
      <trkpt lat="48.67996" lon="5.8681">
        <ele>236.3</ele>
        <time>2020-06-29T15:45:50Z</time>
      </trkpt>
      <trkpt lat="48.67997" lon="5.86807">
        <ele>236.3</ele>
        <time>2020-06-29T15:45:51Z</time>
      </trkpt>
      <trkpt lat="48.67997" lon="5.86802">
        <ele>236.3</ele>
        <time>2020-06-29T15:45:52Z</time>
      </trkpt>
      <trkpt lat="48.67997" lon="5.86799">
        <ele>236.3</ele>
        <time>2020-06-29T15:45:53Z</time>
      </trkpt>
      <trkpt lat="48.67998" lon="5.86794">
        <ele>236.3</ele>
        <time>2020-06-29T15:45:54Z</time>
      </trkpt>
      <trkpt lat="48.67999" lon="5.86792">
        <ele>236.3</ele>
        <time>2020-06-29T15:45:55Z</time>
      </trkpt>
      <trkpt lat="48.68001" lon="5.86787">
        <ele>236.3</ele>
        <time>2020-06-29T15:45:56Z</time>
      </trkpt>
      <trkpt lat="48.68001" lon="5.86786">
        <ele>236.3</ele>
        <time>2020-06-29T15:45:57Z</time>
      </trkpt>
      <trkpt lat="48.68002" lon="5.86782">
        <ele>236.3</ele>
        <time>2020-06-29T15:45:58Z</time>
      </trkpt>
      <trkpt lat="48.68002" lon="5.86777">
        <ele>236.3</ele>
        <time>2020-06-29T15:45:59Z</time>
      </trkpt>
      <trkpt lat="48.68002" lon="5.86773">
        <ele>236.3</ele>
        <time>2020-06-29T15:46:00Z</time>
      </trkpt>
      <trkpt lat="48.68002" lon="5.86768">
        <ele>236.3</ele>
        <time>2020-06-29T15:46:01Z</time>
      </trkpt>
      <trkpt lat="48.68002" lon="5.86766">
        <ele>236.3</ele>
        <time>2020-06-29T15:46:02Z</time>
      </trkpt>
      <trkpt lat="48.68003" lon="5.86761">
        <ele>236.3</ele>
        <time>2020-06-29T15:46:03Z</time>
      </trkpt>
      <trkpt lat="48.68003" lon="5.8676">
        <ele>236.3</ele>
        <time>2020-06-29T15:46:04Z</time>
      </trkpt>
      <trkpt lat="48.68004" lon="5.86754">
        <ele>236.3</ele>
        <time>2020-06-29T15:46:05Z</time>
      </trkpt>
      <trkpt lat="48.68004" lon="5.86753">
        <ele>236.3</ele>
        <time>2020-06-29T15:46:06Z</time>
      </trkpt>
      <trkpt lat="48.68003" lon="5.86747">
        <ele>236.2</ele>
        <time>2020-06-29T15:46:07Z</time>
      </trkpt>
      <trkpt lat="48.68004" lon="5.86746">
        <ele>236.2</ele>
        <time>2020-06-29T15:46:08Z</time>
      </trkpt>
      <trkpt lat="48.68004" lon="5.86739">
        <ele>236.2</ele>
        <time>2020-06-29T15:46:09Z</time>
      </trkpt>
      <trkpt lat="48.68004" lon="5.86737">
        <ele>236.2</ele>
        <time>2020-06-29T15:46:10Z</time>
      </trkpt>
      <trkpt lat="48.68004" lon="5.86732">
        <ele>236.2</ele>
        <time>2020-06-29T15:46:11Z</time>
      </trkpt>
      <trkpt lat="48.68004" lon="5.86725">
        <ele>236.2</ele>
        <time>2020-06-29T15:46:12Z</time>
      </trkpt>
      <trkpt lat="48.68004" lon="5.86723">
        <ele>236.2</ele>
        <time>2020-06-29T15:46:13Z</time>
      </trkpt>
      <trkpt lat="48.68004" lon="5.86717">
        <ele>236.2</ele>
        <time>2020-06-29T15:46:14Z</time>
      </trkpt>
      <trkpt lat="48.68004" lon="5.86711">
        <ele>236.2</ele>
        <time>2020-06-29T15:46:15Z</time>
      </trkpt>
      <trkpt lat="48.68004" lon="5.86704">
        <ele>236.1</ele>
        <time>2020-06-29T15:46:16Z</time>
      </trkpt>
      <trkpt lat="48.68005" lon="5.86698">
        <ele>236.1</ele>
        <time>2020-06-29T15:46:17Z</time>
      </trkpt>
      <trkpt lat="48.68005" lon="5.86695">
        <ele>236.1</ele>
        <time>2020-06-29T15:46:18Z</time>
      </trkpt>
      <trkpt lat="48.68006" lon="5.86689">
        <ele>236.1</ele>
        <time>2020-06-29T15:46:19Z</time>
      </trkpt>
      <trkpt lat="48.68006" lon="5.86684">
        <ele>236.1</ele>
        <time>2020-06-29T15:46:20Z</time>
      </trkpt>
      <trkpt lat="48.68006" lon="5.8668">
        <ele>236.1</ele>
        <time>2020-06-29T15:46:21Z</time>
      </trkpt>
      <trkpt lat="48.68005" lon="5.86674">
        <ele>236.1</ele>
        <time>2020-06-29T15:46:22Z</time>
      </trkpt>
      <trkpt lat="48.68005" lon="5.86671">
        <ele>236.1</ele>
        <time>2020-06-29T15:46:23Z</time>
      </trkpt>
      <trkpt lat="48.68005" lon="5.86666">
        <ele>236.1</ele>
        <time>2020-06-29T15:46:24Z</time>
      </trkpt>
      <trkpt lat="48.68005" lon="5.8666">
        <ele>236</ele>
        <time>2020-06-29T15:46:25Z</time>
      </trkpt>
      <trkpt lat="48.68005" lon="5.86654">
        <ele>236</ele>
        <time>2020-06-29T15:46:26Z</time>
      </trkpt>
      <trkpt lat="48.68005" lon="5.86648">
        <ele>236</ele>
        <time>2020-06-29T15:46:27Z</time>
      </trkpt>
      <trkpt lat="48.68005" lon="5.86643">
        <ele>236</ele>
        <time>2020-06-29T15:46:28Z</time>
      </trkpt>
      <trkpt lat="48.68005" lon="5.86638">
        <ele>236.1</ele>
        <time>2020-06-29T15:46:29Z</time>
      </trkpt>
      <trkpt lat="48.68005" lon="5.86633">
        <ele>236.1</ele>
        <time>2020-06-29T15:46:30Z</time>
      </trkpt>
      <trkpt lat="48.68006" lon="5.86628">
        <ele>236.1</ele>
        <time>2020-06-29T15:46:31Z</time>
      </trkpt>
      <trkpt lat="48.68007" lon="5.86622">
        <ele>236.1</ele>
        <time>2020-06-29T15:46:32Z</time>
      </trkpt>
      <trkpt lat="48.68007" lon="5.86616">
        <ele>236.1</ele>
        <time>2020-06-29T15:46:33Z</time>
      </trkpt>
      <trkpt lat="48.68008" lon="5.8661">
        <ele>236.1</ele>
        <time>2020-06-29T15:46:34Z</time>
      </trkpt>
      <trkpt lat="48.68008" lon="5.86605">
        <ele>236.1</ele>
        <time>2020-06-29T15:46:35Z</time>
      </trkpt>
      <trkpt lat="48.68009" lon="5.86599">
        <ele>236.1</ele>
        <time>2020-06-29T15:46:36Z</time>
      </trkpt>
      <trkpt lat="48.68009" lon="5.86594">
        <ele>236.1</ele>
        <time>2020-06-29T15:46:37Z</time>
      </trkpt>
      <trkpt lat="48.68009" lon="5.86588">
        <ele>236.1</ele>
        <time>2020-06-29T15:46:38Z</time>
      </trkpt>
      <trkpt lat="48.6801" lon="5.86583">
        <ele>236.1</ele>
        <time>2020-06-29T15:46:39Z</time>
      </trkpt>
      <trkpt lat="48.6801" lon="5.86578">
        <ele>236.1</ele>
        <time>2020-06-29T15:46:40Z</time>
      </trkpt>
      <trkpt lat="48.68011" lon="5.86572">
        <ele>236.1</ele>
        <time>2020-06-29T15:46:41Z</time>
      </trkpt>
      <trkpt lat="48.68011" lon="5.86566">
        <ele>236.1</ele>
        <time>2020-06-29T15:46:42Z</time>
      </trkpt>
      <trkpt lat="48.68012" lon="5.8656">
        <ele>236.1</ele>
        <time>2020-06-29T15:46:43Z</time>
      </trkpt>
      <trkpt lat="48.68012" lon="5.86555">
        <ele>236.1</ele>
        <time>2020-06-29T15:46:44Z</time>
      </trkpt>
      <trkpt lat="48.68012" lon="5.86549">
        <ele>236.1</ele>
        <time>2020-06-29T15:46:45Z</time>
      </trkpt>
      <trkpt lat="48.68011" lon="5.86543">
        <ele>236</ele>
        <time>2020-06-29T15:46:46Z</time>
      </trkpt>
      <trkpt lat="48.6801" lon="5.86537">
        <ele>236</ele>
        <time>2020-06-29T15:46:47Z</time>
      </trkpt>
      <trkpt lat="48.6801" lon="5.86531">
        <ele>236</ele>
        <time>2020-06-29T15:46:48Z</time>
      </trkpt>
      <trkpt lat="48.6801" lon="5.86523">
        <ele>236</ele>
        <time>2020-06-29T15:46:49Z</time>
      </trkpt>
      <trkpt lat="48.68009" lon="5.86517">
        <ele>236</ele>
        <time>2020-06-29T15:46:50Z</time>
      </trkpt>
      <trkpt lat="48.6801" lon="5.8651">
        <ele>236.1</ele>
        <time>2020-06-29T15:46:51Z</time>
      </trkpt>
      <trkpt lat="48.6801" lon="5.86505">
        <ele>236.1</ele>
        <time>2020-06-29T15:46:52Z</time>
      </trkpt>
      <trkpt lat="48.6801" lon="5.86497">
        <ele>236.1</ele>
        <time>2020-06-29T15:46:53Z</time>
      </trkpt>
      <trkpt lat="48.68011" lon="5.86492">
        <ele>236.1</ele>
        <time>2020-06-29T15:46:54Z</time>
      </trkpt>
      <trkpt lat="48.6801" lon="5.86485">
        <ele>236.1</ele>
        <time>2020-06-29T15:46:55Z</time>
      </trkpt>
      <trkpt lat="48.6801" lon="5.86479">
        <ele>236.1</ele>
        <time>2020-06-29T15:46:56Z</time>
      </trkpt>
      <trkpt lat="48.68009" lon="5.86474">
        <ele>236.1</ele>
        <time>2020-06-29T15:46:57Z</time>
      </trkpt>
      <trkpt lat="48.6801" lon="5.86467">
        <ele>236.1</ele>
        <time>2020-06-29T15:46:58Z</time>
      </trkpt>
      <trkpt lat="48.68009" lon="5.86461">
        <ele>236.1</ele>
        <time>2020-06-29T15:46:59Z</time>
      </trkpt>
      <trkpt lat="48.68009" lon="5.86454">
        <ele>236.2</ele>
        <time>2020-06-29T15:47:00Z</time>
      </trkpt>
      <trkpt lat="48.68009" lon="5.86449">
        <ele>236.2</ele>
        <time>2020-06-29T15:47:01Z</time>
      </trkpt>
      <trkpt lat="48.6801" lon="5.86444">
        <ele>236.2</ele>
        <time>2020-06-29T15:47:02Z</time>
      </trkpt>
      <trkpt lat="48.68009" lon="5.86437">
        <ele>236.2</ele>
        <time>2020-06-29T15:47:03Z</time>
      </trkpt>
      <trkpt lat="48.68009" lon="5.86432">
        <ele>236.3</ele>
        <time>2020-06-29T15:47:04Z</time>
      </trkpt>
      <trkpt lat="48.68008" lon="5.86427">
        <ele>236.3</ele>
        <time>2020-06-29T15:47:05Z</time>
      </trkpt>
      <trkpt lat="48.68006" lon="5.86422">
        <ele>236.3</ele>
        <time>2020-06-29T15:47:06Z</time>
      </trkpt>
      <trkpt lat="48.68005" lon="5.86417">
        <ele>236.3</ele>
        <time>2020-06-29T15:47:07Z</time>
      </trkpt>
      <trkpt lat="48.68004" lon="5.86412">
        <ele>236.4</ele>
        <time>2020-06-29T15:47:08Z</time>
      </trkpt>
      <trkpt lat="48.68004" lon="5.86405">
        <ele>236.4</ele>
        <time>2020-06-29T15:47:09Z</time>
      </trkpt>
      <trkpt lat="48.68003" lon="5.86399">
        <ele>236.4</ele>
        <time>2020-06-29T15:47:10Z</time>
      </trkpt>
      <trkpt lat="48.68003" lon="5.86394">
        <ele>236.4</ele>
        <time>2020-06-29T15:47:11Z</time>
      </trkpt>
      <trkpt lat="48.68002" lon="5.86388">
        <ele>236.4</ele>
        <time>2020-06-29T15:47:12Z</time>
      </trkpt>
      <trkpt lat="48.68" lon="5.86382">
        <ele>236.4</ele>
        <time>2020-06-29T15:47:13Z</time>
      </trkpt>
      <trkpt lat="48.68" lon="5.86377">
        <ele>236.5</ele>
        <time>2020-06-29T15:47:14Z</time>
      </trkpt>
      <trkpt lat="48.67999" lon="5.8637">
        <ele>236.5</ele>
        <time>2020-06-29T15:47:15Z</time>
      </trkpt>
      <trkpt lat="48.67998" lon="5.86363">
        <ele>236.5</ele>
        <time>2020-06-29T15:47:16Z</time>
      </trkpt>
      <trkpt lat="48.67997" lon="5.86356">
        <ele>236.5</ele>
        <time>2020-06-29T15:47:17Z</time>
      </trkpt>
      <trkpt lat="48.67997" lon="5.8635">
        <ele>236.5</ele>
        <time>2020-06-29T15:47:18Z</time>
      </trkpt>
      <trkpt lat="48.67996" lon="5.86343">
        <ele>236.5</ele>
        <time>2020-06-29T15:47:19Z</time>
      </trkpt>
      <trkpt lat="48.67995" lon="5.86338">
        <ele>236.5</ele>
        <time>2020-06-29T15:47:20Z</time>
      </trkpt>
      <trkpt lat="48.67993" lon="5.86332">
        <ele>236.4</ele>
        <time>2020-06-29T15:47:21Z</time>
      </trkpt>
      <trkpt lat="48.6799" lon="5.86328">
        <ele>236.4</ele>
        <time>2020-06-29T15:47:22Z</time>
      </trkpt>
      <trkpt lat="48.67989" lon="5.86321">
        <ele>236.4</ele>
        <time>2020-06-29T15:47:23Z</time>
      </trkpt>
      <trkpt lat="48.67988" lon="5.86316">
        <ele>236.4</ele>
        <time>2020-06-29T15:47:24Z</time>
      </trkpt>
      <trkpt lat="48.67987" lon="5.8631">
        <ele>236.4</ele>
        <time>2020-06-29T15:47:25Z</time>
      </trkpt>
      <trkpt lat="48.67987" lon="5.86303">
        <ele>236.4</ele>
        <time>2020-06-29T15:47:26Z</time>
      </trkpt>
      <trkpt lat="48.67986" lon="5.86298">
        <ele>236.4</ele>
        <time>2020-06-29T15:47:27Z</time>
      </trkpt>
      <trkpt lat="48.67984" lon="5.86292">
        <ele>236.4</ele>
        <time>2020-06-29T15:47:28Z</time>
      </trkpt>
      <trkpt lat="48.67983" lon="5.86285">
        <ele>236.4</ele>
        <time>2020-06-29T15:47:29Z</time>
      </trkpt>
      <trkpt lat="48.67982" lon="5.86278">
        <ele>236.5</ele>
        <time>2020-06-29T15:47:30Z</time>
      </trkpt>
      <trkpt lat="48.67981" lon="5.86272">
        <ele>236.5</ele>
        <time>2020-06-29T15:47:31Z</time>
      </trkpt>
      <trkpt lat="48.6798" lon="5.86265">
        <ele>236.5</ele>
        <time>2020-06-29T15:47:32Z</time>
      </trkpt>
      <trkpt lat="48.67978" lon="5.86259">
        <ele>236.5</ele>
        <time>2020-06-29T15:47:33Z</time>
      </trkpt>
      <trkpt lat="48.67977" lon="5.86254">
        <ele>236.5</ele>
        <time>2020-06-29T15:47:34Z</time>
      </trkpt>
      <trkpt lat="48.67975" lon="5.86248">
        <ele>236.6</ele>
        <time>2020-06-29T15:47:35Z</time>
      </trkpt>
      <trkpt lat="48.67974" lon="5.86244">
        <ele>236.6</ele>
        <time>2020-06-29T15:47:36Z</time>
      </trkpt>
      <trkpt lat="48.67973" lon="5.86239">
        <ele>236.6</ele>
        <time>2020-06-29T15:47:37Z</time>
      </trkpt>
      <trkpt lat="48.67972" lon="5.86233">
        <ele>236.6</ele>
        <time>2020-06-29T15:47:38Z</time>
      </trkpt>
      <trkpt lat="48.67971" lon="5.86228">
        <ele>236.6</ele>
        <time>2020-06-29T15:47:39Z</time>
      </trkpt>
      <trkpt lat="48.6797" lon="5.86222">
        <ele>236.7</ele>
        <time>2020-06-29T15:47:40Z</time>
      </trkpt>
      <trkpt lat="48.67969" lon="5.86215">
        <ele>236.7</ele>
        <time>2020-06-29T15:47:41Z</time>
      </trkpt>
      <trkpt lat="48.67967" lon="5.86209">
        <ele>236.7</ele>
        <time>2020-06-29T15:47:42Z</time>
      </trkpt>
      <trkpt lat="48.67967" lon="5.86202">
        <ele>236.8</ele>
        <time>2020-06-29T15:47:43Z</time>
      </trkpt>
      <trkpt lat="48.67966" lon="5.86198">
        <ele>236.8</ele>
        <time>2020-06-29T15:47:44Z</time>
      </trkpt>
      <trkpt lat="48.67965" lon="5.86191">
        <ele>236.8</ele>
        <time>2020-06-29T15:47:45Z</time>
      </trkpt>
      <trkpt lat="48.67965" lon="5.86186">
        <ele>237</ele>
        <time>2020-06-29T15:47:46Z</time>
      </trkpt>
      <trkpt lat="48.67964" lon="5.8618">
        <ele>237</ele>
        <time>2020-06-29T15:47:47Z</time>
      </trkpt>
      <trkpt lat="48.67963" lon="5.86175">
        <ele>237</ele>
        <time>2020-06-29T15:47:48Z</time>
      </trkpt>
      <trkpt lat="48.67962" lon="5.86169">
        <ele>237.1</ele>
        <time>2020-06-29T15:47:49Z</time>
      </trkpt>
      <trkpt lat="48.67961" lon="5.86164">
        <ele>237.1</ele>
        <time>2020-06-29T15:47:50Z</time>
      </trkpt>
      <trkpt lat="48.6796" lon="5.86159">
        <ele>237.1</ele>
        <time>2020-06-29T15:47:51Z</time>
      </trkpt>
      <trkpt lat="48.6796" lon="5.86154">
        <ele>237.1</ele>
        <time>2020-06-29T15:47:52Z</time>
      </trkpt>
      <trkpt lat="48.67958" lon="5.86149">
        <ele>237.2</ele>
        <time>2020-06-29T15:47:53Z</time>
      </trkpt>
      <trkpt lat="48.67957" lon="5.86144">
        <ele>237.2</ele>
        <time>2020-06-29T15:47:54Z</time>
      </trkpt>
      <trkpt lat="48.67956" lon="5.86139">
        <ele>237.2</ele>
        <time>2020-06-29T15:47:55Z</time>
      </trkpt>
      <trkpt lat="48.67955" lon="5.86133">
        <ele>237.3</ele>
        <time>2020-06-29T15:47:56Z</time>
      </trkpt>
      <trkpt lat="48.67954" lon="5.86127">
        <ele>237.3</ele>
        <time>2020-06-29T15:47:57Z</time>
      </trkpt>
      <trkpt lat="48.67953" lon="5.86122">
        <ele>237.4</ele>
        <time>2020-06-29T15:47:58Z</time>
      </trkpt>
      <trkpt lat="48.67952" lon="5.86117">
        <ele>237.4</ele>
        <time>2020-06-29T15:47:59Z</time>
      </trkpt>
      <trkpt lat="48.67951" lon="5.86111">
        <ele>237.4</ele>
        <time>2020-06-29T15:48:00Z</time>
      </trkpt>
      <trkpt lat="48.6795" lon="5.86104">
        <ele>237.5</ele>
        <time>2020-06-29T15:48:01Z</time>
      </trkpt>
      <trkpt lat="48.67948" lon="5.86099">
        <ele>237.5</ele>
        <time>2020-06-29T15:48:02Z</time>
      </trkpt>
      <trkpt lat="48.67947" lon="5.86094">
        <ele>237.6</ele>
        <time>2020-06-29T15:48:03Z</time>
      </trkpt>
      <trkpt lat="48.67946" lon="5.86089">
        <ele>237.6</ele>
        <time>2020-06-29T15:48:04Z</time>
      </trkpt>
      <trkpt lat="48.67945" lon="5.86084">
        <ele>237.6</ele>
        <time>2020-06-29T15:48:05Z</time>
      </trkpt>
      <trkpt lat="48.67944" lon="5.86078">
        <ele>237.7</ele>
        <time>2020-06-29T15:48:06Z</time>
      </trkpt>
      <trkpt lat="48.67943" lon="5.86074">
        <ele>237.7</ele>
        <time>2020-06-29T15:48:07Z</time>
      </trkpt>
      <trkpt lat="48.67942" lon="5.86069">
        <ele>237.7</ele>
        <time>2020-06-29T15:48:08Z</time>
      </trkpt>
      <trkpt lat="48.6794" lon="5.86064">
        <ele>237.8</ele>
        <time>2020-06-29T15:48:09Z</time>
      </trkpt>
      <trkpt lat="48.67939" lon="5.86059">
        <ele>237.8</ele>
        <time>2020-06-29T15:48:10Z</time>
      </trkpt>
      <trkpt lat="48.67938" lon="5.86054">
        <ele>237.9</ele>
        <time>2020-06-29T15:48:11Z</time>
      </trkpt>
      <trkpt lat="48.67936" lon="5.86049">
        <ele>237.9</ele>
        <time>2020-06-29T15:48:12Z</time>
      </trkpt>
      <trkpt lat="48.67935" lon="5.86044">
        <ele>237.9</ele>
        <time>2020-06-29T15:48:13Z</time>
      </trkpt>
      <trkpt lat="48.67933" lon="5.86038">
        <ele>238</ele>
        <time>2020-06-29T15:48:14Z</time>
      </trkpt>
      <trkpt lat="48.67931" lon="5.86032">
        <ele>238</ele>
        <time>2020-06-29T15:48:15Z</time>
      </trkpt>
      <trkpt lat="48.6793" lon="5.86027">
        <ele>238.1</ele>
        <time>2020-06-29T15:48:16Z</time>
      </trkpt>
      <trkpt lat="48.67929" lon="5.86022">
        <ele>238.1</ele>
        <time>2020-06-29T15:48:17Z</time>
      </trkpt>
      <trkpt lat="48.67929" lon="5.86016">
        <ele>238.1</ele>
        <time>2020-06-29T15:48:18Z</time>
      </trkpt>
      <trkpt lat="48.67928" lon="5.86013">
        <ele>238.1</ele>
        <time>2020-06-29T15:48:19Z</time>
      </trkpt>
      <trkpt lat="48.67927" lon="5.86008">
        <ele>238.2</ele>
        <time>2020-06-29T15:48:20Z</time>
      </trkpt>
      <trkpt lat="48.67927" lon="5.86003">
        <ele>238.2</ele>
        <time>2020-06-29T15:48:21Z</time>
      </trkpt>
      <trkpt lat="48.67926" lon="5.85999">
        <ele>238.2</ele>
        <time>2020-06-29T15:48:22Z</time>
      </trkpt>
      <trkpt lat="48.67925" lon="5.85994">
        <ele>238.3</ele>
        <time>2020-06-29T15:48:23Z</time>
      </trkpt>
      <trkpt lat="48.67924" lon="5.8599">
        <ele>238.3</ele>
        <time>2020-06-29T15:48:24Z</time>
      </trkpt>
      <trkpt lat="48.67923" lon="5.85984">
        <ele>238.3</ele>
        <time>2020-06-29T15:48:25Z</time>
      </trkpt>
      <trkpt lat="48.67922" lon="5.85978">
        <ele>238.4</ele>
        <time>2020-06-29T15:48:26Z</time>
      </trkpt>
      <trkpt lat="48.67921" lon="5.85974">
        <ele>238.4</ele>
        <time>2020-06-29T15:48:27Z</time>
      </trkpt>
      <trkpt lat="48.6792" lon="5.85969">
        <ele>238.4</ele>
        <time>2020-06-29T15:48:28Z</time>
      </trkpt>
      <trkpt lat="48.67919" lon="5.85964">
        <ele>238.4</ele>
        <time>2020-06-29T15:48:29Z</time>
      </trkpt>
      <trkpt lat="48.67919" lon="5.85959">
        <ele>238.4</ele>
        <time>2020-06-29T15:48:30Z</time>
      </trkpt>
      <trkpt lat="48.67917" lon="5.85955">
        <ele>238.5</ele>
        <time>2020-06-29T15:48:31Z</time>
      </trkpt>
      <trkpt lat="48.67917" lon="5.85949">
        <ele>238.5</ele>
        <time>2020-06-29T15:48:32Z</time>
      </trkpt>
      <trkpt lat="48.67916" lon="5.85947">
        <ele>238.5</ele>
        <time>2020-06-29T15:48:33Z</time>
      </trkpt>
      <trkpt lat="48.67916" lon="5.85943">
        <ele>238.5</ele>
        <time>2020-06-29T15:48:34Z</time>
      </trkpt>
      <trkpt lat="48.67916" lon="5.85942">
        <ele>238.5</ele>
        <time>2020-06-29T15:48:35Z</time>
      </trkpt>
      <trkpt lat="48.67916" lon="5.85941">
        <ele>238.5</ele>
        <time>2020-06-29T15:48:36Z</time>
      </trkpt>
      <trkpt lat="48.67916" lon="5.85942">
        <ele>238.6</ele>
        <time>2020-06-29T15:48:37Z</time>
      </trkpt>
      <trkpt lat="48.67916" lon="5.85942">
        <ele>238.6</ele>
        <time>2020-06-29T15:48:38Z</time>
      </trkpt>
      <trkpt lat="48.67916" lon="5.85943">
        <ele>238.6</ele>
        <time>2020-06-29T15:48:39Z</time>
      </trkpt>
      <trkpt lat="48.67918" lon="5.85944">
        <ele>238.6</ele>
        <time>2020-06-29T15:48:40Z</time>
      </trkpt>
      <trkpt lat="48.67917" lon="5.85945">
        <ele>238.6</ele>
        <time>2020-06-29T15:48:41Z</time>
      </trkpt>
      <trkpt lat="48.67916" lon="5.85945">
        <ele>238.6</ele>
        <time>2020-06-29T15:48:42Z</time>
      </trkpt>
      <trkpt lat="48.67915" lon="5.85945">
        <ele>238.6</ele>
        <time>2020-06-29T15:48:43Z</time>
      </trkpt>
      <trkpt lat="48.67915" lon="5.85944">
        <ele>238.6</ele>
        <time>2020-06-29T15:48:44Z</time>
      </trkpt>
      <trkpt lat="48.67915" lon="5.85944">
        <ele>238.6</ele>
        <time>2020-06-29T15:48:45Z</time>
      </trkpt>
      <trkpt lat="48.67915" lon="5.85944">
        <ele>238.6</ele>
        <time>2020-06-29T15:48:46Z</time>
      </trkpt>
      <trkpt lat="48.67916" lon="5.85944">
        <ele>238.6</ele>
        <time>2020-06-29T15:48:47Z</time>
      </trkpt>
      <trkpt lat="48.67916" lon="5.85944">
        <ele>238.6</ele>
        <time>2020-06-29T15:48:48Z</time>
      </trkpt>
      <trkpt lat="48.67916" lon="5.85944">
        <ele>238.6</ele>
        <time>2020-06-29T15:48:49Z</time>
      </trkpt>
      <trkpt lat="48.67916" lon="5.85944">
        <ele>238.6</ele>
        <time>2020-06-29T15:48:50Z</time>
      </trkpt>
      <trkpt lat="48.67917" lon="5.85944">
        <ele>238.6</ele>
        <time>2020-06-29T15:48:51Z</time>
      </trkpt>
      <trkpt lat="48.67918" lon="5.85944">
        <ele>238.6</ele>
        <time>2020-06-29T15:48:52Z</time>
      </trkpt>
      <trkpt lat="48.67918" lon="5.85944">
        <ele>238.6</ele>
        <time>2020-06-29T15:48:53Z</time>
      </trkpt>
      <trkpt lat="48.67918" lon="5.85944">
        <ele>238.6</ele>
        <time>2020-06-29T15:48:54Z</time>
      </trkpt>
      <trkpt lat="48.67918" lon="5.85944">
        <ele>238.6</ele>
        <time>2020-06-29T15:48:55Z</time>
      </trkpt>
      <trkpt lat="48.67918" lon="5.85944">
        <ele>238.6</ele>
        <time>2020-06-29T15:48:56Z</time>
      </trkpt>
      <trkpt lat="48.67918" lon="5.85944">
        <ele>238.6</ele>
        <time>2020-06-29T15:48:57Z</time>
      </trkpt>
      <trkpt lat="48.67918" lon="5.85944">
        <ele>238.6</ele>
        <time>2020-06-29T15:48:58Z</time>
      </trkpt>
      <trkpt lat="48.67918" lon="5.85944">
        <ele>238.6</ele>
        <time>2020-06-29T15:48:59Z</time>
      </trkpt>
      <trkpt lat="48.67918" lon="5.85944">
        <ele>238.6</ele>
        <time>2020-06-29T15:49:00Z</time>
      </trkpt>
      <trkpt lat="48.67916" lon="5.85937">
        <ele>238.5</ele>
        <time>2020-06-29T15:49:44Z</time>
      </trkpt>
      <trkpt lat="48.67915" lon="5.85935">
        <ele>238.5</ele>
        <time>2020-06-29T15:49:45Z</time>
      </trkpt>
      <trkpt lat="48.67914" lon="5.85932">
        <ele>238.5</ele>
        <time>2020-06-29T15:49:46Z</time>
      </trkpt>
      <trkpt lat="48.67913" lon="5.8593">
        <ele>238.5</ele>
        <time>2020-06-29T15:49:47Z</time>
      </trkpt>
      <trkpt lat="48.67913" lon="5.85928">
        <ele>238.5</ele>
        <time>2020-06-29T15:49:48Z</time>
      </trkpt>
      <trkpt lat="48.67911" lon="5.85922">
        <ele>238.5</ele>
        <time>2020-06-29T15:49:49Z</time>
      </trkpt>
      <trkpt lat="48.67911" lon="5.85919">
        <ele>238.5</ele>
        <time>2020-06-29T15:49:50Z</time>
      </trkpt>
      <trkpt lat="48.6791" lon="5.85915">
        <ele>238.5</ele>
        <time>2020-06-29T15:49:51Z</time>
      </trkpt>
      <trkpt lat="48.67909" lon="5.85911">
        <ele>238.5</ele>
        <time>2020-06-29T15:49:52Z</time>
      </trkpt>
      <trkpt lat="48.67908" lon="5.85905">
        <ele>238.5</ele>
        <time>2020-06-29T15:49:53Z</time>
      </trkpt>
      <trkpt lat="48.67907" lon="5.85899">
        <ele>238.5</ele>
        <time>2020-06-29T15:49:54Z</time>
      </trkpt>
      <trkpt lat="48.67906" lon="5.85894">
        <ele>238.4</ele>
        <time>2020-06-29T15:49:55Z</time>
      </trkpt>
      <trkpt lat="48.67906" lon="5.85888">
        <ele>238.4</ele>
        <time>2020-06-29T15:49:56Z</time>
      </trkpt>
      <trkpt lat="48.67906" lon="5.85884">
        <ele>238.4</ele>
        <time>2020-06-29T15:49:57Z</time>
      </trkpt>
      <trkpt lat="48.67905" lon="5.85879">
        <ele>238.4</ele>
        <time>2020-06-29T15:49:58Z</time>
      </trkpt>
      <trkpt lat="48.67905" lon="5.85873">
        <ele>238.4</ele>
        <time>2020-06-29T15:49:59Z</time>
      </trkpt>
      <trkpt lat="48.67903" lon="5.85867">
        <ele>238.4</ele>
        <time>2020-06-29T15:50:00Z</time>
      </trkpt>
      <trkpt lat="48.67902" lon="5.85861">
        <ele>238.4</ele>
        <time>2020-06-29T15:50:01Z</time>
      </trkpt>
      <trkpt lat="48.67901" lon="5.85855">
        <ele>238.4</ele>
        <time>2020-06-29T15:50:02Z</time>
      </trkpt>
      <trkpt lat="48.679" lon="5.85849">
        <ele>238.4</ele>
        <time>2020-06-29T15:50:03Z</time>
      </trkpt>
      <trkpt lat="48.67899" lon="5.85844">
        <ele>238.3</ele>
        <time>2020-06-29T15:50:04Z</time>
      </trkpt>
      <trkpt lat="48.67898" lon="5.85836">
        <ele>238.3</ele>
        <time>2020-06-29T15:50:05Z</time>
      </trkpt>
      <trkpt lat="48.67896" lon="5.8583">
        <ele>238.3</ele>
        <time>2020-06-29T15:50:06Z</time>
      </trkpt>
      <trkpt lat="48.67895" lon="5.85823">
        <ele>238.3</ele>
        <time>2020-06-29T15:50:07Z</time>
      </trkpt>
      <trkpt lat="48.67894" lon="5.85818">
        <ele>238.3</ele>
        <time>2020-06-29T15:50:08Z</time>
      </trkpt>
      <trkpt lat="48.67892" lon="5.85812">
        <ele>238.2</ele>
        <time>2020-06-29T15:50:09Z</time>
      </trkpt>
      <trkpt lat="48.67893" lon="5.85807">
        <ele>238.2</ele>
        <time>2020-06-29T15:50:10Z</time>
      </trkpt>
      <trkpt lat="48.67891" lon="5.85801">
        <ele>238.2</ele>
        <time>2020-06-29T15:50:11Z</time>
      </trkpt>
      <trkpt lat="48.6789" lon="5.85795">
        <ele>238.1</ele>
        <time>2020-06-29T15:50:12Z</time>
      </trkpt>
      <trkpt lat="48.67888" lon="5.85789">
        <ele>238.1</ele>
        <time>2020-06-29T15:50:13Z</time>
      </trkpt>
      <trkpt lat="48.67886" lon="5.85782">
        <ele>238.1</ele>
        <time>2020-06-29T15:50:14Z</time>
      </trkpt>
      <trkpt lat="48.67885" lon="5.85775">
        <ele>238</ele>
        <time>2020-06-29T15:50:15Z</time>
      </trkpt>
      <trkpt lat="48.67883" lon="5.85768">
        <ele>238</ele>
        <time>2020-06-29T15:50:16Z</time>
      </trkpt>
      <trkpt lat="48.67882" lon="5.85762">
        <ele>238</ele>
        <time>2020-06-29T15:50:17Z</time>
      </trkpt>
      <trkpt lat="48.6788" lon="5.85756">
        <ele>237.9</ele>
        <time>2020-06-29T15:50:18Z</time>
      </trkpt>
      <trkpt lat="48.67879" lon="5.85751">
        <ele>237.9</ele>
        <time>2020-06-29T15:50:19Z</time>
      </trkpt>
      <trkpt lat="48.6788" lon="5.85744">
        <ele>237.8</ele>
        <time>2020-06-29T15:50:20Z</time>
      </trkpt>
      <trkpt lat="48.67879" lon="5.85738">
        <ele>237.8</ele>
        <time>2020-06-29T15:50:21Z</time>
      </trkpt>
      <trkpt lat="48.67877" lon="5.85732">
        <ele>237.7</ele>
        <time>2020-06-29T15:50:22Z</time>
      </trkpt>
      <trkpt lat="48.67876" lon="5.85726">
        <ele>237.7</ele>
        <time>2020-06-29T15:50:23Z</time>
      </trkpt>
      <trkpt lat="48.67875" lon="5.8572">
        <ele>237.6</ele>
        <time>2020-06-29T15:50:24Z</time>
      </trkpt>
      <trkpt lat="48.67874" lon="5.85715">
        <ele>237.6</ele>
        <time>2020-06-29T15:50:25Z</time>
      </trkpt>
      <trkpt lat="48.67873" lon="5.85709">
        <ele>237.6</ele>
        <time>2020-06-29T15:50:26Z</time>
      </trkpt>
      <trkpt lat="48.67872" lon="5.85702">
        <ele>237.5</ele>
        <time>2020-06-29T15:50:27Z</time>
      </trkpt>
      <trkpt lat="48.67871" lon="5.85697">
        <ele>237.5</ele>
        <time>2020-06-29T15:50:28Z</time>
      </trkpt>
      <trkpt lat="48.6787" lon="5.85691">
        <ele>237.4</ele>
        <time>2020-06-29T15:50:29Z</time>
      </trkpt>
      <trkpt lat="48.67869" lon="5.85684">
        <ele>237.3</ele>
        <time>2020-06-29T15:50:30Z</time>
      </trkpt>
      <trkpt lat="48.67867" lon="5.85677">
        <ele>237.3</ele>
        <time>2020-06-29T15:50:31Z</time>
      </trkpt>
      <trkpt lat="48.67866" lon="5.8567">
        <ele>237.2</ele>
        <time>2020-06-29T15:50:32Z</time>
      </trkpt>
      <trkpt lat="48.67865" lon="5.85665">
        <ele>237.2</ele>
        <time>2020-06-29T15:50:33Z</time>
      </trkpt>
      <trkpt lat="48.67863" lon="5.85657">
        <ele>237.1</ele>
        <time>2020-06-29T15:50:34Z</time>
      </trkpt>
      <trkpt lat="48.67862" lon="5.8565">
        <ele>237.1</ele>
        <time>2020-06-29T15:50:35Z</time>
      </trkpt>
      <trkpt lat="48.6786" lon="5.85642">
        <ele>237.1</ele>
        <time>2020-06-29T15:50:36Z</time>
      </trkpt>
      <trkpt lat="48.67859" lon="5.85635">
        <ele>237</ele>
        <time>2020-06-29T15:50:37Z</time>
      </trkpt>
      <trkpt lat="48.67857" lon="5.85629">
        <ele>237</ele>
        <time>2020-06-29T15:50:38Z</time>
      </trkpt>
      <trkpt lat="48.67856" lon="5.85622">
        <ele>237</ele>
        <time>2020-06-29T15:50:39Z</time>
      </trkpt>
      <trkpt lat="48.67854" lon="5.85616">
        <ele>237</ele>
        <time>2020-06-29T15:50:40Z</time>
      </trkpt>
      <trkpt lat="48.67853" lon="5.8561">
        <ele>237</ele>
        <time>2020-06-29T15:50:41Z</time>
      </trkpt>
      <trkpt lat="48.67852" lon="5.85604">
        <ele>237</ele>
        <time>2020-06-29T15:50:42Z</time>
      </trkpt>
      <trkpt lat="48.6785" lon="5.85598">
        <ele>237</ele>
        <time>2020-06-29T15:50:43Z</time>
      </trkpt>
      <trkpt lat="48.67849" lon="5.85591">
        <ele>236.9</ele>
        <time>2020-06-29T15:50:44Z</time>
      </trkpt>
      <trkpt lat="48.67848" lon="5.85583">
        <ele>236.8</ele>
        <time>2020-06-29T15:50:45Z</time>
      </trkpt>
      <trkpt lat="48.67847" lon="5.85577">
        <ele>236.8</ele>
        <time>2020-06-29T15:50:46Z</time>
      </trkpt>
      <trkpt lat="48.67846" lon="5.8557">
        <ele>236.7</ele>
        <time>2020-06-29T15:50:47Z</time>
      </trkpt>
      <trkpt lat="48.67844" lon="5.85565">
        <ele>236.7</ele>
        <time>2020-06-29T15:50:48Z</time>
      </trkpt>
      <trkpt lat="48.67843" lon="5.85557">
        <ele>236.6</ele>
        <time>2020-06-29T15:50:49Z</time>
      </trkpt>
      <trkpt lat="48.67841" lon="5.8555">
        <ele>236.5</ele>
        <time>2020-06-29T15:50:50Z</time>
      </trkpt>
      <trkpt lat="48.6784" lon="5.85544">
        <ele>236.5</ele>
        <time>2020-06-29T15:50:51Z</time>
      </trkpt>
      <trkpt lat="48.67839" lon="5.85537">
        <ele>236.5</ele>
        <time>2020-06-29T15:50:52Z</time>
      </trkpt>
      <trkpt lat="48.67837" lon="5.85528">
        <ele>236.5</ele>
        <time>2020-06-29T15:50:53Z</time>
      </trkpt>
      <trkpt lat="48.67835" lon="5.85521">
        <ele>236.4</ele>
        <time>2020-06-29T15:50:54Z</time>
      </trkpt>
      <trkpt lat="48.67834" lon="5.85514">
        <ele>236.4</ele>
        <time>2020-06-29T15:50:55Z</time>
      </trkpt>
      <trkpt lat="48.67832" lon="5.85507">
        <ele>236.4</ele>
        <time>2020-06-29T15:50:56Z</time>
      </trkpt>
      <trkpt lat="48.67831" lon="5.85501">
        <ele>236.4</ele>
        <time>2020-06-29T15:50:57Z</time>
      </trkpt>
      <trkpt lat="48.6783" lon="5.85494">
        <ele>236.4</ele>
        <time>2020-06-29T15:50:58Z</time>
      </trkpt>
      <trkpt lat="48.67828" lon="5.85488">
        <ele>236.3</ele>
        <time>2020-06-29T15:50:59Z</time>
      </trkpt>
      <trkpt lat="48.67827" lon="5.85482">
        <ele>236.3</ele>
        <time>2020-06-29T15:51:00Z</time>
      </trkpt>
      <trkpt lat="48.67826" lon="5.85475">
        <ele>236.3</ele>
        <time>2020-06-29T15:51:01Z</time>
      </trkpt>
      <trkpt lat="48.67824" lon="5.85469">
        <ele>236.2</ele>
        <time>2020-06-29T15:51:02Z</time>
      </trkpt>
      <trkpt lat="48.67823" lon="5.85461">
        <ele>236.1</ele>
        <time>2020-06-29T15:51:03Z</time>
      </trkpt>
      <trkpt lat="48.67821" lon="5.85452">
        <ele>236</ele>
        <time>2020-06-29T15:51:04Z</time>
      </trkpt>
      <trkpt lat="48.6782" lon="5.85443">
        <ele>235.9</ele>
        <time>2020-06-29T15:51:05Z</time>
      </trkpt>
      <trkpt lat="48.67819" lon="5.85436">
        <ele>235.8</ele>
        <time>2020-06-29T15:51:06Z</time>
      </trkpt>
      <trkpt lat="48.67818" lon="5.85427">
        <ele>235.6</ele>
        <time>2020-06-29T15:51:07Z</time>
      </trkpt>
      <trkpt lat="48.67816" lon="5.85419">
        <ele>235.5</ele>
        <time>2020-06-29T15:51:08Z</time>
      </trkpt>
      <trkpt lat="48.67816" lon="5.85409">
        <ele>235.3</ele>
        <time>2020-06-29T15:51:09Z</time>
      </trkpt>
      <trkpt lat="48.67815" lon="5.85401">
        <ele>235.1</ele>
        <time>2020-06-29T15:51:10Z</time>
      </trkpt>
      <trkpt lat="48.67815" lon="5.85395">
        <ele>235</ele>
        <time>2020-06-29T15:51:11Z</time>
      </trkpt>
      <trkpt lat="48.67815" lon="5.85387">
        <ele>234.8</ele>
        <time>2020-06-29T15:51:12Z</time>
      </trkpt>
      <trkpt lat="48.67814" lon="5.85379">
        <ele>234.5</ele>
        <time>2020-06-29T15:51:13Z</time>
      </trkpt>
      <trkpt lat="48.67814" lon="5.8537">
        <ele>234.2</ele>
        <time>2020-06-29T15:51:14Z</time>
      </trkpt>
      <trkpt lat="48.67814" lon="5.85361">
        <ele>234</ele>
        <time>2020-06-29T15:51:15Z</time>
      </trkpt>
      <trkpt lat="48.67813" lon="5.85352">
        <ele>233.7</ele>
        <time>2020-06-29T15:51:16Z</time>
      </trkpt>
      <trkpt lat="48.67814" lon="5.8534">
        <ele>233.3</ele>
        <time>2020-06-29T15:51:17Z</time>
      </trkpt>
      <trkpt lat="48.67814" lon="5.8533">
        <ele>232.9</ele>
        <time>2020-06-29T15:51:18Z</time>
      </trkpt>
      <trkpt lat="48.67814" lon="5.85322">
        <ele>232.6</ele>
        <time>2020-06-29T15:51:19Z</time>
      </trkpt>
      <trkpt lat="48.67815" lon="5.85312">
        <ele>232.2</ele>
        <time>2020-06-29T15:51:20Z</time>
      </trkpt>
      <trkpt lat="48.67816" lon="5.85303">
        <ele>231.9</ele>
        <time>2020-06-29T15:51:21Z</time>
      </trkpt>
      <trkpt lat="48.67817" lon="5.85293">
        <ele>231.5</ele>
        <time>2020-06-29T15:51:22Z</time>
      </trkpt>
      <trkpt lat="48.67817" lon="5.85284">
        <ele>230.9</ele>
        <time>2020-06-29T15:51:23Z</time>
      </trkpt>
      <trkpt lat="48.67818" lon="5.85275">
        <ele>230.3</ele>
        <time>2020-06-29T15:51:24Z</time>
      </trkpt>
      <trkpt lat="48.6782" lon="5.85266">
        <ele>229.7</ele>
        <time>2020-06-29T15:51:25Z</time>
      </trkpt>
      <trkpt lat="48.67821" lon="5.85256">
        <ele>229</ele>
        <time>2020-06-29T15:51:26Z</time>
      </trkpt>
      <trkpt lat="48.67823" lon="5.85247">
        <ele>228.4</ele>
        <time>2020-06-29T15:51:27Z</time>
      </trkpt>
      <trkpt lat="48.67825" lon="5.85238">
        <ele>227.9</ele>
        <time>2020-06-29T15:51:28Z</time>
      </trkpt>
      <trkpt lat="48.67827" lon="5.85227">
        <ele>227.2</ele>
        <time>2020-06-29T15:51:29Z</time>
      </trkpt>
      <trkpt lat="48.67829" lon="5.85218">
        <ele>226.6</ele>
        <time>2020-06-29T15:51:30Z</time>
      </trkpt>
      <trkpt lat="48.67832" lon="5.85208">
        <ele>226</ele>
        <time>2020-06-29T15:51:31Z</time>
      </trkpt>
      <trkpt lat="48.67834" lon="5.85198">
        <ele>225.8</ele>
        <time>2020-06-29T15:51:32Z</time>
      </trkpt>
      <trkpt lat="48.67837" lon="5.85189">
        <ele>225.6</ele>
        <time>2020-06-29T15:51:33Z</time>
      </trkpt>
      <trkpt lat="48.6784" lon="5.85179">
        <ele>225.4</ele>
        <time>2020-06-29T15:51:34Z</time>
      </trkpt>
      <trkpt lat="48.67843" lon="5.85169">
        <ele>225.2</ele>
        <time>2020-06-29T15:51:35Z</time>
      </trkpt>
      <trkpt lat="48.67847" lon="5.8516">
        <ele>225.2</ele>
        <time>2020-06-29T15:51:36Z</time>
      </trkpt>
      <trkpt lat="48.6785" lon="5.85151">
        <ele>225.2</ele>
        <time>2020-06-29T15:51:37Z</time>
      </trkpt>
      <trkpt lat="48.67855" lon="5.85142">
        <ele>225.3</ele>
        <time>2020-06-29T15:51:38Z</time>
      </trkpt>
      <trkpt lat="48.67858" lon="5.85133">
        <ele>225.3</ele>
        <time>2020-06-29T15:51:39Z</time>
      </trkpt>
      <trkpt lat="48.67862" lon="5.85125">
        <ele>225.4</ele>
        <time>2020-06-29T15:51:40Z</time>
      </trkpt>
      <trkpt lat="48.67865" lon="5.85117">
        <ele>225.5</ele>
        <time>2020-06-29T15:51:41Z</time>
      </trkpt>
      <trkpt lat="48.67868" lon="5.85109">
        <ele>225.5</ele>
        <time>2020-06-29T15:51:42Z</time>
      </trkpt>
      <trkpt lat="48.67871" lon="5.851">
        <ele>225.6</ele>
        <time>2020-06-29T15:51:43Z</time>
      </trkpt>
      <trkpt lat="48.67874" lon="5.85092">
        <ele>225.7</ele>
        <time>2020-06-29T15:51:44Z</time>
      </trkpt>
      <trkpt lat="48.67876" lon="5.85084">
        <ele>225.8</ele>
        <time>2020-06-29T15:51:45Z</time>
      </trkpt>
      <trkpt lat="48.67878" lon="5.85076">
        <ele>225.9</ele>
        <time>2020-06-29T15:51:46Z</time>
      </trkpt>
      <trkpt lat="48.67881" lon="5.85068">
        <ele>226</ele>
        <time>2020-06-29T15:51:47Z</time>
      </trkpt>
      <trkpt lat="48.67883" lon="5.8506">
        <ele>226.1</ele>
        <time>2020-06-29T15:51:48Z</time>
      </trkpt>
      <trkpt lat="48.67886" lon="5.85053">
        <ele>226.3</ele>
        <time>2020-06-29T15:51:49Z</time>
      </trkpt>
      <trkpt lat="48.67888" lon="5.85045">
        <ele>226.5</ele>
        <time>2020-06-29T15:51:50Z</time>
      </trkpt>
      <trkpt lat="48.6789" lon="5.85039">
        <ele>226.7</ele>
        <time>2020-06-29T15:51:51Z</time>
      </trkpt>
      <trkpt lat="48.67893" lon="5.85032">
        <ele>226.9</ele>
        <time>2020-06-29T15:51:52Z</time>
      </trkpt>
      <trkpt lat="48.67895" lon="5.85026">
        <ele>227.1</ele>
        <time>2020-06-29T15:51:53Z</time>
      </trkpt>
      <trkpt lat="48.67896" lon="5.85019">
        <ele>227.3</ele>
        <time>2020-06-29T15:51:54Z</time>
      </trkpt>
      <trkpt lat="48.67898" lon="5.85013">
        <ele>227.5</ele>
        <time>2020-06-29T15:51:55Z</time>
      </trkpt>
      <trkpt lat="48.67899" lon="5.85007">
        <ele>227.7</ele>
        <time>2020-06-29T15:51:56Z</time>
      </trkpt>
      <trkpt lat="48.679" lon="5.85001">
        <ele>227.9</ele>
        <time>2020-06-29T15:51:57Z</time>
      </trkpt>
      <trkpt lat="48.67901" lon="5.84995">
        <ele>228</ele>
        <time>2020-06-29T15:51:58Z</time>
      </trkpt>
      <trkpt lat="48.67901" lon="5.84989">
        <ele>228.1</ele>
        <time>2020-06-29T15:51:59Z</time>
      </trkpt>
      <trkpt lat="48.67902" lon="5.84982">
        <ele>228.2</ele>
        <time>2020-06-29T15:52:00Z</time>
      </trkpt>
      <trkpt lat="48.67902" lon="5.84976">
        <ele>228.2</ele>
        <time>2020-06-29T15:52:01Z</time>
      </trkpt>
      <trkpt lat="48.67903" lon="5.8497">
        <ele>228.2</ele>
        <time>2020-06-29T15:52:02Z</time>
      </trkpt>
      <trkpt lat="48.67902" lon="5.84964">
        <ele>228.2</ele>
        <time>2020-06-29T15:52:03Z</time>
      </trkpt>
      <trkpt lat="48.67903" lon="5.84958">
        <ele>228.2</ele>
        <time>2020-06-29T15:52:04Z</time>
      </trkpt>
      <trkpt lat="48.67903" lon="5.84952">
        <ele>228.2</ele>
        <time>2020-06-29T15:52:05Z</time>
      </trkpt>
      <trkpt lat="48.67903" lon="5.84946">
        <ele>228.2</ele>
        <time>2020-06-29T15:52:06Z</time>
      </trkpt>
      <trkpt lat="48.67904" lon="5.84939">
        <ele>228.1</ele>
        <time>2020-06-29T15:52:07Z</time>
      </trkpt>
      <trkpt lat="48.67903" lon="5.84933">
        <ele>228.1</ele>
        <time>2020-06-29T15:52:08Z</time>
      </trkpt>
      <trkpt lat="48.67903" lon="5.84925">
        <ele>228</ele>
        <time>2020-06-29T15:52:09Z</time>
      </trkpt>
      <trkpt lat="48.67902" lon="5.84917">
        <ele>227.9</ele>
        <time>2020-06-29T15:52:10Z</time>
      </trkpt>
      <trkpt lat="48.67901" lon="5.84909">
        <ele>227.8</ele>
        <time>2020-06-29T15:52:11Z</time>
      </trkpt>
      <trkpt lat="48.67901" lon="5.849">
        <ele>227.7</ele>
        <time>2020-06-29T15:52:12Z</time>
      </trkpt>
      <trkpt lat="48.679" lon="5.84892">
        <ele>227.6</ele>
        <time>2020-06-29T15:52:13Z</time>
      </trkpt>
      <trkpt lat="48.67899" lon="5.84883">
        <ele>227.5</ele>
        <time>2020-06-29T15:52:14Z</time>
      </trkpt>
      <trkpt lat="48.67898" lon="5.84874">
        <ele>227.5</ele>
        <time>2020-06-29T15:52:15Z</time>
      </trkpt>
      <trkpt lat="48.67898" lon="5.84865">
        <ele>227.4</ele>
        <time>2020-06-29T15:52:16Z</time>
      </trkpt>
      <trkpt lat="48.67897" lon="5.84856">
        <ele>227.4</ele>
        <time>2020-06-29T15:52:17Z</time>
      </trkpt>
      <trkpt lat="48.67895" lon="5.84848">
        <ele>227.4</ele>
        <time>2020-06-29T15:52:18Z</time>
      </trkpt>
      <trkpt lat="48.67895" lon="5.8484">
        <ele>227.4</ele>
        <time>2020-06-29T15:52:19Z</time>
      </trkpt>
      <trkpt lat="48.67895" lon="5.84832">
        <ele>227.5</ele>
        <time>2020-06-29T15:52:20Z</time>
      </trkpt>
      <trkpt lat="48.67895" lon="5.84823">
        <ele>227.6</ele>
        <time>2020-06-29T15:52:21Z</time>
      </trkpt>
      <trkpt lat="48.67894" lon="5.84815">
        <ele>227.6</ele>
        <time>2020-06-29T15:52:22Z</time>
      </trkpt>
      <trkpt lat="48.67893" lon="5.84807">
        <ele>227.7</ele>
        <time>2020-06-29T15:52:23Z</time>
      </trkpt>
      <trkpt lat="48.67893" lon="5.84798">
        <ele>227.8</ele>
        <time>2020-06-29T15:52:24Z</time>
      </trkpt>
      <trkpt lat="48.67893" lon="5.8479">
        <ele>227.9</ele>
        <time>2020-06-29T15:52:25Z</time>
      </trkpt>
      <trkpt lat="48.67893" lon="5.84782">
        <ele>228.1</ele>
        <time>2020-06-29T15:52:26Z</time>
      </trkpt>
      <trkpt lat="48.67893" lon="5.84775">
        <ele>228.2</ele>
        <time>2020-06-29T15:52:27Z</time>
      </trkpt>
      <trkpt lat="48.67893" lon="5.84767">
        <ele>228.4</ele>
        <time>2020-06-29T15:52:28Z</time>
      </trkpt>
      <trkpt lat="48.67893" lon="5.8476">
        <ele>228.5</ele>
        <time>2020-06-29T15:52:29Z</time>
      </trkpt>
      <trkpt lat="48.67893" lon="5.84753">
        <ele>228.7</ele>
        <time>2020-06-29T15:52:30Z</time>
      </trkpt>
      <trkpt lat="48.67893" lon="5.84747">
        <ele>228.9</ele>
        <time>2020-06-29T15:52:31Z</time>
      </trkpt>
      <trkpt lat="48.67894" lon="5.84741">
        <ele>229</ele>
        <time>2020-06-29T15:52:32Z</time>
      </trkpt>
      <trkpt lat="48.67895" lon="5.84735">
        <ele>229.2</ele>
        <time>2020-06-29T15:52:33Z</time>
      </trkpt>
      <trkpt lat="48.67895" lon="5.84729">
        <ele>229.4</ele>
        <time>2020-06-29T15:52:34Z</time>
      </trkpt>
      <trkpt lat="48.67896" lon="5.84723">
        <ele>229.6</ele>
        <time>2020-06-29T15:52:35Z</time>
      </trkpt>
      <trkpt lat="48.67896" lon="5.84717">
        <ele>229.8</ele>
        <time>2020-06-29T15:52:36Z</time>
      </trkpt>
      <trkpt lat="48.67896" lon="5.84712">
        <ele>229.9</ele>
        <time>2020-06-29T15:52:37Z</time>
      </trkpt>
      <trkpt lat="48.67896" lon="5.84706">
        <ele>230.1</ele>
        <time>2020-06-29T15:52:38Z</time>
      </trkpt>
      <trkpt lat="48.67896" lon="5.84701">
        <ele>230.3</ele>
        <time>2020-06-29T15:52:39Z</time>
      </trkpt>
      <trkpt lat="48.67896" lon="5.84696">
        <ele>230.4</ele>
        <time>2020-06-29T15:52:40Z</time>
      </trkpt>
      <trkpt lat="48.67897" lon="5.84692">
        <ele>230.6</ele>
        <time>2020-06-29T15:52:41Z</time>
      </trkpt>
      <trkpt lat="48.67898" lon="5.84687">
        <ele>230.7</ele>
        <time>2020-06-29T15:52:42Z</time>
      </trkpt>
      <trkpt lat="48.67899" lon="5.84683">
        <ele>230.9</ele>
        <time>2020-06-29T15:52:43Z</time>
      </trkpt>
      <trkpt lat="48.679" lon="5.84678">
        <ele>231</ele>
        <time>2020-06-29T15:52:44Z</time>
      </trkpt>
      <trkpt lat="48.679" lon="5.84673">
        <ele>231.2</ele>
        <time>2020-06-29T15:52:45Z</time>
      </trkpt>
      <trkpt lat="48.67901" lon="5.84669">
        <ele>231.5</ele>
        <time>2020-06-29T15:52:46Z</time>
      </trkpt>
      <trkpt lat="48.67903" lon="5.84664">
        <ele>231.6</ele>
        <time>2020-06-29T15:52:47Z</time>
      </trkpt>
      <trkpt lat="48.67904" lon="5.8466">
        <ele>231.7</ele>
        <time>2020-06-29T15:52:48Z</time>
      </trkpt>
      <trkpt lat="48.67905" lon="5.84654">
        <ele>231.9</ele>
        <time>2020-06-29T15:52:49Z</time>
      </trkpt>
      <trkpt lat="48.67906" lon="5.84648">
        <ele>232.1</ele>
        <time>2020-06-29T15:52:50Z</time>
      </trkpt>
      <trkpt lat="48.67907" lon="5.84641">
        <ele>232.3</ele>
        <time>2020-06-29T15:52:51Z</time>
      </trkpt>
      <trkpt lat="48.67908" lon="5.84639">
        <ele>232.4</ele>
        <time>2020-06-29T15:52:52Z</time>
      </trkpt>
      <trkpt lat="48.67909" lon="5.84634">
        <ele>232.5</ele>
        <time>2020-06-29T15:52:53Z</time>
      </trkpt>
      <trkpt lat="48.6791" lon="5.84629">
        <ele>232.6</ele>
        <time>2020-06-29T15:52:54Z</time>
      </trkpt>
      <trkpt lat="48.67912" lon="5.84624">
        <ele>232.8</ele>
        <time>2020-06-29T15:52:55Z</time>
      </trkpt>
      <trkpt lat="48.67913" lon="5.84622">
        <ele>232.9</ele>
        <time>2020-06-29T15:52:56Z</time>
      </trkpt>
      <trkpt lat="48.67916" lon="5.84616">
        <ele>233</ele>
        <time>2020-06-29T15:52:57Z</time>
      </trkpt>
      <trkpt lat="48.67916" lon="5.84614">
        <ele>233.1</ele>
        <time>2020-06-29T15:52:58Z</time>
      </trkpt>
      <trkpt lat="48.67918" lon="5.84608">
        <ele>233.3</ele>
        <time>2020-06-29T15:52:59Z</time>
      </trkpt>
      <trkpt lat="48.6792" lon="5.84603">
        <ele>233.4</ele>
        <time>2020-06-29T15:53:00Z</time>
      </trkpt>
      <trkpt lat="48.67921" lon="5.84597">
        <ele>233.5</ele>
        <time>2020-06-29T15:53:01Z</time>
      </trkpt>
      <trkpt lat="48.67922" lon="5.84595">
        <ele>233.6</ele>
        <time>2020-06-29T15:53:02Z</time>
      </trkpt>
      <trkpt lat="48.67924" lon="5.8459">
        <ele>233.8</ele>
        <time>2020-06-29T15:53:03Z</time>
      </trkpt>
      <trkpt lat="48.67925" lon="5.84587">
        <ele>233.8</ele>
        <time>2020-06-29T15:53:04Z</time>
      </trkpt>
      <trkpt lat="48.67926" lon="5.84584">
        <ele>233.9</ele>
        <time>2020-06-29T15:53:05Z</time>
      </trkpt>
      <trkpt lat="48.67927" lon="5.84579">
        <ele>234</ele>
        <time>2020-06-29T15:53:06Z</time>
      </trkpt>
      <trkpt lat="48.67929" lon="5.84575">
        <ele>234.1</ele>
        <time>2020-06-29T15:53:07Z</time>
      </trkpt>
      <trkpt lat="48.67931" lon="5.84568">
        <ele>234.2</ele>
        <time>2020-06-29T15:53:08Z</time>
      </trkpt>
      <trkpt lat="48.67932" lon="5.84565">
        <ele>234.2</ele>
        <time>2020-06-29T15:53:09Z</time>
      </trkpt>
      <trkpt lat="48.67933" lon="5.8456">
        <ele>234.3</ele>
        <time>2020-06-29T15:53:10Z</time>
      </trkpt>
      <trkpt lat="48.67934" lon="5.84555">
        <ele>234.4</ele>
        <time>2020-06-29T15:53:11Z</time>
      </trkpt>
      <trkpt lat="48.67935" lon="5.84553">
        <ele>234.4</ele>
        <time>2020-06-29T15:53:12Z</time>
      </trkpt>
      <trkpt lat="48.67936" lon="5.84547">
        <ele>234.5</ele>
        <time>2020-06-29T15:53:13Z</time>
      </trkpt>
      <trkpt lat="48.67937" lon="5.84543">
        <ele>234.6</ele>
        <time>2020-06-29T15:53:14Z</time>
      </trkpt>
      <trkpt lat="48.67939" lon="5.84536">
        <ele>234.6</ele>
        <time>2020-06-29T15:53:15Z</time>
      </trkpt>
      <trkpt lat="48.67941" lon="5.84531">
        <ele>234.7</ele>
        <time>2020-06-29T15:53:16Z</time>
      </trkpt>
      <trkpt lat="48.67943" lon="5.84527">
        <ele>234.7</ele>
        <time>2020-06-29T15:53:17Z</time>
      </trkpt>
      <trkpt lat="48.67944" lon="5.84523">
        <ele>234.7</ele>
        <time>2020-06-29T15:53:18Z</time>
      </trkpt>
      <trkpt lat="48.67946" lon="5.84519">
        <ele>234.8</ele>
        <time>2020-06-29T15:53:19Z</time>
      </trkpt>
      <trkpt lat="48.67947" lon="5.84513">
        <ele>234.8</ele>
        <time>2020-06-29T15:53:20Z</time>
      </trkpt>
      <trkpt lat="48.67948" lon="5.84508">
        <ele>234.9</ele>
        <time>2020-06-29T15:53:21Z</time>
      </trkpt>
      <trkpt lat="48.67949" lon="5.84502">
        <ele>234.9</ele>
        <time>2020-06-29T15:53:22Z</time>
      </trkpt>
      <trkpt lat="48.6795" lon="5.84498">
        <ele>234.9</ele>
        <time>2020-06-29T15:53:23Z</time>
      </trkpt>
      <trkpt lat="48.6795" lon="5.84493">
        <ele>235</ele>
        <time>2020-06-29T15:53:24Z</time>
      </trkpt>
      <trkpt lat="48.67952" lon="5.84487">
        <ele>235</ele>
        <time>2020-06-29T15:53:25Z</time>
      </trkpt>
      <trkpt lat="48.67953" lon="5.84483">
        <ele>235.1</ele>
        <time>2020-06-29T15:53:26Z</time>
      </trkpt>
      <trkpt lat="48.67953" lon="5.84477">
        <ele>235.1</ele>
        <time>2020-06-29T15:53:27Z</time>
      </trkpt>
      <trkpt lat="48.67953" lon="5.84473">
        <ele>235.2</ele>
        <time>2020-06-29T15:53:28Z</time>
      </trkpt>
      <trkpt lat="48.67954" lon="5.84468">
        <ele>235.2</ele>
        <time>2020-06-29T15:53:29Z</time>
      </trkpt>
      <trkpt lat="48.67954" lon="5.84464">
        <ele>235.3</ele>
        <time>2020-06-29T15:53:30Z</time>
      </trkpt>
      <trkpt lat="48.67954" lon="5.84458">
        <ele>235.3</ele>
        <time>2020-06-29T15:53:31Z</time>
      </trkpt>
      <trkpt lat="48.67955" lon="5.84453">
        <ele>235.3</ele>
        <time>2020-06-29T15:53:32Z</time>
      </trkpt>
      <trkpt lat="48.67954" lon="5.84447">
        <ele>235.4</ele>
        <time>2020-06-29T15:53:33Z</time>
      </trkpt>
      <trkpt lat="48.67954" lon="5.84441">
        <ele>235.4</ele>
        <time>2020-06-29T15:53:34Z</time>
      </trkpt>
      <trkpt lat="48.67953" lon="5.84435">
        <ele>235.5</ele>
        <time>2020-06-29T15:53:35Z</time>
      </trkpt>
      <trkpt lat="48.67952" lon="5.84431">
        <ele>235.5</ele>
        <time>2020-06-29T15:53:36Z</time>
      </trkpt>
      <trkpt lat="48.67951" lon="5.84426">
        <ele>235.6</ele>
        <time>2020-06-29T15:53:37Z</time>
      </trkpt>
      <trkpt lat="48.6795" lon="5.8442">
        <ele>235.6</ele>
        <time>2020-06-29T15:53:38Z</time>
      </trkpt>
      <trkpt lat="48.6795" lon="5.84416">
        <ele>235.7</ele>
        <time>2020-06-29T15:53:39Z</time>
      </trkpt>
      <trkpt lat="48.6795" lon="5.84411">
        <ele>235.7</ele>
        <time>2020-06-29T15:53:40Z</time>
      </trkpt>
      <trkpt lat="48.67948" lon="5.84406">
        <ele>235.8</ele>
        <time>2020-06-29T15:53:41Z</time>
      </trkpt>
      <trkpt lat="48.67947" lon="5.844">
        <ele>235.9</ele>
        <time>2020-06-29T15:53:42Z</time>
      </trkpt>
      <trkpt lat="48.67946" lon="5.84395">
        <ele>235.9</ele>
        <time>2020-06-29T15:53:43Z</time>
      </trkpt>
      <trkpt lat="48.67944" lon="5.84389">
        <ele>236</ele>
        <time>2020-06-29T15:53:44Z</time>
      </trkpt>
      <trkpt lat="48.67943" lon="5.84385">
        <ele>236</ele>
        <time>2020-06-29T15:53:45Z</time>
      </trkpt>
      <trkpt lat="48.6794" lon="5.8438">
        <ele>236.1</ele>
        <time>2020-06-29T15:53:46Z</time>
      </trkpt>
      <trkpt lat="48.67939" lon="5.84375">
        <ele>236.1</ele>
        <time>2020-06-29T15:53:47Z</time>
      </trkpt>
      <trkpt lat="48.67937" lon="5.8437">
        <ele>236.2</ele>
        <time>2020-06-29T15:53:48Z</time>
      </trkpt>
      <trkpt lat="48.67936" lon="5.84366">
        <ele>236.2</ele>
        <time>2020-06-29T15:53:49Z</time>
      </trkpt>
      <trkpt lat="48.67935" lon="5.84362">
        <ele>236.2</ele>
        <time>2020-06-29T15:53:50Z</time>
      </trkpt>
      <trkpt lat="48.67932" lon="5.84358">
        <ele>236.3</ele>
        <time>2020-06-29T15:53:51Z</time>
      </trkpt>
      <trkpt lat="48.67929" lon="5.84353">
        <ele>236.3</ele>
        <time>2020-06-29T15:53:52Z</time>
      </trkpt>
      <trkpt lat="48.67926" lon="5.84348">
        <ele>236.4</ele>
        <time>2020-06-29T15:53:53Z</time>
      </trkpt>
      <trkpt lat="48.67923" lon="5.84343">
        <ele>236.4</ele>
        <time>2020-06-29T15:53:54Z</time>
      </trkpt>
      <trkpt lat="48.67921" lon="5.84339">
        <ele>236.5</ele>
        <time>2020-06-29T15:53:55Z</time>
      </trkpt>
      <trkpt lat="48.67918" lon="5.84335">
        <ele>236.5</ele>
        <time>2020-06-29T15:53:56Z</time>
      </trkpt>
      <trkpt lat="48.67916" lon="5.84331">
        <ele>236.6</ele>
        <time>2020-06-29T15:53:57Z</time>
      </trkpt>
      <trkpt lat="48.67914" lon="5.84326">
        <ele>236.6</ele>
        <time>2020-06-29T15:53:58Z</time>
      </trkpt>
      <trkpt lat="48.67911" lon="5.84322">
        <ele>237.1</ele>
        <time>2020-06-29T15:53:59Z</time>
      </trkpt>
      <trkpt lat="48.67909" lon="5.84317">
        <ele>237.3</ele>
        <time>2020-06-29T15:54:00Z</time>
      </trkpt>
      <trkpt lat="48.67907" lon="5.84313">
        <ele>237.5</ele>
        <time>2020-06-29T15:54:01Z</time>
      </trkpt>
      <trkpt lat="48.67906" lon="5.8431">
        <ele>237.6</ele>
        <time>2020-06-29T15:54:02Z</time>
      </trkpt>
      <trkpt lat="48.67904" lon="5.84306">
        <ele>237.8</ele>
        <time>2020-06-29T15:54:03Z</time>
      </trkpt>
      <trkpt lat="48.67902" lon="5.84302">
        <ele>238</ele>
        <time>2020-06-29T15:54:04Z</time>
      </trkpt>
      <trkpt lat="48.679" lon="5.84297">
        <ele>238.3</ele>
        <time>2020-06-29T15:54:05Z</time>
      </trkpt>
      <trkpt lat="48.67899" lon="5.84295">
        <ele>238.3</ele>
        <time>2020-06-29T15:54:06Z</time>
      </trkpt>
      <trkpt lat="48.67898" lon="5.84292">
        <ele>238.5</ele>
        <time>2020-06-29T15:54:07Z</time>
      </trkpt>
      <trkpt lat="48.67898" lon="5.8429">
        <ele>238.6</ele>
        <time>2020-06-29T15:54:08Z</time>
      </trkpt>
      <trkpt lat="48.67898" lon="5.84288">
        <ele>238.6</ele>
        <time>2020-06-29T15:54:09Z</time>
      </trkpt>
      <trkpt lat="48.67898" lon="5.84285">
        <ele>238.8</ele>
        <time>2020-06-29T15:54:10Z</time>
      </trkpt>
      <trkpt lat="48.67898" lon="5.84283">
        <ele>238.9</ele>
        <time>2020-06-29T15:54:11Z</time>
      </trkpt>
      <trkpt lat="48.67898" lon="5.84281">
        <ele>238.9</ele>
        <time>2020-06-29T15:54:12Z</time>
      </trkpt>
      <trkpt lat="48.67898" lon="5.84279">
        <ele>239</ele>
        <time>2020-06-29T15:54:13Z</time>
      </trkpt>
      <trkpt lat="48.67898" lon="5.84279">
        <ele>239</ele>
        <time>2020-06-29T15:54:14Z</time>
      </trkpt>
      <trkpt lat="48.67899" lon="5.84277">
        <ele>239.1</ele>
        <time>2020-06-29T15:54:15Z</time>
      </trkpt>
      <trkpt lat="48.679" lon="5.84278">
        <ele>239.2</ele>
        <time>2020-06-29T15:54:16Z</time>
      </trkpt>
      <trkpt lat="48.67902" lon="5.84281">
        <ele>239.4</ele>
        <time>2020-06-29T15:54:17Z</time>
      </trkpt>
      <trkpt lat="48.67904" lon="5.84285">
        <ele>239.6</ele>
        <time>2020-06-29T15:54:18Z</time>
      </trkpt>
      <trkpt lat="48.67906" lon="5.84288">
        <ele>239.7</ele>
        <time>2020-06-29T15:54:19Z</time>
      </trkpt>
      <trkpt lat="48.67908" lon="5.84292">
        <ele>239.9</ele>
        <time>2020-06-29T15:54:20Z</time>
      </trkpt>
      <trkpt lat="48.67911" lon="5.84296">
        <ele>240.1</ele>
        <time>2020-06-29T15:54:21Z</time>
      </trkpt>
      <trkpt lat="48.67912" lon="5.84297">
        <ele>240.2</ele>
        <time>2020-06-29T15:54:22Z</time>
      </trkpt>
      <trkpt lat="48.67914" lon="5.84302">
        <ele>240.4</ele>
        <time>2020-06-29T15:54:23Z</time>
      </trkpt>
      <trkpt lat="48.67916" lon="5.84305">
        <ele>240.5</ele>
        <time>2020-06-29T15:54:24Z</time>
      </trkpt>
      <trkpt lat="48.67918" lon="5.84309">
        <ele>240.7</ele>
        <time>2020-06-29T15:54:25Z</time>
      </trkpt>
      <trkpt lat="48.67919" lon="5.84311">
        <ele>240.8</ele>
        <time>2020-06-29T15:54:26Z</time>
      </trkpt>
      <trkpt lat="48.67922" lon="5.84313">
        <ele>240.9</ele>
        <time>2020-06-29T15:54:27Z</time>
      </trkpt>
      <trkpt lat="48.67923" lon="5.84313">
        <ele>241</ele>
        <time>2020-06-29T15:54:28Z</time>
      </trkpt>
      <trkpt lat="48.67926" lon="5.84312">
        <ele>241.1</ele>
        <time>2020-06-29T15:54:29Z</time>
      </trkpt>
      <trkpt lat="48.67928" lon="5.84308">
        <ele>241.3</ele>
        <time>2020-06-29T15:54:30Z</time>
      </trkpt>
      <trkpt lat="48.67929" lon="5.84307">
        <ele>241.4</ele>
        <time>2020-06-29T15:54:31Z</time>
      </trkpt>
      <trkpt lat="48.67932" lon="5.84303">
        <ele>241.6</ele>
        <time>2020-06-29T15:54:32Z</time>
      </trkpt>
      <trkpt lat="48.67933" lon="5.84302">
        <ele>241.6</ele>
        <time>2020-06-29T15:54:33Z</time>
      </trkpt>
      <trkpt lat="48.67936" lon="5.84299">
        <ele>241.8</ele>
        <time>2020-06-29T15:54:34Z</time>
      </trkpt>
      <trkpt lat="48.67937" lon="5.84299">
        <ele>241.9</ele>
        <time>2020-06-29T15:54:35Z</time>
      </trkpt>
      <trkpt lat="48.67939" lon="5.84296">
        <ele>242.1</ele>
        <time>2020-06-29T15:54:36Z</time>
      </trkpt>
      <trkpt lat="48.67941" lon="5.8429">
        <ele>242.4</ele>
        <time>2020-06-29T15:54:37Z</time>
      </trkpt>
      <trkpt lat="48.67942" lon="5.84288">
        <ele>242.5</ele>
        <time>2020-06-29T15:54:38Z</time>
      </trkpt>
      <trkpt lat="48.67944" lon="5.84284">
        <ele>242.7</ele>
        <time>2020-06-29T15:54:39Z</time>
      </trkpt>
      <trkpt lat="48.67947" lon="5.8428">
        <ele>243</ele>
        <time>2020-06-29T15:54:40Z</time>
      </trkpt>
      <trkpt lat="48.67948" lon="5.84276">
        <ele>243.3</ele>
        <time>2020-06-29T15:54:41Z</time>
      </trkpt>
      <trkpt lat="48.6795" lon="5.84272">
        <ele>243.5</ele>
        <time>2020-06-29T15:54:42Z</time>
      </trkpt>
      <trkpt lat="48.67951" lon="5.84267">
        <ele>243.8</ele>
        <time>2020-06-29T15:54:43Z</time>
      </trkpt>
      <trkpt lat="48.67954" lon="5.84263">
        <ele>244.1</ele>
        <time>2020-06-29T15:54:44Z</time>
      </trkpt>
      <trkpt lat="48.67956" lon="5.84259">
        <ele>244.4</ele>
        <time>2020-06-29T15:54:45Z</time>
      </trkpt>
      <trkpt lat="48.67959" lon="5.84257">
        <ele>244.7</ele>
        <time>2020-06-29T15:54:46Z</time>
      </trkpt>
      <trkpt lat="48.67959" lon="5.84253">
        <ele>245</ele>
        <time>2020-06-29T15:54:47Z</time>
      </trkpt>
      <trkpt lat="48.67961" lon="5.84249">
        <ele>245.3</ele>
        <time>2020-06-29T15:54:48Z</time>
      </trkpt>
      <trkpt lat="48.67962" lon="5.84247">
        <ele>245.5</ele>
        <time>2020-06-29T15:54:49Z</time>
      </trkpt>
      <trkpt lat="48.67965" lon="5.84243">
        <ele>245.8</ele>
        <time>2020-06-29T15:54:50Z</time>
      </trkpt>
      <trkpt lat="48.67966" lon="5.8424">
        <ele>246.1</ele>
        <time>2020-06-29T15:54:51Z</time>
      </trkpt>
      <trkpt lat="48.67969" lon="5.84236">
        <ele>246.5</ele>
        <time>2020-06-29T15:54:52Z</time>
      </trkpt>
      <trkpt lat="48.6797" lon="5.84234">
        <ele>246.6</ele>
        <time>2020-06-29T15:54:53Z</time>
      </trkpt>
      <trkpt lat="48.67972" lon="5.8423">
        <ele>247</ele>
        <time>2020-06-29T15:54:54Z</time>
      </trkpt>
      <trkpt lat="48.67973" lon="5.84229">
        <ele>247.1</ele>
        <time>2020-06-29T15:54:55Z</time>
      </trkpt>
      <trkpt lat="48.67975" lon="5.84226">
        <ele>247.4</ele>
        <time>2020-06-29T15:54:56Z</time>
      </trkpt>
      <trkpt lat="48.67976" lon="5.84225">
        <ele>247.5</ele>
        <time>2020-06-29T15:54:57Z</time>
      </trkpt>
      <trkpt lat="48.67978" lon="5.84221">
        <ele>247.9</ele>
        <time>2020-06-29T15:54:58Z</time>
      </trkpt>
      <trkpt lat="48.67979" lon="5.8422">
        <ele>248</ele>
        <time>2020-06-29T15:54:59Z</time>
      </trkpt>
      <trkpt lat="48.67981" lon="5.84215">
        <ele>248.4</ele>
        <time>2020-06-29T15:55:00Z</time>
      </trkpt>
      <trkpt lat="48.67982" lon="5.84213">
        <ele>248.6</ele>
        <time>2020-06-29T15:55:01Z</time>
      </trkpt>
      <trkpt lat="48.67985" lon="5.8421">
        <ele>249.5</ele>
        <time>2020-06-29T15:55:02Z</time>
      </trkpt>
      <trkpt lat="48.67985" lon="5.84208">
        <ele>249.3</ele>
        <time>2020-06-29T15:55:03Z</time>
      </trkpt>
      <trkpt lat="48.67988" lon="5.84204">
        <ele>248.8</ele>
        <time>2020-06-29T15:55:04Z</time>
      </trkpt>
      <trkpt lat="48.67988" lon="5.84203">
        <ele>248.7</ele>
        <time>2020-06-29T15:55:05Z</time>
      </trkpt>
      <trkpt lat="48.67989" lon="5.84198">
        <ele>248.3</ele>
        <time>2020-06-29T15:55:06Z</time>
      </trkpt>
      <trkpt lat="48.67989" lon="5.84196">
        <ele>248</ele>
        <time>2020-06-29T15:55:07Z</time>
      </trkpt>
      <trkpt lat="48.67989" lon="5.8419">
        <ele>247.5</ele>
        <time>2020-06-29T15:55:08Z</time>
      </trkpt>
      <trkpt lat="48.67988" lon="5.84188">
        <ele>247.3</ele>
        <time>2020-06-29T15:55:09Z</time>
      </trkpt>
      <trkpt lat="48.67988" lon="5.84183">
        <ele>246.9</ele>
        <time>2020-06-29T15:55:10Z</time>
      </trkpt>
      <trkpt lat="48.67987" lon="5.8418">
        <ele>246.5</ele>
        <time>2020-06-29T15:55:11Z</time>
      </trkpt>
      <trkpt lat="48.67986" lon="5.84176">
        <ele>246.1</ele>
        <time>2020-06-29T15:55:12Z</time>
      </trkpt>
      <trkpt lat="48.67986" lon="5.84171">
        <ele>245.6</ele>
        <time>2020-06-29T15:55:13Z</time>
      </trkpt>
      <trkpt lat="48.67986" lon="5.84169">
        <ele>245.5</ele>
        <time>2020-06-29T15:55:14Z</time>
      </trkpt>
      <trkpt lat="48.67986" lon="5.84167">
        <ele>245.7</ele>
        <time>2020-06-29T15:55:15Z</time>
      </trkpt>
      <trkpt lat="48.67985" lon="5.84164">
        <ele>245.8</ele>
        <time>2020-06-29T15:55:16Z</time>
      </trkpt>
      <trkpt lat="48.67985" lon="5.84159">
        <ele>245.9</ele>
        <time>2020-06-29T15:55:17Z</time>
      </trkpt>
      <trkpt lat="48.67985" lon="5.84158">
        <ele>245.9</ele>
        <time>2020-06-29T15:55:18Z</time>
      </trkpt>
      <trkpt lat="48.67984" lon="5.84155">
        <ele>246</ele>
        <time>2020-06-29T15:55:19Z</time>
      </trkpt>
      <trkpt lat="48.67983" lon="5.84153">
        <ele>246</ele>
        <time>2020-06-29T15:55:20Z</time>
      </trkpt>
      <trkpt lat="48.67983" lon="5.84152">
        <ele>246.1</ele>
        <time>2020-06-29T15:55:21Z</time>
      </trkpt>
      <trkpt lat="48.67984" lon="5.84149">
        <ele>246.2</ele>
        <time>2020-06-29T15:55:22Z</time>
      </trkpt>
      <trkpt lat="48.67984" lon="5.84147">
        <ele>246.2</ele>
        <time>2020-06-29T15:55:23Z</time>
      </trkpt>
      <trkpt lat="48.67985" lon="5.84145">
        <ele>246.3</ele>
        <time>2020-06-29T15:55:24Z</time>
      </trkpt>
      <trkpt lat="48.67985" lon="5.84145">
        <ele>246.3</ele>
        <time>2020-06-29T15:55:25Z</time>
      </trkpt>
      <trkpt lat="48.67985" lon="5.84145">
        <ele>246.3</ele>
        <time>2020-06-29T15:55:26Z</time>
      </trkpt>
      <trkpt lat="48.67985" lon="5.84146">
        <ele>246.3</ele>
        <time>2020-06-29T15:55:27Z</time>
      </trkpt>
      <trkpt lat="48.67985" lon="5.84146">
        <ele>246.3</ele>
        <time>2020-06-29T15:55:28Z</time>
      </trkpt>
      <trkpt lat="48.67985" lon="5.84147">
        <ele>246.3</ele>
        <time>2020-06-29T15:55:29Z</time>
      </trkpt>
      <trkpt lat="48.67985" lon="5.84147">
        <ele>246.3</ele>
        <time>2020-06-29T15:55:30Z</time>
      </trkpt>
      <trkpt lat="48.67985" lon="5.84148">
        <ele>246.3</ele>
        <time>2020-06-29T15:55:31Z</time>
      </trkpt>
      <trkpt lat="48.67985" lon="5.84148">
        <ele>246.4</ele>
        <time>2020-06-29T15:55:32Z</time>
      </trkpt>
      <trkpt lat="48.67985" lon="5.84149">
        <ele>246.4</ele>
        <time>2020-06-29T15:55:33Z</time>
      </trkpt>
      <trkpt lat="48.67985" lon="5.84149">
        <ele>246.4</ele>
        <time>2020-06-29T15:55:34Z</time>
      </trkpt>
      <trkpt lat="48.67985" lon="5.8415">
        <ele>246.4</ele>
        <time>2020-06-29T15:55:35Z</time>
      </trkpt>
      <trkpt lat="48.67985" lon="5.8415">
        <ele>246.4</ele>
        <time>2020-06-29T15:55:36Z</time>
      </trkpt>
      <trkpt lat="48.67985" lon="5.84151">
        <ele>246.4</ele>
        <time>2020-06-29T15:55:37Z</time>
      </trkpt>
      <trkpt lat="48.67984" lon="5.84152">
        <ele>246.4</ele>
        <time>2020-06-29T15:55:38Z</time>
      </trkpt>
      <trkpt lat="48.67984" lon="5.84153">
        <ele>246.4</ele>
        <time>2020-06-29T15:55:39Z</time>
      </trkpt>
      <trkpt lat="48.67983" lon="5.84153">
        <ele>246.5</ele>
        <time>2020-06-29T15:55:40Z</time>
      </trkpt>
      <trkpt lat="48.67982" lon="5.84152">
        <ele>246.5</ele>
        <time>2020-06-29T15:55:41Z</time>
      </trkpt>
      <trkpt lat="48.67982" lon="5.84152">
        <ele>246.5</ele>
        <time>2020-06-29T15:55:42Z</time>
      </trkpt>
      <trkpt lat="48.67982" lon="5.84152">
        <ele>246.5</ele>
        <time>2020-06-29T15:55:43Z</time>
      </trkpt>
      <trkpt lat="48.67981" lon="5.84151">
        <ele>246.5</ele>
        <time>2020-06-29T15:55:44Z</time>
      </trkpt>
      <trkpt lat="48.67981" lon="5.84151">
        <ele>246.5</ele>
        <time>2020-06-29T15:55:45Z</time>
      </trkpt>
      <trkpt lat="48.67981" lon="5.84151">
        <ele>246.5</ele>
        <time>2020-06-29T15:55:46Z</time>
      </trkpt>
      <trkpt lat="48.67981" lon="5.84151">
        <ele>246.5</ele>
        <time>2020-06-29T15:55:47Z</time>
      </trkpt>
      <trkpt lat="48.67981" lon="5.84151">
        <ele>246.5</ele>
        <time>2020-06-29T15:55:48Z</time>
      </trkpt>
      <trkpt lat="48.67981" lon="5.84151">
        <ele>246.5</ele>
        <time>2020-06-29T15:55:49Z</time>
      </trkpt>
      <trkpt lat="48.67981" lon="5.84151">
        <ele>246.5</ele>
        <time>2020-06-29T15:55:50Z</time>
      </trkpt>
      <trkpt lat="48.67981" lon="5.84151">
        <ele>246.5</ele>
        <time>2020-06-29T15:55:51Z</time>
      </trkpt>
      <trkpt lat="48.67981" lon="5.84151">
        <ele>246.5</ele>
        <time>2020-06-29T15:55:52Z</time>
      </trkpt>
      <trkpt lat="48.67981" lon="5.84144">
        <ele>246.7</ele>
        <time>2020-06-29T16:06:11Z</time>
      </trkpt>
      <trkpt lat="48.6798" lon="5.84143">
        <ele>246.7</ele>
        <time>2020-06-29T16:06:12Z</time>
      </trkpt>
      <trkpt lat="48.67979" lon="5.84144">
        <ele>246.7</ele>
        <time>2020-06-29T16:06:13Z</time>
      </trkpt>
      <trkpt lat="48.67978" lon="5.84145">
        <ele>246.7</ele>
        <time>2020-06-29T16:06:14Z</time>
      </trkpt>
      <trkpt lat="48.67979" lon="5.84142">
        <ele>246.8</ele>
        <time>2020-06-29T16:06:15Z</time>
      </trkpt>
      <trkpt lat="48.67978" lon="5.84142">
        <ele>246.8</ele>
        <time>2020-06-29T16:06:16Z</time>
      </trkpt>
      <trkpt lat="48.67978" lon="5.84141">
        <ele>246.8</ele>
        <time>2020-06-29T16:06:17Z</time>
      </trkpt>
      <trkpt lat="48.67978" lon="5.84142">
        <ele>246.8</ele>
        <time>2020-06-29T16:06:18Z</time>
      </trkpt>
      <trkpt lat="48.67978" lon="5.84144">
        <ele>246.8</ele>
        <time>2020-06-29T16:06:19Z</time>
      </trkpt>
      <trkpt lat="48.67978" lon="5.84145">
        <ele>246.9</ele>
        <time>2020-06-29T16:06:20Z</time>
      </trkpt>
      <trkpt lat="48.67978" lon="5.84145">
        <ele>246.9</ele>
        <time>2020-06-29T16:06:21Z</time>
      </trkpt>
      <trkpt lat="48.67978" lon="5.84145">
        <ele>246.9</ele>
        <time>2020-06-29T16:06:22Z</time>
      </trkpt>
      <trkpt lat="48.67979" lon="5.84144">
        <ele>246.9</ele>
        <time>2020-06-29T16:06:23Z</time>
      </trkpt>
      <trkpt lat="48.67978" lon="5.84144">
        <ele>246.9</ele>
        <time>2020-06-29T16:06:24Z</time>
      </trkpt>
      <trkpt lat="48.67978" lon="5.84143">
        <ele>246.9</ele>
        <time>2020-06-29T16:06:25Z</time>
      </trkpt>
      <trkpt lat="48.67979" lon="5.84141">
        <ele>246.9</ele>
        <time>2020-06-29T16:06:26Z</time>
      </trkpt>
      <trkpt lat="48.67979" lon="5.84141">
        <ele>246.9</ele>
        <time>2020-06-29T16:06:27Z</time>
      </trkpt>
      <trkpt lat="48.67979" lon="5.84141">
        <ele>246.9</ele>
        <time>2020-06-29T16:06:28Z</time>
      </trkpt>
      <trkpt lat="48.67974" lon="5.84138">
        <ele>247.1</ele>
        <time>2020-06-29T16:06:34Z</time>
      </trkpt>
      <trkpt lat="48.67973" lon="5.84136">
        <ele>247.1</ele>
        <time>2020-06-29T16:06:35Z</time>
      </trkpt>
      <trkpt lat="48.67972" lon="5.84134">
        <ele>247.2</ele>
        <time>2020-06-29T16:06:36Z</time>
      </trkpt>
      <trkpt lat="48.67971" lon="5.84129">
        <ele>247.3</ele>
        <time>2020-06-29T16:06:37Z</time>
      </trkpt>
      <trkpt lat="48.6797" lon="5.84127">
        <ele>247.3</ele>
        <time>2020-06-29T16:06:38Z</time>
      </trkpt>
      <trkpt lat="48.67969" lon="5.84122">
        <ele>247.4</ele>
        <time>2020-06-29T16:06:39Z</time>
      </trkpt>
      <trkpt lat="48.67969" lon="5.84116">
        <ele>247.5</ele>
        <time>2020-06-29T16:06:40Z</time>
      </trkpt>
      <trkpt lat="48.67969" lon="5.84114">
        <ele>247.6</ele>
        <time>2020-06-29T16:06:41Z</time>
      </trkpt>
      <trkpt lat="48.67968" lon="5.84107">
        <ele>247.7</ele>
        <time>2020-06-29T16:06:42Z</time>
      </trkpt>
      <trkpt lat="48.67967" lon="5.84105">
        <ele>247.8</ele>
        <time>2020-06-29T16:06:43Z</time>
      </trkpt>
      <trkpt lat="48.67966" lon="5.841">
        <ele>247.9</ele>
        <time>2020-06-29T16:06:44Z</time>
      </trkpt>
      <trkpt lat="48.67966" lon="5.84099">
        <ele>247.9</ele>
        <time>2020-06-29T16:06:45Z</time>
      </trkpt>
      <trkpt lat="48.67963" lon="5.84095">
        <ele>248</ele>
        <time>2020-06-29T16:06:46Z</time>
      </trkpt>
      <trkpt lat="48.67962" lon="5.84092">
        <ele>248.1</ele>
        <time>2020-06-29T16:06:47Z</time>
      </trkpt>
      <trkpt lat="48.6796" lon="5.84087">
        <ele>248.2</ele>
        <time>2020-06-29T16:06:48Z</time>
      </trkpt>
      <trkpt lat="48.67959" lon="5.84082">
        <ele>248.4</ele>
        <time>2020-06-29T16:06:49Z</time>
      </trkpt>
      <trkpt lat="48.67958" lon="5.84077">
        <ele>248.5</ele>
        <time>2020-06-29T16:06:50Z</time>
      </trkpt>
      <trkpt lat="48.67957" lon="5.84072">
        <ele>248.6</ele>
        <time>2020-06-29T16:06:51Z</time>
      </trkpt>
      <trkpt lat="48.67956" lon="5.84068">
        <ele>248.6</ele>
        <time>2020-06-29T16:06:52Z</time>
      </trkpt>
      <trkpt lat="48.67956" lon="5.84063">
        <ele>248.6</ele>
        <time>2020-06-29T16:06:53Z</time>
      </trkpt>
      <trkpt lat="48.67955" lon="5.84059">
        <ele>248.7</ele>
        <time>2020-06-29T16:06:54Z</time>
      </trkpt>
      <trkpt lat="48.67953" lon="5.84054">
        <ele>248.8</ele>
        <time>2020-06-29T16:06:55Z</time>
      </trkpt>
      <trkpt lat="48.67952" lon="5.84053">
        <ele>248.9</ele>
        <time>2020-06-29T16:06:56Z</time>
      </trkpt>
      <trkpt lat="48.67952" lon="5.84049">
        <ele>249</ele>
        <time>2020-06-29T16:06:57Z</time>
      </trkpt>
      <trkpt lat="48.67952" lon="5.84048">
        <ele>249</ele>
        <time>2020-06-29T16:06:58Z</time>
      </trkpt>
      <trkpt lat="48.67952" lon="5.84047">
        <ele>249.1</ele>
        <time>2020-06-29T16:06:59Z</time>
      </trkpt>
      <trkpt lat="48.67953" lon="5.84046">
        <ele>249.1</ele>
        <time>2020-06-29T16:07:00Z</time>
      </trkpt>
      <trkpt lat="48.67952" lon="5.84044">
        <ele>249</ele>
        <time>2020-06-29T16:07:01Z</time>
      </trkpt>
      <trkpt lat="48.67951" lon="5.84042">
        <ele>248.9</ele>
        <time>2020-06-29T16:07:02Z</time>
      </trkpt>
      <trkpt lat="48.67948" lon="5.84037">
        <ele>248.7</ele>
        <time>2020-06-29T16:07:03Z</time>
      </trkpt>
      <trkpt lat="48.67947" lon="5.84035">
        <ele>248.6</ele>
        <time>2020-06-29T16:07:04Z</time>
      </trkpt>
      <trkpt lat="48.67945" lon="5.8403">
        <ele>248.4</ele>
        <time>2020-06-29T16:07:05Z</time>
      </trkpt>
      <trkpt lat="48.67943" lon="5.84027">
        <ele>248.3</ele>
        <time>2020-06-29T16:07:06Z</time>
      </trkpt>
      <trkpt lat="48.67941" lon="5.84022">
        <ele>248.1</ele>
        <time>2020-06-29T16:07:07Z</time>
      </trkpt>
      <trkpt lat="48.67939" lon="5.84018">
        <ele>248</ele>
        <time>2020-06-29T16:07:08Z</time>
      </trkpt>
      <trkpt lat="48.67938" lon="5.84013">
        <ele>247.9</ele>
        <time>2020-06-29T16:07:09Z</time>
      </trkpt>
      <trkpt lat="48.67936" lon="5.84008">
        <ele>247.7</ele>
        <time>2020-06-29T16:07:10Z</time>
      </trkpt>
      <trkpt lat="48.67934" lon="5.84003">
        <ele>247.6</ele>
        <time>2020-06-29T16:07:11Z</time>
      </trkpt>
      <trkpt lat="48.67932" lon="5.83998">
        <ele>247.5</ele>
        <time>2020-06-29T16:07:12Z</time>
      </trkpt>
      <trkpt lat="48.6793" lon="5.83993">
        <ele>247.4</ele>
        <time>2020-06-29T16:07:13Z</time>
      </trkpt>
      <trkpt lat="48.67927" lon="5.83989">
        <ele>247.3</ele>
        <time>2020-06-29T16:07:14Z</time>
      </trkpt>
      <trkpt lat="48.67925" lon="5.83984">
        <ele>247.2</ele>
        <time>2020-06-29T16:07:15Z</time>
      </trkpt>
      <trkpt lat="48.67922" lon="5.83978">
        <ele>247.2</ele>
        <time>2020-06-29T16:07:16Z</time>
      </trkpt>
      <trkpt lat="48.6792" lon="5.83974">
        <ele>247.1</ele>
        <time>2020-06-29T16:07:17Z</time>
      </trkpt>
      <trkpt lat="48.67917" lon="5.83967">
        <ele>247</ele>
        <time>2020-06-29T16:07:18Z</time>
      </trkpt>
      <trkpt lat="48.67915" lon="5.83961">
        <ele>246.9</ele>
        <time>2020-06-29T16:07:19Z</time>
      </trkpt>
      <trkpt lat="48.67909" lon="5.83956">
        <ele>246.9</ele>
        <time>2020-06-29T16:07:20Z</time>
      </trkpt>
      <trkpt lat="48.67908" lon="5.83949">
        <ele>246.8</ele>
        <time>2020-06-29T16:07:21Z</time>
      </trkpt>
      <trkpt lat="48.67905" lon="5.83944">
        <ele>246.7</ele>
        <time>2020-06-29T16:07:22Z</time>
      </trkpt>
      <trkpt lat="48.67902" lon="5.83941">
        <ele>246.7</ele>
        <time>2020-06-29T16:07:23Z</time>
      </trkpt>
      <trkpt lat="48.679" lon="5.83936">
        <ele>246.6</ele>
        <time>2020-06-29T16:07:24Z</time>
      </trkpt>
      <trkpt lat="48.67897" lon="5.83931">
        <ele>246.6</ele>
        <time>2020-06-29T16:07:25Z</time>
      </trkpt>
      <trkpt lat="48.67895" lon="5.83925">
        <ele>246.5</ele>
        <time>2020-06-29T16:07:26Z</time>
      </trkpt>
      <trkpt lat="48.67892" lon="5.8392">
        <ele>246.4</ele>
        <time>2020-06-29T16:07:27Z</time>
      </trkpt>
      <trkpt lat="48.6789" lon="5.83913">
        <ele>246.3</ele>
        <time>2020-06-29T16:07:28Z</time>
      </trkpt>
      <trkpt lat="48.67887" lon="5.83908">
        <ele>246.2</ele>
        <time>2020-06-29T16:07:29Z</time>
      </trkpt>
      <trkpt lat="48.67884" lon="5.83903">
        <ele>246.1</ele>
        <time>2020-06-29T16:07:30Z</time>
      </trkpt>
      <trkpt lat="48.67881" lon="5.83898">
        <ele>246</ele>
        <time>2020-06-29T16:07:31Z</time>
      </trkpt>
      <trkpt lat="48.67878" lon="5.83893">
        <ele>245.9</ele>
        <time>2020-06-29T16:07:32Z</time>
      </trkpt>
      <trkpt lat="48.67876" lon="5.83888">
        <ele>245.8</ele>
        <time>2020-06-29T16:07:33Z</time>
      </trkpt>
      <trkpt lat="48.67873" lon="5.83881">
        <ele>245.6</ele>
        <time>2020-06-29T16:07:34Z</time>
      </trkpt>
      <trkpt lat="48.67871" lon="5.83874">
        <ele>245.5</ele>
        <time>2020-06-29T16:07:35Z</time>
      </trkpt>
      <trkpt lat="48.67868" lon="5.83866">
        <ele>245.3</ele>
        <time>2020-06-29T16:07:36Z</time>
      </trkpt>
      <trkpt lat="48.67866" lon="5.83857">
        <ele>245.1</ele>
        <time>2020-06-29T16:07:37Z</time>
      </trkpt>
      <trkpt lat="48.67863" lon="5.83849">
        <ele>245</ele>
        <time>2020-06-29T16:07:38Z</time>
      </trkpt>
      <trkpt lat="48.67861" lon="5.83841">
        <ele>244.9</ele>
        <time>2020-06-29T16:07:39Z</time>
      </trkpt>
      <trkpt lat="48.67858" lon="5.83834">
        <ele>244.7</ele>
        <time>2020-06-29T16:07:40Z</time>
      </trkpt>
      <trkpt lat="48.67856" lon="5.83826">
        <ele>244.6</ele>
        <time>2020-06-29T16:07:41Z</time>
      </trkpt>
      <trkpt lat="48.67853" lon="5.83819">
        <ele>244.5</ele>
        <time>2020-06-29T16:07:42Z</time>
      </trkpt>
      <trkpt lat="48.6785" lon="5.83812">
        <ele>244.4</ele>
        <time>2020-06-29T16:07:43Z</time>
      </trkpt>
      <trkpt lat="48.67848" lon="5.83804">
        <ele>244.4</ele>
        <time>2020-06-29T16:07:44Z</time>
      </trkpt>
      <trkpt lat="48.67846" lon="5.83797">
        <ele>244.4</ele>
        <time>2020-06-29T16:07:45Z</time>
      </trkpt>
      <trkpt lat="48.67844" lon="5.83792">
        <ele>244.4</ele>
        <time>2020-06-29T16:07:46Z</time>
      </trkpt>
      <trkpt lat="48.67843" lon="5.83786">
        <ele>244.4</ele>
        <time>2020-06-29T16:07:47Z</time>
      </trkpt>
      <trkpt lat="48.67841" lon="5.8378">
        <ele>244.4</ele>
        <time>2020-06-29T16:07:48Z</time>
      </trkpt>
      <trkpt lat="48.6784" lon="5.83775">
        <ele>244.4</ele>
        <time>2020-06-29T16:07:49Z</time>
      </trkpt>
      <trkpt lat="48.67838" lon="5.8377">
        <ele>244.3</ele>
        <time>2020-06-29T16:07:50Z</time>
      </trkpt>
      <trkpt lat="48.67835" lon="5.83765">
        <ele>244.1</ele>
        <time>2020-06-29T16:07:51Z</time>
      </trkpt>
      <trkpt lat="48.67831" lon="5.8376">
        <ele>244</ele>
        <time>2020-06-29T16:07:52Z</time>
      </trkpt>
      <trkpt lat="48.67828" lon="5.83753">
        <ele>243.8</ele>
        <time>2020-06-29T16:07:53Z</time>
      </trkpt>
      <trkpt lat="48.67824" lon="5.83748">
        <ele>243.6</ele>
        <time>2020-06-29T16:07:54Z</time>
      </trkpt>
      <trkpt lat="48.6782" lon="5.83743">
        <ele>243.5</ele>
        <time>2020-06-29T16:07:55Z</time>
      </trkpt>
      <trkpt lat="48.67816" lon="5.83738">
        <ele>243.3</ele>
        <time>2020-06-29T16:07:56Z</time>
      </trkpt>
      <trkpt lat="48.67812" lon="5.83733">
        <ele>243.2</ele>
        <time>2020-06-29T16:07:57Z</time>
      </trkpt>
      <trkpt lat="48.67808" lon="5.8373">
        <ele>243</ele>
        <time>2020-06-29T16:07:58Z</time>
      </trkpt>
      <trkpt lat="48.67803" lon="5.83726">
        <ele>242.9</ele>
        <time>2020-06-29T16:07:59Z</time>
      </trkpt>
      <trkpt lat="48.67799" lon="5.83722">
        <ele>242.8</ele>
        <time>2020-06-29T16:08:00Z</time>
      </trkpt>
      <trkpt lat="48.67795" lon="5.83718">
        <ele>242.7</ele>
        <time>2020-06-29T16:08:01Z</time>
      </trkpt>
      <trkpt lat="48.67791" lon="5.83714">
        <ele>242.6</ele>
        <time>2020-06-29T16:08:02Z</time>
      </trkpt>
      <trkpt lat="48.67788" lon="5.8371">
        <ele>242.5</ele>
        <time>2020-06-29T16:08:03Z</time>
      </trkpt>
      <trkpt lat="48.67785" lon="5.83705">
        <ele>242.4</ele>
        <time>2020-06-29T16:08:04Z</time>
      </trkpt>
      <trkpt lat="48.67781" lon="5.83699">
        <ele>242.3</ele>
        <time>2020-06-29T16:08:05Z</time>
      </trkpt>
      <trkpt lat="48.67778" lon="5.83694">
        <ele>242.2</ele>
        <time>2020-06-29T16:08:06Z</time>
      </trkpt>
      <trkpt lat="48.67775" lon="5.8369">
        <ele>242.2</ele>
        <time>2020-06-29T16:08:07Z</time>
      </trkpt>
      <trkpt lat="48.67772" lon="5.83685">
        <ele>242.1</ele>
        <time>2020-06-29T16:08:08Z</time>
      </trkpt>
      <trkpt lat="48.67769" lon="5.83681">
        <ele>242</ele>
        <time>2020-06-29T16:08:09Z</time>
      </trkpt>
      <trkpt lat="48.67766" lon="5.83677">
        <ele>242</ele>
        <time>2020-06-29T16:08:10Z</time>
      </trkpt>
      <trkpt lat="48.67763" lon="5.83673">
        <ele>241.9</ele>
        <time>2020-06-29T16:08:11Z</time>
      </trkpt>
      <trkpt lat="48.6776" lon="5.83668">
        <ele>241.9</ele>
        <time>2020-06-29T16:08:12Z</time>
      </trkpt>
      <trkpt lat="48.67758" lon="5.83663">
        <ele>242</ele>
        <time>2020-06-29T16:08:13Z</time>
      </trkpt>
      <trkpt lat="48.67757" lon="5.83656">
        <ele>242</ele>
        <time>2020-06-29T16:08:14Z</time>
      </trkpt>
      <trkpt lat="48.67756" lon="5.8365">
        <ele>242.1</ele>
        <time>2020-06-29T16:08:15Z</time>
      </trkpt>
      <trkpt lat="48.67756" lon="5.83642">
        <ele>242.1</ele>
        <time>2020-06-29T16:08:16Z</time>
      </trkpt>
      <trkpt lat="48.67756" lon="5.83635">
        <ele>242.2</ele>
        <time>2020-06-29T16:08:17Z</time>
      </trkpt>
      <trkpt lat="48.67756" lon="5.83629">
        <ele>242.2</ele>
        <time>2020-06-29T16:08:18Z</time>
      </trkpt>
      <trkpt lat="48.67755" lon="5.83623">
        <ele>242.2</ele>
        <time>2020-06-29T16:08:19Z</time>
      </trkpt>
      <trkpt lat="48.67755" lon="5.83617">
        <ele>242.2</ele>
        <time>2020-06-29T16:08:20Z</time>
      </trkpt>
      <trkpt lat="48.67755" lon="5.8361">
        <ele>242.2</ele>
        <time>2020-06-29T16:08:21Z</time>
      </trkpt>
      <trkpt lat="48.67753" lon="5.83603">
        <ele>242.3</ele>
        <time>2020-06-29T16:08:22Z</time>
      </trkpt>
      <trkpt lat="48.67752" lon="5.83597">
        <ele>242.3</ele>
        <time>2020-06-29T16:08:23Z</time>
      </trkpt>
      <trkpt lat="48.67752" lon="5.8359">
        <ele>242.3</ele>
        <time>2020-06-29T16:08:24Z</time>
      </trkpt>
      <trkpt lat="48.67752" lon="5.83584">
        <ele>242.3</ele>
        <time>2020-06-29T16:08:25Z</time>
      </trkpt>
      <trkpt lat="48.67751" lon="5.83576">
        <ele>242.4</ele>
        <time>2020-06-29T16:08:26Z</time>
      </trkpt>
      <trkpt lat="48.6775" lon="5.83569">
        <ele>242.4</ele>
        <time>2020-06-29T16:08:27Z</time>
      </trkpt>
      <trkpt lat="48.67749" lon="5.83561">
        <ele>242.4</ele>
        <time>2020-06-29T16:08:28Z</time>
      </trkpt>
      <trkpt lat="48.67748" lon="5.83553">
        <ele>242.4</ele>
        <time>2020-06-29T16:08:29Z</time>
      </trkpt>
      <trkpt lat="48.67747" lon="5.83545">
        <ele>242.4</ele>
        <time>2020-06-29T16:08:30Z</time>
      </trkpt>
      <trkpt lat="48.67746" lon="5.83538">
        <ele>242.4</ele>
        <time>2020-06-29T16:08:31Z</time>
      </trkpt>
      <trkpt lat="48.67745" lon="5.83531">
        <ele>242.4</ele>
        <time>2020-06-29T16:08:32Z</time>
      </trkpt>
      <trkpt lat="48.67744" lon="5.83524">
        <ele>242.4</ele>
        <time>2020-06-29T16:08:33Z</time>
      </trkpt>
      <trkpt lat="48.67743" lon="5.83518">
        <ele>242.3</ele>
        <time>2020-06-29T16:08:34Z</time>
      </trkpt>
      <trkpt lat="48.67742" lon="5.83511">
        <ele>242.3</ele>
        <time>2020-06-29T16:08:35Z</time>
      </trkpt>
      <trkpt lat="48.67741" lon="5.83504">
        <ele>242.3</ele>
        <time>2020-06-29T16:08:36Z</time>
      </trkpt>
      <trkpt lat="48.67741" lon="5.83498">
        <ele>242.3</ele>
        <time>2020-06-29T16:08:37Z</time>
      </trkpt>
      <trkpt lat="48.6774" lon="5.83492">
        <ele>242.3</ele>
        <time>2020-06-29T16:08:38Z</time>
      </trkpt>
      <trkpt lat="48.67739" lon="5.83485">
        <ele>242.3</ele>
        <time>2020-06-29T16:08:39Z</time>
      </trkpt>
      <trkpt lat="48.67737" lon="5.83479">
        <ele>242.3</ele>
        <time>2020-06-29T16:08:40Z</time>
      </trkpt>
      <trkpt lat="48.67735" lon="5.83473">
        <ele>242.4</ele>
        <time>2020-06-29T16:08:41Z</time>
      </trkpt>
      <trkpt lat="48.67734" lon="5.83467">
        <ele>242.4</ele>
        <time>2020-06-29T16:08:42Z</time>
      </trkpt>
      <trkpt lat="48.67732" lon="5.8346">
        <ele>242.4</ele>
        <time>2020-06-29T16:08:43Z</time>
      </trkpt>
      <trkpt lat="48.67732" lon="5.83455">
        <ele>242.4</ele>
        <time>2020-06-29T16:08:44Z</time>
      </trkpt>
      <trkpt lat="48.6773" lon="5.83448">
        <ele>242.3</ele>
        <time>2020-06-29T16:08:45Z</time>
      </trkpt>
      <trkpt lat="48.6773" lon="5.83442">
        <ele>242.3</ele>
        <time>2020-06-29T16:08:46Z</time>
      </trkpt>
      <trkpt lat="48.67729" lon="5.83435">
        <ele>242.2</ele>
        <time>2020-06-29T16:08:47Z</time>
      </trkpt>
      <trkpt lat="48.67728" lon="5.83429">
        <ele>242.2</ele>
        <time>2020-06-29T16:08:48Z</time>
      </trkpt>
      <trkpt lat="48.67727" lon="5.83422">
        <ele>242.1</ele>
        <time>2020-06-29T16:08:49Z</time>
      </trkpt>
      <trkpt lat="48.67725" lon="5.83415">
        <ele>242.1</ele>
        <time>2020-06-29T16:08:50Z</time>
      </trkpt>
      <trkpt lat="48.67724" lon="5.8341">
        <ele>242</ele>
        <time>2020-06-29T16:08:51Z</time>
      </trkpt>
      <trkpt lat="48.67724" lon="5.83403">
        <ele>241.9</ele>
        <time>2020-06-29T16:08:52Z</time>
      </trkpt>
      <trkpt lat="48.67723" lon="5.83396">
        <ele>241.8</ele>
        <time>2020-06-29T16:08:53Z</time>
      </trkpt>
      <trkpt lat="48.67722" lon="5.83388">
        <ele>241.7</ele>
        <time>2020-06-29T16:08:54Z</time>
      </trkpt>
      <trkpt lat="48.6772" lon="5.8338">
        <ele>241.6</ele>
        <time>2020-06-29T16:08:55Z</time>
      </trkpt>
      <trkpt lat="48.67719" lon="5.83372">
        <ele>241.4</ele>
        <time>2020-06-29T16:08:56Z</time>
      </trkpt>
      <trkpt lat="48.67718" lon="5.83363">
        <ele>241.3</ele>
        <time>2020-06-29T16:08:57Z</time>
      </trkpt>
      <trkpt lat="48.67717" lon="5.83355">
        <ele>241.1</ele>
        <time>2020-06-29T16:08:58Z</time>
      </trkpt>
      <trkpt lat="48.67715" lon="5.83346">
        <ele>241</ele>
        <time>2020-06-29T16:08:59Z</time>
      </trkpt>
      <trkpt lat="48.67713" lon="5.83338">
        <ele>240.8</ele>
        <time>2020-06-29T16:09:00Z</time>
      </trkpt>
      <trkpt lat="48.67712" lon="5.8333">
        <ele>240.7</ele>
        <time>2020-06-29T16:09:01Z</time>
      </trkpt>
      <trkpt lat="48.6771" lon="5.83322">
        <ele>240.6</ele>
        <time>2020-06-29T16:09:02Z</time>
      </trkpt>
      <trkpt lat="48.67709" lon="5.83312">
        <ele>240.4</ele>
        <time>2020-06-29T16:09:03Z</time>
      </trkpt>
      <trkpt lat="48.67707" lon="5.83304">
        <ele>240.2</ele>
        <time>2020-06-29T16:09:04Z</time>
      </trkpt>
      <trkpt lat="48.67705" lon="5.83294">
        <ele>240</ele>
        <time>2020-06-29T16:09:05Z</time>
      </trkpt>
      <trkpt lat="48.67704" lon="5.83283">
        <ele>239.7</ele>
        <time>2020-06-29T16:09:06Z</time>
      </trkpt>
      <trkpt lat="48.67703" lon="5.83271">
        <ele>239.5</ele>
        <time>2020-06-29T16:09:07Z</time>
      </trkpt>
      <trkpt lat="48.67701" lon="5.83261">
        <ele>239.3</ele>
        <time>2020-06-29T16:09:08Z</time>
      </trkpt>
      <trkpt lat="48.67699" lon="5.83251">
        <ele>239.2</ele>
        <time>2020-06-29T16:09:09Z</time>
      </trkpt>
      <trkpt lat="48.67696" lon="5.83241">
        <ele>239.1</ele>
        <time>2020-06-29T16:09:10Z</time>
      </trkpt>
      <trkpt lat="48.67695" lon="5.83232">
        <ele>239.1</ele>
        <time>2020-06-29T16:09:11Z</time>
      </trkpt>
      <trkpt lat="48.67693" lon="5.83221">
        <ele>239.1</ele>
        <time>2020-06-29T16:09:12Z</time>
      </trkpt>
      <trkpt lat="48.67691" lon="5.83212">
        <ele>239</ele>
        <time>2020-06-29T16:09:13Z</time>
      </trkpt>
      <trkpt lat="48.6769" lon="5.83203">
        <ele>239</ele>
        <time>2020-06-29T16:09:14Z</time>
      </trkpt>
      <trkpt lat="48.67688" lon="5.83194">
        <ele>239.1</ele>
        <time>2020-06-29T16:09:15Z</time>
      </trkpt>
      <trkpt lat="48.67687" lon="5.83186">
        <ele>239.1</ele>
        <time>2020-06-29T16:09:16Z</time>
      </trkpt>
      <trkpt lat="48.67686" lon="5.83177">
        <ele>239.1</ele>
        <time>2020-06-29T16:09:17Z</time>
      </trkpt>
      <trkpt lat="48.67685" lon="5.83169">
        <ele>239.1</ele>
        <time>2020-06-29T16:09:18Z</time>
      </trkpt>
      <trkpt lat="48.67684" lon="5.83163">
        <ele>239.1</ele>
        <time>2020-06-29T16:09:19Z</time>
      </trkpt>
      <trkpt lat="48.67683" lon="5.83156">
        <ele>239.1</ele>
        <time>2020-06-29T16:09:20Z</time>
      </trkpt>
      <trkpt lat="48.67681" lon="5.83149">
        <ele>239.1</ele>
        <time>2020-06-29T16:09:21Z</time>
      </trkpt>
      <trkpt lat="48.6768" lon="5.83141">
        <ele>239.1</ele>
        <time>2020-06-29T16:09:22Z</time>
      </trkpt>
      <trkpt lat="48.67678" lon="5.83132">
        <ele>239.1</ele>
        <time>2020-06-29T16:09:23Z</time>
      </trkpt>
      <trkpt lat="48.67677" lon="5.83124">
        <ele>239.1</ele>
        <time>2020-06-29T16:09:24Z</time>
      </trkpt>
      <trkpt lat="48.67676" lon="5.83116">
        <ele>239.1</ele>
        <time>2020-06-29T16:09:25Z</time>
      </trkpt>
      <trkpt lat="48.67675" lon="5.83109">
        <ele>239.1</ele>
        <time>2020-06-29T16:09:26Z</time>
      </trkpt>
      <trkpt lat="48.67674" lon="5.83101">
        <ele>239.1</ele>
        <time>2020-06-29T16:09:27Z</time>
      </trkpt>
      <trkpt lat="48.67673" lon="5.8309">
        <ele>239.1</ele>
        <time>2020-06-29T16:09:28Z</time>
      </trkpt>
      <trkpt lat="48.67673" lon="5.83084">
        <ele>239.1</ele>
        <time>2020-06-29T16:09:29Z</time>
      </trkpt>
      <trkpt lat="48.67672" lon="5.83076">
        <ele>239.1</ele>
        <time>2020-06-29T16:09:30Z</time>
      </trkpt>
      <trkpt lat="48.67672" lon="5.8307">
        <ele>239.1</ele>
        <time>2020-06-29T16:09:31Z</time>
      </trkpt>
      <trkpt lat="48.67672" lon="5.83061">
        <ele>239.2</ele>
        <time>2020-06-29T16:09:32Z</time>
      </trkpt>
      <trkpt lat="48.67672" lon="5.83054">
        <ele>239.2</ele>
        <time>2020-06-29T16:09:33Z</time>
      </trkpt>
      <trkpt lat="48.67671" lon="5.83048">
        <ele>239.2</ele>
        <time>2020-06-29T16:09:34Z</time>
      </trkpt>
      <trkpt lat="48.6767" lon="5.83038">
        <ele>239.2</ele>
        <time>2020-06-29T16:09:35Z</time>
      </trkpt>
      <trkpt lat="48.6767" lon="5.83032">
        <ele>239.3</ele>
        <time>2020-06-29T16:09:36Z</time>
      </trkpt>
      <trkpt lat="48.6767" lon="5.83024">
        <ele>239.3</ele>
        <time>2020-06-29T16:09:37Z</time>
      </trkpt>
      <trkpt lat="48.67671" lon="5.83015">
        <ele>239.3</ele>
        <time>2020-06-29T16:09:38Z</time>
      </trkpt>
      <trkpt lat="48.67671" lon="5.83008">
        <ele>239.3</ele>
        <time>2020-06-29T16:09:39Z</time>
      </trkpt>
      <trkpt lat="48.67671" lon="5.83003">
        <ele>239.3</ele>
        <time>2020-06-29T16:09:40Z</time>
      </trkpt>
      <trkpt lat="48.67672" lon="5.82995">
        <ele>239.4</ele>
        <time>2020-06-29T16:09:41Z</time>
      </trkpt>
      <trkpt lat="48.67672" lon="5.82986">
        <ele>239.4</ele>
        <time>2020-06-29T16:09:42Z</time>
      </trkpt>
      <trkpt lat="48.67673" lon="5.8298">
        <ele>239.4</ele>
        <time>2020-06-29T16:09:43Z</time>
      </trkpt>
      <trkpt lat="48.67673" lon="5.82971">
        <ele>239.5</ele>
        <time>2020-06-29T16:09:44Z</time>
      </trkpt>
      <trkpt lat="48.67674" lon="5.82964">
        <ele>239.6</ele>
        <time>2020-06-29T16:09:45Z</time>
      </trkpt>
      <trkpt lat="48.67675" lon="5.82956">
        <ele>239.6</ele>
        <time>2020-06-29T16:09:46Z</time>
      </trkpt>
      <trkpt lat="48.67676" lon="5.8295">
        <ele>239.7</ele>
        <time>2020-06-29T16:09:47Z</time>
      </trkpt>
      <trkpt lat="48.67678" lon="5.82944">
        <ele>239.7</ele>
        <time>2020-06-29T16:09:48Z</time>
      </trkpt>
      <trkpt lat="48.67678" lon="5.82938">
        <ele>239.8</ele>
        <time>2020-06-29T16:09:49Z</time>
      </trkpt>
      <trkpt lat="48.6768" lon="5.82931">
        <ele>239.9</ele>
        <time>2020-06-29T16:09:50Z</time>
      </trkpt>
      <trkpt lat="48.6768" lon="5.82925">
        <ele>239.9</ele>
        <time>2020-06-29T16:09:51Z</time>
      </trkpt>
      <trkpt lat="48.67681" lon="5.82919">
        <ele>240</ele>
        <time>2020-06-29T16:09:52Z</time>
      </trkpt>
      <trkpt lat="48.67682" lon="5.82913">
        <ele>240</ele>
        <time>2020-06-29T16:09:53Z</time>
      </trkpt>
      <trkpt lat="48.67683" lon="5.82907">
        <ele>240.1</ele>
        <time>2020-06-29T16:09:54Z</time>
      </trkpt>
      <trkpt lat="48.67683" lon="5.82902">
        <ele>240.2</ele>
        <time>2020-06-29T16:09:55Z</time>
      </trkpt>
      <trkpt lat="48.67684" lon="5.82896">
        <ele>240.2</ele>
        <time>2020-06-29T16:09:56Z</time>
      </trkpt>
      <trkpt lat="48.67684" lon="5.82892">
        <ele>240.2</ele>
        <time>2020-06-29T16:09:57Z</time>
      </trkpt>
      <trkpt lat="48.67685" lon="5.82887">
        <ele>240.3</ele>
        <time>2020-06-29T16:09:58Z</time>
      </trkpt>
      <trkpt lat="48.67687" lon="5.82879">
        <ele>240.4</ele>
        <time>2020-06-29T16:09:59Z</time>
      </trkpt>
      <trkpt lat="48.67688" lon="5.82872">
        <ele>240.4</ele>
        <time>2020-06-29T16:10:00Z</time>
      </trkpt>
      <trkpt lat="48.67689" lon="5.82865">
        <ele>240.5</ele>
        <time>2020-06-29T16:10:01Z</time>
      </trkpt>
      <trkpt lat="48.6769" lon="5.82859">
        <ele>240.6</ele>
        <time>2020-06-29T16:10:02Z</time>
      </trkpt>
      <trkpt lat="48.6769" lon="5.82855">
        <ele>240.6</ele>
        <time>2020-06-29T16:10:03Z</time>
      </trkpt>
      <trkpt lat="48.67692" lon="5.82848">
        <ele>240.7</ele>
        <time>2020-06-29T16:10:04Z</time>
      </trkpt>
      <trkpt lat="48.67694" lon="5.8284">
        <ele>240.8</ele>
        <time>2020-06-29T16:10:05Z</time>
      </trkpt>
      <trkpt lat="48.67696" lon="5.82833">
        <ele>240.9</ele>
        <time>2020-06-29T16:10:06Z</time>
      </trkpt>
      <trkpt lat="48.67697" lon="5.82826">
        <ele>241</ele>
        <time>2020-06-29T16:10:07Z</time>
      </trkpt>
      <trkpt lat="48.67699" lon="5.8282">
        <ele>241.1</ele>
        <time>2020-06-29T16:10:08Z</time>
      </trkpt>
      <trkpt lat="48.677" lon="5.82814">
        <ele>241.1</ele>
        <time>2020-06-29T16:10:09Z</time>
      </trkpt>
      <trkpt lat="48.67701" lon="5.82809">
        <ele>241.2</ele>
        <time>2020-06-29T16:10:10Z</time>
      </trkpt>
      <trkpt lat="48.67702" lon="5.82805">
        <ele>241.3</ele>
        <time>2020-06-29T16:10:11Z</time>
      </trkpt>
      <trkpt lat="48.67703" lon="5.82798">
        <ele>241.4</ele>
        <time>2020-06-29T16:10:12Z</time>
      </trkpt>
      <trkpt lat="48.67705" lon="5.82794">
        <ele>241.5</ele>
        <time>2020-06-29T16:10:13Z</time>
      </trkpt>
      <trkpt lat="48.67706" lon="5.82789">
        <ele>241.6</ele>
        <time>2020-06-29T16:10:14Z</time>
      </trkpt>
      <trkpt lat="48.67707" lon="5.82783">
        <ele>241.7</ele>
        <time>2020-06-29T16:10:15Z</time>
      </trkpt>
      <trkpt lat="48.67707" lon="5.82777">
        <ele>241.8</ele>
        <time>2020-06-29T16:10:16Z</time>
      </trkpt>
      <trkpt lat="48.67709" lon="5.82771">
        <ele>241.9</ele>
        <time>2020-06-29T16:10:17Z</time>
      </trkpt>
      <trkpt lat="48.6771" lon="5.82765">
        <ele>242</ele>
        <time>2020-06-29T16:10:18Z</time>
      </trkpt>
      <trkpt lat="48.67712" lon="5.8276">
        <ele>242</ele>
        <time>2020-06-29T16:10:19Z</time>
      </trkpt>
      <trkpt lat="48.67714" lon="5.82754">
        <ele>242.1</ele>
        <time>2020-06-29T16:10:20Z</time>
      </trkpt>
      <trkpt lat="48.67716" lon="5.82747">
        <ele>242.2</ele>
        <time>2020-06-29T16:10:21Z</time>
      </trkpt>
      <trkpt lat="48.67718" lon="5.82741">
        <ele>242.3</ele>
        <time>2020-06-29T16:10:22Z</time>
      </trkpt>
      <trkpt lat="48.6772" lon="5.82735">
        <ele>242.3</ele>
        <time>2020-06-29T16:10:23Z</time>
      </trkpt>
      <trkpt lat="48.6772" lon="5.82733">
        <ele>242.4</ele>
        <time>2020-06-29T16:10:24Z</time>
      </trkpt>
      <trkpt lat="48.67722" lon="5.82728">
        <ele>242.4</ele>
        <time>2020-06-29T16:10:25Z</time>
      </trkpt>
      <trkpt lat="48.67723" lon="5.82724">
        <ele>242.4</ele>
        <time>2020-06-29T16:10:26Z</time>
      </trkpt>
      <trkpt lat="48.67725" lon="5.82718">
        <ele>242.5</ele>
        <time>2020-06-29T16:10:27Z</time>
      </trkpt>
      <trkpt lat="48.67726" lon="5.82712">
        <ele>242.6</ele>
        <time>2020-06-29T16:10:28Z</time>
      </trkpt>
      <trkpt lat="48.67728" lon="5.82706">
        <ele>242.6</ele>
        <time>2020-06-29T16:10:29Z</time>
      </trkpt>
      <trkpt lat="48.6773" lon="5.827">
        <ele>242.7</ele>
        <time>2020-06-29T16:10:30Z</time>
      </trkpt>
      <trkpt lat="48.67732" lon="5.82695">
        <ele>242.8</ele>
        <time>2020-06-29T16:10:31Z</time>
      </trkpt>
      <trkpt lat="48.67734" lon="5.82689">
        <ele>242.8</ele>
        <time>2020-06-29T16:10:32Z</time>
      </trkpt>
      <trkpt lat="48.67736" lon="5.82682">
        <ele>242.9</ele>
        <time>2020-06-29T16:10:33Z</time>
      </trkpt>
      <trkpt lat="48.67738" lon="5.82677">
        <ele>243</ele>
        <time>2020-06-29T16:10:34Z</time>
      </trkpt>
      <trkpt lat="48.67739" lon="5.8267">
        <ele>243</ele>
        <time>2020-06-29T16:10:35Z</time>
      </trkpt>
      <trkpt lat="48.6774" lon="5.82666">
        <ele>243.1</ele>
        <time>2020-06-29T16:10:36Z</time>
      </trkpt>
      <trkpt lat="48.67742" lon="5.8266">
        <ele>243.1</ele>
        <time>2020-06-29T16:10:37Z</time>
      </trkpt>
      <trkpt lat="48.67744" lon="5.82655">
        <ele>243.2</ele>
        <time>2020-06-29T16:10:38Z</time>
      </trkpt>
      <trkpt lat="48.67746" lon="5.82649">
        <ele>243.2</ele>
        <time>2020-06-29T16:10:39Z</time>
      </trkpt>
      <trkpt lat="48.67748" lon="5.82645">
        <ele>243.3</ele>
        <time>2020-06-29T16:10:40Z</time>
      </trkpt>
      <trkpt lat="48.67749" lon="5.8264">
        <ele>243.3</ele>
        <time>2020-06-29T16:10:41Z</time>
      </trkpt>
      <trkpt lat="48.67751" lon="5.82635">
        <ele>243.4</ele>
        <time>2020-06-29T16:10:42Z</time>
      </trkpt>
      <trkpt lat="48.67753" lon="5.8263">
        <ele>243.4</ele>
        <time>2020-06-29T16:10:43Z</time>
      </trkpt>
      <trkpt lat="48.67755" lon="5.82625">
        <ele>243.4</ele>
        <time>2020-06-29T16:10:44Z</time>
      </trkpt>
      <trkpt lat="48.67756" lon="5.82618">
        <ele>243.4</ele>
        <time>2020-06-29T16:10:45Z</time>
      </trkpt>
      <trkpt lat="48.67757" lon="5.82612">
        <ele>243.5</ele>
        <time>2020-06-29T16:10:46Z</time>
      </trkpt>
      <trkpt lat="48.67759" lon="5.82605">
        <ele>243.5</ele>
        <time>2020-06-29T16:10:47Z</time>
      </trkpt>
      <trkpt lat="48.6776" lon="5.826">
        <ele>243.5</ele>
        <time>2020-06-29T16:10:48Z</time>
      </trkpt>
      <trkpt lat="48.67761" lon="5.82592">
        <ele>243.5</ele>
        <time>2020-06-29T16:10:49Z</time>
      </trkpt>
      <trkpt lat="48.67763" lon="5.82585">
        <ele>243.6</ele>
        <time>2020-06-29T16:10:50Z</time>
      </trkpt>
      <trkpt lat="48.67765" lon="5.82578">
        <ele>243.6</ele>
        <time>2020-06-29T16:10:51Z</time>
      </trkpt>
      <trkpt lat="48.67766" lon="5.82571">
        <ele>243.6</ele>
        <time>2020-06-29T16:10:52Z</time>
      </trkpt>
      <trkpt lat="48.67766" lon="5.82564">
        <ele>243.6</ele>
        <time>2020-06-29T16:10:53Z</time>
      </trkpt>
      <trkpt lat="48.67767" lon="5.82558">
        <ele>243.7</ele>
        <time>2020-06-29T16:10:54Z</time>
      </trkpt>
      <trkpt lat="48.67769" lon="5.82551">
        <ele>243.7</ele>
        <time>2020-06-29T16:10:55Z</time>
      </trkpt>
      <trkpt lat="48.6777" lon="5.82541">
        <ele>243.7</ele>
        <time>2020-06-29T16:10:56Z</time>
      </trkpt>
      <trkpt lat="48.67772" lon="5.82535">
        <ele>243.7</ele>
        <time>2020-06-29T16:10:57Z</time>
      </trkpt>
      <trkpt lat="48.67774" lon="5.82529">
        <ele>243.8</ele>
        <time>2020-06-29T16:10:58Z</time>
      </trkpt>
      <trkpt lat="48.67776" lon="5.82523">
        <ele>243.8</ele>
        <time>2020-06-29T16:10:59Z</time>
      </trkpt>
      <trkpt lat="48.67777" lon="5.82517">
        <ele>243.8</ele>
        <time>2020-06-29T16:11:00Z</time>
      </trkpt>
      <trkpt lat="48.67778" lon="5.82511">
        <ele>243.9</ele>
        <time>2020-06-29T16:11:01Z</time>
      </trkpt>
      <trkpt lat="48.6778" lon="5.82504">
        <ele>243.9</ele>
        <time>2020-06-29T16:11:02Z</time>
      </trkpt>
      <trkpt lat="48.67782" lon="5.82498">
        <ele>243.9</ele>
        <time>2020-06-29T16:11:03Z</time>
      </trkpt>
      <trkpt lat="48.67783" lon="5.82492">
        <ele>244</ele>
        <time>2020-06-29T16:11:04Z</time>
      </trkpt>
      <trkpt lat="48.67784" lon="5.82484">
        <ele>244</ele>
        <time>2020-06-29T16:11:05Z</time>
      </trkpt>
      <trkpt lat="48.67785" lon="5.82476">
        <ele>244</ele>
        <time>2020-06-29T16:11:06Z</time>
      </trkpt>
      <trkpt lat="48.67787" lon="5.8247">
        <ele>244.1</ele>
        <time>2020-06-29T16:11:07Z</time>
      </trkpt>
      <trkpt lat="48.67789" lon="5.82464">
        <ele>244.1</ele>
        <time>2020-06-29T16:11:08Z</time>
      </trkpt>
      <trkpt lat="48.6779" lon="5.82459">
        <ele>244.1</ele>
        <time>2020-06-29T16:11:09Z</time>
      </trkpt>
      <trkpt lat="48.67792" lon="5.82454">
        <ele>244.1</ele>
        <time>2020-06-29T16:11:10Z</time>
      </trkpt>
      <trkpt lat="48.67793" lon="5.82447">
        <ele>244.1</ele>
        <time>2020-06-29T16:11:11Z</time>
      </trkpt>
      <trkpt lat="48.67795" lon="5.8244">
        <ele>244.2</ele>
        <time>2020-06-29T16:11:12Z</time>
      </trkpt>
      <trkpt lat="48.67796" lon="5.82434">
        <ele>244.2</ele>
        <time>2020-06-29T16:11:13Z</time>
      </trkpt>
      <trkpt lat="48.67797" lon="5.8243">
        <ele>244.2</ele>
        <time>2020-06-29T16:11:14Z</time>
      </trkpt>
      <trkpt lat="48.67799" lon="5.82423">
        <ele>244.3</ele>
        <time>2020-06-29T16:11:15Z</time>
      </trkpt>
      <trkpt lat="48.67801" lon="5.82417">
        <ele>244.3</ele>
        <time>2020-06-29T16:11:16Z</time>
      </trkpt>
      <trkpt lat="48.67802" lon="5.82412">
        <ele>244.3</ele>
        <time>2020-06-29T16:11:17Z</time>
      </trkpt>
      <trkpt lat="48.67804" lon="5.82404">
        <ele>244.3</ele>
        <time>2020-06-29T16:11:18Z</time>
      </trkpt>
      <trkpt lat="48.67806" lon="5.82398">
        <ele>244.3</ele>
        <time>2020-06-29T16:11:19Z</time>
      </trkpt>
      <trkpt lat="48.67808" lon="5.82394">
        <ele>244.3</ele>
        <time>2020-06-29T16:11:20Z</time>
      </trkpt>
      <trkpt lat="48.6781" lon="5.82387">
        <ele>244.3</ele>
        <time>2020-06-29T16:11:21Z</time>
      </trkpt>
      <trkpt lat="48.67813" lon="5.82382">
        <ele>244.3</ele>
        <time>2020-06-29T16:11:22Z</time>
      </trkpt>
      <trkpt lat="48.67815" lon="5.82378">
        <ele>244.3</ele>
        <time>2020-06-29T16:11:23Z</time>
      </trkpt>
      <trkpt lat="48.67818" lon="5.82375">
        <ele>244.3</ele>
        <time>2020-06-29T16:11:24Z</time>
      </trkpt>
      <trkpt lat="48.6782" lon="5.82368">
        <ele>244.2</ele>
        <time>2020-06-29T16:11:25Z</time>
      </trkpt>
      <trkpt lat="48.67822" lon="5.8236">
        <ele>244.2</ele>
        <time>2020-06-29T16:11:26Z</time>
      </trkpt>
      <trkpt lat="48.67824" lon="5.82353">
        <ele>244.2</ele>
        <time>2020-06-29T16:11:27Z</time>
      </trkpt>
      <trkpt lat="48.67827" lon="5.82347">
        <ele>244.1</ele>
        <time>2020-06-29T16:11:28Z</time>
      </trkpt>
      <trkpt lat="48.67829" lon="5.82343">
        <ele>244.1</ele>
        <time>2020-06-29T16:11:29Z</time>
      </trkpt>
      <trkpt lat="48.67832" lon="5.82336">
        <ele>244</ele>
        <time>2020-06-29T16:11:30Z</time>
      </trkpt>
      <trkpt lat="48.67835" lon="5.8233">
        <ele>243.9</ele>
        <time>2020-06-29T16:11:31Z</time>
      </trkpt>
      <trkpt lat="48.67838" lon="5.82326">
        <ele>243.8</ele>
        <time>2020-06-29T16:11:32Z</time>
      </trkpt>
      <trkpt lat="48.67841" lon="5.8232">
        <ele>243.7</ele>
        <time>2020-06-29T16:11:33Z</time>
      </trkpt>
      <trkpt lat="48.67844" lon="5.82313">
        <ele>243.7</ele>
        <time>2020-06-29T16:11:34Z</time>
      </trkpt>
      <trkpt lat="48.67847" lon="5.82307">
        <ele>243.6</ele>
        <time>2020-06-29T16:11:35Z</time>
      </trkpt>
      <trkpt lat="48.6785" lon="5.823">
        <ele>243.5</ele>
        <time>2020-06-29T16:11:36Z</time>
      </trkpt>
      <trkpt lat="48.67853" lon="5.82293">
        <ele>243.3</ele>
        <time>2020-06-29T16:11:37Z</time>
      </trkpt>
      <trkpt lat="48.67857" lon="5.82284">
        <ele>243.3</ele>
        <time>2020-06-29T16:11:38Z</time>
      </trkpt>
      <trkpt lat="48.67861" lon="5.82277">
        <ele>243.2</ele>
        <time>2020-06-29T16:11:39Z</time>
      </trkpt>
      <trkpt lat="48.67863" lon="5.82271">
        <ele>243.1</ele>
        <time>2020-06-29T16:11:40Z</time>
      </trkpt>
      <trkpt lat="48.67866" lon="5.82266">
        <ele>243.1</ele>
        <time>2020-06-29T16:11:41Z</time>
      </trkpt>
      <trkpt lat="48.67869" lon="5.82261">
        <ele>243</ele>
        <time>2020-06-29T16:11:42Z</time>
      </trkpt>
      <trkpt lat="48.67872" lon="5.82256">
        <ele>243</ele>
        <time>2020-06-29T16:11:43Z</time>
      </trkpt>
      <trkpt lat="48.67876" lon="5.82249">
        <ele>242.9</ele>
        <time>2020-06-29T16:11:44Z</time>
      </trkpt>
      <trkpt lat="48.67879" lon="5.82243">
        <ele>242.9</ele>
        <time>2020-06-29T16:11:45Z</time>
      </trkpt>
      <trkpt lat="48.67882" lon="5.82237">
        <ele>242.8</ele>
        <time>2020-06-29T16:11:46Z</time>
      </trkpt>
      <trkpt lat="48.67886" lon="5.82229">
        <ele>242.8</ele>
        <time>2020-06-29T16:11:47Z</time>
      </trkpt>
      <trkpt lat="48.67888" lon="5.82223">
        <ele>242.7</ele>
        <time>2020-06-29T16:11:48Z</time>
      </trkpt>
      <trkpt lat="48.67891" lon="5.82217">
        <ele>242.7</ele>
        <time>2020-06-29T16:11:49Z</time>
      </trkpt>
      <trkpt lat="48.67894" lon="5.82211">
        <ele>242.7</ele>
        <time>2020-06-29T16:11:50Z</time>
      </trkpt>
      <trkpt lat="48.67897" lon="5.82205">
        <ele>242.7</ele>
        <time>2020-06-29T16:11:51Z</time>
      </trkpt>
      <trkpt lat="48.679" lon="5.82198">
        <ele>242.7</ele>
        <time>2020-06-29T16:11:52Z</time>
      </trkpt>
      <trkpt lat="48.67903" lon="5.82192">
        <ele>242.6</ele>
        <time>2020-06-29T16:11:53Z</time>
      </trkpt>
      <trkpt lat="48.67905" lon="5.82187">
        <ele>242.6</ele>
        <time>2020-06-29T16:11:54Z</time>
      </trkpt>
      <trkpt lat="48.67907" lon="5.82182">
        <ele>242.6</ele>
        <time>2020-06-29T16:11:55Z</time>
      </trkpt>
      <trkpt lat="48.6791" lon="5.82176">
        <ele>242.7</ele>
        <time>2020-06-29T16:11:56Z</time>
      </trkpt>
      <trkpt lat="48.67913" lon="5.8217">
        <ele>242.7</ele>
        <time>2020-06-29T16:11:57Z</time>
      </trkpt>
      <trkpt lat="48.67915" lon="5.82165">
        <ele>242.7</ele>
        <time>2020-06-29T16:11:58Z</time>
      </trkpt>
      <trkpt lat="48.67917" lon="5.82159">
        <ele>242.7</ele>
        <time>2020-06-29T16:11:59Z</time>
      </trkpt>
      <trkpt lat="48.67919" lon="5.82154">
        <ele>242.7</ele>
        <time>2020-06-29T16:12:00Z</time>
      </trkpt>
      <trkpt lat="48.6792" lon="5.82147">
        <ele>242.8</ele>
        <time>2020-06-29T16:12:01Z</time>
      </trkpt>
      <trkpt lat="48.67922" lon="5.82142">
        <ele>242.8</ele>
        <time>2020-06-29T16:12:02Z</time>
      </trkpt>
      <trkpt lat="48.67923" lon="5.82137">
        <ele>242.8</ele>
        <time>2020-06-29T16:12:03Z</time>
      </trkpt>
      <trkpt lat="48.67925" lon="5.82132">
        <ele>242.8</ele>
        <time>2020-06-29T16:12:04Z</time>
      </trkpt>
      <trkpt lat="48.67928" lon="5.82125">
        <ele>242.7</ele>
        <time>2020-06-29T16:12:05Z</time>
      </trkpt>
      <trkpt lat="48.6793" lon="5.82119">
        <ele>242.7</ele>
        <time>2020-06-29T16:12:06Z</time>
      </trkpt>
      <trkpt lat="48.67932" lon="5.82113">
        <ele>242.7</ele>
        <time>2020-06-29T16:12:07Z</time>
      </trkpt>
      <trkpt lat="48.67934" lon="5.82107">
        <ele>242.6</ele>
        <time>2020-06-29T16:12:08Z</time>
      </trkpt>
      <trkpt lat="48.67937" lon="5.82102">
        <ele>242.5</ele>
        <time>2020-06-29T16:12:09Z</time>
      </trkpt>
      <trkpt lat="48.67939" lon="5.82096">
        <ele>242.5</ele>
        <time>2020-06-29T16:12:10Z</time>
      </trkpt>
      <trkpt lat="48.67941" lon="5.82091">
        <ele>242.4</ele>
        <time>2020-06-29T16:12:11Z</time>
      </trkpt>
      <trkpt lat="48.67943" lon="5.82084">
        <ele>242.3</ele>
        <time>2020-06-29T16:12:12Z</time>
      </trkpt>
      <trkpt lat="48.67946" lon="5.82076">
        <ele>242.2</ele>
        <time>2020-06-29T16:12:13Z</time>
      </trkpt>
      <trkpt lat="48.67948" lon="5.82069">
        <ele>242.1</ele>
        <time>2020-06-29T16:12:14Z</time>
      </trkpt>
      <trkpt lat="48.67949" lon="5.82062">
        <ele>241.9</ele>
        <time>2020-06-29T16:12:15Z</time>
      </trkpt>
      <trkpt lat="48.67952" lon="5.82055">
        <ele>241.8</ele>
        <time>2020-06-29T16:12:16Z</time>
      </trkpt>
      <trkpt lat="48.67955" lon="5.82049">
        <ele>241.6</ele>
        <time>2020-06-29T16:12:17Z</time>
      </trkpt>
      <trkpt lat="48.67958" lon="5.82042">
        <ele>241.5</ele>
        <time>2020-06-29T16:12:18Z</time>
      </trkpt>
      <trkpt lat="48.6796" lon="5.82038">
        <ele>241.3</ele>
        <time>2020-06-29T16:12:19Z</time>
      </trkpt>
      <trkpt lat="48.67964" lon="5.82031">
        <ele>241.1</ele>
        <time>2020-06-29T16:12:20Z</time>
      </trkpt>
      <trkpt lat="48.67967" lon="5.82025">
        <ele>241</ele>
        <time>2020-06-29T16:12:21Z</time>
      </trkpt>
      <trkpt lat="48.67969" lon="5.82019">
        <ele>240.9</ele>
        <time>2020-06-29T16:12:22Z</time>
      </trkpt>
      <trkpt lat="48.67971" lon="5.82011">
        <ele>240.7</ele>
        <time>2020-06-29T16:12:23Z</time>
      </trkpt>
      <trkpt lat="48.67973" lon="5.82006">
        <ele>240.6</ele>
        <time>2020-06-29T16:12:24Z</time>
      </trkpt>
      <trkpt lat="48.67974" lon="5.82">
        <ele>240.4</ele>
        <time>2020-06-29T16:12:25Z</time>
      </trkpt>
      <trkpt lat="48.67977" lon="5.81991">
        <ele>240.1</ele>
        <time>2020-06-29T16:12:26Z</time>
      </trkpt>
      <trkpt lat="48.6798" lon="5.81984">
        <ele>239.9</ele>
        <time>2020-06-29T16:12:27Z</time>
      </trkpt>
      <trkpt lat="48.67982" lon="5.81976">
        <ele>239.7</ele>
        <time>2020-06-29T16:12:28Z</time>
      </trkpt>
      <trkpt lat="48.67984" lon="5.81967">
        <ele>239.4</ele>
        <time>2020-06-29T16:12:29Z</time>
      </trkpt>
      <trkpt lat="48.67986" lon="5.81957">
        <ele>239.2</ele>
        <time>2020-06-29T16:12:30Z</time>
      </trkpt>
      <trkpt lat="48.67988" lon="5.81947">
        <ele>239</ele>
        <time>2020-06-29T16:12:31Z</time>
      </trkpt>
      <trkpt lat="48.6799" lon="5.81939">
        <ele>238.9</ele>
        <time>2020-06-29T16:12:32Z</time>
      </trkpt>
      <trkpt lat="48.67992" lon="5.81929">
        <ele>238.7</ele>
        <time>2020-06-29T16:12:33Z</time>
      </trkpt>
      <trkpt lat="48.67994" lon="5.81921">
        <ele>238.7</ele>
        <time>2020-06-29T16:12:34Z</time>
      </trkpt>
      <trkpt lat="48.67996" lon="5.81913">
        <ele>238.6</ele>
        <time>2020-06-29T16:12:35Z</time>
      </trkpt>
      <trkpt lat="48.67998" lon="5.81905">
        <ele>238.6</ele>
        <time>2020-06-29T16:12:36Z</time>
      </trkpt>
      <trkpt lat="48.68" lon="5.81895">
        <ele>238.5</ele>
        <time>2020-06-29T16:12:37Z</time>
      </trkpt>
      <trkpt lat="48.68002" lon="5.81884">
        <ele>238.5</ele>
        <time>2020-06-29T16:12:38Z</time>
      </trkpt>
      <trkpt lat="48.68003" lon="5.81874">
        <ele>238.5</ele>
        <time>2020-06-29T16:12:39Z</time>
      </trkpt>
      <trkpt lat="48.68004" lon="5.81864">
        <ele>238.5</ele>
        <time>2020-06-29T16:12:40Z</time>
      </trkpt>
      <trkpt lat="48.68005" lon="5.81856">
        <ele>238.6</ele>
        <time>2020-06-29T16:12:41Z</time>
      </trkpt>
      <trkpt lat="48.68005" lon="5.81846">
        <ele>238.7</ele>
        <time>2020-06-29T16:12:42Z</time>
      </trkpt>
      <trkpt lat="48.68006" lon="5.81837">
        <ele>238.8</ele>
        <time>2020-06-29T16:12:43Z</time>
      </trkpt>
      <trkpt lat="48.68006" lon="5.81829">
        <ele>239</ele>
        <time>2020-06-29T16:12:44Z</time>
      </trkpt>
      <trkpt lat="48.68007" lon="5.81822">
        <ele>239.1</ele>
        <time>2020-06-29T16:12:45Z</time>
      </trkpt>
      <trkpt lat="48.68007" lon="5.81815">
        <ele>239.2</ele>
        <time>2020-06-29T16:12:46Z</time>
      </trkpt>
      <trkpt lat="48.68008" lon="5.81808">
        <ele>239.3</ele>
        <time>2020-06-29T16:12:47Z</time>
      </trkpt>
      <trkpt lat="48.68008" lon="5.81802">
        <ele>239.4</ele>
        <time>2020-06-29T16:12:48Z</time>
      </trkpt>
      <trkpt lat="48.68009" lon="5.81796">
        <ele>239.5</ele>
        <time>2020-06-29T16:12:49Z</time>
      </trkpt>
      <trkpt lat="48.68009" lon="5.81789">
        <ele>239.7</ele>
        <time>2020-06-29T16:12:50Z</time>
      </trkpt>
      <trkpt lat="48.68009" lon="5.81782">
        <ele>239.9</ele>
        <time>2020-06-29T16:12:51Z</time>
      </trkpt>
      <trkpt lat="48.6801" lon="5.81776">
        <ele>240.1</ele>
        <time>2020-06-29T16:12:52Z</time>
      </trkpt>
      <trkpt lat="48.68011" lon="5.81768">
        <ele>240.3</ele>
        <time>2020-06-29T16:12:53Z</time>
      </trkpt>
      <trkpt lat="48.68011" lon="5.81762">
        <ele>240.5</ele>
        <time>2020-06-29T16:12:54Z</time>
      </trkpt>
      <trkpt lat="48.68011" lon="5.81758">
        <ele>240.7</ele>
        <time>2020-06-29T16:12:55Z</time>
      </trkpt>
      <trkpt lat="48.6801" lon="5.81753">
        <ele>240.9</ele>
        <time>2020-06-29T16:12:56Z</time>
      </trkpt>
      <trkpt lat="48.6801" lon="5.81748">
        <ele>241</ele>
        <time>2020-06-29T16:12:57Z</time>
      </trkpt>
      <trkpt lat="48.6801" lon="5.81743">
        <ele>241.2</ele>
        <time>2020-06-29T16:12:58Z</time>
      </trkpt>
      <trkpt lat="48.68009" lon="5.81736">
        <ele>241.4</ele>
        <time>2020-06-29T16:12:59Z</time>
      </trkpt>
      <trkpt lat="48.68009" lon="5.81734">
        <ele>241.5</ele>
        <time>2020-06-29T16:13:00Z</time>
      </trkpt>
      <trkpt lat="48.6801" lon="5.81725">
        <ele>241.8</ele>
        <time>2020-06-29T16:13:01Z</time>
      </trkpt>
      <trkpt lat="48.68009" lon="5.81719">
        <ele>242.1</ele>
        <time>2020-06-29T16:13:02Z</time>
      </trkpt>
      <trkpt lat="48.68008" lon="5.81714">
        <ele>242.2</ele>
        <time>2020-06-29T16:13:03Z</time>
      </trkpt>
      <trkpt lat="48.68008" lon="5.81712">
        <ele>242.3</ele>
        <time>2020-06-29T16:13:04Z</time>
      </trkpt>
      <trkpt lat="48.68007" lon="5.81706">
        <ele>242.5</ele>
        <time>2020-06-29T16:13:05Z</time>
      </trkpt>
      <trkpt lat="48.68007" lon="5.81704">
        <ele>242.6</ele>
        <time>2020-06-29T16:13:06Z</time>
      </trkpt>
      <trkpt lat="48.68007" lon="5.817">
        <ele>242.7</ele>
        <time>2020-06-29T16:13:07Z</time>
      </trkpt>
      <trkpt lat="48.68006" lon="5.81694">
        <ele>242.9</ele>
        <time>2020-06-29T16:13:08Z</time>
      </trkpt>
      <trkpt lat="48.68006" lon="5.8169">
        <ele>243</ele>
        <time>2020-06-29T16:13:09Z</time>
      </trkpt>
      <trkpt lat="48.68006" lon="5.81685">
        <ele>243.1</ele>
        <time>2020-06-29T16:13:10Z</time>
      </trkpt>
      <trkpt lat="48.68005" lon="5.81681">
        <ele>243.3</ele>
        <time>2020-06-29T16:13:11Z</time>
      </trkpt>
      <trkpt lat="48.68005" lon="5.81677">
        <ele>243.4</ele>
        <time>2020-06-29T16:13:12Z</time>
      </trkpt>
      <trkpt lat="48.68004" lon="5.81671">
        <ele>243.5</ele>
        <time>2020-06-29T16:13:13Z</time>
      </trkpt>
      <trkpt lat="48.68004" lon="5.81669">
        <ele>243.6</ele>
        <time>2020-06-29T16:13:14Z</time>
      </trkpt>
      <trkpt lat="48.68004" lon="5.81665">
        <ele>243.7</ele>
        <time>2020-06-29T16:13:15Z</time>
      </trkpt>
      <trkpt lat="48.68004" lon="5.81659">
        <ele>243.9</ele>
        <time>2020-06-29T16:13:16Z</time>
      </trkpt>
      <trkpt lat="48.68004" lon="5.81657">
        <ele>243.9</ele>
        <time>2020-06-29T16:13:17Z</time>
      </trkpt>
      <trkpt lat="48.68004" lon="5.81651">
        <ele>244.1</ele>
        <time>2020-06-29T16:13:18Z</time>
      </trkpt>
      <trkpt lat="48.68004" lon="5.81649">
        <ele>244.1</ele>
        <time>2020-06-29T16:13:19Z</time>
      </trkpt>
      <trkpt lat="48.68003" lon="5.81643">
        <ele>244.3</ele>
        <time>2020-06-29T16:13:20Z</time>
      </trkpt>
      <trkpt lat="48.68003" lon="5.81638">
        <ele>244.4</ele>
        <time>2020-06-29T16:13:21Z</time>
      </trkpt>
      <trkpt lat="48.68003" lon="5.81636">
        <ele>244.4</ele>
        <time>2020-06-29T16:13:22Z</time>
      </trkpt>
      <trkpt lat="48.68003" lon="5.8163">
        <ele>244.5</ele>
        <time>2020-06-29T16:13:23Z</time>
      </trkpt>
      <trkpt lat="48.68003" lon="5.81625">
        <ele>244.6</ele>
        <time>2020-06-29T16:13:24Z</time>
      </trkpt>
      <trkpt lat="48.68003" lon="5.81621">
        <ele>244.7</ele>
        <time>2020-06-29T16:13:25Z</time>
      </trkpt>
      <trkpt lat="48.68002" lon="5.81616">
        <ele>244.8</ele>
        <time>2020-06-29T16:13:26Z</time>
      </trkpt>
      <trkpt lat="48.68002" lon="5.81614">
        <ele>244.8</ele>
        <time>2020-06-29T16:13:27Z</time>
      </trkpt>
      <trkpt lat="48.68002" lon="5.8161">
        <ele>244.8</ele>
        <time>2020-06-29T16:13:28Z</time>
      </trkpt>
      <trkpt lat="48.68001" lon="5.81606">
        <ele>244.9</ele>
        <time>2020-06-29T16:13:29Z</time>
      </trkpt>
      <trkpt lat="48.68001" lon="5.81601">
        <ele>244.9</ele>
        <time>2020-06-29T16:13:30Z</time>
      </trkpt>
      <trkpt lat="48.68001" lon="5.81597">
        <ele>245</ele>
        <time>2020-06-29T16:13:31Z</time>
      </trkpt>
      <trkpt lat="48.68001" lon="5.81592">
        <ele>245</ele>
        <time>2020-06-29T16:13:32Z</time>
      </trkpt>
      <trkpt lat="48.68" lon="5.81587">
        <ele>245.1</ele>
        <time>2020-06-29T16:13:33Z</time>
      </trkpt>
      <trkpt lat="48.68" lon="5.8158">
        <ele>245.2</ele>
        <time>2020-06-29T16:13:34Z</time>
      </trkpt>
      <trkpt lat="48.68" lon="5.81577">
        <ele>245.2</ele>
        <time>2020-06-29T16:13:35Z</time>
      </trkpt>
      <trkpt lat="48.67999" lon="5.81571">
        <ele>245.2</ele>
        <time>2020-06-29T16:13:36Z</time>
      </trkpt>
      <trkpt lat="48.67999" lon="5.81568">
        <ele>245.3</ele>
        <time>2020-06-29T16:13:37Z</time>
      </trkpt>
      <trkpt lat="48.67999" lon="5.81563">
        <ele>245.3</ele>
        <time>2020-06-29T16:13:38Z</time>
      </trkpt>
      <trkpt lat="48.67999" lon="5.81558">
        <ele>245.3</ele>
        <time>2020-06-29T16:13:39Z</time>
      </trkpt>
      <trkpt lat="48.67998" lon="5.81552">
        <ele>245.4</ele>
        <time>2020-06-29T16:13:40Z</time>
      </trkpt>
      <trkpt lat="48.67998" lon="5.81549">
        <ele>245.4</ele>
        <time>2020-06-29T16:13:41Z</time>
      </trkpt>
      <trkpt lat="48.67998" lon="5.81545">
        <ele>245.4</ele>
        <time>2020-06-29T16:13:42Z</time>
      </trkpt>
      <trkpt lat="48.67998" lon="5.8154">
        <ele>245.5</ele>
        <time>2020-06-29T16:13:43Z</time>
      </trkpt>
      <trkpt lat="48.67998" lon="5.81535">
        <ele>245.5</ele>
        <time>2020-06-29T16:13:44Z</time>
      </trkpt>
      <trkpt lat="48.67998" lon="5.81529">
        <ele>245.5</ele>
        <time>2020-06-29T16:13:45Z</time>
      </trkpt>
      <trkpt lat="48.67998" lon="5.81526">
        <ele>245.5</ele>
        <time>2020-06-29T16:13:46Z</time>
      </trkpt>
      <trkpt lat="48.67997" lon="5.8152">
        <ele>245.5</ele>
        <time>2020-06-29T16:13:47Z</time>
      </trkpt>
      <trkpt lat="48.67997" lon="5.81516">
        <ele>245.6</ele>
        <time>2020-06-29T16:13:48Z</time>
      </trkpt>
      <trkpt lat="48.67997" lon="5.8151">
        <ele>245.6</ele>
        <time>2020-06-29T16:13:49Z</time>
      </trkpt>
      <trkpt lat="48.67997" lon="5.81505">
        <ele>245.6</ele>
        <time>2020-06-29T16:13:50Z</time>
      </trkpt>
      <trkpt lat="48.67996" lon="5.81499">
        <ele>245.6</ele>
        <time>2020-06-29T16:13:51Z</time>
      </trkpt>
      <trkpt lat="48.67996" lon="5.81494">
        <ele>245.6</ele>
        <time>2020-06-29T16:13:52Z</time>
      </trkpt>
      <trkpt lat="48.67996" lon="5.81489">
        <ele>245.6</ele>
        <time>2020-06-29T16:13:53Z</time>
      </trkpt>
      <trkpt lat="48.67996" lon="5.81483">
        <ele>245.6</ele>
        <time>2020-06-29T16:13:54Z</time>
      </trkpt>
      <trkpt lat="48.67996" lon="5.81475">
        <ele>245.5</ele>
        <time>2020-06-29T16:13:55Z</time>
      </trkpt>
      <trkpt lat="48.67997" lon="5.8147">
        <ele>245.5</ele>
        <time>2020-06-29T16:13:56Z</time>
      </trkpt>
      <trkpt lat="48.67997" lon="5.81464">
        <ele>245.5</ele>
        <time>2020-06-29T16:13:57Z</time>
      </trkpt>
      <trkpt lat="48.67997" lon="5.81458">
        <ele>245.4</ele>
        <time>2020-06-29T16:13:58Z</time>
      </trkpt>
      <trkpt lat="48.67997" lon="5.81452">
        <ele>245.4</ele>
        <time>2020-06-29T16:13:59Z</time>
      </trkpt>
      <trkpt lat="48.67996" lon="5.81448">
        <ele>245.4</ele>
        <time>2020-06-29T16:14:00Z</time>
      </trkpt>
      <trkpt lat="48.67996" lon="5.81442">
        <ele>245.3</ele>
        <time>2020-06-29T16:14:01Z</time>
      </trkpt>
      <trkpt lat="48.67995" lon="5.81437">
        <ele>245.3</ele>
        <time>2020-06-29T16:14:02Z</time>
      </trkpt>
      <trkpt lat="48.67994" lon="5.81431">
        <ele>245.3</ele>
        <time>2020-06-29T16:14:03Z</time>
      </trkpt>
      <trkpt lat="48.67995" lon="5.81423">
        <ele>245.3</ele>
        <time>2020-06-29T16:14:04Z</time>
      </trkpt>
      <trkpt lat="48.67995" lon="5.81417">
        <ele>245.2</ele>
        <time>2020-06-29T16:14:05Z</time>
      </trkpt>
      <trkpt lat="48.67995" lon="5.81411">
        <ele>245.2</ele>
        <time>2020-06-29T16:14:06Z</time>
      </trkpt>
      <trkpt lat="48.67994" lon="5.81404">
        <ele>245.2</ele>
        <time>2020-06-29T16:14:07Z</time>
      </trkpt>
      <trkpt lat="48.67993" lon="5.81398">
        <ele>245.1</ele>
        <time>2020-06-29T16:14:08Z</time>
      </trkpt>
      <trkpt lat="48.67993" lon="5.81391">
        <ele>245</ele>
        <time>2020-06-29T16:14:09Z</time>
      </trkpt>
      <trkpt lat="48.67992" lon="5.81385">
        <ele>245</ele>
        <time>2020-06-29T16:14:10Z</time>
      </trkpt>
      <trkpt lat="48.67992" lon="5.81379">
        <ele>244.9</ele>
        <time>2020-06-29T16:14:11Z</time>
      </trkpt>
      <trkpt lat="48.67992" lon="5.81371">
        <ele>244.7</ele>
        <time>2020-06-29T16:14:12Z</time>
      </trkpt>
      <trkpt lat="48.67992" lon="5.81364">
        <ele>244.6</ele>
        <time>2020-06-29T16:14:13Z</time>
      </trkpt>
      <trkpt lat="48.67993" lon="5.81355">
        <ele>244.4</ele>
        <time>2020-06-29T16:14:14Z</time>
      </trkpt>
      <trkpt lat="48.67993" lon="5.81349">
        <ele>244.3</ele>
        <time>2020-06-29T16:14:15Z</time>
      </trkpt>
      <trkpt lat="48.67993" lon="5.81342">
        <ele>244.2</ele>
        <time>2020-06-29T16:14:16Z</time>
      </trkpt>
      <trkpt lat="48.67994" lon="5.81332">
        <ele>244.1</ele>
        <time>2020-06-29T16:14:17Z</time>
      </trkpt>
      <trkpt lat="48.67994" lon="5.81324">
        <ele>243.9</ele>
        <time>2020-06-29T16:14:18Z</time>
      </trkpt>
      <trkpt lat="48.67995" lon="5.81317">
        <ele>243.8</ele>
        <time>2020-06-29T16:14:19Z</time>
      </trkpt>
      <trkpt lat="48.67995" lon="5.81308">
        <ele>243.7</ele>
        <time>2020-06-29T16:14:20Z</time>
      </trkpt>
      <trkpt lat="48.67996" lon="5.81301">
        <ele>243.6</ele>
        <time>2020-06-29T16:14:21Z</time>
      </trkpt>
      <trkpt lat="48.67997" lon="5.81295">
        <ele>243.5</ele>
        <time>2020-06-29T16:14:22Z</time>
      </trkpt>
      <trkpt lat="48.67997" lon="5.81287">
        <ele>243.4</ele>
        <time>2020-06-29T16:14:23Z</time>
      </trkpt>
      <trkpt lat="48.67998" lon="5.81279">
        <ele>243.3</ele>
        <time>2020-06-29T16:14:24Z</time>
      </trkpt>
      <trkpt lat="48.67998" lon="5.81272">
        <ele>243.3</ele>
        <time>2020-06-29T16:14:25Z</time>
      </trkpt>
      <trkpt lat="48.67998" lon="5.81264">
        <ele>243.2</ele>
        <time>2020-06-29T16:14:26Z</time>
      </trkpt>
      <trkpt lat="48.67999" lon="5.81256">
        <ele>243.2</ele>
        <time>2020-06-29T16:14:27Z</time>
      </trkpt>
      <trkpt lat="48.67999" lon="5.81248">
        <ele>243.1</ele>
        <time>2020-06-29T16:14:28Z</time>
      </trkpt>
      <trkpt lat="48.68" lon="5.81238">
        <ele>243.1</ele>
        <time>2020-06-29T16:14:29Z</time>
      </trkpt>
      <trkpt lat="48.68001" lon="5.81228">
        <ele>243</ele>
        <time>2020-06-29T16:14:30Z</time>
      </trkpt>
      <trkpt lat="48.68" lon="5.81221">
        <ele>243</ele>
        <time>2020-06-29T16:14:31Z</time>
      </trkpt>
      <trkpt lat="48.68001" lon="5.81213">
        <ele>242.9</ele>
        <time>2020-06-29T16:14:32Z</time>
      </trkpt>
      <trkpt lat="48.68002" lon="5.81205">
        <ele>242.9</ele>
        <time>2020-06-29T16:14:33Z</time>
      </trkpt>
      <trkpt lat="48.68002" lon="5.81197">
        <ele>242.9</ele>
        <time>2020-06-29T16:14:34Z</time>
      </trkpt>
      <trkpt lat="48.68002" lon="5.8119">
        <ele>242.9</ele>
        <time>2020-06-29T16:14:35Z</time>
      </trkpt>
      <trkpt lat="48.68002" lon="5.81182">
        <ele>242.9</ele>
        <time>2020-06-29T16:14:36Z</time>
      </trkpt>
      <trkpt lat="48.68003" lon="5.81174">
        <ele>242.9</ele>
        <time>2020-06-29T16:14:37Z</time>
      </trkpt>
      <trkpt lat="48.68004" lon="5.81168">
        <ele>242.9</ele>
        <time>2020-06-29T16:14:38Z</time>
      </trkpt>
      <trkpt lat="48.68005" lon="5.81161">
        <ele>242.9</ele>
        <time>2020-06-29T16:14:39Z</time>
      </trkpt>
      <trkpt lat="48.68006" lon="5.81154">
        <ele>242.9</ele>
        <time>2020-06-29T16:14:40Z</time>
      </trkpt>
      <trkpt lat="48.68006" lon="5.81147">
        <ele>242.8</ele>
        <time>2020-06-29T16:14:41Z</time>
      </trkpt>
      <trkpt lat="48.68007" lon="5.8114">
        <ele>242.8</ele>
        <time>2020-06-29T16:14:42Z</time>
      </trkpt>
      <trkpt lat="48.68008" lon="5.81132">
        <ele>242.8</ele>
        <time>2020-06-29T16:14:43Z</time>
      </trkpt>
      <trkpt lat="48.68009" lon="5.81122">
        <ele>242.8</ele>
        <time>2020-06-29T16:14:44Z</time>
      </trkpt>
      <trkpt lat="48.6801" lon="5.81114">
        <ele>242.8</ele>
        <time>2020-06-29T16:14:45Z</time>
      </trkpt>
      <trkpt lat="48.68011" lon="5.81108">
        <ele>242.8</ele>
        <time>2020-06-29T16:14:46Z</time>
      </trkpt>
      <trkpt lat="48.68013" lon="5.81101">
        <ele>242.8</ele>
        <time>2020-06-29T16:14:47Z</time>
      </trkpt>
      <trkpt lat="48.68014" lon="5.81093">
        <ele>242.7</ele>
        <time>2020-06-29T16:14:48Z</time>
      </trkpt>
      <trkpt lat="48.68015" lon="5.81084">
        <ele>242.7</ele>
        <time>2020-06-29T16:14:49Z</time>
      </trkpt>
      <trkpt lat="48.68017" lon="5.81077">
        <ele>242.6</ele>
        <time>2020-06-29T16:14:50Z</time>
      </trkpt>
      <trkpt lat="48.68018" lon="5.81069">
        <ele>242.6</ele>
        <time>2020-06-29T16:14:51Z</time>
      </trkpt>
      <trkpt lat="48.68019" lon="5.81062">
        <ele>242.5</ele>
        <time>2020-06-29T16:14:52Z</time>
      </trkpt>
      <trkpt lat="48.6802" lon="5.81055">
        <ele>242.5</ele>
        <time>2020-06-29T16:14:53Z</time>
      </trkpt>
      <trkpt lat="48.68021" lon="5.81047">
        <ele>242.5</ele>
        <time>2020-06-29T16:14:54Z</time>
      </trkpt>
      <trkpt lat="48.68022" lon="5.8104">
        <ele>242.5</ele>
        <time>2020-06-29T16:14:55Z</time>
      </trkpt>
      <trkpt lat="48.68023" lon="5.81033">
        <ele>242.4</ele>
        <time>2020-06-29T16:14:56Z</time>
      </trkpt>
      <trkpt lat="48.68024" lon="5.81026">
        <ele>242.4</ele>
        <time>2020-06-29T16:14:57Z</time>
      </trkpt>
      <trkpt lat="48.68025" lon="5.81016">
        <ele>242.4</ele>
        <time>2020-06-29T16:14:58Z</time>
      </trkpt>
      <trkpt lat="48.68026" lon="5.8101">
        <ele>242.4</ele>
        <time>2020-06-29T16:14:59Z</time>
      </trkpt>
      <trkpt lat="48.68027" lon="5.81003">
        <ele>242.3</ele>
        <time>2020-06-29T16:15:00Z</time>
      </trkpt>
      <trkpt lat="48.68027" lon="5.80996">
        <ele>242.3</ele>
        <time>2020-06-29T16:15:01Z</time>
      </trkpt>
      <trkpt lat="48.68028" lon="5.8099">
        <ele>242.3</ele>
        <time>2020-06-29T16:15:02Z</time>
      </trkpt>
      <trkpt lat="48.6803" lon="5.80983">
        <ele>242.3</ele>
        <time>2020-06-29T16:15:03Z</time>
      </trkpt>
      <trkpt lat="48.68031" lon="5.80977">
        <ele>242.3</ele>
        <time>2020-06-29T16:15:04Z</time>
      </trkpt>
      <trkpt lat="48.68033" lon="5.8097">
        <ele>242.3</ele>
        <time>2020-06-29T16:15:05Z</time>
      </trkpt>
      <trkpt lat="48.68035" lon="5.80964">
        <ele>242.3</ele>
        <time>2020-06-29T16:15:06Z</time>
      </trkpt>
      <trkpt lat="48.68035" lon="5.80959">
        <ele>242.3</ele>
        <time>2020-06-29T16:15:07Z</time>
      </trkpt>
      <trkpt lat="48.68037" lon="5.80953">
        <ele>242.3</ele>
        <time>2020-06-29T16:15:08Z</time>
      </trkpt>
      <trkpt lat="48.68039" lon="5.80946">
        <ele>242.3</ele>
        <time>2020-06-29T16:15:09Z</time>
      </trkpt>
      <trkpt lat="48.68041" lon="5.80937">
        <ele>242.3</ele>
        <time>2020-06-29T16:15:10Z</time>
      </trkpt>
      <trkpt lat="48.68043" lon="5.80931">
        <ele>242.3</ele>
        <time>2020-06-29T16:15:11Z</time>
      </trkpt>
      <trkpt lat="48.68045" lon="5.80925">
        <ele>242.3</ele>
        <time>2020-06-29T16:15:12Z</time>
      </trkpt>
      <trkpt lat="48.68047" lon="5.80918">
        <ele>242.4</ele>
        <time>2020-06-29T16:15:13Z</time>
      </trkpt>
      <trkpt lat="48.68048" lon="5.80911">
        <ele>242.4</ele>
        <time>2020-06-29T16:15:14Z</time>
      </trkpt>
      <trkpt lat="48.68049" lon="5.80905">
        <ele>242.5</ele>
        <time>2020-06-29T16:15:15Z</time>
      </trkpt>
      <trkpt lat="48.68051" lon="5.80899">
        <ele>242.5</ele>
        <time>2020-06-29T16:15:16Z</time>
      </trkpt>
      <trkpt lat="48.68054" lon="5.8089">
        <ele>242.6</ele>
        <time>2020-06-29T16:15:17Z</time>
      </trkpt>
      <trkpt lat="48.68056" lon="5.80884">
        <ele>242.7</ele>
        <time>2020-06-29T16:15:18Z</time>
      </trkpt>
      <trkpt lat="48.68057" lon="5.80877">
        <ele>242.8</ele>
        <time>2020-06-29T16:15:19Z</time>
      </trkpt>
      <trkpt lat="48.68058" lon="5.8087">
        <ele>242.9</ele>
        <time>2020-06-29T16:15:20Z</time>
      </trkpt>
      <trkpt lat="48.68059" lon="5.80865">
        <ele>243</ele>
        <time>2020-06-29T16:15:21Z</time>
      </trkpt>
      <trkpt lat="48.6806" lon="5.80861">
        <ele>243</ele>
        <time>2020-06-29T16:15:22Z</time>
      </trkpt>
      <trkpt lat="48.68061" lon="5.80855">
        <ele>243.1</ele>
        <time>2020-06-29T16:15:23Z</time>
      </trkpt>
      <trkpt lat="48.68062" lon="5.80851">
        <ele>243.2</ele>
        <time>2020-06-29T16:15:24Z</time>
      </trkpt>
      <trkpt lat="48.68064" lon="5.80845">
        <ele>243.2</ele>
        <time>2020-06-29T16:15:25Z</time>
      </trkpt>
      <trkpt lat="48.68065" lon="5.80838">
        <ele>243.3</ele>
        <time>2020-06-29T16:15:26Z</time>
      </trkpt>
      <trkpt lat="48.68067" lon="5.80833">
        <ele>243.3</ele>
        <time>2020-06-29T16:15:27Z</time>
      </trkpt>
      <trkpt lat="48.68068" lon="5.80827">
        <ele>243.4</ele>
        <time>2020-06-29T16:15:28Z</time>
      </trkpt>
      <trkpt lat="48.68069" lon="5.80821">
        <ele>243.4</ele>
        <time>2020-06-29T16:15:29Z</time>
      </trkpt>
      <trkpt lat="48.6807" lon="5.80815">
        <ele>243.4</ele>
        <time>2020-06-29T16:15:30Z</time>
      </trkpt>
      <trkpt lat="48.68071" lon="5.8081">
        <ele>243.5</ele>
        <time>2020-06-29T16:15:31Z</time>
      </trkpt>
      <trkpt lat="48.68073" lon="5.80803">
        <ele>243.5</ele>
        <time>2020-06-29T16:15:32Z</time>
      </trkpt>
      <trkpt lat="48.68075" lon="5.80797">
        <ele>243.5</ele>
        <time>2020-06-29T16:15:33Z</time>
      </trkpt>
      <trkpt lat="48.68077" lon="5.80792">
        <ele>243.5</ele>
        <time>2020-06-29T16:15:34Z</time>
      </trkpt>
      <trkpt lat="48.68078" lon="5.80785">
        <ele>243.5</ele>
        <time>2020-06-29T16:15:35Z</time>
      </trkpt>
      <trkpt lat="48.68079" lon="5.80778">
        <ele>243.4</ele>
        <time>2020-06-29T16:15:36Z</time>
      </trkpt>
      <trkpt lat="48.68081" lon="5.80774">
        <ele>243.4</ele>
        <time>2020-06-29T16:15:37Z</time>
      </trkpt>
      <trkpt lat="48.68083" lon="5.80766">
        <ele>243.4</ele>
        <time>2020-06-29T16:15:38Z</time>
      </trkpt>
      <trkpt lat="48.68085" lon="5.8076">
        <ele>243.4</ele>
        <time>2020-06-29T16:15:39Z</time>
      </trkpt>
      <trkpt lat="48.68087" lon="5.80754">
        <ele>243.4</ele>
        <time>2020-06-29T16:15:40Z</time>
      </trkpt>
      <trkpt lat="48.68088" lon="5.80748">
        <ele>243.4</ele>
        <time>2020-06-29T16:15:41Z</time>
      </trkpt>
      <trkpt lat="48.68089" lon="5.80744">
        <ele>243.5</ele>
        <time>2020-06-29T16:15:42Z</time>
      </trkpt>
      <trkpt lat="48.68091" lon="5.80737">
        <ele>243.5</ele>
        <time>2020-06-29T16:15:43Z</time>
      </trkpt>
      <trkpt lat="48.68093" lon="5.80731">
        <ele>243.5</ele>
        <time>2020-06-29T16:15:44Z</time>
      </trkpt>
      <trkpt lat="48.68094" lon="5.80724">
        <ele>243.6</ele>
        <time>2020-06-29T16:15:45Z</time>
      </trkpt>
      <trkpt lat="48.68096" lon="5.8072">
        <ele>243.6</ele>
        <time>2020-06-29T16:15:46Z</time>
      </trkpt>
      <trkpt lat="48.68097" lon="5.80713">
        <ele>243.6</ele>
        <time>2020-06-29T16:15:47Z</time>
      </trkpt>
      <trkpt lat="48.68099" lon="5.80708">
        <ele>243.7</ele>
        <time>2020-06-29T16:15:48Z</time>
      </trkpt>
      <trkpt lat="48.681" lon="5.80703">
        <ele>243.7</ele>
        <time>2020-06-29T16:15:49Z</time>
      </trkpt>
      <trkpt lat="48.68101" lon="5.80698">
        <ele>243.7</ele>
        <time>2020-06-29T16:15:50Z</time>
      </trkpt>
      <trkpt lat="48.68103" lon="5.80692">
        <ele>243.8</ele>
        <time>2020-06-29T16:15:51Z</time>
      </trkpt>
      <trkpt lat="48.68105" lon="5.80685">
        <ele>243.8</ele>
        <time>2020-06-29T16:15:52Z</time>
      </trkpt>
      <trkpt lat="48.68107" lon="5.80678">
        <ele>243.9</ele>
        <time>2020-06-29T16:15:53Z</time>
      </trkpt>
      <trkpt lat="48.68109" lon="5.80673">
        <ele>243.9</ele>
        <time>2020-06-29T16:15:54Z</time>
      </trkpt>
      <trkpt lat="48.6811" lon="5.80667">
        <ele>244</ele>
        <time>2020-06-29T16:15:55Z</time>
      </trkpt>
      <trkpt lat="48.68113" lon="5.80658">
        <ele>244.1</ele>
        <time>2020-06-29T16:15:56Z</time>
      </trkpt>
      <trkpt lat="48.68115" lon="5.80651">
        <ele>244.1</ele>
        <time>2020-06-29T16:15:57Z</time>
      </trkpt>
      <trkpt lat="48.68116" lon="5.80645">
        <ele>244.2</ele>
        <time>2020-06-29T16:15:58Z</time>
      </trkpt>
      <trkpt lat="48.68117" lon="5.80639">
        <ele>244.3</ele>
        <time>2020-06-29T16:15:59Z</time>
      </trkpt>
      <trkpt lat="48.68119" lon="5.80632">
        <ele>244.4</ele>
        <time>2020-06-29T16:16:00Z</time>
      </trkpt>
      <trkpt lat="48.68121" lon="5.80625">
        <ele>244.5</ele>
        <time>2020-06-29T16:16:01Z</time>
      </trkpt>
      <trkpt lat="48.68122" lon="5.80618">
        <ele>244.6</ele>
        <time>2020-06-29T16:16:02Z</time>
      </trkpt>
      <trkpt lat="48.68124" lon="5.80614">
        <ele>244.7</ele>
        <time>2020-06-29T16:16:03Z</time>
      </trkpt>
      <trkpt lat="48.68126" lon="5.80608">
        <ele>244.8</ele>
        <time>2020-06-29T16:16:04Z</time>
      </trkpt>
      <trkpt lat="48.68127" lon="5.80603">
        <ele>244.9</ele>
        <time>2020-06-29T16:16:05Z</time>
      </trkpt>
      <trkpt lat="48.68128" lon="5.80597">
        <ele>245</ele>
        <time>2020-06-29T16:16:06Z</time>
      </trkpt>
      <trkpt lat="48.68129" lon="5.8059">
        <ele>245.2</ele>
        <time>2020-06-29T16:16:07Z</time>
      </trkpt>
      <trkpt lat="48.68131" lon="5.80585">
        <ele>245.3</ele>
        <time>2020-06-29T16:16:08Z</time>
      </trkpt>
      <trkpt lat="48.68133" lon="5.8058">
        <ele>245.4</ele>
        <time>2020-06-29T16:16:09Z</time>
      </trkpt>
      <trkpt lat="48.68134" lon="5.80575">
        <ele>245.5</ele>
        <time>2020-06-29T16:16:10Z</time>
      </trkpt>
      <trkpt lat="48.68135" lon="5.80569">
        <ele>245.6</ele>
        <time>2020-06-29T16:16:11Z</time>
      </trkpt>
      <trkpt lat="48.68136" lon="5.80564">
        <ele>245.7</ele>
        <time>2020-06-29T16:16:12Z</time>
      </trkpt>
      <trkpt lat="48.68138" lon="5.8056">
        <ele>245.8</ele>
        <time>2020-06-29T16:16:13Z</time>
      </trkpt>
      <trkpt lat="48.6814" lon="5.80554">
        <ele>245.9</ele>
        <time>2020-06-29T16:16:14Z</time>
      </trkpt>
      <trkpt lat="48.68142" lon="5.80549">
        <ele>246</ele>
        <time>2020-06-29T16:16:15Z</time>
      </trkpt>
      <trkpt lat="48.68144" lon="5.80545">
        <ele>246</ele>
        <time>2020-06-29T16:16:16Z</time>
      </trkpt>
      <trkpt lat="48.68145" lon="5.80541">
        <ele>246.1</ele>
        <time>2020-06-29T16:16:17Z</time>
      </trkpt>
      <trkpt lat="48.68147" lon="5.80537">
        <ele>246.2</ele>
        <time>2020-06-29T16:16:18Z</time>
      </trkpt>
      <trkpt lat="48.68148" lon="5.80533">
        <ele>246.3</ele>
        <time>2020-06-29T16:16:19Z</time>
      </trkpt>
      <trkpt lat="48.6815" lon="5.80527">
        <ele>246.4</ele>
        <time>2020-06-29T16:16:20Z</time>
      </trkpt>
      <trkpt lat="48.68151" lon="5.80522">
        <ele>246.5</ele>
        <time>2020-06-29T16:16:21Z</time>
      </trkpt>
      <trkpt lat="48.68153" lon="5.80517">
        <ele>246.6</ele>
        <time>2020-06-29T16:16:22Z</time>
      </trkpt>
      <trkpt lat="48.68154" lon="5.80515">
        <ele>246.6</ele>
        <time>2020-06-29T16:16:23Z</time>
      </trkpt>
      <trkpt lat="48.68156" lon="5.8051">
        <ele>246.8</ele>
        <time>2020-06-29T16:16:24Z</time>
      </trkpt>
      <trkpt lat="48.68156" lon="5.80508">
        <ele>246.8</ele>
        <time>2020-06-29T16:16:25Z</time>
      </trkpt>
      <trkpt lat="48.68158" lon="5.80504">
        <ele>246.9</ele>
        <time>2020-06-29T16:16:26Z</time>
      </trkpt>
      <trkpt lat="48.68159" lon="5.80499">
        <ele>247</ele>
        <time>2020-06-29T16:16:27Z</time>
      </trkpt>
      <trkpt lat="48.6816" lon="5.80493">
        <ele>247.2</ele>
        <time>2020-06-29T16:16:28Z</time>
      </trkpt>
      <trkpt lat="48.68161" lon="5.80491">
        <ele>247.2</ele>
        <time>2020-06-29T16:16:29Z</time>
      </trkpt>
      <trkpt lat="48.68163" lon="5.80488">
        <ele>247.3</ele>
        <time>2020-06-29T16:16:30Z</time>
      </trkpt>
      <trkpt lat="48.68164" lon="5.80484">
        <ele>247.4</ele>
        <time>2020-06-29T16:16:31Z</time>
      </trkpt>
      <trkpt lat="48.68165" lon="5.8048">
        <ele>247.4</ele>
        <time>2020-06-29T16:16:32Z</time>
      </trkpt>
      <trkpt lat="48.68167" lon="5.80475">
        <ele>247.5</ele>
        <time>2020-06-29T16:16:33Z</time>
      </trkpt>
      <trkpt lat="48.68168" lon="5.80473">
        <ele>247.6</ele>
        <time>2020-06-29T16:16:34Z</time>
      </trkpt>
      <trkpt lat="48.6817" lon="5.80468">
        <ele>247.6</ele>
        <time>2020-06-29T16:16:35Z</time>
      </trkpt>
      <trkpt lat="48.68173" lon="5.80464">
        <ele>247.7</ele>
        <time>2020-06-29T16:16:36Z</time>
      </trkpt>
      <trkpt lat="48.68174" lon="5.80462">
        <ele>247.7</ele>
        <time>2020-06-29T16:16:37Z</time>
      </trkpt>
      <trkpt lat="48.68175" lon="5.80457">
        <ele>247.8</ele>
        <time>2020-06-29T16:16:38Z</time>
      </trkpt>
      <trkpt lat="48.68176" lon="5.80452">
        <ele>247.9</ele>
        <time>2020-06-29T16:16:39Z</time>
      </trkpt>
      <trkpt lat="48.68178" lon="5.80448">
        <ele>248</ele>
        <time>2020-06-29T16:16:40Z</time>
      </trkpt>
      <trkpt lat="48.68179" lon="5.80447">
        <ele>248</ele>
        <time>2020-06-29T16:16:41Z</time>
      </trkpt>
      <trkpt lat="48.6818" lon="5.80442">
        <ele>248.1</ele>
        <time>2020-06-29T16:16:42Z</time>
      </trkpt>
      <trkpt lat="48.68182" lon="5.80437">
        <ele>248.2</ele>
        <time>2020-06-29T16:16:43Z</time>
      </trkpt>
      <trkpt lat="48.68183" lon="5.80433">
        <ele>248.2</ele>
        <time>2020-06-29T16:16:44Z</time>
      </trkpt>
      <trkpt lat="48.68185" lon="5.8043">
        <ele>248.3</ele>
        <time>2020-06-29T16:16:45Z</time>
      </trkpt>
      <trkpt lat="48.68187" lon="5.80425">
        <ele>248.4</ele>
        <time>2020-06-29T16:16:46Z</time>
      </trkpt>
      <trkpt lat="48.68187" lon="5.80424">
        <ele>248.4</ele>
        <time>2020-06-29T16:16:47Z</time>
      </trkpt>
      <trkpt lat="48.68189" lon="5.80419">
        <ele>248.5</ele>
        <time>2020-06-29T16:16:48Z</time>
      </trkpt>
      <trkpt lat="48.6819" lon="5.80415">
        <ele>248.9</ele>
        <time>2020-06-29T16:16:49Z</time>
      </trkpt>
      <trkpt lat="48.68191" lon="5.80412">
        <ele>249.1</ele>
        <time>2020-06-29T16:16:50Z</time>
      </trkpt>
      <trkpt lat="48.68193" lon="5.80407">
        <ele>249.2</ele>
        <time>2020-06-29T16:16:51Z</time>
      </trkpt>
      <trkpt lat="48.68194" lon="5.80402">
        <ele>249.3</ele>
        <time>2020-06-29T16:16:52Z</time>
      </trkpt>
      <trkpt lat="48.68196" lon="5.80397">
        <ele>249.3</ele>
        <time>2020-06-29T16:16:53Z</time>
      </trkpt>
      <trkpt lat="48.68198" lon="5.80393">
        <ele>249.4</ele>
        <time>2020-06-29T16:16:54Z</time>
      </trkpt>
      <trkpt lat="48.682" lon="5.80388">
        <ele>249.4</ele>
        <time>2020-06-29T16:16:55Z</time>
      </trkpt>
      <trkpt lat="48.68202" lon="5.80383">
        <ele>249.4</ele>
        <time>2020-06-29T16:16:56Z</time>
      </trkpt>
      <trkpt lat="48.68204" lon="5.80376">
        <ele>249.4</ele>
        <time>2020-06-29T16:16:57Z</time>
      </trkpt>
      <trkpt lat="48.68205" lon="5.8037">
        <ele>249.5</ele>
        <time>2020-06-29T16:16:58Z</time>
      </trkpt>
      <trkpt lat="48.68207" lon="5.80364">
        <ele>249.5</ele>
        <time>2020-06-29T16:16:59Z</time>
      </trkpt>
      <trkpt lat="48.68208" lon="5.80359">
        <ele>249.5</ele>
        <time>2020-06-29T16:17:00Z</time>
      </trkpt>
      <trkpt lat="48.68209" lon="5.80355">
        <ele>249.5</ele>
        <time>2020-06-29T16:17:01Z</time>
      </trkpt>
      <trkpt lat="48.68211" lon="5.80351">
        <ele>249.6</ele>
        <time>2020-06-29T16:17:02Z</time>
      </trkpt>
      <trkpt lat="48.68212" lon="5.80347">
        <ele>249.6</ele>
        <time>2020-06-29T16:17:03Z</time>
      </trkpt>
      <trkpt lat="48.68214" lon="5.80342">
        <ele>249.6</ele>
        <time>2020-06-29T16:17:04Z</time>
      </trkpt>
      <trkpt lat="48.68216" lon="5.80338">
        <ele>249.7</ele>
        <time>2020-06-29T16:17:05Z</time>
      </trkpt>
      <trkpt lat="48.68218" lon="5.80334">
        <ele>249.7</ele>
        <time>2020-06-29T16:17:06Z</time>
      </trkpt>
      <trkpt lat="48.68219" lon="5.8033">
        <ele>249.7</ele>
        <time>2020-06-29T16:17:07Z</time>
      </trkpt>
      <trkpt lat="48.68221" lon="5.80326">
        <ele>249.7</ele>
        <time>2020-06-29T16:17:08Z</time>
      </trkpt>
      <trkpt lat="48.68223" lon="5.80321">
        <ele>249.7</ele>
        <time>2020-06-29T16:17:09Z</time>
      </trkpt>
      <trkpt lat="48.68225" lon="5.80317">
        <ele>249.8</ele>
        <time>2020-06-29T16:17:10Z</time>
      </trkpt>
      <trkpt lat="48.68226" lon="5.8031">
        <ele>249.8</ele>
        <time>2020-06-29T16:17:11Z</time>
      </trkpt>
      <trkpt lat="48.68228" lon="5.80305">
        <ele>249.8</ele>
        <time>2020-06-29T16:17:12Z</time>
      </trkpt>
      <trkpt lat="48.6823" lon="5.80299">
        <ele>249.8</ele>
        <time>2020-06-29T16:17:13Z</time>
      </trkpt>
      <trkpt lat="48.68232" lon="5.80294">
        <ele>249.9</ele>
        <time>2020-06-29T16:17:14Z</time>
      </trkpt>
      <trkpt lat="48.68234" lon="5.8029">
        <ele>249.9</ele>
        <time>2020-06-29T16:17:15Z</time>
      </trkpt>
      <trkpt lat="48.68236" lon="5.80284">
        <ele>249.9</ele>
        <time>2020-06-29T16:17:16Z</time>
      </trkpt>
      <trkpt lat="48.68238" lon="5.80278">
        <ele>249.9</ele>
        <time>2020-06-29T16:17:17Z</time>
      </trkpt>
      <trkpt lat="48.68241" lon="5.80275">
        <ele>250</ele>
        <time>2020-06-29T16:17:18Z</time>
      </trkpt>
      <trkpt lat="48.68242" lon="5.80271">
        <ele>250</ele>
        <time>2020-06-29T16:17:19Z</time>
      </trkpt>
      <trkpt lat="48.68245" lon="5.80263">
        <ele>250</ele>
        <time>2020-06-29T16:17:20Z</time>
      </trkpt>
      <trkpt lat="48.68245" lon="5.80258">
        <ele>250.1</ele>
        <time>2020-06-29T16:17:21Z</time>
      </trkpt>
      <trkpt lat="48.68246" lon="5.80253">
        <ele>250.1</ele>
        <time>2020-06-29T16:17:22Z</time>
      </trkpt>
      <trkpt lat="48.68247" lon="5.80249">
        <ele>250.2</ele>
        <time>2020-06-29T16:17:23Z</time>
      </trkpt>
      <trkpt lat="48.68248" lon="5.80243">
        <ele>250.2</ele>
        <time>2020-06-29T16:17:24Z</time>
      </trkpt>
      <trkpt lat="48.68249" lon="5.80239">
        <ele>250.2</ele>
        <time>2020-06-29T16:17:25Z</time>
      </trkpt>
      <trkpt lat="48.68251" lon="5.80234">
        <ele>250.3</ele>
        <time>2020-06-29T16:17:26Z</time>
      </trkpt>
      <trkpt lat="48.68253" lon="5.8023">
        <ele>250.3</ele>
        <time>2020-06-29T16:17:27Z</time>
      </trkpt>
      <trkpt lat="48.68256" lon="5.80223">
        <ele>250.4</ele>
        <time>2020-06-29T16:17:28Z</time>
      </trkpt>
      <trkpt lat="48.68257" lon="5.8022">
        <ele>250.4</ele>
        <time>2020-06-29T16:17:29Z</time>
      </trkpt>
      <trkpt lat="48.68259" lon="5.80213">
        <ele>250.4</ele>
        <time>2020-06-29T16:17:30Z</time>
      </trkpt>
      <trkpt lat="48.68261" lon="5.80208">
        <ele>250.4</ele>
        <time>2020-06-29T16:17:31Z</time>
      </trkpt>
      <trkpt lat="48.68263" lon="5.80204">
        <ele>250.4</ele>
        <time>2020-06-29T16:17:32Z</time>
      </trkpt>
      <trkpt lat="48.68265" lon="5.80198">
        <ele>250.4</ele>
        <time>2020-06-29T16:17:33Z</time>
      </trkpt>
      <trkpt lat="48.68266" lon="5.80194">
        <ele>250.4</ele>
        <time>2020-06-29T16:17:34Z</time>
      </trkpt>
      <trkpt lat="48.68267" lon="5.80189">
        <ele>250.4</ele>
        <time>2020-06-29T16:17:35Z</time>
      </trkpt>
      <trkpt lat="48.68269" lon="5.80184">
        <ele>250.5</ele>
        <time>2020-06-29T16:17:36Z</time>
      </trkpt>
      <trkpt lat="48.68271" lon="5.80179">
        <ele>250.5</ele>
        <time>2020-06-29T16:17:37Z</time>
      </trkpt>
      <trkpt lat="48.68273" lon="5.80173">
        <ele>250.5</ele>
        <time>2020-06-29T16:17:38Z</time>
      </trkpt>
      <trkpt lat="48.68274" lon="5.80168">
        <ele>250.5</ele>
        <time>2020-06-29T16:17:39Z</time>
      </trkpt>
      <trkpt lat="48.68275" lon="5.80162">
        <ele>250.5</ele>
        <time>2020-06-29T16:17:40Z</time>
      </trkpt>
      <trkpt lat="48.68277" lon="5.80157">
        <ele>250.5</ele>
        <time>2020-06-29T16:17:41Z</time>
      </trkpt>
      <trkpt lat="48.68278" lon="5.80152">
        <ele>250.5</ele>
        <time>2020-06-29T16:17:42Z</time>
      </trkpt>
      <trkpt lat="48.68279" lon="5.80147">
        <ele>250.5</ele>
        <time>2020-06-29T16:17:43Z</time>
      </trkpt>
      <trkpt lat="48.68282" lon="5.80142">
        <ele>250.5</ele>
        <time>2020-06-29T16:17:44Z</time>
      </trkpt>
      <trkpt lat="48.68284" lon="5.80136">
        <ele>250.5</ele>
        <time>2020-06-29T16:17:45Z</time>
      </trkpt>
      <trkpt lat="48.68286" lon="5.80131">
        <ele>250.4</ele>
        <time>2020-06-29T16:17:46Z</time>
      </trkpt>
      <trkpt lat="48.68288" lon="5.80125">
        <ele>250.4</ele>
        <time>2020-06-29T16:17:47Z</time>
      </trkpt>
      <trkpt lat="48.6829" lon="5.80119">
        <ele>250.4</ele>
        <time>2020-06-29T16:17:48Z</time>
      </trkpt>
      <trkpt lat="48.68293" lon="5.80113">
        <ele>250.4</ele>
        <time>2020-06-29T16:17:49Z</time>
      </trkpt>
      <trkpt lat="48.68295" lon="5.80107">
        <ele>250.4</ele>
        <time>2020-06-29T16:17:50Z</time>
      </trkpt>
      <trkpt lat="48.68298" lon="5.80102">
        <ele>250.4</ele>
        <time>2020-06-29T16:17:51Z</time>
      </trkpt>
      <trkpt lat="48.68301" lon="5.80097">
        <ele>250.4</ele>
        <time>2020-06-29T16:17:52Z</time>
      </trkpt>
      <trkpt lat="48.68302" lon="5.80091">
        <ele>250.4</ele>
        <time>2020-06-29T16:17:53Z</time>
      </trkpt>
      <trkpt lat="48.68304" lon="5.80085">
        <ele>250.4</ele>
        <time>2020-06-29T16:17:54Z</time>
      </trkpt>
      <trkpt lat="48.68306" lon="5.80079">
        <ele>250.4</ele>
        <time>2020-06-29T16:17:55Z</time>
      </trkpt>
      <trkpt lat="48.68307" lon="5.80073">
        <ele>250.4</ele>
        <time>2020-06-29T16:17:56Z</time>
      </trkpt>
      <trkpt lat="48.68309" lon="5.80068">
        <ele>250.4</ele>
        <time>2020-06-29T16:17:57Z</time>
      </trkpt>
      <trkpt lat="48.6831" lon="5.80061">
        <ele>250.5</ele>
        <time>2020-06-29T16:17:58Z</time>
      </trkpt>
      <trkpt lat="48.68313" lon="5.80056">
        <ele>250.5</ele>
        <time>2020-06-29T16:17:59Z</time>
      </trkpt>
      <trkpt lat="48.68315" lon="5.8005">
        <ele>250.5</ele>
        <time>2020-06-29T16:18:00Z</time>
      </trkpt>
      <trkpt lat="48.68318" lon="5.80044">
        <ele>250.5</ele>
        <time>2020-06-29T16:18:01Z</time>
      </trkpt>
      <trkpt lat="48.6832" lon="5.80037">
        <ele>250.5</ele>
        <time>2020-06-29T16:18:02Z</time>
      </trkpt>
      <trkpt lat="48.68323" lon="5.80032">
        <ele>250.6</ele>
        <time>2020-06-29T16:18:03Z</time>
      </trkpt>
      <trkpt lat="48.68324" lon="5.80025">
        <ele>250.6</ele>
        <time>2020-06-29T16:18:04Z</time>
      </trkpt>
      <trkpt lat="48.68324" lon="5.8002">
        <ele>250.6</ele>
        <time>2020-06-29T16:18:05Z</time>
      </trkpt>
      <trkpt lat="48.68326" lon="5.80014">
        <ele>250.7</ele>
        <time>2020-06-29T16:18:06Z</time>
      </trkpt>
      <trkpt lat="48.68329" lon="5.80009">
        <ele>250.7</ele>
        <time>2020-06-29T16:18:07Z</time>
      </trkpt>
      <trkpt lat="48.68331" lon="5.80004">
        <ele>250.7</ele>
        <time>2020-06-29T16:18:08Z</time>
      </trkpt>
      <trkpt lat="48.68332" lon="5.79999">
        <ele>250.7</ele>
        <time>2020-06-29T16:18:09Z</time>
      </trkpt>
      <trkpt lat="48.68334" lon="5.79994">
        <ele>250.8</ele>
        <time>2020-06-29T16:18:10Z</time>
      </trkpt>
      <trkpt lat="48.68336" lon="5.79989">
        <ele>250.8</ele>
        <time>2020-06-29T16:18:11Z</time>
      </trkpt>
      <trkpt lat="48.68337" lon="5.79984">
        <ele>250.9</ele>
        <time>2020-06-29T16:18:12Z</time>
      </trkpt>
      <trkpt lat="48.68339" lon="5.79979">
        <ele>250.9</ele>
        <time>2020-06-29T16:18:13Z</time>
      </trkpt>
      <trkpt lat="48.68341" lon="5.79975">
        <ele>251</ele>
        <time>2020-06-29T16:18:14Z</time>
      </trkpt>
      <trkpt lat="48.68343" lon="5.7997">
        <ele>251</ele>
        <time>2020-06-29T16:18:15Z</time>
      </trkpt>
      <trkpt lat="48.68346" lon="5.79966">
        <ele>251.1</ele>
        <time>2020-06-29T16:18:16Z</time>
      </trkpt>
      <trkpt lat="48.68347" lon="5.79962">
        <ele>251.1</ele>
        <time>2020-06-29T16:18:17Z</time>
      </trkpt>
      <trkpt lat="48.6835" lon="5.79957">
        <ele>251.2</ele>
        <time>2020-06-29T16:18:18Z</time>
      </trkpt>
      <trkpt lat="48.68352" lon="5.79951">
        <ele>251.3</ele>
        <time>2020-06-29T16:18:19Z</time>
      </trkpt>
      <trkpt lat="48.68354" lon="5.79947">
        <ele>251.4</ele>
        <time>2020-06-29T16:18:20Z</time>
      </trkpt>
      <trkpt lat="48.68356" lon="5.79944">
        <ele>251.5</ele>
        <time>2020-06-29T16:18:21Z</time>
      </trkpt>
      <trkpt lat="48.68359" lon="5.79938">
        <ele>251.6</ele>
        <time>2020-06-29T16:18:22Z</time>
      </trkpt>
      <trkpt lat="48.6836" lon="5.79932">
        <ele>251.7</ele>
        <time>2020-06-29T16:18:23Z</time>
      </trkpt>
      <trkpt lat="48.68361" lon="5.7993">
        <ele>251.7</ele>
        <time>2020-06-29T16:18:24Z</time>
      </trkpt>
      <trkpt lat="48.68363" lon="5.79926">
        <ele>251.8</ele>
        <time>2020-06-29T16:18:25Z</time>
      </trkpt>
      <trkpt lat="48.68364" lon="5.79922">
        <ele>251.9</ele>
        <time>2020-06-29T16:18:26Z</time>
      </trkpt>
      <trkpt lat="48.68365" lon="5.79918">
        <ele>251.9</ele>
        <time>2020-06-29T16:18:27Z</time>
      </trkpt>
      <trkpt lat="48.68367" lon="5.79913">
        <ele>252</ele>
        <time>2020-06-29T16:18:28Z</time>
      </trkpt>
      <trkpt lat="48.68368" lon="5.79908">
        <ele>252.1</ele>
        <time>2020-06-29T16:18:29Z</time>
      </trkpt>
      <trkpt lat="48.6837" lon="5.79903">
        <ele>252.2</ele>
        <time>2020-06-29T16:18:30Z</time>
      </trkpt>
      <trkpt lat="48.68372" lon="5.79898">
        <ele>252.2</ele>
        <time>2020-06-29T16:18:31Z</time>
      </trkpt>
      <trkpt lat="48.68373" lon="5.79894">
        <ele>252.3</ele>
        <time>2020-06-29T16:18:32Z</time>
      </trkpt>
      <trkpt lat="48.68374" lon="5.79889">
        <ele>252.4</ele>
        <time>2020-06-29T16:18:33Z</time>
      </trkpt>
      <trkpt lat="48.68376" lon="5.79885">
        <ele>252.4</ele>
        <time>2020-06-29T16:18:34Z</time>
      </trkpt>
      <trkpt lat="48.68377" lon="5.7988">
        <ele>252.5</ele>
        <time>2020-06-29T16:18:35Z</time>
      </trkpt>
      <trkpt lat="48.68379" lon="5.79875">
        <ele>252.5</ele>
        <time>2020-06-29T16:18:36Z</time>
      </trkpt>
      <trkpt lat="48.68382" lon="5.79869">
        <ele>252.6</ele>
        <time>2020-06-29T16:18:37Z</time>
      </trkpt>
      <trkpt lat="48.68383" lon="5.79864">
        <ele>252.7</ele>
        <time>2020-06-29T16:18:38Z</time>
      </trkpt>
      <trkpt lat="48.68385" lon="5.79859">
        <ele>252.7</ele>
        <time>2020-06-29T16:18:39Z</time>
      </trkpt>
      <trkpt lat="48.68386" lon="5.79854">
        <ele>252.8</ele>
        <time>2020-06-29T16:18:40Z</time>
      </trkpt>
      <trkpt lat="48.68387" lon="5.79849">
        <ele>252.8</ele>
        <time>2020-06-29T16:18:41Z</time>
      </trkpt>
      <trkpt lat="48.68389" lon="5.79843">
        <ele>252.9</ele>
        <time>2020-06-29T16:18:42Z</time>
      </trkpt>
      <trkpt lat="48.68391" lon="5.79837">
        <ele>252.9</ele>
        <time>2020-06-29T16:18:43Z</time>
      </trkpt>
      <trkpt lat="48.68393" lon="5.79833">
        <ele>252.9</ele>
        <time>2020-06-29T16:18:44Z</time>
      </trkpt>
      <trkpt lat="48.68395" lon="5.79828">
        <ele>253</ele>
        <time>2020-06-29T16:18:45Z</time>
      </trkpt>
      <trkpt lat="48.68396" lon="5.79824">
        <ele>253</ele>
        <time>2020-06-29T16:18:46Z</time>
      </trkpt>
      <trkpt lat="48.68397" lon="5.79819">
        <ele>253</ele>
        <time>2020-06-29T16:18:47Z</time>
      </trkpt>
      <trkpt lat="48.684" lon="5.79812">
        <ele>253</ele>
        <time>2020-06-29T16:18:48Z</time>
      </trkpt>
      <trkpt lat="48.68402" lon="5.79805">
        <ele>253.1</ele>
        <time>2020-06-29T16:18:49Z</time>
      </trkpt>
      <trkpt lat="48.68404" lon="5.798">
        <ele>253.1</ele>
        <time>2020-06-29T16:18:50Z</time>
      </trkpt>
      <trkpt lat="48.68405" lon="5.79793">
        <ele>253.2</ele>
        <time>2020-06-29T16:18:51Z</time>
      </trkpt>
      <trkpt lat="48.68407" lon="5.79788">
        <ele>253.2</ele>
        <time>2020-06-29T16:18:52Z</time>
      </trkpt>
      <trkpt lat="48.68409" lon="5.79781">
        <ele>253.3</ele>
        <time>2020-06-29T16:18:53Z</time>
      </trkpt>
      <trkpt lat="48.68411" lon="5.79774">
        <ele>253.3</ele>
        <time>2020-06-29T16:18:54Z</time>
      </trkpt>
      <trkpt lat="48.68413" lon="5.79767">
        <ele>253.3</ele>
        <time>2020-06-29T16:18:55Z</time>
      </trkpt>
      <trkpt lat="48.68414" lon="5.79761">
        <ele>253.3</ele>
        <time>2020-06-29T16:18:56Z</time>
      </trkpt>
      <trkpt lat="48.68416" lon="5.79755">
        <ele>253.2</ele>
        <time>2020-06-29T16:18:57Z</time>
      </trkpt>
      <trkpt lat="48.68418" lon="5.79749">
        <ele>253.4</ele>
        <time>2020-06-29T16:18:58Z</time>
      </trkpt>
      <trkpt lat="48.6842" lon="5.79742">
        <ele>253.4</ele>
        <time>2020-06-29T16:18:59Z</time>
      </trkpt>
      <trkpt lat="48.68422" lon="5.79735">
        <ele>253.5</ele>
        <time>2020-06-29T16:19:00Z</time>
      </trkpt>
      <trkpt lat="48.68424" lon="5.79728">
        <ele>253.6</ele>
        <time>2020-06-29T16:19:01Z</time>
      </trkpt>
      <trkpt lat="48.68426" lon="5.79723">
        <ele>253.6</ele>
        <time>2020-06-29T16:19:02Z</time>
      </trkpt>
      <trkpt lat="48.68428" lon="5.79715">
        <ele>253.8</ele>
        <time>2020-06-29T16:19:03Z</time>
      </trkpt>
      <trkpt lat="48.6843" lon="5.79709">
        <ele>253.9</ele>
        <time>2020-06-29T16:19:04Z</time>
      </trkpt>
      <trkpt lat="48.68432" lon="5.79703">
        <ele>253.9</ele>
        <time>2020-06-29T16:19:05Z</time>
      </trkpt>
      <trkpt lat="48.68433" lon="5.79698">
        <ele>254</ele>
        <time>2020-06-29T16:19:06Z</time>
      </trkpt>
      <trkpt lat="48.68435" lon="5.79692">
        <ele>254.1</ele>
        <time>2020-06-29T16:19:07Z</time>
      </trkpt>
      <trkpt lat="48.68437" lon="5.79687">
        <ele>254.2</ele>
        <time>2020-06-29T16:19:08Z</time>
      </trkpt>
      <trkpt lat="48.68439" lon="5.7968">
        <ele>254.3</ele>
        <time>2020-06-29T16:19:09Z</time>
      </trkpt>
      <trkpt lat="48.68441" lon="5.79674">
        <ele>254.4</ele>
        <time>2020-06-29T16:19:10Z</time>
      </trkpt>
      <trkpt lat="48.68443" lon="5.79668">
        <ele>254.5</ele>
        <time>2020-06-29T16:19:11Z</time>
      </trkpt>
      <trkpt lat="48.68445" lon="5.79663">
        <ele>254.6</ele>
        <time>2020-06-29T16:19:12Z</time>
      </trkpt>
      <trkpt lat="48.68447" lon="5.79657">
        <ele>254.7</ele>
        <time>2020-06-29T16:19:13Z</time>
      </trkpt>
      <trkpt lat="48.6845" lon="5.79652">
        <ele>254.8</ele>
        <time>2020-06-29T16:19:14Z</time>
      </trkpt>
      <trkpt lat="48.68452" lon="5.79647">
        <ele>255</ele>
        <time>2020-06-29T16:19:15Z</time>
      </trkpt>
      <trkpt lat="48.68454" lon="5.79642">
        <ele>255.1</ele>
        <time>2020-06-29T16:19:16Z</time>
      </trkpt>
      <trkpt lat="48.68456" lon="5.79637">
        <ele>255.2</ele>
        <time>2020-06-29T16:19:17Z</time>
      </trkpt>
      <trkpt lat="48.68458" lon="5.79632">
        <ele>255.4</ele>
        <time>2020-06-29T16:19:18Z</time>
      </trkpt>
      <trkpt lat="48.68459" lon="5.79627">
        <ele>255.5</ele>
        <time>2020-06-29T16:19:19Z</time>
      </trkpt>
      <trkpt lat="48.68461" lon="5.79622">
        <ele>255.7</ele>
        <time>2020-06-29T16:19:20Z</time>
      </trkpt>
      <trkpt lat="48.68462" lon="5.79617">
        <ele>255.8</ele>
        <time>2020-06-29T16:19:21Z</time>
      </trkpt>
      <trkpt lat="48.68464" lon="5.79613">
        <ele>256</ele>
        <time>2020-06-29T16:19:22Z</time>
      </trkpt>
      <trkpt lat="48.68465" lon="5.79608">
        <ele>256.1</ele>
        <time>2020-06-29T16:19:23Z</time>
      </trkpt>
      <trkpt lat="48.68465" lon="5.79604">
        <ele>256.2</ele>
        <time>2020-06-29T16:19:24Z</time>
      </trkpt>
      <trkpt lat="48.68467" lon="5.79599">
        <ele>256.4</ele>
        <time>2020-06-29T16:19:25Z</time>
      </trkpt>
      <trkpt lat="48.68468" lon="5.79593">
        <ele>256.6</ele>
        <time>2020-06-29T16:19:26Z</time>
      </trkpt>
      <trkpt lat="48.68469" lon="5.79588">
        <ele>256.8</ele>
        <time>2020-06-29T16:19:27Z</time>
      </trkpt>
      <trkpt lat="48.6847" lon="5.79583">
        <ele>256.9</ele>
        <time>2020-06-29T16:19:28Z</time>
      </trkpt>
      <trkpt lat="48.68471" lon="5.79579">
        <ele>257.1</ele>
        <time>2020-06-29T16:19:29Z</time>
      </trkpt>
      <trkpt lat="48.68473" lon="5.79574">
        <ele>257.3</ele>
        <time>2020-06-29T16:19:30Z</time>
      </trkpt>
      <trkpt lat="48.68474" lon="5.79572">
        <ele>257.4</ele>
        <time>2020-06-29T16:19:31Z</time>
      </trkpt>
      <trkpt lat="48.68476" lon="5.79569">
        <ele>257.5</ele>
        <time>2020-06-29T16:19:32Z</time>
      </trkpt>
      <trkpt lat="48.68478" lon="5.79565">
        <ele>257.6</ele>
        <time>2020-06-29T16:19:33Z</time>
      </trkpt>
      <trkpt lat="48.6848" lon="5.79562">
        <ele>257.6</ele>
        <time>2020-06-29T16:19:34Z</time>
      </trkpt>
      <trkpt lat="48.68481" lon="5.79558">
        <ele>257.6</ele>
        <time>2020-06-29T16:19:35Z</time>
      </trkpt>
      <trkpt lat="48.68482" lon="5.79552">
        <ele>257.7</ele>
        <time>2020-06-29T16:19:36Z</time>
      </trkpt>
      <trkpt lat="48.68483" lon="5.79548">
        <ele>257.7</ele>
        <time>2020-06-29T16:19:37Z</time>
      </trkpt>
      <trkpt lat="48.68484" lon="5.79544">
        <ele>257.7</ele>
        <time>2020-06-29T16:19:38Z</time>
      </trkpt>
      <trkpt lat="48.68486" lon="5.7954">
        <ele>257.7</ele>
        <time>2020-06-29T16:19:39Z</time>
      </trkpt>
      <trkpt lat="48.68487" lon="5.79536">
        <ele>257.7</ele>
        <time>2020-06-29T16:19:40Z</time>
      </trkpt>
      <trkpt lat="48.68488" lon="5.79532">
        <ele>257.7</ele>
        <time>2020-06-29T16:19:41Z</time>
      </trkpt>
      <trkpt lat="48.68489" lon="5.79528">
        <ele>257.7</ele>
        <time>2020-06-29T16:19:42Z</time>
      </trkpt>
      <trkpt lat="48.68491" lon="5.79525">
        <ele>257.8</ele>
        <time>2020-06-29T16:19:43Z</time>
      </trkpt>
      <trkpt lat="48.68492" lon="5.7952">
        <ele>258.2</ele>
        <time>2020-06-29T16:19:44Z</time>
      </trkpt>
      <trkpt lat="48.68493" lon="5.79516">
        <ele>258.3</ele>
        <time>2020-06-29T16:19:45Z</time>
      </trkpt>
      <trkpt lat="48.68494" lon="5.79512">
        <ele>258.5</ele>
        <time>2020-06-29T16:19:46Z</time>
      </trkpt>
      <trkpt lat="48.68495" lon="5.79506">
        <ele>258.6</ele>
        <time>2020-06-29T16:19:47Z</time>
      </trkpt>
      <trkpt lat="48.68496" lon="5.79505">
        <ele>258.7</ele>
        <time>2020-06-29T16:19:48Z</time>
      </trkpt>
      <trkpt lat="48.68497" lon="5.79501">
        <ele>258.8</ele>
        <time>2020-06-29T16:19:49Z</time>
      </trkpt>
      <trkpt lat="48.68498" lon="5.79496">
        <ele>258.9</ele>
        <time>2020-06-29T16:19:50Z</time>
      </trkpt>
      <trkpt lat="48.685" lon="5.79491">
        <ele>259.1</ele>
        <time>2020-06-29T16:19:51Z</time>
      </trkpt>
      <trkpt lat="48.685" lon="5.79487">
        <ele>259.2</ele>
        <time>2020-06-29T16:19:52Z</time>
      </trkpt>
      <trkpt lat="48.68502" lon="5.79483">
        <ele>259.4</ele>
        <time>2020-06-29T16:19:53Z</time>
      </trkpt>
      <trkpt lat="48.68503" lon="5.79479">
        <ele>259.5</ele>
        <time>2020-06-29T16:19:54Z</time>
      </trkpt>
      <trkpt lat="48.68505" lon="5.79475">
        <ele>259.6</ele>
        <time>2020-06-29T16:19:55Z</time>
      </trkpt>
      <trkpt lat="48.68506" lon="5.79471">
        <ele>259.7</ele>
        <time>2020-06-29T16:19:56Z</time>
      </trkpt>
      <trkpt lat="48.68507" lon="5.79467">
        <ele>259.8</ele>
        <time>2020-06-29T16:19:57Z</time>
      </trkpt>
      <trkpt lat="48.68507" lon="5.79462">
        <ele>260</ele>
        <time>2020-06-29T16:19:58Z</time>
      </trkpt>
      <trkpt lat="48.68508" lon="5.79458">
        <ele>260.1</ele>
        <time>2020-06-29T16:19:59Z</time>
      </trkpt>
      <trkpt lat="48.68509" lon="5.79454">
        <ele>260.2</ele>
        <time>2020-06-29T16:20:00Z</time>
      </trkpt>
      <trkpt lat="48.68511" lon="5.79448">
        <ele>260.4</ele>
        <time>2020-06-29T16:20:01Z</time>
      </trkpt>
      <trkpt lat="48.68511" lon="5.79447">
        <ele>260.4</ele>
        <time>2020-06-29T16:20:02Z</time>
      </trkpt>
      <trkpt lat="48.68512" lon="5.79442">
        <ele>260.6</ele>
        <time>2020-06-29T16:20:03Z</time>
      </trkpt>
      <trkpt lat="48.68514" lon="5.79438">
        <ele>260.7</ele>
        <time>2020-06-29T16:20:04Z</time>
      </trkpt>
      <trkpt lat="48.68514" lon="5.79433">
        <ele>260.9</ele>
        <time>2020-06-29T16:20:05Z</time>
      </trkpt>
      <trkpt lat="48.68516" lon="5.79429">
        <ele>261</ele>
        <time>2020-06-29T16:20:06Z</time>
      </trkpt>
      <trkpt lat="48.68517" lon="5.79425">
        <ele>261.1</ele>
        <time>2020-06-29T16:20:07Z</time>
      </trkpt>
      <trkpt lat="48.68518" lon="5.79419">
        <ele>261.3</ele>
        <time>2020-06-29T16:20:08Z</time>
      </trkpt>
      <trkpt lat="48.68518" lon="5.79417">
        <ele>261.4</ele>
        <time>2020-06-29T16:20:09Z</time>
      </trkpt>
      <trkpt lat="48.68519" lon="5.79411">
        <ele>261.6</ele>
        <time>2020-06-29T16:20:10Z</time>
      </trkpt>
      <trkpt lat="48.68519" lon="5.79409">
        <ele>261.7</ele>
        <time>2020-06-29T16:20:11Z</time>
      </trkpt>
      <trkpt lat="48.6852" lon="5.79403">
        <ele>261.9</ele>
        <time>2020-06-29T16:20:12Z</time>
      </trkpt>
      <trkpt lat="48.6852" lon="5.79401">
        <ele>262</ele>
        <time>2020-06-29T16:20:13Z</time>
      </trkpt>
      <trkpt lat="48.68521" lon="5.79396">
        <ele>262.1</ele>
        <time>2020-06-29T16:20:14Z</time>
      </trkpt>
      <trkpt lat="48.68521" lon="5.79392">
        <ele>262.3</ele>
        <time>2020-06-29T16:20:15Z</time>
      </trkpt>
      <trkpt lat="48.68522" lon="5.79387">
        <ele>262.5</ele>
        <time>2020-06-29T16:20:16Z</time>
      </trkpt>
      <trkpt lat="48.68523" lon="5.79385">
        <ele>262.5</ele>
        <time>2020-06-29T16:20:17Z</time>
      </trkpt>
      <trkpt lat="48.68523" lon="5.79379">
        <ele>262.7</ele>
        <time>2020-06-29T16:20:18Z</time>
      </trkpt>
      <trkpt lat="48.68523" lon="5.79377">
        <ele>262.8</ele>
        <time>2020-06-29T16:20:19Z</time>
      </trkpt>
      <trkpt lat="48.68524" lon="5.79372">
        <ele>263</ele>
        <time>2020-06-29T16:20:20Z</time>
      </trkpt>
      <trkpt lat="48.68525" lon="5.79365">
        <ele>263.2</ele>
        <time>2020-06-29T16:20:21Z</time>
      </trkpt>
      <trkpt lat="48.68525" lon="5.79363">
        <ele>263.3</ele>
        <time>2020-06-29T16:20:22Z</time>
      </trkpt>
      <trkpt lat="48.68526" lon="5.7936">
        <ele>263.4</ele>
        <time>2020-06-29T16:20:23Z</time>
      </trkpt>
      <trkpt lat="48.68527" lon="5.79359">
        <ele>263.4</ele>
        <time>2020-06-29T16:20:24Z</time>
      </trkpt>
      <trkpt lat="48.68528" lon="5.79354">
        <ele>263.6</ele>
        <time>2020-06-29T16:20:25Z</time>
      </trkpt>
      <trkpt lat="48.68529" lon="5.7935">
        <ele>263.7</ele>
        <time>2020-06-29T16:20:26Z</time>
      </trkpt>
      <trkpt lat="48.68529" lon="5.79345">
        <ele>263.8</ele>
        <time>2020-06-29T16:20:27Z</time>
      </trkpt>
      <trkpt lat="48.6853" lon="5.79344">
        <ele>263.8</ele>
        <time>2020-06-29T16:20:28Z</time>
      </trkpt>
      <trkpt lat="48.6853" lon="5.79339">
        <ele>263.9</ele>
        <time>2020-06-29T16:20:29Z</time>
      </trkpt>
      <trkpt lat="48.6853" lon="5.79334">
        <ele>264.1</ele>
        <time>2020-06-29T16:20:30Z</time>
      </trkpt>
      <trkpt lat="48.68531" lon="5.7933">
        <ele>264.2</ele>
        <time>2020-06-29T16:20:31Z</time>
      </trkpt>
      <trkpt lat="48.68531" lon="5.79325">
        <ele>264.3</ele>
        <time>2020-06-29T16:20:32Z</time>
      </trkpt>
      <trkpt lat="48.68532" lon="5.7932">
        <ele>264.4</ele>
        <time>2020-06-29T16:20:33Z</time>
      </trkpt>
      <trkpt lat="48.68533" lon="5.79316">
        <ele>264.6</ele>
        <time>2020-06-29T16:20:34Z</time>
      </trkpt>
      <trkpt lat="48.68534" lon="5.7931">
        <ele>264.7</ele>
        <time>2020-06-29T16:20:35Z</time>
      </trkpt>
      <trkpt lat="48.68534" lon="5.79305">
        <ele>264.9</ele>
        <time>2020-06-29T16:20:36Z</time>
      </trkpt>
      <trkpt lat="48.68535" lon="5.79301">
        <ele>265</ele>
        <time>2020-06-29T16:20:37Z</time>
      </trkpt>
      <trkpt lat="48.68534" lon="5.79296">
        <ele>265.2</ele>
        <time>2020-06-29T16:20:38Z</time>
      </trkpt>
      <trkpt lat="48.68534" lon="5.7929">
        <ele>265.3</ele>
        <time>2020-06-29T16:20:39Z</time>
      </trkpt>
      <trkpt lat="48.68534" lon="5.79288">
        <ele>265.4</ele>
        <time>2020-06-29T16:20:40Z</time>
      </trkpt>
      <trkpt lat="48.68535" lon="5.79283">
        <ele>265.5</ele>
        <time>2020-06-29T16:20:41Z</time>
      </trkpt>
      <trkpt lat="48.68536" lon="5.79279">
        <ele>265.7</ele>
        <time>2020-06-29T16:20:42Z</time>
      </trkpt>
      <trkpt lat="48.68536" lon="5.79274">
        <ele>265.9</ele>
        <time>2020-06-29T16:20:43Z</time>
      </trkpt>
      <trkpt lat="48.68537" lon="5.79271">
        <ele>266</ele>
        <time>2020-06-29T16:20:44Z</time>
      </trkpt>
      <trkpt lat="48.68537" lon="5.79267">
        <ele>266.1</ele>
        <time>2020-06-29T16:20:45Z</time>
      </trkpt>
      <trkpt lat="48.68537" lon="5.79262">
        <ele>266.2</ele>
        <time>2020-06-29T16:20:46Z</time>
      </trkpt>
      <trkpt lat="48.68536" lon="5.79258">
        <ele>266.3</ele>
        <time>2020-06-29T16:20:47Z</time>
      </trkpt>
      <trkpt lat="48.68536" lon="5.79253">
        <ele>266.5</ele>
        <time>2020-06-29T16:20:48Z</time>
      </trkpt>
      <trkpt lat="48.68536" lon="5.79251">
        <ele>266.6</ele>
        <time>2020-06-29T16:20:49Z</time>
      </trkpt>
      <trkpt lat="48.68536" lon="5.79245">
        <ele>266.7</ele>
        <time>2020-06-29T16:20:50Z</time>
      </trkpt>
      <trkpt lat="48.68536" lon="5.79244">
        <ele>266.8</ele>
        <time>2020-06-29T16:20:51Z</time>
      </trkpt>
      <trkpt lat="48.68536" lon="5.79238">
        <ele>267</ele>
        <time>2020-06-29T16:20:52Z</time>
      </trkpt>
      <trkpt lat="48.68536" lon="5.79236">
        <ele>267</ele>
        <time>2020-06-29T16:20:53Z</time>
      </trkpt>
      <trkpt lat="48.68536" lon="5.79231">
        <ele>267.2</ele>
        <time>2020-06-29T16:20:54Z</time>
      </trkpt>
      <trkpt lat="48.68536" lon="5.79227">
        <ele>267.3</ele>
        <time>2020-06-29T16:20:55Z</time>
      </trkpt>
      <trkpt lat="48.68536" lon="5.79222">
        <ele>267.4</ele>
        <time>2020-06-29T16:20:56Z</time>
      </trkpt>
      <trkpt lat="48.68537" lon="5.79217">
        <ele>267.6</ele>
        <time>2020-06-29T16:20:57Z</time>
      </trkpt>
      <trkpt lat="48.68537" lon="5.79211">
        <ele>267.7</ele>
        <time>2020-06-29T16:20:58Z</time>
      </trkpt>
      <trkpt lat="48.68537" lon="5.79209">
        <ele>267.8</ele>
        <time>2020-06-29T16:20:59Z</time>
      </trkpt>
      <trkpt lat="48.68537" lon="5.79205">
        <ele>267.9</ele>
        <time>2020-06-29T16:21:00Z</time>
      </trkpt>
      <trkpt lat="48.68537" lon="5.792">
        <ele>268.1</ele>
        <time>2020-06-29T16:21:01Z</time>
      </trkpt>
      <trkpt lat="48.68537" lon="5.79195">
        <ele>268.2</ele>
        <time>2020-06-29T16:21:02Z</time>
      </trkpt>
      <trkpt lat="48.68536" lon="5.7919">
        <ele>268.3</ele>
        <time>2020-06-29T16:21:03Z</time>
      </trkpt>
      <trkpt lat="48.68537" lon="5.79184">
        <ele>268.5</ele>
        <time>2020-06-29T16:21:04Z</time>
      </trkpt>
      <trkpt lat="48.68537" lon="5.79181">
        <ele>268.6</ele>
        <time>2020-06-29T16:21:05Z</time>
      </trkpt>
      <trkpt lat="48.68537" lon="5.79177">
        <ele>268.7</ele>
        <time>2020-06-29T16:21:06Z</time>
      </trkpt>
      <trkpt lat="48.68537" lon="5.79175">
        <ele>268.7</ele>
        <time>2020-06-29T16:21:07Z</time>
      </trkpt>
      <trkpt lat="48.68536" lon="5.79171">
        <ele>268.9</ele>
        <time>2020-06-29T16:21:08Z</time>
      </trkpt>
      <trkpt lat="48.68536" lon="5.79165">
        <ele>269</ele>
        <time>2020-06-29T16:21:09Z</time>
      </trkpt>
      <trkpt lat="48.68536" lon="5.79163">
        <ele>269.1</ele>
        <time>2020-06-29T16:21:10Z</time>
      </trkpt>
      <trkpt lat="48.68536" lon="5.79158">
        <ele>269.2</ele>
        <time>2020-06-29T16:21:11Z</time>
      </trkpt>
      <trkpt lat="48.68536" lon="5.79152">
        <ele>269.4</ele>
        <time>2020-06-29T16:21:12Z</time>
      </trkpt>
      <trkpt lat="48.68536" lon="5.7915">
        <ele>269.4</ele>
        <time>2020-06-29T16:21:13Z</time>
      </trkpt>
      <trkpt lat="48.68537" lon="5.79146">
        <ele>269.6</ele>
        <time>2020-06-29T16:21:14Z</time>
      </trkpt>
      <trkpt lat="48.68537" lon="5.79141">
        <ele>269.7</ele>
        <time>2020-06-29T16:21:15Z</time>
      </trkpt>
      <trkpt lat="48.68537" lon="5.79137">
        <ele>269.9</ele>
        <time>2020-06-29T16:21:16Z</time>
      </trkpt>
      <trkpt lat="48.68537" lon="5.79132">
        <ele>270</ele>
        <time>2020-06-29T16:21:17Z</time>
      </trkpt>
      <trkpt lat="48.68537" lon="5.79126">
        <ele>270.2</ele>
        <time>2020-06-29T16:21:18Z</time>
      </trkpt>
      <trkpt lat="48.68537" lon="5.79124">
        <ele>270.3</ele>
        <time>2020-06-29T16:21:19Z</time>
      </trkpt>
      <trkpt lat="48.68537" lon="5.79118">
        <ele>270.4</ele>
        <time>2020-06-29T16:21:20Z</time>
      </trkpt>
      <trkpt lat="48.68537" lon="5.79116">
        <ele>270.5</ele>
        <time>2020-06-29T16:21:21Z</time>
      </trkpt>
      <trkpt lat="48.68537" lon="5.79111">
        <ele>270.6</ele>
        <time>2020-06-29T16:21:22Z</time>
      </trkpt>
      <trkpt lat="48.68537" lon="5.79105">
        <ele>270.8</ele>
        <time>2020-06-29T16:21:23Z</time>
      </trkpt>
      <trkpt lat="48.68537" lon="5.79103">
        <ele>270.9</ele>
        <time>2020-06-29T16:21:24Z</time>
      </trkpt>
      <trkpt lat="48.68537" lon="5.79099">
        <ele>271</ele>
        <time>2020-06-29T16:21:25Z</time>
      </trkpt>
      <trkpt lat="48.68538" lon="5.79093">
        <ele>271.1</ele>
        <time>2020-06-29T16:21:26Z</time>
      </trkpt>
      <trkpt lat="48.68539" lon="5.79089">
        <ele>271.3</ele>
        <time>2020-06-29T16:21:27Z</time>
      </trkpt>
      <trkpt lat="48.68538" lon="5.79083">
        <ele>271.4</ele>
        <time>2020-06-29T16:21:28Z</time>
      </trkpt>
      <trkpt lat="48.68538" lon="5.79081">
        <ele>271.5</ele>
        <time>2020-06-29T16:21:29Z</time>
      </trkpt>
      <trkpt lat="48.68537" lon="5.79076">
        <ele>271.6</ele>
        <time>2020-06-29T16:21:30Z</time>
      </trkpt>
      <trkpt lat="48.68537" lon="5.79072">
        <ele>271.8</ele>
        <time>2020-06-29T16:21:31Z</time>
      </trkpt>
      <trkpt lat="48.68538" lon="5.79066">
        <ele>271.9</ele>
        <time>2020-06-29T16:21:32Z</time>
      </trkpt>
      <trkpt lat="48.68538" lon="5.79062">
        <ele>272</ele>
        <time>2020-06-29T16:21:33Z</time>
      </trkpt>
      <trkpt lat="48.68537" lon="5.79057">
        <ele>272.2</ele>
        <time>2020-06-29T16:21:34Z</time>
      </trkpt>
      <trkpt lat="48.68537" lon="5.79055">
        <ele>272.3</ele>
        <time>2020-06-29T16:21:35Z</time>
      </trkpt>
      <trkpt lat="48.68537" lon="5.7905">
        <ele>272.4</ele>
        <time>2020-06-29T16:21:36Z</time>
      </trkpt>
      <trkpt lat="48.68538" lon="5.79045">
        <ele>272.5</ele>
        <time>2020-06-29T16:21:37Z</time>
      </trkpt>
      <trkpt lat="48.68538" lon="5.7904">
        <ele>272.7</ele>
        <time>2020-06-29T16:21:38Z</time>
      </trkpt>
      <trkpt lat="48.68539" lon="5.79035">
        <ele>272.9</ele>
        <time>2020-06-29T16:21:39Z</time>
      </trkpt>
      <trkpt lat="48.68539" lon="5.79033">
        <ele>272.9</ele>
        <time>2020-06-29T16:21:40Z</time>
      </trkpt>
      <trkpt lat="48.68538" lon="5.79028">
        <ele>273.1</ele>
        <time>2020-06-29T16:21:41Z</time>
      </trkpt>
      <trkpt lat="48.68538" lon="5.79025">
        <ele>273.1</ele>
        <time>2020-06-29T16:21:42Z</time>
      </trkpt>
      <trkpt lat="48.68538" lon="5.79019">
        <ele>273.3</ele>
        <time>2020-06-29T16:21:43Z</time>
      </trkpt>
      <trkpt lat="48.68539" lon="5.79016">
        <ele>273.4</ele>
        <time>2020-06-29T16:21:44Z</time>
      </trkpt>
      <trkpt lat="48.68539" lon="5.79012">
        <ele>273.6</ele>
        <time>2020-06-29T16:21:45Z</time>
      </trkpt>
      <trkpt lat="48.68538" lon="5.79006">
        <ele>273.7</ele>
        <time>2020-06-29T16:21:46Z</time>
      </trkpt>
      <trkpt lat="48.68538" lon="5.79004">
        <ele>273.8</ele>
        <time>2020-06-29T16:21:47Z</time>
      </trkpt>
      <trkpt lat="48.68538" lon="5.78999">
        <ele>274</ele>
        <time>2020-06-29T16:21:48Z</time>
      </trkpt>
      <trkpt lat="48.68538" lon="5.78992">
        <ele>274.2</ele>
        <time>2020-06-29T16:21:49Z</time>
      </trkpt>
      <trkpt lat="48.68538" lon="5.78989">
        <ele>274.2</ele>
        <time>2020-06-29T16:21:50Z</time>
      </trkpt>
      <trkpt lat="48.68538" lon="5.78985">
        <ele>274.4</ele>
        <time>2020-06-29T16:21:51Z</time>
      </trkpt>
      <trkpt lat="48.68538" lon="5.7898">
        <ele>274.7</ele>
        <time>2020-06-29T16:21:52Z</time>
      </trkpt>
      <trkpt lat="48.68538" lon="5.78978">
        <ele>274.7</ele>
        <time>2020-06-29T16:21:53Z</time>
      </trkpt>
      <trkpt lat="48.68538" lon="5.78973">
        <ele>274.8</ele>
        <time>2020-06-29T16:21:54Z</time>
      </trkpt>
      <trkpt lat="48.68538" lon="5.78968">
        <ele>275</ele>
        <time>2020-06-29T16:21:55Z</time>
      </trkpt>
      <trkpt lat="48.68538" lon="5.78962">
        <ele>275.1</ele>
        <time>2020-06-29T16:21:56Z</time>
      </trkpt>
      <trkpt lat="48.68538" lon="5.7896">
        <ele>275.2</ele>
        <time>2020-06-29T16:21:57Z</time>
      </trkpt>
      <trkpt lat="48.68538" lon="5.78954">
        <ele>275.3</ele>
        <time>2020-06-29T16:21:58Z</time>
      </trkpt>
      <trkpt lat="48.68538" lon="5.78952">
        <ele>275.4</ele>
        <time>2020-06-29T16:21:59Z</time>
      </trkpt>
      <trkpt lat="48.68537" lon="5.78946">
        <ele>275.5</ele>
        <time>2020-06-29T16:22:00Z</time>
      </trkpt>
      <trkpt lat="48.68537" lon="5.78944">
        <ele>275.5</ele>
        <time>2020-06-29T16:22:01Z</time>
      </trkpt>
      <trkpt lat="48.68537" lon="5.78938">
        <ele>275.7</ele>
        <time>2020-06-29T16:22:02Z</time>
      </trkpt>
      <trkpt lat="48.68537" lon="5.78934">
        <ele>275.8</ele>
        <time>2020-06-29T16:22:03Z</time>
      </trkpt>
      <trkpt lat="48.68538" lon="5.78929">
        <ele>275.9</ele>
        <time>2020-06-29T16:22:04Z</time>
      </trkpt>
      <trkpt lat="48.68538" lon="5.78924">
        <ele>276</ele>
        <time>2020-06-29T16:22:05Z</time>
      </trkpt>
      <trkpt lat="48.68539" lon="5.78919">
        <ele>276.2</ele>
        <time>2020-06-29T16:22:06Z</time>
      </trkpt>
      <trkpt lat="48.68538" lon="5.78914">
        <ele>276.3</ele>
        <time>2020-06-29T16:22:07Z</time>
      </trkpt>
      <trkpt lat="48.68539" lon="5.78912">
        <ele>276.3</ele>
        <time>2020-06-29T16:22:08Z</time>
      </trkpt>
      <trkpt lat="48.68539" lon="5.78907">
        <ele>276.4</ele>
        <time>2020-06-29T16:22:09Z</time>
      </trkpt>
      <trkpt lat="48.68539" lon="5.78906">
        <ele>276.5</ele>
        <time>2020-06-29T16:22:10Z</time>
      </trkpt>
      <trkpt lat="48.68539" lon="5.78901">
        <ele>276.6</ele>
        <time>2020-06-29T16:22:11Z</time>
      </trkpt>
      <trkpt lat="48.68539" lon="5.78899">
        <ele>276.6</ele>
        <time>2020-06-29T16:22:12Z</time>
      </trkpt>
      <trkpt lat="48.68539" lon="5.78893">
        <ele>276.8</ele>
        <time>2020-06-29T16:22:13Z</time>
      </trkpt>
      <trkpt lat="48.68539" lon="5.78891">
        <ele>276.8</ele>
        <time>2020-06-29T16:22:14Z</time>
      </trkpt>
      <trkpt lat="48.68539" lon="5.78886">
        <ele>276.9</ele>
        <time>2020-06-29T16:22:15Z</time>
      </trkpt>
      <trkpt lat="48.68539" lon="5.78881">
        <ele>277</ele>
        <time>2020-06-29T16:22:16Z</time>
      </trkpt>
      <trkpt lat="48.68539" lon="5.78875">
        <ele>277.2</ele>
        <time>2020-06-29T16:22:17Z</time>
      </trkpt>
      <trkpt lat="48.68539" lon="5.7887">
        <ele>277.3</ele>
        <time>2020-06-29T16:22:18Z</time>
      </trkpt>
      <trkpt lat="48.68539" lon="5.78866">
        <ele>277.4</ele>
        <time>2020-06-29T16:22:19Z</time>
      </trkpt>
      <trkpt lat="48.68538" lon="5.78861">
        <ele>277.5</ele>
        <time>2020-06-29T16:22:20Z</time>
      </trkpt>
      <trkpt lat="48.68538" lon="5.78859">
        <ele>277.5</ele>
        <time>2020-06-29T16:22:21Z</time>
      </trkpt>
      <trkpt lat="48.68539" lon="5.78854">
        <ele>277.6</ele>
        <time>2020-06-29T16:22:22Z</time>
      </trkpt>
      <trkpt lat="48.68539" lon="5.7885">
        <ele>277.7</ele>
        <time>2020-06-29T16:22:23Z</time>
      </trkpt>
      <trkpt lat="48.68539" lon="5.78846">
        <ele>277.8</ele>
        <time>2020-06-29T16:22:24Z</time>
      </trkpt>
      <trkpt lat="48.6854" lon="5.78842">
        <ele>277.9</ele>
        <time>2020-06-29T16:22:25Z</time>
      </trkpt>
      <trkpt lat="48.6854" lon="5.78837">
        <ele>277.9</ele>
        <time>2020-06-29T16:22:26Z</time>
      </trkpt>
      <trkpt lat="48.68541" lon="5.78832">
        <ele>278.1</ele>
        <time>2020-06-29T16:22:27Z</time>
      </trkpt>
      <trkpt lat="48.68541" lon="5.7883">
        <ele>278.1</ele>
        <time>2020-06-29T16:22:28Z</time>
      </trkpt>
      <trkpt lat="48.68542" lon="5.78824">
        <ele>278.2</ele>
        <time>2020-06-29T16:22:29Z</time>
      </trkpt>
      <trkpt lat="48.68542" lon="5.78821">
        <ele>278.2</ele>
        <time>2020-06-29T16:22:30Z</time>
      </trkpt>
      <trkpt lat="48.68543" lon="5.78817">
        <ele>278.3</ele>
        <time>2020-06-29T16:22:31Z</time>
      </trkpt>
      <trkpt lat="48.68545" lon="5.78812">
        <ele>278.4</ele>
        <time>2020-06-29T16:22:32Z</time>
      </trkpt>
      <trkpt lat="48.68546" lon="5.78808">
        <ele>278.5</ele>
        <time>2020-06-29T16:22:33Z</time>
      </trkpt>
      <trkpt lat="48.68547" lon="5.78802">
        <ele>278.6</ele>
        <time>2020-06-29T16:22:34Z</time>
      </trkpt>
      <trkpt lat="48.68548" lon="5.788">
        <ele>278.6</ele>
        <time>2020-06-29T16:22:35Z</time>
      </trkpt>
      <trkpt lat="48.68549" lon="5.78796">
        <ele>278.7</ele>
        <time>2020-06-29T16:22:36Z</time>
      </trkpt>
      <trkpt lat="48.6855" lon="5.78791">
        <ele>278.8</ele>
        <time>2020-06-29T16:22:37Z</time>
      </trkpt>
      <trkpt lat="48.6855" lon="5.78787">
        <ele>278.9</ele>
        <time>2020-06-29T16:22:38Z</time>
      </trkpt>
      <trkpt lat="48.68551" lon="5.78782">
        <ele>279</ele>
        <time>2020-06-29T16:22:39Z</time>
      </trkpt>
      <trkpt lat="48.68551" lon="5.7878">
        <ele>279</ele>
        <time>2020-06-29T16:22:40Z</time>
      </trkpt>
      <trkpt lat="48.68552" lon="5.78775">
        <ele>279.1</ele>
        <time>2020-06-29T16:22:41Z</time>
      </trkpt>
      <trkpt lat="48.68553" lon="5.78769">
        <ele>279.2</ele>
        <time>2020-06-29T16:22:42Z</time>
      </trkpt>
      <trkpt lat="48.68554" lon="5.78767">
        <ele>279.2</ele>
        <time>2020-06-29T16:22:43Z</time>
      </trkpt>
      <trkpt lat="48.68555" lon="5.78762">
        <ele>279.3</ele>
        <time>2020-06-29T16:22:44Z</time>
      </trkpt>
      <trkpt lat="48.68556" lon="5.78757">
        <ele>279.4</ele>
        <time>2020-06-29T16:22:45Z</time>
      </trkpt>
      <trkpt lat="48.68558" lon="5.78753">
        <ele>279.5</ele>
        <time>2020-06-29T16:22:46Z</time>
      </trkpt>
      <trkpt lat="48.68559" lon="5.78749">
        <ele>279.6</ele>
        <time>2020-06-29T16:22:47Z</time>
      </trkpt>
      <trkpt lat="48.68561" lon="5.78745">
        <ele>279.7</ele>
        <time>2020-06-29T16:22:48Z</time>
      </trkpt>
      <trkpt lat="48.68562" lon="5.78738">
        <ele>279.8</ele>
        <time>2020-06-29T16:22:49Z</time>
      </trkpt>
      <trkpt lat="48.68563" lon="5.78734">
        <ele>279.9</ele>
        <time>2020-06-29T16:22:50Z</time>
      </trkpt>
      <trkpt lat="48.68565" lon="5.78729">
        <ele>280</ele>
        <time>2020-06-29T16:22:51Z</time>
      </trkpt>
      <trkpt lat="48.68567" lon="5.78725">
        <ele>280.1</ele>
        <time>2020-06-29T16:22:52Z</time>
      </trkpt>
      <trkpt lat="48.68568" lon="5.78723">
        <ele>280.1</ele>
        <time>2020-06-29T16:22:53Z</time>
      </trkpt>
      <trkpt lat="48.68569" lon="5.78719">
        <ele>280.2</ele>
        <time>2020-06-29T16:22:54Z</time>
      </trkpt>
      <trkpt lat="48.68571" lon="5.78715">
        <ele>280.2</ele>
        <time>2020-06-29T16:22:55Z</time>
      </trkpt>
      <trkpt lat="48.68572" lon="5.78711">
        <ele>280.3</ele>
        <time>2020-06-29T16:22:56Z</time>
      </trkpt>
      <trkpt lat="48.68575" lon="5.78707">
        <ele>280.4</ele>
        <time>2020-06-29T16:22:57Z</time>
      </trkpt>
      <trkpt lat="48.68576" lon="5.78705">
        <ele>280.5</ele>
        <time>2020-06-29T16:22:58Z</time>
      </trkpt>
      <trkpt lat="48.68578" lon="5.78702">
        <ele>280.5</ele>
        <time>2020-06-29T16:22:59Z</time>
      </trkpt>
      <trkpt lat="48.68581" lon="5.78698">
        <ele>280.6</ele>
        <time>2020-06-29T16:23:00Z</time>
      </trkpt>
      <trkpt lat="48.68584" lon="5.78695">
        <ele>280.7</ele>
        <time>2020-06-29T16:23:01Z</time>
      </trkpt>
      <trkpt lat="48.68585" lon="5.78693">
        <ele>280.8</ele>
        <time>2020-06-29T16:23:02Z</time>
      </trkpt>
      <trkpt lat="48.68588" lon="5.7869">
        <ele>280.9</ele>
        <time>2020-06-29T16:23:03Z</time>
      </trkpt>
      <trkpt lat="48.68591" lon="5.78688">
        <ele>280.9</ele>
        <time>2020-06-29T16:23:04Z</time>
      </trkpt>
      <trkpt lat="48.68594" lon="5.78686">
        <ele>281</ele>
        <time>2020-06-29T16:23:05Z</time>
      </trkpt>
      <trkpt lat="48.68597" lon="5.78683">
        <ele>281.1</ele>
        <time>2020-06-29T16:23:06Z</time>
      </trkpt>
      <trkpt lat="48.686" lon="5.78681">
        <ele>281.2</ele>
        <time>2020-06-29T16:23:07Z</time>
      </trkpt>
      <trkpt lat="48.68604" lon="5.7868">
        <ele>281.3</ele>
        <time>2020-06-29T16:23:08Z</time>
      </trkpt>
      <trkpt lat="48.68606" lon="5.78679">
        <ele>281.3</ele>
        <time>2020-06-29T16:23:09Z</time>
      </trkpt>
      <trkpt lat="48.68608" lon="5.78676">
        <ele>281.4</ele>
        <time>2020-06-29T16:23:10Z</time>
      </trkpt>
      <trkpt lat="48.68612" lon="5.78673">
        <ele>281.4</ele>
        <time>2020-06-29T16:23:11Z</time>
      </trkpt>
      <trkpt lat="48.68615" lon="5.78672">
        <ele>281.5</ele>
        <time>2020-06-29T16:23:12Z</time>
      </trkpt>
      <trkpt lat="48.68617" lon="5.7867">
        <ele>281.6</ele>
        <time>2020-06-29T16:23:13Z</time>
      </trkpt>
      <trkpt lat="48.68621" lon="5.78669">
        <ele>281.6</ele>
        <time>2020-06-29T16:23:14Z</time>
      </trkpt>
      <trkpt lat="48.68623" lon="5.78668">
        <ele>281.7</ele>
        <time>2020-06-29T16:23:15Z</time>
      </trkpt>
      <trkpt lat="48.68625" lon="5.78666">
        <ele>281.7</ele>
        <time>2020-06-29T16:23:16Z</time>
      </trkpt>
      <trkpt lat="48.68628" lon="5.78663">
        <ele>281.7</ele>
        <time>2020-06-29T16:23:17Z</time>
      </trkpt>
      <trkpt lat="48.6863" lon="5.78659">
        <ele>281.8</ele>
        <time>2020-06-29T16:23:18Z</time>
      </trkpt>
      <trkpt lat="48.68631" lon="5.78657">
        <ele>281.8</ele>
        <time>2020-06-29T16:23:19Z</time>
      </trkpt>
      <trkpt lat="48.68633" lon="5.78652">
        <ele>281.8</ele>
        <time>2020-06-29T16:23:20Z</time>
      </trkpt>
      <trkpt lat="48.68634" lon="5.7865">
        <ele>281.8</ele>
        <time>2020-06-29T16:23:21Z</time>
      </trkpt>
      <trkpt lat="48.68636" lon="5.78644">
        <ele>281.8</ele>
        <time>2020-06-29T16:23:22Z</time>
      </trkpt>
      <trkpt lat="48.68639" lon="5.7864">
        <ele>281.8</ele>
        <time>2020-06-29T16:23:23Z</time>
      </trkpt>
      <trkpt lat="48.6864" lon="5.78636">
        <ele>281.8</ele>
        <time>2020-06-29T16:23:24Z</time>
      </trkpt>
      <trkpt lat="48.68642" lon="5.7863">
        <ele>281.9</ele>
        <time>2020-06-29T16:23:25Z</time>
      </trkpt>
      <trkpt lat="48.68643" lon="5.78623">
        <ele>281.9</ele>
        <time>2020-06-29T16:23:26Z</time>
      </trkpt>
      <trkpt lat="48.68644" lon="5.78617">
        <ele>282</ele>
        <time>2020-06-29T16:23:27Z</time>
      </trkpt>
      <trkpt lat="48.68645" lon="5.78612">
        <ele>282</ele>
        <time>2020-06-29T16:23:28Z</time>
      </trkpt>
      <trkpt lat="48.68646" lon="5.78607">
        <ele>282.1</ele>
        <time>2020-06-29T16:23:29Z</time>
      </trkpt>
      <trkpt lat="48.68647" lon="5.786">
        <ele>282.1</ele>
        <time>2020-06-29T16:23:30Z</time>
      </trkpt>
      <trkpt lat="48.68648" lon="5.78594">
        <ele>282.2</ele>
        <time>2020-06-29T16:23:31Z</time>
      </trkpt>
      <trkpt lat="48.68648" lon="5.78588">
        <ele>282.2</ele>
        <time>2020-06-29T16:23:32Z</time>
      </trkpt>
      <trkpt lat="48.68647" lon="5.78581">
        <ele>282.3</ele>
        <time>2020-06-29T16:23:33Z</time>
      </trkpt>
      <trkpt lat="48.68647" lon="5.78574">
        <ele>282.4</ele>
        <time>2020-06-29T16:23:34Z</time>
      </trkpt>
      <trkpt lat="48.68646" lon="5.78568">
        <ele>282.5</ele>
        <time>2020-06-29T16:23:35Z</time>
      </trkpt>
      <trkpt lat="48.68644" lon="5.78561">
        <ele>282.5</ele>
        <time>2020-06-29T16:23:36Z</time>
      </trkpt>
      <trkpt lat="48.68643" lon="5.78554">
        <ele>282.6</ele>
        <time>2020-06-29T16:23:37Z</time>
      </trkpt>
      <trkpt lat="48.6864" lon="5.78548">
        <ele>282.6</ele>
        <time>2020-06-29T16:23:38Z</time>
      </trkpt>
      <trkpt lat="48.68638" lon="5.78542">
        <ele>282.9</ele>
        <time>2020-06-29T16:23:39Z</time>
      </trkpt>
      <trkpt lat="48.68636" lon="5.78536">
        <ele>283.1</ele>
        <time>2020-06-29T16:23:40Z</time>
      </trkpt>
      <trkpt lat="48.68634" lon="5.78531">
        <ele>283.2</ele>
        <time>2020-06-29T16:23:41Z</time>
      </trkpt>
      <trkpt lat="48.68633" lon="5.78525">
        <ele>283.3</ele>
        <time>2020-06-29T16:23:42Z</time>
      </trkpt>
      <trkpt lat="48.6863" lon="5.78521">
        <ele>283.5</ele>
        <time>2020-06-29T16:23:43Z</time>
      </trkpt>
      <trkpt lat="48.68629" lon="5.78516">
        <ele>283.6</ele>
        <time>2020-06-29T16:23:44Z</time>
      </trkpt>
      <trkpt lat="48.68626" lon="5.78511">
        <ele>283.7</ele>
        <time>2020-06-29T16:23:45Z</time>
      </trkpt>
      <trkpt lat="48.68623" lon="5.78507">
        <ele>283.8</ele>
        <time>2020-06-29T16:23:46Z</time>
      </trkpt>
      <trkpt lat="48.6862" lon="5.78502">
        <ele>284</ele>
        <time>2020-06-29T16:23:47Z</time>
      </trkpt>
      <trkpt lat="48.68617" lon="5.78496">
        <ele>284.2</ele>
        <time>2020-06-29T16:23:48Z</time>
      </trkpt>
      <trkpt lat="48.68614" lon="5.78492">
        <ele>284.4</ele>
        <time>2020-06-29T16:23:49Z</time>
      </trkpt>
      <trkpt lat="48.68611" lon="5.78486">
        <ele>284.7</ele>
        <time>2020-06-29T16:23:50Z</time>
      </trkpt>
      <trkpt lat="48.68608" lon="5.78481">
        <ele>284.9</ele>
        <time>2020-06-29T16:23:51Z</time>
      </trkpt>
      <trkpt lat="48.68604" lon="5.78476">
        <ele>285.2</ele>
        <time>2020-06-29T16:23:52Z</time>
      </trkpt>
      <trkpt lat="48.68599" lon="5.78472">
        <ele>285.4</ele>
        <time>2020-06-29T16:23:53Z</time>
      </trkpt>
      <trkpt lat="48.68594" lon="5.78467">
        <ele>285.7</ele>
        <time>2020-06-29T16:23:54Z</time>
      </trkpt>
      <trkpt lat="48.6859" lon="5.78463">
        <ele>286</ele>
        <time>2020-06-29T16:23:55Z</time>
      </trkpt>
      <trkpt lat="48.68586" lon="5.78459">
        <ele>286.2</ele>
        <time>2020-06-29T16:23:56Z</time>
      </trkpt>
      <trkpt lat="48.68582" lon="5.78457">
        <ele>286.4</ele>
        <time>2020-06-29T16:23:57Z</time>
      </trkpt>
      <trkpt lat="48.68578" lon="5.78454">
        <ele>286.5</ele>
        <time>2020-06-29T16:23:58Z</time>
      </trkpt>
      <trkpt lat="48.68575" lon="5.78452">
        <ele>286.7</ele>
        <time>2020-06-29T16:23:59Z</time>
      </trkpt>
      <trkpt lat="48.68572" lon="5.78448">
        <ele>286.8</ele>
        <time>2020-06-29T16:24:00Z</time>
      </trkpt>
      <trkpt lat="48.68568" lon="5.78445">
        <ele>287</ele>
        <time>2020-06-29T16:24:01Z</time>
      </trkpt>
      <trkpt lat="48.68564" lon="5.78443">
        <ele>287.2</ele>
        <time>2020-06-29T16:24:02Z</time>
      </trkpt>
      <trkpt lat="48.6856" lon="5.7844">
        <ele>287.4</ele>
        <time>2020-06-29T16:24:03Z</time>
      </trkpt>
      <trkpt lat="48.68557" lon="5.78437">
        <ele>287.5</ele>
        <time>2020-06-29T16:24:04Z</time>
      </trkpt>
      <trkpt lat="48.68554" lon="5.78434">
        <ele>287.7</ele>
        <time>2020-06-29T16:24:05Z</time>
      </trkpt>
      <trkpt lat="48.68551" lon="5.78432">
        <ele>287.8</ele>
        <time>2020-06-29T16:24:06Z</time>
      </trkpt>
      <trkpt lat="48.68548" lon="5.78431">
        <ele>288</ele>
        <time>2020-06-29T16:24:07Z</time>
      </trkpt>
      <trkpt lat="48.68545" lon="5.78429">
        <ele>288.1</ele>
        <time>2020-06-29T16:24:08Z</time>
      </trkpt>
      <trkpt lat="48.68542" lon="5.78427">
        <ele>288.3</ele>
        <time>2020-06-29T16:24:09Z</time>
      </trkpt>
      <trkpt lat="48.68539" lon="5.78424">
        <ele>288.5</ele>
        <time>2020-06-29T16:24:10Z</time>
      </trkpt>
      <trkpt lat="48.68536" lon="5.78422">
        <ele>288.7</ele>
        <time>2020-06-29T16:24:11Z</time>
      </trkpt>
      <trkpt lat="48.68533" lon="5.78419">
        <ele>288.8</ele>
        <time>2020-06-29T16:24:12Z</time>
      </trkpt>
      <trkpt lat="48.6853" lon="5.78417">
        <ele>289</ele>
        <time>2020-06-29T16:24:13Z</time>
      </trkpt>
      <trkpt lat="48.68527" lon="5.78414">
        <ele>289.2</ele>
        <time>2020-06-29T16:24:14Z</time>
      </trkpt>
      <trkpt lat="48.68523" lon="5.78411">
        <ele>289.4</ele>
        <time>2020-06-29T16:24:15Z</time>
      </trkpt>
      <trkpt lat="48.68521" lon="5.78409">
        <ele>289.6</ele>
        <time>2020-06-29T16:24:16Z</time>
      </trkpt>
      <trkpt lat="48.68519" lon="5.78404">
        <ele>289.8</ele>
        <time>2020-06-29T16:24:17Z</time>
      </trkpt>
      <trkpt lat="48.68518" lon="5.78402">
        <ele>289.9</ele>
        <time>2020-06-29T16:24:18Z</time>
      </trkpt>
      <trkpt lat="48.68517" lon="5.78398">
        <ele>290.1</ele>
        <time>2020-06-29T16:24:19Z</time>
      </trkpt>
      <trkpt lat="48.68517" lon="5.78397">
        <ele>290.1</ele>
        <time>2020-06-29T16:24:20Z</time>
      </trkpt>
      <trkpt lat="48.68515" lon="5.78392">
        <ele>290.3</ele>
        <time>2020-06-29T16:24:21Z</time>
      </trkpt>
      <trkpt lat="48.68514" lon="5.7839">
        <ele>290.4</ele>
        <time>2020-06-29T16:24:22Z</time>
      </trkpt>
      <trkpt lat="48.68512" lon="5.78385">
        <ele>290.5</ele>
        <time>2020-06-29T16:24:23Z</time>
      </trkpt>
      <trkpt lat="48.6851" lon="5.78381">
        <ele>290.7</ele>
        <time>2020-06-29T16:24:24Z</time>
      </trkpt>
      <trkpt lat="48.68509" lon="5.78377">
        <ele>290.8</ele>
        <time>2020-06-29T16:24:25Z</time>
      </trkpt>
      <trkpt lat="48.68507" lon="5.78373">
        <ele>290.9</ele>
        <time>2020-06-29T16:24:26Z</time>
      </trkpt>
      <trkpt lat="48.68506" lon="5.78369">
        <ele>291</ele>
        <time>2020-06-29T16:24:27Z</time>
      </trkpt>
      <trkpt lat="48.68505" lon="5.78365">
        <ele>291.1</ele>
        <time>2020-06-29T16:24:28Z</time>
      </trkpt>
      <trkpt lat="48.68504" lon="5.78361">
        <ele>291.2</ele>
        <time>2020-06-29T16:24:29Z</time>
      </trkpt>
      <trkpt lat="48.68502" lon="5.78356">
        <ele>291.3</ele>
        <time>2020-06-29T16:24:30Z</time>
      </trkpt>
      <trkpt lat="48.68502" lon="5.78349">
        <ele>291.4</ele>
        <time>2020-06-29T16:24:31Z</time>
      </trkpt>
      <trkpt lat="48.685" lon="5.78345">
        <ele>291.5</ele>
        <time>2020-06-29T16:24:32Z</time>
      </trkpt>
      <trkpt lat="48.68499" lon="5.7834">
        <ele>291.5</ele>
        <time>2020-06-29T16:24:33Z</time>
      </trkpt>
      <trkpt lat="48.68499" lon="5.78338">
        <ele>291.6</ele>
        <time>2020-06-29T16:24:34Z</time>
      </trkpt>
      <trkpt lat="48.68497" lon="5.78333">
        <ele>291.6</ele>
        <time>2020-06-29T16:24:35Z</time>
      </trkpt>
      <trkpt lat="48.68497" lon="5.78331">
        <ele>291.6</ele>
        <time>2020-06-29T16:24:36Z</time>
      </trkpt>
      <trkpt lat="48.68498" lon="5.78325">
        <ele>291.7</ele>
        <time>2020-06-29T16:24:37Z</time>
      </trkpt>
      <trkpt lat="48.68497" lon="5.7832">
        <ele>291.7</ele>
        <time>2020-06-29T16:24:38Z</time>
      </trkpt>
      <trkpt lat="48.68497" lon="5.78315">
        <ele>291.7</ele>
        <time>2020-06-29T16:24:39Z</time>
      </trkpt>
      <trkpt lat="48.68496" lon="5.78311">
        <ele>291.8</ele>
        <time>2020-06-29T16:24:40Z</time>
      </trkpt>
      <trkpt lat="48.68495" lon="5.78305">
        <ele>291.8</ele>
        <time>2020-06-29T16:24:41Z</time>
      </trkpt>
      <trkpt lat="48.68495" lon="5.78304">
        <ele>291.8</ele>
        <time>2020-06-29T16:24:42Z</time>
      </trkpt>
      <trkpt lat="48.68494" lon="5.78299">
        <ele>291.8</ele>
        <time>2020-06-29T16:24:43Z</time>
      </trkpt>
      <trkpt lat="48.68494" lon="5.78298">
        <ele>291.8</ele>
        <time>2020-06-29T16:24:44Z</time>
      </trkpt>
      <trkpt lat="48.68492" lon="5.78292">
        <ele>291.8</ele>
        <time>2020-06-29T16:24:45Z</time>
      </trkpt>
      <trkpt lat="48.68492" lon="5.7829">
        <ele>291.8</ele>
        <time>2020-06-29T16:24:46Z</time>
      </trkpt>
      <trkpt lat="48.6849" lon="5.78285">
        <ele>291.8</ele>
        <time>2020-06-29T16:24:47Z</time>
      </trkpt>
      <trkpt lat="48.68489" lon="5.78281">
        <ele>291.8</ele>
        <time>2020-06-29T16:24:48Z</time>
      </trkpt>
      <trkpt lat="48.68488" lon="5.78276">
        <ele>292</ele>
        <time>2020-06-29T16:24:49Z</time>
      </trkpt>
      <trkpt lat="48.68486" lon="5.78271">
        <ele>292</ele>
        <time>2020-06-29T16:24:50Z</time>
      </trkpt>
      <trkpt lat="48.68485" lon="5.78269">
        <ele>292</ele>
        <time>2020-06-29T16:24:51Z</time>
      </trkpt>
      <trkpt lat="48.68486" lon="5.78264">
        <ele>292</ele>
        <time>2020-06-29T16:24:52Z</time>
      </trkpt>
      <trkpt lat="48.68485" lon="5.78262">
        <ele>292</ele>
        <time>2020-06-29T16:24:53Z</time>
      </trkpt>
      <trkpt lat="48.68485" lon="5.78261">
        <ele>292</ele>
        <time>2020-06-29T16:24:54Z</time>
      </trkpt>
      <trkpt lat="48.68484" lon="5.7826">
        <ele>292</ele>
        <time>2020-06-29T16:24:55Z</time>
      </trkpt>
      <trkpt lat="48.68483" lon="5.7826">
        <ele>292</ele>
        <time>2020-06-29T16:24:56Z</time>
      </trkpt>
      <trkpt lat="48.68483" lon="5.7826">
        <ele>292</ele>
        <time>2020-06-29T16:24:57Z</time>
      </trkpt>
      <trkpt lat="48.68483" lon="5.7826">
        <ele>292</ele>
        <time>2020-06-29T16:24:58Z</time>
      </trkpt>
      <trkpt lat="48.68483" lon="5.7826">
        <ele>292</ele>
        <time>2020-06-29T16:24:59Z</time>
      </trkpt>
      <trkpt lat="48.68483" lon="5.7826">
        <ele>292</ele>
        <time>2020-06-29T16:25:00Z</time>
      </trkpt>
      <trkpt lat="48.68485" lon="5.78258">
        <ele>292</ele>
        <time>2020-06-29T16:25:01Z</time>
      </trkpt>
      <trkpt lat="48.68484" lon="5.78257">
        <ele>292</ele>
        <time>2020-06-29T16:25:02Z</time>
      </trkpt>
      <trkpt lat="48.68484" lon="5.78254">
        <ele>292</ele>
        <time>2020-06-29T16:25:03Z</time>
      </trkpt>
      <trkpt lat="48.68483" lon="5.78251">
        <ele>291.9</ele>
        <time>2020-06-29T16:25:04Z</time>
      </trkpt>
      <trkpt lat="48.68483" lon="5.78247">
        <ele>291.9</ele>
        <time>2020-06-29T16:25:05Z</time>
      </trkpt>
      <trkpt lat="48.68482" lon="5.78243">
        <ele>291.9</ele>
        <time>2020-06-29T16:25:06Z</time>
      </trkpt>
      <trkpt lat="48.68482" lon="5.7824">
        <ele>291.8</ele>
        <time>2020-06-29T16:25:37Z</time>
      </trkpt>
      <trkpt lat="48.68481" lon="5.78236">
        <ele>291.8</ele>
        <time>2020-06-29T16:25:38Z</time>
      </trkpt>
      <trkpt lat="48.68481" lon="5.7823">
        <ele>291.7</ele>
        <time>2020-06-29T16:25:39Z</time>
      </trkpt>
      <trkpt lat="48.6848" lon="5.78223">
        <ele>291.6</ele>
        <time>2020-06-29T16:25:40Z</time>
      </trkpt>
      <trkpt lat="48.68478" lon="5.78217">
        <ele>291.6</ele>
        <time>2020-06-29T16:25:41Z</time>
      </trkpt>
      <trkpt lat="48.68476" lon="5.78211">
        <ele>291.5</ele>
        <time>2020-06-29T16:25:42Z</time>
      </trkpt>
      <trkpt lat="48.68475" lon="5.78204">
        <ele>291.3</ele>
        <time>2020-06-29T16:25:43Z</time>
      </trkpt>
      <trkpt lat="48.68473" lon="5.78198">
        <ele>291.2</ele>
        <time>2020-06-29T16:25:44Z</time>
      </trkpt>
      <trkpt lat="48.68472" lon="5.78192">
        <ele>291.1</ele>
        <time>2020-06-29T16:25:45Z</time>
      </trkpt>
      <trkpt lat="48.68472" lon="5.78185">
        <ele>291</ele>
        <time>2020-06-29T16:25:46Z</time>
      </trkpt>
      <trkpt lat="48.6847" lon="5.78179">
        <ele>290.9</ele>
        <time>2020-06-29T16:25:47Z</time>
      </trkpt>
      <trkpt lat="48.6847" lon="5.78171">
        <ele>290.7</ele>
        <time>2020-06-29T16:25:48Z</time>
      </trkpt>
      <trkpt lat="48.68469" lon="5.78163">
        <ele>290.5</ele>
        <time>2020-06-29T16:25:49Z</time>
      </trkpt>
      <trkpt lat="48.68466" lon="5.78156">
        <ele>290.4</ele>
        <time>2020-06-29T16:25:50Z</time>
      </trkpt>
      <trkpt lat="48.68465" lon="5.78147">
        <ele>290.2</ele>
        <time>2020-06-29T16:25:51Z</time>
      </trkpt>
      <trkpt lat="48.68463" lon="5.78139">
        <ele>290</ele>
        <time>2020-06-29T16:25:52Z</time>
      </trkpt>
      <trkpt lat="48.68462" lon="5.7813">
        <ele>289.8</ele>
        <time>2020-06-29T16:25:53Z</time>
      </trkpt>
      <trkpt lat="48.6846" lon="5.78122">
        <ele>289.6</ele>
        <time>2020-06-29T16:25:54Z</time>
      </trkpt>
      <trkpt lat="48.68458" lon="5.78114">
        <ele>289.4</ele>
        <time>2020-06-29T16:25:55Z</time>
      </trkpt>
      <trkpt lat="48.68456" lon="5.78106">
        <ele>289.2</ele>
        <time>2020-06-29T16:25:56Z</time>
      </trkpt>
      <trkpt lat="48.68455" lon="5.78099">
        <ele>289</ele>
        <time>2020-06-29T16:25:57Z</time>
      </trkpt>
      <trkpt lat="48.68454" lon="5.78091">
        <ele>288.8</ele>
        <time>2020-06-29T16:25:58Z</time>
      </trkpt>
      <trkpt lat="48.68451" lon="5.78083">
        <ele>288.6</ele>
        <time>2020-06-29T16:25:59Z</time>
      </trkpt>
      <trkpt lat="48.68448" lon="5.78075">
        <ele>288.4</ele>
        <time>2020-06-29T16:26:00Z</time>
      </trkpt>
      <trkpt lat="48.68445" lon="5.78067">
        <ele>288.2</ele>
        <time>2020-06-29T16:26:01Z</time>
      </trkpt>
      <trkpt lat="48.68443" lon="5.78059">
        <ele>288</ele>
        <time>2020-06-29T16:26:02Z</time>
      </trkpt>
      <trkpt lat="48.6844" lon="5.78052">
        <ele>287.8</ele>
        <time>2020-06-29T16:26:03Z</time>
      </trkpt>
      <trkpt lat="48.68437" lon="5.78043">
        <ele>287.5</ele>
        <time>2020-06-29T16:26:04Z</time>
      </trkpt>
      <trkpt lat="48.68434" lon="5.78035">
        <ele>287.3</ele>
        <time>2020-06-29T16:26:05Z</time>
      </trkpt>
      <trkpt lat="48.6843" lon="5.78028">
        <ele>287.1</ele>
        <time>2020-06-29T16:26:06Z</time>
      </trkpt>
      <trkpt lat="48.68428" lon="5.78016">
        <ele>286.8</ele>
        <time>2020-06-29T16:26:07Z</time>
      </trkpt>
      <trkpt lat="48.68425" lon="5.78006">
        <ele>286.5</ele>
        <time>2020-06-29T16:26:08Z</time>
      </trkpt>
      <trkpt lat="48.68421" lon="5.77997">
        <ele>286.2</ele>
        <time>2020-06-29T16:26:09Z</time>
      </trkpt>
      <trkpt lat="48.68417" lon="5.77988">
        <ele>286</ele>
        <time>2020-06-29T16:26:10Z</time>
      </trkpt>
      <trkpt lat="48.68414" lon="5.77977">
        <ele>285.8</ele>
        <time>2020-06-29T16:26:11Z</time>
      </trkpt>
      <trkpt lat="48.6841" lon="5.77968">
        <ele>285.5</ele>
        <time>2020-06-29T16:26:12Z</time>
      </trkpt>
      <trkpt lat="48.68406" lon="5.77958">
        <ele>285.3</ele>
        <time>2020-06-29T16:26:13Z</time>
      </trkpt>
      <trkpt lat="48.68402" lon="5.7795">
        <ele>285</ele>
        <time>2020-06-29T16:26:14Z</time>
      </trkpt>
      <trkpt lat="48.68399" lon="5.77939">
        <ele>284.7</ele>
        <time>2020-06-29T16:26:15Z</time>
      </trkpt>
      <trkpt lat="48.68395" lon="5.7793">
        <ele>284.4</ele>
        <time>2020-06-29T16:26:16Z</time>
      </trkpt>
      <trkpt lat="48.68392" lon="5.7792">
        <ele>284.1</ele>
        <time>2020-06-29T16:26:17Z</time>
      </trkpt>
      <trkpt lat="48.68389" lon="5.77911">
        <ele>283.9</ele>
        <time>2020-06-29T16:26:18Z</time>
      </trkpt>
      <trkpt lat="48.68385" lon="5.77902">
        <ele>283.6</ele>
        <time>2020-06-29T16:26:19Z</time>
      </trkpt>
      <trkpt lat="48.68382" lon="5.77893">
        <ele>283.4</ele>
        <time>2020-06-29T16:26:20Z</time>
      </trkpt>
      <trkpt lat="48.68378" lon="5.77884">
        <ele>283.1</ele>
        <time>2020-06-29T16:26:21Z</time>
      </trkpt>
      <trkpt lat="48.68375" lon="5.77875">
        <ele>282.9</ele>
        <time>2020-06-29T16:26:22Z</time>
      </trkpt>
      <trkpt lat="48.68371" lon="5.77867">
        <ele>282.7</ele>
        <time>2020-06-29T16:26:23Z</time>
      </trkpt>
      <trkpt lat="48.68368" lon="5.77858">
        <ele>282.4</ele>
        <time>2020-06-29T16:26:24Z</time>
      </trkpt>
      <trkpt lat="48.68364" lon="5.77849">
        <ele>282.2</ele>
        <time>2020-06-29T16:26:25Z</time>
      </trkpt>
      <trkpt lat="48.68361" lon="5.7784">
        <ele>282</ele>
        <time>2020-06-29T16:26:26Z</time>
      </trkpt>
      <trkpt lat="48.68358" lon="5.77831">
        <ele>281.7</ele>
        <time>2020-06-29T16:26:27Z</time>
      </trkpt>
      <trkpt lat="48.68355" lon="5.77821">
        <ele>281.5</ele>
        <time>2020-06-29T16:26:28Z</time>
      </trkpt>
      <trkpt lat="48.68352" lon="5.77812">
        <ele>281.2</ele>
        <time>2020-06-29T16:26:29Z</time>
      </trkpt>
      <trkpt lat="48.68348" lon="5.77803">
        <ele>280.9</ele>
        <time>2020-06-29T16:26:30Z</time>
      </trkpt>
      <trkpt lat="48.68345" lon="5.77794">
        <ele>280.7</ele>
        <time>2020-06-29T16:26:31Z</time>
      </trkpt>
      <trkpt lat="48.68342" lon="5.77785">
        <ele>280.4</ele>
        <time>2020-06-29T16:26:32Z</time>
      </trkpt>
      <trkpt lat="48.68339" lon="5.77776">
        <ele>280.2</ele>
        <time>2020-06-29T16:26:33Z</time>
      </trkpt>
      <trkpt lat="48.68336" lon="5.77768">
        <ele>280</ele>
        <time>2020-06-29T16:26:34Z</time>
      </trkpt>
      <trkpt lat="48.68333" lon="5.77759">
        <ele>279.9</ele>
        <time>2020-06-29T16:26:35Z</time>
      </trkpt>
      <trkpt lat="48.68331" lon="5.77749">
        <ele>279.6</ele>
        <time>2020-06-29T16:26:36Z</time>
      </trkpt>
      <trkpt lat="48.68329" lon="5.7774">
        <ele>279.4</ele>
        <time>2020-06-29T16:26:37Z</time>
      </trkpt>
      <trkpt lat="48.68327" lon="5.77731">
        <ele>279.2</ele>
        <time>2020-06-29T16:26:38Z</time>
      </trkpt>
      <trkpt lat="48.68324" lon="5.77721">
        <ele>279</ele>
        <time>2020-06-29T16:26:39Z</time>
      </trkpt>
      <trkpt lat="48.68322" lon="5.77712">
        <ele>278.8</ele>
        <time>2020-06-29T16:26:40Z</time>
      </trkpt>
      <trkpt lat="48.6832" lon="5.77703">
        <ele>278.6</ele>
        <time>2020-06-29T16:26:41Z</time>
      </trkpt>
      <trkpt lat="48.68318" lon="5.77694">
        <ele>278.4</ele>
        <time>2020-06-29T16:26:42Z</time>
      </trkpt>
      <trkpt lat="48.68316" lon="5.77684">
        <ele>278.1</ele>
        <time>2020-06-29T16:26:43Z</time>
      </trkpt>
      <trkpt lat="48.68315" lon="5.77674">
        <ele>277.9</ele>
        <time>2020-06-29T16:26:44Z</time>
      </trkpt>
      <trkpt lat="48.68314" lon="5.77664">
        <ele>277.6</ele>
        <time>2020-06-29T16:26:45Z</time>
      </trkpt>
      <trkpt lat="48.68312" lon="5.77655">
        <ele>277.4</ele>
        <time>2020-06-29T16:26:46Z</time>
      </trkpt>
      <trkpt lat="48.68311" lon="5.77645">
        <ele>277.2</ele>
        <time>2020-06-29T16:26:47Z</time>
      </trkpt>
      <trkpt lat="48.6831" lon="5.77635">
        <ele>277</ele>
        <time>2020-06-29T16:26:48Z</time>
      </trkpt>
      <trkpt lat="48.68309" lon="5.77625">
        <ele>276.8</ele>
        <time>2020-06-29T16:26:49Z</time>
      </trkpt>
      <trkpt lat="48.68308" lon="5.77615">
        <ele>276.6</ele>
        <time>2020-06-29T16:26:50Z</time>
      </trkpt>
      <trkpt lat="48.68307" lon="5.77605">
        <ele>276.4</ele>
        <time>2020-06-29T16:26:51Z</time>
      </trkpt>
      <trkpt lat="48.68306" lon="5.77595">
        <ele>276.2</ele>
        <time>2020-06-29T16:26:52Z</time>
      </trkpt>
      <trkpt lat="48.68305" lon="5.77585">
        <ele>276.1</ele>
        <time>2020-06-29T16:26:53Z</time>
      </trkpt>
      <trkpt lat="48.68304" lon="5.77575">
        <ele>275.9</ele>
        <time>2020-06-29T16:26:54Z</time>
      </trkpt>
      <trkpt lat="48.68303" lon="5.77564">
        <ele>275.7</ele>
        <time>2020-06-29T16:26:55Z</time>
      </trkpt>
      <trkpt lat="48.68302" lon="5.77554">
        <ele>275.5</ele>
        <time>2020-06-29T16:26:56Z</time>
      </trkpt>
      <trkpt lat="48.68301" lon="5.77545">
        <ele>275.4</ele>
        <time>2020-06-29T16:26:57Z</time>
      </trkpt>
      <trkpt lat="48.683" lon="5.77535">
        <ele>275.2</ele>
        <time>2020-06-29T16:26:58Z</time>
      </trkpt>
      <trkpt lat="48.68299" lon="5.77525">
        <ele>275.1</ele>
        <time>2020-06-29T16:26:59Z</time>
      </trkpt>
      <trkpt lat="48.68297" lon="5.77516">
        <ele>274.9</ele>
        <time>2020-06-29T16:27:00Z</time>
      </trkpt>
      <trkpt lat="48.68296" lon="5.77508">
        <ele>274.8</ele>
        <time>2020-06-29T16:27:01Z</time>
      </trkpt>
      <trkpt lat="48.68295" lon="5.775">
        <ele>274.7</ele>
        <time>2020-06-29T16:27:02Z</time>
      </trkpt>
      <trkpt lat="48.68295" lon="5.77492">
        <ele>274.5</ele>
        <time>2020-06-29T16:27:03Z</time>
      </trkpt>
      <trkpt lat="48.68294" lon="5.77484">
        <ele>274.4</ele>
        <time>2020-06-29T16:27:04Z</time>
      </trkpt>
      <trkpt lat="48.68294" lon="5.77477">
        <ele>274.2</ele>
        <time>2020-06-29T16:27:05Z</time>
      </trkpt>
      <trkpt lat="48.68292" lon="5.77469">
        <ele>274</ele>
        <time>2020-06-29T16:27:06Z</time>
      </trkpt>
      <trkpt lat="48.68291" lon="5.77462">
        <ele>273.9</ele>
        <time>2020-06-29T16:27:07Z</time>
      </trkpt>
      <trkpt lat="48.68289" lon="5.77454">
        <ele>273.8</ele>
        <time>2020-06-29T16:27:08Z</time>
      </trkpt>
      <trkpt lat="48.68287" lon="5.77446">
        <ele>273.7</ele>
        <time>2020-06-29T16:27:09Z</time>
      </trkpt>
      <trkpt lat="48.68285" lon="5.77438">
        <ele>273.5</ele>
        <time>2020-06-29T16:27:10Z</time>
      </trkpt>
      <trkpt lat="48.68285" lon="5.77431">
        <ele>273.4</ele>
        <time>2020-06-29T16:27:11Z</time>
      </trkpt>
      <trkpt lat="48.68285" lon="5.77422">
        <ele>273.2</ele>
        <time>2020-06-29T16:27:12Z</time>
      </trkpt>
      <trkpt lat="48.68285" lon="5.77413">
        <ele>273.1</ele>
        <time>2020-06-29T16:27:13Z</time>
      </trkpt>
      <trkpt lat="48.68285" lon="5.77405">
        <ele>272.9</ele>
        <time>2020-06-29T16:27:14Z</time>
      </trkpt>
      <trkpt lat="48.68285" lon="5.77398">
        <ele>272.8</ele>
        <time>2020-06-29T16:27:15Z</time>
      </trkpt>
      <trkpt lat="48.68286" lon="5.77391">
        <ele>272.7</ele>
        <time>2020-06-29T16:27:16Z</time>
      </trkpt>
      <trkpt lat="48.68288" lon="5.77383">
        <ele>272.5</ele>
        <time>2020-06-29T16:27:17Z</time>
      </trkpt>
      <trkpt lat="48.68289" lon="5.77376">
        <ele>272.4</ele>
        <time>2020-06-29T16:27:18Z</time>
      </trkpt>
      <trkpt lat="48.6829" lon="5.77367">
        <ele>272.2</ele>
        <time>2020-06-29T16:27:19Z</time>
      </trkpt>
      <trkpt lat="48.68292" lon="5.77358">
        <ele>272.1</ele>
        <time>2020-06-29T16:27:20Z</time>
      </trkpt>
      <trkpt lat="48.68293" lon="5.77349">
        <ele>272</ele>
        <time>2020-06-29T16:27:21Z</time>
      </trkpt>
      <trkpt lat="48.68295" lon="5.77338">
        <ele>271.9</ele>
        <time>2020-06-29T16:27:22Z</time>
      </trkpt>
      <trkpt lat="48.68296" lon="5.77329">
        <ele>271.7</ele>
        <time>2020-06-29T16:27:23Z</time>
      </trkpt>
      <trkpt lat="48.68298" lon="5.77317">
        <ele>271.6</ele>
        <time>2020-06-29T16:27:24Z</time>
      </trkpt>
      <trkpt lat="48.68299" lon="5.77306">
        <ele>271.4</ele>
        <time>2020-06-29T16:27:25Z</time>
      </trkpt>
      <trkpt lat="48.68301" lon="5.77294">
        <ele>271.3</ele>
        <time>2020-06-29T16:27:26Z</time>
      </trkpt>
      <trkpt lat="48.68301" lon="5.77284">
        <ele>271.2</ele>
        <time>2020-06-29T16:27:27Z</time>
      </trkpt>
      <trkpt lat="48.68302" lon="5.77274">
        <ele>271.2</ele>
        <time>2020-06-29T16:27:28Z</time>
      </trkpt>
      <trkpt lat="48.68302" lon="5.77264">
        <ele>271.1</ele>
        <time>2020-06-29T16:27:29Z</time>
      </trkpt>
      <trkpt lat="48.68302" lon="5.77255">
        <ele>271.1</ele>
        <time>2020-06-29T16:27:30Z</time>
      </trkpt>
      <trkpt lat="48.68304" lon="5.77246">
        <ele>271.1</ele>
        <time>2020-06-29T16:27:31Z</time>
      </trkpt>
      <trkpt lat="48.68305" lon="5.77237">
        <ele>271.1</ele>
        <time>2020-06-29T16:27:32Z</time>
      </trkpt>
      <trkpt lat="48.68305" lon="5.77228">
        <ele>271</ele>
        <time>2020-06-29T16:27:33Z</time>
      </trkpt>
      <trkpt lat="48.68306" lon="5.77219">
        <ele>271</ele>
        <time>2020-06-29T16:27:34Z</time>
      </trkpt>
      <trkpt lat="48.68309" lon="5.77211">
        <ele>270.9</ele>
        <time>2020-06-29T16:27:35Z</time>
      </trkpt>
      <trkpt lat="48.6831" lon="5.77203">
        <ele>270.9</ele>
        <time>2020-06-29T16:27:36Z</time>
      </trkpt>
      <trkpt lat="48.68311" lon="5.77194">
        <ele>270.9</ele>
        <time>2020-06-29T16:27:37Z</time>
      </trkpt>
      <trkpt lat="48.68311" lon="5.77185">
        <ele>270.8</ele>
        <time>2020-06-29T16:27:38Z</time>
      </trkpt>
      <trkpt lat="48.68311" lon="5.77177">
        <ele>270.8</ele>
        <time>2020-06-29T16:27:39Z</time>
      </trkpt>
      <trkpt lat="48.68311" lon="5.77168">
        <ele>270.7</ele>
        <time>2020-06-29T16:27:40Z</time>
      </trkpt>
      <trkpt lat="48.68311" lon="5.7716">
        <ele>270.7</ele>
        <time>2020-06-29T16:27:41Z</time>
      </trkpt>
      <trkpt lat="48.68311" lon="5.77152">
        <ele>270.7</ele>
        <time>2020-06-29T16:27:42Z</time>
      </trkpt>
      <trkpt lat="48.6831" lon="5.77144">
        <ele>270.6</ele>
        <time>2020-06-29T16:27:43Z</time>
      </trkpt>
      <trkpt lat="48.68309" lon="5.77135">
        <ele>270.5</ele>
        <time>2020-06-29T16:27:44Z</time>
      </trkpt>
      <trkpt lat="48.68307" lon="5.77127">
        <ele>270.4</ele>
        <time>2020-06-29T16:27:45Z</time>
      </trkpt>
      <trkpt lat="48.68305" lon="5.77118">
        <ele>270.4</ele>
        <time>2020-06-29T16:27:46Z</time>
      </trkpt>
      <trkpt lat="48.68303" lon="5.7711">
        <ele>270.2</ele>
        <time>2020-06-29T16:27:47Z</time>
      </trkpt>
      <trkpt lat="48.683" lon="5.77102">
        <ele>270.1</ele>
        <time>2020-06-29T16:27:48Z</time>
      </trkpt>
      <trkpt lat="48.68298" lon="5.77094">
        <ele>270</ele>
        <time>2020-06-29T16:27:49Z</time>
      </trkpt>
      <trkpt lat="48.68294" lon="5.77086">
        <ele>269.9</ele>
        <time>2020-06-29T16:27:50Z</time>
      </trkpt>
      <trkpt lat="48.6829" lon="5.77079">
        <ele>269.8</ele>
        <time>2020-06-29T16:27:51Z</time>
      </trkpt>
      <trkpt lat="48.68285" lon="5.77072">
        <ele>269.7</ele>
        <time>2020-06-29T16:27:52Z</time>
      </trkpt>
      <trkpt lat="48.68281" lon="5.77065">
        <ele>269.6</ele>
        <time>2020-06-29T16:27:53Z</time>
      </trkpt>
      <trkpt lat="48.68277" lon="5.77058">
        <ele>269.5</ele>
        <time>2020-06-29T16:27:54Z</time>
      </trkpt>
      <trkpt lat="48.68272" lon="5.77051">
        <ele>269.4</ele>
        <time>2020-06-29T16:27:55Z</time>
      </trkpt>
      <trkpt lat="48.68267" lon="5.77044">
        <ele>269.2</ele>
        <time>2020-06-29T16:27:56Z</time>
      </trkpt>
      <trkpt lat="48.68263" lon="5.77037">
        <ele>269.1</ele>
        <time>2020-06-29T16:27:57Z</time>
      </trkpt>
      <trkpt lat="48.68258" lon="5.77029">
        <ele>269</ele>
        <time>2020-06-29T16:27:58Z</time>
      </trkpt>
      <trkpt lat="48.68254" lon="5.77022">
        <ele>268.8</ele>
        <time>2020-06-29T16:27:59Z</time>
      </trkpt>
      <trkpt lat="48.68249" lon="5.77015">
        <ele>268.7</ele>
        <time>2020-06-29T16:28:00Z</time>
      </trkpt>
      <trkpt lat="48.68244" lon="5.77008">
        <ele>268.6</ele>
        <time>2020-06-29T16:28:01Z</time>
      </trkpt>
      <trkpt lat="48.68238" lon="5.77">
        <ele>268.5</ele>
        <time>2020-06-29T16:28:02Z</time>
      </trkpt>
      <trkpt lat="48.68233" lon="5.76993">
        <ele>268.4</ele>
        <time>2020-06-29T16:28:03Z</time>
      </trkpt>
      <trkpt lat="48.68228" lon="5.76986">
        <ele>268.3</ele>
        <time>2020-06-29T16:28:04Z</time>
      </trkpt>
      <trkpt lat="48.68222" lon="5.76979">
        <ele>268.2</ele>
        <time>2020-06-29T16:28:05Z</time>
      </trkpt>
      <trkpt lat="48.68217" lon="5.76971">
        <ele>268.1</ele>
        <time>2020-06-29T16:28:06Z</time>
      </trkpt>
      <trkpt lat="48.68212" lon="5.76963">
        <ele>268</ele>
        <time>2020-06-29T16:28:07Z</time>
      </trkpt>
      <trkpt lat="48.68207" lon="5.76956">
        <ele>268</ele>
        <time>2020-06-29T16:28:08Z</time>
      </trkpt>
      <trkpt lat="48.68203" lon="5.76948">
        <ele>268</ele>
        <time>2020-06-29T16:28:09Z</time>
      </trkpt>
      <trkpt lat="48.68198" lon="5.76941">
        <ele>267.9</ele>
        <time>2020-06-29T16:28:10Z</time>
      </trkpt>
      <trkpt lat="48.68194" lon="5.76934">
        <ele>267.9</ele>
        <time>2020-06-29T16:28:11Z</time>
      </trkpt>
      <trkpt lat="48.6819" lon="5.76928">
        <ele>267.9</ele>
        <time>2020-06-29T16:28:12Z</time>
      </trkpt>
      <trkpt lat="48.68186" lon="5.76922">
        <ele>268</ele>
        <time>2020-06-29T16:28:13Z</time>
      </trkpt>
      <trkpt lat="48.68181" lon="5.76917">
        <ele>268</ele>
        <time>2020-06-29T16:28:14Z</time>
      </trkpt>
      <trkpt lat="48.68178" lon="5.76911">
        <ele>268</ele>
        <time>2020-06-29T16:28:15Z</time>
      </trkpt>
      <trkpt lat="48.68174" lon="5.76905">
        <ele>268</ele>
        <time>2020-06-29T16:28:16Z</time>
      </trkpt>
      <trkpt lat="48.6817" lon="5.769">
        <ele>268</ele>
        <time>2020-06-29T16:28:17Z</time>
      </trkpt>
      <trkpt lat="48.68165" lon="5.76894">
        <ele>268</ele>
        <time>2020-06-29T16:28:18Z</time>
      </trkpt>
      <trkpt lat="48.68161" lon="5.76888">
        <ele>267.9</ele>
        <time>2020-06-29T16:28:19Z</time>
      </trkpt>
      <trkpt lat="48.68157" lon="5.76881">
        <ele>267.9</ele>
        <time>2020-06-29T16:28:20Z</time>
      </trkpt>
      <trkpt lat="48.68153" lon="5.76874">
        <ele>267.8</ele>
        <time>2020-06-29T16:28:21Z</time>
      </trkpt>
      <trkpt lat="48.6815" lon="5.76867">
        <ele>267.8</ele>
        <time>2020-06-29T16:28:22Z</time>
      </trkpt>
      <trkpt lat="48.68146" lon="5.76861">
        <ele>267.8</ele>
        <time>2020-06-29T16:28:23Z</time>
      </trkpt>
      <trkpt lat="48.68142" lon="5.76856">
        <ele>267.8</ele>
        <time>2020-06-29T16:28:24Z</time>
      </trkpt>
      <trkpt lat="48.68138" lon="5.7685">
        <ele>267.7</ele>
        <time>2020-06-29T16:28:25Z</time>
      </trkpt>
      <trkpt lat="48.68134" lon="5.76844">
        <ele>267.7</ele>
        <time>2020-06-29T16:28:26Z</time>
      </trkpt>
      <trkpt lat="48.6813" lon="5.76839">
        <ele>267.6</ele>
        <time>2020-06-29T16:28:27Z</time>
      </trkpt>
      <trkpt lat="48.68127" lon="5.76833">
        <ele>267.6</ele>
        <time>2020-06-29T16:28:28Z</time>
      </trkpt>
      <trkpt lat="48.68124" lon="5.76828">
        <ele>267.5</ele>
        <time>2020-06-29T16:28:29Z</time>
      </trkpt>
      <trkpt lat="48.6812" lon="5.76823">
        <ele>267.4</ele>
        <time>2020-06-29T16:28:30Z</time>
      </trkpt>
      <trkpt lat="48.68116" lon="5.76818">
        <ele>267.3</ele>
        <time>2020-06-29T16:28:31Z</time>
      </trkpt>
      <trkpt lat="48.68111" lon="5.76814">
        <ele>267.1</ele>
        <time>2020-06-29T16:28:32Z</time>
      </trkpt>
      <trkpt lat="48.68107" lon="5.76811">
        <ele>266.9</ele>
        <time>2020-06-29T16:28:33Z</time>
      </trkpt>
      <trkpt lat="48.68102" lon="5.76805">
        <ele>266.7</ele>
        <time>2020-06-29T16:28:34Z</time>
      </trkpt>
      <trkpt lat="48.68098" lon="5.768">
        <ele>266.5</ele>
        <time>2020-06-29T16:28:35Z</time>
      </trkpt>
      <trkpt lat="48.68093" lon="5.76795">
        <ele>266.3</ele>
        <time>2020-06-29T16:28:36Z</time>
      </trkpt>
      <trkpt lat="48.68088" lon="5.76789">
        <ele>266</ele>
        <time>2020-06-29T16:28:37Z</time>
      </trkpt>
      <trkpt lat="48.68083" lon="5.76784">
        <ele>265.8</ele>
        <time>2020-06-29T16:28:38Z</time>
      </trkpt>
      <trkpt lat="48.68078" lon="5.76778">
        <ele>265.5</ele>
        <time>2020-06-29T16:28:39Z</time>
      </trkpt>
      <trkpt lat="48.68073" lon="5.76773">
        <ele>265.3</ele>
        <time>2020-06-29T16:28:40Z</time>
      </trkpt>
      <trkpt lat="48.68068" lon="5.76767">
        <ele>265</ele>
        <time>2020-06-29T16:28:41Z</time>
      </trkpt>
      <trkpt lat="48.68062" lon="5.76761">
        <ele>264.7</ele>
        <time>2020-06-29T16:28:42Z</time>
      </trkpt>
      <trkpt lat="48.68057" lon="5.76754">
        <ele>264.4</ele>
        <time>2020-06-29T16:28:43Z</time>
      </trkpt>
      <trkpt lat="48.68051" lon="5.76746">
        <ele>263.9</ele>
        <time>2020-06-29T16:28:44Z</time>
      </trkpt>
      <trkpt lat="48.68046" lon="5.7674">
        <ele>263.6</ele>
        <time>2020-06-29T16:28:45Z</time>
      </trkpt>
      <trkpt lat="48.6804" lon="5.76732">
        <ele>263.3</ele>
        <time>2020-06-29T16:28:46Z</time>
      </trkpt>
      <trkpt lat="48.68035" lon="5.76724">
        <ele>262.9</ele>
        <time>2020-06-29T16:28:47Z</time>
      </trkpt>
      <trkpt lat="48.68031" lon="5.76716">
        <ele>262.6</ele>
        <time>2020-06-29T16:28:48Z</time>
      </trkpt>
      <trkpt lat="48.68027" lon="5.76707">
        <ele>262.3</ele>
        <time>2020-06-29T16:28:49Z</time>
      </trkpt>
      <trkpt lat="48.68024" lon="5.76699">
        <ele>261.9</ele>
        <time>2020-06-29T16:28:50Z</time>
      </trkpt>
      <trkpt lat="48.68021" lon="5.7669">
        <ele>261.6</ele>
        <time>2020-06-29T16:28:51Z</time>
      </trkpt>
      <trkpt lat="48.68018" lon="5.7668">
        <ele>261.3</ele>
        <time>2020-06-29T16:28:52Z</time>
      </trkpt>
      <trkpt lat="48.68015" lon="5.76671">
        <ele>260.9</ele>
        <time>2020-06-29T16:28:53Z</time>
      </trkpt>
      <trkpt lat="48.68011" lon="5.76663">
        <ele>260.6</ele>
        <time>2020-06-29T16:28:54Z</time>
      </trkpt>
      <trkpt lat="48.68008" lon="5.76654">
        <ele>260.2</ele>
        <time>2020-06-29T16:28:55Z</time>
      </trkpt>
      <trkpt lat="48.68005" lon="5.76645">
        <ele>259.9</ele>
        <time>2020-06-29T16:28:56Z</time>
      </trkpt>
      <trkpt lat="48.68002" lon="5.76635">
        <ele>259.5</ele>
        <time>2020-06-29T16:28:57Z</time>
      </trkpt>
      <trkpt lat="48.67999" lon="5.76626">
        <ele>259.2</ele>
        <time>2020-06-29T16:28:58Z</time>
      </trkpt>
      <trkpt lat="48.67996" lon="5.76617">
        <ele>258.8</ele>
        <time>2020-06-29T16:28:59Z</time>
      </trkpt>
      <trkpt lat="48.67993" lon="5.76607">
        <ele>258.4</ele>
        <time>2020-06-29T16:29:00Z</time>
      </trkpt>
      <trkpt lat="48.6799" lon="5.76597">
        <ele>258</ele>
        <time>2020-06-29T16:29:01Z</time>
      </trkpt>
      <trkpt lat="48.67987" lon="5.76588">
        <ele>257.6</ele>
        <time>2020-06-29T16:29:02Z</time>
      </trkpt>
      <trkpt lat="48.67983" lon="5.76579">
        <ele>257.2</ele>
        <time>2020-06-29T16:29:03Z</time>
      </trkpt>
      <trkpt lat="48.67979" lon="5.76569">
        <ele>256.9</ele>
        <time>2020-06-29T16:29:04Z</time>
      </trkpt>
      <trkpt lat="48.67975" lon="5.7656">
        <ele>256.6</ele>
        <time>2020-06-29T16:29:05Z</time>
      </trkpt>
      <trkpt lat="48.67972" lon="5.7655">
        <ele>256.2</ele>
        <time>2020-06-29T16:29:06Z</time>
      </trkpt>
      <trkpt lat="48.67969" lon="5.7654">
        <ele>255.9</ele>
        <time>2020-06-29T16:29:07Z</time>
      </trkpt>
      <trkpt lat="48.67967" lon="5.76529">
        <ele>255.7</ele>
        <time>2020-06-29T16:29:08Z</time>
      </trkpt>
      <trkpt lat="48.67966" lon="5.76518">
        <ele>255.4</ele>
        <time>2020-06-29T16:29:09Z</time>
      </trkpt>
      <trkpt lat="48.67965" lon="5.76506">
        <ele>255.2</ele>
        <time>2020-06-29T16:29:10Z</time>
      </trkpt>
      <trkpt lat="48.67964" lon="5.76495">
        <ele>254.9</ele>
        <time>2020-06-29T16:29:11Z</time>
      </trkpt>
      <trkpt lat="48.67964" lon="5.76483">
        <ele>254.7</ele>
        <time>2020-06-29T16:29:12Z</time>
      </trkpt>
      <trkpt lat="48.67963" lon="5.76472">
        <ele>254.4</ele>
        <time>2020-06-29T16:29:13Z</time>
      </trkpt>
      <trkpt lat="48.67963" lon="5.7646">
        <ele>254</ele>
        <time>2020-06-29T16:29:14Z</time>
      </trkpt>
      <trkpt lat="48.67963" lon="5.7645">
        <ele>253.8</ele>
        <time>2020-06-29T16:29:15Z</time>
      </trkpt>
      <trkpt lat="48.67964" lon="5.76439">
        <ele>253.7</ele>
        <time>2020-06-29T16:29:16Z</time>
      </trkpt>
      <trkpt lat="48.67964" lon="5.76428">
        <ele>253.5</ele>
        <time>2020-06-29T16:29:17Z</time>
      </trkpt>
      <trkpt lat="48.67965" lon="5.76418">
        <ele>253.3</ele>
        <time>2020-06-29T16:29:18Z</time>
      </trkpt>
      <trkpt lat="48.67966" lon="5.76408">
        <ele>253.2</ele>
        <time>2020-06-29T16:29:19Z</time>
      </trkpt>
      <trkpt lat="48.67967" lon="5.76398">
        <ele>253</ele>
        <time>2020-06-29T16:29:20Z</time>
      </trkpt>
      <trkpt lat="48.67967" lon="5.76388">
        <ele>252.9</ele>
        <time>2020-06-29T16:29:21Z</time>
      </trkpt>
      <trkpt lat="48.67968" lon="5.76379">
        <ele>252.8</ele>
        <time>2020-06-29T16:29:22Z</time>
      </trkpt>
      <trkpt lat="48.67969" lon="5.76369">
        <ele>252.6</ele>
        <time>2020-06-29T16:29:23Z</time>
      </trkpt>
      <trkpt lat="48.6797" lon="5.7636">
        <ele>252.5</ele>
        <time>2020-06-29T16:29:24Z</time>
      </trkpt>
      <trkpt lat="48.67971" lon="5.76351">
        <ele>252.3</ele>
        <time>2020-06-29T16:29:25Z</time>
      </trkpt>
      <trkpt lat="48.67972" lon="5.76341">
        <ele>252.1</ele>
        <time>2020-06-29T16:29:26Z</time>
      </trkpt>
      <trkpt lat="48.67975" lon="5.76333">
        <ele>252</ele>
        <time>2020-06-29T16:29:27Z</time>
      </trkpt>
      <trkpt lat="48.67977" lon="5.76324">
        <ele>251.9</ele>
        <time>2020-06-29T16:29:28Z</time>
      </trkpt>
      <trkpt lat="48.67978" lon="5.76315">
        <ele>251.8</ele>
        <time>2020-06-29T16:29:29Z</time>
      </trkpt>
      <trkpt lat="48.67979" lon="5.76306">
        <ele>251.6</ele>
        <time>2020-06-29T16:29:30Z</time>
      </trkpt>
      <trkpt lat="48.67981" lon="5.76297">
        <ele>251.5</ele>
        <time>2020-06-29T16:29:31Z</time>
      </trkpt>
      <trkpt lat="48.67982" lon="5.76289">
        <ele>251.4</ele>
        <time>2020-06-29T16:29:32Z</time>
      </trkpt>
      <trkpt lat="48.67984" lon="5.76281">
        <ele>251.3</ele>
        <time>2020-06-29T16:29:33Z</time>
      </trkpt>
      <trkpt lat="48.67986" lon="5.76274">
        <ele>251.2</ele>
        <time>2020-06-29T16:29:34Z</time>
      </trkpt>
      <trkpt lat="48.67987" lon="5.76266">
        <ele>251.1</ele>
        <time>2020-06-29T16:29:35Z</time>
      </trkpt>
      <trkpt lat="48.67989" lon="5.76259">
        <ele>251</ele>
        <time>2020-06-29T16:29:36Z</time>
      </trkpt>
      <trkpt lat="48.67992" lon="5.76251">
        <ele>250.9</ele>
        <time>2020-06-29T16:29:37Z</time>
      </trkpt>
      <trkpt lat="48.67995" lon="5.76243">
        <ele>250.8</ele>
        <time>2020-06-29T16:29:38Z</time>
      </trkpt>
      <trkpt lat="48.67998" lon="5.76235">
        <ele>250.7</ele>
        <time>2020-06-29T16:29:39Z</time>
      </trkpt>
      <trkpt lat="48.68001" lon="5.76227">
        <ele>250.6</ele>
        <time>2020-06-29T16:29:40Z</time>
      </trkpt>
      <trkpt lat="48.68004" lon="5.7622">
        <ele>250.7</ele>
        <time>2020-06-29T16:29:41Z</time>
      </trkpt>
      <trkpt lat="48.68008" lon="5.76214">
        <ele>250.7</ele>
        <time>2020-06-29T16:29:42Z</time>
      </trkpt>
      <trkpt lat="48.68011" lon="5.76209">
        <ele>250.7</ele>
        <time>2020-06-29T16:29:43Z</time>
      </trkpt>
      <trkpt lat="48.68014" lon="5.76204">
        <ele>250.7</ele>
        <time>2020-06-29T16:29:44Z</time>
      </trkpt>
      <trkpt lat="48.68017" lon="5.76199">
        <ele>250.7</ele>
        <time>2020-06-29T16:29:45Z</time>
      </trkpt>
      <trkpt lat="48.6802" lon="5.76195">
        <ele>250.7</ele>
        <time>2020-06-29T16:29:46Z</time>
      </trkpt>
      <trkpt lat="48.68023" lon="5.7619">
        <ele>250.7</ele>
        <time>2020-06-29T16:29:47Z</time>
      </trkpt>
      <trkpt lat="48.68027" lon="5.76185">
        <ele>250.7</ele>
        <time>2020-06-29T16:29:48Z</time>
      </trkpt>
      <trkpt lat="48.68031" lon="5.7618">
        <ele>250.7</ele>
        <time>2020-06-29T16:29:49Z</time>
      </trkpt>
      <trkpt lat="48.68035" lon="5.76174">
        <ele>250.5</ele>
        <time>2020-06-29T16:29:50Z</time>
      </trkpt>
      <trkpt lat="48.68039" lon="5.76169">
        <ele>250.4</ele>
        <time>2020-06-29T16:29:51Z</time>
      </trkpt>
      <trkpt lat="48.68043" lon="5.76163">
        <ele>250.3</ele>
        <time>2020-06-29T16:29:52Z</time>
      </trkpt>
      <trkpt lat="48.68047" lon="5.76158">
        <ele>250.2</ele>
        <time>2020-06-29T16:29:53Z</time>
      </trkpt>
      <trkpt lat="48.6805" lon="5.76153">
        <ele>250.1</ele>
        <time>2020-06-29T16:29:54Z</time>
      </trkpt>
      <trkpt lat="48.68053" lon="5.76148">
        <ele>250.1</ele>
        <time>2020-06-29T16:29:55Z</time>
      </trkpt>
      <trkpt lat="48.68057" lon="5.76144">
        <ele>250</ele>
        <time>2020-06-29T16:29:56Z</time>
      </trkpt>
      <trkpt lat="48.68059" lon="5.76139">
        <ele>250</ele>
        <time>2020-06-29T16:29:57Z</time>
      </trkpt>
      <trkpt lat="48.68062" lon="5.76135">
        <ele>249.9</ele>
        <time>2020-06-29T16:29:58Z</time>
      </trkpt>
      <trkpt lat="48.68064" lon="5.7613">
        <ele>249.9</ele>
        <time>2020-06-29T16:29:59Z</time>
      </trkpt>
      <trkpt lat="48.68067" lon="5.76125">
        <ele>249.8</ele>
        <time>2020-06-29T16:30:00Z</time>
      </trkpt>
      <trkpt lat="48.6807" lon="5.76121">
        <ele>249.8</ele>
        <time>2020-06-29T16:30:01Z</time>
      </trkpt>
      <trkpt lat="48.68073" lon="5.76115">
        <ele>249.7</ele>
        <time>2020-06-29T16:30:02Z</time>
      </trkpt>
      <trkpt lat="48.68076" lon="5.7611">
        <ele>249.7</ele>
        <time>2020-06-29T16:30:03Z</time>
      </trkpt>
      <trkpt lat="48.68079" lon="5.76104">
        <ele>249.6</ele>
        <time>2020-06-29T16:30:04Z</time>
      </trkpt>
      <trkpt lat="48.68083" lon="5.76097">
        <ele>249.6</ele>
        <time>2020-06-29T16:30:05Z</time>
      </trkpt>
      <trkpt lat="48.68087" lon="5.76092">
        <ele>249.5</ele>
        <time>2020-06-29T16:30:06Z</time>
      </trkpt>
      <trkpt lat="48.68091" lon="5.76087">
        <ele>249.5</ele>
        <time>2020-06-29T16:30:07Z</time>
      </trkpt>
      <trkpt lat="48.68095" lon="5.76081">
        <ele>249.5</ele>
        <time>2020-06-29T16:30:08Z</time>
      </trkpt>
      <trkpt lat="48.68098" lon="5.76075">
        <ele>249.4</ele>
        <time>2020-06-29T16:30:09Z</time>
      </trkpt>
      <trkpt lat="48.68102" lon="5.76069">
        <ele>249.4</ele>
        <time>2020-06-29T16:30:10Z</time>
      </trkpt>
      <trkpt lat="48.68106" lon="5.76064">
        <ele>249.4</ele>
        <time>2020-06-29T16:30:11Z</time>
      </trkpt>
      <trkpt lat="48.68109" lon="5.76058">
        <ele>249.3</ele>
        <time>2020-06-29T16:30:12Z</time>
      </trkpt>
      <trkpt lat="48.68112" lon="5.76053">
        <ele>249.3</ele>
        <time>2020-06-29T16:30:13Z</time>
      </trkpt>
      <trkpt lat="48.68115" lon="5.76048">
        <ele>249.3</ele>
        <time>2020-06-29T16:30:14Z</time>
      </trkpt>
      <trkpt lat="48.68118" lon="5.76042">
        <ele>249.3</ele>
        <time>2020-06-29T16:30:15Z</time>
      </trkpt>
      <trkpt lat="48.68121" lon="5.76036">
        <ele>249.3</ele>
        <time>2020-06-29T16:30:16Z</time>
      </trkpt>
      <trkpt lat="48.68124" lon="5.7603">
        <ele>249.3</ele>
        <time>2020-06-29T16:30:17Z</time>
      </trkpt>
      <trkpt lat="48.68128" lon="5.76025">
        <ele>249.3</ele>
        <time>2020-06-29T16:30:18Z</time>
      </trkpt>
      <trkpt lat="48.68131" lon="5.76019">
        <ele>249.2</ele>
        <time>2020-06-29T16:30:19Z</time>
      </trkpt>
      <trkpt lat="48.68134" lon="5.76013">
        <ele>249.2</ele>
        <time>2020-06-29T16:30:20Z</time>
      </trkpt>
      <trkpt lat="48.68137" lon="5.76007">
        <ele>249.1</ele>
        <time>2020-06-29T16:30:21Z</time>
      </trkpt>
      <trkpt lat="48.68141" lon="5.76001">
        <ele>249.1</ele>
        <time>2020-06-29T16:30:22Z</time>
      </trkpt>
      <trkpt lat="48.68145" lon="5.75996">
        <ele>249</ele>
        <time>2020-06-29T16:30:23Z</time>
      </trkpt>
      <trkpt lat="48.68149" lon="5.7599">
        <ele>248.9</ele>
        <time>2020-06-29T16:30:24Z</time>
      </trkpt>
      <trkpt lat="48.68152" lon="5.75983">
        <ele>248.9</ele>
        <time>2020-06-29T16:30:25Z</time>
      </trkpt>
      <trkpt lat="48.68156" lon="5.75977">
        <ele>248.8</ele>
        <time>2020-06-29T16:30:26Z</time>
      </trkpt>
      <trkpt lat="48.68159" lon="5.75971">
        <ele>248.7</ele>
        <time>2020-06-29T16:30:27Z</time>
      </trkpt>
      <trkpt lat="48.68162" lon="5.75964">
        <ele>248.6</ele>
        <time>2020-06-29T16:30:28Z</time>
      </trkpt>
      <trkpt lat="48.68166" lon="5.75958">
        <ele>248.6</ele>
        <time>2020-06-29T16:30:29Z</time>
      </trkpt>
      <trkpt lat="48.68169" lon="5.75951">
        <ele>248.6</ele>
        <time>2020-06-29T16:30:30Z</time>
      </trkpt>
      <trkpt lat="48.68172" lon="5.75944">
        <ele>248.6</ele>
        <time>2020-06-29T16:30:31Z</time>
      </trkpt>
      <trkpt lat="48.68176" lon="5.75937">
        <ele>248.6</ele>
        <time>2020-06-29T16:30:32Z</time>
      </trkpt>
      <trkpt lat="48.68178" lon="5.7593">
        <ele>248.6</ele>
        <time>2020-06-29T16:30:33Z</time>
      </trkpt>
      <trkpt lat="48.68182" lon="5.75923">
        <ele>248.6</ele>
        <time>2020-06-29T16:30:34Z</time>
      </trkpt>
      <trkpt lat="48.68184" lon="5.75915">
        <ele>248.5</ele>
        <time>2020-06-29T16:30:35Z</time>
      </trkpt>
      <trkpt lat="48.68186" lon="5.75907">
        <ele>248.5</ele>
        <time>2020-06-29T16:30:36Z</time>
      </trkpt>
      <trkpt lat="48.68189" lon="5.75899">
        <ele>248.5</ele>
        <time>2020-06-29T16:30:37Z</time>
      </trkpt>
      <trkpt lat="48.68192" lon="5.75892">
        <ele>248.5</ele>
        <time>2020-06-29T16:30:38Z</time>
      </trkpt>
      <trkpt lat="48.68194" lon="5.75884">
        <ele>248.5</ele>
        <time>2020-06-29T16:30:39Z</time>
      </trkpt>
      <trkpt lat="48.68197" lon="5.75876">
        <ele>248.5</ele>
        <time>2020-06-29T16:30:40Z</time>
      </trkpt>
      <trkpt lat="48.68199" lon="5.75868">
        <ele>248.5</ele>
        <time>2020-06-29T16:30:41Z</time>
      </trkpt>
      <trkpt lat="48.68202" lon="5.7586">
        <ele>248.6</ele>
        <time>2020-06-29T16:30:42Z</time>
      </trkpt>
      <trkpt lat="48.68205" lon="5.75852">
        <ele>248.6</ele>
        <time>2020-06-29T16:30:43Z</time>
      </trkpt>
      <trkpt lat="48.68208" lon="5.75843">
        <ele>248.7</ele>
        <time>2020-06-29T16:30:44Z</time>
      </trkpt>
      <trkpt lat="48.6821" lon="5.75835">
        <ele>248.7</ele>
        <time>2020-06-29T16:30:45Z</time>
      </trkpt>
      <trkpt lat="48.68213" lon="5.75827">
        <ele>248.8</ele>
        <time>2020-06-29T16:30:46Z</time>
      </trkpt>
      <trkpt lat="48.68215" lon="5.75819">
        <ele>248.8</ele>
        <time>2020-06-29T16:30:47Z</time>
      </trkpt>
      <trkpt lat="48.68217" lon="5.7581">
        <ele>248.9</ele>
        <time>2020-06-29T16:30:48Z</time>
      </trkpt>
      <trkpt lat="48.68219" lon="5.75802">
        <ele>249</ele>
        <time>2020-06-29T16:30:49Z</time>
      </trkpt>
      <trkpt lat="48.68221" lon="5.75794">
        <ele>249.1</ele>
        <time>2020-06-29T16:30:50Z</time>
      </trkpt>
      <trkpt lat="48.68224" lon="5.75786">
        <ele>249.2</ele>
        <time>2020-06-29T16:30:51Z</time>
      </trkpt>
      <trkpt lat="48.68226" lon="5.75779">
        <ele>249.3</ele>
        <time>2020-06-29T16:30:52Z</time>
      </trkpt>
      <trkpt lat="48.68229" lon="5.75772">
        <ele>249.3</ele>
        <time>2020-06-29T16:30:53Z</time>
      </trkpt>
      <trkpt lat="48.68231" lon="5.75765">
        <ele>249.4</ele>
        <time>2020-06-29T16:30:54Z</time>
      </trkpt>
      <trkpt lat="48.68233" lon="5.75758">
        <ele>249.5</ele>
        <time>2020-06-29T16:30:55Z</time>
      </trkpt>
      <trkpt lat="48.68235" lon="5.75751">
        <ele>249.7</ele>
        <time>2020-06-29T16:30:56Z</time>
      </trkpt>
      <trkpt lat="48.68237" lon="5.75744">
        <ele>249.9</ele>
        <time>2020-06-29T16:30:57Z</time>
      </trkpt>
      <trkpt lat="48.68239" lon="5.75738">
        <ele>250.1</ele>
        <time>2020-06-29T16:30:58Z</time>
      </trkpt>
      <trkpt lat="48.68242" lon="5.75732">
        <ele>250.3</ele>
        <time>2020-06-29T16:30:59Z</time>
      </trkpt>
      <trkpt lat="48.68244" lon="5.75725">
        <ele>250.5</ele>
        <time>2020-06-29T16:31:00Z</time>
      </trkpt>
      <trkpt lat="48.68245" lon="5.75718">
        <ele>250.1</ele>
        <time>2020-06-29T16:31:01Z</time>
      </trkpt>
      <trkpt lat="48.68247" lon="5.75711">
        <ele>250</ele>
        <time>2020-06-29T16:31:02Z</time>
      </trkpt>
      <trkpt lat="48.6825" lon="5.75704">
        <ele>250</ele>
        <time>2020-06-29T16:31:03Z</time>
      </trkpt>
      <trkpt lat="48.68252" lon="5.75697">
        <ele>250</ele>
        <time>2020-06-29T16:31:04Z</time>
      </trkpt>
      <trkpt lat="48.68254" lon="5.7569">
        <ele>250</ele>
        <time>2020-06-29T16:31:05Z</time>
      </trkpt>
      <trkpt lat="48.68256" lon="5.75683">
        <ele>250</ele>
        <time>2020-06-29T16:31:06Z</time>
      </trkpt>
      <trkpt lat="48.68258" lon="5.75676">
        <ele>250</ele>
        <time>2020-06-29T16:31:07Z</time>
      </trkpt>
      <trkpt lat="48.6826" lon="5.7567">
        <ele>250.1</ele>
        <time>2020-06-29T16:31:08Z</time>
      </trkpt>
      <trkpt lat="48.68262" lon="5.75662">
        <ele>250.1</ele>
        <time>2020-06-29T16:31:09Z</time>
      </trkpt>
      <trkpt lat="48.68264" lon="5.75656">
        <ele>250.2</ele>
        <time>2020-06-29T16:31:10Z</time>
      </trkpt>
      <trkpt lat="48.68266" lon="5.75649">
        <ele>250.3</ele>
        <time>2020-06-29T16:31:11Z</time>
      </trkpt>
      <trkpt lat="48.68268" lon="5.75643">
        <ele>250.3</ele>
        <time>2020-06-29T16:31:12Z</time>
      </trkpt>
      <trkpt lat="48.68271" lon="5.75637">
        <ele>250.4</ele>
        <time>2020-06-29T16:31:13Z</time>
      </trkpt>
      <trkpt lat="48.68272" lon="5.75631">
        <ele>250.5</ele>
        <time>2020-06-29T16:31:14Z</time>
      </trkpt>
      <trkpt lat="48.68275" lon="5.75625">
        <ele>250.6</ele>
        <time>2020-06-29T16:31:15Z</time>
      </trkpt>
      <trkpt lat="48.68277" lon="5.75619">
        <ele>250.7</ele>
        <time>2020-06-29T16:31:16Z</time>
      </trkpt>
      <trkpt lat="48.68278" lon="5.75613">
        <ele>250.8</ele>
        <time>2020-06-29T16:31:17Z</time>
      </trkpt>
      <trkpt lat="48.68279" lon="5.75607">
        <ele>251</ele>
        <time>2020-06-29T16:31:18Z</time>
      </trkpt>
      <trkpt lat="48.6828" lon="5.75601">
        <ele>251.1</ele>
        <time>2020-06-29T16:31:19Z</time>
      </trkpt>
      <trkpt lat="48.68282" lon="5.75595">
        <ele>251.3</ele>
        <time>2020-06-29T16:31:20Z</time>
      </trkpt>
      <trkpt lat="48.68284" lon="5.75589">
        <ele>251.4</ele>
        <time>2020-06-29T16:31:21Z</time>
      </trkpt>
      <trkpt lat="48.68285" lon="5.75582">
        <ele>251.6</ele>
        <time>2020-06-29T16:31:22Z</time>
      </trkpt>
      <trkpt lat="48.68287" lon="5.75576">
        <ele>251.8</ele>
        <time>2020-06-29T16:31:23Z</time>
      </trkpt>
      <trkpt lat="48.68288" lon="5.75571">
        <ele>252</ele>
        <time>2020-06-29T16:31:24Z</time>
      </trkpt>
      <trkpt lat="48.6829" lon="5.75565">
        <ele>252.1</ele>
        <time>2020-06-29T16:31:25Z</time>
      </trkpt>
      <trkpt lat="48.68291" lon="5.75559">
        <ele>252.3</ele>
        <time>2020-06-29T16:31:26Z</time>
      </trkpt>
      <trkpt lat="48.68293" lon="5.75554">
        <ele>252.5</ele>
        <time>2020-06-29T16:31:27Z</time>
      </trkpt>
      <trkpt lat="48.68294" lon="5.75549">
        <ele>252.7</ele>
        <time>2020-06-29T16:31:28Z</time>
      </trkpt>
      <trkpt lat="48.68295" lon="5.75544">
        <ele>252.9</ele>
        <time>2020-06-29T16:31:29Z</time>
      </trkpt>
      <trkpt lat="48.68297" lon="5.75539">
        <ele>253</ele>
        <time>2020-06-29T16:31:30Z</time>
      </trkpt>
      <trkpt lat="48.68298" lon="5.75535">
        <ele>253.2</ele>
        <time>2020-06-29T16:31:31Z</time>
      </trkpt>
      <trkpt lat="48.683" lon="5.75531">
        <ele>253.4</ele>
        <time>2020-06-29T16:31:32Z</time>
      </trkpt>
      <trkpt lat="48.68301" lon="5.75526">
        <ele>253.6</ele>
        <time>2020-06-29T16:31:33Z</time>
      </trkpt>
      <trkpt lat="48.68302" lon="5.75521">
        <ele>253.8</ele>
        <time>2020-06-29T16:31:34Z</time>
      </trkpt>
      <trkpt lat="48.68303" lon="5.75517">
        <ele>254</ele>
        <time>2020-06-29T16:31:35Z</time>
      </trkpt>
      <trkpt lat="48.68304" lon="5.75512">
        <ele>254.2</ele>
        <time>2020-06-29T16:31:36Z</time>
      </trkpt>
      <trkpt lat="48.68305" lon="5.75507">
        <ele>254.4</ele>
        <time>2020-06-29T16:31:37Z</time>
      </trkpt>
      <trkpt lat="48.68305" lon="5.75501">
        <ele>254.6</ele>
        <time>2020-06-29T16:31:38Z</time>
      </trkpt>
      <trkpt lat="48.68306" lon="5.75496">
        <ele>254.8</ele>
        <time>2020-06-29T16:31:39Z</time>
      </trkpt>
      <trkpt lat="48.68307" lon="5.75491">
        <ele>255</ele>
        <time>2020-06-29T16:31:40Z</time>
      </trkpt>
      <trkpt lat="48.68308" lon="5.75486">
        <ele>255.2</ele>
        <time>2020-06-29T16:31:41Z</time>
      </trkpt>
      <trkpt lat="48.68309" lon="5.75482">
        <ele>255.4</ele>
        <time>2020-06-29T16:31:42Z</time>
      </trkpt>
      <trkpt lat="48.68311" lon="5.75478">
        <ele>255.6</ele>
        <time>2020-06-29T16:31:43Z</time>
      </trkpt>
      <trkpt lat="48.68313" lon="5.75473">
        <ele>255.8</ele>
        <time>2020-06-29T16:31:44Z</time>
      </trkpt>
      <trkpt lat="48.68313" lon="5.75471">
        <ele>255.8</ele>
        <time>2020-06-29T16:31:45Z</time>
      </trkpt>
      <trkpt lat="48.68315" lon="5.75464">
        <ele>256.1</ele>
        <time>2020-06-29T16:31:46Z</time>
      </trkpt>
      <trkpt lat="48.68314" lon="5.75458">
        <ele>256.3</ele>
        <time>2020-06-29T16:31:47Z</time>
      </trkpt>
      <trkpt lat="48.68314" lon="5.75455">
        <ele>256.4</ele>
        <time>2020-06-29T16:31:48Z</time>
      </trkpt>
      <trkpt lat="48.68313" lon="5.75451">
        <ele>256.6</ele>
        <time>2020-06-29T16:31:49Z</time>
      </trkpt>
      <trkpt lat="48.68312" lon="5.75447">
        <ele>256.7</ele>
        <time>2020-06-29T16:31:50Z</time>
      </trkpt>
      <trkpt lat="48.68311" lon="5.75441">
        <ele>256.9</ele>
        <time>2020-06-29T16:31:51Z</time>
      </trkpt>
      <trkpt lat="48.68311" lon="5.75438">
        <ele>257</ele>
        <time>2020-06-29T16:31:52Z</time>
      </trkpt>
      <trkpt lat="48.6831" lon="5.75433">
        <ele>257.1</ele>
        <time>2020-06-29T16:31:53Z</time>
      </trkpt>
      <trkpt lat="48.68308" lon="5.75427">
        <ele>257.4</ele>
        <time>2020-06-29T16:31:54Z</time>
      </trkpt>
      <trkpt lat="48.68307" lon="5.75425">
        <ele>257.5</ele>
        <time>2020-06-29T16:31:55Z</time>
      </trkpt>
      <trkpt lat="48.68303" lon="5.7542">
        <ele>257.7</ele>
        <time>2020-06-29T16:31:56Z</time>
      </trkpt>
      <trkpt lat="48.683" lon="5.75414">
        <ele>258</ele>
        <time>2020-06-29T16:31:57Z</time>
      </trkpt>
      <trkpt lat="48.68297" lon="5.75409">
        <ele>258.2</ele>
        <time>2020-06-29T16:31:58Z</time>
      </trkpt>
      <trkpt lat="48.68294" lon="5.75403">
        <ele>258.4</ele>
        <time>2020-06-29T16:31:59Z</time>
      </trkpt>
      <trkpt lat="48.68292" lon="5.75398">
        <ele>258.6</ele>
        <time>2020-06-29T16:32:00Z</time>
      </trkpt>
      <trkpt lat="48.68289" lon="5.75394">
        <ele>258.8</ele>
        <time>2020-06-29T16:32:01Z</time>
      </trkpt>
      <trkpt lat="48.68287" lon="5.75389">
        <ele>258.9</ele>
        <time>2020-06-29T16:32:02Z</time>
      </trkpt>
      <trkpt lat="48.68286" lon="5.75387">
        <ele>259</ele>
        <time>2020-06-29T16:32:03Z</time>
      </trkpt>
      <trkpt lat="48.68282" lon="5.75384">
        <ele>259.2</ele>
        <time>2020-06-29T16:32:04Z</time>
      </trkpt>
      <trkpt lat="48.68278" lon="5.7538">
        <ele>259.4</ele>
        <time>2020-06-29T16:32:05Z</time>
      </trkpt>
      <trkpt lat="48.68274" lon="5.75377">
        <ele>259.6</ele>
        <time>2020-06-29T16:32:06Z</time>
      </trkpt>
      <trkpt lat="48.6827" lon="5.75371">
        <ele>259.9</ele>
        <time>2020-06-29T16:32:07Z</time>
      </trkpt>
      <trkpt lat="48.68268" lon="5.75368">
        <ele>260</ele>
        <time>2020-06-29T16:32:08Z</time>
      </trkpt>
      <trkpt lat="48.68266" lon="5.75364">
        <ele>260.2</ele>
        <time>2020-06-29T16:32:09Z</time>
      </trkpt>
      <trkpt lat="48.68263" lon="5.75359">
        <ele>260.4</ele>
        <time>2020-06-29T16:32:10Z</time>
      </trkpt>
      <trkpt lat="48.68261" lon="5.75355">
        <ele>260.5</ele>
        <time>2020-06-29T16:32:11Z</time>
      </trkpt>
      <trkpt lat="48.68259" lon="5.75351">
        <ele>260.7</ele>
        <time>2020-06-29T16:32:12Z</time>
      </trkpt>
      <trkpt lat="48.68256" lon="5.75349">
        <ele>260.8</ele>
        <time>2020-06-29T16:32:13Z</time>
      </trkpt>
      <trkpt lat="48.68254" lon="5.75347">
        <ele>260.9</ele>
        <time>2020-06-29T16:32:14Z</time>
      </trkpt>
      <trkpt lat="48.68251" lon="5.75345">
        <ele>261.1</ele>
        <time>2020-06-29T16:32:15Z</time>
      </trkpt>
      <trkpt lat="48.68249" lon="5.75341">
        <ele>261.2</ele>
        <time>2020-06-29T16:32:16Z</time>
      </trkpt>
      <trkpt lat="48.68247" lon="5.75339">
        <ele>261.4</ele>
        <time>2020-06-29T16:32:17Z</time>
      </trkpt>
      <trkpt lat="48.68244" lon="5.75336">
        <ele>261.5</ele>
        <time>2020-06-29T16:32:18Z</time>
      </trkpt>
      <trkpt lat="48.68241" lon="5.75332">
        <ele>261.7</ele>
        <time>2020-06-29T16:32:19Z</time>
      </trkpt>
      <trkpt lat="48.68239" lon="5.75329">
        <ele>261.8</ele>
        <time>2020-06-29T16:32:20Z</time>
      </trkpt>
      <trkpt lat="48.68236" lon="5.75327">
        <ele>262</ele>
        <time>2020-06-29T16:32:21Z</time>
      </trkpt>
      <trkpt lat="48.68234" lon="5.75322">
        <ele>262.2</ele>
        <time>2020-06-29T16:32:22Z</time>
      </trkpt>
      <trkpt lat="48.6823" lon="5.75318">
        <ele>262.4</ele>
        <time>2020-06-29T16:32:23Z</time>
      </trkpt>
      <trkpt lat="48.68229" lon="5.75316">
        <ele>262.5</ele>
        <time>2020-06-29T16:32:24Z</time>
      </trkpt>
      <trkpt lat="48.68227" lon="5.75312">
        <ele>262.6</ele>
        <time>2020-06-29T16:32:25Z</time>
      </trkpt>
      <trkpt lat="48.68223" lon="5.75308">
        <ele>262.9</ele>
        <time>2020-06-29T16:32:26Z</time>
      </trkpt>
      <trkpt lat="48.68221" lon="5.75304">
        <ele>263</ele>
        <time>2020-06-29T16:32:27Z</time>
      </trkpt>
      <trkpt lat="48.68218" lon="5.75301">
        <ele>263.2</ele>
        <time>2020-06-29T16:32:28Z</time>
      </trkpt>
      <trkpt lat="48.68215" lon="5.75295">
        <ele>263.5</ele>
        <time>2020-06-29T16:32:29Z</time>
      </trkpt>
      <trkpt lat="48.68213" lon="5.75293">
        <ele>263.6</ele>
        <time>2020-06-29T16:32:30Z</time>
      </trkpt>
      <trkpt lat="48.68211" lon="5.75289">
        <ele>263.8</ele>
        <time>2020-06-29T16:32:31Z</time>
      </trkpt>
      <trkpt lat="48.68208" lon="5.75285">
        <ele>264</ele>
        <time>2020-06-29T16:32:32Z</time>
      </trkpt>
      <trkpt lat="48.68205" lon="5.75281">
        <ele>264.2</ele>
        <time>2020-06-29T16:32:33Z</time>
      </trkpt>
      <trkpt lat="48.68202" lon="5.75278">
        <ele>264.3</ele>
        <time>2020-06-29T16:32:34Z</time>
      </trkpt>
      <trkpt lat="48.682" lon="5.75275">
        <ele>264.5</ele>
        <time>2020-06-29T16:32:35Z</time>
      </trkpt>
      <trkpt lat="48.68198" lon="5.75272">
        <ele>264.6</ele>
        <time>2020-06-29T16:32:36Z</time>
      </trkpt>
      <trkpt lat="48.68197" lon="5.75272">
        <ele>264.7</ele>
        <time>2020-06-29T16:32:37Z</time>
      </trkpt>
      <trkpt lat="48.68195" lon="5.75268">
        <ele>264.8</ele>
        <time>2020-06-29T16:32:38Z</time>
      </trkpt>
      <trkpt lat="48.68192" lon="5.75265">
        <ele>265</ele>
        <time>2020-06-29T16:32:39Z</time>
      </trkpt>
      <trkpt lat="48.68189" lon="5.75262">
        <ele>265.2</ele>
        <time>2020-06-29T16:32:40Z</time>
      </trkpt>
      <trkpt lat="48.68186" lon="5.75258">
        <ele>265.4</ele>
        <time>2020-06-29T16:32:41Z</time>
      </trkpt>
      <trkpt lat="48.68184" lon="5.75257">
        <ele>265.5</ele>
        <time>2020-06-29T16:32:42Z</time>
      </trkpt>
      <trkpt lat="48.68181" lon="5.75254">
        <ele>265.7</ele>
        <time>2020-06-29T16:32:43Z</time>
      </trkpt>
      <trkpt lat="48.68178" lon="5.75251">
        <ele>265.9</ele>
        <time>2020-06-29T16:32:44Z</time>
      </trkpt>
      <trkpt lat="48.68176" lon="5.75246">
        <ele>266.1</ele>
        <time>2020-06-29T16:32:45Z</time>
      </trkpt>
      <trkpt lat="48.68175" lon="5.75244">
        <ele>266.2</ele>
        <time>2020-06-29T16:32:46Z</time>
      </trkpt>
      <trkpt lat="48.68173" lon="5.75241">
        <ele>266.3</ele>
        <time>2020-06-29T16:32:47Z</time>
      </trkpt>
      <trkpt lat="48.68171" lon="5.75237">
        <ele>266.5</ele>
        <time>2020-06-29T16:32:48Z</time>
      </trkpt>
      <trkpt lat="48.6817" lon="5.75234">
        <ele>266.7</ele>
        <time>2020-06-29T16:32:49Z</time>
      </trkpt>
      <trkpt lat="48.68169" lon="5.75233">
        <ele>266.7</ele>
        <time>2020-06-29T16:32:50Z</time>
      </trkpt>
      <trkpt lat="48.68165" lon="5.75228">
        <ele>267</ele>
        <time>2020-06-29T16:32:51Z</time>
      </trkpt>
      <trkpt lat="48.68163" lon="5.75225">
        <ele>267.2</ele>
        <time>2020-06-29T16:32:52Z</time>
      </trkpt>
      <trkpt lat="48.68161" lon="5.75222">
        <ele>267.3</ele>
        <time>2020-06-29T16:32:53Z</time>
      </trkpt>
      <trkpt lat="48.68158" lon="5.75219">
        <ele>267.6</ele>
        <time>2020-06-29T16:32:54Z</time>
      </trkpt>
      <trkpt lat="48.68155" lon="5.75215">
        <ele>267.8</ele>
        <time>2020-06-29T16:32:55Z</time>
      </trkpt>
      <trkpt lat="48.68154" lon="5.75214">
        <ele>267.8</ele>
        <time>2020-06-29T16:32:56Z</time>
      </trkpt>
      <trkpt lat="48.68152" lon="5.7521">
        <ele>268</ele>
        <time>2020-06-29T16:32:57Z</time>
      </trkpt>
      <trkpt lat="48.68149" lon="5.75206">
        <ele>268.2</ele>
        <time>2020-06-29T16:32:58Z</time>
      </trkpt>
      <trkpt lat="48.68147" lon="5.75205">
        <ele>268.3</ele>
        <time>2020-06-29T16:32:59Z</time>
      </trkpt>
      <trkpt lat="48.68145" lon="5.75201">
        <ele>268.5</ele>
        <time>2020-06-29T16:33:00Z</time>
      </trkpt>
      <trkpt lat="48.68142" lon="5.75197">
        <ele>268.7</ele>
        <time>2020-06-29T16:33:01Z</time>
      </trkpt>
      <trkpt lat="48.68139" lon="5.75193">
        <ele>268.9</ele>
        <time>2020-06-29T16:33:02Z</time>
      </trkpt>
      <trkpt lat="48.68137" lon="5.75191">
        <ele>269</ele>
        <time>2020-06-29T16:33:03Z</time>
      </trkpt>
      <trkpt lat="48.68134" lon="5.75187">
        <ele>269.2</ele>
        <time>2020-06-29T16:33:04Z</time>
      </trkpt>
      <trkpt lat="48.68133" lon="5.75186">
        <ele>269.3</ele>
        <time>2020-06-29T16:33:05Z</time>
      </trkpt>
      <trkpt lat="48.68131" lon="5.75184">
        <ele>269.4</ele>
        <time>2020-06-29T16:33:06Z</time>
      </trkpt>
      <trkpt lat="48.6813" lon="5.75182">
        <ele>269.5</ele>
        <time>2020-06-29T16:33:07Z</time>
      </trkpt>
      <trkpt lat="48.68128" lon="5.75179">
        <ele>269.7</ele>
        <time>2020-06-29T16:33:08Z</time>
      </trkpt>
      <trkpt lat="48.68125" lon="5.75175">
        <ele>269.9</ele>
        <time>2020-06-29T16:33:09Z</time>
      </trkpt>
      <trkpt lat="48.68123" lon="5.75173">
        <ele>269.9</ele>
        <time>2020-06-29T16:33:10Z</time>
      </trkpt>
      <trkpt lat="48.6812" lon="5.7517">
        <ele>270.2</ele>
        <time>2020-06-29T16:33:11Z</time>
      </trkpt>
      <trkpt lat="48.68118" lon="5.75169">
        <ele>270.3</ele>
        <time>2020-06-29T16:33:12Z</time>
      </trkpt>
      <trkpt lat="48.68115" lon="5.75164">
        <ele>270.5</ele>
        <time>2020-06-29T16:33:13Z</time>
      </trkpt>
      <trkpt lat="48.68114" lon="5.75162">
        <ele>270.6</ele>
        <time>2020-06-29T16:33:14Z</time>
      </trkpt>
      <trkpt lat="48.68111" lon="5.75159">
        <ele>270.8</ele>
        <time>2020-06-29T16:33:15Z</time>
      </trkpt>
      <trkpt lat="48.68109" lon="5.75156">
        <ele>270.9</ele>
        <time>2020-06-29T16:33:16Z</time>
      </trkpt>
      <trkpt lat="48.68108" lon="5.75154">
        <ele>271</ele>
        <time>2020-06-29T16:33:17Z</time>
      </trkpt>
      <trkpt lat="48.68104" lon="5.75151">
        <ele>271.2</ele>
        <time>2020-06-29T16:33:18Z</time>
      </trkpt>
      <trkpt lat="48.68101" lon="5.75148">
        <ele>271.4</ele>
        <time>2020-06-29T16:33:19Z</time>
      </trkpt>
      <trkpt lat="48.68097" lon="5.75144">
        <ele>271.6</ele>
        <time>2020-06-29T16:33:20Z</time>
      </trkpt>
      <trkpt lat="48.68095" lon="5.75142">
        <ele>271.8</ele>
        <time>2020-06-29T16:33:21Z</time>
      </trkpt>
      <trkpt lat="48.68092" lon="5.75139">
        <ele>272</ele>
        <time>2020-06-29T16:33:22Z</time>
      </trkpt>
      <trkpt lat="48.6809" lon="5.75136">
        <ele>272.1</ele>
        <time>2020-06-29T16:33:23Z</time>
      </trkpt>
      <trkpt lat="48.68087" lon="5.75133">
        <ele>272.3</ele>
        <time>2020-06-29T16:33:24Z</time>
      </trkpt>
      <trkpt lat="48.68084" lon="5.75131">
        <ele>272.4</ele>
        <time>2020-06-29T16:33:25Z</time>
      </trkpt>
      <trkpt lat="48.68082" lon="5.75127">
        <ele>272.6</ele>
        <time>2020-06-29T16:33:26Z</time>
      </trkpt>
      <trkpt lat="48.6808" lon="5.75126">
        <ele>272.7</ele>
        <time>2020-06-29T16:33:27Z</time>
      </trkpt>
      <trkpt lat="48.68078" lon="5.75122">
        <ele>272.9</ele>
        <time>2020-06-29T16:33:28Z</time>
      </trkpt>
      <trkpt lat="48.68077" lon="5.7512">
        <ele>273</ele>
        <time>2020-06-29T16:33:29Z</time>
      </trkpt>
      <trkpt lat="48.68074" lon="5.75116">
        <ele>273.2</ele>
        <time>2020-06-29T16:33:30Z</time>
      </trkpt>
      <trkpt lat="48.68073" lon="5.75115">
        <ele>273.4</ele>
        <time>2020-06-29T16:33:31Z</time>
      </trkpt>
      <trkpt lat="48.6807" lon="5.7511">
        <ele>273.6</ele>
        <time>2020-06-29T16:33:32Z</time>
      </trkpt>
      <trkpt lat="48.68068" lon="5.75109">
        <ele>273.7</ele>
        <time>2020-06-29T16:33:33Z</time>
      </trkpt>
      <trkpt lat="48.68065" lon="5.75106">
        <ele>273.9</ele>
        <time>2020-06-29T16:33:34Z</time>
      </trkpt>
      <trkpt lat="48.68064" lon="5.75105">
        <ele>274</ele>
        <time>2020-06-29T16:33:35Z</time>
      </trkpt>
      <trkpt lat="48.68061" lon="5.75102">
        <ele>274.1</ele>
        <time>2020-06-29T16:33:36Z</time>
      </trkpt>
      <trkpt lat="48.68059" lon="5.75099">
        <ele>274.3</ele>
        <time>2020-06-29T16:33:37Z</time>
      </trkpt>
      <trkpt lat="48.68056" lon="5.75097">
        <ele>274.5</ele>
        <time>2020-06-29T16:33:38Z</time>
      </trkpt>
      <trkpt lat="48.68054" lon="5.75094">
        <ele>274.6</ele>
        <time>2020-06-29T16:33:39Z</time>
      </trkpt>
      <trkpt lat="48.68052" lon="5.75091">
        <ele>274.7</ele>
        <time>2020-06-29T16:33:40Z</time>
      </trkpt>
      <trkpt lat="48.68051" lon="5.7509">
        <ele>274.8</ele>
        <time>2020-06-29T16:33:41Z</time>
      </trkpt>
      <trkpt lat="48.68049" lon="5.75087">
        <ele>274.9</ele>
        <time>2020-06-29T16:33:42Z</time>
      </trkpt>
      <trkpt lat="48.68046" lon="5.75084">
        <ele>275.1</ele>
        <time>2020-06-29T16:33:43Z</time>
      </trkpt>
      <trkpt lat="48.68045" lon="5.75082">
        <ele>275.2</ele>
        <time>2020-06-29T16:33:44Z</time>
      </trkpt>
      <trkpt lat="48.68043" lon="5.7508">
        <ele>275.3</ele>
        <time>2020-06-29T16:33:45Z</time>
      </trkpt>
      <trkpt lat="48.68041" lon="5.75074">
        <ele>275.6</ele>
        <time>2020-06-29T16:33:46Z</time>
      </trkpt>
      <trkpt lat="48.6804" lon="5.75072">
        <ele>275.7</ele>
        <time>2020-06-29T16:33:47Z</time>
      </trkpt>
      <trkpt lat="48.68038" lon="5.75063">
        <ele>276</ele>
        <time>2020-06-29T16:33:48Z</time>
      </trkpt>
      <trkpt lat="48.68036" lon="5.75056">
        <ele>276.3</ele>
        <time>2020-06-29T16:33:49Z</time>
      </trkpt>
      <trkpt lat="48.68035" lon="5.7505">
        <ele>276.5</ele>
        <time>2020-06-29T16:33:50Z</time>
      </trkpt>
      <trkpt lat="48.68035" lon="5.75049">
        <ele>276.5</ele>
        <time>2020-06-29T16:33:51Z</time>
      </trkpt>
      <trkpt lat="48.68034" lon="5.75043">
        <ele>276.7</ele>
        <time>2020-06-29T16:33:52Z</time>
      </trkpt>
      <trkpt lat="48.68034" lon="5.75036">
        <ele>277</ele>
        <time>2020-06-29T16:33:53Z</time>
      </trkpt>
      <trkpt lat="48.68033" lon="5.75032">
        <ele>277.1</ele>
        <time>2020-06-29T16:33:54Z</time>
      </trkpt>
      <trkpt lat="48.68034" lon="5.75026">
        <ele>277.3</ele>
        <time>2020-06-29T16:33:55Z</time>
      </trkpt>
      <trkpt lat="48.68034" lon="5.75024">
        <ele>277.5</ele>
        <time>2020-06-29T16:33:56Z</time>
      </trkpt>
      <trkpt lat="48.68035" lon="5.75018">
        <ele>277.7</ele>
        <time>2020-06-29T16:33:57Z</time>
      </trkpt>
      <trkpt lat="48.68035" lon="5.75014">
        <ele>277.8</ele>
        <time>2020-06-29T16:33:58Z</time>
      </trkpt>
      <trkpt lat="48.68035" lon="5.7501">
        <ele>277.9</ele>
        <time>2020-06-29T16:33:59Z</time>
      </trkpt>
      <trkpt lat="48.68036" lon="5.75009">
        <ele>277.9</ele>
        <time>2020-06-29T16:34:00Z</time>
      </trkpt>
      <trkpt lat="48.68037" lon="5.75003">
        <ele>278.1</ele>
        <time>2020-06-29T16:34:01Z</time>
      </trkpt>
      <trkpt lat="48.68038" lon="5.74999">
        <ele>278.2</ele>
        <time>2020-06-29T16:34:02Z</time>
      </trkpt>
      <trkpt lat="48.6804" lon="5.74995">
        <ele>278.3</ele>
        <time>2020-06-29T16:34:03Z</time>
      </trkpt>
      <trkpt lat="48.68042" lon="5.74992">
        <ele>278.4</ele>
        <time>2020-06-29T16:34:04Z</time>
      </trkpt>
      <trkpt lat="48.68044" lon="5.74988">
        <ele>278.5</ele>
        <time>2020-06-29T16:34:05Z</time>
      </trkpt>
      <trkpt lat="48.68046" lon="5.74986">
        <ele>278.6</ele>
        <time>2020-06-29T16:34:06Z</time>
      </trkpt>
      <trkpt lat="48.68047" lon="5.74984">
        <ele>278.7</ele>
        <time>2020-06-29T16:34:07Z</time>
      </trkpt>
      <trkpt lat="48.68049" lon="5.74979">
        <ele>278.9</ele>
        <time>2020-06-29T16:34:08Z</time>
      </trkpt>
      <trkpt lat="48.68051" lon="5.74976">
        <ele>279</ele>
        <time>2020-06-29T16:34:09Z</time>
      </trkpt>
      <trkpt lat="48.68054" lon="5.74973">
        <ele>279.1</ele>
        <time>2020-06-29T16:34:10Z</time>
      </trkpt>
      <trkpt lat="48.68057" lon="5.7497">
        <ele>279.3</ele>
        <time>2020-06-29T16:34:11Z</time>
      </trkpt>
      <trkpt lat="48.68059" lon="5.74969">
        <ele>279.3</ele>
        <time>2020-06-29T16:34:12Z</time>
      </trkpt>
      <trkpt lat="48.68062" lon="5.74968">
        <ele>279.5</ele>
        <time>2020-06-29T16:34:13Z</time>
      </trkpt>
      <trkpt lat="48.68063" lon="5.74967">
        <ele>279.6</ele>
        <time>2020-06-29T16:34:14Z</time>
      </trkpt>
      <trkpt lat="48.68066" lon="5.74964">
        <ele>279.7</ele>
        <time>2020-06-29T16:34:15Z</time>
      </trkpt>
      <trkpt lat="48.68068" lon="5.74962">
        <ele>279.9</ele>
        <time>2020-06-29T16:34:16Z</time>
      </trkpt>
      <trkpt lat="48.68072" lon="5.74959">
        <ele>280.1</ele>
        <time>2020-06-29T16:34:17Z</time>
      </trkpt>
      <trkpt lat="48.68074" lon="5.74958">
        <ele>280.1</ele>
        <time>2020-06-29T16:34:18Z</time>
      </trkpt>
      <trkpt lat="48.68077" lon="5.74956">
        <ele>280.3</ele>
        <time>2020-06-29T16:34:19Z</time>
      </trkpt>
      <trkpt lat="48.6808" lon="5.74954">
        <ele>280.4</ele>
        <time>2020-06-29T16:34:20Z</time>
      </trkpt>
      <trkpt lat="48.68083" lon="5.74951">
        <ele>280.5</ele>
        <time>2020-06-29T16:34:21Z</time>
      </trkpt>
      <trkpt lat="48.68085" lon="5.7495">
        <ele>280.6</ele>
        <time>2020-06-29T16:34:22Z</time>
      </trkpt>
      <trkpt lat="48.68088" lon="5.74948">
        <ele>280.7</ele>
        <time>2020-06-29T16:34:23Z</time>
      </trkpt>
      <trkpt lat="48.68092" lon="5.74946">
        <ele>280.9</ele>
        <time>2020-06-29T16:34:24Z</time>
      </trkpt>
      <trkpt lat="48.68093" lon="5.74946">
        <ele>280.9</ele>
        <time>2020-06-29T16:34:25Z</time>
      </trkpt>
      <trkpt lat="48.68097" lon="5.74943">
        <ele>281.1</ele>
        <time>2020-06-29T16:34:26Z</time>
      </trkpt>
      <trkpt lat="48.68099" lon="5.74942">
        <ele>281.2</ele>
        <time>2020-06-29T16:34:27Z</time>
      </trkpt>
      <trkpt lat="48.68102" lon="5.7494">
        <ele>281.3</ele>
        <time>2020-06-29T16:34:28Z</time>
      </trkpt>
      <trkpt lat="48.68105" lon="5.74938">
        <ele>281.4</ele>
        <time>2020-06-29T16:34:29Z</time>
      </trkpt>
      <trkpt lat="48.68106" lon="5.74937">
        <ele>281.4</ele>
        <time>2020-06-29T16:34:30Z</time>
      </trkpt>
      <trkpt lat="48.68109" lon="5.74935">
        <ele>281.5</ele>
        <time>2020-06-29T16:34:31Z</time>
      </trkpt>
      <trkpt lat="48.68113" lon="5.74933">
        <ele>281.6</ele>
        <time>2020-06-29T16:34:32Z</time>
      </trkpt>
      <trkpt lat="48.68115" lon="5.74932">
        <ele>281.7</ele>
        <time>2020-06-29T16:34:33Z</time>
      </trkpt>
      <trkpt lat="48.68119" lon="5.74929">
        <ele>281.8</ele>
        <time>2020-06-29T16:34:34Z</time>
      </trkpt>
      <trkpt lat="48.68121" lon="5.74928">
        <ele>281.8</ele>
        <time>2020-06-29T16:34:35Z</time>
      </trkpt>
      <trkpt lat="48.68123" lon="5.74926">
        <ele>281.9</ele>
        <time>2020-06-29T16:34:36Z</time>
      </trkpt>
      <trkpt lat="48.68127" lon="5.74924">
        <ele>282</ele>
        <time>2020-06-29T16:34:37Z</time>
      </trkpt>
      <trkpt lat="48.6813" lon="5.74922">
        <ele>282.1</ele>
        <time>2020-06-29T16:34:38Z</time>
      </trkpt>
      <trkpt lat="48.68135" lon="5.74919">
        <ele>282.2</ele>
        <time>2020-06-29T16:34:39Z</time>
      </trkpt>
      <trkpt lat="48.68138" lon="5.74916">
        <ele>282.3</ele>
        <time>2020-06-29T16:34:40Z</time>
      </trkpt>
      <trkpt lat="48.68141" lon="5.74914">
        <ele>282.3</ele>
        <time>2020-06-29T16:34:41Z</time>
      </trkpt>
      <trkpt lat="48.68145" lon="5.74912">
        <ele>282.4</ele>
        <time>2020-06-29T16:34:42Z</time>
      </trkpt>
      <trkpt lat="48.68149" lon="5.74909">
        <ele>282.4</ele>
        <time>2020-06-29T16:34:43Z</time>
      </trkpt>
      <trkpt lat="48.68151" lon="5.74906">
        <ele>282.5</ele>
        <time>2020-06-29T16:34:44Z</time>
      </trkpt>
      <trkpt lat="48.68155" lon="5.74904">
        <ele>282.5</ele>
        <time>2020-06-29T16:34:45Z</time>
      </trkpt>
      <trkpt lat="48.68159" lon="5.74901">
        <ele>282.5</ele>
        <time>2020-06-29T16:34:46Z</time>
      </trkpt>
      <trkpt lat="48.68163" lon="5.74897">
        <ele>282.5</ele>
        <time>2020-06-29T16:34:47Z</time>
      </trkpt>
      <trkpt lat="48.68165" lon="5.74894">
        <ele>282.6</ele>
        <time>2020-06-29T16:34:48Z</time>
      </trkpt>
      <trkpt lat="48.68167" lon="5.7489">
        <ele>282.6</ele>
        <time>2020-06-29T16:34:49Z</time>
      </trkpt>
      <trkpt lat="48.68169" lon="5.74886">
        <ele>282.6</ele>
        <time>2020-06-29T16:34:50Z</time>
      </trkpt>
      <trkpt lat="48.68171" lon="5.74882">
        <ele>282.5</ele>
        <time>2020-06-29T16:34:51Z</time>
      </trkpt>
      <trkpt lat="48.68174" lon="5.74879">
        <ele>282.5</ele>
        <time>2020-06-29T16:34:52Z</time>
      </trkpt>
      <trkpt lat="48.68177" lon="5.74872">
        <ele>282.5</ele>
        <time>2020-06-29T16:34:53Z</time>
      </trkpt>
      <trkpt lat="48.68179" lon="5.74868">
        <ele>282.5</ele>
        <time>2020-06-29T16:34:54Z</time>
      </trkpt>
      <trkpt lat="48.68181" lon="5.74864">
        <ele>282.4</ele>
        <time>2020-06-29T16:34:55Z</time>
      </trkpt>
      <trkpt lat="48.68184" lon="5.74859">
        <ele>282.4</ele>
        <time>2020-06-29T16:34:56Z</time>
      </trkpt>
      <trkpt lat="48.68186" lon="5.74855">
        <ele>282.4</ele>
        <time>2020-06-29T16:34:57Z</time>
      </trkpt>
      <trkpt lat="48.68188" lon="5.7485">
        <ele>282.3</ele>
        <time>2020-06-29T16:34:58Z</time>
      </trkpt>
      <trkpt lat="48.68191" lon="5.74843">
        <ele>282.2</ele>
        <time>2020-06-29T16:34:59Z</time>
      </trkpt>
      <trkpt lat="48.68193" lon="5.74837">
        <ele>282.1</ele>
        <time>2020-06-29T16:35:00Z</time>
      </trkpt>
      <trkpt lat="48.68195" lon="5.74833">
        <ele>282.1</ele>
        <time>2020-06-29T16:35:01Z</time>
      </trkpt>
      <trkpt lat="48.68197" lon="5.74826">
        <ele>282</ele>
        <time>2020-06-29T16:35:02Z</time>
      </trkpt>
      <trkpt lat="48.68199" lon="5.7482">
        <ele>281.8</ele>
        <time>2020-06-29T16:35:03Z</time>
      </trkpt>
      <trkpt lat="48.682" lon="5.74812">
        <ele>281.7</ele>
        <time>2020-06-29T16:35:04Z</time>
      </trkpt>
      <trkpt lat="48.68201" lon="5.74805">
        <ele>281.6</ele>
        <time>2020-06-29T16:35:05Z</time>
      </trkpt>
      <trkpt lat="48.68202" lon="5.74798">
        <ele>281.4</ele>
        <time>2020-06-29T16:35:06Z</time>
      </trkpt>
      <trkpt lat="48.68203" lon="5.7479">
        <ele>281.3</ele>
        <time>2020-06-29T16:35:07Z</time>
      </trkpt>
      <trkpt lat="48.68204" lon="5.74783">
        <ele>281.1</ele>
        <time>2020-06-29T16:35:08Z</time>
      </trkpt>
      <trkpt lat="48.68205" lon="5.74773">
        <ele>280.9</ele>
        <time>2020-06-29T16:35:09Z</time>
      </trkpt>
      <trkpt lat="48.68207" lon="5.74764">
        <ele>280.7</ele>
        <time>2020-06-29T16:35:10Z</time>
      </trkpt>
      <trkpt lat="48.68208" lon="5.74753">
        <ele>280.5</ele>
        <time>2020-06-29T16:35:11Z</time>
      </trkpt>
      <trkpt lat="48.68209" lon="5.74746">
        <ele>280.3</ele>
        <time>2020-06-29T16:35:12Z</time>
      </trkpt>
      <trkpt lat="48.6821" lon="5.74735">
        <ele>280</ele>
        <time>2020-06-29T16:35:13Z</time>
      </trkpt>
      <trkpt lat="48.68211" lon="5.74726">
        <ele>279.8</ele>
        <time>2020-06-29T16:35:14Z</time>
      </trkpt>
      <trkpt lat="48.68212" lon="5.74718">
        <ele>279.6</ele>
        <time>2020-06-29T16:35:15Z</time>
      </trkpt>
      <trkpt lat="48.68213" lon="5.7471">
        <ele>279.4</ele>
        <time>2020-06-29T16:35:16Z</time>
      </trkpt>
      <trkpt lat="48.68214" lon="5.74701">
        <ele>279.2</ele>
        <time>2020-06-29T16:35:17Z</time>
      </trkpt>
      <trkpt lat="48.68215" lon="5.74692">
        <ele>279</ele>
        <time>2020-06-29T16:35:18Z</time>
      </trkpt>
      <trkpt lat="48.68216" lon="5.74685">
        <ele>278.8</ele>
        <time>2020-06-29T16:35:19Z</time>
      </trkpt>
      <trkpt lat="48.68217" lon="5.74678">
        <ele>278.6</ele>
        <time>2020-06-29T16:35:20Z</time>
      </trkpt>
      <trkpt lat="48.68218" lon="5.74667">
        <ele>278.4</ele>
        <time>2020-06-29T16:35:21Z</time>
      </trkpt>
      <trkpt lat="48.68219" lon="5.74659">
        <ele>278.2</ele>
        <time>2020-06-29T16:35:22Z</time>
      </trkpt>
      <trkpt lat="48.6822" lon="5.74649">
        <ele>278</ele>
        <time>2020-06-29T16:35:23Z</time>
      </trkpt>
      <trkpt lat="48.6822" lon="5.74642">
        <ele>277.9</ele>
        <time>2020-06-29T16:35:24Z</time>
      </trkpt>
      <trkpt lat="48.6822" lon="5.74634">
        <ele>277.7</ele>
        <time>2020-06-29T16:35:25Z</time>
      </trkpt>
      <trkpt lat="48.68221" lon="5.74627">
        <ele>277.6</ele>
        <time>2020-06-29T16:35:26Z</time>
      </trkpt>
      <trkpt lat="48.68222" lon="5.7462">
        <ele>277.5</ele>
        <time>2020-06-29T16:35:27Z</time>
      </trkpt>
      <trkpt lat="48.68223" lon="5.74613">
        <ele>277.5</ele>
        <time>2020-06-29T16:35:28Z</time>
      </trkpt>
      <trkpt lat="48.68223" lon="5.74604">
        <ele>277.3</ele>
        <time>2020-06-29T16:35:29Z</time>
      </trkpt>
      <trkpt lat="48.68225" lon="5.74595">
        <ele>277.2</ele>
        <time>2020-06-29T16:35:30Z</time>
      </trkpt>
      <trkpt lat="48.68226" lon="5.74586">
        <ele>277.1</ele>
        <time>2020-06-29T16:35:31Z</time>
      </trkpt>
      <trkpt lat="48.68227" lon="5.74578">
        <ele>276.9</ele>
        <time>2020-06-29T16:35:32Z</time>
      </trkpt>
      <trkpt lat="48.68227" lon="5.7457">
        <ele>276.8</ele>
        <time>2020-06-29T16:35:33Z</time>
      </trkpt>
      <trkpt lat="48.68229" lon="5.74561">
        <ele>276.7</ele>
        <time>2020-06-29T16:35:34Z</time>
      </trkpt>
      <trkpt lat="48.6823" lon="5.74554">
        <ele>276.6</ele>
        <time>2020-06-29T16:35:35Z</time>
      </trkpt>
      <trkpt lat="48.68231" lon="5.74544">
        <ele>276.4</ele>
        <time>2020-06-29T16:35:36Z</time>
      </trkpt>
      <trkpt lat="48.68232" lon="5.74535">
        <ele>276.3</ele>
        <time>2020-06-29T16:35:37Z</time>
      </trkpt>
      <trkpt lat="48.68233" lon="5.74526">
        <ele>276.1</ele>
        <time>2020-06-29T16:35:38Z</time>
      </trkpt>
      <trkpt lat="48.68234" lon="5.74517">
        <ele>275.9</ele>
        <time>2020-06-29T16:35:39Z</time>
      </trkpt>
      <trkpt lat="48.68235" lon="5.74509">
        <ele>275.8</ele>
        <time>2020-06-29T16:35:40Z</time>
      </trkpt>
      <trkpt lat="48.68236" lon="5.74501">
        <ele>275.7</ele>
        <time>2020-06-29T16:35:41Z</time>
      </trkpt>
      <trkpt lat="48.68236" lon="5.74493">
        <ele>275.5</ele>
        <time>2020-06-29T16:35:42Z</time>
      </trkpt>
      <trkpt lat="48.68237" lon="5.74485">
        <ele>275.4</ele>
        <time>2020-06-29T16:35:43Z</time>
      </trkpt>
      <trkpt lat="48.68239" lon="5.74477">
        <ele>275.3</ele>
        <time>2020-06-29T16:35:44Z</time>
      </trkpt>
      <trkpt lat="48.6824" lon="5.7447">
        <ele>275.2</ele>
        <time>2020-06-29T16:35:45Z</time>
      </trkpt>
      <trkpt lat="48.68241" lon="5.74461">
        <ele>275.1</ele>
        <time>2020-06-29T16:35:46Z</time>
      </trkpt>
      <trkpt lat="48.68242" lon="5.74452">
        <ele>274.9</ele>
        <time>2020-06-29T16:35:47Z</time>
      </trkpt>
      <trkpt lat="48.68243" lon="5.74443">
        <ele>274.8</ele>
        <time>2020-06-29T16:35:48Z</time>
      </trkpt>
      <trkpt lat="48.68244" lon="5.74435">
        <ele>274.6</ele>
        <time>2020-06-29T16:35:49Z</time>
      </trkpt>
      <trkpt lat="48.68245" lon="5.74427">
        <ele>274.5</ele>
        <time>2020-06-29T16:35:50Z</time>
      </trkpt>
      <trkpt lat="48.68246" lon="5.74419">
        <ele>274.3</ele>
        <time>2020-06-29T16:35:51Z</time>
      </trkpt>
      <trkpt lat="48.68247" lon="5.74412">
        <ele>274.2</ele>
        <time>2020-06-29T16:35:52Z</time>
      </trkpt>
      <trkpt lat="48.68248" lon="5.74404">
        <ele>274</ele>
        <time>2020-06-29T16:35:53Z</time>
      </trkpt>
      <trkpt lat="48.68249" lon="5.74396">
        <ele>273.8</ele>
        <time>2020-06-29T16:35:54Z</time>
      </trkpt>
      <trkpt lat="48.6825" lon="5.74388">
        <ele>273.6</ele>
        <time>2020-06-29T16:35:55Z</time>
      </trkpt>
      <trkpt lat="48.68251" lon="5.74381">
        <ele>273.5</ele>
        <time>2020-06-29T16:35:56Z</time>
      </trkpt>
      <trkpt lat="48.68252" lon="5.7437">
        <ele>273.3</ele>
        <time>2020-06-29T16:35:57Z</time>
      </trkpt>
      <trkpt lat="48.68253" lon="5.74361">
        <ele>273.2</ele>
        <time>2020-06-29T16:35:58Z</time>
      </trkpt>
      <trkpt lat="48.68254" lon="5.74353">
        <ele>273.1</ele>
        <time>2020-06-29T16:35:59Z</time>
      </trkpt>
      <trkpt lat="48.68254" lon="5.74345">
        <ele>273</ele>
        <time>2020-06-29T16:36:00Z</time>
      </trkpt>
      <trkpt lat="48.68254" lon="5.74338">
        <ele>272.9</ele>
        <time>2020-06-29T16:36:01Z</time>
      </trkpt>
      <trkpt lat="48.68255" lon="5.7433">
        <ele>272.8</ele>
        <time>2020-06-29T16:36:02Z</time>
      </trkpt>
      <trkpt lat="48.68256" lon="5.74322">
        <ele>272.6</ele>
        <time>2020-06-29T16:36:03Z</time>
      </trkpt>
      <trkpt lat="48.68257" lon="5.74314">
        <ele>272.5</ele>
        <time>2020-06-29T16:36:04Z</time>
      </trkpt>
      <trkpt lat="48.68258" lon="5.74306">
        <ele>272.4</ele>
        <time>2020-06-29T16:36:05Z</time>
      </trkpt>
      <trkpt lat="48.68259" lon="5.74298">
        <ele>272.3</ele>
        <time>2020-06-29T16:36:06Z</time>
      </trkpt>
      <trkpt lat="48.68261" lon="5.74289">
        <ele>272.1</ele>
        <time>2020-06-29T16:36:07Z</time>
      </trkpt>
      <trkpt lat="48.68262" lon="5.74281">
        <ele>272</ele>
        <time>2020-06-29T16:36:08Z</time>
      </trkpt>
      <trkpt lat="48.68263" lon="5.74272">
        <ele>271.9</ele>
        <time>2020-06-29T16:36:09Z</time>
      </trkpt>
      <trkpt lat="48.68264" lon="5.74265">
        <ele>271.8</ele>
        <time>2020-06-29T16:36:10Z</time>
      </trkpt>
      <trkpt lat="48.68264" lon="5.74258">
        <ele>271.7</ele>
        <time>2020-06-29T16:36:11Z</time>
      </trkpt>
      <trkpt lat="48.68265" lon="5.74251">
        <ele>271.7</ele>
        <time>2020-06-29T16:36:12Z</time>
      </trkpt>
      <trkpt lat="48.68266" lon="5.74244">
        <ele>271.6</ele>
        <time>2020-06-29T16:36:13Z</time>
      </trkpt>
      <trkpt lat="48.68267" lon="5.74239">
        <ele>271.5</ele>
        <time>2020-06-29T16:36:14Z</time>
      </trkpt>
      <trkpt lat="48.68267" lon="5.7423">
        <ele>271.4</ele>
        <time>2020-06-29T16:36:15Z</time>
      </trkpt>
      <trkpt lat="48.68268" lon="5.74222">
        <ele>271.4</ele>
        <time>2020-06-29T16:36:16Z</time>
      </trkpt>
      <trkpt lat="48.68269" lon="5.74215">
        <ele>271.3</ele>
        <time>2020-06-29T16:36:17Z</time>
      </trkpt>
      <trkpt lat="48.6827" lon="5.74207">
        <ele>271.2</ele>
        <time>2020-06-29T16:36:18Z</time>
      </trkpt>
      <trkpt lat="48.68272" lon="5.74201">
        <ele>271.1</ele>
        <time>2020-06-29T16:36:19Z</time>
      </trkpt>
      <trkpt lat="48.68273" lon="5.74194">
        <ele>270.9</ele>
        <time>2020-06-29T16:36:20Z</time>
      </trkpt>
      <trkpt lat="48.68275" lon="5.74186">
        <ele>270.8</ele>
        <time>2020-06-29T16:36:21Z</time>
      </trkpt>
      <trkpt lat="48.68276" lon="5.74178">
        <ele>270.6</ele>
        <time>2020-06-29T16:36:22Z</time>
      </trkpt>
      <trkpt lat="48.68276" lon="5.74171">
        <ele>270.6</ele>
        <time>2020-06-29T16:36:23Z</time>
      </trkpt>
      <trkpt lat="48.68277" lon="5.74163">
        <ele>270.5</ele>
        <time>2020-06-29T16:36:24Z</time>
      </trkpt>
      <trkpt lat="48.68278" lon="5.74155">
        <ele>270.3</ele>
        <time>2020-06-29T16:36:25Z</time>
      </trkpt>
      <trkpt lat="48.68279" lon="5.74146">
        <ele>270.1</ele>
        <time>2020-06-29T16:36:26Z</time>
      </trkpt>
      <trkpt lat="48.68281" lon="5.74137">
        <ele>269.9</ele>
        <time>2020-06-29T16:36:27Z</time>
      </trkpt>
      <trkpt lat="48.68282" lon="5.74128">
        <ele>269.7</ele>
        <time>2020-06-29T16:36:28Z</time>
      </trkpt>
      <trkpt lat="48.68283" lon="5.74121">
        <ele>269.6</ele>
        <time>2020-06-29T16:36:29Z</time>
      </trkpt>
      <trkpt lat="48.68284" lon="5.74114">
        <ele>269.5</ele>
        <time>2020-06-29T16:36:30Z</time>
      </trkpt>
      <trkpt lat="48.68285" lon="5.74105">
        <ele>269.3</ele>
        <time>2020-06-29T16:36:31Z</time>
      </trkpt>
      <trkpt lat="48.68286" lon="5.74097">
        <ele>269.2</ele>
        <time>2020-06-29T16:36:32Z</time>
      </trkpt>
      <trkpt lat="48.68286" lon="5.7409">
        <ele>269.1</ele>
        <time>2020-06-29T16:36:33Z</time>
      </trkpt>
      <trkpt lat="48.68288" lon="5.74083">
        <ele>269</ele>
        <time>2020-06-29T16:36:34Z</time>
      </trkpt>
      <trkpt lat="48.68289" lon="5.74073">
        <ele>268.8</ele>
        <time>2020-06-29T16:36:35Z</time>
      </trkpt>
      <trkpt lat="48.6829" lon="5.74064">
        <ele>268.7</ele>
        <time>2020-06-29T16:36:36Z</time>
      </trkpt>
      <trkpt lat="48.68291" lon="5.74056">
        <ele>268.5</ele>
        <time>2020-06-29T16:36:37Z</time>
      </trkpt>
      <trkpt lat="48.68292" lon="5.74049">
        <ele>268.4</ele>
        <time>2020-06-29T16:36:38Z</time>
      </trkpt>
      <trkpt lat="48.68293" lon="5.74041">
        <ele>268.2</ele>
        <time>2020-06-29T16:36:39Z</time>
      </trkpt>
      <trkpt lat="48.68294" lon="5.74033">
        <ele>268.1</ele>
        <time>2020-06-29T16:36:40Z</time>
      </trkpt>
      <trkpt lat="48.68295" lon="5.74024">
        <ele>267.9</ele>
        <time>2020-06-29T16:36:41Z</time>
      </trkpt>
      <trkpt lat="48.68296" lon="5.74016">
        <ele>267.7</ele>
        <time>2020-06-29T16:36:42Z</time>
      </trkpt>
      <trkpt lat="48.68297" lon="5.74011">
        <ele>267.6</ele>
        <time>2020-06-29T16:36:43Z</time>
      </trkpt>
      <trkpt lat="48.68299" lon="5.74003">
        <ele>267.5</ele>
        <time>2020-06-29T16:36:44Z</time>
      </trkpt>
      <trkpt lat="48.683" lon="5.73995">
        <ele>267.4</ele>
        <time>2020-06-29T16:36:45Z</time>
      </trkpt>
      <trkpt lat="48.68301" lon="5.73986">
        <ele>267.2</ele>
        <time>2020-06-29T16:36:46Z</time>
      </trkpt>
      <trkpt lat="48.68302" lon="5.73978">
        <ele>267</ele>
        <time>2020-06-29T16:36:47Z</time>
      </trkpt>
      <trkpt lat="48.68303" lon="5.73969">
        <ele>266.9</ele>
        <time>2020-06-29T16:36:48Z</time>
      </trkpt>
      <trkpt lat="48.68304" lon="5.73961">
        <ele>266.7</ele>
        <time>2020-06-29T16:36:49Z</time>
      </trkpt>
      <trkpt lat="48.68305" lon="5.73953">
        <ele>266.6</ele>
        <time>2020-06-29T16:36:50Z</time>
      </trkpt>
      <trkpt lat="48.68307" lon="5.73945">
        <ele>266.4</ele>
        <time>2020-06-29T16:36:51Z</time>
      </trkpt>
      <trkpt lat="48.68308" lon="5.73936">
        <ele>266.2</ele>
        <time>2020-06-29T16:36:52Z</time>
      </trkpt>
      <trkpt lat="48.68309" lon="5.73926">
        <ele>266</ele>
        <time>2020-06-29T16:36:53Z</time>
      </trkpt>
      <trkpt lat="48.6831" lon="5.73918">
        <ele>265.9</ele>
        <time>2020-06-29T16:36:54Z</time>
      </trkpt>
      <trkpt lat="48.68312" lon="5.73909">
        <ele>265.7</ele>
        <time>2020-06-29T16:36:55Z</time>
      </trkpt>
      <trkpt lat="48.68313" lon="5.73901">
        <ele>265.5</ele>
        <time>2020-06-29T16:36:56Z</time>
      </trkpt>
      <trkpt lat="48.68314" lon="5.73892">
        <ele>265.3</ele>
        <time>2020-06-29T16:36:57Z</time>
      </trkpt>
      <trkpt lat="48.68316" lon="5.73883">
        <ele>265.2</ele>
        <time>2020-06-29T16:36:58Z</time>
      </trkpt>
      <trkpt lat="48.68316" lon="5.73875">
        <ele>265</ele>
        <time>2020-06-29T16:36:59Z</time>
      </trkpt>
      <trkpt lat="48.68317" lon="5.73867">
        <ele>264.8</ele>
        <time>2020-06-29T16:37:00Z</time>
      </trkpt>
      <trkpt lat="48.68318" lon="5.73858">
        <ele>264.6</ele>
        <time>2020-06-29T16:37:01Z</time>
      </trkpt>
      <trkpt lat="48.68319" lon="5.7385">
        <ele>264.5</ele>
        <time>2020-06-29T16:37:02Z</time>
      </trkpt>
      <trkpt lat="48.6832" lon="5.73842">
        <ele>264.3</ele>
        <time>2020-06-29T16:37:03Z</time>
      </trkpt>
      <trkpt lat="48.68321" lon="5.73833">
        <ele>264.2</ele>
        <time>2020-06-29T16:37:04Z</time>
      </trkpt>
      <trkpt lat="48.68321" lon="5.73824">
        <ele>263.9</ele>
        <time>2020-06-29T16:37:05Z</time>
      </trkpt>
      <trkpt lat="48.68323" lon="5.73817">
        <ele>263.8</ele>
        <time>2020-06-29T16:37:06Z</time>
      </trkpt>
      <trkpt lat="48.68324" lon="5.73809">
        <ele>263.6</ele>
        <time>2020-06-29T16:37:07Z</time>
      </trkpt>
      <trkpt lat="48.68324" lon="5.73799">
        <ele>263.4</ele>
        <time>2020-06-29T16:37:08Z</time>
      </trkpt>
      <trkpt lat="48.68325" lon="5.73789">
        <ele>263.2</ele>
        <time>2020-06-29T16:37:09Z</time>
      </trkpt>
      <trkpt lat="48.68326" lon="5.7378">
        <ele>263</ele>
        <time>2020-06-29T16:37:10Z</time>
      </trkpt>
      <trkpt lat="48.68327" lon="5.73771">
        <ele>262.9</ele>
        <time>2020-06-29T16:37:11Z</time>
      </trkpt>
      <trkpt lat="48.68328" lon="5.73762">
        <ele>262.7</ele>
        <time>2020-06-29T16:37:12Z</time>
      </trkpt>
      <trkpt lat="48.6833" lon="5.73753">
        <ele>262.5</ele>
        <time>2020-06-29T16:37:13Z</time>
      </trkpt>
      <trkpt lat="48.68331" lon="5.73743">
        <ele>262.3</ele>
        <time>2020-06-29T16:37:14Z</time>
      </trkpt>
      <trkpt lat="48.68333" lon="5.73733">
        <ele>262.1</ele>
        <time>2020-06-29T16:37:15Z</time>
      </trkpt>
      <trkpt lat="48.68334" lon="5.73724">
        <ele>261.9</ele>
        <time>2020-06-29T16:37:16Z</time>
      </trkpt>
      <trkpt lat="48.68334" lon="5.73717">
        <ele>261.8</ele>
        <time>2020-06-29T16:37:17Z</time>
      </trkpt>
      <trkpt lat="48.68335" lon="5.73709">
        <ele>261.6</ele>
        <time>2020-06-29T16:37:18Z</time>
      </trkpt>
      <trkpt lat="48.68337" lon="5.73699">
        <ele>261.4</ele>
        <time>2020-06-29T16:37:19Z</time>
      </trkpt>
      <trkpt lat="48.68338" lon="5.73692">
        <ele>261.3</ele>
        <time>2020-06-29T16:37:20Z</time>
      </trkpt>
      <trkpt lat="48.6834" lon="5.73682">
        <ele>261.1</ele>
        <time>2020-06-29T16:37:21Z</time>
      </trkpt>
      <trkpt lat="48.68341" lon="5.73673">
        <ele>260.9</ele>
        <time>2020-06-29T16:37:22Z</time>
      </trkpt>
      <trkpt lat="48.68343" lon="5.73664">
        <ele>260.6</ele>
        <time>2020-06-29T16:37:23Z</time>
      </trkpt>
      <trkpt lat="48.68345" lon="5.73655">
        <ele>260.4</ele>
        <time>2020-06-29T16:37:24Z</time>
      </trkpt>
      <trkpt lat="48.68347" lon="5.73646">
        <ele>260.2</ele>
        <time>2020-06-29T16:37:25Z</time>
      </trkpt>
      <trkpt lat="48.68348" lon="5.73636">
        <ele>260</ele>
        <time>2020-06-29T16:37:26Z</time>
      </trkpt>
      <trkpt lat="48.6835" lon="5.73626">
        <ele>259.8</ele>
        <time>2020-06-29T16:37:27Z</time>
      </trkpt>
      <trkpt lat="48.68351" lon="5.73616">
        <ele>259.5</ele>
        <time>2020-06-29T16:37:28Z</time>
      </trkpt>
      <trkpt lat="48.68352" lon="5.73606">
        <ele>259.3</ele>
        <time>2020-06-29T16:37:29Z</time>
      </trkpt>
      <trkpt lat="48.68354" lon="5.73596">
        <ele>259.1</ele>
        <time>2020-06-29T16:37:30Z</time>
      </trkpt>
      <trkpt lat="48.68355" lon="5.73589">
        <ele>258.9</ele>
        <time>2020-06-29T16:37:31Z</time>
      </trkpt>
      <trkpt lat="48.68355" lon="5.73581">
        <ele>258.7</ele>
        <time>2020-06-29T16:37:32Z</time>
      </trkpt>
      <trkpt lat="48.68356" lon="5.73571">
        <ele>258.5</ele>
        <time>2020-06-29T16:37:33Z</time>
      </trkpt>
      <trkpt lat="48.68357" lon="5.73562">
        <ele>258.2</ele>
        <time>2020-06-29T16:37:34Z</time>
      </trkpt>
      <trkpt lat="48.68358" lon="5.73553">
        <ele>258.1</ele>
        <time>2020-06-29T16:37:35Z</time>
      </trkpt>
      <trkpt lat="48.68359" lon="5.73544">
        <ele>258</ele>
        <time>2020-06-29T16:37:36Z</time>
      </trkpt>
      <trkpt lat="48.6836" lon="5.73534">
        <ele>257.9</ele>
        <time>2020-06-29T16:37:37Z</time>
      </trkpt>
      <trkpt lat="48.68361" lon="5.73525">
        <ele>257.7</ele>
        <time>2020-06-29T16:37:38Z</time>
      </trkpt>
      <trkpt lat="48.68362" lon="5.73515">
        <ele>257.5</ele>
        <time>2020-06-29T16:37:39Z</time>
      </trkpt>
      <trkpt lat="48.68363" lon="5.73506">
        <ele>257.2</ele>
        <time>2020-06-29T16:37:40Z</time>
      </trkpt>
      <trkpt lat="48.68364" lon="5.73495">
        <ele>256.9</ele>
        <time>2020-06-29T16:37:41Z</time>
      </trkpt>
      <trkpt lat="48.68366" lon="5.73484">
        <ele>256.6</ele>
        <time>2020-06-29T16:37:42Z</time>
      </trkpt>
      <trkpt lat="48.68367" lon="5.73473">
        <ele>256.2</ele>
        <time>2020-06-29T16:37:43Z</time>
      </trkpt>
      <trkpt lat="48.68369" lon="5.73463">
        <ele>255.9</ele>
        <time>2020-06-29T16:37:44Z</time>
      </trkpt>
      <trkpt lat="48.68371" lon="5.73452">
        <ele>255.6</ele>
        <time>2020-06-29T16:37:45Z</time>
      </trkpt>
      <trkpt lat="48.68373" lon="5.73441">
        <ele>255.2</ele>
        <time>2020-06-29T16:37:46Z</time>
      </trkpt>
      <trkpt lat="48.68374" lon="5.7343">
        <ele>254.9</ele>
        <time>2020-06-29T16:37:47Z</time>
      </trkpt>
      <trkpt lat="48.68376" lon="5.73419">
        <ele>254.5</ele>
        <time>2020-06-29T16:37:48Z</time>
      </trkpt>
      <trkpt lat="48.68377" lon="5.73408">
        <ele>254.2</ele>
        <time>2020-06-29T16:37:49Z</time>
      </trkpt>
      <trkpt lat="48.68379" lon="5.73397">
        <ele>253.8</ele>
        <time>2020-06-29T16:37:50Z</time>
      </trkpt>
      <trkpt lat="48.6838" lon="5.73386">
        <ele>253.5</ele>
        <time>2020-06-29T16:37:51Z</time>
      </trkpt>
      <trkpt lat="48.68382" lon="5.73376">
        <ele>253.1</ele>
        <time>2020-06-29T16:37:52Z</time>
      </trkpt>
      <trkpt lat="48.68384" lon="5.73365">
        <ele>252.7</ele>
        <time>2020-06-29T16:37:53Z</time>
      </trkpt>
      <trkpt lat="48.68386" lon="5.73354">
        <ele>252.4</ele>
        <time>2020-06-29T16:37:54Z</time>
      </trkpt>
      <trkpt lat="48.68387" lon="5.73342">
        <ele>252</ele>
        <time>2020-06-29T16:37:55Z</time>
      </trkpt>
      <trkpt lat="48.68389" lon="5.73331">
        <ele>251.6</ele>
        <time>2020-06-29T16:37:56Z</time>
      </trkpt>
      <trkpt lat="48.6839" lon="5.73319">
        <ele>251.3</ele>
        <time>2020-06-29T16:37:57Z</time>
      </trkpt>
      <trkpt lat="48.68392" lon="5.73307">
        <ele>250.9</ele>
        <time>2020-06-29T16:37:58Z</time>
      </trkpt>
      <trkpt lat="48.68393" lon="5.73295">
        <ele>250.6</ele>
        <time>2020-06-29T16:37:59Z</time>
      </trkpt>
      <trkpt lat="48.68395" lon="5.73282">
        <ele>250.3</ele>
        <time>2020-06-29T16:38:00Z</time>
      </trkpt>
      <trkpt lat="48.68397" lon="5.7327">
        <ele>249.9</ele>
        <time>2020-06-29T16:38:01Z</time>
      </trkpt>
      <trkpt lat="48.68399" lon="5.73258">
        <ele>249.6</ele>
        <time>2020-06-29T16:38:02Z</time>
      </trkpt>
      <trkpt lat="48.68402" lon="5.73246">
        <ele>249.2</ele>
        <time>2020-06-29T16:38:03Z</time>
      </trkpt>
      <trkpt lat="48.68403" lon="5.73234">
        <ele>248.9</ele>
        <time>2020-06-29T16:38:04Z</time>
      </trkpt>
      <trkpt lat="48.68406" lon="5.73222">
        <ele>248.6</ele>
        <time>2020-06-29T16:38:05Z</time>
      </trkpt>
      <trkpt lat="48.68407" lon="5.7321">
        <ele>248.3</ele>
        <time>2020-06-29T16:38:06Z</time>
      </trkpt>
      <trkpt lat="48.68409" lon="5.73198">
        <ele>248</ele>
        <time>2020-06-29T16:38:07Z</time>
      </trkpt>
      <trkpt lat="48.68411" lon="5.73185">
        <ele>247.7</ele>
        <time>2020-06-29T16:38:08Z</time>
      </trkpt>
      <trkpt lat="48.68414" lon="5.73173">
        <ele>247.4</ele>
        <time>2020-06-29T16:38:09Z</time>
      </trkpt>
      <trkpt lat="48.68416" lon="5.73161">
        <ele>247</ele>
        <time>2020-06-29T16:38:10Z</time>
      </trkpt>
      <trkpt lat="48.68417" lon="5.73149">
        <ele>247</ele>
        <time>2020-06-29T16:38:11Z</time>
      </trkpt>
      <trkpt lat="48.68419" lon="5.73137">
        <ele>246.8</ele>
        <time>2020-06-29T16:38:12Z</time>
      </trkpt>
      <trkpt lat="48.68422" lon="5.73125">
        <ele>246.5</ele>
        <time>2020-06-29T16:38:13Z</time>
      </trkpt>
      <trkpt lat="48.68424" lon="5.73114">
        <ele>246.2</ele>
        <time>2020-06-29T16:38:14Z</time>
      </trkpt>
      <trkpt lat="48.68425" lon="5.73103">
        <ele>245.9</ele>
        <time>2020-06-29T16:38:15Z</time>
      </trkpt>
      <trkpt lat="48.68427" lon="5.73092">
        <ele>245.7</ele>
        <time>2020-06-29T16:38:16Z</time>
      </trkpt>
      <trkpt lat="48.68429" lon="5.73081">
        <ele>245.5</ele>
        <time>2020-06-29T16:38:17Z</time>
      </trkpt>
      <trkpt lat="48.68431" lon="5.7307">
        <ele>245.3</ele>
        <time>2020-06-29T16:38:18Z</time>
      </trkpt>
      <trkpt lat="48.68434" lon="5.73059">
        <ele>245.2</ele>
        <time>2020-06-29T16:38:19Z</time>
      </trkpt>
      <trkpt lat="48.68436" lon="5.73048">
        <ele>245.1</ele>
        <time>2020-06-29T16:38:20Z</time>
      </trkpt>
      <trkpt lat="48.68438" lon="5.73037">
        <ele>244.9</ele>
        <time>2020-06-29T16:38:21Z</time>
      </trkpt>
      <trkpt lat="48.68441" lon="5.73026">
        <ele>244.7</ele>
        <time>2020-06-29T16:38:22Z</time>
      </trkpt>
      <trkpt lat="48.68443" lon="5.73016">
        <ele>244.6</ele>
        <time>2020-06-29T16:38:23Z</time>
      </trkpt>
      <trkpt lat="48.68446" lon="5.73006">
        <ele>244.4</ele>
        <time>2020-06-29T16:38:24Z</time>
      </trkpt>
      <trkpt lat="48.68449" lon="5.72995">
        <ele>244.3</ele>
        <time>2020-06-29T16:38:25Z</time>
      </trkpt>
      <trkpt lat="48.68451" lon="5.72986">
        <ele>244.2</ele>
        <time>2020-06-29T16:38:26Z</time>
      </trkpt>
      <trkpt lat="48.68455" lon="5.72976">
        <ele>244</ele>
        <time>2020-06-29T16:38:27Z</time>
      </trkpt>
      <trkpt lat="48.68458" lon="5.72967">
        <ele>243.9</ele>
        <time>2020-06-29T16:38:28Z</time>
      </trkpt>
      <trkpt lat="48.68461" lon="5.72957">
        <ele>243.8</ele>
        <time>2020-06-29T16:38:29Z</time>
      </trkpt>
      <trkpt lat="48.68464" lon="5.72948">
        <ele>243.7</ele>
        <time>2020-06-29T16:38:30Z</time>
      </trkpt>
      <trkpt lat="48.68467" lon="5.72939">
        <ele>243.5</ele>
        <time>2020-06-29T16:38:31Z</time>
      </trkpt>
      <trkpt lat="48.6847" lon="5.72929">
        <ele>243.4</ele>
        <time>2020-06-29T16:38:32Z</time>
      </trkpt>
      <trkpt lat="48.68474" lon="5.7292">
        <ele>243.3</ele>
        <time>2020-06-29T16:38:33Z</time>
      </trkpt>
      <trkpt lat="48.68476" lon="5.7291">
        <ele>243.1</ele>
        <time>2020-06-29T16:38:34Z</time>
      </trkpt>
      <trkpt lat="48.68479" lon="5.729">
        <ele>243</ele>
        <time>2020-06-29T16:38:35Z</time>
      </trkpt>
      <trkpt lat="48.68482" lon="5.7289">
        <ele>242.9</ele>
        <time>2020-06-29T16:38:36Z</time>
      </trkpt>
      <trkpt lat="48.68485" lon="5.7288">
        <ele>242.8</ele>
        <time>2020-06-29T16:38:37Z</time>
      </trkpt>
      <trkpt lat="48.68488" lon="5.7287">
        <ele>242.7</ele>
        <time>2020-06-29T16:38:38Z</time>
      </trkpt>
      <trkpt lat="48.68491" lon="5.7286">
        <ele>242.6</ele>
        <time>2020-06-29T16:38:39Z</time>
      </trkpt>
      <trkpt lat="48.68494" lon="5.7285">
        <ele>242.5</ele>
        <time>2020-06-29T16:38:40Z</time>
      </trkpt>
      <trkpt lat="48.68497" lon="5.72841">
        <ele>242.4</ele>
        <time>2020-06-29T16:38:41Z</time>
      </trkpt>
      <trkpt lat="48.685" lon="5.72831">
        <ele>242.3</ele>
        <time>2020-06-29T16:38:42Z</time>
      </trkpt>
      <trkpt lat="48.68504" lon="5.72822">
        <ele>242.2</ele>
        <time>2020-06-29T16:38:43Z</time>
      </trkpt>
      <trkpt lat="48.68507" lon="5.72813">
        <ele>242.1</ele>
        <time>2020-06-29T16:38:44Z</time>
      </trkpt>
      <trkpt lat="48.6851" lon="5.72804">
        <ele>242</ele>
        <time>2020-06-29T16:38:45Z</time>
      </trkpt>
      <trkpt lat="48.68513" lon="5.72794">
        <ele>241.9</ele>
        <time>2020-06-29T16:38:46Z</time>
      </trkpt>
      <trkpt lat="48.68516" lon="5.72785">
        <ele>241.8</ele>
        <time>2020-06-29T16:38:47Z</time>
      </trkpt>
      <trkpt lat="48.68519" lon="5.72775">
        <ele>241.6</ele>
        <time>2020-06-29T16:38:48Z</time>
      </trkpt>
      <trkpt lat="48.68521" lon="5.72766">
        <ele>241.5</ele>
        <time>2020-06-29T16:38:49Z</time>
      </trkpt>
      <trkpt lat="48.68524" lon="5.72756">
        <ele>241.4</ele>
        <time>2020-06-29T16:38:50Z</time>
      </trkpt>
      <trkpt lat="48.68526" lon="5.72747">
        <ele>241.3</ele>
        <time>2020-06-29T16:38:51Z</time>
      </trkpt>
      <trkpt lat="48.68529" lon="5.72738">
        <ele>241.3</ele>
        <time>2020-06-29T16:38:52Z</time>
      </trkpt>
      <trkpt lat="48.68532" lon="5.72729">
        <ele>241.2</ele>
        <time>2020-06-29T16:38:53Z</time>
      </trkpt>
      <trkpt lat="48.68535" lon="5.72721">
        <ele>241.2</ele>
        <time>2020-06-29T16:38:54Z</time>
      </trkpt>
      <trkpt lat="48.68537" lon="5.72712">
        <ele>241.1</ele>
        <time>2020-06-29T16:38:55Z</time>
      </trkpt>
      <trkpt lat="48.6854" lon="5.72704">
        <ele>241</ele>
        <time>2020-06-29T16:38:56Z</time>
      </trkpt>
      <trkpt lat="48.68543" lon="5.72695">
        <ele>241</ele>
        <time>2020-06-29T16:38:57Z</time>
      </trkpt>
      <trkpt lat="48.68546" lon="5.72687">
        <ele>240.9</ele>
        <time>2020-06-29T16:38:58Z</time>
      </trkpt>
      <trkpt lat="48.68549" lon="5.72679">
        <ele>240.9</ele>
        <time>2020-06-29T16:38:59Z</time>
      </trkpt>
      <trkpt lat="48.68552" lon="5.72672">
        <ele>240.9</ele>
        <time>2020-06-29T16:39:00Z</time>
      </trkpt>
      <trkpt lat="48.68555" lon="5.72664">
        <ele>240.9</ele>
        <time>2020-06-29T16:39:01Z</time>
      </trkpt>
      <trkpt lat="48.68558" lon="5.72655">
        <ele>240.8</ele>
        <time>2020-06-29T16:39:02Z</time>
      </trkpt>
      <trkpt lat="48.6856" lon="5.72647">
        <ele>240.8</ele>
        <time>2020-06-29T16:39:03Z</time>
      </trkpt>
      <trkpt lat="48.68562" lon="5.72638">
        <ele>240.8</ele>
        <time>2020-06-29T16:39:04Z</time>
      </trkpt>
      <trkpt lat="48.68565" lon="5.7263">
        <ele>240.8</ele>
        <time>2020-06-29T16:39:05Z</time>
      </trkpt>
      <trkpt lat="48.68567" lon="5.72622">
        <ele>240.7</ele>
        <time>2020-06-29T16:39:06Z</time>
      </trkpt>
      <trkpt lat="48.6857" lon="5.72614">
        <ele>240.7</ele>
        <time>2020-06-29T16:39:07Z</time>
      </trkpt>
      <trkpt lat="48.68572" lon="5.72606">
        <ele>240.7</ele>
        <time>2020-06-29T16:39:08Z</time>
      </trkpt>
      <trkpt lat="48.68575" lon="5.72599">
        <ele>240.8</ele>
        <time>2020-06-29T16:39:09Z</time>
      </trkpt>
      <trkpt lat="48.68577" lon="5.72591">
        <ele>240.8</ele>
        <time>2020-06-29T16:39:10Z</time>
      </trkpt>
      <trkpt lat="48.6858" lon="5.72583">
        <ele>240.8</ele>
        <time>2020-06-29T16:39:11Z</time>
      </trkpt>
      <trkpt lat="48.68582" lon="5.72576">
        <ele>240.8</ele>
        <time>2020-06-29T16:39:12Z</time>
      </trkpt>
      <trkpt lat="48.68584" lon="5.72569">
        <ele>240.8</ele>
        <time>2020-06-29T16:39:13Z</time>
      </trkpt>
      <trkpt lat="48.68586" lon="5.72562">
        <ele>240.7</ele>
        <time>2020-06-29T16:39:14Z</time>
      </trkpt>
      <trkpt lat="48.68588" lon="5.72555">
        <ele>240.7</ele>
        <time>2020-06-29T16:39:15Z</time>
      </trkpt>
      <trkpt lat="48.68589" lon="5.72549">
        <ele>240.6</ele>
        <time>2020-06-29T16:39:16Z</time>
      </trkpt>
      <trkpt lat="48.6859" lon="5.72542">
        <ele>240.6</ele>
        <time>2020-06-29T16:39:17Z</time>
      </trkpt>
      <trkpt lat="48.68591" lon="5.72535">
        <ele>240.6</ele>
        <time>2020-06-29T16:39:18Z</time>
      </trkpt>
      <trkpt lat="48.68592" lon="5.72528">
        <ele>240.5</ele>
        <time>2020-06-29T16:39:19Z</time>
      </trkpt>
      <trkpt lat="48.68595" lon="5.72523">
        <ele>240.5</ele>
        <time>2020-06-29T16:39:20Z</time>
      </trkpt>
      <trkpt lat="48.68599" lon="5.72519">
        <ele>241.1</ele>
        <time>2020-06-29T16:39:21Z</time>
      </trkpt>
      <trkpt lat="48.68601" lon="5.72513">
        <ele>241</ele>
        <time>2020-06-29T16:39:22Z</time>
      </trkpt>
      <trkpt lat="48.68603" lon="5.72507">
        <ele>240.9</ele>
        <time>2020-06-29T16:39:23Z</time>
      </trkpt>
      <trkpt lat="48.68604" lon="5.72501">
        <ele>241.1</ele>
        <time>2020-06-29T16:39:24Z</time>
      </trkpt>
      <trkpt lat="48.68604" lon="5.72494">
        <ele>241.1</ele>
        <time>2020-06-29T16:39:25Z</time>
      </trkpt>
      <trkpt lat="48.68605" lon="5.72488">
        <ele>241</ele>
        <time>2020-06-29T16:39:26Z</time>
      </trkpt>
      <trkpt lat="48.68606" lon="5.72482">
        <ele>240.9</ele>
        <time>2020-06-29T16:39:27Z</time>
      </trkpt>
      <trkpt lat="48.68608" lon="5.72475">
        <ele>240.8</ele>
        <time>2020-06-29T16:39:28Z</time>
      </trkpt>
      <trkpt lat="48.68609" lon="5.72469">
        <ele>240.8</ele>
        <time>2020-06-29T16:39:29Z</time>
      </trkpt>
      <trkpt lat="48.68612" lon="5.72462">
        <ele>240.7</ele>
        <time>2020-06-29T16:39:30Z</time>
      </trkpt>
      <trkpt lat="48.68614" lon="5.72456">
        <ele>240.7</ele>
        <time>2020-06-29T16:39:31Z</time>
      </trkpt>
      <trkpt lat="48.68617" lon="5.72449">
        <ele>240.7</ele>
        <time>2020-06-29T16:39:32Z</time>
      </trkpt>
      <trkpt lat="48.68619" lon="5.72442">
        <ele>240.7</ele>
        <time>2020-06-29T16:39:33Z</time>
      </trkpt>
      <trkpt lat="48.68621" lon="5.72435">
        <ele>240.6</ele>
        <time>2020-06-29T16:39:34Z</time>
      </trkpt>
      <trkpt lat="48.68624" lon="5.72428">
        <ele>240.6</ele>
        <time>2020-06-29T16:39:35Z</time>
      </trkpt>
      <trkpt lat="48.68625" lon="5.72421">
        <ele>240.5</ele>
        <time>2020-06-29T16:39:36Z</time>
      </trkpt>
      <trkpt lat="48.68628" lon="5.72414">
        <ele>240.5</ele>
        <time>2020-06-29T16:39:37Z</time>
      </trkpt>
      <trkpt lat="48.6863" lon="5.72407">
        <ele>240.5</ele>
        <time>2020-06-29T16:39:38Z</time>
      </trkpt>
      <trkpt lat="48.68634" lon="5.724">
        <ele>240.5</ele>
        <time>2020-06-29T16:39:39Z</time>
      </trkpt>
      <trkpt lat="48.68637" lon="5.72394">
        <ele>240.4</ele>
        <time>2020-06-29T16:39:40Z</time>
      </trkpt>
      <trkpt lat="48.68639" lon="5.72386">
        <ele>240.4</ele>
        <time>2020-06-29T16:39:41Z</time>
      </trkpt>
      <trkpt lat="48.68642" lon="5.72378">
        <ele>240.4</ele>
        <time>2020-06-29T16:39:42Z</time>
      </trkpt>
      <trkpt lat="48.68645" lon="5.7237">
        <ele>240.4</ele>
        <time>2020-06-29T16:39:43Z</time>
      </trkpt>
      <trkpt lat="48.68647" lon="5.72362">
        <ele>240.4</ele>
        <time>2020-06-29T16:39:44Z</time>
      </trkpt>
      <trkpt lat="48.68648" lon="5.72352">
        <ele>240.4</ele>
        <time>2020-06-29T16:39:45Z</time>
      </trkpt>
      <trkpt lat="48.68651" lon="5.72344">
        <ele>240.4</ele>
        <time>2020-06-29T16:39:46Z</time>
      </trkpt>
      <trkpt lat="48.68653" lon="5.72336">
        <ele>240.4</ele>
        <time>2020-06-29T16:39:47Z</time>
      </trkpt>
      <trkpt lat="48.68655" lon="5.72328">
        <ele>240.4</ele>
        <time>2020-06-29T16:39:48Z</time>
      </trkpt>
      <trkpt lat="48.68657" lon="5.7232">
        <ele>240.4</ele>
        <time>2020-06-29T16:39:49Z</time>
      </trkpt>
      <trkpt lat="48.6866" lon="5.72313">
        <ele>240.4</ele>
        <time>2020-06-29T16:39:50Z</time>
      </trkpt>
      <trkpt lat="48.68663" lon="5.72306">
        <ele>240.4</ele>
        <time>2020-06-29T16:39:51Z</time>
      </trkpt>
      <trkpt lat="48.68665" lon="5.72299">
        <ele>240.4</ele>
        <time>2020-06-29T16:39:52Z</time>
      </trkpt>
      <trkpt lat="48.68667" lon="5.7229">
        <ele>240.5</ele>
        <time>2020-06-29T16:39:53Z</time>
      </trkpt>
      <trkpt lat="48.6867" lon="5.72282">
        <ele>240.5</ele>
        <time>2020-06-29T16:39:54Z</time>
      </trkpt>
      <trkpt lat="48.68672" lon="5.72273">
        <ele>240.5</ele>
        <time>2020-06-29T16:39:55Z</time>
      </trkpt>
      <trkpt lat="48.68675" lon="5.72265">
        <ele>240.5</ele>
        <time>2020-06-29T16:39:56Z</time>
      </trkpt>
      <trkpt lat="48.68677" lon="5.72258">
        <ele>240.5</ele>
        <time>2020-06-29T16:39:57Z</time>
      </trkpt>
      <trkpt lat="48.68679" lon="5.7225">
        <ele>240.5</ele>
        <time>2020-06-29T16:39:58Z</time>
      </trkpt>
      <trkpt lat="48.68681" lon="5.72242">
        <ele>240.5</ele>
        <time>2020-06-29T16:39:59Z</time>
      </trkpt>
      <trkpt lat="48.68683" lon="5.72233">
        <ele>240.5</ele>
        <time>2020-06-29T16:40:00Z</time>
      </trkpt>
      <trkpt lat="48.68685" lon="5.72225">
        <ele>240.5</ele>
        <time>2020-06-29T16:40:01Z</time>
      </trkpt>
      <trkpt lat="48.68687" lon="5.72217">
        <ele>240.5</ele>
        <time>2020-06-29T16:40:02Z</time>
      </trkpt>
      <trkpt lat="48.68688" lon="5.72211">
        <ele>240.5</ele>
        <time>2020-06-29T16:40:03Z</time>
      </trkpt>
      <trkpt lat="48.6869" lon="5.72204">
        <ele>240.5</ele>
        <time>2020-06-29T16:40:04Z</time>
      </trkpt>
      <trkpt lat="48.68692" lon="5.72197">
        <ele>240.5</ele>
        <time>2020-06-29T16:40:05Z</time>
      </trkpt>
      <trkpt lat="48.68695" lon="5.72191">
        <ele>240.5</ele>
        <time>2020-06-29T16:40:06Z</time>
      </trkpt>
      <trkpt lat="48.68697" lon="5.72184">
        <ele>240.5</ele>
        <time>2020-06-29T16:40:07Z</time>
      </trkpt>
      <trkpt lat="48.68699" lon="5.72178">
        <ele>240.6</ele>
        <time>2020-06-29T16:40:08Z</time>
      </trkpt>
      <trkpt lat="48.68702" lon="5.72172">
        <ele>240.6</ele>
        <time>2020-06-29T16:40:09Z</time>
      </trkpt>
      <trkpt lat="48.68704" lon="5.72166">
        <ele>240.6</ele>
        <time>2020-06-29T16:40:10Z</time>
      </trkpt>
      <trkpt lat="48.68706" lon="5.7216">
        <ele>240.6</ele>
        <time>2020-06-29T16:40:11Z</time>
      </trkpt>
      <trkpt lat="48.68708" lon="5.72154">
        <ele>240.6</ele>
        <time>2020-06-29T16:40:12Z</time>
      </trkpt>
      <trkpt lat="48.68711" lon="5.72147">
        <ele>240.7</ele>
        <time>2020-06-29T16:40:13Z</time>
      </trkpt>
      <trkpt lat="48.68713" lon="5.72141">
        <ele>240.7</ele>
        <time>2020-06-29T16:40:14Z</time>
      </trkpt>
      <trkpt lat="48.68714" lon="5.72133">
        <ele>240.7</ele>
        <time>2020-06-29T16:40:15Z</time>
      </trkpt>
      <trkpt lat="48.68717" lon="5.72126">
        <ele>240.7</ele>
        <time>2020-06-29T16:40:16Z</time>
      </trkpt>
      <trkpt lat="48.68718" lon="5.72119">
        <ele>240.8</ele>
        <time>2020-06-29T16:40:17Z</time>
      </trkpt>
      <trkpt lat="48.68721" lon="5.72113">
        <ele>240.8</ele>
        <time>2020-06-29T16:40:18Z</time>
      </trkpt>
      <trkpt lat="48.68723" lon="5.72107">
        <ele>240.8</ele>
        <time>2020-06-29T16:40:19Z</time>
      </trkpt>
      <trkpt lat="48.68725" lon="5.72101">
        <ele>240.8</ele>
        <time>2020-06-29T16:40:20Z</time>
      </trkpt>
      <trkpt lat="48.68726" lon="5.72096">
        <ele>240.7</ele>
        <time>2020-06-29T16:40:21Z</time>
      </trkpt>
      <trkpt lat="48.68727" lon="5.7209">
        <ele>240.6</ele>
        <time>2020-06-29T16:40:22Z</time>
      </trkpt>
      <trkpt lat="48.68729" lon="5.72086">
        <ele>240.5</ele>
        <time>2020-06-29T16:40:23Z</time>
      </trkpt>
      <trkpt lat="48.68731" lon="5.72081">
        <ele>240.4</ele>
        <time>2020-06-29T16:40:24Z</time>
      </trkpt>
      <trkpt lat="48.68732" lon="5.72075">
        <ele>240.3</ele>
        <time>2020-06-29T16:40:25Z</time>
      </trkpt>
      <trkpt lat="48.68734" lon="5.72069">
        <ele>240.3</ele>
        <time>2020-06-29T16:40:26Z</time>
      </trkpt>
      <trkpt lat="48.68736" lon="5.72063">
        <ele>240.3</ele>
        <time>2020-06-29T16:40:27Z</time>
      </trkpt>
      <trkpt lat="48.68737" lon="5.72056">
        <ele>240.2</ele>
        <time>2020-06-29T16:40:28Z</time>
      </trkpt>
      <trkpt lat="48.68739" lon="5.7205">
        <ele>240.2</ele>
        <time>2020-06-29T16:40:29Z</time>
      </trkpt>
      <trkpt lat="48.68741" lon="5.72044">
        <ele>240.4</ele>
        <time>2020-06-29T16:40:30Z</time>
      </trkpt>
      <trkpt lat="48.68743" lon="5.72038">
        <ele>240.5</ele>
        <time>2020-06-29T16:40:31Z</time>
      </trkpt>
      <trkpt lat="48.68744" lon="5.72031">
        <ele>240.6</ele>
        <time>2020-06-29T16:40:32Z</time>
      </trkpt>
      <trkpt lat="48.68746" lon="5.72024">
        <ele>240.7</ele>
        <time>2020-06-29T16:40:33Z</time>
      </trkpt>
      <trkpt lat="48.68748" lon="5.72018">
        <ele>240.9</ele>
        <time>2020-06-29T16:40:34Z</time>
      </trkpt>
      <trkpt lat="48.68749" lon="5.7201">
        <ele>241</ele>
        <time>2020-06-29T16:40:35Z</time>
      </trkpt>
      <trkpt lat="48.68752" lon="5.72005">
        <ele>241.1</ele>
        <time>2020-06-29T16:40:36Z</time>
      </trkpt>
      <trkpt lat="48.68756" lon="5.72001">
        <ele>241.3</ele>
        <time>2020-06-29T16:40:37Z</time>
      </trkpt>
      <trkpt lat="48.68759" lon="5.71996">
        <ele>241.4</ele>
        <time>2020-06-29T16:40:38Z</time>
      </trkpt>
      <trkpt lat="48.68762" lon="5.7199">
        <ele>241.6</ele>
        <time>2020-06-29T16:40:39Z</time>
      </trkpt>
      <trkpt lat="48.68765" lon="5.71985">
        <ele>241.7</ele>
        <time>2020-06-29T16:40:40Z</time>
      </trkpt>
      <trkpt lat="48.68767" lon="5.71979">
        <ele>241.8</ele>
        <time>2020-06-29T16:40:41Z</time>
      </trkpt>
      <trkpt lat="48.68769" lon="5.71973">
        <ele>242</ele>
        <time>2020-06-29T16:40:42Z</time>
      </trkpt>
      <trkpt lat="48.68771" lon="5.71967">
        <ele>242.1</ele>
        <time>2020-06-29T16:40:43Z</time>
      </trkpt>
      <trkpt lat="48.68773" lon="5.71963">
        <ele>242.3</ele>
        <time>2020-06-29T16:40:44Z</time>
      </trkpt>
      <trkpt lat="48.68775" lon="5.71958">
        <ele>242.4</ele>
        <time>2020-06-29T16:40:45Z</time>
      </trkpt>
      <trkpt lat="48.68778" lon="5.71954">
        <ele>242.6</ele>
        <time>2020-06-29T16:40:46Z</time>
      </trkpt>
      <trkpt lat="48.6878" lon="5.71951">
        <ele>242.7</ele>
        <time>2020-06-29T16:40:47Z</time>
      </trkpt>
      <trkpt lat="48.68782" lon="5.71947">
        <ele>242.9</ele>
        <time>2020-06-29T16:40:48Z</time>
      </trkpt>
      <trkpt lat="48.68785" lon="5.71945">
        <ele>243.1</ele>
        <time>2020-06-29T16:40:49Z</time>
      </trkpt>
      <trkpt lat="48.68787" lon="5.71943">
        <ele>243.3</ele>
        <time>2020-06-29T16:40:50Z</time>
      </trkpt>
      <trkpt lat="48.6879" lon="5.71939">
        <ele>243.5</ele>
        <time>2020-06-29T16:40:51Z</time>
      </trkpt>
      <trkpt lat="48.68792" lon="5.71937">
        <ele>243.7</ele>
        <time>2020-06-29T16:40:52Z</time>
      </trkpt>
      <trkpt lat="48.68794" lon="5.71934">
        <ele>243.9</ele>
        <time>2020-06-29T16:40:53Z</time>
      </trkpt>
      <trkpt lat="48.68796" lon="5.71931">
        <ele>244.1</ele>
        <time>2020-06-29T16:40:54Z</time>
      </trkpt>
      <trkpt lat="48.68797" lon="5.71927">
        <ele>244.3</ele>
        <time>2020-06-29T16:40:55Z</time>
      </trkpt>
      <trkpt lat="48.688" lon="5.71925">
        <ele>244.5</ele>
        <time>2020-06-29T16:40:56Z</time>
      </trkpt>
      <trkpt lat="48.68802" lon="5.7192">
        <ele>244.8</ele>
        <time>2020-06-29T16:40:57Z</time>
      </trkpt>
      <trkpt lat="48.68802" lon="5.71918">
        <ele>244.9</ele>
        <time>2020-06-29T16:40:58Z</time>
      </trkpt>
      <trkpt lat="48.68804" lon="5.71914">
        <ele>245.2</ele>
        <time>2020-06-29T16:40:59Z</time>
      </trkpt>
      <trkpt lat="48.68805" lon="5.71912">
        <ele>245.2</ele>
        <time>2020-06-29T16:41:00Z</time>
      </trkpt>
      <trkpt lat="48.68806" lon="5.71908">
        <ele>245.5</ele>
        <time>2020-06-29T16:41:01Z</time>
      </trkpt>
      <trkpt lat="48.68806" lon="5.71904">
        <ele>245.7</ele>
        <time>2020-06-29T16:41:02Z</time>
      </trkpt>
      <trkpt lat="48.68806" lon="5.71902">
        <ele>245.7</ele>
        <time>2020-06-29T16:41:03Z</time>
      </trkpt>
      <trkpt lat="48.68806" lon="5.71897">
        <ele>245.8</ele>
        <time>2020-06-29T16:41:04Z</time>
      </trkpt>
      <trkpt lat="48.68806" lon="5.71895">
        <ele>245.8</ele>
        <time>2020-06-29T16:41:05Z</time>
      </trkpt>
      <trkpt lat="48.68806" lon="5.7189">
        <ele>245.9</ele>
        <time>2020-06-29T16:41:06Z</time>
      </trkpt>
      <trkpt lat="48.68806" lon="5.71886">
        <ele>245.9</ele>
        <time>2020-06-29T16:41:07Z</time>
      </trkpt>
      <trkpt lat="48.68806" lon="5.71884">
        <ele>246</ele>
        <time>2020-06-29T16:41:08Z</time>
      </trkpt>
      <trkpt lat="48.68807" lon="5.71879">
        <ele>246</ele>
        <time>2020-06-29T16:41:09Z</time>
      </trkpt>
      <trkpt lat="48.68806" lon="5.71877">
        <ele>246</ele>
        <time>2020-06-29T16:41:10Z</time>
      </trkpt>
      <trkpt lat="48.68807" lon="5.71872">
        <ele>246.1</ele>
        <time>2020-06-29T16:41:11Z</time>
      </trkpt>
      <trkpt lat="48.68806" lon="5.71868">
        <ele>246.2</ele>
        <time>2020-06-29T16:41:12Z</time>
      </trkpt>
      <trkpt lat="48.68805" lon="5.71863">
        <ele>246.3</ele>
        <time>2020-06-29T16:41:13Z</time>
      </trkpt>
      <trkpt lat="48.68805" lon="5.71858">
        <ele>246.3</ele>
        <time>2020-06-29T16:41:14Z</time>
      </trkpt>
      <trkpt lat="48.68806" lon="5.71854">
        <ele>246.4</ele>
        <time>2020-06-29T16:41:15Z</time>
      </trkpt>
      <trkpt lat="48.68806" lon="5.71848">
        <ele>246.5</ele>
        <time>2020-06-29T16:41:16Z</time>
      </trkpt>
      <trkpt lat="48.68806" lon="5.71844">
        <ele>246.5</ele>
        <time>2020-06-29T16:41:17Z</time>
      </trkpt>
      <trkpt lat="48.68807" lon="5.71836">
        <ele>246.6</ele>
        <time>2020-06-29T16:41:18Z</time>
      </trkpt>
      <trkpt lat="48.68806" lon="5.71832">
        <ele>246.6</ele>
        <time>2020-06-29T16:41:19Z</time>
      </trkpt>
      <trkpt lat="48.68805" lon="5.71825">
        <ele>246.7</ele>
        <time>2020-06-29T16:41:20Z</time>
      </trkpt>
      <trkpt lat="48.68805" lon="5.71822">
        <ele>246.7</ele>
        <time>2020-06-29T16:41:21Z</time>
      </trkpt>
      <trkpt lat="48.68803" lon="5.71812">
        <ele>246.8</ele>
        <time>2020-06-29T16:41:22Z</time>
      </trkpt>
      <trkpt lat="48.68803" lon="5.71806">
        <ele>246.9</ele>
        <time>2020-06-29T16:41:23Z</time>
      </trkpt>
      <trkpt lat="48.68803" lon="5.718">
        <ele>246.9</ele>
        <time>2020-06-29T16:41:24Z</time>
      </trkpt>
      <trkpt lat="48.68804" lon="5.71795">
        <ele>246.9</ele>
        <time>2020-06-29T16:41:25Z</time>
      </trkpt>
      <trkpt lat="48.68804" lon="5.7179">
        <ele>246.9</ele>
        <time>2020-06-29T16:41:26Z</time>
      </trkpt>
      <trkpt lat="48.68805" lon="5.71785">
        <ele>247</ele>
        <time>2020-06-29T16:41:27Z</time>
      </trkpt>
      <trkpt lat="48.68806" lon="5.71779">
        <ele>247</ele>
        <time>2020-06-29T16:41:28Z</time>
      </trkpt>
      <trkpt lat="48.68807" lon="5.71774">
        <ele>247</ele>
        <time>2020-06-29T16:41:29Z</time>
      </trkpt>
      <trkpt lat="48.68808" lon="5.71767">
        <ele>247</ele>
        <time>2020-06-29T16:41:30Z</time>
      </trkpt>
      <trkpt lat="48.68809" lon="5.71761">
        <ele>246.9</ele>
        <time>2020-06-29T16:41:31Z</time>
      </trkpt>
      <trkpt lat="48.6881" lon="5.71756">
        <ele>246.9</ele>
        <time>2020-06-29T16:41:32Z</time>
      </trkpt>
      <trkpt lat="48.68812" lon="5.7175">
        <ele>246.9</ele>
        <time>2020-06-29T16:41:33Z</time>
      </trkpt>
      <trkpt lat="48.68813" lon="5.71746">
        <ele>246.9</ele>
        <time>2020-06-29T16:41:34Z</time>
      </trkpt>
      <trkpt lat="48.68815" lon="5.71741">
        <ele>246.8</ele>
        <time>2020-06-29T16:41:35Z</time>
      </trkpt>
      <trkpt lat="48.68817" lon="5.71737">
        <ele>246.8</ele>
        <time>2020-06-29T16:41:36Z</time>
      </trkpt>
      <trkpt lat="48.68819" lon="5.71731">
        <ele>246.8</ele>
        <time>2020-06-29T16:41:37Z</time>
      </trkpt>
      <trkpt lat="48.68819" lon="5.71729">
        <ele>246.8</ele>
        <time>2020-06-29T16:41:38Z</time>
      </trkpt>
      <trkpt lat="48.6882" lon="5.71723">
        <ele>246.7</ele>
        <time>2020-06-29T16:41:39Z</time>
      </trkpt>
      <trkpt lat="48.68821" lon="5.71719">
        <ele>246.7</ele>
        <time>2020-06-29T16:41:40Z</time>
      </trkpt>
      <trkpt lat="48.68822" lon="5.71714">
        <ele>246.6</ele>
        <time>2020-06-29T16:41:41Z</time>
      </trkpt>
      <trkpt lat="48.68823" lon="5.7171">
        <ele>246.6</ele>
        <time>2020-06-29T16:41:42Z</time>
      </trkpt>
      <trkpt lat="48.68824" lon="5.71708">
        <ele>246.6</ele>
        <time>2020-06-29T16:41:43Z</time>
      </trkpt>
      <trkpt lat="48.68825" lon="5.71705">
        <ele>246.5</ele>
        <time>2020-06-29T16:41:44Z</time>
      </trkpt>
      <trkpt lat="48.68825" lon="5.71704">
        <ele>246.5</ele>
        <time>2020-06-29T16:41:45Z</time>
      </trkpt>
      <trkpt lat="48.68825" lon="5.71703">
        <ele>246.5</ele>
        <time>2020-06-29T16:41:46Z</time>
      </trkpt>
      <trkpt lat="48.68825" lon="5.71701">
        <ele>246.5</ele>
        <time>2020-06-29T16:41:47Z</time>
      </trkpt>
      <trkpt lat="48.68825" lon="5.71699">
        <ele>246.4</ele>
        <time>2020-06-29T16:41:48Z</time>
      </trkpt>
      <trkpt lat="48.68827" lon="5.71695">
        <ele>246.4</ele>
        <time>2020-06-29T16:41:49Z</time>
      </trkpt>
      <trkpt lat="48.68828" lon="5.71695">
        <ele>246.3</ele>
        <time>2020-06-29T16:41:50Z</time>
      </trkpt>
      <trkpt lat="48.68829" lon="5.71694">
        <ele>246.3</ele>
        <time>2020-06-29T16:41:51Z</time>
      </trkpt>
      <trkpt lat="48.68829" lon="5.71694">
        <ele>246.3</ele>
        <time>2020-06-29T16:41:52Z</time>
      </trkpt>
      <trkpt lat="48.68829" lon="5.71694">
        <ele>246.3</ele>
        <time>2020-06-29T16:41:53Z</time>
      </trkpt>
      <trkpt lat="48.6883" lon="5.71693">
        <ele>246.3</ele>
        <time>2020-06-29T16:41:54Z</time>
      </trkpt>
      <trkpt lat="48.6883" lon="5.71693">
        <ele>246.2</ele>
        <time>2020-06-29T16:41:55Z</time>
      </trkpt>
      <trkpt lat="48.68829" lon="5.71695">
        <ele>246.2</ele>
        <time>2020-06-29T16:41:56Z</time>
      </trkpt>
      <trkpt lat="48.68829" lon="5.71695">
        <ele>246.2</ele>
        <time>2020-06-29T16:41:57Z</time>
      </trkpt>
      <trkpt lat="48.6883" lon="5.71694">
        <ele>246.2</ele>
        <time>2020-06-29T16:41:58Z</time>
      </trkpt>
      <trkpt lat="48.6883" lon="5.71694">
        <ele>246.2</ele>
        <time>2020-06-29T16:41:59Z</time>
      </trkpt>
      <trkpt lat="48.6883" lon="5.71693">
        <ele>246.2</ele>
        <time>2020-06-29T16:42:00Z</time>
      </trkpt>
      <trkpt lat="48.6883" lon="5.71693">
        <ele>246.2</ele>
        <time>2020-06-29T16:42:01Z</time>
      </trkpt>
      <trkpt lat="48.6883" lon="5.71693">
        <ele>246.2</ele>
        <time>2020-06-29T16:42:02Z</time>
      </trkpt>
      <trkpt lat="48.6883" lon="5.71694">
        <ele>246.2</ele>
        <time>2020-06-29T16:42:03Z</time>
      </trkpt>
      <trkpt lat="48.6883" lon="5.71694">
        <ele>246.1</ele>
        <time>2020-06-29T16:42:04Z</time>
      </trkpt>
      <trkpt lat="48.6883" lon="5.71694">
        <ele>246.1</ele>
        <time>2020-06-29T16:42:05Z</time>
      </trkpt>
      <trkpt lat="48.6883" lon="5.71694">
        <ele>246.1</ele>
        <time>2020-06-29T16:42:06Z</time>
      </trkpt>
      <trkpt lat="48.6883" lon="5.71694">
        <ele>246.1</ele>
        <time>2020-06-29T16:42:07Z</time>
      </trkpt>
      <trkpt lat="48.6883" lon="5.71694">
        <ele>246.1</ele>
        <time>2020-06-29T16:42:08Z</time>
      </trkpt>
      <trkpt lat="48.6883" lon="5.71683">
        <ele>245.9</ele>
        <time>2020-06-29T17:14:26Z</time>
      </trkpt>
      <trkpt lat="48.6883" lon="5.7168">
        <ele>245.9</ele>
        <time>2020-06-29T17:14:27Z</time>
      </trkpt>
      <trkpt lat="48.6883" lon="5.71678">
        <ele>245.9</ele>
        <time>2020-06-29T17:14:28Z</time>
      </trkpt>
      <trkpt lat="48.68832" lon="5.71677">
        <ele>245.8</ele>
        <time>2020-06-29T17:14:29Z</time>
      </trkpt>
      <trkpt lat="48.68835" lon="5.71674">
        <ele>245.7</ele>
        <time>2020-06-29T17:14:30Z</time>
      </trkpt>
      <trkpt lat="48.68835" lon="5.71673">
        <ele>245.7</ele>
        <time>2020-06-29T17:14:31Z</time>
      </trkpt>
      <trkpt lat="48.68836" lon="5.7167">
        <ele>245.7</ele>
        <time>2020-06-29T17:14:32Z</time>
      </trkpt>
      <trkpt lat="48.68837" lon="5.71668">
        <ele>245.6</ele>
        <time>2020-06-29T17:14:33Z</time>
      </trkpt>
      <trkpt lat="48.68838" lon="5.71666">
        <ele>245.6</ele>
        <time>2020-06-29T17:14:34Z</time>
      </trkpt>
      <trkpt lat="48.68839" lon="5.71665">
        <ele>245.6</ele>
        <time>2020-06-29T17:14:35Z</time>
      </trkpt>
      <trkpt lat="48.6884" lon="5.71662">
        <ele>245.5</ele>
        <time>2020-06-29T17:14:36Z</time>
      </trkpt>
      <trkpt lat="48.68841" lon="5.71661">
        <ele>245.5</ele>
        <time>2020-06-29T17:14:37Z</time>
      </trkpt>
      <trkpt lat="48.68843" lon="5.71657">
        <ele>245.4</ele>
        <time>2020-06-29T17:14:38Z</time>
      </trkpt>
      <trkpt lat="48.68844" lon="5.71655">
        <ele>245.4</ele>
        <time>2020-06-29T17:14:39Z</time>
      </trkpt>
      <trkpt lat="48.68847" lon="5.71651">
        <ele>245.3</ele>
        <time>2020-06-29T17:14:40Z</time>
      </trkpt>
      <trkpt lat="48.68849" lon="5.71647">
        <ele>245.2</ele>
        <time>2020-06-29T17:14:41Z</time>
      </trkpt>
      <trkpt lat="48.68853" lon="5.71642">
        <ele>245</ele>
        <time>2020-06-29T17:14:42Z</time>
      </trkpt>
      <trkpt lat="48.68856" lon="5.71637">
        <ele>244.9</ele>
        <time>2020-06-29T17:14:43Z</time>
      </trkpt>
      <trkpt lat="48.68858" lon="5.71632">
        <ele>244.8</ele>
        <time>2020-06-29T17:14:44Z</time>
      </trkpt>
      <trkpt lat="48.6886" lon="5.71625">
        <ele>244.6</ele>
        <time>2020-06-29T17:14:45Z</time>
      </trkpt>
      <trkpt lat="48.68863" lon="5.71618">
        <ele>244.5</ele>
        <time>2020-06-29T17:14:46Z</time>
      </trkpt>
      <trkpt lat="48.68866" lon="5.71612">
        <ele>244.3</ele>
        <time>2020-06-29T17:14:47Z</time>
      </trkpt>
      <trkpt lat="48.68869" lon="5.71607">
        <ele>244.2</ele>
        <time>2020-06-29T17:14:48Z</time>
      </trkpt>
      <trkpt lat="48.68872" lon="5.71602">
        <ele>244.1</ele>
        <time>2020-06-29T17:14:49Z</time>
      </trkpt>
      <trkpt lat="48.68875" lon="5.71595">
        <ele>243.9</ele>
        <time>2020-06-29T17:14:50Z</time>
      </trkpt>
      <trkpt lat="48.68878" lon="5.71589">
        <ele>243.8</ele>
        <time>2020-06-29T17:14:51Z</time>
      </trkpt>
      <trkpt lat="48.68882" lon="5.71583">
        <ele>243.7</ele>
        <time>2020-06-29T17:14:52Z</time>
      </trkpt>
      <trkpt lat="48.68886" lon="5.71576">
        <ele>243.6</ele>
        <time>2020-06-29T17:14:53Z</time>
      </trkpt>
      <trkpt lat="48.68889" lon="5.71571">
        <ele>243.5</ele>
        <time>2020-06-29T17:14:54Z</time>
      </trkpt>
      <trkpt lat="48.68892" lon="5.71565">
        <ele>243.4</ele>
        <time>2020-06-29T17:14:55Z</time>
      </trkpt>
      <trkpt lat="48.68896" lon="5.71559">
        <ele>243.3</ele>
        <time>2020-06-29T17:14:56Z</time>
      </trkpt>
      <trkpt lat="48.68899" lon="5.71553">
        <ele>243.2</ele>
        <time>2020-06-29T17:14:57Z</time>
      </trkpt>
      <trkpt lat="48.68903" lon="5.71547">
        <ele>243.1</ele>
        <time>2020-06-29T17:14:58Z</time>
      </trkpt>
      <trkpt lat="48.68907" lon="5.7154">
        <ele>243</ele>
        <time>2020-06-29T17:14:59Z</time>
      </trkpt>
      <trkpt lat="48.68911" lon="5.71533">
        <ele>242.9</ele>
        <time>2020-06-29T17:15:00Z</time>
      </trkpt>
      <trkpt lat="48.68914" lon="5.71526">
        <ele>242.8</ele>
        <time>2020-06-29T17:15:01Z</time>
      </trkpt>
      <trkpt lat="48.68919" lon="5.7152">
        <ele>242.7</ele>
        <time>2020-06-29T17:15:02Z</time>
      </trkpt>
      <trkpt lat="48.68922" lon="5.71512">
        <ele>242.6</ele>
        <time>2020-06-29T17:15:03Z</time>
      </trkpt>
      <trkpt lat="48.68926" lon="5.71505">
        <ele>242.5</ele>
        <time>2020-06-29T17:15:04Z</time>
      </trkpt>
      <trkpt lat="48.6893" lon="5.71499">
        <ele>242.4</ele>
        <time>2020-06-29T17:15:05Z</time>
      </trkpt>
      <trkpt lat="48.68934" lon="5.71492">
        <ele>242.4</ele>
        <time>2020-06-29T17:15:06Z</time>
      </trkpt>
      <trkpt lat="48.68937" lon="5.71487">
        <ele>242.3</ele>
        <time>2020-06-29T17:15:07Z</time>
      </trkpt>
      <trkpt lat="48.6894" lon="5.71481">
        <ele>242.3</ele>
        <time>2020-06-29T17:15:08Z</time>
      </trkpt>
      <trkpt lat="48.68943" lon="5.71475">
        <ele>242.2</ele>
        <time>2020-06-29T17:15:09Z</time>
      </trkpt>
      <trkpt lat="48.68947" lon="5.71469">
        <ele>242.2</ele>
        <time>2020-06-29T17:15:10Z</time>
      </trkpt>
      <trkpt lat="48.68951" lon="5.71464">
        <ele>242.2</ele>
        <time>2020-06-29T17:15:11Z</time>
      </trkpt>
      <trkpt lat="48.68954" lon="5.71459">
        <ele>242.2</ele>
        <time>2020-06-29T17:15:12Z</time>
      </trkpt>
      <trkpt lat="48.68958" lon="5.71454">
        <ele>242.2</ele>
        <time>2020-06-29T17:15:13Z</time>
      </trkpt>
      <trkpt lat="48.68963" lon="5.71449">
        <ele>242.3</ele>
        <time>2020-06-29T17:15:14Z</time>
      </trkpt>
      <trkpt lat="48.68966" lon="5.71444">
        <ele>242.4</ele>
        <time>2020-06-29T17:15:15Z</time>
      </trkpt>
      <trkpt lat="48.68969" lon="5.71437">
        <ele>242.6</ele>
        <time>2020-06-29T17:15:16Z</time>
      </trkpt>
      <trkpt lat="48.68973" lon="5.71431">
        <ele>242.7</ele>
        <time>2020-06-29T17:15:17Z</time>
      </trkpt>
      <trkpt lat="48.68977" lon="5.71425">
        <ele>242.8</ele>
        <time>2020-06-29T17:15:18Z</time>
      </trkpt>
      <trkpt lat="48.6898" lon="5.71419">
        <ele>243</ele>
        <time>2020-06-29T17:15:19Z</time>
      </trkpt>
      <trkpt lat="48.68983" lon="5.71413">
        <ele>243.1</ele>
        <time>2020-06-29T17:15:20Z</time>
      </trkpt>
      <trkpt lat="48.68986" lon="5.71407">
        <ele>243.3</ele>
        <time>2020-06-29T17:15:21Z</time>
      </trkpt>
      <trkpt lat="48.68988" lon="5.71401">
        <ele>243.4</ele>
        <time>2020-06-29T17:15:22Z</time>
      </trkpt>
      <trkpt lat="48.6899" lon="5.71395">
        <ele>243.5</ele>
        <time>2020-06-29T17:15:23Z</time>
      </trkpt>
      <trkpt lat="48.68992" lon="5.71389">
        <ele>243.6</ele>
        <time>2020-06-29T17:15:24Z</time>
      </trkpt>
      <trkpt lat="48.68993" lon="5.71383">
        <ele>243.8</ele>
        <time>2020-06-29T17:15:25Z</time>
      </trkpt>
      <trkpt lat="48.68994" lon="5.71376">
        <ele>243.9</ele>
        <time>2020-06-29T17:15:26Z</time>
      </trkpt>
      <trkpt lat="48.68995" lon="5.7137">
        <ele>244</ele>
        <time>2020-06-29T17:15:27Z</time>
      </trkpt>
      <trkpt lat="48.68995" lon="5.71363">
        <ele>244.1</ele>
        <time>2020-06-29T17:15:28Z</time>
      </trkpt>
      <trkpt lat="48.68993" lon="5.71356">
        <ele>244.2</ele>
        <time>2020-06-29T17:15:29Z</time>
      </trkpt>
      <trkpt lat="48.68992" lon="5.7135">
        <ele>244.2</ele>
        <time>2020-06-29T17:15:30Z</time>
      </trkpt>
      <trkpt lat="48.68991" lon="5.71343">
        <ele>244.2</ele>
        <time>2020-06-29T17:15:31Z</time>
      </trkpt>
      <trkpt lat="48.6899" lon="5.71337">
        <ele>244.2</ele>
        <time>2020-06-29T17:15:32Z</time>
      </trkpt>
      <trkpt lat="48.68989" lon="5.71331">
        <ele>244.2</ele>
        <time>2020-06-29T17:15:33Z</time>
      </trkpt>
      <trkpt lat="48.68989" lon="5.71325">
        <ele>244.3</ele>
        <time>2020-06-29T17:15:34Z</time>
      </trkpt>
      <trkpt lat="48.68989" lon="5.71319">
        <ele>244.3</ele>
        <time>2020-06-29T17:15:35Z</time>
      </trkpt>
      <trkpt lat="48.68989" lon="5.71314">
        <ele>244.3</ele>
        <time>2020-06-29T17:15:36Z</time>
      </trkpt>
      <trkpt lat="48.68988" lon="5.71308">
        <ele>244.3</ele>
        <time>2020-06-29T17:15:37Z</time>
      </trkpt>
      <trkpt lat="48.68988" lon="5.71301">
        <ele>244.3</ele>
        <time>2020-06-29T17:15:38Z</time>
      </trkpt>
      <trkpt lat="48.68989" lon="5.71296">
        <ele>244.3</ele>
        <time>2020-06-29T17:15:39Z</time>
      </trkpt>
      <trkpt lat="48.68989" lon="5.71291">
        <ele>244.3</ele>
        <time>2020-06-29T17:15:40Z</time>
      </trkpt>
      <trkpt lat="48.68989" lon="5.71286">
        <ele>244.3</ele>
        <time>2020-06-29T17:15:41Z</time>
      </trkpt>
      <trkpt lat="48.68989" lon="5.71281">
        <ele>244.3</ele>
        <time>2020-06-29T17:15:42Z</time>
      </trkpt>
      <trkpt lat="48.6899" lon="5.71277">
        <ele>244.3</ele>
        <time>2020-06-29T17:15:43Z</time>
      </trkpt>
      <trkpt lat="48.68989" lon="5.71271">
        <ele>244.3</ele>
        <time>2020-06-29T17:15:44Z</time>
      </trkpt>
      <trkpt lat="48.68989" lon="5.71265">
        <ele>244.2</ele>
        <time>2020-06-29T17:15:45Z</time>
      </trkpt>
      <trkpt lat="48.68988" lon="5.71259">
        <ele>244.2</ele>
        <time>2020-06-29T17:15:46Z</time>
      </trkpt>
      <trkpt lat="48.68988" lon="5.71254">
        <ele>244.1</ele>
        <time>2020-06-29T17:15:47Z</time>
      </trkpt>
      <trkpt lat="48.68988" lon="5.7125">
        <ele>244.1</ele>
        <time>2020-06-29T17:15:48Z</time>
      </trkpt>
      <trkpt lat="48.68988" lon="5.71244">
        <ele>244</ele>
        <time>2020-06-29T17:15:49Z</time>
      </trkpt>
      <trkpt lat="48.68988" lon="5.71238">
        <ele>244</ele>
        <time>2020-06-29T17:15:50Z</time>
      </trkpt>
      <trkpt lat="48.68987" lon="5.71232">
        <ele>243.9</ele>
        <time>2020-06-29T17:15:51Z</time>
      </trkpt>
      <trkpt lat="48.68986" lon="5.71224">
        <ele>243.8</ele>
        <time>2020-06-29T17:15:52Z</time>
      </trkpt>
      <trkpt lat="48.68986" lon="5.71218">
        <ele>243.7</ele>
        <time>2020-06-29T17:15:53Z</time>
      </trkpt>
      <trkpt lat="48.68986" lon="5.71212">
        <ele>243.6</ele>
        <time>2020-06-29T17:15:54Z</time>
      </trkpt>
      <trkpt lat="48.68986" lon="5.71205">
        <ele>243.5</ele>
        <time>2020-06-29T17:15:55Z</time>
      </trkpt>
      <trkpt lat="48.68986" lon="5.712">
        <ele>243.4</ele>
        <time>2020-06-29T17:15:56Z</time>
      </trkpt>
      <trkpt lat="48.68986" lon="5.71192">
        <ele>243.3</ele>
        <time>2020-06-29T17:15:57Z</time>
      </trkpt>
      <trkpt lat="48.68986" lon="5.71186">
        <ele>243.2</ele>
        <time>2020-06-29T17:15:58Z</time>
      </trkpt>
      <trkpt lat="48.68986" lon="5.71179">
        <ele>243.1</ele>
        <time>2020-06-29T17:15:59Z</time>
      </trkpt>
      <trkpt lat="48.68985" lon="5.7117">
        <ele>243</ele>
        <time>2020-06-29T17:16:00Z</time>
      </trkpt>
      <trkpt lat="48.68986" lon="5.71164">
        <ele>243</ele>
        <time>2020-06-29T17:16:01Z</time>
      </trkpt>
      <trkpt lat="48.68985" lon="5.71156">
        <ele>242.9</ele>
        <time>2020-06-29T17:16:02Z</time>
      </trkpt>
      <trkpt lat="48.68985" lon="5.71148">
        <ele>242.8</ele>
        <time>2020-06-29T17:16:03Z</time>
      </trkpt>
      <trkpt lat="48.68985" lon="5.7114">
        <ele>242.7</ele>
        <time>2020-06-29T17:16:04Z</time>
      </trkpt>
      <trkpt lat="48.68984" lon="5.71132">
        <ele>242.6</ele>
        <time>2020-06-29T17:16:05Z</time>
      </trkpt>
      <trkpt lat="48.68985" lon="5.71123">
        <ele>242.5</ele>
        <time>2020-06-29T17:16:06Z</time>
      </trkpt>
      <trkpt lat="48.68984" lon="5.71115">
        <ele>242.4</ele>
        <time>2020-06-29T17:16:07Z</time>
      </trkpt>
      <trkpt lat="48.68983" lon="5.71107">
        <ele>242.2</ele>
        <time>2020-06-29T17:16:08Z</time>
      </trkpt>
      <trkpt lat="48.68983" lon="5.71099">
        <ele>242.1</ele>
        <time>2020-06-29T17:16:09Z</time>
      </trkpt>
      <trkpt lat="48.68983" lon="5.7109">
        <ele>242</ele>
        <time>2020-06-29T17:16:10Z</time>
      </trkpt>
      <trkpt lat="48.68982" lon="5.71082">
        <ele>241.9</ele>
        <time>2020-06-29T17:16:11Z</time>
      </trkpt>
      <trkpt lat="48.68983" lon="5.71074">
        <ele>241.8</ele>
        <time>2020-06-29T17:16:12Z</time>
      </trkpt>
      <trkpt lat="48.68983" lon="5.71065">
        <ele>241.7</ele>
        <time>2020-06-29T17:16:13Z</time>
      </trkpt>
      <trkpt lat="48.68983" lon="5.71056">
        <ele>241.6</ele>
        <time>2020-06-29T17:16:14Z</time>
      </trkpt>
      <trkpt lat="48.68983" lon="5.71047">
        <ele>241.6</ele>
        <time>2020-06-29T17:16:15Z</time>
      </trkpt>
      <trkpt lat="48.68982" lon="5.71039">
        <ele>241.5</ele>
        <time>2020-06-29T17:16:16Z</time>
      </trkpt>
      <trkpt lat="48.68983" lon="5.7103">
        <ele>241.5</ele>
        <time>2020-06-29T17:16:17Z</time>
      </trkpt>
      <trkpt lat="48.68982" lon="5.71023">
        <ele>241.5</ele>
        <time>2020-06-29T17:16:18Z</time>
      </trkpt>
      <trkpt lat="48.68983" lon="5.71014">
        <ele>241.5</ele>
        <time>2020-06-29T17:16:19Z</time>
      </trkpt>
      <trkpt lat="48.68984" lon="5.71004">
        <ele>241.5</ele>
        <time>2020-06-29T17:16:20Z</time>
      </trkpt>
      <trkpt lat="48.68984" lon="5.70994">
        <ele>241.5</ele>
        <time>2020-06-29T17:16:21Z</time>
      </trkpt>
      <trkpt lat="48.68984" lon="5.70985">
        <ele>241.5</ele>
        <time>2020-06-29T17:16:22Z</time>
      </trkpt>
      <trkpt lat="48.68983" lon="5.70978">
        <ele>241.5</ele>
        <time>2020-06-29T17:16:23Z</time>
      </trkpt>
      <trkpt lat="48.68983" lon="5.70969">
        <ele>241.4</ele>
        <time>2020-06-29T17:16:24Z</time>
      </trkpt>
      <trkpt lat="48.68982" lon="5.70961">
        <ele>241.4</ele>
        <time>2020-06-29T17:16:25Z</time>
      </trkpt>
      <trkpt lat="48.68983" lon="5.70952">
        <ele>241.4</ele>
        <time>2020-06-29T17:16:26Z</time>
      </trkpt>
      <trkpt lat="48.68982" lon="5.70944">
        <ele>241.4</ele>
        <time>2020-06-29T17:16:27Z</time>
      </trkpt>
      <trkpt lat="48.68982" lon="5.70935">
        <ele>241.5</ele>
        <time>2020-06-29T17:16:28Z</time>
      </trkpt>
      <trkpt lat="48.68983" lon="5.70927">
        <ele>241.5</ele>
        <time>2020-06-29T17:16:29Z</time>
      </trkpt>
      <trkpt lat="48.68983" lon="5.70917">
        <ele>241.5</ele>
        <time>2020-06-29T17:16:30Z</time>
      </trkpt>
      <trkpt lat="48.68983" lon="5.70909">
        <ele>241.5</ele>
        <time>2020-06-29T17:16:31Z</time>
      </trkpt>
      <trkpt lat="48.68984" lon="5.709">
        <ele>241.5</ele>
        <time>2020-06-29T17:16:32Z</time>
      </trkpt>
      <trkpt lat="48.68984" lon="5.70893">
        <ele>241.5</ele>
        <time>2020-06-29T17:16:33Z</time>
      </trkpt>
      <trkpt lat="48.68984" lon="5.70886">
        <ele>241.5</ele>
        <time>2020-06-29T17:16:34Z</time>
      </trkpt>
      <trkpt lat="48.68984" lon="5.70876">
        <ele>241.5</ele>
        <time>2020-06-29T17:16:35Z</time>
      </trkpt>
      <trkpt lat="48.68984" lon="5.70869">
        <ele>241.5</ele>
        <time>2020-06-29T17:16:36Z</time>
      </trkpt>
      <trkpt lat="48.68984" lon="5.70861">
        <ele>241.5</ele>
        <time>2020-06-29T17:16:37Z</time>
      </trkpt>
      <trkpt lat="48.68984" lon="5.70854">
        <ele>241.5</ele>
        <time>2020-06-29T17:16:38Z</time>
      </trkpt>
      <trkpt lat="48.68984" lon="5.70846">
        <ele>241.5</ele>
        <time>2020-06-29T17:16:39Z</time>
      </trkpt>
      <trkpt lat="48.68984" lon="5.70839">
        <ele>241.4</ele>
        <time>2020-06-29T17:16:40Z</time>
      </trkpt>
      <trkpt lat="48.68985" lon="5.70831">
        <ele>241.4</ele>
        <time>2020-06-29T17:16:41Z</time>
      </trkpt>
      <trkpt lat="48.68985" lon="5.70823">
        <ele>241.3</ele>
        <time>2020-06-29T17:16:42Z</time>
      </trkpt>
      <trkpt lat="48.68986" lon="5.70815">
        <ele>241.3</ele>
        <time>2020-06-29T17:16:43Z</time>
      </trkpt>
      <trkpt lat="48.68987" lon="5.70805">
        <ele>241.2</ele>
        <time>2020-06-29T17:16:44Z</time>
      </trkpt>
      <trkpt lat="48.68987" lon="5.70797">
        <ele>241.2</ele>
        <time>2020-06-29T17:16:45Z</time>
      </trkpt>
      <trkpt lat="48.68988" lon="5.70787">
        <ele>241.2</ele>
        <time>2020-06-29T17:16:46Z</time>
      </trkpt>
      <trkpt lat="48.68988" lon="5.70778">
        <ele>241.2</ele>
        <time>2020-06-29T17:16:47Z</time>
      </trkpt>
      <trkpt lat="48.68988" lon="5.70767">
        <ele>241.2</ele>
        <time>2020-06-29T17:16:48Z</time>
      </trkpt>
      <trkpt lat="48.68988" lon="5.70757">
        <ele>241.2</ele>
        <time>2020-06-29T17:16:49Z</time>
      </trkpt>
      <trkpt lat="48.68988" lon="5.70749">
        <ele>241.2</ele>
        <time>2020-06-29T17:16:50Z</time>
      </trkpt>
      <trkpt lat="48.68988" lon="5.70741">
        <ele>241.2</ele>
        <time>2020-06-29T17:16:51Z</time>
      </trkpt>
      <trkpt lat="48.68988" lon="5.70732">
        <ele>241.2</ele>
        <time>2020-06-29T17:16:52Z</time>
      </trkpt>
      <trkpt lat="48.68988" lon="5.70723">
        <ele>241.2</ele>
        <time>2020-06-29T17:16:53Z</time>
      </trkpt>
      <trkpt lat="48.68988" lon="5.70714">
        <ele>241.2</ele>
        <time>2020-06-29T17:16:54Z</time>
      </trkpt>
      <trkpt lat="48.68988" lon="5.70704">
        <ele>241.2</ele>
        <time>2020-06-29T17:16:55Z</time>
      </trkpt>
      <trkpt lat="48.68987" lon="5.70695">
        <ele>241.1</ele>
        <time>2020-06-29T17:16:56Z</time>
      </trkpt>
      <trkpt lat="48.68988" lon="5.70686">
        <ele>241.1</ele>
        <time>2020-06-29T17:16:57Z</time>
      </trkpt>
      <trkpt lat="48.68988" lon="5.70676">
        <ele>241.1</ele>
        <time>2020-06-29T17:16:58Z</time>
      </trkpt>
      <trkpt lat="48.68988" lon="5.70666">
        <ele>241.1</ele>
        <time>2020-06-29T17:16:59Z</time>
      </trkpt>
      <trkpt lat="48.68988" lon="5.70657">
        <ele>241.2</ele>
        <time>2020-06-29T17:17:00Z</time>
      </trkpt>
      <trkpt lat="48.68988" lon="5.70648">
        <ele>241.2</ele>
        <time>2020-06-29T17:17:01Z</time>
      </trkpt>
      <trkpt lat="48.68988" lon="5.70638">
        <ele>241.2</ele>
        <time>2020-06-29T17:17:02Z</time>
      </trkpt>
      <trkpt lat="48.68988" lon="5.70628">
        <ele>241.2</ele>
        <time>2020-06-29T17:17:03Z</time>
      </trkpt>
      <trkpt lat="48.68988" lon="5.70618">
        <ele>241.2</ele>
        <time>2020-06-29T17:17:04Z</time>
      </trkpt>
      <trkpt lat="48.68988" lon="5.70607">
        <ele>241.2</ele>
        <time>2020-06-29T17:17:05Z</time>
      </trkpt>
      <trkpt lat="48.68987" lon="5.70596">
        <ele>241.1</ele>
        <time>2020-06-29T17:17:06Z</time>
      </trkpt>
      <trkpt lat="48.68987" lon="5.70588">
        <ele>241.1</ele>
        <time>2020-06-29T17:17:07Z</time>
      </trkpt>
      <trkpt lat="48.68987" lon="5.70579">
        <ele>241.1</ele>
        <time>2020-06-29T17:17:08Z</time>
      </trkpt>
      <trkpt lat="48.68988" lon="5.70572">
        <ele>241.1</ele>
        <time>2020-06-29T17:17:09Z</time>
      </trkpt>
      <trkpt lat="48.68989" lon="5.70564">
        <ele>241.1</ele>
        <time>2020-06-29T17:17:10Z</time>
      </trkpt>
      <trkpt lat="48.6899" lon="5.70557">
        <ele>241.1</ele>
        <time>2020-06-29T17:17:11Z</time>
      </trkpt>
      <trkpt lat="48.68991" lon="5.70551">
        <ele>241.1</ele>
        <time>2020-06-29T17:17:12Z</time>
      </trkpt>
      <trkpt lat="48.68991" lon="5.70542">
        <ele>241.1</ele>
        <time>2020-06-29T17:17:13Z</time>
      </trkpt>
      <trkpt lat="48.68992" lon="5.70534">
        <ele>241.1</ele>
        <time>2020-06-29T17:17:14Z</time>
      </trkpt>
      <trkpt lat="48.68991" lon="5.70527">
        <ele>241.1</ele>
        <time>2020-06-29T17:17:15Z</time>
      </trkpt>
      <trkpt lat="48.68991" lon="5.70522">
        <ele>241.1</ele>
        <time>2020-06-29T17:17:16Z</time>
      </trkpt>
      <trkpt lat="48.68992" lon="5.70519">
        <ele>241.1</ele>
        <time>2020-06-29T17:17:17Z</time>
      </trkpt>
      <trkpt lat="48.68991" lon="5.70517">
        <ele>241.1</ele>
        <time>2020-06-29T17:17:18Z</time>
      </trkpt>
      <trkpt lat="48.68988" lon="5.70515">
        <ele>241.1</ele>
        <time>2020-06-29T17:17:19Z</time>
      </trkpt>
      <trkpt lat="48.68987" lon="5.70517">
        <ele>241.1</ele>
        <time>2020-06-29T17:17:20Z</time>
      </trkpt>
      <trkpt lat="48.68988" lon="5.70519">
        <ele>241.1</ele>
        <time>2020-06-29T17:17:21Z</time>
      </trkpt>
      <trkpt lat="48.68986" lon="5.70526">
        <ele>241.1</ele>
        <time>2020-06-29T17:17:22Z</time>
      </trkpt>
      <trkpt lat="48.68986" lon="5.70531">
        <ele>241.1</ele>
        <time>2020-06-29T17:17:23Z</time>
      </trkpt>
      <trkpt lat="48.68986" lon="5.70535">
        <ele>241.1</ele>
        <time>2020-06-29T17:17:24Z</time>
      </trkpt>
      <trkpt lat="48.68986" lon="5.70541">
        <ele>241.1</ele>
        <time>2020-06-29T17:17:25Z</time>
      </trkpt>
      <trkpt lat="48.68986" lon="5.70547">
        <ele>241.1</ele>
        <time>2020-06-29T17:17:26Z</time>
      </trkpt>
      <trkpt lat="48.68986" lon="5.70553">
        <ele>241.1</ele>
        <time>2020-06-29T17:17:27Z</time>
      </trkpt>
      <trkpt lat="48.68985" lon="5.70558">
        <ele>241.1</ele>
        <time>2020-06-29T17:17:28Z</time>
      </trkpt>
      <trkpt lat="48.68984" lon="5.70564">
        <ele>241.1</ele>
        <time>2020-06-29T17:17:29Z</time>
      </trkpt>
      <trkpt lat="48.68984" lon="5.70569">
        <ele>241.1</ele>
        <time>2020-06-29T17:17:30Z</time>
      </trkpt>
      <trkpt lat="48.68984" lon="5.70576">
        <ele>241.1</ele>
        <time>2020-06-29T17:17:31Z</time>
      </trkpt>
      <trkpt lat="48.68984" lon="5.70582">
        <ele>241.2</ele>
        <time>2020-06-29T17:17:32Z</time>
      </trkpt>
      <trkpt lat="48.68984" lon="5.70587">
        <ele>241.2</ele>
        <time>2020-06-29T17:17:33Z</time>
      </trkpt>
      <trkpt lat="48.68984" lon="5.70593">
        <ele>241.2</ele>
        <time>2020-06-29T17:17:34Z</time>
      </trkpt>
      <trkpt lat="48.68984" lon="5.70599">
        <ele>241.2</ele>
        <time>2020-06-29T17:17:35Z</time>
      </trkpt>
      <trkpt lat="48.68984" lon="5.70606">
        <ele>241.2</ele>
        <time>2020-06-29T17:17:36Z</time>
      </trkpt>
      <trkpt lat="48.68984" lon="5.70612">
        <ele>241.2</ele>
        <time>2020-06-29T17:17:37Z</time>
      </trkpt>
      <trkpt lat="48.68984" lon="5.70617">
        <ele>241.2</ele>
        <time>2020-06-29T17:17:38Z</time>
      </trkpt>
      <trkpt lat="48.68984" lon="5.7062">
        <ele>241.2</ele>
        <time>2020-06-29T17:17:39Z</time>
      </trkpt>
      <trkpt lat="48.68984" lon="5.70625">
        <ele>241.2</ele>
        <time>2020-06-29T17:17:40Z</time>
      </trkpt>
      <trkpt lat="48.68985" lon="5.70632">
        <ele>241.2</ele>
        <time>2020-06-29T17:17:41Z</time>
      </trkpt>
      <trkpt lat="48.68985" lon="5.70635">
        <ele>241.2</ele>
        <time>2020-06-29T17:17:42Z</time>
      </trkpt>
      <trkpt lat="48.68984" lon="5.70645">
        <ele>241.1</ele>
        <time>2020-06-29T17:17:43Z</time>
      </trkpt>
      <trkpt lat="48.68984" lon="5.70651">
        <ele>241.1</ele>
        <time>2020-06-29T17:17:44Z</time>
      </trkpt>
      <trkpt lat="48.68983" lon="5.70656">
        <ele>241.1</ele>
        <time>2020-06-29T17:17:45Z</time>
      </trkpt>
      <trkpt lat="48.68983" lon="5.70664">
        <ele>241.1</ele>
        <time>2020-06-29T17:17:46Z</time>
      </trkpt>
      <trkpt lat="48.68983" lon="5.7067">
        <ele>241.1</ele>
        <time>2020-06-29T17:17:47Z</time>
      </trkpt>
      <trkpt lat="48.68982" lon="5.70677">
        <ele>241.1</ele>
        <time>2020-06-29T17:17:48Z</time>
      </trkpt>
      <trkpt lat="48.68982" lon="5.70685">
        <ele>241.1</ele>
        <time>2020-06-29T17:17:49Z</time>
      </trkpt>
      <trkpt lat="48.68982" lon="5.70693">
        <ele>241.2</ele>
        <time>2020-06-29T17:17:50Z</time>
      </trkpt>
      <trkpt lat="48.68982" lon="5.70701">
        <ele>241.2</ele>
        <time>2020-06-29T17:17:51Z</time>
      </trkpt>
      <trkpt lat="48.68981" lon="5.70707">
        <ele>241.2</ele>
        <time>2020-06-29T17:17:52Z</time>
      </trkpt>
      <trkpt lat="48.68982" lon="5.70713">
        <ele>241.2</ele>
        <time>2020-06-29T17:17:53Z</time>
      </trkpt>
      <trkpt lat="48.68982" lon="5.70719">
        <ele>241.2</ele>
        <time>2020-06-29T17:17:54Z</time>
      </trkpt>
      <trkpt lat="48.68981" lon="5.70727">
        <ele>241.2</ele>
        <time>2020-06-29T17:17:55Z</time>
      </trkpt>
      <trkpt lat="48.68981" lon="5.70734">
        <ele>241.2</ele>
        <time>2020-06-29T17:17:56Z</time>
      </trkpt>
      <trkpt lat="48.68981" lon="5.70742">
        <ele>241.2</ele>
        <time>2020-06-29T17:17:57Z</time>
      </trkpt>
      <trkpt lat="48.68981" lon="5.70748">
        <ele>241.2</ele>
        <time>2020-06-29T17:17:58Z</time>
      </trkpt>
      <trkpt lat="48.6898" lon="5.70757">
        <ele>241.2</ele>
        <time>2020-06-29T17:17:59Z</time>
      </trkpt>
      <trkpt lat="48.68981" lon="5.70766">
        <ele>241.2</ele>
        <time>2020-06-29T17:18:00Z</time>
      </trkpt>
      <trkpt lat="48.68981" lon="5.70773">
        <ele>241.2</ele>
        <time>2020-06-29T17:18:01Z</time>
      </trkpt>
      <trkpt lat="48.68981" lon="5.7078">
        <ele>241.2</ele>
        <time>2020-06-29T17:18:02Z</time>
      </trkpt>
      <trkpt lat="48.68982" lon="5.70785">
        <ele>241</ele>
        <time>2020-06-29T17:18:03Z</time>
      </trkpt>
      <trkpt lat="48.68985" lon="5.70788">
        <ele>240.8</ele>
        <time>2020-06-29T17:18:04Z</time>
      </trkpt>
      <trkpt lat="48.68989" lon="5.70787">
        <ele>240.5</ele>
        <time>2020-06-29T17:18:05Z</time>
      </trkpt>
      <trkpt lat="48.68996" lon="5.70786">
        <ele>240.1</ele>
        <time>2020-06-29T17:18:06Z</time>
      </trkpt>
      <trkpt lat="48.69003" lon="5.70785">
        <ele>239.8</ele>
        <time>2020-06-29T17:18:07Z</time>
      </trkpt>
      <trkpt lat="48.69008" lon="5.70784">
        <ele>239.5</ele>
        <time>2020-06-29T17:18:08Z</time>
      </trkpt>
      <trkpt lat="48.69014" lon="5.70783">
        <ele>239.2</ele>
        <time>2020-06-29T17:18:09Z</time>
      </trkpt>
      <trkpt lat="48.69019" lon="5.70781">
        <ele>239</ele>
        <time>2020-06-29T17:18:10Z</time>
      </trkpt>
      <trkpt lat="48.69025" lon="5.70777">
        <ele>238.7</ele>
        <time>2020-06-29T17:18:11Z</time>
      </trkpt>
      <trkpt lat="48.6903" lon="5.70774">
        <ele>238.5</ele>
        <time>2020-06-29T17:18:12Z</time>
      </trkpt>
      <trkpt lat="48.69037" lon="5.7077">
        <ele>238.2</ele>
        <time>2020-06-29T17:18:13Z</time>
      </trkpt>
      <trkpt lat="48.69042" lon="5.70768">
        <ele>238.1</ele>
        <time>2020-06-29T17:18:14Z</time>
      </trkpt>
      <trkpt lat="48.69047" lon="5.70766">
        <ele>237.9</ele>
        <time>2020-06-29T17:18:15Z</time>
      </trkpt>
      <trkpt lat="48.69052" lon="5.70764">
        <ele>237.8</ele>
        <time>2020-06-29T17:18:16Z</time>
      </trkpt>
      <trkpt lat="48.69059" lon="5.70761">
        <ele>237.7</ele>
        <time>2020-06-29T17:18:17Z</time>
      </trkpt>
      <trkpt lat="48.69064" lon="5.7076">
        <ele>237.6</ele>
        <time>2020-06-29T17:18:18Z</time>
      </trkpt>
      <trkpt lat="48.6907" lon="5.70757">
        <ele>237.5</ele>
        <time>2020-06-29T17:18:19Z</time>
      </trkpt>
      <trkpt lat="48.69075" lon="5.70755">
        <ele>237.5</ele>
        <time>2020-06-29T17:18:20Z</time>
      </trkpt>
      <trkpt lat="48.6908" lon="5.70754">
        <ele>237.4</ele>
        <time>2020-06-29T17:18:21Z</time>
      </trkpt>
      <trkpt lat="48.69086" lon="5.70751">
        <ele>237.4</ele>
        <time>2020-06-29T17:18:22Z</time>
      </trkpt>
      <trkpt lat="48.69091" lon="5.70749">
        <ele>237.4</ele>
        <time>2020-06-29T17:18:23Z</time>
      </trkpt>
      <trkpt lat="48.69096" lon="5.70747">
        <ele>237.3</ele>
        <time>2020-06-29T17:18:24Z</time>
      </trkpt>
      <trkpt lat="48.69102" lon="5.70745">
        <ele>237.3</ele>
        <time>2020-06-29T17:18:25Z</time>
      </trkpt>
      <trkpt lat="48.69108" lon="5.70743">
        <ele>237.3</ele>
        <time>2020-06-29T17:18:26Z</time>
      </trkpt>
      <trkpt lat="48.69115" lon="5.70741">
        <ele>237.3</ele>
        <time>2020-06-29T17:18:27Z</time>
      </trkpt>
      <trkpt lat="48.6912" lon="5.70739">
        <ele>237.3</ele>
        <time>2020-06-29T17:18:28Z</time>
      </trkpt>
      <trkpt lat="48.69126" lon="5.70737">
        <ele>237.2</ele>
        <time>2020-06-29T17:18:29Z</time>
      </trkpt>
      <trkpt lat="48.69131" lon="5.70736">
        <ele>237.2</ele>
        <time>2020-06-29T17:18:30Z</time>
      </trkpt>
      <trkpt lat="48.69137" lon="5.70735">
        <ele>237.2</ele>
        <time>2020-06-29T17:18:31Z</time>
      </trkpt>
      <trkpt lat="48.69142" lon="5.70732">
        <ele>237.2</ele>
        <time>2020-06-29T17:18:32Z</time>
      </trkpt>
      <trkpt lat="48.69148" lon="5.70729">
        <ele>237.1</ele>
        <time>2020-06-29T17:18:33Z</time>
      </trkpt>
      <trkpt lat="48.69153" lon="5.70727">
        <ele>237.1</ele>
        <time>2020-06-29T17:18:34Z</time>
      </trkpt>
      <trkpt lat="48.69159" lon="5.70725">
        <ele>237.1</ele>
        <time>2020-06-29T17:18:35Z</time>
      </trkpt>
      <trkpt lat="48.69164" lon="5.70723">
        <ele>237.1</ele>
        <time>2020-06-29T17:18:36Z</time>
      </trkpt>
      <trkpt lat="48.69169" lon="5.70722">
        <ele>237.1</ele>
        <time>2020-06-29T17:18:37Z</time>
      </trkpt>
      <trkpt lat="48.69175" lon="5.70721">
        <ele>237.1</ele>
        <time>2020-06-29T17:18:38Z</time>
      </trkpt>
      <trkpt lat="48.69181" lon="5.70719">
        <ele>237.1</ele>
        <time>2020-06-29T17:18:39Z</time>
      </trkpt>
      <trkpt lat="48.69186" lon="5.70717">
        <ele>237.1</ele>
        <time>2020-06-29T17:18:40Z</time>
      </trkpt>
      <trkpt lat="48.69193" lon="5.70716">
        <ele>237.1</ele>
        <time>2020-06-29T17:18:41Z</time>
      </trkpt>
      <trkpt lat="48.692" lon="5.70712">
        <ele>237.1</ele>
        <time>2020-06-29T17:18:42Z</time>
      </trkpt>
      <trkpt lat="48.69205" lon="5.7071">
        <ele>237.1</ele>
        <time>2020-06-29T17:18:43Z</time>
      </trkpt>
      <trkpt lat="48.6921" lon="5.70708">
        <ele>237.1</ele>
        <time>2020-06-29T17:18:44Z</time>
      </trkpt>
      <trkpt lat="48.69214" lon="5.70706">
        <ele>237.2</ele>
        <time>2020-06-29T17:18:45Z</time>
      </trkpt>
      <trkpt lat="48.69219" lon="5.70704">
        <ele>237.2</ele>
        <time>2020-06-29T17:18:46Z</time>
      </trkpt>
      <trkpt lat="48.69224" lon="5.70702">
        <ele>237.2</ele>
        <time>2020-06-29T17:18:47Z</time>
      </trkpt>
      <trkpt lat="48.6923" lon="5.707">
        <ele>237.2</ele>
        <time>2020-06-29T17:18:48Z</time>
      </trkpt>
      <trkpt lat="48.69235" lon="5.70698">
        <ele>237.2</ele>
        <time>2020-06-29T17:18:49Z</time>
      </trkpt>
      <trkpt lat="48.6924" lon="5.70696">
        <ele>237.2</ele>
        <time>2020-06-29T17:18:50Z</time>
      </trkpt>
      <trkpt lat="48.69246" lon="5.70694">
        <ele>237.2</ele>
        <time>2020-06-29T17:18:51Z</time>
      </trkpt>
      <trkpt lat="48.69252" lon="5.70692">
        <ele>237.2</ele>
        <time>2020-06-29T17:18:52Z</time>
      </trkpt>
      <trkpt lat="48.69258" lon="5.7069">
        <ele>237.2</ele>
        <time>2020-06-29T17:18:53Z</time>
      </trkpt>
      <trkpt lat="48.69264" lon="5.70688">
        <ele>237.2</ele>
        <time>2020-06-29T17:18:54Z</time>
      </trkpt>
      <trkpt lat="48.6927" lon="5.70686">
        <ele>237.1</ele>
        <time>2020-06-29T17:18:55Z</time>
      </trkpt>
      <trkpt lat="48.69276" lon="5.70684">
        <ele>237.1</ele>
        <time>2020-06-29T17:18:56Z</time>
      </trkpt>
      <trkpt lat="48.69281" lon="5.70681">
        <ele>237.1</ele>
        <time>2020-06-29T17:18:57Z</time>
      </trkpt>
      <trkpt lat="48.69287" lon="5.70679">
        <ele>237.1</ele>
        <time>2020-06-29T17:18:58Z</time>
      </trkpt>
      <trkpt lat="48.69293" lon="5.70677">
        <ele>237.1</ele>
        <time>2020-06-29T17:18:59Z</time>
      </trkpt>
      <trkpt lat="48.69299" lon="5.70675">
        <ele>237.1</ele>
        <time>2020-06-29T17:19:00Z</time>
      </trkpt>
      <trkpt lat="48.69304" lon="5.70672">
        <ele>237.1</ele>
        <time>2020-06-29T17:19:01Z</time>
      </trkpt>
      <trkpt lat="48.6931" lon="5.7067">
        <ele>237.1</ele>
        <time>2020-06-29T17:19:02Z</time>
      </trkpt>
      <trkpt lat="48.69317" lon="5.70667">
        <ele>237</ele>
        <time>2020-06-29T17:19:03Z</time>
      </trkpt>
      <trkpt lat="48.69324" lon="5.70665">
        <ele>237</ele>
        <time>2020-06-29T17:19:04Z</time>
      </trkpt>
      <trkpt lat="48.69329" lon="5.70664">
        <ele>237</ele>
        <time>2020-06-29T17:19:05Z</time>
      </trkpt>
      <trkpt lat="48.69333" lon="5.70661">
        <ele>237</ele>
        <time>2020-06-29T17:19:06Z</time>
      </trkpt>
      <trkpt lat="48.6934" lon="5.70659">
        <ele>237</ele>
        <time>2020-06-29T17:19:07Z</time>
      </trkpt>
      <trkpt lat="48.69346" lon="5.70657">
        <ele>237</ele>
        <time>2020-06-29T17:19:08Z</time>
      </trkpt>
      <trkpt lat="48.69352" lon="5.70654">
        <ele>237</ele>
        <time>2020-06-29T17:19:09Z</time>
      </trkpt>
      <trkpt lat="48.69359" lon="5.70651">
        <ele>237</ele>
        <time>2020-06-29T17:19:10Z</time>
      </trkpt>
      <trkpt lat="48.69365" lon="5.7065">
        <ele>237</ele>
        <time>2020-06-29T17:19:11Z</time>
      </trkpt>
      <trkpt lat="48.6937" lon="5.70648">
        <ele>237</ele>
        <time>2020-06-29T17:19:12Z</time>
      </trkpt>
      <trkpt lat="48.69376" lon="5.70646">
        <ele>237.1</ele>
        <time>2020-06-29T17:19:13Z</time>
      </trkpt>
      <trkpt lat="48.69382" lon="5.70644">
        <ele>237.1</ele>
        <time>2020-06-29T17:19:14Z</time>
      </trkpt>
      <trkpt lat="48.69388" lon="5.70643">
        <ele>237.1</ele>
        <time>2020-06-29T17:19:15Z</time>
      </trkpt>
      <trkpt lat="48.69394" lon="5.70642">
        <ele>237.1</ele>
        <time>2020-06-29T17:19:16Z</time>
      </trkpt>
      <trkpt lat="48.69399" lon="5.7064">
        <ele>237.1</ele>
        <time>2020-06-29T17:19:17Z</time>
      </trkpt>
      <trkpt lat="48.69405" lon="5.70637">
        <ele>237</ele>
        <time>2020-06-29T17:19:18Z</time>
      </trkpt>
      <trkpt lat="48.69412" lon="5.70635">
        <ele>237</ele>
        <time>2020-06-29T17:19:19Z</time>
      </trkpt>
      <trkpt lat="48.69417" lon="5.70632">
        <ele>237</ele>
        <time>2020-06-29T17:19:20Z</time>
      </trkpt>
      <trkpt lat="48.69424" lon="5.7063">
        <ele>237</ele>
        <time>2020-06-29T17:19:21Z</time>
      </trkpt>
      <trkpt lat="48.69429" lon="5.70627">
        <ele>237</ele>
        <time>2020-06-29T17:19:22Z</time>
      </trkpt>
      <trkpt lat="48.69435" lon="5.70624">
        <ele>237</ele>
        <time>2020-06-29T17:19:23Z</time>
      </trkpt>
      <trkpt lat="48.69441" lon="5.70622">
        <ele>237</ele>
        <time>2020-06-29T17:19:24Z</time>
      </trkpt>
      <trkpt lat="48.69447" lon="5.70619">
        <ele>236.9</ele>
        <time>2020-06-29T17:19:25Z</time>
      </trkpt>
      <trkpt lat="48.69452" lon="5.70617">
        <ele>236.9</ele>
        <time>2020-06-29T17:19:26Z</time>
      </trkpt>
      <trkpt lat="48.69457" lon="5.70615">
        <ele>236.9</ele>
        <time>2020-06-29T17:19:27Z</time>
      </trkpt>
      <trkpt lat="48.69461" lon="5.70613">
        <ele>236.9</ele>
        <time>2020-06-29T17:19:28Z</time>
      </trkpt>
      <trkpt lat="48.69467" lon="5.70611">
        <ele>236.9</ele>
        <time>2020-06-29T17:19:29Z</time>
      </trkpt>
      <trkpt lat="48.69472" lon="5.7061">
        <ele>236.9</ele>
        <time>2020-06-29T17:19:30Z</time>
      </trkpt>
      <trkpt lat="48.69478" lon="5.70608">
        <ele>236.9</ele>
        <time>2020-06-29T17:19:31Z</time>
      </trkpt>
      <trkpt lat="48.69483" lon="5.70606">
        <ele>236.9</ele>
        <time>2020-06-29T17:19:32Z</time>
      </trkpt>
      <trkpt lat="48.69491" lon="5.70605">
        <ele>236.9</ele>
        <time>2020-06-29T17:19:33Z</time>
      </trkpt>
      <trkpt lat="48.69497" lon="5.70603">
        <ele>236.9</ele>
        <time>2020-06-29T17:19:34Z</time>
      </trkpt>
      <trkpt lat="48.69502" lon="5.70601">
        <ele>236.9</ele>
        <time>2020-06-29T17:19:35Z</time>
      </trkpt>
      <trkpt lat="48.69508" lon="5.70598">
        <ele>236.9</ele>
        <time>2020-06-29T17:19:36Z</time>
      </trkpt>
      <trkpt lat="48.69514" lon="5.70596">
        <ele>236.9</ele>
        <time>2020-06-29T17:19:37Z</time>
      </trkpt>
      <trkpt lat="48.69521" lon="5.70594">
        <ele>236.9</ele>
        <time>2020-06-29T17:19:38Z</time>
      </trkpt>
      <trkpt lat="48.69527" lon="5.70592">
        <ele>236.9</ele>
        <time>2020-06-29T17:19:39Z</time>
      </trkpt>
      <trkpt lat="48.69533" lon="5.7059">
        <ele>236.8</ele>
        <time>2020-06-29T17:19:40Z</time>
      </trkpt>
      <trkpt lat="48.69539" lon="5.70588">
        <ele>236.8</ele>
        <time>2020-06-29T17:19:41Z</time>
      </trkpt>
      <trkpt lat="48.69545" lon="5.70587">
        <ele>236.8</ele>
        <time>2020-06-29T17:19:42Z</time>
      </trkpt>
      <trkpt lat="48.6955" lon="5.70585">
        <ele>236.7</ele>
        <time>2020-06-29T17:19:43Z</time>
      </trkpt>
      <trkpt lat="48.69555" lon="5.70584">
        <ele>236.7</ele>
        <time>2020-06-29T17:19:44Z</time>
      </trkpt>
      <trkpt lat="48.69561" lon="5.70581">
        <ele>236.7</ele>
        <time>2020-06-29T17:19:45Z</time>
      </trkpt>
      <trkpt lat="48.69565" lon="5.70577">
        <ele>236.7</ele>
        <time>2020-06-29T17:19:46Z</time>
      </trkpt>
      <trkpt lat="48.69572" lon="5.70576">
        <ele>236.6</ele>
        <time>2020-06-29T17:19:47Z</time>
      </trkpt>
      <trkpt lat="48.69577" lon="5.70573">
        <ele>236.6</ele>
        <time>2020-06-29T17:19:48Z</time>
      </trkpt>
      <trkpt lat="48.69581" lon="5.70572">
        <ele>236.6</ele>
        <time>2020-06-29T17:19:49Z</time>
      </trkpt>
      <trkpt lat="48.6959" lon="5.70568">
        <ele>236.6</ele>
        <time>2020-06-29T17:19:50Z</time>
      </trkpt>
      <trkpt lat="48.69597" lon="5.70565">
        <ele>236.6</ele>
        <time>2020-06-29T17:19:51Z</time>
      </trkpt>
      <trkpt lat="48.69603" lon="5.70563">
        <ele>236.6</ele>
        <time>2020-06-29T17:19:52Z</time>
      </trkpt>
      <trkpt lat="48.69608" lon="5.70561">
        <ele>236.5</ele>
        <time>2020-06-29T17:19:53Z</time>
      </trkpt>
      <trkpt lat="48.69615" lon="5.7056">
        <ele>236.5</ele>
        <time>2020-06-29T17:19:54Z</time>
      </trkpt>
      <trkpt lat="48.6962" lon="5.70558">
        <ele>236.5</ele>
        <time>2020-06-29T17:19:55Z</time>
      </trkpt>
      <trkpt lat="48.69626" lon="5.70555">
        <ele>236.5</ele>
        <time>2020-06-29T17:19:56Z</time>
      </trkpt>
      <trkpt lat="48.69632" lon="5.70553">
        <ele>236.5</ele>
        <time>2020-06-29T17:19:57Z</time>
      </trkpt>
      <trkpt lat="48.69637" lon="5.70552">
        <ele>236.5</ele>
        <time>2020-06-29T17:19:58Z</time>
      </trkpt>
      <trkpt lat="48.69642" lon="5.7055">
        <ele>236.5</ele>
        <time>2020-06-29T17:19:59Z</time>
      </trkpt>
      <trkpt lat="48.69648" lon="5.70548">
        <ele>236.5</ele>
        <time>2020-06-29T17:20:00Z</time>
      </trkpt>
      <trkpt lat="48.69654" lon="5.70545">
        <ele>236.5</ele>
        <time>2020-06-29T17:20:01Z</time>
      </trkpt>
      <trkpt lat="48.6966" lon="5.70542">
        <ele>236.5</ele>
        <time>2020-06-29T17:20:02Z</time>
      </trkpt>
      <trkpt lat="48.69666" lon="5.70539">
        <ele>236.5</ele>
        <time>2020-06-29T17:20:03Z</time>
      </trkpt>
      <trkpt lat="48.69671" lon="5.70538">
        <ele>236.5</ele>
        <time>2020-06-29T17:20:04Z</time>
      </trkpt>
      <trkpt lat="48.69678" lon="5.70537">
        <ele>236.5</ele>
        <time>2020-06-29T17:20:05Z</time>
      </trkpt>
      <trkpt lat="48.69684" lon="5.70534">
        <ele>236.5</ele>
        <time>2020-06-29T17:20:06Z</time>
      </trkpt>
      <trkpt lat="48.69691" lon="5.70532">
        <ele>236.6</ele>
        <time>2020-06-29T17:20:07Z</time>
      </trkpt>
      <trkpt lat="48.69697" lon="5.7053">
        <ele>236.6</ele>
        <time>2020-06-29T17:20:08Z</time>
      </trkpt>
      <trkpt lat="48.69703" lon="5.70527">
        <ele>236.6</ele>
        <time>2020-06-29T17:20:09Z</time>
      </trkpt>
      <trkpt lat="48.69711" lon="5.70525">
        <ele>236.7</ele>
        <time>2020-06-29T17:20:10Z</time>
      </trkpt>
      <trkpt lat="48.69717" lon="5.70523">
        <ele>236.7</ele>
        <time>2020-06-29T17:20:11Z</time>
      </trkpt>
      <trkpt lat="48.69723" lon="5.70521">
        <ele>236.8</ele>
        <time>2020-06-29T17:20:12Z</time>
      </trkpt>
      <trkpt lat="48.69729" lon="5.7052">
        <ele>236.9</ele>
        <time>2020-06-29T17:20:13Z</time>
      </trkpt>
      <trkpt lat="48.69735" lon="5.70518">
        <ele>237</ele>
        <time>2020-06-29T17:20:14Z</time>
      </trkpt>
      <trkpt lat="48.69741" lon="5.70515">
        <ele>237</ele>
        <time>2020-06-29T17:20:15Z</time>
      </trkpt>
      <trkpt lat="48.69747" lon="5.70513">
        <ele>237.2</ele>
        <time>2020-06-29T17:20:16Z</time>
      </trkpt>
      <trkpt lat="48.69753" lon="5.70511">
        <ele>237.3</ele>
        <time>2020-06-29T17:20:17Z</time>
      </trkpt>
      <trkpt lat="48.69758" lon="5.70509">
        <ele>237.5</ele>
        <time>2020-06-29T17:20:18Z</time>
      </trkpt>
      <trkpt lat="48.69764" lon="5.70507">
        <ele>237.6</ele>
        <time>2020-06-29T17:20:19Z</time>
      </trkpt>
      <trkpt lat="48.69769" lon="5.70504">
        <ele>237.8</ele>
        <time>2020-06-29T17:20:20Z</time>
      </trkpt>
      <trkpt lat="48.69773" lon="5.70502">
        <ele>238</ele>
        <time>2020-06-29T17:20:21Z</time>
      </trkpt>
      <trkpt lat="48.69778" lon="5.70501">
        <ele>238.1</ele>
        <time>2020-06-29T17:20:22Z</time>
      </trkpt>
      <trkpt lat="48.69783" lon="5.70499">
        <ele>238.3</ele>
        <time>2020-06-29T17:20:23Z</time>
      </trkpt>
      <trkpt lat="48.69788" lon="5.70497">
        <ele>238.5</ele>
        <time>2020-06-29T17:20:24Z</time>
      </trkpt>
      <trkpt lat="48.69793" lon="5.70495">
        <ele>238.7</ele>
        <time>2020-06-29T17:20:25Z</time>
      </trkpt>
      <trkpt lat="48.69798" lon="5.70493">
        <ele>238.9</ele>
        <time>2020-06-29T17:20:26Z</time>
      </trkpt>
      <trkpt lat="48.69804" lon="5.7049">
        <ele>239.2</ele>
        <time>2020-06-29T17:20:27Z</time>
      </trkpt>
      <trkpt lat="48.69809" lon="5.70489">
        <ele>239.4</ele>
        <time>2020-06-29T17:20:28Z</time>
      </trkpt>
      <trkpt lat="48.69812" lon="5.70488">
        <ele>239.5</ele>
        <time>2020-06-29T17:20:29Z</time>
      </trkpt>
      <trkpt lat="48.69818" lon="5.70485">
        <ele>239.7</ele>
        <time>2020-06-29T17:20:30Z</time>
      </trkpt>
      <trkpt lat="48.69822" lon="5.70484">
        <ele>239.9</ele>
        <time>2020-06-29T17:20:31Z</time>
      </trkpt>
      <trkpt lat="48.69827" lon="5.70484">
        <ele>240.1</ele>
        <time>2020-06-29T17:20:32Z</time>
      </trkpt>
      <trkpt lat="48.69831" lon="5.70487">
        <ele>240.1</ele>
        <time>2020-06-29T17:20:33Z</time>
      </trkpt>
      <trkpt lat="48.69835" lon="5.7049">
        <ele>240.1</ele>
        <time>2020-06-29T17:20:34Z</time>
      </trkpt>
      <trkpt lat="48.69841" lon="5.70494">
        <ele>240.1</ele>
        <time>2020-06-29T17:20:35Z</time>
      </trkpt>
      <trkpt lat="48.69845" lon="5.70498">
        <ele>240.2</ele>
        <time>2020-06-29T17:20:36Z</time>
      </trkpt>
      <trkpt lat="48.69849" lon="5.70503">
        <ele>240.2</ele>
        <time>2020-06-29T17:20:37Z</time>
      </trkpt>
      <trkpt lat="48.69853" lon="5.70508">
        <ele>240.3</ele>
        <time>2020-06-29T17:20:38Z</time>
      </trkpt>
      <trkpt lat="48.69858" lon="5.70513">
        <ele>240.3</ele>
        <time>2020-06-29T17:20:39Z</time>
      </trkpt>
      <trkpt lat="48.69864" lon="5.70518">
        <ele>240.4</ele>
        <time>2020-06-29T17:20:40Z</time>
      </trkpt>
      <trkpt lat="48.69868" lon="5.70522">
        <ele>240.5</ele>
        <time>2020-06-29T17:20:41Z</time>
      </trkpt>
      <trkpt lat="48.69873" lon="5.70527">
        <ele>240.6</ele>
        <time>2020-06-29T17:20:42Z</time>
      </trkpt>
      <trkpt lat="48.69877" lon="5.70531">
        <ele>240.7</ele>
        <time>2020-06-29T17:20:43Z</time>
      </trkpt>
      <trkpt lat="48.69882" lon="5.70537">
        <ele>240.8</ele>
        <time>2020-06-29T17:20:44Z</time>
      </trkpt>
      <trkpt lat="48.69887" lon="5.70544">
        <ele>240.9</ele>
        <time>2020-06-29T17:20:45Z</time>
      </trkpt>
      <trkpt lat="48.69891" lon="5.70548">
        <ele>241</ele>
        <time>2020-06-29T17:20:46Z</time>
      </trkpt>
      <trkpt lat="48.69896" lon="5.70552">
        <ele>241.1</ele>
        <time>2020-06-29T17:20:47Z</time>
      </trkpt>
      <trkpt lat="48.69899" lon="5.70557">
        <ele>241.2</ele>
        <time>2020-06-29T17:20:48Z</time>
      </trkpt>
      <trkpt lat="48.69903" lon="5.70561">
        <ele>241.3</ele>
        <time>2020-06-29T17:20:49Z</time>
      </trkpt>
      <trkpt lat="48.69907" lon="5.70565">
        <ele>241.4</ele>
        <time>2020-06-29T17:20:50Z</time>
      </trkpt>
      <trkpt lat="48.69911" lon="5.70568">
        <ele>241.4</ele>
        <time>2020-06-29T17:20:51Z</time>
      </trkpt>
      <trkpt lat="48.69916" lon="5.70573">
        <ele>241.5</ele>
        <time>2020-06-29T17:20:52Z</time>
      </trkpt>
      <trkpt lat="48.6992" lon="5.70577">
        <ele>241.6</ele>
        <time>2020-06-29T17:20:53Z</time>
      </trkpt>
      <trkpt lat="48.69925" lon="5.70581">
        <ele>241.6</ele>
        <time>2020-06-29T17:20:54Z</time>
      </trkpt>
      <trkpt lat="48.69931" lon="5.70584">
        <ele>241.7</ele>
        <time>2020-06-29T17:20:55Z</time>
      </trkpt>
      <trkpt lat="48.69935" lon="5.70587">
        <ele>241.8</ele>
        <time>2020-06-29T17:20:56Z</time>
      </trkpt>
      <trkpt lat="48.6994" lon="5.70589">
        <ele>241.8</ele>
        <time>2020-06-29T17:20:57Z</time>
      </trkpt>
      <trkpt lat="48.69945" lon="5.70591">
        <ele>241.9</ele>
        <time>2020-06-29T17:20:58Z</time>
      </trkpt>
      <trkpt lat="48.6995" lon="5.70592">
        <ele>241.9</ele>
        <time>2020-06-29T17:20:59Z</time>
      </trkpt>
      <trkpt lat="48.69955" lon="5.70594">
        <ele>241.9</ele>
        <time>2020-06-29T17:21:00Z</time>
      </trkpt>
      <trkpt lat="48.6996" lon="5.70595">
        <ele>241.9</ele>
        <time>2020-06-29T17:21:01Z</time>
      </trkpt>
      <trkpt lat="48.69964" lon="5.70596">
        <ele>241.9</ele>
        <time>2020-06-29T17:21:02Z</time>
      </trkpt>
      <trkpt lat="48.69968" lon="5.70596">
        <ele>241.9</ele>
        <time>2020-06-29T17:21:03Z</time>
      </trkpt>
      <trkpt lat="48.69973" lon="5.70597">
        <ele>241.9</ele>
        <time>2020-06-29T17:21:04Z</time>
      </trkpt>
      <trkpt lat="48.69978" lon="5.70598">
        <ele>241.9</ele>
        <time>2020-06-29T17:21:05Z</time>
      </trkpt>
      <trkpt lat="48.69984" lon="5.70599">
        <ele>241.8</ele>
        <time>2020-06-29T17:21:06Z</time>
      </trkpt>
      <trkpt lat="48.6999" lon="5.70597">
        <ele>241.8</ele>
        <time>2020-06-29T17:21:07Z</time>
      </trkpt>
      <trkpt lat="48.69996" lon="5.70596">
        <ele>241.7</ele>
        <time>2020-06-29T17:21:08Z</time>
      </trkpt>
      <trkpt lat="48.70001" lon="5.70594">
        <ele>241.7</ele>
        <time>2020-06-29T17:21:09Z</time>
      </trkpt>
      <trkpt lat="48.70006" lon="5.70591">
        <ele>241.7</ele>
        <time>2020-06-29T17:21:10Z</time>
      </trkpt>
      <trkpt lat="48.70012" lon="5.70588">
        <ele>241.6</ele>
        <time>2020-06-29T17:21:11Z</time>
      </trkpt>
      <trkpt lat="48.70017" lon="5.70584">
        <ele>241.6</ele>
        <time>2020-06-29T17:21:12Z</time>
      </trkpt>
      <trkpt lat="48.70024" lon="5.7058">
        <ele>241.6</ele>
        <time>2020-06-29T17:21:13Z</time>
      </trkpt>
      <trkpt lat="48.70029" lon="5.70576">
        <ele>241.6</ele>
        <time>2020-06-29T17:21:14Z</time>
      </trkpt>
      <trkpt lat="48.70034" lon="5.70571">
        <ele>241.5</ele>
        <time>2020-06-29T17:21:15Z</time>
      </trkpt>
      <trkpt lat="48.7004" lon="5.70567">
        <ele>241.5</ele>
        <time>2020-06-29T17:21:16Z</time>
      </trkpt>
      <trkpt lat="48.70044" lon="5.70561">
        <ele>241.5</ele>
        <time>2020-06-29T17:21:17Z</time>
      </trkpt>
      <trkpt lat="48.70048" lon="5.70555">
        <ele>241.5</ele>
        <time>2020-06-29T17:21:18Z</time>
      </trkpt>
      <trkpt lat="48.70051" lon="5.70549">
        <ele>241.5</ele>
        <time>2020-06-29T17:21:19Z</time>
      </trkpt>
      <trkpt lat="48.70055" lon="5.70542">
        <ele>241.5</ele>
        <time>2020-06-29T17:21:20Z</time>
      </trkpt>
      <trkpt lat="48.70059" lon="5.70535">
        <ele>241.6</ele>
        <time>2020-06-29T17:21:21Z</time>
      </trkpt>
      <trkpt lat="48.70062" lon="5.70527">
        <ele>241.4</ele>
        <time>2020-06-29T17:21:22Z</time>
      </trkpt>
      <trkpt lat="48.70066" lon="5.7052">
        <ele>241.3</ele>
        <time>2020-06-29T17:21:23Z</time>
      </trkpt>
      <trkpt lat="48.70069" lon="5.70513">
        <ele>241.2</ele>
        <time>2020-06-29T17:21:24Z</time>
      </trkpt>
      <trkpt lat="48.70072" lon="5.70505">
        <ele>241.1</ele>
        <time>2020-06-29T17:21:25Z</time>
      </trkpt>
      <trkpt lat="48.70074" lon="5.70499">
        <ele>241</ele>
        <time>2020-06-29T17:21:26Z</time>
      </trkpt>
      <trkpt lat="48.70078" lon="5.70492">
        <ele>240.9</ele>
        <time>2020-06-29T17:21:27Z</time>
      </trkpt>
      <trkpt lat="48.70082" lon="5.70486">
        <ele>240.8</ele>
        <time>2020-06-29T17:21:28Z</time>
      </trkpt>
      <trkpt lat="48.70086" lon="5.70479">
        <ele>240.7</ele>
        <time>2020-06-29T17:21:29Z</time>
      </trkpt>
      <trkpt lat="48.70089" lon="5.70472">
        <ele>240.7</ele>
        <time>2020-06-29T17:21:30Z</time>
      </trkpt>
      <trkpt lat="48.70093" lon="5.70465">
        <ele>240.6</ele>
        <time>2020-06-29T17:21:31Z</time>
      </trkpt>
      <trkpt lat="48.70098" lon="5.70456">
        <ele>240.5</ele>
        <time>2020-06-29T17:21:32Z</time>
      </trkpt>
      <trkpt lat="48.701" lon="5.70453">
        <ele>240.5</ele>
        <time>2020-06-29T17:21:33Z</time>
      </trkpt>
      <trkpt lat="48.70105" lon="5.70445">
        <ele>240.4</ele>
        <time>2020-06-29T17:21:34Z</time>
      </trkpt>
      <trkpt lat="48.70109" lon="5.70437">
        <ele>240.3</ele>
        <time>2020-06-29T17:21:35Z</time>
      </trkpt>
      <trkpt lat="48.70113" lon="5.70429">
        <ele>240.2</ele>
        <time>2020-06-29T17:21:36Z</time>
      </trkpt>
      <trkpt lat="48.70117" lon="5.70422">
        <ele>240.1</ele>
        <time>2020-06-29T17:21:37Z</time>
      </trkpt>
      <trkpt lat="48.70121" lon="5.70415">
        <ele>240</ele>
        <time>2020-06-29T17:21:38Z</time>
      </trkpt>
      <trkpt lat="48.70124" lon="5.70409">
        <ele>240</ele>
        <time>2020-06-29T17:21:39Z</time>
      </trkpt>
      <trkpt lat="48.70127" lon="5.70401">
        <ele>239.9</ele>
        <time>2020-06-29T17:21:40Z</time>
      </trkpt>
      <trkpt lat="48.70131" lon="5.70394">
        <ele>239.8</ele>
        <time>2020-06-29T17:21:41Z</time>
      </trkpt>
      <trkpt lat="48.70134" lon="5.70387">
        <ele>239.8</ele>
        <time>2020-06-29T17:21:42Z</time>
      </trkpt>
      <trkpt lat="48.70138" lon="5.70378">
        <ele>239.7</ele>
        <time>2020-06-29T17:21:43Z</time>
      </trkpt>
      <trkpt lat="48.70142" lon="5.7037">
        <ele>239.7</ele>
        <time>2020-06-29T17:21:44Z</time>
      </trkpt>
      <trkpt lat="48.70144" lon="5.70366">
        <ele>239.6</ele>
        <time>2020-06-29T17:21:45Z</time>
      </trkpt>
      <trkpt lat="48.70149" lon="5.70359">
        <ele>239.6</ele>
        <time>2020-06-29T17:21:46Z</time>
      </trkpt>
      <trkpt lat="48.70154" lon="5.70351">
        <ele>239.5</ele>
        <time>2020-06-29T17:21:47Z</time>
      </trkpt>
      <trkpt lat="48.70159" lon="5.70344">
        <ele>239.5</ele>
        <time>2020-06-29T17:21:48Z</time>
      </trkpt>
      <trkpt lat="48.70163" lon="5.70336">
        <ele>239.5</ele>
        <time>2020-06-29T17:21:49Z</time>
      </trkpt>
      <trkpt lat="48.70168" lon="5.70329">
        <ele>239.5</ele>
        <time>2020-06-29T17:21:50Z</time>
      </trkpt>
      <trkpt lat="48.70172" lon="5.70321">
        <ele>239.5</ele>
        <time>2020-06-29T17:21:51Z</time>
      </trkpt>
      <trkpt lat="48.70176" lon="5.70314">
        <ele>239.4</ele>
        <time>2020-06-29T17:21:52Z</time>
      </trkpt>
      <trkpt lat="48.7018" lon="5.70307">
        <ele>239.4</ele>
        <time>2020-06-29T17:21:53Z</time>
      </trkpt>
      <trkpt lat="48.70183" lon="5.70302">
        <ele>239.4</ele>
        <time>2020-06-29T17:21:54Z</time>
      </trkpt>
      <trkpt lat="48.70186" lon="5.70295">
        <ele>239.5</ele>
        <time>2020-06-29T17:21:55Z</time>
      </trkpt>
      <trkpt lat="48.7019" lon="5.70288">
        <ele>239.5</ele>
        <time>2020-06-29T17:21:56Z</time>
      </trkpt>
      <trkpt lat="48.70194" lon="5.7028">
        <ele>239.5</ele>
        <time>2020-06-29T17:21:57Z</time>
      </trkpt>
      <trkpt lat="48.70198" lon="5.70272">
        <ele>239.6</ele>
        <time>2020-06-29T17:21:58Z</time>
      </trkpt>
      <trkpt lat="48.70203" lon="5.70265">
        <ele>239.6</ele>
        <time>2020-06-29T17:21:59Z</time>
      </trkpt>
      <trkpt lat="48.70207" lon="5.70258">
        <ele>239.6</ele>
        <time>2020-06-29T17:22:00Z</time>
      </trkpt>
      <trkpt lat="48.7021" lon="5.70251">
        <ele>239.6</ele>
        <time>2020-06-29T17:22:01Z</time>
      </trkpt>
      <trkpt lat="48.70213" lon="5.70245">
        <ele>239.6</ele>
        <time>2020-06-29T17:22:02Z</time>
      </trkpt>
      <trkpt lat="48.70217" lon="5.70235">
        <ele>239.6</ele>
        <time>2020-06-29T17:22:03Z</time>
      </trkpt>
      <trkpt lat="48.7022" lon="5.70229">
        <ele>239.6</ele>
        <time>2020-06-29T17:22:04Z</time>
      </trkpt>
      <trkpt lat="48.70223" lon="5.70222">
        <ele>239.6</ele>
        <time>2020-06-29T17:22:05Z</time>
      </trkpt>
      <trkpt lat="48.70226" lon="5.70217">
        <ele>239.6</ele>
        <time>2020-06-29T17:22:06Z</time>
      </trkpt>
      <trkpt lat="48.70229" lon="5.70209">
        <ele>239.6</ele>
        <time>2020-06-29T17:22:07Z</time>
      </trkpt>
      <trkpt lat="48.70232" lon="5.70203">
        <ele>239.6</ele>
        <time>2020-06-29T17:22:08Z</time>
      </trkpt>
      <trkpt lat="48.70234" lon="5.70198">
        <ele>239.6</ele>
        <time>2020-06-29T17:22:09Z</time>
      </trkpt>
      <trkpt lat="48.70236" lon="5.70192">
        <ele>239.6</ele>
        <time>2020-06-29T17:22:10Z</time>
      </trkpt>
      <trkpt lat="48.70239" lon="5.70186">
        <ele>239.6</ele>
        <time>2020-06-29T17:22:11Z</time>
      </trkpt>
      <trkpt lat="48.70242" lon="5.70179">
        <ele>239.6</ele>
        <time>2020-06-29T17:22:12Z</time>
      </trkpt>
      <trkpt lat="48.70245" lon="5.70172">
        <ele>239.6</ele>
        <time>2020-06-29T17:22:13Z</time>
      </trkpt>
      <trkpt lat="48.70247" lon="5.70167">
        <ele>239.6</ele>
        <time>2020-06-29T17:22:14Z</time>
      </trkpt>
      <trkpt lat="48.7025" lon="5.70159">
        <ele>239.5</ele>
        <time>2020-06-29T17:22:15Z</time>
      </trkpt>
      <trkpt lat="48.70252" lon="5.70153">
        <ele>239.5</ele>
        <time>2020-06-29T17:22:16Z</time>
      </trkpt>
      <trkpt lat="48.70254" lon="5.7015">
        <ele>239.5</ele>
        <time>2020-06-29T17:22:17Z</time>
      </trkpt>
      <trkpt lat="48.70256" lon="5.70142">
        <ele>239.5</ele>
        <time>2020-06-29T17:22:18Z</time>
      </trkpt>
      <trkpt lat="48.70258" lon="5.70135">
        <ele>239.4</ele>
        <time>2020-06-29T17:22:19Z</time>
      </trkpt>
      <trkpt lat="48.7026" lon="5.70127">
        <ele>239.4</ele>
        <time>2020-06-29T17:22:20Z</time>
      </trkpt>
      <trkpt lat="48.70262" lon="5.7012">
        <ele>239.4</ele>
        <time>2020-06-29T17:22:21Z</time>
      </trkpt>
      <trkpt lat="48.70263" lon="5.70116">
        <ele>239.4</ele>
        <time>2020-06-29T17:22:22Z</time>
      </trkpt>
      <trkpt lat="48.70265" lon="5.70108">
        <ele>239.3</ele>
        <time>2020-06-29T17:22:23Z</time>
      </trkpt>
      <trkpt lat="48.70267" lon="5.701">
        <ele>239.3</ele>
        <time>2020-06-29T17:22:24Z</time>
      </trkpt>
      <trkpt lat="48.70269" lon="5.70092">
        <ele>239.2</ele>
        <time>2020-06-29T17:22:25Z</time>
      </trkpt>
      <trkpt lat="48.70271" lon="5.70086">
        <ele>239.2</ele>
        <time>2020-06-29T17:22:26Z</time>
      </trkpt>
      <trkpt lat="48.70274" lon="5.70078">
        <ele>239.2</ele>
        <time>2020-06-29T17:22:27Z</time>
      </trkpt>
      <trkpt lat="48.70277" lon="5.70071">
        <ele>239.1</ele>
        <time>2020-06-29T17:22:28Z</time>
      </trkpt>
      <trkpt lat="48.70279" lon="5.70066">
        <ele>239.1</ele>
        <time>2020-06-29T17:22:29Z</time>
      </trkpt>
      <trkpt lat="48.70282" lon="5.7006">
        <ele>239.1</ele>
        <time>2020-06-29T17:22:30Z</time>
      </trkpt>
      <trkpt lat="48.70285" lon="5.70054">
        <ele>239.1</ele>
        <time>2020-06-29T17:22:31Z</time>
      </trkpt>
      <trkpt lat="48.70287" lon="5.70048">
        <ele>239.1</ele>
        <time>2020-06-29T17:22:32Z</time>
      </trkpt>
      <trkpt lat="48.7029" lon="5.70041">
        <ele>239.2</ele>
        <time>2020-06-29T17:22:33Z</time>
      </trkpt>
      <trkpt lat="48.70293" lon="5.70034">
        <ele>239.1</ele>
        <time>2020-06-29T17:22:34Z</time>
      </trkpt>
      <trkpt lat="48.70295" lon="5.70028">
        <ele>239.1</ele>
        <time>2020-06-29T17:22:35Z</time>
      </trkpt>
      <trkpt lat="48.70299" lon="5.70019">
        <ele>239.1</ele>
        <time>2020-06-29T17:22:36Z</time>
      </trkpt>
      <trkpt lat="48.70303" lon="5.70013">
        <ele>239</ele>
        <time>2020-06-29T17:22:37Z</time>
      </trkpt>
      <trkpt lat="48.70308" lon="5.70008">
        <ele>239</ele>
        <time>2020-06-29T17:22:38Z</time>
      </trkpt>
      <trkpt lat="48.70312" lon="5.70002">
        <ele>238.9</ele>
        <time>2020-06-29T17:22:39Z</time>
      </trkpt>
      <trkpt lat="48.70316" lon="5.69996">
        <ele>238.8</ele>
        <time>2020-06-29T17:22:40Z</time>
      </trkpt>
      <trkpt lat="48.7032" lon="5.6999">
        <ele>238.8</ele>
        <time>2020-06-29T17:22:41Z</time>
      </trkpt>
      <trkpt lat="48.70324" lon="5.69984">
        <ele>238.7</ele>
        <time>2020-06-29T17:22:42Z</time>
      </trkpt>
      <trkpt lat="48.70328" lon="5.69977">
        <ele>238.7</ele>
        <time>2020-06-29T17:22:43Z</time>
      </trkpt>
      <trkpt lat="48.70331" lon="5.6997">
        <ele>238.7</ele>
        <time>2020-06-29T17:22:44Z</time>
      </trkpt>
      <trkpt lat="48.70333" lon="5.69965">
        <ele>238.7</ele>
        <time>2020-06-29T17:22:45Z</time>
      </trkpt>
      <trkpt lat="48.70338" lon="5.69956">
        <ele>238.6</ele>
        <time>2020-06-29T17:22:46Z</time>
      </trkpt>
      <trkpt lat="48.70341" lon="5.69951">
        <ele>238.6</ele>
        <time>2020-06-29T17:22:47Z</time>
      </trkpt>
      <trkpt lat="48.70345" lon="5.69944">
        <ele>238.6</ele>
        <time>2020-06-29T17:22:48Z</time>
      </trkpt>
      <trkpt lat="48.7035" lon="5.69936">
        <ele>238.5</ele>
        <time>2020-06-29T17:22:49Z</time>
      </trkpt>
      <trkpt lat="48.70354" lon="5.69928">
        <ele>238.5</ele>
        <time>2020-06-29T17:22:50Z</time>
      </trkpt>
      <trkpt lat="48.70358" lon="5.69921">
        <ele>238.5</ele>
        <time>2020-06-29T17:22:51Z</time>
      </trkpt>
      <trkpt lat="48.70362" lon="5.69915">
        <ele>238.5</ele>
        <time>2020-06-29T17:22:52Z</time>
      </trkpt>
      <trkpt lat="48.70365" lon="5.69908">
        <ele>238.4</ele>
        <time>2020-06-29T17:22:53Z</time>
      </trkpt>
      <trkpt lat="48.70368" lon="5.69901">
        <ele>238.3</ele>
        <time>2020-06-29T17:22:54Z</time>
      </trkpt>
      <trkpt lat="48.70371" lon="5.69893">
        <ele>238.2</ele>
        <time>2020-06-29T17:22:55Z</time>
      </trkpt>
      <trkpt lat="48.70373" lon="5.69887">
        <ele>238.2</ele>
        <time>2020-06-29T17:22:56Z</time>
      </trkpt>
      <trkpt lat="48.70376" lon="5.6988">
        <ele>238.2</ele>
        <time>2020-06-29T17:22:57Z</time>
      </trkpt>
      <trkpt lat="48.70378" lon="5.69873">
        <ele>238.2</ele>
        <time>2020-06-29T17:22:58Z</time>
      </trkpt>
      <trkpt lat="48.7038" lon="5.69865">
        <ele>238.1</ele>
        <time>2020-06-29T17:22:59Z</time>
      </trkpt>
      <trkpt lat="48.70383" lon="5.69857">
        <ele>238.1</ele>
        <time>2020-06-29T17:23:00Z</time>
      </trkpt>
      <trkpt lat="48.70385" lon="5.6985">
        <ele>238.1</ele>
        <time>2020-06-29T17:23:01Z</time>
      </trkpt>
      <trkpt lat="48.70388" lon="5.69839">
        <ele>238.1</ele>
        <time>2020-06-29T17:23:02Z</time>
      </trkpt>
      <trkpt lat="48.70391" lon="5.6983">
        <ele>238.1</ele>
        <time>2020-06-29T17:23:03Z</time>
      </trkpt>
      <trkpt lat="48.70393" lon="5.69823">
        <ele>238.1</ele>
        <time>2020-06-29T17:23:04Z</time>
      </trkpt>
      <trkpt lat="48.70395" lon="5.69814">
        <ele>238</ele>
        <time>2020-06-29T17:23:05Z</time>
      </trkpt>
      <trkpt lat="48.70398" lon="5.69806">
        <ele>238</ele>
        <time>2020-06-29T17:23:06Z</time>
      </trkpt>
      <trkpt lat="48.70401" lon="5.69799">
        <ele>238</ele>
        <time>2020-06-29T17:23:07Z</time>
      </trkpt>
      <trkpt lat="48.70403" lon="5.69793">
        <ele>238</ele>
        <time>2020-06-29T17:23:08Z</time>
      </trkpt>
      <trkpt lat="48.70406" lon="5.69785">
        <ele>238</ele>
        <time>2020-06-29T17:23:09Z</time>
      </trkpt>
      <trkpt lat="48.7041" lon="5.6978">
        <ele>238.1</ele>
        <time>2020-06-29T17:23:10Z</time>
      </trkpt>
      <trkpt lat="48.70412" lon="5.69777">
        <ele>238.1</ele>
        <time>2020-06-29T17:23:11Z</time>
      </trkpt>
      <trkpt lat="48.70415" lon="5.6977">
        <ele>238.2</ele>
        <time>2020-06-29T17:23:12Z</time>
      </trkpt>
      <trkpt lat="48.70418" lon="5.69763">
        <ele>238.2</ele>
        <time>2020-06-29T17:23:13Z</time>
      </trkpt>
      <trkpt lat="48.70423" lon="5.69754">
        <ele>238.3</ele>
        <time>2020-06-29T17:23:14Z</time>
      </trkpt>
      <trkpt lat="48.70426" lon="5.6975">
        <ele>238.3</ele>
        <time>2020-06-29T17:23:15Z</time>
      </trkpt>
      <trkpt lat="48.70429" lon="5.69743">
        <ele>238.3</ele>
        <time>2020-06-29T17:23:16Z</time>
      </trkpt>
      <trkpt lat="48.70432" lon="5.69737">
        <ele>238.4</ele>
        <time>2020-06-29T17:23:17Z</time>
      </trkpt>
      <trkpt lat="48.70435" lon="5.69731">
        <ele>238.4</ele>
        <time>2020-06-29T17:23:18Z</time>
      </trkpt>
      <trkpt lat="48.70437" lon="5.69727">
        <ele>238.4</ele>
        <time>2020-06-29T17:23:19Z</time>
      </trkpt>
      <trkpt lat="48.70439" lon="5.69721">
        <ele>238.5</ele>
        <time>2020-06-29T17:23:20Z</time>
      </trkpt>
      <trkpt lat="48.70442" lon="5.69714">
        <ele>238.5</ele>
        <time>2020-06-29T17:23:21Z</time>
      </trkpt>
      <trkpt lat="48.70445" lon="5.69708">
        <ele>238.5</ele>
        <time>2020-06-29T17:23:22Z</time>
      </trkpt>
      <trkpt lat="48.70447" lon="5.69703">
        <ele>238.6</ele>
        <time>2020-06-29T17:23:23Z</time>
      </trkpt>
      <trkpt lat="48.7045" lon="5.69699">
        <ele>238.6</ele>
        <time>2020-06-29T17:23:24Z</time>
      </trkpt>
      <trkpt lat="48.70452" lon="5.69696">
        <ele>238.6</ele>
        <time>2020-06-29T17:23:25Z</time>
      </trkpt>
      <trkpt lat="48.70456" lon="5.69692">
        <ele>238.7</ele>
        <time>2020-06-29T17:23:26Z</time>
      </trkpt>
      <trkpt lat="48.70459" lon="5.69687">
        <ele>238.7</ele>
        <time>2020-06-29T17:23:27Z</time>
      </trkpt>
      <trkpt lat="48.70464" lon="5.69686">
        <ele>238.8</ele>
        <time>2020-06-29T17:23:28Z</time>
      </trkpt>
      <trkpt lat="48.70468" lon="5.69685">
        <ele>238.8</ele>
        <time>2020-06-29T17:23:29Z</time>
      </trkpt>
      <trkpt lat="48.70473" lon="5.69683">
        <ele>238.9</ele>
        <time>2020-06-29T17:23:30Z</time>
      </trkpt>
      <trkpt lat="48.70479" lon="5.69681">
        <ele>239.1</ele>
        <time>2020-06-29T17:23:31Z</time>
      </trkpt>
      <trkpt lat="48.70484" lon="5.69678">
        <ele>239.2</ele>
        <time>2020-06-29T17:23:32Z</time>
      </trkpt>
      <trkpt lat="48.7049" lon="5.69675">
        <ele>239.4</ele>
        <time>2020-06-29T17:23:33Z</time>
      </trkpt>
      <trkpt lat="48.70496" lon="5.69672">
        <ele>239.3</ele>
        <time>2020-06-29T17:23:34Z</time>
      </trkpt>
      <trkpt lat="48.70502" lon="5.69671">
        <ele>239.2</ele>
        <time>2020-06-29T17:23:35Z</time>
      </trkpt>
      <trkpt lat="48.70507" lon="5.6967">
        <ele>239.2</ele>
        <time>2020-06-29T17:23:36Z</time>
      </trkpt>
      <trkpt lat="48.70511" lon="5.69671">
        <ele>239.2</ele>
        <time>2020-06-29T17:23:37Z</time>
      </trkpt>
      <trkpt lat="48.70515" lon="5.69672">
        <ele>239.2</ele>
        <time>2020-06-29T17:23:38Z</time>
      </trkpt>
      <trkpt lat="48.7052" lon="5.69672">
        <ele>239.2</ele>
        <time>2020-06-29T17:23:39Z</time>
      </trkpt>
      <trkpt lat="48.70525" lon="5.69672">
        <ele>239.2</ele>
        <time>2020-06-29T17:23:40Z</time>
      </trkpt>
      <trkpt lat="48.7053" lon="5.69674">
        <ele>239.2</ele>
        <time>2020-06-29T17:23:41Z</time>
      </trkpt>
      <trkpt lat="48.70535" lon="5.69674">
        <ele>239.1</ele>
        <time>2020-06-29T17:23:42Z</time>
      </trkpt>
      <trkpt lat="48.70539" lon="5.69676">
        <ele>239.1</ele>
        <time>2020-06-29T17:23:43Z</time>
      </trkpt>
      <trkpt lat="48.70543" lon="5.69677">
        <ele>239.1</ele>
        <time>2020-06-29T17:23:44Z</time>
      </trkpt>
      <trkpt lat="48.70544" lon="5.69677">
        <ele>239.1</ele>
        <time>2020-06-29T17:23:45Z</time>
      </trkpt>
      <trkpt lat="48.70547" lon="5.69679">
        <ele>239</ele>
        <time>2020-06-29T17:23:46Z</time>
      </trkpt>
      <trkpt lat="48.70551" lon="5.6968">
        <ele>239</ele>
        <time>2020-06-29T17:23:47Z</time>
      </trkpt>
      <trkpt lat="48.70556" lon="5.69682">
        <ele>239</ele>
        <time>2020-06-29T17:23:48Z</time>
      </trkpt>
      <trkpt lat="48.70561" lon="5.69684">
        <ele>238.9</ele>
        <time>2020-06-29T17:23:49Z</time>
      </trkpt>
      <trkpt lat="48.70566" lon="5.69686">
        <ele>238.9</ele>
        <time>2020-06-29T17:23:50Z</time>
      </trkpt>
      <trkpt lat="48.70571" lon="5.69689">
        <ele>238.9</ele>
        <time>2020-06-29T17:23:51Z</time>
      </trkpt>
      <trkpt lat="48.70575" lon="5.69691">
        <ele>238.9</ele>
        <time>2020-06-29T17:23:52Z</time>
      </trkpt>
      <trkpt lat="48.7058" lon="5.69696">
        <ele>238.9</ele>
        <time>2020-06-29T17:23:53Z</time>
      </trkpt>
      <trkpt lat="48.70584" lon="5.69699">
        <ele>238.9</ele>
        <time>2020-06-29T17:23:54Z</time>
      </trkpt>
      <trkpt lat="48.7059" lon="5.69704">
        <ele>238.9</ele>
        <time>2020-06-29T17:23:55Z</time>
      </trkpt>
      <trkpt lat="48.70596" lon="5.69707">
        <ele>238.9</ele>
        <time>2020-06-29T17:23:56Z</time>
      </trkpt>
      <trkpt lat="48.70601" lon="5.6971">
        <ele>238.9</ele>
        <time>2020-06-29T17:23:57Z</time>
      </trkpt>
      <trkpt lat="48.70607" lon="5.69714">
        <ele>238.8</ele>
        <time>2020-06-29T17:23:58Z</time>
      </trkpt>
      <trkpt lat="48.70612" lon="5.69716">
        <ele>238.8</ele>
        <time>2020-06-29T17:23:59Z</time>
      </trkpt>
      <trkpt lat="48.70616" lon="5.69717">
        <ele>238.8</ele>
        <time>2020-06-29T17:24:00Z</time>
      </trkpt>
      <trkpt lat="48.7062" lon="5.6972">
        <ele>238.7</ele>
        <time>2020-06-29T17:24:01Z</time>
      </trkpt>
      <trkpt lat="48.70625" lon="5.69723">
        <ele>238.7</ele>
        <time>2020-06-29T17:24:02Z</time>
      </trkpt>
      <trkpt lat="48.7063" lon="5.69728">
        <ele>238.6</ele>
        <time>2020-06-29T17:24:03Z</time>
      </trkpt>
      <trkpt lat="48.70634" lon="5.69731">
        <ele>238.5</ele>
        <time>2020-06-29T17:24:04Z</time>
      </trkpt>
      <trkpt lat="48.70639" lon="5.69733">
        <ele>238.4</ele>
        <time>2020-06-29T17:24:05Z</time>
      </trkpt>
      <trkpt lat="48.70644" lon="5.69736">
        <ele>238.3</ele>
        <time>2020-06-29T17:24:06Z</time>
      </trkpt>
      <trkpt lat="48.7065" lon="5.69738">
        <ele>238.2</ele>
        <time>2020-06-29T17:24:07Z</time>
      </trkpt>
      <trkpt lat="48.70656" lon="5.69738">
        <ele>238.2</ele>
        <time>2020-06-29T17:24:08Z</time>
      </trkpt>
      <trkpt lat="48.70663" lon="5.69735">
        <ele>238.1</ele>
        <time>2020-06-29T17:24:09Z</time>
      </trkpt>
      <trkpt lat="48.7067" lon="5.69732">
        <ele>238.1</ele>
        <time>2020-06-29T17:24:10Z</time>
      </trkpt>
      <trkpt lat="48.70675" lon="5.6973">
        <ele>238.1</ele>
        <time>2020-06-29T17:24:11Z</time>
      </trkpt>
      <trkpt lat="48.70681" lon="5.69726">
        <ele>238</ele>
        <time>2020-06-29T17:24:12Z</time>
      </trkpt>
      <trkpt lat="48.70687" lon="5.69723">
        <ele>238</ele>
        <time>2020-06-29T17:24:13Z</time>
      </trkpt>
      <trkpt lat="48.70692" lon="5.69717">
        <ele>237.9</ele>
        <time>2020-06-29T17:24:14Z</time>
      </trkpt>
      <trkpt lat="48.70696" lon="5.69712">
        <ele>237.9</ele>
        <time>2020-06-29T17:24:15Z</time>
      </trkpt>
      <trkpt lat="48.707" lon="5.69706">
        <ele>237.9</ele>
        <time>2020-06-29T17:24:16Z</time>
      </trkpt>
      <trkpt lat="48.70702" lon="5.69699">
        <ele>237.8</ele>
        <time>2020-06-29T17:24:17Z</time>
      </trkpt>
      <trkpt lat="48.70705" lon="5.69691">
        <ele>237.7</ele>
        <time>2020-06-29T17:24:18Z</time>
      </trkpt>
      <trkpt lat="48.70708" lon="5.69683">
        <ele>237.7</ele>
        <time>2020-06-29T17:24:19Z</time>
      </trkpt>
      <trkpt lat="48.70711" lon="5.69676">
        <ele>237.6</ele>
        <time>2020-06-29T17:24:20Z</time>
      </trkpt>
      <trkpt lat="48.70714" lon="5.69667">
        <ele>237.5</ele>
        <time>2020-06-29T17:24:21Z</time>
      </trkpt>
      <trkpt lat="48.70715" lon="5.69659">
        <ele>237.5</ele>
        <time>2020-06-29T17:24:22Z</time>
      </trkpt>
      <trkpt lat="48.70716" lon="5.69651">
        <ele>237.5</ele>
        <time>2020-06-29T17:24:23Z</time>
      </trkpt>
      <trkpt lat="48.70717" lon="5.69641">
        <ele>237.5</ele>
        <time>2020-06-29T17:24:24Z</time>
      </trkpt>
      <trkpt lat="48.70718" lon="5.69632">
        <ele>237.4</ele>
        <time>2020-06-29T17:24:25Z</time>
      </trkpt>
      <trkpt lat="48.70718" lon="5.69624">
        <ele>237.4</ele>
        <time>2020-06-29T17:24:26Z</time>
      </trkpt>
      <trkpt lat="48.70718" lon="5.69615">
        <ele>237.4</ele>
        <time>2020-06-29T17:24:27Z</time>
      </trkpt>
      <trkpt lat="48.70719" lon="5.69606">
        <ele>237.5</ele>
        <time>2020-06-29T17:24:28Z</time>
      </trkpt>
      <trkpt lat="48.7072" lon="5.69597">
        <ele>237.6</ele>
        <time>2020-06-29T17:24:29Z</time>
      </trkpt>
      <trkpt lat="48.70719" lon="5.69588">
        <ele>237.7</ele>
        <time>2020-06-29T17:24:30Z</time>
      </trkpt>
      <trkpt lat="48.7072" lon="5.6958">
        <ele>237.7</ele>
        <time>2020-06-29T17:24:31Z</time>
      </trkpt>
      <trkpt lat="48.7072" lon="5.69572">
        <ele>237.8</ele>
        <time>2020-06-29T17:24:32Z</time>
      </trkpt>
      <trkpt lat="48.70721" lon="5.69561">
        <ele>237.8</ele>
        <time>2020-06-29T17:24:33Z</time>
      </trkpt>
      <trkpt lat="48.70722" lon="5.69552">
        <ele>237.8</ele>
        <time>2020-06-29T17:24:34Z</time>
      </trkpt>
      <trkpt lat="48.70723" lon="5.69545">
        <ele>237.8</ele>
        <time>2020-06-29T17:24:35Z</time>
      </trkpt>
      <trkpt lat="48.70724" lon="5.69533">
        <ele>237.7</ele>
        <time>2020-06-29T17:24:36Z</time>
      </trkpt>
      <trkpt lat="48.70723" lon="5.69528">
        <ele>237.7</ele>
        <time>2020-06-29T17:24:37Z</time>
      </trkpt>
      <trkpt lat="48.70724" lon="5.6952">
        <ele>237.7</ele>
        <time>2020-06-29T17:24:38Z</time>
      </trkpt>
      <trkpt lat="48.70725" lon="5.69511">
        <ele>237.7</ele>
        <time>2020-06-29T17:24:39Z</time>
      </trkpt>
      <trkpt lat="48.70725" lon="5.69503">
        <ele>237.7</ele>
        <time>2020-06-29T17:24:40Z</time>
      </trkpt>
      <trkpt lat="48.70726" lon="5.69494">
        <ele>237.7</ele>
        <time>2020-06-29T17:24:41Z</time>
      </trkpt>
      <trkpt lat="48.70726" lon="5.69483">
        <ele>237.7</ele>
        <time>2020-06-29T17:24:42Z</time>
      </trkpt>
      <trkpt lat="48.70726" lon="5.69474">
        <ele>237.8</ele>
        <time>2020-06-29T17:24:43Z</time>
      </trkpt>
      <trkpt lat="48.70726" lon="5.69465">
        <ele>237.8</ele>
        <time>2020-06-29T17:24:44Z</time>
      </trkpt>
      <trkpt lat="48.70727" lon="5.69459">
        <ele>237.8</ele>
        <time>2020-06-29T17:24:45Z</time>
      </trkpt>
      <trkpt lat="48.70727" lon="5.69451">
        <ele>237.8</ele>
        <time>2020-06-29T17:24:46Z</time>
      </trkpt>
      <trkpt lat="48.70728" lon="5.69441">
        <ele>237.8</ele>
        <time>2020-06-29T17:24:47Z</time>
      </trkpt>
      <trkpt lat="48.70729" lon="5.69433">
        <ele>237.8</ele>
        <time>2020-06-29T17:24:48Z</time>
      </trkpt>
      <trkpt lat="48.7073" lon="5.69426">
        <ele>237.8</ele>
        <time>2020-06-29T17:24:49Z</time>
      </trkpt>
      <trkpt lat="48.70732" lon="5.69417">
        <ele>237.8</ele>
        <time>2020-06-29T17:24:50Z</time>
      </trkpt>
      <trkpt lat="48.70733" lon="5.69409">
        <ele>237.8</ele>
        <time>2020-06-29T17:24:51Z</time>
      </trkpt>
      <trkpt lat="48.70735" lon="5.69401">
        <ele>237.8</ele>
        <time>2020-06-29T17:24:52Z</time>
      </trkpt>
      <trkpt lat="48.70737" lon="5.69394">
        <ele>237.8</ele>
        <time>2020-06-29T17:24:53Z</time>
      </trkpt>
      <trkpt lat="48.70738" lon="5.69386">
        <ele>237.8</ele>
        <time>2020-06-29T17:24:54Z</time>
      </trkpt>
      <trkpt lat="48.70738" lon="5.69376">
        <ele>237.7</ele>
        <time>2020-06-29T17:24:55Z</time>
      </trkpt>
      <trkpt lat="48.70738" lon="5.69371">
        <ele>237.7</ele>
        <time>2020-06-29T17:24:56Z</time>
      </trkpt>
      <trkpt lat="48.7074" lon="5.69364">
        <ele>237.7</ele>
        <time>2020-06-29T17:24:57Z</time>
      </trkpt>
      <trkpt lat="48.7074" lon="5.69357">
        <ele>237.6</ele>
        <time>2020-06-29T17:24:58Z</time>
      </trkpt>
      <trkpt lat="48.70741" lon="5.69349">
        <ele>237.6</ele>
        <time>2020-06-29T17:24:59Z</time>
      </trkpt>
      <trkpt lat="48.70743" lon="5.69341">
        <ele>237.6</ele>
        <time>2020-06-29T17:25:00Z</time>
      </trkpt>
      <trkpt lat="48.70744" lon="5.69333">
        <ele>237.6</ele>
        <time>2020-06-29T17:25:01Z</time>
      </trkpt>
      <trkpt lat="48.70745" lon="5.69326">
        <ele>237.6</ele>
        <time>2020-06-29T17:25:02Z</time>
      </trkpt>
      <trkpt lat="48.70747" lon="5.6932">
        <ele>237.6</ele>
        <time>2020-06-29T17:25:03Z</time>
      </trkpt>
      <trkpt lat="48.70749" lon="5.69314">
        <ele>237.6</ele>
        <time>2020-06-29T17:25:04Z</time>
      </trkpt>
      <trkpt lat="48.7075" lon="5.69308">
        <ele>237.5</ele>
        <time>2020-06-29T17:25:05Z</time>
      </trkpt>
      <trkpt lat="48.70752" lon="5.69299">
        <ele>237.5</ele>
        <time>2020-06-29T17:25:06Z</time>
      </trkpt>
      <trkpt lat="48.70752" lon="5.69292">
        <ele>237.5</ele>
        <time>2020-06-29T17:25:07Z</time>
      </trkpt>
      <trkpt lat="48.70754" lon="5.69281">
        <ele>237.5</ele>
        <time>2020-06-29T17:25:08Z</time>
      </trkpt>
      <trkpt lat="48.70754" lon="5.69272">
        <ele>237.5</ele>
        <time>2020-06-29T17:25:09Z</time>
      </trkpt>
      <trkpt lat="48.70756" lon="5.69262">
        <ele>237.5</ele>
        <time>2020-06-29T17:25:10Z</time>
      </trkpt>
      <trkpt lat="48.70756" lon="5.69254">
        <ele>237.5</ele>
        <time>2020-06-29T17:25:11Z</time>
      </trkpt>
      <trkpt lat="48.70757" lon="5.69247">
        <ele>237.5</ele>
        <time>2020-06-29T17:25:12Z</time>
      </trkpt>
      <trkpt lat="48.70758" lon="5.69241">
        <ele>237.5</ele>
        <time>2020-06-29T17:25:13Z</time>
      </trkpt>
      <trkpt lat="48.7076" lon="5.69234">
        <ele>237.5</ele>
        <time>2020-06-29T17:25:14Z</time>
      </trkpt>
      <trkpt lat="48.70761" lon="5.69226">
        <ele>237.5</ele>
        <time>2020-06-29T17:25:15Z</time>
      </trkpt>
      <trkpt lat="48.70763" lon="5.6922">
        <ele>237.6</ele>
        <time>2020-06-29T17:25:16Z</time>
      </trkpt>
      <trkpt lat="48.70764" lon="5.69209">
        <ele>237.6</ele>
        <time>2020-06-29T17:25:17Z</time>
      </trkpt>
      <trkpt lat="48.70765" lon="5.692">
        <ele>237.6</ele>
        <time>2020-06-29T17:25:18Z</time>
      </trkpt>
      <trkpt lat="48.70766" lon="5.69192">
        <ele>237.5</ele>
        <time>2020-06-29T17:25:19Z</time>
      </trkpt>
      <trkpt lat="48.70768" lon="5.69185">
        <ele>237.5</ele>
        <time>2020-06-29T17:25:20Z</time>
      </trkpt>
      <trkpt lat="48.70768" lon="5.69178">
        <ele>237.5</ele>
        <time>2020-06-29T17:25:21Z</time>
      </trkpt>
      <trkpt lat="48.7077" lon="5.6917">
        <ele>237.5</ele>
        <time>2020-06-29T17:25:22Z</time>
      </trkpt>
      <trkpt lat="48.70771" lon="5.69162">
        <ele>237.6</ele>
        <time>2020-06-29T17:25:23Z</time>
      </trkpt>
      <trkpt lat="48.70772" lon="5.6915">
        <ele>237.6</ele>
        <time>2020-06-29T17:25:24Z</time>
      </trkpt>
      <trkpt lat="48.70773" lon="5.6914">
        <ele>237.7</ele>
        <time>2020-06-29T17:25:25Z</time>
      </trkpt>
      <trkpt lat="48.70773" lon="5.69129">
        <ele>237.7</ele>
        <time>2020-06-29T17:25:26Z</time>
      </trkpt>
      <trkpt lat="48.70775" lon="5.69119">
        <ele>237.7</ele>
        <time>2020-06-29T17:25:27Z</time>
      </trkpt>
      <trkpt lat="48.70776" lon="5.69112">
        <ele>237.7</ele>
        <time>2020-06-29T17:25:28Z</time>
      </trkpt>
      <trkpt lat="48.70776" lon="5.69104">
        <ele>237.7</ele>
        <time>2020-06-29T17:25:29Z</time>
      </trkpt>
      <trkpt lat="48.70776" lon="5.69096">
        <ele>237.7</ele>
        <time>2020-06-29T17:25:30Z</time>
      </trkpt>
      <trkpt lat="48.70777" lon="5.69088">
        <ele>237.7</ele>
        <time>2020-06-29T17:25:31Z</time>
      </trkpt>
      <trkpt lat="48.70778" lon="5.69081">
        <ele>237.7</ele>
        <time>2020-06-29T17:25:32Z</time>
      </trkpt>
      <trkpt lat="48.70779" lon="5.69073">
        <ele>237.7</ele>
        <time>2020-06-29T17:25:33Z</time>
      </trkpt>
      <trkpt lat="48.7078" lon="5.69065">
        <ele>237.7</ele>
        <time>2020-06-29T17:25:34Z</time>
      </trkpt>
      <trkpt lat="48.70781" lon="5.69057">
        <ele>237.7</ele>
        <time>2020-06-29T17:25:35Z</time>
      </trkpt>
      <trkpt lat="48.70782" lon="5.69051">
        <ele>237.7</ele>
        <time>2020-06-29T17:25:36Z</time>
      </trkpt>
      <trkpt lat="48.70783" lon="5.69043">
        <ele>237.7</ele>
        <time>2020-06-29T17:25:37Z</time>
      </trkpt>
      <trkpt lat="48.70785" lon="5.69031">
        <ele>237.7</ele>
        <time>2020-06-29T17:25:38Z</time>
      </trkpt>
      <trkpt lat="48.70787" lon="5.69022">
        <ele>237.7</ele>
        <time>2020-06-29T17:25:39Z</time>
      </trkpt>
      <trkpt lat="48.70787" lon="5.69018">
        <ele>237.7</ele>
        <time>2020-06-29T17:25:40Z</time>
      </trkpt>
      <trkpt lat="48.70789" lon="5.69007">
        <ele>237.7</ele>
        <time>2020-06-29T17:25:41Z</time>
      </trkpt>
      <trkpt lat="48.7079" lon="5.69">
        <ele>237.7</ele>
        <time>2020-06-29T17:25:42Z</time>
      </trkpt>
      <trkpt lat="48.7079" lon="5.68992">
        <ele>237.7</ele>
        <time>2020-06-29T17:25:43Z</time>
      </trkpt>
      <trkpt lat="48.70791" lon="5.68983">
        <ele>237.7</ele>
        <time>2020-06-29T17:25:44Z</time>
      </trkpt>
      <trkpt lat="48.70792" lon="5.68975">
        <ele>237.7</ele>
        <time>2020-06-29T17:25:45Z</time>
      </trkpt>
      <trkpt lat="48.70793" lon="5.68966">
        <ele>237.8</ele>
        <time>2020-06-29T17:25:46Z</time>
      </trkpt>
      <trkpt lat="48.70793" lon="5.68957">
        <ele>237.8</ele>
        <time>2020-06-29T17:25:47Z</time>
      </trkpt>
      <trkpt lat="48.70794" lon="5.68948">
        <ele>237.8</ele>
        <time>2020-06-29T17:25:48Z</time>
      </trkpt>
      <trkpt lat="48.70795" lon="5.68939">
        <ele>237.8</ele>
        <time>2020-06-29T17:25:49Z</time>
      </trkpt>
      <trkpt lat="48.70796" lon="5.6893">
        <ele>237.9</ele>
        <time>2020-06-29T17:25:50Z</time>
      </trkpt>
      <trkpt lat="48.70798" lon="5.68921">
        <ele>237.9</ele>
        <time>2020-06-29T17:25:51Z</time>
      </trkpt>
      <trkpt lat="48.70799" lon="5.68913">
        <ele>237.9</ele>
        <time>2020-06-29T17:25:52Z</time>
      </trkpt>
      <trkpt lat="48.70801" lon="5.68905">
        <ele>237.9</ele>
        <time>2020-06-29T17:25:53Z</time>
      </trkpt>
      <trkpt lat="48.70802" lon="5.68895">
        <ele>237.9</ele>
        <time>2020-06-29T17:25:54Z</time>
      </trkpt>
      <trkpt lat="48.70803" lon="5.68887">
        <ele>237.9</ele>
        <time>2020-06-29T17:25:55Z</time>
      </trkpt>
      <trkpt lat="48.70804" lon="5.68879">
        <ele>237.9</ele>
        <time>2020-06-29T17:25:56Z</time>
      </trkpt>
      <trkpt lat="48.70805" lon="5.68871">
        <ele>237.8</ele>
        <time>2020-06-29T17:25:57Z</time>
      </trkpt>
      <trkpt lat="48.70806" lon="5.68864">
        <ele>237.8</ele>
        <time>2020-06-29T17:25:58Z</time>
      </trkpt>
      <trkpt lat="48.70807" lon="5.68855">
        <ele>237.8</ele>
        <time>2020-06-29T17:25:59Z</time>
      </trkpt>
      <trkpt lat="48.70809" lon="5.68846">
        <ele>237.8</ele>
        <time>2020-06-29T17:26:00Z</time>
      </trkpt>
      <trkpt lat="48.7081" lon="5.68837">
        <ele>237.8</ele>
        <time>2020-06-29T17:26:01Z</time>
      </trkpt>
      <trkpt lat="48.70811" lon="5.68832">
        <ele>237.8</ele>
        <time>2020-06-29T17:26:02Z</time>
      </trkpt>
      <trkpt lat="48.70812" lon="5.68823">
        <ele>237.8</ele>
        <time>2020-06-29T17:26:03Z</time>
      </trkpt>
      <trkpt lat="48.70814" lon="5.68812">
        <ele>237.8</ele>
        <time>2020-06-29T17:26:04Z</time>
      </trkpt>
      <trkpt lat="48.70814" lon="5.68804">
        <ele>237.8</ele>
        <time>2020-06-29T17:26:05Z</time>
      </trkpt>
      <trkpt lat="48.70816" lon="5.68791">
        <ele>237.7</ele>
        <time>2020-06-29T17:26:06Z</time>
      </trkpt>
      <trkpt lat="48.70817" lon="5.68782">
        <ele>237.7</ele>
        <time>2020-06-29T17:26:07Z</time>
      </trkpt>
      <trkpt lat="48.70818" lon="5.68774">
        <ele>237.7</ele>
        <time>2020-06-29T17:26:08Z</time>
      </trkpt>
      <trkpt lat="48.70819" lon="5.68766">
        <ele>237.7</ele>
        <time>2020-06-29T17:26:09Z</time>
      </trkpt>
      <trkpt lat="48.7082" lon="5.68756">
        <ele>237.7</ele>
        <time>2020-06-29T17:26:10Z</time>
      </trkpt>
      <trkpt lat="48.70821" lon="5.68747">
        <ele>237.7</ele>
        <time>2020-06-29T17:26:11Z</time>
      </trkpt>
      <trkpt lat="48.70822" lon="5.6874">
        <ele>237.7</ele>
        <time>2020-06-29T17:26:12Z</time>
      </trkpt>
      <trkpt lat="48.70824" lon="5.68729">
        <ele>237.7</ele>
        <time>2020-06-29T17:26:13Z</time>
      </trkpt>
      <trkpt lat="48.70824" lon="5.68722">
        <ele>237.8</ele>
        <time>2020-06-29T17:26:14Z</time>
      </trkpt>
      <trkpt lat="48.70826" lon="5.68713">
        <ele>237.8</ele>
        <time>2020-06-29T17:26:15Z</time>
      </trkpt>
      <trkpt lat="48.70827" lon="5.68703">
        <ele>237.8</ele>
        <time>2020-06-29T17:26:16Z</time>
      </trkpt>
      <trkpt lat="48.70828" lon="5.68694">
        <ele>237.8</ele>
        <time>2020-06-29T17:26:17Z</time>
      </trkpt>
      <trkpt lat="48.70829" lon="5.68688">
        <ele>237.8</ele>
        <time>2020-06-29T17:26:18Z</time>
      </trkpt>
      <trkpt lat="48.7083" lon="5.6868">
        <ele>237.8</ele>
        <time>2020-06-29T17:26:19Z</time>
      </trkpt>
      <trkpt lat="48.7083" lon="5.68671">
        <ele>237.8</ele>
        <time>2020-06-29T17:26:20Z</time>
      </trkpt>
      <trkpt lat="48.70831" lon="5.68663">
        <ele>237.8</ele>
        <time>2020-06-29T17:26:21Z</time>
      </trkpt>
      <trkpt lat="48.70832" lon="5.68653">
        <ele>237.8</ele>
        <time>2020-06-29T17:26:22Z</time>
      </trkpt>
      <trkpt lat="48.70834" lon="5.68643">
        <ele>237.7</ele>
        <time>2020-06-29T17:26:23Z</time>
      </trkpt>
      <trkpt lat="48.70833" lon="5.68634">
        <ele>237.7</ele>
        <time>2020-06-29T17:26:24Z</time>
      </trkpt>
      <trkpt lat="48.70834" lon="5.68626">
        <ele>237.6</ele>
        <time>2020-06-29T17:26:25Z</time>
      </trkpt>
      <trkpt lat="48.70835" lon="5.68617">
        <ele>237.6</ele>
        <time>2020-06-29T17:26:26Z</time>
      </trkpt>
      <trkpt lat="48.70836" lon="5.68604">
        <ele>237.5</ele>
        <time>2020-06-29T17:26:27Z</time>
      </trkpt>
      <trkpt lat="48.70837" lon="5.68596">
        <ele>237.5</ele>
        <time>2020-06-29T17:26:28Z</time>
      </trkpt>
      <trkpt lat="48.70837" lon="5.68589">
        <ele>237.5</ele>
        <time>2020-06-29T17:26:29Z</time>
      </trkpt>
      <trkpt lat="48.70838" lon="5.6858">
        <ele>237.4</ele>
        <time>2020-06-29T17:26:30Z</time>
      </trkpt>
      <trkpt lat="48.70838" lon="5.68572">
        <ele>237.4</ele>
        <time>2020-06-29T17:26:31Z</time>
      </trkpt>
      <trkpt lat="48.70838" lon="5.68563">
        <ele>237.4</ele>
        <time>2020-06-29T17:26:32Z</time>
      </trkpt>
      <trkpt lat="48.70838" lon="5.68556">
        <ele>237.4</ele>
        <time>2020-06-29T17:26:33Z</time>
      </trkpt>
      <trkpt lat="48.70838" lon="5.68546">
        <ele>237.4</ele>
        <time>2020-06-29T17:26:34Z</time>
      </trkpt>
      <trkpt lat="48.70839" lon="5.68538">
        <ele>237.4</ele>
        <time>2020-06-29T17:26:35Z</time>
      </trkpt>
      <trkpt lat="48.70838" lon="5.68532">
        <ele>237.4</ele>
        <time>2020-06-29T17:26:36Z</time>
      </trkpt>
      <trkpt lat="48.70838" lon="5.68523">
        <ele>237.4</ele>
        <time>2020-06-29T17:26:37Z</time>
      </trkpt>
      <trkpt lat="48.70837" lon="5.68516">
        <ele>237.4</ele>
        <time>2020-06-29T17:26:38Z</time>
      </trkpt>
      <trkpt lat="48.70837" lon="5.68504">
        <ele>237.4</ele>
        <time>2020-06-29T17:26:39Z</time>
      </trkpt>
      <trkpt lat="48.70838" lon="5.68499">
        <ele>237.4</ele>
        <time>2020-06-29T17:26:40Z</time>
      </trkpt>
      <trkpt lat="48.70838" lon="5.68488">
        <ele>237.4</ele>
        <time>2020-06-29T17:26:41Z</time>
      </trkpt>
      <trkpt lat="48.70838" lon="5.6848">
        <ele>237.4</ele>
        <time>2020-06-29T17:26:42Z</time>
      </trkpt>
      <trkpt lat="48.70838" lon="5.68472">
        <ele>237.4</ele>
        <time>2020-06-29T17:26:43Z</time>
      </trkpt>
      <trkpt lat="48.70839" lon="5.68465">
        <ele>237.4</ele>
        <time>2020-06-29T17:26:44Z</time>
      </trkpt>
      <trkpt lat="48.70839" lon="5.68457">
        <ele>237.4</ele>
        <time>2020-06-29T17:26:45Z</time>
      </trkpt>
      <trkpt lat="48.70839" lon="5.68447">
        <ele>237.3</ele>
        <time>2020-06-29T17:26:46Z</time>
      </trkpt>
      <trkpt lat="48.70839" lon="5.68442">
        <ele>237.3</ele>
        <time>2020-06-29T17:26:47Z</time>
      </trkpt>
      <trkpt lat="48.70839" lon="5.68434">
        <ele>237.3</ele>
        <time>2020-06-29T17:26:48Z</time>
      </trkpt>
      <trkpt lat="48.7084" lon="5.68426">
        <ele>237.3</ele>
        <time>2020-06-29T17:26:49Z</time>
      </trkpt>
      <trkpt lat="48.70841" lon="5.68418">
        <ele>237.3</ele>
        <time>2020-06-29T17:26:50Z</time>
      </trkpt>
      <trkpt lat="48.70842" lon="5.6841">
        <ele>237.3</ele>
        <time>2020-06-29T17:26:51Z</time>
      </trkpt>
      <trkpt lat="48.70843" lon="5.68403">
        <ele>237.2</ele>
        <time>2020-06-29T17:26:52Z</time>
      </trkpt>
      <trkpt lat="48.70845" lon="5.68393">
        <ele>237.2</ele>
        <time>2020-06-29T17:26:53Z</time>
      </trkpt>
      <trkpt lat="48.70846" lon="5.68386">
        <ele>237.2</ele>
        <time>2020-06-29T17:26:54Z</time>
      </trkpt>
      <trkpt lat="48.70848" lon="5.68376">
        <ele>237.2</ele>
        <time>2020-06-29T17:26:55Z</time>
      </trkpt>
      <trkpt lat="48.7085" lon="5.68368">
        <ele>237.2</ele>
        <time>2020-06-29T17:26:56Z</time>
      </trkpt>
      <trkpt lat="48.70852" lon="5.6836">
        <ele>237.2</ele>
        <time>2020-06-29T17:26:57Z</time>
      </trkpt>
      <trkpt lat="48.70854" lon="5.68352">
        <ele>237.2</ele>
        <time>2020-06-29T17:26:58Z</time>
      </trkpt>
      <trkpt lat="48.70856" lon="5.68345">
        <ele>237.2</ele>
        <time>2020-06-29T17:26:59Z</time>
      </trkpt>
      <trkpt lat="48.70858" lon="5.68337">
        <ele>237.2</ele>
        <time>2020-06-29T17:27:00Z</time>
      </trkpt>
      <trkpt lat="48.7086" lon="5.68331">
        <ele>237.2</ele>
        <time>2020-06-29T17:27:01Z</time>
      </trkpt>
      <trkpt lat="48.70862" lon="5.68324">
        <ele>237.2</ele>
        <time>2020-06-29T17:27:02Z</time>
      </trkpt>
      <trkpt lat="48.70865" lon="5.68318">
        <ele>237.2</ele>
        <time>2020-06-29T17:27:03Z</time>
      </trkpt>
      <trkpt lat="48.70868" lon="5.6831">
        <ele>237.2</ele>
        <time>2020-06-29T17:27:04Z</time>
      </trkpt>
      <trkpt lat="48.70872" lon="5.68302">
        <ele>237.1</ele>
        <time>2020-06-29T17:27:05Z</time>
      </trkpt>
      <trkpt lat="48.70876" lon="5.68295">
        <ele>237.1</ele>
        <time>2020-06-29T17:27:06Z</time>
      </trkpt>
      <trkpt lat="48.70878" lon="5.68288">
        <ele>237</ele>
        <time>2020-06-29T17:27:07Z</time>
      </trkpt>
      <trkpt lat="48.70881" lon="5.68281">
        <ele>237</ele>
        <time>2020-06-29T17:27:08Z</time>
      </trkpt>
      <trkpt lat="48.70885" lon="5.68273">
        <ele>236.9</ele>
        <time>2020-06-29T17:27:09Z</time>
      </trkpt>
      <trkpt lat="48.70889" lon="5.68267">
        <ele>236.9</ele>
        <time>2020-06-29T17:27:10Z</time>
      </trkpt>
      <trkpt lat="48.70892" lon="5.68261">
        <ele>236.9</ele>
        <time>2020-06-29T17:27:11Z</time>
      </trkpt>
      <trkpt lat="48.70895" lon="5.68254">
        <ele>236.9</ele>
        <time>2020-06-29T17:27:12Z</time>
      </trkpt>
      <trkpt lat="48.70898" lon="5.68245">
        <ele>236.9</ele>
        <time>2020-06-29T17:27:13Z</time>
      </trkpt>
      <trkpt lat="48.70902" lon="5.68239">
        <ele>236.9</ele>
        <time>2020-06-29T17:27:14Z</time>
      </trkpt>
      <trkpt lat="48.70906" lon="5.68233">
        <ele>236.8</ele>
        <time>2020-06-29T17:27:15Z</time>
      </trkpt>
      <trkpt lat="48.7091" lon="5.68227">
        <ele>236.7</ele>
        <time>2020-06-29T17:27:16Z</time>
      </trkpt>
      <trkpt lat="48.70914" lon="5.68221">
        <ele>236.7</ele>
        <time>2020-06-29T17:27:17Z</time>
      </trkpt>
      <trkpt lat="48.70917" lon="5.68215">
        <ele>236.6</ele>
        <time>2020-06-29T17:27:18Z</time>
      </trkpt>
      <trkpt lat="48.70921" lon="5.68209">
        <ele>236.6</ele>
        <time>2020-06-29T17:27:19Z</time>
      </trkpt>
      <trkpt lat="48.70925" lon="5.68203">
        <ele>236.6</ele>
        <time>2020-06-29T17:27:20Z</time>
      </trkpt>
      <trkpt lat="48.70929" lon="5.68195">
        <ele>236.5</ele>
        <time>2020-06-29T17:27:21Z</time>
      </trkpt>
      <trkpt lat="48.70932" lon="5.6819">
        <ele>236.5</ele>
        <time>2020-06-29T17:27:22Z</time>
      </trkpt>
      <trkpt lat="48.70936" lon="5.68184">
        <ele>236.5</ele>
        <time>2020-06-29T17:27:23Z</time>
      </trkpt>
      <trkpt lat="48.7094" lon="5.68177">
        <ele>236.6</ele>
        <time>2020-06-29T17:27:24Z</time>
      </trkpt>
      <trkpt lat="48.70944" lon="5.68169">
        <ele>236.6</ele>
        <time>2020-06-29T17:27:25Z</time>
      </trkpt>
      <trkpt lat="48.70946" lon="5.68165">
        <ele>236.6</ele>
        <time>2020-06-29T17:27:26Z</time>
      </trkpt>
      <trkpt lat="48.70953" lon="5.68156">
        <ele>236.8</ele>
        <time>2020-06-29T17:27:27Z</time>
      </trkpt>
      <trkpt lat="48.70955" lon="5.68152">
        <ele>236.8</ele>
        <time>2020-06-29T17:27:28Z</time>
      </trkpt>
      <trkpt lat="48.70959" lon="5.68146">
        <ele>236.9</ele>
        <time>2020-06-29T17:27:29Z</time>
      </trkpt>
      <trkpt lat="48.70963" lon="5.68139">
        <ele>237</ele>
        <time>2020-06-29T17:27:30Z</time>
      </trkpt>
      <trkpt lat="48.70967" lon="5.68133">
        <ele>237.1</ele>
        <time>2020-06-29T17:27:31Z</time>
      </trkpt>
      <trkpt lat="48.7097" lon="5.68129">
        <ele>237.1</ele>
        <time>2020-06-29T17:27:32Z</time>
      </trkpt>
      <trkpt lat="48.70974" lon="5.68123">
        <ele>237.2</ele>
        <time>2020-06-29T17:27:33Z</time>
      </trkpt>
      <trkpt lat="48.70979" lon="5.68114">
        <ele>237.3</ele>
        <time>2020-06-29T17:27:34Z</time>
      </trkpt>
      <trkpt lat="48.70983" lon="5.68106">
        <ele>237.4</ele>
        <time>2020-06-29T17:27:35Z</time>
      </trkpt>
      <trkpt lat="48.70987" lon="5.68099">
        <ele>237.5</ele>
        <time>2020-06-29T17:27:36Z</time>
      </trkpt>
      <trkpt lat="48.70989" lon="5.68093">
        <ele>237.6</ele>
        <time>2020-06-29T17:27:37Z</time>
      </trkpt>
      <trkpt lat="48.70992" lon="5.68085">
        <ele>237.7</ele>
        <time>2020-06-29T17:27:38Z</time>
      </trkpt>
      <trkpt lat="48.70995" lon="5.68078">
        <ele>237.8</ele>
        <time>2020-06-29T17:27:39Z</time>
      </trkpt>
      <trkpt lat="48.70997" lon="5.6807">
        <ele>237.9</ele>
        <time>2020-06-29T17:27:40Z</time>
      </trkpt>
      <trkpt lat="48.71" lon="5.6806">
        <ele>238</ele>
        <time>2020-06-29T17:27:41Z</time>
      </trkpt>
      <trkpt lat="48.71001" lon="5.68053">
        <ele>238.1</ele>
        <time>2020-06-29T17:27:42Z</time>
      </trkpt>
      <trkpt lat="48.71003" lon="5.68044">
        <ele>238.3</ele>
        <time>2020-06-29T17:27:43Z</time>
      </trkpt>
      <trkpt lat="48.71004" lon="5.6804">
        <ele>238.3</ele>
        <time>2020-06-29T17:27:44Z</time>
      </trkpt>
      <trkpt lat="48.71005" lon="5.68032">
        <ele>238.5</ele>
        <time>2020-06-29T17:27:45Z</time>
      </trkpt>
      <trkpt lat="48.71007" lon="5.68026">
        <ele>238.6</ele>
        <time>2020-06-29T17:27:46Z</time>
      </trkpt>
      <trkpt lat="48.71008" lon="5.68021">
        <ele>238.6</ele>
        <time>2020-06-29T17:27:47Z</time>
      </trkpt>
      <trkpt lat="48.71009" lon="5.68014">
        <ele>238.6</ele>
        <time>2020-06-29T17:27:48Z</time>
      </trkpt>
      <trkpt lat="48.71009" lon="5.68007">
        <ele>238.5</ele>
        <time>2020-06-29T17:27:49Z</time>
      </trkpt>
      <trkpt lat="48.7101" lon="5.68003">
        <ele>238.5</ele>
        <time>2020-06-29T17:27:50Z</time>
      </trkpt>
      <trkpt lat="48.7101" lon="5.67997">
        <ele>238.5</ele>
        <time>2020-06-29T17:27:51Z</time>
      </trkpt>
      <trkpt lat="48.71012" lon="5.67992">
        <ele>238.4</ele>
        <time>2020-06-29T17:27:52Z</time>
      </trkpt>
      <trkpt lat="48.71013" lon="5.67988">
        <ele>238.4</ele>
        <time>2020-06-29T17:27:53Z</time>
      </trkpt>
      <trkpt lat="48.71017" lon="5.67981">
        <ele>238.3</ele>
        <time>2020-06-29T17:27:54Z</time>
      </trkpt>
      <trkpt lat="48.71019" lon="5.67976">
        <ele>238.1</ele>
        <time>2020-06-29T17:27:55Z</time>
      </trkpt>
      <trkpt lat="48.71023" lon="5.6797">
        <ele>238</ele>
        <time>2020-06-29T17:27:56Z</time>
      </trkpt>
      <trkpt lat="48.71025" lon="5.67964">
        <ele>237.9</ele>
        <time>2020-06-29T17:27:57Z</time>
      </trkpt>
      <trkpt lat="48.71028" lon="5.67962">
        <ele>237.8</ele>
        <time>2020-06-29T17:27:58Z</time>
      </trkpt>
      <trkpt lat="48.71032" lon="5.6796">
        <ele>237.7</ele>
        <time>2020-06-29T17:27:59Z</time>
      </trkpt>
      <trkpt lat="48.71037" lon="5.67956">
        <ele>237.5</ele>
        <time>2020-06-29T17:28:00Z</time>
      </trkpt>
      <trkpt lat="48.71042" lon="5.67953">
        <ele>237.4</ele>
        <time>2020-06-29T17:28:01Z</time>
      </trkpt>
      <trkpt lat="48.7105" lon="5.67947">
        <ele>237.1</ele>
        <time>2020-06-29T17:28:02Z</time>
      </trkpt>
      <trkpt lat="48.71055" lon="5.67944">
        <ele>237</ele>
        <time>2020-06-29T17:28:03Z</time>
      </trkpt>
      <trkpt lat="48.7106" lon="5.6794">
        <ele>236.9</ele>
        <time>2020-06-29T17:28:04Z</time>
      </trkpt>
      <trkpt lat="48.71066" lon="5.67936">
        <ele>236.8</ele>
        <time>2020-06-29T17:28:05Z</time>
      </trkpt>
      <trkpt lat="48.7107" lon="5.67933">
        <ele>236.7</ele>
        <time>2020-06-29T17:28:06Z</time>
      </trkpt>
      <trkpt lat="48.71074" lon="5.67929">
        <ele>236.7</ele>
        <time>2020-06-29T17:28:07Z</time>
      </trkpt>
      <trkpt lat="48.7108" lon="5.67924">
        <ele>236.6</ele>
        <time>2020-06-29T17:28:08Z</time>
      </trkpt>
      <trkpt lat="48.71085" lon="5.67918">
        <ele>236.6</ele>
        <time>2020-06-29T17:28:09Z</time>
      </trkpt>
      <trkpt lat="48.71089" lon="5.67914">
        <ele>236.5</ele>
        <time>2020-06-29T17:28:10Z</time>
      </trkpt>
      <trkpt lat="48.71092" lon="5.6791">
        <ele>236.5</ele>
        <time>2020-06-29T17:28:11Z</time>
      </trkpt>
      <trkpt lat="48.71097" lon="5.67905">
        <ele>236.5</ele>
        <time>2020-06-29T17:28:12Z</time>
      </trkpt>
      <trkpt lat="48.71101" lon="5.679">
        <ele>236.5</ele>
        <time>2020-06-29T17:28:13Z</time>
      </trkpt>
      <trkpt lat="48.71105" lon="5.67895">
        <ele>236.4</ele>
        <time>2020-06-29T17:28:14Z</time>
      </trkpt>
      <trkpt lat="48.71108" lon="5.6789">
        <ele>236.4</ele>
        <time>2020-06-29T17:28:15Z</time>
      </trkpt>
      <trkpt lat="48.71113" lon="5.67885">
        <ele>236.4</ele>
        <time>2020-06-29T17:28:16Z</time>
      </trkpt>
      <trkpt lat="48.71117" lon="5.67879">
        <ele>236.4</ele>
        <time>2020-06-29T17:28:17Z</time>
      </trkpt>
      <trkpt lat="48.71121" lon="5.67872">
        <ele>236.4</ele>
        <time>2020-06-29T17:28:18Z</time>
      </trkpt>
      <trkpt lat="48.71125" lon="5.67866">
        <ele>236.3</ele>
        <time>2020-06-29T17:28:19Z</time>
      </trkpt>
      <trkpt lat="48.71129" lon="5.67859">
        <ele>236.3</ele>
        <time>2020-06-29T17:28:20Z</time>
      </trkpt>
      <trkpt lat="48.71136" lon="5.67849">
        <ele>236.2</ele>
        <time>2020-06-29T17:28:21Z</time>
      </trkpt>
      <trkpt lat="48.71141" lon="5.67839">
        <ele>236.2</ele>
        <time>2020-06-29T17:28:22Z</time>
      </trkpt>
      <trkpt lat="48.71146" lon="5.67831">
        <ele>236.2</ele>
        <time>2020-06-29T17:28:23Z</time>
      </trkpt>
      <trkpt lat="48.71151" lon="5.67824">
        <ele>236.2</ele>
        <time>2020-06-29T17:28:24Z</time>
      </trkpt>
      <trkpt lat="48.71155" lon="5.67818">
        <ele>236.2</ele>
        <time>2020-06-29T17:28:25Z</time>
      </trkpt>
      <trkpt lat="48.71159" lon="5.67811">
        <ele>236.2</ele>
        <time>2020-06-29T17:28:26Z</time>
      </trkpt>
      <trkpt lat="48.71163" lon="5.67804">
        <ele>236.2</ele>
        <time>2020-06-29T17:28:27Z</time>
      </trkpt>
      <trkpt lat="48.71167" lon="5.67797">
        <ele>236.2</ele>
        <time>2020-06-29T17:28:28Z</time>
      </trkpt>
      <trkpt lat="48.71172" lon="5.6779">
        <ele>236.1</ele>
        <time>2020-06-29T17:28:29Z</time>
      </trkpt>
      <trkpt lat="48.71176" lon="5.67783">
        <ele>236.1</ele>
        <time>2020-06-29T17:28:30Z</time>
      </trkpt>
      <trkpt lat="48.7118" lon="5.67775">
        <ele>236.1</ele>
        <time>2020-06-29T17:28:31Z</time>
      </trkpt>
      <trkpt lat="48.71185" lon="5.67767">
        <ele>236.1</ele>
        <time>2020-06-29T17:28:32Z</time>
      </trkpt>
      <trkpt lat="48.71189" lon="5.67759">
        <ele>236.2</ele>
        <time>2020-06-29T17:28:33Z</time>
      </trkpt>
      <trkpt lat="48.71194" lon="5.67752">
        <ele>236.1</ele>
        <time>2020-06-29T17:28:34Z</time>
      </trkpt>
      <trkpt lat="48.71198" lon="5.67744">
        <ele>236.1</ele>
        <time>2020-06-29T17:28:35Z</time>
      </trkpt>
      <trkpt lat="48.71203" lon="5.67737">
        <ele>236.1</ele>
        <time>2020-06-29T17:28:36Z</time>
      </trkpt>
      <trkpt lat="48.71207" lon="5.67729">
        <ele>236.1</ele>
        <time>2020-06-29T17:28:37Z</time>
      </trkpt>
      <trkpt lat="48.71211" lon="5.67721">
        <ele>236.1</ele>
        <time>2020-06-29T17:28:38Z</time>
      </trkpt>
      <trkpt lat="48.71216" lon="5.67714">
        <ele>236.1</ele>
        <time>2020-06-29T17:28:39Z</time>
      </trkpt>
      <trkpt lat="48.7122" lon="5.67706">
        <ele>236.1</ele>
        <time>2020-06-29T17:28:40Z</time>
      </trkpt>
      <trkpt lat="48.71225" lon="5.67698">
        <ele>236.1</ele>
        <time>2020-06-29T17:28:41Z</time>
      </trkpt>
      <trkpt lat="48.7123" lon="5.6769">
        <ele>236.1</ele>
        <time>2020-06-29T17:28:42Z</time>
      </trkpt>
      <trkpt lat="48.71234" lon="5.67682">
        <ele>236.1</ele>
        <time>2020-06-29T17:28:43Z</time>
      </trkpt>
      <trkpt lat="48.71238" lon="5.67674">
        <ele>236.2</ele>
        <time>2020-06-29T17:28:44Z</time>
      </trkpt>
      <trkpt lat="48.71243" lon="5.67666">
        <ele>236.2</ele>
        <time>2020-06-29T17:28:45Z</time>
      </trkpt>
      <trkpt lat="48.71247" lon="5.67659">
        <ele>236.2</ele>
        <time>2020-06-29T17:28:46Z</time>
      </trkpt>
      <trkpt lat="48.71251" lon="5.67652">
        <ele>236.2</ele>
        <time>2020-06-29T17:28:47Z</time>
      </trkpt>
      <trkpt lat="48.71255" lon="5.67645">
        <ele>236.2</ele>
        <time>2020-06-29T17:28:48Z</time>
      </trkpt>
      <trkpt lat="48.71259" lon="5.67639">
        <ele>236.2</ele>
        <time>2020-06-29T17:28:49Z</time>
      </trkpt>
      <trkpt lat="48.71264" lon="5.67632">
        <ele>236.2</ele>
        <time>2020-06-29T17:28:50Z</time>
      </trkpt>
      <trkpt lat="48.71268" lon="5.67626">
        <ele>236.2</ele>
        <time>2020-06-29T17:28:51Z</time>
      </trkpt>
      <trkpt lat="48.71272" lon="5.67618">
        <ele>236.2</ele>
        <time>2020-06-29T17:28:52Z</time>
      </trkpt>
      <trkpt lat="48.71275" lon="5.67611">
        <ele>236.3</ele>
        <time>2020-06-29T17:28:53Z</time>
      </trkpt>
      <trkpt lat="48.71279" lon="5.67603">
        <ele>236.3</ele>
        <time>2020-06-29T17:28:54Z</time>
      </trkpt>
      <trkpt lat="48.71284" lon="5.67598">
        <ele>236.3</ele>
        <time>2020-06-29T17:28:55Z</time>
      </trkpt>
      <trkpt lat="48.71288" lon="5.67591">
        <ele>236.3</ele>
        <time>2020-06-29T17:28:56Z</time>
      </trkpt>
      <trkpt lat="48.71292" lon="5.67583">
        <ele>236.3</ele>
        <time>2020-06-29T17:28:57Z</time>
      </trkpt>
      <trkpt lat="48.71296" lon="5.67576">
        <ele>236.3</ele>
        <time>2020-06-29T17:28:58Z</time>
      </trkpt>
      <trkpt lat="48.713" lon="5.6757">
        <ele>236.3</ele>
        <time>2020-06-29T17:28:59Z</time>
      </trkpt>
      <trkpt lat="48.71304" lon="5.67564">
        <ele>236.3</ele>
        <time>2020-06-29T17:29:00Z</time>
      </trkpt>
      <trkpt lat="48.71308" lon="5.67557">
        <ele>236.3</ele>
        <time>2020-06-29T17:29:01Z</time>
      </trkpt>
      <trkpt lat="48.71312" lon="5.67551">
        <ele>236.3</ele>
        <time>2020-06-29T17:29:02Z</time>
      </trkpt>
      <trkpt lat="48.71316" lon="5.67545">
        <ele>236.3</ele>
        <time>2020-06-29T17:29:03Z</time>
      </trkpt>
      <trkpt lat="48.71319" lon="5.67538">
        <ele>236.4</ele>
        <time>2020-06-29T17:29:04Z</time>
      </trkpt>
      <trkpt lat="48.71323" lon="5.67532">
        <ele>236.4</ele>
        <time>2020-06-29T17:29:05Z</time>
      </trkpt>
      <trkpt lat="48.71326" lon="5.67525">
        <ele>236.5</ele>
        <time>2020-06-29T17:29:06Z</time>
      </trkpt>
      <trkpt lat="48.7133" lon="5.67519">
        <ele>236.2</ele>
        <time>2020-06-29T17:29:07Z</time>
      </trkpt>
      <trkpt lat="48.71334" lon="5.67512">
        <ele>236</ele>
        <time>2020-06-29T17:29:08Z</time>
      </trkpt>
      <trkpt lat="48.71338" lon="5.67505">
        <ele>235.9</ele>
        <time>2020-06-29T17:29:09Z</time>
      </trkpt>
      <trkpt lat="48.71342" lon="5.67498">
        <ele>235.8</ele>
        <time>2020-06-29T17:29:10Z</time>
      </trkpt>
      <trkpt lat="48.71346" lon="5.67492">
        <ele>235.8</ele>
        <time>2020-06-29T17:29:11Z</time>
      </trkpt>
      <trkpt lat="48.7135" lon="5.67486">
        <ele>235.8</ele>
        <time>2020-06-29T17:29:12Z</time>
      </trkpt>
      <trkpt lat="48.71354" lon="5.67479">
        <ele>235.8</ele>
        <time>2020-06-29T17:29:13Z</time>
      </trkpt>
      <trkpt lat="48.71358" lon="5.67472">
        <ele>235.8</ele>
        <time>2020-06-29T17:29:14Z</time>
      </trkpt>
      <trkpt lat="48.71362" lon="5.67467">
        <ele>235.8</ele>
        <time>2020-06-29T17:29:15Z</time>
      </trkpt>
      <trkpt lat="48.71366" lon="5.6746">
        <ele>235.8</ele>
        <time>2020-06-29T17:29:16Z</time>
      </trkpt>
      <trkpt lat="48.7137" lon="5.67453">
        <ele>235.7</ele>
        <time>2020-06-29T17:29:17Z</time>
      </trkpt>
      <trkpt lat="48.71374" lon="5.67445">
        <ele>235.7</ele>
        <time>2020-06-29T17:29:18Z</time>
      </trkpt>
      <trkpt lat="48.71378" lon="5.67438">
        <ele>235.7</ele>
        <time>2020-06-29T17:29:19Z</time>
      </trkpt>
      <trkpt lat="48.71381" lon="5.67431">
        <ele>235.8</ele>
        <time>2020-06-29T17:29:20Z</time>
      </trkpt>
      <trkpt lat="48.71385" lon="5.67424">
        <ele>235.8</ele>
        <time>2020-06-29T17:29:21Z</time>
      </trkpt>
      <trkpt lat="48.71389" lon="5.67418">
        <ele>235.8</ele>
        <time>2020-06-29T17:29:22Z</time>
      </trkpt>
      <trkpt lat="48.71393" lon="5.67411">
        <ele>235.8</ele>
        <time>2020-06-29T17:29:23Z</time>
      </trkpt>
      <trkpt lat="48.71397" lon="5.67405">
        <ele>235.8</ele>
        <time>2020-06-29T17:29:24Z</time>
      </trkpt>
      <trkpt lat="48.71402" lon="5.67398">
        <ele>235.8</ele>
        <time>2020-06-29T17:29:25Z</time>
      </trkpt>
      <trkpt lat="48.71405" lon="5.67391">
        <ele>235.7</ele>
        <time>2020-06-29T17:29:26Z</time>
      </trkpt>
      <trkpt lat="48.71409" lon="5.67383">
        <ele>235.7</ele>
        <time>2020-06-29T17:29:27Z</time>
      </trkpt>
      <trkpt lat="48.71413" lon="5.67376">
        <ele>235.7</ele>
        <time>2020-06-29T17:29:28Z</time>
      </trkpt>
      <trkpt lat="48.71417" lon="5.6737">
        <ele>235.7</ele>
        <time>2020-06-29T17:29:29Z</time>
      </trkpt>
      <trkpt lat="48.71421" lon="5.67363">
        <ele>235.7</ele>
        <time>2020-06-29T17:29:30Z</time>
      </trkpt>
      <trkpt lat="48.71425" lon="5.67356">
        <ele>235.7</ele>
        <time>2020-06-29T17:29:31Z</time>
      </trkpt>
      <trkpt lat="48.71429" lon="5.67349">
        <ele>235.7</ele>
        <time>2020-06-29T17:29:32Z</time>
      </trkpt>
      <trkpt lat="48.71433" lon="5.67342">
        <ele>235.7</ele>
        <time>2020-06-29T17:29:33Z</time>
      </trkpt>
      <trkpt lat="48.71437" lon="5.67335">
        <ele>235.7</ele>
        <time>2020-06-29T17:29:34Z</time>
      </trkpt>
      <trkpt lat="48.71442" lon="5.67328">
        <ele>235.7</ele>
        <time>2020-06-29T17:29:35Z</time>
      </trkpt>
      <trkpt lat="48.71446" lon="5.67322">
        <ele>235.7</ele>
        <time>2020-06-29T17:29:36Z</time>
      </trkpt>
      <trkpt lat="48.7145" lon="5.67315">
        <ele>235.7</ele>
        <time>2020-06-29T17:29:37Z</time>
      </trkpt>
      <trkpt lat="48.71454" lon="5.67308">
        <ele>235.7</ele>
        <time>2020-06-29T17:29:38Z</time>
      </trkpt>
      <trkpt lat="48.71458" lon="5.67301">
        <ele>235.8</ele>
        <time>2020-06-29T17:29:39Z</time>
      </trkpt>
      <trkpt lat="48.71463" lon="5.67294">
        <ele>235.8</ele>
        <time>2020-06-29T17:29:40Z</time>
      </trkpt>
      <trkpt lat="48.71467" lon="5.67287">
        <ele>235.8</ele>
        <time>2020-06-29T17:29:41Z</time>
      </trkpt>
      <trkpt lat="48.71471" lon="5.6728">
        <ele>235.9</ele>
        <time>2020-06-29T17:29:42Z</time>
      </trkpt>
      <trkpt lat="48.71475" lon="5.67273">
        <ele>235.9</ele>
        <time>2020-06-29T17:29:43Z</time>
      </trkpt>
      <trkpt lat="48.71479" lon="5.67266">
        <ele>236</ele>
        <time>2020-06-29T17:29:44Z</time>
      </trkpt>
      <trkpt lat="48.71483" lon="5.67259">
        <ele>236.1</ele>
        <time>2020-06-29T17:29:45Z</time>
      </trkpt>
      <trkpt lat="48.71487" lon="5.67252">
        <ele>236.1</ele>
        <time>2020-06-29T17:29:46Z</time>
      </trkpt>
      <trkpt lat="48.71491" lon="5.67245">
        <ele>236.2</ele>
        <time>2020-06-29T17:29:47Z</time>
      </trkpt>
      <trkpt lat="48.71495" lon="5.67238">
        <ele>236.2</ele>
        <time>2020-06-29T17:29:48Z</time>
      </trkpt>
      <trkpt lat="48.71499" lon="5.6723">
        <ele>236.3</ele>
        <time>2020-06-29T17:29:49Z</time>
      </trkpt>
      <trkpt lat="48.71502" lon="5.67223">
        <ele>236.4</ele>
        <time>2020-06-29T17:29:50Z</time>
      </trkpt>
      <trkpt lat="48.71506" lon="5.67215">
        <ele>236.5</ele>
        <time>2020-06-29T17:29:51Z</time>
      </trkpt>
      <trkpt lat="48.7151" lon="5.67209">
        <ele>236.6</ele>
        <time>2020-06-29T17:29:52Z</time>
      </trkpt>
      <trkpt lat="48.71513" lon="5.67202">
        <ele>236.6</ele>
        <time>2020-06-29T17:29:53Z</time>
      </trkpt>
      <trkpt lat="48.71517" lon="5.67196">
        <ele>236.7</ele>
        <time>2020-06-29T17:29:54Z</time>
      </trkpt>
      <trkpt lat="48.71522" lon="5.67189">
        <ele>236.8</ele>
        <time>2020-06-29T17:29:55Z</time>
      </trkpt>
      <trkpt lat="48.71526" lon="5.67183">
        <ele>236.9</ele>
        <time>2020-06-29T17:29:56Z</time>
      </trkpt>
      <trkpt lat="48.7153" lon="5.67176">
        <ele>237.1</ele>
        <time>2020-06-29T17:29:57Z</time>
      </trkpt>
      <trkpt lat="48.71534" lon="5.6717">
        <ele>237.2</ele>
        <time>2020-06-29T17:29:58Z</time>
      </trkpt>
      <trkpt lat="48.71538" lon="5.67163">
        <ele>237.3</ele>
        <time>2020-06-29T17:29:59Z</time>
      </trkpt>
      <trkpt lat="48.71542" lon="5.67157">
        <ele>237.5</ele>
        <time>2020-06-29T17:30:00Z</time>
      </trkpt>
      <trkpt lat="48.71546" lon="5.67152">
        <ele>237.6</ele>
        <time>2020-06-29T17:30:01Z</time>
      </trkpt>
      <trkpt lat="48.7155" lon="5.67146">
        <ele>237.7</ele>
        <time>2020-06-29T17:30:02Z</time>
      </trkpt>
      <trkpt lat="48.71555" lon="5.67143">
        <ele>237.9</ele>
        <time>2020-06-29T17:30:03Z</time>
      </trkpt>
      <trkpt lat="48.71559" lon="5.67138">
        <ele>238</ele>
        <time>2020-06-29T17:30:04Z</time>
      </trkpt>
      <trkpt lat="48.71564" lon="5.67135">
        <ele>238.1</ele>
        <time>2020-06-29T17:30:05Z</time>
      </trkpt>
      <trkpt lat="48.71569" lon="5.67131">
        <ele>238.2</ele>
        <time>2020-06-29T17:30:06Z</time>
      </trkpt>
      <trkpt lat="48.71574" lon="5.67131">
        <ele>238.2</ele>
        <time>2020-06-29T17:30:07Z</time>
      </trkpt>
      <trkpt lat="48.71579" lon="5.67131">
        <ele>238.1</ele>
        <time>2020-06-29T17:30:08Z</time>
      </trkpt>
      <trkpt lat="48.71584" lon="5.6713">
        <ele>238</ele>
        <time>2020-06-29T17:30:09Z</time>
      </trkpt>
      <trkpt lat="48.71589" lon="5.67128">
        <ele>237.9</ele>
        <time>2020-06-29T17:30:10Z</time>
      </trkpt>
      <trkpt lat="48.71594" lon="5.67128">
        <ele>237.9</ele>
        <time>2020-06-29T17:30:11Z</time>
      </trkpt>
      <trkpt lat="48.71599" lon="5.67128">
        <ele>237.9</ele>
        <time>2020-06-29T17:30:12Z</time>
      </trkpt>
      <trkpt lat="48.71605" lon="5.67125">
        <ele>237.9</ele>
        <time>2020-06-29T17:30:13Z</time>
      </trkpt>
      <trkpt lat="48.7161" lon="5.67121">
        <ele>237.8</ele>
        <time>2020-06-29T17:30:14Z</time>
      </trkpt>
      <trkpt lat="48.71615" lon="5.67117">
        <ele>237.8</ele>
        <time>2020-06-29T17:30:15Z</time>
      </trkpt>
      <trkpt lat="48.71619" lon="5.67111">
        <ele>237.7</ele>
        <time>2020-06-29T17:30:16Z</time>
      </trkpt>
      <trkpt lat="48.71623" lon="5.67105">
        <ele>237.6</ele>
        <time>2020-06-29T17:30:17Z</time>
      </trkpt>
      <trkpt lat="48.71627" lon="5.67098">
        <ele>237.5</ele>
        <time>2020-06-29T17:30:18Z</time>
      </trkpt>
      <trkpt lat="48.71631" lon="5.6709">
        <ele>237.5</ele>
        <time>2020-06-29T17:30:19Z</time>
      </trkpt>
      <trkpt lat="48.71635" lon="5.67083">
        <ele>237.4</ele>
        <time>2020-06-29T17:30:20Z</time>
      </trkpt>
      <trkpt lat="48.71638" lon="5.67075">
        <ele>237.4</ele>
        <time>2020-06-29T17:30:21Z</time>
      </trkpt>
      <trkpt lat="48.71641" lon="5.67067">
        <ele>237.3</ele>
        <time>2020-06-29T17:30:22Z</time>
      </trkpt>
      <trkpt lat="48.71645" lon="5.67059">
        <ele>237.3</ele>
        <time>2020-06-29T17:30:23Z</time>
      </trkpt>
      <trkpt lat="48.71648" lon="5.67051">
        <ele>237.3</ele>
        <time>2020-06-29T17:30:24Z</time>
      </trkpt>
      <trkpt lat="48.71651" lon="5.67042">
        <ele>237.2</ele>
        <time>2020-06-29T17:30:25Z</time>
      </trkpt>
      <trkpt lat="48.71654" lon="5.67034">
        <ele>237.1</ele>
        <time>2020-06-29T17:30:26Z</time>
      </trkpt>
      <trkpt lat="48.71657" lon="5.67025">
        <ele>237</ele>
        <time>2020-06-29T17:30:27Z</time>
      </trkpt>
      <trkpt lat="48.71659" lon="5.67016">
        <ele>237</ele>
        <time>2020-06-29T17:30:28Z</time>
      </trkpt>
      <trkpt lat="48.71662" lon="5.67008">
        <ele>237</ele>
        <time>2020-06-29T17:30:29Z</time>
      </trkpt>
      <trkpt lat="48.71665" lon="5.67">
        <ele>236.9</ele>
        <time>2020-06-29T17:30:30Z</time>
      </trkpt>
      <trkpt lat="48.71668" lon="5.66991">
        <ele>236.8</ele>
        <time>2020-06-29T17:30:31Z</time>
      </trkpt>
      <trkpt lat="48.71671" lon="5.66983">
        <ele>236.7</ele>
        <time>2020-06-29T17:30:32Z</time>
      </trkpt>
      <trkpt lat="48.71674" lon="5.66975">
        <ele>236.6</ele>
        <time>2020-06-29T17:30:33Z</time>
      </trkpt>
      <trkpt lat="48.71677" lon="5.66966">
        <ele>236.5</ele>
        <time>2020-06-29T17:30:34Z</time>
      </trkpt>
      <trkpt lat="48.7168" lon="5.66957">
        <ele>236.4</ele>
        <time>2020-06-29T17:30:35Z</time>
      </trkpt>
      <trkpt lat="48.71683" lon="5.66949">
        <ele>236.2</ele>
        <time>2020-06-29T17:30:36Z</time>
      </trkpt>
      <trkpt lat="48.71687" lon="5.6694">
        <ele>236.1</ele>
        <time>2020-06-29T17:30:37Z</time>
      </trkpt>
      <trkpt lat="48.71691" lon="5.66931">
        <ele>236</ele>
        <time>2020-06-29T17:30:38Z</time>
      </trkpt>
      <trkpt lat="48.71694" lon="5.66922">
        <ele>235.9</ele>
        <time>2020-06-29T17:30:39Z</time>
      </trkpt>
      <trkpt lat="48.71698" lon="5.66913">
        <ele>235.8</ele>
        <time>2020-06-29T17:30:40Z</time>
      </trkpt>
      <trkpt lat="48.71701" lon="5.66904">
        <ele>235.7</ele>
        <time>2020-06-29T17:30:41Z</time>
      </trkpt>
      <trkpt lat="48.71704" lon="5.66895">
        <ele>235.7</ele>
        <time>2020-06-29T17:30:42Z</time>
      </trkpt>
      <trkpt lat="48.71707" lon="5.66886">
        <ele>235.8</ele>
        <time>2020-06-29T17:30:43Z</time>
      </trkpt>
      <trkpt lat="48.71711" lon="5.66877">
        <ele>235.8</ele>
        <time>2020-06-29T17:30:44Z</time>
      </trkpt>
      <trkpt lat="48.71714" lon="5.66868">
        <ele>235.8</ele>
        <time>2020-06-29T17:30:45Z</time>
      </trkpt>
      <trkpt lat="48.71717" lon="5.66859">
        <ele>235.9</ele>
        <time>2020-06-29T17:30:46Z</time>
      </trkpt>
      <trkpt lat="48.7172" lon="5.66851">
        <ele>235.9</ele>
        <time>2020-06-29T17:30:47Z</time>
      </trkpt>
      <trkpt lat="48.71723" lon="5.66843">
        <ele>236</ele>
        <time>2020-06-29T17:30:48Z</time>
      </trkpt>
      <trkpt lat="48.71725" lon="5.66834">
        <ele>236.1</ele>
        <time>2020-06-29T17:30:49Z</time>
      </trkpt>
      <trkpt lat="48.71728" lon="5.66826">
        <ele>236.1</ele>
        <time>2020-06-29T17:30:50Z</time>
      </trkpt>
      <trkpt lat="48.7173" lon="5.66817">
        <ele>236.3</ele>
        <time>2020-06-29T17:30:51Z</time>
      </trkpt>
      <trkpt lat="48.71733" lon="5.66809">
        <ele>236.4</ele>
        <time>2020-06-29T17:30:52Z</time>
      </trkpt>
      <trkpt lat="48.71735" lon="5.66801">
        <ele>236.5</ele>
        <time>2020-06-29T17:30:53Z</time>
      </trkpt>
      <trkpt lat="48.71738" lon="5.66793">
        <ele>236.6</ele>
        <time>2020-06-29T17:30:54Z</time>
      </trkpt>
      <trkpt lat="48.7174" lon="5.66785">
        <ele>236.7</ele>
        <time>2020-06-29T17:30:55Z</time>
      </trkpt>
      <trkpt lat="48.71742" lon="5.66778">
        <ele>236.8</ele>
        <time>2020-06-29T17:30:56Z</time>
      </trkpt>
      <trkpt lat="48.71744" lon="5.6677">
        <ele>236.9</ele>
        <time>2020-06-29T17:30:57Z</time>
      </trkpt>
      <trkpt lat="48.71747" lon="5.66762">
        <ele>237</ele>
        <time>2020-06-29T17:30:58Z</time>
      </trkpt>
      <trkpt lat="48.71749" lon="5.66755">
        <ele>237.1</ele>
        <time>2020-06-29T17:30:59Z</time>
      </trkpt>
      <trkpt lat="48.71751" lon="5.66748">
        <ele>237.2</ele>
        <time>2020-06-29T17:31:00Z</time>
      </trkpt>
      <trkpt lat="48.71754" lon="5.66741">
        <ele>237.3</ele>
        <time>2020-06-29T17:31:01Z</time>
      </trkpt>
      <trkpt lat="48.71757" lon="5.66735">
        <ele>237.4</ele>
        <time>2020-06-29T17:31:02Z</time>
      </trkpt>
      <trkpt lat="48.71759" lon="5.66728">
        <ele>237.5</ele>
        <time>2020-06-29T17:31:03Z</time>
      </trkpt>
      <trkpt lat="48.71762" lon="5.66722">
        <ele>237.7</ele>
        <time>2020-06-29T17:31:04Z</time>
      </trkpt>
      <trkpt lat="48.71764" lon="5.66715">
        <ele>237.8</ele>
        <time>2020-06-29T17:31:05Z</time>
      </trkpt>
      <trkpt lat="48.71767" lon="5.66709">
        <ele>238</ele>
        <time>2020-06-29T17:31:06Z</time>
      </trkpt>
      <trkpt lat="48.71769" lon="5.66701">
        <ele>238.2</ele>
        <time>2020-06-29T17:31:07Z</time>
      </trkpt>
      <trkpt lat="48.7177" lon="5.66694">
        <ele>238.3</ele>
        <time>2020-06-29T17:31:08Z</time>
      </trkpt>
      <trkpt lat="48.71772" lon="5.66687">
        <ele>238.5</ele>
        <time>2020-06-29T17:31:09Z</time>
      </trkpt>
      <trkpt lat="48.71774" lon="5.66681">
        <ele>238.7</ele>
        <time>2020-06-29T17:31:10Z</time>
      </trkpt>
      <trkpt lat="48.71776" lon="5.66674">
        <ele>238.9</ele>
        <time>2020-06-29T17:31:11Z</time>
      </trkpt>
      <trkpt lat="48.71778" lon="5.66668">
        <ele>239.1</ele>
        <time>2020-06-29T17:31:12Z</time>
      </trkpt>
      <trkpt lat="48.7178" lon="5.66661">
        <ele>239.3</ele>
        <time>2020-06-29T17:31:13Z</time>
      </trkpt>
      <trkpt lat="48.71781" lon="5.66654">
        <ele>239.5</ele>
        <time>2020-06-29T17:31:14Z</time>
      </trkpt>
      <trkpt lat="48.71782" lon="5.66647">
        <ele>239.8</ele>
        <time>2020-06-29T17:31:15Z</time>
      </trkpt>
      <trkpt lat="48.71784" lon="5.66641">
        <ele>240</ele>
        <time>2020-06-29T17:31:16Z</time>
      </trkpt>
      <trkpt lat="48.71784" lon="5.66634">
        <ele>240.3</ele>
        <time>2020-06-29T17:31:17Z</time>
      </trkpt>
      <trkpt lat="48.71785" lon="5.66628">
        <ele>240.5</ele>
        <time>2020-06-29T17:31:18Z</time>
      </trkpt>
      <trkpt lat="48.71785" lon="5.66622">
        <ele>240.7</ele>
        <time>2020-06-29T17:31:19Z</time>
      </trkpt>
      <trkpt lat="48.71786" lon="5.66616">
        <ele>240.9</ele>
        <time>2020-06-29T17:31:20Z</time>
      </trkpt>
      <trkpt lat="48.71787" lon="5.6661">
        <ele>241.1</ele>
        <time>2020-06-29T17:31:21Z</time>
      </trkpt>
      <trkpt lat="48.71788" lon="5.66605">
        <ele>241.3</ele>
        <time>2020-06-29T17:31:22Z</time>
      </trkpt>
      <trkpt lat="48.71788" lon="5.66599">
        <ele>241.5</ele>
        <time>2020-06-29T17:31:23Z</time>
      </trkpt>
      <trkpt lat="48.71788" lon="5.66593">
        <ele>241.7</ele>
        <time>2020-06-29T17:31:24Z</time>
      </trkpt>
      <trkpt lat="48.71788" lon="5.66587">
        <ele>241.9</ele>
        <time>2020-06-29T17:31:25Z</time>
      </trkpt>
      <trkpt lat="48.71788" lon="5.66582">
        <ele>242.1</ele>
        <time>2020-06-29T17:31:26Z</time>
      </trkpt>
      <trkpt lat="48.71788" lon="5.66577">
        <ele>242.2</ele>
        <time>2020-06-29T17:31:27Z</time>
      </trkpt>
      <trkpt lat="48.71789" lon="5.66572">
        <ele>242.4</ele>
        <time>2020-06-29T17:31:28Z</time>
      </trkpt>
      <trkpt lat="48.7179" lon="5.66567">
        <ele>242.6</ele>
        <time>2020-06-29T17:31:29Z</time>
      </trkpt>
      <trkpt lat="48.71791" lon="5.66562">
        <ele>242.7</ele>
        <time>2020-06-29T17:31:30Z</time>
      </trkpt>
      <trkpt lat="48.71792" lon="5.66556">
        <ele>242.9</ele>
        <time>2020-06-29T17:31:31Z</time>
      </trkpt>
      <trkpt lat="48.71793" lon="5.6655">
        <ele>243.1</ele>
        <time>2020-06-29T17:31:32Z</time>
      </trkpt>
      <trkpt lat="48.71794" lon="5.66544">
        <ele>243.2</ele>
        <time>2020-06-29T17:31:33Z</time>
      </trkpt>
      <trkpt lat="48.71793" lon="5.66537">
        <ele>243.3</ele>
        <time>2020-06-29T17:31:34Z</time>
      </trkpt>
      <trkpt lat="48.71793" lon="5.6653">
        <ele>243.4</ele>
        <time>2020-06-29T17:31:35Z</time>
      </trkpt>
      <trkpt lat="48.71794" lon="5.66524">
        <ele>243.5</ele>
        <time>2020-06-29T17:31:36Z</time>
      </trkpt>
      <trkpt lat="48.71795" lon="5.66519">
        <ele>243.7</ele>
        <time>2020-06-29T17:31:37Z</time>
      </trkpt>
      <trkpt lat="48.71796" lon="5.66513">
        <ele>243.9</ele>
        <time>2020-06-29T17:31:38Z</time>
      </trkpt>
      <trkpt lat="48.71798" lon="5.66507">
        <ele>244.2</ele>
        <time>2020-06-29T17:31:39Z</time>
      </trkpt>
      <trkpt lat="48.71798" lon="5.66503">
        <ele>244.4</ele>
        <time>2020-06-29T17:31:40Z</time>
      </trkpt>
      <trkpt lat="48.71798" lon="5.66497">
        <ele>244.6</ele>
        <time>2020-06-29T17:31:41Z</time>
      </trkpt>
      <trkpt lat="48.71798" lon="5.66492">
        <ele>244.9</ele>
        <time>2020-06-29T17:31:42Z</time>
      </trkpt>
      <trkpt lat="48.71799" lon="5.66487">
        <ele>245.1</ele>
        <time>2020-06-29T17:31:43Z</time>
      </trkpt>
      <trkpt lat="48.71799" lon="5.66482">
        <ele>245.3</ele>
        <time>2020-06-29T17:31:44Z</time>
      </trkpt>
      <trkpt lat="48.718" lon="5.66478">
        <ele>245.4</ele>
        <time>2020-06-29T17:31:45Z</time>
      </trkpt>
      <trkpt lat="48.71802" lon="5.66472">
        <ele>246</ele>
        <time>2020-06-29T17:31:46Z</time>
      </trkpt>
      <trkpt lat="48.71803" lon="5.66466">
        <ele>246</ele>
        <time>2020-06-29T17:31:47Z</time>
      </trkpt>
      <trkpt lat="48.71805" lon="5.66462">
        <ele>246</ele>
        <time>2020-06-29T17:31:48Z</time>
      </trkpt>
      <trkpt lat="48.71805" lon="5.6646">
        <ele>246</ele>
        <time>2020-06-29T17:31:49Z</time>
      </trkpt>
      <trkpt lat="48.71806" lon="5.6646">
        <ele>245.9</ele>
        <time>2020-06-29T17:31:50Z</time>
      </trkpt>
      <trkpt lat="48.71808" lon="5.66458">
        <ele>245.9</ele>
        <time>2020-06-29T17:31:51Z</time>
      </trkpt>
      <trkpt lat="48.71809" lon="5.66457">
        <ele>245.9</ele>
        <time>2020-06-29T17:31:52Z</time>
      </trkpt>
      <trkpt lat="48.71811" lon="5.66459">
        <ele>245.8</ele>
        <time>2020-06-29T17:31:53Z</time>
      </trkpt>
      <trkpt lat="48.71814" lon="5.66461">
        <ele>245.8</ele>
        <time>2020-06-29T17:31:54Z</time>
      </trkpt>
      <trkpt lat="48.71816" lon="5.66463">
        <ele>245.7</ele>
        <time>2020-06-29T17:31:55Z</time>
      </trkpt>
      <trkpt lat="48.71818" lon="5.66466">
        <ele>245.6</ele>
        <time>2020-06-29T17:31:56Z</time>
      </trkpt>
      <trkpt lat="48.71821" lon="5.66468">
        <ele>245.5</ele>
        <time>2020-06-29T17:31:57Z</time>
      </trkpt>
      <trkpt lat="48.71824" lon="5.66471">
        <ele>245.4</ele>
        <time>2020-06-29T17:31:58Z</time>
      </trkpt>
      <trkpt lat="48.71827" lon="5.66474">
        <ele>245.3</ele>
        <time>2020-06-29T17:31:59Z</time>
      </trkpt>
      <trkpt lat="48.71831" lon="5.66475">
        <ele>245.2</ele>
        <time>2020-06-29T17:32:00Z</time>
      </trkpt>
      <trkpt lat="48.71836" lon="5.66478">
        <ele>245</ele>
        <time>2020-06-29T17:32:01Z</time>
      </trkpt>
      <trkpt lat="48.71839" lon="5.66479">
        <ele>244.9</ele>
        <time>2020-06-29T17:32:02Z</time>
      </trkpt>
      <trkpt lat="48.71843" lon="5.66483">
        <ele>244.8</ele>
        <time>2020-06-29T17:32:03Z</time>
      </trkpt>
      <trkpt lat="48.71846" lon="5.66492">
        <ele>244.6</ele>
        <time>2020-06-29T17:32:04Z</time>
      </trkpt>
      <trkpt lat="48.71845" lon="5.66498">
        <ele>244.6</ele>
        <time>2020-06-29T17:32:05Z</time>
      </trkpt>
      <trkpt lat="48.71844" lon="5.66504">
        <ele>244.5</ele>
        <time>2020-06-29T17:32:06Z</time>
      </trkpt>
      <trkpt lat="48.71842" lon="5.6651">
        <ele>244.5</ele>
        <time>2020-06-29T17:32:07Z</time>
      </trkpt>
      <trkpt lat="48.7184" lon="5.66517">
        <ele>244.5</ele>
        <time>2020-06-29T17:32:08Z</time>
      </trkpt>
      <trkpt lat="48.71839" lon="5.66521">
        <ele>244.4</ele>
        <time>2020-06-29T17:32:09Z</time>
      </trkpt>
      <trkpt lat="48.71839" lon="5.66525">
        <ele>244.4</ele>
        <time>2020-06-29T17:32:10Z</time>
      </trkpt>
      <trkpt lat="48.71839" lon="5.6653">
        <ele>244.4</ele>
        <time>2020-06-29T17:32:11Z</time>
      </trkpt>
      <trkpt lat="48.7184" lon="5.66537">
        <ele>244.5</ele>
        <time>2020-06-29T17:32:12Z</time>
      </trkpt>
      <trkpt lat="48.71839" lon="5.66542">
        <ele>244.5</ele>
        <time>2020-06-29T17:32:13Z</time>
      </trkpt>
      <trkpt lat="48.71839" lon="5.66544">
        <ele>244.5</ele>
        <time>2020-06-29T17:32:14Z</time>
      </trkpt>
      <trkpt lat="48.71838" lon="5.66549">
        <ele>244.5</ele>
        <time>2020-06-29T17:32:15Z</time>
      </trkpt>
      <trkpt lat="48.71838" lon="5.66551">
        <ele>244.5</ele>
        <time>2020-06-29T17:32:16Z</time>
      </trkpt>
      <trkpt lat="48.71837" lon="5.66552">
        <ele>244.5</ele>
        <time>2020-06-29T17:32:17Z</time>
      </trkpt>
      <trkpt lat="48.71837" lon="5.66555">
        <ele>244.5</ele>
        <time>2020-06-29T17:32:18Z</time>
      </trkpt>
      <trkpt lat="48.71837" lon="5.66557">
        <ele>244.5</ele>
        <time>2020-06-29T17:32:19Z</time>
      </trkpt>
      <trkpt lat="48.71838" lon="5.66555">
        <ele>244.5</ele>
        <time>2020-06-29T17:32:20Z</time>
      </trkpt>
      <trkpt lat="48.71839" lon="5.66556">
        <ele>244.5</ele>
        <time>2020-06-29T17:32:21Z</time>
      </trkpt>
      <trkpt lat="48.71839" lon="5.66556">
        <ele>244.5</ele>
        <time>2020-06-29T17:32:22Z</time>
      </trkpt>
      <trkpt lat="48.71839" lon="5.66557">
        <ele>244.5</ele>
        <time>2020-06-29T17:32:23Z</time>
      </trkpt>
      <trkpt lat="48.71839" lon="5.66556">
        <ele>244.5</ele>
        <time>2020-06-29T17:32:24Z</time>
      </trkpt>
      <trkpt lat="48.71838" lon="5.66556">
        <ele>244.5</ele>
        <time>2020-06-29T17:32:25Z</time>
      </trkpt>
      <trkpt lat="48.71839" lon="5.66556">
        <ele>244.5</ele>
        <time>2020-06-29T17:32:26Z</time>
      </trkpt>
      <trkpt lat="48.71839" lon="5.66556">
        <ele>244.5</ele>
        <time>2020-06-29T17:32:27Z</time>
      </trkpt>
      <trkpt lat="48.71839" lon="5.66555">
        <ele>244.5</ele>
        <time>2020-06-29T17:32:28Z</time>
      </trkpt>
      <trkpt lat="48.71839" lon="5.66556">
        <ele>244.5</ele>
        <time>2020-06-29T17:32:29Z</time>
      </trkpt>
      <trkpt lat="48.71839" lon="5.66556">
        <ele>244.5</ele>
        <time>2020-06-29T17:32:30Z</time>
      </trkpt>
      <trkpt lat="48.7184" lon="5.66556">
        <ele>244.5</ele>
        <time>2020-06-29T17:32:31Z</time>
      </trkpt>
      <trkpt lat="48.7184" lon="5.66556">
        <ele>244.5</ele>
        <time>2020-06-29T17:32:32Z</time>
      </trkpt>
      <trkpt lat="48.7184" lon="5.66556">
        <ele>244.5</ele>
        <time>2020-06-29T17:32:33Z</time>
      </trkpt>
      <trkpt lat="48.71839" lon="5.66556">
        <ele>244.5</ele>
        <time>2020-06-29T17:32:34Z</time>
      </trkpt>
      <trkpt lat="48.71839" lon="5.66555">
        <ele>244.5</ele>
        <time>2020-06-29T17:32:35Z</time>
      </trkpt>
      <trkpt lat="48.71839" lon="5.66554">
        <ele>244.5</ele>
        <time>2020-06-29T17:32:36Z</time>
      </trkpt>
      <trkpt lat="48.71839" lon="5.66554">
        <ele>244.5</ele>
        <time>2020-06-29T17:32:37Z</time>
      </trkpt>
      <trkpt lat="48.71839" lon="5.66554">
        <ele>244.5</ele>
        <time>2020-06-29T17:32:38Z</time>
      </trkpt>
      <trkpt lat="48.71839" lon="5.66554">
        <ele>244.5</ele>
        <time>2020-06-29T17:32:39Z</time>
      </trkpt>
      <trkpt lat="48.71839" lon="5.66555">
        <ele>244.5</ele>
        <time>2020-06-29T17:32:40Z</time>
      </trkpt>
      <trkpt lat="48.71839" lon="5.66555">
        <ele>244.5</ele>
        <time>2020-06-29T17:32:41Z</time>
      </trkpt>
      <trkpt lat="48.71839" lon="5.66554">
        <ele>244.5</ele>
        <time>2020-06-29T17:32:42Z</time>
      </trkpt>
      <trkpt lat="48.7184" lon="5.66553">
        <ele>244.5</ele>
        <time>2020-06-29T17:32:43Z</time>
      </trkpt>
      <trkpt lat="48.7184" lon="5.66547">
        <ele>244.5</ele>
        <time>2020-06-29T17:32:44Z</time>
      </trkpt>
      <trkpt lat="48.71841" lon="5.6654">
        <ele>244.5</ele>
        <time>2020-06-29T17:37:11Z</time>
      </trkpt>
      <trkpt lat="48.71841" lon="5.66533">
        <ele>244.5</ele>
        <time>2020-06-29T17:37:12Z</time>
      </trkpt>
      <trkpt lat="48.71843" lon="5.66527">
        <ele>244.5</ele>
        <time>2020-06-29T17:37:13Z</time>
      </trkpt>
      <trkpt lat="48.71843" lon="5.6652">
        <ele>244.4</ele>
        <time>2020-06-29T17:37:14Z</time>
      </trkpt>
      <trkpt lat="48.71843" lon="5.66513">
        <ele>244.5</ele>
        <time>2020-06-29T17:37:15Z</time>
      </trkpt>
      <trkpt lat="48.71844" lon="5.66509">
        <ele>244.5</ele>
        <time>2020-06-29T17:37:16Z</time>
      </trkpt>
      <trkpt lat="48.71846" lon="5.66503">
        <ele>244.5</ele>
        <time>2020-06-29T17:37:17Z</time>
      </trkpt>
      <trkpt lat="48.71848" lon="5.66498">
        <ele>244.6</ele>
        <time>2020-06-29T17:37:18Z</time>
      </trkpt>
      <trkpt lat="48.7185" lon="5.66493">
        <ele>244.6</ele>
        <time>2020-06-29T17:37:19Z</time>
      </trkpt>
      <trkpt lat="48.71851" lon="5.66489">
        <ele>244.7</ele>
        <time>2020-06-29T17:37:20Z</time>
      </trkpt>
      <trkpt lat="48.71851" lon="5.66484">
        <ele>244.7</ele>
        <time>2020-06-29T17:37:21Z</time>
      </trkpt>
      <trkpt lat="48.71849" lon="5.66481">
        <ele>244.7</ele>
        <time>2020-06-29T17:37:22Z</time>
      </trkpt>
      <trkpt lat="48.71848" lon="5.66481">
        <ele>244.7</ele>
        <time>2020-06-29T17:37:23Z</time>
      </trkpt>
      <trkpt lat="48.71848" lon="5.6648">
        <ele>244.7</ele>
        <time>2020-06-29T17:37:24Z</time>
      </trkpt>
      <trkpt lat="48.71847" lon="5.66479">
        <ele>244.7</ele>
        <time>2020-06-29T17:37:25Z</time>
      </trkpt>
      <trkpt lat="48.71847" lon="5.66479">
        <ele>244.7</ele>
        <time>2020-06-29T17:37:26Z</time>
      </trkpt>
      <trkpt lat="48.71847" lon="5.66481">
        <ele>244.7</ele>
        <time>2020-06-29T17:37:27Z</time>
      </trkpt>
      <trkpt lat="48.71848" lon="5.6648">
        <ele>244.7</ele>
        <time>2020-06-29T17:37:28Z</time>
      </trkpt>
      <trkpt lat="48.71849" lon="5.66481">
        <ele>244.6</ele>
        <time>2020-06-29T17:37:29Z</time>
      </trkpt>
      <trkpt lat="48.71849" lon="5.66484">
        <ele>244.6</ele>
        <time>2020-06-29T17:37:30Z</time>
      </trkpt>
      <trkpt lat="48.71849" lon="5.66489">
        <ele>244.6</ele>
        <time>2020-06-29T17:37:31Z</time>
      </trkpt>
      <trkpt lat="48.71849" lon="5.6649">
        <ele>244.6</ele>
        <time>2020-06-29T17:37:32Z</time>
      </trkpt>
      <trkpt lat="48.71848" lon="5.66496">
        <ele>244.5</ele>
        <time>2020-06-29T17:37:33Z</time>
      </trkpt>
      <trkpt lat="48.71847" lon="5.66497">
        <ele>244.5</ele>
        <time>2020-06-29T17:37:34Z</time>
      </trkpt>
      <trkpt lat="48.71846" lon="5.66501">
        <ele>244.5</ele>
        <time>2020-06-29T17:37:35Z</time>
      </trkpt>
      <trkpt lat="48.71846" lon="5.66503">
        <ele>244.5</ele>
        <time>2020-06-29T17:37:36Z</time>
      </trkpt>
      <trkpt lat="48.71845" lon="5.66507">
        <ele>244.5</ele>
        <time>2020-06-29T17:37:37Z</time>
      </trkpt>
      <trkpt lat="48.71844" lon="5.66509">
        <ele>244.5</ele>
        <time>2020-06-29T17:37:38Z</time>
      </trkpt>
      <trkpt lat="48.71843" lon="5.66514">
        <ele>244.5</ele>
        <time>2020-06-29T17:37:39Z</time>
      </trkpt>
      <trkpt lat="48.71843" lon="5.66516">
        <ele>244.5</ele>
        <time>2020-06-29T17:37:40Z</time>
      </trkpt>
      <trkpt lat="48.71842" lon="5.66521">
        <ele>244.5</ele>
        <time>2020-06-29T17:37:41Z</time>
      </trkpt>
      <trkpt lat="48.71842" lon="5.66523">
        <ele>244.4</ele>
        <time>2020-06-29T17:37:42Z</time>
      </trkpt>
      <trkpt lat="48.71842" lon="5.66531">
        <ele>244.4</ele>
        <time>2020-06-29T17:37:43Z</time>
      </trkpt>
      <trkpt lat="48.71842" lon="5.66535">
        <ele>244.5</ele>
        <time>2020-06-29T17:37:44Z</time>
      </trkpt>
      <trkpt lat="48.71842" lon="5.66543">
        <ele>244.6</ele>
        <time>2020-06-29T17:37:45Z</time>
      </trkpt>
      <trkpt lat="48.71841" lon="5.6655">
        <ele>244.7</ele>
        <time>2020-06-29T17:37:46Z</time>
      </trkpt>
      <trkpt lat="48.7184" lon="5.66557">
        <ele>244.7</ele>
        <time>2020-06-29T17:37:47Z</time>
      </trkpt>
      <trkpt lat="48.71839" lon="5.66563">
        <ele>244.8</ele>
        <time>2020-06-29T17:37:48Z</time>
      </trkpt>
      <trkpt lat="48.71837" lon="5.66568">
        <ele>244.8</ele>
        <time>2020-06-29T17:37:49Z</time>
      </trkpt>
      <trkpt lat="48.71837" lon="5.66576">
        <ele>244.8</ele>
        <time>2020-06-29T17:37:50Z</time>
      </trkpt>
      <trkpt lat="48.71837" lon="5.66584">
        <ele>244.8</ele>
        <time>2020-06-29T17:37:51Z</time>
      </trkpt>
      <trkpt lat="48.71838" lon="5.66587">
        <ele>244.8</ele>
        <time>2020-06-29T17:37:52Z</time>
      </trkpt>
      <trkpt lat="48.71839" lon="5.66587">
        <ele>244.8</ele>
        <time>2020-06-29T17:37:53Z</time>
      </trkpt>
      <trkpt lat="48.7184" lon="5.66584">
        <ele>244.8</ele>
        <time>2020-06-29T17:37:54Z</time>
      </trkpt>
      <trkpt lat="48.7184" lon="5.66583">
        <ele>244.8</ele>
        <time>2020-06-29T17:37:55Z</time>
      </trkpt>
      <trkpt lat="48.7184" lon="5.66579">
        <ele>244.8</ele>
        <time>2020-06-29T17:37:56Z</time>
      </trkpt>
      <trkpt lat="48.71841" lon="5.66578">
        <ele>244.8</ele>
        <time>2020-06-29T17:37:57Z</time>
      </trkpt>
      <trkpt lat="48.71841" lon="5.66576">
        <ele>244.8</ele>
        <time>2020-06-29T17:37:58Z</time>
      </trkpt>
      <trkpt lat="48.71841" lon="5.66571">
        <ele>244.8</ele>
        <time>2020-06-29T17:37:59Z</time>
      </trkpt>
      <trkpt lat="48.71841" lon="5.66567">
        <ele>244.8</ele>
        <time>2020-06-29T17:38:00Z</time>
      </trkpt>
      <trkpt lat="48.71842" lon="5.66563">
        <ele>244.8</ele>
        <time>2020-06-29T17:38:01Z</time>
      </trkpt>
      <trkpt lat="48.71842" lon="5.66557">
        <ele>244.7</ele>
        <time>2020-06-29T17:38:02Z</time>
      </trkpt>
      <trkpt lat="48.71842" lon="5.66552">
        <ele>244.6</ele>
        <time>2020-06-29T17:38:03Z</time>
      </trkpt>
      <trkpt lat="48.71843" lon="5.66545">
        <ele>244.6</ele>
        <time>2020-06-29T17:38:04Z</time>
      </trkpt>
      <trkpt lat="48.71843" lon="5.66539">
        <ele>244.5</ele>
        <time>2020-06-29T17:38:05Z</time>
      </trkpt>
      <trkpt lat="48.71842" lon="5.6653">
        <ele>244.5</ele>
        <time>2020-06-29T17:38:06Z</time>
      </trkpt>
      <trkpt lat="48.71842" lon="5.6652">
        <ele>244.4</ele>
        <time>2020-06-29T17:38:07Z</time>
      </trkpt>
      <trkpt lat="48.71841" lon="5.66513">
        <ele>244.5</ele>
        <time>2020-06-29T17:38:08Z</time>
      </trkpt>
      <trkpt lat="48.71842" lon="5.66507">
        <ele>244.5</ele>
        <time>2020-06-29T17:38:09Z</time>
      </trkpt>
      <trkpt lat="48.71843" lon="5.66501">
        <ele>244.5</ele>
        <time>2020-06-29T17:38:10Z</time>
      </trkpt>
      <trkpt lat="48.71844" lon="5.66494">
        <ele>244.6</ele>
        <time>2020-06-29T17:38:11Z</time>
      </trkpt>
      <trkpt lat="48.71844" lon="5.66489">
        <ele>244.6</ele>
        <time>2020-06-29T17:38:12Z</time>
      </trkpt>
      <trkpt lat="48.71844" lon="5.66483">
        <ele>244.8</ele>
        <time>2020-06-29T17:38:13Z</time>
      </trkpt>
      <trkpt lat="48.71843" lon="5.66478">
        <ele>244.9</ele>
        <time>2020-06-29T17:38:14Z</time>
      </trkpt>
      <trkpt lat="48.71842" lon="5.66477">
        <ele>244.9</ele>
        <time>2020-06-29T17:38:15Z</time>
      </trkpt>
      <trkpt lat="48.71839" lon="5.66476">
        <ele>244.9</ele>
        <time>2020-06-29T17:38:16Z</time>
      </trkpt>
      <trkpt lat="48.71835" lon="5.66475">
        <ele>245.1</ele>
        <time>2020-06-29T17:38:17Z</time>
      </trkpt>
      <trkpt lat="48.71832" lon="5.66474">
        <ele>245.1</ele>
        <time>2020-06-29T17:38:18Z</time>
      </trkpt>
      <trkpt lat="48.71829" lon="5.66473">
        <ele>245.2</ele>
        <time>2020-06-29T17:38:19Z</time>
      </trkpt>
      <trkpt lat="48.71825" lon="5.6647">
        <ele>245.3</ele>
        <time>2020-06-29T17:38:20Z</time>
      </trkpt>
      <trkpt lat="48.71821" lon="5.66468">
        <ele>245.5</ele>
        <time>2020-06-29T17:38:21Z</time>
      </trkpt>
      <trkpt lat="48.71817" lon="5.66464">
        <ele>245.6</ele>
        <time>2020-06-29T17:38:22Z</time>
      </trkpt>
      <trkpt lat="48.71814" lon="5.66461">
        <ele>245.7</ele>
        <time>2020-06-29T17:38:23Z</time>
      </trkpt>
      <trkpt lat="48.71811" lon="5.66453">
        <ele>246.1</ele>
        <time>2020-06-29T17:38:24Z</time>
      </trkpt>
      <trkpt lat="48.71809" lon="5.66447">
        <ele>246.2</ele>
        <time>2020-06-29T17:38:25Z</time>
      </trkpt>
      <trkpt lat="48.71808" lon="5.6644">
        <ele>246.3</ele>
        <time>2020-06-29T17:38:26Z</time>
      </trkpt>
      <trkpt lat="48.71807" lon="5.66433">
        <ele>246.4</ele>
        <time>2020-06-29T17:38:27Z</time>
      </trkpt>
      <trkpt lat="48.71807" lon="5.66427">
        <ele>246.5</ele>
        <time>2020-06-29T17:38:28Z</time>
      </trkpt>
      <trkpt lat="48.71807" lon="5.66421">
        <ele>246.6</ele>
        <time>2020-06-29T17:38:29Z</time>
      </trkpt>
      <trkpt lat="48.71807" lon="5.66414">
        <ele>246.7</ele>
        <time>2020-06-29T17:38:30Z</time>
      </trkpt>
      <trkpt lat="48.71807" lon="5.6641">
        <ele>246.8</ele>
        <time>2020-06-29T17:38:31Z</time>
      </trkpt>
      <trkpt lat="48.71806" lon="5.66405">
        <ele>246.8</ele>
        <time>2020-06-29T17:38:32Z</time>
      </trkpt>
      <trkpt lat="48.71806" lon="5.66398">
        <ele>246.9</ele>
        <time>2020-06-29T17:38:33Z</time>
      </trkpt>
      <trkpt lat="48.71806" lon="5.66392">
        <ele>247</ele>
        <time>2020-06-29T17:38:34Z</time>
      </trkpt>
      <trkpt lat="48.71806" lon="5.66386">
        <ele>247.2</ele>
        <time>2020-06-29T17:38:35Z</time>
      </trkpt>
      <trkpt lat="48.71806" lon="5.6638">
        <ele>247.2</ele>
        <time>2020-06-29T17:38:36Z</time>
      </trkpt>
      <trkpt lat="48.71806" lon="5.66373">
        <ele>247.3</ele>
        <time>2020-06-29T17:38:37Z</time>
      </trkpt>
      <trkpt lat="48.71805" lon="5.66365">
        <ele>247.4</ele>
        <time>2020-06-29T17:38:38Z</time>
      </trkpt>
      <trkpt lat="48.71805" lon="5.66358">
        <ele>247.5</ele>
        <time>2020-06-29T17:38:39Z</time>
      </trkpt>
      <trkpt lat="48.71804" lon="5.66352">
        <ele>247.6</ele>
        <time>2020-06-29T17:38:40Z</time>
      </trkpt>
      <trkpt lat="48.71804" lon="5.66347">
        <ele>247.6</ele>
        <time>2020-06-29T17:38:41Z</time>
      </trkpt>
      <trkpt lat="48.71803" lon="5.66342">
        <ele>247.6</ele>
        <time>2020-06-29T17:38:42Z</time>
      </trkpt>
      <trkpt lat="48.71802" lon="5.66337">
        <ele>247.7</ele>
        <time>2020-06-29T17:38:43Z</time>
      </trkpt>
      <trkpt lat="48.718" lon="5.66332">
        <ele>247.7</ele>
        <time>2020-06-29T17:38:44Z</time>
      </trkpt>
      <trkpt lat="48.71799" lon="5.66327">
        <ele>247.7</ele>
        <time>2020-06-29T17:38:45Z</time>
      </trkpt>
      <trkpt lat="48.71799" lon="5.66323">
        <ele>247.7</ele>
        <time>2020-06-29T17:38:46Z</time>
      </trkpt>
      <trkpt lat="48.71798" lon="5.66318">
        <ele>247.8</ele>
        <time>2020-06-29T17:38:47Z</time>
      </trkpt>
      <trkpt lat="48.71798" lon="5.66311">
        <ele>247.9</ele>
        <time>2020-06-29T17:38:48Z</time>
      </trkpt>
      <trkpt lat="48.71796" lon="5.66306">
        <ele>248</ele>
        <time>2020-06-29T17:38:49Z</time>
      </trkpt>
      <trkpt lat="48.71796" lon="5.66301">
        <ele>248.1</ele>
        <time>2020-06-29T17:38:50Z</time>
      </trkpt>
      <trkpt lat="48.71794" lon="5.66296">
        <ele>248.1</ele>
        <time>2020-06-29T17:38:51Z</time>
      </trkpt>
      <trkpt lat="48.71792" lon="5.66292">
        <ele>248.2</ele>
        <time>2020-06-29T17:38:52Z</time>
      </trkpt>
      <trkpt lat="48.7179" lon="5.66286">
        <ele>248.3</ele>
        <time>2020-06-29T17:38:53Z</time>
      </trkpt>
      <trkpt lat="48.71788" lon="5.66281">
        <ele>248.4</ele>
        <time>2020-06-29T17:38:54Z</time>
      </trkpt>
      <trkpt lat="48.71786" lon="5.66276">
        <ele>248.5</ele>
        <time>2020-06-29T17:38:55Z</time>
      </trkpt>
      <trkpt lat="48.71785" lon="5.66271">
        <ele>248.6</ele>
        <time>2020-06-29T17:38:56Z</time>
      </trkpt>
      <trkpt lat="48.71783" lon="5.66267">
        <ele>248.7</ele>
        <time>2020-06-29T17:38:57Z</time>
      </trkpt>
      <trkpt lat="48.71781" lon="5.66262">
        <ele>248.7</ele>
        <time>2020-06-29T17:38:58Z</time>
      </trkpt>
      <trkpt lat="48.7178" lon="5.66258">
        <ele>248.8</ele>
        <time>2020-06-29T17:38:59Z</time>
      </trkpt>
      <trkpt lat="48.71778" lon="5.66253">
        <ele>248.9</ele>
        <time>2020-06-29T17:39:00Z</time>
      </trkpt>
      <trkpt lat="48.71777" lon="5.66248">
        <ele>249</ele>
        <time>2020-06-29T17:39:01Z</time>
      </trkpt>
      <trkpt lat="48.71776" lon="5.66242">
        <ele>249.1</ele>
        <time>2020-06-29T17:39:02Z</time>
      </trkpt>
      <trkpt lat="48.71773" lon="5.66235">
        <ele>249.3</ele>
        <time>2020-06-29T17:39:03Z</time>
      </trkpt>
      <trkpt lat="48.71772" lon="5.66229">
        <ele>249.4</ele>
        <time>2020-06-29T17:39:04Z</time>
      </trkpt>
      <trkpt lat="48.71771" lon="5.66222">
        <ele>249.4</ele>
        <time>2020-06-29T17:39:05Z</time>
      </trkpt>
      <trkpt lat="48.71769" lon="5.66216">
        <ele>249.5</ele>
        <time>2020-06-29T17:39:06Z</time>
      </trkpt>
      <trkpt lat="48.71767" lon="5.66211">
        <ele>249.6</ele>
        <time>2020-06-29T17:39:07Z</time>
      </trkpt>
      <trkpt lat="48.71765" lon="5.66206">
        <ele>249.7</ele>
        <time>2020-06-29T17:39:08Z</time>
      </trkpt>
      <trkpt lat="48.71763" lon="5.66199">
        <ele>249.8</ele>
        <time>2020-06-29T17:39:09Z</time>
      </trkpt>
      <trkpt lat="48.71761" lon="5.66193">
        <ele>250</ele>
        <time>2020-06-29T17:39:10Z</time>
      </trkpt>
      <trkpt lat="48.7176" lon="5.66185">
        <ele>250.1</ele>
        <time>2020-06-29T17:39:11Z</time>
      </trkpt>
      <trkpt lat="48.71758" lon="5.66178">
        <ele>250.2</ele>
        <time>2020-06-29T17:39:12Z</time>
      </trkpt>
      <trkpt lat="48.71757" lon="5.66172">
        <ele>250.3</ele>
        <time>2020-06-29T17:39:13Z</time>
      </trkpt>
      <trkpt lat="48.71754" lon="5.66166">
        <ele>250.4</ele>
        <time>2020-06-29T17:39:14Z</time>
      </trkpt>
      <trkpt lat="48.71752" lon="5.6616">
        <ele>250.5</ele>
        <time>2020-06-29T17:39:15Z</time>
      </trkpt>
      <trkpt lat="48.7175" lon="5.66155">
        <ele>250.6</ele>
        <time>2020-06-29T17:39:16Z</time>
      </trkpt>
      <trkpt lat="48.71749" lon="5.66149">
        <ele>250.7</ele>
        <time>2020-06-29T17:39:17Z</time>
      </trkpt>
      <trkpt lat="48.71747" lon="5.66143">
        <ele>250.8</ele>
        <time>2020-06-29T17:39:18Z</time>
      </trkpt>
      <trkpt lat="48.71746" lon="5.66138">
        <ele>250.8</ele>
        <time>2020-06-29T17:39:19Z</time>
      </trkpt>
      <trkpt lat="48.71744" lon="5.66133">
        <ele>250.9</ele>
        <time>2020-06-29T17:39:20Z</time>
      </trkpt>
      <trkpt lat="48.71742" lon="5.66128">
        <ele>251</ele>
        <time>2020-06-29T17:39:21Z</time>
      </trkpt>
      <trkpt lat="48.7174" lon="5.66123">
        <ele>251.1</ele>
        <time>2020-06-29T17:39:22Z</time>
      </trkpt>
      <trkpt lat="48.71739" lon="5.66114">
        <ele>251.2</ele>
        <time>2020-06-29T17:39:23Z</time>
      </trkpt>
      <trkpt lat="48.71737" lon="5.66109">
        <ele>251.4</ele>
        <time>2020-06-29T17:39:24Z</time>
      </trkpt>
      <trkpt lat="48.71734" lon="5.66103">
        <ele>251.5</ele>
        <time>2020-06-29T17:39:25Z</time>
      </trkpt>
      <trkpt lat="48.71732" lon="5.66097">
        <ele>251.6</ele>
        <time>2020-06-29T17:39:26Z</time>
      </trkpt>
      <trkpt lat="48.71729" lon="5.66092">
        <ele>251.7</ele>
        <time>2020-06-29T17:39:27Z</time>
      </trkpt>
      <trkpt lat="48.71728" lon="5.66084">
        <ele>251.8</ele>
        <time>2020-06-29T17:39:28Z</time>
      </trkpt>
      <trkpt lat="48.71725" lon="5.66079">
        <ele>251.9</ele>
        <time>2020-06-29T17:39:29Z</time>
      </trkpt>
      <trkpt lat="48.71724" lon="5.66074">
        <ele>252</ele>
        <time>2020-06-29T17:39:30Z</time>
      </trkpt>
      <trkpt lat="48.71722" lon="5.66068">
        <ele>252.1</ele>
        <time>2020-06-29T17:39:31Z</time>
      </trkpt>
      <trkpt lat="48.7172" lon="5.66063">
        <ele>252.2</ele>
        <time>2020-06-29T17:39:32Z</time>
      </trkpt>
      <trkpt lat="48.71719" lon="5.66057">
        <ele>252.3</ele>
        <time>2020-06-29T17:39:33Z</time>
      </trkpt>
      <trkpt lat="48.71717" lon="5.66051">
        <ele>252.4</ele>
        <time>2020-06-29T17:39:34Z</time>
      </trkpt>
      <trkpt lat="48.71715" lon="5.66044">
        <ele>252.6</ele>
        <time>2020-06-29T17:39:35Z</time>
      </trkpt>
      <trkpt lat="48.71713" lon="5.66039">
        <ele>252.7</ele>
        <time>2020-06-29T17:39:36Z</time>
      </trkpt>
      <trkpt lat="48.71711" lon="5.66034">
        <ele>252.7</ele>
        <time>2020-06-29T17:39:37Z</time>
      </trkpt>
      <trkpt lat="48.71709" lon="5.66028">
        <ele>252.8</ele>
        <time>2020-06-29T17:39:38Z</time>
      </trkpt>
      <trkpt lat="48.71706" lon="5.66023">
        <ele>252.9</ele>
        <time>2020-06-29T17:39:39Z</time>
      </trkpt>
      <trkpt lat="48.71704" lon="5.66019">
        <ele>253</ele>
        <time>2020-06-29T17:39:40Z</time>
      </trkpt>
      <trkpt lat="48.71701" lon="5.66013">
        <ele>253.1</ele>
        <time>2020-06-29T17:39:41Z</time>
      </trkpt>
      <trkpt lat="48.71699" lon="5.66008">
        <ele>253.3</ele>
        <time>2020-06-29T17:39:42Z</time>
      </trkpt>
      <trkpt lat="48.71697" lon="5.66002">
        <ele>253.4</ele>
        <time>2020-06-29T17:39:43Z</time>
      </trkpt>
      <trkpt lat="48.71694" lon="5.65998">
        <ele>253.5</ele>
        <time>2020-06-29T17:39:44Z</time>
      </trkpt>
      <trkpt lat="48.71692" lon="5.65993">
        <ele>253.5</ele>
        <time>2020-06-29T17:39:45Z</time>
      </trkpt>
      <trkpt lat="48.7169" lon="5.65988">
        <ele>253.6</ele>
        <time>2020-06-29T17:39:46Z</time>
      </trkpt>
      <trkpt lat="48.71687" lon="5.65983">
        <ele>253.7</ele>
        <time>2020-06-29T17:39:47Z</time>
      </trkpt>
      <trkpt lat="48.71685" lon="5.65977">
        <ele>253.8</ele>
        <time>2020-06-29T17:39:48Z</time>
      </trkpt>
      <trkpt lat="48.71682" lon="5.65971">
        <ele>253.9</ele>
        <time>2020-06-29T17:39:49Z</time>
      </trkpt>
      <trkpt lat="48.7168" lon="5.65966">
        <ele>254</ele>
        <time>2020-06-29T17:39:50Z</time>
      </trkpt>
      <trkpt lat="48.71678" lon="5.65961">
        <ele>254.1</ele>
        <time>2020-06-29T17:39:51Z</time>
      </trkpt>
      <trkpt lat="48.71676" lon="5.65956">
        <ele>254.2</ele>
        <time>2020-06-29T17:39:52Z</time>
      </trkpt>
      <trkpt lat="48.71674" lon="5.65951">
        <ele>254.3</ele>
        <time>2020-06-29T17:39:53Z</time>
      </trkpt>
      <trkpt lat="48.71672" lon="5.65947">
        <ele>254.4</ele>
        <time>2020-06-29T17:39:54Z</time>
      </trkpt>
      <trkpt lat="48.71669" lon="5.65942">
        <ele>254.5</ele>
        <time>2020-06-29T17:39:55Z</time>
      </trkpt>
      <trkpt lat="48.71667" lon="5.65937">
        <ele>254.6</ele>
        <time>2020-06-29T17:39:56Z</time>
      </trkpt>
      <trkpt lat="48.71665" lon="5.65932">
        <ele>254.7</ele>
        <time>2020-06-29T17:39:57Z</time>
      </trkpt>
      <trkpt lat="48.71662" lon="5.65927">
        <ele>254.8</ele>
        <time>2020-06-29T17:39:58Z</time>
      </trkpt>
      <trkpt lat="48.7166" lon="5.65922">
        <ele>254.9</ele>
        <time>2020-06-29T17:39:59Z</time>
      </trkpt>
      <trkpt lat="48.71657" lon="5.65917">
        <ele>255</ele>
        <time>2020-06-29T17:40:00Z</time>
      </trkpt>
      <trkpt lat="48.71654" lon="5.65912">
        <ele>255.1</ele>
        <time>2020-06-29T17:40:01Z</time>
      </trkpt>
      <trkpt lat="48.71652" lon="5.65907">
        <ele>255.2</ele>
        <time>2020-06-29T17:40:02Z</time>
      </trkpt>
      <trkpt lat="48.71649" lon="5.65902">
        <ele>255.4</ele>
        <time>2020-06-29T17:40:03Z</time>
      </trkpt>
      <trkpt lat="48.71646" lon="5.65896">
        <ele>255.4</ele>
        <time>2020-06-29T17:40:04Z</time>
      </trkpt>
      <trkpt lat="48.71644" lon="5.65891">
        <ele>255.5</ele>
        <time>2020-06-29T17:40:05Z</time>
      </trkpt>
      <trkpt lat="48.71642" lon="5.65888">
        <ele>255.6</ele>
        <time>2020-06-29T17:40:06Z</time>
      </trkpt>
      <trkpt lat="48.7164" lon="5.65883">
        <ele>255.7</ele>
        <time>2020-06-29T17:40:07Z</time>
      </trkpt>
      <trkpt lat="48.71638" lon="5.65879">
        <ele>255.7</ele>
        <time>2020-06-29T17:40:08Z</time>
      </trkpt>
      <trkpt lat="48.71636" lon="5.65871">
        <ele>255.8</ele>
        <time>2020-06-29T17:40:09Z</time>
      </trkpt>
      <trkpt lat="48.71634" lon="5.65867">
        <ele>255.9</ele>
        <time>2020-06-29T17:40:10Z</time>
      </trkpt>
      <trkpt lat="48.71631" lon="5.65863">
        <ele>256</ele>
        <time>2020-06-29T17:40:11Z</time>
      </trkpt>
      <trkpt lat="48.71628" lon="5.65858">
        <ele>256.1</ele>
        <time>2020-06-29T17:40:12Z</time>
      </trkpt>
      <trkpt lat="48.71625" lon="5.65853">
        <ele>256.2</ele>
        <time>2020-06-29T17:40:13Z</time>
      </trkpt>
      <trkpt lat="48.71623" lon="5.65847">
        <ele>256.3</ele>
        <time>2020-06-29T17:40:14Z</time>
      </trkpt>
      <trkpt lat="48.7162" lon="5.65843">
        <ele>256.4</ele>
        <time>2020-06-29T17:40:15Z</time>
      </trkpt>
      <trkpt lat="48.71617" lon="5.65838">
        <ele>256.4</ele>
        <time>2020-06-29T17:40:16Z</time>
      </trkpt>
      <trkpt lat="48.71615" lon="5.65834">
        <ele>256.5</ele>
        <time>2020-06-29T17:40:17Z</time>
      </trkpt>
      <trkpt lat="48.71612" lon="5.65829">
        <ele>256.6</ele>
        <time>2020-06-29T17:40:18Z</time>
      </trkpt>
      <trkpt lat="48.71609" lon="5.65822">
        <ele>256.7</ele>
        <time>2020-06-29T17:40:19Z</time>
      </trkpt>
      <trkpt lat="48.71606" lon="5.65817">
        <ele>256.8</ele>
        <time>2020-06-29T17:40:20Z</time>
      </trkpt>
      <trkpt lat="48.71603" lon="5.65811">
        <ele>256.8</ele>
        <time>2020-06-29T17:40:21Z</time>
      </trkpt>
      <trkpt lat="48.716" lon="5.65806">
        <ele>256.9</ele>
        <time>2020-06-29T17:40:22Z</time>
      </trkpt>
      <trkpt lat="48.71597" lon="5.658">
        <ele>257</ele>
        <time>2020-06-29T17:40:23Z</time>
      </trkpt>
      <trkpt lat="48.71594" lon="5.65795">
        <ele>257.1</ele>
        <time>2020-06-29T17:40:24Z</time>
      </trkpt>
      <trkpt lat="48.71591" lon="5.6579">
        <ele>257.2</ele>
        <time>2020-06-29T17:40:25Z</time>
      </trkpt>
      <trkpt lat="48.71588" lon="5.65786">
        <ele>257.2</ele>
        <time>2020-06-29T17:40:26Z</time>
      </trkpt>
      <trkpt lat="48.71585" lon="5.65781">
        <ele>257.2</ele>
        <time>2020-06-29T17:40:27Z</time>
      </trkpt>
      <trkpt lat="48.71582" lon="5.65777">
        <ele>257.2</ele>
        <time>2020-06-29T17:40:28Z</time>
      </trkpt>
      <trkpt lat="48.71578" lon="5.65771">
        <ele>257.3</ele>
        <time>2020-06-29T17:40:29Z</time>
      </trkpt>
      <trkpt lat="48.71574" lon="5.65765">
        <ele>257.3</ele>
        <time>2020-06-29T17:40:30Z</time>
      </trkpt>
      <trkpt lat="48.71571" lon="5.6576">
        <ele>257.3</ele>
        <time>2020-06-29T17:40:31Z</time>
      </trkpt>
      <trkpt lat="48.71567" lon="5.65755">
        <ele>257.3</ele>
        <time>2020-06-29T17:40:32Z</time>
      </trkpt>
      <trkpt lat="48.71563" lon="5.6575">
        <ele>257.4</ele>
        <time>2020-06-29T17:40:33Z</time>
      </trkpt>
      <trkpt lat="48.71559" lon="5.65746">
        <ele>257.4</ele>
        <time>2020-06-29T17:40:34Z</time>
      </trkpt>
      <trkpt lat="48.71557" lon="5.6574">
        <ele>257.5</ele>
        <time>2020-06-29T17:40:35Z</time>
      </trkpt>
      <trkpt lat="48.71552" lon="5.65736">
        <ele>257.5</ele>
        <time>2020-06-29T17:40:36Z</time>
      </trkpt>
      <trkpt lat="48.71549" lon="5.6573">
        <ele>257.6</ele>
        <time>2020-06-29T17:40:37Z</time>
      </trkpt>
      <trkpt lat="48.71545" lon="5.65724">
        <ele>257.7</ele>
        <time>2020-06-29T17:40:38Z</time>
      </trkpt>
      <trkpt lat="48.7154" lon="5.65719">
        <ele>257.8</ele>
        <time>2020-06-29T17:40:39Z</time>
      </trkpt>
      <trkpt lat="48.71536" lon="5.65714">
        <ele>257.9</ele>
        <time>2020-06-29T17:40:40Z</time>
      </trkpt>
      <trkpt lat="48.71532" lon="5.65708">
        <ele>257.9</ele>
        <time>2020-06-29T17:40:41Z</time>
      </trkpt>
      <trkpt lat="48.71529" lon="5.65703">
        <ele>258</ele>
        <time>2020-06-29T17:40:42Z</time>
      </trkpt>
      <trkpt lat="48.71525" lon="5.65697">
        <ele>258</ele>
        <time>2020-06-29T17:40:43Z</time>
      </trkpt>
      <trkpt lat="48.71522" lon="5.65693">
        <ele>258.1</ele>
        <time>2020-06-29T17:40:44Z</time>
      </trkpt>
      <trkpt lat="48.71518" lon="5.65689">
        <ele>258.1</ele>
        <time>2020-06-29T17:40:45Z</time>
      </trkpt>
      <trkpt lat="48.71514" lon="5.65684">
        <ele>258.2</ele>
        <time>2020-06-29T17:40:46Z</time>
      </trkpt>
      <trkpt lat="48.71509" lon="5.65678">
        <ele>258.2</ele>
        <time>2020-06-29T17:40:47Z</time>
      </trkpt>
      <trkpt lat="48.71505" lon="5.65673">
        <ele>258.3</ele>
        <time>2020-06-29T17:40:48Z</time>
      </trkpt>
      <trkpt lat="48.715" lon="5.65669">
        <ele>258.3</ele>
        <time>2020-06-29T17:40:49Z</time>
      </trkpt>
      <trkpt lat="48.71496" lon="5.65664">
        <ele>258.3</ele>
        <time>2020-06-29T17:40:50Z</time>
      </trkpt>
      <trkpt lat="48.71491" lon="5.65659">
        <ele>258.3</ele>
        <time>2020-06-29T17:40:51Z</time>
      </trkpt>
      <trkpt lat="48.71486" lon="5.65655">
        <ele>258.4</ele>
        <time>2020-06-29T17:40:52Z</time>
      </trkpt>
      <trkpt lat="48.71482" lon="5.6565">
        <ele>258.4</ele>
        <time>2020-06-29T17:40:53Z</time>
      </trkpt>
      <trkpt lat="48.71477" lon="5.65645">
        <ele>258.5</ele>
        <time>2020-06-29T17:40:54Z</time>
      </trkpt>
      <trkpt lat="48.71474" lon="5.65639">
        <ele>258.5</ele>
        <time>2020-06-29T17:40:55Z</time>
      </trkpt>
      <trkpt lat="48.7147" lon="5.65634">
        <ele>258.6</ele>
        <time>2020-06-29T17:40:56Z</time>
      </trkpt>
      <trkpt lat="48.71466" lon="5.65628">
        <ele>258.6</ele>
        <time>2020-06-29T17:40:57Z</time>
      </trkpt>
      <trkpt lat="48.71461" lon="5.65623">
        <ele>258.7</ele>
        <time>2020-06-29T17:40:58Z</time>
      </trkpt>
      <trkpt lat="48.71457" lon="5.65619">
        <ele>258.7</ele>
        <time>2020-06-29T17:40:59Z</time>
      </trkpt>
      <trkpt lat="48.71452" lon="5.65613">
        <ele>258.8</ele>
        <time>2020-06-29T17:41:00Z</time>
      </trkpt>
      <trkpt lat="48.71449" lon="5.65609">
        <ele>258.8</ele>
        <time>2020-06-29T17:41:01Z</time>
      </trkpt>
      <trkpt lat="48.71445" lon="5.65604">
        <ele>258.9</ele>
        <time>2020-06-29T17:41:02Z</time>
      </trkpt>
      <trkpt lat="48.7144" lon="5.656">
        <ele>258.9</ele>
        <time>2020-06-29T17:41:03Z</time>
      </trkpt>
      <trkpt lat="48.71437" lon="5.65596">
        <ele>258.9</ele>
        <time>2020-06-29T17:41:04Z</time>
      </trkpt>
      <trkpt lat="48.71432" lon="5.6559">
        <ele>259</ele>
        <time>2020-06-29T17:41:05Z</time>
      </trkpt>
      <trkpt lat="48.71428" lon="5.65584">
        <ele>259</ele>
        <time>2020-06-29T17:41:06Z</time>
      </trkpt>
      <trkpt lat="48.71423" lon="5.65579">
        <ele>259.1</ele>
        <time>2020-06-29T17:41:07Z</time>
      </trkpt>
      <trkpt lat="48.71419" lon="5.65573">
        <ele>259.1</ele>
        <time>2020-06-29T17:41:08Z</time>
      </trkpt>
      <trkpt lat="48.71415" lon="5.65567">
        <ele>259.2</ele>
        <time>2020-06-29T17:41:09Z</time>
      </trkpt>
      <trkpt lat="48.71411" lon="5.65561">
        <ele>259.2</ele>
        <time>2020-06-29T17:41:10Z</time>
      </trkpt>
      <trkpt lat="48.71407" lon="5.65554">
        <ele>259.2</ele>
        <time>2020-06-29T17:41:11Z</time>
      </trkpt>
      <trkpt lat="48.71403" lon="5.65549">
        <ele>259.3</ele>
        <time>2020-06-29T17:41:12Z</time>
      </trkpt>
      <trkpt lat="48.71399" lon="5.65544">
        <ele>259.3</ele>
        <time>2020-06-29T17:41:13Z</time>
      </trkpt>
      <trkpt lat="48.71395" lon="5.65538">
        <ele>259.4</ele>
        <time>2020-06-29T17:41:14Z</time>
      </trkpt>
      <trkpt lat="48.7139" lon="5.65533">
        <ele>259.5</ele>
        <time>2020-06-29T17:41:15Z</time>
      </trkpt>
      <trkpt lat="48.71385" lon="5.6553">
        <ele>259.5</ele>
        <time>2020-06-29T17:41:16Z</time>
      </trkpt>
      <trkpt lat="48.71381" lon="5.65525">
        <ele>259.6</ele>
        <time>2020-06-29T17:41:17Z</time>
      </trkpt>
      <trkpt lat="48.71377" lon="5.6552">
        <ele>259.7</ele>
        <time>2020-06-29T17:41:18Z</time>
      </trkpt>
      <trkpt lat="48.71374" lon="5.65513">
        <ele>259.7</ele>
        <time>2020-06-29T17:41:19Z</time>
      </trkpt>
      <trkpt lat="48.7137" lon="5.65508">
        <ele>259.8</ele>
        <time>2020-06-29T17:41:20Z</time>
      </trkpt>
      <trkpt lat="48.71365" lon="5.65506">
        <ele>259.8</ele>
        <time>2020-06-29T17:41:21Z</time>
      </trkpt>
      <trkpt lat="48.7136" lon="5.655">
        <ele>259.9</ele>
        <time>2020-06-29T17:41:22Z</time>
      </trkpt>
      <trkpt lat="48.71356" lon="5.65496">
        <ele>259.9</ele>
        <time>2020-06-29T17:41:23Z</time>
      </trkpt>
      <trkpt lat="48.71352" lon="5.65491">
        <ele>259.9</ele>
        <time>2020-06-29T17:41:24Z</time>
      </trkpt>
      <trkpt lat="48.71349" lon="5.65485">
        <ele>259.9</ele>
        <time>2020-06-29T17:41:25Z</time>
      </trkpt>
      <trkpt lat="48.71345" lon="5.65481">
        <ele>260</ele>
        <time>2020-06-29T17:41:26Z</time>
      </trkpt>
      <trkpt lat="48.71341" lon="5.65477">
        <ele>260</ele>
        <time>2020-06-29T17:41:27Z</time>
      </trkpt>
      <trkpt lat="48.71337" lon="5.65472">
        <ele>260.1</ele>
        <time>2020-06-29T17:41:28Z</time>
      </trkpt>
      <trkpt lat="48.71333" lon="5.65468">
        <ele>260.1</ele>
        <time>2020-06-29T17:41:29Z</time>
      </trkpt>
      <trkpt lat="48.71328" lon="5.65463">
        <ele>260.2</ele>
        <time>2020-06-29T17:41:30Z</time>
      </trkpt>
      <trkpt lat="48.71323" lon="5.65457">
        <ele>260.2</ele>
        <time>2020-06-29T17:41:31Z</time>
      </trkpt>
      <trkpt lat="48.71319" lon="5.65452">
        <ele>260.3</ele>
        <time>2020-06-29T17:41:32Z</time>
      </trkpt>
      <trkpt lat="48.71315" lon="5.65447">
        <ele>260.3</ele>
        <time>2020-06-29T17:41:33Z</time>
      </trkpt>
      <trkpt lat="48.7131" lon="5.65442">
        <ele>260.4</ele>
        <time>2020-06-29T17:41:34Z</time>
      </trkpt>
      <trkpt lat="48.71306" lon="5.65437">
        <ele>260.4</ele>
        <time>2020-06-29T17:41:35Z</time>
      </trkpt>
      <trkpt lat="48.71302" lon="5.65432">
        <ele>260.4</ele>
        <time>2020-06-29T17:41:36Z</time>
      </trkpt>
      <trkpt lat="48.71299" lon="5.65426">
        <ele>260.4</ele>
        <time>2020-06-29T17:41:37Z</time>
      </trkpt>
      <trkpt lat="48.71295" lon="5.65421">
        <ele>260.5</ele>
        <time>2020-06-29T17:41:38Z</time>
      </trkpt>
      <trkpt lat="48.7129" lon="5.65416">
        <ele>260.5</ele>
        <time>2020-06-29T17:41:39Z</time>
      </trkpt>
      <trkpt lat="48.71285" lon="5.65411">
        <ele>260.5</ele>
        <time>2020-06-29T17:41:40Z</time>
      </trkpt>
      <trkpt lat="48.71281" lon="5.65404">
        <ele>260.5</ele>
        <time>2020-06-29T17:41:41Z</time>
      </trkpt>
      <trkpt lat="48.71276" lon="5.65399">
        <ele>260.6</ele>
        <time>2020-06-29T17:41:42Z</time>
      </trkpt>
      <trkpt lat="48.71273" lon="5.65393">
        <ele>260.6</ele>
        <time>2020-06-29T17:41:43Z</time>
      </trkpt>
      <trkpt lat="48.71269" lon="5.65387">
        <ele>260.6</ele>
        <time>2020-06-29T17:41:44Z</time>
      </trkpt>
      <trkpt lat="48.71265" lon="5.65382">
        <ele>260.6</ele>
        <time>2020-06-29T17:41:45Z</time>
      </trkpt>
      <trkpt lat="48.7126" lon="5.65376">
        <ele>260.6</ele>
        <time>2020-06-29T17:41:46Z</time>
      </trkpt>
      <trkpt lat="48.71256" lon="5.65371">
        <ele>260.7</ele>
        <time>2020-06-29T17:41:47Z</time>
      </trkpt>
      <trkpt lat="48.71251" lon="5.65367">
        <ele>260.7</ele>
        <time>2020-06-29T17:41:48Z</time>
      </trkpt>
      <trkpt lat="48.71247" lon="5.65363">
        <ele>260.7</ele>
        <time>2020-06-29T17:41:49Z</time>
      </trkpt>
      <trkpt lat="48.71242" lon="5.65358">
        <ele>260.7</ele>
        <time>2020-06-29T17:41:50Z</time>
      </trkpt>
      <trkpt lat="48.71236" lon="5.65352">
        <ele>260.7</ele>
        <time>2020-06-29T17:41:51Z</time>
      </trkpt>
      <trkpt lat="48.71233" lon="5.65347">
        <ele>260.7</ele>
        <time>2020-06-29T17:41:52Z</time>
      </trkpt>
      <trkpt lat="48.71229" lon="5.65341">
        <ele>260.8</ele>
        <time>2020-06-29T17:41:53Z</time>
      </trkpt>
      <trkpt lat="48.71224" lon="5.65336">
        <ele>260.8</ele>
        <time>2020-06-29T17:41:54Z</time>
      </trkpt>
      <trkpt lat="48.71219" lon="5.65329">
        <ele>260.8</ele>
        <time>2020-06-29T17:41:55Z</time>
      </trkpt>
      <trkpt lat="48.71214" lon="5.65325">
        <ele>260.9</ele>
        <time>2020-06-29T17:41:56Z</time>
      </trkpt>
      <trkpt lat="48.7121" lon="5.6532">
        <ele>260.9</ele>
        <time>2020-06-29T17:41:57Z</time>
      </trkpt>
      <trkpt lat="48.71206" lon="5.65313">
        <ele>260.9</ele>
        <time>2020-06-29T17:41:58Z</time>
      </trkpt>
      <trkpt lat="48.71201" lon="5.65307">
        <ele>260.8</ele>
        <time>2020-06-29T17:41:59Z</time>
      </trkpt>
      <trkpt lat="48.71197" lon="5.653">
        <ele>260.8</ele>
        <time>2020-06-29T17:42:00Z</time>
      </trkpt>
      <trkpt lat="48.71193" lon="5.65295">
        <ele>260.8</ele>
        <time>2020-06-29T17:42:01Z</time>
      </trkpt>
      <trkpt lat="48.71188" lon="5.6529">
        <ele>260.8</ele>
        <time>2020-06-29T17:42:02Z</time>
      </trkpt>
      <trkpt lat="48.71184" lon="5.65284">
        <ele>260.8</ele>
        <time>2020-06-29T17:42:03Z</time>
      </trkpt>
      <trkpt lat="48.7118" lon="5.65277">
        <ele>260.8</ele>
        <time>2020-06-29T17:42:04Z</time>
      </trkpt>
      <trkpt lat="48.71176" lon="5.6527">
        <ele>260.8</ele>
        <time>2020-06-29T17:42:05Z</time>
      </trkpt>
      <trkpt lat="48.71172" lon="5.65264">
        <ele>260.9</ele>
        <time>2020-06-29T17:42:06Z</time>
      </trkpt>
      <trkpt lat="48.71168" lon="5.65258">
        <ele>261</ele>
        <time>2020-06-29T17:42:07Z</time>
      </trkpt>
      <trkpt lat="48.71165" lon="5.65252">
        <ele>261</ele>
        <time>2020-06-29T17:42:08Z</time>
      </trkpt>
      <trkpt lat="48.71161" lon="5.65246">
        <ele>261.1</ele>
        <time>2020-06-29T17:42:09Z</time>
      </trkpt>
      <trkpt lat="48.71159" lon="5.65239">
        <ele>261.1</ele>
        <time>2020-06-29T17:42:10Z</time>
      </trkpt>
      <trkpt lat="48.71155" lon="5.65232">
        <ele>261.1</ele>
        <time>2020-06-29T17:42:11Z</time>
      </trkpt>
      <trkpt lat="48.71152" lon="5.65226">
        <ele>261.1</ele>
        <time>2020-06-29T17:42:12Z</time>
      </trkpt>
      <trkpt lat="48.71149" lon="5.6522">
        <ele>261</ele>
        <time>2020-06-29T17:42:13Z</time>
      </trkpt>
      <trkpt lat="48.71146" lon="5.65211">
        <ele>261</ele>
        <time>2020-06-29T17:42:14Z</time>
      </trkpt>
      <trkpt lat="48.71142" lon="5.65204">
        <ele>261</ele>
        <time>2020-06-29T17:42:15Z</time>
      </trkpt>
      <trkpt lat="48.71139" lon="5.65196">
        <ele>261</ele>
        <time>2020-06-29T17:42:16Z</time>
      </trkpt>
      <trkpt lat="48.71135" lon="5.65188">
        <ele>261</ele>
        <time>2020-06-29T17:42:17Z</time>
      </trkpt>
      <trkpt lat="48.71132" lon="5.65181">
        <ele>261</ele>
        <time>2020-06-29T17:42:18Z</time>
      </trkpt>
      <trkpt lat="48.71131" lon="5.65173">
        <ele>261</ele>
        <time>2020-06-29T17:42:19Z</time>
      </trkpt>
      <trkpt lat="48.71129" lon="5.65164">
        <ele>261</ele>
        <time>2020-06-29T17:42:20Z</time>
      </trkpt>
      <trkpt lat="48.71126" lon="5.65157">
        <ele>261</ele>
        <time>2020-06-29T17:42:21Z</time>
      </trkpt>
      <trkpt lat="48.71124" lon="5.65148">
        <ele>261</ele>
        <time>2020-06-29T17:42:22Z</time>
      </trkpt>
      <trkpt lat="48.71122" lon="5.65141">
        <ele>261</ele>
        <time>2020-06-29T17:42:23Z</time>
      </trkpt>
      <trkpt lat="48.71121" lon="5.65134">
        <ele>261</ele>
        <time>2020-06-29T17:42:24Z</time>
      </trkpt>
      <trkpt lat="48.71117" lon="5.65126">
        <ele>260.9</ele>
        <time>2020-06-29T17:42:25Z</time>
      </trkpt>
      <trkpt lat="48.71115" lon="5.65118">
        <ele>260.9</ele>
        <time>2020-06-29T17:42:26Z</time>
      </trkpt>
      <trkpt lat="48.71114" lon="5.6511">
        <ele>260.9</ele>
        <time>2020-06-29T17:42:27Z</time>
      </trkpt>
      <trkpt lat="48.71112" lon="5.65101">
        <ele>260.8</ele>
        <time>2020-06-29T17:42:28Z</time>
      </trkpt>
      <trkpt lat="48.71109" lon="5.65093">
        <ele>260.8</ele>
        <time>2020-06-29T17:42:29Z</time>
      </trkpt>
      <trkpt lat="48.71106" lon="5.65085">
        <ele>260.8</ele>
        <time>2020-06-29T17:42:30Z</time>
      </trkpt>
      <trkpt lat="48.71104" lon="5.65077">
        <ele>260.7</ele>
        <time>2020-06-29T17:42:31Z</time>
      </trkpt>
      <trkpt lat="48.71102" lon="5.65068">
        <ele>260.7</ele>
        <time>2020-06-29T17:42:32Z</time>
      </trkpt>
      <trkpt lat="48.71101" lon="5.6506">
        <ele>260.7</ele>
        <time>2020-06-29T17:42:33Z</time>
      </trkpt>
      <trkpt lat="48.711" lon="5.65051">
        <ele>260.6</ele>
        <time>2020-06-29T17:42:34Z</time>
      </trkpt>
      <trkpt lat="48.71098" lon="5.65041">
        <ele>260.5</ele>
        <time>2020-06-29T17:42:35Z</time>
      </trkpt>
      <trkpt lat="48.71097" lon="5.65033">
        <ele>260.5</ele>
        <time>2020-06-29T17:42:36Z</time>
      </trkpt>
      <trkpt lat="48.71096" lon="5.65025">
        <ele>260.5</ele>
        <time>2020-06-29T17:42:37Z</time>
      </trkpt>
      <trkpt lat="48.71094" lon="5.65017">
        <ele>260.4</ele>
        <time>2020-06-29T17:42:38Z</time>
      </trkpt>
      <trkpt lat="48.71093" lon="5.65009">
        <ele>260.4</ele>
        <time>2020-06-29T17:42:39Z</time>
      </trkpt>
      <trkpt lat="48.71092" lon="5.65">
        <ele>260.3</ele>
        <time>2020-06-29T17:42:40Z</time>
      </trkpt>
      <trkpt lat="48.7109" lon="5.64992">
        <ele>260.2</ele>
        <time>2020-06-29T17:42:41Z</time>
      </trkpt>
      <trkpt lat="48.7109" lon="5.64982">
        <ele>260</ele>
        <time>2020-06-29T17:42:42Z</time>
      </trkpt>
      <trkpt lat="48.71089" lon="5.64972">
        <ele>259.9</ele>
        <time>2020-06-29T17:42:43Z</time>
      </trkpt>
      <trkpt lat="48.71089" lon="5.64963">
        <ele>259.8</ele>
        <time>2020-06-29T17:42:44Z</time>
      </trkpt>
      <trkpt lat="48.71088" lon="5.64954">
        <ele>259.7</ele>
        <time>2020-06-29T17:42:45Z</time>
      </trkpt>
      <trkpt lat="48.71088" lon="5.64946">
        <ele>259.6</ele>
        <time>2020-06-29T17:42:46Z</time>
      </trkpt>
      <trkpt lat="48.71088" lon="5.64935">
        <ele>259.5</ele>
        <time>2020-06-29T17:42:47Z</time>
      </trkpt>
      <trkpt lat="48.71088" lon="5.64928">
        <ele>259.4</ele>
        <time>2020-06-29T17:42:48Z</time>
      </trkpt>
      <trkpt lat="48.71087" lon="5.64918">
        <ele>259.3</ele>
        <time>2020-06-29T17:42:49Z</time>
      </trkpt>
      <trkpt lat="48.71087" lon="5.64909">
        <ele>259.2</ele>
        <time>2020-06-29T17:42:50Z</time>
      </trkpt>
      <trkpt lat="48.71087" lon="5.649">
        <ele>259.1</ele>
        <time>2020-06-29T17:42:51Z</time>
      </trkpt>
      <trkpt lat="48.71086" lon="5.64892">
        <ele>259</ele>
        <time>2020-06-29T17:42:52Z</time>
      </trkpt>
      <trkpt lat="48.71086" lon="5.64884">
        <ele>259</ele>
        <time>2020-06-29T17:42:53Z</time>
      </trkpt>
      <trkpt lat="48.71085" lon="5.64876">
        <ele>258.9</ele>
        <time>2020-06-29T17:42:54Z</time>
      </trkpt>
      <trkpt lat="48.71084" lon="5.64869">
        <ele>258.8</ele>
        <time>2020-06-29T17:42:55Z</time>
      </trkpt>
      <trkpt lat="48.71083" lon="5.64861">
        <ele>258.7</ele>
        <time>2020-06-29T17:42:56Z</time>
      </trkpt>
      <trkpt lat="48.71083" lon="5.64853">
        <ele>258.6</ele>
        <time>2020-06-29T17:42:57Z</time>
      </trkpt>
      <trkpt lat="48.71082" lon="5.64845">
        <ele>258.6</ele>
        <time>2020-06-29T17:42:58Z</time>
      </trkpt>
      <trkpt lat="48.71081" lon="5.64837">
        <ele>258.5</ele>
        <time>2020-06-29T17:42:59Z</time>
      </trkpt>
      <trkpt lat="48.7108" lon="5.64829">
        <ele>258.5</ele>
        <time>2020-06-29T17:43:00Z</time>
      </trkpt>
      <trkpt lat="48.71078" lon="5.64821">
        <ele>258.4</ele>
        <time>2020-06-29T17:43:01Z</time>
      </trkpt>
      <trkpt lat="48.71076" lon="5.64813">
        <ele>258.4</ele>
        <time>2020-06-29T17:43:02Z</time>
      </trkpt>
      <trkpt lat="48.71074" lon="5.64805">
        <ele>258.3</ele>
        <time>2020-06-29T17:43:03Z</time>
      </trkpt>
      <trkpt lat="48.71073" lon="5.64795">
        <ele>258.2</ele>
        <time>2020-06-29T17:43:04Z</time>
      </trkpt>
      <trkpt lat="48.71071" lon="5.64787">
        <ele>258.1</ele>
        <time>2020-06-29T17:43:05Z</time>
      </trkpt>
      <trkpt lat="48.7107" lon="5.64778">
        <ele>258.1</ele>
        <time>2020-06-29T17:43:06Z</time>
      </trkpt>
      <trkpt lat="48.71068" lon="5.64769">
        <ele>258</ele>
        <time>2020-06-29T17:43:07Z</time>
      </trkpt>
      <trkpt lat="48.71067" lon="5.6476">
        <ele>258</ele>
        <time>2020-06-29T17:43:08Z</time>
      </trkpt>
      <trkpt lat="48.71065" lon="5.64751">
        <ele>257.9</ele>
        <time>2020-06-29T17:43:09Z</time>
      </trkpt>
      <trkpt lat="48.71063" lon="5.64742">
        <ele>257.9</ele>
        <time>2020-06-29T17:43:10Z</time>
      </trkpt>
      <trkpt lat="48.71061" lon="5.64734">
        <ele>257.9</ele>
        <time>2020-06-29T17:43:11Z</time>
      </trkpt>
      <trkpt lat="48.7106" lon="5.64726">
        <ele>257.8</ele>
        <time>2020-06-29T17:43:12Z</time>
      </trkpt>
      <trkpt lat="48.71058" lon="5.64719">
        <ele>257.8</ele>
        <time>2020-06-29T17:43:13Z</time>
      </trkpt>
      <trkpt lat="48.71055" lon="5.64711">
        <ele>257.7</ele>
        <time>2020-06-29T17:43:14Z</time>
      </trkpt>
      <trkpt lat="48.71053" lon="5.64703">
        <ele>257.6</ele>
        <time>2020-06-29T17:43:15Z</time>
      </trkpt>
      <trkpt lat="48.7105" lon="5.64695">
        <ele>257.6</ele>
        <time>2020-06-29T17:43:16Z</time>
      </trkpt>
      <trkpt lat="48.71048" lon="5.64687">
        <ele>257.5</ele>
        <time>2020-06-29T17:43:17Z</time>
      </trkpt>
      <trkpt lat="48.71046" lon="5.64679">
        <ele>257.4</ele>
        <time>2020-06-29T17:43:18Z</time>
      </trkpt>
      <trkpt lat="48.71043" lon="5.64672">
        <ele>257.3</ele>
        <time>2020-06-29T17:43:19Z</time>
      </trkpt>
      <trkpt lat="48.7104" lon="5.64664">
        <ele>257.2</ele>
        <time>2020-06-29T17:43:20Z</time>
      </trkpt>
      <trkpt lat="48.71037" lon="5.64656">
        <ele>257.2</ele>
        <time>2020-06-29T17:43:21Z</time>
      </trkpt>
      <trkpt lat="48.71033" lon="5.64648">
        <ele>257.1</ele>
        <time>2020-06-29T17:43:22Z</time>
      </trkpt>
      <trkpt lat="48.7103" lon="5.6464">
        <ele>257</ele>
        <time>2020-06-29T17:43:23Z</time>
      </trkpt>
      <trkpt lat="48.71027" lon="5.64632">
        <ele>257</ele>
        <time>2020-06-29T17:43:24Z</time>
      </trkpt>
      <trkpt lat="48.71024" lon="5.64624">
        <ele>256.9</ele>
        <time>2020-06-29T17:43:25Z</time>
      </trkpt>
      <trkpt lat="48.71021" lon="5.64615">
        <ele>256.9</ele>
        <time>2020-06-29T17:43:26Z</time>
      </trkpt>
      <trkpt lat="48.71018" lon="5.64606">
        <ele>256.8</ele>
        <time>2020-06-29T17:43:27Z</time>
      </trkpt>
      <trkpt lat="48.71015" lon="5.64597">
        <ele>256.7</ele>
        <time>2020-06-29T17:43:28Z</time>
      </trkpt>
      <trkpt lat="48.71012" lon="5.64589">
        <ele>256.7</ele>
        <time>2020-06-29T17:43:29Z</time>
      </trkpt>
      <trkpt lat="48.71009" lon="5.64582">
        <ele>256.6</ele>
        <time>2020-06-29T17:43:30Z</time>
      </trkpt>
      <trkpt lat="48.71007" lon="5.64574">
        <ele>256.6</ele>
        <time>2020-06-29T17:43:31Z</time>
      </trkpt>
      <trkpt lat="48.71005" lon="5.64565">
        <ele>256.5</ele>
        <time>2020-06-29T17:43:32Z</time>
      </trkpt>
      <trkpt lat="48.71004" lon="5.64556">
        <ele>256.5</ele>
        <time>2020-06-29T17:43:33Z</time>
      </trkpt>
      <trkpt lat="48.71003" lon="5.64545">
        <ele>256.5</ele>
        <time>2020-06-29T17:43:34Z</time>
      </trkpt>
      <trkpt lat="48.71002" lon="5.64535">
        <ele>256.4</ele>
        <time>2020-06-29T17:43:35Z</time>
      </trkpt>
      <trkpt lat="48.71001" lon="5.64525">
        <ele>256.3</ele>
        <time>2020-06-29T17:43:36Z</time>
      </trkpt>
      <trkpt lat="48.71001" lon="5.64515">
        <ele>256.2</ele>
        <time>2020-06-29T17:43:37Z</time>
      </trkpt>
      <trkpt lat="48.71002" lon="5.64506">
        <ele>256</ele>
        <time>2020-06-29T17:43:38Z</time>
      </trkpt>
      <trkpt lat="48.71004" lon="5.64497">
        <ele>255.8</ele>
        <time>2020-06-29T17:43:39Z</time>
      </trkpt>
      <trkpt lat="48.71007" lon="5.64488">
        <ele>255.6</ele>
        <time>2020-06-29T17:43:40Z</time>
      </trkpt>
      <trkpt lat="48.7101" lon="5.64479">
        <ele>255.4</ele>
        <time>2020-06-29T17:43:41Z</time>
      </trkpt>
      <trkpt lat="48.71013" lon="5.64469">
        <ele>255.1</ele>
        <time>2020-06-29T17:43:42Z</time>
      </trkpt>
      <trkpt lat="48.71015" lon="5.64459">
        <ele>254.9</ele>
        <time>2020-06-29T17:43:43Z</time>
      </trkpt>
      <trkpt lat="48.71018" lon="5.64449">
        <ele>254.6</ele>
        <time>2020-06-29T17:43:44Z</time>
      </trkpt>
      <trkpt lat="48.7102" lon="5.6444">
        <ele>254.3</ele>
        <time>2020-06-29T17:43:45Z</time>
      </trkpt>
      <trkpt lat="48.71022" lon="5.6443">
        <ele>254</ele>
        <time>2020-06-29T17:43:46Z</time>
      </trkpt>
      <trkpt lat="48.71025" lon="5.64421">
        <ele>253.7</ele>
        <time>2020-06-29T17:43:47Z</time>
      </trkpt>
      <trkpt lat="48.71027" lon="5.64412">
        <ele>253.4</ele>
        <time>2020-06-29T17:43:48Z</time>
      </trkpt>
      <trkpt lat="48.7103" lon="5.64401">
        <ele>253.1</ele>
        <time>2020-06-29T17:43:49Z</time>
      </trkpt>
      <trkpt lat="48.71032" lon="5.64391">
        <ele>252.7</ele>
        <time>2020-06-29T17:43:50Z</time>
      </trkpt>
      <trkpt lat="48.71034" lon="5.64382">
        <ele>252.4</ele>
        <time>2020-06-29T17:43:51Z</time>
      </trkpt>
      <trkpt lat="48.71037" lon="5.64372">
        <ele>252.1</ele>
        <time>2020-06-29T17:43:52Z</time>
      </trkpt>
      <trkpt lat="48.71039" lon="5.64362">
        <ele>251.8</ele>
        <time>2020-06-29T17:43:53Z</time>
      </trkpt>
      <trkpt lat="48.71042" lon="5.64351">
        <ele>251.4</ele>
        <time>2020-06-29T17:43:54Z</time>
      </trkpt>
      <trkpt lat="48.71045" lon="5.64341">
        <ele>251.1</ele>
        <time>2020-06-29T17:43:55Z</time>
      </trkpt>
      <trkpt lat="48.71048" lon="5.64329">
        <ele>250.7</ele>
        <time>2020-06-29T17:43:56Z</time>
      </trkpt>
      <trkpt lat="48.7105" lon="5.64317">
        <ele>250.3</ele>
        <time>2020-06-29T17:43:57Z</time>
      </trkpt>
      <trkpt lat="48.71053" lon="5.64306">
        <ele>250</ele>
        <time>2020-06-29T17:43:58Z</time>
      </trkpt>
      <trkpt lat="48.71056" lon="5.64294">
        <ele>249.6</ele>
        <time>2020-06-29T17:43:59Z</time>
      </trkpt>
      <trkpt lat="48.71059" lon="5.64283">
        <ele>249.3</ele>
        <time>2020-06-29T17:44:00Z</time>
      </trkpt>
      <trkpt lat="48.71061" lon="5.64271">
        <ele>249</ele>
        <time>2020-06-29T17:44:01Z</time>
      </trkpt>
      <trkpt lat="48.71063" lon="5.6426">
        <ele>248.7</ele>
        <time>2020-06-29T17:44:02Z</time>
      </trkpt>
      <trkpt lat="48.71065" lon="5.64249">
        <ele>248.4</ele>
        <time>2020-06-29T17:44:03Z</time>
      </trkpt>
      <trkpt lat="48.71068" lon="5.64237">
        <ele>248.1</ele>
        <time>2020-06-29T17:44:04Z</time>
      </trkpt>
      <trkpt lat="48.7107" lon="5.64226">
        <ele>247.8</ele>
        <time>2020-06-29T17:44:05Z</time>
      </trkpt>
      <trkpt lat="48.71072" lon="5.64214">
        <ele>247.6</ele>
        <time>2020-06-29T17:44:06Z</time>
      </trkpt>
      <trkpt lat="48.71074" lon="5.64203">
        <ele>247.3</ele>
        <time>2020-06-29T17:44:07Z</time>
      </trkpt>
      <trkpt lat="48.71076" lon="5.64192">
        <ele>247</ele>
        <time>2020-06-29T17:44:08Z</time>
      </trkpt>
      <trkpt lat="48.71078" lon="5.6418">
        <ele>246.8</ele>
        <time>2020-06-29T17:44:09Z</time>
      </trkpt>
      <trkpt lat="48.7108" lon="5.64169">
        <ele>246.5</ele>
        <time>2020-06-29T17:44:10Z</time>
      </trkpt>
      <trkpt lat="48.71082" lon="5.64157">
        <ele>246.2</ele>
        <time>2020-06-29T17:44:11Z</time>
      </trkpt>
      <trkpt lat="48.71084" lon="5.64146">
        <ele>245.8</ele>
        <time>2020-06-29T17:44:12Z</time>
      </trkpt>
      <trkpt lat="48.71086" lon="5.64134">
        <ele>245.7</ele>
        <time>2020-06-29T17:44:13Z</time>
      </trkpt>
      <trkpt lat="48.71087" lon="5.64123">
        <ele>245.6</ele>
        <time>2020-06-29T17:44:14Z</time>
      </trkpt>
      <trkpt lat="48.71089" lon="5.64112">
        <ele>245.4</ele>
        <time>2020-06-29T17:44:15Z</time>
      </trkpt>
      <trkpt lat="48.7109" lon="5.64101">
        <ele>245.3</ele>
        <time>2020-06-29T17:44:16Z</time>
      </trkpt>
      <trkpt lat="48.71092" lon="5.64089">
        <ele>245.1</ele>
        <time>2020-06-29T17:44:17Z</time>
      </trkpt>
      <trkpt lat="48.71094" lon="5.64078">
        <ele>245</ele>
        <time>2020-06-29T17:44:18Z</time>
      </trkpt>
      <trkpt lat="48.71095" lon="5.64067">
        <ele>244.9</ele>
        <time>2020-06-29T17:44:19Z</time>
      </trkpt>
      <trkpt lat="48.71096" lon="5.64056">
        <ele>244.7</ele>
        <time>2020-06-29T17:44:20Z</time>
      </trkpt>
      <trkpt lat="48.71097" lon="5.64045">
        <ele>244.6</ele>
        <time>2020-06-29T17:44:21Z</time>
      </trkpt>
      <trkpt lat="48.71098" lon="5.64035">
        <ele>244.5</ele>
        <time>2020-06-29T17:44:22Z</time>
      </trkpt>
      <trkpt lat="48.71099" lon="5.64024">
        <ele>244.4</ele>
        <time>2020-06-29T17:44:23Z</time>
      </trkpt>
      <trkpt lat="48.711" lon="5.64014">
        <ele>244.4</ele>
        <time>2020-06-29T17:44:24Z</time>
      </trkpt>
      <trkpt lat="48.71101" lon="5.64003">
        <ele>244.3</ele>
        <time>2020-06-29T17:44:25Z</time>
      </trkpt>
      <trkpt lat="48.71102" lon="5.63994">
        <ele>244.3</ele>
        <time>2020-06-29T17:44:26Z</time>
      </trkpt>
      <trkpt lat="48.71102" lon="5.63984">
        <ele>244.2</ele>
        <time>2020-06-29T17:44:27Z</time>
      </trkpt>
      <trkpt lat="48.71103" lon="5.63974">
        <ele>244.2</ele>
        <time>2020-06-29T17:44:28Z</time>
      </trkpt>
      <trkpt lat="48.71104" lon="5.63965">
        <ele>244.1</ele>
        <time>2020-06-29T17:44:29Z</time>
      </trkpt>
      <trkpt lat="48.71104" lon="5.63956">
        <ele>244.1</ele>
        <time>2020-06-29T17:44:30Z</time>
      </trkpt>
      <trkpt lat="48.71105" lon="5.63947">
        <ele>244.1</ele>
        <time>2020-06-29T17:44:31Z</time>
      </trkpt>
      <trkpt lat="48.71106" lon="5.63939">
        <ele>244</ele>
        <time>2020-06-29T17:44:32Z</time>
      </trkpt>
      <trkpt lat="48.71108" lon="5.63931">
        <ele>244</ele>
        <time>2020-06-29T17:44:33Z</time>
      </trkpt>
      <trkpt lat="48.71109" lon="5.63924">
        <ele>243.9</ele>
        <time>2020-06-29T17:44:34Z</time>
      </trkpt>
      <trkpt lat="48.71109" lon="5.63916">
        <ele>243.9</ele>
        <time>2020-06-29T17:44:35Z</time>
      </trkpt>
      <trkpt lat="48.7111" lon="5.63909">
        <ele>243.9</ele>
        <time>2020-06-29T17:44:36Z</time>
      </trkpt>
      <trkpt lat="48.7111" lon="5.63902">
        <ele>243.8</ele>
        <time>2020-06-29T17:44:37Z</time>
      </trkpt>
      <trkpt lat="48.7111" lon="5.63895">
        <ele>243.8</ele>
        <time>2020-06-29T17:44:38Z</time>
      </trkpt>
      <trkpt lat="48.7111" lon="5.63888">
        <ele>243.8</ele>
        <time>2020-06-29T17:44:39Z</time>
      </trkpt>
      <trkpt lat="48.71111" lon="5.63881">
        <ele>243.7</ele>
        <time>2020-06-29T17:44:40Z</time>
      </trkpt>
      <trkpt lat="48.71111" lon="5.63874">
        <ele>243.7</ele>
        <time>2020-06-29T17:44:41Z</time>
      </trkpt>
      <trkpt lat="48.71112" lon="5.63868">
        <ele>243.8</ele>
        <time>2020-06-29T17:44:42Z</time>
      </trkpt>
      <trkpt lat="48.71114" lon="5.63861">
        <ele>243.8</ele>
        <time>2020-06-29T17:44:43Z</time>
      </trkpt>
      <trkpt lat="48.71116" lon="5.63854">
        <ele>243.8</ele>
        <time>2020-06-29T17:44:44Z</time>
      </trkpt>
      <trkpt lat="48.71117" lon="5.63847">
        <ele>243.8</ele>
        <time>2020-06-29T17:44:45Z</time>
      </trkpt>
      <trkpt lat="48.71118" lon="5.63838">
        <ele>243.8</ele>
        <time>2020-06-29T17:44:46Z</time>
      </trkpt>
      <trkpt lat="48.71118" lon="5.6383">
        <ele>243.8</ele>
        <time>2020-06-29T17:44:47Z</time>
      </trkpt>
      <trkpt lat="48.71119" lon="5.63821">
        <ele>243.8</ele>
        <time>2020-06-29T17:44:48Z</time>
      </trkpt>
      <trkpt lat="48.71118" lon="5.63812">
        <ele>243.8</ele>
        <time>2020-06-29T17:44:49Z</time>
      </trkpt>
      <trkpt lat="48.71119" lon="5.63803">
        <ele>243.8</ele>
        <time>2020-06-29T17:44:50Z</time>
      </trkpt>
      <trkpt lat="48.7112" lon="5.63795">
        <ele>243.9</ele>
        <time>2020-06-29T17:44:51Z</time>
      </trkpt>
      <trkpt lat="48.71122" lon="5.63787">
        <ele>243.7</ele>
        <time>2020-06-29T17:44:52Z</time>
      </trkpt>
      <trkpt lat="48.71123" lon="5.63778">
        <ele>243.6</ele>
        <time>2020-06-29T17:44:53Z</time>
      </trkpt>
      <trkpt lat="48.71125" lon="5.63769">
        <ele>243.5</ele>
        <time>2020-06-29T17:44:54Z</time>
      </trkpt>
      <trkpt lat="48.71126" lon="5.63759">
        <ele>243.3</ele>
        <time>2020-06-29T17:44:55Z</time>
      </trkpt>
      <trkpt lat="48.71128" lon="5.6375">
        <ele>243.2</ele>
        <time>2020-06-29T17:44:56Z</time>
      </trkpt>
      <trkpt lat="48.7113" lon="5.6374">
        <ele>243</ele>
        <time>2020-06-29T17:44:57Z</time>
      </trkpt>
      <trkpt lat="48.71131" lon="5.63731">
        <ele>242.9</ele>
        <time>2020-06-29T17:44:58Z</time>
      </trkpt>
      <trkpt lat="48.71133" lon="5.63721">
        <ele>242.7</ele>
        <time>2020-06-29T17:44:59Z</time>
      </trkpt>
      <trkpt lat="48.71135" lon="5.63712">
        <ele>242.6</ele>
        <time>2020-06-29T17:45:00Z</time>
      </trkpt>
      <trkpt lat="48.71136" lon="5.63702">
        <ele>242.4</ele>
        <time>2020-06-29T17:45:01Z</time>
      </trkpt>
      <trkpt lat="48.71136" lon="5.63693">
        <ele>242.3</ele>
        <time>2020-06-29T17:45:02Z</time>
      </trkpt>
      <trkpt lat="48.71137" lon="5.63683">
        <ele>242.1</ele>
        <time>2020-06-29T17:45:03Z</time>
      </trkpt>
      <trkpt lat="48.71138" lon="5.63674">
        <ele>242</ele>
        <time>2020-06-29T17:45:04Z</time>
      </trkpt>
      <trkpt lat="48.7114" lon="5.63665">
        <ele>241.9</ele>
        <time>2020-06-29T17:45:05Z</time>
      </trkpt>
      <trkpt lat="48.71141" lon="5.63656">
        <ele>241.7</ele>
        <time>2020-06-29T17:45:06Z</time>
      </trkpt>
      <trkpt lat="48.71142" lon="5.63647">
        <ele>241.6</ele>
        <time>2020-06-29T17:45:07Z</time>
      </trkpt>
      <trkpt lat="48.71144" lon="5.63639">
        <ele>241.4</ele>
        <time>2020-06-29T17:45:08Z</time>
      </trkpt>
      <trkpt lat="48.71146" lon="5.6363">
        <ele>241.2</ele>
        <time>2020-06-29T17:45:09Z</time>
      </trkpt>
      <trkpt lat="48.71147" lon="5.63622">
        <ele>241.1</ele>
        <time>2020-06-29T17:45:10Z</time>
      </trkpt>
      <trkpt lat="48.71148" lon="5.63614">
        <ele>241</ele>
        <time>2020-06-29T17:45:11Z</time>
      </trkpt>
      <trkpt lat="48.7115" lon="5.63605">
        <ele>240.9</ele>
        <time>2020-06-29T17:45:12Z</time>
      </trkpt>
      <trkpt lat="48.71151" lon="5.63596">
        <ele>240.8</ele>
        <time>2020-06-29T17:45:13Z</time>
      </trkpt>
      <trkpt lat="48.71152" lon="5.63588">
        <ele>240.6</ele>
        <time>2020-06-29T17:45:14Z</time>
      </trkpt>
      <trkpt lat="48.71154" lon="5.63579">
        <ele>240.5</ele>
        <time>2020-06-29T17:45:15Z</time>
      </trkpt>
      <trkpt lat="48.71154" lon="5.6357">
        <ele>240.3</ele>
        <time>2020-06-29T17:45:16Z</time>
      </trkpt>
      <trkpt lat="48.71156" lon="5.63563">
        <ele>240.2</ele>
        <time>2020-06-29T17:45:17Z</time>
      </trkpt>
      <trkpt lat="48.71157" lon="5.63555">
        <ele>240</ele>
        <time>2020-06-29T17:45:18Z</time>
      </trkpt>
      <trkpt lat="48.71157" lon="5.63547">
        <ele>239.9</ele>
        <time>2020-06-29T17:45:19Z</time>
      </trkpt>
      <trkpt lat="48.71158" lon="5.63538">
        <ele>239.8</ele>
        <time>2020-06-29T17:45:20Z</time>
      </trkpt>
      <trkpt lat="48.71158" lon="5.63529">
        <ele>239.6</ele>
        <time>2020-06-29T17:45:21Z</time>
      </trkpt>
      <trkpt lat="48.71159" lon="5.6352">
        <ele>239.4</ele>
        <time>2020-06-29T17:45:22Z</time>
      </trkpt>
      <trkpt lat="48.7116" lon="5.63511">
        <ele>239.3</ele>
        <time>2020-06-29T17:45:23Z</time>
      </trkpt>
      <trkpt lat="48.7116" lon="5.63503">
        <ele>239.1</ele>
        <time>2020-06-29T17:45:24Z</time>
      </trkpt>
      <trkpt lat="48.71163" lon="5.63494">
        <ele>238.9</ele>
        <time>2020-06-29T17:45:25Z</time>
      </trkpt>
      <trkpt lat="48.71164" lon="5.63485">
        <ele>238.7</ele>
        <time>2020-06-29T17:45:26Z</time>
      </trkpt>
      <trkpt lat="48.71165" lon="5.63477">
        <ele>238.5</ele>
        <time>2020-06-29T17:45:27Z</time>
      </trkpt>
      <trkpt lat="48.71165" lon="5.63469">
        <ele>238.3</ele>
        <time>2020-06-29T17:45:28Z</time>
      </trkpt>
      <trkpt lat="48.71165" lon="5.63462">
        <ele>238.1</ele>
        <time>2020-06-29T17:45:29Z</time>
      </trkpt>
      <trkpt lat="48.71165" lon="5.63455">
        <ele>238</ele>
        <time>2020-06-29T17:45:30Z</time>
      </trkpt>
      <trkpt lat="48.71166" lon="5.63449">
        <ele>237.8</ele>
        <time>2020-06-29T17:45:31Z</time>
      </trkpt>
      <trkpt lat="48.71169" lon="5.63444">
        <ele>237.7</ele>
        <time>2020-06-29T17:45:32Z</time>
      </trkpt>
      <trkpt lat="48.7117" lon="5.63438">
        <ele>237.7</ele>
        <time>2020-06-29T17:45:33Z</time>
      </trkpt>
      <trkpt lat="48.7117" lon="5.63434">
        <ele>237.6</ele>
        <time>2020-06-29T17:45:34Z</time>
      </trkpt>
      <trkpt lat="48.7117" lon="5.6343">
        <ele>237.2</ele>
        <time>2020-06-29T17:45:35Z</time>
      </trkpt>
      <trkpt lat="48.7117" lon="5.63425">
        <ele>237</ele>
        <time>2020-06-29T17:45:36Z</time>
      </trkpt>
      <trkpt lat="48.71169" lon="5.6342">
        <ele>236.8</ele>
        <time>2020-06-29T17:45:37Z</time>
      </trkpt>
      <trkpt lat="48.71167" lon="5.63414">
        <ele>236.6</ele>
        <time>2020-06-29T17:45:38Z</time>
      </trkpt>
      <trkpt lat="48.71165" lon="5.63409">
        <ele>236.3</ele>
        <time>2020-06-29T17:45:39Z</time>
      </trkpt>
      <trkpt lat="48.71162" lon="5.63404">
        <ele>236</ele>
        <time>2020-06-29T17:45:40Z</time>
      </trkpt>
      <trkpt lat="48.7116" lon="5.63398">
        <ele>235.8</ele>
        <time>2020-06-29T17:45:41Z</time>
      </trkpt>
      <trkpt lat="48.71156" lon="5.63395">
        <ele>235.5</ele>
        <time>2020-06-29T17:45:42Z</time>
      </trkpt>
      <trkpt lat="48.71154" lon="5.63389">
        <ele>235.3</ele>
        <time>2020-06-29T17:45:43Z</time>
      </trkpt>
      <trkpt lat="48.71151" lon="5.63382">
        <ele>235.1</ele>
        <time>2020-06-29T17:45:44Z</time>
      </trkpt>
      <trkpt lat="48.71149" lon="5.63376">
        <ele>234.9</ele>
        <time>2020-06-29T17:45:45Z</time>
      </trkpt>
      <trkpt lat="48.71145" lon="5.63371">
        <ele>234.7</ele>
        <time>2020-06-29T17:45:46Z</time>
      </trkpt>
      <trkpt lat="48.71142" lon="5.63364">
        <ele>234.6</ele>
        <time>2020-06-29T17:45:47Z</time>
      </trkpt>
      <trkpt lat="48.71139" lon="5.63357">
        <ele>234.6</ele>
        <time>2020-06-29T17:45:48Z</time>
      </trkpt>
      <trkpt lat="48.71136" lon="5.63351">
        <ele>234.5</ele>
        <time>2020-06-29T17:45:49Z</time>
      </trkpt>
      <trkpt lat="48.71133" lon="5.63344">
        <ele>234.3</ele>
        <time>2020-06-29T17:45:50Z</time>
      </trkpt>
      <trkpt lat="48.71131" lon="5.63337">
        <ele>234.2</ele>
        <time>2020-06-29T17:45:51Z</time>
      </trkpt>
      <trkpt lat="48.71129" lon="5.6333">
        <ele>234</ele>
        <time>2020-06-29T17:45:52Z</time>
      </trkpt>
      <trkpt lat="48.71127" lon="5.63323">
        <ele>233.8</ele>
        <time>2020-06-29T17:45:53Z</time>
      </trkpt>
      <trkpt lat="48.71124" lon="5.63316">
        <ele>233.7</ele>
        <time>2020-06-29T17:45:54Z</time>
      </trkpt>
      <trkpt lat="48.71121" lon="5.63309">
        <ele>233.6</ele>
        <time>2020-06-29T17:45:55Z</time>
      </trkpt>
      <trkpt lat="48.71118" lon="5.63302">
        <ele>233.6</ele>
        <time>2020-06-29T17:45:56Z</time>
      </trkpt>
      <trkpt lat="48.71115" lon="5.63295">
        <ele>233.5</ele>
        <time>2020-06-29T17:45:57Z</time>
      </trkpt>
      <trkpt lat="48.71113" lon="5.63288">
        <ele>233.5</ele>
        <time>2020-06-29T17:45:58Z</time>
      </trkpt>
      <trkpt lat="48.71111" lon="5.63281">
        <ele>233.4</ele>
        <time>2020-06-29T17:45:59Z</time>
      </trkpt>
      <trkpt lat="48.71109" lon="5.63274">
        <ele>233.4</ele>
        <time>2020-06-29T17:46:00Z</time>
      </trkpt>
      <trkpt lat="48.71108" lon="5.63268">
        <ele>233.4</ele>
        <time>2020-06-29T17:46:01Z</time>
      </trkpt>
      <trkpt lat="48.71104" lon="5.63263">
        <ele>233.4</ele>
        <time>2020-06-29T17:46:02Z</time>
      </trkpt>
      <trkpt lat="48.71103" lon="5.63256">
        <ele>233.4</ele>
        <time>2020-06-29T17:46:03Z</time>
      </trkpt>
      <trkpt lat="48.71102" lon="5.63249">
        <ele>233.4</ele>
        <time>2020-06-29T17:46:04Z</time>
      </trkpt>
      <trkpt lat="48.711" lon="5.63242">
        <ele>233.3</ele>
        <time>2020-06-29T17:46:05Z</time>
      </trkpt>
      <trkpt lat="48.71098" lon="5.63236">
        <ele>233.3</ele>
        <time>2020-06-29T17:46:06Z</time>
      </trkpt>
      <trkpt lat="48.71096" lon="5.63229">
        <ele>233.3</ele>
        <time>2020-06-29T17:46:07Z</time>
      </trkpt>
      <trkpt lat="48.71094" lon="5.63222">
        <ele>233.3</ele>
        <time>2020-06-29T17:46:08Z</time>
      </trkpt>
      <trkpt lat="48.71092" lon="5.63215">
        <ele>233.3</ele>
        <time>2020-06-29T17:46:09Z</time>
      </trkpt>
      <trkpt lat="48.7109" lon="5.63208">
        <ele>233.3</ele>
        <time>2020-06-29T17:46:10Z</time>
      </trkpt>
      <trkpt lat="48.71088" lon="5.63201">
        <ele>233.4</ele>
        <time>2020-06-29T17:46:11Z</time>
      </trkpt>
      <trkpt lat="48.71085" lon="5.63195">
        <ele>233.4</ele>
        <time>2020-06-29T17:46:12Z</time>
      </trkpt>
      <trkpt lat="48.71084" lon="5.63187">
        <ele>233.4</ele>
        <time>2020-06-29T17:46:13Z</time>
      </trkpt>
      <trkpt lat="48.71082" lon="5.6318">
        <ele>233.4</ele>
        <time>2020-06-29T17:46:14Z</time>
      </trkpt>
      <trkpt lat="48.7108" lon="5.63173">
        <ele>233.5</ele>
        <time>2020-06-29T17:46:15Z</time>
      </trkpt>
      <trkpt lat="48.71077" lon="5.63167">
        <ele>233.5</ele>
        <time>2020-06-29T17:46:16Z</time>
      </trkpt>
      <trkpt lat="48.71074" lon="5.63161">
        <ele>233.6</ele>
        <time>2020-06-29T17:46:17Z</time>
      </trkpt>
      <trkpt lat="48.71072" lon="5.63154">
        <ele>233.6</ele>
        <time>2020-06-29T17:46:18Z</time>
      </trkpt>
      <trkpt lat="48.71069" lon="5.63148">
        <ele>233.6</ele>
        <time>2020-06-29T17:46:19Z</time>
      </trkpt>
      <trkpt lat="48.71067" lon="5.63141">
        <ele>233.7</ele>
        <time>2020-06-29T17:46:20Z</time>
      </trkpt>
      <trkpt lat="48.71065" lon="5.63133">
        <ele>233.7</ele>
        <time>2020-06-29T17:46:21Z</time>
      </trkpt>
      <trkpt lat="48.71064" lon="5.63126">
        <ele>233.7</ele>
        <time>2020-06-29T17:46:22Z</time>
      </trkpt>
      <trkpt lat="48.71061" lon="5.63119">
        <ele>233.7</ele>
        <time>2020-06-29T17:46:23Z</time>
      </trkpt>
      <trkpt lat="48.71058" lon="5.63112">
        <ele>233.8</ele>
        <time>2020-06-29T17:46:24Z</time>
      </trkpt>
      <trkpt lat="48.71056" lon="5.63105">
        <ele>233.8</ele>
        <time>2020-06-29T17:46:25Z</time>
      </trkpt>
      <trkpt lat="48.71054" lon="5.63098">
        <ele>233.9</ele>
        <time>2020-06-29T17:46:26Z</time>
      </trkpt>
      <trkpt lat="48.71052" lon="5.63091">
        <ele>233.9</ele>
        <time>2020-06-29T17:46:27Z</time>
      </trkpt>
      <trkpt lat="48.7105" lon="5.63085">
        <ele>234</ele>
        <time>2020-06-29T17:46:28Z</time>
      </trkpt>
      <trkpt lat="48.71049" lon="5.63079">
        <ele>234</ele>
        <time>2020-06-29T17:46:29Z</time>
      </trkpt>
      <trkpt lat="48.71047" lon="5.63073">
        <ele>234.1</ele>
        <time>2020-06-29T17:46:30Z</time>
      </trkpt>
      <trkpt lat="48.71046" lon="5.63066">
        <ele>234.3</ele>
        <time>2020-06-29T17:46:31Z</time>
      </trkpt>
      <trkpt lat="48.71045" lon="5.63059">
        <ele>234.4</ele>
        <time>2020-06-29T17:46:32Z</time>
      </trkpt>
      <trkpt lat="48.71045" lon="5.63052">
        <ele>234.4</ele>
        <time>2020-06-29T17:46:33Z</time>
      </trkpt>
      <trkpt lat="48.71043" lon="5.63045">
        <ele>234.5</ele>
        <time>2020-06-29T17:46:34Z</time>
      </trkpt>
      <trkpt lat="48.71044" lon="5.63038">
        <ele>234.6</ele>
        <time>2020-06-29T17:46:35Z</time>
      </trkpt>
      <trkpt lat="48.71043" lon="5.6303">
        <ele>234.6</ele>
        <time>2020-06-29T17:46:36Z</time>
      </trkpt>
      <trkpt lat="48.71043" lon="5.63023">
        <ele>234.6</ele>
        <time>2020-06-29T17:46:37Z</time>
      </trkpt>
      <trkpt lat="48.71042" lon="5.63017">
        <ele>234.6</ele>
        <time>2020-06-29T17:46:38Z</time>
      </trkpt>
      <trkpt lat="48.71042" lon="5.6301">
        <ele>234.6</ele>
        <time>2020-06-29T17:46:39Z</time>
      </trkpt>
      <trkpt lat="48.71042" lon="5.63002">
        <ele>234.5</ele>
        <time>2020-06-29T17:46:40Z</time>
      </trkpt>
      <trkpt lat="48.71043" lon="5.62994">
        <ele>234.4</ele>
        <time>2020-06-29T17:46:41Z</time>
      </trkpt>
      <trkpt lat="48.71043" lon="5.62986">
        <ele>234.4</ele>
        <time>2020-06-29T17:46:42Z</time>
      </trkpt>
      <trkpt lat="48.71043" lon="5.62978">
        <ele>234.3</ele>
        <time>2020-06-29T17:46:43Z</time>
      </trkpt>
      <trkpt lat="48.71043" lon="5.6297">
        <ele>234.3</ele>
        <time>2020-06-29T17:46:44Z</time>
      </trkpt>
      <trkpt lat="48.71043" lon="5.62962">
        <ele>234.3</ele>
        <time>2020-06-29T17:46:45Z</time>
      </trkpt>
      <trkpt lat="48.71044" lon="5.62954">
        <ele>234.3</ele>
        <time>2020-06-29T17:46:46Z</time>
      </trkpt>
      <trkpt lat="48.71044" lon="5.62946">
        <ele>234.3</ele>
        <time>2020-06-29T17:46:47Z</time>
      </trkpt>
      <trkpt lat="48.71045" lon="5.62939">
        <ele>234.3</ele>
        <time>2020-06-29T17:46:48Z</time>
      </trkpt>
      <trkpt lat="48.71046" lon="5.62931">
        <ele>234.3</ele>
        <time>2020-06-29T17:46:49Z</time>
      </trkpt>
      <trkpt lat="48.71047" lon="5.62923">
        <ele>234.2</ele>
        <time>2020-06-29T17:46:50Z</time>
      </trkpt>
      <trkpt lat="48.71047" lon="5.62915">
        <ele>234.1</ele>
        <time>2020-06-29T17:46:51Z</time>
      </trkpt>
      <trkpt lat="48.71048" lon="5.62907">
        <ele>234</ele>
        <time>2020-06-29T17:46:52Z</time>
      </trkpt>
      <trkpt lat="48.71048" lon="5.62899">
        <ele>233.9</ele>
        <time>2020-06-29T17:46:53Z</time>
      </trkpt>
      <trkpt lat="48.71048" lon="5.6289">
        <ele>233.8</ele>
        <time>2020-06-29T17:46:54Z</time>
      </trkpt>
      <trkpt lat="48.71049" lon="5.62882">
        <ele>233.7</ele>
        <time>2020-06-29T17:46:55Z</time>
      </trkpt>
      <trkpt lat="48.7105" lon="5.62875">
        <ele>233.7</ele>
        <time>2020-06-29T17:46:56Z</time>
      </trkpt>
      <trkpt lat="48.7105" lon="5.62866">
        <ele>233.6</ele>
        <time>2020-06-29T17:46:57Z</time>
      </trkpt>
      <trkpt lat="48.71051" lon="5.62858">
        <ele>233.6</ele>
        <time>2020-06-29T17:46:58Z</time>
      </trkpt>
      <trkpt lat="48.71051" lon="5.6285">
        <ele>233.5</ele>
        <time>2020-06-29T17:46:59Z</time>
      </trkpt>
      <trkpt lat="48.71052" lon="5.62841">
        <ele>233.5</ele>
        <time>2020-06-29T17:47:00Z</time>
      </trkpt>
      <trkpt lat="48.71054" lon="5.62832">
        <ele>233.5</ele>
        <time>2020-06-29T17:47:01Z</time>
      </trkpt>
      <trkpt lat="48.71055" lon="5.62824">
        <ele>233.4</ele>
        <time>2020-06-29T17:47:02Z</time>
      </trkpt>
      <trkpt lat="48.71057" lon="5.62815">
        <ele>233.4</ele>
        <time>2020-06-29T17:47:03Z</time>
      </trkpt>
      <trkpt lat="48.71059" lon="5.62807">
        <ele>233.3</ele>
        <time>2020-06-29T17:47:04Z</time>
      </trkpt>
      <trkpt lat="48.71061" lon="5.62798">
        <ele>233.3</ele>
        <time>2020-06-29T17:47:05Z</time>
      </trkpt>
      <trkpt lat="48.71063" lon="5.6279">
        <ele>233.3</ele>
        <time>2020-06-29T17:47:06Z</time>
      </trkpt>
      <trkpt lat="48.71066" lon="5.62782">
        <ele>233.3</ele>
        <time>2020-06-29T17:47:07Z</time>
      </trkpt>
      <trkpt lat="48.71068" lon="5.62773">
        <ele>233.3</ele>
        <time>2020-06-29T17:47:08Z</time>
      </trkpt>
      <trkpt lat="48.7107" lon="5.62765">
        <ele>233.3</ele>
        <time>2020-06-29T17:47:09Z</time>
      </trkpt>
      <trkpt lat="48.71073" lon="5.62757">
        <ele>233.3</ele>
        <time>2020-06-29T17:47:10Z</time>
      </trkpt>
      <trkpt lat="48.71075" lon="5.6275">
        <ele>233.3</ele>
        <time>2020-06-29T17:47:11Z</time>
      </trkpt>
      <trkpt lat="48.71078" lon="5.62742">
        <ele>233.2</ele>
        <time>2020-06-29T17:47:12Z</time>
      </trkpt>
      <trkpt lat="48.7108" lon="5.62734">
        <ele>233.2</ele>
        <time>2020-06-29T17:47:13Z</time>
      </trkpt>
      <trkpt lat="48.71083" lon="5.62726">
        <ele>233.1</ele>
        <time>2020-06-29T17:47:14Z</time>
      </trkpt>
      <trkpt lat="48.71085" lon="5.62719">
        <ele>233.1</ele>
        <time>2020-06-29T17:47:15Z</time>
      </trkpt>
      <trkpt lat="48.71088" lon="5.62712">
        <ele>233</ele>
        <time>2020-06-29T17:47:16Z</time>
      </trkpt>
      <trkpt lat="48.7109" lon="5.62704">
        <ele>233</ele>
        <time>2020-06-29T17:47:17Z</time>
      </trkpt>
      <trkpt lat="48.71093" lon="5.62697">
        <ele>233</ele>
        <time>2020-06-29T17:47:18Z</time>
      </trkpt>
      <trkpt lat="48.71096" lon="5.6269">
        <ele>232.9</ele>
        <time>2020-06-29T17:47:19Z</time>
      </trkpt>
      <trkpt lat="48.71098" lon="5.62682">
        <ele>232.9</ele>
        <time>2020-06-29T17:47:20Z</time>
      </trkpt>
      <trkpt lat="48.71101" lon="5.62674">
        <ele>233.1</ele>
        <time>2020-06-29T17:47:21Z</time>
      </trkpt>
      <trkpt lat="48.71103" lon="5.62667">
        <ele>233.2</ele>
        <time>2020-06-29T17:47:22Z</time>
      </trkpt>
      <trkpt lat="48.71106" lon="5.62659">
        <ele>233.2</ele>
        <time>2020-06-29T17:47:23Z</time>
      </trkpt>
      <trkpt lat="48.71108" lon="5.62651">
        <ele>233.1</ele>
        <time>2020-06-29T17:47:24Z</time>
      </trkpt>
      <trkpt lat="48.71111" lon="5.62644">
        <ele>233.1</ele>
        <time>2020-06-29T17:47:25Z</time>
      </trkpt>
      <trkpt lat="48.71114" lon="5.62635">
        <ele>233</ele>
        <time>2020-06-29T17:47:26Z</time>
      </trkpt>
      <trkpt lat="48.71116" lon="5.62628">
        <ele>232.9</ele>
        <time>2020-06-29T17:47:27Z</time>
      </trkpt>
      <trkpt lat="48.71119" lon="5.62619">
        <ele>232.9</ele>
        <time>2020-06-29T17:47:28Z</time>
      </trkpt>
      <trkpt lat="48.71122" lon="5.62611">
        <ele>232.9</ele>
        <time>2020-06-29T17:47:29Z</time>
      </trkpt>
      <trkpt lat="48.71125" lon="5.62604">
        <ele>232.9</ele>
        <time>2020-06-29T17:47:30Z</time>
      </trkpt>
      <trkpt lat="48.71127" lon="5.62596">
        <ele>232.9</ele>
        <time>2020-06-29T17:47:31Z</time>
      </trkpt>
      <trkpt lat="48.71131" lon="5.62589">
        <ele>232.9</ele>
        <time>2020-06-29T17:47:32Z</time>
      </trkpt>
      <trkpt lat="48.71134" lon="5.62581">
        <ele>232.8</ele>
        <time>2020-06-29T17:47:33Z</time>
      </trkpt>
      <trkpt lat="48.71138" lon="5.62574">
        <ele>232.8</ele>
        <time>2020-06-29T17:47:34Z</time>
      </trkpt>
      <trkpt lat="48.71142" lon="5.62567">
        <ele>232.8</ele>
        <time>2020-06-29T17:47:35Z</time>
      </trkpt>
      <trkpt lat="48.71145" lon="5.62561">
        <ele>232.8</ele>
        <time>2020-06-29T17:47:36Z</time>
      </trkpt>
      <trkpt lat="48.71148" lon="5.62553">
        <ele>232.8</ele>
        <time>2020-06-29T17:47:37Z</time>
      </trkpt>
      <trkpt lat="48.71152" lon="5.62545">
        <ele>232.8</ele>
        <time>2020-06-29T17:47:38Z</time>
      </trkpt>
      <trkpt lat="48.71155" lon="5.62537">
        <ele>232.9</ele>
        <time>2020-06-29T17:47:39Z</time>
      </trkpt>
      <trkpt lat="48.71159" lon="5.6253">
        <ele>232.9</ele>
        <time>2020-06-29T17:47:40Z</time>
      </trkpt>
      <trkpt lat="48.71163" lon="5.62523">
        <ele>232.9</ele>
        <time>2020-06-29T17:47:41Z</time>
      </trkpt>
      <trkpt lat="48.71166" lon="5.62516">
        <ele>232.8</ele>
        <time>2020-06-29T17:47:42Z</time>
      </trkpt>
      <trkpt lat="48.7117" lon="5.62509">
        <ele>232.8</ele>
        <time>2020-06-29T17:47:43Z</time>
      </trkpt>
      <trkpt lat="48.71173" lon="5.62502">
        <ele>232.7</ele>
        <time>2020-06-29T17:47:44Z</time>
      </trkpt>
      <trkpt lat="48.71176" lon="5.62495">
        <ele>232.7</ele>
        <time>2020-06-29T17:47:45Z</time>
      </trkpt>
      <trkpt lat="48.7118" lon="5.62488">
        <ele>232.6</ele>
        <time>2020-06-29T17:47:46Z</time>
      </trkpt>
      <trkpt lat="48.71183" lon="5.62481">
        <ele>232.6</ele>
        <time>2020-06-29T17:47:47Z</time>
      </trkpt>
      <trkpt lat="48.71187" lon="5.62474">
        <ele>232.6</ele>
        <time>2020-06-29T17:47:48Z</time>
      </trkpt>
      <trkpt lat="48.71191" lon="5.62468">
        <ele>232.6</ele>
        <time>2020-06-29T17:47:49Z</time>
      </trkpt>
      <trkpt lat="48.71194" lon="5.62462">
        <ele>232.6</ele>
        <time>2020-06-29T17:47:50Z</time>
      </trkpt>
      <trkpt lat="48.71198" lon="5.62456">
        <ele>232.6</ele>
        <time>2020-06-29T17:47:51Z</time>
      </trkpt>
      <trkpt lat="48.71202" lon="5.62451">
        <ele>232.6</ele>
        <time>2020-06-29T17:47:52Z</time>
      </trkpt>
      <trkpt lat="48.71205" lon="5.62445">
        <ele>232.6</ele>
        <time>2020-06-29T17:47:53Z</time>
      </trkpt>
      <trkpt lat="48.71209" lon="5.62438">
        <ele>232.6</ele>
        <time>2020-06-29T17:47:54Z</time>
      </trkpt>
      <trkpt lat="48.71212" lon="5.62432">
        <ele>232.6</ele>
        <time>2020-06-29T17:47:55Z</time>
      </trkpt>
      <trkpt lat="48.71216" lon="5.62426">
        <ele>232.6</ele>
        <time>2020-06-29T17:47:56Z</time>
      </trkpt>
      <trkpt lat="48.7122" lon="5.6242">
        <ele>232.6</ele>
        <time>2020-06-29T17:47:57Z</time>
      </trkpt>
      <trkpt lat="48.71223" lon="5.62415">
        <ele>232.6</ele>
        <time>2020-06-29T17:47:58Z</time>
      </trkpt>
      <trkpt lat="48.71227" lon="5.62408">
        <ele>232.6</ele>
        <time>2020-06-29T17:47:59Z</time>
      </trkpt>
      <trkpt lat="48.7123" lon="5.62402">
        <ele>232.6</ele>
        <time>2020-06-29T17:48:00Z</time>
      </trkpt>
      <trkpt lat="48.71234" lon="5.62396">
        <ele>232.6</ele>
        <time>2020-06-29T17:48:01Z</time>
      </trkpt>
      <trkpt lat="48.71239" lon="5.6239">
        <ele>232.6</ele>
        <time>2020-06-29T17:48:02Z</time>
      </trkpt>
      <trkpt lat="48.71243" lon="5.62385">
        <ele>232.6</ele>
        <time>2020-06-29T17:48:03Z</time>
      </trkpt>
      <trkpt lat="48.71248" lon="5.6238">
        <ele>232.6</ele>
        <time>2020-06-29T17:48:04Z</time>
      </trkpt>
      <trkpt lat="48.71253" lon="5.62374">
        <ele>232.6</ele>
        <time>2020-06-29T17:48:05Z</time>
      </trkpt>
      <trkpt lat="48.71257" lon="5.62369">
        <ele>232.6</ele>
        <time>2020-06-29T17:48:06Z</time>
      </trkpt>
      <trkpt lat="48.71262" lon="5.62364">
        <ele>232.6</ele>
        <time>2020-06-29T17:48:07Z</time>
      </trkpt>
      <trkpt lat="48.71266" lon="5.62358">
        <ele>232.6</ele>
        <time>2020-06-29T17:48:08Z</time>
      </trkpt>
      <trkpt lat="48.71272" lon="5.62354">
        <ele>232.6</ele>
        <time>2020-06-29T17:48:09Z</time>
      </trkpt>
      <trkpt lat="48.71276" lon="5.62348">
        <ele>232.6</ele>
        <time>2020-06-29T17:48:10Z</time>
      </trkpt>
      <trkpt lat="48.71281" lon="5.62343">
        <ele>232.6</ele>
        <time>2020-06-29T17:48:11Z</time>
      </trkpt>
      <trkpt lat="48.71286" lon="5.62338">
        <ele>232.6</ele>
        <time>2020-06-29T17:48:12Z</time>
      </trkpt>
      <trkpt lat="48.7129" lon="5.62333">
        <ele>232.6</ele>
        <time>2020-06-29T17:48:13Z</time>
      </trkpt>
      <trkpt lat="48.71295" lon="5.62327">
        <ele>232.6</ele>
        <time>2020-06-29T17:48:14Z</time>
      </trkpt>
      <trkpt lat="48.713" lon="5.62322">
        <ele>232.6</ele>
        <time>2020-06-29T17:48:15Z</time>
      </trkpt>
      <trkpt lat="48.71304" lon="5.62316">
        <ele>232.6</ele>
        <time>2020-06-29T17:48:16Z</time>
      </trkpt>
      <trkpt lat="48.71309" lon="5.6231">
        <ele>232.6</ele>
        <time>2020-06-29T17:48:17Z</time>
      </trkpt>
      <trkpt lat="48.71313" lon="5.62304">
        <ele>232.6</ele>
        <time>2020-06-29T17:48:18Z</time>
      </trkpt>
      <trkpt lat="48.71317" lon="5.62298">
        <ele>232.6</ele>
        <time>2020-06-29T17:48:19Z</time>
      </trkpt>
      <trkpt lat="48.71321" lon="5.62292">
        <ele>232.6</ele>
        <time>2020-06-29T17:48:20Z</time>
      </trkpt>
      <trkpt lat="48.71325" lon="5.62286">
        <ele>232.6</ele>
        <time>2020-06-29T17:48:21Z</time>
      </trkpt>
      <trkpt lat="48.71328" lon="5.62279">
        <ele>232.5</ele>
        <time>2020-06-29T17:48:22Z</time>
      </trkpt>
      <trkpt lat="48.71331" lon="5.62271">
        <ele>232.5</ele>
        <time>2020-06-29T17:48:23Z</time>
      </trkpt>
      <trkpt lat="48.71333" lon="5.62263">
        <ele>232.5</ele>
        <time>2020-06-29T17:48:24Z</time>
      </trkpt>
      <trkpt lat="48.71336" lon="5.62255">
        <ele>232.5</ele>
        <time>2020-06-29T17:48:25Z</time>
      </trkpt>
      <trkpt lat="48.71339" lon="5.62247">
        <ele>232.5</ele>
        <time>2020-06-29T17:48:26Z</time>
      </trkpt>
      <trkpt lat="48.71341" lon="5.62239">
        <ele>232.5</ele>
        <time>2020-06-29T17:48:27Z</time>
      </trkpt>
      <trkpt lat="48.71344" lon="5.6223">
        <ele>232.5</ele>
        <time>2020-06-29T17:48:28Z</time>
      </trkpt>
      <trkpt lat="48.71346" lon="5.62221">
        <ele>232.5</ele>
        <time>2020-06-29T17:48:29Z</time>
      </trkpt>
      <trkpt lat="48.71349" lon="5.62213">
        <ele>232.5</ele>
        <time>2020-06-29T17:48:30Z</time>
      </trkpt>
      <trkpt lat="48.71353" lon="5.62205">
        <ele>232.5</ele>
        <time>2020-06-29T17:48:31Z</time>
      </trkpt>
      <trkpt lat="48.71356" lon="5.62197">
        <ele>232.7</ele>
        <time>2020-06-29T17:48:32Z</time>
      </trkpt>
      <trkpt lat="48.71358" lon="5.62188">
        <ele>232.8</ele>
        <time>2020-06-29T17:48:33Z</time>
      </trkpt>
      <trkpt lat="48.71359" lon="5.6218">
        <ele>232.8</ele>
        <time>2020-06-29T17:48:34Z</time>
      </trkpt>
      <trkpt lat="48.71361" lon="5.62171">
        <ele>232.8</ele>
        <time>2020-06-29T17:48:35Z</time>
      </trkpt>
      <trkpt lat="48.71361" lon="5.62162">
        <ele>232.7</ele>
        <time>2020-06-29T17:48:36Z</time>
      </trkpt>
      <trkpt lat="48.71362" lon="5.62153">
        <ele>232.7</ele>
        <time>2020-06-29T17:48:37Z</time>
      </trkpt>
      <trkpt lat="48.71362" lon="5.62144">
        <ele>232.7</ele>
        <time>2020-06-29T17:48:38Z</time>
      </trkpt>
      <trkpt lat="48.71363" lon="5.62135">
        <ele>232.7</ele>
        <time>2020-06-29T17:48:39Z</time>
      </trkpt>
      <trkpt lat="48.71364" lon="5.62126">
        <ele>232.7</ele>
        <time>2020-06-29T17:48:40Z</time>
      </trkpt>
      <trkpt lat="48.71365" lon="5.62117">
        <ele>232.7</ele>
        <time>2020-06-29T17:48:41Z</time>
      </trkpt>
      <trkpt lat="48.71365" lon="5.62108">
        <ele>232.7</ele>
        <time>2020-06-29T17:48:42Z</time>
      </trkpt>
      <trkpt lat="48.71366" lon="5.62098">
        <ele>232.7</ele>
        <time>2020-06-29T17:48:43Z</time>
      </trkpt>
      <trkpt lat="48.71366" lon="5.62089">
        <ele>232.7</ele>
        <time>2020-06-29T17:48:44Z</time>
      </trkpt>
      <trkpt lat="48.71367" lon="5.62081">
        <ele>232.7</ele>
        <time>2020-06-29T17:48:45Z</time>
      </trkpt>
      <trkpt lat="48.71368" lon="5.62072">
        <ele>232.7</ele>
        <time>2020-06-29T17:48:46Z</time>
      </trkpt>
      <trkpt lat="48.71369" lon="5.62063">
        <ele>232.7</ele>
        <time>2020-06-29T17:48:47Z</time>
      </trkpt>
      <trkpt lat="48.7137" lon="5.62054">
        <ele>232.6</ele>
        <time>2020-06-29T17:48:48Z</time>
      </trkpt>
      <trkpt lat="48.7137" lon="5.62045">
        <ele>232.7</ele>
        <time>2020-06-29T17:48:49Z</time>
      </trkpt>
      <trkpt lat="48.7137" lon="5.62036">
        <ele>232.7</ele>
        <time>2020-06-29T17:48:50Z</time>
      </trkpt>
      <trkpt lat="48.7137" lon="5.62027">
        <ele>232.7</ele>
        <time>2020-06-29T17:48:51Z</time>
      </trkpt>
      <trkpt lat="48.71371" lon="5.62019">
        <ele>232.7</ele>
        <time>2020-06-29T17:48:52Z</time>
      </trkpt>
      <trkpt lat="48.71372" lon="5.62011">
        <ele>232.7</ele>
        <time>2020-06-29T17:48:53Z</time>
      </trkpt>
      <trkpt lat="48.71372" lon="5.62003">
        <ele>232.7</ele>
        <time>2020-06-29T17:48:54Z</time>
      </trkpt>
      <trkpt lat="48.71372" lon="5.61994">
        <ele>232.7</ele>
        <time>2020-06-29T17:48:55Z</time>
      </trkpt>
      <trkpt lat="48.71373" lon="5.61986">
        <ele>232.7</ele>
        <time>2020-06-29T17:48:56Z</time>
      </trkpt>
      <trkpt lat="48.71373" lon="5.61977">
        <ele>232.7</ele>
        <time>2020-06-29T17:48:57Z</time>
      </trkpt>
      <trkpt lat="48.71373" lon="5.61968">
        <ele>232.7</ele>
        <time>2020-06-29T17:48:58Z</time>
      </trkpt>
      <trkpt lat="48.71373" lon="5.6196">
        <ele>232.8</ele>
        <time>2020-06-29T17:48:59Z</time>
      </trkpt>
      <trkpt lat="48.71374" lon="5.61951">
        <ele>232.8</ele>
        <time>2020-06-29T17:49:00Z</time>
      </trkpt>
      <trkpt lat="48.71375" lon="5.61942">
        <ele>232.8</ele>
        <time>2020-06-29T17:49:01Z</time>
      </trkpt>
      <trkpt lat="48.71376" lon="5.61934">
        <ele>232.7</ele>
        <time>2020-06-29T17:49:02Z</time>
      </trkpt>
      <trkpt lat="48.71376" lon="5.61925">
        <ele>232.7</ele>
        <time>2020-06-29T17:49:03Z</time>
      </trkpt>
      <trkpt lat="48.71376" lon="5.61916">
        <ele>232.7</ele>
        <time>2020-06-29T17:49:04Z</time>
      </trkpt>
      <trkpt lat="48.71377" lon="5.61908">
        <ele>232.7</ele>
        <time>2020-06-29T17:49:05Z</time>
      </trkpt>
      <trkpt lat="48.71378" lon="5.61899">
        <ele>232.6</ele>
        <time>2020-06-29T17:49:06Z</time>
      </trkpt>
      <trkpt lat="48.7138" lon="5.61891">
        <ele>232.6</ele>
        <time>2020-06-29T17:49:07Z</time>
      </trkpt>
      <trkpt lat="48.7138" lon="5.61882">
        <ele>232.6</ele>
        <time>2020-06-29T17:49:08Z</time>
      </trkpt>
      <trkpt lat="48.71381" lon="5.61873">
        <ele>232.7</ele>
        <time>2020-06-29T17:49:09Z</time>
      </trkpt>
      <trkpt lat="48.71382" lon="5.61865">
        <ele>232.7</ele>
        <time>2020-06-29T17:49:10Z</time>
      </trkpt>
      <trkpt lat="48.71382" lon="5.61856">
        <ele>232.7</ele>
        <time>2020-06-29T17:49:11Z</time>
      </trkpt>
      <trkpt lat="48.71382" lon="5.61847">
        <ele>232.7</ele>
        <time>2020-06-29T17:49:12Z</time>
      </trkpt>
      <trkpt lat="48.71383" lon="5.61838">
        <ele>232.7</ele>
        <time>2020-06-29T17:49:13Z</time>
      </trkpt>
      <trkpt lat="48.71383" lon="5.61829">
        <ele>232.7</ele>
        <time>2020-06-29T17:49:14Z</time>
      </trkpt>
      <trkpt lat="48.71384" lon="5.6182">
        <ele>232.7</ele>
        <time>2020-06-29T17:49:15Z</time>
      </trkpt>
      <trkpt lat="48.71385" lon="5.61811">
        <ele>232.7</ele>
        <time>2020-06-29T17:49:16Z</time>
      </trkpt>
      <trkpt lat="48.71386" lon="5.61803">
        <ele>232.6</ele>
        <time>2020-06-29T17:49:17Z</time>
      </trkpt>
      <trkpt lat="48.71386" lon="5.61794">
        <ele>232.6</ele>
        <time>2020-06-29T17:49:18Z</time>
      </trkpt>
      <trkpt lat="48.71387" lon="5.61787">
        <ele>232.6</ele>
        <time>2020-06-29T17:49:19Z</time>
      </trkpt>
      <trkpt lat="48.71387" lon="5.61779">
        <ele>232.5</ele>
        <time>2020-06-29T17:49:20Z</time>
      </trkpt>
      <trkpt lat="48.71387" lon="5.61771">
        <ele>232.5</ele>
        <time>2020-06-29T17:49:21Z</time>
      </trkpt>
      <trkpt lat="48.71388" lon="5.61762">
        <ele>232.5</ele>
        <time>2020-06-29T17:49:22Z</time>
      </trkpt>
      <trkpt lat="48.71389" lon="5.61753">
        <ele>232.5</ele>
        <time>2020-06-29T17:49:23Z</time>
      </trkpt>
      <trkpt lat="48.71389" lon="5.61744">
        <ele>232.5</ele>
        <time>2020-06-29T17:49:24Z</time>
      </trkpt>
      <trkpt lat="48.71389" lon="5.61735">
        <ele>232.5</ele>
        <time>2020-06-29T17:49:25Z</time>
      </trkpt>
      <trkpt lat="48.71388" lon="5.61726">
        <ele>232.5</ele>
        <time>2020-06-29T17:49:26Z</time>
      </trkpt>
      <trkpt lat="48.71389" lon="5.61717">
        <ele>232.5</ele>
        <time>2020-06-29T17:49:27Z</time>
      </trkpt>
      <trkpt lat="48.7139" lon="5.61707">
        <ele>232.5</ele>
        <time>2020-06-29T17:49:28Z</time>
      </trkpt>
      <trkpt lat="48.71391" lon="5.61697">
        <ele>232.4</ele>
        <time>2020-06-29T17:49:29Z</time>
      </trkpt>
      <trkpt lat="48.71391" lon="5.61688">
        <ele>232.4</ele>
        <time>2020-06-29T17:49:30Z</time>
      </trkpt>
      <trkpt lat="48.71392" lon="5.61678">
        <ele>232.4</ele>
        <time>2020-06-29T17:49:31Z</time>
      </trkpt>
      <trkpt lat="48.71392" lon="5.61669">
        <ele>232.4</ele>
        <time>2020-06-29T17:49:32Z</time>
      </trkpt>
      <trkpt lat="48.71391" lon="5.6166">
        <ele>232.4</ele>
        <time>2020-06-29T17:49:33Z</time>
      </trkpt>
      <trkpt lat="48.71392" lon="5.6165">
        <ele>232.4</ele>
        <time>2020-06-29T17:49:34Z</time>
      </trkpt>
      <trkpt lat="48.71391" lon="5.61641">
        <ele>232.4</ele>
        <time>2020-06-29T17:49:35Z</time>
      </trkpt>
      <trkpt lat="48.7139" lon="5.61633">
        <ele>232.5</ele>
        <time>2020-06-29T17:49:36Z</time>
      </trkpt>
      <trkpt lat="48.7139" lon="5.61624">
        <ele>232.5</ele>
        <time>2020-06-29T17:49:37Z</time>
      </trkpt>
      <trkpt lat="48.71389" lon="5.61616">
        <ele>232.5</ele>
        <time>2020-06-29T17:49:38Z</time>
      </trkpt>
      <trkpt lat="48.71388" lon="5.61607">
        <ele>232.5</ele>
        <time>2020-06-29T17:49:39Z</time>
      </trkpt>
      <trkpt lat="48.71388" lon="5.61598">
        <ele>232.5</ele>
        <time>2020-06-29T17:49:40Z</time>
      </trkpt>
      <trkpt lat="48.71388" lon="5.61589">
        <ele>232.5</ele>
        <time>2020-06-29T17:49:41Z</time>
      </trkpt>
      <trkpt lat="48.71387" lon="5.6158">
        <ele>232.5</ele>
        <time>2020-06-29T17:49:42Z</time>
      </trkpt>
      <trkpt lat="48.71386" lon="5.61571">
        <ele>232.5</ele>
        <time>2020-06-29T17:49:43Z</time>
      </trkpt>
      <trkpt lat="48.71386" lon="5.61562">
        <ele>232.5</ele>
        <time>2020-06-29T17:49:44Z</time>
      </trkpt>
      <trkpt lat="48.71384" lon="5.61552">
        <ele>232.5</ele>
        <time>2020-06-29T17:49:45Z</time>
      </trkpt>
      <trkpt lat="48.71383" lon="5.61543">
        <ele>232.5</ele>
        <time>2020-06-29T17:49:46Z</time>
      </trkpt>
      <trkpt lat="48.71382" lon="5.61534">
        <ele>232.5</ele>
        <time>2020-06-29T17:49:47Z</time>
      </trkpt>
      <trkpt lat="48.71383" lon="5.61525">
        <ele>232.6</ele>
        <time>2020-06-29T17:49:48Z</time>
      </trkpt>
      <trkpt lat="48.71383" lon="5.61516">
        <ele>232.6</ele>
        <time>2020-06-29T17:49:49Z</time>
      </trkpt>
      <trkpt lat="48.71383" lon="5.61506">
        <ele>232.6</ele>
        <time>2020-06-29T17:49:50Z</time>
      </trkpt>
      <trkpt lat="48.71382" lon="5.61497">
        <ele>232.6</ele>
        <time>2020-06-29T17:49:51Z</time>
      </trkpt>
      <trkpt lat="48.71381" lon="5.61487">
        <ele>232.6</ele>
        <time>2020-06-29T17:49:52Z</time>
      </trkpt>
      <trkpt lat="48.71381" lon="5.61477">
        <ele>232.6</ele>
        <time>2020-06-29T17:49:53Z</time>
      </trkpt>
      <trkpt lat="48.71381" lon="5.61468">
        <ele>232.7</ele>
        <time>2020-06-29T17:49:54Z</time>
      </trkpt>
      <trkpt lat="48.7138" lon="5.61458">
        <ele>232.7</ele>
        <time>2020-06-29T17:49:55Z</time>
      </trkpt>
      <trkpt lat="48.71382" lon="5.61449">
        <ele>232.7</ele>
        <time>2020-06-29T17:49:56Z</time>
      </trkpt>
      <trkpt lat="48.71382" lon="5.6144">
        <ele>232.8</ele>
        <time>2020-06-29T17:49:57Z</time>
      </trkpt>
      <trkpt lat="48.71381" lon="5.61431">
        <ele>232.8</ele>
        <time>2020-06-29T17:49:58Z</time>
      </trkpt>
      <trkpt lat="48.71382" lon="5.61422">
        <ele>232.9</ele>
        <time>2020-06-29T17:49:59Z</time>
      </trkpt>
      <trkpt lat="48.71383" lon="5.61413">
        <ele>233</ele>
        <time>2020-06-29T17:50:00Z</time>
      </trkpt>
      <trkpt lat="48.71384" lon="5.61404">
        <ele>233</ele>
        <time>2020-06-29T17:50:01Z</time>
      </trkpt>
      <trkpt lat="48.71385" lon="5.61396">
        <ele>233.1</ele>
        <time>2020-06-29T17:50:02Z</time>
      </trkpt>
      <trkpt lat="48.71387" lon="5.61387">
        <ele>233.2</ele>
        <time>2020-06-29T17:50:03Z</time>
      </trkpt>
      <trkpt lat="48.71388" lon="5.61379">
        <ele>233.3</ele>
        <time>2020-06-29T17:50:04Z</time>
      </trkpt>
      <trkpt lat="48.71389" lon="5.6137">
        <ele>233.4</ele>
        <time>2020-06-29T17:50:05Z</time>
      </trkpt>
      <trkpt lat="48.71391" lon="5.61362">
        <ele>233.5</ele>
        <time>2020-06-29T17:50:06Z</time>
      </trkpt>
      <trkpt lat="48.71393" lon="5.61354">
        <ele>233.6</ele>
        <time>2020-06-29T17:50:07Z</time>
      </trkpt>
      <trkpt lat="48.71395" lon="5.61345">
        <ele>233.7</ele>
        <time>2020-06-29T17:50:08Z</time>
      </trkpt>
      <trkpt lat="48.71398" lon="5.61337">
        <ele>233.8</ele>
        <time>2020-06-29T17:50:09Z</time>
      </trkpt>
      <trkpt lat="48.71399" lon="5.61329">
        <ele>234</ele>
        <time>2020-06-29T17:50:10Z</time>
      </trkpt>
      <trkpt lat="48.71401" lon="5.61321">
        <ele>234.1</ele>
        <time>2020-06-29T17:50:11Z</time>
      </trkpt>
      <trkpt lat="48.71403" lon="5.61314">
        <ele>234.2</ele>
        <time>2020-06-29T17:50:12Z</time>
      </trkpt>
      <trkpt lat="48.71405" lon="5.61307">
        <ele>234.3</ele>
        <time>2020-06-29T17:50:13Z</time>
      </trkpt>
      <trkpt lat="48.71407" lon="5.613">
        <ele>234.4</ele>
        <time>2020-06-29T17:50:14Z</time>
      </trkpt>
      <trkpt lat="48.71409" lon="5.61292">
        <ele>234.5</ele>
        <time>2020-06-29T17:50:15Z</time>
      </trkpt>
      <trkpt lat="48.71411" lon="5.61284">
        <ele>234.6</ele>
        <time>2020-06-29T17:50:16Z</time>
      </trkpt>
      <trkpt lat="48.71413" lon="5.61277">
        <ele>234.7</ele>
        <time>2020-06-29T17:50:17Z</time>
      </trkpt>
      <trkpt lat="48.71415" lon="5.6127">
        <ele>234.7</ele>
        <time>2020-06-29T17:50:18Z</time>
      </trkpt>
      <trkpt lat="48.71418" lon="5.61264">
        <ele>234.8</ele>
        <time>2020-06-29T17:50:19Z</time>
      </trkpt>
      <trkpt lat="48.7142" lon="5.61257">
        <ele>234.8</ele>
        <time>2020-06-29T17:50:20Z</time>
      </trkpt>
      <trkpt lat="48.71422" lon="5.61249">
        <ele>234.9</ele>
        <time>2020-06-29T17:50:21Z</time>
      </trkpt>
      <trkpt lat="48.71424" lon="5.61241">
        <ele>234.9</ele>
        <time>2020-06-29T17:50:22Z</time>
      </trkpt>
      <trkpt lat="48.71426" lon="5.61235">
        <ele>235</ele>
        <time>2020-06-29T17:50:23Z</time>
      </trkpt>
      <trkpt lat="48.71428" lon="5.61229">
        <ele>235</ele>
        <time>2020-06-29T17:50:24Z</time>
      </trkpt>
      <trkpt lat="48.7143" lon="5.6122">
        <ele>235.1</ele>
        <time>2020-06-29T17:50:25Z</time>
      </trkpt>
      <trkpt lat="48.71431" lon="5.61212">
        <ele>235.2</ele>
        <time>2020-06-29T17:50:26Z</time>
      </trkpt>
      <trkpt lat="48.71432" lon="5.61205">
        <ele>235.3</ele>
        <time>2020-06-29T17:50:27Z</time>
      </trkpt>
      <trkpt lat="48.71433" lon="5.61199">
        <ele>235.4</ele>
        <time>2020-06-29T17:50:28Z</time>
      </trkpt>
      <trkpt lat="48.71435" lon="5.61192">
        <ele>235.5</ele>
        <time>2020-06-29T17:50:29Z</time>
      </trkpt>
      <trkpt lat="48.71437" lon="5.61185">
        <ele>235.6</ele>
        <time>2020-06-29T17:50:30Z</time>
      </trkpt>
      <trkpt lat="48.71439" lon="5.61179">
        <ele>235.7</ele>
        <time>2020-06-29T17:50:31Z</time>
      </trkpt>
      <trkpt lat="48.71442" lon="5.61172">
        <ele>235.8</ele>
        <time>2020-06-29T17:50:32Z</time>
      </trkpt>
      <trkpt lat="48.71443" lon="5.61166">
        <ele>235.9</ele>
        <time>2020-06-29T17:50:33Z</time>
      </trkpt>
      <trkpt lat="48.71445" lon="5.6116">
        <ele>236</ele>
        <time>2020-06-29T17:50:34Z</time>
      </trkpt>
      <trkpt lat="48.71446" lon="5.61154">
        <ele>236.1</ele>
        <time>2020-06-29T17:50:35Z</time>
      </trkpt>
      <trkpt lat="48.71448" lon="5.61148">
        <ele>236.1</ele>
        <time>2020-06-29T17:50:36Z</time>
      </trkpt>
      <trkpt lat="48.71449" lon="5.61142">
        <ele>236.2</ele>
        <time>2020-06-29T17:50:37Z</time>
      </trkpt>
      <trkpt lat="48.7145" lon="5.61136">
        <ele>236.2</ele>
        <time>2020-06-29T17:50:38Z</time>
      </trkpt>
      <trkpt lat="48.71451" lon="5.6113">
        <ele>236.3</ele>
        <time>2020-06-29T17:50:39Z</time>
      </trkpt>
      <trkpt lat="48.71453" lon="5.61124">
        <ele>236.4</ele>
        <time>2020-06-29T17:50:40Z</time>
      </trkpt>
      <trkpt lat="48.71454" lon="5.61117">
        <ele>236.5</ele>
        <time>2020-06-29T17:50:41Z</time>
      </trkpt>
      <trkpt lat="48.71455" lon="5.6111">
        <ele>236.5</ele>
        <time>2020-06-29T17:50:42Z</time>
      </trkpt>
      <trkpt lat="48.71456" lon="5.61104">
        <ele>236.6</ele>
        <time>2020-06-29T17:50:43Z</time>
      </trkpt>
      <trkpt lat="48.71457" lon="5.61099">
        <ele>236.7</ele>
        <time>2020-06-29T17:50:44Z</time>
      </trkpt>
      <trkpt lat="48.71458" lon="5.61094">
        <ele>236.7</ele>
        <time>2020-06-29T17:50:45Z</time>
      </trkpt>
      <trkpt lat="48.7146" lon="5.61089">
        <ele>236.8</ele>
        <time>2020-06-29T17:50:46Z</time>
      </trkpt>
      <trkpt lat="48.7146" lon="5.61087">
        <ele>236.8</ele>
        <time>2020-06-29T17:50:47Z</time>
      </trkpt>
      <trkpt lat="48.7146" lon="5.61085">
        <ele>236.8</ele>
        <time>2020-06-29T17:50:48Z</time>
      </trkpt>
      <trkpt lat="48.7146" lon="5.61082">
        <ele>236.9</ele>
        <time>2020-06-29T17:50:49Z</time>
      </trkpt>
      <trkpt lat="48.7146" lon="5.6108">
        <ele>236.9</ele>
        <time>2020-06-29T17:50:50Z</time>
      </trkpt>
      <trkpt lat="48.71461" lon="5.61079">
        <ele>236.9</ele>
        <time>2020-06-29T17:50:51Z</time>
      </trkpt>
      <trkpt lat="48.71461" lon="5.61076">
        <ele>237</ele>
        <time>2020-06-29T17:50:52Z</time>
      </trkpt>
      <trkpt lat="48.71461" lon="5.61075">
        <ele>237</ele>
        <time>2020-06-29T17:50:53Z</time>
      </trkpt>
      <trkpt lat="48.7146" lon="5.61074">
        <ele>237</ele>
        <time>2020-06-29T17:50:54Z</time>
      </trkpt>
      <trkpt lat="48.7146" lon="5.61071">
        <ele>237</ele>
        <time>2020-06-29T17:50:55Z</time>
      </trkpt>
      <trkpt lat="48.71461" lon="5.61069">
        <ele>237</ele>
        <time>2020-06-29T17:50:56Z</time>
      </trkpt>
      <trkpt lat="48.71461" lon="5.61067">
        <ele>237.1</ele>
        <time>2020-06-29T17:50:57Z</time>
      </trkpt>
      <trkpt lat="48.71463" lon="5.61066">
        <ele>237.1</ele>
        <time>2020-06-29T17:50:58Z</time>
      </trkpt>
      <trkpt lat="48.71464" lon="5.61065">
        <ele>237.1</ele>
        <time>2020-06-29T17:50:59Z</time>
      </trkpt>
      <trkpt lat="48.71464" lon="5.61064">
        <ele>237.1</ele>
        <time>2020-06-29T17:51:00Z</time>
      </trkpt>
      <trkpt lat="48.71463" lon="5.61063">
        <ele>237.2</ele>
        <time>2020-06-29T17:51:01Z</time>
      </trkpt>
      <trkpt lat="48.71462" lon="5.61063">
        <ele>237.2</ele>
        <time>2020-06-29T17:51:02Z</time>
      </trkpt>
      <trkpt lat="48.71461" lon="5.61063">
        <ele>237.2</ele>
        <time>2020-06-29T17:51:03Z</time>
      </trkpt>
      <trkpt lat="48.7146" lon="5.61063">
        <ele>237.2</ele>
        <time>2020-06-29T17:51:04Z</time>
      </trkpt>
      <trkpt lat="48.71457" lon="5.61062">
        <ele>237.3</ele>
        <time>2020-06-29T17:51:05Z</time>
      </trkpt>
      <trkpt lat="48.71456" lon="5.61062">
        <ele>237.3</ele>
        <time>2020-06-29T17:51:06Z</time>
      </trkpt>
      <trkpt lat="48.71453" lon="5.61061">
        <ele>237.8</ele>
        <time>2020-06-29T17:51:07Z</time>
      </trkpt>
      <trkpt lat="48.71451" lon="5.61061">
        <ele>237.8</ele>
        <time>2020-06-29T17:51:08Z</time>
      </trkpt>
      <trkpt lat="48.71449" lon="5.6106">
        <ele>237.9</ele>
        <time>2020-06-29T17:51:09Z</time>
      </trkpt>
      <trkpt lat="48.71444" lon="5.61059">
        <ele>238</ele>
        <time>2020-06-29T17:51:10Z</time>
      </trkpt>
      <trkpt lat="48.71443" lon="5.61059">
        <ele>238</ele>
        <time>2020-06-29T17:51:11Z</time>
      </trkpt>
      <trkpt lat="48.71439" lon="5.6106">
        <ele>238</ele>
        <time>2020-06-29T17:51:12Z</time>
      </trkpt>
      <trkpt lat="48.71436" lon="5.61062">
        <ele>238.1</ele>
        <time>2020-06-29T17:51:13Z</time>
      </trkpt>
      <trkpt lat="48.71432" lon="5.61063">
        <ele>238.1</ele>
        <time>2020-06-29T17:51:14Z</time>
      </trkpt>
      <trkpt lat="48.71428" lon="5.61065">
        <ele>238.1</ele>
        <time>2020-06-29T17:51:15Z</time>
      </trkpt>
      <trkpt lat="48.71424" lon="5.61065">
        <ele>238.1</ele>
        <time>2020-06-29T17:51:16Z</time>
      </trkpt>
      <trkpt lat="48.7142" lon="5.61066">
        <ele>238.2</ele>
        <time>2020-06-29T17:51:17Z</time>
      </trkpt>
      <trkpt lat="48.71416" lon="5.61067">
        <ele>238.2</ele>
        <time>2020-06-29T17:51:18Z</time>
      </trkpt>
      <trkpt lat="48.71412" lon="5.61069">
        <ele>238.2</ele>
        <time>2020-06-29T17:51:19Z</time>
      </trkpt>
      <trkpt lat="48.71408" lon="5.6107">
        <ele>238.3</ele>
        <time>2020-06-29T17:51:20Z</time>
      </trkpt>
      <trkpt lat="48.71404" lon="5.61072">
        <ele>238.3</ele>
        <time>2020-06-29T17:51:21Z</time>
      </trkpt>
      <trkpt lat="48.714" lon="5.61073">
        <ele>238.3</ele>
        <time>2020-06-29T17:51:22Z</time>
      </trkpt>
      <trkpt lat="48.71396" lon="5.61074">
        <ele>238.4</ele>
        <time>2020-06-29T17:51:23Z</time>
      </trkpt>
      <trkpt lat="48.71392" lon="5.61076">
        <ele>238.4</ele>
        <time>2020-06-29T17:51:24Z</time>
      </trkpt>
      <trkpt lat="48.71388" lon="5.61077">
        <ele>238.5</ele>
        <time>2020-06-29T17:51:25Z</time>
      </trkpt>
      <trkpt lat="48.71383" lon="5.61078">
        <ele>238.5</ele>
        <time>2020-06-29T17:51:26Z</time>
      </trkpt>
      <trkpt lat="48.71379" lon="5.6108">
        <ele>238.6</ele>
        <time>2020-06-29T17:51:27Z</time>
      </trkpt>
      <trkpt lat="48.71375" lon="5.61082">
        <ele>238.7</ele>
        <time>2020-06-29T17:51:28Z</time>
      </trkpt>
      <trkpt lat="48.71371" lon="5.61084">
        <ele>238.7</ele>
        <time>2020-06-29T17:51:29Z</time>
      </trkpt>
      <trkpt lat="48.71366" lon="5.61086">
        <ele>238.8</ele>
        <time>2020-06-29T17:51:30Z</time>
      </trkpt>
      <trkpt lat="48.71361" lon="5.61088">
        <ele>238.8</ele>
        <time>2020-06-29T17:51:31Z</time>
      </trkpt>
      <trkpt lat="48.71356" lon="5.6109">
        <ele>238.9</ele>
        <time>2020-06-29T17:51:32Z</time>
      </trkpt>
      <trkpt lat="48.71351" lon="5.61092">
        <ele>239</ele>
        <time>2020-06-29T17:51:33Z</time>
      </trkpt>
      <trkpt lat="48.71346" lon="5.61094">
        <ele>239.1</ele>
        <time>2020-06-29T17:51:34Z</time>
      </trkpt>
      <trkpt lat="48.71341" lon="5.61096">
        <ele>239.2</ele>
        <time>2020-06-29T17:51:35Z</time>
      </trkpt>
      <trkpt lat="48.71337" lon="5.61097">
        <ele>239.2</ele>
        <time>2020-06-29T17:51:36Z</time>
      </trkpt>
      <trkpt lat="48.71332" lon="5.61099">
        <ele>239.3</ele>
        <time>2020-06-29T17:51:37Z</time>
      </trkpt>
      <trkpt lat="48.71327" lon="5.61102">
        <ele>239.3</ele>
        <time>2020-06-29T17:51:38Z</time>
      </trkpt>
      <trkpt lat="48.71322" lon="5.61104">
        <ele>239.3</ele>
        <time>2020-06-29T17:51:39Z</time>
      </trkpt>
      <trkpt lat="48.71317" lon="5.61106">
        <ele>239.3</ele>
        <time>2020-06-29T17:51:40Z</time>
      </trkpt>
      <trkpt lat="48.71313" lon="5.61107">
        <ele>239.3</ele>
        <time>2020-06-29T17:51:41Z</time>
      </trkpt>
      <trkpt lat="48.71308" lon="5.61108">
        <ele>239.4</ele>
        <time>2020-06-29T17:51:42Z</time>
      </trkpt>
      <trkpt lat="48.71303" lon="5.6111">
        <ele>239.4</ele>
        <time>2020-06-29T17:51:43Z</time>
      </trkpt>
      <trkpt lat="48.71298" lon="5.61112">
        <ele>239.4</ele>
        <time>2020-06-29T17:51:44Z</time>
      </trkpt>
      <trkpt lat="48.71293" lon="5.61114">
        <ele>239.4</ele>
        <time>2020-06-29T17:51:45Z</time>
      </trkpt>
      <trkpt lat="48.71288" lon="5.61117">
        <ele>239.4</ele>
        <time>2020-06-29T17:51:46Z</time>
      </trkpt>
      <trkpt lat="48.71283" lon="5.61119">
        <ele>239.4</ele>
        <time>2020-06-29T17:51:47Z</time>
      </trkpt>
      <trkpt lat="48.71278" lon="5.6112">
        <ele>239.4</ele>
        <time>2020-06-29T17:51:48Z</time>
      </trkpt>
      <trkpt lat="48.71272" lon="5.61122">
        <ele>239.5</ele>
        <time>2020-06-29T17:51:49Z</time>
      </trkpt>
      <trkpt lat="48.71266" lon="5.61123">
        <ele>239.5</ele>
        <time>2020-06-29T17:51:50Z</time>
      </trkpt>
      <trkpt lat="48.71261" lon="5.61125">
        <ele>239.5</ele>
        <time>2020-06-29T17:51:51Z</time>
      </trkpt>
      <trkpt lat="48.71256" lon="5.61126">
        <ele>239.5</ele>
        <time>2020-06-29T17:51:52Z</time>
      </trkpt>
      <trkpt lat="48.7125" lon="5.61128">
        <ele>239.4</ele>
        <time>2020-06-29T17:51:53Z</time>
      </trkpt>
      <trkpt lat="48.71245" lon="5.6113">
        <ele>239.4</ele>
        <time>2020-06-29T17:51:54Z</time>
      </trkpt>
      <trkpt lat="48.71239" lon="5.61131">
        <ele>239.4</ele>
        <time>2020-06-29T17:51:55Z</time>
      </trkpt>
      <trkpt lat="48.71233" lon="5.61131">
        <ele>239.3</ele>
        <time>2020-06-29T17:51:56Z</time>
      </trkpt>
      <trkpt lat="48.71226" lon="5.61133">
        <ele>239.3</ele>
        <time>2020-06-29T17:51:57Z</time>
      </trkpt>
      <trkpt lat="48.71222" lon="5.61134">
        <ele>239.2</ele>
        <time>2020-06-29T17:51:58Z</time>
      </trkpt>
      <trkpt lat="48.71216" lon="5.61135">
        <ele>239.1</ele>
        <time>2020-06-29T17:51:59Z</time>
      </trkpt>
      <trkpt lat="48.7121" lon="5.61136">
        <ele>239</ele>
        <time>2020-06-29T17:52:00Z</time>
      </trkpt>
      <trkpt lat="48.71204" lon="5.61137">
        <ele>239</ele>
        <time>2020-06-29T17:52:01Z</time>
      </trkpt>
      <trkpt lat="48.71198" lon="5.61138">
        <ele>238.9</ele>
        <time>2020-06-29T17:52:02Z</time>
      </trkpt>
      <trkpt lat="48.71192" lon="5.61139">
        <ele>238.9</ele>
        <time>2020-06-29T17:52:03Z</time>
      </trkpt>
      <trkpt lat="48.71186" lon="5.6114">
        <ele>238.9</ele>
        <time>2020-06-29T17:52:04Z</time>
      </trkpt>
      <trkpt lat="48.7118" lon="5.61141">
        <ele>238.9</ele>
        <time>2020-06-29T17:52:05Z</time>
      </trkpt>
      <trkpt lat="48.71174" lon="5.61143">
        <ele>238.9</ele>
        <time>2020-06-29T17:52:06Z</time>
      </trkpt>
      <trkpt lat="48.71169" lon="5.61144">
        <ele>238.9</ele>
        <time>2020-06-29T17:52:07Z</time>
      </trkpt>
      <trkpt lat="48.71163" lon="5.61145">
        <ele>238.9</ele>
        <time>2020-06-29T17:52:08Z</time>
      </trkpt>
      <trkpt lat="48.71157" lon="5.61146">
        <ele>238.9</ele>
        <time>2020-06-29T17:52:09Z</time>
      </trkpt>
      <trkpt lat="48.7115" lon="5.61148">
        <ele>238.9</ele>
        <time>2020-06-29T17:52:10Z</time>
      </trkpt>
      <trkpt lat="48.71143" lon="5.61149">
        <ele>238.9</ele>
        <time>2020-06-29T17:52:11Z</time>
      </trkpt>
      <trkpt lat="48.71137" lon="5.6115">
        <ele>238.9</ele>
        <time>2020-06-29T17:52:12Z</time>
      </trkpt>
      <trkpt lat="48.7113" lon="5.61152">
        <ele>238.9</ele>
        <time>2020-06-29T17:52:13Z</time>
      </trkpt>
      <trkpt lat="48.71124" lon="5.61153">
        <ele>238.9</ele>
        <time>2020-06-29T17:52:14Z</time>
      </trkpt>
      <trkpt lat="48.7112" lon="5.61153">
        <ele>238.9</ele>
        <time>2020-06-29T17:52:15Z</time>
      </trkpt>
      <trkpt lat="48.71115" lon="5.61154">
        <ele>238.8</ele>
        <time>2020-06-29T17:52:16Z</time>
      </trkpt>
      <trkpt lat="48.7111" lon="5.61155">
        <ele>238.8</ele>
        <time>2020-06-29T17:52:17Z</time>
      </trkpt>
      <trkpt lat="48.71104" lon="5.61156">
        <ele>238.7</ele>
        <time>2020-06-29T17:52:18Z</time>
      </trkpt>
      <trkpt lat="48.71098" lon="5.61157">
        <ele>238.6</ele>
        <time>2020-06-29T17:52:19Z</time>
      </trkpt>
      <trkpt lat="48.71091" lon="5.61158">
        <ele>238.5</ele>
        <time>2020-06-29T17:52:20Z</time>
      </trkpt>
      <trkpt lat="48.71087" lon="5.61159">
        <ele>238.5</ele>
        <time>2020-06-29T17:52:21Z</time>
      </trkpt>
      <trkpt lat="48.71081" lon="5.61161">
        <ele>238.4</ele>
        <time>2020-06-29T17:52:22Z</time>
      </trkpt>
      <trkpt lat="48.71075" lon="5.61162">
        <ele>238.4</ele>
        <time>2020-06-29T17:52:23Z</time>
      </trkpt>
      <trkpt lat="48.71069" lon="5.61163">
        <ele>238.3</ele>
        <time>2020-06-29T17:52:24Z</time>
      </trkpt>
      <trkpt lat="48.71063" lon="5.61164">
        <ele>238.2</ele>
        <time>2020-06-29T17:52:25Z</time>
      </trkpt>
      <trkpt lat="48.71056" lon="5.61164">
        <ele>238.2</ele>
        <time>2020-06-29T17:52:26Z</time>
      </trkpt>
      <trkpt lat="48.71049" lon="5.61166">
        <ele>238.1</ele>
        <time>2020-06-29T17:52:27Z</time>
      </trkpt>
      <trkpt lat="48.71042" lon="5.61168">
        <ele>238</ele>
        <time>2020-06-29T17:52:28Z</time>
      </trkpt>
      <trkpt lat="48.71035" lon="5.61169">
        <ele>237.7</ele>
        <time>2020-06-29T17:52:29Z</time>
      </trkpt>
      <trkpt lat="48.71028" lon="5.61169">
        <ele>237.5</ele>
        <time>2020-06-29T17:52:30Z</time>
      </trkpt>
      <trkpt lat="48.71023" lon="5.6117">
        <ele>237.4</ele>
        <time>2020-06-29T17:52:31Z</time>
      </trkpt>
      <trkpt lat="48.71017" lon="5.6117">
        <ele>237.2</ele>
        <time>2020-06-29T17:52:32Z</time>
      </trkpt>
      <trkpt lat="48.71009" lon="5.61172">
        <ele>237.1</ele>
        <time>2020-06-29T17:52:33Z</time>
      </trkpt>
      <trkpt lat="48.71002" lon="5.61173">
        <ele>236.9</ele>
        <time>2020-06-29T17:52:34Z</time>
      </trkpt>
      <trkpt lat="48.70996" lon="5.61174">
        <ele>236.8</ele>
        <time>2020-06-29T17:52:35Z</time>
      </trkpt>
      <trkpt lat="48.70989" lon="5.61175">
        <ele>236.7</ele>
        <time>2020-06-29T17:52:36Z</time>
      </trkpt>
      <trkpt lat="48.70982" lon="5.61176">
        <ele>236.6</ele>
        <time>2020-06-29T17:52:37Z</time>
      </trkpt>
      <trkpt lat="48.70976" lon="5.61177">
        <ele>236.4</ele>
        <time>2020-06-29T17:52:38Z</time>
      </trkpt>
      <trkpt lat="48.70969" lon="5.61178">
        <ele>236.3</ele>
        <time>2020-06-29T17:52:39Z</time>
      </trkpt>
      <trkpt lat="48.70963" lon="5.61179">
        <ele>236.3</ele>
        <time>2020-06-29T17:52:40Z</time>
      </trkpt>
      <trkpt lat="48.70957" lon="5.61181">
        <ele>236.2</ele>
        <time>2020-06-29T17:52:41Z</time>
      </trkpt>
      <trkpt lat="48.70951" lon="5.61182">
        <ele>236.2</ele>
        <time>2020-06-29T17:52:42Z</time>
      </trkpt>
      <trkpt lat="48.70944" lon="5.61183">
        <ele>236.1</ele>
        <time>2020-06-29T17:52:43Z</time>
      </trkpt>
      <trkpt lat="48.70938" lon="5.61184">
        <ele>236</ele>
        <time>2020-06-29T17:52:44Z</time>
      </trkpt>
      <trkpt lat="48.70931" lon="5.61185">
        <ele>235.9</ele>
        <time>2020-06-29T17:52:45Z</time>
      </trkpt>
      <trkpt lat="48.70925" lon="5.61185">
        <ele>235.8</ele>
        <time>2020-06-29T17:52:46Z</time>
      </trkpt>
      <trkpt lat="48.70919" lon="5.61186">
        <ele>235.8</ele>
        <time>2020-06-29T17:52:47Z</time>
      </trkpt>
      <trkpt lat="48.70914" lon="5.61187">
        <ele>235.8</ele>
        <time>2020-06-29T17:52:48Z</time>
      </trkpt>
      <trkpt lat="48.70908" lon="5.61188">
        <ele>235.8</ele>
        <time>2020-06-29T17:52:49Z</time>
      </trkpt>
      <trkpt lat="48.70903" lon="5.6119">
        <ele>235.9</ele>
        <time>2020-06-29T17:52:50Z</time>
      </trkpt>
      <trkpt lat="48.70897" lon="5.61191">
        <ele>236</ele>
        <time>2020-06-29T17:52:51Z</time>
      </trkpt>
      <trkpt lat="48.70892" lon="5.61192">
        <ele>236.1</ele>
        <time>2020-06-29T17:52:52Z</time>
      </trkpt>
      <trkpt lat="48.70886" lon="5.61195">
        <ele>236</ele>
        <time>2020-06-29T17:52:53Z</time>
      </trkpt>
      <trkpt lat="48.7088" lon="5.61196">
        <ele>236</ele>
        <time>2020-06-29T17:52:54Z</time>
      </trkpt>
      <trkpt lat="48.70875" lon="5.61197">
        <ele>236</ele>
        <time>2020-06-29T17:52:55Z</time>
      </trkpt>
      <trkpt lat="48.7087" lon="5.61198">
        <ele>235.9</ele>
        <time>2020-06-29T17:52:56Z</time>
      </trkpt>
      <trkpt lat="48.70865" lon="5.61199">
        <ele>235.9</ele>
        <time>2020-06-29T17:52:57Z</time>
      </trkpt>
      <trkpt lat="48.7086" lon="5.612">
        <ele>235.9</ele>
        <time>2020-06-29T17:52:58Z</time>
      </trkpt>
      <trkpt lat="48.70856" lon="5.61201">
        <ele>235.9</ele>
        <time>2020-06-29T17:52:59Z</time>
      </trkpt>
      <trkpt lat="48.70851" lon="5.612">
        <ele>235.9</ele>
        <time>2020-06-29T17:53:00Z</time>
      </trkpt>
      <trkpt lat="48.70847" lon="5.612">
        <ele>235.9</ele>
        <time>2020-06-29T17:53:01Z</time>
      </trkpt>
      <trkpt lat="48.70843" lon="5.61198">
        <ele>235.9</ele>
        <time>2020-06-29T17:53:02Z</time>
      </trkpt>
      <trkpt lat="48.70837" lon="5.61195">
        <ele>235.9</ele>
        <time>2020-06-29T17:53:03Z</time>
      </trkpt>
      <trkpt lat="48.70832" lon="5.6119">
        <ele>236</ele>
        <time>2020-06-29T17:53:04Z</time>
      </trkpt>
      <trkpt lat="48.70828" lon="5.61183">
        <ele>235.9</ele>
        <time>2020-06-29T17:53:05Z</time>
      </trkpt>
      <trkpt lat="48.70824" lon="5.61175">
        <ele>235.8</ele>
        <time>2020-06-29T17:53:06Z</time>
      </trkpt>
      <trkpt lat="48.70822" lon="5.61166">
        <ele>235.7</ele>
        <time>2020-06-29T17:53:07Z</time>
      </trkpt>
      <trkpt lat="48.70821" lon="5.61156">
        <ele>235.6</ele>
        <time>2020-06-29T17:53:08Z</time>
      </trkpt>
      <trkpt lat="48.70818" lon="5.61147">
        <ele>235.6</ele>
        <time>2020-06-29T17:53:09Z</time>
      </trkpt>
      <trkpt lat="48.70817" lon="5.61137">
        <ele>235.5</ele>
        <time>2020-06-29T17:53:10Z</time>
      </trkpt>
      <trkpt lat="48.70815" lon="5.61128">
        <ele>235.5</ele>
        <time>2020-06-29T17:53:11Z</time>
      </trkpt>
      <trkpt lat="48.70813" lon="5.61119">
        <ele>235.5</ele>
        <time>2020-06-29T17:53:12Z</time>
      </trkpt>
      <trkpt lat="48.70811" lon="5.61111">
        <ele>235.6</ele>
        <time>2020-06-29T17:53:13Z</time>
      </trkpt>
      <trkpt lat="48.70809" lon="5.61102">
        <ele>235.6</ele>
        <time>2020-06-29T17:53:14Z</time>
      </trkpt>
      <trkpt lat="48.70808" lon="5.61093">
        <ele>235.6</ele>
        <time>2020-06-29T17:53:15Z</time>
      </trkpt>
      <trkpt lat="48.70806" lon="5.61085">
        <ele>235.6</ele>
        <time>2020-06-29T17:53:16Z</time>
      </trkpt>
      <trkpt lat="48.70804" lon="5.61077">
        <ele>235.6</ele>
        <time>2020-06-29T17:53:17Z</time>
      </trkpt>
      <trkpt lat="48.70802" lon="5.61069">
        <ele>235.6</ele>
        <time>2020-06-29T17:53:18Z</time>
      </trkpt>
      <trkpt lat="48.70801" lon="5.61061">
        <ele>235.6</ele>
        <time>2020-06-29T17:53:19Z</time>
      </trkpt>
      <trkpt lat="48.70801" lon="5.61052">
        <ele>235.6</ele>
        <time>2020-06-29T17:53:20Z</time>
      </trkpt>
      <trkpt lat="48.70801" lon="5.61046">
        <ele>235.6</ele>
        <time>2020-06-29T17:53:21Z</time>
      </trkpt>
      <trkpt lat="48.708" lon="5.61041">
        <ele>235.6</ele>
        <time>2020-06-29T17:53:22Z</time>
      </trkpt>
      <trkpt lat="48.708" lon="5.61035">
        <ele>235.6</ele>
        <time>2020-06-29T17:53:23Z</time>
      </trkpt>
      <trkpt lat="48.70799" lon="5.61031">
        <ele>235.7</ele>
        <time>2020-06-29T17:53:24Z</time>
      </trkpt>
      <trkpt lat="48.70798" lon="5.61025">
        <ele>235.7</ele>
        <time>2020-06-29T17:53:25Z</time>
      </trkpt>
      <trkpt lat="48.70797" lon="5.61018">
        <ele>235.8</ele>
        <time>2020-06-29T17:53:26Z</time>
      </trkpt>
      <trkpt lat="48.70797" lon="5.61009">
        <ele>235.9</ele>
        <time>2020-06-29T17:53:27Z</time>
      </trkpt>
      <trkpt lat="48.70795" lon="5.61003">
        <ele>236</ele>
        <time>2020-06-29T17:53:28Z</time>
      </trkpt>
      <trkpt lat="48.70794" lon="5.60997">
        <ele>236</ele>
        <time>2020-06-29T17:53:29Z</time>
      </trkpt>
      <trkpt lat="48.70792" lon="5.6099">
        <ele>236.1</ele>
        <time>2020-06-29T17:53:30Z</time>
      </trkpt>
      <trkpt lat="48.70791" lon="5.60985">
        <ele>236.1</ele>
        <time>2020-06-29T17:53:31Z</time>
      </trkpt>
      <trkpt lat="48.7079" lon="5.60979">
        <ele>236.2</ele>
        <time>2020-06-29T17:53:32Z</time>
      </trkpt>
      <trkpt lat="48.7079" lon="5.60977">
        <ele>236.2</ele>
        <time>2020-06-29T17:53:33Z</time>
      </trkpt>
      <trkpt lat="48.70787" lon="5.60971">
        <ele>236.3</ele>
        <time>2020-06-29T17:53:34Z</time>
      </trkpt>
      <trkpt lat="48.70786" lon="5.60965">
        <ele>236.4</ele>
        <time>2020-06-29T17:53:35Z</time>
      </trkpt>
      <trkpt lat="48.70785" lon="5.60963">
        <ele>236.5</ele>
        <time>2020-06-29T17:53:36Z</time>
      </trkpt>
      <trkpt lat="48.70783" lon="5.60958">
        <ele>236.6</ele>
        <time>2020-06-29T17:53:37Z</time>
      </trkpt>
      <trkpt lat="48.70783" lon="5.60953">
        <ele>236.7</ele>
        <time>2020-06-29T17:53:38Z</time>
      </trkpt>
      <trkpt lat="48.70782" lon="5.60948">
        <ele>236.8</ele>
        <time>2020-06-29T17:53:39Z</time>
      </trkpt>
      <trkpt lat="48.70781" lon="5.60943">
        <ele>236.9</ele>
        <time>2020-06-29T17:53:40Z</time>
      </trkpt>
      <trkpt lat="48.70781" lon="5.60937">
        <ele>237</ele>
        <time>2020-06-29T17:53:41Z</time>
      </trkpt>
      <trkpt lat="48.7078" lon="5.60931">
        <ele>237.1</ele>
        <time>2020-06-29T17:53:42Z</time>
      </trkpt>
      <trkpt lat="48.70778" lon="5.60927">
        <ele>237.2</ele>
        <time>2020-06-29T17:53:43Z</time>
      </trkpt>
      <trkpt lat="48.70777" lon="5.60922">
        <ele>237.2</ele>
        <time>2020-06-29T17:53:44Z</time>
      </trkpt>
      <trkpt lat="48.70776" lon="5.60919">
        <ele>237.3</ele>
        <time>2020-06-29T17:53:45Z</time>
      </trkpt>
      <trkpt lat="48.70775" lon="5.60914">
        <ele>237.4</ele>
        <time>2020-06-29T17:53:46Z</time>
      </trkpt>
      <trkpt lat="48.70774" lon="5.6091">
        <ele>237.5</ele>
        <time>2020-06-29T17:53:47Z</time>
      </trkpt>
      <trkpt lat="48.70773" lon="5.60908">
        <ele>237.5</ele>
        <time>2020-06-29T17:53:48Z</time>
      </trkpt>
      <trkpt lat="48.70773" lon="5.60906">
        <ele>237.5</ele>
        <time>2020-06-29T17:53:49Z</time>
      </trkpt>
      <trkpt lat="48.70773" lon="5.60905">
        <ele>237.5</ele>
        <time>2020-06-29T17:53:50Z</time>
      </trkpt>
      <trkpt lat="48.70773" lon="5.60905">
        <ele>237.5</ele>
        <time>2020-06-29T17:53:51Z</time>
      </trkpt>
      <trkpt lat="48.70773" lon="5.60905">
        <ele>237.5</ele>
        <time>2020-06-29T17:53:52Z</time>
      </trkpt>
      <trkpt lat="48.70773" lon="5.60906">
        <ele>237.5</ele>
        <time>2020-06-29T17:53:53Z</time>
      </trkpt>
      <trkpt lat="48.70773" lon="5.60906">
        <ele>237.6</ele>
        <time>2020-06-29T17:53:54Z</time>
      </trkpt>
      <trkpt lat="48.70774" lon="5.60907">
        <ele>237.6</ele>
        <time>2020-06-29T17:53:55Z</time>
      </trkpt>
      <trkpt lat="48.70774" lon="5.60907">
        <ele>237.6</ele>
        <time>2020-06-29T17:53:56Z</time>
      </trkpt>
      <trkpt lat="48.70774" lon="5.60908">
        <ele>237.6</ele>
        <time>2020-06-29T17:53:57Z</time>
      </trkpt>
      <trkpt lat="48.70775" lon="5.60908">
        <ele>237.6</ele>
        <time>2020-06-29T17:53:58Z</time>
      </trkpt>
      <trkpt lat="48.70775" lon="5.60908">
        <ele>237.6</ele>
        <time>2020-06-29T17:53:59Z</time>
      </trkpt>
      <trkpt lat="48.70775" lon="5.60907">
        <ele>237.6</ele>
        <time>2020-06-29T17:54:00Z</time>
      </trkpt>
      <trkpt lat="48.70775" lon="5.60907">
        <ele>237.7</ele>
        <time>2020-06-29T17:54:01Z</time>
      </trkpt>
      <trkpt lat="48.70775" lon="5.60907">
        <ele>237.7</ele>
        <time>2020-06-29T17:54:02Z</time>
      </trkpt>
      <trkpt lat="48.70775" lon="5.60907">
        <ele>237.7</ele>
        <time>2020-06-29T17:54:03Z</time>
      </trkpt>
      <trkpt lat="48.70775" lon="5.60907">
        <ele>237.7</ele>
        <time>2020-06-29T17:54:04Z</time>
      </trkpt>
      <trkpt lat="48.70774" lon="5.60906">
        <ele>237.7</ele>
        <time>2020-06-29T17:54:05Z</time>
      </trkpt>
      <trkpt lat="48.70774" lon="5.60905">
        <ele>237.7</ele>
        <time>2020-06-29T17:54:06Z</time>
      </trkpt>
      <trkpt lat="48.70774" lon="5.60905">
        <ele>237.7</ele>
        <time>2020-06-29T17:54:07Z</time>
      </trkpt>
      <trkpt lat="48.70775" lon="5.60906">
        <ele>237.8</ele>
        <time>2020-06-29T17:54:08Z</time>
      </trkpt>
      <trkpt lat="48.70775" lon="5.60906">
        <ele>237.8</ele>
        <time>2020-06-29T17:54:09Z</time>
      </trkpt>
      <trkpt lat="48.70775" lon="5.60906">
        <ele>237.8</ele>
        <time>2020-06-29T17:54:10Z</time>
      </trkpt>
      <trkpt lat="48.70775" lon="5.60906">
        <ele>237.8</ele>
        <time>2020-06-29T17:54:11Z</time>
      </trkpt>
      <trkpt lat="48.70774" lon="5.60905">
        <ele>237.8</ele>
        <time>2020-06-29T17:54:12Z</time>
      </trkpt>
      <trkpt lat="48.70775" lon="5.60905">
        <ele>237.8</ele>
        <time>2020-06-29T17:54:13Z</time>
      </trkpt>
      <trkpt lat="48.70776" lon="5.60905">
        <ele>237.8</ele>
        <time>2020-06-29T17:54:14Z</time>
      </trkpt>
      <trkpt lat="48.70775" lon="5.60905">
        <ele>237.8</ele>
        <time>2020-06-29T17:54:15Z</time>
      </trkpt>
      <trkpt lat="48.70774" lon="5.60906">
        <ele>237.9</ele>
        <time>2020-06-29T17:54:16Z</time>
      </trkpt>
      <trkpt lat="48.70774" lon="5.60906">
        <ele>237.9</ele>
        <time>2020-06-29T17:54:17Z</time>
      </trkpt>
      <trkpt lat="48.70773" lon="5.60906">
        <ele>237.9</ele>
        <time>2020-06-29T17:54:18Z</time>
      </trkpt>
      <trkpt lat="48.70772" lon="5.60907">
        <ele>237.9</ele>
        <time>2020-06-29T17:54:19Z</time>
      </trkpt>
      <trkpt lat="48.70772" lon="5.60907">
        <ele>238</ele>
        <time>2020-06-29T17:54:20Z</time>
      </trkpt>
      <trkpt lat="48.70772" lon="5.60908">
        <ele>238</ele>
        <time>2020-06-29T17:54:21Z</time>
      </trkpt>
      <trkpt lat="48.70773" lon="5.60909">
        <ele>238</ele>
        <time>2020-06-29T17:54:22Z</time>
      </trkpt>
      <trkpt lat="48.70773" lon="5.6091">
        <ele>238</ele>
        <time>2020-06-29T17:54:23Z</time>
      </trkpt>
      <trkpt lat="48.70774" lon="5.60911">
        <ele>238</ele>
        <time>2020-06-29T17:54:24Z</time>
      </trkpt>
      <trkpt lat="48.70773" lon="5.60911">
        <ele>238</ele>
        <time>2020-06-29T17:54:25Z</time>
      </trkpt>
      <trkpt lat="48.70774" lon="5.60912">
        <ele>238.1</ele>
        <time>2020-06-29T17:54:26Z</time>
      </trkpt>
      <trkpt lat="48.70773" lon="5.60912">
        <ele>238.1</ele>
        <time>2020-06-29T17:54:27Z</time>
      </trkpt>
      <trkpt lat="48.70773" lon="5.60913">
        <ele>238.1</ele>
        <time>2020-06-29T17:54:28Z</time>
      </trkpt>
      <trkpt lat="48.70772" lon="5.60913">
        <ele>238.1</ele>
        <time>2020-06-29T17:54:29Z</time>
      </trkpt>
      <trkpt lat="48.70772" lon="5.60913">
        <ele>238.1</ele>
        <time>2020-06-29T17:54:30Z</time>
      </trkpt>
      <trkpt lat="48.70771" lon="5.60913">
        <ele>238.1</ele>
        <time>2020-06-29T17:54:31Z</time>
      </trkpt>
      <trkpt lat="48.70771" lon="5.60914">
        <ele>238.2</ele>
        <time>2020-06-29T17:54:32Z</time>
      </trkpt>
      <trkpt lat="48.70771" lon="5.60914">
        <ele>238.2</ele>
        <time>2020-06-29T17:54:33Z</time>
      </trkpt>
      <trkpt lat="48.70771" lon="5.60914">
        <ele>238.2</ele>
        <time>2020-06-29T17:54:34Z</time>
      </trkpt>
      <trkpt lat="48.7077" lon="5.60914">
        <ele>238.2</ele>
        <time>2020-06-29T17:54:35Z</time>
      </trkpt>
      <trkpt lat="48.7077" lon="5.60914">
        <ele>238.2</ele>
        <time>2020-06-29T17:54:36Z</time>
      </trkpt>
      <trkpt lat="48.7077" lon="5.60915">
        <ele>238.2</ele>
        <time>2020-06-29T17:54:37Z</time>
      </trkpt>
      <trkpt lat="48.70769" lon="5.60915">
        <ele>238.2</ele>
        <time>2020-06-29T17:54:38Z</time>
      </trkpt>
      <trkpt lat="48.70768" lon="5.60915">
        <ele>238.3</ele>
        <time>2020-06-29T17:54:39Z</time>
      </trkpt>
      <trkpt lat="48.70767" lon="5.60914">
        <ele>238.3</ele>
        <time>2020-06-29T17:54:40Z</time>
      </trkpt>
      <trkpt lat="48.70766" lon="5.60914">
        <ele>238.3</ele>
        <time>2020-06-29T17:54:41Z</time>
      </trkpt>
      <trkpt lat="48.70766" lon="5.60915">
        <ele>238.3</ele>
        <time>2020-06-29T17:54:42Z</time>
      </trkpt>
      <trkpt lat="48.70765" lon="5.60915">
        <ele>238.4</ele>
        <time>2020-06-29T17:54:43Z</time>
      </trkpt>
      <trkpt lat="48.70765" lon="5.60916">
        <ele>238.4</ele>
        <time>2020-06-29T17:54:44Z</time>
      </trkpt>
      <trkpt lat="48.70765" lon="5.60916">
        <ele>238.4</ele>
        <time>2020-06-29T17:54:45Z</time>
      </trkpt>
      <trkpt lat="48.70765" lon="5.60915">
        <ele>238.4</ele>
        <time>2020-06-29T17:54:46Z</time>
      </trkpt>
      <trkpt lat="48.70765" lon="5.60915">
        <ele>238.4</ele>
        <time>2020-06-29T17:54:47Z</time>
      </trkpt>
      <trkpt lat="48.70765" lon="5.60915">
        <ele>238.4</ele>
        <time>2020-06-29T17:54:48Z</time>
      </trkpt>
      <trkpt lat="48.70765" lon="5.60916">
        <ele>238.4</ele>
        <time>2020-06-29T17:54:49Z</time>
      </trkpt>
      <trkpt lat="48.70765" lon="5.60916">
        <ele>238.4</ele>
        <time>2020-06-29T17:54:50Z</time>
      </trkpt>
      <trkpt lat="48.70765" lon="5.60916">
        <ele>238.4</ele>
        <time>2020-06-29T17:54:51Z</time>
      </trkpt>
      <trkpt lat="48.70765" lon="5.60916">
        <ele>238.4</ele>
        <time>2020-06-29T17:54:52Z</time>
      </trkpt>
      <trkpt lat="48.70765" lon="5.60916">
        <ele>238.4</ele>
        <time>2020-06-29T17:54:53Z</time>
      </trkpt>
      <trkpt lat="48.7077" lon="5.60914">
        <ele>238.6</ele>
        <time>2020-06-29T17:54:59Z</time>
      </trkpt>
      <trkpt lat="48.70772" lon="5.60912">
        <ele>238.6</ele>
        <time>2020-06-29T17:55:00Z</time>
      </trkpt>
      <trkpt lat="48.70773" lon="5.60911">
        <ele>238.7</ele>
        <time>2020-06-29T17:55:01Z</time>
      </trkpt>
      <trkpt lat="48.70774" lon="5.60911">
        <ele>238.7</ele>
        <time>2020-06-29T17:55:02Z</time>
      </trkpt>
      <trkpt lat="48.70775" lon="5.60911">
        <ele>238.7</ele>
        <time>2020-06-29T17:55:03Z</time>
      </trkpt>
      <trkpt lat="48.70775" lon="5.6091">
        <ele>238.8</ele>
        <time>2020-06-29T17:55:04Z</time>
      </trkpt>
      <trkpt lat="48.70777" lon="5.6091">
        <ele>238.8</ele>
        <time>2020-06-29T17:55:05Z</time>
      </trkpt>
      <trkpt lat="48.70778" lon="5.6091">
        <ele>238.8</ele>
        <time>2020-06-29T17:55:06Z</time>
      </trkpt>
      <trkpt lat="48.70779" lon="5.6091">
        <ele>238.9</ele>
        <time>2020-06-29T17:55:07Z</time>
      </trkpt>
      <trkpt lat="48.70779" lon="5.6091">
        <ele>238.9</ele>
        <time>2020-06-29T17:55:08Z</time>
      </trkpt>
      <trkpt lat="48.7078" lon="5.6091">
        <ele>238.9</ele>
        <time>2020-06-29T17:55:09Z</time>
      </trkpt>
      <trkpt lat="48.7078" lon="5.60911">
        <ele>238.9</ele>
        <time>2020-06-29T17:55:10Z</time>
      </trkpt>
      <trkpt lat="48.7078" lon="5.60911">
        <ele>238.9</ele>
        <time>2020-06-29T17:55:11Z</time>
      </trkpt>
      <trkpt lat="48.70781" lon="5.60911">
        <ele>238.9</ele>
        <time>2020-06-29T17:55:12Z</time>
      </trkpt>
      <trkpt lat="48.70782" lon="5.60911">
        <ele>238.9</ele>
        <time>2020-06-29T17:55:13Z</time>
      </trkpt>
      <trkpt lat="48.70782" lon="5.6091">
        <ele>239</ele>
        <time>2020-06-29T17:55:14Z</time>
      </trkpt>
      <trkpt lat="48.70783" lon="5.6091">
        <ele>239</ele>
        <time>2020-06-29T17:55:15Z</time>
      </trkpt>
      <trkpt lat="48.70784" lon="5.60909">
        <ele>239</ele>
        <time>2020-06-29T17:55:16Z</time>
      </trkpt>
      <trkpt lat="48.70784" lon="5.60908">
        <ele>239</ele>
        <time>2020-06-29T17:55:17Z</time>
      </trkpt>
      <trkpt lat="48.70786" lon="5.60906">
        <ele>239.1</ele>
        <time>2020-06-29T17:55:18Z</time>
      </trkpt>
      <trkpt lat="48.70786" lon="5.60905">
        <ele>239.1</ele>
        <time>2020-06-29T17:55:19Z</time>
      </trkpt>
      <trkpt lat="48.70786" lon="5.60904">
        <ele>239.1</ele>
        <time>2020-06-29T17:55:20Z</time>
      </trkpt>
      <trkpt lat="48.70786" lon="5.60902">
        <ele>239.1</ele>
        <time>2020-06-29T17:55:21Z</time>
      </trkpt>
      <trkpt lat="48.70786" lon="5.60903">
        <ele>239.1</ele>
        <time>2020-06-29T17:55:22Z</time>
      </trkpt>
      <trkpt lat="48.70786" lon="5.60903">
        <ele>239.1</ele>
        <time>2020-06-29T17:55:23Z</time>
      </trkpt>
      <trkpt lat="48.70785" lon="5.60903">
        <ele>239.1</ele>
        <time>2020-06-29T17:55:24Z</time>
      </trkpt>
      <trkpt lat="48.70785" lon="5.60905">
        <ele>239.1</ele>
        <time>2020-06-29T17:55:25Z</time>
      </trkpt>
      <trkpt lat="48.70785" lon="5.60904">
        <ele>239.2</ele>
        <time>2020-06-29T17:55:26Z</time>
      </trkpt>
      <trkpt lat="48.70785" lon="5.60905">
        <ele>239.2</ele>
        <time>2020-06-29T17:55:27Z</time>
      </trkpt>
      <trkpt lat="48.70784" lon="5.60905">
        <ele>239.2</ele>
        <time>2020-06-29T17:55:28Z</time>
      </trkpt>
      <trkpt lat="48.70784" lon="5.60905">
        <ele>239.2</ele>
        <time>2020-06-29T17:55:29Z</time>
      </trkpt>
      <trkpt lat="48.70784" lon="5.60904">
        <ele>239.2</ele>
        <time>2020-06-29T17:55:30Z</time>
      </trkpt>
      <trkpt lat="48.70784" lon="5.60903">
        <ele>239.2</ele>
        <time>2020-06-29T17:55:31Z</time>
      </trkpt>
      <trkpt lat="48.70784" lon="5.60903">
        <ele>239.2</ele>
        <time>2020-06-29T17:55:32Z</time>
      </trkpt>
      <trkpt lat="48.70784" lon="5.60904">
        <ele>239.2</ele>
        <time>2020-06-29T17:55:33Z</time>
      </trkpt>
      <trkpt lat="48.70784" lon="5.60902">
        <ele>239.2</ele>
        <time>2020-06-29T17:55:34Z</time>
      </trkpt>
      <trkpt lat="48.70784" lon="5.60901">
        <ele>239.2</ele>
        <time>2020-06-29T17:55:35Z</time>
      </trkpt>
      <trkpt lat="48.70784" lon="5.60901">
        <ele>239.2</ele>
        <time>2020-06-29T17:55:36Z</time>
      </trkpt>
      <trkpt lat="48.70783" lon="5.60901">
        <ele>239.2</ele>
        <time>2020-06-29T17:55:37Z</time>
      </trkpt>
      <trkpt lat="48.70783" lon="5.60901">
        <ele>239.2</ele>
        <time>2020-06-29T17:55:38Z</time>
      </trkpt>
      <trkpt lat="48.70783" lon="5.60902">
        <ele>239.2</ele>
        <time>2020-06-29T17:55:39Z</time>
      </trkpt>
      <trkpt lat="48.70782" lon="5.60903">
        <ele>239.2</ele>
        <time>2020-06-29T17:55:40Z</time>
      </trkpt>
      <trkpt lat="48.70782" lon="5.60903">
        <ele>239.2</ele>
        <time>2020-06-29T17:55:41Z</time>
      </trkpt>
      <trkpt lat="48.70782" lon="5.60903">
        <ele>239.2</ele>
        <time>2020-06-29T17:55:42Z</time>
      </trkpt>
      <trkpt lat="48.70782" lon="5.60903">
        <ele>239.3</ele>
        <time>2020-06-29T17:55:43Z</time>
      </trkpt>
      <trkpt lat="48.70781" lon="5.60903">
        <ele>239.3</ele>
        <time>2020-06-29T17:55:44Z</time>
      </trkpt>
      <trkpt lat="48.7078" lon="5.60904">
        <ele>239.3</ele>
        <time>2020-06-29T17:55:45Z</time>
      </trkpt>
      <trkpt lat="48.7078" lon="5.60904">
        <ele>239.3</ele>
        <time>2020-06-29T17:55:46Z</time>
      </trkpt>
      <trkpt lat="48.70779" lon="5.60905">
        <ele>239.3</ele>
        <time>2020-06-29T17:55:47Z</time>
      </trkpt>
      <trkpt lat="48.70779" lon="5.60906">
        <ele>239.3</ele>
        <time>2020-06-29T17:55:48Z</time>
      </trkpt>
      <trkpt lat="48.70777" lon="5.60906">
        <ele>239.3</ele>
        <time>2020-06-29T17:55:49Z</time>
      </trkpt>
      <trkpt lat="48.70777" lon="5.60905">
        <ele>239.3</ele>
        <time>2020-06-29T17:55:50Z</time>
      </trkpt>
      <trkpt lat="48.70776" lon="5.60905">
        <ele>239.3</ele>
        <time>2020-06-29T17:55:51Z</time>
      </trkpt>
      <trkpt lat="48.70776" lon="5.60904">
        <ele>239.3</ele>
        <time>2020-06-29T17:55:52Z</time>
      </trkpt>
      <trkpt lat="48.70775" lon="5.60903">
        <ele>239.3</ele>
        <time>2020-06-29T17:55:53Z</time>
      </trkpt>
      <trkpt lat="48.70774" lon="5.60903">
        <ele>239.3</ele>
        <time>2020-06-29T17:55:54Z</time>
      </trkpt>
      <trkpt lat="48.70774" lon="5.60902">
        <ele>239.3</ele>
        <time>2020-06-29T17:55:55Z</time>
      </trkpt>
      <trkpt lat="48.70773" lon="5.60901">
        <ele>239.3</ele>
        <time>2020-06-29T17:55:56Z</time>
      </trkpt>
      <trkpt lat="48.70773" lon="5.60901">
        <ele>239.4</ele>
        <time>2020-06-29T17:55:57Z</time>
      </trkpt>
      <trkpt lat="48.70772" lon="5.609">
        <ele>239.4</ele>
        <time>2020-06-29T17:55:58Z</time>
      </trkpt>
      <trkpt lat="48.70772" lon="5.609">
        <ele>239.4</ele>
        <time>2020-06-29T17:55:59Z</time>
      </trkpt>
      <trkpt lat="48.70771" lon="5.60899">
        <ele>239.4</ele>
        <time>2020-06-29T17:56:00Z</time>
      </trkpt>
      <trkpt lat="48.7077" lon="5.60898">
        <ele>239.4</ele>
        <time>2020-06-29T17:56:01Z</time>
      </trkpt>
      <trkpt lat="48.7077" lon="5.60898">
        <ele>239.4</ele>
        <time>2020-06-29T17:56:02Z</time>
      </trkpt>
      <trkpt lat="48.70769" lon="5.60897">
        <ele>239.4</ele>
        <time>2020-06-29T17:56:03Z</time>
      </trkpt>
      <trkpt lat="48.70769" lon="5.60897">
        <ele>239.4</ele>
        <time>2020-06-29T17:56:04Z</time>
      </trkpt>
      <trkpt lat="48.70768" lon="5.60896">
        <ele>239.4</ele>
        <time>2020-06-29T18:00:15Z</time>
      </trkpt>
      <trkpt lat="48.70768" lon="5.60895">
        <ele>239.4</ele>
        <time>2020-06-29T18:00:16Z</time>
      </trkpt>
      <trkpt lat="48.70767" lon="5.60895">
        <ele>239.4</ele>
        <time>2020-06-29T18:00:17Z</time>
      </trkpt>
      <trkpt lat="48.70766" lon="5.60893">
        <ele>239.5</ele>
        <time>2020-06-29T18:00:18Z</time>
      </trkpt>
      <trkpt lat="48.70765" lon="5.60891">
        <ele>239.5</ele>
        <time>2020-06-29T18:00:19Z</time>
      </trkpt>
      <trkpt lat="48.70764" lon="5.6089">
        <ele>239.5</ele>
        <time>2020-06-29T18:00:20Z</time>
      </trkpt>
      <trkpt lat="48.70764" lon="5.60887">
        <ele>239.5</ele>
        <time>2020-06-29T18:00:21Z</time>
      </trkpt>
      <trkpt lat="48.70762" lon="5.60883">
        <ele>239.6</ele>
        <time>2020-06-29T18:00:22Z</time>
      </trkpt>
      <trkpt lat="48.70761" lon="5.60881">
        <ele>239.6</ele>
        <time>2020-06-29T18:00:23Z</time>
      </trkpt>
      <trkpt lat="48.70759" lon="5.60877">
        <ele>239.6</ele>
        <time>2020-06-29T18:00:24Z</time>
      </trkpt>
      <trkpt lat="48.70757" lon="5.60873">
        <ele>239.7</ele>
        <time>2020-06-29T18:00:25Z</time>
      </trkpt>
      <trkpt lat="48.70755" lon="5.60869">
        <ele>239.7</ele>
        <time>2020-06-29T18:00:26Z</time>
      </trkpt>
      <trkpt lat="48.70752" lon="5.60863">
        <ele>239.8</ele>
        <time>2020-06-29T18:00:27Z</time>
      </trkpt>
      <trkpt lat="48.70749" lon="5.60858">
        <ele>239.8</ele>
        <time>2020-06-29T18:00:28Z</time>
      </trkpt>
      <trkpt lat="48.70747" lon="5.60854">
        <ele>239.8</ele>
        <time>2020-06-29T18:00:29Z</time>
      </trkpt>
      <trkpt lat="48.70745" lon="5.60851">
        <ele>239.8</ele>
        <time>2020-06-29T18:00:30Z</time>
      </trkpt>
      <trkpt lat="48.70744" lon="5.60848">
        <ele>239.9</ele>
        <time>2020-06-29T18:00:31Z</time>
      </trkpt>
      <trkpt lat="48.70741" lon="5.60845">
        <ele>239.9</ele>
        <time>2020-06-29T18:00:32Z</time>
      </trkpt>
      <trkpt lat="48.70739" lon="5.60841">
        <ele>239.9</ele>
        <time>2020-06-29T18:00:33Z</time>
      </trkpt>
      <trkpt lat="48.70737" lon="5.60836">
        <ele>239.9</ele>
        <time>2020-06-29T18:00:34Z</time>
      </trkpt>
      <trkpt lat="48.70735" lon="5.60832">
        <ele>240</ele>
        <time>2020-06-29T18:00:35Z</time>
      </trkpt>
      <trkpt lat="48.70733" lon="5.60828">
        <ele>240</ele>
        <time>2020-06-29T18:00:36Z</time>
      </trkpt>
      <trkpt lat="48.7073" lon="5.60823">
        <ele>240</ele>
        <time>2020-06-29T18:00:37Z</time>
      </trkpt>
      <trkpt lat="48.70728" lon="5.60819">
        <ele>240.1</ele>
        <time>2020-06-29T18:00:38Z</time>
      </trkpt>
      <trkpt lat="48.70727" lon="5.60814">
        <ele>240.1</ele>
        <time>2020-06-29T18:00:39Z</time>
      </trkpt>
      <trkpt lat="48.70724" lon="5.60812">
        <ele>240.1</ele>
        <time>2020-06-29T18:00:40Z</time>
      </trkpt>
      <trkpt lat="48.70722" lon="5.60809">
        <ele>240.2</ele>
        <time>2020-06-29T18:00:41Z</time>
      </trkpt>
      <trkpt lat="48.70721" lon="5.60803">
        <ele>240.2</ele>
        <time>2020-06-29T18:00:42Z</time>
      </trkpt>
      <trkpt lat="48.70719" lon="5.60799">
        <ele>240.3</ele>
        <time>2020-06-29T18:00:43Z</time>
      </trkpt>
      <trkpt lat="48.70716" lon="5.60796">
        <ele>240.3</ele>
        <time>2020-06-29T18:00:44Z</time>
      </trkpt>
      <trkpt lat="48.70713" lon="5.60791">
        <ele>240.3</ele>
        <time>2020-06-29T18:00:45Z</time>
      </trkpt>
      <trkpt lat="48.70712" lon="5.60788">
        <ele>240.3</ele>
        <time>2020-06-29T18:00:46Z</time>
      </trkpt>
      <trkpt lat="48.70709" lon="5.60783">
        <ele>240.3</ele>
        <time>2020-06-29T18:00:47Z</time>
      </trkpt>
      <trkpt lat="48.70706" lon="5.60777">
        <ele>240.3</ele>
        <time>2020-06-29T18:00:48Z</time>
      </trkpt>
      <trkpt lat="48.70704" lon="5.60773">
        <ele>240.3</ele>
        <time>2020-06-29T18:00:49Z</time>
      </trkpt>
      <trkpt lat="48.70702" lon="5.60767">
        <ele>240.3</ele>
        <time>2020-06-29T18:00:50Z</time>
      </trkpt>
      <trkpt lat="48.707" lon="5.60763">
        <ele>240.3</ele>
        <time>2020-06-29T18:00:51Z</time>
      </trkpt>
      <trkpt lat="48.70698" lon="5.60759">
        <ele>240.4</ele>
        <time>2020-06-29T18:00:52Z</time>
      </trkpt>
      <trkpt lat="48.70695" lon="5.60756">
        <ele>240.4</ele>
        <time>2020-06-29T18:00:53Z</time>
      </trkpt>
      <trkpt lat="48.70692" lon="5.60753">
        <ele>240.4</ele>
        <time>2020-06-29T18:00:54Z</time>
      </trkpt>
      <trkpt lat="48.70689" lon="5.60749">
        <ele>240.4</ele>
        <time>2020-06-29T18:00:55Z</time>
      </trkpt>
      <trkpt lat="48.70687" lon="5.60745">
        <ele>240.5</ele>
        <time>2020-06-29T18:00:56Z</time>
      </trkpt>
      <trkpt lat="48.70684" lon="5.60741">
        <ele>240.5</ele>
        <time>2020-06-29T18:00:57Z</time>
      </trkpt>
      <trkpt lat="48.70681" lon="5.60737">
        <ele>240.5</ele>
        <time>2020-06-29T18:00:58Z</time>
      </trkpt>
      <trkpt lat="48.70678" lon="5.60733">
        <ele>240.6</ele>
        <time>2020-06-29T18:00:59Z</time>
      </trkpt>
      <trkpt lat="48.70676" lon="5.60727">
        <ele>240.6</ele>
        <time>2020-06-29T18:01:00Z</time>
      </trkpt>
      <trkpt lat="48.70673" lon="5.60722">
        <ele>240.6</ele>
        <time>2020-06-29T18:01:01Z</time>
      </trkpt>
      <trkpt lat="48.7067" lon="5.6072">
        <ele>240.7</ele>
        <time>2020-06-29T18:01:02Z</time>
      </trkpt>
      <trkpt lat="48.70667" lon="5.60715">
        <ele>240.8</ele>
        <time>2020-06-29T18:01:03Z</time>
      </trkpt>
      <trkpt lat="48.70664" lon="5.6071">
        <ele>240.9</ele>
        <time>2020-06-29T18:01:04Z</time>
      </trkpt>
      <trkpt lat="48.70662" lon="5.60704">
        <ele>241</ele>
        <time>2020-06-29T18:01:05Z</time>
      </trkpt>
      <trkpt lat="48.70659" lon="5.60701">
        <ele>241</ele>
        <time>2020-06-29T18:01:06Z</time>
      </trkpt>
      <trkpt lat="48.70657" lon="5.60694">
        <ele>241.1</ele>
        <time>2020-06-29T18:01:07Z</time>
      </trkpt>
      <trkpt lat="48.70654" lon="5.60691">
        <ele>241.2</ele>
        <time>2020-06-29T18:01:08Z</time>
      </trkpt>
      <trkpt lat="48.70651" lon="5.60687">
        <ele>241.3</ele>
        <time>2020-06-29T18:01:09Z</time>
      </trkpt>
      <trkpt lat="48.70649" lon="5.60683">
        <ele>241.4</ele>
        <time>2020-06-29T18:01:10Z</time>
      </trkpt>
      <trkpt lat="48.70646" lon="5.60677">
        <ele>241.6</ele>
        <time>2020-06-29T18:01:11Z</time>
      </trkpt>
      <trkpt lat="48.70643" lon="5.60674">
        <ele>241.7</ele>
        <time>2020-06-29T18:01:12Z</time>
      </trkpt>
      <trkpt lat="48.70639" lon="5.6067">
        <ele>241.8</ele>
        <time>2020-06-29T18:01:13Z</time>
      </trkpt>
      <trkpt lat="48.70636" lon="5.60666">
        <ele>241.9</ele>
        <time>2020-06-29T18:01:14Z</time>
      </trkpt>
      <trkpt lat="48.70634" lon="5.60662">
        <ele>242</ele>
        <time>2020-06-29T18:01:15Z</time>
      </trkpt>
      <trkpt lat="48.70632" lon="5.60657">
        <ele>242.1</ele>
        <time>2020-06-29T18:01:16Z</time>
      </trkpt>
      <trkpt lat="48.7063" lon="5.60651">
        <ele>242.2</ele>
        <time>2020-06-29T18:01:17Z</time>
      </trkpt>
      <trkpt lat="48.70627" lon="5.60646">
        <ele>242.4</ele>
        <time>2020-06-29T18:01:18Z</time>
      </trkpt>
      <trkpt lat="48.70626" lon="5.60644">
        <ele>242.4</ele>
        <time>2020-06-29T18:01:19Z</time>
      </trkpt>
      <trkpt lat="48.70624" lon="5.60642">
        <ele>242.5</ele>
        <time>2020-06-29T18:01:20Z</time>
      </trkpt>
      <trkpt lat="48.70622" lon="5.60636">
        <ele>242.6</ele>
        <time>2020-06-29T18:01:21Z</time>
      </trkpt>
      <trkpt lat="48.7062" lon="5.60631">
        <ele>242.7</ele>
        <time>2020-06-29T18:01:22Z</time>
      </trkpt>
      <trkpt lat="48.70618" lon="5.60627">
        <ele>242.7</ele>
        <time>2020-06-29T18:01:23Z</time>
      </trkpt>
      <trkpt lat="48.70615" lon="5.60624">
        <ele>242.8</ele>
        <time>2020-06-29T18:01:24Z</time>
      </trkpt>
      <trkpt lat="48.70612" lon="5.6062">
        <ele>242.9</ele>
        <time>2020-06-29T18:01:25Z</time>
      </trkpt>
      <trkpt lat="48.70609" lon="5.60617">
        <ele>242.9</ele>
        <time>2020-06-29T18:01:26Z</time>
      </trkpt>
      <trkpt lat="48.70607" lon="5.60613">
        <ele>243</ele>
        <time>2020-06-29T18:01:27Z</time>
      </trkpt>
      <trkpt lat="48.70606" lon="5.60608">
        <ele>243</ele>
        <time>2020-06-29T18:01:28Z</time>
      </trkpt>
      <trkpt lat="48.70604" lon="5.60604">
        <ele>243</ele>
        <time>2020-06-29T18:01:29Z</time>
      </trkpt>
      <trkpt lat="48.70601" lon="5.606">
        <ele>243.1</ele>
        <time>2020-06-29T18:01:30Z</time>
      </trkpt>
      <trkpt lat="48.70599" lon="5.60596">
        <ele>243.1</ele>
        <time>2020-06-29T18:01:31Z</time>
      </trkpt>
      <trkpt lat="48.70597" lon="5.60592">
        <ele>243.1</ele>
        <time>2020-06-29T18:01:32Z</time>
      </trkpt>
      <trkpt lat="48.70595" lon="5.60587">
        <ele>243.1</ele>
        <time>2020-06-29T18:01:33Z</time>
      </trkpt>
      <trkpt lat="48.70594" lon="5.60583">
        <ele>243.2</ele>
        <time>2020-06-29T18:01:34Z</time>
      </trkpt>
      <trkpt lat="48.70592" lon="5.60577">
        <ele>243.2</ele>
        <time>2020-06-29T18:01:35Z</time>
      </trkpt>
      <trkpt lat="48.7059" lon="5.60572">
        <ele>243.3</ele>
        <time>2020-06-29T18:01:36Z</time>
      </trkpt>
      <trkpt lat="48.70588" lon="5.60567">
        <ele>243.4</ele>
        <time>2020-06-29T18:01:37Z</time>
      </trkpt>
      <trkpt lat="48.70586" lon="5.60562">
        <ele>243.4</ele>
        <time>2020-06-29T18:01:38Z</time>
      </trkpt>
      <trkpt lat="48.70584" lon="5.60558">
        <ele>243.5</ele>
        <time>2020-06-29T18:01:39Z</time>
      </trkpt>
      <trkpt lat="48.70582" lon="5.60553">
        <ele>243.5</ele>
        <time>2020-06-29T18:01:40Z</time>
      </trkpt>
      <trkpt lat="48.7058" lon="5.60549">
        <ele>243.6</ele>
        <time>2020-06-29T18:01:41Z</time>
      </trkpt>
      <trkpt lat="48.70578" lon="5.60545">
        <ele>243.6</ele>
        <time>2020-06-29T18:01:42Z</time>
      </trkpt>
      <trkpt lat="48.70577" lon="5.60539">
        <ele>243.7</ele>
        <time>2020-06-29T18:01:43Z</time>
      </trkpt>
      <trkpt lat="48.70575" lon="5.60533">
        <ele>243.7</ele>
        <time>2020-06-29T18:01:44Z</time>
      </trkpt>
      <trkpt lat="48.70574" lon="5.60527">
        <ele>243.7</ele>
        <time>2020-06-29T18:01:45Z</time>
      </trkpt>
      <trkpt lat="48.70572" lon="5.60523">
        <ele>243.7</ele>
        <time>2020-06-29T18:01:46Z</time>
      </trkpt>
      <trkpt lat="48.7057" lon="5.60517">
        <ele>243.7</ele>
        <time>2020-06-29T18:01:47Z</time>
      </trkpt>
      <trkpt lat="48.70569" lon="5.60512">
        <ele>243.7</ele>
        <time>2020-06-29T18:01:48Z</time>
      </trkpt>
      <trkpt lat="48.70566" lon="5.60506">
        <ele>243.7</ele>
        <time>2020-06-29T18:01:49Z</time>
      </trkpt>
      <trkpt lat="48.70563" lon="5.60502">
        <ele>243.6</ele>
        <time>2020-06-29T18:01:50Z</time>
      </trkpt>
      <trkpt lat="48.70561" lon="5.60497">
        <ele>243.6</ele>
        <time>2020-06-29T18:01:51Z</time>
      </trkpt>
      <trkpt lat="48.70559" lon="5.60494">
        <ele>243.5</ele>
        <time>2020-06-29T18:01:52Z</time>
      </trkpt>
      <trkpt lat="48.70557" lon="5.60488">
        <ele>243.4</ele>
        <time>2020-06-29T18:01:53Z</time>
      </trkpt>
      <trkpt lat="48.70556" lon="5.60483">
        <ele>243.3</ele>
        <time>2020-06-29T18:01:54Z</time>
      </trkpt>
      <trkpt lat="48.70555" lon="5.60476">
        <ele>243.2</ele>
        <time>2020-06-29T18:01:55Z</time>
      </trkpt>
      <trkpt lat="48.70553" lon="5.60471">
        <ele>243.1</ele>
        <time>2020-06-29T18:01:56Z</time>
      </trkpt>
      <trkpt lat="48.70552" lon="5.60466">
        <ele>243</ele>
        <time>2020-06-29T18:01:57Z</time>
      </trkpt>
      <trkpt lat="48.70551" lon="5.6046">
        <ele>242.9</ele>
        <time>2020-06-29T18:01:58Z</time>
      </trkpt>
      <trkpt lat="48.70549" lon="5.60456">
        <ele>242.9</ele>
        <time>2020-06-29T18:01:59Z</time>
      </trkpt>
      <trkpt lat="48.70547" lon="5.60452">
        <ele>242.9</ele>
        <time>2020-06-29T18:02:00Z</time>
      </trkpt>
      <trkpt lat="48.70546" lon="5.6045">
        <ele>242.9</ele>
        <time>2020-06-29T18:02:01Z</time>
      </trkpt>
      <trkpt lat="48.70545" lon="5.60445">
        <ele>242.9</ele>
        <time>2020-06-29T18:02:02Z</time>
      </trkpt>
      <trkpt lat="48.70543" lon="5.6044">
        <ele>242.9</ele>
        <time>2020-06-29T18:02:03Z</time>
      </trkpt>
      <trkpt lat="48.70542" lon="5.60435">
        <ele>243</ele>
        <time>2020-06-29T18:02:04Z</time>
      </trkpt>
      <trkpt lat="48.7054" lon="5.60431">
        <ele>243</ele>
        <time>2020-06-29T18:02:05Z</time>
      </trkpt>
      <trkpt lat="48.7054" lon="5.60425">
        <ele>243</ele>
        <time>2020-06-29T18:02:06Z</time>
      </trkpt>
      <trkpt lat="48.70539" lon="5.60421">
        <ele>243</ele>
        <time>2020-06-29T18:02:07Z</time>
      </trkpt>
      <trkpt lat="48.70537" lon="5.60415">
        <ele>243</ele>
        <time>2020-06-29T18:02:08Z</time>
      </trkpt>
      <trkpt lat="48.70536" lon="5.60413">
        <ele>243</ele>
        <time>2020-06-29T18:02:09Z</time>
      </trkpt>
      <trkpt lat="48.70535" lon="5.60404">
        <ele>243.1</ele>
        <time>2020-06-29T18:02:10Z</time>
      </trkpt>
      <trkpt lat="48.70534" lon="5.60399">
        <ele>243.1</ele>
        <time>2020-06-29T18:02:11Z</time>
      </trkpt>
      <trkpt lat="48.70533" lon="5.60394">
        <ele>243.1</ele>
        <time>2020-06-29T18:02:12Z</time>
      </trkpt>
      <trkpt lat="48.70531" lon="5.6039">
        <ele>243.1</ele>
        <time>2020-06-29T18:02:13Z</time>
      </trkpt>
      <trkpt lat="48.7053" lon="5.60383">
        <ele>243.2</ele>
        <time>2020-06-29T18:02:14Z</time>
      </trkpt>
      <trkpt lat="48.70528" lon="5.60379">
        <ele>243.2</ele>
        <time>2020-06-29T18:02:15Z</time>
      </trkpt>
      <trkpt lat="48.70526" lon="5.60373">
        <ele>243.2</ele>
        <time>2020-06-29T18:02:16Z</time>
      </trkpt>
      <trkpt lat="48.70525" lon="5.60368">
        <ele>243.2</ele>
        <time>2020-06-29T18:02:17Z</time>
      </trkpt>
      <trkpt lat="48.70524" lon="5.60361">
        <ele>243.2</ele>
        <time>2020-06-29T18:02:18Z</time>
      </trkpt>
      <trkpt lat="48.70522" lon="5.60355">
        <ele>243.2</ele>
        <time>2020-06-29T18:02:19Z</time>
      </trkpt>
      <trkpt lat="48.70521" lon="5.60349">
        <ele>243.2</ele>
        <time>2020-06-29T18:02:20Z</time>
      </trkpt>
      <trkpt lat="48.7052" lon="5.60342">
        <ele>243.2</ele>
        <time>2020-06-29T18:02:21Z</time>
      </trkpt>
      <trkpt lat="48.70518" lon="5.60336">
        <ele>243.2</ele>
        <time>2020-06-29T18:02:22Z</time>
      </trkpt>
      <trkpt lat="48.70517" lon="5.6033">
        <ele>243.3</ele>
        <time>2020-06-29T18:02:23Z</time>
      </trkpt>
      <trkpt lat="48.70516" lon="5.60324">
        <ele>243.3</ele>
        <time>2020-06-29T18:02:24Z</time>
      </trkpt>
      <trkpt lat="48.70514" lon="5.60318">
        <ele>243.3</ele>
        <time>2020-06-29T18:02:25Z</time>
      </trkpt>
      <trkpt lat="48.70512" lon="5.60313">
        <ele>243.3</ele>
        <time>2020-06-29T18:02:26Z</time>
      </trkpt>
      <trkpt lat="48.70511" lon="5.60307">
        <ele>243.3</ele>
        <time>2020-06-29T18:02:27Z</time>
      </trkpt>
      <trkpt lat="48.70508" lon="5.60302">
        <ele>243.4</ele>
        <time>2020-06-29T18:02:28Z</time>
      </trkpt>
      <trkpt lat="48.70507" lon="5.60296">
        <ele>243.4</ele>
        <time>2020-06-29T18:02:29Z</time>
      </trkpt>
      <trkpt lat="48.70506" lon="5.60288">
        <ele>243.4</ele>
        <time>2020-06-29T18:02:30Z</time>
      </trkpt>
      <trkpt lat="48.70503" lon="5.60283">
        <ele>243.4</ele>
        <time>2020-06-29T18:02:31Z</time>
      </trkpt>
      <trkpt lat="48.70501" lon="5.60276">
        <ele>243.4</ele>
        <time>2020-06-29T18:02:32Z</time>
      </trkpt>
      <trkpt lat="48.705" lon="5.60271">
        <ele>243.4</ele>
        <time>2020-06-29T18:02:33Z</time>
      </trkpt>
      <trkpt lat="48.70498" lon="5.60265">
        <ele>243.4</ele>
        <time>2020-06-29T18:02:34Z</time>
      </trkpt>
      <trkpt lat="48.70497" lon="5.60258">
        <ele>243.5</ele>
        <time>2020-06-29T18:02:35Z</time>
      </trkpt>
      <trkpt lat="48.70496" lon="5.60251">
        <ele>243.5</ele>
        <time>2020-06-29T18:02:36Z</time>
      </trkpt>
      <trkpt lat="48.70494" lon="5.60245">
        <ele>243.5</ele>
        <time>2020-06-29T18:02:37Z</time>
      </trkpt>
      <trkpt lat="48.70492" lon="5.6024">
        <ele>243.6</ele>
        <time>2020-06-29T18:02:38Z</time>
      </trkpt>
      <trkpt lat="48.70491" lon="5.60234">
        <ele>243.6</ele>
        <time>2020-06-29T18:02:39Z</time>
      </trkpt>
      <trkpt lat="48.7049" lon="5.60228">
        <ele>243.6</ele>
        <time>2020-06-29T18:02:40Z</time>
      </trkpt>
      <trkpt lat="48.70488" lon="5.60223">
        <ele>243.7</ele>
        <time>2020-06-29T18:02:41Z</time>
      </trkpt>
      <trkpt lat="48.70487" lon="5.60218">
        <ele>243.7</ele>
        <time>2020-06-29T18:02:42Z</time>
      </trkpt>
      <trkpt lat="48.70485" lon="5.60213">
        <ele>243.8</ele>
        <time>2020-06-29T18:02:43Z</time>
      </trkpt>
      <trkpt lat="48.70483" lon="5.60208">
        <ele>243.8</ele>
        <time>2020-06-29T18:02:44Z</time>
      </trkpt>
      <trkpt lat="48.70482" lon="5.60202">
        <ele>243.8</ele>
        <time>2020-06-29T18:02:45Z</time>
      </trkpt>
      <trkpt lat="48.7048" lon="5.60197">
        <ele>243.8</ele>
        <time>2020-06-29T18:02:46Z</time>
      </trkpt>
      <trkpt lat="48.70479" lon="5.6019">
        <ele>243.9</ele>
        <time>2020-06-29T18:02:47Z</time>
      </trkpt>
      <trkpt lat="48.70477" lon="5.60184">
        <ele>243.9</ele>
        <time>2020-06-29T18:02:48Z</time>
      </trkpt>
      <trkpt lat="48.70475" lon="5.60177">
        <ele>244</ele>
        <time>2020-06-29T18:02:49Z</time>
      </trkpt>
      <trkpt lat="48.70473" lon="5.60171">
        <ele>244</ele>
        <time>2020-06-29T18:02:50Z</time>
      </trkpt>
      <trkpt lat="48.70471" lon="5.60166">
        <ele>244</ele>
        <time>2020-06-29T18:02:51Z</time>
      </trkpt>
      <trkpt lat="48.7047" lon="5.60158">
        <ele>244.1</ele>
        <time>2020-06-29T18:02:52Z</time>
      </trkpt>
      <trkpt lat="48.70469" lon="5.60152">
        <ele>244.1</ele>
        <time>2020-06-29T18:02:53Z</time>
      </trkpt>
      <trkpt lat="48.70467" lon="5.60146">
        <ele>244.2</ele>
        <time>2020-06-29T18:02:54Z</time>
      </trkpt>
      <trkpt lat="48.70465" lon="5.60138">
        <ele>244.2</ele>
        <time>2020-06-29T18:02:55Z</time>
      </trkpt>
      <trkpt lat="48.70463" lon="5.60133">
        <ele>244.3</ele>
        <time>2020-06-29T18:02:56Z</time>
      </trkpt>
      <trkpt lat="48.70461" lon="5.60126">
        <ele>244.3</ele>
        <time>2020-06-29T18:02:57Z</time>
      </trkpt>
      <trkpt lat="48.70459" lon="5.60119">
        <ele>244.4</ele>
        <time>2020-06-29T18:02:58Z</time>
      </trkpt>
      <trkpt lat="48.70458" lon="5.60113">
        <ele>244.5</ele>
        <time>2020-06-29T18:02:59Z</time>
      </trkpt>
      <trkpt lat="48.70456" lon="5.60106">
        <ele>244.5</ele>
        <time>2020-06-29T18:03:00Z</time>
      </trkpt>
      <trkpt lat="48.70455" lon="5.60099">
        <ele>244.6</ele>
        <time>2020-06-29T18:03:01Z</time>
      </trkpt>
      <trkpt lat="48.70453" lon="5.60094">
        <ele>244.6</ele>
        <time>2020-06-29T18:03:02Z</time>
      </trkpt>
      <trkpt lat="48.70451" lon="5.60087">
        <ele>244.7</ele>
        <time>2020-06-29T18:03:03Z</time>
      </trkpt>
      <trkpt lat="48.70449" lon="5.60081">
        <ele>244.8</ele>
        <time>2020-06-29T18:03:04Z</time>
      </trkpt>
      <trkpt lat="48.70448" lon="5.60075">
        <ele>244.8</ele>
        <time>2020-06-29T18:03:05Z</time>
      </trkpt>
      <trkpt lat="48.70446" lon="5.6007">
        <ele>244.9</ele>
        <time>2020-06-29T18:03:06Z</time>
      </trkpt>
      <trkpt lat="48.70444" lon="5.60065">
        <ele>244.9</ele>
        <time>2020-06-29T18:03:07Z</time>
      </trkpt>
      <trkpt lat="48.70441" lon="5.60061">
        <ele>245</ele>
        <time>2020-06-29T18:03:08Z</time>
      </trkpt>
      <trkpt lat="48.70439" lon="5.60056">
        <ele>245</ele>
        <time>2020-06-29T18:03:09Z</time>
      </trkpt>
      <trkpt lat="48.70437" lon="5.60048">
        <ele>245.1</ele>
        <time>2020-06-29T18:03:10Z</time>
      </trkpt>
      <trkpt lat="48.70436" lon="5.60043">
        <ele>245.2</ele>
        <time>2020-06-29T18:03:11Z</time>
      </trkpt>
      <trkpt lat="48.70433" lon="5.60039">
        <ele>245.3</ele>
        <time>2020-06-29T18:03:12Z</time>
      </trkpt>
      <trkpt lat="48.70432" lon="5.60033">
        <ele>245.4</ele>
        <time>2020-06-29T18:03:13Z</time>
      </trkpt>
      <trkpt lat="48.70431" lon="5.60026">
        <ele>245.5</ele>
        <time>2020-06-29T18:03:14Z</time>
      </trkpt>
      <trkpt lat="48.70429" lon="5.60021">
        <ele>245.5</ele>
        <time>2020-06-29T18:03:15Z</time>
      </trkpt>
      <trkpt lat="48.70427" lon="5.60016">
        <ele>245.6</ele>
        <time>2020-06-29T18:03:16Z</time>
      </trkpt>
      <trkpt lat="48.70425" lon="5.60011">
        <ele>245.7</ele>
        <time>2020-06-29T18:03:17Z</time>
      </trkpt>
      <trkpt lat="48.70423" lon="5.60006">
        <ele>245.8</ele>
        <time>2020-06-29T18:03:18Z</time>
      </trkpt>
      <trkpt lat="48.70422" lon="5.6">
        <ele>245.9</ele>
        <time>2020-06-29T18:03:19Z</time>
      </trkpt>
      <trkpt lat="48.7042" lon="5.59994">
        <ele>246.1</ele>
        <time>2020-06-29T18:03:20Z</time>
      </trkpt>
      <trkpt lat="48.70418" lon="5.59989">
        <ele>246.2</ele>
        <time>2020-06-29T18:03:21Z</time>
      </trkpt>
      <trkpt lat="48.70417" lon="5.59981">
        <ele>246.3</ele>
        <time>2020-06-29T18:03:22Z</time>
      </trkpt>
      <trkpt lat="48.70415" lon="5.59977">
        <ele>246.4</ele>
        <time>2020-06-29T18:03:23Z</time>
      </trkpt>
      <trkpt lat="48.70413" lon="5.59971">
        <ele>246.4</ele>
        <time>2020-06-29T18:03:24Z</time>
      </trkpt>
      <trkpt lat="48.7041" lon="5.59965">
        <ele>246.5</ele>
        <time>2020-06-29T18:03:25Z</time>
      </trkpt>
      <trkpt lat="48.70408" lon="5.5996">
        <ele>246.6</ele>
        <time>2020-06-29T18:03:26Z</time>
      </trkpt>
      <trkpt lat="48.70406" lon="5.59957">
        <ele>246.7</ele>
        <time>2020-06-29T18:03:27Z</time>
      </trkpt>
      <trkpt lat="48.70404" lon="5.59952">
        <ele>246.7</ele>
        <time>2020-06-29T18:03:28Z</time>
      </trkpt>
      <trkpt lat="48.70402" lon="5.59946">
        <ele>246.8</ele>
        <time>2020-06-29T18:03:29Z</time>
      </trkpt>
      <trkpt lat="48.704" lon="5.59942">
        <ele>246.9</ele>
        <time>2020-06-29T18:03:30Z</time>
      </trkpt>
      <trkpt lat="48.70398" lon="5.59938">
        <ele>246.9</ele>
        <time>2020-06-29T18:03:31Z</time>
      </trkpt>
      <trkpt lat="48.70397" lon="5.59934">
        <ele>247</ele>
        <time>2020-06-29T18:03:32Z</time>
      </trkpt>
      <trkpt lat="48.70394" lon="5.59931">
        <ele>247.1</ele>
        <time>2020-06-29T18:03:33Z</time>
      </trkpt>
      <trkpt lat="48.70394" lon="5.5993">
        <ele>247.1</ele>
        <time>2020-06-29T18:03:34Z</time>
      </trkpt>
      <trkpt lat="48.70393" lon="5.59929">
        <ele>247.1</ele>
        <time>2020-06-29T18:03:35Z</time>
      </trkpt>
      <trkpt lat="48.70393" lon="5.59928">
        <ele>247.1</ele>
        <time>2020-06-29T18:03:36Z</time>
      </trkpt>
      <trkpt lat="48.70393" lon="5.59927">
        <ele>247.1</ele>
        <time>2020-06-29T18:03:37Z</time>
      </trkpt>
      <trkpt lat="48.70393" lon="5.59926">
        <ele>247.1</ele>
        <time>2020-06-29T18:03:38Z</time>
      </trkpt>
      <trkpt lat="48.70393" lon="5.59925">
        <ele>247.1</ele>
        <time>2020-06-29T18:03:39Z</time>
      </trkpt>
      <trkpt lat="48.70393" lon="5.59924">
        <ele>247.2</ele>
        <time>2020-06-29T18:03:40Z</time>
      </trkpt>
      <trkpt lat="48.70392" lon="5.59923">
        <ele>247.2</ele>
        <time>2020-06-29T18:03:41Z</time>
      </trkpt>
      <trkpt lat="48.70392" lon="5.59923">
        <ele>247.2</ele>
        <time>2020-06-29T18:03:42Z</time>
      </trkpt>
      <trkpt lat="48.70392" lon="5.59922">
        <ele>247.2</ele>
        <time>2020-06-29T18:03:43Z</time>
      </trkpt>
      <trkpt lat="48.70392" lon="5.59921">
        <ele>247.2</ele>
        <time>2020-06-29T18:03:44Z</time>
      </trkpt>
      <trkpt lat="48.70392" lon="5.5992">
        <ele>247.2</ele>
        <time>2020-06-29T18:03:45Z</time>
      </trkpt>
      <trkpt lat="48.70392" lon="5.59919">
        <ele>247.2</ele>
        <time>2020-06-29T18:05:46Z</time>
      </trkpt>
      <trkpt lat="48.70392" lon="5.59918">
        <ele>247.2</ele>
        <time>2020-06-29T18:05:47Z</time>
      </trkpt>
      <trkpt lat="48.70392" lon="5.59918">
        <ele>247.2</ele>
        <time>2020-06-29T18:05:48Z</time>
      </trkpt>
      <trkpt lat="48.7039" lon="5.59913">
        <ele>247.3</ele>
        <time>2020-06-29T18:05:49Z</time>
      </trkpt>
      <trkpt lat="48.7039" lon="5.59911">
        <ele>247.3</ele>
        <time>2020-06-29T18:05:50Z</time>
      </trkpt>
      <trkpt lat="48.70387" lon="5.59909">
        <ele>247.4</ele>
        <time>2020-06-29T18:05:51Z</time>
      </trkpt>
      <trkpt lat="48.70385" lon="5.59902">
        <ele>247.4</ele>
        <time>2020-06-29T18:05:52Z</time>
      </trkpt>
      <trkpt lat="48.70383" lon="5.59898">
        <ele>247.5</ele>
        <time>2020-06-29T18:05:53Z</time>
      </trkpt>
      <trkpt lat="48.70381" lon="5.59894">
        <ele>247.5</ele>
        <time>2020-06-29T18:05:54Z</time>
      </trkpt>
      <trkpt lat="48.70379" lon="5.5989">
        <ele>247.6</ele>
        <time>2020-06-29T18:05:55Z</time>
      </trkpt>
      <trkpt lat="48.70377" lon="5.59887">
        <ele>247.6</ele>
        <time>2020-06-29T18:05:56Z</time>
      </trkpt>
      <trkpt lat="48.70375" lon="5.59883">
        <ele>247.7</ele>
        <time>2020-06-29T18:05:57Z</time>
      </trkpt>
      <trkpt lat="48.70373" lon="5.59879">
        <ele>247.7</ele>
        <time>2020-06-29T18:05:58Z</time>
      </trkpt>
      <trkpt lat="48.70372" lon="5.59873">
        <ele>247.7</ele>
        <time>2020-06-29T18:05:59Z</time>
      </trkpt>
      <trkpt lat="48.7037" lon="5.59868">
        <ele>247.7</ele>
        <time>2020-06-29T18:06:00Z</time>
      </trkpt>
      <trkpt lat="48.70369" lon="5.59864">
        <ele>247.8</ele>
        <time>2020-06-29T18:06:01Z</time>
      </trkpt>
      <trkpt lat="48.70366" lon="5.59861">
        <ele>247.8</ele>
        <time>2020-06-29T18:06:02Z</time>
      </trkpt>
      <trkpt lat="48.70365" lon="5.59857">
        <ele>247.8</ele>
        <time>2020-06-29T18:06:03Z</time>
      </trkpt>
      <trkpt lat="48.70363" lon="5.59853">
        <ele>247.9</ele>
        <time>2020-06-29T18:06:04Z</time>
      </trkpt>
      <trkpt lat="48.70362" lon="5.59846">
        <ele>247.9</ele>
        <time>2020-06-29T18:06:05Z</time>
      </trkpt>
      <trkpt lat="48.7036" lon="5.59841">
        <ele>248</ele>
        <time>2020-06-29T18:06:06Z</time>
      </trkpt>
      <trkpt lat="48.70358" lon="5.59835">
        <ele>248.1</ele>
        <time>2020-06-29T18:06:07Z</time>
      </trkpt>
      <trkpt lat="48.70357" lon="5.59832">
        <ele>248.1</ele>
        <time>2020-06-29T18:06:08Z</time>
      </trkpt>
      <trkpt lat="48.70355" lon="5.59828">
        <ele>248.1</ele>
        <time>2020-06-29T18:06:09Z</time>
      </trkpt>
      <trkpt lat="48.70353" lon="5.59823">
        <ele>248.2</ele>
        <time>2020-06-29T18:06:10Z</time>
      </trkpt>
      <trkpt lat="48.70351" lon="5.59816">
        <ele>248.3</ele>
        <time>2020-06-29T18:06:11Z</time>
      </trkpt>
      <trkpt lat="48.70348" lon="5.5981">
        <ele>248.4</ele>
        <time>2020-06-29T18:06:12Z</time>
      </trkpt>
      <trkpt lat="48.70346" lon="5.59805">
        <ele>248.4</ele>
        <time>2020-06-29T18:06:13Z</time>
      </trkpt>
      <trkpt lat="48.70345" lon="5.59799">
        <ele>248.5</ele>
        <time>2020-06-29T18:06:14Z</time>
      </trkpt>
      <trkpt lat="48.70343" lon="5.59794">
        <ele>248.6</ele>
        <time>2020-06-29T18:06:15Z</time>
      </trkpt>
      <trkpt lat="48.70342" lon="5.59789">
        <ele>248.6</ele>
        <time>2020-06-29T18:06:16Z</time>
      </trkpt>
      <trkpt lat="48.70339" lon="5.59784">
        <ele>248.7</ele>
        <time>2020-06-29T18:06:17Z</time>
      </trkpt>
      <trkpt lat="48.70338" lon="5.59782">
        <ele>248.7</ele>
        <time>2020-06-29T18:06:18Z</time>
      </trkpt>
      <trkpt lat="48.70337" lon="5.59776">
        <ele>248.8</ele>
        <time>2020-06-29T18:06:19Z</time>
      </trkpt>
      <trkpt lat="48.70336" lon="5.59771">
        <ele>248.9</ele>
        <time>2020-06-29T18:06:20Z</time>
      </trkpt>
      <trkpt lat="48.70334" lon="5.59766">
        <ele>249</ele>
        <time>2020-06-29T18:06:21Z</time>
      </trkpt>
      <trkpt lat="48.70333" lon="5.59761">
        <ele>249.1</ele>
        <time>2020-06-29T18:06:22Z</time>
      </trkpt>
      <trkpt lat="48.70332" lon="5.59756">
        <ele>249.1</ele>
        <time>2020-06-29T18:06:23Z</time>
      </trkpt>
      <trkpt lat="48.70331" lon="5.5975">
        <ele>249.2</ele>
        <time>2020-06-29T18:06:24Z</time>
      </trkpt>
      <trkpt lat="48.70329" lon="5.59745">
        <ele>249.3</ele>
        <time>2020-06-29T18:06:25Z</time>
      </trkpt>
      <trkpt lat="48.70328" lon="5.59738">
        <ele>249.4</ele>
        <time>2020-06-29T18:06:26Z</time>
      </trkpt>
      <trkpt lat="48.70326" lon="5.59734">
        <ele>249.4</ele>
        <time>2020-06-29T18:06:27Z</time>
      </trkpt>
      <trkpt lat="48.70326" lon="5.59728">
        <ele>249.5</ele>
        <time>2020-06-29T18:06:28Z</time>
      </trkpt>
      <trkpt lat="48.70324" lon="5.59723">
        <ele>249.6</ele>
        <time>2020-06-29T18:06:29Z</time>
      </trkpt>
      <trkpt lat="48.70323" lon="5.59718">
        <ele>249.6</ele>
        <time>2020-06-29T18:06:30Z</time>
      </trkpt>
      <trkpt lat="48.70321" lon="5.59712">
        <ele>249.8</ele>
        <time>2020-06-29T18:06:31Z</time>
      </trkpt>
      <trkpt lat="48.7032" lon="5.59706">
        <ele>249.9</ele>
        <time>2020-06-29T18:06:32Z</time>
      </trkpt>
      <trkpt lat="48.70318" lon="5.597">
        <ele>250</ele>
        <time>2020-06-29T18:06:33Z</time>
      </trkpt>
      <trkpt lat="48.70317" lon="5.59693">
        <ele>250.1</ele>
        <time>2020-06-29T18:06:34Z</time>
      </trkpt>
      <trkpt lat="48.70316" lon="5.59688">
        <ele>250.1</ele>
        <time>2020-06-29T18:06:35Z</time>
      </trkpt>
      <trkpt lat="48.70314" lon="5.59683">
        <ele>250.2</ele>
        <time>2020-06-29T18:06:36Z</time>
      </trkpt>
      <trkpt lat="48.70313" lon="5.59678">
        <ele>250.3</ele>
        <time>2020-06-29T18:06:37Z</time>
      </trkpt>
      <trkpt lat="48.70311" lon="5.59673">
        <ele>250.3</ele>
        <time>2020-06-29T18:06:38Z</time>
      </trkpt>
      <trkpt lat="48.7031" lon="5.59667">
        <ele>250.4</ele>
        <time>2020-06-29T18:06:39Z</time>
      </trkpt>
      <trkpt lat="48.7031" lon="5.59661">
        <ele>250.5</ele>
        <time>2020-06-29T18:06:40Z</time>
      </trkpt>
      <trkpt lat="48.7031" lon="5.59655">
        <ele>250.5</ele>
        <time>2020-06-29T18:06:41Z</time>
      </trkpt>
      <trkpt lat="48.70309" lon="5.59648">
        <ele>250.6</ele>
        <time>2020-06-29T18:06:42Z</time>
      </trkpt>
      <trkpt lat="48.70308" lon="5.59642">
        <ele>250.6</ele>
        <time>2020-06-29T18:06:43Z</time>
      </trkpt>
      <trkpt lat="48.70306" lon="5.59636">
        <ele>250.7</ele>
        <time>2020-06-29T18:06:44Z</time>
      </trkpt>
      <trkpt lat="48.70304" lon="5.5963">
        <ele>250.7</ele>
        <time>2020-06-29T18:06:45Z</time>
      </trkpt>
      <trkpt lat="48.70303" lon="5.59624">
        <ele>250.8</ele>
        <time>2020-06-29T18:06:46Z</time>
      </trkpt>
      <trkpt lat="48.70302" lon="5.59618">
        <ele>250.8</ele>
        <time>2020-06-29T18:06:47Z</time>
      </trkpt>
      <trkpt lat="48.70301" lon="5.59611">
        <ele>250.8</ele>
        <time>2020-06-29T18:06:48Z</time>
      </trkpt>
      <trkpt lat="48.70299" lon="5.59606">
        <ele>250.9</ele>
        <time>2020-06-29T18:06:49Z</time>
      </trkpt>
      <trkpt lat="48.70298" lon="5.596">
        <ele>250.9</ele>
        <time>2020-06-29T18:06:50Z</time>
      </trkpt>
      <trkpt lat="48.70297" lon="5.59594">
        <ele>250.9</ele>
        <time>2020-06-29T18:06:51Z</time>
      </trkpt>
      <trkpt lat="48.70296" lon="5.59588">
        <ele>250.9</ele>
        <time>2020-06-29T18:06:52Z</time>
      </trkpt>
      <trkpt lat="48.70295" lon="5.5958">
        <ele>251</ele>
        <time>2020-06-29T18:06:53Z</time>
      </trkpt>
      <trkpt lat="48.70293" lon="5.59575">
        <ele>251</ele>
        <time>2020-06-29T18:06:54Z</time>
      </trkpt>
      <trkpt lat="48.70293" lon="5.59569">
        <ele>251</ele>
        <time>2020-06-29T18:06:55Z</time>
      </trkpt>
      <trkpt lat="48.70291" lon="5.59563">
        <ele>251</ele>
        <time>2020-06-29T18:06:56Z</time>
      </trkpt>
      <trkpt lat="48.70291" lon="5.59556">
        <ele>251.1</ele>
        <time>2020-06-29T18:06:57Z</time>
      </trkpt>
      <trkpt lat="48.7029" lon="5.5955">
        <ele>251.1</ele>
        <time>2020-06-29T18:06:58Z</time>
      </trkpt>
      <trkpt lat="48.70289" lon="5.59543">
        <ele>251.1</ele>
        <time>2020-06-29T18:06:59Z</time>
      </trkpt>
      <trkpt lat="48.70289" lon="5.59538">
        <ele>251.2</ele>
        <time>2020-06-29T18:07:00Z</time>
      </trkpt>
      <trkpt lat="48.70288" lon="5.59531">
        <ele>251.2</ele>
        <time>2020-06-29T18:07:01Z</time>
      </trkpt>
      <trkpt lat="48.70286" lon="5.59525">
        <ele>251.3</ele>
        <time>2020-06-29T18:07:02Z</time>
      </trkpt>
      <trkpt lat="48.70285" lon="5.59519">
        <ele>251.3</ele>
        <time>2020-06-29T18:07:03Z</time>
      </trkpt>
      <trkpt lat="48.70284" lon="5.59513">
        <ele>251.4</ele>
        <time>2020-06-29T18:07:04Z</time>
      </trkpt>
      <trkpt lat="48.70284" lon="5.59506">
        <ele>251.4</ele>
        <time>2020-06-29T18:07:05Z</time>
      </trkpt>
      <trkpt lat="48.70283" lon="5.595">
        <ele>251.4</ele>
        <time>2020-06-29T18:07:06Z</time>
      </trkpt>
      <trkpt lat="48.70283" lon="5.59494">
        <ele>251.4</ele>
        <time>2020-06-29T18:07:07Z</time>
      </trkpt>
      <trkpt lat="48.70283" lon="5.59486">
        <ele>251.5</ele>
        <time>2020-06-29T18:07:08Z</time>
      </trkpt>
      <trkpt lat="48.70282" lon="5.59478">
        <ele>251.5</ele>
        <time>2020-06-29T18:07:09Z</time>
      </trkpt>
      <trkpt lat="48.70281" lon="5.59472">
        <ele>251.5</ele>
        <time>2020-06-29T18:07:10Z</time>
      </trkpt>
      <trkpt lat="48.7028" lon="5.59464">
        <ele>251.6</ele>
        <time>2020-06-29T18:07:11Z</time>
      </trkpt>
      <trkpt lat="48.70279" lon="5.59459">
        <ele>251.7</ele>
        <time>2020-06-29T18:07:12Z</time>
      </trkpt>
      <trkpt lat="48.70278" lon="5.59453">
        <ele>251.7</ele>
        <time>2020-06-29T18:07:13Z</time>
      </trkpt>
      <trkpt lat="48.70277" lon="5.59446">
        <ele>251.8</ele>
        <time>2020-06-29T18:07:14Z</time>
      </trkpt>
      <trkpt lat="48.70276" lon="5.59439">
        <ele>251.9</ele>
        <time>2020-06-29T18:07:15Z</time>
      </trkpt>
      <trkpt lat="48.70275" lon="5.59433">
        <ele>252</ele>
        <time>2020-06-29T18:07:16Z</time>
      </trkpt>
      <trkpt lat="48.70275" lon="5.59426">
        <ele>252</ele>
        <time>2020-06-29T18:07:17Z</time>
      </trkpt>
      <trkpt lat="48.70275" lon="5.59421">
        <ele>252.1</ele>
        <time>2020-06-29T18:07:18Z</time>
      </trkpt>
      <trkpt lat="48.70275" lon="5.59414">
        <ele>252.2</ele>
        <time>2020-06-29T18:07:19Z</time>
      </trkpt>
      <trkpt lat="48.70275" lon="5.59407">
        <ele>252.3</ele>
        <time>2020-06-29T18:07:20Z</time>
      </trkpt>
      <trkpt lat="48.70274" lon="5.59401">
        <ele>252.4</ele>
        <time>2020-06-29T18:07:21Z</time>
      </trkpt>
      <trkpt lat="48.70274" lon="5.59395">
        <ele>252.6</ele>
        <time>2020-06-29T18:07:22Z</time>
      </trkpt>
      <trkpt lat="48.70275" lon="5.59388">
        <ele>252.7</ele>
        <time>2020-06-29T18:07:23Z</time>
      </trkpt>
      <trkpt lat="48.70276" lon="5.59382">
        <ele>252.8</ele>
        <time>2020-06-29T18:07:24Z</time>
      </trkpt>
      <trkpt lat="48.70276" lon="5.59377">
        <ele>252.9</ele>
        <time>2020-06-29T18:07:25Z</time>
      </trkpt>
      <trkpt lat="48.70277" lon="5.59371">
        <ele>253</ele>
        <time>2020-06-29T18:07:26Z</time>
      </trkpt>
      <trkpt lat="48.70278" lon="5.59364">
        <ele>253.1</ele>
        <time>2020-06-29T18:07:27Z</time>
      </trkpt>
      <trkpt lat="48.70279" lon="5.59358">
        <ele>253.1</ele>
        <time>2020-06-29T18:07:28Z</time>
      </trkpt>
      <trkpt lat="48.7028" lon="5.5935">
        <ele>253.2</ele>
        <time>2020-06-29T18:07:29Z</time>
      </trkpt>
      <trkpt lat="48.7028" lon="5.59344">
        <ele>253.3</ele>
        <time>2020-06-29T18:07:30Z</time>
      </trkpt>
      <trkpt lat="48.70281" lon="5.59338">
        <ele>253.4</ele>
        <time>2020-06-29T18:07:31Z</time>
      </trkpt>
      <trkpt lat="48.70282" lon="5.59332">
        <ele>253.5</ele>
        <time>2020-06-29T18:07:32Z</time>
      </trkpt>
      <trkpt lat="48.70283" lon="5.59326">
        <ele>253.6</ele>
        <time>2020-06-29T18:07:33Z</time>
      </trkpt>
      <trkpt lat="48.70284" lon="5.59321">
        <ele>253.8</ele>
        <time>2020-06-29T18:07:34Z</time>
      </trkpt>
      <trkpt lat="48.70286" lon="5.59315">
        <ele>253.9</ele>
        <time>2020-06-29T18:07:35Z</time>
      </trkpt>
      <trkpt lat="48.70288" lon="5.59308">
        <ele>254.1</ele>
        <time>2020-06-29T18:07:36Z</time>
      </trkpt>
      <trkpt lat="48.7029" lon="5.59301">
        <ele>254.3</ele>
        <time>2020-06-29T18:07:37Z</time>
      </trkpt>
      <trkpt lat="48.70291" lon="5.59295">
        <ele>254.4</ele>
        <time>2020-06-29T18:07:38Z</time>
      </trkpt>
      <trkpt lat="48.70293" lon="5.59289">
        <ele>254.6</ele>
        <time>2020-06-29T18:07:39Z</time>
      </trkpt>
      <trkpt lat="48.70293" lon="5.59284">
        <ele>254.7</ele>
        <time>2020-06-29T18:07:40Z</time>
      </trkpt>
      <trkpt lat="48.70295" lon="5.59279">
        <ele>254.9</ele>
        <time>2020-06-29T18:07:41Z</time>
      </trkpt>
      <trkpt lat="48.70295" lon="5.59275">
        <ele>255</ele>
        <time>2020-06-29T18:07:42Z</time>
      </trkpt>
      <trkpt lat="48.70296" lon="5.5927">
        <ele>255.1</ele>
        <time>2020-06-29T18:07:43Z</time>
      </trkpt>
      <trkpt lat="48.70297" lon="5.59265">
        <ele>255.3</ele>
        <time>2020-06-29T18:07:44Z</time>
      </trkpt>
      <trkpt lat="48.70297" lon="5.59259">
        <ele>255.5</ele>
        <time>2020-06-29T18:07:45Z</time>
      </trkpt>
      <trkpt lat="48.70298" lon="5.59254">
        <ele>255.7</ele>
        <time>2020-06-29T18:07:46Z</time>
      </trkpt>
      <trkpt lat="48.70299" lon="5.59249">
        <ele>255.8</ele>
        <time>2020-06-29T18:07:47Z</time>
      </trkpt>
      <trkpt lat="48.70301" lon="5.59244">
        <ele>256</ele>
        <time>2020-06-29T18:07:48Z</time>
      </trkpt>
      <trkpt lat="48.70302" lon="5.59238">
        <ele>256.1</ele>
        <time>2020-06-29T18:07:49Z</time>
      </trkpt>
      <trkpt lat="48.70304" lon="5.59233">
        <ele>256.3</ele>
        <time>2020-06-29T18:07:50Z</time>
      </trkpt>
      <trkpt lat="48.70305" lon="5.59228">
        <ele>256.4</ele>
        <time>2020-06-29T18:07:51Z</time>
      </trkpt>
      <trkpt lat="48.70307" lon="5.59223">
        <ele>256.5</ele>
        <time>2020-06-29T18:07:52Z</time>
      </trkpt>
      <trkpt lat="48.70308" lon="5.59216">
        <ele>256.6</ele>
        <time>2020-06-29T18:07:53Z</time>
      </trkpt>
      <trkpt lat="48.7031" lon="5.59211">
        <ele>256.6</ele>
        <time>2020-06-29T18:07:54Z</time>
      </trkpt>
      <trkpt lat="48.70312" lon="5.59205">
        <ele>256.6</ele>
        <time>2020-06-29T18:07:55Z</time>
      </trkpt>
      <trkpt lat="48.70313" lon="5.59199">
        <ele>256.6</ele>
        <time>2020-06-29T18:07:56Z</time>
      </trkpt>
      <trkpt lat="48.70315" lon="5.59193">
        <ele>256.6</ele>
        <time>2020-06-29T18:07:57Z</time>
      </trkpt>
      <trkpt lat="48.70316" lon="5.59188">
        <ele>256.6</ele>
        <time>2020-06-29T18:07:58Z</time>
      </trkpt>
      <trkpt lat="48.70316" lon="5.59181">
        <ele>256.7</ele>
        <time>2020-06-29T18:07:59Z</time>
      </trkpt>
      <trkpt lat="48.70317" lon="5.59174">
        <ele>256.7</ele>
        <time>2020-06-29T18:08:00Z</time>
      </trkpt>
      <trkpt lat="48.70318" lon="5.59166">
        <ele>256.7</ele>
        <time>2020-06-29T18:08:01Z</time>
      </trkpt>
      <trkpt lat="48.70319" lon="5.59159">
        <ele>256.8</ele>
        <time>2020-06-29T18:08:02Z</time>
      </trkpt>
      <trkpt lat="48.7032" lon="5.59153">
        <ele>256.8</ele>
        <time>2020-06-29T18:08:03Z</time>
      </trkpt>
      <trkpt lat="48.70322" lon="5.59147">
        <ele>256.9</ele>
        <time>2020-06-29T18:08:04Z</time>
      </trkpt>
      <trkpt lat="48.70323" lon="5.59141">
        <ele>256.9</ele>
        <time>2020-06-29T18:08:05Z</time>
      </trkpt>
      <trkpt lat="48.70325" lon="5.59134">
        <ele>256.9</ele>
        <time>2020-06-29T18:08:06Z</time>
      </trkpt>
      <trkpt lat="48.70326" lon="5.59128">
        <ele>257</ele>
        <time>2020-06-29T18:08:07Z</time>
      </trkpt>
      <trkpt lat="48.70326" lon="5.59123">
        <ele>257</ele>
        <time>2020-06-29T18:08:08Z</time>
      </trkpt>
      <trkpt lat="48.70328" lon="5.59116">
        <ele>257.1</ele>
        <time>2020-06-29T18:08:09Z</time>
      </trkpt>
      <trkpt lat="48.70329" lon="5.59109">
        <ele>257.1</ele>
        <time>2020-06-29T18:08:10Z</time>
      </trkpt>
      <trkpt lat="48.70331" lon="5.59103">
        <ele>257.2</ele>
        <time>2020-06-29T18:08:11Z</time>
      </trkpt>
      <trkpt lat="48.70332" lon="5.59097">
        <ele>257.2</ele>
        <time>2020-06-29T18:08:12Z</time>
      </trkpt>
      <trkpt lat="48.70334" lon="5.5909">
        <ele>257.3</ele>
        <time>2020-06-29T18:08:13Z</time>
      </trkpt>
      <trkpt lat="48.70335" lon="5.59082">
        <ele>257.3</ele>
        <time>2020-06-29T18:08:14Z</time>
      </trkpt>
      <trkpt lat="48.70336" lon="5.59075">
        <ele>257.3</ele>
        <time>2020-06-29T18:08:15Z</time>
      </trkpt>
      <trkpt lat="48.70338" lon="5.59068">
        <ele>257.3</ele>
        <time>2020-06-29T18:08:16Z</time>
      </trkpt>
      <trkpt lat="48.70339" lon="5.59062">
        <ele>257.3</ele>
        <time>2020-06-29T18:08:17Z</time>
      </trkpt>
      <trkpt lat="48.7034" lon="5.59056">
        <ele>257.3</ele>
        <time>2020-06-29T18:08:18Z</time>
      </trkpt>
      <trkpt lat="48.70342" lon="5.59048">
        <ele>257.3</ele>
        <time>2020-06-29T18:08:19Z</time>
      </trkpt>
      <trkpt lat="48.70343" lon="5.59041">
        <ele>257.3</ele>
        <time>2020-06-29T18:08:20Z</time>
      </trkpt>
      <trkpt lat="48.70345" lon="5.59035">
        <ele>257.3</ele>
        <time>2020-06-29T18:08:21Z</time>
      </trkpt>
      <trkpt lat="48.70348" lon="5.59028">
        <ele>257.4</ele>
        <time>2020-06-29T18:08:22Z</time>
      </trkpt>
      <trkpt lat="48.70351" lon="5.59022">
        <ele>257.4</ele>
        <time>2020-06-29T18:08:23Z</time>
      </trkpt>
      <trkpt lat="48.70353" lon="5.59016">
        <ele>257.4</ele>
        <time>2020-06-29T18:08:24Z</time>
      </trkpt>
      <trkpt lat="48.70355" lon="5.59011">
        <ele>257.4</ele>
        <time>2020-06-29T18:08:25Z</time>
      </trkpt>
      <trkpt lat="48.70358" lon="5.59004">
        <ele>257.5</ele>
        <time>2020-06-29T18:08:26Z</time>
      </trkpt>
      <trkpt lat="48.7036" lon="5.58998">
        <ele>257.5</ele>
        <time>2020-06-29T18:08:27Z</time>
      </trkpt>
      <trkpt lat="48.70362" lon="5.58992">
        <ele>257.6</ele>
        <time>2020-06-29T18:08:28Z</time>
      </trkpt>
      <trkpt lat="48.70365" lon="5.58986">
        <ele>257.6</ele>
        <time>2020-06-29T18:08:29Z</time>
      </trkpt>
      <trkpt lat="48.70368" lon="5.5898">
        <ele>257.7</ele>
        <time>2020-06-29T18:08:30Z</time>
      </trkpt>
      <trkpt lat="48.7037" lon="5.58973">
        <ele>257.7</ele>
        <time>2020-06-29T18:08:31Z</time>
      </trkpt>
      <trkpt lat="48.70371" lon="5.58966">
        <ele>257.7</ele>
        <time>2020-06-29T18:08:32Z</time>
      </trkpt>
      <trkpt lat="48.70372" lon="5.5896">
        <ele>257.7</ele>
        <time>2020-06-29T18:08:33Z</time>
      </trkpt>
      <trkpt lat="48.70373" lon="5.58957">
        <ele>257.7</ele>
        <time>2020-06-29T18:08:34Z</time>
      </trkpt>
      <trkpt lat="48.70373" lon="5.58949">
        <ele>257.8</ele>
        <time>2020-06-29T18:08:35Z</time>
      </trkpt>
      <trkpt lat="48.70375" lon="5.58943">
        <ele>257.7</ele>
        <time>2020-06-29T18:08:36Z</time>
      </trkpt>
      <trkpt lat="48.70377" lon="5.58935">
        <ele>257.6</ele>
        <time>2020-06-29T18:08:37Z</time>
      </trkpt>
      <trkpt lat="48.70379" lon="5.58928">
        <ele>257.5</ele>
        <time>2020-06-29T18:08:38Z</time>
      </trkpt>
      <trkpt lat="48.7038" lon="5.5892">
        <ele>257.5</ele>
        <time>2020-06-29T18:08:39Z</time>
      </trkpt>
      <trkpt lat="48.70381" lon="5.58913">
        <ele>257.4</ele>
        <time>2020-06-29T18:08:40Z</time>
      </trkpt>
      <trkpt lat="48.70383" lon="5.58905">
        <ele>257.3</ele>
        <time>2020-06-29T18:08:41Z</time>
      </trkpt>
      <trkpt lat="48.70384" lon="5.58898">
        <ele>257.3</ele>
        <time>2020-06-29T18:08:42Z</time>
      </trkpt>
      <trkpt lat="48.70387" lon="5.58891">
        <ele>257.3</ele>
        <time>2020-06-29T18:08:43Z</time>
      </trkpt>
      <trkpt lat="48.70389" lon="5.58885">
        <ele>257.3</ele>
        <time>2020-06-29T18:08:44Z</time>
      </trkpt>
      <trkpt lat="48.70391" lon="5.58876">
        <ele>257.2</ele>
        <time>2020-06-29T18:08:45Z</time>
      </trkpt>
      <trkpt lat="48.70392" lon="5.58867">
        <ele>257.2</ele>
        <time>2020-06-29T18:08:46Z</time>
      </trkpt>
      <trkpt lat="48.70394" lon="5.58858">
        <ele>257.1</ele>
        <time>2020-06-29T18:08:47Z</time>
      </trkpt>
      <trkpt lat="48.70396" lon="5.5885">
        <ele>257.1</ele>
        <time>2020-06-29T18:08:48Z</time>
      </trkpt>
      <trkpt lat="48.70397" lon="5.58843">
        <ele>257.1</ele>
        <time>2020-06-29T18:08:49Z</time>
      </trkpt>
      <trkpt lat="48.70397" lon="5.58836">
        <ele>257.2</ele>
        <time>2020-06-29T18:08:50Z</time>
      </trkpt>
      <trkpt lat="48.70397" lon="5.58829">
        <ele>257.2</ele>
        <time>2020-06-29T18:08:51Z</time>
      </trkpt>
      <trkpt lat="48.70397" lon="5.58822">
        <ele>257.3</ele>
        <time>2020-06-29T18:08:52Z</time>
      </trkpt>
      <trkpt lat="48.70397" lon="5.58816">
        <ele>257.4</ele>
        <time>2020-06-29T18:08:53Z</time>
      </trkpt>
      <trkpt lat="48.70398" lon="5.58809">
        <ele>257.5</ele>
        <time>2020-06-29T18:08:54Z</time>
      </trkpt>
      <trkpt lat="48.70398" lon="5.58802">
        <ele>257.6</ele>
        <time>2020-06-29T18:08:55Z</time>
      </trkpt>
      <trkpt lat="48.70399" lon="5.58797">
        <ele>257.9</ele>
        <time>2020-06-29T18:08:56Z</time>
      </trkpt>
      <trkpt lat="48.704" lon="5.58793">
        <ele>257.9</ele>
        <time>2020-06-29T18:08:57Z</time>
      </trkpt>
      <trkpt lat="48.70402" lon="5.58789">
        <ele>257.9</ele>
        <time>2020-06-29T18:08:58Z</time>
      </trkpt>
      <trkpt lat="48.70404" lon="5.58782">
        <ele>257.9</ele>
        <time>2020-06-29T18:08:59Z</time>
      </trkpt>
      <trkpt lat="48.70405" lon="5.5878">
        <ele>258</ele>
        <time>2020-06-29T18:09:00Z</time>
      </trkpt>
      <trkpt lat="48.70408" lon="5.58774">
        <ele>258</ele>
        <time>2020-06-29T18:09:01Z</time>
      </trkpt>
      <trkpt lat="48.70411" lon="5.58773">
        <ele>258</ele>
        <time>2020-06-29T18:09:02Z</time>
      </trkpt>
      <trkpt lat="48.70411" lon="5.58771">
        <ele>258.1</ele>
        <time>2020-06-29T18:09:03Z</time>
      </trkpt>
      <trkpt lat="48.70412" lon="5.58769">
        <ele>258.1</ele>
        <time>2020-06-29T18:09:04Z</time>
      </trkpt>
      <trkpt lat="48.70413" lon="5.58767">
        <ele>258.1</ele>
        <time>2020-06-29T18:09:05Z</time>
      </trkpt>
      <trkpt lat="48.70415" lon="5.58768">
        <ele>258.1</ele>
        <time>2020-06-29T18:09:06Z</time>
      </trkpt>
      <trkpt lat="48.70416" lon="5.58768">
        <ele>258.1</ele>
        <time>2020-06-29T18:09:07Z</time>
      </trkpt>
      <trkpt lat="48.70417" lon="5.58768">
        <ele>258.2</ele>
        <time>2020-06-29T18:09:08Z</time>
      </trkpt>
      <trkpt lat="48.70418" lon="5.58772">
        <ele>258.2</ele>
        <time>2020-06-29T18:09:09Z</time>
      </trkpt>
      <trkpt lat="48.70419" lon="5.58773">
        <ele>258.2</ele>
        <time>2020-06-29T18:09:10Z</time>
      </trkpt>
      <trkpt lat="48.70419" lon="5.58774">
        <ele>258.2</ele>
        <time>2020-06-29T18:09:11Z</time>
      </trkpt>
      <trkpt lat="48.70418" lon="5.58774">
        <ele>258.2</ele>
        <time>2020-06-29T18:09:12Z</time>
      </trkpt>
      <trkpt lat="48.70418" lon="5.58773">
        <ele>258.2</ele>
        <time>2020-06-29T18:09:13Z</time>
      </trkpt>
      <trkpt lat="48.70417" lon="5.58772">
        <ele>258.2</ele>
        <time>2020-06-29T18:09:14Z</time>
      </trkpt>
      <trkpt lat="48.70417" lon="5.58771">
        <ele>258.3</ele>
        <time>2020-06-29T18:09:15Z</time>
      </trkpt>
      <trkpt lat="48.70416" lon="5.5877">
        <ele>258.3</ele>
        <time>2020-06-29T18:09:16Z</time>
      </trkpt>
      <trkpt lat="48.70416" lon="5.58766">
        <ele>258.3</ele>
        <time>2020-06-29T18:09:17Z</time>
      </trkpt>
      <trkpt lat="48.70415" lon="5.58764">
        <ele>258.3</ele>
        <time>2020-06-29T18:09:18Z</time>
      </trkpt>
      <trkpt lat="48.70414" lon="5.5876">
        <ele>258.4</ele>
        <time>2020-06-29T18:09:19Z</time>
      </trkpt>
      <trkpt lat="48.70414" lon="5.58759">
        <ele>258.4</ele>
        <time>2020-06-29T18:09:20Z</time>
      </trkpt>
      <trkpt lat="48.70413" lon="5.58754">
        <ele>258.5</ele>
        <time>2020-06-29T18:09:21Z</time>
      </trkpt>
      <trkpt lat="48.70413" lon="5.58752">
        <ele>258.5</ele>
        <time>2020-06-29T18:09:22Z</time>
      </trkpt>
      <trkpt lat="48.70413" lon="5.58747">
        <ele>258.5</ele>
        <time>2020-06-29T18:09:23Z</time>
      </trkpt>
      <trkpt lat="48.70412" lon="5.5874">
        <ele>258.6</ele>
        <time>2020-06-29T18:09:24Z</time>
      </trkpt>
      <trkpt lat="48.70411" lon="5.58735">
        <ele>258.7</ele>
        <time>2020-06-29T18:09:25Z</time>
      </trkpt>
      <trkpt lat="48.70411" lon="5.5873">
        <ele>258.8</ele>
        <time>2020-06-29T18:09:26Z</time>
      </trkpt>
      <trkpt lat="48.70411" lon="5.58726">
        <ele>258.9</ele>
        <time>2020-06-29T18:09:27Z</time>
      </trkpt>
      <trkpt lat="48.70409" lon="5.5872">
        <ele>259.1</ele>
        <time>2020-06-29T18:09:28Z</time>
      </trkpt>
      <trkpt lat="48.70409" lon="5.58714">
        <ele>259.3</ele>
        <time>2020-06-29T18:09:29Z</time>
      </trkpt>
      <trkpt lat="48.70408" lon="5.58707">
        <ele>259.5</ele>
        <time>2020-06-29T18:09:30Z</time>
      </trkpt>
      <trkpt lat="48.70407" lon="5.58701">
        <ele>259.7</ele>
        <time>2020-06-29T18:09:31Z</time>
      </trkpt>
      <trkpt lat="48.70406" lon="5.58699">
        <ele>259.8</ele>
        <time>2020-06-29T18:09:32Z</time>
      </trkpt>
      <trkpt lat="48.70406" lon="5.58693">
        <ele>260</ele>
        <time>2020-06-29T18:09:33Z</time>
      </trkpt>
      <trkpt lat="48.70405" lon="5.58686">
        <ele>260.2</ele>
        <time>2020-06-29T18:09:34Z</time>
      </trkpt>
      <trkpt lat="48.70404" lon="5.5868">
        <ele>260.4</ele>
        <time>2020-06-29T18:09:35Z</time>
      </trkpt>
      <trkpt lat="48.70404" lon="5.58675">
        <ele>260.6</ele>
        <time>2020-06-29T18:09:36Z</time>
      </trkpt>
      <trkpt lat="48.70405" lon="5.58669">
        <ele>260.8</ele>
        <time>2020-06-29T18:09:37Z</time>
      </trkpt>
      <trkpt lat="48.70406" lon="5.58667">
        <ele>260.9</ele>
        <time>2020-06-29T18:09:38Z</time>
      </trkpt>
      <trkpt lat="48.70406" lon="5.58662">
        <ele>261.1</ele>
        <time>2020-06-29T18:09:39Z</time>
      </trkpt>
      <trkpt lat="48.70406" lon="5.58656">
        <ele>261.3</ele>
        <time>2020-06-29T18:09:40Z</time>
      </trkpt>
      <trkpt lat="48.70406" lon="5.58653">
        <ele>261.3</ele>
        <time>2020-06-29T18:09:41Z</time>
      </trkpt>
      <trkpt lat="48.70406" lon="5.58648">
        <ele>261.5</ele>
        <time>2020-06-29T18:09:42Z</time>
      </trkpt>
      <trkpt lat="48.70407" lon="5.58643">
        <ele>261.7</ele>
        <time>2020-06-29T18:09:43Z</time>
      </trkpt>
      <trkpt lat="48.70407" lon="5.58639">
        <ele>261.9</ele>
        <time>2020-06-29T18:09:44Z</time>
      </trkpt>
      <trkpt lat="48.70408" lon="5.58632">
        <ele>262.2</ele>
        <time>2020-06-29T18:09:45Z</time>
      </trkpt>
      <trkpt lat="48.70408" lon="5.5863">
        <ele>262.3</ele>
        <time>2020-06-29T18:09:46Z</time>
      </trkpt>
      <trkpt lat="48.7041" lon="5.58626">
        <ele>262.6</ele>
        <time>2020-06-29T18:09:47Z</time>
      </trkpt>
      <trkpt lat="48.70411" lon="5.58622">
        <ele>262.8</ele>
        <time>2020-06-29T18:09:48Z</time>
      </trkpt>
      <trkpt lat="48.70413" lon="5.58618">
        <ele>263.1</ele>
        <time>2020-06-29T18:09:49Z</time>
      </trkpt>
      <trkpt lat="48.70413" lon="5.58613">
        <ele>263.3</ele>
        <time>2020-06-29T18:09:50Z</time>
      </trkpt>
      <trkpt lat="48.70414" lon="5.58609">
        <ele>263.6</ele>
        <time>2020-06-29T18:09:51Z</time>
      </trkpt>
      <trkpt lat="48.70415" lon="5.58607">
        <ele>263.7</ele>
        <time>2020-06-29T18:09:52Z</time>
      </trkpt>
      <trkpt lat="48.70416" lon="5.58603">
        <ele>263.9</ele>
        <time>2020-06-29T18:09:53Z</time>
      </trkpt>
      <trkpt lat="48.70416" lon="5.58601">
        <ele>264</ele>
        <time>2020-06-29T18:09:54Z</time>
      </trkpt>
      <trkpt lat="48.70416" lon="5.58596">
        <ele>264.3</ele>
        <time>2020-06-29T18:09:55Z</time>
      </trkpt>
      <trkpt lat="48.70416" lon="5.58595">
        <ele>264.4</ele>
        <time>2020-06-29T18:09:56Z</time>
      </trkpt>
      <trkpt lat="48.70418" lon="5.5859">
        <ele>264.5</ele>
        <time>2020-06-29T18:09:57Z</time>
      </trkpt>
      <trkpt lat="48.70419" lon="5.58588">
        <ele>264.6</ele>
        <time>2020-06-29T18:09:58Z</time>
      </trkpt>
      <trkpt lat="48.7042" lon="5.58583">
        <ele>264.7</ele>
        <time>2020-06-29T18:09:59Z</time>
      </trkpt>
      <trkpt lat="48.70421" lon="5.58577">
        <ele>264.9</ele>
        <time>2020-06-29T18:10:00Z</time>
      </trkpt>
      <trkpt lat="48.70421" lon="5.58571">
        <ele>265.1</ele>
        <time>2020-06-29T18:10:01Z</time>
      </trkpt>
      <trkpt lat="48.70422" lon="5.58561">
        <ele>265.4</ele>
        <time>2020-06-29T18:10:02Z</time>
      </trkpt>
      <trkpt lat="48.70422" lon="5.58555">
        <ele>265.5</ele>
        <time>2020-06-29T18:10:03Z</time>
      </trkpt>
      <trkpt lat="48.70421" lon="5.5855">
        <ele>265.7</ele>
        <time>2020-06-29T18:10:04Z</time>
      </trkpt>
      <trkpt lat="48.7042" lon="5.58545">
        <ele>266</ele>
        <time>2020-06-29T18:10:05Z</time>
      </trkpt>
      <trkpt lat="48.7042" lon="5.5854">
        <ele>266.3</ele>
        <time>2020-06-29T18:10:06Z</time>
      </trkpt>
      <trkpt lat="48.70419" lon="5.58535">
        <ele>266.5</ele>
        <time>2020-06-29T18:10:07Z</time>
      </trkpt>
      <trkpt lat="48.70419" lon="5.58529">
        <ele>266.8</ele>
        <time>2020-06-29T18:10:08Z</time>
      </trkpt>
      <trkpt lat="48.70419" lon="5.58525">
        <ele>266.9</ele>
        <time>2020-06-29T18:10:09Z</time>
      </trkpt>
      <trkpt lat="48.70419" lon="5.5852">
        <ele>267.1</ele>
        <time>2020-06-29T18:10:10Z</time>
      </trkpt>
      <trkpt lat="48.70418" lon="5.58515">
        <ele>267.3</ele>
        <time>2020-06-29T18:10:11Z</time>
      </trkpt>
      <trkpt lat="48.70417" lon="5.5851">
        <ele>267.4</ele>
        <time>2020-06-29T18:10:12Z</time>
      </trkpt>
      <trkpt lat="48.70417" lon="5.58507">
        <ele>267.5</ele>
        <time>2020-06-29T18:10:13Z</time>
      </trkpt>
      <trkpt lat="48.70416" lon="5.58502">
        <ele>267.6</ele>
        <time>2020-06-29T18:10:14Z</time>
      </trkpt>
      <trkpt lat="48.70416" lon="5.58497">
        <ele>267.8</ele>
        <time>2020-06-29T18:10:15Z</time>
      </trkpt>
      <trkpt lat="48.70416" lon="5.58495">
        <ele>267.8</ele>
        <time>2020-06-29T18:10:16Z</time>
      </trkpt>
      <trkpt lat="48.70415" lon="5.5849">
        <ele>268</ele>
        <time>2020-06-29T18:10:17Z</time>
      </trkpt>
      <trkpt lat="48.70414" lon="5.58488">
        <ele>268</ele>
        <time>2020-06-29T18:10:18Z</time>
      </trkpt>
      <trkpt lat="48.70413" lon="5.58484">
        <ele>268.1</ele>
        <time>2020-06-29T18:10:19Z</time>
      </trkpt>
      <trkpt lat="48.70412" lon="5.58479">
        <ele>268.3</ele>
        <time>2020-06-29T18:10:20Z</time>
      </trkpt>
      <trkpt lat="48.70411" lon="5.58473">
        <ele>268.4</ele>
        <time>2020-06-29T18:10:21Z</time>
      </trkpt>
      <trkpt lat="48.70411" lon="5.58469">
        <ele>268.6</ele>
        <time>2020-06-29T18:10:22Z</time>
      </trkpt>
      <trkpt lat="48.7041" lon="5.58464">
        <ele>268.7</ele>
        <time>2020-06-29T18:10:23Z</time>
      </trkpt>
      <trkpt lat="48.7041" lon="5.58458">
        <ele>268.8</ele>
        <time>2020-06-29T18:10:24Z</time>
      </trkpt>
      <trkpt lat="48.7041" lon="5.58453">
        <ele>269</ele>
        <time>2020-06-29T18:10:25Z</time>
      </trkpt>
      <trkpt lat="48.70409" lon="5.58446">
        <ele>269.1</ele>
        <time>2020-06-29T18:10:26Z</time>
      </trkpt>
      <trkpt lat="48.70408" lon="5.5844">
        <ele>269.2</ele>
        <time>2020-06-29T18:10:27Z</time>
      </trkpt>
      <trkpt lat="48.70406" lon="5.58435">
        <ele>269.3</ele>
        <time>2020-06-29T18:10:28Z</time>
      </trkpt>
      <trkpt lat="48.70404" lon="5.58428">
        <ele>269.4</ele>
        <time>2020-06-29T18:10:29Z</time>
      </trkpt>
      <trkpt lat="48.70403" lon="5.58422">
        <ele>269.6</ele>
        <time>2020-06-29T18:10:30Z</time>
      </trkpt>
      <trkpt lat="48.70402" lon="5.58417">
        <ele>269.6</ele>
        <time>2020-06-29T18:10:31Z</time>
      </trkpt>
      <trkpt lat="48.70401" lon="5.58412">
        <ele>269.7</ele>
        <time>2020-06-29T18:10:32Z</time>
      </trkpt>
      <trkpt lat="48.704" lon="5.58407">
        <ele>269.9</ele>
        <time>2020-06-29T18:10:33Z</time>
      </trkpt>
      <trkpt lat="48.70398" lon="5.58402">
        <ele>270</ele>
        <time>2020-06-29T18:10:34Z</time>
      </trkpt>
      <trkpt lat="48.70397" lon="5.58397">
        <ele>270.1</ele>
        <time>2020-06-29T18:10:35Z</time>
      </trkpt>
      <trkpt lat="48.70396" lon="5.58394">
        <ele>270.2</ele>
        <time>2020-06-29T18:10:36Z</time>
      </trkpt>
      <trkpt lat="48.70394" lon="5.58389">
        <ele>270.3</ele>
        <time>2020-06-29T18:10:37Z</time>
      </trkpt>
      <trkpt lat="48.70394" lon="5.58384">
        <ele>270.4</ele>
        <time>2020-06-29T18:10:38Z</time>
      </trkpt>
      <trkpt lat="48.70393" lon="5.58379">
        <ele>270.5</ele>
        <time>2020-06-29T18:10:39Z</time>
      </trkpt>
      <trkpt lat="48.70392" lon="5.58375">
        <ele>270.7</ele>
        <time>2020-06-29T18:10:40Z</time>
      </trkpt>
      <trkpt lat="48.70392" lon="5.58369">
        <ele>270.9</ele>
        <time>2020-06-29T18:10:41Z</time>
      </trkpt>
      <trkpt lat="48.70391" lon="5.58363">
        <ele>271.1</ele>
        <time>2020-06-29T18:10:42Z</time>
      </trkpt>
      <trkpt lat="48.7039" lon="5.58357">
        <ele>271.3</ele>
        <time>2020-06-29T18:10:43Z</time>
      </trkpt>
      <trkpt lat="48.70389" lon="5.5835">
        <ele>271.6</ele>
        <time>2020-06-29T18:10:44Z</time>
      </trkpt>
      <trkpt lat="48.70388" lon="5.58345">
        <ele>271.8</ele>
        <time>2020-06-29T18:10:45Z</time>
      </trkpt>
      <trkpt lat="48.70387" lon="5.58341">
        <ele>272</ele>
        <time>2020-06-29T18:10:46Z</time>
      </trkpt>
      <trkpt lat="48.70386" lon="5.58336">
        <ele>272.2</ele>
        <time>2020-06-29T18:10:47Z</time>
      </trkpt>
      <trkpt lat="48.70385" lon="5.58331">
        <ele>272.4</ele>
        <time>2020-06-29T18:10:48Z</time>
      </trkpt>
      <trkpt lat="48.70384" lon="5.58327">
        <ele>272.6</ele>
        <time>2020-06-29T18:10:49Z</time>
      </trkpt>
      <trkpt lat="48.70383" lon="5.58323">
        <ele>272.8</ele>
        <time>2020-06-29T18:10:50Z</time>
      </trkpt>
      <trkpt lat="48.70381" lon="5.58318">
        <ele>273</ele>
        <time>2020-06-29T18:10:51Z</time>
      </trkpt>
      <trkpt lat="48.70381" lon="5.58316">
        <ele>273</ele>
        <time>2020-06-29T18:10:52Z</time>
      </trkpt>
      <trkpt lat="48.70381" lon="5.58311">
        <ele>273.3</ele>
        <time>2020-06-29T18:10:53Z</time>
      </trkpt>
      <trkpt lat="48.7038" lon="5.58309">
        <ele>273.3</ele>
        <time>2020-06-29T18:10:54Z</time>
      </trkpt>
      <trkpt lat="48.70379" lon="5.58305">
        <ele>273.5</ele>
        <time>2020-06-29T18:10:55Z</time>
      </trkpt>
      <trkpt lat="48.70378" lon="5.583">
        <ele>273.7</ele>
        <time>2020-06-29T18:10:56Z</time>
      </trkpt>
      <trkpt lat="48.70377" lon="5.58294">
        <ele>273.9</ele>
        <time>2020-06-29T18:10:57Z</time>
      </trkpt>
      <trkpt lat="48.70376" lon="5.58292">
        <ele>274</ele>
        <time>2020-06-29T18:10:58Z</time>
      </trkpt>
      <trkpt lat="48.70375" lon="5.58288">
        <ele>274.1</ele>
        <time>2020-06-29T18:10:59Z</time>
      </trkpt>
      <trkpt lat="48.70373" lon="5.58282">
        <ele>274.3</ele>
        <time>2020-06-29T18:11:00Z</time>
      </trkpt>
      <trkpt lat="48.70372" lon="5.58278">
        <ele>274.5</ele>
        <time>2020-06-29T18:11:01Z</time>
      </trkpt>
      <trkpt lat="48.7037" lon="5.58273">
        <ele>274.6</ele>
        <time>2020-06-29T18:11:02Z</time>
      </trkpt>
      <trkpt lat="48.7037" lon="5.58268">
        <ele>274.7</ele>
        <time>2020-06-29T18:11:03Z</time>
      </trkpt>
      <trkpt lat="48.70369" lon="5.58263">
        <ele>274.9</ele>
        <time>2020-06-29T18:11:04Z</time>
      </trkpt>
      <trkpt lat="48.70367" lon="5.58259">
        <ele>275</ele>
        <time>2020-06-29T18:11:05Z</time>
      </trkpt>
      <trkpt lat="48.70366" lon="5.58254">
        <ele>275.1</ele>
        <time>2020-06-29T18:11:06Z</time>
      </trkpt>
      <trkpt lat="48.70365" lon="5.5825">
        <ele>275.2</ele>
        <time>2020-06-29T18:11:07Z</time>
      </trkpt>
      <trkpt lat="48.70363" lon="5.58246">
        <ele>275.4</ele>
        <time>2020-06-29T18:11:08Z</time>
      </trkpt>
      <trkpt lat="48.70361" lon="5.58242">
        <ele>275.5</ele>
        <time>2020-06-29T18:11:09Z</time>
      </trkpt>
      <trkpt lat="48.70358" lon="5.58236">
        <ele>275.6</ele>
        <time>2020-06-29T18:11:10Z</time>
      </trkpt>
      <trkpt lat="48.70356" lon="5.58229">
        <ele>275.7</ele>
        <time>2020-06-29T18:11:11Z</time>
      </trkpt>
      <trkpt lat="48.70355" lon="5.58224">
        <ele>275.8</ele>
        <time>2020-06-29T18:11:12Z</time>
      </trkpt>
      <trkpt lat="48.70353" lon="5.58218">
        <ele>276</ele>
        <time>2020-06-29T18:11:13Z</time>
      </trkpt>
      <trkpt lat="48.70352" lon="5.58213">
        <ele>276</ele>
        <time>2020-06-29T18:11:14Z</time>
      </trkpt>
      <trkpt lat="48.7035" lon="5.58208">
        <ele>276.1</ele>
        <time>2020-06-29T18:11:15Z</time>
      </trkpt>
      <trkpt lat="48.70349" lon="5.58203">
        <ele>276.1</ele>
        <time>2020-06-29T18:11:16Z</time>
      </trkpt>
      <trkpt lat="48.70348" lon="5.58198">
        <ele>276.2</ele>
        <time>2020-06-29T18:11:17Z</time>
      </trkpt>
      <trkpt lat="48.70346" lon="5.58193">
        <ele>276.2</ele>
        <time>2020-06-29T18:11:18Z</time>
      </trkpt>
      <trkpt lat="48.70345" lon="5.58187">
        <ele>276.2</ele>
        <time>2020-06-29T18:11:19Z</time>
      </trkpt>
      <trkpt lat="48.70343" lon="5.58181">
        <ele>276.2</ele>
        <time>2020-06-29T18:11:20Z</time>
      </trkpt>
      <trkpt lat="48.70342" lon="5.58175">
        <ele>276.3</ele>
        <time>2020-06-29T18:11:21Z</time>
      </trkpt>
      <trkpt lat="48.70341" lon="5.58168">
        <ele>276.3</ele>
        <time>2020-06-29T18:11:22Z</time>
      </trkpt>
      <trkpt lat="48.7034" lon="5.58163">
        <ele>276.3</ele>
        <time>2020-06-29T18:11:23Z</time>
      </trkpt>
      <trkpt lat="48.70338" lon="5.58159">
        <ele>276.4</ele>
        <time>2020-06-29T18:11:24Z</time>
      </trkpt>
      <trkpt lat="48.70337" lon="5.58153">
        <ele>276.5</ele>
        <time>2020-06-29T18:11:25Z</time>
      </trkpt>
      <trkpt lat="48.70337" lon="5.58148">
        <ele>276.5</ele>
        <time>2020-06-29T18:11:26Z</time>
      </trkpt>
      <trkpt lat="48.70335" lon="5.58141">
        <ele>276.9</ele>
        <time>2020-06-29T18:11:27Z</time>
      </trkpt>
      <trkpt lat="48.70334" lon="5.58134">
        <ele>277.2</ele>
        <time>2020-06-29T18:11:28Z</time>
      </trkpt>
      <trkpt lat="48.70332" lon="5.58128">
        <ele>277.4</ele>
        <time>2020-06-29T18:11:29Z</time>
      </trkpt>
      <trkpt lat="48.7033" lon="5.58122">
        <ele>277.4</ele>
        <time>2020-06-29T18:11:30Z</time>
      </trkpt>
      <trkpt lat="48.70328" lon="5.58116">
        <ele>277.5</ele>
        <time>2020-06-29T18:11:31Z</time>
      </trkpt>
      <trkpt lat="48.70326" lon="5.5811">
        <ele>277.4</ele>
        <time>2020-06-29T18:11:32Z</time>
      </trkpt>
      <trkpt lat="48.70325" lon="5.58105">
        <ele>277.4</ele>
        <time>2020-06-29T18:11:33Z</time>
      </trkpt>
      <trkpt lat="48.70323" lon="5.58099">
        <ele>277.4</ele>
        <time>2020-06-29T18:11:34Z</time>
      </trkpt>
      <trkpt lat="48.70322" lon="5.58093">
        <ele>277.3</ele>
        <time>2020-06-29T18:11:35Z</time>
      </trkpt>
      <trkpt lat="48.70321" lon="5.58086">
        <ele>277.3</ele>
        <time>2020-06-29T18:11:36Z</time>
      </trkpt>
      <trkpt lat="48.70321" lon="5.5808">
        <ele>277.3</ele>
        <time>2020-06-29T18:11:37Z</time>
      </trkpt>
      <trkpt lat="48.7032" lon="5.58073">
        <ele>277.2</ele>
        <time>2020-06-29T18:11:38Z</time>
      </trkpt>
      <trkpt lat="48.70319" lon="5.58063">
        <ele>277.1</ele>
        <time>2020-06-29T18:11:39Z</time>
      </trkpt>
      <trkpt lat="48.70318" lon="5.58057">
        <ele>277.1</ele>
        <time>2020-06-29T18:11:40Z</time>
      </trkpt>
      <trkpt lat="48.70317" lon="5.5805">
        <ele>277</ele>
        <time>2020-06-29T18:11:41Z</time>
      </trkpt>
      <trkpt lat="48.70315" lon="5.58044">
        <ele>277</ele>
        <time>2020-06-29T18:11:42Z</time>
      </trkpt>
      <trkpt lat="48.70314" lon="5.58037">
        <ele>276.9</ele>
        <time>2020-06-29T18:11:43Z</time>
      </trkpt>
      <trkpt lat="48.70312" lon="5.58031">
        <ele>276.9</ele>
        <time>2020-06-29T18:11:44Z</time>
      </trkpt>
      <trkpt lat="48.7031" lon="5.58026">
        <ele>276.9</ele>
        <time>2020-06-29T18:11:45Z</time>
      </trkpt>
      <trkpt lat="48.70308" lon="5.58018">
        <ele>276.9</ele>
        <time>2020-06-29T18:11:46Z</time>
      </trkpt>
      <trkpt lat="48.70306" lon="5.5801">
        <ele>276.8</ele>
        <time>2020-06-29T18:11:47Z</time>
      </trkpt>
      <trkpt lat="48.70305" lon="5.58004">
        <ele>276.8</ele>
        <time>2020-06-29T18:11:48Z</time>
      </trkpt>
      <trkpt lat="48.70303" lon="5.57996">
        <ele>276.8</ele>
        <time>2020-06-29T18:11:49Z</time>
      </trkpt>
      <trkpt lat="48.70302" lon="5.57989">
        <ele>276.7</ele>
        <time>2020-06-29T18:11:50Z</time>
      </trkpt>
      <trkpt lat="48.70302" lon="5.57981">
        <ele>276.7</ele>
        <time>2020-06-29T18:11:51Z</time>
      </trkpt>
      <trkpt lat="48.70301" lon="5.57974">
        <ele>276.7</ele>
        <time>2020-06-29T18:11:52Z</time>
      </trkpt>
      <trkpt lat="48.703" lon="5.57968">
        <ele>276.7</ele>
        <time>2020-06-29T18:11:53Z</time>
      </trkpt>
      <trkpt lat="48.70299" lon="5.57961">
        <ele>276.7</ele>
        <time>2020-06-29T18:11:54Z</time>
      </trkpt>
      <trkpt lat="48.70298" lon="5.57955">
        <ele>276.7</ele>
        <time>2020-06-29T18:11:55Z</time>
      </trkpt>
      <trkpt lat="48.70296" lon="5.57948">
        <ele>276.7</ele>
        <time>2020-06-29T18:11:56Z</time>
      </trkpt>
      <trkpt lat="48.70295" lon="5.57941">
        <ele>276.7</ele>
        <time>2020-06-29T18:11:57Z</time>
      </trkpt>
      <trkpt lat="48.70295" lon="5.57932">
        <ele>276.7</ele>
        <time>2020-06-29T18:11:58Z</time>
      </trkpt>
      <trkpt lat="48.70294" lon="5.57924">
        <ele>276.7</ele>
        <time>2020-06-29T18:11:59Z</time>
      </trkpt>
      <trkpt lat="48.70293" lon="5.57916">
        <ele>276.7</ele>
        <time>2020-06-29T18:12:00Z</time>
      </trkpt>
      <trkpt lat="48.70292" lon="5.57908">
        <ele>276.7</ele>
        <time>2020-06-29T18:12:01Z</time>
      </trkpt>
      <trkpt lat="48.70291" lon="5.57901">
        <ele>276.6</ele>
        <time>2020-06-29T18:12:02Z</time>
      </trkpt>
      <trkpt lat="48.70291" lon="5.57893">
        <ele>276.6</ele>
        <time>2020-06-29T18:12:03Z</time>
      </trkpt>
      <trkpt lat="48.7029" lon="5.57885">
        <ele>276.5</ele>
        <time>2020-06-29T18:12:04Z</time>
      </trkpt>
      <trkpt lat="48.70289" lon="5.57877">
        <ele>276.5</ele>
        <time>2020-06-29T18:12:05Z</time>
      </trkpt>
      <trkpt lat="48.70289" lon="5.5787">
        <ele>276.5</ele>
        <time>2020-06-29T18:12:06Z</time>
      </trkpt>
      <trkpt lat="48.70289" lon="5.57862">
        <ele>276.5</ele>
        <time>2020-06-29T18:12:07Z</time>
      </trkpt>
      <trkpt lat="48.70289" lon="5.57855">
        <ele>276.5</ele>
        <time>2020-06-29T18:12:08Z</time>
      </trkpt>
      <trkpt lat="48.70288" lon="5.57847">
        <ele>276.5</ele>
        <time>2020-06-29T18:12:09Z</time>
      </trkpt>
      <trkpt lat="48.70287" lon="5.57841">
        <ele>276.5</ele>
        <time>2020-06-29T18:12:10Z</time>
      </trkpt>
      <trkpt lat="48.70287" lon="5.57834">
        <ele>276.6</ele>
        <time>2020-06-29T18:12:11Z</time>
      </trkpt>
      <trkpt lat="48.70287" lon="5.57826">
        <ele>276.6</ele>
        <time>2020-06-29T18:12:12Z</time>
      </trkpt>
      <trkpt lat="48.70287" lon="5.57819">
        <ele>276.6</ele>
        <time>2020-06-29T18:12:13Z</time>
      </trkpt>
      <trkpt lat="48.70286" lon="5.57813">
        <ele>276.6</ele>
        <time>2020-06-29T18:12:14Z</time>
      </trkpt>
      <trkpt lat="48.70286" lon="5.57807">
        <ele>276.6</ele>
        <time>2020-06-29T18:12:15Z</time>
      </trkpt>
      <trkpt lat="48.70286" lon="5.578">
        <ele>276.6</ele>
        <time>2020-06-29T18:12:16Z</time>
      </trkpt>
      <trkpt lat="48.70286" lon="5.57792">
        <ele>276.6</ele>
        <time>2020-06-29T18:12:17Z</time>
      </trkpt>
      <trkpt lat="48.70286" lon="5.57784">
        <ele>276.6</ele>
        <time>2020-06-29T18:12:18Z</time>
      </trkpt>
      <trkpt lat="48.70286" lon="5.57777">
        <ele>276.5</ele>
        <time>2020-06-29T18:12:19Z</time>
      </trkpt>
      <trkpt lat="48.70285" lon="5.57771">
        <ele>276.5</ele>
        <time>2020-06-29T18:12:20Z</time>
      </trkpt>
      <trkpt lat="48.70285" lon="5.57762">
        <ele>276.6</ele>
        <time>2020-06-29T18:12:21Z</time>
      </trkpt>
      <trkpt lat="48.70285" lon="5.57754">
        <ele>276.6</ele>
        <time>2020-06-29T18:12:22Z</time>
      </trkpt>
      <trkpt lat="48.70285" lon="5.57746">
        <ele>276.6</ele>
        <time>2020-06-29T18:12:23Z</time>
      </trkpt>
      <trkpt lat="48.70285" lon="5.57739">
        <ele>276.6</ele>
        <time>2020-06-29T18:12:24Z</time>
      </trkpt>
      <trkpt lat="48.70286" lon="5.57732">
        <ele>276.6</ele>
        <time>2020-06-29T18:12:25Z</time>
      </trkpt>
      <trkpt lat="48.70286" lon="5.57722">
        <ele>276.6</ele>
        <time>2020-06-29T18:12:26Z</time>
      </trkpt>
      <trkpt lat="48.70286" lon="5.57714">
        <ele>276.6</ele>
        <time>2020-06-29T18:12:27Z</time>
      </trkpt>
      <trkpt lat="48.70286" lon="5.57707">
        <ele>276.6</ele>
        <time>2020-06-29T18:12:28Z</time>
      </trkpt>
      <trkpt lat="48.70286" lon="5.57701">
        <ele>276.6</ele>
        <time>2020-06-29T18:12:29Z</time>
      </trkpt>
      <trkpt lat="48.70287" lon="5.57695">
        <ele>276.6</ele>
        <time>2020-06-29T18:12:30Z</time>
      </trkpt>
      <trkpt lat="48.70289" lon="5.57689">
        <ele>276.6</ele>
        <time>2020-06-29T18:12:31Z</time>
      </trkpt>
      <trkpt lat="48.7029" lon="5.57683">
        <ele>276.6</ele>
        <time>2020-06-29T18:12:32Z</time>
      </trkpt>
      <trkpt lat="48.70292" lon="5.57677">
        <ele>276.5</ele>
        <time>2020-06-29T18:12:33Z</time>
      </trkpt>
      <trkpt lat="48.70293" lon="5.5767">
        <ele>276.5</ele>
        <time>2020-06-29T18:12:34Z</time>
      </trkpt>
      <trkpt lat="48.70293" lon="5.57661">
        <ele>276.5</ele>
        <time>2020-06-29T18:12:35Z</time>
      </trkpt>
      <trkpt lat="48.70294" lon="5.57654">
        <ele>276.5</ele>
        <time>2020-06-29T18:12:36Z</time>
      </trkpt>
      <trkpt lat="48.70295" lon="5.57647">
        <ele>276.5</ele>
        <time>2020-06-29T18:12:37Z</time>
      </trkpt>
      <trkpt lat="48.70295" lon="5.5764">
        <ele>276.5</ele>
        <time>2020-06-29T18:12:38Z</time>
      </trkpt>
      <trkpt lat="48.70297" lon="5.57632">
        <ele>276.5</ele>
        <time>2020-06-29T18:12:39Z</time>
      </trkpt>
      <trkpt lat="48.70298" lon="5.57624">
        <ele>276.5</ele>
        <time>2020-06-29T18:12:40Z</time>
      </trkpt>
      <trkpt lat="48.703" lon="5.57617">
        <ele>276.5</ele>
        <time>2020-06-29T18:12:41Z</time>
      </trkpt>
      <trkpt lat="48.70301" lon="5.5761">
        <ele>276.5</ele>
        <time>2020-06-29T18:12:42Z</time>
      </trkpt>
      <trkpt lat="48.703" lon="5.57602">
        <ele>276.5</ele>
        <time>2020-06-29T18:12:43Z</time>
      </trkpt>
      <trkpt lat="48.70302" lon="5.57597">
        <ele>276.5</ele>
        <time>2020-06-29T18:12:44Z</time>
      </trkpt>
      <trkpt lat="48.70302" lon="5.57588">
        <ele>276.6</ele>
        <time>2020-06-29T18:12:45Z</time>
      </trkpt>
      <trkpt lat="48.70303" lon="5.57578">
        <ele>276.6</ele>
        <time>2020-06-29T18:12:46Z</time>
      </trkpt>
      <trkpt lat="48.70304" lon="5.5757">
        <ele>276.6</ele>
        <time>2020-06-29T18:12:47Z</time>
      </trkpt>
      <trkpt lat="48.70305" lon="5.57562">
        <ele>276.7</ele>
        <time>2020-06-29T18:12:48Z</time>
      </trkpt>
      <trkpt lat="48.70305" lon="5.57554">
        <ele>276.7</ele>
        <time>2020-06-29T18:12:49Z</time>
      </trkpt>
      <trkpt lat="48.70306" lon="5.57547">
        <ele>276.8</ele>
        <time>2020-06-29T18:12:50Z</time>
      </trkpt>
      <trkpt lat="48.70306" lon="5.5754">
        <ele>276.8</ele>
        <time>2020-06-29T18:12:51Z</time>
      </trkpt>
      <trkpt lat="48.70306" lon="5.57531">
        <ele>276.9</ele>
        <time>2020-06-29T18:12:52Z</time>
      </trkpt>
      <trkpt lat="48.70306" lon="5.57519">
        <ele>276.9</ele>
        <time>2020-06-29T18:12:53Z</time>
      </trkpt>
      <trkpt lat="48.70307" lon="5.57511">
        <ele>277</ele>
        <time>2020-06-29T18:12:54Z</time>
      </trkpt>
      <trkpt lat="48.70306" lon="5.57503">
        <ele>277.1</ele>
        <time>2020-06-29T18:12:55Z</time>
      </trkpt>
      <trkpt lat="48.70305" lon="5.57497">
        <ele>277.1</ele>
        <time>2020-06-29T18:12:56Z</time>
      </trkpt>
      <trkpt lat="48.70306" lon="5.57491">
        <ele>277.2</ele>
        <time>2020-06-29T18:12:57Z</time>
      </trkpt>
      <trkpt lat="48.70305" lon="5.57487">
        <ele>277.3</ele>
        <time>2020-06-29T18:12:58Z</time>
      </trkpt>
      <trkpt lat="48.70304" lon="5.5748">
        <ele>277.4</ele>
        <time>2020-06-29T18:12:59Z</time>
      </trkpt>
      <trkpt lat="48.70303" lon="5.57474">
        <ele>277.4</ele>
        <time>2020-06-29T18:13:00Z</time>
      </trkpt>
      <trkpt lat="48.70302" lon="5.57469">
        <ele>277.5</ele>
        <time>2020-06-29T18:13:01Z</time>
      </trkpt>
      <trkpt lat="48.70301" lon="5.57463">
        <ele>277.5</ele>
        <time>2020-06-29T18:13:02Z</time>
      </trkpt>
      <trkpt lat="48.70301" lon="5.57457">
        <ele>277.5</ele>
        <time>2020-06-29T18:13:03Z</time>
      </trkpt>
      <trkpt lat="48.70301" lon="5.5745">
        <ele>277.6</ele>
        <time>2020-06-29T18:13:04Z</time>
      </trkpt>
      <trkpt lat="48.70301" lon="5.57442">
        <ele>277.6</ele>
        <time>2020-06-29T18:13:05Z</time>
      </trkpt>
      <trkpt lat="48.70301" lon="5.57434">
        <ele>277.7</ele>
        <time>2020-06-29T18:13:06Z</time>
      </trkpt>
      <trkpt lat="48.703" lon="5.57426">
        <ele>277.7</ele>
        <time>2020-06-29T18:13:07Z</time>
      </trkpt>
      <trkpt lat="48.703" lon="5.57419">
        <ele>277.8</ele>
        <time>2020-06-29T18:13:08Z</time>
      </trkpt>
      <trkpt lat="48.70299" lon="5.57414">
        <ele>277.8</ele>
        <time>2020-06-29T18:13:09Z</time>
      </trkpt>
      <trkpt lat="48.70298" lon="5.57409">
        <ele>277.8</ele>
        <time>2020-06-29T18:13:10Z</time>
      </trkpt>
      <trkpt lat="48.70298" lon="5.57403">
        <ele>277.9</ele>
        <time>2020-06-29T18:13:11Z</time>
      </trkpt>
      <trkpt lat="48.70297" lon="5.57397">
        <ele>277.9</ele>
        <time>2020-06-29T18:13:12Z</time>
      </trkpt>
      <trkpt lat="48.70296" lon="5.57389">
        <ele>278</ele>
        <time>2020-06-29T18:13:13Z</time>
      </trkpt>
      <trkpt lat="48.70296" lon="5.5738">
        <ele>278.1</ele>
        <time>2020-06-29T18:13:14Z</time>
      </trkpt>
      <trkpt lat="48.70295" lon="5.5737">
        <ele>278.2</ele>
        <time>2020-06-29T18:13:15Z</time>
      </trkpt>
      <trkpt lat="48.70293" lon="5.57358">
        <ele>278.5</ele>
        <time>2020-06-29T18:13:16Z</time>
      </trkpt>
      <trkpt lat="48.7029" lon="5.57344">
        <ele>278.7</ele>
        <time>2020-06-29T18:13:17Z</time>
      </trkpt>
      <trkpt lat="48.70288" lon="5.57335">
        <ele>278.8</ele>
        <time>2020-06-29T18:13:18Z</time>
      </trkpt>
      <trkpt lat="48.70286" lon="5.57324">
        <ele>278.9</ele>
        <time>2020-06-29T18:13:19Z</time>
      </trkpt>
      <trkpt lat="48.70284" lon="5.57315">
        <ele>279</ele>
        <time>2020-06-29T18:13:20Z</time>
      </trkpt>
      <trkpt lat="48.70281" lon="5.57306">
        <ele>279.2</ele>
        <time>2020-06-29T18:13:21Z</time>
      </trkpt>
      <trkpt lat="48.7028" lon="5.57296">
        <ele>279.4</ele>
        <time>2020-06-29T18:13:22Z</time>
      </trkpt>
      <trkpt lat="48.70278" lon="5.57287">
        <ele>279.5</ele>
        <time>2020-06-29T18:13:23Z</time>
      </trkpt>
      <trkpt lat="48.70275" lon="5.57282">
        <ele>279.6</ele>
        <time>2020-06-29T18:13:24Z</time>
      </trkpt>
      <trkpt lat="48.70273" lon="5.57275">
        <ele>279.7</ele>
        <time>2020-06-29T18:13:25Z</time>
      </trkpt>
      <trkpt lat="48.70273" lon="5.57267">
        <ele>279.8</ele>
        <time>2020-06-29T18:13:26Z</time>
      </trkpt>
      <trkpt lat="48.70272" lon="5.57263">
        <ele>279.9</ele>
        <time>2020-06-29T18:13:27Z</time>
      </trkpt>
      <trkpt lat="48.70271" lon="5.57258">
        <ele>279.9</ele>
        <time>2020-06-29T18:13:28Z</time>
      </trkpt>
      <trkpt lat="48.70269" lon="5.57251">
        <ele>280.1</ele>
        <time>2020-06-29T18:13:29Z</time>
      </trkpt>
      <trkpt lat="48.70268" lon="5.57243">
        <ele>280.2</ele>
        <time>2020-06-29T18:13:30Z</time>
      </trkpt>
      <trkpt lat="48.70268" lon="5.57233">
        <ele>280.5</ele>
        <time>2020-06-29T18:13:31Z</time>
      </trkpt>
      <trkpt lat="48.70267" lon="5.57225">
        <ele>280.7</ele>
        <time>2020-06-29T18:13:32Z</time>
      </trkpt>
      <trkpt lat="48.70267" lon="5.57218">
        <ele>280.8</ele>
        <time>2020-06-29T18:13:33Z</time>
      </trkpt>
      <trkpt lat="48.70267" lon="5.57211">
        <ele>281</ele>
        <time>2020-06-29T18:13:34Z</time>
      </trkpt>
      <trkpt lat="48.70265" lon="5.57204">
        <ele>281.1</ele>
        <time>2020-06-29T18:13:35Z</time>
      </trkpt>
      <trkpt lat="48.70264" lon="5.57198">
        <ele>281.2</ele>
        <time>2020-06-29T18:13:36Z</time>
      </trkpt>
      <trkpt lat="48.70263" lon="5.57193">
        <ele>281.3</ele>
        <time>2020-06-29T18:13:37Z</time>
      </trkpt>
      <trkpt lat="48.70261" lon="5.57185">
        <ele>281.4</ele>
        <time>2020-06-29T18:13:38Z</time>
      </trkpt>
      <trkpt lat="48.7026" lon="5.57175">
        <ele>281.6</ele>
        <time>2020-06-29T18:13:39Z</time>
      </trkpt>
      <trkpt lat="48.70258" lon="5.57168">
        <ele>281.7</ele>
        <time>2020-06-29T18:13:40Z</time>
      </trkpt>
      <trkpt lat="48.70257" lon="5.57162">
        <ele>281.8</ele>
        <time>2020-06-29T18:13:41Z</time>
      </trkpt>
      <trkpt lat="48.70255" lon="5.57157">
        <ele>281.9</ele>
        <time>2020-06-29T18:13:42Z</time>
      </trkpt>
      <trkpt lat="48.70254" lon="5.5715">
        <ele>282</ele>
        <time>2020-06-29T18:13:43Z</time>
      </trkpt>
      <trkpt lat="48.70254" lon="5.57145">
        <ele>282.1</ele>
        <time>2020-06-29T18:13:44Z</time>
      </trkpt>
      <trkpt lat="48.70253" lon="5.57137">
        <ele>282.2</ele>
        <time>2020-06-29T18:13:45Z</time>
      </trkpt>
      <trkpt lat="48.70253" lon="5.57131">
        <ele>282.3</ele>
        <time>2020-06-29T18:13:46Z</time>
      </trkpt>
      <trkpt lat="48.70253" lon="5.57122">
        <ele>282.4</ele>
        <time>2020-06-29T18:13:47Z</time>
      </trkpt>
      <trkpt lat="48.70255" lon="5.57115">
        <ele>282.6</ele>
        <time>2020-06-29T18:13:48Z</time>
      </trkpt>
      <trkpt lat="48.70257" lon="5.5711">
        <ele>282.7</ele>
        <time>2020-06-29T18:13:49Z</time>
      </trkpt>
      <trkpt lat="48.70256" lon="5.57104">
        <ele>282.8</ele>
        <time>2020-06-29T18:13:50Z</time>
      </trkpt>
      <trkpt lat="48.70256" lon="5.57096">
        <ele>283.2</ele>
        <time>2020-06-29T18:13:51Z</time>
      </trkpt>
      <trkpt lat="48.70256" lon="5.57089">
        <ele>283.7</ele>
        <time>2020-06-29T18:13:52Z</time>
      </trkpt>
      <trkpt lat="48.70255" lon="5.57082">
        <ele>284.1</ele>
        <time>2020-06-29T18:13:53Z</time>
      </trkpt>
      <trkpt lat="48.70256" lon="5.57075">
        <ele>284.3</ele>
        <time>2020-06-29T18:13:54Z</time>
      </trkpt>
      <trkpt lat="48.70257" lon="5.57067">
        <ele>284.5</ele>
        <time>2020-06-29T18:13:55Z</time>
      </trkpt>
      <trkpt lat="48.70257" lon="5.57059">
        <ele>284.6</ele>
        <time>2020-06-29T18:13:56Z</time>
      </trkpt>
      <trkpt lat="48.70256" lon="5.57052">
        <ele>284.7</ele>
        <time>2020-06-29T18:13:57Z</time>
      </trkpt>
      <trkpt lat="48.70256" lon="5.57046">
        <ele>284.8</ele>
        <time>2020-06-29T18:13:58Z</time>
      </trkpt>
      <trkpt lat="48.70255" lon="5.57039">
        <ele>284.9</ele>
        <time>2020-06-29T18:13:59Z</time>
      </trkpt>
      <trkpt lat="48.70255" lon="5.57031">
        <ele>285</ele>
        <time>2020-06-29T18:14:00Z</time>
      </trkpt>
      <trkpt lat="48.70255" lon="5.57025">
        <ele>285</ele>
        <time>2020-06-29T18:14:01Z</time>
      </trkpt>
      <trkpt lat="48.70255" lon="5.57019">
        <ele>285.1</ele>
        <time>2020-06-29T18:14:02Z</time>
      </trkpt>
      <trkpt lat="48.70255" lon="5.57012">
        <ele>285.2</ele>
        <time>2020-06-29T18:14:03Z</time>
      </trkpt>
      <trkpt lat="48.70254" lon="5.57006">
        <ele>285.3</ele>
        <time>2020-06-29T18:14:04Z</time>
      </trkpt>
      <trkpt lat="48.70253" lon="5.57001">
        <ele>285.4</ele>
        <time>2020-06-29T18:14:05Z</time>
      </trkpt>
      <trkpt lat="48.70252" lon="5.56992">
        <ele>285.5</ele>
        <time>2020-06-29T18:14:06Z</time>
      </trkpt>
      <trkpt lat="48.70252" lon="5.56985">
        <ele>285.6</ele>
        <time>2020-06-29T18:14:07Z</time>
      </trkpt>
      <trkpt lat="48.70252" lon="5.56977">
        <ele>285.7</ele>
        <time>2020-06-29T18:14:08Z</time>
      </trkpt>
      <trkpt lat="48.70252" lon="5.5697">
        <ele>285.8</ele>
        <time>2020-06-29T18:14:09Z</time>
      </trkpt>
      <trkpt lat="48.70252" lon="5.56965">
        <ele>285.9</ele>
        <time>2020-06-29T18:14:10Z</time>
      </trkpt>
      <trkpt lat="48.70253" lon="5.56958">
        <ele>286</ele>
        <time>2020-06-29T18:14:11Z</time>
      </trkpt>
      <trkpt lat="48.70253" lon="5.56952">
        <ele>286.1</ele>
        <time>2020-06-29T18:14:12Z</time>
      </trkpt>
      <trkpt lat="48.70255" lon="5.56944">
        <ele>286.2</ele>
        <time>2020-06-29T18:14:13Z</time>
      </trkpt>
      <trkpt lat="48.70257" lon="5.56937">
        <ele>286.3</ele>
        <time>2020-06-29T18:14:14Z</time>
      </trkpt>
      <trkpt lat="48.7026" lon="5.56932">
        <ele>286.4</ele>
        <time>2020-06-29T18:14:15Z</time>
      </trkpt>
      <trkpt lat="48.70261" lon="5.56925">
        <ele>286.5</ele>
        <time>2020-06-29T18:14:16Z</time>
      </trkpt>
      <trkpt lat="48.70262" lon="5.56919">
        <ele>286.6</ele>
        <time>2020-06-29T18:14:17Z</time>
      </trkpt>
      <trkpt lat="48.70263" lon="5.56913">
        <ele>286.7</ele>
        <time>2020-06-29T18:14:18Z</time>
      </trkpt>
      <trkpt lat="48.70264" lon="5.56907">
        <ele>286.9</ele>
        <time>2020-06-29T18:14:19Z</time>
      </trkpt>
      <trkpt lat="48.70265" lon="5.569">
        <ele>287</ele>
        <time>2020-06-29T18:14:20Z</time>
      </trkpt>
      <trkpt lat="48.70266" lon="5.56894">
        <ele>287.1</ele>
        <time>2020-06-29T18:14:21Z</time>
      </trkpt>
      <trkpt lat="48.70267" lon="5.56888">
        <ele>287.2</ele>
        <time>2020-06-29T18:14:22Z</time>
      </trkpt>
      <trkpt lat="48.70267" lon="5.56882">
        <ele>287.3</ele>
        <time>2020-06-29T18:14:23Z</time>
      </trkpt>
      <trkpt lat="48.70269" lon="5.56874">
        <ele>287.5</ele>
        <time>2020-06-29T18:14:24Z</time>
      </trkpt>
      <trkpt lat="48.70269" lon="5.56867">
        <ele>287.6</ele>
        <time>2020-06-29T18:14:25Z</time>
      </trkpt>
      <trkpt lat="48.70271" lon="5.5686">
        <ele>287.7</ele>
        <time>2020-06-29T18:14:26Z</time>
      </trkpt>
      <trkpt lat="48.70273" lon="5.56854">
        <ele>287.8</ele>
        <time>2020-06-29T18:14:27Z</time>
      </trkpt>
      <trkpt lat="48.70274" lon="5.56847">
        <ele>287.9</ele>
        <time>2020-06-29T18:14:28Z</time>
      </trkpt>
      <trkpt lat="48.70275" lon="5.5684">
        <ele>288</ele>
        <time>2020-06-29T18:14:29Z</time>
      </trkpt>
      <trkpt lat="48.70275" lon="5.56834">
        <ele>288.1</ele>
        <time>2020-06-29T18:14:30Z</time>
      </trkpt>
      <trkpt lat="48.70277" lon="5.56829">
        <ele>288.1</ele>
        <time>2020-06-29T18:14:31Z</time>
      </trkpt>
      <trkpt lat="48.70278" lon="5.56823">
        <ele>288.2</ele>
        <time>2020-06-29T18:14:32Z</time>
      </trkpt>
      <trkpt lat="48.70279" lon="5.56817">
        <ele>288.3</ele>
        <time>2020-06-29T18:14:33Z</time>
      </trkpt>
      <trkpt lat="48.70281" lon="5.5681">
        <ele>288.4</ele>
        <time>2020-06-29T18:14:34Z</time>
      </trkpt>
      <trkpt lat="48.70282" lon="5.56805">
        <ele>288.4</ele>
        <time>2020-06-29T18:14:35Z</time>
      </trkpt>
      <trkpt lat="48.70284" lon="5.56802">
        <ele>288.5</ele>
        <time>2020-06-29T18:14:36Z</time>
      </trkpt>
      <trkpt lat="48.70285" lon="5.56795">
        <ele>288.6</ele>
        <time>2020-06-29T18:14:37Z</time>
      </trkpt>
      <trkpt lat="48.70286" lon="5.56789">
        <ele>288.7</ele>
        <time>2020-06-29T18:14:38Z</time>
      </trkpt>
      <trkpt lat="48.70286" lon="5.56783">
        <ele>288.8</ele>
        <time>2020-06-29T18:14:39Z</time>
      </trkpt>
      <trkpt lat="48.70288" lon="5.56778">
        <ele>288.8</ele>
        <time>2020-06-29T18:14:40Z</time>
      </trkpt>
      <trkpt lat="48.70289" lon="5.5677">
        <ele>288.9</ele>
        <time>2020-06-29T18:14:41Z</time>
      </trkpt>
      <trkpt lat="48.7029" lon="5.56766">
        <ele>288.9</ele>
        <time>2020-06-29T18:14:42Z</time>
      </trkpt>
      <trkpt lat="48.70292" lon="5.5676">
        <ele>288.9</ele>
        <time>2020-06-29T18:14:43Z</time>
      </trkpt>
      <trkpt lat="48.70293" lon="5.56757">
        <ele>289</ele>
        <time>2020-06-29T18:14:44Z</time>
      </trkpt>
      <trkpt lat="48.70295" lon="5.56751">
        <ele>289.1</ele>
        <time>2020-06-29T18:14:45Z</time>
      </trkpt>
      <trkpt lat="48.70297" lon="5.56745">
        <ele>289.2</ele>
        <time>2020-06-29T18:14:46Z</time>
      </trkpt>
      <trkpt lat="48.70297" lon="5.5674">
        <ele>289.3</ele>
        <time>2020-06-29T18:14:47Z</time>
      </trkpt>
      <trkpt lat="48.70298" lon="5.56736">
        <ele>289.3</ele>
        <time>2020-06-29T18:14:48Z</time>
      </trkpt>
      <trkpt lat="48.70299" lon="5.56734">
        <ele>289.4</ele>
        <time>2020-06-29T18:14:49Z</time>
      </trkpt>
      <trkpt lat="48.70299" lon="5.5673">
        <ele>289.5</ele>
        <time>2020-06-29T18:14:50Z</time>
      </trkpt>
      <trkpt lat="48.703" lon="5.56723">
        <ele>289.6</ele>
        <time>2020-06-29T18:14:51Z</time>
      </trkpt>
      <trkpt lat="48.70301" lon="5.56718">
        <ele>289.6</ele>
        <time>2020-06-29T18:14:52Z</time>
      </trkpt>
      <trkpt lat="48.70302" lon="5.56713">
        <ele>289.7</ele>
        <time>2020-06-29T18:14:53Z</time>
      </trkpt>
      <trkpt lat="48.70303" lon="5.56707">
        <ele>289.8</ele>
        <time>2020-06-29T18:14:54Z</time>
      </trkpt>
      <trkpt lat="48.70304" lon="5.56701">
        <ele>289.9</ele>
        <time>2020-06-29T18:14:55Z</time>
      </trkpt>
      <trkpt lat="48.70306" lon="5.56695">
        <ele>290</ele>
        <time>2020-06-29T18:14:56Z</time>
      </trkpt>
      <trkpt lat="48.70306" lon="5.56689">
        <ele>290</ele>
        <time>2020-06-29T18:14:57Z</time>
      </trkpt>
      <trkpt lat="48.70304" lon="5.56683">
        <ele>290.1</ele>
        <time>2020-06-29T18:14:58Z</time>
      </trkpt>
      <trkpt lat="48.70303" lon="5.56675">
        <ele>290.2</ele>
        <time>2020-06-29T18:14:59Z</time>
      </trkpt>
      <trkpt lat="48.70303" lon="5.56667">
        <ele>290.2</ele>
        <time>2020-06-29T18:15:00Z</time>
      </trkpt>
      <trkpt lat="48.70303" lon="5.56661">
        <ele>290.2</ele>
        <time>2020-06-29T18:15:01Z</time>
      </trkpt>
      <trkpt lat="48.70302" lon="5.56653">
        <ele>290.3</ele>
        <time>2020-06-29T18:15:02Z</time>
      </trkpt>
      <trkpt lat="48.70301" lon="5.56643">
        <ele>290.3</ele>
        <time>2020-06-29T18:15:03Z</time>
      </trkpt>
      <trkpt lat="48.70298" lon="5.56634">
        <ele>290.4</ele>
        <time>2020-06-29T18:15:04Z</time>
      </trkpt>
      <trkpt lat="48.70295" lon="5.56624">
        <ele>290.6</ele>
        <time>2020-06-29T18:15:05Z</time>
      </trkpt>
      <trkpt lat="48.70294" lon="5.56614">
        <ele>290.7</ele>
        <time>2020-06-29T18:15:06Z</time>
      </trkpt>
      <trkpt lat="48.70292" lon="5.56605">
        <ele>290.8</ele>
        <time>2020-06-29T18:15:07Z</time>
      </trkpt>
      <trkpt lat="48.7029" lon="5.56594">
        <ele>290.9</ele>
        <time>2020-06-29T18:15:08Z</time>
      </trkpt>
      <trkpt lat="48.70287" lon="5.56583">
        <ele>291</ele>
        <time>2020-06-29T18:15:09Z</time>
      </trkpt>
      <trkpt lat="48.70284" lon="5.56573">
        <ele>291.1</ele>
        <time>2020-06-29T18:15:10Z</time>
      </trkpt>
      <trkpt lat="48.70282" lon="5.56565">
        <ele>291.2</ele>
        <time>2020-06-29T18:15:11Z</time>
      </trkpt>
      <trkpt lat="48.7028" lon="5.56558">
        <ele>291.3</ele>
        <time>2020-06-29T18:15:12Z</time>
      </trkpt>
      <trkpt lat="48.70278" lon="5.5655">
        <ele>291.4</ele>
        <time>2020-06-29T18:15:13Z</time>
      </trkpt>
      <trkpt lat="48.70276" lon="5.56543">
        <ele>291.5</ele>
        <time>2020-06-29T18:15:14Z</time>
      </trkpt>
      <trkpt lat="48.70276" lon="5.56533">
        <ele>291.6</ele>
        <time>2020-06-29T18:15:15Z</time>
      </trkpt>
      <trkpt lat="48.70274" lon="5.56525">
        <ele>291.8</ele>
        <time>2020-06-29T18:15:16Z</time>
      </trkpt>
      <trkpt lat="48.70274" lon="5.56517">
        <ele>291.8</ele>
        <time>2020-06-29T18:15:17Z</time>
      </trkpt>
      <trkpt lat="48.70274" lon="5.56511">
        <ele>291.9</ele>
        <time>2020-06-29T18:15:18Z</time>
      </trkpt>
      <trkpt lat="48.70274" lon="5.565">
        <ele>292.1</ele>
        <time>2020-06-29T18:15:19Z</time>
      </trkpt>
      <trkpt lat="48.70274" lon="5.56492">
        <ele>292.2</ele>
        <time>2020-06-29T18:15:20Z</time>
      </trkpt>
      <trkpt lat="48.70272" lon="5.56484">
        <ele>292.3</ele>
        <time>2020-06-29T18:15:21Z</time>
      </trkpt>
      <trkpt lat="48.70271" lon="5.56475">
        <ele>292.5</ele>
        <time>2020-06-29T18:15:22Z</time>
      </trkpt>
      <trkpt lat="48.70269" lon="5.56468">
        <ele>292.6</ele>
        <time>2020-06-29T18:15:23Z</time>
      </trkpt>
      <trkpt lat="48.70267" lon="5.56459">
        <ele>292.7</ele>
        <time>2020-06-29T18:15:24Z</time>
      </trkpt>
      <trkpt lat="48.70266" lon="5.56452">
        <ele>292.8</ele>
        <time>2020-06-29T18:15:25Z</time>
      </trkpt>
      <trkpt lat="48.70266" lon="5.56444">
        <ele>292.9</ele>
        <time>2020-06-29T18:15:26Z</time>
      </trkpt>
      <trkpt lat="48.70264" lon="5.56436">
        <ele>293</ele>
        <time>2020-06-29T18:15:27Z</time>
      </trkpt>
      <trkpt lat="48.70264" lon="5.56428">
        <ele>293.2</ele>
        <time>2020-06-29T18:15:28Z</time>
      </trkpt>
      <trkpt lat="48.70262" lon="5.56422">
        <ele>293.3</ele>
        <time>2020-06-29T18:15:29Z</time>
      </trkpt>
      <trkpt lat="48.7026" lon="5.56415">
        <ele>293.3</ele>
        <time>2020-06-29T18:15:30Z</time>
      </trkpt>
      <trkpt lat="48.7026" lon="5.56408">
        <ele>293.4</ele>
        <time>2020-06-29T18:15:31Z</time>
      </trkpt>
      <trkpt lat="48.7026" lon="5.56401">
        <ele>293.5</ele>
        <time>2020-06-29T18:15:32Z</time>
      </trkpt>
      <trkpt lat="48.7026" lon="5.56394">
        <ele>293.6</ele>
        <time>2020-06-29T18:15:33Z</time>
      </trkpt>
      <trkpt lat="48.70259" lon="5.56392">
        <ele>293.6</ele>
        <time>2020-06-29T18:15:34Z</time>
      </trkpt>
      <trkpt lat="48.70258" lon="5.56386">
        <ele>293.7</ele>
        <time>2020-06-29T18:15:35Z</time>
      </trkpt>
      <trkpt lat="48.70258" lon="5.5638">
        <ele>293.8</ele>
        <time>2020-06-29T18:15:36Z</time>
      </trkpt>
      <trkpt lat="48.70256" lon="5.56372">
        <ele>293.8</ele>
        <time>2020-06-29T18:15:37Z</time>
      </trkpt>
      <trkpt lat="48.70255" lon="5.56366">
        <ele>293.9</ele>
        <time>2020-06-29T18:15:38Z</time>
      </trkpt>
      <trkpt lat="48.70254" lon="5.56357">
        <ele>294</ele>
        <time>2020-06-29T18:15:39Z</time>
      </trkpt>
      <trkpt lat="48.70252" lon="5.56348">
        <ele>294.1</ele>
        <time>2020-06-29T18:15:40Z</time>
      </trkpt>
      <trkpt lat="48.70252" lon="5.56342">
        <ele>294.2</ele>
        <time>2020-06-29T18:15:41Z</time>
      </trkpt>
      <trkpt lat="48.70252" lon="5.56332">
        <ele>294.3</ele>
        <time>2020-06-29T18:15:42Z</time>
      </trkpt>
      <trkpt lat="48.70251" lon="5.56324">
        <ele>294.4</ele>
        <time>2020-06-29T18:15:43Z</time>
      </trkpt>
      <trkpt lat="48.70251" lon="5.56318">
        <ele>294.5</ele>
        <time>2020-06-29T18:15:44Z</time>
      </trkpt>
      <trkpt lat="48.70251" lon="5.56313">
        <ele>294.6</ele>
        <time>2020-06-29T18:15:45Z</time>
      </trkpt>
      <trkpt lat="48.70248" lon="5.56303">
        <ele>294.7</ele>
        <time>2020-06-29T18:15:46Z</time>
      </trkpt>
      <trkpt lat="48.70248" lon="5.56295">
        <ele>294.9</ele>
        <time>2020-06-29T18:15:47Z</time>
      </trkpt>
      <trkpt lat="48.70248" lon="5.56286">
        <ele>295</ele>
        <time>2020-06-29T18:15:48Z</time>
      </trkpt>
      <trkpt lat="48.70248" lon="5.56277">
        <ele>295.2</ele>
        <time>2020-06-29T18:15:49Z</time>
      </trkpt>
      <trkpt lat="48.70248" lon="5.56269">
        <ele>295.3</ele>
        <time>2020-06-29T18:15:50Z</time>
      </trkpt>
      <trkpt lat="48.70246" lon="5.56263">
        <ele>295.3</ele>
        <time>2020-06-29T18:15:51Z</time>
      </trkpt>
      <trkpt lat="48.70246" lon="5.56256">
        <ele>295.5</ele>
        <time>2020-06-29T18:15:52Z</time>
      </trkpt>
      <trkpt lat="48.70246" lon="5.56247">
        <ele>295.6</ele>
        <time>2020-06-29T18:15:53Z</time>
      </trkpt>
      <trkpt lat="48.70247" lon="5.5624">
        <ele>295.8</ele>
        <time>2020-06-29T18:15:54Z</time>
      </trkpt>
      <trkpt lat="48.70247" lon="5.56234">
        <ele>295.9</ele>
        <time>2020-06-29T18:15:55Z</time>
      </trkpt>
      <trkpt lat="48.70248" lon="5.56227">
        <ele>296</ele>
        <time>2020-06-29T18:15:56Z</time>
      </trkpt>
      <trkpt lat="48.70247" lon="5.5622">
        <ele>296.1</ele>
        <time>2020-06-29T18:15:57Z</time>
      </trkpt>
      <trkpt lat="48.70248" lon="5.56213">
        <ele>296.2</ele>
        <time>2020-06-29T18:15:58Z</time>
      </trkpt>
      <trkpt lat="48.70249" lon="5.56209">
        <ele>296.3</ele>
        <time>2020-06-29T18:15:59Z</time>
      </trkpt>
      <trkpt lat="48.70249" lon="5.56202">
        <ele>296.4</ele>
        <time>2020-06-29T18:16:00Z</time>
      </trkpt>
      <trkpt lat="48.70249" lon="5.56196">
        <ele>296.5</ele>
        <time>2020-06-29T18:16:01Z</time>
      </trkpt>
      <trkpt lat="48.70249" lon="5.56189">
        <ele>296.6</ele>
        <time>2020-06-29T18:16:02Z</time>
      </trkpt>
      <trkpt lat="48.7025" lon="5.56182">
        <ele>296.7</ele>
        <time>2020-06-29T18:16:03Z</time>
      </trkpt>
      <trkpt lat="48.7025" lon="5.56178">
        <ele>296.8</ele>
        <time>2020-06-29T18:16:04Z</time>
      </trkpt>
      <trkpt lat="48.7025" lon="5.56172">
        <ele>297</ele>
        <time>2020-06-29T18:16:05Z</time>
      </trkpt>
      <trkpt lat="48.70251" lon="5.56166">
        <ele>297.1</ele>
        <time>2020-06-29T18:16:06Z</time>
      </trkpt>
      <trkpt lat="48.70252" lon="5.56158">
        <ele>297.2</ele>
        <time>2020-06-29T18:16:07Z</time>
      </trkpt>
      <trkpt lat="48.70252" lon="5.56152">
        <ele>297.4</ele>
        <time>2020-06-29T18:16:08Z</time>
      </trkpt>
      <trkpt lat="48.70255" lon="5.56144">
        <ele>297.5</ele>
        <time>2020-06-29T18:16:09Z</time>
      </trkpt>
      <trkpt lat="48.70255" lon="5.56134">
        <ele>297.7</ele>
        <time>2020-06-29T18:16:10Z</time>
      </trkpt>
      <trkpt lat="48.70255" lon="5.56129">
        <ele>297.8</ele>
        <time>2020-06-29T18:16:11Z</time>
      </trkpt>
      <trkpt lat="48.70255" lon="5.56122">
        <ele>297.9</ele>
        <time>2020-06-29T18:16:12Z</time>
      </trkpt>
      <trkpt lat="48.70256" lon="5.56116">
        <ele>298.1</ele>
        <time>2020-06-29T18:16:13Z</time>
      </trkpt>
      <trkpt lat="48.70257" lon="5.56107">
        <ele>298.2</ele>
        <time>2020-06-29T18:16:14Z</time>
      </trkpt>
      <trkpt lat="48.70257" lon="5.56102">
        <ele>298.3</ele>
        <time>2020-06-29T18:16:15Z</time>
      </trkpt>
      <trkpt lat="48.70258" lon="5.56096">
        <ele>298.5</ele>
        <time>2020-06-29T18:16:16Z</time>
      </trkpt>
      <trkpt lat="48.70259" lon="5.56086">
        <ele>298.7</ele>
        <time>2020-06-29T18:16:17Z</time>
      </trkpt>
      <trkpt lat="48.70259" lon="5.56078">
        <ele>298.8</ele>
        <time>2020-06-29T18:16:18Z</time>
      </trkpt>
      <trkpt lat="48.70259" lon="5.5607">
        <ele>299</ele>
        <time>2020-06-29T18:16:19Z</time>
      </trkpt>
      <trkpt lat="48.7026" lon="5.56062">
        <ele>299.1</ele>
        <time>2020-06-29T18:16:20Z</time>
      </trkpt>
      <trkpt lat="48.7026" lon="5.56056">
        <ele>299.2</ele>
        <time>2020-06-29T18:16:21Z</time>
      </trkpt>
      <trkpt lat="48.70261" lon="5.56048">
        <ele>299.4</ele>
        <time>2020-06-29T18:16:22Z</time>
      </trkpt>
      <trkpt lat="48.70262" lon="5.56041">
        <ele>299.5</ele>
        <time>2020-06-29T18:16:23Z</time>
      </trkpt>
      <trkpt lat="48.70263" lon="5.56034">
        <ele>299.6</ele>
        <time>2020-06-29T18:16:24Z</time>
      </trkpt>
      <trkpt lat="48.70263" lon="5.56029">
        <ele>299.7</ele>
        <time>2020-06-29T18:16:25Z</time>
      </trkpt>
      <trkpt lat="48.70262" lon="5.56022">
        <ele>299.9</ele>
        <time>2020-06-29T18:16:26Z</time>
      </trkpt>
      <trkpt lat="48.70262" lon="5.56016">
        <ele>300</ele>
        <time>2020-06-29T18:16:27Z</time>
      </trkpt>
      <trkpt lat="48.70263" lon="5.56011">
        <ele>300.2</ele>
        <time>2020-06-29T18:16:28Z</time>
      </trkpt>
      <trkpt lat="48.70264" lon="5.56005">
        <ele>300.4</ele>
        <time>2020-06-29T18:16:29Z</time>
      </trkpt>
      <trkpt lat="48.70265" lon="5.56">
        <ele>300.5</ele>
        <time>2020-06-29T18:16:30Z</time>
      </trkpt>
      <trkpt lat="48.70266" lon="5.55995">
        <ele>300.7</ele>
        <time>2020-06-29T18:16:31Z</time>
      </trkpt>
      <trkpt lat="48.70267" lon="5.5599">
        <ele>300.8</ele>
        <time>2020-06-29T18:16:32Z</time>
      </trkpt>
      <trkpt lat="48.70267" lon="5.55985">
        <ele>300.9</ele>
        <time>2020-06-29T18:16:33Z</time>
      </trkpt>
      <trkpt lat="48.70269" lon="5.55982">
        <ele>301</ele>
        <time>2020-06-29T18:16:34Z</time>
      </trkpt>
      <trkpt lat="48.7027" lon="5.55974">
        <ele>301.2</ele>
        <time>2020-06-29T18:16:35Z</time>
      </trkpt>
      <trkpt lat="48.70271" lon="5.55967">
        <ele>301.4</ele>
        <time>2020-06-29T18:16:36Z</time>
      </trkpt>
      <trkpt lat="48.70271" lon="5.55963">
        <ele>301.4</ele>
        <time>2020-06-29T18:16:37Z</time>
      </trkpt>
      <trkpt lat="48.70271" lon="5.55957">
        <ele>301.6</ele>
        <time>2020-06-29T18:16:38Z</time>
      </trkpt>
      <trkpt lat="48.70273" lon="5.55951">
        <ele>301.7</ele>
        <time>2020-06-29T18:16:39Z</time>
      </trkpt>
      <trkpt lat="48.70274" lon="5.55941">
        <ele>301.9</ele>
        <time>2020-06-29T18:16:40Z</time>
      </trkpt>
      <trkpt lat="48.70275" lon="5.55933">
        <ele>302</ele>
        <time>2020-06-29T18:16:41Z</time>
      </trkpt>
      <trkpt lat="48.70275" lon="5.55927">
        <ele>302.2</ele>
        <time>2020-06-29T18:16:42Z</time>
      </trkpt>
      <trkpt lat="48.70275" lon="5.55922">
        <ele>302.3</ele>
        <time>2020-06-29T18:16:43Z</time>
      </trkpt>
      <trkpt lat="48.70276" lon="5.55916">
        <ele>302.4</ele>
        <time>2020-06-29T18:16:44Z</time>
      </trkpt>
      <trkpt lat="48.70276" lon="5.5591">
        <ele>302.6</ele>
        <time>2020-06-29T18:16:45Z</time>
      </trkpt>
      <trkpt lat="48.70275" lon="5.55904">
        <ele>302.7</ele>
        <time>2020-06-29T18:16:46Z</time>
      </trkpt>
      <trkpt lat="48.70274" lon="5.55898">
        <ele>302.8</ele>
        <time>2020-06-29T18:16:47Z</time>
      </trkpt>
      <trkpt lat="48.70275" lon="5.55891">
        <ele>302.9</ele>
        <time>2020-06-29T18:16:48Z</time>
      </trkpt>
      <trkpt lat="48.70276" lon="5.55888">
        <ele>302.9</ele>
        <time>2020-06-29T18:16:49Z</time>
      </trkpt>
      <trkpt lat="48.70277" lon="5.55883">
        <ele>303</ele>
        <time>2020-06-29T18:16:50Z</time>
      </trkpt>
      <trkpt lat="48.70279" lon="5.55876">
        <ele>303.2</ele>
        <time>2020-06-29T18:16:51Z</time>
      </trkpt>
      <trkpt lat="48.70281" lon="5.5587">
        <ele>303.3</ele>
        <time>2020-06-29T18:16:52Z</time>
      </trkpt>
      <trkpt lat="48.70281" lon="5.55864">
        <ele>303.4</ele>
        <time>2020-06-29T18:16:53Z</time>
      </trkpt>
      <trkpt lat="48.70282" lon="5.55858">
        <ele>303.6</ele>
        <time>2020-06-29T18:16:54Z</time>
      </trkpt>
      <trkpt lat="48.70284" lon="5.55853">
        <ele>303.7</ele>
        <time>2020-06-29T18:16:55Z</time>
      </trkpt>
      <trkpt lat="48.70284" lon="5.55851">
        <ele>303.8</ele>
        <time>2020-06-29T18:16:56Z</time>
      </trkpt>
      <trkpt lat="48.70285" lon="5.55843">
        <ele>304</ele>
        <time>2020-06-29T18:16:57Z</time>
      </trkpt>
      <trkpt lat="48.70286" lon="5.55838">
        <ele>304.1</ele>
        <time>2020-06-29T18:16:58Z</time>
      </trkpt>
      <trkpt lat="48.70287" lon="5.55833">
        <ele>304.2</ele>
        <time>2020-06-29T18:16:59Z</time>
      </trkpt>
      <trkpt lat="48.70289" lon="5.55825">
        <ele>304.4</ele>
        <time>2020-06-29T18:17:00Z</time>
      </trkpt>
      <trkpt lat="48.7029" lon="5.55818">
        <ele>304.6</ele>
        <time>2020-06-29T18:17:01Z</time>
      </trkpt>
      <trkpt lat="48.70291" lon="5.55811">
        <ele>304.8</ele>
        <time>2020-06-29T18:17:02Z</time>
      </trkpt>
      <trkpt lat="48.70291" lon="5.55804">
        <ele>305</ele>
        <time>2020-06-29T18:17:03Z</time>
      </trkpt>
      <trkpt lat="48.70292" lon="5.55798">
        <ele>305.1</ele>
        <time>2020-06-29T18:17:04Z</time>
      </trkpt>
      <trkpt lat="48.70293" lon="5.55788">
        <ele>305.4</ele>
        <time>2020-06-29T18:17:05Z</time>
      </trkpt>
      <trkpt lat="48.70294" lon="5.55784">
        <ele>305.5</ele>
        <time>2020-06-29T18:17:06Z</time>
      </trkpt>
      <trkpt lat="48.70295" lon="5.55778">
        <ele>305.6</ele>
        <time>2020-06-29T18:17:07Z</time>
      </trkpt>
      <trkpt lat="48.70295" lon="5.55776">
        <ele>305.7</ele>
        <time>2020-06-29T18:17:08Z</time>
      </trkpt>
      <trkpt lat="48.70297" lon="5.55771">
        <ele>305.8</ele>
        <time>2020-06-29T18:17:09Z</time>
      </trkpt>
      <trkpt lat="48.70297" lon="5.55769">
        <ele>305.8</ele>
        <time>2020-06-29T18:17:10Z</time>
      </trkpt>
      <trkpt lat="48.70299" lon="5.55766">
        <ele>305.9</ele>
        <time>2020-06-29T18:17:11Z</time>
      </trkpt>
      <trkpt lat="48.70299" lon="5.55759">
        <ele>306</ele>
        <time>2020-06-29T18:17:12Z</time>
      </trkpt>
      <trkpt lat="48.70302" lon="5.55755">
        <ele>306.2</ele>
        <time>2020-06-29T18:17:13Z</time>
      </trkpt>
      <trkpt lat="48.70305" lon="5.5575">
        <ele>306.3</ele>
        <time>2020-06-29T18:17:14Z</time>
      </trkpt>
      <trkpt lat="48.70306" lon="5.55748">
        <ele>306.4</ele>
        <time>2020-06-29T18:17:15Z</time>
      </trkpt>
      <trkpt lat="48.70308" lon="5.55745">
        <ele>306.5</ele>
        <time>2020-06-29T18:17:16Z</time>
      </trkpt>
      <trkpt lat="48.7031" lon="5.5574">
        <ele>306.6</ele>
        <time>2020-06-29T18:17:17Z</time>
      </trkpt>
      <trkpt lat="48.70312" lon="5.55734">
        <ele>306.8</ele>
        <time>2020-06-29T18:17:18Z</time>
      </trkpt>
      <trkpt lat="48.70313" lon="5.55731">
        <ele>306.9</ele>
        <time>2020-06-29T18:17:19Z</time>
      </trkpt>
      <trkpt lat="48.70314" lon="5.55721">
        <ele>307.1</ele>
        <time>2020-06-29T18:17:20Z</time>
      </trkpt>
      <trkpt lat="48.70317" lon="5.55715">
        <ele>307.3</ele>
        <time>2020-06-29T18:17:21Z</time>
      </trkpt>
      <trkpt lat="48.70317" lon="5.55712">
        <ele>307.3</ele>
        <time>2020-06-29T18:17:22Z</time>
      </trkpt>
      <trkpt lat="48.70319" lon="5.55708">
        <ele>307.5</ele>
        <time>2020-06-29T18:17:23Z</time>
      </trkpt>
      <trkpt lat="48.70321" lon="5.55704">
        <ele>307.6</ele>
        <time>2020-06-29T18:17:24Z</time>
      </trkpt>
      <trkpt lat="48.70322" lon="5.557">
        <ele>307.7</ele>
        <time>2020-06-29T18:17:25Z</time>
      </trkpt>
      <trkpt lat="48.70325" lon="5.55696">
        <ele>307.8</ele>
        <time>2020-06-29T18:17:26Z</time>
      </trkpt>
      <trkpt lat="48.70328" lon="5.55691">
        <ele>308</ele>
        <time>2020-06-29T18:17:27Z</time>
      </trkpt>
      <trkpt lat="48.70328" lon="5.55681">
        <ele>308.3</ele>
        <time>2020-06-29T18:17:28Z</time>
      </trkpt>
      <trkpt lat="48.70328" lon="5.55674">
        <ele>308.5</ele>
        <time>2020-06-29T18:17:29Z</time>
      </trkpt>
      <trkpt lat="48.7033" lon="5.55671">
        <ele>308.6</ele>
        <time>2020-06-29T18:17:30Z</time>
      </trkpt>
      <trkpt lat="48.7033" lon="5.55666">
        <ele>308.7</ele>
        <time>2020-06-29T18:17:31Z</time>
      </trkpt>
      <trkpt lat="48.7033" lon="5.55661">
        <ele>308.9</ele>
        <time>2020-06-29T18:17:32Z</time>
      </trkpt>
      <trkpt lat="48.70332" lon="5.55656">
        <ele>309</ele>
        <time>2020-06-29T18:17:33Z</time>
      </trkpt>
      <trkpt lat="48.70334" lon="5.55652">
        <ele>309.2</ele>
        <time>2020-06-29T18:17:34Z</time>
      </trkpt>
      <trkpt lat="48.70337" lon="5.55647">
        <ele>309.3</ele>
        <time>2020-06-29T18:17:35Z</time>
      </trkpt>
      <trkpt lat="48.7034" lon="5.55642">
        <ele>309.5</ele>
        <time>2020-06-29T18:17:36Z</time>
      </trkpt>
      <trkpt lat="48.70342" lon="5.55636">
        <ele>309.7</ele>
        <time>2020-06-29T18:17:37Z</time>
      </trkpt>
      <trkpt lat="48.70344" lon="5.55632">
        <ele>309.8</ele>
        <time>2020-06-29T18:17:38Z</time>
      </trkpt>
      <trkpt lat="48.70347" lon="5.55626">
        <ele>310</ele>
        <time>2020-06-29T18:17:39Z</time>
      </trkpt>
      <trkpt lat="48.70348" lon="5.55621">
        <ele>310.2</ele>
        <time>2020-06-29T18:17:40Z</time>
      </trkpt>
      <trkpt lat="48.70349" lon="5.55618">
        <ele>310.2</ele>
        <time>2020-06-29T18:17:41Z</time>
      </trkpt>
      <trkpt lat="48.7035" lon="5.55613">
        <ele>310.4</ele>
        <time>2020-06-29T18:17:42Z</time>
      </trkpt>
      <trkpt lat="48.7035" lon="5.5561">
        <ele>310.4</ele>
        <time>2020-06-29T18:17:43Z</time>
      </trkpt>
      <trkpt lat="48.70351" lon="5.55605">
        <ele>310.6</ele>
        <time>2020-06-29T18:17:44Z</time>
      </trkpt>
      <trkpt lat="48.70352" lon="5.55601">
        <ele>310.7</ele>
        <time>2020-06-29T18:17:45Z</time>
      </trkpt>
      <trkpt lat="48.70353" lon="5.55599">
        <ele>310.8</ele>
        <time>2020-06-29T18:17:46Z</time>
      </trkpt>
      <trkpt lat="48.70355" lon="5.55595">
        <ele>310.9</ele>
        <time>2020-06-29T18:17:47Z</time>
      </trkpt>
      <trkpt lat="48.70357" lon="5.55589">
        <ele>311.1</ele>
        <time>2020-06-29T18:17:48Z</time>
      </trkpt>
      <trkpt lat="48.70357" lon="5.55582">
        <ele>311.3</ele>
        <time>2020-06-29T18:17:49Z</time>
      </trkpt>
      <trkpt lat="48.70359" lon="5.55577">
        <ele>311.4</ele>
        <time>2020-06-29T18:17:50Z</time>
      </trkpt>
      <trkpt lat="48.70361" lon="5.55573">
        <ele>311.5</ele>
        <time>2020-06-29T18:17:51Z</time>
      </trkpt>
      <trkpt lat="48.70363" lon="5.55569">
        <ele>311.7</ele>
        <time>2020-06-29T18:17:52Z</time>
      </trkpt>
      <trkpt lat="48.70365" lon="5.55562">
        <ele>311.8</ele>
        <time>2020-06-29T18:17:53Z</time>
      </trkpt>
      <trkpt lat="48.70366" lon="5.5556">
        <ele>311.9</ele>
        <time>2020-06-29T18:17:54Z</time>
      </trkpt>
      <trkpt lat="48.70366" lon="5.55555">
        <ele>312</ele>
        <time>2020-06-29T18:17:55Z</time>
      </trkpt>
      <trkpt lat="48.70366" lon="5.5555">
        <ele>312.1</ele>
        <time>2020-06-29T18:17:56Z</time>
      </trkpt>
      <trkpt lat="48.70367" lon="5.55544">
        <ele>312.3</ele>
        <time>2020-06-29T18:17:57Z</time>
      </trkpt>
      <trkpt lat="48.70368" lon="5.55541">
        <ele>312.3</ele>
        <time>2020-06-29T18:17:58Z</time>
      </trkpt>
      <trkpt lat="48.70368" lon="5.55537">
        <ele>312.5</ele>
        <time>2020-06-29T18:17:59Z</time>
      </trkpt>
      <trkpt lat="48.70368" lon="5.55531">
        <ele>312.6</ele>
        <time>2020-06-29T18:18:00Z</time>
      </trkpt>
      <trkpt lat="48.70367" lon="5.5552">
        <ele>313</ele>
        <time>2020-06-29T18:18:01Z</time>
      </trkpt>
      <trkpt lat="48.70367" lon="5.55514">
        <ele>313.2</ele>
        <time>2020-06-29T18:18:02Z</time>
      </trkpt>
      <trkpt lat="48.70366" lon="5.55508">
        <ele>313.4</ele>
        <time>2020-06-29T18:18:03Z</time>
      </trkpt>
      <trkpt lat="48.70365" lon="5.55502">
        <ele>313.6</ele>
        <time>2020-06-29T18:18:04Z</time>
      </trkpt>
      <trkpt lat="48.70364" lon="5.55495">
        <ele>313.8</ele>
        <time>2020-06-29T18:18:05Z</time>
      </trkpt>
      <trkpt lat="48.70363" lon="5.55487">
        <ele>314.1</ele>
        <time>2020-06-29T18:18:06Z</time>
      </trkpt>
      <trkpt lat="48.70363" lon="5.55479">
        <ele>314.3</ele>
        <time>2020-06-29T18:18:07Z</time>
      </trkpt>
      <trkpt lat="48.70363" lon="5.55471">
        <ele>314.6</ele>
        <time>2020-06-29T18:18:08Z</time>
      </trkpt>
      <trkpt lat="48.70362" lon="5.55466">
        <ele>314.7</ele>
        <time>2020-06-29T18:18:09Z</time>
      </trkpt>
      <trkpt lat="48.70361" lon="5.55461">
        <ele>314.9</ele>
        <time>2020-06-29T18:18:10Z</time>
      </trkpt>
      <trkpt lat="48.7036" lon="5.55455">
        <ele>315.1</ele>
        <time>2020-06-29T18:18:11Z</time>
      </trkpt>
      <trkpt lat="48.7036" lon="5.5545">
        <ele>315.3</ele>
        <time>2020-06-29T18:18:12Z</time>
      </trkpt>
      <trkpt lat="48.7036" lon="5.55444">
        <ele>315.7</ele>
        <time>2020-06-29T18:18:13Z</time>
      </trkpt>
      <trkpt lat="48.70361" lon="5.55438">
        <ele>315.9</ele>
        <time>2020-06-29T18:18:14Z</time>
      </trkpt>
      <trkpt lat="48.70361" lon="5.55432">
        <ele>316.1</ele>
        <time>2020-06-29T18:18:15Z</time>
      </trkpt>
      <trkpt lat="48.7036" lon="5.55426">
        <ele>316.2</ele>
        <time>2020-06-29T18:18:16Z</time>
      </trkpt>
      <trkpt lat="48.7036" lon="5.55421">
        <ele>316.4</ele>
        <time>2020-06-29T18:18:17Z</time>
      </trkpt>
      <trkpt lat="48.7036" lon="5.55415">
        <ele>316.5</ele>
        <time>2020-06-29T18:18:18Z</time>
      </trkpt>
      <trkpt lat="48.70359" lon="5.5541">
        <ele>316.7</ele>
        <time>2020-06-29T18:18:19Z</time>
      </trkpt>
      <trkpt lat="48.70359" lon="5.55403">
        <ele>316.9</ele>
        <time>2020-06-29T18:18:20Z</time>
      </trkpt>
      <trkpt lat="48.70359" lon="5.55396">
        <ele>317.1</ele>
        <time>2020-06-29T18:18:21Z</time>
      </trkpt>
      <trkpt lat="48.70359" lon="5.55389">
        <ele>317.4</ele>
        <time>2020-06-29T18:18:22Z</time>
      </trkpt>
      <trkpt lat="48.70359" lon="5.55383">
        <ele>317.6</ele>
        <time>2020-06-29T18:18:23Z</time>
      </trkpt>
      <trkpt lat="48.7036" lon="5.55378">
        <ele>317.8</ele>
        <time>2020-06-29T18:18:24Z</time>
      </trkpt>
      <trkpt lat="48.70359" lon="5.55373">
        <ele>317.9</ele>
        <time>2020-06-29T18:18:25Z</time>
      </trkpt>
      <trkpt lat="48.70359" lon="5.55367">
        <ele>318.2</ele>
        <time>2020-06-29T18:18:26Z</time>
      </trkpt>
      <trkpt lat="48.7036" lon="5.55362">
        <ele>318.3</ele>
        <time>2020-06-29T18:18:27Z</time>
      </trkpt>
      <trkpt lat="48.70359" lon="5.55357">
        <ele>318.5</ele>
        <time>2020-06-29T18:18:28Z</time>
      </trkpt>
      <trkpt lat="48.70359" lon="5.55352">
        <ele>318.6</ele>
        <time>2020-06-29T18:18:29Z</time>
      </trkpt>
      <trkpt lat="48.7036" lon="5.55348">
        <ele>318.7</ele>
        <time>2020-06-29T18:18:30Z</time>
      </trkpt>
      <trkpt lat="48.70361" lon="5.55342">
        <ele>318.9</ele>
        <time>2020-06-29T18:18:31Z</time>
      </trkpt>
      <trkpt lat="48.70361" lon="5.55337">
        <ele>319</ele>
        <time>2020-06-29T18:18:32Z</time>
      </trkpt>
      <trkpt lat="48.7036" lon="5.55332">
        <ele>319.1</ele>
        <time>2020-06-29T18:18:33Z</time>
      </trkpt>
      <trkpt lat="48.7036" lon="5.55326">
        <ele>319.3</ele>
        <time>2020-06-29T18:18:34Z</time>
      </trkpt>
      <trkpt lat="48.7036" lon="5.5532">
        <ele>319.4</ele>
        <time>2020-06-29T18:18:35Z</time>
      </trkpt>
      <trkpt lat="48.7036" lon="5.55314">
        <ele>319.6</ele>
        <time>2020-06-29T18:18:36Z</time>
      </trkpt>
      <trkpt lat="48.7036" lon="5.55308">
        <ele>319.8</ele>
        <time>2020-06-29T18:18:37Z</time>
      </trkpt>
      <trkpt lat="48.7036" lon="5.55301">
        <ele>320</ele>
        <time>2020-06-29T18:18:38Z</time>
      </trkpt>
      <trkpt lat="48.7036" lon="5.55295">
        <ele>320.1</ele>
        <time>2020-06-29T18:18:39Z</time>
      </trkpt>
      <trkpt lat="48.7036" lon="5.55289">
        <ele>320.3</ele>
        <time>2020-06-29T18:18:40Z</time>
      </trkpt>
      <trkpt lat="48.7036" lon="5.55284">
        <ele>320.5</ele>
        <time>2020-06-29T18:18:41Z</time>
      </trkpt>
      <trkpt lat="48.7036" lon="5.55279">
        <ele>320.6</ele>
        <time>2020-06-29T18:18:42Z</time>
      </trkpt>
      <trkpt lat="48.70359" lon="5.55274">
        <ele>320.8</ele>
        <time>2020-06-29T18:18:43Z</time>
      </trkpt>
      <trkpt lat="48.70359" lon="5.55269">
        <ele>320.9</ele>
        <time>2020-06-29T18:18:44Z</time>
      </trkpt>
      <trkpt lat="48.70359" lon="5.55265">
        <ele>321</ele>
        <time>2020-06-29T18:18:45Z</time>
      </trkpt>
      <trkpt lat="48.70359" lon="5.5526">
        <ele>321.1</ele>
        <time>2020-06-29T18:18:46Z</time>
      </trkpt>
      <trkpt lat="48.70359" lon="5.55255">
        <ele>321.2</ele>
        <time>2020-06-29T18:18:47Z</time>
      </trkpt>
      <trkpt lat="48.70359" lon="5.55249">
        <ele>321.3</ele>
        <time>2020-06-29T18:18:48Z</time>
      </trkpt>
      <trkpt lat="48.70359" lon="5.55244">
        <ele>321.3</ele>
        <time>2020-06-29T18:18:49Z</time>
      </trkpt>
      <trkpt lat="48.70359" lon="5.55238">
        <ele>321.5</ele>
        <time>2020-06-29T18:18:50Z</time>
      </trkpt>
      <trkpt lat="48.70359" lon="5.55232">
        <ele>321.6</ele>
        <time>2020-06-29T18:18:51Z</time>
      </trkpt>
      <trkpt lat="48.70358" lon="5.55225">
        <ele>321.7</ele>
        <time>2020-06-29T18:18:52Z</time>
      </trkpt>
      <trkpt lat="48.70358" lon="5.55222">
        <ele>321.8</ele>
        <time>2020-06-29T18:18:53Z</time>
      </trkpt>
      <trkpt lat="48.70358" lon="5.55217">
        <ele>321.9</ele>
        <time>2020-06-29T18:18:54Z</time>
      </trkpt>
      <trkpt lat="48.70359" lon="5.55211">
        <ele>322</ele>
        <time>2020-06-29T18:18:55Z</time>
      </trkpt>
      <trkpt lat="48.70359" lon="5.55209">
        <ele>322.1</ele>
        <time>2020-06-29T18:18:56Z</time>
      </trkpt>
      <trkpt lat="48.70359" lon="5.55204">
        <ele>322.2</ele>
        <time>2020-06-29T18:18:57Z</time>
      </trkpt>
      <trkpt lat="48.7036" lon="5.55202">
        <ele>322.2</ele>
        <time>2020-06-29T18:18:58Z</time>
      </trkpt>
      <trkpt lat="48.7036" lon="5.552">
        <ele>322.2</ele>
        <time>2020-06-29T18:18:59Z</time>
      </trkpt>
      <trkpt lat="48.7036" lon="5.55198">
        <ele>322.2</ele>
        <time>2020-06-29T18:19:00Z</time>
      </trkpt>
      <trkpt lat="48.70359" lon="5.55198">
        <ele>322.2</ele>
        <time>2020-06-29T18:19:01Z</time>
      </trkpt>
      <trkpt lat="48.70359" lon="5.55199">
        <ele>322.3</ele>
        <time>2020-06-29T18:19:02Z</time>
      </trkpt>
      <trkpt lat="48.70359" lon="5.552">
        <ele>322.3</ele>
        <time>2020-06-29T18:19:03Z</time>
      </trkpt>
      <trkpt lat="48.70359" lon="5.552">
        <ele>322.3</ele>
        <time>2020-06-29T18:19:04Z</time>
      </trkpt>
      <trkpt lat="48.70359" lon="5.552">
        <ele>322.3</ele>
        <time>2020-06-29T18:19:05Z</time>
      </trkpt>
      <trkpt lat="48.70359" lon="5.552">
        <ele>322.3</ele>
        <time>2020-06-29T18:19:06Z</time>
      </trkpt>
      <trkpt lat="48.70359" lon="5.552">
        <ele>322.3</ele>
        <time>2020-06-29T18:19:07Z</time>
      </trkpt>
      <trkpt lat="48.70359" lon="5.552">
        <ele>322.3</ele>
        <time>2020-06-29T18:19:08Z</time>
      </trkpt>
      <trkpt lat="48.70359" lon="5.552">
        <ele>322.3</ele>
        <time>2020-06-29T18:19:09Z</time>
      </trkpt>
      <trkpt lat="48.70359" lon="5.552">
        <ele>322.3</ele>
        <time>2020-06-29T18:19:10Z</time>
      </trkpt>
      <trkpt lat="48.7036" lon="5.55193">
        <ele>322.4</ele>
        <time>2020-06-29T18:19:17Z</time>
      </trkpt>
      <trkpt lat="48.7036" lon="5.5519">
        <ele>322.4</ele>
        <time>2020-06-29T18:19:18Z</time>
      </trkpt>
      <trkpt lat="48.7036" lon="5.55183">
        <ele>322.5</ele>
        <time>2020-06-29T18:19:19Z</time>
      </trkpt>
      <trkpt lat="48.7036" lon="5.55181">
        <ele>322.5</ele>
        <time>2020-06-29T18:19:20Z</time>
      </trkpt>
      <trkpt lat="48.70361" lon="5.55175">
        <ele>322.6</ele>
        <time>2020-06-29T18:19:21Z</time>
      </trkpt>
      <trkpt lat="48.70361" lon="5.5517">
        <ele>322.6</ele>
        <time>2020-06-29T18:19:22Z</time>
      </trkpt>
      <trkpt lat="48.70361" lon="5.55165">
        <ele>322.7</ele>
        <time>2020-06-29T18:19:23Z</time>
      </trkpt>
      <trkpt lat="48.70361" lon="5.5516">
        <ele>322.7</ele>
        <time>2020-06-29T18:19:24Z</time>
      </trkpt>
      <trkpt lat="48.70361" lon="5.55155">
        <ele>322.8</ele>
        <time>2020-06-29T18:19:25Z</time>
      </trkpt>
      <trkpt lat="48.7036" lon="5.5515">
        <ele>322.8</ele>
        <time>2020-06-29T18:19:26Z</time>
      </trkpt>
      <trkpt lat="48.70359" lon="5.55143">
        <ele>322.8</ele>
        <time>2020-06-29T18:19:27Z</time>
      </trkpt>
      <trkpt lat="48.70359" lon="5.55137">
        <ele>322.8</ele>
        <time>2020-06-29T18:19:28Z</time>
      </trkpt>
      <trkpt lat="48.70358" lon="5.55131">
        <ele>322.8</ele>
        <time>2020-06-29T18:19:29Z</time>
      </trkpt>
      <trkpt lat="48.70357" lon="5.55124">
        <ele>322.8</ele>
        <time>2020-06-29T18:19:30Z</time>
      </trkpt>
      <trkpt lat="48.70356" lon="5.55117">
        <ele>322.8</ele>
        <time>2020-06-29T18:19:31Z</time>
      </trkpt>
      <trkpt lat="48.70355" lon="5.5511">
        <ele>322.8</ele>
        <time>2020-06-29T18:19:32Z</time>
      </trkpt>
      <trkpt lat="48.70355" lon="5.55102">
        <ele>322.8</ele>
        <time>2020-06-29T18:19:33Z</time>
      </trkpt>
      <trkpt lat="48.70355" lon="5.55094">
        <ele>322.8</ele>
        <time>2020-06-29T18:19:34Z</time>
      </trkpt>
      <trkpt lat="48.70354" lon="5.55087">
        <ele>322.8</ele>
        <time>2020-06-29T18:19:35Z</time>
      </trkpt>
      <trkpt lat="48.70353" lon="5.55079">
        <ele>322.8</ele>
        <time>2020-06-29T18:19:36Z</time>
      </trkpt>
      <trkpt lat="48.70351" lon="5.55072">
        <ele>322.8</ele>
        <time>2020-06-29T18:19:37Z</time>
      </trkpt>
      <trkpt lat="48.7035" lon="5.55064">
        <ele>323.3</ele>
        <time>2020-06-29T18:19:38Z</time>
      </trkpt>
      <trkpt lat="48.70349" lon="5.55056">
        <ele>323.5</ele>
        <time>2020-06-29T18:19:39Z</time>
      </trkpt>
      <trkpt lat="48.70348" lon="5.55048">
        <ele>323.5</ele>
        <time>2020-06-29T18:19:40Z</time>
      </trkpt>
      <trkpt lat="48.70347" lon="5.55041">
        <ele>323.4</ele>
        <time>2020-06-29T18:19:41Z</time>
      </trkpt>
      <trkpt lat="48.70346" lon="5.55032">
        <ele>323.3</ele>
        <time>2020-06-29T18:19:42Z</time>
      </trkpt>
      <trkpt lat="48.70344" lon="5.55024">
        <ele>323.1</ele>
        <time>2020-06-29T18:19:43Z</time>
      </trkpt>
      <trkpt lat="48.70342" lon="5.55016">
        <ele>323</ele>
        <time>2020-06-29T18:19:44Z</time>
      </trkpt>
      <trkpt lat="48.7034" lon="5.55008">
        <ele>322.9</ele>
        <time>2020-06-29T18:19:45Z</time>
      </trkpt>
      <trkpt lat="48.70339" lon="5.55001">
        <ele>322.8</ele>
        <time>2020-06-29T18:19:46Z</time>
      </trkpt>
      <trkpt lat="48.70337" lon="5.54993">
        <ele>322.7</ele>
        <time>2020-06-29T18:19:47Z</time>
      </trkpt>
      <trkpt lat="48.70335" lon="5.54984">
        <ele>322.6</ele>
        <time>2020-06-29T18:19:48Z</time>
      </trkpt>
      <trkpt lat="48.70334" lon="5.54976">
        <ele>322.6</ele>
        <time>2020-06-29T18:19:49Z</time>
      </trkpt>
      <trkpt lat="48.70332" lon="5.54968">
        <ele>322.5</ele>
        <time>2020-06-29T18:19:50Z</time>
      </trkpt>
      <trkpt lat="48.7033" lon="5.54961">
        <ele>322.4</ele>
        <time>2020-06-29T18:19:51Z</time>
      </trkpt>
      <trkpt lat="48.70329" lon="5.54953">
        <ele>322.3</ele>
        <time>2020-06-29T18:19:52Z</time>
      </trkpt>
      <trkpt lat="48.70327" lon="5.54944">
        <ele>322.2</ele>
        <time>2020-06-29T18:19:53Z</time>
      </trkpt>
      <trkpt lat="48.70326" lon="5.54935">
        <ele>322.2</ele>
        <time>2020-06-29T18:19:54Z</time>
      </trkpt>
      <trkpt lat="48.70325" lon="5.54927">
        <ele>322.2</ele>
        <time>2020-06-29T18:19:55Z</time>
      </trkpt>
      <trkpt lat="48.70323" lon="5.54918">
        <ele>322.2</ele>
        <time>2020-06-29T18:19:56Z</time>
      </trkpt>
      <trkpt lat="48.70322" lon="5.54911">
        <ele>322.1</ele>
        <time>2020-06-29T18:19:57Z</time>
      </trkpt>
      <trkpt lat="48.70321" lon="5.54903">
        <ele>322.1</ele>
        <time>2020-06-29T18:19:58Z</time>
      </trkpt>
      <trkpt lat="48.70319" lon="5.54895">
        <ele>322</ele>
        <time>2020-06-29T18:19:59Z</time>
      </trkpt>
      <trkpt lat="48.70318" lon="5.54887">
        <ele>321.9</ele>
        <time>2020-06-29T18:20:00Z</time>
      </trkpt>
      <trkpt lat="48.70317" lon="5.5488">
        <ele>321.8</ele>
        <time>2020-06-29T18:20:01Z</time>
      </trkpt>
      <trkpt lat="48.70315" lon="5.54872">
        <ele>321.8</ele>
        <time>2020-06-29T18:20:02Z</time>
      </trkpt>
      <trkpt lat="48.70314" lon="5.54865">
        <ele>321.7</ele>
        <time>2020-06-29T18:20:03Z</time>
      </trkpt>
      <trkpt lat="48.70313" lon="5.54858">
        <ele>321.7</ele>
        <time>2020-06-29T18:20:04Z</time>
      </trkpt>
      <trkpt lat="48.70312" lon="5.54851">
        <ele>321.6</ele>
        <time>2020-06-29T18:20:05Z</time>
      </trkpt>
      <trkpt lat="48.7031" lon="5.54843">
        <ele>321.6</ele>
        <time>2020-06-29T18:20:06Z</time>
      </trkpt>
      <trkpt lat="48.70309" lon="5.54835">
        <ele>321.5</ele>
        <time>2020-06-29T18:20:07Z</time>
      </trkpt>
      <trkpt lat="48.70307" lon="5.54828">
        <ele>321.5</ele>
        <time>2020-06-29T18:20:08Z</time>
      </trkpt>
      <trkpt lat="48.70304" lon="5.54821">
        <ele>321.5</ele>
        <time>2020-06-29T18:20:09Z</time>
      </trkpt>
      <trkpt lat="48.70303" lon="5.54813">
        <ele>321.5</ele>
        <time>2020-06-29T18:20:10Z</time>
      </trkpt>
      <trkpt lat="48.70302" lon="5.54805">
        <ele>321.5</ele>
        <time>2020-06-29T18:20:11Z</time>
      </trkpt>
      <trkpt lat="48.703" lon="5.54797">
        <ele>321.5</ele>
        <time>2020-06-29T18:20:12Z</time>
      </trkpt>
      <trkpt lat="48.70299" lon="5.5479">
        <ele>321.5</ele>
        <time>2020-06-29T18:20:13Z</time>
      </trkpt>
      <trkpt lat="48.70297" lon="5.54782">
        <ele>321.5</ele>
        <time>2020-06-29T18:20:14Z</time>
      </trkpt>
      <trkpt lat="48.70295" lon="5.54774">
        <ele>321.5</ele>
        <time>2020-06-29T18:20:15Z</time>
      </trkpt>
      <trkpt lat="48.70294" lon="5.54767">
        <ele>321.5</ele>
        <time>2020-06-29T18:20:16Z</time>
      </trkpt>
      <trkpt lat="48.70292" lon="5.54759">
        <ele>321.5</ele>
        <time>2020-06-29T18:20:17Z</time>
      </trkpt>
      <trkpt lat="48.70291" lon="5.54751">
        <ele>321.5</ele>
        <time>2020-06-29T18:20:18Z</time>
      </trkpt>
      <trkpt lat="48.7029" lon="5.54744">
        <ele>321.4</ele>
        <time>2020-06-29T18:20:19Z</time>
      </trkpt>
      <trkpt lat="48.70288" lon="5.54736">
        <ele>321.3</ele>
        <time>2020-06-29T18:20:20Z</time>
      </trkpt>
      <trkpt lat="48.70286" lon="5.54728">
        <ele>321.3</ele>
        <time>2020-06-29T18:20:21Z</time>
      </trkpt>
      <trkpt lat="48.70285" lon="5.5472">
        <ele>321.2</ele>
        <time>2020-06-29T18:20:22Z</time>
      </trkpt>
      <trkpt lat="48.70283" lon="5.54712">
        <ele>321.1</ele>
        <time>2020-06-29T18:20:23Z</time>
      </trkpt>
      <trkpt lat="48.70282" lon="5.54704">
        <ele>321</ele>
        <time>2020-06-29T18:20:24Z</time>
      </trkpt>
      <trkpt lat="48.70281" lon="5.54696">
        <ele>320.9</ele>
        <time>2020-06-29T18:20:25Z</time>
      </trkpt>
      <trkpt lat="48.7028" lon="5.54687">
        <ele>320.8</ele>
        <time>2020-06-29T18:20:26Z</time>
      </trkpt>
      <trkpt lat="48.70279" lon="5.5468">
        <ele>320.7</ele>
        <time>2020-06-29T18:20:27Z</time>
      </trkpt>
      <trkpt lat="48.70278" lon="5.54673">
        <ele>320.6</ele>
        <time>2020-06-29T18:20:28Z</time>
      </trkpt>
      <trkpt lat="48.70276" lon="5.54665">
        <ele>320.6</ele>
        <time>2020-06-29T18:20:29Z</time>
      </trkpt>
      <trkpt lat="48.70274" lon="5.54656">
        <ele>320.6</ele>
        <time>2020-06-29T18:20:30Z</time>
      </trkpt>
      <trkpt lat="48.70273" lon="5.54649">
        <ele>320.5</ele>
        <time>2020-06-29T18:20:31Z</time>
      </trkpt>
      <trkpt lat="48.70271" lon="5.5464">
        <ele>320.5</ele>
        <time>2020-06-29T18:20:32Z</time>
      </trkpt>
      <trkpt lat="48.70269" lon="5.54632">
        <ele>320.4</ele>
        <time>2020-06-29T18:20:33Z</time>
      </trkpt>
      <trkpt lat="48.70268" lon="5.54624">
        <ele>320.2</ele>
        <time>2020-06-29T18:20:34Z</time>
      </trkpt>
      <trkpt lat="48.70266" lon="5.54614">
        <ele>320.1</ele>
        <time>2020-06-29T18:20:35Z</time>
      </trkpt>
      <trkpt lat="48.70265" lon="5.54605">
        <ele>320.6</ele>
        <time>2020-06-29T18:20:36Z</time>
      </trkpt>
      <trkpt lat="48.70263" lon="5.54597">
        <ele>321</ele>
        <time>2020-06-29T18:20:37Z</time>
      </trkpt>
      <trkpt lat="48.70261" lon="5.54588">
        <ele>321.1</ele>
        <time>2020-06-29T18:20:38Z</time>
      </trkpt>
      <trkpt lat="48.7026" lon="5.54579">
        <ele>321.2</ele>
        <time>2020-06-29T18:20:39Z</time>
      </trkpt>
      <trkpt lat="48.70257" lon="5.54569">
        <ele>321.1</ele>
        <time>2020-06-29T18:20:40Z</time>
      </trkpt>
      <trkpt lat="48.70255" lon="5.54559">
        <ele>321.1</ele>
        <time>2020-06-29T18:20:41Z</time>
      </trkpt>
      <trkpt lat="48.70253" lon="5.54551">
        <ele>321</ele>
        <time>2020-06-29T18:20:42Z</time>
      </trkpt>
      <trkpt lat="48.70251" lon="5.54544">
        <ele>321</ele>
        <time>2020-06-29T18:20:43Z</time>
      </trkpt>
      <trkpt lat="48.70248" lon="5.54535">
        <ele>320.9</ele>
        <time>2020-06-29T18:20:44Z</time>
      </trkpt>
      <trkpt lat="48.70246" lon="5.54526">
        <ele>320.8</ele>
        <time>2020-06-29T18:20:45Z</time>
      </trkpt>
      <trkpt lat="48.70246" lon="5.54517">
        <ele>320.7</ele>
        <time>2020-06-29T18:20:46Z</time>
      </trkpt>
      <trkpt lat="48.70245" lon="5.54511">
        <ele>320.7</ele>
        <time>2020-06-29T18:20:47Z</time>
      </trkpt>
      <trkpt lat="48.70244" lon="5.54505">
        <ele>320.6</ele>
        <time>2020-06-29T18:20:48Z</time>
      </trkpt>
      <trkpt lat="48.70244" lon="5.54497">
        <ele>320.4</ele>
        <time>2020-06-29T18:20:49Z</time>
      </trkpt>
      <trkpt lat="48.70243" lon="5.54491">
        <ele>320.3</ele>
        <time>2020-06-29T18:20:50Z</time>
      </trkpt>
      <trkpt lat="48.70242" lon="5.54484">
        <ele>320.2</ele>
        <time>2020-06-29T18:20:51Z</time>
      </trkpt>
      <trkpt lat="48.70242" lon="5.54475">
        <ele>320</ele>
        <time>2020-06-29T18:20:52Z</time>
      </trkpt>
      <trkpt lat="48.70241" lon="5.54469">
        <ele>319.8</ele>
        <time>2020-06-29T18:20:53Z</time>
      </trkpt>
      <trkpt lat="48.70241" lon="5.54462">
        <ele>319.6</ele>
        <time>2020-06-29T18:20:54Z</time>
      </trkpt>
      <trkpt lat="48.70241" lon="5.54453">
        <ele>319.3</ele>
        <time>2020-06-29T18:20:55Z</time>
      </trkpt>
      <trkpt lat="48.70241" lon="5.54444">
        <ele>318.9</ele>
        <time>2020-06-29T18:20:56Z</time>
      </trkpt>
      <trkpt lat="48.70241" lon="5.54435">
        <ele>318.5</ele>
        <time>2020-06-29T18:20:57Z</time>
      </trkpt>
      <trkpt lat="48.7024" lon="5.54429">
        <ele>318.2</ele>
        <time>2020-06-29T18:20:58Z</time>
      </trkpt>
      <trkpt lat="48.7024" lon="5.54421">
        <ele>317.9</ele>
        <time>2020-06-29T18:20:59Z</time>
      </trkpt>
      <trkpt lat="48.7024" lon="5.54411">
        <ele>317.5</ele>
        <time>2020-06-29T18:21:00Z</time>
      </trkpt>
      <trkpt lat="48.7024" lon="5.544">
        <ele>317.2</ele>
        <time>2020-06-29T18:21:01Z</time>
      </trkpt>
      <trkpt lat="48.7024" lon="5.54389">
        <ele>316.8</ele>
        <time>2020-06-29T18:21:02Z</time>
      </trkpt>
      <trkpt lat="48.7024" lon="5.5438">
        <ele>316.5</ele>
        <time>2020-06-29T18:21:03Z</time>
      </trkpt>
      <trkpt lat="48.70239" lon="5.54371">
        <ele>316.2</ele>
        <time>2020-06-29T18:21:04Z</time>
      </trkpt>
      <trkpt lat="48.70239" lon="5.54361">
        <ele>315.9</ele>
        <time>2020-06-29T18:21:05Z</time>
      </trkpt>
      <trkpt lat="48.7024" lon="5.54352">
        <ele>315.7</ele>
        <time>2020-06-29T18:21:06Z</time>
      </trkpt>
      <trkpt lat="48.70239" lon="5.54343">
        <ele>315.4</ele>
        <time>2020-06-29T18:21:07Z</time>
      </trkpt>
      <trkpt lat="48.70239" lon="5.54333">
        <ele>315.2</ele>
        <time>2020-06-29T18:21:08Z</time>
      </trkpt>
      <trkpt lat="48.70239" lon="5.54322">
        <ele>314.9</ele>
        <time>2020-06-29T18:21:09Z</time>
      </trkpt>
      <trkpt lat="48.70239" lon="5.54313">
        <ele>314.7</ele>
        <time>2020-06-29T18:21:10Z</time>
      </trkpt>
      <trkpt lat="48.70239" lon="5.54304">
        <ele>314.5</ele>
        <time>2020-06-29T18:21:11Z</time>
      </trkpt>
      <trkpt lat="48.70239" lon="5.54294">
        <ele>314.3</ele>
        <time>2020-06-29T18:21:12Z</time>
      </trkpt>
      <trkpt lat="48.70239" lon="5.54285">
        <ele>314.1</ele>
        <time>2020-06-29T18:21:13Z</time>
      </trkpt>
      <trkpt lat="48.70239" lon="5.54276">
        <ele>314</ele>
        <time>2020-06-29T18:21:14Z</time>
      </trkpt>
      <trkpt lat="48.70239" lon="5.54267">
        <ele>313.8</ele>
        <time>2020-06-29T18:21:15Z</time>
      </trkpt>
      <trkpt lat="48.70239" lon="5.54259">
        <ele>313.7</ele>
        <time>2020-06-29T18:21:16Z</time>
      </trkpt>
      <trkpt lat="48.70239" lon="5.54249">
        <ele>313.6</ele>
        <time>2020-06-29T18:21:17Z</time>
      </trkpt>
      <trkpt lat="48.7024" lon="5.54241">
        <ele>313.5</ele>
        <time>2020-06-29T18:21:18Z</time>
      </trkpt>
      <trkpt lat="48.7024" lon="5.54232">
        <ele>313.4</ele>
        <time>2020-06-29T18:21:19Z</time>
      </trkpt>
      <trkpt lat="48.70239" lon="5.54223">
        <ele>313.3</ele>
        <time>2020-06-29T18:21:20Z</time>
      </trkpt>
      <trkpt lat="48.70239" lon="5.54215">
        <ele>313.3</ele>
        <time>2020-06-29T18:21:21Z</time>
      </trkpt>
      <trkpt lat="48.70239" lon="5.54207">
        <ele>313.3</ele>
        <time>2020-06-29T18:21:22Z</time>
      </trkpt>
      <trkpt lat="48.70238" lon="5.54198">
        <ele>313.4</ele>
        <time>2020-06-29T18:21:23Z</time>
      </trkpt>
      <trkpt lat="48.70238" lon="5.5419">
        <ele>313.4</ele>
        <time>2020-06-29T18:21:24Z</time>
      </trkpt>
      <trkpt lat="48.70238" lon="5.54182">
        <ele>313.5</ele>
        <time>2020-06-29T18:21:25Z</time>
      </trkpt>
      <trkpt lat="48.70238" lon="5.54173">
        <ele>313.6</ele>
        <time>2020-06-29T18:21:26Z</time>
      </trkpt>
      <trkpt lat="48.70238" lon="5.54165">
        <ele>313.6</ele>
        <time>2020-06-29T18:21:27Z</time>
      </trkpt>
      <trkpt lat="48.70238" lon="5.54158">
        <ele>313.7</ele>
        <time>2020-06-29T18:21:28Z</time>
      </trkpt>
      <trkpt lat="48.70237" lon="5.5415">
        <ele>313.8</ele>
        <time>2020-06-29T18:21:29Z</time>
      </trkpt>
      <trkpt lat="48.70236" lon="5.54143">
        <ele>313.9</ele>
        <time>2020-06-29T18:21:30Z</time>
      </trkpt>
      <trkpt lat="48.70235" lon="5.54136">
        <ele>314</ele>
        <time>2020-06-29T18:21:31Z</time>
      </trkpt>
      <trkpt lat="48.70235" lon="5.5413">
        <ele>314.2</ele>
        <time>2020-06-29T18:21:32Z</time>
      </trkpt>
      <trkpt lat="48.70235" lon="5.54123">
        <ele>314.3</ele>
        <time>2020-06-29T18:21:33Z</time>
      </trkpt>
      <trkpt lat="48.70235" lon="5.54117">
        <ele>314.4</ele>
        <time>2020-06-29T18:21:34Z</time>
      </trkpt>
      <trkpt lat="48.70235" lon="5.5411">
        <ele>314.5</ele>
        <time>2020-06-29T18:21:35Z</time>
      </trkpt>
      <trkpt lat="48.70235" lon="5.54104">
        <ele>314.6</ele>
        <time>2020-06-29T18:21:36Z</time>
      </trkpt>
      <trkpt lat="48.70234" lon="5.54098">
        <ele>314.7</ele>
        <time>2020-06-29T18:21:37Z</time>
      </trkpt>
      <trkpt lat="48.70233" lon="5.54091">
        <ele>314.8</ele>
        <time>2020-06-29T18:21:38Z</time>
      </trkpt>
      <trkpt lat="48.70233" lon="5.54085">
        <ele>314.9</ele>
        <time>2020-06-29T18:21:39Z</time>
      </trkpt>
      <trkpt lat="48.70233" lon="5.54079">
        <ele>315</ele>
        <time>2020-06-29T18:21:40Z</time>
      </trkpt>
      <trkpt lat="48.70232" lon="5.54073">
        <ele>315.1</ele>
        <time>2020-06-29T18:21:41Z</time>
      </trkpt>
      <trkpt lat="48.70231" lon="5.54067">
        <ele>315.2</ele>
        <time>2020-06-29T18:21:42Z</time>
      </trkpt>
      <trkpt lat="48.7023" lon="5.54061">
        <ele>315.3</ele>
        <time>2020-06-29T18:21:43Z</time>
      </trkpt>
      <trkpt lat="48.70229" lon="5.54054">
        <ele>315.4</ele>
        <time>2020-06-29T18:21:44Z</time>
      </trkpt>
      <trkpt lat="48.70229" lon="5.54047">
        <ele>315.5</ele>
        <time>2020-06-29T18:21:45Z</time>
      </trkpt>
      <trkpt lat="48.70227" lon="5.5404">
        <ele>315.6</ele>
        <time>2020-06-29T18:21:46Z</time>
      </trkpt>
      <trkpt lat="48.70227" lon="5.54034">
        <ele>315.7</ele>
        <time>2020-06-29T18:21:47Z</time>
      </trkpt>
      <trkpt lat="48.70226" lon="5.54027">
        <ele>315.8</ele>
        <time>2020-06-29T18:21:48Z</time>
      </trkpt>
      <trkpt lat="48.70226" lon="5.5402">
        <ele>315.8</ele>
        <time>2020-06-29T18:21:49Z</time>
      </trkpt>
      <trkpt lat="48.70226" lon="5.54013">
        <ele>315.9</ele>
        <time>2020-06-29T18:21:50Z</time>
      </trkpt>
      <trkpt lat="48.70225" lon="5.54007">
        <ele>316</ele>
        <time>2020-06-29T18:21:51Z</time>
      </trkpt>
      <trkpt lat="48.70224" lon="5.54">
        <ele>316</ele>
        <time>2020-06-29T18:21:52Z</time>
      </trkpt>
      <trkpt lat="48.70223" lon="5.53994">
        <ele>316.1</ele>
        <time>2020-06-29T18:21:53Z</time>
      </trkpt>
      <trkpt lat="48.70223" lon="5.53989">
        <ele>316.1</ele>
        <time>2020-06-29T18:21:54Z</time>
      </trkpt>
      <trkpt lat="48.70223" lon="5.53983">
        <ele>316.1</ele>
        <time>2020-06-29T18:21:55Z</time>
      </trkpt>
      <trkpt lat="48.70223" lon="5.53977">
        <ele>316.2</ele>
        <time>2020-06-29T18:21:56Z</time>
      </trkpt>
      <trkpt lat="48.70222" lon="5.53971">
        <ele>316.1</ele>
        <time>2020-06-29T18:21:57Z</time>
      </trkpt>
      <trkpt lat="48.70222" lon="5.53965">
        <ele>316.1</ele>
        <time>2020-06-29T18:21:58Z</time>
      </trkpt>
      <trkpt lat="48.70222" lon="5.53959">
        <ele>316</ele>
        <time>2020-06-29T18:21:59Z</time>
      </trkpt>
      <trkpt lat="48.70222" lon="5.53952">
        <ele>316</ele>
        <time>2020-06-29T18:22:00Z</time>
      </trkpt>
      <trkpt lat="48.70222" lon="5.53946">
        <ele>315.9</ele>
        <time>2020-06-29T18:22:01Z</time>
      </trkpt>
      <trkpt lat="48.70222" lon="5.53939">
        <ele>315.8</ele>
        <time>2020-06-29T18:22:02Z</time>
      </trkpt>
      <trkpt lat="48.70223" lon="5.53933">
        <ele>315.8</ele>
        <time>2020-06-29T18:22:03Z</time>
      </trkpt>
      <trkpt lat="48.70223" lon="5.53926">
        <ele>315.7</ele>
        <time>2020-06-29T18:22:04Z</time>
      </trkpt>
      <trkpt lat="48.70223" lon="5.53919">
        <ele>315.7</ele>
        <time>2020-06-29T18:22:05Z</time>
      </trkpt>
      <trkpt lat="48.70223" lon="5.53913">
        <ele>315.7</ele>
        <time>2020-06-29T18:22:06Z</time>
      </trkpt>
      <trkpt lat="48.70224" lon="5.53905">
        <ele>315.6</ele>
        <time>2020-06-29T18:22:07Z</time>
      </trkpt>
      <trkpt lat="48.70224" lon="5.53898">
        <ele>315.6</ele>
        <time>2020-06-29T18:22:08Z</time>
      </trkpt>
      <trkpt lat="48.70225" lon="5.53891">
        <ele>315.6</ele>
        <time>2020-06-29T18:22:09Z</time>
      </trkpt>
      <trkpt lat="48.70224" lon="5.53884">
        <ele>315.5</ele>
        <time>2020-06-29T18:22:10Z</time>
      </trkpt>
      <trkpt lat="48.70224" lon="5.53877">
        <ele>315.5</ele>
        <time>2020-06-29T18:22:11Z</time>
      </trkpt>
      <trkpt lat="48.70225" lon="5.5387">
        <ele>315.4</ele>
        <time>2020-06-29T18:22:12Z</time>
      </trkpt>
      <trkpt lat="48.70225" lon="5.53863">
        <ele>315.4</ele>
        <time>2020-06-29T18:22:13Z</time>
      </trkpt>
      <trkpt lat="48.70225" lon="5.53856">
        <ele>315.3</ele>
        <time>2020-06-29T18:22:14Z</time>
      </trkpt>
      <trkpt lat="48.70224" lon="5.5385">
        <ele>315.2</ele>
        <time>2020-06-29T18:22:15Z</time>
      </trkpt>
      <trkpt lat="48.70224" lon="5.53844">
        <ele>315.1</ele>
        <time>2020-06-29T18:22:16Z</time>
      </trkpt>
      <trkpt lat="48.70223" lon="5.53838">
        <ele>315</ele>
        <time>2020-06-29T18:22:17Z</time>
      </trkpt>
      <trkpt lat="48.70223" lon="5.53831">
        <ele>315</ele>
        <time>2020-06-29T18:22:18Z</time>
      </trkpt>
      <trkpt lat="48.70223" lon="5.53824">
        <ele>314.9</ele>
        <time>2020-06-29T18:22:19Z</time>
      </trkpt>
      <trkpt lat="48.70222" lon="5.53817">
        <ele>314.8</ele>
        <time>2020-06-29T18:22:20Z</time>
      </trkpt>
      <trkpt lat="48.70222" lon="5.53809">
        <ele>314.8</ele>
        <time>2020-06-29T18:22:21Z</time>
      </trkpt>
      <trkpt lat="48.70221" lon="5.53802">
        <ele>314.7</ele>
        <time>2020-06-29T18:22:22Z</time>
      </trkpt>
      <trkpt lat="48.70219" lon="5.53795">
        <ele>314.6</ele>
        <time>2020-06-29T18:22:23Z</time>
      </trkpt>
      <trkpt lat="48.70218" lon="5.53789">
        <ele>314.6</ele>
        <time>2020-06-29T18:22:24Z</time>
      </trkpt>
      <trkpt lat="48.70217" lon="5.53782">
        <ele>314.5</ele>
        <time>2020-06-29T18:22:25Z</time>
      </trkpt>
      <trkpt lat="48.70216" lon="5.53776">
        <ele>314.4</ele>
        <time>2020-06-29T18:22:26Z</time>
      </trkpt>
      <trkpt lat="48.70215" lon="5.5377">
        <ele>314.4</ele>
        <time>2020-06-29T18:22:27Z</time>
      </trkpt>
      <trkpt lat="48.70213" lon="5.53764">
        <ele>314.3</ele>
        <time>2020-06-29T18:22:28Z</time>
      </trkpt>
      <trkpt lat="48.70211" lon="5.53759">
        <ele>314.2</ele>
        <time>2020-06-29T18:22:29Z</time>
      </trkpt>
      <trkpt lat="48.70211" lon="5.53753">
        <ele>314.2</ele>
        <time>2020-06-29T18:22:30Z</time>
      </trkpt>
      <trkpt lat="48.7021" lon="5.53747">
        <ele>314.1</ele>
        <time>2020-06-29T18:22:31Z</time>
      </trkpt>
      <trkpt lat="48.70209" lon="5.53742">
        <ele>314</ele>
        <time>2020-06-29T18:22:32Z</time>
      </trkpt>
      <trkpt lat="48.70208" lon="5.53736">
        <ele>314</ele>
        <time>2020-06-29T18:22:33Z</time>
      </trkpt>
      <trkpt lat="48.70207" lon="5.53729">
        <ele>313.9</ele>
        <time>2020-06-29T18:22:34Z</time>
      </trkpt>
      <trkpt lat="48.70206" lon="5.53722">
        <ele>313.8</ele>
        <time>2020-06-29T18:22:35Z</time>
      </trkpt>
      <trkpt lat="48.70205" lon="5.53715">
        <ele>313.7</ele>
        <time>2020-06-29T18:22:36Z</time>
      </trkpt>
      <trkpt lat="48.70204" lon="5.53708">
        <ele>313.6</ele>
        <time>2020-06-29T18:22:37Z</time>
      </trkpt>
      <trkpt lat="48.70203" lon="5.53701">
        <ele>313.5</ele>
        <time>2020-06-29T18:22:38Z</time>
      </trkpt>
      <trkpt lat="48.70202" lon="5.53693">
        <ele>313.4</ele>
        <time>2020-06-29T18:22:39Z</time>
      </trkpt>
      <trkpt lat="48.702" lon="5.53686">
        <ele>313.3</ele>
        <time>2020-06-29T18:22:40Z</time>
      </trkpt>
      <trkpt lat="48.70199" lon="5.53678">
        <ele>313.1</ele>
        <time>2020-06-29T18:22:41Z</time>
      </trkpt>
      <trkpt lat="48.70197" lon="5.5367">
        <ele>313</ele>
        <time>2020-06-29T18:22:42Z</time>
      </trkpt>
      <trkpt lat="48.70195" lon="5.53662">
        <ele>312.8</ele>
        <time>2020-06-29T18:22:43Z</time>
      </trkpt>
      <trkpt lat="48.70193" lon="5.53655">
        <ele>312.7</ele>
        <time>2020-06-29T18:22:44Z</time>
      </trkpt>
      <trkpt lat="48.70192" lon="5.53647">
        <ele>312.5</ele>
        <time>2020-06-29T18:22:45Z</time>
      </trkpt>
      <trkpt lat="48.7019" lon="5.5364">
        <ele>312.4</ele>
        <time>2020-06-29T18:22:46Z</time>
      </trkpt>
      <trkpt lat="48.70189" lon="5.53633">
        <ele>312.2</ele>
        <time>2020-06-29T18:22:47Z</time>
      </trkpt>
      <trkpt lat="48.70187" lon="5.53625">
        <ele>312.1</ele>
        <time>2020-06-29T18:22:48Z</time>
      </trkpt>
      <trkpt lat="48.70186" lon="5.53616">
        <ele>311.9</ele>
        <time>2020-06-29T18:22:49Z</time>
      </trkpt>
      <trkpt lat="48.70185" lon="5.53607">
        <ele>311.7</ele>
        <time>2020-06-29T18:22:50Z</time>
      </trkpt>
      <trkpt lat="48.70183" lon="5.53599">
        <ele>311.5</ele>
        <time>2020-06-29T18:22:51Z</time>
      </trkpt>
      <trkpt lat="48.70182" lon="5.53591">
        <ele>311.4</ele>
        <time>2020-06-29T18:22:52Z</time>
      </trkpt>
      <trkpt lat="48.70181" lon="5.53582">
        <ele>311.3</ele>
        <time>2020-06-29T18:22:53Z</time>
      </trkpt>
      <trkpt lat="48.70179" lon="5.53574">
        <ele>311.3</ele>
        <time>2020-06-29T18:22:54Z</time>
      </trkpt>
      <trkpt lat="48.70177" lon="5.53566">
        <ele>311.2</ele>
        <time>2020-06-29T18:22:55Z</time>
      </trkpt>
      <trkpt lat="48.70175" lon="5.53558">
        <ele>311.1</ele>
        <time>2020-06-29T18:22:56Z</time>
      </trkpt>
      <trkpt lat="48.70172" lon="5.5355">
        <ele>311</ele>
        <time>2020-06-29T18:22:57Z</time>
      </trkpt>
      <trkpt lat="48.7017" lon="5.53542">
        <ele>310.9</ele>
        <time>2020-06-29T18:22:58Z</time>
      </trkpt>
      <trkpt lat="48.70169" lon="5.53534">
        <ele>310.8</ele>
        <time>2020-06-29T18:22:59Z</time>
      </trkpt>
      <trkpt lat="48.70167" lon="5.53527">
        <ele>310.7</ele>
        <time>2020-06-29T18:23:00Z</time>
      </trkpt>
      <trkpt lat="48.70164" lon="5.5352">
        <ele>310.7</ele>
        <time>2020-06-29T18:23:01Z</time>
      </trkpt>
      <trkpt lat="48.70161" lon="5.53514">
        <ele>310.6</ele>
        <time>2020-06-29T18:23:02Z</time>
      </trkpt>
      <trkpt lat="48.70159" lon="5.53507">
        <ele>310.5</ele>
        <time>2020-06-29T18:23:03Z</time>
      </trkpt>
      <trkpt lat="48.70157" lon="5.53501">
        <ele>310.5</ele>
        <time>2020-06-29T18:23:04Z</time>
      </trkpt>
      <trkpt lat="48.70155" lon="5.53494">
        <ele>310.4</ele>
        <time>2020-06-29T18:23:05Z</time>
      </trkpt>
      <trkpt lat="48.70153" lon="5.53488">
        <ele>310.2</ele>
        <time>2020-06-29T18:23:06Z</time>
      </trkpt>
      <trkpt lat="48.7015" lon="5.53481">
        <ele>309.9</ele>
        <time>2020-06-29T18:23:07Z</time>
      </trkpt>
      <trkpt lat="48.70149" lon="5.53475">
        <ele>309.4</ele>
        <time>2020-06-29T18:23:08Z</time>
      </trkpt>
      <trkpt lat="48.70147" lon="5.53468">
        <ele>308.6</ele>
        <time>2020-06-29T18:23:09Z</time>
      </trkpt>
      <trkpt lat="48.70146" lon="5.53461">
        <ele>307.4</ele>
        <time>2020-06-29T18:23:10Z</time>
      </trkpt>
      <trkpt lat="48.70144" lon="5.53453">
        <ele>306.4</ele>
        <time>2020-06-29T18:23:11Z</time>
      </trkpt>
      <trkpt lat="48.70142" lon="5.53445">
        <ele>306.3</ele>
        <time>2020-06-29T18:23:12Z</time>
      </trkpt>
      <trkpt lat="48.70141" lon="5.53437">
        <ele>306.2</ele>
        <time>2020-06-29T18:23:13Z</time>
      </trkpt>
      <trkpt lat="48.70141" lon="5.53428">
        <ele>306.2</ele>
        <time>2020-06-29T18:23:14Z</time>
      </trkpt>
      <trkpt lat="48.70143" lon="5.53419">
        <ele>306.1</ele>
        <time>2020-06-29T18:23:15Z</time>
      </trkpt>
      <trkpt lat="48.70145" lon="5.53412">
        <ele>306.1</ele>
        <time>2020-06-29T18:23:16Z</time>
      </trkpt>
      <trkpt lat="48.70149" lon="5.53406">
        <ele>306.2</ele>
        <time>2020-06-29T18:23:17Z</time>
      </trkpt>
      <trkpt lat="48.70152" lon="5.534">
        <ele>306.2</ele>
        <time>2020-06-29T18:23:18Z</time>
      </trkpt>
      <trkpt lat="48.70157" lon="5.53395">
        <ele>306.2</ele>
        <time>2020-06-29T18:23:19Z</time>
      </trkpt>
      <trkpt lat="48.70161" lon="5.5339">
        <ele>306.3</ele>
        <time>2020-06-29T18:23:20Z</time>
      </trkpt>
      <trkpt lat="48.70165" lon="5.53384">
        <ele>306.3</ele>
        <time>2020-06-29T18:23:21Z</time>
      </trkpt>
      <trkpt lat="48.7017" lon="5.53381">
        <ele>306.3</ele>
        <time>2020-06-29T18:23:22Z</time>
      </trkpt>
      <trkpt lat="48.70174" lon="5.53376">
        <ele>306.3</ele>
        <time>2020-06-29T18:23:23Z</time>
      </trkpt>
      <trkpt lat="48.70179" lon="5.53372">
        <ele>306.4</ele>
        <time>2020-06-29T18:23:24Z</time>
      </trkpt>
      <trkpt lat="48.70183" lon="5.53368">
        <ele>306.4</ele>
        <time>2020-06-29T18:23:25Z</time>
      </trkpt>
      <trkpt lat="48.70187" lon="5.53363">
        <ele>306.4</ele>
        <time>2020-06-29T18:23:26Z</time>
      </trkpt>
      <trkpt lat="48.70192" lon="5.53359">
        <ele>306.4</ele>
        <time>2020-06-29T18:23:27Z</time>
      </trkpt>
      <trkpt lat="48.70197" lon="5.53355">
        <ele>306.5</ele>
        <time>2020-06-29T18:23:28Z</time>
      </trkpt>
      <trkpt lat="48.70201" lon="5.53351">
        <ele>306.5</ele>
        <time>2020-06-29T18:23:29Z</time>
      </trkpt>
      <trkpt lat="48.70206" lon="5.53348">
        <ele>306.5</ele>
        <time>2020-06-29T18:23:30Z</time>
      </trkpt>
      <trkpt lat="48.70211" lon="5.53343">
        <ele>306.5</ele>
        <time>2020-06-29T18:23:31Z</time>
      </trkpt>
      <trkpt lat="48.70215" lon="5.5334">
        <ele>306.6</ele>
        <time>2020-06-29T18:23:32Z</time>
      </trkpt>
      <trkpt lat="48.7022" lon="5.53337">
        <ele>306.6</ele>
        <time>2020-06-29T18:23:33Z</time>
      </trkpt>
      <trkpt lat="48.70225" lon="5.53333">
        <ele>306.6</ele>
        <time>2020-06-29T18:23:34Z</time>
      </trkpt>
      <trkpt lat="48.70229" lon="5.53331">
        <ele>306.7</ele>
        <time>2020-06-29T18:23:35Z</time>
      </trkpt>
      <trkpt lat="48.70234" lon="5.53327">
        <ele>306.7</ele>
        <time>2020-06-29T18:23:36Z</time>
      </trkpt>
      <trkpt lat="48.70238" lon="5.53322">
        <ele>306.7</ele>
        <time>2020-06-29T18:23:37Z</time>
      </trkpt>
      <trkpt lat="48.70242" lon="5.53318">
        <ele>306.7</ele>
        <time>2020-06-29T18:23:38Z</time>
      </trkpt>
      <trkpt lat="48.70246" lon="5.53314">
        <ele>306.7</ele>
        <time>2020-06-29T18:23:39Z</time>
      </trkpt>
      <trkpt lat="48.7025" lon="5.53311">
        <ele>306.8</ele>
        <time>2020-06-29T18:23:40Z</time>
      </trkpt>
      <trkpt lat="48.70255" lon="5.53309">
        <ele>306.8</ele>
        <time>2020-06-29T18:23:41Z</time>
      </trkpt>
      <trkpt lat="48.70259" lon="5.53305">
        <ele>306.9</ele>
        <time>2020-06-29T18:23:42Z</time>
      </trkpt>
      <trkpt lat="48.70263" lon="5.53302">
        <ele>307</ele>
        <time>2020-06-29T18:23:43Z</time>
      </trkpt>
      <trkpt lat="48.70267" lon="5.53299">
        <ele>307</ele>
        <time>2020-06-29T18:23:44Z</time>
      </trkpt>
      <trkpt lat="48.7027" lon="5.53296">
        <ele>307.1</ele>
        <time>2020-06-29T18:23:45Z</time>
      </trkpt>
      <trkpt lat="48.70273" lon="5.53293">
        <ele>307.1</ele>
        <time>2020-06-29T18:23:46Z</time>
      </trkpt>
      <trkpt lat="48.70276" lon="5.5329">
        <ele>307.2</ele>
        <time>2020-06-29T18:23:47Z</time>
      </trkpt>
      <trkpt lat="48.70279" lon="5.53288">
        <ele>307.2</ele>
        <time>2020-06-29T18:23:48Z</time>
      </trkpt>
      <trkpt lat="48.70282" lon="5.53286">
        <ele>307.2</ele>
        <time>2020-06-29T18:23:49Z</time>
      </trkpt>
      <trkpt lat="48.70285" lon="5.53283">
        <ele>312.5</ele>
        <time>2020-06-29T18:23:50Z</time>
      </trkpt>
      <trkpt lat="48.70285" lon="5.53282">
        <ele>312.6</ele>
        <time>2020-06-29T18:23:51Z</time>
      </trkpt>
      <trkpt lat="48.70289" lon="5.5328">
        <ele>312.9</ele>
        <time>2020-06-29T18:23:52Z</time>
      </trkpt>
      <trkpt lat="48.7029" lon="5.5328">
        <ele>313</ele>
        <time>2020-06-29T18:23:53Z</time>
      </trkpt>
      <trkpt lat="48.70293" lon="5.5328">
        <ele>313.3</ele>
        <time>2020-06-29T18:23:54Z</time>
      </trkpt>
      <trkpt lat="48.70294" lon="5.53281">
        <ele>313.5</ele>
        <time>2020-06-29T18:23:55Z</time>
      </trkpt>
      <trkpt lat="48.70295" lon="5.53279">
        <ele>313.5</ele>
        <time>2020-06-29T18:23:56Z</time>
      </trkpt>
      <trkpt lat="48.70296" lon="5.53279">
        <ele>313.5</ele>
        <time>2020-06-29T18:23:57Z</time>
      </trkpt>
      <trkpt lat="48.70297" lon="5.53278">
        <ele>313.5</ele>
        <time>2020-06-29T18:23:58Z</time>
      </trkpt>
      <trkpt lat="48.70299" lon="5.53278">
        <ele>313.6</ele>
        <time>2020-06-29T18:23:59Z</time>
      </trkpt>
      <trkpt lat="48.703" lon="5.53278">
        <ele>313.6</ele>
        <time>2020-06-29T18:24:00Z</time>
      </trkpt>
      <trkpt lat="48.70301" lon="5.53278">
        <ele>313.6</ele>
        <time>2020-06-29T18:24:01Z</time>
      </trkpt>
      <trkpt lat="48.70301" lon="5.53279">
        <ele>313.7</ele>
        <time>2020-06-29T18:24:02Z</time>
      </trkpt>
      <trkpt lat="48.70302" lon="5.53282">
        <ele>313.7</ele>
        <time>2020-06-29T18:24:03Z</time>
      </trkpt>
      <trkpt lat="48.70302" lon="5.53281">
        <ele>313.7</ele>
        <time>2020-06-29T18:24:04Z</time>
      </trkpt>
      <trkpt lat="48.70303" lon="5.5328">
        <ele>313.7</ele>
        <time>2020-06-29T18:24:05Z</time>
      </trkpt>
      <trkpt lat="48.70303" lon="5.53282">
        <ele>313.8</ele>
        <time>2020-06-29T18:24:06Z</time>
      </trkpt>
      <trkpt lat="48.70303" lon="5.53282">
        <ele>313.8</ele>
        <time>2020-06-29T18:24:07Z</time>
      </trkpt>
      <trkpt lat="48.70303" lon="5.53282">
        <ele>313.8</ele>
        <time>2020-06-29T18:24:08Z</time>
      </trkpt>
      <trkpt lat="48.70303" lon="5.53281">
        <ele>313.8</ele>
        <time>2020-06-29T18:24:09Z</time>
      </trkpt>
      <trkpt lat="48.70303" lon="5.5328">
        <ele>313.8</ele>
        <time>2020-06-29T18:24:10Z</time>
      </trkpt>
      <trkpt lat="48.70303" lon="5.5328">
        <ele>313.8</ele>
        <time>2020-06-29T18:24:11Z</time>
      </trkpt>
      <trkpt lat="48.70303" lon="5.5328">
        <ele>313.8</ele>
        <time>2020-06-29T18:24:12Z</time>
      </trkpt>
      <trkpt lat="48.70303" lon="5.53281">
        <ele>313.9</ele>
        <time>2020-06-29T18:24:13Z</time>
      </trkpt>
      <trkpt lat="48.70303" lon="5.53282">
        <ele>313.9</ele>
        <time>2020-06-29T18:24:14Z</time>
      </trkpt>
      <trkpt lat="48.70303" lon="5.53283">
        <ele>313.9</ele>
        <time>2020-06-29T18:24:15Z</time>
      </trkpt>
      <trkpt lat="48.70304" lon="5.53283">
        <ele>314</ele>
        <time>2020-06-29T18:24:16Z</time>
      </trkpt>
      <trkpt lat="48.70304" lon="5.53283">
        <ele>314</ele>
        <time>2020-06-29T18:24:17Z</time>
      </trkpt>
      <trkpt lat="48.70304" lon="5.53282">
        <ele>314</ele>
        <time>2020-06-29T18:24:18Z</time>
      </trkpt>
      <trkpt lat="48.70304" lon="5.5328">
        <ele>314</ele>
        <time>2020-06-29T18:24:19Z</time>
      </trkpt>
      <trkpt lat="48.70303" lon="5.5328">
        <ele>314.1</ele>
        <time>2020-06-29T18:24:20Z</time>
      </trkpt>
      <trkpt lat="48.70303" lon="5.53281">
        <ele>314.1</ele>
        <time>2020-06-29T18:24:21Z</time>
      </trkpt>
      <trkpt lat="48.70303" lon="5.53281">
        <ele>314.1</ele>
        <time>2020-06-29T18:24:22Z</time>
      </trkpt>
      <trkpt lat="48.70303" lon="5.53281">
        <ele>314.1</ele>
        <time>2020-06-29T18:24:23Z</time>
      </trkpt>
      <trkpt lat="48.70303" lon="5.53281">
        <ele>314.1</ele>
        <time>2020-06-29T18:24:24Z</time>
      </trkpt>
      <trkpt lat="48.70303" lon="5.53281">
        <ele>314.1</ele>
        <time>2020-06-29T18:24:25Z</time>
      </trkpt>
      <trkpt lat="48.70303" lon="5.53281">
        <ele>314.1</ele>
        <time>2020-06-29T18:24:26Z</time>
      </trkpt>
      <trkpt lat="48.70303" lon="5.53281">
        <ele>314.1</ele>
        <time>2020-06-29T18:24:27Z</time>
      </trkpt>
      <trkpt lat="48.70303" lon="5.53281">
        <ele>314.1</ele>
        <time>2020-06-29T18:24:28Z</time>
      </trkpt>
      <trkpt lat="48.70309" lon="5.53278">
        <ele>314.4</ele>
        <time>2020-06-29T18:25:52Z</time>
      </trkpt>
      <trkpt lat="48.7031" lon="5.53276">
        <ele>314.4</ele>
        <time>2020-06-29T18:25:53Z</time>
      </trkpt>
      <trkpt lat="48.7031" lon="5.53275">
        <ele>314.4</ele>
        <time>2020-06-29T18:25:54Z</time>
      </trkpt>
      <trkpt lat="48.7031" lon="5.53274">
        <ele>314.4</ele>
        <time>2020-06-29T18:25:55Z</time>
      </trkpt>
      <trkpt lat="48.7031" lon="5.53274">
        <ele>314.5</ele>
        <time>2020-06-29T18:25:56Z</time>
      </trkpt>
      <trkpt lat="48.7031" lon="5.53277">
        <ele>314.5</ele>
        <time>2020-06-29T18:25:57Z</time>
      </trkpt>
      <trkpt lat="48.7031" lon="5.53278">
        <ele>314.5</ele>
        <time>2020-06-29T18:25:58Z</time>
      </trkpt>
      <trkpt lat="48.7031" lon="5.53278">
        <ele>314.6</ele>
        <time>2020-06-29T18:25:59Z</time>
      </trkpt>
      <trkpt lat="48.70309" lon="5.53277">
        <ele>314.6</ele>
        <time>2020-06-29T18:26:00Z</time>
      </trkpt>
      <trkpt lat="48.70309" lon="5.53277">
        <ele>314.6</ele>
        <time>2020-06-29T18:26:01Z</time>
      </trkpt>
      <trkpt lat="48.70308" lon="5.53277">
        <ele>314.6</ele>
        <time>2020-06-29T18:26:02Z</time>
      </trkpt>
      <trkpt lat="48.70308" lon="5.53278">
        <ele>314.6</ele>
        <time>2020-06-29T18:26:03Z</time>
      </trkpt>
      <trkpt lat="48.70308" lon="5.53277">
        <ele>314.6</ele>
        <time>2020-06-29T18:26:04Z</time>
      </trkpt>
      <trkpt lat="48.70307" lon="5.53277">
        <ele>314.6</ele>
        <time>2020-06-29T18:26:05Z</time>
      </trkpt>
      <trkpt lat="48.70307" lon="5.53276">
        <ele>314.7</ele>
        <time>2020-06-29T18:26:06Z</time>
      </trkpt>
      <trkpt lat="48.70307" lon="5.53276">
        <ele>314.7</ele>
        <time>2020-06-29T18:26:07Z</time>
      </trkpt>
      <trkpt lat="48.70307" lon="5.53275">
        <ele>314.7</ele>
        <time>2020-06-29T18:26:08Z</time>
      </trkpt>
      <trkpt lat="48.70307" lon="5.53275">
        <ele>314.7</ele>
        <time>2020-06-29T18:26:09Z</time>
      </trkpt>
      <trkpt lat="48.70307" lon="5.53274">
        <ele>314.7</ele>
        <time>2020-06-29T18:26:10Z</time>
      </trkpt>
      <trkpt lat="48.70307" lon="5.53274">
        <ele>314.7</ele>
        <time>2020-06-29T18:26:11Z</time>
      </trkpt>
      <trkpt lat="48.70306" lon="5.53273">
        <ele>314.7</ele>
        <time>2020-06-29T18:26:12Z</time>
      </trkpt>
      <trkpt lat="48.70306" lon="5.53273">
        <ele>314.7</ele>
        <time>2020-06-29T18:26:13Z</time>
      </trkpt>
      <trkpt lat="48.70306" lon="5.53272">
        <ele>314.7</ele>
        <time>2020-06-29T18:26:14Z</time>
      </trkpt>
      <trkpt lat="48.70306" lon="5.53272">
        <ele>314.8</ele>
        <time>2020-06-29T18:26:15Z</time>
      </trkpt>
      <trkpt lat="48.70306" lon="5.53271">
        <ele>314.8</ele>
        <time>2020-06-29T18:26:16Z</time>
      </trkpt>
      <trkpt lat="48.70306" lon="5.53271">
        <ele>314.8</ele>
        <time>2020-06-29T18:26:17Z</time>
      </trkpt>
      <trkpt lat="48.70306" lon="5.5327">
        <ele>314.8</ele>
        <time>2020-06-29T18:26:18Z</time>
      </trkpt>
      <trkpt lat="48.70306" lon="5.5327">
        <ele>314.8</ele>
        <time>2020-06-29T18:26:19Z</time>
      </trkpt>
      <trkpt lat="48.70305" lon="5.53269">
        <ele>314.8</ele>
        <time>2020-06-29T18:26:20Z</time>
      </trkpt>
      <trkpt lat="48.70305" lon="5.53269">
        <ele>314.8</ele>
        <time>2020-06-29T18:26:21Z</time>
      </trkpt>
      <trkpt lat="48.70305" lon="5.53268">
        <ele>314.9</ele>
        <time>2020-06-29T18:26:22Z</time>
      </trkpt>
      <trkpt lat="48.70305" lon="5.53268">
        <ele>314.9</ele>
        <time>2020-06-29T18:26:23Z</time>
      </trkpt>
      <trkpt lat="48.70305" lon="5.53268">
        <ele>314.9</ele>
        <time>2020-06-29T18:31:10Z</time>
      </trkpt>
      <trkpt lat="48.70305" lon="5.53267">
        <ele>314.9</ele>
        <time>2020-06-29T18:31:11Z</time>
      </trkpt>
      <trkpt lat="48.70308" lon="5.53264">
        <ele>315</ele>
        <time>2020-06-29T18:31:12Z</time>
      </trkpt>
      <trkpt lat="48.70309" lon="5.53263">
        <ele>315.1</ele>
        <time>2020-06-29T18:31:13Z</time>
      </trkpt>
      <trkpt lat="48.70312" lon="5.53259">
        <ele>315.3</ele>
        <time>2020-06-29T18:31:14Z</time>
      </trkpt>
      <trkpt lat="48.70313" lon="5.53258">
        <ele>315.3</ele>
        <time>2020-06-29T18:31:15Z</time>
      </trkpt>
      <trkpt lat="48.70315" lon="5.53254">
        <ele>315.4</ele>
        <time>2020-06-29T18:31:16Z</time>
      </trkpt>
      <trkpt lat="48.70318" lon="5.5325">
        <ele>315.5</ele>
        <time>2020-06-29T18:31:17Z</time>
      </trkpt>
      <trkpt lat="48.70321" lon="5.53246">
        <ele>315.6</ele>
        <time>2020-06-29T18:31:18Z</time>
      </trkpt>
      <trkpt lat="48.70324" lon="5.5324">
        <ele>315.8</ele>
        <time>2020-06-29T18:31:19Z</time>
      </trkpt>
      <trkpt lat="48.70326" lon="5.53235">
        <ele>315.9</ele>
        <time>2020-06-29T18:31:20Z</time>
      </trkpt>
      <trkpt lat="48.70328" lon="5.5323">
        <ele>316</ele>
        <time>2020-06-29T18:31:21Z</time>
      </trkpt>
      <trkpt lat="48.70329" lon="5.53226">
        <ele>316.1</ele>
        <time>2020-06-29T18:31:22Z</time>
      </trkpt>
      <trkpt lat="48.70331" lon="5.53221">
        <ele>316.2</ele>
        <time>2020-06-29T18:31:23Z</time>
      </trkpt>
      <trkpt lat="48.70333" lon="5.53217">
        <ele>316.3</ele>
        <time>2020-06-29T18:31:24Z</time>
      </trkpt>
      <trkpt lat="48.70334" lon="5.53212">
        <ele>316.5</ele>
        <time>2020-06-29T18:31:25Z</time>
      </trkpt>
      <trkpt lat="48.70335" lon="5.53208">
        <ele>316.6</ele>
        <time>2020-06-29T18:31:26Z</time>
      </trkpt>
      <trkpt lat="48.70336" lon="5.53203">
        <ele>316.8</ele>
        <time>2020-06-29T18:31:27Z</time>
      </trkpt>
      <trkpt lat="48.70338" lon="5.53199">
        <ele>316.9</ele>
        <time>2020-06-29T18:31:28Z</time>
      </trkpt>
      <trkpt lat="48.7034" lon="5.53195">
        <ele>317</ele>
        <time>2020-06-29T18:31:29Z</time>
      </trkpt>
      <trkpt lat="48.70341" lon="5.5319">
        <ele>317.1</ele>
        <time>2020-06-29T18:31:30Z</time>
      </trkpt>
      <trkpt lat="48.70341" lon="5.53185">
        <ele>317.2</ele>
        <time>2020-06-29T18:31:31Z</time>
      </trkpt>
      <trkpt lat="48.70341" lon="5.53181">
        <ele>317.3</ele>
        <time>2020-06-29T18:31:32Z</time>
      </trkpt>
      <trkpt lat="48.70342" lon="5.53176">
        <ele>317.4</ele>
        <time>2020-06-29T18:31:33Z</time>
      </trkpt>
      <trkpt lat="48.70342" lon="5.53171">
        <ele>317.5</ele>
        <time>2020-06-29T18:31:34Z</time>
      </trkpt>
      <trkpt lat="48.70343" lon="5.53167">
        <ele>317.6</ele>
        <time>2020-06-29T18:31:35Z</time>
      </trkpt>
      <trkpt lat="48.70345" lon="5.53162">
        <ele>317.8</ele>
        <time>2020-06-29T18:31:36Z</time>
      </trkpt>
      <trkpt lat="48.70346" lon="5.53157">
        <ele>318</ele>
        <time>2020-06-29T18:31:37Z</time>
      </trkpt>
      <trkpt lat="48.70347" lon="5.53153">
        <ele>318.2</ele>
        <time>2020-06-29T18:31:38Z</time>
      </trkpt>
      <trkpt lat="48.70348" lon="5.53149">
        <ele>318.3</ele>
        <time>2020-06-29T18:31:39Z</time>
      </trkpt>
      <trkpt lat="48.7035" lon="5.53145">
        <ele>318.5</ele>
        <time>2020-06-29T18:31:40Z</time>
      </trkpt>
      <trkpt lat="48.70351" lon="5.53141">
        <ele>318.6</ele>
        <time>2020-06-29T18:31:41Z</time>
      </trkpt>
      <trkpt lat="48.70353" lon="5.53136">
        <ele>318.8</ele>
        <time>2020-06-29T18:31:42Z</time>
      </trkpt>
      <trkpt lat="48.70353" lon="5.53134">
        <ele>318.9</ele>
        <time>2020-06-29T18:31:43Z</time>
      </trkpt>
      <trkpt lat="48.70355" lon="5.53128">
        <ele>319.1</ele>
        <time>2020-06-29T18:31:44Z</time>
      </trkpt>
      <trkpt lat="48.70356" lon="5.53126">
        <ele>319.2</ele>
        <time>2020-06-29T18:31:45Z</time>
      </trkpt>
      <trkpt lat="48.70358" lon="5.53121">
        <ele>319.3</ele>
        <time>2020-06-29T18:31:46Z</time>
      </trkpt>
      <trkpt lat="48.70359" lon="5.53117">
        <ele>319.5</ele>
        <time>2020-06-29T18:31:47Z</time>
      </trkpt>
      <trkpt lat="48.70361" lon="5.53112">
        <ele>319.6</ele>
        <time>2020-06-29T18:31:48Z</time>
      </trkpt>
      <trkpt lat="48.70362" lon="5.53107">
        <ele>319.7</ele>
        <time>2020-06-29T18:31:49Z</time>
      </trkpt>
      <trkpt lat="48.70363" lon="5.53101">
        <ele>319.9</ele>
        <time>2020-06-29T18:31:50Z</time>
      </trkpt>
      <trkpt lat="48.70365" lon="5.53095">
        <ele>320</ele>
        <time>2020-06-29T18:31:51Z</time>
      </trkpt>
      <trkpt lat="48.70366" lon="5.5309">
        <ele>320.1</ele>
        <time>2020-06-29T18:31:52Z</time>
      </trkpt>
      <trkpt lat="48.70367" lon="5.53085">
        <ele>320.2</ele>
        <time>2020-06-29T18:31:53Z</time>
      </trkpt>
      <trkpt lat="48.70368" lon="5.53081">
        <ele>320.2</ele>
        <time>2020-06-29T18:31:54Z</time>
      </trkpt>
      <trkpt lat="48.70369" lon="5.53077">
        <ele>320.3</ele>
        <time>2020-06-29T18:31:55Z</time>
      </trkpt>
      <trkpt lat="48.70371" lon="5.53073">
        <ele>320.3</ele>
        <time>2020-06-29T18:31:56Z</time>
      </trkpt>
      <trkpt lat="48.70372" lon="5.53069">
        <ele>320.4</ele>
        <time>2020-06-29T18:31:57Z</time>
      </trkpt>
      <trkpt lat="48.70374" lon="5.53065">
        <ele>320.5</ele>
        <time>2020-06-29T18:31:58Z</time>
      </trkpt>
      <trkpt lat="48.70376" lon="5.5306">
        <ele>320.6</ele>
        <time>2020-06-29T18:31:59Z</time>
      </trkpt>
      <trkpt lat="48.70377" lon="5.53057">
        <ele>320.6</ele>
        <time>2020-06-29T18:32:00Z</time>
      </trkpt>
      <trkpt lat="48.70378" lon="5.53053">
        <ele>320.7</ele>
        <time>2020-06-29T18:32:01Z</time>
      </trkpt>
      <trkpt lat="48.70379" lon="5.53048">
        <ele>320.9</ele>
        <time>2020-06-29T18:32:02Z</time>
      </trkpt>
      <trkpt lat="48.70381" lon="5.53043">
        <ele>321</ele>
        <time>2020-06-29T18:32:03Z</time>
      </trkpt>
      <trkpt lat="48.70381" lon="5.53041">
        <ele>321</ele>
        <time>2020-06-29T18:32:04Z</time>
      </trkpt>
      <trkpt lat="48.70384" lon="5.53037">
        <ele>321.2</ele>
        <time>2020-06-29T18:32:05Z</time>
      </trkpt>
      <trkpt lat="48.70384" lon="5.53035">
        <ele>321.2</ele>
        <time>2020-06-29T18:32:06Z</time>
      </trkpt>
      <trkpt lat="48.70387" lon="5.53031">
        <ele>321.3</ele>
        <time>2020-06-29T18:32:07Z</time>
      </trkpt>
      <trkpt lat="48.70388" lon="5.5303">
        <ele>321.4</ele>
        <time>2020-06-29T18:32:08Z</time>
      </trkpt>
      <trkpt lat="48.70391" lon="5.53026">
        <ele>321.5</ele>
        <time>2020-06-29T18:32:09Z</time>
      </trkpt>
      <trkpt lat="48.70391" lon="5.53025">
        <ele>321.6</ele>
        <time>2020-06-29T18:32:10Z</time>
      </trkpt>
      <trkpt lat="48.70394" lon="5.53021">
        <ele>321.7</ele>
        <time>2020-06-29T18:32:11Z</time>
      </trkpt>
      <trkpt lat="48.70395" lon="5.5302">
        <ele>321.8</ele>
        <time>2020-06-29T18:32:12Z</time>
      </trkpt>
      <trkpt lat="48.70397" lon="5.53015">
        <ele>321.9</ele>
        <time>2020-06-29T18:32:13Z</time>
      </trkpt>
      <trkpt lat="48.70398" lon="5.53014">
        <ele>321.9</ele>
        <time>2020-06-29T18:32:14Z</time>
      </trkpt>
      <trkpt lat="48.70399" lon="5.5301">
        <ele>322.1</ele>
        <time>2020-06-29T18:32:15Z</time>
      </trkpt>
      <trkpt lat="48.704" lon="5.53008">
        <ele>322.1</ele>
        <time>2020-06-29T18:32:16Z</time>
      </trkpt>
      <trkpt lat="48.70402" lon="5.53005">
        <ele>322.2</ele>
        <time>2020-06-29T18:32:17Z</time>
      </trkpt>
      <trkpt lat="48.70402" lon="5.53003">
        <ele>322.3</ele>
        <time>2020-06-29T18:32:18Z</time>
      </trkpt>
      <trkpt lat="48.70403" lon="5.52999">
        <ele>322.4</ele>
        <time>2020-06-29T18:32:19Z</time>
      </trkpt>
      <trkpt lat="48.70404" lon="5.52998">
        <ele>322.4</ele>
        <time>2020-06-29T18:32:20Z</time>
      </trkpt>
      <trkpt lat="48.70404" lon="5.52995">
        <ele>322.4</ele>
        <time>2020-06-29T18:32:21Z</time>
      </trkpt>
      <trkpt lat="48.70404" lon="5.52993">
        <ele>322.5</ele>
        <time>2020-06-29T18:32:22Z</time>
      </trkpt>
      <trkpt lat="48.70404" lon="5.52991">
        <ele>322.5</ele>
        <time>2020-06-29T18:32:23Z</time>
      </trkpt>
      <trkpt lat="48.70404" lon="5.52989">
        <ele>322.5</ele>
        <time>2020-06-29T18:32:24Z</time>
      </trkpt>
      <trkpt lat="48.70404" lon="5.52988">
        <ele>322.5</ele>
        <time>2020-06-29T18:32:25Z</time>
      </trkpt>
      <trkpt lat="48.70404" lon="5.52987">
        <ele>322.6</ele>
        <time>2020-06-29T18:32:26Z</time>
      </trkpt>
      <trkpt lat="48.70404" lon="5.52987">
        <ele>322.6</ele>
        <time>2020-06-29T18:32:27Z</time>
      </trkpt>
      <trkpt lat="48.70404" lon="5.52987">
        <ele>322.6</ele>
        <time>2020-06-29T18:32:28Z</time>
      </trkpt>
      <trkpt lat="48.70404" lon="5.52986">
        <ele>322.6</ele>
        <time>2020-06-29T18:32:29Z</time>
      </trkpt>
      <trkpt lat="48.70404" lon="5.52986">
        <ele>322.6</ele>
        <time>2020-06-29T18:32:30Z</time>
      </trkpt>
      <trkpt lat="48.70404" lon="5.52985">
        <ele>322.6</ele>
        <time>2020-06-29T18:32:31Z</time>
      </trkpt>
      <trkpt lat="48.70404" lon="5.52985">
        <ele>322.6</ele>
        <time>2020-06-29T18:32:32Z</time>
      </trkpt>
      <trkpt lat="48.70404" lon="5.52985">
        <ele>322.6</ele>
        <time>2020-06-29T18:32:33Z</time>
      </trkpt>
      <trkpt lat="48.70404" lon="5.52984">
        <ele>322.6</ele>
        <time>2020-06-29T18:32:34Z</time>
      </trkpt>
      <trkpt lat="48.70404" lon="5.52984">
        <ele>322.6</ele>
        <time>2020-06-29T18:32:35Z</time>
      </trkpt>
      <trkpt lat="48.70404" lon="5.52984">
        <ele>322.6</ele>
        <time>2020-06-29T18:32:36Z</time>
      </trkpt>
      <trkpt lat="48.70404" lon="5.52983">
        <ele>322.6</ele>
        <time>2020-06-29T18:32:37Z</time>
      </trkpt>
      <trkpt lat="48.70404" lon="5.52983">
        <ele>322.6</ele>
        <time>2020-06-29T18:32:38Z</time>
      </trkpt>
      <trkpt lat="48.70406" lon="5.52978">
        <ele>322.7</ele>
        <time>2020-06-29T18:32:39Z</time>
      </trkpt>
      <trkpt lat="48.70408" lon="5.52977">
        <ele>322.8</ele>
        <time>2020-06-29T18:32:40Z</time>
      </trkpt>
      <trkpt lat="48.7041" lon="5.52973">
        <ele>322.8</ele>
        <time>2020-06-29T18:32:41Z</time>
      </trkpt>
      <trkpt lat="48.70412" lon="5.52968">
        <ele>323</ele>
        <time>2020-06-29T18:32:42Z</time>
      </trkpt>
      <trkpt lat="48.70415" lon="5.52963">
        <ele>323.2</ele>
        <time>2020-06-29T18:32:43Z</time>
      </trkpt>
      <trkpt lat="48.70417" lon="5.52959">
        <ele>323.4</ele>
        <time>2020-06-29T18:32:44Z</time>
      </trkpt>
      <trkpt lat="48.7042" lon="5.52953">
        <ele>323.6</ele>
        <time>2020-06-29T18:32:45Z</time>
      </trkpt>
      <trkpt lat="48.70423" lon="5.52946">
        <ele>323.9</ele>
        <time>2020-06-29T18:32:46Z</time>
      </trkpt>
      <trkpt lat="48.70425" lon="5.52941">
        <ele>324.1</ele>
        <time>2020-06-29T18:32:47Z</time>
      </trkpt>
      <trkpt lat="48.70426" lon="5.52936">
        <ele>324.3</ele>
        <time>2020-06-29T18:32:48Z</time>
      </trkpt>
      <trkpt lat="48.70428" lon="5.52929">
        <ele>324.5</ele>
        <time>2020-06-29T18:32:49Z</time>
      </trkpt>
      <trkpt lat="48.70431" lon="5.52923">
        <ele>324.7</ele>
        <time>2020-06-29T18:32:50Z</time>
      </trkpt>
      <trkpt lat="48.70433" lon="5.52917">
        <ele>324.9</ele>
        <time>2020-06-29T18:32:51Z</time>
      </trkpt>
      <trkpt lat="48.70435" lon="5.5291">
        <ele>325</ele>
        <time>2020-06-29T18:32:52Z</time>
      </trkpt>
      <trkpt lat="48.70437" lon="5.52903">
        <ele>325.2</ele>
        <time>2020-06-29T18:32:53Z</time>
      </trkpt>
      <trkpt lat="48.7044" lon="5.52895">
        <ele>325.4</ele>
        <time>2020-06-29T18:32:54Z</time>
      </trkpt>
      <trkpt lat="48.70443" lon="5.52889">
        <ele>325.6</ele>
        <time>2020-06-29T18:32:55Z</time>
      </trkpt>
      <trkpt lat="48.70445" lon="5.52882">
        <ele>325.7</ele>
        <time>2020-06-29T18:32:56Z</time>
      </trkpt>
      <trkpt lat="48.70448" lon="5.52875">
        <ele>325.9</ele>
        <time>2020-06-29T18:32:57Z</time>
      </trkpt>
      <trkpt lat="48.70451" lon="5.52868">
        <ele>326</ele>
        <time>2020-06-29T18:32:58Z</time>
      </trkpt>
      <trkpt lat="48.70454" lon="5.52862">
        <ele>326.2</ele>
        <time>2020-06-29T18:32:59Z</time>
      </trkpt>
      <trkpt lat="48.70456" lon="5.52855">
        <ele>326.3</ele>
        <time>2020-06-29T18:33:00Z</time>
      </trkpt>
      <trkpt lat="48.70458" lon="5.52847">
        <ele>326.5</ele>
        <time>2020-06-29T18:33:01Z</time>
      </trkpt>
      <trkpt lat="48.7046" lon="5.5284">
        <ele>326.7</ele>
        <time>2020-06-29T18:33:02Z</time>
      </trkpt>
      <trkpt lat="48.70461" lon="5.52833">
        <ele>326.8</ele>
        <time>2020-06-29T18:33:03Z</time>
      </trkpt>
      <trkpt lat="48.70462" lon="5.52827">
        <ele>327</ele>
        <time>2020-06-29T18:33:04Z</time>
      </trkpt>
      <trkpt lat="48.70464" lon="5.5282">
        <ele>327.2</ele>
        <time>2020-06-29T18:33:05Z</time>
      </trkpt>
      <trkpt lat="48.70465" lon="5.52814">
        <ele>327.4</ele>
        <time>2020-06-29T18:33:06Z</time>
      </trkpt>
      <trkpt lat="48.70467" lon="5.52807">
        <ele>327.6</ele>
        <time>2020-06-29T18:33:07Z</time>
      </trkpt>
      <trkpt lat="48.70469" lon="5.52801">
        <ele>327.8</ele>
        <time>2020-06-29T18:33:08Z</time>
      </trkpt>
      <trkpt lat="48.7047" lon="5.52795">
        <ele>328</ele>
        <time>2020-06-29T18:33:09Z</time>
      </trkpt>
      <trkpt lat="48.70471" lon="5.52788">
        <ele>328.2</ele>
        <time>2020-06-29T18:33:10Z</time>
      </trkpt>
      <trkpt lat="48.70471" lon="5.52781">
        <ele>328.5</ele>
        <time>2020-06-29T18:33:11Z</time>
      </trkpt>
      <trkpt lat="48.70471" lon="5.52774">
        <ele>328.7</ele>
        <time>2020-06-29T18:33:12Z</time>
      </trkpt>
      <trkpt lat="48.70472" lon="5.52768">
        <ele>328.9</ele>
        <time>2020-06-29T18:33:13Z</time>
      </trkpt>
      <trkpt lat="48.70474" lon="5.52761">
        <ele>329.1</ele>
        <time>2020-06-29T18:33:14Z</time>
      </trkpt>
      <trkpt lat="48.70476" lon="5.52754">
        <ele>329.3</ele>
        <time>2020-06-29T18:33:15Z</time>
      </trkpt>
      <trkpt lat="48.70477" lon="5.52748">
        <ele>329.4</ele>
        <time>2020-06-29T18:33:16Z</time>
      </trkpt>
      <trkpt lat="48.70479" lon="5.52741">
        <ele>329.6</ele>
        <time>2020-06-29T18:33:17Z</time>
      </trkpt>
      <trkpt lat="48.7048" lon="5.52735">
        <ele>329.7</ele>
        <time>2020-06-29T18:33:18Z</time>
      </trkpt>
      <trkpt lat="48.70481" lon="5.52729">
        <ele>329.9</ele>
        <time>2020-06-29T18:33:19Z</time>
      </trkpt>
      <trkpt lat="48.70482" lon="5.52723">
        <ele>330</ele>
        <time>2020-06-29T18:33:20Z</time>
      </trkpt>
      <trkpt lat="48.70483" lon="5.52717">
        <ele>330.2</ele>
        <time>2020-06-29T18:33:21Z</time>
      </trkpt>
      <trkpt lat="48.70484" lon="5.52711">
        <ele>330.3</ele>
        <time>2020-06-29T18:33:22Z</time>
      </trkpt>
      <trkpt lat="48.70485" lon="5.52706">
        <ele>330.4</ele>
        <time>2020-06-29T18:33:23Z</time>
      </trkpt>
      <trkpt lat="48.70486" lon="5.527">
        <ele>330.5</ele>
        <time>2020-06-29T18:33:24Z</time>
      </trkpt>
      <trkpt lat="48.70487" lon="5.52698">
        <ele>330.6</ele>
        <time>2020-06-29T18:33:25Z</time>
      </trkpt>
      <trkpt lat="48.70489" lon="5.52693">
        <ele>330.8</ele>
        <time>2020-06-29T18:33:26Z</time>
      </trkpt>
      <trkpt lat="48.70489" lon="5.52691">
        <ele>330.8</ele>
        <time>2020-06-29T18:33:27Z</time>
      </trkpt>
      <trkpt lat="48.7049" lon="5.52684">
        <ele>331</ele>
        <time>2020-06-29T18:33:28Z</time>
      </trkpt>
      <trkpt lat="48.7049" lon="5.52682">
        <ele>331.1</ele>
        <time>2020-06-29T18:33:29Z</time>
      </trkpt>
      <trkpt lat="48.7049" lon="5.52677">
        <ele>331.3</ele>
        <time>2020-06-29T18:33:30Z</time>
      </trkpt>
      <trkpt lat="48.7049" lon="5.52673">
        <ele>331.4</ele>
        <time>2020-06-29T18:33:31Z</time>
      </trkpt>
      <trkpt lat="48.7049" lon="5.52669">
        <ele>331.6</ele>
        <time>2020-06-29T18:33:32Z</time>
      </trkpt>
      <trkpt lat="48.70491" lon="5.52664">
        <ele>331.8</ele>
        <time>2020-06-29T18:33:33Z</time>
      </trkpt>
      <trkpt lat="48.70491" lon="5.5266">
        <ele>331.9</ele>
        <time>2020-06-29T18:33:34Z</time>
      </trkpt>
      <trkpt lat="48.70492" lon="5.52655">
        <ele>332.1</ele>
        <time>2020-06-29T18:33:35Z</time>
      </trkpt>
      <trkpt lat="48.70492" lon="5.52653">
        <ele>332.2</ele>
        <time>2020-06-29T18:33:36Z</time>
      </trkpt>
      <trkpt lat="48.70492" lon="5.52648">
        <ele>332.3</ele>
        <time>2020-06-29T18:33:37Z</time>
      </trkpt>
      <trkpt lat="48.70493" lon="5.52646">
        <ele>332.4</ele>
        <time>2020-06-29T18:33:38Z</time>
      </trkpt>
      <trkpt lat="48.70493" lon="5.52642">
        <ele>332.5</ele>
        <time>2020-06-29T18:33:39Z</time>
      </trkpt>
      <trkpt lat="48.70494" lon="5.52637">
        <ele>332.6</ele>
        <time>2020-06-29T18:33:40Z</time>
      </trkpt>
      <trkpt lat="48.70494" lon="5.52636">
        <ele>332.7</ele>
        <time>2020-06-29T18:33:41Z</time>
      </trkpt>
      <trkpt lat="48.70495" lon="5.52631">
        <ele>332.8</ele>
        <time>2020-06-29T18:33:42Z</time>
      </trkpt>
      <trkpt lat="48.70496" lon="5.52629">
        <ele>332.8</ele>
        <time>2020-06-29T18:33:43Z</time>
      </trkpt>
      <trkpt lat="48.70499" lon="5.52625">
        <ele>333</ele>
        <time>2020-06-29T18:33:44Z</time>
      </trkpt>
      <trkpt lat="48.705" lon="5.52624">
        <ele>333.1</ele>
        <time>2020-06-29T18:33:45Z</time>
      </trkpt>
      <trkpt lat="48.70502" lon="5.5262">
        <ele>333.2</ele>
        <time>2020-06-29T18:33:46Z</time>
      </trkpt>
      <trkpt lat="48.70503" lon="5.52619">
        <ele>333.3</ele>
        <time>2020-06-29T18:33:47Z</time>
      </trkpt>
      <trkpt lat="48.70505" lon="5.52616">
        <ele>333.5</ele>
        <time>2020-06-29T18:33:48Z</time>
      </trkpt>
      <trkpt lat="48.70505" lon="5.52614">
        <ele>333.5</ele>
        <time>2020-06-29T18:33:49Z</time>
      </trkpt>
      <trkpt lat="48.70505" lon="5.52612">
        <ele>333.6</ele>
        <time>2020-06-29T18:33:50Z</time>
      </trkpt>
      <trkpt lat="48.70506" lon="5.5261">
        <ele>333.7</ele>
        <time>2020-06-29T18:33:51Z</time>
      </trkpt>
      <trkpt lat="48.70506" lon="5.52609">
        <ele>333.7</ele>
        <time>2020-06-29T18:33:52Z</time>
      </trkpt>
      <trkpt lat="48.70507" lon="5.5261">
        <ele>333.8</ele>
        <time>2020-06-29T18:33:53Z</time>
      </trkpt>
      <trkpt lat="48.70507" lon="5.52611">
        <ele>333.8</ele>
        <time>2020-06-29T18:33:54Z</time>
      </trkpt>
      <trkpt lat="48.70507" lon="5.52611">
        <ele>333.9</ele>
        <time>2020-06-29T18:33:55Z</time>
      </trkpt>
      <trkpt lat="48.70508" lon="5.52612">
        <ele>333.9</ele>
        <time>2020-06-29T18:33:56Z</time>
      </trkpt>
      <trkpt lat="48.70509" lon="5.52612">
        <ele>333.9</ele>
        <time>2020-06-29T18:33:57Z</time>
      </trkpt>
      <trkpt lat="48.70509" lon="5.52611">
        <ele>334</ele>
        <time>2020-06-29T18:33:58Z</time>
      </trkpt>
      <trkpt lat="48.7051" lon="5.52609">
        <ele>334.1</ele>
        <time>2020-06-29T18:33:59Z</time>
      </trkpt>
      <trkpt lat="48.70512" lon="5.52607">
        <ele>334.1</ele>
        <time>2020-06-29T18:34:00Z</time>
      </trkpt>
      <trkpt lat="48.70513" lon="5.52606">
        <ele>334.2</ele>
        <time>2020-06-29T18:34:01Z</time>
      </trkpt>
      <trkpt lat="48.70513" lon="5.52605">
        <ele>334.2</ele>
        <time>2020-06-29T18:34:02Z</time>
      </trkpt>
      <trkpt lat="48.70514" lon="5.52604">
        <ele>334.3</ele>
        <time>2020-06-29T18:34:03Z</time>
      </trkpt>
      <trkpt lat="48.70515" lon="5.52603">
        <ele>334.3</ele>
        <time>2020-06-29T18:34:04Z</time>
      </trkpt>
      <trkpt lat="48.70517" lon="5.52602">
        <ele>334.4</ele>
        <time>2020-06-29T18:34:05Z</time>
      </trkpt>
      <trkpt lat="48.70518" lon="5.52601">
        <ele>334.5</ele>
        <time>2020-06-29T18:34:06Z</time>
      </trkpt>
      <trkpt lat="48.70521" lon="5.526">
        <ele>334.6</ele>
        <time>2020-06-29T18:34:07Z</time>
      </trkpt>
      <trkpt lat="48.70522" lon="5.526">
        <ele>334.7</ele>
        <time>2020-06-29T18:34:08Z</time>
      </trkpt>
      <trkpt lat="48.70525" lon="5.52599">
        <ele>334.8</ele>
        <time>2020-06-29T18:34:09Z</time>
      </trkpt>
      <trkpt lat="48.70526" lon="5.52599">
        <ele>334.8</ele>
        <time>2020-06-29T18:34:10Z</time>
      </trkpt>
      <trkpt lat="48.70529" lon="5.52597">
        <ele>334.9</ele>
        <time>2020-06-29T18:34:11Z</time>
      </trkpt>
      <trkpt lat="48.70532" lon="5.52596">
        <ele>335</ele>
        <time>2020-06-29T18:34:12Z</time>
      </trkpt>
      <trkpt lat="48.70535" lon="5.52595">
        <ele>335.2</ele>
        <time>2020-06-29T18:34:13Z</time>
      </trkpt>
      <trkpt lat="48.70538" lon="5.52594">
        <ele>335.3</ele>
        <time>2020-06-29T18:34:14Z</time>
      </trkpt>
      <trkpt lat="48.70541" lon="5.52592">
        <ele>335.5</ele>
        <time>2020-06-29T18:34:15Z</time>
      </trkpt>
      <trkpt lat="48.70545" lon="5.5259">
        <ele>335.7</ele>
        <time>2020-06-29T18:34:16Z</time>
      </trkpt>
      <trkpt lat="48.70549" lon="5.52587">
        <ele>336.1</ele>
        <time>2020-06-29T18:34:17Z</time>
      </trkpt>
      <trkpt lat="48.70553" lon="5.52583">
        <ele>336.9</ele>
        <time>2020-06-29T18:34:18Z</time>
      </trkpt>
      <trkpt lat="48.70555" lon="5.52577">
        <ele>337.7</ele>
        <time>2020-06-29T18:34:19Z</time>
      </trkpt>
      <trkpt lat="48.70555" lon="5.52571">
        <ele>338</ele>
        <time>2020-06-29T18:34:20Z</time>
      </trkpt>
      <trkpt lat="48.70554" lon="5.52566">
        <ele>338</ele>
        <time>2020-06-29T18:34:21Z</time>
      </trkpt>
      <trkpt lat="48.70554" lon="5.5256">
        <ele>337.8</ele>
        <time>2020-06-29T18:34:22Z</time>
      </trkpt>
      <trkpt lat="48.70554" lon="5.52555">
        <ele>337.5</ele>
        <time>2020-06-29T18:34:23Z</time>
      </trkpt>
      <trkpt lat="48.70553" lon="5.5255">
        <ele>337.1</ele>
        <time>2020-06-29T18:34:24Z</time>
      </trkpt>
      <trkpt lat="48.70553" lon="5.52546">
        <ele>336.6</ele>
        <time>2020-06-29T18:34:25Z</time>
      </trkpt>
      <trkpt lat="48.70554" lon="5.52539">
        <ele>335.9</ele>
        <time>2020-06-29T18:34:26Z</time>
      </trkpt>
      <trkpt lat="48.70554" lon="5.52537">
        <ele>335.6</ele>
        <time>2020-06-29T18:34:27Z</time>
      </trkpt>
      <trkpt lat="48.70555" lon="5.52532">
        <ele>335.1</ele>
        <time>2020-06-29T18:34:28Z</time>
      </trkpt>
      <trkpt lat="48.70554" lon="5.52526">
        <ele>334.4</ele>
        <time>2020-06-29T18:34:29Z</time>
      </trkpt>
      <trkpt lat="48.70554" lon="5.52525">
        <ele>334.2</ele>
        <time>2020-06-29T18:34:30Z</time>
      </trkpt>
      <trkpt lat="48.70554" lon="5.5252">
        <ele>333.7</ele>
        <time>2020-06-29T18:34:31Z</time>
      </trkpt>
      <trkpt lat="48.70552" lon="5.52516">
        <ele>333.4</ele>
        <time>2020-06-29T18:34:32Z</time>
      </trkpt>
      <trkpt lat="48.70551" lon="5.52515">
        <ele>333.4</ele>
        <time>2020-06-29T18:34:33Z</time>
      </trkpt>
      <trkpt lat="48.70548" lon="5.52511">
        <ele>333.3</ele>
        <time>2020-06-29T18:34:34Z</time>
      </trkpt>
      <trkpt lat="48.70545" lon="5.52506">
        <ele>333.2</ele>
        <time>2020-06-29T18:34:35Z</time>
      </trkpt>
      <trkpt lat="48.70541" lon="5.52501">
        <ele>333.1</ele>
        <time>2020-06-29T18:34:36Z</time>
      </trkpt>
      <trkpt lat="48.70537" lon="5.52496">
        <ele>333</ele>
        <time>2020-06-29T18:34:37Z</time>
      </trkpt>
      <trkpt lat="48.70534" lon="5.52491">
        <ele>332.9</ele>
        <time>2020-06-29T18:34:38Z</time>
      </trkpt>
      <trkpt lat="48.7053" lon="5.52487">
        <ele>332.8</ele>
        <time>2020-06-29T18:34:39Z</time>
      </trkpt>
      <trkpt lat="48.70525" lon="5.52484">
        <ele>332.8</ele>
        <time>2020-06-29T18:34:40Z</time>
      </trkpt>
      <trkpt lat="48.7052" lon="5.52482">
        <ele>332.8</ele>
        <time>2020-06-29T18:34:41Z</time>
      </trkpt>
      <trkpt lat="48.70515" lon="5.52482">
        <ele>332.8</ele>
        <time>2020-06-29T18:34:42Z</time>
      </trkpt>
      <trkpt lat="48.7051" lon="5.52481">
        <ele>332.8</ele>
        <time>2020-06-29T18:34:43Z</time>
      </trkpt>
      <trkpt lat="48.70505" lon="5.52478">
        <ele>332.8</ele>
        <time>2020-06-29T18:34:44Z</time>
      </trkpt>
      <trkpt lat="48.70501" lon="5.52477">
        <ele>332.8</ele>
        <time>2020-06-29T18:34:45Z</time>
      </trkpt>
      <trkpt lat="48.70497" lon="5.52474">
        <ele>333</ele>
        <time>2020-06-29T18:34:46Z</time>
      </trkpt>
      <trkpt lat="48.70492" lon="5.52471">
        <ele>333</ele>
        <time>2020-06-29T18:34:47Z</time>
      </trkpt>
      <trkpt lat="48.70489" lon="5.52469">
        <ele>333</ele>
        <time>2020-06-29T18:34:48Z</time>
      </trkpt>
      <trkpt lat="48.70485" lon="5.52468">
        <ele>333.1</ele>
        <time>2020-06-29T18:34:49Z</time>
      </trkpt>
      <trkpt lat="48.70481" lon="5.52466">
        <ele>333.1</ele>
        <time>2020-06-29T18:34:50Z</time>
      </trkpt>
      <trkpt lat="48.70477" lon="5.52466">
        <ele>333.2</ele>
        <time>2020-06-29T18:34:51Z</time>
      </trkpt>
      <trkpt lat="48.70472" lon="5.52466">
        <ele>333.2</ele>
        <time>2020-06-29T18:34:52Z</time>
      </trkpt>
      <trkpt lat="48.70468" lon="5.52465">
        <ele>333.3</ele>
        <time>2020-06-29T18:34:53Z</time>
      </trkpt>
      <trkpt lat="48.70464" lon="5.52466">
        <ele>333.4</ele>
        <time>2020-06-29T18:34:54Z</time>
      </trkpt>
      <trkpt lat="48.7046" lon="5.52467">
        <ele>333.4</ele>
        <time>2020-06-29T18:34:55Z</time>
      </trkpt>
      <trkpt lat="48.70456" lon="5.52464">
        <ele>333.5</ele>
        <time>2020-06-29T18:34:56Z</time>
      </trkpt>
      <trkpt lat="48.70453" lon="5.52464">
        <ele>333.5</ele>
        <time>2020-06-29T18:34:57Z</time>
      </trkpt>
      <trkpt lat="48.70449" lon="5.52464">
        <ele>333.6</ele>
        <time>2020-06-29T18:34:58Z</time>
      </trkpt>
      <trkpt lat="48.70445" lon="5.52464">
        <ele>333.7</ele>
        <time>2020-06-29T18:34:59Z</time>
      </trkpt>
      <trkpt lat="48.70441" lon="5.52465">
        <ele>333.7</ele>
        <time>2020-06-29T18:35:00Z</time>
      </trkpt>
      <trkpt lat="48.70437" lon="5.52468">
        <ele>333.8</ele>
        <time>2020-06-29T18:35:01Z</time>
      </trkpt>
      <trkpt lat="48.70432" lon="5.52471">
        <ele>333.9</ele>
        <time>2020-06-29T18:35:02Z</time>
      </trkpt>
      <trkpt lat="48.70429" lon="5.52476">
        <ele>334</ele>
        <time>2020-06-29T18:35:03Z</time>
      </trkpt>
      <trkpt lat="48.70426" lon="5.52479">
        <ele>334</ele>
        <time>2020-06-29T18:35:04Z</time>
      </trkpt>
      <trkpt lat="48.70423" lon="5.52482">
        <ele>334.1</ele>
        <time>2020-06-29T18:35:05Z</time>
      </trkpt>
      <trkpt lat="48.7042" lon="5.52485">
        <ele>334.7</ele>
        <time>2020-06-29T18:35:06Z</time>
      </trkpt>
      <trkpt lat="48.70417" lon="5.52487">
        <ele>334.9</ele>
        <time>2020-06-29T18:35:07Z</time>
      </trkpt>
      <trkpt lat="48.70414" lon="5.52487">
        <ele>335.1</ele>
        <time>2020-06-29T18:35:08Z</time>
      </trkpt>
      <trkpt lat="48.70411" lon="5.52482">
        <ele>335.4</ele>
        <time>2020-06-29T18:35:09Z</time>
      </trkpt>
      <trkpt lat="48.70411" lon="5.5248">
        <ele>335.5</ele>
        <time>2020-06-29T18:35:10Z</time>
      </trkpt>
      <trkpt lat="48.70411" lon="5.52476">
        <ele>335.6</ele>
        <time>2020-06-29T18:35:11Z</time>
      </trkpt>
      <trkpt lat="48.70412" lon="5.52471">
        <ele>335.8</ele>
        <time>2020-06-29T18:35:12Z</time>
      </trkpt>
      <trkpt lat="48.70412" lon="5.52466">
        <ele>336</ele>
        <time>2020-06-29T18:35:13Z</time>
      </trkpt>
      <trkpt lat="48.70412" lon="5.52461">
        <ele>336.2</ele>
        <time>2020-06-29T18:35:14Z</time>
      </trkpt>
      <trkpt lat="48.70413" lon="5.52457">
        <ele>336.4</ele>
        <time>2020-06-29T18:35:15Z</time>
      </trkpt>
      <trkpt lat="48.70413" lon="5.52452">
        <ele>336.6</ele>
        <time>2020-06-29T18:35:16Z</time>
      </trkpt>
      <trkpt lat="48.70413" lon="5.52447">
        <ele>336.7</ele>
        <time>2020-06-29T18:35:17Z</time>
      </trkpt>
      <trkpt lat="48.70413" lon="5.52442">
        <ele>336.9</ele>
        <time>2020-06-29T18:35:18Z</time>
      </trkpt>
      <trkpt lat="48.70414" lon="5.52436">
        <ele>337</ele>
        <time>2020-06-29T18:35:19Z</time>
      </trkpt>
      <trkpt lat="48.70414" lon="5.52431">
        <ele>337.2</ele>
        <time>2020-06-29T18:35:20Z</time>
      </trkpt>
      <trkpt lat="48.70416" lon="5.52426">
        <ele>337.3</ele>
        <time>2020-06-29T18:35:21Z</time>
      </trkpt>
      <trkpt lat="48.70416" lon="5.5242">
        <ele>337.5</ele>
        <time>2020-06-29T18:35:22Z</time>
      </trkpt>
      <trkpt lat="48.70416" lon="5.52415">
        <ele>337.6</ele>
        <time>2020-06-29T18:35:23Z</time>
      </trkpt>
      <trkpt lat="48.70416" lon="5.5241">
        <ele>337.8</ele>
        <time>2020-06-29T18:35:24Z</time>
      </trkpt>
      <trkpt lat="48.70416" lon="5.52404">
        <ele>338.1</ele>
        <time>2020-06-29T18:35:25Z</time>
      </trkpt>
      <trkpt lat="48.70416" lon="5.52398">
        <ele>338.3</ele>
        <time>2020-06-29T18:35:26Z</time>
      </trkpt>
      <trkpt lat="48.70417" lon="5.52393">
        <ele>338.5</ele>
        <time>2020-06-29T18:35:27Z</time>
      </trkpt>
      <trkpt lat="48.70417" lon="5.52389">
        <ele>338.6</ele>
        <time>2020-06-29T18:35:28Z</time>
      </trkpt>
      <trkpt lat="48.70418" lon="5.52384">
        <ele>338.8</ele>
        <time>2020-06-29T18:35:29Z</time>
      </trkpt>
      <trkpt lat="48.70419" lon="5.52379">
        <ele>339</ele>
        <time>2020-06-29T18:35:30Z</time>
      </trkpt>
      <trkpt lat="48.7042" lon="5.52375">
        <ele>339.2</ele>
        <time>2020-06-29T18:35:31Z</time>
      </trkpt>
      <trkpt lat="48.70422" lon="5.52371">
        <ele>339.4</ele>
        <time>2020-06-29T18:35:32Z</time>
      </trkpt>
      <trkpt lat="48.70423" lon="5.52366">
        <ele>339.6</ele>
        <time>2020-06-29T18:35:33Z</time>
      </trkpt>
      <trkpt lat="48.70423" lon="5.52361">
        <ele>339.8</ele>
        <time>2020-06-29T18:35:34Z</time>
      </trkpt>
      <trkpt lat="48.70423" lon="5.52356">
        <ele>340.1</ele>
        <time>2020-06-29T18:35:35Z</time>
      </trkpt>
      <trkpt lat="48.70424" lon="5.52352">
        <ele>340.4</ele>
        <time>2020-06-29T18:35:36Z</time>
      </trkpt>
      <trkpt lat="48.70424" lon="5.52347">
        <ele>340.7</ele>
        <time>2020-06-29T18:35:37Z</time>
      </trkpt>
      <trkpt lat="48.70425" lon="5.52342">
        <ele>341.1</ele>
        <time>2020-06-29T18:35:38Z</time>
      </trkpt>
      <trkpt lat="48.70426" lon="5.52338">
        <ele>341.4</ele>
        <time>2020-06-29T18:35:39Z</time>
      </trkpt>
      <trkpt lat="48.70427" lon="5.52334">
        <ele>341.8</ele>
        <time>2020-06-29T18:35:40Z</time>
      </trkpt>
      <trkpt lat="48.70427" lon="5.5233">
        <ele>342.1</ele>
        <time>2020-06-29T18:35:41Z</time>
      </trkpt>
      <trkpt lat="48.70428" lon="5.52326">
        <ele>342.6</ele>
        <time>2020-06-29T18:35:42Z</time>
      </trkpt>
      <trkpt lat="48.70429" lon="5.52321">
        <ele>343</ele>
        <time>2020-06-29T18:35:43Z</time>
      </trkpt>
      <trkpt lat="48.70429" lon="5.52319">
        <ele>343.2</ele>
        <time>2020-06-29T18:35:44Z</time>
      </trkpt>
      <trkpt lat="48.70429" lon="5.52314">
        <ele>343.7</ele>
        <time>2020-06-29T18:35:45Z</time>
      </trkpt>
      <trkpt lat="48.70429" lon="5.52312">
        <ele>343.8</ele>
        <time>2020-06-29T18:35:46Z</time>
      </trkpt>
      <trkpt lat="48.70428" lon="5.52308">
        <ele>344.2</ele>
        <time>2020-06-29T18:35:47Z</time>
      </trkpt>
      <trkpt lat="48.70428" lon="5.52306">
        <ele>344.3</ele>
        <time>2020-06-29T18:35:48Z</time>
      </trkpt>
      <trkpt lat="48.70428" lon="5.52302">
        <ele>344.7</ele>
        <time>2020-06-29T18:35:49Z</time>
      </trkpt>
      <trkpt lat="48.70428" lon="5.523">
        <ele>344.8</ele>
        <time>2020-06-29T18:35:50Z</time>
      </trkpt>
      <trkpt lat="48.70428" lon="5.52295">
        <ele>345.2</ele>
        <time>2020-06-29T18:35:51Z</time>
      </trkpt>
      <trkpt lat="48.70428" lon="5.52294">
        <ele>345.3</ele>
        <time>2020-06-29T18:35:52Z</time>
      </trkpt>
      <trkpt lat="48.70428" lon="5.5229">
        <ele>345.7</ele>
        <time>2020-06-29T18:35:53Z</time>
      </trkpt>
      <trkpt lat="48.70429" lon="5.52288">
        <ele>345.8</ele>
        <time>2020-06-29T18:35:54Z</time>
      </trkpt>
      <trkpt lat="48.70429" lon="5.52283">
        <ele>346.2</ele>
        <time>2020-06-29T18:35:55Z</time>
      </trkpt>
      <trkpt lat="48.70429" lon="5.52281">
        <ele>346.3</ele>
        <time>2020-06-29T18:35:56Z</time>
      </trkpt>
      <trkpt lat="48.70429" lon="5.52276">
        <ele>346.7</ele>
        <time>2020-06-29T18:35:57Z</time>
      </trkpt>
      <trkpt lat="48.70429" lon="5.52274">
        <ele>346.9</ele>
        <time>2020-06-29T18:35:58Z</time>
      </trkpt>
      <trkpt lat="48.70429" lon="5.52272">
        <ele>347.1</ele>
        <time>2020-06-29T18:35:59Z</time>
      </trkpt>
      <trkpt lat="48.70429" lon="5.52269">
        <ele>347.3</ele>
        <time>2020-06-29T18:36:00Z</time>
      </trkpt>
      <trkpt lat="48.70429" lon="5.52267">
        <ele>347.4</ele>
        <time>2020-06-29T18:36:01Z</time>
      </trkpt>
      <trkpt lat="48.7043" lon="5.52264">
        <ele>347.7</ele>
        <time>2020-06-29T18:36:02Z</time>
      </trkpt>
      <trkpt lat="48.7043" lon="5.5226">
        <ele>348</ele>
        <time>2020-06-29T18:36:03Z</time>
      </trkpt>
      <trkpt lat="48.70431" lon="5.52258">
        <ele>348.1</ele>
        <time>2020-06-29T18:36:04Z</time>
      </trkpt>
      <trkpt lat="48.70431" lon="5.52254">
        <ele>348.4</ele>
        <time>2020-06-29T18:36:05Z</time>
      </trkpt>
      <trkpt lat="48.70431" lon="5.52253">
        <ele>348.5</ele>
        <time>2020-06-29T18:36:06Z</time>
      </trkpt>
      <trkpt lat="48.70432" lon="5.52247">
        <ele>348.9</ele>
        <time>2020-06-29T18:36:07Z</time>
      </trkpt>
      <trkpt lat="48.70432" lon="5.52246">
        <ele>349.1</ele>
        <time>2020-06-29T18:36:08Z</time>
      </trkpt>
      <trkpt lat="48.70433" lon="5.52241">
        <ele>349.5</ele>
        <time>2020-06-29T18:36:09Z</time>
      </trkpt>
      <trkpt lat="48.70433" lon="5.52239">
        <ele>349.6</ele>
        <time>2020-06-29T18:36:10Z</time>
      </trkpt>
      <trkpt lat="48.70433" lon="5.52233">
        <ele>350.1</ele>
        <time>2020-06-29T18:36:11Z</time>
      </trkpt>
      <trkpt lat="48.70433" lon="5.5223">
        <ele>350.2</ele>
        <time>2020-06-29T18:36:12Z</time>
      </trkpt>
      <trkpt lat="48.70433" lon="5.52225">
        <ele>350.6</ele>
        <time>2020-06-29T18:36:13Z</time>
      </trkpt>
      <trkpt lat="48.70432" lon="5.52223">
        <ele>350.7</ele>
        <time>2020-06-29T18:36:14Z</time>
      </trkpt>
      <trkpt lat="48.70432" lon="5.52218">
        <ele>351.1</ele>
        <time>2020-06-29T18:36:15Z</time>
      </trkpt>
      <trkpt lat="48.70432" lon="5.52216">
        <ele>351.2</ele>
        <time>2020-06-29T18:36:16Z</time>
      </trkpt>
      <trkpt lat="48.70432" lon="5.52211">
        <ele>351.6</ele>
        <time>2020-06-29T18:36:17Z</time>
      </trkpt>
      <trkpt lat="48.70432" lon="5.52209">
        <ele>351.7</ele>
        <time>2020-06-29T18:36:18Z</time>
      </trkpt>
      <trkpt lat="48.70432" lon="5.52205">
        <ele>357.4</ele>
        <time>2020-06-29T18:36:19Z</time>
      </trkpt>
      <trkpt lat="48.70431" lon="5.522">
        <ele>359.8</ele>
        <time>2020-06-29T18:36:20Z</time>
      </trkpt>
      <trkpt lat="48.70431" lon="5.52198">
        <ele>360.4</ele>
        <time>2020-06-29T18:36:21Z</time>
      </trkpt>
      <trkpt lat="48.70431" lon="5.52193">
        <ele>362.1</ele>
        <time>2020-06-29T18:36:22Z</time>
      </trkpt>
      <trkpt lat="48.70431" lon="5.52191">
        <ele>362.5</ele>
        <time>2020-06-29T18:36:23Z</time>
      </trkpt>
      <trkpt lat="48.70431" lon="5.52186">
        <ele>363.7</ele>
        <time>2020-06-29T18:36:24Z</time>
      </trkpt>
      <trkpt lat="48.70432" lon="5.52184">
        <ele>363.9</ele>
        <time>2020-06-29T18:36:25Z</time>
      </trkpt>
      <trkpt lat="48.70433" lon="5.5218">
        <ele>364.6</ele>
        <time>2020-06-29T18:36:26Z</time>
      </trkpt>
      <trkpt lat="48.70433" lon="5.52178">
        <ele>364.8</ele>
        <time>2020-06-29T18:36:27Z</time>
      </trkpt>
      <trkpt lat="48.70434" lon="5.52173">
        <ele>365.3</ele>
        <time>2020-06-29T18:36:28Z</time>
      </trkpt>
      <trkpt lat="48.70434" lon="5.52171">
        <ele>365.5</ele>
        <time>2020-06-29T18:36:29Z</time>
      </trkpt>
      <trkpt lat="48.70435" lon="5.52166">
        <ele>365.8</ele>
        <time>2020-06-29T18:36:30Z</time>
      </trkpt>
      <trkpt lat="48.70436" lon="5.52164">
        <ele>365.9</ele>
        <time>2020-06-29T18:36:31Z</time>
      </trkpt>
      <trkpt lat="48.70437" lon="5.52159">
        <ele>366.2</ele>
        <time>2020-06-29T18:36:32Z</time>
      </trkpt>
      <trkpt lat="48.70437" lon="5.52157">
        <ele>366.3</ele>
        <time>2020-06-29T18:36:33Z</time>
      </trkpt>
      <trkpt lat="48.70438" lon="5.52153">
        <ele>366.5</ele>
        <time>2020-06-29T18:36:34Z</time>
      </trkpt>
      <trkpt lat="48.70438" lon="5.52151">
        <ele>366.6</ele>
        <time>2020-06-29T18:36:35Z</time>
      </trkpt>
      <trkpt lat="48.70438" lon="5.52146">
        <ele>366.7</ele>
        <time>2020-06-29T18:36:36Z</time>
      </trkpt>
      <trkpt lat="48.70439" lon="5.52144">
        <ele>366.8</ele>
        <time>2020-06-29T18:36:37Z</time>
      </trkpt>
      <trkpt lat="48.7044" lon="5.52139">
        <ele>366.9</ele>
        <time>2020-06-29T18:36:38Z</time>
      </trkpt>
      <trkpt lat="48.7044" lon="5.52138">
        <ele>367</ele>
        <time>2020-06-29T18:36:39Z</time>
      </trkpt>
      <trkpt lat="48.7044" lon="5.52132">
        <ele>367.1</ele>
        <time>2020-06-29T18:36:40Z</time>
      </trkpt>
      <trkpt lat="48.7044" lon="5.5213">
        <ele>367.1</ele>
        <time>2020-06-29T18:36:41Z</time>
      </trkpt>
      <trkpt lat="48.70441" lon="5.52125">
        <ele>367.2</ele>
        <time>2020-06-29T18:36:42Z</time>
      </trkpt>
      <trkpt lat="48.70441" lon="5.52123">
        <ele>367.3</ele>
        <time>2020-06-29T18:36:43Z</time>
      </trkpt>
      <trkpt lat="48.70441" lon="5.52116">
        <ele>367.4</ele>
        <time>2020-06-29T18:36:44Z</time>
      </trkpt>
      <trkpt lat="48.70442" lon="5.52114">
        <ele>367.5</ele>
        <time>2020-06-29T18:36:45Z</time>
      </trkpt>
      <trkpt lat="48.70442" lon="5.52108">
        <ele>367.6</ele>
        <time>2020-06-29T18:36:46Z</time>
      </trkpt>
      <trkpt lat="48.70442" lon="5.52106">
        <ele>367.6</ele>
        <time>2020-06-29T18:36:47Z</time>
      </trkpt>
      <trkpt lat="48.70441" lon="5.521">
        <ele>367.8</ele>
        <time>2020-06-29T18:36:48Z</time>
      </trkpt>
      <trkpt lat="48.70441" lon="5.52097">
        <ele>367.8</ele>
        <time>2020-06-29T18:36:49Z</time>
      </trkpt>
      <trkpt lat="48.70442" lon="5.52092">
        <ele>367.9</ele>
        <time>2020-06-29T18:36:50Z</time>
      </trkpt>
      <trkpt lat="48.70442" lon="5.5209">
        <ele>368</ele>
        <time>2020-06-29T18:36:51Z</time>
      </trkpt>
      <trkpt lat="48.70443" lon="5.52085">
        <ele>368.1</ele>
        <time>2020-06-29T18:36:52Z</time>
      </trkpt>
      <trkpt lat="48.70443" lon="5.52083">
        <ele>368.2</ele>
        <time>2020-06-29T18:36:53Z</time>
      </trkpt>
      <trkpt lat="48.70444" lon="5.52077">
        <ele>368.3</ele>
        <time>2020-06-29T18:36:54Z</time>
      </trkpt>
      <trkpt lat="48.70444" lon="5.52075">
        <ele>368.4</ele>
        <time>2020-06-29T18:36:55Z</time>
      </trkpt>
      <trkpt lat="48.70443" lon="5.52069">
        <ele>368.5</ele>
        <time>2020-06-29T18:36:56Z</time>
      </trkpt>
      <trkpt lat="48.70444" lon="5.52063">
        <ele>368.7</ele>
        <time>2020-06-29T18:36:57Z</time>
      </trkpt>
      <trkpt lat="48.70444" lon="5.52061">
        <ele>368.7</ele>
        <time>2020-06-29T18:36:58Z</time>
      </trkpt>
      <trkpt lat="48.70445" lon="5.52055">
        <ele>368.8</ele>
        <time>2020-06-29T18:36:59Z</time>
      </trkpt>
      <trkpt lat="48.70445" lon="5.52053">
        <ele>368.8</ele>
        <time>2020-06-29T18:37:00Z</time>
      </trkpt>
      <trkpt lat="48.70444" lon="5.52048">
        <ele>368.8</ele>
        <time>2020-06-29T18:37:01Z</time>
      </trkpt>
      <trkpt lat="48.70444" lon="5.52043">
        <ele>368.8</ele>
        <time>2020-06-29T18:37:02Z</time>
      </trkpt>
      <trkpt lat="48.70444" lon="5.52036">
        <ele>368.9</ele>
        <time>2020-06-29T18:37:03Z</time>
      </trkpt>
      <trkpt lat="48.70443" lon="5.52032">
        <ele>368.9</ele>
        <time>2020-06-29T18:37:04Z</time>
      </trkpt>
      <trkpt lat="48.70443" lon="5.52027">
        <ele>368.9</ele>
        <time>2020-06-29T18:37:05Z</time>
      </trkpt>
      <trkpt lat="48.70441" lon="5.52022">
        <ele>369</ele>
        <time>2020-06-29T18:37:06Z</time>
      </trkpt>
      <trkpt lat="48.70441" lon="5.52017">
        <ele>369</ele>
        <time>2020-06-29T18:37:07Z</time>
      </trkpt>
      <trkpt lat="48.7044" lon="5.52013">
        <ele>369</ele>
        <time>2020-06-29T18:37:08Z</time>
      </trkpt>
      <trkpt lat="48.70441" lon="5.52007">
        <ele>369.1</ele>
        <time>2020-06-29T18:37:09Z</time>
      </trkpt>
      <trkpt lat="48.70441" lon="5.52001">
        <ele>369.1</ele>
        <time>2020-06-29T18:37:10Z</time>
      </trkpt>
      <trkpt lat="48.70441" lon="5.51998">
        <ele>369.1</ele>
        <time>2020-06-29T18:37:11Z</time>
      </trkpt>
      <trkpt lat="48.70441" lon="5.51993">
        <ele>369.1</ele>
        <time>2020-06-29T18:37:12Z</time>
      </trkpt>
      <trkpt lat="48.70442" lon="5.51988">
        <ele>369.2</ele>
        <time>2020-06-29T18:37:13Z</time>
      </trkpt>
      <trkpt lat="48.70442" lon="5.51986">
        <ele>369.2</ele>
        <time>2020-06-29T18:37:14Z</time>
      </trkpt>
      <trkpt lat="48.70442" lon="5.51981">
        <ele>369.2</ele>
        <time>2020-06-29T18:37:15Z</time>
      </trkpt>
      <trkpt lat="48.70441" lon="5.51976">
        <ele>369.1</ele>
        <time>2020-06-29T18:37:16Z</time>
      </trkpt>
      <trkpt lat="48.70441" lon="5.51971">
        <ele>369.1</ele>
        <time>2020-06-29T18:37:17Z</time>
      </trkpt>
      <trkpt lat="48.70441" lon="5.51965">
        <ele>369</ele>
        <time>2020-06-29T18:37:18Z</time>
      </trkpt>
      <trkpt lat="48.70441" lon="5.5196">
        <ele>368.9</ele>
        <time>2020-06-29T18:37:19Z</time>
      </trkpt>
      <trkpt lat="48.7044" lon="5.51954">
        <ele>368.8</ele>
        <time>2020-06-29T18:37:20Z</time>
      </trkpt>
      <trkpt lat="48.7044" lon="5.51952">
        <ele>368.8</ele>
        <time>2020-06-29T18:37:21Z</time>
      </trkpt>
      <trkpt lat="48.70439" lon="5.51948">
        <ele>368.7</ele>
        <time>2020-06-29T18:37:22Z</time>
      </trkpt>
      <trkpt lat="48.7044" lon="5.51942">
        <ele>368.6</ele>
        <time>2020-06-29T18:37:23Z</time>
      </trkpt>
      <trkpt lat="48.70439" lon="5.51937">
        <ele>368.4</ele>
        <time>2020-06-29T18:37:24Z</time>
      </trkpt>
      <trkpt lat="48.70438" lon="5.51932">
        <ele>368.3</ele>
        <time>2020-06-29T18:37:25Z</time>
      </trkpt>
      <trkpt lat="48.70437" lon="5.51927">
        <ele>368.1</ele>
        <time>2020-06-29T18:37:26Z</time>
      </trkpt>
      <trkpt lat="48.70437" lon="5.51923">
        <ele>368</ele>
        <time>2020-06-29T18:37:27Z</time>
      </trkpt>
      <trkpt lat="48.70437" lon="5.51917">
        <ele>367.8</ele>
        <time>2020-06-29T18:37:28Z</time>
      </trkpt>
      <trkpt lat="48.70436" lon="5.51915">
        <ele>367.7</ele>
        <time>2020-06-29T18:37:29Z</time>
      </trkpt>
      <trkpt lat="48.70436" lon="5.51909">
        <ele>367.5</ele>
        <time>2020-06-29T18:37:30Z</time>
      </trkpt>
      <trkpt lat="48.70437" lon="5.51907">
        <ele>367.4</ele>
        <time>2020-06-29T18:37:31Z</time>
      </trkpt>
      <trkpt lat="48.70436" lon="5.51903">
        <ele>367.3</ele>
        <time>2020-06-29T18:37:32Z</time>
      </trkpt>
      <trkpt lat="48.70436" lon="5.51897">
        <ele>367</ele>
        <time>2020-06-29T18:37:33Z</time>
      </trkpt>
      <trkpt lat="48.70436" lon="5.51892">
        <ele>366.8</ele>
        <time>2020-06-29T18:37:34Z</time>
      </trkpt>
      <trkpt lat="48.70436" lon="5.51887">
        <ele>366.6</ele>
        <time>2020-06-29T18:37:35Z</time>
      </trkpt>
      <trkpt lat="48.70436" lon="5.51883">
        <ele>366.4</ele>
        <time>2020-06-29T18:37:36Z</time>
      </trkpt>
      <trkpt lat="48.70436" lon="5.51876">
        <ele>366.1</ele>
        <time>2020-06-29T18:37:37Z</time>
      </trkpt>
      <trkpt lat="48.70436" lon="5.5187">
        <ele>365.8</ele>
        <time>2020-06-29T18:37:38Z</time>
      </trkpt>
      <trkpt lat="48.70436" lon="5.51862">
        <ele>365.4</ele>
        <time>2020-06-29T18:37:39Z</time>
      </trkpt>
      <trkpt lat="48.70437" lon="5.51854">
        <ele>365</ele>
        <time>2020-06-29T18:37:40Z</time>
      </trkpt>
      <trkpt lat="48.70438" lon="5.51845">
        <ele>364.5</ele>
        <time>2020-06-29T18:37:41Z</time>
      </trkpt>
      <trkpt lat="48.70438" lon="5.51837">
        <ele>364.1</ele>
        <time>2020-06-29T18:37:42Z</time>
      </trkpt>
      <trkpt lat="48.70438" lon="5.51827">
        <ele>363.8</ele>
        <time>2020-06-29T18:37:43Z</time>
      </trkpt>
      <trkpt lat="48.70439" lon="5.51817">
        <ele>363.5</ele>
        <time>2020-06-29T18:37:44Z</time>
      </trkpt>
      <trkpt lat="48.70438" lon="5.51808">
        <ele>363</ele>
        <time>2020-06-29T18:37:45Z</time>
      </trkpt>
      <trkpt lat="48.70438" lon="5.51798">
        <ele>362.6</ele>
        <time>2020-06-29T18:37:46Z</time>
      </trkpt>
      <trkpt lat="48.70438" lon="5.51787">
        <ele>362</ele>
        <time>2020-06-29T18:37:47Z</time>
      </trkpt>
      <trkpt lat="48.70438" lon="5.51776">
        <ele>361.4</ele>
        <time>2020-06-29T18:37:48Z</time>
      </trkpt>
      <trkpt lat="48.70437" lon="5.51765">
        <ele>360.8</ele>
        <time>2020-06-29T18:37:49Z</time>
      </trkpt>
      <trkpt lat="48.70437" lon="5.51754">
        <ele>360.2</ele>
        <time>2020-06-29T18:37:50Z</time>
      </trkpt>
      <trkpt lat="48.70438" lon="5.5174">
        <ele>359.6</ele>
        <time>2020-06-29T18:37:51Z</time>
      </trkpt>
      <trkpt lat="48.70438" lon="5.51726">
        <ele>359.3</ele>
        <time>2020-06-29T18:37:52Z</time>
      </trkpt>
      <trkpt lat="48.70438" lon="5.51714">
        <ele>359.1</ele>
        <time>2020-06-29T18:37:53Z</time>
      </trkpt>
      <trkpt lat="48.70437" lon="5.51702">
        <ele>358.9</ele>
        <time>2020-06-29T18:37:54Z</time>
      </trkpt>
      <trkpt lat="48.70437" lon="5.5169">
        <ele>358.7</ele>
        <time>2020-06-29T18:37:55Z</time>
      </trkpt>
      <trkpt lat="48.70437" lon="5.51679">
        <ele>358.4</ele>
        <time>2020-06-29T18:37:56Z</time>
      </trkpt>
      <trkpt lat="48.70437" lon="5.51669">
        <ele>358</ele>
        <time>2020-06-29T18:37:57Z</time>
      </trkpt>
      <trkpt lat="48.70438" lon="5.51658">
        <ele>357.7</ele>
        <time>2020-06-29T18:37:58Z</time>
      </trkpt>
      <trkpt lat="48.70438" lon="5.51647">
        <ele>357.4</ele>
        <time>2020-06-29T18:37:59Z</time>
      </trkpt>
      <trkpt lat="48.70438" lon="5.51636">
        <ele>357.1</ele>
        <time>2020-06-29T18:38:00Z</time>
      </trkpt>
      <trkpt lat="48.70439" lon="5.51625">
        <ele>356.6</ele>
        <time>2020-06-29T18:38:01Z</time>
      </trkpt>
      <trkpt lat="48.70439" lon="5.51614">
        <ele>356.1</ele>
        <time>2020-06-29T18:38:02Z</time>
      </trkpt>
      <trkpt lat="48.70439" lon="5.51602">
        <ele>355.6</ele>
        <time>2020-06-29T18:38:03Z</time>
      </trkpt>
      <trkpt lat="48.70439" lon="5.5159">
        <ele>355.1</ele>
        <time>2020-06-29T18:38:04Z</time>
      </trkpt>
      <trkpt lat="48.70439" lon="5.51578">
        <ele>354.7</ele>
        <time>2020-06-29T18:38:05Z</time>
      </trkpt>
      <trkpt lat="48.70439" lon="5.51566">
        <ele>354.3</ele>
        <time>2020-06-29T18:38:06Z</time>
      </trkpt>
      <trkpt lat="48.70439" lon="5.51554">
        <ele>353.9</ele>
        <time>2020-06-29T18:38:07Z</time>
      </trkpt>
      <trkpt lat="48.70439" lon="5.51541">
        <ele>353.5</ele>
        <time>2020-06-29T18:38:08Z</time>
      </trkpt>
      <trkpt lat="48.70439" lon="5.51529">
        <ele>353.1</ele>
        <time>2020-06-29T18:38:09Z</time>
      </trkpt>
      <trkpt lat="48.70439" lon="5.51516">
        <ele>352.8</ele>
        <time>2020-06-29T18:38:10Z</time>
      </trkpt>
      <trkpt lat="48.70439" lon="5.51503">
        <ele>352.4</ele>
        <time>2020-06-29T18:38:11Z</time>
      </trkpt>
      <trkpt lat="48.70439" lon="5.51491">
        <ele>352.2</ele>
        <time>2020-06-29T18:38:12Z</time>
      </trkpt>
      <trkpt lat="48.70439" lon="5.51479">
        <ele>352</ele>
        <time>2020-06-29T18:38:13Z</time>
      </trkpt>
      <trkpt lat="48.70439" lon="5.51467">
        <ele>352</ele>
        <time>2020-06-29T18:38:14Z</time>
      </trkpt>
      <trkpt lat="48.70439" lon="5.51456">
        <ele>352</ele>
        <time>2020-06-29T18:38:15Z</time>
      </trkpt>
      <trkpt lat="48.7044" lon="5.51444">
        <ele>352</ele>
        <time>2020-06-29T18:38:16Z</time>
      </trkpt>
      <trkpt lat="48.7044" lon="5.51433">
        <ele>352.1</ele>
        <time>2020-06-29T18:38:17Z</time>
      </trkpt>
      <trkpt lat="48.7044" lon="5.51423">
        <ele>352.1</ele>
        <time>2020-06-29T18:38:18Z</time>
      </trkpt>
      <trkpt lat="48.7044" lon="5.51412">
        <ele>352.2</ele>
        <time>2020-06-29T18:38:19Z</time>
      </trkpt>
      <trkpt lat="48.7044" lon="5.51402">
        <ele>352.2</ele>
        <time>2020-06-29T18:38:20Z</time>
      </trkpt>
      <trkpt lat="48.70441" lon="5.51391">
        <ele>352.3</ele>
        <time>2020-06-29T18:38:21Z</time>
      </trkpt>
      <trkpt lat="48.70441" lon="5.51382">
        <ele>352.4</ele>
        <time>2020-06-29T18:38:22Z</time>
      </trkpt>
      <trkpt lat="48.70442" lon="5.51372">
        <ele>352.6</ele>
        <time>2020-06-29T18:38:23Z</time>
      </trkpt>
      <trkpt lat="48.70442" lon="5.51361">
        <ele>352.8</ele>
        <time>2020-06-29T18:38:24Z</time>
      </trkpt>
      <trkpt lat="48.70442" lon="5.51352">
        <ele>353.2</ele>
        <time>2020-06-29T18:38:25Z</time>
      </trkpt>
      <trkpt lat="48.70443" lon="5.51342">
        <ele>353.7</ele>
        <time>2020-06-29T18:38:26Z</time>
      </trkpt>
      <trkpt lat="48.70443" lon="5.51333">
        <ele>354.1</ele>
        <time>2020-06-29T18:38:27Z</time>
      </trkpt>
      <trkpt lat="48.70443" lon="5.51324">
        <ele>354.5</ele>
        <time>2020-06-29T18:38:28Z</time>
      </trkpt>
      <trkpt lat="48.70442" lon="5.51315">
        <ele>354.9</ele>
        <time>2020-06-29T18:38:29Z</time>
      </trkpt>
      <trkpt lat="48.70442" lon="5.51306">
        <ele>355.2</ele>
        <time>2020-06-29T18:38:30Z</time>
      </trkpt>
      <trkpt lat="48.70443" lon="5.51298">
        <ele>355.6</ele>
        <time>2020-06-29T18:38:31Z</time>
      </trkpt>
      <trkpt lat="48.70443" lon="5.5129">
        <ele>355.9</ele>
        <time>2020-06-29T18:38:32Z</time>
      </trkpt>
      <trkpt lat="48.70443" lon="5.51282">
        <ele>356.2</ele>
        <time>2020-06-29T18:38:33Z</time>
      </trkpt>
      <trkpt lat="48.70443" lon="5.51275">
        <ele>356.4</ele>
        <time>2020-06-29T18:38:34Z</time>
      </trkpt>
      <trkpt lat="48.70443" lon="5.51267">
        <ele>356.7</ele>
        <time>2020-06-29T18:38:35Z</time>
      </trkpt>
      <trkpt lat="48.70442" lon="5.5126">
        <ele>357</ele>
        <time>2020-06-29T18:38:36Z</time>
      </trkpt>
      <trkpt lat="48.7044" lon="5.51253">
        <ele>357.3</ele>
        <time>2020-06-29T18:38:37Z</time>
      </trkpt>
      <trkpt lat="48.7044" lon="5.51246">
        <ele>357.6</ele>
        <time>2020-06-29T18:38:38Z</time>
      </trkpt>
      <trkpt lat="48.7044" lon="5.51238">
        <ele>358</ele>
        <time>2020-06-29T18:38:39Z</time>
      </trkpt>
      <trkpt lat="48.70439" lon="5.51231">
        <ele>358.3</ele>
        <time>2020-06-29T18:38:40Z</time>
      </trkpt>
      <trkpt lat="48.70439" lon="5.51224">
        <ele>358.7</ele>
        <time>2020-06-29T18:38:41Z</time>
      </trkpt>
      <trkpt lat="48.70439" lon="5.51217">
        <ele>359</ele>
        <time>2020-06-29T18:38:42Z</time>
      </trkpt>
      <trkpt lat="48.70438" lon="5.5121">
        <ele>359.4</ele>
        <time>2020-06-29T18:38:43Z</time>
      </trkpt>
      <trkpt lat="48.70438" lon="5.51204">
        <ele>359.6</ele>
        <time>2020-06-29T18:38:44Z</time>
      </trkpt>
      <trkpt lat="48.70438" lon="5.51198">
        <ele>359.8</ele>
        <time>2020-06-29T18:38:45Z</time>
      </trkpt>
      <trkpt lat="48.70438" lon="5.51193">
        <ele>360</ele>
        <time>2020-06-29T18:38:46Z</time>
      </trkpt>
      <trkpt lat="48.70439" lon="5.51189">
        <ele>360.1</ele>
        <time>2020-06-29T18:38:47Z</time>
      </trkpt>
      <trkpt lat="48.70439" lon="5.51184">
        <ele>360.2</ele>
        <time>2020-06-29T18:38:48Z</time>
      </trkpt>
      <trkpt lat="48.70438" lon="5.51179">
        <ele>360.3</ele>
        <time>2020-06-29T18:38:49Z</time>
      </trkpt>
      <trkpt lat="48.70438" lon="5.51172">
        <ele>360.4</ele>
        <time>2020-06-29T18:38:50Z</time>
      </trkpt>
      <trkpt lat="48.70437" lon="5.51168">
        <ele>360.5</ele>
        <time>2020-06-29T18:38:51Z</time>
      </trkpt>
      <trkpt lat="48.70437" lon="5.51163">
        <ele>360.5</ele>
        <time>2020-06-29T18:38:52Z</time>
      </trkpt>
      <trkpt lat="48.70437" lon="5.51156">
        <ele>360.5</ele>
        <time>2020-06-29T18:38:53Z</time>
      </trkpt>
      <trkpt lat="48.70437" lon="5.51151">
        <ele>360.5</ele>
        <time>2020-06-29T18:38:54Z</time>
      </trkpt>
      <trkpt lat="48.70436" lon="5.51144">
        <ele>360.6</ele>
        <time>2020-06-29T18:38:55Z</time>
      </trkpt>
      <trkpt lat="48.70436" lon="5.51139">
        <ele>360.6</ele>
        <time>2020-06-29T18:38:56Z</time>
      </trkpt>
      <trkpt lat="48.70436" lon="5.51137">
        <ele>360.6</ele>
        <time>2020-06-29T18:38:57Z</time>
      </trkpt>
      <trkpt lat="48.70436" lon="5.51134">
        <ele>360.7</ele>
        <time>2020-06-29T18:38:58Z</time>
      </trkpt>
      <trkpt lat="48.70437" lon="5.51129">
        <ele>360.7</ele>
        <time>2020-06-29T18:38:59Z</time>
      </trkpt>
      <trkpt lat="48.70438" lon="5.51125">
        <ele>360.7</ele>
        <time>2020-06-29T18:39:00Z</time>
      </trkpt>
      <trkpt lat="48.70439" lon="5.51124">
        <ele>360.7</ele>
        <time>2020-06-29T18:39:01Z</time>
      </trkpt>
      <trkpt lat="48.7044" lon="5.5112">
        <ele>360.7</ele>
        <time>2020-06-29T18:39:02Z</time>
      </trkpt>
      <trkpt lat="48.7044" lon="5.51119">
        <ele>360.7</ele>
        <time>2020-06-29T18:39:03Z</time>
      </trkpt>
      <trkpt lat="48.7044" lon="5.51116">
        <ele>360.6</ele>
        <time>2020-06-29T18:39:04Z</time>
      </trkpt>
      <trkpt lat="48.70441" lon="5.51114">
        <ele>360.6</ele>
        <time>2020-06-29T18:39:05Z</time>
      </trkpt>
      <trkpt lat="48.70441" lon="5.51113">
        <ele>360.6</ele>
        <time>2020-06-29T18:39:06Z</time>
      </trkpt>
      <trkpt lat="48.70441" lon="5.51114">
        <ele>360.6</ele>
        <time>2020-06-29T18:39:07Z</time>
      </trkpt>
      <trkpt lat="48.70441" lon="5.51115">
        <ele>360.6</ele>
        <time>2020-06-29T18:39:08Z</time>
      </trkpt>
      <trkpt lat="48.70441" lon="5.51115">
        <ele>360.6</ele>
        <time>2020-06-29T18:39:09Z</time>
      </trkpt>
      <trkpt lat="48.70441" lon="5.51115">
        <ele>360.6</ele>
        <time>2020-06-29T18:39:10Z</time>
      </trkpt>
      <trkpt lat="48.70441" lon="5.51114">
        <ele>360.6</ele>
        <time>2020-06-29T18:39:11Z</time>
      </trkpt>
      <trkpt lat="48.70441" lon="5.51113">
        <ele>360.6</ele>
        <time>2020-06-29T18:39:12Z</time>
      </trkpt>
      <trkpt lat="48.70441" lon="5.51112">
        <ele>360.6</ele>
        <time>2020-06-29T18:39:13Z</time>
      </trkpt>
      <trkpt lat="48.70441" lon="5.51111">
        <ele>360.5</ele>
        <time>2020-06-29T18:39:14Z</time>
      </trkpt>
      <trkpt lat="48.7044" lon="5.5111">
        <ele>360.5</ele>
        <time>2020-06-29T18:39:15Z</time>
      </trkpt>
      <trkpt lat="48.70441" lon="5.51109">
        <ele>360.5</ele>
        <time>2020-06-29T18:39:16Z</time>
      </trkpt>
      <trkpt lat="48.70441" lon="5.51109">
        <ele>360.5</ele>
        <time>2020-06-29T18:39:17Z</time>
      </trkpt>
      <trkpt lat="48.70441" lon="5.51105">
        <ele>360.4</ele>
        <time>2020-06-29T18:39:18Z</time>
      </trkpt>
      <trkpt lat="48.70441" lon="5.51105">
        <ele>360.4</ele>
        <time>2020-06-29T18:39:19Z</time>
      </trkpt>
      <trkpt lat="48.70441" lon="5.51102">
        <ele>360.4</ele>
        <time>2020-06-29T18:39:20Z</time>
      </trkpt>
      <trkpt lat="48.70441" lon="5.511">
        <ele>360.4</ele>
        <time>2020-06-29T18:39:21Z</time>
      </trkpt>
      <trkpt lat="48.7044" lon="5.511">
        <ele>360.3</ele>
        <time>2020-06-29T18:39:22Z</time>
      </trkpt>
      <trkpt lat="48.7044" lon="5.51098">
        <ele>360.3</ele>
        <time>2020-06-29T18:39:23Z</time>
      </trkpt>
      <trkpt lat="48.70439" lon="5.51096">
        <ele>360.3</ele>
        <time>2020-06-29T18:39:24Z</time>
      </trkpt>
      <trkpt lat="48.70439" lon="5.51095">
        <ele>360.3</ele>
        <time>2020-06-29T18:39:25Z</time>
      </trkpt>
      <trkpt lat="48.70439" lon="5.51094">
        <ele>360.3</ele>
        <time>2020-06-29T18:39:26Z</time>
      </trkpt>
      <trkpt lat="48.70439" lon="5.51091">
        <ele>360.2</ele>
        <time>2020-06-29T18:39:27Z</time>
      </trkpt>
      <trkpt lat="48.70439" lon="5.5109">
        <ele>360.2</ele>
        <time>2020-06-29T18:39:28Z</time>
      </trkpt>
      <trkpt lat="48.7044" lon="5.51087">
        <ele>360.2</ele>
        <time>2020-06-29T18:39:29Z</time>
      </trkpt>
      <trkpt lat="48.70439" lon="5.51082">
        <ele>360.1</ele>
        <time>2020-06-29T18:39:30Z</time>
      </trkpt>
      <trkpt lat="48.70439" lon="5.51081">
        <ele>360.1</ele>
        <time>2020-06-29T18:39:31Z</time>
      </trkpt>
      <trkpt lat="48.70439" lon="5.51077">
        <ele>360.1</ele>
        <time>2020-06-29T18:39:32Z</time>
      </trkpt>
      <trkpt lat="48.7044" lon="5.51075">
        <ele>360.1</ele>
        <time>2020-06-29T18:39:33Z</time>
      </trkpt>
      <trkpt lat="48.70441" lon="5.5107">
        <ele>360</ele>
        <time>2020-06-29T18:39:34Z</time>
      </trkpt>
      <trkpt lat="48.70441" lon="5.51068">
        <ele>359.9</ele>
        <time>2020-06-29T18:39:35Z</time>
      </trkpt>
      <trkpt lat="48.70442" lon="5.51063">
        <ele>359.8</ele>
        <time>2020-06-29T18:39:36Z</time>
      </trkpt>
      <trkpt lat="48.70442" lon="5.51062">
        <ele>359.8</ele>
        <time>2020-06-29T18:39:37Z</time>
      </trkpt>
      <trkpt lat="48.70442" lon="5.51059">
        <ele>359.8</ele>
        <time>2020-06-29T18:39:38Z</time>
      </trkpt>
      <trkpt lat="48.70443" lon="5.51057">
        <ele>359.7</ele>
        <time>2020-06-29T18:39:39Z</time>
      </trkpt>
      <trkpt lat="48.70443" lon="5.51053">
        <ele>359.6</ele>
        <time>2020-06-29T18:39:40Z</time>
      </trkpt>
      <trkpt lat="48.70444" lon="5.51052">
        <ele>359.6</ele>
        <time>2020-06-29T18:39:41Z</time>
      </trkpt>
      <trkpt lat="48.70444" lon="5.51047">
        <ele>359.5</ele>
        <time>2020-06-29T18:39:42Z</time>
      </trkpt>
      <trkpt lat="48.70444" lon="5.51045">
        <ele>359.5</ele>
        <time>2020-06-29T18:39:43Z</time>
      </trkpt>
      <trkpt lat="48.70444" lon="5.51041">
        <ele>359.4</ele>
        <time>2020-06-29T18:39:44Z</time>
      </trkpt>
      <trkpt lat="48.70444" lon="5.51039">
        <ele>359.4</ele>
        <time>2020-06-29T18:39:45Z</time>
      </trkpt>
      <trkpt lat="48.70443" lon="5.51034">
        <ele>359.2</ele>
        <time>2020-06-29T18:39:46Z</time>
      </trkpt>
      <trkpt lat="48.70443" lon="5.51031">
        <ele>359.2</ele>
        <time>2020-06-29T18:39:47Z</time>
      </trkpt>
      <trkpt lat="48.70444" lon="5.51027">
        <ele>359.1</ele>
        <time>2020-06-29T18:39:48Z</time>
      </trkpt>
      <trkpt lat="48.70443" lon="5.51021">
        <ele>359</ele>
        <time>2020-06-29T18:39:49Z</time>
      </trkpt>
      <trkpt lat="48.70443" lon="5.51015">
        <ele>358.9</ele>
        <time>2020-06-29T18:39:50Z</time>
      </trkpt>
      <trkpt lat="48.70443" lon="5.51011">
        <ele>358.8</ele>
        <time>2020-06-29T18:39:51Z</time>
      </trkpt>
      <trkpt lat="48.70443" lon="5.51005">
        <ele>358.7</ele>
        <time>2020-06-29T18:39:52Z</time>
      </trkpt>
      <trkpt lat="48.70443" lon="5.50999">
        <ele>358.5</ele>
        <time>2020-06-29T18:39:53Z</time>
      </trkpt>
      <trkpt lat="48.70443" lon="5.50994">
        <ele>358.4</ele>
        <time>2020-06-29T18:39:54Z</time>
      </trkpt>
      <trkpt lat="48.70443" lon="5.50987">
        <ele>358.3</ele>
        <time>2020-06-29T18:39:55Z</time>
      </trkpt>
      <trkpt lat="48.70444" lon="5.50981">
        <ele>358.2</ele>
        <time>2020-06-29T18:39:56Z</time>
      </trkpt>
      <trkpt lat="48.70444" lon="5.50977">
        <ele>358.1</ele>
        <time>2020-06-29T18:39:57Z</time>
      </trkpt>
      <trkpt lat="48.70444" lon="5.50972">
        <ele>358</ele>
        <time>2020-06-29T18:39:58Z</time>
      </trkpt>
      <trkpt lat="48.70444" lon="5.50966">
        <ele>357.9</ele>
        <time>2020-06-29T18:39:59Z</time>
      </trkpt>
      <trkpt lat="48.70444" lon="5.50961">
        <ele>357.8</ele>
        <time>2020-06-29T18:40:00Z</time>
      </trkpt>
      <trkpt lat="48.70444" lon="5.50956">
        <ele>357.7</ele>
        <time>2020-06-29T18:40:01Z</time>
      </trkpt>
      <trkpt lat="48.70444" lon="5.50952">
        <ele>357.6</ele>
        <time>2020-06-29T18:40:02Z</time>
      </trkpt>
      <trkpt lat="48.70444" lon="5.50946">
        <ele>357.5</ele>
        <time>2020-06-29T18:40:03Z</time>
      </trkpt>
      <trkpt lat="48.70444" lon="5.50944">
        <ele>357.4</ele>
        <time>2020-06-29T18:40:04Z</time>
      </trkpt>
      <trkpt lat="48.70444" lon="5.50939">
        <ele>357.3</ele>
        <time>2020-06-29T18:40:05Z</time>
      </trkpt>
      <trkpt lat="48.70444" lon="5.50934">
        <ele>357.2</ele>
        <time>2020-06-29T18:40:06Z</time>
      </trkpt>
      <trkpt lat="48.70444" lon="5.50932">
        <ele>357.2</ele>
        <time>2020-06-29T18:40:07Z</time>
      </trkpt>
      <trkpt lat="48.70444" lon="5.50927">
        <ele>357.1</ele>
        <time>2020-06-29T18:40:08Z</time>
      </trkpt>
      <trkpt lat="48.70444" lon="5.50925">
        <ele>357</ele>
        <time>2020-06-29T18:40:09Z</time>
      </trkpt>
      <trkpt lat="48.70445" lon="5.5092">
        <ele>357</ele>
        <time>2020-06-29T18:40:10Z</time>
      </trkpt>
      <trkpt lat="48.70445" lon="5.50919">
        <ele>356.9</ele>
        <time>2020-06-29T18:40:11Z</time>
      </trkpt>
      <trkpt lat="48.70445" lon="5.50913">
        <ele>356.8</ele>
        <time>2020-06-29T18:40:12Z</time>
      </trkpt>
      <trkpt lat="48.70445" lon="5.50911">
        <ele>356.8</ele>
        <time>2020-06-29T18:40:13Z</time>
      </trkpt>
      <trkpt lat="48.70446" lon="5.50907">
        <ele>356.7</ele>
        <time>2020-06-29T18:40:14Z</time>
      </trkpt>
      <trkpt lat="48.70446" lon="5.50905">
        <ele>356.6</ele>
        <time>2020-06-29T18:40:15Z</time>
      </trkpt>
      <trkpt lat="48.70446" lon="5.50899">
        <ele>356.5</ele>
        <time>2020-06-29T18:40:16Z</time>
      </trkpt>
      <trkpt lat="48.70445" lon="5.50897">
        <ele>356.5</ele>
        <time>2020-06-29T18:40:17Z</time>
      </trkpt>
      <trkpt lat="48.70446" lon="5.50892">
        <ele>356.4</ele>
        <time>2020-06-29T18:40:18Z</time>
      </trkpt>
      <trkpt lat="48.70445" lon="5.5089">
        <ele>356.3</ele>
        <time>2020-06-29T18:40:19Z</time>
      </trkpt>
      <trkpt lat="48.70446" lon="5.50885">
        <ele>356.2</ele>
        <time>2020-06-29T18:40:20Z</time>
      </trkpt>
      <trkpt lat="48.70446" lon="5.50883">
        <ele>356.2</ele>
        <time>2020-06-29T18:40:21Z</time>
      </trkpt>
      <trkpt lat="48.70447" lon="5.50878">
        <ele>356.1</ele>
        <time>2020-06-29T18:40:22Z</time>
      </trkpt>
      <trkpt lat="48.70447" lon="5.50876">
        <ele>356</ele>
        <time>2020-06-29T18:40:23Z</time>
      </trkpt>
      <trkpt lat="48.70448" lon="5.50872">
        <ele>356</ele>
        <time>2020-06-29T18:40:24Z</time>
      </trkpt>
      <trkpt lat="48.70448" lon="5.50866">
        <ele>355.8</ele>
        <time>2020-06-29T18:40:25Z</time>
      </trkpt>
      <trkpt lat="48.70449" lon="5.50863">
        <ele>355.8</ele>
        <time>2020-06-29T18:40:26Z</time>
      </trkpt>
      <trkpt lat="48.70449" lon="5.50859">
        <ele>355.7</ele>
        <time>2020-06-29T18:40:27Z</time>
      </trkpt>
      <trkpt lat="48.7045" lon="5.50854">
        <ele>355.6</ele>
        <time>2020-06-29T18:40:28Z</time>
      </trkpt>
      <trkpt lat="48.7045" lon="5.50849">
        <ele>355.5</ele>
        <time>2020-06-29T18:40:29Z</time>
      </trkpt>
      <trkpt lat="48.7045" lon="5.50844">
        <ele>355.4</ele>
        <time>2020-06-29T18:40:30Z</time>
      </trkpt>
      <trkpt lat="48.7045" lon="5.50838">
        <ele>355.3</ele>
        <time>2020-06-29T18:40:31Z</time>
      </trkpt>
      <trkpt lat="48.70451" lon="5.50834">
        <ele>355.2</ele>
        <time>2020-06-29T18:40:32Z</time>
      </trkpt>
      <trkpt lat="48.70451" lon="5.50829">
        <ele>355.1</ele>
        <time>2020-06-29T18:40:33Z</time>
      </trkpt>
      <trkpt lat="48.70451" lon="5.50824">
        <ele>355</ele>
        <time>2020-06-29T18:40:34Z</time>
      </trkpt>
      <trkpt lat="48.70451" lon="5.50819">
        <ele>354.9</ele>
        <time>2020-06-29T18:40:35Z</time>
      </trkpt>
      <trkpt lat="48.70451" lon="5.50814">
        <ele>354.8</ele>
        <time>2020-06-29T18:40:36Z</time>
      </trkpt>
      <trkpt lat="48.70451" lon="5.5081">
        <ele>354.7</ele>
        <time>2020-06-29T18:40:37Z</time>
      </trkpt>
      <trkpt lat="48.70451" lon="5.50805">
        <ele>354.6</ele>
        <time>2020-06-29T18:40:38Z</time>
      </trkpt>
      <trkpt lat="48.70451" lon="5.508">
        <ele>354.5</ele>
        <time>2020-06-29T18:40:39Z</time>
      </trkpt>
      <trkpt lat="48.70451" lon="5.50795">
        <ele>354.4</ele>
        <time>2020-06-29T18:40:40Z</time>
      </trkpt>
      <trkpt lat="48.70451" lon="5.5079">
        <ele>354.3</ele>
        <time>2020-06-29T18:40:41Z</time>
      </trkpt>
      <trkpt lat="48.70451" lon="5.50785">
        <ele>354.2</ele>
        <time>2020-06-29T18:40:42Z</time>
      </trkpt>
      <trkpt lat="48.70451" lon="5.50779">
        <ele>354.1</ele>
        <time>2020-06-29T18:40:43Z</time>
      </trkpt>
      <trkpt lat="48.70452" lon="5.50777">
        <ele>354</ele>
        <time>2020-06-29T18:40:44Z</time>
      </trkpt>
      <trkpt lat="48.70452" lon="5.50773">
        <ele>354</ele>
        <time>2020-06-29T18:40:45Z</time>
      </trkpt>
      <trkpt lat="48.70453" lon="5.50769">
        <ele>353.9</ele>
        <time>2020-06-29T18:40:46Z</time>
      </trkpt>
      <trkpt lat="48.70454" lon="5.50763">
        <ele>353.8</ele>
        <time>2020-06-29T18:40:47Z</time>
      </trkpt>
      <trkpt lat="48.70454" lon="5.50756">
        <ele>353.6</ele>
        <time>2020-06-29T18:40:48Z</time>
      </trkpt>
      <trkpt lat="48.70455" lon="5.5075">
        <ele>353.5</ele>
        <time>2020-06-29T18:40:49Z</time>
      </trkpt>
      <trkpt lat="48.70456" lon="5.50742">
        <ele>353.3</ele>
        <time>2020-06-29T18:40:50Z</time>
      </trkpt>
      <trkpt lat="48.70455" lon="5.50736">
        <ele>353.2</ele>
        <time>2020-06-29T18:40:51Z</time>
      </trkpt>
      <trkpt lat="48.70455" lon="5.5073">
        <ele>353.1</ele>
        <time>2020-06-29T18:40:52Z</time>
      </trkpt>
      <trkpt lat="48.70455" lon="5.50723">
        <ele>352.9</ele>
        <time>2020-06-29T18:40:53Z</time>
      </trkpt>
      <trkpt lat="48.70456" lon="5.50718">
        <ele>352.8</ele>
        <time>2020-06-29T18:40:54Z</time>
      </trkpt>
      <trkpt lat="48.70458" lon="5.5071">
        <ele>352.7</ele>
        <time>2020-06-29T18:40:55Z</time>
      </trkpt>
      <trkpt lat="48.70458" lon="5.50704">
        <ele>352.5</ele>
        <time>2020-06-29T18:40:56Z</time>
      </trkpt>
      <trkpt lat="48.70459" lon="5.50697">
        <ele>352.4</ele>
        <time>2020-06-29T18:40:57Z</time>
      </trkpt>
      <trkpt lat="48.70458" lon="5.5069">
        <ele>352.3</ele>
        <time>2020-06-29T18:40:58Z</time>
      </trkpt>
      <trkpt lat="48.70458" lon="5.50682">
        <ele>352.1</ele>
        <time>2020-06-29T18:40:59Z</time>
      </trkpt>
      <trkpt lat="48.70458" lon="5.50675">
        <ele>352</ele>
        <time>2020-06-29T18:41:00Z</time>
      </trkpt>
      <trkpt lat="48.70458" lon="5.50668">
        <ele>351.8</ele>
        <time>2020-06-29T18:41:01Z</time>
      </trkpt>
      <trkpt lat="48.70459" lon="5.50662">
        <ele>351.7</ele>
        <time>2020-06-29T18:41:02Z</time>
      </trkpt>
      <trkpt lat="48.70459" lon="5.50655">
        <ele>351.6</ele>
        <time>2020-06-29T18:41:03Z</time>
      </trkpt>
      <trkpt lat="48.7046" lon="5.50649">
        <ele>351.4</ele>
        <time>2020-06-29T18:41:04Z</time>
      </trkpt>
      <trkpt lat="48.70462" lon="5.50643">
        <ele>351.3</ele>
        <time>2020-06-29T18:41:05Z</time>
      </trkpt>
      <trkpt lat="48.70464" lon="5.50636">
        <ele>351.2</ele>
        <time>2020-06-29T18:41:06Z</time>
      </trkpt>
      <trkpt lat="48.70466" lon="5.50629">
        <ele>351</ele>
        <time>2020-06-29T18:41:07Z</time>
      </trkpt>
      <trkpt lat="48.70467" lon="5.50624">
        <ele>350.9</ele>
        <time>2020-06-29T18:41:08Z</time>
      </trkpt>
      <trkpt lat="48.70468" lon="5.50619">
        <ele>350.8</ele>
        <time>2020-06-29T18:41:09Z</time>
      </trkpt>
      <trkpt lat="48.70469" lon="5.50613">
        <ele>350.7</ele>
        <time>2020-06-29T18:41:10Z</time>
      </trkpt>
      <trkpt lat="48.7047" lon="5.50606">
        <ele>350.5</ele>
        <time>2020-06-29T18:41:11Z</time>
      </trkpt>
      <trkpt lat="48.70471" lon="5.50599">
        <ele>350.4</ele>
        <time>2020-06-29T18:41:12Z</time>
      </trkpt>
      <trkpt lat="48.70471" lon="5.50592">
        <ele>350.2</ele>
        <time>2020-06-29T18:41:13Z</time>
      </trkpt>
      <trkpt lat="48.70472" lon="5.50584">
        <ele>350.1</ele>
        <time>2020-06-29T18:41:14Z</time>
      </trkpt>
      <trkpt lat="48.70473" lon="5.50575">
        <ele>349.9</ele>
        <time>2020-06-29T18:41:15Z</time>
      </trkpt>
      <trkpt lat="48.70475" lon="5.50569">
        <ele>349.8</ele>
        <time>2020-06-29T18:41:16Z</time>
      </trkpt>
      <trkpt lat="48.70476" lon="5.50562">
        <ele>349.6</ele>
        <time>2020-06-29T18:41:17Z</time>
      </trkpt>
      <trkpt lat="48.70476" lon="5.50555">
        <ele>349.5</ele>
        <time>2020-06-29T18:41:18Z</time>
      </trkpt>
      <trkpt lat="48.70477" lon="5.50548">
        <ele>349.3</ele>
        <time>2020-06-29T18:41:19Z</time>
      </trkpt>
      <trkpt lat="48.70477" lon="5.50541">
        <ele>349.2</ele>
        <time>2020-06-29T18:41:20Z</time>
      </trkpt>
      <trkpt lat="48.70478" lon="5.50534">
        <ele>349</ele>
        <time>2020-06-29T18:41:21Z</time>
      </trkpt>
      <trkpt lat="48.70478" lon="5.50525">
        <ele>348.9</ele>
        <time>2020-06-29T18:41:22Z</time>
      </trkpt>
      <trkpt lat="48.70479" lon="5.50518">
        <ele>348.7</ele>
        <time>2020-06-29T18:41:23Z</time>
      </trkpt>
      <trkpt lat="48.7048" lon="5.5051">
        <ele>348.6</ele>
        <time>2020-06-29T18:41:24Z</time>
      </trkpt>
      <trkpt lat="48.70481" lon="5.50503">
        <ele>348.4</ele>
        <time>2020-06-29T18:41:25Z</time>
      </trkpt>
      <trkpt lat="48.70481" lon="5.50494">
        <ele>348.2</ele>
        <time>2020-06-29T18:41:26Z</time>
      </trkpt>
      <trkpt lat="48.70481" lon="5.50485">
        <ele>348.1</ele>
        <time>2020-06-29T18:41:27Z</time>
      </trkpt>
      <trkpt lat="48.70482" lon="5.50476">
        <ele>347.9</ele>
        <time>2020-06-29T18:41:28Z</time>
      </trkpt>
      <trkpt lat="48.70483" lon="5.50467">
        <ele>347.7</ele>
        <time>2020-06-29T18:41:29Z</time>
      </trkpt>
      <trkpt lat="48.70484" lon="5.50458">
        <ele>347.5</ele>
        <time>2020-06-29T18:41:30Z</time>
      </trkpt>
      <trkpt lat="48.70486" lon="5.50449">
        <ele>347.3</ele>
        <time>2020-06-29T18:41:31Z</time>
      </trkpt>
      <trkpt lat="48.70486" lon="5.50438">
        <ele>347.1</ele>
        <time>2020-06-29T18:41:32Z</time>
      </trkpt>
      <trkpt lat="48.70486" lon="5.5043">
        <ele>346.9</ele>
        <time>2020-06-29T18:41:33Z</time>
      </trkpt>
      <trkpt lat="48.70488" lon="5.5042">
        <ele>346.7</ele>
        <time>2020-06-29T18:41:34Z</time>
      </trkpt>
      <trkpt lat="48.70489" lon="5.50411">
        <ele>346.5</ele>
        <time>2020-06-29T18:41:35Z</time>
      </trkpt>
      <trkpt lat="48.7049" lon="5.504">
        <ele>346.3</ele>
        <time>2020-06-29T18:41:36Z</time>
      </trkpt>
      <trkpt lat="48.70491" lon="5.50389">
        <ele>346.1</ele>
        <time>2020-06-29T18:41:37Z</time>
      </trkpt>
      <trkpt lat="48.70491" lon="5.50379">
        <ele>345.9</ele>
        <time>2020-06-29T18:41:38Z</time>
      </trkpt>
      <trkpt lat="48.70492" lon="5.50368">
        <ele>345.7</ele>
        <time>2020-06-29T18:41:39Z</time>
      </trkpt>
      <trkpt lat="48.70492" lon="5.50357">
        <ele>345.5</ele>
        <time>2020-06-29T18:41:40Z</time>
      </trkpt>
      <trkpt lat="48.70493" lon="5.50346">
        <ele>345.2</ele>
        <time>2020-06-29T18:41:41Z</time>
      </trkpt>
      <trkpt lat="48.70494" lon="5.50336">
        <ele>345</ele>
        <time>2020-06-29T18:41:42Z</time>
      </trkpt>
      <trkpt lat="48.70495" lon="5.50327">
        <ele>344.8</ele>
        <time>2020-06-29T18:41:43Z</time>
      </trkpt>
      <trkpt lat="48.70495" lon="5.50316">
        <ele>344.6</ele>
        <time>2020-06-29T18:41:44Z</time>
      </trkpt>
      <trkpt lat="48.70496" lon="5.50305">
        <ele>344.4</ele>
        <time>2020-06-29T18:41:45Z</time>
      </trkpt>
      <trkpt lat="48.70496" lon="5.50295">
        <ele>344.2</ele>
        <time>2020-06-29T18:41:46Z</time>
      </trkpt>
      <trkpt lat="48.70497" lon="5.50284">
        <ele>344</ele>
        <time>2020-06-29T18:41:47Z</time>
      </trkpt>
      <trkpt lat="48.70498" lon="5.50273">
        <ele>343.8</ele>
        <time>2020-06-29T18:41:48Z</time>
      </trkpt>
      <trkpt lat="48.70499" lon="5.50261">
        <ele>343.5</ele>
        <time>2020-06-29T18:41:49Z</time>
      </trkpt>
      <trkpt lat="48.70498" lon="5.5025">
        <ele>343.3</ele>
        <time>2020-06-29T18:41:50Z</time>
      </trkpt>
      <trkpt lat="48.70498" lon="5.50239">
        <ele>343.1</ele>
        <time>2020-06-29T18:41:51Z</time>
      </trkpt>
      <trkpt lat="48.70498" lon="5.50227">
        <ele>342.8</ele>
        <time>2020-06-29T18:41:52Z</time>
      </trkpt>
      <trkpt lat="48.70499" lon="5.50216">
        <ele>342.6</ele>
        <time>2020-06-29T18:41:53Z</time>
      </trkpt>
      <trkpt lat="48.705" lon="5.50205">
        <ele>342.4</ele>
        <time>2020-06-29T18:41:54Z</time>
      </trkpt>
      <trkpt lat="48.70501" lon="5.50193">
        <ele>342.2</ele>
        <time>2020-06-29T18:41:55Z</time>
      </trkpt>
      <trkpt lat="48.70502" lon="5.50182">
        <ele>341.9</ele>
        <time>2020-06-29T18:41:56Z</time>
      </trkpt>
      <trkpt lat="48.70503" lon="5.50171">
        <ele>341.7</ele>
        <time>2020-06-29T18:41:57Z</time>
      </trkpt>
      <trkpt lat="48.70504" lon="5.5016">
        <ele>341.5</ele>
        <time>2020-06-29T18:41:58Z</time>
      </trkpt>
      <trkpt lat="48.70504" lon="5.50148">
        <ele>341.2</ele>
        <time>2020-06-29T18:41:59Z</time>
      </trkpt>
      <trkpt lat="48.70504" lon="5.50137">
        <ele>341</ele>
        <time>2020-06-29T18:42:00Z</time>
      </trkpt>
      <trkpt lat="48.70505" lon="5.50127">
        <ele>340.8</ele>
        <time>2020-06-29T18:42:01Z</time>
      </trkpt>
      <trkpt lat="48.70506" lon="5.50117">
        <ele>340.6</ele>
        <time>2020-06-29T18:42:02Z</time>
      </trkpt>
      <trkpt lat="48.70507" lon="5.50108">
        <ele>340.4</ele>
        <time>2020-06-29T18:42:03Z</time>
      </trkpt>
      <trkpt lat="48.70507" lon="5.50097">
        <ele>340.2</ele>
        <time>2020-06-29T18:42:04Z</time>
      </trkpt>
      <trkpt lat="48.70508" lon="5.50086">
        <ele>340</ele>
        <time>2020-06-29T18:42:05Z</time>
      </trkpt>
      <trkpt lat="48.7051" lon="5.50075">
        <ele>339.8</ele>
        <time>2020-06-29T18:42:06Z</time>
      </trkpt>
      <trkpt lat="48.70511" lon="5.50063">
        <ele>339.5</ele>
        <time>2020-06-29T18:42:07Z</time>
      </trkpt>
      <trkpt lat="48.70512" lon="5.50051">
        <ele>339.3</ele>
        <time>2020-06-29T18:42:08Z</time>
      </trkpt>
      <trkpt lat="48.70514" lon="5.50038">
        <ele>339</ele>
        <time>2020-06-29T18:42:09Z</time>
      </trkpt>
      <trkpt lat="48.70515" lon="5.50026">
        <ele>338.8</ele>
        <time>2020-06-29T18:42:10Z</time>
      </trkpt>
      <trkpt lat="48.70518" lon="5.50013">
        <ele>338.5</ele>
        <time>2020-06-29T18:42:11Z</time>
      </trkpt>
      <trkpt lat="48.70519" lon="5.49999">
        <ele>338.2</ele>
        <time>2020-06-29T18:42:12Z</time>
      </trkpt>
      <trkpt lat="48.70521" lon="5.49986">
        <ele>337.9</ele>
        <time>2020-06-29T18:42:13Z</time>
      </trkpt>
      <trkpt lat="48.70523" lon="5.49972">
        <ele>337.7</ele>
        <time>2020-06-29T18:42:14Z</time>
      </trkpt>
      <trkpt lat="48.70524" lon="5.49959">
        <ele>337.4</ele>
        <time>2020-06-29T18:42:15Z</time>
      </trkpt>
      <trkpt lat="48.70526" lon="5.49945">
        <ele>337.1</ele>
        <time>2020-06-29T18:42:16Z</time>
      </trkpt>
      <trkpt lat="48.70528" lon="5.49931">
        <ele>336.8</ele>
        <time>2020-06-29T18:42:17Z</time>
      </trkpt>
      <trkpt lat="48.70531" lon="5.49918">
        <ele>336.5</ele>
        <time>2020-06-29T18:42:18Z</time>
      </trkpt>
      <trkpt lat="48.70533" lon="5.49904">
        <ele>336.3</ele>
        <time>2020-06-29T18:42:19Z</time>
      </trkpt>
      <trkpt lat="48.70536" lon="5.49891">
        <ele>336</ele>
        <time>2020-06-29T18:42:20Z</time>
      </trkpt>
      <trkpt lat="48.70538" lon="5.49878">
        <ele>335.7</ele>
        <time>2020-06-29T18:42:21Z</time>
      </trkpt>
      <trkpt lat="48.7054" lon="5.49865">
        <ele>335.4</ele>
        <time>2020-06-29T18:42:22Z</time>
      </trkpt>
      <trkpt lat="48.70542" lon="5.49853">
        <ele>335.2</ele>
        <time>2020-06-29T18:42:23Z</time>
      </trkpt>
      <trkpt lat="48.70544" lon="5.49841">
        <ele>334.9</ele>
        <time>2020-06-29T18:42:24Z</time>
      </trkpt>
      <trkpt lat="48.70545" lon="5.49829">
        <ele>334.7</ele>
        <time>2020-06-29T18:42:25Z</time>
      </trkpt>
      <trkpt lat="48.70546" lon="5.49818">
        <ele>334.5</ele>
        <time>2020-06-29T18:42:26Z</time>
      </trkpt>
      <trkpt lat="48.70547" lon="5.49807">
        <ele>334.3</ele>
        <time>2020-06-29T18:42:27Z</time>
      </trkpt>
      <trkpt lat="48.70548" lon="5.49797">
        <ele>334</ele>
        <time>2020-06-29T18:42:28Z</time>
      </trkpt>
      <trkpt lat="48.70549" lon="5.49786">
        <ele>333.8</ele>
        <time>2020-06-29T18:42:29Z</time>
      </trkpt>
      <trkpt lat="48.70551" lon="5.49776">
        <ele>333.6</ele>
        <time>2020-06-29T18:42:30Z</time>
      </trkpt>
      <trkpt lat="48.70551" lon="5.49766">
        <ele>333.4</ele>
        <time>2020-06-29T18:42:31Z</time>
      </trkpt>
      <trkpt lat="48.70552" lon="5.49757">
        <ele>333.2</ele>
        <time>2020-06-29T18:42:32Z</time>
      </trkpt>
      <trkpt lat="48.70552" lon="5.49747">
        <ele>334.6</ele>
        <time>2020-06-29T18:42:33Z</time>
      </trkpt>
      <trkpt lat="48.70552" lon="5.49738">
        <ele>336.2</ele>
        <time>2020-06-29T18:42:34Z</time>
      </trkpt>
      <trkpt lat="48.70554" lon="5.4973">
        <ele>337.4</ele>
        <time>2020-06-29T18:42:35Z</time>
      </trkpt>
      <trkpt lat="48.70555" lon="5.49722">
        <ele>338.4</ele>
        <time>2020-06-29T18:42:36Z</time>
      </trkpt>
      <trkpt lat="48.70554" lon="5.49713">
        <ele>339.2</ele>
        <time>2020-06-29T18:42:37Z</time>
      </trkpt>
      <trkpt lat="48.70554" lon="5.49704">
        <ele>339.7</ele>
        <time>2020-06-29T18:42:38Z</time>
      </trkpt>
      <trkpt lat="48.70555" lon="5.49695">
        <ele>340.2</ele>
        <time>2020-06-29T18:42:39Z</time>
      </trkpt>
      <trkpt lat="48.70556" lon="5.49687">
        <ele>340.5</ele>
        <time>2020-06-29T18:42:40Z</time>
      </trkpt>
      <trkpt lat="48.70557" lon="5.49678">
        <ele>340.7</ele>
        <time>2020-06-29T18:42:41Z</time>
      </trkpt>
      <trkpt lat="48.70559" lon="5.49668">
        <ele>340.9</ele>
        <time>2020-06-29T18:42:42Z</time>
      </trkpt>
      <trkpt lat="48.7056" lon="5.49659">
        <ele>341.1</ele>
        <time>2020-06-29T18:42:43Z</time>
      </trkpt>
      <trkpt lat="48.7056" lon="5.4965">
        <ele>341.3</ele>
        <time>2020-06-29T18:42:44Z</time>
      </trkpt>
      <trkpt lat="48.70561" lon="5.49642">
        <ele>341.6</ele>
        <time>2020-06-29T18:42:45Z</time>
      </trkpt>
      <trkpt lat="48.70562" lon="5.49634">
        <ele>341.8</ele>
        <time>2020-06-29T18:42:46Z</time>
      </trkpt>
      <trkpt lat="48.70563" lon="5.49627">
        <ele>342.1</ele>
        <time>2020-06-29T18:42:47Z</time>
      </trkpt>
      <trkpt lat="48.70563" lon="5.4962">
        <ele>342.3</ele>
        <time>2020-06-29T18:42:48Z</time>
      </trkpt>
      <trkpt lat="48.70563" lon="5.49612">
        <ele>342.5</ele>
        <time>2020-06-29T18:42:49Z</time>
      </trkpt>
      <trkpt lat="48.70564" lon="5.49604">
        <ele>342.7</ele>
        <time>2020-06-29T18:42:50Z</time>
      </trkpt>
      <trkpt lat="48.70564" lon="5.49596">
        <ele>343.1</ele>
        <time>2020-06-29T18:42:51Z</time>
      </trkpt>
      <trkpt lat="48.70565" lon="5.49588">
        <ele>343.4</ele>
        <time>2020-06-29T18:42:52Z</time>
      </trkpt>
      <trkpt lat="48.70566" lon="5.4958">
        <ele>343.7</ele>
        <time>2020-06-29T18:42:53Z</time>
      </trkpt>
      <trkpt lat="48.70567" lon="5.49572">
        <ele>344</ele>
        <time>2020-06-29T18:42:54Z</time>
      </trkpt>
      <trkpt lat="48.70568" lon="5.49563">
        <ele>344.3</ele>
        <time>2020-06-29T18:42:55Z</time>
      </trkpt>
      <trkpt lat="48.70568" lon="5.49556">
        <ele>344.6</ele>
        <time>2020-06-29T18:42:56Z</time>
      </trkpt>
      <trkpt lat="48.70569" lon="5.49551">
        <ele>344.8</ele>
        <time>2020-06-29T18:42:57Z</time>
      </trkpt>
      <trkpt lat="48.70569" lon="5.49544">
        <ele>345.1</ele>
        <time>2020-06-29T18:42:58Z</time>
      </trkpt>
      <trkpt lat="48.70569" lon="5.49538">
        <ele>345.4</ele>
        <time>2020-06-29T18:42:59Z</time>
      </trkpt>
      <trkpt lat="48.70571" lon="5.49532">
        <ele>345.7</ele>
        <time>2020-06-29T18:43:00Z</time>
      </trkpt>
      <trkpt lat="48.70571" lon="5.49526">
        <ele>345.9</ele>
        <time>2020-06-29T18:43:01Z</time>
      </trkpt>
      <trkpt lat="48.70572" lon="5.4952">
        <ele>346.1</ele>
        <time>2020-06-29T18:43:02Z</time>
      </trkpt>
      <trkpt lat="48.70572" lon="5.49514">
        <ele>346.2</ele>
        <time>2020-06-29T18:43:03Z</time>
      </trkpt>
      <trkpt lat="48.70574" lon="5.49506">
        <ele>346.5</ele>
        <time>2020-06-29T18:43:04Z</time>
      </trkpt>
      <trkpt lat="48.70574" lon="5.49499">
        <ele>346.7</ele>
        <time>2020-06-29T18:43:05Z</time>
      </trkpt>
      <trkpt lat="48.70574" lon="5.49491">
        <ele>346.8</ele>
        <time>2020-06-29T18:43:06Z</time>
      </trkpt>
      <trkpt lat="48.70575" lon="5.49484">
        <ele>347</ele>
        <time>2020-06-29T18:43:07Z</time>
      </trkpt>
      <trkpt lat="48.70575" lon="5.49478">
        <ele>347.1</ele>
        <time>2020-06-29T18:43:08Z</time>
      </trkpt>
      <trkpt lat="48.70574" lon="5.49471">
        <ele>347.3</ele>
        <time>2020-06-29T18:43:09Z</time>
      </trkpt>
      <trkpt lat="48.70574" lon="5.49466">
        <ele>347.4</ele>
        <time>2020-06-29T18:43:10Z</time>
      </trkpt>
      <trkpt lat="48.70575" lon="5.49459">
        <ele>347.6</ele>
        <time>2020-06-29T18:43:11Z</time>
      </trkpt>
      <trkpt lat="48.70575" lon="5.49457">
        <ele>347.7</ele>
        <time>2020-06-29T18:43:12Z</time>
      </trkpt>
      <trkpt lat="48.70576" lon="5.4945">
        <ele>347.9</ele>
        <time>2020-06-29T18:43:13Z</time>
      </trkpt>
      <trkpt lat="48.70576" lon="5.49445">
        <ele>348</ele>
        <time>2020-06-29T18:43:14Z</time>
      </trkpt>
      <trkpt lat="48.70576" lon="5.4944">
        <ele>348.1</ele>
        <time>2020-06-29T18:43:15Z</time>
      </trkpt>
      <trkpt lat="48.70576" lon="5.49436">
        <ele>348.3</ele>
        <time>2020-06-29T18:43:16Z</time>
      </trkpt>
      <trkpt lat="48.70578" lon="5.49431">
        <ele>348.4</ele>
        <time>2020-06-29T18:43:17Z</time>
      </trkpt>
      <trkpt lat="48.70579" lon="5.49427">
        <ele>348.5</ele>
        <time>2020-06-29T18:43:18Z</time>
      </trkpt>
      <trkpt lat="48.7058" lon="5.49422">
        <ele>348.6</ele>
        <time>2020-06-29T18:43:19Z</time>
      </trkpt>
      <trkpt lat="48.7058" lon="5.49416">
        <ele>348.7</ele>
        <time>2020-06-29T18:43:20Z</time>
      </trkpt>
      <trkpt lat="48.7058" lon="5.49413">
        <ele>348.8</ele>
        <time>2020-06-29T18:43:21Z</time>
      </trkpt>
      <trkpt lat="48.70581" lon="5.49409">
        <ele>348.9</ele>
        <time>2020-06-29T18:43:22Z</time>
      </trkpt>
      <trkpt lat="48.70581" lon="5.49405">
        <ele>349</ele>
        <time>2020-06-29T18:43:23Z</time>
      </trkpt>
      <trkpt lat="48.70582" lon="5.49399">
        <ele>349.1</ele>
        <time>2020-06-29T18:43:24Z</time>
      </trkpt>
      <trkpt lat="48.70583" lon="5.49394">
        <ele>349.3</ele>
        <time>2020-06-29T18:43:25Z</time>
      </trkpt>
      <trkpt lat="48.70582" lon="5.49388">
        <ele>349.4</ele>
        <time>2020-06-29T18:43:26Z</time>
      </trkpt>
      <trkpt lat="48.70584" lon="5.49382">
        <ele>349.6</ele>
        <time>2020-06-29T18:43:27Z</time>
      </trkpt>
      <trkpt lat="48.70584" lon="5.49377">
        <ele>349.6</ele>
        <time>2020-06-29T18:43:28Z</time>
      </trkpt>
      <trkpt lat="48.70585" lon="5.49372">
        <ele>349.7</ele>
        <time>2020-06-29T18:43:29Z</time>
      </trkpt>
      <trkpt lat="48.70586" lon="5.49367">
        <ele>349.7</ele>
        <time>2020-06-29T18:43:30Z</time>
      </trkpt>
      <trkpt lat="48.70587" lon="5.49362">
        <ele>349.8</ele>
        <time>2020-06-29T18:43:31Z</time>
      </trkpt>
      <trkpt lat="48.70588" lon="5.49357">
        <ele>349.9</ele>
        <time>2020-06-29T18:43:32Z</time>
      </trkpt>
      <trkpt lat="48.70589" lon="5.49352">
        <ele>349.9</ele>
        <time>2020-06-29T18:43:33Z</time>
      </trkpt>
      <trkpt lat="48.70589" lon="5.49347">
        <ele>350</ele>
        <time>2020-06-29T18:43:34Z</time>
      </trkpt>
      <trkpt lat="48.70589" lon="5.49341">
        <ele>350.1</ele>
        <time>2020-06-29T18:43:35Z</time>
      </trkpt>
      <trkpt lat="48.70589" lon="5.49336">
        <ele>350.2</ele>
        <time>2020-06-29T18:43:36Z</time>
      </trkpt>
      <trkpt lat="48.70589" lon="5.49332">
        <ele>350.3</ele>
        <time>2020-06-29T18:43:37Z</time>
      </trkpt>
      <trkpt lat="48.70589" lon="5.49326">
        <ele>350.4</ele>
        <time>2020-06-29T18:43:38Z</time>
      </trkpt>
      <trkpt lat="48.7059" lon="5.49322">
        <ele>350.5</ele>
        <time>2020-06-29T18:43:39Z</time>
      </trkpt>
      <trkpt lat="48.70592" lon="5.49318">
        <ele>350.6</ele>
        <time>2020-06-29T18:43:40Z</time>
      </trkpt>
      <trkpt lat="48.70592" lon="5.49313">
        <ele>350.7</ele>
        <time>2020-06-29T18:43:41Z</time>
      </trkpt>
      <trkpt lat="48.70592" lon="5.49308">
        <ele>350.7</ele>
        <time>2020-06-29T18:43:42Z</time>
      </trkpt>
      <trkpt lat="48.70594" lon="5.49303">
        <ele>350.8</ele>
        <time>2020-06-29T18:43:43Z</time>
      </trkpt>
      <trkpt lat="48.70595" lon="5.49297">
        <ele>350.8</ele>
        <time>2020-06-29T18:43:44Z</time>
      </trkpt>
      <trkpt lat="48.70595" lon="5.49293">
        <ele>350.8</ele>
        <time>2020-06-29T18:43:45Z</time>
      </trkpt>
      <trkpt lat="48.70595" lon="5.49288">
        <ele>350.9</ele>
        <time>2020-06-29T18:43:46Z</time>
      </trkpt>
      <trkpt lat="48.70595" lon="5.49283">
        <ele>350.9</ele>
        <time>2020-06-29T18:43:47Z</time>
      </trkpt>
      <trkpt lat="48.70596" lon="5.49276">
        <ele>350.9</ele>
        <time>2020-06-29T18:43:48Z</time>
      </trkpt>
      <trkpt lat="48.70597" lon="5.49272">
        <ele>350.8</ele>
        <time>2020-06-29T18:43:49Z</time>
      </trkpt>
      <trkpt lat="48.70598" lon="5.49266">
        <ele>350.7</ele>
        <time>2020-06-29T18:43:50Z</time>
      </trkpt>
      <trkpt lat="48.70599" lon="5.4926">
        <ele>350.6</ele>
        <time>2020-06-29T18:43:51Z</time>
      </trkpt>
      <trkpt lat="48.70598" lon="5.49255">
        <ele>350.5</ele>
        <time>2020-06-29T18:43:52Z</time>
      </trkpt>
      <trkpt lat="48.70598" lon="5.49249">
        <ele>350.4</ele>
        <time>2020-06-29T18:43:53Z</time>
      </trkpt>
      <trkpt lat="48.70597" lon="5.49243">
        <ele>350.3</ele>
        <time>2020-06-29T18:43:54Z</time>
      </trkpt>
      <trkpt lat="48.70597" lon="5.49237">
        <ele>350.3</ele>
        <time>2020-06-29T18:43:55Z</time>
      </trkpt>
      <trkpt lat="48.70597" lon="5.49231">
        <ele>350.2</ele>
        <time>2020-06-29T18:43:56Z</time>
      </trkpt>
      <trkpt lat="48.70597" lon="5.49224">
        <ele>350.1</ele>
        <time>2020-06-29T18:43:57Z</time>
      </trkpt>
      <trkpt lat="48.70597" lon="5.49217">
        <ele>350</ele>
        <time>2020-06-29T18:43:58Z</time>
      </trkpt>
      <trkpt lat="48.70597" lon="5.49211">
        <ele>350</ele>
        <time>2020-06-29T18:43:59Z</time>
      </trkpt>
      <trkpt lat="48.70598" lon="5.49205">
        <ele>350</ele>
        <time>2020-06-29T18:44:00Z</time>
      </trkpt>
      <trkpt lat="48.70598" lon="5.49198">
        <ele>350.1</ele>
        <time>2020-06-29T18:44:01Z</time>
      </trkpt>
      <trkpt lat="48.70598" lon="5.49191">
        <ele>350.1</ele>
        <time>2020-06-29T18:44:02Z</time>
      </trkpt>
      <trkpt lat="48.70599" lon="5.49184">
        <ele>350.1</ele>
        <time>2020-06-29T18:44:03Z</time>
      </trkpt>
      <trkpt lat="48.706" lon="5.49178">
        <ele>350.1</ele>
        <time>2020-06-29T18:44:04Z</time>
      </trkpt>
      <trkpt lat="48.706" lon="5.49172">
        <ele>350.1</ele>
        <time>2020-06-29T18:44:05Z</time>
      </trkpt>
      <trkpt lat="48.70601" lon="5.49166">
        <ele>350</ele>
        <time>2020-06-29T18:44:06Z</time>
      </trkpt>
      <trkpt lat="48.70601" lon="5.4916">
        <ele>350</ele>
        <time>2020-06-29T18:44:07Z</time>
      </trkpt>
      <trkpt lat="48.70602" lon="5.49154">
        <ele>349.9</ele>
        <time>2020-06-29T18:44:08Z</time>
      </trkpt>
      <trkpt lat="48.70602" lon="5.49147">
        <ele>349.8</ele>
        <time>2020-06-29T18:44:09Z</time>
      </trkpt>
      <trkpt lat="48.70602" lon="5.4914">
        <ele>349.6</ele>
        <time>2020-06-29T18:44:10Z</time>
      </trkpt>
      <trkpt lat="48.70602" lon="5.49133">
        <ele>349.5</ele>
        <time>2020-06-29T18:44:11Z</time>
      </trkpt>
      <trkpt lat="48.70602" lon="5.49125">
        <ele>349.5</ele>
        <time>2020-06-29T18:44:12Z</time>
      </trkpt>
      <trkpt lat="48.70602" lon="5.49119">
        <ele>349.4</ele>
        <time>2020-06-29T18:44:13Z</time>
      </trkpt>
      <trkpt lat="48.70602" lon="5.49113">
        <ele>349.4</ele>
        <time>2020-06-29T18:44:14Z</time>
      </trkpt>
      <trkpt lat="48.70603" lon="5.49106">
        <ele>349.3</ele>
        <time>2020-06-29T18:44:15Z</time>
      </trkpt>
      <trkpt lat="48.70603" lon="5.49103">
        <ele>349.3</ele>
        <time>2020-06-29T18:44:16Z</time>
      </trkpt>
      <trkpt lat="48.70603" lon="5.49102">
        <ele>349.3</ele>
        <time>2020-06-29T18:44:17Z</time>
      </trkpt>
      <trkpt lat="48.70604" lon="5.49102">
        <ele>349.3</ele>
        <time>2020-06-29T18:44:18Z</time>
      </trkpt>
      <trkpt lat="48.70604" lon="5.49103">
        <ele>349.3</ele>
        <time>2020-06-29T18:44:19Z</time>
      </trkpt>
      <trkpt lat="48.70605" lon="5.49104">
        <ele>349.2</ele>
        <time>2020-06-29T18:44:20Z</time>
      </trkpt>
      <trkpt lat="48.70605" lon="5.49105">
        <ele>349.2</ele>
        <time>2020-06-29T18:44:21Z</time>
      </trkpt>
      <trkpt lat="48.70605" lon="5.49105">
        <ele>349.2</ele>
        <time>2020-06-29T18:44:22Z</time>
      </trkpt>
      <trkpt lat="48.70605" lon="5.49103">
        <ele>349.2</ele>
        <time>2020-06-29T18:44:23Z</time>
      </trkpt>
      <trkpt lat="48.70605" lon="5.49103">
        <ele>349.2</ele>
        <time>2020-06-29T18:44:24Z</time>
      </trkpt>
      <trkpt lat="48.70606" lon="5.49103">
        <ele>349.2</ele>
        <time>2020-06-29T18:44:25Z</time>
      </trkpt>
      <trkpt lat="48.70606" lon="5.49104">
        <ele>349.2</ele>
        <time>2020-06-29T18:44:26Z</time>
      </trkpt>
      <trkpt lat="48.70614" lon="5.49104">
        <ele>349</ele>
        <time>2020-06-29T18:46:20Z</time>
      </trkpt>
      <trkpt lat="48.70612" lon="5.49104">
        <ele>349</ele>
        <time>2020-06-29T18:46:21Z</time>
      </trkpt>
      <trkpt lat="48.70611" lon="5.49104">
        <ele>348.9</ele>
        <time>2020-06-29T18:46:22Z</time>
      </trkpt>
      <trkpt lat="48.7061" lon="5.49104">
        <ele>348.9</ele>
        <time>2020-06-29T18:46:23Z</time>
      </trkpt>
      <trkpt lat="48.7061" lon="5.49103">
        <ele>348.9</ele>
        <time>2020-06-29T18:46:24Z</time>
      </trkpt>
      <trkpt lat="48.7061" lon="5.49103">
        <ele>348.9</ele>
        <time>2020-06-29T18:46:25Z</time>
      </trkpt>
      <trkpt lat="48.7061" lon="5.49102">
        <ele>348.9</ele>
        <time>2020-06-29T18:46:26Z</time>
      </trkpt>
      <trkpt lat="48.7061" lon="5.49102">
        <ele>348.8</ele>
        <time>2020-06-29T18:46:27Z</time>
      </trkpt>
      <trkpt lat="48.7061" lon="5.49101">
        <ele>348.8</ele>
        <time>2020-06-29T18:46:28Z</time>
      </trkpt>
      <trkpt lat="48.7061" lon="5.49101">
        <ele>348.8</ele>
        <time>2020-06-29T18:46:29Z</time>
      </trkpt>
      <trkpt lat="48.7061" lon="5.491">
        <ele>348.8</ele>
        <time>2020-06-29T18:46:30Z</time>
      </trkpt>
      <trkpt lat="48.7061" lon="5.491">
        <ele>348.8</ele>
        <time>2020-06-29T18:46:31Z</time>
      </trkpt>
      <trkpt lat="48.7061" lon="5.49099">
        <ele>348.8</ele>
        <time>2020-06-29T18:46:32Z</time>
      </trkpt>
      <trkpt lat="48.7061" lon="5.49099">
        <ele>348.8</ele>
        <time>2020-06-29T18:46:33Z</time>
      </trkpt>
      <trkpt lat="48.7061" lon="5.49098">
        <ele>348.8</ele>
        <time>2020-06-29T18:46:34Z</time>
      </trkpt>
      <trkpt lat="48.7061" lon="5.49098">
        <ele>348.8</ele>
        <time>2020-06-29T18:53:00Z</time>
      </trkpt>
      <trkpt lat="48.7061" lon="5.49097">
        <ele>348.7</ele>
        <time>2020-06-29T18:53:01Z</time>
      </trkpt>
      <trkpt lat="48.7061" lon="5.49092">
        <ele>348.6</ele>
        <time>2020-06-29T18:53:02Z</time>
      </trkpt>
      <trkpt lat="48.7061" lon="5.4909">
        <ele>348.6</ele>
        <time>2020-06-29T18:53:03Z</time>
      </trkpt>
      <trkpt lat="48.7061" lon="5.49084">
        <ele>348.5</ele>
        <time>2020-06-29T18:53:04Z</time>
      </trkpt>
      <trkpt lat="48.70612" lon="5.49079">
        <ele>348.4</ele>
        <time>2020-06-29T18:53:05Z</time>
      </trkpt>
      <trkpt lat="48.70612" lon="5.49074">
        <ele>348.3</ele>
        <time>2020-06-29T18:53:06Z</time>
      </trkpt>
      <trkpt lat="48.70613" lon="5.49068">
        <ele>348.3</ele>
        <time>2020-06-29T18:53:07Z</time>
      </trkpt>
      <trkpt lat="48.70613" lon="5.49062">
        <ele>348.2</ele>
        <time>2020-06-29T18:53:08Z</time>
      </trkpt>
      <trkpt lat="48.70613" lon="5.49057">
        <ele>348.1</ele>
        <time>2020-06-29T18:53:09Z</time>
      </trkpt>
      <trkpt lat="48.70614" lon="5.49051">
        <ele>348</ele>
        <time>2020-06-29T18:53:10Z</time>
      </trkpt>
      <trkpt lat="48.70615" lon="5.49046">
        <ele>347.9</ele>
        <time>2020-06-29T18:53:11Z</time>
      </trkpt>
      <trkpt lat="48.70616" lon="5.4904">
        <ele>347.7</ele>
        <time>2020-06-29T18:53:12Z</time>
      </trkpt>
      <trkpt lat="48.70616" lon="5.49034">
        <ele>347.6</ele>
        <time>2020-06-29T18:53:13Z</time>
      </trkpt>
      <trkpt lat="48.70616" lon="5.49029">
        <ele>347.5</ele>
        <time>2020-06-29T18:53:14Z</time>
      </trkpt>
      <trkpt lat="48.70617" lon="5.49023">
        <ele>347.3</ele>
        <time>2020-06-29T18:53:15Z</time>
      </trkpt>
      <trkpt lat="48.70618" lon="5.49016">
        <ele>347.2</ele>
        <time>2020-06-29T18:53:16Z</time>
      </trkpt>
      <trkpt lat="48.70619" lon="5.49009">
        <ele>347.1</ele>
        <time>2020-06-29T18:53:17Z</time>
      </trkpt>
      <trkpt lat="48.70621" lon="5.49002">
        <ele>347.1</ele>
        <time>2020-06-29T18:53:18Z</time>
      </trkpt>
      <trkpt lat="48.70622" lon="5.48996">
        <ele>347</ele>
        <time>2020-06-29T18:53:19Z</time>
      </trkpt>
      <trkpt lat="48.70622" lon="5.48991">
        <ele>346.9</ele>
        <time>2020-06-29T18:53:20Z</time>
      </trkpt>
      <trkpt lat="48.70623" lon="5.48984">
        <ele>346.9</ele>
        <time>2020-06-29T18:53:21Z</time>
      </trkpt>
      <trkpt lat="48.70623" lon="5.48979">
        <ele>346.8</ele>
        <time>2020-06-29T18:53:22Z</time>
      </trkpt>
      <trkpt lat="48.70623" lon="5.48973">
        <ele>346.7</ele>
        <time>2020-06-29T18:53:23Z</time>
      </trkpt>
      <trkpt lat="48.70623" lon="5.48968">
        <ele>346.6</ele>
        <time>2020-06-29T18:53:24Z</time>
      </trkpt>
      <trkpt lat="48.70623" lon="5.48963">
        <ele>346.4</ele>
        <time>2020-06-29T18:53:25Z</time>
      </trkpt>
      <trkpt lat="48.70624" lon="5.48957">
        <ele>346.2</ele>
        <time>2020-06-29T18:53:26Z</time>
      </trkpt>
      <trkpt lat="48.70625" lon="5.48952">
        <ele>346</ele>
        <time>2020-06-29T18:53:27Z</time>
      </trkpt>
      <trkpt lat="48.70624" lon="5.48946">
        <ele>345.8</ele>
        <time>2020-06-29T18:53:28Z</time>
      </trkpt>
      <trkpt lat="48.70624" lon="5.4894">
        <ele>345.6</ele>
        <time>2020-06-29T18:53:29Z</time>
      </trkpt>
      <trkpt lat="48.70624" lon="5.48935">
        <ele>345.5</ele>
        <time>2020-06-29T18:53:30Z</time>
      </trkpt>
      <trkpt lat="48.70624" lon="5.48929">
        <ele>345.3</ele>
        <time>2020-06-29T18:53:31Z</time>
      </trkpt>
      <trkpt lat="48.70624" lon="5.48923">
        <ele>345.1</ele>
        <time>2020-06-29T18:53:32Z</time>
      </trkpt>
      <trkpt lat="48.70624" lon="5.48917">
        <ele>344.9</ele>
        <time>2020-06-29T18:53:33Z</time>
      </trkpt>
      <trkpt lat="48.70624" lon="5.48911">
        <ele>344.7</ele>
        <time>2020-06-29T18:53:34Z</time>
      </trkpt>
      <trkpt lat="48.70626" lon="5.48905">
        <ele>344.5</ele>
        <time>2020-06-29T18:53:35Z</time>
      </trkpt>
      <trkpt lat="48.70626" lon="5.48899">
        <ele>344.3</ele>
        <time>2020-06-29T18:53:36Z</time>
      </trkpt>
      <trkpt lat="48.70627" lon="5.48893">
        <ele>344.2</ele>
        <time>2020-06-29T18:53:37Z</time>
      </trkpt>
      <trkpt lat="48.70628" lon="5.48887">
        <ele>344</ele>
        <time>2020-06-29T18:53:38Z</time>
      </trkpt>
      <trkpt lat="48.70628" lon="5.48877">
        <ele>343.7</ele>
        <time>2020-06-29T18:53:39Z</time>
      </trkpt>
      <trkpt lat="48.7063" lon="5.48869">
        <ele>343.4</ele>
        <time>2020-06-29T18:53:40Z</time>
      </trkpt>
      <trkpt lat="48.7063" lon="5.48862">
        <ele>343.1</ele>
        <time>2020-06-29T18:53:41Z</time>
      </trkpt>
      <trkpt lat="48.70631" lon="5.48853">
        <ele>342.8</ele>
        <time>2020-06-29T18:53:42Z</time>
      </trkpt>
      <trkpt lat="48.70631" lon="5.48845">
        <ele>342.6</ele>
        <time>2020-06-29T18:53:43Z</time>
      </trkpt>
      <trkpt lat="48.70631" lon="5.48839">
        <ele>342.5</ele>
        <time>2020-06-29T18:53:44Z</time>
      </trkpt>
      <trkpt lat="48.70631" lon="5.48832">
        <ele>342.3</ele>
        <time>2020-06-29T18:53:45Z</time>
      </trkpt>
      <trkpt lat="48.70631" lon="5.48824">
        <ele>342.1</ele>
        <time>2020-06-29T18:53:46Z</time>
      </trkpt>
      <trkpt lat="48.70631" lon="5.48816">
        <ele>341.9</ele>
        <time>2020-06-29T18:53:47Z</time>
      </trkpt>
      <trkpt lat="48.70632" lon="5.48808">
        <ele>341.7</ele>
        <time>2020-06-29T18:53:48Z</time>
      </trkpt>
      <trkpt lat="48.70633" lon="5.488">
        <ele>341.5</ele>
        <time>2020-06-29T18:53:49Z</time>
      </trkpt>
      <trkpt lat="48.70634" lon="5.48792">
        <ele>341.2</ele>
        <time>2020-06-29T18:53:50Z</time>
      </trkpt>
      <trkpt lat="48.70634" lon="5.48783">
        <ele>340.8</ele>
        <time>2020-06-29T18:53:51Z</time>
      </trkpt>
      <trkpt lat="48.70635" lon="5.48774">
        <ele>340.5</ele>
        <time>2020-06-29T18:53:52Z</time>
      </trkpt>
      <trkpt lat="48.70635" lon="5.48765">
        <ele>340.3</ele>
        <time>2020-06-29T18:53:53Z</time>
      </trkpt>
      <trkpt lat="48.70635" lon="5.48756">
        <ele>340.2</ele>
        <time>2020-06-29T18:53:54Z</time>
      </trkpt>
      <trkpt lat="48.70635" lon="5.48746">
        <ele>340</ele>
        <time>2020-06-29T18:53:55Z</time>
      </trkpt>
      <trkpt lat="48.70635" lon="5.48738">
        <ele>339.9</ele>
        <time>2020-06-29T18:53:56Z</time>
      </trkpt>
      <trkpt lat="48.70635" lon="5.48729">
        <ele>339.7</ele>
        <time>2020-06-29T18:53:57Z</time>
      </trkpt>
      <trkpt lat="48.70635" lon="5.48719">
        <ele>339.6</ele>
        <time>2020-06-29T18:53:58Z</time>
      </trkpt>
      <trkpt lat="48.70635" lon="5.4871">
        <ele>339.5</ele>
        <time>2020-06-29T18:53:59Z</time>
      </trkpt>
      <trkpt lat="48.70636" lon="5.48701">
        <ele>339.3</ele>
        <time>2020-06-29T18:54:00Z</time>
      </trkpt>
      <trkpt lat="48.70637" lon="5.48693">
        <ele>339.2</ele>
        <time>2020-06-29T18:54:01Z</time>
      </trkpt>
      <trkpt lat="48.70638" lon="5.48684">
        <ele>338.9</ele>
        <time>2020-06-29T18:54:02Z</time>
      </trkpt>
      <trkpt lat="48.70638" lon="5.48675">
        <ele>338.7</ele>
        <time>2020-06-29T18:54:03Z</time>
      </trkpt>
      <trkpt lat="48.70638" lon="5.48666">
        <ele>338.4</ele>
        <time>2020-06-29T18:54:04Z</time>
      </trkpt>
      <trkpt lat="48.70638" lon="5.48656">
        <ele>338.3</ele>
        <time>2020-06-29T18:54:05Z</time>
      </trkpt>
      <trkpt lat="48.70638" lon="5.48647">
        <ele>338.1</ele>
        <time>2020-06-29T18:54:06Z</time>
      </trkpt>
      <trkpt lat="48.70638" lon="5.4864">
        <ele>338</ele>
        <time>2020-06-29T18:54:07Z</time>
      </trkpt>
      <trkpt lat="48.70638" lon="5.48633">
        <ele>337.9</ele>
        <time>2020-06-29T18:54:08Z</time>
      </trkpt>
      <trkpt lat="48.70638" lon="5.48626">
        <ele>337.7</ele>
        <time>2020-06-29T18:54:09Z</time>
      </trkpt>
      <trkpt lat="48.70638" lon="5.48619">
        <ele>337.6</ele>
        <time>2020-06-29T18:54:10Z</time>
      </trkpt>
      <trkpt lat="48.70638" lon="5.48612">
        <ele>337.5</ele>
        <time>2020-06-29T18:54:11Z</time>
      </trkpt>
      <trkpt lat="48.70639" lon="5.48606">
        <ele>337.4</ele>
        <time>2020-06-29T18:54:12Z</time>
      </trkpt>
      <trkpt lat="48.7064" lon="5.486">
        <ele>337.2</ele>
        <time>2020-06-29T18:54:13Z</time>
      </trkpt>
      <trkpt lat="48.70641" lon="5.48594">
        <ele>337.1</ele>
        <time>2020-06-29T18:54:14Z</time>
      </trkpt>
      <trkpt lat="48.7064" lon="5.48587">
        <ele>337</ele>
        <time>2020-06-29T18:54:15Z</time>
      </trkpt>
      <trkpt lat="48.7064" lon="5.4858">
        <ele>336.9</ele>
        <time>2020-06-29T18:54:16Z</time>
      </trkpt>
      <trkpt lat="48.7064" lon="5.48573">
        <ele>336.8</ele>
        <time>2020-06-29T18:54:17Z</time>
      </trkpt>
      <trkpt lat="48.7064" lon="5.48566">
        <ele>336.7</ele>
        <time>2020-06-29T18:54:18Z</time>
      </trkpt>
      <trkpt lat="48.7064" lon="5.48559">
        <ele>336.6</ele>
        <time>2020-06-29T18:54:19Z</time>
      </trkpt>
      <trkpt lat="48.70639" lon="5.48552">
        <ele>336.5</ele>
        <time>2020-06-29T18:54:20Z</time>
      </trkpt>
      <trkpt lat="48.70638" lon="5.48545">
        <ele>336.4</ele>
        <time>2020-06-29T18:54:21Z</time>
      </trkpt>
      <trkpt lat="48.70638" lon="5.48539">
        <ele>336.3</ele>
        <time>2020-06-29T18:54:22Z</time>
      </trkpt>
      <trkpt lat="48.70637" lon="5.48533">
        <ele>336.1</ele>
        <time>2020-06-29T18:54:23Z</time>
      </trkpt>
      <trkpt lat="48.70636" lon="5.48527">
        <ele>336</ele>
        <time>2020-06-29T18:54:24Z</time>
      </trkpt>
      <trkpt lat="48.70635" lon="5.48521">
        <ele>335.8</ele>
        <time>2020-06-29T18:54:25Z</time>
      </trkpt>
      <trkpt lat="48.70634" lon="5.48513">
        <ele>335.7</ele>
        <time>2020-06-29T18:54:26Z</time>
      </trkpt>
      <trkpt lat="48.70634" lon="5.48507">
        <ele>335.6</ele>
        <time>2020-06-29T18:54:27Z</time>
      </trkpt>
      <trkpt lat="48.70633" lon="5.48501">
        <ele>335.6</ele>
        <time>2020-06-29T18:54:28Z</time>
      </trkpt>
      <trkpt lat="48.70632" lon="5.48495">
        <ele>335.6</ele>
        <time>2020-06-29T18:54:29Z</time>
      </trkpt>
      <trkpt lat="48.70631" lon="5.4849">
        <ele>335.6</ele>
        <time>2020-06-29T18:54:30Z</time>
      </trkpt>
      <trkpt lat="48.70631" lon="5.48483">
        <ele>335.6</ele>
        <time>2020-06-29T18:54:31Z</time>
      </trkpt>
      <trkpt lat="48.7063" lon="5.48477">
        <ele>335.7</ele>
        <time>2020-06-29T18:54:32Z</time>
      </trkpt>
      <trkpt lat="48.70631" lon="5.48471">
        <ele>335.8</ele>
        <time>2020-06-29T18:54:33Z</time>
      </trkpt>
      <trkpt lat="48.70631" lon="5.48465">
        <ele>336.3</ele>
        <time>2020-06-29T18:54:34Z</time>
      </trkpt>
      <trkpt lat="48.70631" lon="5.48457">
        <ele>336.7</ele>
        <time>2020-06-29T18:54:35Z</time>
      </trkpt>
      <trkpt lat="48.70631" lon="5.48451">
        <ele>336.9</ele>
        <time>2020-06-29T18:54:36Z</time>
      </trkpt>
      <trkpt lat="48.70631" lon="5.48445">
        <ele>337</ele>
        <time>2020-06-29T18:54:37Z</time>
      </trkpt>
      <trkpt lat="48.70632" lon="5.4844">
        <ele>337.1</ele>
        <time>2020-06-29T18:54:38Z</time>
      </trkpt>
      <trkpt lat="48.70631" lon="5.48434">
        <ele>337.1</ele>
        <time>2020-06-29T18:54:39Z</time>
      </trkpt>
      <trkpt lat="48.70631" lon="5.48427">
        <ele>337.1</ele>
        <time>2020-06-29T18:54:40Z</time>
      </trkpt>
      <trkpt lat="48.70631" lon="5.4842">
        <ele>337</ele>
        <time>2020-06-29T18:54:41Z</time>
      </trkpt>
      <trkpt lat="48.70629" lon="5.48413">
        <ele>336.8</ele>
        <time>2020-06-29T18:54:42Z</time>
      </trkpt>
      <trkpt lat="48.70629" lon="5.48406">
        <ele>336.5</ele>
        <time>2020-06-29T18:54:43Z</time>
      </trkpt>
      <trkpt lat="48.70629" lon="5.48399">
        <ele>336.3</ele>
        <time>2020-06-29T18:54:44Z</time>
      </trkpt>
      <trkpt lat="48.70629" lon="5.48392">
        <ele>336.2</ele>
        <time>2020-06-29T18:54:45Z</time>
      </trkpt>
      <trkpt lat="48.70628" lon="5.48384">
        <ele>336.1</ele>
        <time>2020-06-29T18:54:46Z</time>
      </trkpt>
      <trkpt lat="48.70628" lon="5.48378">
        <ele>336</ele>
        <time>2020-06-29T18:54:47Z</time>
      </trkpt>
      <trkpt lat="48.70627" lon="5.4837">
        <ele>336</ele>
        <time>2020-06-29T18:54:48Z</time>
      </trkpt>
      <trkpt lat="48.70627" lon="5.48364">
        <ele>335.9</ele>
        <time>2020-06-29T18:54:49Z</time>
      </trkpt>
      <trkpt lat="48.70626" lon="5.48357">
        <ele>335.7</ele>
        <time>2020-06-29T18:54:50Z</time>
      </trkpt>
      <trkpt lat="48.70626" lon="5.48351">
        <ele>335.6</ele>
        <time>2020-06-29T18:54:51Z</time>
      </trkpt>
      <trkpt lat="48.70625" lon="5.48344">
        <ele>335.4</ele>
        <time>2020-06-29T18:54:52Z</time>
      </trkpt>
      <trkpt lat="48.70625" lon="5.48337">
        <ele>335.2</ele>
        <time>2020-06-29T18:54:53Z</time>
      </trkpt>
      <trkpt lat="48.70625" lon="5.4833">
        <ele>335</ele>
        <time>2020-06-29T18:54:54Z</time>
      </trkpt>
      <trkpt lat="48.70625" lon="5.48323">
        <ele>334.9</ele>
        <time>2020-06-29T18:54:55Z</time>
      </trkpt>
      <trkpt lat="48.70625" lon="5.48315">
        <ele>334.7</ele>
        <time>2020-06-29T18:54:56Z</time>
      </trkpt>
      <trkpt lat="48.70625" lon="5.48307">
        <ele>334.5</ele>
        <time>2020-06-29T18:54:57Z</time>
      </trkpt>
      <trkpt lat="48.70624" lon="5.48299">
        <ele>334.4</ele>
        <time>2020-06-29T18:54:58Z</time>
      </trkpt>
      <trkpt lat="48.70624" lon="5.4829">
        <ele>334.2</ele>
        <time>2020-06-29T18:54:59Z</time>
      </trkpt>
      <trkpt lat="48.70623" lon="5.48283">
        <ele>334.2</ele>
        <time>2020-06-29T18:55:00Z</time>
      </trkpt>
      <trkpt lat="48.70624" lon="5.48277">
        <ele>334.1</ele>
        <time>2020-06-29T18:55:01Z</time>
      </trkpt>
      <trkpt lat="48.70623" lon="5.4827">
        <ele>333.9</ele>
        <time>2020-06-29T18:55:02Z</time>
      </trkpt>
      <trkpt lat="48.70623" lon="5.4826">
        <ele>333.6</ele>
        <time>2020-06-29T18:55:03Z</time>
      </trkpt>
      <trkpt lat="48.70622" lon="5.48252">
        <ele>333.4</ele>
        <time>2020-06-29T18:55:04Z</time>
      </trkpt>
      <trkpt lat="48.70622" lon="5.48244">
        <ele>333.2</ele>
        <time>2020-06-29T18:55:05Z</time>
      </trkpt>
      <trkpt lat="48.70621" lon="5.48235">
        <ele>333</ele>
        <time>2020-06-29T18:55:06Z</time>
      </trkpt>
      <trkpt lat="48.70621" lon="5.48226">
        <ele>332.9</ele>
        <time>2020-06-29T18:55:07Z</time>
      </trkpt>
      <trkpt lat="48.7062" lon="5.48217">
        <ele>332.7</ele>
        <time>2020-06-29T18:55:08Z</time>
      </trkpt>
      <trkpt lat="48.70619" lon="5.48208">
        <ele>332.6</ele>
        <time>2020-06-29T18:55:09Z</time>
      </trkpt>
      <trkpt lat="48.70619" lon="5.48199">
        <ele>332.5</ele>
        <time>2020-06-29T18:55:10Z</time>
      </trkpt>
      <trkpt lat="48.70619" lon="5.4819">
        <ele>332.4</ele>
        <time>2020-06-29T18:55:11Z</time>
      </trkpt>
      <trkpt lat="48.70619" lon="5.4818">
        <ele>332.2</ele>
        <time>2020-06-29T18:55:12Z</time>
      </trkpt>
      <trkpt lat="48.70618" lon="5.48171">
        <ele>331.9</ele>
        <time>2020-06-29T18:55:13Z</time>
      </trkpt>
      <trkpt lat="48.70617" lon="5.48162">
        <ele>331.7</ele>
        <time>2020-06-29T18:55:14Z</time>
      </trkpt>
      <trkpt lat="48.70616" lon="5.48153">
        <ele>331.4</ele>
        <time>2020-06-29T18:55:15Z</time>
      </trkpt>
      <trkpt lat="48.70616" lon="5.48144">
        <ele>331.2</ele>
        <time>2020-06-29T18:55:16Z</time>
      </trkpt>
      <trkpt lat="48.70615" lon="5.48135">
        <ele>331</ele>
        <time>2020-06-29T18:55:17Z</time>
      </trkpt>
      <trkpt lat="48.70616" lon="5.48126">
        <ele>330.9</ele>
        <time>2020-06-29T18:55:18Z</time>
      </trkpt>
      <trkpt lat="48.70615" lon="5.48118">
        <ele>330.8</ele>
        <time>2020-06-29T18:55:19Z</time>
      </trkpt>
      <trkpt lat="48.70616" lon="5.4811">
        <ele>330.7</ele>
        <time>2020-06-29T18:55:20Z</time>
      </trkpt>
      <trkpt lat="48.70616" lon="5.48101">
        <ele>330.6</ele>
        <time>2020-06-29T18:55:21Z</time>
      </trkpt>
      <trkpt lat="48.70616" lon="5.48093">
        <ele>330.6</ele>
        <time>2020-06-29T18:55:22Z</time>
      </trkpt>
      <trkpt lat="48.70615" lon="5.48086">
        <ele>330.5</ele>
        <time>2020-06-29T18:55:23Z</time>
      </trkpt>
      <trkpt lat="48.70614" lon="5.48078">
        <ele>330.5</ele>
        <time>2020-06-29T18:55:24Z</time>
      </trkpt>
      <trkpt lat="48.70614" lon="5.4807">
        <ele>330.4</ele>
        <time>2020-06-29T18:55:25Z</time>
      </trkpt>
      <trkpt lat="48.70613" lon="5.48062">
        <ele>330.2</ele>
        <time>2020-06-29T18:55:26Z</time>
      </trkpt>
      <trkpt lat="48.70613" lon="5.48053">
        <ele>330</ele>
        <time>2020-06-29T18:55:27Z</time>
      </trkpt>
      <trkpt lat="48.70614" lon="5.48045">
        <ele>329.8</ele>
        <time>2020-06-29T18:55:28Z</time>
      </trkpt>
      <trkpt lat="48.70614" lon="5.48036">
        <ele>329.6</ele>
        <time>2020-06-29T18:55:29Z</time>
      </trkpt>
      <trkpt lat="48.70614" lon="5.48028">
        <ele>329.5</ele>
        <time>2020-06-29T18:55:30Z</time>
      </trkpt>
      <trkpt lat="48.70613" lon="5.48021">
        <ele>329.4</ele>
        <time>2020-06-29T18:55:31Z</time>
      </trkpt>
      <trkpt lat="48.70614" lon="5.48013">
        <ele>329.3</ele>
        <time>2020-06-29T18:55:32Z</time>
      </trkpt>
      <trkpt lat="48.70614" lon="5.48006">
        <ele>329.2</ele>
        <time>2020-06-29T18:55:33Z</time>
      </trkpt>
      <trkpt lat="48.70612" lon="5.48">
        <ele>329.1</ele>
        <time>2020-06-29T18:55:34Z</time>
      </trkpt>
      <trkpt lat="48.70611" lon="5.47994">
        <ele>329</ele>
        <time>2020-06-29T18:55:35Z</time>
      </trkpt>
      <trkpt lat="48.7061" lon="5.47987">
        <ele>328.9</ele>
        <time>2020-06-29T18:55:36Z</time>
      </trkpt>
      <trkpt lat="48.7061" lon="5.4798">
        <ele>328.8</ele>
        <time>2020-06-29T18:55:37Z</time>
      </trkpt>
      <trkpt lat="48.70609" lon="5.47973">
        <ele>328.7</ele>
        <time>2020-06-29T18:55:38Z</time>
      </trkpt>
      <trkpt lat="48.70609" lon="5.47966">
        <ele>328.6</ele>
        <time>2020-06-29T18:55:39Z</time>
      </trkpt>
      <trkpt lat="48.70608" lon="5.47959">
        <ele>328.5</ele>
        <time>2020-06-29T18:55:40Z</time>
      </trkpt>
      <trkpt lat="48.70608" lon="5.47952">
        <ele>328.4</ele>
        <time>2020-06-29T18:55:41Z</time>
      </trkpt>
      <trkpt lat="48.70608" lon="5.47945">
        <ele>328.3</ele>
        <time>2020-06-29T18:55:42Z</time>
      </trkpt>
      <trkpt lat="48.70608" lon="5.47938">
        <ele>328.1</ele>
        <time>2020-06-29T18:55:43Z</time>
      </trkpt>
      <trkpt lat="48.70607" lon="5.47931">
        <ele>328</ele>
        <time>2020-06-29T18:55:44Z</time>
      </trkpt>
      <trkpt lat="48.70607" lon="5.47924">
        <ele>327.8</ele>
        <time>2020-06-29T18:55:45Z</time>
      </trkpt>
      <trkpt lat="48.70607" lon="5.47917">
        <ele>327.7</ele>
        <time>2020-06-29T18:55:46Z</time>
      </trkpt>
      <trkpt lat="48.70606" lon="5.4791">
        <ele>327.5</ele>
        <time>2020-06-29T18:55:47Z</time>
      </trkpt>
      <trkpt lat="48.70606" lon="5.47902">
        <ele>327.3</ele>
        <time>2020-06-29T18:55:48Z</time>
      </trkpt>
      <trkpt lat="48.70606" lon="5.47894">
        <ele>327</ele>
        <time>2020-06-29T18:55:49Z</time>
      </trkpt>
      <trkpt lat="48.70605" lon="5.47887">
        <ele>326.9</ele>
        <time>2020-06-29T18:55:50Z</time>
      </trkpt>
      <trkpt lat="48.70605" lon="5.47879">
        <ele>326.6</ele>
        <time>2020-06-29T18:55:51Z</time>
      </trkpt>
      <trkpt lat="48.70605" lon="5.47871">
        <ele>326.4</ele>
        <time>2020-06-29T18:55:52Z</time>
      </trkpt>
      <trkpt lat="48.70604" lon="5.47864">
        <ele>326.3</ele>
        <time>2020-06-29T18:55:53Z</time>
      </trkpt>
      <trkpt lat="48.70604" lon="5.47856">
        <ele>326.1</ele>
        <time>2020-06-29T18:55:54Z</time>
      </trkpt>
      <trkpt lat="48.70604" lon="5.47847">
        <ele>326</ele>
        <time>2020-06-29T18:55:55Z</time>
      </trkpt>
      <trkpt lat="48.70603" lon="5.47838">
        <ele>325.7</ele>
        <time>2020-06-29T18:55:56Z</time>
      </trkpt>
      <trkpt lat="48.70603" lon="5.47829">
        <ele>325.4</ele>
        <time>2020-06-29T18:55:57Z</time>
      </trkpt>
      <trkpt lat="48.70602" lon="5.47821">
        <ele>325.3</ele>
        <time>2020-06-29T18:55:58Z</time>
      </trkpt>
      <trkpt lat="48.70602" lon="5.47813">
        <ele>325.2</ele>
        <time>2020-06-29T18:55:59Z</time>
      </trkpt>
      <trkpt lat="48.70602" lon="5.47804">
        <ele>325.1</ele>
        <time>2020-06-29T18:56:00Z</time>
      </trkpt>
      <trkpt lat="48.70602" lon="5.47797">
        <ele>324.9</ele>
        <time>2020-06-29T18:56:01Z</time>
      </trkpt>
      <trkpt lat="48.70602" lon="5.47789">
        <ele>324.8</ele>
        <time>2020-06-29T18:56:02Z</time>
      </trkpt>
      <trkpt lat="48.70601" lon="5.47782">
        <ele>324.7</ele>
        <time>2020-06-29T18:56:03Z</time>
      </trkpt>
      <trkpt lat="48.706" lon="5.47773">
        <ele>324.5</ele>
        <time>2020-06-29T18:56:04Z</time>
      </trkpt>
      <trkpt lat="48.706" lon="5.47765">
        <ele>324.3</ele>
        <time>2020-06-29T18:56:05Z</time>
      </trkpt>
      <trkpt lat="48.70599" lon="5.47756">
        <ele>324.1</ele>
        <time>2020-06-29T18:56:06Z</time>
      </trkpt>
      <trkpt lat="48.70599" lon="5.47748">
        <ele>323.8</ele>
        <time>2020-06-29T18:56:07Z</time>
      </trkpt>
      <trkpt lat="48.70599" lon="5.47739">
        <ele>323.6</ele>
        <time>2020-06-29T18:56:08Z</time>
      </trkpt>
      <trkpt lat="48.70598" lon="5.47731">
        <ele>323.4</ele>
        <time>2020-06-29T18:56:09Z</time>
      </trkpt>
      <trkpt lat="48.70598" lon="5.47723">
        <ele>323.2</ele>
        <time>2020-06-29T18:56:10Z</time>
      </trkpt>
      <trkpt lat="48.70598" lon="5.47714">
        <ele>323</ele>
        <time>2020-06-29T18:56:11Z</time>
      </trkpt>
      <trkpt lat="48.70598" lon="5.47706">
        <ele>322.7</ele>
        <time>2020-06-29T18:56:12Z</time>
      </trkpt>
      <trkpt lat="48.70597" lon="5.47697">
        <ele>322.5</ele>
        <time>2020-06-29T18:56:13Z</time>
      </trkpt>
      <trkpt lat="48.70596" lon="5.47688">
        <ele>322.3</ele>
        <time>2020-06-29T18:56:14Z</time>
      </trkpt>
      <trkpt lat="48.70596" lon="5.47679">
        <ele>322.1</ele>
        <time>2020-06-29T18:56:15Z</time>
      </trkpt>
      <trkpt lat="48.70595" lon="5.47669">
        <ele>321.8</ele>
        <time>2020-06-29T18:56:16Z</time>
      </trkpt>
      <trkpt lat="48.70594" lon="5.4766">
        <ele>321.5</ele>
        <time>2020-06-29T18:56:17Z</time>
      </trkpt>
      <trkpt lat="48.70593" lon="5.4765">
        <ele>321.3</ele>
        <time>2020-06-29T18:56:18Z</time>
      </trkpt>
      <trkpt lat="48.70592" lon="5.4764">
        <ele>321</ele>
        <time>2020-06-29T18:56:19Z</time>
      </trkpt>
      <trkpt lat="48.70592" lon="5.47631">
        <ele>320.6</ele>
        <time>2020-06-29T18:56:20Z</time>
      </trkpt>
      <trkpt lat="48.70591" lon="5.47621">
        <ele>320.2</ele>
        <time>2020-06-29T18:56:21Z</time>
      </trkpt>
      <trkpt lat="48.7059" lon="5.47611">
        <ele>319.9</ele>
        <time>2020-06-29T18:56:22Z</time>
      </trkpt>
      <trkpt lat="48.70589" lon="5.476">
        <ele>319.7</ele>
        <time>2020-06-29T18:56:23Z</time>
      </trkpt>
      <trkpt lat="48.70589" lon="5.47591">
        <ele>319.5</ele>
        <time>2020-06-29T18:56:24Z</time>
      </trkpt>
      <trkpt lat="48.70588" lon="5.47581">
        <ele>319.3</ele>
        <time>2020-06-29T18:56:25Z</time>
      </trkpt>
      <trkpt lat="48.70587" lon="5.47572">
        <ele>319.1</ele>
        <time>2020-06-29T18:56:26Z</time>
      </trkpt>
      <trkpt lat="48.70587" lon="5.4756">
        <ele>318.9</ele>
        <time>2020-06-29T18:56:27Z</time>
      </trkpt>
      <trkpt lat="48.70586" lon="5.47549">
        <ele>318.8</ele>
        <time>2020-06-29T18:56:28Z</time>
      </trkpt>
      <trkpt lat="48.70585" lon="5.4754">
        <ele>318.6</ele>
        <time>2020-06-29T18:56:29Z</time>
      </trkpt>
      <trkpt lat="48.70584" lon="5.4753">
        <ele>318.4</ele>
        <time>2020-06-29T18:56:30Z</time>
      </trkpt>
      <trkpt lat="48.70583" lon="5.47522">
        <ele>318.3</ele>
        <time>2020-06-29T18:56:31Z</time>
      </trkpt>
      <trkpt lat="48.70581" lon="5.47513">
        <ele>318.1</ele>
        <time>2020-06-29T18:56:32Z</time>
      </trkpt>
      <trkpt lat="48.7058" lon="5.47504">
        <ele>317.9</ele>
        <time>2020-06-29T18:56:33Z</time>
      </trkpt>
      <trkpt lat="48.70579" lon="5.47494">
        <ele>317.6</ele>
        <time>2020-06-29T18:56:34Z</time>
      </trkpt>
      <trkpt lat="48.70578" lon="5.47486">
        <ele>317.4</ele>
        <time>2020-06-29T18:56:35Z</time>
      </trkpt>
      <trkpt lat="48.70577" lon="5.47478">
        <ele>317.2</ele>
        <time>2020-06-29T18:56:36Z</time>
      </trkpt>
      <trkpt lat="48.70576" lon="5.4747">
        <ele>317</ele>
        <time>2020-06-29T18:56:37Z</time>
      </trkpt>
      <trkpt lat="48.70574" lon="5.47464">
        <ele>316.9</ele>
        <time>2020-06-29T18:56:38Z</time>
      </trkpt>
      <trkpt lat="48.70573" lon="5.47457">
        <ele>316.8</ele>
        <time>2020-06-29T18:56:39Z</time>
      </trkpt>
      <trkpt lat="48.70572" lon="5.47448">
        <ele>316.9</ele>
        <time>2020-06-29T18:56:40Z</time>
      </trkpt>
      <trkpt lat="48.70571" lon="5.47441">
        <ele>317.1</ele>
        <time>2020-06-29T18:56:41Z</time>
      </trkpt>
      <trkpt lat="48.7057" lon="5.47434">
        <ele>317.2</ele>
        <time>2020-06-29T18:56:42Z</time>
      </trkpt>
      <trkpt lat="48.70569" lon="5.47426">
        <ele>317.4</ele>
        <time>2020-06-29T18:56:43Z</time>
      </trkpt>
      <trkpt lat="48.70568" lon="5.47418">
        <ele>317.7</ele>
        <time>2020-06-29T18:56:44Z</time>
      </trkpt>
      <trkpt lat="48.70567" lon="5.47411">
        <ele>317.8</ele>
        <time>2020-06-29T18:56:45Z</time>
      </trkpt>
      <trkpt lat="48.70566" lon="5.47404">
        <ele>318</ele>
        <time>2020-06-29T18:56:46Z</time>
      </trkpt>
      <trkpt lat="48.70566" lon="5.47398">
        <ele>318.2</ele>
        <time>2020-06-29T18:56:47Z</time>
      </trkpt>
      <trkpt lat="48.70564" lon="5.47391">
        <ele>318.3</ele>
        <time>2020-06-29T18:56:48Z</time>
      </trkpt>
      <trkpt lat="48.70564" lon="5.47385">
        <ele>318.4</ele>
        <time>2020-06-29T18:56:49Z</time>
      </trkpt>
      <trkpt lat="48.70563" lon="5.47377">
        <ele>318.5</ele>
        <time>2020-06-29T18:56:50Z</time>
      </trkpt>
      <trkpt lat="48.70562" lon="5.47371">
        <ele>318.6</ele>
        <time>2020-06-29T18:56:51Z</time>
      </trkpt>
      <trkpt lat="48.70561" lon="5.47362">
        <ele>318.8</ele>
        <time>2020-06-29T18:56:52Z</time>
      </trkpt>
      <trkpt lat="48.7056" lon="5.47354">
        <ele>319</ele>
        <time>2020-06-29T18:56:53Z</time>
      </trkpt>
      <trkpt lat="48.70558" lon="5.47348">
        <ele>319.1</ele>
        <time>2020-06-29T18:56:54Z</time>
      </trkpt>
      <trkpt lat="48.70557" lon="5.47344">
        <ele>319.2</ele>
        <time>2020-06-29T18:56:55Z</time>
      </trkpt>
      <trkpt lat="48.70556" lon="5.47338">
        <ele>319.3</ele>
        <time>2020-06-29T18:56:56Z</time>
      </trkpt>
      <trkpt lat="48.70553" lon="5.4733">
        <ele>319.5</ele>
        <time>2020-06-29T18:56:57Z</time>
      </trkpt>
      <trkpt lat="48.70552" lon="5.47325">
        <ele>319.7</ele>
        <time>2020-06-29T18:56:58Z</time>
      </trkpt>
      <trkpt lat="48.7055" lon="5.47319">
        <ele>319.9</ele>
        <time>2020-06-29T18:56:59Z</time>
      </trkpt>
      <trkpt lat="48.70548" lon="5.47313">
        <ele>320</ele>
        <time>2020-06-29T18:57:00Z</time>
      </trkpt>
      <trkpt lat="48.70546" lon="5.47308">
        <ele>320.2</ele>
        <time>2020-06-29T18:57:01Z</time>
      </trkpt>
      <trkpt lat="48.70544" lon="5.47304">
        <ele>320.3</ele>
        <time>2020-06-29T18:57:02Z</time>
      </trkpt>
      <trkpt lat="48.70542" lon="5.47298">
        <ele>320.5</ele>
        <time>2020-06-29T18:57:03Z</time>
      </trkpt>
      <trkpt lat="48.70541" lon="5.47297">
        <ele>320.6</ele>
        <time>2020-06-29T18:57:04Z</time>
      </trkpt>
      <trkpt lat="48.70538" lon="5.4729">
        <ele>320.9</ele>
        <time>2020-06-29T18:57:05Z</time>
      </trkpt>
      <trkpt lat="48.70535" lon="5.47284">
        <ele>321.2</ele>
        <time>2020-06-29T18:57:06Z</time>
      </trkpt>
      <trkpt lat="48.70534" lon="5.47278">
        <ele>321.6</ele>
        <time>2020-06-29T18:57:07Z</time>
      </trkpt>
      <trkpt lat="48.70533" lon="5.47273">
        <ele>322.1</ele>
        <time>2020-06-29T18:57:08Z</time>
      </trkpt>
      <trkpt lat="48.70534" lon="5.47267">
        <ele>322.6</ele>
        <time>2020-06-29T18:57:09Z</time>
      </trkpt>
      <trkpt lat="48.70535" lon="5.47264">
        <ele>322.8</ele>
        <time>2020-06-29T18:57:10Z</time>
      </trkpt>
      <trkpt lat="48.70535" lon="5.47258">
        <ele>323.2</ele>
        <time>2020-06-29T18:57:11Z</time>
      </trkpt>
      <trkpt lat="48.70534" lon="5.47253">
        <ele>323.6</ele>
        <time>2020-06-29T18:57:12Z</time>
      </trkpt>
      <trkpt lat="48.70534" lon="5.47249">
        <ele>324</ele>
        <time>2020-06-29T18:57:13Z</time>
      </trkpt>
      <trkpt lat="48.70534" lon="5.47244">
        <ele>324.4</ele>
        <time>2020-06-29T18:57:14Z</time>
      </trkpt>
      <trkpt lat="48.70535" lon="5.47238">
        <ele>324.9</ele>
        <time>2020-06-29T18:57:15Z</time>
      </trkpt>
      <trkpt lat="48.70534" lon="5.47236">
        <ele>325.1</ele>
        <time>2020-06-29T18:57:16Z</time>
      </trkpt>
      <trkpt lat="48.70534" lon="5.47231">
        <ele>325.4</ele>
        <time>2020-06-29T18:57:17Z</time>
      </trkpt>
      <trkpt lat="48.70533" lon="5.47226">
        <ele>325.8</ele>
        <time>2020-06-29T18:57:18Z</time>
      </trkpt>
      <trkpt lat="48.70532" lon="5.47221">
        <ele>326.1</ele>
        <time>2020-06-29T18:57:19Z</time>
      </trkpt>
      <trkpt lat="48.70528" lon="5.47218">
        <ele>326.5</ele>
        <time>2020-06-29T18:57:20Z</time>
      </trkpt>
      <trkpt lat="48.70526" lon="5.47217">
        <ele>326.6</ele>
        <time>2020-06-29T18:57:21Z</time>
      </trkpt>
      <trkpt lat="48.70523" lon="5.47215">
        <ele>326.8</ele>
        <time>2020-06-29T18:57:22Z</time>
      </trkpt>
      <trkpt lat="48.7052" lon="5.47215">
        <ele>327</ele>
        <time>2020-06-29T18:57:23Z</time>
      </trkpt>
      <trkpt lat="48.70518" lon="5.47215">
        <ele>327.1</ele>
        <time>2020-06-29T18:57:24Z</time>
      </trkpt>
      <trkpt lat="48.70516" lon="5.47213">
        <ele>327.3</ele>
        <time>2020-06-29T18:57:25Z</time>
      </trkpt>
      <trkpt lat="48.70512" lon="5.47214">
        <ele>327.6</ele>
        <time>2020-06-29T18:57:26Z</time>
      </trkpt>
      <trkpt lat="48.70511" lon="5.47214">
        <ele>327.7</ele>
        <time>2020-06-29T18:57:27Z</time>
      </trkpt>
      <trkpt lat="48.70509" lon="5.47216">
        <ele>327.9</ele>
        <time>2020-06-29T18:57:28Z</time>
      </trkpt>
      <trkpt lat="48.70507" lon="5.47218">
        <ele>327.9</ele>
        <time>2020-06-29T18:57:29Z</time>
      </trkpt>
      <trkpt lat="48.70505" lon="5.47219">
        <ele>328.2</ele>
        <time>2020-06-29T18:57:30Z</time>
      </trkpt>
      <trkpt lat="48.70501" lon="5.4722">
        <ele>328.4</ele>
        <time>2020-06-29T18:57:31Z</time>
      </trkpt>
      <trkpt lat="48.705" lon="5.4722">
        <ele>328.5</ele>
        <time>2020-06-29T18:57:32Z</time>
      </trkpt>
      <trkpt lat="48.70497" lon="5.47221">
        <ele>328.7</ele>
        <time>2020-06-29T18:57:33Z</time>
      </trkpt>
      <trkpt lat="48.70496" lon="5.47221">
        <ele>328.8</ele>
        <time>2020-06-29T18:57:34Z</time>
      </trkpt>
      <trkpt lat="48.70493" lon="5.47222">
        <ele>329</ele>
        <time>2020-06-29T18:57:35Z</time>
      </trkpt>
      <trkpt lat="48.70492" lon="5.47223">
        <ele>329.1</ele>
        <time>2020-06-29T18:57:36Z</time>
      </trkpt>
      <trkpt lat="48.70489" lon="5.47225">
        <ele>329.4</ele>
        <time>2020-06-29T18:57:37Z</time>
      </trkpt>
      <trkpt lat="48.70487" lon="5.47225">
        <ele>329.4</ele>
        <time>2020-06-29T18:57:38Z</time>
      </trkpt>
      <trkpt lat="48.70484" lon="5.47227">
        <ele>329.7</ele>
        <time>2020-06-29T18:57:39Z</time>
      </trkpt>
      <trkpt lat="48.70483" lon="5.47227">
        <ele>329.8</ele>
        <time>2020-06-29T18:57:40Z</time>
      </trkpt>
      <trkpt lat="48.7048" lon="5.47227">
        <ele>330</ele>
        <time>2020-06-29T18:57:41Z</time>
      </trkpt>
      <trkpt lat="48.70477" lon="5.47228">
        <ele>330.2</ele>
        <time>2020-06-29T18:57:42Z</time>
      </trkpt>
      <trkpt lat="48.70476" lon="5.47229">
        <ele>330.2</ele>
        <time>2020-06-29T18:57:43Z</time>
      </trkpt>
      <trkpt lat="48.70473" lon="5.47228">
        <ele>330.5</ele>
        <time>2020-06-29T18:57:44Z</time>
      </trkpt>
      <trkpt lat="48.70472" lon="5.47228">
        <ele>330.5</ele>
        <time>2020-06-29T18:57:45Z</time>
      </trkpt>
      <trkpt lat="48.70469" lon="5.47226">
        <ele>330.8</ele>
        <time>2020-06-29T18:57:46Z</time>
      </trkpt>
      <trkpt lat="48.70468" lon="5.47226">
        <ele>330.8</ele>
        <time>2020-06-29T18:57:47Z</time>
      </trkpt>
      <trkpt lat="48.70465" lon="5.47224">
        <ele>331.1</ele>
        <time>2020-06-29T18:57:48Z</time>
      </trkpt>
      <trkpt lat="48.70464" lon="5.47223">
        <ele>331.2</ele>
        <time>2020-06-29T18:57:49Z</time>
      </trkpt>
      <trkpt lat="48.70463" lon="5.47222">
        <ele>331.3</ele>
        <time>2020-06-29T18:57:50Z</time>
      </trkpt>
      <trkpt lat="48.70462" lon="5.4722">
        <ele>331.4</ele>
        <time>2020-06-29T18:57:51Z</time>
      </trkpt>
      <trkpt lat="48.7046" lon="5.47216">
        <ele>331.7</ele>
        <time>2020-06-29T18:57:52Z</time>
      </trkpt>
      <trkpt lat="48.70459" lon="5.47215">
        <ele>331.8</ele>
        <time>2020-06-29T18:57:53Z</time>
      </trkpt>
      <trkpt lat="48.70457" lon="5.47211">
        <ele>332</ele>
        <time>2020-06-29T18:57:54Z</time>
      </trkpt>
      <trkpt lat="48.70456" lon="5.47209">
        <ele>332.1</ele>
        <time>2020-06-29T18:57:55Z</time>
      </trkpt>
      <trkpt lat="48.70455" lon="5.47205">
        <ele>332.2</ele>
        <time>2020-06-29T18:57:56Z</time>
      </trkpt>
      <trkpt lat="48.70455" lon="5.47203">
        <ele>332.3</ele>
        <time>2020-06-29T18:57:57Z</time>
      </trkpt>
      <trkpt lat="48.70455" lon="5.47201">
        <ele>332.4</ele>
        <time>2020-06-29T18:57:58Z</time>
      </trkpt>
      <trkpt lat="48.70455" lon="5.47199">
        <ele>332.4</ele>
        <time>2020-06-29T18:57:59Z</time>
      </trkpt>
      <trkpt lat="48.70456" lon="5.47195">
        <ele>332.5</ele>
        <time>2020-06-29T18:58:00Z</time>
      </trkpt>
      <trkpt lat="48.70457" lon="5.47193">
        <ele>332.6</ele>
        <time>2020-06-29T18:58:01Z</time>
      </trkpt>
      <trkpt lat="48.70458" lon="5.47189">
        <ele>332.7</ele>
        <time>2020-06-29T18:58:02Z</time>
      </trkpt>
      <trkpt lat="48.70459" lon="5.47188">
        <ele>332.7</ele>
        <time>2020-06-29T18:58:03Z</time>
      </trkpt>
      <trkpt lat="48.70462" lon="5.47184">
        <ele>332.7</ele>
        <time>2020-06-29T18:58:04Z</time>
      </trkpt>
      <trkpt lat="48.70463" lon="5.47184">
        <ele>332.6</ele>
        <time>2020-06-29T18:58:05Z</time>
      </trkpt>
      <trkpt lat="48.70466" lon="5.47182">
        <ele>332.6</ele>
        <time>2020-06-29T18:58:06Z</time>
      </trkpt>
      <trkpt lat="48.70469" lon="5.47181">
        <ele>332.6</ele>
        <time>2020-06-29T18:58:07Z</time>
      </trkpt>
      <trkpt lat="48.70472" lon="5.4718">
        <ele>332.5</ele>
        <time>2020-06-29T18:58:08Z</time>
      </trkpt>
      <trkpt lat="48.70475" lon="5.47179">
        <ele>332.5</ele>
        <time>2020-06-29T18:58:09Z</time>
      </trkpt>
      <trkpt lat="48.70478" lon="5.47178">
        <ele>332.4</ele>
        <time>2020-06-29T18:58:10Z</time>
      </trkpt>
      <trkpt lat="48.70482" lon="5.47178">
        <ele>332.4</ele>
        <time>2020-06-29T18:58:11Z</time>
      </trkpt>
      <trkpt lat="48.70485" lon="5.47177">
        <ele>332.3</ele>
        <time>2020-06-29T18:58:12Z</time>
      </trkpt>
      <trkpt lat="48.70488" lon="5.47176">
        <ele>332.3</ele>
        <time>2020-06-29T18:58:13Z</time>
      </trkpt>
      <trkpt lat="48.70492" lon="5.47175">
        <ele>332.2</ele>
        <time>2020-06-29T18:58:14Z</time>
      </trkpt>
      <trkpt lat="48.70495" lon="5.47174">
        <ele>332.1</ele>
        <time>2020-06-29T18:58:15Z</time>
      </trkpt>
      <trkpt lat="48.70499" lon="5.47174">
        <ele>332</ele>
        <time>2020-06-29T18:58:16Z</time>
      </trkpt>
      <trkpt lat="48.70502" lon="5.47174">
        <ele>331.9</ele>
        <time>2020-06-29T18:58:17Z</time>
      </trkpt>
      <trkpt lat="48.70505" lon="5.47173">
        <ele>331.8</ele>
        <time>2020-06-29T18:58:18Z</time>
      </trkpt>
      <trkpt lat="48.70509" lon="5.47173">
        <ele>331.7</ele>
        <time>2020-06-29T18:58:19Z</time>
      </trkpt>
      <trkpt lat="48.70513" lon="5.47175">
        <ele>331.6</ele>
        <time>2020-06-29T18:58:20Z</time>
      </trkpt>
      <trkpt lat="48.70518" lon="5.47176">
        <ele>331.4</ele>
        <time>2020-06-29T18:58:21Z</time>
      </trkpt>
      <trkpt lat="48.70522" lon="5.47177">
        <ele>331.3</ele>
        <time>2020-06-29T18:58:22Z</time>
      </trkpt>
      <trkpt lat="48.70525" lon="5.47178">
        <ele>331.2</ele>
        <time>2020-06-29T18:58:23Z</time>
      </trkpt>
      <trkpt lat="48.70528" lon="5.47178">
        <ele>331.1</ele>
        <time>2020-06-29T18:58:24Z</time>
      </trkpt>
      <trkpt lat="48.7053" lon="5.47177">
        <ele>331</ele>
        <time>2020-06-29T18:58:25Z</time>
      </trkpt>
      <trkpt lat="48.70532" lon="5.47178">
        <ele>331</ele>
        <time>2020-06-29T18:58:26Z</time>
      </trkpt>
      <trkpt lat="48.70531" lon="5.47179">
        <ele>331</ele>
        <time>2020-06-29T18:58:27Z</time>
      </trkpt>
      <trkpt lat="48.70531" lon="5.47177">
        <ele>330.9</ele>
        <time>2020-06-29T18:58:28Z</time>
      </trkpt>
      <trkpt lat="48.70531" lon="5.47178">
        <ele>330.9</ele>
        <time>2020-06-29T18:58:29Z</time>
      </trkpt>
      <trkpt lat="48.7053" lon="5.47179">
        <ele>330.9</ele>
        <time>2020-06-29T18:58:30Z</time>
      </trkpt>
      <trkpt lat="48.7053" lon="5.47178">
        <ele>330.9</ele>
        <time>2020-06-29T18:58:31Z</time>
      </trkpt>
      <trkpt lat="48.7053" lon="5.47179">
        <ele>330.8</ele>
        <time>2020-06-29T18:58:32Z</time>
      </trkpt>
      <trkpt lat="48.70531" lon="5.47179">
        <ele>330.8</ele>
        <time>2020-06-29T18:58:33Z</time>
      </trkpt>
      <trkpt lat="48.70531" lon="5.4718">
        <ele>330.8</ele>
        <time>2020-06-29T18:58:34Z</time>
      </trkpt>
      <trkpt lat="48.70533" lon="5.4718">
        <ele>330.8</ele>
        <time>2020-06-29T18:58:35Z</time>
      </trkpt>
      <trkpt lat="48.70534" lon="5.4718">
        <ele>330.7</ele>
        <time>2020-06-29T18:58:36Z</time>
      </trkpt>
      <trkpt lat="48.70536" lon="5.47181">
        <ele>330.7</ele>
        <time>2020-06-29T18:58:37Z</time>
      </trkpt>
      <trkpt lat="48.70538" lon="5.47181">
        <ele>330.7</ele>
        <time>2020-06-29T18:58:38Z</time>
      </trkpt>
      <trkpt lat="48.70539" lon="5.47182">
        <ele>330.6</ele>
        <time>2020-06-29T18:58:39Z</time>
      </trkpt>
      <trkpt lat="48.70541" lon="5.47182">
        <ele>330.6</ele>
        <time>2020-06-29T18:58:40Z</time>
      </trkpt>
      <trkpt lat="48.70542" lon="5.47182">
        <ele>330.6</ele>
        <time>2020-06-29T18:58:41Z</time>
      </trkpt>
      <trkpt lat="48.70542" lon="5.47183">
        <ele>330.6</ele>
        <time>2020-06-29T18:58:42Z</time>
      </trkpt>
      <trkpt lat="48.70542" lon="5.47182">
        <ele>330.6</ele>
        <time>2020-06-29T18:58:43Z</time>
      </trkpt>
      <trkpt lat="48.70542" lon="5.47182">
        <ele>330.6</ele>
        <time>2020-06-29T18:58:44Z</time>
      </trkpt>
      <trkpt lat="48.70542" lon="5.47182">
        <ele>330.6</ele>
        <time>2020-06-29T18:58:45Z</time>
      </trkpt>
      <trkpt lat="48.70542" lon="5.47182">
        <ele>330.6</ele>
        <time>2020-06-29T18:58:46Z</time>
      </trkpt>
      <trkpt lat="48.70542" lon="5.47182">
        <ele>330.6</ele>
        <time>2020-06-29T18:58:47Z</time>
      </trkpt>
      <trkpt lat="48.70542" lon="5.47182">
        <ele>330.6</ele>
        <time>2020-06-29T18:58:48Z</time>
      </trkpt>
      <trkpt lat="48.70542" lon="5.47182">
        <ele>330.6</ele>
        <time>2020-06-29T18:58:49Z</time>
      </trkpt>
      <trkpt lat="48.70542" lon="5.47182">
        <ele>330.6</ele>
        <time>2020-06-29T18:58:50Z</time>
      </trkpt>
      <trkpt lat="48.70542" lon="5.47182">
        <ele>330.6</ele>
        <time>2020-06-29T18:58:51Z</time>
      </trkpt>
      <trkpt lat="48.70542" lon="5.47182">
        <ele>330.6</ele>
        <time>2020-06-29T18:58:52Z</time>
      </trkpt>
      <trkpt lat="48.70542" lon="5.47182">
        <ele>330.6</ele>
        <time>2020-06-29T18:58:53Z</time>
      </trkpt>
      <trkpt lat="48.70542" lon="5.47182">
        <ele>330.6</ele>
        <time>2020-06-29T18:58:54Z</time>
      </trkpt>
      <trkpt lat="48.70542" lon="5.47182">
        <ele>330.6</ele>
        <time>2020-06-29T18:58:55Z</time>
      </trkpt>
      <trkpt lat="48.70542" lon="5.47182">
        <ele>330.6</ele>
        <time>2020-06-29T18:58:56Z</time>
      </trkpt>
      <trkpt lat="48.70542" lon="5.47181">
        <ele>330.6</ele>
        <time>2020-06-29T18:58:57Z</time>
      </trkpt>
      <trkpt lat="48.70545" lon="5.4719">
        <ele>330.5</ele>
        <time>2020-06-29T19:00:38Z</time>
      </trkpt>
      <trkpt lat="48.70548" lon="5.47192">
        <ele>330.5</ele>
        <time>2020-06-29T19:00:39Z</time>
      </trkpt>
      <trkpt lat="48.7055" lon="5.47194">
        <ele>330.4</ele>
        <time>2020-06-29T19:00:40Z</time>
      </trkpt>
      <trkpt lat="48.70553" lon="5.47195">
        <ele>330.4</ele>
        <time>2020-06-29T19:00:41Z</time>
      </trkpt>
      <trkpt lat="48.70554" lon="5.47195">
        <ele>330.4</ele>
        <time>2020-06-29T19:00:42Z</time>
      </trkpt>
      <trkpt lat="48.70555" lon="5.47195">
        <ele>330.4</ele>
        <time>2020-06-29T19:00:43Z</time>
      </trkpt>
      <trkpt lat="48.70555" lon="5.47195">
        <ele>330.4</ele>
        <time>2020-06-29T19:00:44Z</time>
      </trkpt>
      <trkpt lat="48.70555" lon="5.47195">
        <ele>330.4</ele>
        <time>2020-06-29T19:00:45Z</time>
      </trkpt>
      <trkpt lat="48.70556" lon="5.47195">
        <ele>330.4</ele>
        <time>2020-06-29T19:00:46Z</time>
      </trkpt>
      <trkpt lat="48.70556" lon="5.47195">
        <ele>330.3</ele>
        <time>2020-06-29T19:00:47Z</time>
      </trkpt>
      <trkpt lat="48.70556" lon="5.47195">
        <ele>330.3</ele>
        <time>2020-06-29T19:00:48Z</time>
      </trkpt>
      <trkpt lat="48.70556" lon="5.47195">
        <ele>330.3</ele>
        <time>2020-06-29T19:00:49Z</time>
      </trkpt>
      <trkpt lat="48.70556" lon="5.47195">
        <ele>330.3</ele>
        <time>2020-06-29T19:00:50Z</time>
      </trkpt>
      <trkpt lat="48.70556" lon="5.47195">
        <ele>330.3</ele>
        <time>2020-06-29T19:00:51Z</time>
      </trkpt>
      <trkpt lat="48.70556" lon="5.47195">
        <ele>330.3</ele>
        <time>2020-06-29T19:00:52Z</time>
      </trkpt>
      <trkpt lat="48.70556" lon="5.47195">
        <ele>330.3</ele>
        <time>2020-06-29T19:00:53Z</time>
      </trkpt>
      <trkpt lat="48.70556" lon="5.47195">
        <ele>330.3</ele>
        <time>2020-06-29T19:00:54Z</time>
      </trkpt>
      <trkpt lat="48.70556" lon="5.47194">
        <ele>330.3</ele>
        <time>2020-06-29T19:00:55Z</time>
      </trkpt>
      <trkpt lat="48.70556" lon="5.47192">
        <ele>330.3</ele>
        <time>2020-06-29T19:02:03Z</time>
      </trkpt>
      <trkpt lat="48.70556" lon="5.47192">
        <ele>330.3</ele>
        <time>2020-06-29T19:02:04Z</time>
      </trkpt>
      <trkpt lat="48.70557" lon="5.47193">
        <ele>330.3</ele>
        <time>2020-06-29T19:02:05Z</time>
      </trkpt>
      <trkpt lat="48.70558" lon="5.47194">
        <ele>330.3</ele>
        <time>2020-06-29T19:02:06Z</time>
      </trkpt>
      <trkpt lat="48.70559" lon="5.47195">
        <ele>330.2</ele>
        <time>2020-06-29T19:02:07Z</time>
      </trkpt>
      <trkpt lat="48.70559" lon="5.47195">
        <ele>330.2</ele>
        <time>2020-06-29T19:02:08Z</time>
      </trkpt>
      <trkpt lat="48.7056" lon="5.47195">
        <ele>330.2</ele>
        <time>2020-06-29T19:02:09Z</time>
      </trkpt>
      <trkpt lat="48.7056" lon="5.47195">
        <ele>330.2</ele>
        <time>2020-06-29T19:02:10Z</time>
      </trkpt>
      <trkpt lat="48.7056" lon="5.47195">
        <ele>330.2</ele>
        <time>2020-06-29T19:02:11Z</time>
      </trkpt>
      <trkpt lat="48.7056" lon="5.47195">
        <ele>330.2</ele>
        <time>2020-06-29T19:02:12Z</time>
      </trkpt>
      <trkpt lat="48.7056" lon="5.47195">
        <ele>330.2</ele>
        <time>2020-06-29T19:02:13Z</time>
      </trkpt>
      <trkpt lat="48.7056" lon="5.47195">
        <ele>330.2</ele>
        <time>2020-06-29T19:02:14Z</time>
      </trkpt>
      <trkpt lat="48.7056" lon="5.47195">
        <ele>330.2</ele>
        <time>2020-06-29T19:02:15Z</time>
      </trkpt>
      <trkpt lat="48.7056" lon="5.47195">
        <ele>330.2</ele>
        <time>2020-06-29T19:02:16Z</time>
      </trkpt>
      <trkpt lat="48.7056" lon="5.47195">
        <ele>330.2</ele>
        <time>2020-06-29T19:02:17Z</time>
      </trkpt>
      <trkpt lat="48.7056" lon="5.47195">
        <ele>330.2</ele>
        <time>2020-06-29T19:02:18Z</time>
      </trkpt>
      <trkpt lat="48.7056" lon="5.47195">
        <ele>330.2</ele>
        <time>2020-06-29T19:02:19Z</time>
      </trkpt>
      <trkpt lat="48.70551" lon="5.4719">
        <ele>330.1</ele>
        <time>2020-06-29T19:08:23Z</time>
      </trkpt>
      <trkpt lat="48.70551" lon="5.4719">
        <ele>330.1</ele>
        <time>2020-06-29T19:08:24Z</time>
      </trkpt>
      <trkpt lat="48.70551" lon="5.4719">
        <ele>330.1</ele>
        <time>2020-06-29T19:08:25Z</time>
      </trkpt>
      <trkpt lat="48.70551" lon="5.47191">
        <ele>330.1</ele>
        <time>2020-06-29T19:08:26Z</time>
      </trkpt>
      <trkpt lat="48.7055" lon="5.4719">
        <ele>330</ele>
        <time>2020-06-29T19:08:27Z</time>
      </trkpt>
      <trkpt lat="48.7055" lon="5.47187">
        <ele>330</ele>
        <time>2020-06-29T19:08:28Z</time>
      </trkpt>
      <trkpt lat="48.70552" lon="5.47188">
        <ele>330</ele>
        <time>2020-06-29T19:08:29Z</time>
      </trkpt>
      <trkpt lat="48.70553" lon="5.47188">
        <ele>330</ele>
        <time>2020-06-29T19:08:30Z</time>
      </trkpt>
      <trkpt lat="48.70553" lon="5.47189">
        <ele>330</ele>
        <time>2020-06-29T19:08:31Z</time>
      </trkpt>
      <trkpt lat="48.70553" lon="5.4719">
        <ele>330</ele>
        <time>2020-06-29T19:08:32Z</time>
      </trkpt>
      <trkpt lat="48.70554" lon="5.47191">
        <ele>330</ele>
        <time>2020-06-29T19:08:33Z</time>
      </trkpt>
      <trkpt lat="48.70554" lon="5.47191">
        <ele>330</ele>
        <time>2020-06-29T19:08:34Z</time>
      </trkpt>
      <trkpt lat="48.70553" lon="5.47192">
        <ele>329.9</ele>
        <time>2020-06-29T19:08:35Z</time>
      </trkpt>
      <trkpt lat="48.70554" lon="5.47193">
        <ele>329.9</ele>
        <time>2020-06-29T19:08:36Z</time>
      </trkpt>
      <trkpt lat="48.70554" lon="5.47194">
        <ele>329.9</ele>
        <time>2020-06-29T19:08:37Z</time>
      </trkpt>
      <trkpt lat="48.70554" lon="5.47194">
        <ele>329.9</ele>
        <time>2020-06-29T19:08:38Z</time>
      </trkpt>
      <trkpt lat="48.70555" lon="5.47195">
        <ele>329.9</ele>
        <time>2020-06-29T19:08:39Z</time>
      </trkpt>
      <trkpt lat="48.70555" lon="5.47195">
        <ele>329.9</ele>
        <time>2020-06-29T19:08:40Z</time>
      </trkpt>
      <trkpt lat="48.70556" lon="5.47197">
        <ele>329.9</ele>
        <time>2020-06-29T19:08:41Z</time>
      </trkpt>
      <trkpt lat="48.70558" lon="5.47198">
        <ele>329.9</ele>
        <time>2020-06-29T19:08:42Z</time>
      </trkpt>
      <trkpt lat="48.70559" lon="5.47198">
        <ele>329.9</ele>
        <time>2020-06-29T19:08:43Z</time>
      </trkpt>
      <trkpt lat="48.7056" lon="5.47198">
        <ele>329.8</ele>
        <time>2020-06-29T19:08:44Z</time>
      </trkpt>
      <trkpt lat="48.7056" lon="5.47199">
        <ele>329.8</ele>
        <time>2020-06-29T19:08:45Z</time>
      </trkpt>
      <trkpt lat="48.7056" lon="5.472">
        <ele>329.8</ele>
        <time>2020-06-29T19:08:46Z</time>
      </trkpt>
      <trkpt lat="48.7056" lon="5.47198">
        <ele>329.8</ele>
        <time>2020-06-29T19:08:47Z</time>
      </trkpt>
      <trkpt lat="48.7056" lon="5.47197">
        <ele>329.8</ele>
        <time>2020-06-29T19:08:48Z</time>
      </trkpt>
      <trkpt lat="48.7056" lon="5.47196">
        <ele>329.8</ele>
        <time>2020-06-29T19:08:49Z</time>
      </trkpt>
      <trkpt lat="48.7056" lon="5.47196">
        <ele>329.8</ele>
        <time>2020-06-29T19:08:50Z</time>
      </trkpt>
      <trkpt lat="48.7056" lon="5.47195">
        <ele>329.8</ele>
        <time>2020-06-29T19:08:51Z</time>
      </trkpt>
      <trkpt lat="48.7056" lon="5.47194">
        <ele>329.8</ele>
        <time>2020-06-29T19:08:52Z</time>
      </trkpt>
      <trkpt lat="48.70559" lon="5.47193">
        <ele>329.8</ele>
        <time>2020-06-29T19:08:53Z</time>
      </trkpt>
      <trkpt lat="48.70559" lon="5.47192">
        <ele>329.7</ele>
        <time>2020-06-29T19:08:54Z</time>
      </trkpt>
      <trkpt lat="48.70558" lon="5.47192">
        <ele>329.7</ele>
        <time>2020-06-29T19:08:55Z</time>
      </trkpt>
      <trkpt lat="48.70558" lon="5.47192">
        <ele>329.7</ele>
        <time>2020-06-29T19:08:56Z</time>
      </trkpt>
      <trkpt lat="48.70558" lon="5.47192">
        <ele>329.7</ele>
        <time>2020-06-29T19:08:57Z</time>
      </trkpt>
      <trkpt lat="48.70558" lon="5.47192">
        <ele>329.7</ele>
        <time>2020-06-29T19:08:58Z</time>
      </trkpt>
      <trkpt lat="48.70558" lon="5.47192">
        <ele>329.7</ele>
        <time>2020-06-29T19:08:59Z</time>
      </trkpt>
      <trkpt lat="48.70558" lon="5.47192">
        <ele>329.7</ele>
        <time>2020-06-29T19:09:00Z</time>
      </trkpt>
      <trkpt lat="48.70558" lon="5.4719">
        <ele>329.7</ele>
        <time>2020-06-29T19:09:01Z</time>
      </trkpt>
      <trkpt lat="48.70558" lon="5.47188">
        <ele>329.7</ele>
        <time>2020-06-29T19:09:02Z</time>
      </trkpt>
      <trkpt lat="48.70557" lon="5.47187">
        <ele>329.7</ele>
        <time>2020-06-29T19:09:03Z</time>
      </trkpt>
      <trkpt lat="48.70557" lon="5.47187">
        <ele>329.7</ele>
        <time>2020-06-29T19:09:04Z</time>
      </trkpt>
      <trkpt lat="48.70557" lon="5.47187">
        <ele>329.7</ele>
        <time>2020-06-29T19:09:05Z</time>
      </trkpt>
      <trkpt lat="48.70558" lon="5.47186">
        <ele>329.7</ele>
        <time>2020-06-29T19:09:06Z</time>
      </trkpt>
      <trkpt lat="48.70558" lon="5.47187">
        <ele>329.7</ele>
        <time>2020-06-29T19:09:07Z</time>
      </trkpt>
      <trkpt lat="48.70558" lon="5.47187">
        <ele>329.7</ele>
        <time>2020-06-29T19:09:08Z</time>
      </trkpt>
      <trkpt lat="48.70558" lon="5.47187">
        <ele>329.7</ele>
        <time>2020-06-29T19:09:09Z</time>
      </trkpt>
      <trkpt lat="48.70559" lon="5.47188">
        <ele>329.7</ele>
        <time>2020-06-29T19:09:10Z</time>
      </trkpt>
      <trkpt lat="48.7056" lon="5.4719">
        <ele>329.6</ele>
        <time>2020-06-29T19:09:11Z</time>
      </trkpt>
      <trkpt lat="48.7056" lon="5.47191">
        <ele>329.6</ele>
        <time>2020-06-29T19:09:12Z</time>
      </trkpt>
      <trkpt lat="48.70561" lon="5.47192">
        <ele>329.6</ele>
        <time>2020-06-29T19:09:13Z</time>
      </trkpt>
      <trkpt lat="48.70561" lon="5.47193">
        <ele>329.6</ele>
        <time>2020-06-29T19:09:14Z</time>
      </trkpt>
      <trkpt lat="48.70562" lon="5.47193">
        <ele>329.6</ele>
        <time>2020-06-29T19:09:15Z</time>
      </trkpt>
      <trkpt lat="48.70562" lon="5.47193">
        <ele>329.6</ele>
        <time>2020-06-29T19:09:16Z</time>
      </trkpt>
      <trkpt lat="48.70562" lon="5.47194">
        <ele>329.6</ele>
        <time>2020-06-29T19:09:17Z</time>
      </trkpt>
      <trkpt lat="48.70562" lon="5.47194">
        <ele>329.6</ele>
        <time>2020-06-29T19:09:18Z</time>
      </trkpt>
      <trkpt lat="48.70562" lon="5.47194">
        <ele>329.6</ele>
        <time>2020-06-29T19:09:19Z</time>
      </trkpt>
      <trkpt lat="48.70562" lon="5.47194">
        <ele>329.6</ele>
        <time>2020-06-29T19:09:20Z</time>
      </trkpt>
      <trkpt lat="48.70562" lon="5.47194">
        <ele>329.6</ele>
        <time>2020-06-29T19:09:21Z</time>
      </trkpt>
      <trkpt lat="48.70562" lon="5.47194">
        <ele>329.6</ele>
        <time>2020-06-29T19:09:22Z</time>
      </trkpt>
      <trkpt lat="48.70562" lon="5.47194">
        <ele>329.6</ele>
        <time>2020-06-29T19:09:23Z</time>
      </trkpt>
      <trkpt lat="48.70562" lon="5.47194">
        <ele>329.6</ele>
        <time>2020-06-29T19:09:24Z</time>
      </trkpt>
      <trkpt lat="48.70563" lon="5.47194">
        <ele>329.6</ele>
        <time>2020-06-29T19:09:25Z</time>
      </trkpt>
      <trkpt lat="48.70563" lon="5.47195">
        <ele>329.6</ele>
        <time>2020-06-29T19:09:26Z</time>
      </trkpt>
      <trkpt lat="48.70568" lon="5.47195">
        <ele>329.5</ele>
        <time>2020-06-29T19:09:33Z</time>
      </trkpt>
      <trkpt lat="48.70571" lon="5.47196">
        <ele>329.5</ele>
        <time>2020-06-29T19:09:34Z</time>
      </trkpt>
      <trkpt lat="48.70573" lon="5.47196">
        <ele>329.5</ele>
        <time>2020-06-29T19:09:35Z</time>
      </trkpt>
      <trkpt lat="48.70576" lon="5.47197">
        <ele>329.5</ele>
        <time>2020-06-29T19:09:36Z</time>
      </trkpt>
      <trkpt lat="48.70579" lon="5.47198">
        <ele>329.5</ele>
        <time>2020-06-29T19:09:37Z</time>
      </trkpt>
      <trkpt lat="48.70582" lon="5.47198">
        <ele>329.5</ele>
        <time>2020-06-29T19:09:38Z</time>
      </trkpt>
      <trkpt lat="48.70582" lon="5.47198">
        <ele>329.5</ele>
        <time>2020-06-29T19:09:39Z</time>
      </trkpt>
      <trkpt lat="48.70585" lon="5.47198">
        <ele>329.5</ele>
        <time>2020-06-29T19:09:40Z</time>
      </trkpt>
      <trkpt lat="48.70586" lon="5.47197">
        <ele>329.5</ele>
        <time>2020-06-29T19:09:41Z</time>
      </trkpt>
      <trkpt lat="48.70589" lon="5.47192">
        <ele>329.6</ele>
        <time>2020-06-29T19:09:42Z</time>
      </trkpt>
      <trkpt lat="48.7059" lon="5.47189">
        <ele>329.7</ele>
        <time>2020-06-29T19:09:43Z</time>
      </trkpt>
      <trkpt lat="48.70591" lon="5.47184">
        <ele>329.9</ele>
        <time>2020-06-29T19:09:44Z</time>
      </trkpt>
      <trkpt lat="48.70592" lon="5.47179">
        <ele>330</ele>
        <time>2020-06-29T19:09:45Z</time>
      </trkpt>
      <trkpt lat="48.70592" lon="5.47175">
        <ele>330.2</ele>
        <time>2020-06-29T19:09:46Z</time>
      </trkpt>
      <trkpt lat="48.70593" lon="5.47169">
        <ele>330.4</ele>
        <time>2020-06-29T19:09:47Z</time>
      </trkpt>
      <trkpt lat="48.70593" lon="5.47166">
        <ele>330.4</ele>
        <time>2020-06-29T19:09:48Z</time>
      </trkpt>
      <trkpt lat="48.70593" lon="5.47161">
        <ele>330.6</ele>
        <time>2020-06-29T19:09:49Z</time>
      </trkpt>
      <trkpt lat="48.70593" lon="5.4716">
        <ele>330.6</ele>
        <time>2020-06-29T19:09:50Z</time>
      </trkpt>
      <trkpt lat="48.70593" lon="5.47154">
        <ele>330.8</ele>
        <time>2020-06-29T19:09:51Z</time>
      </trkpt>
      <trkpt lat="48.70594" lon="5.47149">
        <ele>331</ele>
        <time>2020-06-29T19:09:52Z</time>
      </trkpt>
      <trkpt lat="48.70594" lon="5.47144">
        <ele>331.1</ele>
        <time>2020-06-29T19:09:53Z</time>
      </trkpt>
      <trkpt lat="48.70594" lon="5.47139">
        <ele>331.2</ele>
        <time>2020-06-29T19:09:54Z</time>
      </trkpt>
      <trkpt lat="48.70595" lon="5.47135">
        <ele>331.3</ele>
        <time>2020-06-29T19:09:55Z</time>
      </trkpt>
      <trkpt lat="48.70596" lon="5.47129">
        <ele>331.4</ele>
        <time>2020-06-29T19:09:56Z</time>
      </trkpt>
      <trkpt lat="48.70597" lon="5.47124">
        <ele>331.4</ele>
        <time>2020-06-29T19:09:57Z</time>
      </trkpt>
      <trkpt lat="48.70598" lon="5.47118">
        <ele>331.4</ele>
        <time>2020-06-29T19:09:58Z</time>
      </trkpt>
      <trkpt lat="48.70599" lon="5.47116">
        <ele>331.4</ele>
        <time>2020-06-29T19:09:59Z</time>
      </trkpt>
      <trkpt lat="48.70599" lon="5.47111">
        <ele>331.4</ele>
        <time>2020-06-29T19:10:00Z</time>
      </trkpt>
      <trkpt lat="48.70599" lon="5.47107">
        <ele>331.4</ele>
        <time>2020-06-29T19:10:01Z</time>
      </trkpt>
      <trkpt lat="48.70599" lon="5.47102">
        <ele>331.4</ele>
        <time>2020-06-29T19:10:02Z</time>
      </trkpt>
      <trkpt lat="48.70599" lon="5.471">
        <ele>331.4</ele>
        <time>2020-06-29T19:10:03Z</time>
      </trkpt>
      <trkpt lat="48.70597" lon="5.47095">
        <ele>331.4</ele>
        <time>2020-06-29T19:10:04Z</time>
      </trkpt>
      <trkpt lat="48.70596" lon="5.47093">
        <ele>331.4</ele>
        <time>2020-06-29T19:10:05Z</time>
      </trkpt>
      <trkpt lat="48.70594" lon="5.47088">
        <ele>331.3</ele>
        <time>2020-06-29T19:10:06Z</time>
      </trkpt>
      <trkpt lat="48.70593" lon="5.47086">
        <ele>331.3</ele>
        <time>2020-06-29T19:10:07Z</time>
      </trkpt>
      <trkpt lat="48.70591" lon="5.47081">
        <ele>331.2</ele>
        <time>2020-06-29T19:10:08Z</time>
      </trkpt>
      <trkpt lat="48.70591" lon="5.47079">
        <ele>331.2</ele>
        <time>2020-06-29T19:10:09Z</time>
      </trkpt>
      <trkpt lat="48.70589" lon="5.47073">
        <ele>331.1</ele>
        <time>2020-06-29T19:10:10Z</time>
      </trkpt>
      <trkpt lat="48.70589" lon="5.47071">
        <ele>331.1</ele>
        <time>2020-06-29T19:10:11Z</time>
      </trkpt>
      <trkpt lat="48.70587" lon="5.47067">
        <ele>331.1</ele>
        <time>2020-06-29T19:10:12Z</time>
      </trkpt>
      <trkpt lat="48.70586" lon="5.47065">
        <ele>331.1</ele>
        <time>2020-06-29T19:10:13Z</time>
      </trkpt>
      <trkpt lat="48.70585" lon="5.47061">
        <ele>331.1</ele>
        <time>2020-06-29T19:10:14Z</time>
      </trkpt>
      <trkpt lat="48.70584" lon="5.47057">
        <ele>331.2</ele>
        <time>2020-06-29T19:10:15Z</time>
      </trkpt>
      <trkpt lat="48.70582" lon="5.47052">
        <ele>331.3</ele>
        <time>2020-06-29T19:10:16Z</time>
      </trkpt>
      <trkpt lat="48.70579" lon="5.47045">
        <ele>331.4</ele>
        <time>2020-06-29T19:10:17Z</time>
      </trkpt>
      <trkpt lat="48.70578" lon="5.47038">
        <ele>331.5</ele>
        <time>2020-06-29T19:10:18Z</time>
      </trkpt>
      <trkpt lat="48.70578" lon="5.4703">
        <ele>331.5</ele>
        <time>2020-06-29T19:10:19Z</time>
      </trkpt>
      <trkpt lat="48.70576" lon="5.47023">
        <ele>331.6</ele>
        <time>2020-06-29T19:10:20Z</time>
      </trkpt>
      <trkpt lat="48.70575" lon="5.47017">
        <ele>331.6</ele>
        <time>2020-06-29T19:10:21Z</time>
      </trkpt>
      <trkpt lat="48.70574" lon="5.47011">
        <ele>331.7</ele>
        <time>2020-06-29T19:10:22Z</time>
      </trkpt>
      <trkpt lat="48.70573" lon="5.47006">
        <ele>331.7</ele>
        <time>2020-06-29T19:10:23Z</time>
      </trkpt>
      <trkpt lat="48.70572" lon="5.47">
        <ele>331.7</ele>
        <time>2020-06-29T19:10:24Z</time>
      </trkpt>
      <trkpt lat="48.70572" lon="5.46994">
        <ele>331.7</ele>
        <time>2020-06-29T19:10:25Z</time>
      </trkpt>
      <trkpt lat="48.70571" lon="5.46988">
        <ele>331.8</ele>
        <time>2020-06-29T19:10:26Z</time>
      </trkpt>
      <trkpt lat="48.70571" lon="5.46983">
        <ele>331.8</ele>
        <time>2020-06-29T19:10:27Z</time>
      </trkpt>
      <trkpt lat="48.7057" lon="5.46977">
        <ele>331.8</ele>
        <time>2020-06-29T19:10:28Z</time>
      </trkpt>
      <trkpt lat="48.7057" lon="5.46971">
        <ele>331.8</ele>
        <time>2020-06-29T19:10:29Z</time>
      </trkpt>
      <trkpt lat="48.70569" lon="5.46966">
        <ele>331.9</ele>
        <time>2020-06-29T19:10:30Z</time>
      </trkpt>
      <trkpt lat="48.70569" lon="5.46962">
        <ele>331.9</ele>
        <time>2020-06-29T19:10:31Z</time>
      </trkpt>
      <trkpt lat="48.70568" lon="5.46956">
        <ele>332.1</ele>
        <time>2020-06-29T19:10:32Z</time>
      </trkpt>
      <trkpt lat="48.70568" lon="5.46954">
        <ele>332.1</ele>
        <time>2020-06-29T19:10:33Z</time>
      </trkpt>
      <trkpt lat="48.70568" lon="5.46949">
        <ele>332.3</ele>
        <time>2020-06-29T19:10:34Z</time>
      </trkpt>
      <trkpt lat="48.70568" lon="5.46943">
        <ele>332.5</ele>
        <time>2020-06-29T19:10:35Z</time>
      </trkpt>
      <trkpt lat="48.70568" lon="5.4694">
        <ele>332.6</ele>
        <time>2020-06-29T19:10:36Z</time>
      </trkpt>
      <trkpt lat="48.70568" lon="5.46935">
        <ele>332.7</ele>
        <time>2020-06-29T19:10:37Z</time>
      </trkpt>
      <trkpt lat="48.70568" lon="5.46933">
        <ele>332.8</ele>
        <time>2020-06-29T19:10:38Z</time>
      </trkpt>
      <trkpt lat="48.70568" lon="5.46927">
        <ele>332.9</ele>
        <time>2020-06-29T19:10:39Z</time>
      </trkpt>
      <trkpt lat="48.70569" lon="5.46926">
        <ele>332.9</ele>
        <time>2020-06-29T19:10:40Z</time>
      </trkpt>
      <trkpt lat="48.70569" lon="5.46921">
        <ele>333</ele>
        <time>2020-06-29T19:10:41Z</time>
      </trkpt>
      <trkpt lat="48.70569" lon="5.46916">
        <ele>333.1</ele>
        <time>2020-06-29T19:10:42Z</time>
      </trkpt>
      <trkpt lat="48.70568" lon="5.46911">
        <ele>333.1</ele>
        <time>2020-06-29T19:10:43Z</time>
      </trkpt>
      <trkpt lat="48.70567" lon="5.46907">
        <ele>333.2</ele>
        <time>2020-06-29T19:10:44Z</time>
      </trkpt>
      <trkpt lat="48.70568" lon="5.46901">
        <ele>333.3</ele>
        <time>2020-06-29T19:10:45Z</time>
      </trkpt>
      <trkpt lat="48.70568" lon="5.46899">
        <ele>333.4</ele>
        <time>2020-06-29T19:10:46Z</time>
      </trkpt>
      <trkpt lat="48.70569" lon="5.46897">
        <ele>333.4</ele>
        <time>2020-06-29T19:10:47Z</time>
      </trkpt>
      <trkpt lat="48.70569" lon="5.46895">
        <ele>333.4</ele>
        <time>2020-06-29T19:10:48Z</time>
      </trkpt>
      <trkpt lat="48.7057" lon="5.4689">
        <ele>333.5</ele>
        <time>2020-06-29T19:10:49Z</time>
      </trkpt>
      <trkpt lat="48.7057" lon="5.46888">
        <ele>333.5</ele>
        <time>2020-06-29T19:10:50Z</time>
      </trkpt>
      <trkpt lat="48.7057" lon="5.46882">
        <ele>333.6</ele>
        <time>2020-06-29T19:10:51Z</time>
      </trkpt>
      <trkpt lat="48.7057" lon="5.46881">
        <ele>333.6</ele>
        <time>2020-06-29T19:10:52Z</time>
      </trkpt>
      <trkpt lat="48.7057" lon="5.46876">
        <ele>333.7</ele>
        <time>2020-06-29T19:10:53Z</time>
      </trkpt>
      <trkpt lat="48.7057" lon="5.46874">
        <ele>333.8</ele>
        <time>2020-06-29T19:10:54Z</time>
      </trkpt>
      <trkpt lat="48.7057" lon="5.46869">
        <ele>333.8</ele>
        <time>2020-06-29T19:10:55Z</time>
      </trkpt>
      <trkpt lat="48.7057" lon="5.46864">
        <ele>333.9</ele>
        <time>2020-06-29T19:10:56Z</time>
      </trkpt>
      <trkpt lat="48.70569" lon="5.46859">
        <ele>334</ele>
        <time>2020-06-29T19:10:57Z</time>
      </trkpt>
      <trkpt lat="48.7057" lon="5.46854">
        <ele>334.1</ele>
        <time>2020-06-29T19:10:58Z</time>
      </trkpt>
      <trkpt lat="48.7057" lon="5.46849">
        <ele>334.1</ele>
        <time>2020-06-29T19:10:59Z</time>
      </trkpt>
      <trkpt lat="48.7057" lon="5.46845">
        <ele>334.1</ele>
        <time>2020-06-29T19:11:00Z</time>
      </trkpt>
      <trkpt lat="48.7057" lon="5.4684">
        <ele>334.1</ele>
        <time>2020-06-29T19:11:01Z</time>
      </trkpt>
      <trkpt lat="48.7057" lon="5.46835">
        <ele>334.1</ele>
        <time>2020-06-29T19:11:02Z</time>
      </trkpt>
      <trkpt lat="48.7057" lon="5.4683">
        <ele>334.1</ele>
        <time>2020-06-29T19:11:03Z</time>
      </trkpt>
      <trkpt lat="48.7057" lon="5.46825">
        <ele>334.1</ele>
        <time>2020-06-29T19:11:04Z</time>
      </trkpt>
      <trkpt lat="48.70569" lon="5.4682">
        <ele>334</ele>
        <time>2020-06-29T19:11:05Z</time>
      </trkpt>
      <trkpt lat="48.70569" lon="5.46818">
        <ele>334</ele>
        <time>2020-06-29T19:11:06Z</time>
      </trkpt>
      <trkpt lat="48.70569" lon="5.46812">
        <ele>334</ele>
        <time>2020-06-29T19:11:07Z</time>
      </trkpt>
      <trkpt lat="48.70569" lon="5.4681">
        <ele>334</ele>
        <time>2020-06-29T19:11:08Z</time>
      </trkpt>
      <trkpt lat="48.70568" lon="5.46805">
        <ele>334</ele>
        <time>2020-06-29T19:11:09Z</time>
      </trkpt>
      <trkpt lat="48.70568" lon="5.46803">
        <ele>334</ele>
        <time>2020-06-29T19:11:10Z</time>
      </trkpt>
      <trkpt lat="48.70568" lon="5.46799">
        <ele>334</ele>
        <time>2020-06-29T19:11:11Z</time>
      </trkpt>
      <trkpt lat="48.70568" lon="5.46797">
        <ele>334</ele>
        <time>2020-06-29T19:11:12Z</time>
      </trkpt>
      <trkpt lat="48.70568" lon="5.46792">
        <ele>334</ele>
        <time>2020-06-29T19:11:13Z</time>
      </trkpt>
      <trkpt lat="48.70569" lon="5.4679">
        <ele>334</ele>
        <time>2020-06-29T19:11:14Z</time>
      </trkpt>
      <trkpt lat="48.70569" lon="5.46786">
        <ele>334</ele>
        <time>2020-06-29T19:11:15Z</time>
      </trkpt>
      <trkpt lat="48.70568" lon="5.46781">
        <ele>334</ele>
        <time>2020-06-29T19:11:16Z</time>
      </trkpt>
      <trkpt lat="48.70568" lon="5.46776">
        <ele>334.1</ele>
        <time>2020-06-29T19:11:17Z</time>
      </trkpt>
      <trkpt lat="48.70567" lon="5.46774">
        <ele>334.1</ele>
        <time>2020-06-29T19:11:18Z</time>
      </trkpt>
      <trkpt lat="48.70567" lon="5.46768">
        <ele>334.1</ele>
        <time>2020-06-29T19:11:19Z</time>
      </trkpt>
      <trkpt lat="48.70567" lon="5.46765">
        <ele>334.1</ele>
        <time>2020-06-29T19:11:20Z</time>
      </trkpt>
      <trkpt lat="48.70567" lon="5.46761">
        <ele>334.1</ele>
        <time>2020-06-29T19:11:21Z</time>
      </trkpt>
      <trkpt lat="48.70567" lon="5.46759">
        <ele>334.1</ele>
        <time>2020-06-29T19:11:22Z</time>
      </trkpt>
      <trkpt lat="48.70567" lon="5.46754">
        <ele>334</ele>
        <time>2020-06-29T19:11:23Z</time>
      </trkpt>
      <trkpt lat="48.70567" lon="5.46753">
        <ele>334</ele>
        <time>2020-06-29T19:11:24Z</time>
      </trkpt>
      <trkpt lat="48.70567" lon="5.46747">
        <ele>333.9</ele>
        <time>2020-06-29T19:11:25Z</time>
      </trkpt>
      <trkpt lat="48.70567" lon="5.46745">
        <ele>333.9</ele>
        <time>2020-06-29T19:11:26Z</time>
      </trkpt>
      <trkpt lat="48.70566" lon="5.46741">
        <ele>333.8</ele>
        <time>2020-06-29T19:11:27Z</time>
      </trkpt>
      <trkpt lat="48.70567" lon="5.46736">
        <ele>333.7</ele>
        <time>2020-06-29T19:11:28Z</time>
      </trkpt>
      <trkpt lat="48.70566" lon="5.46732">
        <ele>333.6</ele>
        <time>2020-06-29T19:11:29Z</time>
      </trkpt>
      <trkpt lat="48.70566" lon="5.46726">
        <ele>333.4</ele>
        <time>2020-06-29T19:11:30Z</time>
      </trkpt>
      <trkpt lat="48.70566" lon="5.46722">
        <ele>333.4</ele>
        <time>2020-06-29T19:11:31Z</time>
      </trkpt>
      <trkpt lat="48.70567" lon="5.46716">
        <ele>333.3</ele>
        <time>2020-06-29T19:11:32Z</time>
      </trkpt>
      <trkpt lat="48.70567" lon="5.46713">
        <ele>333.3</ele>
        <time>2020-06-29T19:11:33Z</time>
      </trkpt>
      <trkpt lat="48.70567" lon="5.46709">
        <ele>333.3</ele>
        <time>2020-06-29T19:11:34Z</time>
      </trkpt>
      <trkpt lat="48.70567" lon="5.46704">
        <ele>333.3</ele>
        <time>2020-06-29T19:11:35Z</time>
      </trkpt>
      <trkpt lat="48.70566" lon="5.467">
        <ele>333.3</ele>
        <time>2020-06-29T19:11:36Z</time>
      </trkpt>
      <trkpt lat="48.70565" lon="5.46693">
        <ele>333.2</ele>
        <time>2020-06-29T19:11:37Z</time>
      </trkpt>
      <trkpt lat="48.70565" lon="5.46687">
        <ele>333.1</ele>
        <time>2020-06-29T19:11:38Z</time>
      </trkpt>
      <trkpt lat="48.70565" lon="5.46681">
        <ele>333.1</ele>
        <time>2020-06-29T19:11:39Z</time>
      </trkpt>
      <trkpt lat="48.70566" lon="5.46674">
        <ele>333.1</ele>
        <time>2020-06-29T19:11:40Z</time>
      </trkpt>
      <trkpt lat="48.70566" lon="5.46667">
        <ele>333.1</ele>
        <time>2020-06-29T19:11:41Z</time>
      </trkpt>
      <trkpt lat="48.70566" lon="5.4666">
        <ele>333.1</ele>
        <time>2020-06-29T19:11:42Z</time>
      </trkpt>
      <trkpt lat="48.70565" lon="5.46653">
        <ele>333.1</ele>
        <time>2020-06-29T19:11:43Z</time>
      </trkpt>
      <trkpt lat="48.70565" lon="5.46645">
        <ele>333.1</ele>
        <time>2020-06-29T19:11:44Z</time>
      </trkpt>
      <trkpt lat="48.70565" lon="5.46637">
        <ele>333.1</ele>
        <time>2020-06-29T19:11:45Z</time>
      </trkpt>
      <trkpt lat="48.70564" lon="5.46628">
        <ele>333.1</ele>
        <time>2020-06-29T19:11:46Z</time>
      </trkpt>
      <trkpt lat="48.70564" lon="5.46619">
        <ele>333.1</ele>
        <time>2020-06-29T19:11:47Z</time>
      </trkpt>
      <trkpt lat="48.70564" lon="5.46611">
        <ele>333.1</ele>
        <time>2020-06-29T19:11:48Z</time>
      </trkpt>
      <trkpt lat="48.70565" lon="5.46604">
        <ele>333.1</ele>
        <time>2020-06-29T19:11:49Z</time>
      </trkpt>
      <trkpt lat="48.70568" lon="5.46597">
        <ele>333</ele>
        <time>2020-06-29T19:11:50Z</time>
      </trkpt>
      <trkpt lat="48.70571" lon="5.4659">
        <ele>333</ele>
        <time>2020-06-29T19:11:51Z</time>
      </trkpt>
      <trkpt lat="48.70574" lon="5.46583">
        <ele>333</ele>
        <time>2020-06-29T19:11:52Z</time>
      </trkpt>
      <trkpt lat="48.70578" lon="5.46577">
        <ele>333</ele>
        <time>2020-06-29T19:11:53Z</time>
      </trkpt>
      <trkpt lat="48.70582" lon="5.46571">
        <ele>332.9</ele>
        <time>2020-06-29T19:11:54Z</time>
      </trkpt>
      <trkpt lat="48.70586" lon="5.46566">
        <ele>332.8</ele>
        <time>2020-06-29T19:11:55Z</time>
      </trkpt>
      <trkpt lat="48.70589" lon="5.46561">
        <ele>332.6</ele>
        <time>2020-06-29T19:11:56Z</time>
      </trkpt>
      <trkpt lat="48.70593" lon="5.46557">
        <ele>332.6</ele>
        <time>2020-06-29T19:11:57Z</time>
      </trkpt>
      <trkpt lat="48.70597" lon="5.46551">
        <ele>332.5</ele>
        <time>2020-06-29T19:11:58Z</time>
      </trkpt>
      <trkpt lat="48.70602" lon="5.46549">
        <ele>332.5</ele>
        <time>2020-06-29T19:11:59Z</time>
      </trkpt>
      <trkpt lat="48.70607" lon="5.46548">
        <ele>332.6</ele>
        <time>2020-06-29T19:12:00Z</time>
      </trkpt>
      <trkpt lat="48.70613" lon="5.4655">
        <ele>332.7</ele>
        <time>2020-06-29T19:12:01Z</time>
      </trkpt>
      <trkpt lat="48.70618" lon="5.46554">
        <ele>332.8</ele>
        <time>2020-06-29T19:12:02Z</time>
      </trkpt>
      <trkpt lat="48.70623" lon="5.46558">
        <ele>332.8</ele>
        <time>2020-06-29T19:12:03Z</time>
      </trkpt>
      <trkpt lat="48.70627" lon="5.46563">
        <ele>332.9</ele>
        <time>2020-06-29T19:12:04Z</time>
      </trkpt>
      <trkpt lat="48.7063" lon="5.46568">
        <ele>333</ele>
        <time>2020-06-29T19:12:05Z</time>
      </trkpt>
      <trkpt lat="48.70634" lon="5.46573">
        <ele>333.1</ele>
        <time>2020-06-29T19:12:06Z</time>
      </trkpt>
      <trkpt lat="48.70637" lon="5.46578">
        <ele>333.1</ele>
        <time>2020-06-29T19:12:07Z</time>
      </trkpt>
      <trkpt lat="48.7064" lon="5.46584">
        <ele>333.1</ele>
        <time>2020-06-29T19:12:08Z</time>
      </trkpt>
      <trkpt lat="48.70643" lon="5.46589">
        <ele>333.1</ele>
        <time>2020-06-29T19:12:09Z</time>
      </trkpt>
      <trkpt lat="48.70646" lon="5.46592">
        <ele>333.1</ele>
        <time>2020-06-29T19:12:10Z</time>
      </trkpt>
      <trkpt lat="48.7065" lon="5.46594">
        <ele>333.1</ele>
        <time>2020-06-29T19:12:11Z</time>
      </trkpt>
      <trkpt lat="48.70652" lon="5.46594">
        <ele>333.1</ele>
        <time>2020-06-29T19:12:12Z</time>
      </trkpt>
      <trkpt lat="48.70655" lon="5.46593">
        <ele>333.1</ele>
        <time>2020-06-29T19:12:13Z</time>
      </trkpt>
      <trkpt lat="48.70657" lon="5.46591">
        <ele>333</ele>
        <time>2020-06-29T19:12:14Z</time>
      </trkpt>
      <trkpt lat="48.70658" lon="5.46586">
        <ele>332.7</ele>
        <time>2020-06-29T19:12:15Z</time>
      </trkpt>
      <trkpt lat="48.70658" lon="5.46585">
        <ele>332.6</ele>
        <time>2020-06-29T19:12:16Z</time>
      </trkpt>
      <trkpt lat="48.70658" lon="5.46583">
        <ele>332.5</ele>
        <time>2020-06-29T19:12:17Z</time>
      </trkpt>
      <trkpt lat="48.70659" lon="5.4658">
        <ele>332.4</ele>
        <time>2020-06-29T19:12:18Z</time>
      </trkpt>
      <trkpt lat="48.7066" lon="5.46576">
        <ele>332.3</ele>
        <time>2020-06-29T19:12:19Z</time>
      </trkpt>
      <trkpt lat="48.70661" lon="5.46574">
        <ele>332.2</ele>
        <time>2020-06-29T19:12:20Z</time>
      </trkpt>
      <trkpt lat="48.70662" lon="5.4657">
        <ele>332</ele>
        <time>2020-06-29T19:12:21Z</time>
      </trkpt>
      <trkpt lat="48.70662" lon="5.46568">
        <ele>332</ele>
        <time>2020-06-29T19:12:22Z</time>
      </trkpt>
      <trkpt lat="48.70663" lon="5.46563">
        <ele>331.8</ele>
        <time>2020-06-29T19:12:23Z</time>
      </trkpt>
      <trkpt lat="48.70663" lon="5.4656">
        <ele>331.7</ele>
        <time>2020-06-29T19:12:24Z</time>
      </trkpt>
      <trkpt lat="48.70663" lon="5.46554">
        <ele>331.5</ele>
        <time>2020-06-29T19:12:25Z</time>
      </trkpt>
      <trkpt lat="48.70662" lon="5.46548">
        <ele>331.2</ele>
        <time>2020-06-29T19:12:26Z</time>
      </trkpt>
      <trkpt lat="48.70661" lon="5.46542">
        <ele>330.9</ele>
        <time>2020-06-29T19:12:27Z</time>
      </trkpt>
      <trkpt lat="48.70659" lon="5.46535">
        <ele>330.6</ele>
        <time>2020-06-29T19:12:28Z</time>
      </trkpt>
      <trkpt lat="48.70656" lon="5.46529">
        <ele>330.4</ele>
        <time>2020-06-29T19:12:29Z</time>
      </trkpt>
      <trkpt lat="48.70654" lon="5.46523">
        <ele>330.3</ele>
        <time>2020-06-29T19:12:30Z</time>
      </trkpt>
      <trkpt lat="48.70652" lon="5.46518">
        <ele>330.3</ele>
        <time>2020-06-29T19:12:31Z</time>
      </trkpt>
      <trkpt lat="48.7065" lon="5.46512">
        <ele>330.2</ele>
        <time>2020-06-29T19:12:32Z</time>
      </trkpt>
      <trkpt lat="48.70648" lon="5.46507">
        <ele>330.2</ele>
        <time>2020-06-29T19:12:33Z</time>
      </trkpt>
      <trkpt lat="48.70645" lon="5.46502">
        <ele>330.2</ele>
        <time>2020-06-29T19:12:34Z</time>
      </trkpt>
      <trkpt lat="48.70643" lon="5.46499">
        <ele>330.2</ele>
        <time>2020-06-29T19:12:35Z</time>
      </trkpt>
      <trkpt lat="48.7064" lon="5.46496">
        <ele>330.2</ele>
        <time>2020-06-29T19:12:36Z</time>
      </trkpt>
      <trkpt lat="48.70638" lon="5.46493">
        <ele>330.3</ele>
        <time>2020-06-29T19:12:37Z</time>
      </trkpt>
      <trkpt lat="48.70635" lon="5.46489">
        <ele>330.3</ele>
        <time>2020-06-29T19:12:38Z</time>
      </trkpt>
      <trkpt lat="48.70633" lon="5.46487">
        <ele>330.3</ele>
        <time>2020-06-29T19:12:39Z</time>
      </trkpt>
      <trkpt lat="48.70631" lon="5.46484">
        <ele>330.4</ele>
        <time>2020-06-29T19:12:40Z</time>
      </trkpt>
      <trkpt lat="48.70631" lon="5.46482">
        <ele>330.4</ele>
        <time>2020-06-29T19:12:41Z</time>
      </trkpt>
      <trkpt lat="48.70629" lon="5.46478">
        <ele>330.4</ele>
        <time>2020-06-29T19:12:42Z</time>
      </trkpt>
      <trkpt lat="48.70627" lon="5.46474">
        <ele>330.5</ele>
        <time>2020-06-29T19:12:43Z</time>
      </trkpt>
      <trkpt lat="48.70624" lon="5.46469">
        <ele>330.6</ele>
        <time>2020-06-29T19:12:44Z</time>
      </trkpt>
      <trkpt lat="48.70622" lon="5.46464">
        <ele>330.6</ele>
        <time>2020-06-29T19:12:45Z</time>
      </trkpt>
      <trkpt lat="48.7062" lon="5.46459">
        <ele>330.6</ele>
        <time>2020-06-29T19:12:46Z</time>
      </trkpt>
      <trkpt lat="48.70618" lon="5.46455">
        <ele>330.7</ele>
        <time>2020-06-29T19:12:47Z</time>
      </trkpt>
      <trkpt lat="48.70615" lon="5.46451">
        <ele>330.7</ele>
        <time>2020-06-29T19:12:48Z</time>
      </trkpt>
      <trkpt lat="48.70613" lon="5.46446">
        <ele>330.7</ele>
        <time>2020-06-29T19:12:49Z</time>
      </trkpt>
      <trkpt lat="48.7061" lon="5.46441">
        <ele>330.7</ele>
        <time>2020-06-29T19:12:50Z</time>
      </trkpt>
      <trkpt lat="48.70607" lon="5.46435">
        <ele>330.8</ele>
        <time>2020-06-29T19:12:51Z</time>
      </trkpt>
      <trkpt lat="48.70605" lon="5.46429">
        <ele>330.8</ele>
        <time>2020-06-29T19:12:52Z</time>
      </trkpt>
      <trkpt lat="48.70602" lon="5.46424">
        <ele>330.9</ele>
        <time>2020-06-29T19:12:53Z</time>
      </trkpt>
      <trkpt lat="48.706" lon="5.46419">
        <ele>330.9</ele>
        <time>2020-06-29T19:12:54Z</time>
      </trkpt>
      <trkpt lat="48.70598" lon="5.46414">
        <ele>331</ele>
        <time>2020-06-29T19:12:55Z</time>
      </trkpt>
      <trkpt lat="48.70596" lon="5.46409">
        <ele>331.1</ele>
        <time>2020-06-29T19:12:56Z</time>
      </trkpt>
      <trkpt lat="48.70594" lon="5.46404">
        <ele>331.1</ele>
        <time>2020-06-29T19:12:57Z</time>
      </trkpt>
      <trkpt lat="48.70591" lon="5.46398">
        <ele>331.2</ele>
        <time>2020-06-29T19:12:58Z</time>
      </trkpt>
      <trkpt lat="48.70589" lon="5.46393">
        <ele>331.2</ele>
        <time>2020-06-29T19:12:59Z</time>
      </trkpt>
      <trkpt lat="48.70587" lon="5.46388">
        <ele>331.3</ele>
        <time>2020-06-29T19:13:00Z</time>
      </trkpt>
      <trkpt lat="48.70585" lon="5.46382">
        <ele>331.4</ele>
        <time>2020-06-29T19:13:01Z</time>
      </trkpt>
      <trkpt lat="48.70583" lon="5.46376">
        <ele>331.5</ele>
        <time>2020-06-29T19:13:02Z</time>
      </trkpt>
      <trkpt lat="48.70581" lon="5.4637">
        <ele>331.6</ele>
        <time>2020-06-29T19:13:03Z</time>
      </trkpt>
      <trkpt lat="48.7058" lon="5.46364">
        <ele>331.8</ele>
        <time>2020-06-29T19:13:04Z</time>
      </trkpt>
      <trkpt lat="48.70579" lon="5.46358">
        <ele>331.9</ele>
        <time>2020-06-29T19:13:05Z</time>
      </trkpt>
      <trkpt lat="48.70578" lon="5.46352">
        <ele>332.1</ele>
        <time>2020-06-29T19:13:06Z</time>
      </trkpt>
      <trkpt lat="48.70576" lon="5.46347">
        <ele>332.2</ele>
        <time>2020-06-29T19:13:07Z</time>
      </trkpt>
      <trkpt lat="48.70576" lon="5.46341">
        <ele>332.4</ele>
        <time>2020-06-29T19:13:08Z</time>
      </trkpt>
      <trkpt lat="48.70574" lon="5.46335">
        <ele>332.4</ele>
        <time>2020-06-29T19:13:09Z</time>
      </trkpt>
      <trkpt lat="48.70573" lon="5.4633">
        <ele>332.5</ele>
        <time>2020-06-29T19:13:10Z</time>
      </trkpt>
      <trkpt lat="48.70571" lon="5.46325">
        <ele>332.5</ele>
        <time>2020-06-29T19:13:11Z</time>
      </trkpt>
      <trkpt lat="48.7057" lon="5.4632">
        <ele>332.5</ele>
        <time>2020-06-29T19:13:12Z</time>
      </trkpt>
      <trkpt lat="48.70569" lon="5.46314">
        <ele>332.6</ele>
        <time>2020-06-29T19:13:13Z</time>
      </trkpt>
      <trkpt lat="48.70568" lon="5.46308">
        <ele>332.6</ele>
        <time>2020-06-29T19:13:14Z</time>
      </trkpt>
      <trkpt lat="48.70568" lon="5.46302">
        <ele>332.7</ele>
        <time>2020-06-29T19:13:15Z</time>
      </trkpt>
      <trkpt lat="48.70568" lon="5.46297">
        <ele>332.8</ele>
        <time>2020-06-29T19:13:16Z</time>
      </trkpt>
      <trkpt lat="48.70566" lon="5.46292">
        <ele>332.8</ele>
        <time>2020-06-29T19:13:17Z</time>
      </trkpt>
      <trkpt lat="48.70566" lon="5.46287">
        <ele>332.9</ele>
        <time>2020-06-29T19:13:18Z</time>
      </trkpt>
      <trkpt lat="48.70565" lon="5.46281">
        <ele>333</ele>
        <time>2020-06-29T19:13:19Z</time>
      </trkpt>
      <trkpt lat="48.70565" lon="5.46276">
        <ele>333.1</ele>
        <time>2020-06-29T19:13:20Z</time>
      </trkpt>
      <trkpt lat="48.70565" lon="5.46271">
        <ele>333.2</ele>
        <time>2020-06-29T19:13:21Z</time>
      </trkpt>
      <trkpt lat="48.70565" lon="5.46265">
        <ele>333.2</ele>
        <time>2020-06-29T19:13:22Z</time>
      </trkpt>
      <trkpt lat="48.70565" lon="5.4626">
        <ele>333.3</ele>
        <time>2020-06-29T19:13:23Z</time>
      </trkpt>
      <trkpt lat="48.70565" lon="5.46255">
        <ele>333.3</ele>
        <time>2020-06-29T19:13:24Z</time>
      </trkpt>
      <trkpt lat="48.70564" lon="5.46249">
        <ele>333.4</ele>
        <time>2020-06-29T19:13:25Z</time>
      </trkpt>
      <trkpt lat="48.70564" lon="5.46243">
        <ele>333.4</ele>
        <time>2020-06-29T19:13:26Z</time>
      </trkpt>
      <trkpt lat="48.70564" lon="5.46237">
        <ele>333.4</ele>
        <time>2020-06-29T19:13:27Z</time>
      </trkpt>
      <trkpt lat="48.70564" lon="5.46232">
        <ele>333.4</ele>
        <time>2020-06-29T19:13:28Z</time>
      </trkpt>
      <trkpt lat="48.70563" lon="5.46226">
        <ele>333.4</ele>
        <time>2020-06-29T19:13:29Z</time>
      </trkpt>
      <trkpt lat="48.70563" lon="5.4622">
        <ele>333.4</ele>
        <time>2020-06-29T19:13:30Z</time>
      </trkpt>
      <trkpt lat="48.70563" lon="5.46214">
        <ele>333.4</ele>
        <time>2020-06-29T19:13:31Z</time>
      </trkpt>
      <trkpt lat="48.70563" lon="5.46208">
        <ele>333.4</ele>
        <time>2020-06-29T19:13:32Z</time>
      </trkpt>
      <trkpt lat="48.70564" lon="5.46201">
        <ele>333.4</ele>
        <time>2020-06-29T19:13:33Z</time>
      </trkpt>
      <trkpt lat="48.70564" lon="5.46194">
        <ele>333.4</ele>
        <time>2020-06-29T19:13:34Z</time>
      </trkpt>
      <trkpt lat="48.70564" lon="5.46188">
        <ele>333.4</ele>
        <time>2020-06-29T19:13:35Z</time>
      </trkpt>
      <trkpt lat="48.70564" lon="5.46181">
        <ele>333.4</ele>
        <time>2020-06-29T19:13:36Z</time>
      </trkpt>
      <trkpt lat="48.70564" lon="5.46175">
        <ele>333.4</ele>
        <time>2020-06-29T19:13:37Z</time>
      </trkpt>
      <trkpt lat="48.70564" lon="5.46167">
        <ele>333.4</ele>
        <time>2020-06-29T19:13:38Z</time>
      </trkpt>
      <trkpt lat="48.70564" lon="5.4616">
        <ele>333.4</ele>
        <time>2020-06-29T19:13:39Z</time>
      </trkpt>
      <trkpt lat="48.70564" lon="5.46153">
        <ele>333.3</ele>
        <time>2020-06-29T19:13:40Z</time>
      </trkpt>
      <trkpt lat="48.70563" lon="5.46147">
        <ele>333.3</ele>
        <time>2020-06-29T19:13:41Z</time>
      </trkpt>
      <trkpt lat="48.70563" lon="5.46141">
        <ele>333.3</ele>
        <time>2020-06-29T19:13:42Z</time>
      </trkpt>
      <trkpt lat="48.70562" lon="5.46135">
        <ele>333.3</ele>
        <time>2020-06-29T19:13:43Z</time>
      </trkpt>
      <trkpt lat="48.70562" lon="5.46129">
        <ele>333.3</ele>
        <time>2020-06-29T19:13:44Z</time>
      </trkpt>
      <trkpt lat="48.70561" lon="5.46123">
        <ele>333.3</ele>
        <time>2020-06-29T19:13:45Z</time>
      </trkpt>
      <trkpt lat="48.7056" lon="5.46116">
        <ele>333.3</ele>
        <time>2020-06-29T19:13:46Z</time>
      </trkpt>
      <trkpt lat="48.70559" lon="5.46109">
        <ele>333.3</ele>
        <time>2020-06-29T19:13:47Z</time>
      </trkpt>
      <trkpt lat="48.70559" lon="5.46103">
        <ele>333.2</ele>
        <time>2020-06-29T19:13:48Z</time>
      </trkpt>
      <trkpt lat="48.70558" lon="5.46096">
        <ele>333.2</ele>
        <time>2020-06-29T19:13:49Z</time>
      </trkpt>
      <trkpt lat="48.70559" lon="5.46088">
        <ele>333.2</ele>
        <time>2020-06-29T19:13:50Z</time>
      </trkpt>
      <trkpt lat="48.7056" lon="5.4608">
        <ele>333.1</ele>
        <time>2020-06-29T19:13:51Z</time>
      </trkpt>
      <trkpt lat="48.70559" lon="5.46073">
        <ele>333</ele>
        <time>2020-06-29T19:13:52Z</time>
      </trkpt>
      <trkpt lat="48.7056" lon="5.46064">
        <ele>332.9</ele>
        <time>2020-06-29T19:13:53Z</time>
      </trkpt>
      <trkpt lat="48.70559" lon="5.46057">
        <ele>332.8</ele>
        <time>2020-06-29T19:13:54Z</time>
      </trkpt>
      <trkpt lat="48.70559" lon="5.46049">
        <ele>332.7</ele>
        <time>2020-06-29T19:13:55Z</time>
      </trkpt>
      <trkpt lat="48.70559" lon="5.46042">
        <ele>332.6</ele>
        <time>2020-06-29T19:13:56Z</time>
      </trkpt>
      <trkpt lat="48.70559" lon="5.46034">
        <ele>332.6</ele>
        <time>2020-06-29T19:13:57Z</time>
      </trkpt>
      <trkpt lat="48.70559" lon="5.46027">
        <ele>332.5</ele>
        <time>2020-06-29T19:13:58Z</time>
      </trkpt>
      <trkpt lat="48.70559" lon="5.46018">
        <ele>332.4</ele>
        <time>2020-06-29T19:13:59Z</time>
      </trkpt>
      <trkpt lat="48.70559" lon="5.46009">
        <ele>332.3</ele>
        <time>2020-06-29T19:14:00Z</time>
      </trkpt>
      <trkpt lat="48.70559" lon="5.46001">
        <ele>332.3</ele>
        <time>2020-06-29T19:14:01Z</time>
      </trkpt>
      <trkpt lat="48.70558" lon="5.45993">
        <ele>332.3</ele>
        <time>2020-06-29T19:14:02Z</time>
      </trkpt>
      <trkpt lat="48.70557" lon="5.45985">
        <ele>332.3</ele>
        <time>2020-06-29T19:14:03Z</time>
      </trkpt>
      <trkpt lat="48.70557" lon="5.45978">
        <ele>332.3</ele>
        <time>2020-06-29T19:14:04Z</time>
      </trkpt>
      <trkpt lat="48.70557" lon="5.4597">
        <ele>332.4</ele>
        <time>2020-06-29T19:14:05Z</time>
      </trkpt>
      <trkpt lat="48.70558" lon="5.45962">
        <ele>332.4</ele>
        <time>2020-06-29T19:14:06Z</time>
      </trkpt>
      <trkpt lat="48.70556" lon="5.45954">
        <ele>332.4</ele>
        <time>2020-06-29T19:14:07Z</time>
      </trkpt>
      <trkpt lat="48.70556" lon="5.45945">
        <ele>332.4</ele>
        <time>2020-06-29T19:14:08Z</time>
      </trkpt>
      <trkpt lat="48.70555" lon="5.45938">
        <ele>332.4</ele>
        <time>2020-06-29T19:14:09Z</time>
      </trkpt>
      <trkpt lat="48.70555" lon="5.4593">
        <ele>332.5</ele>
        <time>2020-06-29T19:14:10Z</time>
      </trkpt>
      <trkpt lat="48.70555" lon="5.45922">
        <ele>332.5</ele>
        <time>2020-06-29T19:14:11Z</time>
      </trkpt>
      <trkpt lat="48.70554" lon="5.45913">
        <ele>332.5</ele>
        <time>2020-06-29T19:14:12Z</time>
      </trkpt>
      <trkpt lat="48.70554" lon="5.45905">
        <ele>332.5</ele>
        <time>2020-06-29T19:14:13Z</time>
      </trkpt>
      <trkpt lat="48.70554" lon="5.45897">
        <ele>332.5</ele>
        <time>2020-06-29T19:14:14Z</time>
      </trkpt>
      <trkpt lat="48.70554" lon="5.45889">
        <ele>332.5</ele>
        <time>2020-06-29T19:14:15Z</time>
      </trkpt>
      <trkpt lat="48.70553" lon="5.45882">
        <ele>332.5</ele>
        <time>2020-06-29T19:14:16Z</time>
      </trkpt>
      <trkpt lat="48.70554" lon="5.45874">
        <ele>332.4</ele>
        <time>2020-06-29T19:14:17Z</time>
      </trkpt>
      <trkpt lat="48.70554" lon="5.45866">
        <ele>332.4</ele>
        <time>2020-06-29T19:14:18Z</time>
      </trkpt>
      <trkpt lat="48.70555" lon="5.45858">
        <ele>332.4</ele>
        <time>2020-06-29T19:14:19Z</time>
      </trkpt>
      <trkpt lat="48.70555" lon="5.45851">
        <ele>332.4</ele>
        <time>2020-06-29T19:14:20Z</time>
      </trkpt>
      <trkpt lat="48.70555" lon="5.45843">
        <ele>332.3</ele>
        <time>2020-06-29T19:14:21Z</time>
      </trkpt>
      <trkpt lat="48.70555" lon="5.45834">
        <ele>332.2</ele>
        <time>2020-06-29T19:14:22Z</time>
      </trkpt>
      <trkpt lat="48.70554" lon="5.45826">
        <ele>332</ele>
        <time>2020-06-29T19:14:23Z</time>
      </trkpt>
      <trkpt lat="48.70553" lon="5.45817">
        <ele>331.8</ele>
        <time>2020-06-29T19:14:24Z</time>
      </trkpt>
      <trkpt lat="48.70552" lon="5.45809">
        <ele>331.7</ele>
        <time>2020-06-29T19:14:25Z</time>
      </trkpt>
      <trkpt lat="48.70552" lon="5.458">
        <ele>331.6</ele>
        <time>2020-06-29T19:14:26Z</time>
      </trkpt>
      <trkpt lat="48.70552" lon="5.45791">
        <ele>331.6</ele>
        <time>2020-06-29T19:14:27Z</time>
      </trkpt>
      <trkpt lat="48.70552" lon="5.45782">
        <ele>331.6</ele>
        <time>2020-06-29T19:14:28Z</time>
      </trkpt>
      <trkpt lat="48.70551" lon="5.45773">
        <ele>331.6</ele>
        <time>2020-06-29T19:14:29Z</time>
      </trkpt>
      <trkpt lat="48.70551" lon="5.45765">
        <ele>331.7</ele>
        <time>2020-06-29T19:14:30Z</time>
      </trkpt>
      <trkpt lat="48.70551" lon="5.45757">
        <ele>331.7</ele>
        <time>2020-06-29T19:14:31Z</time>
      </trkpt>
      <trkpt lat="48.70551" lon="5.45749">
        <ele>331.8</ele>
        <time>2020-06-29T19:14:32Z</time>
      </trkpt>
      <trkpt lat="48.70551" lon="5.45742">
        <ele>331.8</ele>
        <time>2020-06-29T19:14:33Z</time>
      </trkpt>
      <trkpt lat="48.70551" lon="5.45734">
        <ele>331.9</ele>
        <time>2020-06-29T19:14:34Z</time>
      </trkpt>
      <trkpt lat="48.70551" lon="5.45728">
        <ele>331.9</ele>
        <time>2020-06-29T19:14:35Z</time>
      </trkpt>
      <trkpt lat="48.70551" lon="5.4572">
        <ele>331.9</ele>
        <time>2020-06-29T19:14:36Z</time>
      </trkpt>
      <trkpt lat="48.70551" lon="5.45712">
        <ele>331.9</ele>
        <time>2020-06-29T19:14:37Z</time>
      </trkpt>
      <trkpt lat="48.70552" lon="5.45705">
        <ele>331.9</ele>
        <time>2020-06-29T19:14:38Z</time>
      </trkpt>
      <trkpt lat="48.70552" lon="5.45699">
        <ele>331.8</ele>
        <time>2020-06-29T19:14:39Z</time>
      </trkpt>
      <trkpt lat="48.70552" lon="5.45691">
        <ele>331.8</ele>
        <time>2020-06-29T19:14:40Z</time>
      </trkpt>
      <trkpt lat="48.70553" lon="5.45683">
        <ele>331.8</ele>
        <time>2020-06-29T19:14:41Z</time>
      </trkpt>
      <trkpt lat="48.70553" lon="5.45674">
        <ele>331.8</ele>
        <time>2020-06-29T19:14:42Z</time>
      </trkpt>
      <trkpt lat="48.70553" lon="5.45666">
        <ele>331.8</ele>
        <time>2020-06-29T19:14:43Z</time>
      </trkpt>
      <trkpt lat="48.70553" lon="5.45657">
        <ele>331.7</ele>
        <time>2020-06-29T19:14:44Z</time>
      </trkpt>
      <trkpt lat="48.70553" lon="5.45648">
        <ele>331.5</ele>
        <time>2020-06-29T19:14:45Z</time>
      </trkpt>
      <trkpt lat="48.70552" lon="5.4564">
        <ele>331.3</ele>
        <time>2020-06-29T19:14:46Z</time>
      </trkpt>
      <trkpt lat="48.70552" lon="5.45632">
        <ele>331.1</ele>
        <time>2020-06-29T19:14:47Z</time>
      </trkpt>
      <trkpt lat="48.70552" lon="5.45624">
        <ele>331</ele>
        <time>2020-06-29T19:14:48Z</time>
      </trkpt>
      <trkpt lat="48.70552" lon="5.45616">
        <ele>330.9</ele>
        <time>2020-06-29T19:14:49Z</time>
      </trkpt>
      <trkpt lat="48.70552" lon="5.45609">
        <ele>330.8</ele>
        <time>2020-06-29T19:14:50Z</time>
      </trkpt>
      <trkpt lat="48.70552" lon="5.45601">
        <ele>330.8</ele>
        <time>2020-06-29T19:14:51Z</time>
      </trkpt>
      <trkpt lat="48.70551" lon="5.45593">
        <ele>330.8</ele>
        <time>2020-06-29T19:14:52Z</time>
      </trkpt>
      <trkpt lat="48.70551" lon="5.45586">
        <ele>330.7</ele>
        <time>2020-06-29T19:14:53Z</time>
      </trkpt>
      <trkpt lat="48.70551" lon="5.45578">
        <ele>330.7</ele>
        <time>2020-06-29T19:14:54Z</time>
      </trkpt>
      <trkpt lat="48.70551" lon="5.4557">
        <ele>330.7</ele>
        <time>2020-06-29T19:14:55Z</time>
      </trkpt>
      <trkpt lat="48.70551" lon="5.45562">
        <ele>330.7</ele>
        <time>2020-06-29T19:14:56Z</time>
      </trkpt>
      <trkpt lat="48.70551" lon="5.45555">
        <ele>330.7</ele>
        <time>2020-06-29T19:14:57Z</time>
      </trkpt>
      <trkpt lat="48.70551" lon="5.45548">
        <ele>330.7</ele>
        <time>2020-06-29T19:14:58Z</time>
      </trkpt>
      <trkpt lat="48.70551" lon="5.4554">
        <ele>330.7</ele>
        <time>2020-06-29T19:14:59Z</time>
      </trkpt>
      <trkpt lat="48.7055" lon="5.45531">
        <ele>330.7</ele>
        <time>2020-06-29T19:15:00Z</time>
      </trkpt>
      <trkpt lat="48.7055" lon="5.45523">
        <ele>330.8</ele>
        <time>2020-06-29T19:15:01Z</time>
      </trkpt>
      <trkpt lat="48.7055" lon="5.45514">
        <ele>330.8</ele>
        <time>2020-06-29T19:15:02Z</time>
      </trkpt>
      <trkpt lat="48.70549" lon="5.45506">
        <ele>330.8</ele>
        <time>2020-06-29T19:15:03Z</time>
      </trkpt>
      <trkpt lat="48.70549" lon="5.45499">
        <ele>330.8</ele>
        <time>2020-06-29T19:15:04Z</time>
      </trkpt>
      <trkpt lat="48.7055" lon="5.45491">
        <ele>330.8</ele>
        <time>2020-06-29T19:15:05Z</time>
      </trkpt>
      <trkpt lat="48.7055" lon="5.45484">
        <ele>330.8</ele>
        <time>2020-06-29T19:15:06Z</time>
      </trkpt>
      <trkpt lat="48.70549" lon="5.45476">
        <ele>330.8</ele>
        <time>2020-06-29T19:15:07Z</time>
      </trkpt>
      <trkpt lat="48.70549" lon="5.45469">
        <ele>330.8</ele>
        <time>2020-06-29T19:15:08Z</time>
      </trkpt>
      <trkpt lat="48.70549" lon="5.45461">
        <ele>330.7</ele>
        <time>2020-06-29T19:15:09Z</time>
      </trkpt>
      <trkpt lat="48.70549" lon="5.45453">
        <ele>330.7</ele>
        <time>2020-06-29T19:15:10Z</time>
      </trkpt>
      <trkpt lat="48.7055" lon="5.45445">
        <ele>330.6</ele>
        <time>2020-06-29T19:15:11Z</time>
      </trkpt>
      <trkpt lat="48.7055" lon="5.45437">
        <ele>330.5</ele>
        <time>2020-06-29T19:15:12Z</time>
      </trkpt>
      <trkpt lat="48.7055" lon="5.45429">
        <ele>330.3</ele>
        <time>2020-06-29T19:15:13Z</time>
      </trkpt>
      <trkpt lat="48.7055" lon="5.4542">
        <ele>330.2</ele>
        <time>2020-06-29T19:15:14Z</time>
      </trkpt>
      <trkpt lat="48.70549" lon="5.45413">
        <ele>330.1</ele>
        <time>2020-06-29T19:15:15Z</time>
      </trkpt>
      <trkpt lat="48.70549" lon="5.45405">
        <ele>330.1</ele>
        <time>2020-06-29T19:15:16Z</time>
      </trkpt>
      <trkpt lat="48.70548" lon="5.45397">
        <ele>330</ele>
        <time>2020-06-29T19:15:17Z</time>
      </trkpt>
      <trkpt lat="48.70548" lon="5.45388">
        <ele>330</ele>
        <time>2020-06-29T19:15:18Z</time>
      </trkpt>
      <trkpt lat="48.70549" lon="5.4538">
        <ele>330</ele>
        <time>2020-06-29T19:15:19Z</time>
      </trkpt>
      <trkpt lat="48.70548" lon="5.45371">
        <ele>329.9</ele>
        <time>2020-06-29T19:15:20Z</time>
      </trkpt>
      <trkpt lat="48.70549" lon="5.45362">
        <ele>329.8</ele>
        <time>2020-06-29T19:15:21Z</time>
      </trkpt>
      <trkpt lat="48.70548" lon="5.45355">
        <ele>329.7</ele>
        <time>2020-06-29T19:15:22Z</time>
      </trkpt>
      <trkpt lat="48.70549" lon="5.45347">
        <ele>329.6</ele>
        <time>2020-06-29T19:15:23Z</time>
      </trkpt>
      <trkpt lat="48.70549" lon="5.4534">
        <ele>329.6</ele>
        <time>2020-06-29T19:15:24Z</time>
      </trkpt>
      <trkpt lat="48.70549" lon="5.45333">
        <ele>329.5</ele>
        <time>2020-06-29T19:15:25Z</time>
      </trkpt>
      <trkpt lat="48.70549" lon="5.45325">
        <ele>329.5</ele>
        <time>2020-06-29T19:15:26Z</time>
      </trkpt>
      <trkpt lat="48.70549" lon="5.45317">
        <ele>329.4</ele>
        <time>2020-06-29T19:15:27Z</time>
      </trkpt>
      <trkpt lat="48.70549" lon="5.45309">
        <ele>329.4</ele>
        <time>2020-06-29T19:15:28Z</time>
      </trkpt>
      <trkpt lat="48.70549" lon="5.45302">
        <ele>329.3</ele>
        <time>2020-06-29T19:15:29Z</time>
      </trkpt>
      <trkpt lat="48.70549" lon="5.45294">
        <ele>329.3</ele>
        <time>2020-06-29T19:15:30Z</time>
      </trkpt>
      <trkpt lat="48.7055" lon="5.45286">
        <ele>329.3</ele>
        <time>2020-06-29T19:15:31Z</time>
      </trkpt>
      <trkpt lat="48.7055" lon="5.45279">
        <ele>329.4</ele>
        <time>2020-06-29T19:15:32Z</time>
      </trkpt>
      <trkpt lat="48.70549" lon="5.45271">
        <ele>329.4</ele>
        <time>2020-06-29T19:15:33Z</time>
      </trkpt>
      <trkpt lat="48.7055" lon="5.45263">
        <ele>329.5</ele>
        <time>2020-06-29T19:15:34Z</time>
      </trkpt>
      <trkpt lat="48.70549" lon="5.45255">
        <ele>329.5</ele>
        <time>2020-06-29T19:15:35Z</time>
      </trkpt>
      <trkpt lat="48.7055" lon="5.45247">
        <ele>329.6</ele>
        <time>2020-06-29T19:15:36Z</time>
      </trkpt>
      <trkpt lat="48.7055" lon="5.45239">
        <ele>329.6</ele>
        <time>2020-06-29T19:15:37Z</time>
      </trkpt>
      <trkpt lat="48.70551" lon="5.45233">
        <ele>329.6</ele>
        <time>2020-06-29T19:15:38Z</time>
      </trkpt>
      <trkpt lat="48.70551" lon="5.45227">
        <ele>329.5</ele>
        <time>2020-06-29T19:15:39Z</time>
      </trkpt>
      <trkpt lat="48.70551" lon="5.4522">
        <ele>329.6</ele>
        <time>2020-06-29T19:15:40Z</time>
      </trkpt>
      <trkpt lat="48.70551" lon="5.45213">
        <ele>329.7</ele>
        <time>2020-06-29T19:15:41Z</time>
      </trkpt>
      <trkpt lat="48.70551" lon="5.45206">
        <ele>329.8</ele>
        <time>2020-06-29T19:15:42Z</time>
      </trkpt>
      <trkpt lat="48.7055" lon="5.45199">
        <ele>329.9</ele>
        <time>2020-06-29T19:15:43Z</time>
      </trkpt>
      <trkpt lat="48.7055" lon="5.45193">
        <ele>330.1</ele>
        <time>2020-06-29T19:15:44Z</time>
      </trkpt>
      <trkpt lat="48.7055" lon="5.45186">
        <ele>330.3</ele>
        <time>2020-06-29T19:15:45Z</time>
      </trkpt>
      <trkpt lat="48.70551" lon="5.4518">
        <ele>330.5</ele>
        <time>2020-06-29T19:15:46Z</time>
      </trkpt>
      <trkpt lat="48.7055" lon="5.45172">
        <ele>330.7</ele>
        <time>2020-06-29T19:15:47Z</time>
      </trkpt>
      <trkpt lat="48.70551" lon="5.45166">
        <ele>330.9</ele>
        <time>2020-06-29T19:15:48Z</time>
      </trkpt>
      <trkpt lat="48.70551" lon="5.45159">
        <ele>331.1</ele>
        <time>2020-06-29T19:15:49Z</time>
      </trkpt>
      <trkpt lat="48.70551" lon="5.45152">
        <ele>331.3</ele>
        <time>2020-06-29T19:15:50Z</time>
      </trkpt>
      <trkpt lat="48.7055" lon="5.45146">
        <ele>331.4</ele>
        <time>2020-06-29T19:15:51Z</time>
      </trkpt>
      <trkpt lat="48.7055" lon="5.4514">
        <ele>331.5</ele>
        <time>2020-06-29T19:15:52Z</time>
      </trkpt>
      <trkpt lat="48.70551" lon="5.45132">
        <ele>331.6</ele>
        <time>2020-06-29T19:15:53Z</time>
      </trkpt>
      <trkpt lat="48.70551" lon="5.45125">
        <ele>331.8</ele>
        <time>2020-06-29T19:15:54Z</time>
      </trkpt>
      <trkpt lat="48.70552" lon="5.45118">
        <ele>331.9</ele>
        <time>2020-06-29T19:15:55Z</time>
      </trkpt>
      <trkpt lat="48.70551" lon="5.45111">
        <ele>332</ele>
        <time>2020-06-29T19:15:56Z</time>
      </trkpt>
      <trkpt lat="48.70551" lon="5.45105">
        <ele>332.2</ele>
        <time>2020-06-29T19:15:57Z</time>
      </trkpt>
      <trkpt lat="48.70551" lon="5.45098">
        <ele>332.4</ele>
        <time>2020-06-29T19:15:58Z</time>
      </trkpt>
      <trkpt lat="48.70551" lon="5.45092">
        <ele>332.5</ele>
        <time>2020-06-29T19:15:59Z</time>
      </trkpt>
      <trkpt lat="48.70551" lon="5.45086">
        <ele>332.7</ele>
        <time>2020-06-29T19:16:00Z</time>
      </trkpt>
      <trkpt lat="48.70551" lon="5.4508">
        <ele>332.9</ele>
        <time>2020-06-29T19:16:01Z</time>
      </trkpt>
      <trkpt lat="48.70551" lon="5.45074">
        <ele>333.1</ele>
        <time>2020-06-29T19:16:02Z</time>
      </trkpt>
      <trkpt lat="48.70551" lon="5.45068">
        <ele>333.3</ele>
        <time>2020-06-29T19:16:03Z</time>
      </trkpt>
      <trkpt lat="48.70551" lon="5.45062">
        <ele>333.6</ele>
        <time>2020-06-29T19:16:04Z</time>
      </trkpt>
      <trkpt lat="48.70551" lon="5.45057">
        <ele>333.9</ele>
        <time>2020-06-29T19:16:05Z</time>
      </trkpt>
      <trkpt lat="48.7055" lon="5.45052">
        <ele>334.2</ele>
        <time>2020-06-29T19:16:06Z</time>
      </trkpt>
      <trkpt lat="48.7055" lon="5.45046">
        <ele>334.4</ele>
        <time>2020-06-29T19:16:07Z</time>
      </trkpt>
      <trkpt lat="48.7055" lon="5.45041">
        <ele>334.6</ele>
        <time>2020-06-29T19:16:08Z</time>
      </trkpt>
      <trkpt lat="48.70551" lon="5.45036">
        <ele>334.9</ele>
        <time>2020-06-29T19:16:09Z</time>
      </trkpt>
      <trkpt lat="48.70551" lon="5.45029">
        <ele>335.2</ele>
        <time>2020-06-29T19:16:10Z</time>
      </trkpt>
      <trkpt lat="48.70551" lon="5.45022">
        <ele>335.5</ele>
        <time>2020-06-29T19:16:11Z</time>
      </trkpt>
      <trkpt lat="48.70551" lon="5.45015">
        <ele>335.8</ele>
        <time>2020-06-29T19:16:12Z</time>
      </trkpt>
      <trkpt lat="48.70551" lon="5.45007">
        <ele>336.2</ele>
        <time>2020-06-29T19:16:13Z</time>
      </trkpt>
      <trkpt lat="48.70551" lon="5.45001">
        <ele>336.5</ele>
        <time>2020-06-29T19:16:14Z</time>
      </trkpt>
      <trkpt lat="48.70551" lon="5.44995">
        <ele>336.8</ele>
        <time>2020-06-29T19:16:15Z</time>
      </trkpt>
      <trkpt lat="48.7055" lon="5.44988">
        <ele>337.1</ele>
        <time>2020-06-29T19:16:16Z</time>
      </trkpt>
      <trkpt lat="48.7055" lon="5.44981">
        <ele>337.5</ele>
        <time>2020-06-29T19:16:17Z</time>
      </trkpt>
      <trkpt lat="48.7055" lon="5.44976">
        <ele>337.7</ele>
        <time>2020-06-29T19:16:18Z</time>
      </trkpt>
      <trkpt lat="48.7055" lon="5.44971">
        <ele>337.9</ele>
        <time>2020-06-29T19:16:19Z</time>
      </trkpt>
      <trkpt lat="48.7055" lon="5.44964">
        <ele>338.1</ele>
        <time>2020-06-29T19:16:20Z</time>
      </trkpt>
      <trkpt lat="48.7055" lon="5.44958">
        <ele>338.3</ele>
        <time>2020-06-29T19:16:21Z</time>
      </trkpt>
      <trkpt lat="48.7055" lon="5.44952">
        <ele>338.5</ele>
        <time>2020-06-29T19:16:22Z</time>
      </trkpt>
      <trkpt lat="48.7055" lon="5.44947">
        <ele>338.7</ele>
        <time>2020-06-29T19:16:23Z</time>
      </trkpt>
      <trkpt lat="48.7055" lon="5.4494">
        <ele>339</ele>
        <time>2020-06-29T19:16:24Z</time>
      </trkpt>
      <trkpt lat="48.70549" lon="5.44934">
        <ele>339.3</ele>
        <time>2020-06-29T19:16:25Z</time>
      </trkpt>
      <trkpt lat="48.70549" lon="5.44928">
        <ele>339.5</ele>
        <time>2020-06-29T19:16:26Z</time>
      </trkpt>
      <trkpt lat="48.70549" lon="5.44923">
        <ele>339.8</ele>
        <time>2020-06-29T19:16:27Z</time>
      </trkpt>
      <trkpt lat="48.70549" lon="5.44917">
        <ele>340</ele>
        <time>2020-06-29T19:16:28Z</time>
      </trkpt>
      <trkpt lat="48.70549" lon="5.44911">
        <ele>340.2</ele>
        <time>2020-06-29T19:16:29Z</time>
      </trkpt>
      <trkpt lat="48.70549" lon="5.44906">
        <ele>340.4</ele>
        <time>2020-06-29T19:16:30Z</time>
      </trkpt>
      <trkpt lat="48.70549" lon="5.44901">
        <ele>340.6</ele>
        <time>2020-06-29T19:16:31Z</time>
      </trkpt>
      <trkpt lat="48.70548" lon="5.44896">
        <ele>340.7</ele>
        <time>2020-06-29T19:16:32Z</time>
      </trkpt>
      <trkpt lat="48.70548" lon="5.44892">
        <ele>340.9</ele>
        <time>2020-06-29T19:16:33Z</time>
      </trkpt>
      <trkpt lat="48.70548" lon="5.44888">
        <ele>341.1</ele>
        <time>2020-06-29T19:16:34Z</time>
      </trkpt>
      <trkpt lat="48.70548" lon="5.44883">
        <ele>341.3</ele>
        <time>2020-06-29T19:16:35Z</time>
      </trkpt>
      <trkpt lat="48.70547" lon="5.44878">
        <ele>341.6</ele>
        <time>2020-06-29T19:16:36Z</time>
      </trkpt>
      <trkpt lat="48.70547" lon="5.44877">
        <ele>341.7</ele>
        <time>2020-06-29T19:16:37Z</time>
      </trkpt>
      <trkpt lat="48.70547" lon="5.44871">
        <ele>342</ele>
        <time>2020-06-29T19:16:38Z</time>
      </trkpt>
      <trkpt lat="48.70546" lon="5.44869">
        <ele>342.1</ele>
        <time>2020-06-29T19:16:39Z</time>
      </trkpt>
      <trkpt lat="48.70547" lon="5.44865">
        <ele>342.3</ele>
        <time>2020-06-29T19:16:40Z</time>
      </trkpt>
      <trkpt lat="48.70546" lon="5.4486">
        <ele>342.7</ele>
        <time>2020-06-29T19:16:41Z</time>
      </trkpt>
      <trkpt lat="48.70546" lon="5.44858">
        <ele>342.8</ele>
        <time>2020-06-29T19:16:42Z</time>
      </trkpt>
      <trkpt lat="48.70545" lon="5.44856">
        <ele>342.9</ele>
        <time>2020-06-29T19:16:43Z</time>
      </trkpt>
      <trkpt lat="48.70544" lon="5.44853">
        <ele>343</ele>
        <time>2020-06-29T19:16:44Z</time>
      </trkpt>
      <trkpt lat="48.70544" lon="5.44847">
        <ele>343.3</ele>
        <time>2020-06-29T19:16:45Z</time>
      </trkpt>
      <trkpt lat="48.70544" lon="5.44846">
        <ele>343.4</ele>
        <time>2020-06-29T19:16:46Z</time>
      </trkpt>
      <trkpt lat="48.70544" lon="5.4484">
        <ele>343.6</ele>
        <time>2020-06-29T19:16:47Z</time>
      </trkpt>
      <trkpt lat="48.70544" lon="5.44839">
        <ele>343.7</ele>
        <time>2020-06-29T19:16:48Z</time>
      </trkpt>
      <trkpt lat="48.70543" lon="5.44834">
        <ele>343.9</ele>
        <time>2020-06-29T19:16:49Z</time>
      </trkpt>
      <trkpt lat="48.70543" lon="5.44833">
        <ele>344</ele>
        <time>2020-06-29T19:16:50Z</time>
      </trkpt>
      <trkpt lat="48.70542" lon="5.44829">
        <ele>344.1</ele>
        <time>2020-06-29T19:16:51Z</time>
      </trkpt>
      <trkpt lat="48.70542" lon="5.44827">
        <ele>344.2</ele>
        <time>2020-06-29T19:16:52Z</time>
      </trkpt>
      <trkpt lat="48.70541" lon="5.44823">
        <ele>344.4</ele>
        <time>2020-06-29T19:16:53Z</time>
      </trkpt>
      <trkpt lat="48.70541" lon="5.44821">
        <ele>344.5</ele>
        <time>2020-06-29T19:16:54Z</time>
      </trkpt>
      <trkpt lat="48.70541" lon="5.44816">
        <ele>344.7</ele>
        <time>2020-06-29T19:16:55Z</time>
      </trkpt>
      <trkpt lat="48.70541" lon="5.44814">
        <ele>344.7</ele>
        <time>2020-06-29T19:16:56Z</time>
      </trkpt>
      <trkpt lat="48.7054" lon="5.44809">
        <ele>344.9</ele>
        <time>2020-06-29T19:16:57Z</time>
      </trkpt>
      <trkpt lat="48.7054" lon="5.44804">
        <ele>345.1</ele>
        <time>2020-06-29T19:16:58Z</time>
      </trkpt>
      <trkpt lat="48.7054" lon="5.44802">
        <ele>345.2</ele>
        <time>2020-06-29T19:16:59Z</time>
      </trkpt>
      <trkpt lat="48.7054" lon="5.44796">
        <ele>345.4</ele>
        <time>2020-06-29T19:17:00Z</time>
      </trkpt>
      <trkpt lat="48.7054" lon="5.44794">
        <ele>345.5</ele>
        <time>2020-06-29T19:17:01Z</time>
      </trkpt>
      <trkpt lat="48.70542" lon="5.44788">
        <ele>345.7</ele>
        <time>2020-06-29T19:17:02Z</time>
      </trkpt>
      <trkpt lat="48.70542" lon="5.44786">
        <ele>345.8</ele>
        <time>2020-06-29T19:17:03Z</time>
      </trkpt>
      <trkpt lat="48.70543" lon="5.44782">
        <ele>345.9</ele>
        <time>2020-06-29T19:17:04Z</time>
      </trkpt>
      <trkpt lat="48.70543" lon="5.44777">
        <ele>346</ele>
        <time>2020-06-29T19:17:05Z</time>
      </trkpt>
      <trkpt lat="48.70544" lon="5.44772">
        <ele>346</ele>
        <time>2020-06-29T19:17:06Z</time>
      </trkpt>
      <trkpt lat="48.70545" lon="5.44768">
        <ele>346.1</ele>
        <time>2020-06-29T19:17:07Z</time>
      </trkpt>
      <trkpt lat="48.70546" lon="5.44763">
        <ele>346.1</ele>
        <time>2020-06-29T19:17:08Z</time>
      </trkpt>
      <trkpt lat="48.70547" lon="5.44758">
        <ele>346.1</ele>
        <time>2020-06-29T19:17:09Z</time>
      </trkpt>
      <trkpt lat="48.70548" lon="5.44752">
        <ele>346.2</ele>
        <time>2020-06-29T19:17:10Z</time>
      </trkpt>
      <trkpt lat="48.70549" lon="5.44747">
        <ele>346.2</ele>
        <time>2020-06-29T19:17:11Z</time>
      </trkpt>
      <trkpt lat="48.70549" lon="5.44741">
        <ele>346.2</ele>
        <time>2020-06-29T19:17:12Z</time>
      </trkpt>
      <trkpt lat="48.7055" lon="5.44735">
        <ele>346.2</ele>
        <time>2020-06-29T19:17:13Z</time>
      </trkpt>
      <trkpt lat="48.70551" lon="5.4473">
        <ele>346.2</ele>
        <time>2020-06-29T19:17:14Z</time>
      </trkpt>
      <trkpt lat="48.70551" lon="5.44725">
        <ele>346.3</ele>
        <time>2020-06-29T19:17:15Z</time>
      </trkpt>
      <trkpt lat="48.70551" lon="5.44719">
        <ele>346.3</ele>
        <time>2020-06-29T19:17:16Z</time>
      </trkpt>
      <trkpt lat="48.70551" lon="5.44711">
        <ele>346.4</ele>
        <time>2020-06-29T19:17:17Z</time>
      </trkpt>
      <trkpt lat="48.7055" lon="5.44705">
        <ele>346.4</ele>
        <time>2020-06-29T19:17:18Z</time>
      </trkpt>
      <trkpt lat="48.70548" lon="5.447">
        <ele>346.5</ele>
        <time>2020-06-29T19:17:19Z</time>
      </trkpt>
      <trkpt lat="48.70545" lon="5.44697">
        <ele>346.6</ele>
        <time>2020-06-29T19:17:20Z</time>
      </trkpt>
      <trkpt lat="48.70543" lon="5.44694">
        <ele>346.7</ele>
        <time>2020-06-29T19:17:21Z</time>
      </trkpt>
      <trkpt lat="48.7054" lon="5.44692">
        <ele>346.8</ele>
        <time>2020-06-29T19:17:22Z</time>
      </trkpt>
      <trkpt lat="48.70538" lon="5.4469">
        <ele>347</ele>
        <time>2020-06-29T19:17:23Z</time>
      </trkpt>
      <trkpt lat="48.70535" lon="5.44687">
        <ele>347.2</ele>
        <time>2020-06-29T19:17:24Z</time>
      </trkpt>
      <trkpt lat="48.70532" lon="5.44685">
        <ele>347.4</ele>
        <time>2020-06-29T19:17:25Z</time>
      </trkpt>
      <trkpt lat="48.70529" lon="5.44683">
        <ele>347.7</ele>
        <time>2020-06-29T19:17:26Z</time>
      </trkpt>
      <trkpt lat="48.70527" lon="5.44682">
        <ele>347.8</ele>
        <time>2020-06-29T19:17:27Z</time>
      </trkpt>
      <trkpt lat="48.70526" lon="5.44682">
        <ele>347.9</ele>
        <time>2020-06-29T19:17:28Z</time>
      </trkpt>
      <trkpt lat="48.70524" lon="5.44681">
        <ele>348.1</ele>
        <time>2020-06-29T19:17:29Z</time>
      </trkpt>
      <trkpt lat="48.70523" lon="5.44679">
        <ele>348.3</ele>
        <time>2020-06-29T19:17:30Z</time>
      </trkpt>
      <trkpt lat="48.70521" lon="5.44677">
        <ele>348.8</ele>
        <time>2020-06-29T19:17:31Z</time>
      </trkpt>
      <trkpt lat="48.7052" lon="5.44675">
        <ele>348.8</ele>
        <time>2020-06-29T19:17:32Z</time>
      </trkpt>
      <trkpt lat="48.70519" lon="5.44674">
        <ele>348.9</ele>
        <time>2020-06-29T19:17:33Z</time>
      </trkpt>
      <trkpt lat="48.70519" lon="5.44669">
        <ele>348.9</ele>
        <time>2020-06-29T19:17:34Z</time>
      </trkpt>
      <trkpt lat="48.70518" lon="5.44668">
        <ele>348.9</ele>
        <time>2020-06-29T19:17:35Z</time>
      </trkpt>
      <trkpt lat="48.70517" lon="5.44663">
        <ele>349</ele>
        <time>2020-06-29T19:17:36Z</time>
      </trkpt>
      <trkpt lat="48.70517" lon="5.44661">
        <ele>349</ele>
        <time>2020-06-29T19:17:37Z</time>
      </trkpt>
      <trkpt lat="48.70516" lon="5.44656">
        <ele>349</ele>
        <time>2020-06-29T19:17:38Z</time>
      </trkpt>
      <trkpt lat="48.70516" lon="5.44655">
        <ele>349</ele>
        <time>2020-06-29T19:17:39Z</time>
      </trkpt>
      <trkpt lat="48.70516" lon="5.4465">
        <ele>348.9</ele>
        <time>2020-06-29T19:17:40Z</time>
      </trkpt>
      <trkpt lat="48.70516" lon="5.44645">
        <ele>348.9</ele>
        <time>2020-06-29T19:17:41Z</time>
      </trkpt>
      <trkpt lat="48.70516" lon="5.4464">
        <ele>348.8</ele>
        <time>2020-06-29T19:17:42Z</time>
      </trkpt>
      <trkpt lat="48.70516" lon="5.44634">
        <ele>348.7</ele>
        <time>2020-06-29T19:17:43Z</time>
      </trkpt>
      <trkpt lat="48.70516" lon="5.44628">
        <ele>348.6</ele>
        <time>2020-06-29T19:17:44Z</time>
      </trkpt>
      <trkpt lat="48.70516" lon="5.44622">
        <ele>348.5</ele>
        <time>2020-06-29T19:17:45Z</time>
      </trkpt>
      <trkpt lat="48.70516" lon="5.44616">
        <ele>348.4</ele>
        <time>2020-06-29T19:17:46Z</time>
      </trkpt>
      <trkpt lat="48.70516" lon="5.44608">
        <ele>348.2</ele>
        <time>2020-06-29T19:17:47Z</time>
      </trkpt>
      <trkpt lat="48.70516" lon="5.44601">
        <ele>348.1</ele>
        <time>2020-06-29T19:17:48Z</time>
      </trkpt>
      <trkpt lat="48.70515" lon="5.44594">
        <ele>348</ele>
        <time>2020-06-29T19:17:49Z</time>
      </trkpt>
      <trkpt lat="48.70514" lon="5.44587">
        <ele>347.8</ele>
        <time>2020-06-29T19:17:50Z</time>
      </trkpt>
      <trkpt lat="48.70513" lon="5.44579">
        <ele>347.6</ele>
        <time>2020-06-29T19:17:51Z</time>
      </trkpt>
      <trkpt lat="48.70512" lon="5.44572">
        <ele>347.3</ele>
        <time>2020-06-29T19:17:52Z</time>
      </trkpt>
      <trkpt lat="48.70513" lon="5.44567">
        <ele>347.1</ele>
        <time>2020-06-29T19:17:53Z</time>
      </trkpt>
      <trkpt lat="48.70513" lon="5.44562">
        <ele>346.8</ele>
        <time>2020-06-29T19:17:54Z</time>
      </trkpt>
      <trkpt lat="48.70513" lon="5.44557">
        <ele>346.6</ele>
        <time>2020-06-29T19:17:55Z</time>
      </trkpt>
      <trkpt lat="48.70515" lon="5.4455">
        <ele>346.2</ele>
        <time>2020-06-29T19:17:56Z</time>
      </trkpt>
      <trkpt lat="48.70516" lon="5.44544">
        <ele>345.8</ele>
        <time>2020-06-29T19:17:57Z</time>
      </trkpt>
      <trkpt lat="48.70517" lon="5.44539">
        <ele>345.5</ele>
        <time>2020-06-29T19:17:58Z</time>
      </trkpt>
      <trkpt lat="48.70518" lon="5.44534">
        <ele>345.2</ele>
        <time>2020-06-29T19:17:59Z</time>
      </trkpt>
      <trkpt lat="48.70519" lon="5.44529">
        <ele>344.9</ele>
        <time>2020-06-29T19:18:00Z</time>
      </trkpt>
      <trkpt lat="48.7052" lon="5.44524">
        <ele>344.6</ele>
        <time>2020-06-29T19:18:01Z</time>
      </trkpt>
      <trkpt lat="48.70522" lon="5.44519">
        <ele>344.3</ele>
        <time>2020-06-29T19:18:02Z</time>
      </trkpt>
      <trkpt lat="48.70523" lon="5.44514">
        <ele>344</ele>
        <time>2020-06-29T19:18:03Z</time>
      </trkpt>
      <trkpt lat="48.70525" lon="5.44508">
        <ele>343.7</ele>
        <time>2020-06-29T19:18:04Z</time>
      </trkpt>
      <trkpt lat="48.70526" lon="5.44501">
        <ele>343.3</ele>
        <time>2020-06-29T19:18:05Z</time>
      </trkpt>
      <trkpt lat="48.70526" lon="5.44496">
        <ele>343.1</ele>
        <time>2020-06-29T19:18:06Z</time>
      </trkpt>
      <trkpt lat="48.70527" lon="5.44491">
        <ele>342.8</ele>
        <time>2020-06-29T19:18:07Z</time>
      </trkpt>
      <trkpt lat="48.70528" lon="5.44486">
        <ele>342.6</ele>
        <time>2020-06-29T19:18:08Z</time>
      </trkpt>
      <trkpt lat="48.70529" lon="5.4448">
        <ele>342.2</ele>
        <time>2020-06-29T19:18:09Z</time>
      </trkpt>
      <trkpt lat="48.70531" lon="5.44474">
        <ele>341.9</ele>
        <time>2020-06-29T19:18:10Z</time>
      </trkpt>
      <trkpt lat="48.70531" lon="5.44469">
        <ele>341.7</ele>
        <time>2020-06-29T19:18:11Z</time>
      </trkpt>
      <trkpt lat="48.70533" lon="5.44463">
        <ele>341.4</ele>
        <time>2020-06-29T19:18:12Z</time>
      </trkpt>
      <trkpt lat="48.70534" lon="5.44458">
        <ele>341.1</ele>
        <time>2020-06-29T19:18:13Z</time>
      </trkpt>
      <trkpt lat="48.70535" lon="5.44452">
        <ele>340.9</ele>
        <time>2020-06-29T19:18:14Z</time>
      </trkpt>
      <trkpt lat="48.70537" lon="5.44446">
        <ele>340.7</ele>
        <time>2020-06-29T19:18:15Z</time>
      </trkpt>
      <trkpt lat="48.70538" lon="5.44441">
        <ele>340.4</ele>
        <time>2020-06-29T19:18:16Z</time>
      </trkpt>
      <trkpt lat="48.70539" lon="5.44435">
        <ele>340.2</ele>
        <time>2020-06-29T19:18:17Z</time>
      </trkpt>
      <trkpt lat="48.70541" lon="5.4443">
        <ele>340</ele>
        <time>2020-06-29T19:18:18Z</time>
      </trkpt>
      <trkpt lat="48.70542" lon="5.44426">
        <ele>339.8</ele>
        <time>2020-06-29T19:18:19Z</time>
      </trkpt>
      <trkpt lat="48.70544" lon="5.44421">
        <ele>339.6</ele>
        <time>2020-06-29T19:18:20Z</time>
      </trkpt>
      <trkpt lat="48.70545" lon="5.44417">
        <ele>339.4</ele>
        <time>2020-06-29T19:18:21Z</time>
      </trkpt>
      <trkpt lat="48.70544" lon="5.44413">
        <ele>339.1</ele>
        <time>2020-06-29T19:18:22Z</time>
      </trkpt>
      <trkpt lat="48.70544" lon="5.44411">
        <ele>339.1</ele>
        <time>2020-06-29T19:18:23Z</time>
      </trkpt>
      <trkpt lat="48.70545" lon="5.44407">
        <ele>338.9</ele>
        <time>2020-06-29T19:18:24Z</time>
      </trkpt>
      <trkpt lat="48.70548" lon="5.44405">
        <ele>341.8</ele>
        <time>2020-06-29T19:18:25Z</time>
      </trkpt>
      <trkpt lat="48.70551" lon="5.44404">
        <ele>341.2</ele>
        <time>2020-06-29T19:18:26Z</time>
      </trkpt>
      <trkpt lat="48.70553" lon="5.44401">
        <ele>340.6</ele>
        <time>2020-06-29T19:18:27Z</time>
      </trkpt>
      <trkpt lat="48.70556" lon="5.44399">
        <ele>340</ele>
        <time>2020-06-29T19:18:28Z</time>
      </trkpt>
      <trkpt lat="48.70559" lon="5.44397">
        <ele>339.3</ele>
        <time>2020-06-29T19:18:29Z</time>
      </trkpt>
      <trkpt lat="48.70561" lon="5.44395">
        <ele>338.8</ele>
        <time>2020-06-29T19:18:30Z</time>
      </trkpt>
      <trkpt lat="48.70564" lon="5.44392">
        <ele>338.2</ele>
        <time>2020-06-29T19:18:31Z</time>
      </trkpt>
      <trkpt lat="48.70565" lon="5.44391">
        <ele>338.2</ele>
        <time>2020-06-29T19:18:32Z</time>
      </trkpt>
      <trkpt lat="48.70568" lon="5.44388">
        <ele>338.1</ele>
        <time>2020-06-29T19:18:33Z</time>
      </trkpt>
      <trkpt lat="48.70571" lon="5.44384">
        <ele>338</ele>
        <time>2020-06-29T19:18:34Z</time>
      </trkpt>
      <trkpt lat="48.70574" lon="5.44381">
        <ele>338</ele>
        <time>2020-06-29T19:18:35Z</time>
      </trkpt>
      <trkpt lat="48.70577" lon="5.44378">
        <ele>338</ele>
        <time>2020-06-29T19:18:36Z</time>
      </trkpt>
      <trkpt lat="48.7058" lon="5.44374">
        <ele>337.9</ele>
        <time>2020-06-29T19:18:37Z</time>
      </trkpt>
      <trkpt lat="48.70583" lon="5.44371">
        <ele>337.9</ele>
        <time>2020-06-29T19:18:38Z</time>
      </trkpt>
      <trkpt lat="48.70586" lon="5.44368">
        <ele>337.9</ele>
        <time>2020-06-29T19:18:39Z</time>
      </trkpt>
      <trkpt lat="48.70588" lon="5.44365">
        <ele>337.9</ele>
        <time>2020-06-29T19:18:40Z</time>
      </trkpt>
      <trkpt lat="48.70591" lon="5.44363">
        <ele>337.9</ele>
        <time>2020-06-29T19:18:41Z</time>
      </trkpt>
      <trkpt lat="48.70595" lon="5.44359">
        <ele>338</ele>
        <time>2020-06-29T19:18:42Z</time>
      </trkpt>
      <trkpt lat="48.70598" lon="5.44356">
        <ele>338.1</ele>
        <time>2020-06-29T19:18:43Z</time>
      </trkpt>
      <trkpt lat="48.706" lon="5.44352">
        <ele>338.2</ele>
        <time>2020-06-29T19:18:44Z</time>
      </trkpt>
      <trkpt lat="48.70602" lon="5.44348">
        <ele>338.3</ele>
        <time>2020-06-29T19:18:45Z</time>
      </trkpt>
      <trkpt lat="48.70605" lon="5.44343">
        <ele>338.4</ele>
        <time>2020-06-29T19:18:46Z</time>
      </trkpt>
      <trkpt lat="48.70607" lon="5.4434">
        <ele>338.5</ele>
        <time>2020-06-29T19:18:47Z</time>
      </trkpt>
      <trkpt lat="48.70609" lon="5.44336">
        <ele>338.6</ele>
        <time>2020-06-29T19:18:48Z</time>
      </trkpt>
      <trkpt lat="48.7061" lon="5.44332">
        <ele>338.7</ele>
        <time>2020-06-29T19:18:49Z</time>
      </trkpt>
      <trkpt lat="48.7061" lon="5.44327">
        <ele>338.9</ele>
        <time>2020-06-29T19:18:50Z</time>
      </trkpt>
      <trkpt lat="48.7061" lon="5.44325">
        <ele>339</ele>
        <time>2020-06-29T19:18:51Z</time>
      </trkpt>
      <trkpt lat="48.70609" lon="5.4432">
        <ele>339.2</ele>
        <time>2020-06-29T19:18:52Z</time>
      </trkpt>
      <trkpt lat="48.70608" lon="5.44315">
        <ele>339.3</ele>
        <time>2020-06-29T19:18:53Z</time>
      </trkpt>
      <trkpt lat="48.70606" lon="5.44311">
        <ele>339.5</ele>
        <time>2020-06-29T19:18:54Z</time>
      </trkpt>
      <trkpt lat="48.70605" lon="5.44306">
        <ele>339.7</ele>
        <time>2020-06-29T19:18:55Z</time>
      </trkpt>
      <trkpt lat="48.70603" lon="5.44303">
        <ele>339.9</ele>
        <time>2020-06-29T19:18:56Z</time>
      </trkpt>
      <trkpt lat="48.70599" lon="5.44298">
        <ele>340.1</ele>
        <time>2020-06-29T19:18:57Z</time>
      </trkpt>
      <trkpt lat="48.70598" lon="5.44294">
        <ele>340.3</ele>
        <time>2020-06-29T19:18:58Z</time>
      </trkpt>
      <trkpt lat="48.70595" lon="5.4429">
        <ele>340.5</ele>
        <time>2020-06-29T19:18:59Z</time>
      </trkpt>
      <trkpt lat="48.70594" lon="5.44288">
        <ele>340.6</ele>
        <time>2020-06-29T19:19:00Z</time>
      </trkpt>
      <trkpt lat="48.70592" lon="5.44285">
        <ele>340.8</ele>
        <time>2020-06-29T19:19:01Z</time>
      </trkpt>
      <trkpt lat="48.70591" lon="5.44283">
        <ele>340.9</ele>
        <time>2020-06-29T19:19:02Z</time>
      </trkpt>
      <trkpt lat="48.7059" lon="5.44282">
        <ele>340.9</ele>
        <time>2020-06-29T19:19:03Z</time>
      </trkpt>
      <trkpt lat="48.70589" lon="5.44281">
        <ele>341</ele>
        <time>2020-06-29T19:19:04Z</time>
      </trkpt>
      <trkpt lat="48.7059" lon="5.44278">
        <ele>341.1</ele>
        <time>2020-06-29T19:19:05Z</time>
      </trkpt>
      <trkpt lat="48.7059" lon="5.44275">
        <ele>341.2</ele>
        <time>2020-06-29T19:19:06Z</time>
      </trkpt>
      <trkpt lat="48.70589" lon="5.44275">
        <ele>341.3</ele>
        <time>2020-06-29T19:19:07Z</time>
      </trkpt>
      <trkpt lat="48.70589" lon="5.44274">
        <ele>341.3</ele>
        <time>2020-06-29T19:19:08Z</time>
      </trkpt>
      <trkpt lat="48.70589" lon="5.44273">
        <ele>341.4</ele>
        <time>2020-06-29T19:19:09Z</time>
      </trkpt>
      <trkpt lat="48.70588" lon="5.44272">
        <ele>341.4</ele>
        <time>2020-06-29T19:19:10Z</time>
      </trkpt>
      <trkpt lat="48.70587" lon="5.4427">
        <ele>341.5</ele>
        <time>2020-06-29T19:19:11Z</time>
      </trkpt>
      <trkpt lat="48.70586" lon="5.44265">
        <ele>341.7</ele>
        <time>2020-06-29T19:19:12Z</time>
      </trkpt>
      <trkpt lat="48.70586" lon="5.44264">
        <ele>341.8</ele>
        <time>2020-06-29T19:19:13Z</time>
      </trkpt>
      <trkpt lat="48.70586" lon="5.44259">
        <ele>342</ele>
        <time>2020-06-29T19:19:14Z</time>
      </trkpt>
      <trkpt lat="48.70586" lon="5.44255">
        <ele>342.1</ele>
        <time>2020-06-29T19:19:15Z</time>
      </trkpt>
      <trkpt lat="48.70587" lon="5.4425">
        <ele>342.4</ele>
        <time>2020-06-29T19:19:16Z</time>
      </trkpt>
      <trkpt lat="48.70587" lon="5.44248">
        <ele>342.4</ele>
        <time>2020-06-29T19:19:17Z</time>
      </trkpt>
      <trkpt lat="48.70587" lon="5.44243">
        <ele>342.8</ele>
        <time>2020-06-29T19:19:18Z</time>
      </trkpt>
      <trkpt lat="48.70587" lon="5.44242">
        <ele>342.8</ele>
        <time>2020-06-29T19:19:19Z</time>
      </trkpt>
      <trkpt lat="48.70587" lon="5.44237">
        <ele>343</ele>
        <time>2020-06-29T19:19:20Z</time>
      </trkpt>
      <trkpt lat="48.70587" lon="5.44236">
        <ele>343.1</ele>
        <time>2020-06-29T19:19:21Z</time>
      </trkpt>
      <trkpt lat="48.70587" lon="5.44231">
        <ele>343.3</ele>
        <time>2020-06-29T19:19:22Z</time>
      </trkpt>
      <trkpt lat="48.70587" lon="5.4423">
        <ele>343.3</ele>
        <time>2020-06-29T19:19:23Z</time>
      </trkpt>
      <trkpt lat="48.70588" lon="5.44228">
        <ele>343.4</ele>
        <time>2020-06-29T19:19:24Z</time>
      </trkpt>
      <trkpt lat="48.70587" lon="5.44225">
        <ele>343.5</ele>
        <time>2020-06-29T19:19:25Z</time>
      </trkpt>
      <trkpt lat="48.70587" lon="5.44222">
        <ele>343.6</ele>
        <time>2020-06-29T19:19:26Z</time>
      </trkpt>
      <trkpt lat="48.70587" lon="5.4422">
        <ele>343.7</ele>
        <time>2020-06-29T19:19:27Z</time>
      </trkpt>
      <trkpt lat="48.70586" lon="5.44216">
        <ele>343.9</ele>
        <time>2020-06-29T19:19:28Z</time>
      </trkpt>
      <trkpt lat="48.70586" lon="5.44214">
        <ele>344</ele>
        <time>2020-06-29T19:19:29Z</time>
      </trkpt>
      <trkpt lat="48.70586" lon="5.44209">
        <ele>344.2</ele>
        <time>2020-06-29T19:19:30Z</time>
      </trkpt>
      <trkpt lat="48.70586" lon="5.44208">
        <ele>344.3</ele>
        <time>2020-06-29T19:19:31Z</time>
      </trkpt>
      <trkpt lat="48.70585" lon="5.44205">
        <ele>344.4</ele>
        <time>2020-06-29T19:19:32Z</time>
      </trkpt>
      <trkpt lat="48.70585" lon="5.44204">
        <ele>344.5</ele>
        <time>2020-06-29T19:19:33Z</time>
      </trkpt>
      <trkpt lat="48.70584" lon="5.44203">
        <ele>344.5</ele>
        <time>2020-06-29T19:19:34Z</time>
      </trkpt>
      <trkpt lat="48.70583" lon="5.44203">
        <ele>344.6</ele>
        <time>2020-06-29T19:19:35Z</time>
      </trkpt>
      <trkpt lat="48.70582" lon="5.442">
        <ele>344.7</ele>
        <time>2020-06-29T19:19:36Z</time>
      </trkpt>
      <trkpt lat="48.70582" lon="5.44198">
        <ele>344.9</ele>
        <time>2020-06-29T19:19:37Z</time>
      </trkpt>
      <trkpt lat="48.70581" lon="5.44196">
        <ele>345</ele>
        <time>2020-06-29T19:19:38Z</time>
      </trkpt>
      <trkpt lat="48.7058" lon="5.44194">
        <ele>345.2</ele>
        <time>2020-06-29T19:19:39Z</time>
      </trkpt>
      <trkpt lat="48.70579" lon="5.44192">
        <ele>345.2</ele>
        <time>2020-06-29T19:19:40Z</time>
      </trkpt>
      <trkpt lat="48.70579" lon="5.44191">
        <ele>345.3</ele>
        <time>2020-06-29T19:19:41Z</time>
      </trkpt>
      <trkpt lat="48.70578" lon="5.44188">
        <ele>345.5</ele>
        <time>2020-06-29T19:19:42Z</time>
      </trkpt>
      <trkpt lat="48.70577" lon="5.44186">
        <ele>345.6</ele>
        <time>2020-06-29T19:19:43Z</time>
      </trkpt>
      <trkpt lat="48.70576" lon="5.44186">
        <ele>345.6</ele>
        <time>2020-06-29T19:19:44Z</time>
      </trkpt>
      <trkpt lat="48.70576" lon="5.44185">
        <ele>345.6</ele>
        <time>2020-06-29T19:19:45Z</time>
      </trkpt>
      <trkpt lat="48.70575" lon="5.44183">
        <ele>345.6</ele>
        <time>2020-06-29T19:19:46Z</time>
      </trkpt>
      <trkpt lat="48.70573" lon="5.44181">
        <ele>345.5</ele>
        <time>2020-06-29T19:19:47Z</time>
      </trkpt>
      <trkpt lat="48.70572" lon="5.4418">
        <ele>345.5</ele>
        <time>2020-06-29T19:19:48Z</time>
      </trkpt>
      <trkpt lat="48.70572" lon="5.44179">
        <ele>345.5</ele>
        <time>2020-06-29T19:19:49Z</time>
      </trkpt>
      <trkpt lat="48.7057" lon="5.44178">
        <ele>345.4</ele>
        <time>2020-06-29T19:19:50Z</time>
      </trkpt>
      <trkpt lat="48.70569" lon="5.44177">
        <ele>345.4</ele>
        <time>2020-06-29T19:19:51Z</time>
      </trkpt>
      <trkpt lat="48.70569" lon="5.44176">
        <ele>345.4</ele>
        <time>2020-06-29T19:19:52Z</time>
      </trkpt>
      <trkpt lat="48.70568" lon="5.44175">
        <ele>345.4</ele>
        <time>2020-06-29T19:19:53Z</time>
      </trkpt>
      <trkpt lat="48.70568" lon="5.44175">
        <ele>345.4</ele>
        <time>2020-06-29T19:19:54Z</time>
      </trkpt>
      <trkpt lat="48.70568" lon="5.44175">
        <ele>345.4</ele>
        <time>2020-06-29T19:19:55Z</time>
      </trkpt>
      <trkpt lat="48.70569" lon="5.44176">
        <ele>345.4</ele>
        <time>2020-06-29T19:19:56Z</time>
      </trkpt>
      <trkpt lat="48.70569" lon="5.44176">
        <ele>345.4</ele>
        <time>2020-06-29T19:19:57Z</time>
      </trkpt>
      <trkpt lat="48.70569" lon="5.44177">
        <ele>345.4</ele>
        <time>2020-06-29T19:19:58Z</time>
      </trkpt>
      <trkpt lat="48.70569" lon="5.44177">
        <ele>345.4</ele>
        <time>2020-06-29T19:19:59Z</time>
      </trkpt>
      <trkpt lat="48.70569" lon="5.44178">
        <ele>345.4</ele>
        <time>2020-06-29T19:20:00Z</time>
      </trkpt>
      <trkpt lat="48.70569" lon="5.44178">
        <ele>345.3</ele>
        <time>2020-06-29T19:20:01Z</time>
      </trkpt>
      <trkpt lat="48.70569" lon="5.44179">
        <ele>345.3</ele>
        <time>2020-06-29T19:20:02Z</time>
      </trkpt>
      <trkpt lat="48.70569" lon="5.44179">
        <ele>345.3</ele>
        <time>2020-06-29T19:20:03Z</time>
      </trkpt>
      <trkpt lat="48.7057" lon="5.4418">
        <ele>345.3</ele>
        <time>2020-06-29T19:20:04Z</time>
      </trkpt>
      <trkpt lat="48.7057" lon="5.4418">
        <ele>345.3</ele>
        <time>2020-06-29T19:20:05Z</time>
      </trkpt>
      <trkpt lat="48.7057" lon="5.4418">
        <ele>345.3</ele>
        <time>2020-06-29T19:20:06Z</time>
      </trkpt>
      <trkpt lat="48.7057" lon="5.44181">
        <ele>345.3</ele>
        <time>2020-06-29T19:20:07Z</time>
      </trkpt>
      <trkpt lat="48.7057" lon="5.44181">
        <ele>345.3</ele>
        <time>2020-06-29T19:20:29Z</time>
      </trkpt>
      <trkpt lat="48.7057" lon="5.44182">
        <ele>345.3</ele>
        <time>2020-06-29T19:20:30Z</time>
      </trkpt>
      <trkpt lat="48.70573" lon="5.44185">
        <ele>345.2</ele>
        <time>2020-06-29T19:20:31Z</time>
      </trkpt>
      <trkpt lat="48.70574" lon="5.44185">
        <ele>345.2</ele>
        <time>2020-06-29T19:20:32Z</time>
      </trkpt>
      <trkpt lat="48.70575" lon="5.44186">
        <ele>345.2</ele>
        <time>2020-06-29T19:20:33Z</time>
      </trkpt>
      <trkpt lat="48.70576" lon="5.44186">
        <ele>345.2</ele>
        <time>2020-06-29T19:20:34Z</time>
      </trkpt>
      <trkpt lat="48.70578" lon="5.44188">
        <ele>345.1</ele>
        <time>2020-06-29T19:20:35Z</time>
      </trkpt>
      <trkpt lat="48.70579" lon="5.4419">
        <ele>345.1</ele>
        <time>2020-06-29T19:20:36Z</time>
      </trkpt>
      <trkpt lat="48.7058" lon="5.44191">
        <ele>345.1</ele>
        <time>2020-06-29T19:20:37Z</time>
      </trkpt>
      <trkpt lat="48.70582" lon="5.44192">
        <ele>345</ele>
        <time>2020-06-29T19:20:38Z</time>
      </trkpt>
      <trkpt lat="48.70583" lon="5.44192">
        <ele>345</ele>
        <time>2020-06-29T19:20:39Z</time>
      </trkpt>
      <trkpt lat="48.70584" lon="5.44192">
        <ele>344.7</ele>
        <time>2020-06-29T19:20:40Z</time>
      </trkpt>
      <trkpt lat="48.70584" lon="5.44192">
        <ele>344.7</ele>
        <time>2020-06-29T19:20:41Z</time>
      </trkpt>
      <trkpt lat="48.70585" lon="5.44192">
        <ele>344.7</ele>
        <time>2020-06-29T19:20:42Z</time>
      </trkpt>
      <trkpt lat="48.70585" lon="5.44192">
        <ele>344.7</ele>
        <time>2020-06-29T19:20:43Z</time>
      </trkpt>
      <trkpt lat="48.70586" lon="5.44192">
        <ele>344.6</ele>
        <time>2020-06-29T19:20:44Z</time>
      </trkpt>
      <trkpt lat="48.70586" lon="5.44193">
        <ele>344.6</ele>
        <time>2020-06-29T19:20:45Z</time>
      </trkpt>
      <trkpt lat="48.70587" lon="5.44193">
        <ele>344.6</ele>
        <time>2020-06-29T19:20:46Z</time>
      </trkpt>
      <trkpt lat="48.70587" lon="5.44192">
        <ele>344.6</ele>
        <time>2020-06-29T19:20:47Z</time>
      </trkpt>
      <trkpt lat="48.70587" lon="5.44192">
        <ele>344.6</ele>
        <time>2020-06-29T19:20:48Z</time>
      </trkpt>
      <trkpt lat="48.70587" lon="5.44192">
        <ele>344.6</ele>
        <time>2020-06-29T19:20:49Z</time>
      </trkpt>
      <trkpt lat="48.70587" lon="5.44191">
        <ele>344.6</ele>
        <time>2020-06-29T19:20:50Z</time>
      </trkpt>
      <trkpt lat="48.70587" lon="5.44192">
        <ele>344.5</ele>
        <time>2020-06-29T19:20:51Z</time>
      </trkpt>
      <trkpt lat="48.70588" lon="5.44192">
        <ele>344.5</ele>
        <time>2020-06-29T19:20:52Z</time>
      </trkpt>
      <trkpt lat="48.70588" lon="5.44191">
        <ele>344.5</ele>
        <time>2020-06-29T19:20:53Z</time>
      </trkpt>
      <trkpt lat="48.70589" lon="5.44191">
        <ele>344.5</ele>
        <time>2020-06-29T19:20:54Z</time>
      </trkpt>
      <trkpt lat="48.70589" lon="5.4419">
        <ele>344.4</ele>
        <time>2020-06-29T19:20:55Z</time>
      </trkpt>
      <trkpt lat="48.7059" lon="5.44188">
        <ele>344.4</ele>
        <time>2020-06-29T19:20:56Z</time>
      </trkpt>
      <trkpt lat="48.70591" lon="5.44188">
        <ele>344.4</ele>
        <time>2020-06-29T19:20:57Z</time>
      </trkpt>
      <trkpt lat="48.70591" lon="5.44188">
        <ele>344.3</ele>
        <time>2020-06-29T19:20:58Z</time>
      </trkpt>
      <trkpt lat="48.70591" lon="5.44188">
        <ele>344.3</ele>
        <time>2020-06-29T19:20:59Z</time>
      </trkpt>
      <trkpt lat="48.70591" lon="5.44188">
        <ele>344.3</ele>
        <time>2020-06-29T19:21:00Z</time>
      </trkpt>
      <trkpt lat="48.70591" lon="5.44188">
        <ele>344.3</ele>
        <time>2020-06-29T19:21:01Z</time>
      </trkpt>
      <trkpt lat="48.70591" lon="5.44187">
        <ele>344.3</ele>
        <time>2020-06-29T19:21:02Z</time>
      </trkpt>
      <trkpt lat="48.70591" lon="5.44186">
        <ele>344.3</ele>
        <time>2020-06-29T19:21:03Z</time>
      </trkpt>
      <trkpt lat="48.7059" lon="5.44186">
        <ele>344.3</ele>
        <time>2020-06-29T19:21:04Z</time>
      </trkpt>
      <trkpt lat="48.7059" lon="5.44185">
        <ele>344.2</ele>
        <time>2020-06-29T19:21:05Z</time>
      </trkpt>
      <trkpt lat="48.7059" lon="5.44185">
        <ele>344.2</ele>
        <time>2020-06-29T19:21:06Z</time>
      </trkpt>
      <trkpt lat="48.70589" lon="5.44185">
        <ele>344.2</ele>
        <time>2020-06-29T19:21:07Z</time>
      </trkpt>
      <trkpt lat="48.70589" lon="5.44185">
        <ele>344.2</ele>
        <time>2020-06-29T19:21:08Z</time>
      </trkpt>
      <trkpt lat="48.70589" lon="5.44185">
        <ele>344.2</ele>
        <time>2020-06-29T19:21:09Z</time>
      </trkpt>
      <trkpt lat="48.70592" lon="5.44197">
        <ele>343.9</ele>
        <time>2020-06-29T19:27:19Z</time>
      </trkpt>
      <trkpt lat="48.70591" lon="5.44202">
        <ele>343.8</ele>
        <time>2020-06-29T19:27:20Z</time>
      </trkpt>
      <trkpt lat="48.7059" lon="5.44208">
        <ele>343.6</ele>
        <time>2020-06-29T19:27:21Z</time>
      </trkpt>
      <trkpt lat="48.70588" lon="5.44213">
        <ele>343.5</ele>
        <time>2020-06-29T19:27:22Z</time>
      </trkpt>
      <trkpt lat="48.70587" lon="5.44219">
        <ele>343.3</ele>
        <time>2020-06-29T19:27:23Z</time>
      </trkpt>
      <trkpt lat="48.70585" lon="5.44225">
        <ele>343.2</ele>
        <time>2020-06-29T19:27:24Z</time>
      </trkpt>
      <trkpt lat="48.70583" lon="5.44234">
        <ele>343</ele>
        <time>2020-06-29T19:27:25Z</time>
      </trkpt>
      <trkpt lat="48.70583" lon="5.4424">
        <ele>342.8</ele>
        <time>2020-06-29T19:27:26Z</time>
      </trkpt>
      <trkpt lat="48.70584" lon="5.44245">
        <ele>342.7</ele>
        <time>2020-06-29T19:27:27Z</time>
      </trkpt>
      <trkpt lat="48.70585" lon="5.44249">
        <ele>342.4</ele>
        <time>2020-06-29T19:27:28Z</time>
      </trkpt>
      <trkpt lat="48.70586" lon="5.4425">
        <ele>342.4</ele>
        <time>2020-06-29T19:27:29Z</time>
      </trkpt>
      <trkpt lat="48.70587" lon="5.44254">
        <ele>342.2</ele>
        <time>2020-06-29T19:27:30Z</time>
      </trkpt>
      <trkpt lat="48.70587" lon="5.44256">
        <ele>342.1</ele>
        <time>2020-06-29T19:27:31Z</time>
      </trkpt>
      <trkpt lat="48.70587" lon="5.4426">
        <ele>341.9</ele>
        <time>2020-06-29T19:27:32Z</time>
      </trkpt>
      <trkpt lat="48.70588" lon="5.44266">
        <ele>341.7</ele>
        <time>2020-06-29T19:27:33Z</time>
      </trkpt>
      <trkpt lat="48.70588" lon="5.44268">
        <ele>341.6</ele>
        <time>2020-06-29T19:27:34Z</time>
      </trkpt>
      <trkpt lat="48.7059" lon="5.44272">
        <ele>341.4</ele>
        <time>2020-06-29T19:27:35Z</time>
      </trkpt>
      <trkpt lat="48.70592" lon="5.44276">
        <ele>341.1</ele>
        <time>2020-06-29T19:27:36Z</time>
      </trkpt>
      <trkpt lat="48.70593" lon="5.44282">
        <ele>340.9</ele>
        <time>2020-06-29T19:27:37Z</time>
      </trkpt>
      <trkpt lat="48.70595" lon="5.44287">
        <ele>340.7</ele>
        <time>2020-06-29T19:27:38Z</time>
      </trkpt>
      <trkpt lat="48.70596" lon="5.44289">
        <ele>340.6</ele>
        <time>2020-06-29T19:27:39Z</time>
      </trkpt>
      <trkpt lat="48.70598" lon="5.44293">
        <ele>340.4</ele>
        <time>2020-06-29T19:27:40Z</time>
      </trkpt>
      <trkpt lat="48.70599" lon="5.44297">
        <ele>340.2</ele>
        <time>2020-06-29T19:27:41Z</time>
      </trkpt>
      <trkpt lat="48.706" lon="5.44299">
        <ele>340.1</ele>
        <time>2020-06-29T19:27:42Z</time>
      </trkpt>
      <trkpt lat="48.70601" lon="5.44301">
        <ele>340</ele>
        <time>2020-06-29T19:27:43Z</time>
      </trkpt>
      <trkpt lat="48.70601" lon="5.44302">
        <ele>340</ele>
        <time>2020-06-29T19:27:44Z</time>
      </trkpt>
      <trkpt lat="48.70602" lon="5.44306">
        <ele>339.9</ele>
        <time>2020-06-29T19:27:45Z</time>
      </trkpt>
      <trkpt lat="48.70604" lon="5.4431">
        <ele>339.7</ele>
        <time>2020-06-29T19:27:46Z</time>
      </trkpt>
      <trkpt lat="48.70604" lon="5.44312">
        <ele>339.6</ele>
        <time>2020-06-29T19:27:47Z</time>
      </trkpt>
      <trkpt lat="48.70605" lon="5.44317">
        <ele>339.4</ele>
        <time>2020-06-29T19:27:48Z</time>
      </trkpt>
      <trkpt lat="48.70606" lon="5.44317">
        <ele>339.4</ele>
        <time>2020-06-29T19:27:49Z</time>
      </trkpt>
      <trkpt lat="48.70607" lon="5.44319">
        <ele>339.3</ele>
        <time>2020-06-29T19:27:50Z</time>
      </trkpt>
      <trkpt lat="48.70607" lon="5.44322">
        <ele>339.2</ele>
        <time>2020-06-29T19:27:51Z</time>
      </trkpt>
      <trkpt lat="48.70608" lon="5.44324">
        <ele>339.1</ele>
        <time>2020-06-29T19:27:52Z</time>
      </trkpt>
      <trkpt lat="48.70609" lon="5.44325">
        <ele>339</ele>
        <time>2020-06-29T19:27:53Z</time>
      </trkpt>
      <trkpt lat="48.70609" lon="5.44328">
        <ele>338.9</ele>
        <time>2020-06-29T19:27:54Z</time>
      </trkpt>
      <trkpt lat="48.7061" lon="5.4433">
        <ele>338.8</ele>
        <time>2020-06-29T19:27:55Z</time>
      </trkpt>
      <trkpt lat="48.70611" lon="5.44331">
        <ele>338.7</ele>
        <time>2020-06-29T19:27:56Z</time>
      </trkpt>
      <trkpt lat="48.70613" lon="5.44332">
        <ele>338.6</ele>
        <time>2020-06-29T19:27:57Z</time>
      </trkpt>
      <trkpt lat="48.70613" lon="5.44333">
        <ele>338.5</ele>
        <time>2020-06-29T19:27:58Z</time>
      </trkpt>
      <trkpt lat="48.70615" lon="5.44336">
        <ele>338.4</ele>
        <time>2020-06-29T19:27:59Z</time>
      </trkpt>
      <trkpt lat="48.70617" lon="5.44341">
        <ele>338.1</ele>
        <time>2020-06-29T19:28:00Z</time>
      </trkpt>
      <trkpt lat="48.70618" lon="5.44343">
        <ele>338</ele>
        <time>2020-06-29T19:28:01Z</time>
      </trkpt>
      <trkpt lat="48.7062" lon="5.44346">
        <ele>337.8</ele>
        <time>2020-06-29T19:28:02Z</time>
      </trkpt>
      <trkpt lat="48.70622" lon="5.44349">
        <ele>337.6</ele>
        <time>2020-06-29T19:28:03Z</time>
      </trkpt>
      <trkpt lat="48.70624" lon="5.44351">
        <ele>337.4</ele>
        <time>2020-06-29T19:28:04Z</time>
      </trkpt>
      <trkpt lat="48.70627" lon="5.44354">
        <ele>337.2</ele>
        <time>2020-06-29T19:28:05Z</time>
      </trkpt>
      <trkpt lat="48.7063" lon="5.44356">
        <ele>337</ele>
        <time>2020-06-29T19:28:06Z</time>
      </trkpt>
      <trkpt lat="48.70632" lon="5.44358">
        <ele>336.8</ele>
        <time>2020-06-29T19:28:07Z</time>
      </trkpt>
      <trkpt lat="48.70636" lon="5.44359">
        <ele>336.6</ele>
        <time>2020-06-29T19:28:08Z</time>
      </trkpt>
      <trkpt lat="48.70639" lon="5.44362">
        <ele>336.5</ele>
        <time>2020-06-29T19:28:09Z</time>
      </trkpt>
      <trkpt lat="48.7064" lon="5.44363">
        <ele>336.4</ele>
        <time>2020-06-29T19:28:10Z</time>
      </trkpt>
      <trkpt lat="48.70643" lon="5.44367">
        <ele>336.2</ele>
        <time>2020-06-29T19:28:11Z</time>
      </trkpt>
      <trkpt lat="48.70644" lon="5.44368">
        <ele>336.1</ele>
        <time>2020-06-29T19:28:12Z</time>
      </trkpt>
      <trkpt lat="48.70647" lon="5.44371">
        <ele>336</ele>
        <time>2020-06-29T19:28:13Z</time>
      </trkpt>
      <trkpt lat="48.70651" lon="5.44374">
        <ele>335.8</ele>
        <time>2020-06-29T19:28:14Z</time>
      </trkpt>
      <trkpt lat="48.70654" lon="5.44376">
        <ele>335.6</ele>
        <time>2020-06-29T19:28:15Z</time>
      </trkpt>
      <trkpt lat="48.70658" lon="5.44379">
        <ele>335.4</ele>
        <time>2020-06-29T19:28:16Z</time>
      </trkpt>
      <trkpt lat="48.70661" lon="5.44381">
        <ele>335.2</ele>
        <time>2020-06-29T19:28:17Z</time>
      </trkpt>
      <trkpt lat="48.70665" lon="5.44383">
        <ele>335.1</ele>
        <time>2020-06-29T19:28:18Z</time>
      </trkpt>
      <trkpt lat="48.70668" lon="5.44386">
        <ele>334.9</ele>
        <time>2020-06-29T19:28:19Z</time>
      </trkpt>
      <trkpt lat="48.70672" lon="5.44388">
        <ele>334.7</ele>
        <time>2020-06-29T19:28:20Z</time>
      </trkpt>
      <trkpt lat="48.70676" lon="5.4439">
        <ele>334.6</ele>
        <time>2020-06-29T19:28:21Z</time>
      </trkpt>
      <trkpt lat="48.7068" lon="5.44392">
        <ele>334.4</ele>
        <time>2020-06-29T19:28:22Z</time>
      </trkpt>
      <trkpt lat="48.70684" lon="5.44395">
        <ele>334.3</ele>
        <time>2020-06-29T19:28:23Z</time>
      </trkpt>
      <trkpt lat="48.70688" lon="5.44396">
        <ele>334.2</ele>
        <time>2020-06-29T19:28:24Z</time>
      </trkpt>
      <trkpt lat="48.70692" lon="5.44398">
        <ele>334</ele>
        <time>2020-06-29T19:28:25Z</time>
      </trkpt>
      <trkpt lat="48.70696" lon="5.44399">
        <ele>333.9</ele>
        <time>2020-06-29T19:28:26Z</time>
      </trkpt>
      <trkpt lat="48.70699" lon="5.44401">
        <ele>333.7</ele>
        <time>2020-06-29T19:28:27Z</time>
      </trkpt>
      <trkpt lat="48.70703" lon="5.44403">
        <ele>333.6</ele>
        <time>2020-06-29T19:28:28Z</time>
      </trkpt>
      <trkpt lat="48.70705" lon="5.44405">
        <ele>333.5</ele>
        <time>2020-06-29T19:28:29Z</time>
      </trkpt>
      <trkpt lat="48.70707" lon="5.44408">
        <ele>333.4</ele>
        <time>2020-06-29T19:28:30Z</time>
      </trkpt>
      <trkpt lat="48.70708" lon="5.44409">
        <ele>333.3</ele>
        <time>2020-06-29T19:28:31Z</time>
      </trkpt>
      <trkpt lat="48.70709" lon="5.44413">
        <ele>333.2</ele>
        <time>2020-06-29T19:28:32Z</time>
      </trkpt>
      <trkpt lat="48.7071" lon="5.44414">
        <ele>333.2</ele>
        <time>2020-06-29T19:28:33Z</time>
      </trkpt>
      <trkpt lat="48.70713" lon="5.44417">
        <ele>333.1</ele>
        <time>2020-06-29T19:28:34Z</time>
      </trkpt>
      <trkpt lat="48.70714" lon="5.44419">
        <ele>333</ele>
        <time>2020-06-29T19:28:35Z</time>
      </trkpt>
      <trkpt lat="48.70717" lon="5.44422">
        <ele>332.9</ele>
        <time>2020-06-29T19:28:36Z</time>
      </trkpt>
      <trkpt lat="48.70718" lon="5.44423">
        <ele>332.8</ele>
        <time>2020-06-29T19:28:37Z</time>
      </trkpt>
      <trkpt lat="48.70721" lon="5.44425">
        <ele>332.7</ele>
        <time>2020-06-29T19:28:38Z</time>
      </trkpt>
      <trkpt lat="48.70724" lon="5.44427">
        <ele>332.6</ele>
        <time>2020-06-29T19:28:39Z</time>
      </trkpt>
      <trkpt lat="48.70727" lon="5.44429">
        <ele>332.4</ele>
        <time>2020-06-29T19:28:40Z</time>
      </trkpt>
      <trkpt lat="48.7073" lon="5.44433">
        <ele>332.3</ele>
        <time>2020-06-29T19:28:41Z</time>
      </trkpt>
      <trkpt lat="48.70733" lon="5.44436">
        <ele>332.1</ele>
        <time>2020-06-29T19:28:42Z</time>
      </trkpt>
      <trkpt lat="48.70736" lon="5.44438">
        <ele>332</ele>
        <time>2020-06-29T19:28:43Z</time>
      </trkpt>
      <trkpt lat="48.70738" lon="5.44442">
        <ele>331.8</ele>
        <time>2020-06-29T19:28:44Z</time>
      </trkpt>
      <trkpt lat="48.70739" lon="5.44443">
        <ele>331.8</ele>
        <time>2020-06-29T19:28:45Z</time>
      </trkpt>
      <trkpt lat="48.70742" lon="5.44446">
        <ele>331.7</ele>
        <time>2020-06-29T19:28:46Z</time>
      </trkpt>
      <trkpt lat="48.70743" lon="5.44447">
        <ele>331.6</ele>
        <time>2020-06-29T19:28:47Z</time>
      </trkpt>
      <trkpt lat="48.70745" lon="5.44448">
        <ele>331.5</ele>
        <time>2020-06-29T19:28:48Z</time>
      </trkpt>
      <trkpt lat="48.70749" lon="5.4445">
        <ele>331.4</ele>
        <time>2020-06-29T19:28:49Z</time>
      </trkpt>
      <trkpt lat="48.7075" lon="5.4445">
        <ele>331.3</ele>
        <time>2020-06-29T19:28:50Z</time>
      </trkpt>
      <trkpt lat="48.70754" lon="5.44452">
        <ele>331.2</ele>
        <time>2020-06-29T19:28:51Z</time>
      </trkpt>
      <trkpt lat="48.70755" lon="5.44453">
        <ele>331.1</ele>
        <time>2020-06-29T19:28:52Z</time>
      </trkpt>
      <trkpt lat="48.70758" lon="5.44453">
        <ele>331</ele>
        <time>2020-06-29T19:28:53Z</time>
      </trkpt>
      <trkpt lat="48.70761" lon="5.44454">
        <ele>330.9</ele>
        <time>2020-06-29T19:28:54Z</time>
      </trkpt>
      <trkpt lat="48.70765" lon="5.44456">
        <ele>330.7</ele>
        <time>2020-06-29T19:28:55Z</time>
      </trkpt>
      <trkpt lat="48.70768" lon="5.44458">
        <ele>330.5</ele>
        <time>2020-06-29T19:28:56Z</time>
      </trkpt>
      <trkpt lat="48.70772" lon="5.4446">
        <ele>330.4</ele>
        <time>2020-06-29T19:28:57Z</time>
      </trkpt>
      <trkpt lat="48.70775" lon="5.44462">
        <ele>330.2</ele>
        <time>2020-06-29T19:28:58Z</time>
      </trkpt>
      <trkpt lat="48.70779" lon="5.44465">
        <ele>330</ele>
        <time>2020-06-29T19:28:59Z</time>
      </trkpt>
      <trkpt lat="48.70782" lon="5.44468">
        <ele>329.9</ele>
        <time>2020-06-29T19:29:00Z</time>
      </trkpt>
      <trkpt lat="48.70784" lon="5.44471">
        <ele>329.7</ele>
        <time>2020-06-29T19:29:01Z</time>
      </trkpt>
      <trkpt lat="48.70787" lon="5.44474">
        <ele>329.6</ele>
        <time>2020-06-29T19:29:02Z</time>
      </trkpt>
      <trkpt lat="48.7079" lon="5.44477">
        <ele>329.4</ele>
        <time>2020-06-29T19:29:03Z</time>
      </trkpt>
      <trkpt lat="48.70793" lon="5.4448">
        <ele>329.3</ele>
        <time>2020-06-29T19:29:04Z</time>
      </trkpt>
      <trkpt lat="48.70796" lon="5.44482">
        <ele>329.2</ele>
        <time>2020-06-29T19:29:05Z</time>
      </trkpt>
      <trkpt lat="48.70799" lon="5.44484">
        <ele>329.1</ele>
        <time>2020-06-29T19:29:06Z</time>
      </trkpt>
      <trkpt lat="48.70802" lon="5.44488">
        <ele>328.9</ele>
        <time>2020-06-29T19:29:07Z</time>
      </trkpt>
      <trkpt lat="48.70806" lon="5.44491">
        <ele>328.8</ele>
        <time>2020-06-29T19:29:08Z</time>
      </trkpt>
      <trkpt lat="48.7081" lon="5.44494">
        <ele>328.6</ele>
        <time>2020-06-29T19:29:09Z</time>
      </trkpt>
      <trkpt lat="48.70815" lon="5.44496">
        <ele>328.4</ele>
        <time>2020-06-29T19:29:10Z</time>
      </trkpt>
      <trkpt lat="48.70819" lon="5.445">
        <ele>328.1</ele>
        <time>2020-06-29T19:29:11Z</time>
      </trkpt>
      <trkpt lat="48.70823" lon="5.44502">
        <ele>327.9</ele>
        <time>2020-06-29T19:29:12Z</time>
      </trkpt>
      <trkpt lat="48.70828" lon="5.44504">
        <ele>327.7</ele>
        <time>2020-06-29T19:29:13Z</time>
      </trkpt>
      <trkpt lat="48.70832" lon="5.44506">
        <ele>327.5</ele>
        <time>2020-06-29T19:29:14Z</time>
      </trkpt>
      <trkpt lat="48.70836" lon="5.44508">
        <ele>327.4</ele>
        <time>2020-06-29T19:29:15Z</time>
      </trkpt>
      <trkpt lat="48.7084" lon="5.44511">
        <ele>327.2</ele>
        <time>2020-06-29T19:29:16Z</time>
      </trkpt>
      <trkpt lat="48.70844" lon="5.44515">
        <ele>327.1</ele>
        <time>2020-06-29T19:29:17Z</time>
      </trkpt>
      <trkpt lat="48.70847" lon="5.44517">
        <ele>327</ele>
        <time>2020-06-29T19:29:18Z</time>
      </trkpt>
      <trkpt lat="48.7085" lon="5.44519">
        <ele>326.9</ele>
        <time>2020-06-29T19:29:19Z</time>
      </trkpt>
      <trkpt lat="48.70854" lon="5.44521">
        <ele>326.8</ele>
        <time>2020-06-29T19:29:20Z</time>
      </trkpt>
      <trkpt lat="48.70856" lon="5.44523">
        <ele>326.7</ele>
        <time>2020-06-29T19:29:21Z</time>
      </trkpt>
      <trkpt lat="48.70859" lon="5.44525">
        <ele>326.7</ele>
        <time>2020-06-29T19:29:22Z</time>
      </trkpt>
      <trkpt lat="48.70862" lon="5.44528">
        <ele>326.6</ele>
        <time>2020-06-29T19:29:23Z</time>
      </trkpt>
      <trkpt lat="48.70865" lon="5.44529">
        <ele>326.5</ele>
        <time>2020-06-29T19:29:24Z</time>
      </trkpt>
      <trkpt lat="48.70868" lon="5.44531">
        <ele>326.4</ele>
        <time>2020-06-29T19:29:25Z</time>
      </trkpt>
      <trkpt lat="48.70871" lon="5.44534">
        <ele>326.3</ele>
        <time>2020-06-29T19:29:26Z</time>
      </trkpt>
      <trkpt lat="48.70874" lon="5.44536">
        <ele>326.3</ele>
        <time>2020-06-29T19:29:27Z</time>
      </trkpt>
      <trkpt lat="48.70877" lon="5.44538">
        <ele>326.2</ele>
        <time>2020-06-29T19:29:28Z</time>
      </trkpt>
      <trkpt lat="48.70879" lon="5.4454">
        <ele>326.1</ele>
        <time>2020-06-29T19:29:29Z</time>
      </trkpt>
      <trkpt lat="48.70883" lon="5.44541">
        <ele>326</ele>
        <time>2020-06-29T19:29:30Z</time>
      </trkpt>
      <trkpt lat="48.70884" lon="5.44542">
        <ele>326</ele>
        <time>2020-06-29T19:29:31Z</time>
      </trkpt>
      <trkpt lat="48.70888" lon="5.44544">
        <ele>325.9</ele>
        <time>2020-06-29T19:29:32Z</time>
      </trkpt>
      <trkpt lat="48.70889" lon="5.44545">
        <ele>325.9</ele>
        <time>2020-06-29T19:29:33Z</time>
      </trkpt>
      <trkpt lat="48.70893" lon="5.44547">
        <ele>325.8</ele>
        <time>2020-06-29T19:29:34Z</time>
      </trkpt>
      <trkpt lat="48.70895" lon="5.4455">
        <ele>325.7</ele>
        <time>2020-06-29T19:29:35Z</time>
      </trkpt>
      <trkpt lat="48.70898" lon="5.44551">
        <ele>325.7</ele>
        <time>2020-06-29T19:29:36Z</time>
      </trkpt>
      <trkpt lat="48.70901" lon="5.44553">
        <ele>325.6</ele>
        <time>2020-06-29T19:29:37Z</time>
      </trkpt>
      <trkpt lat="48.70903" lon="5.44556">
        <ele>325.6</ele>
        <time>2020-06-29T19:29:38Z</time>
      </trkpt>
      <trkpt lat="48.70906" lon="5.44559">
        <ele>325.5</ele>
        <time>2020-06-29T19:29:39Z</time>
      </trkpt>
      <trkpt lat="48.70908" lon="5.44559">
        <ele>325.5</ele>
        <time>2020-06-29T19:29:40Z</time>
      </trkpt>
      <trkpt lat="48.7091" lon="5.44562">
        <ele>325.5</ele>
        <time>2020-06-29T19:29:41Z</time>
      </trkpt>
      <trkpt lat="48.70914" lon="5.44562">
        <ele>325.4</ele>
        <time>2020-06-29T19:29:42Z</time>
      </trkpt>
      <trkpt lat="48.70916" lon="5.44562">
        <ele>325.4</ele>
        <time>2020-06-29T19:29:43Z</time>
      </trkpt>
      <trkpt lat="48.70918" lon="5.44563">
        <ele>325.4</ele>
        <time>2020-06-29T19:29:44Z</time>
      </trkpt>
      <trkpt lat="48.70921" lon="5.44564">
        <ele>325.3</ele>
        <time>2020-06-29T19:29:45Z</time>
      </trkpt>
      <trkpt lat="48.70923" lon="5.44567">
        <ele>325.3</ele>
        <time>2020-06-29T19:29:46Z</time>
      </trkpt>
      <trkpt lat="48.70926" lon="5.44569">
        <ele>325.3</ele>
        <time>2020-06-29T19:29:47Z</time>
      </trkpt>
      <trkpt lat="48.70929" lon="5.44572">
        <ele>325.3</ele>
        <time>2020-06-29T19:29:48Z</time>
      </trkpt>
      <trkpt lat="48.70931" lon="5.44574">
        <ele>325.3</ele>
        <time>2020-06-29T19:29:49Z</time>
      </trkpt>
      <trkpt lat="48.70934" lon="5.44577">
        <ele>325.3</ele>
        <time>2020-06-29T19:29:50Z</time>
      </trkpt>
      <trkpt lat="48.70937" lon="5.44578">
        <ele>325.2</ele>
        <time>2020-06-29T19:29:51Z</time>
      </trkpt>
      <trkpt lat="48.70939" lon="5.4458">
        <ele>325.2</ele>
        <time>2020-06-29T19:29:52Z</time>
      </trkpt>
      <trkpt lat="48.70943" lon="5.44583">
        <ele>325.1</ele>
        <time>2020-06-29T19:29:53Z</time>
      </trkpt>
      <trkpt lat="48.70944" lon="5.44583">
        <ele>325.1</ele>
        <time>2020-06-29T19:29:54Z</time>
      </trkpt>
      <trkpt lat="48.70947" lon="5.44584">
        <ele>325</ele>
        <time>2020-06-29T19:29:55Z</time>
      </trkpt>
      <trkpt lat="48.7095" lon="5.44585">
        <ele>324.8</ele>
        <time>2020-06-29T19:29:56Z</time>
      </trkpt>
      <trkpt lat="48.70953" lon="5.44586">
        <ele>324.8</ele>
        <time>2020-06-29T19:29:57Z</time>
      </trkpt>
      <trkpt lat="48.70956" lon="5.44589">
        <ele>324.8</ele>
        <time>2020-06-29T19:29:58Z</time>
      </trkpt>
      <trkpt lat="48.70959" lon="5.44591">
        <ele>324.8</ele>
        <time>2020-06-29T19:29:59Z</time>
      </trkpt>
      <trkpt lat="48.70962" lon="5.44591">
        <ele>324.8</ele>
        <time>2020-06-29T19:30:00Z</time>
      </trkpt>
      <trkpt lat="48.70964" lon="5.44593">
        <ele>324.7</ele>
        <time>2020-06-29T19:30:01Z</time>
      </trkpt>
      <trkpt lat="48.70967" lon="5.44595">
        <ele>324.7</ele>
        <time>2020-06-29T19:30:02Z</time>
      </trkpt>
      <trkpt lat="48.7097" lon="5.44597">
        <ele>324.7</ele>
        <time>2020-06-29T19:30:03Z</time>
      </trkpt>
      <trkpt lat="48.70973" lon="5.44598">
        <ele>324.7</ele>
        <time>2020-06-29T19:30:04Z</time>
      </trkpt>
      <trkpt lat="48.70975" lon="5.44599">
        <ele>324.7</ele>
        <time>2020-06-29T19:30:05Z</time>
      </trkpt>
      <trkpt lat="48.70978" lon="5.44601">
        <ele>324.7</ele>
        <time>2020-06-29T19:30:06Z</time>
      </trkpt>
      <trkpt lat="48.70981" lon="5.44602">
        <ele>324.7</ele>
        <time>2020-06-29T19:30:07Z</time>
      </trkpt>
      <trkpt lat="48.70984" lon="5.44602">
        <ele>324.7</ele>
        <time>2020-06-29T19:30:08Z</time>
      </trkpt>
      <trkpt lat="48.70984" lon="5.44601">
        <ele>324.6</ele>
        <time>2020-06-29T19:30:09Z</time>
      </trkpt>
      <trkpt lat="48.70987" lon="5.446">
        <ele>324.6</ele>
        <time>2020-06-29T19:30:10Z</time>
      </trkpt>
      <trkpt lat="48.70988" lon="5.446">
        <ele>324.6</ele>
        <time>2020-06-29T19:30:11Z</time>
      </trkpt>
      <trkpt lat="48.70991" lon="5.44602">
        <ele>324.6</ele>
        <time>2020-06-29T19:30:12Z</time>
      </trkpt>
      <trkpt lat="48.70992" lon="5.44603">
        <ele>324.6</ele>
        <time>2020-06-29T19:30:13Z</time>
      </trkpt>
      <trkpt lat="48.70992" lon="5.44605">
        <ele>324.6</ele>
        <time>2020-06-29T19:30:14Z</time>
      </trkpt>
      <trkpt lat="48.70993" lon="5.44606">
        <ele>324.6</ele>
        <time>2020-06-29T19:30:15Z</time>
      </trkpt>
      <trkpt lat="48.70994" lon="5.44606">
        <ele>324.6</ele>
        <time>2020-06-29T19:30:16Z</time>
      </trkpt>
      <trkpt lat="48.70995" lon="5.44606">
        <ele>324.6</ele>
        <time>2020-06-29T19:30:17Z</time>
      </trkpt>
      <trkpt lat="48.70996" lon="5.44607">
        <ele>324.6</ele>
        <time>2020-06-29T19:30:18Z</time>
      </trkpt>
      <trkpt lat="48.70997" lon="5.44607">
        <ele>324.6</ele>
        <time>2020-06-29T19:30:19Z</time>
      </trkpt>
      <trkpt lat="48.70998" lon="5.44607">
        <ele>324.6</ele>
        <time>2020-06-29T19:30:20Z</time>
      </trkpt>
      <trkpt lat="48.70999" lon="5.44607">
        <ele>324.6</ele>
        <time>2020-06-29T19:30:21Z</time>
      </trkpt>
      <trkpt lat="48.70999" lon="5.44605">
        <ele>324.6</ele>
        <time>2020-06-29T19:30:22Z</time>
      </trkpt>
      <trkpt lat="48.70998" lon="5.446">
        <ele>324.6</ele>
        <time>2020-06-29T19:30:23Z</time>
      </trkpt>
      <trkpt lat="48.70998" lon="5.44599">
        <ele>324.5</ele>
        <time>2020-06-29T19:30:24Z</time>
      </trkpt>
      <trkpt lat="48.70996" lon="5.44599">
        <ele>324.5</ele>
        <time>2020-06-29T19:30:25Z</time>
      </trkpt>
      <trkpt lat="48.70995" lon="5.446">
        <ele>324.5</ele>
        <time>2020-06-29T19:30:26Z</time>
      </trkpt>
      <trkpt lat="48.70993" lon="5.446">
        <ele>324.5</ele>
        <time>2020-06-29T19:30:27Z</time>
      </trkpt>
      <trkpt lat="48.70992" lon="5.44602">
        <ele>324.5</ele>
        <time>2020-06-29T19:30:28Z</time>
      </trkpt>
      <trkpt lat="48.70991" lon="5.44604">
        <ele>324.5</ele>
        <time>2020-06-29T19:30:29Z</time>
      </trkpt>
      <trkpt lat="48.7099" lon="5.44605">
        <ele>324.5</ele>
        <time>2020-06-29T19:30:30Z</time>
      </trkpt>
      <trkpt lat="48.70988" lon="5.44605">
        <ele>324.5</ele>
        <time>2020-06-29T19:30:31Z</time>
      </trkpt>
      <trkpt lat="48.70987" lon="5.44605">
        <ele>324.5</ele>
        <time>2020-06-29T19:30:32Z</time>
      </trkpt>
      <trkpt lat="48.70985" lon="5.44604">
        <ele>324.5</ele>
        <time>2020-06-29T19:30:33Z</time>
      </trkpt>
      <trkpt lat="48.70984" lon="5.44604">
        <ele>324.5</ele>
        <time>2020-06-29T19:30:34Z</time>
      </trkpt>
      <trkpt lat="48.70983" lon="5.44604">
        <ele>324.5</ele>
        <time>2020-06-29T19:30:35Z</time>
      </trkpt>
      <trkpt lat="48.70982" lon="5.44604">
        <ele>324.5</ele>
        <time>2020-06-29T19:30:36Z</time>
      </trkpt>
      <trkpt lat="48.70981" lon="5.44605">
        <ele>324.6</ele>
        <time>2020-06-29T19:30:37Z</time>
      </trkpt>
      <trkpt lat="48.70981" lon="5.44606">
        <ele>324.6</ele>
        <time>2020-06-29T19:30:38Z</time>
      </trkpt>
      <trkpt lat="48.70981" lon="5.44606">
        <ele>324.6</ele>
        <time>2020-06-29T19:30:39Z</time>
      </trkpt>
      <trkpt lat="48.70981" lon="5.44605">
        <ele>324.6</ele>
        <time>2020-06-29T19:30:40Z</time>
      </trkpt>
      <trkpt lat="48.7098" lon="5.44604">
        <ele>324.6</ele>
        <time>2020-06-29T19:30:41Z</time>
      </trkpt>
      <trkpt lat="48.7098" lon="5.44604">
        <ele>324.6</ele>
        <time>2020-06-29T19:30:42Z</time>
      </trkpt>
      <trkpt lat="48.70979" lon="5.44604">
        <ele>324.6</ele>
        <time>2020-06-29T19:30:43Z</time>
      </trkpt>
      <trkpt lat="48.70979" lon="5.44603">
        <ele>324.6</ele>
        <time>2020-06-29T19:30:44Z</time>
      </trkpt>
      <trkpt lat="48.70979" lon="5.44603">
        <ele>324.6</ele>
        <time>2020-06-29T19:30:45Z</time>
      </trkpt>
      <trkpt lat="48.70979" lon="5.44603">
        <ele>324.6</ele>
        <time>2020-06-29T19:30:46Z</time>
      </trkpt>
      <trkpt lat="48.70979" lon="5.44603">
        <ele>324.6</ele>
        <time>2020-06-29T19:30:47Z</time>
      </trkpt>
      <trkpt lat="48.70978" lon="5.44602">
        <ele>324.6</ele>
        <time>2020-06-29T19:30:48Z</time>
      </trkpt>
      <trkpt lat="48.70978" lon="5.44602">
        <ele>324.6</ele>
        <time>2020-06-29T19:30:49Z</time>
      </trkpt>
      <trkpt lat="48.70978" lon="5.44602">
        <ele>324.6</ele>
        <time>2020-06-29T19:30:50Z</time>
      </trkpt>
      <trkpt lat="48.70978" lon="5.44602">
        <ele>324.6</ele>
        <time>2020-06-29T19:30:51Z</time>
      </trkpt>
      <trkpt lat="48.70977" lon="5.44601">
        <ele>324.6</ele>
        <time>2020-06-29T19:30:52Z</time>
      </trkpt>
      <trkpt lat="48.70977" lon="5.44601">
        <ele>324.6</ele>
        <time>2020-06-29T19:30:53Z</time>
      </trkpt>
      <trkpt lat="48.70977" lon="5.44601">
        <ele>324.6</ele>
        <time>2020-06-29T19:30:54Z</time>
      </trkpt>
      <trkpt lat="48.70977" lon="5.446">
        <ele>324.6</ele>
        <time>2020-06-29T19:30:55Z</time>
      </trkpt>
      <trkpt lat="48.70977" lon="5.446">
        <ele>324.6</ele>
        <time>2020-06-29T19:30:56Z</time>
      </trkpt>
      <trkpt lat="48.70976" lon="5.446">
        <ele>324.6</ele>
        <time>2020-06-29T19:30:57Z</time>
      </trkpt>
      <trkpt lat="48.70976" lon="5.446">
        <ele>324.6</ele>
        <time>2020-06-29T19:30:58Z</time>
      </trkpt>
      <trkpt lat="48.70976" lon="5.44599">
        <ele>324.6</ele>
        <time>2020-06-29T19:31:07Z</time>
      </trkpt>
      <trkpt lat="48.70976" lon="5.44599">
        <ele>324.6</ele>
        <time>2020-06-29T19:31:08Z</time>
      </trkpt>
      <trkpt lat="48.70975" lon="5.44599">
        <ele>324.6</ele>
        <time>2020-06-29T19:31:09Z</time>
      </trkpt>
      <trkpt lat="48.70974" lon="5.44599">
        <ele>324.6</ele>
        <time>2020-06-29T19:31:10Z</time>
      </trkpt>
      <trkpt lat="48.70973" lon="5.44596">
        <ele>324.6</ele>
        <time>2020-06-29T19:31:11Z</time>
      </trkpt>
      <trkpt lat="48.7097" lon="5.44593">
        <ele>324.7</ele>
        <time>2020-06-29T19:31:12Z</time>
      </trkpt>
      <trkpt lat="48.70969" lon="5.44592">
        <ele>324.7</ele>
        <time>2020-06-29T19:31:13Z</time>
      </trkpt>
      <trkpt lat="48.70967" lon="5.4459">
        <ele>324.7</ele>
        <time>2020-06-29T19:31:14Z</time>
      </trkpt>
      <trkpt lat="48.70966" lon="5.4459">
        <ele>324.7</ele>
        <time>2020-06-29T19:31:15Z</time>
      </trkpt>
      <trkpt lat="48.70964" lon="5.44589">
        <ele>324.7</ele>
        <time>2020-06-29T19:31:16Z</time>
      </trkpt>
      <trkpt lat="48.70963" lon="5.44589">
        <ele>324.7</ele>
        <time>2020-06-29T19:31:17Z</time>
      </trkpt>
      <trkpt lat="48.70962" lon="5.44588">
        <ele>324.7</ele>
        <time>2020-06-29T19:31:18Z</time>
      </trkpt>
      <trkpt lat="48.7096" lon="5.44588">
        <ele>324.8</ele>
        <time>2020-06-29T19:31:19Z</time>
      </trkpt>
      <trkpt lat="48.70959" lon="5.44587">
        <ele>324.8</ele>
        <time>2020-06-29T19:31:20Z</time>
      </trkpt>
      <trkpt lat="48.70957" lon="5.44586">
        <ele>324.8</ele>
        <time>2020-06-29T19:31:21Z</time>
      </trkpt>
      <trkpt lat="48.70955" lon="5.44583">
        <ele>324.8</ele>
        <time>2020-06-29T19:31:22Z</time>
      </trkpt>
      <trkpt lat="48.70955" lon="5.44582">
        <ele>324.8</ele>
        <time>2020-06-29T19:31:23Z</time>
      </trkpt>
      <trkpt lat="48.70953" lon="5.44581">
        <ele>324.8</ele>
        <time>2020-06-29T19:31:24Z</time>
      </trkpt>
      <trkpt lat="48.70952" lon="5.4458">
        <ele>324.9</ele>
        <time>2020-06-29T19:31:25Z</time>
      </trkpt>
      <trkpt lat="48.70949" lon="5.44579">
        <ele>324.9</ele>
        <time>2020-06-29T19:31:26Z</time>
      </trkpt>
      <trkpt lat="48.70948" lon="5.44579">
        <ele>324.9</ele>
        <time>2020-06-29T19:31:27Z</time>
      </trkpt>
      <trkpt lat="48.70945" lon="5.44578">
        <ele>325</ele>
        <time>2020-06-29T19:31:28Z</time>
      </trkpt>
      <trkpt lat="48.70944" lon="5.44578">
        <ele>325</ele>
        <time>2020-06-29T19:31:29Z</time>
      </trkpt>
      <trkpt lat="48.70943" lon="5.44577">
        <ele>325</ele>
        <time>2020-06-29T19:31:30Z</time>
      </trkpt>
      <trkpt lat="48.70941" lon="5.44577">
        <ele>325</ele>
        <time>2020-06-29T19:31:31Z</time>
      </trkpt>
      <trkpt lat="48.7094" lon="5.44576">
        <ele>325</ele>
        <time>2020-06-29T19:31:32Z</time>
      </trkpt>
      <trkpt lat="48.70938" lon="5.44575">
        <ele>325.1</ele>
        <time>2020-06-29T19:31:33Z</time>
      </trkpt>
      <trkpt lat="48.70937" lon="5.44575">
        <ele>325.1</ele>
        <time>2020-06-29T19:31:34Z</time>
      </trkpt>
      <trkpt lat="48.70936" lon="5.44575">
        <ele>325.1</ele>
        <time>2020-06-29T19:31:35Z</time>
      </trkpt>
      <trkpt lat="48.70935" lon="5.44575">
        <ele>325.1</ele>
        <time>2020-06-29T19:31:36Z</time>
      </trkpt>
      <trkpt lat="48.70935" lon="5.44576">
        <ele>325.1</ele>
        <time>2020-06-29T19:31:37Z</time>
      </trkpt>
      <trkpt lat="48.70934" lon="5.44577">
        <ele>325.1</ele>
        <time>2020-06-29T19:31:38Z</time>
      </trkpt>
      <trkpt lat="48.70933" lon="5.44578">
        <ele>325.1</ele>
        <time>2020-06-29T19:31:39Z</time>
      </trkpt>
      <trkpt lat="48.70933" lon="5.44579">
        <ele>325.1</ele>
        <time>2020-06-29T19:31:40Z</time>
      </trkpt>
      <trkpt lat="48.70932" lon="5.44578">
        <ele>325.1</ele>
        <time>2020-06-29T19:31:41Z</time>
      </trkpt>
      <trkpt lat="48.70932" lon="5.44579">
        <ele>325.1</ele>
        <time>2020-06-29T19:31:42Z</time>
      </trkpt>
      <trkpt lat="48.70933" lon="5.44579">
        <ele>325.1</ele>
        <time>2020-06-29T19:31:43Z</time>
      </trkpt>
      <trkpt lat="48.70933" lon="5.44579">
        <ele>325.1</ele>
        <time>2020-06-29T19:31:44Z</time>
      </trkpt>
      <trkpt lat="48.70932" lon="5.44579">
        <ele>325.1</ele>
        <time>2020-06-29T19:31:45Z</time>
      </trkpt>
      <trkpt lat="48.70932" lon="5.44579">
        <ele>325.1</ele>
        <time>2020-06-29T19:31:46Z</time>
      </trkpt>
      <trkpt lat="48.70932" lon="5.44578">
        <ele>325.1</ele>
        <time>2020-06-29T19:31:47Z</time>
      </trkpt>
      <trkpt lat="48.70931" lon="5.44579">
        <ele>325.2</ele>
        <time>2020-06-29T19:31:48Z</time>
      </trkpt>
      <trkpt lat="48.70931" lon="5.44578">
        <ele>325.2</ele>
        <time>2020-06-29T19:31:49Z</time>
      </trkpt>
      <trkpt lat="48.70931" lon="5.44578">
        <ele>325.2</ele>
        <time>2020-06-29T19:31:50Z</time>
      </trkpt>
      <trkpt lat="48.70931" lon="5.44578">
        <ele>325.2</ele>
        <time>2020-06-29T19:31:51Z</time>
      </trkpt>
      <trkpt lat="48.7093" lon="5.44577">
        <ele>325.2</ele>
        <time>2020-06-29T19:31:52Z</time>
      </trkpt>
      <trkpt lat="48.7093" lon="5.44576">
        <ele>325.2</ele>
        <time>2020-06-29T19:31:53Z</time>
      </trkpt>
      <trkpt lat="48.70931" lon="5.44575">
        <ele>325.2</ele>
        <time>2020-06-29T19:31:54Z</time>
      </trkpt>
      <trkpt lat="48.70931" lon="5.44574">
        <ele>325.2</ele>
        <time>2020-06-29T19:31:55Z</time>
      </trkpt>
      <trkpt lat="48.70931" lon="5.44574">
        <ele>325.2</ele>
        <time>2020-06-29T19:31:56Z</time>
      </trkpt>
      <trkpt lat="48.70931" lon="5.44573">
        <ele>325.2</ele>
        <time>2020-06-29T19:31:57Z</time>
      </trkpt>
      <trkpt lat="48.70931" lon="5.44572">
        <ele>325.2</ele>
        <time>2020-06-29T19:31:58Z</time>
      </trkpt>
      <trkpt lat="48.70931" lon="5.44571">
        <ele>325.2</ele>
        <time>2020-06-29T19:31:59Z</time>
      </trkpt>
      <trkpt lat="48.70931" lon="5.44571">
        <ele>325.2</ele>
        <time>2020-06-29T19:32:00Z</time>
      </trkpt>
      <trkpt lat="48.70931" lon="5.4457">
        <ele>325.2</ele>
        <time>2020-06-29T19:32:01Z</time>
      </trkpt>
      <trkpt lat="48.70931" lon="5.44569">
        <ele>325.2</ele>
        <time>2020-06-29T19:32:02Z</time>
      </trkpt>
      <trkpt lat="48.70931" lon="5.44568">
        <ele>325.2</ele>
        <time>2020-06-29T19:32:03Z</time>
      </trkpt>
      <trkpt lat="48.70931" lon="5.44568">
        <ele>325.2</ele>
        <time>2020-06-29T19:32:14Z</time>
      </trkpt>
      <trkpt lat="48.70932" lon="5.44567">
        <ele>325.2</ele>
        <time>2020-06-29T19:32:15Z</time>
      </trkpt>
      <trkpt lat="48.70932" lon="5.44566">
        <ele>325.2</ele>
        <time>2020-06-29T19:32:16Z</time>
      </trkpt>
      <trkpt lat="48.7093" lon="5.44564">
        <ele>325.2</ele>
        <time>2020-06-29T19:32:17Z</time>
      </trkpt>
      <trkpt lat="48.7093" lon="5.44563">
        <ele>325.2</ele>
        <time>2020-06-29T19:32:18Z</time>
      </trkpt>
      <trkpt lat="48.70929" lon="5.44562">
        <ele>325.2</ele>
        <time>2020-06-29T19:32:19Z</time>
      </trkpt>
      <trkpt lat="48.70927" lon="5.44561">
        <ele>325.2</ele>
        <time>2020-06-29T19:32:20Z</time>
      </trkpt>
      <trkpt lat="48.70926" lon="5.4456">
        <ele>325.2</ele>
        <time>2020-06-29T19:32:21Z</time>
      </trkpt>
      <trkpt lat="48.70926" lon="5.4456">
        <ele>325.2</ele>
        <time>2020-06-29T19:32:22Z</time>
      </trkpt>
      <trkpt lat="48.70925" lon="5.44558">
        <ele>325.3</ele>
        <time>2020-06-29T19:32:23Z</time>
      </trkpt>
      <trkpt lat="48.70924" lon="5.44556">
        <ele>325.3</ele>
        <time>2020-06-29T19:32:24Z</time>
      </trkpt>
      <trkpt lat="48.70923" lon="5.44553">
        <ele>325.3</ele>
        <time>2020-06-29T19:32:25Z</time>
      </trkpt>
      <trkpt lat="48.70922" lon="5.44551">
        <ele>325.3</ele>
        <time>2020-06-29T19:32:26Z</time>
      </trkpt>
      <trkpt lat="48.70922" lon="5.4455">
        <ele>325.3</ele>
        <time>2020-06-29T19:32:27Z</time>
      </trkpt>
      <trkpt lat="48.70921" lon="5.4455">
        <ele>325.3</ele>
        <time>2020-06-29T19:32:28Z</time>
      </trkpt>
      <trkpt lat="48.7092" lon="5.4455">
        <ele>325.3</ele>
        <time>2020-06-29T19:32:29Z</time>
      </trkpt>
      <trkpt lat="48.70919" lon="5.44549">
        <ele>325.3</ele>
        <time>2020-06-29T19:32:30Z</time>
      </trkpt>
      <trkpt lat="48.70918" lon="5.44549">
        <ele>325.3</ele>
        <time>2020-06-29T19:32:31Z</time>
      </trkpt>
      <trkpt lat="48.70916" lon="5.44549">
        <ele>325.3</ele>
        <time>2020-06-29T19:32:32Z</time>
      </trkpt>
      <trkpt lat="48.70916" lon="5.44548">
        <ele>325.3</ele>
        <time>2020-06-29T19:32:33Z</time>
      </trkpt>
      <trkpt lat="48.70915" lon="5.44548">
        <ele>325.3</ele>
        <time>2020-06-29T19:32:34Z</time>
      </trkpt>
      <trkpt lat="48.70914" lon="5.44547">
        <ele>325.3</ele>
        <time>2020-06-29T19:32:35Z</time>
      </trkpt>
      <trkpt lat="48.70913" lon="5.44547">
        <ele>325.3</ele>
        <time>2020-06-29T19:32:36Z</time>
      </trkpt>
      <trkpt lat="48.70913" lon="5.44546">
        <ele>325.3</ele>
        <time>2020-06-29T19:32:37Z</time>
      </trkpt>
      <trkpt lat="48.70912" lon="5.44545">
        <ele>325.3</ele>
        <time>2020-06-29T19:32:38Z</time>
      </trkpt>
      <trkpt lat="48.70911" lon="5.44546">
        <ele>325.3</ele>
        <time>2020-06-29T19:32:39Z</time>
      </trkpt>
      <trkpt lat="48.70911" lon="5.44546">
        <ele>325.3</ele>
        <time>2020-06-29T19:32:40Z</time>
      </trkpt>
      <trkpt lat="48.70911" lon="5.44545">
        <ele>325.3</ele>
        <time>2020-06-29T19:32:41Z</time>
      </trkpt>
      <trkpt lat="48.7091" lon="5.44548">
        <ele>325.3</ele>
        <time>2020-06-29T19:32:42Z</time>
      </trkpt>
      <trkpt lat="48.7091" lon="5.44548">
        <ele>325.3</ele>
        <time>2020-06-29T19:32:43Z</time>
      </trkpt>
      <trkpt lat="48.7091" lon="5.44548">
        <ele>325.3</ele>
        <time>2020-06-29T19:32:44Z</time>
      </trkpt>
      <trkpt lat="48.7091" lon="5.44548">
        <ele>325.3</ele>
        <time>2020-06-29T19:32:45Z</time>
      </trkpt>
      <trkpt lat="48.7091" lon="5.44548">
        <ele>325.3</ele>
        <time>2020-06-29T19:32:46Z</time>
      </trkpt>
      <trkpt lat="48.7091" lon="5.44548">
        <ele>325.3</ele>
        <time>2020-06-29T19:32:47Z</time>
      </trkpt>
      <trkpt lat="48.7091" lon="5.44547">
        <ele>325.3</ele>
        <time>2020-06-29T19:32:48Z</time>
      </trkpt>
      <trkpt lat="48.7091" lon="5.44547">
        <ele>325.3</ele>
        <time>2020-06-29T19:32:49Z</time>
      </trkpt>
      <trkpt lat="48.70903" lon="5.44543">
        <ele>325.3</ele>
        <time>2020-06-29T19:33:52Z</time>
      </trkpt>
      <trkpt lat="48.70901" lon="5.44543">
        <ele>325.3</ele>
        <time>2020-06-29T19:33:53Z</time>
      </trkpt>
      <trkpt lat="48.70898" lon="5.44543">
        <ele>325.3</ele>
        <time>2020-06-29T19:33:54Z</time>
      </trkpt>
      <trkpt lat="48.70897" lon="5.44543">
        <ele>325.3</ele>
        <time>2020-06-29T19:33:55Z</time>
      </trkpt>
      <trkpt lat="48.70896" lon="5.44542">
        <ele>325.3</ele>
        <time>2020-06-29T19:33:56Z</time>
      </trkpt>
      <trkpt lat="48.70895" lon="5.44541">
        <ele>325.3</ele>
        <time>2020-06-29T19:33:57Z</time>
      </trkpt>
      <trkpt lat="48.70894" lon="5.44541">
        <ele>325.3</ele>
        <time>2020-06-29T19:33:58Z</time>
      </trkpt>
      <trkpt lat="48.70893" lon="5.4454">
        <ele>325.3</ele>
        <time>2020-06-29T19:33:59Z</time>
      </trkpt>
      <trkpt lat="48.70892" lon="5.44539">
        <ele>325.3</ele>
        <time>2020-06-29T19:34:00Z</time>
      </trkpt>
      <trkpt lat="48.70891" lon="5.44538">
        <ele>325.3</ele>
        <time>2020-06-29T19:34:01Z</time>
      </trkpt>
      <trkpt lat="48.7089" lon="5.44537">
        <ele>325.3</ele>
        <time>2020-06-29T19:34:02Z</time>
      </trkpt>
      <trkpt lat="48.70889" lon="5.44537">
        <ele>325.3</ele>
        <time>2020-06-29T19:34:03Z</time>
      </trkpt>
      <trkpt lat="48.70889" lon="5.44536">
        <ele>325.4</ele>
        <time>2020-06-29T19:34:04Z</time>
      </trkpt>
      <trkpt lat="48.70888" lon="5.44535">
        <ele>325.4</ele>
        <time>2020-06-29T19:34:05Z</time>
      </trkpt>
      <trkpt lat="48.70887" lon="5.44535">
        <ele>325.4</ele>
        <time>2020-06-29T19:34:06Z</time>
      </trkpt>
      <trkpt lat="48.70888" lon="5.44535">
        <ele>325.4</ele>
        <time>2020-06-29T19:34:07Z</time>
      </trkpt>
      <trkpt lat="48.70887" lon="5.44536">
        <ele>325.4</ele>
        <time>2020-06-29T19:34:08Z</time>
      </trkpt>
      <trkpt lat="48.70887" lon="5.44536">
        <ele>325.4</ele>
        <time>2020-06-29T19:34:09Z</time>
      </trkpt>
      <trkpt lat="48.70887" lon="5.44536">
        <ele>325.4</ele>
        <time>2020-06-29T19:34:10Z</time>
      </trkpt>
      <trkpt lat="48.70887" lon="5.44537">
        <ele>325.4</ele>
        <time>2020-06-29T19:34:11Z</time>
      </trkpt>
      <trkpt lat="48.70887" lon="5.44537">
        <ele>325.4</ele>
        <time>2020-06-29T19:34:12Z</time>
      </trkpt>
      <trkpt lat="48.70887" lon="5.44537">
        <ele>325.4</ele>
        <time>2020-06-29T19:34:13Z</time>
      </trkpt>
      <trkpt lat="48.70887" lon="5.44536">
        <ele>325.4</ele>
        <time>2020-06-29T19:34:14Z</time>
      </trkpt>
      <trkpt lat="48.70887" lon="5.44535">
        <ele>325.4</ele>
        <time>2020-06-29T19:34:15Z</time>
      </trkpt>
      <trkpt lat="48.70887" lon="5.44535">
        <ele>325.4</ele>
        <time>2020-06-29T19:34:16Z</time>
      </trkpt>
      <trkpt lat="48.70885" lon="5.44535">
        <ele>325.4</ele>
        <time>2020-06-29T19:34:17Z</time>
      </trkpt>
      <trkpt lat="48.70884" lon="5.44534">
        <ele>325.4</ele>
        <time>2020-06-29T19:34:18Z</time>
      </trkpt>
      <trkpt lat="48.70883" lon="5.44534">
        <ele>325.4</ele>
        <time>2020-06-29T19:34:19Z</time>
      </trkpt>
      <trkpt lat="48.70883" lon="5.44533">
        <ele>325.4</ele>
        <time>2020-06-29T19:34:20Z</time>
      </trkpt>
      <trkpt lat="48.70881" lon="5.44532">
        <ele>325.4</ele>
        <time>2020-06-29T19:34:21Z</time>
      </trkpt>
      <trkpt lat="48.7088" lon="5.44532">
        <ele>325.4</ele>
        <time>2020-06-29T19:34:22Z</time>
      </trkpt>
      <trkpt lat="48.70879" lon="5.44531">
        <ele>325.4</ele>
        <time>2020-06-29T19:34:23Z</time>
      </trkpt>
      <trkpt lat="48.70879" lon="5.4453">
        <ele>325.4</ele>
        <time>2020-06-29T19:34:24Z</time>
      </trkpt>
      <trkpt lat="48.70879" lon="5.44529">
        <ele>325.4</ele>
        <time>2020-06-29T19:34:25Z</time>
      </trkpt>
      <trkpt lat="48.70879" lon="5.44529">
        <ele>325.4</ele>
        <time>2020-06-29T19:34:26Z</time>
      </trkpt>
      <trkpt lat="48.70878" lon="5.44529">
        <ele>325.4</ele>
        <time>2020-06-29T19:34:27Z</time>
      </trkpt>
      <trkpt lat="48.70877" lon="5.44528">
        <ele>325.4</ele>
        <time>2020-06-29T19:34:28Z</time>
      </trkpt>
      <trkpt lat="48.70877" lon="5.44528">
        <ele>325.4</ele>
        <time>2020-06-29T19:34:29Z</time>
      </trkpt>
      <trkpt lat="48.70876" lon="5.44528">
        <ele>325.4</ele>
        <time>2020-06-29T19:34:30Z</time>
      </trkpt>
      <trkpt lat="48.70875" lon="5.44526">
        <ele>325.4</ele>
        <time>2020-06-29T19:34:31Z</time>
      </trkpt>
      <trkpt lat="48.70874" lon="5.44526">
        <ele>325.4</ele>
        <time>2020-06-29T19:34:32Z</time>
      </trkpt>
      <trkpt lat="48.70874" lon="5.44525">
        <ele>325.4</ele>
        <time>2020-06-29T19:34:33Z</time>
      </trkpt>
      <trkpt lat="48.70873" lon="5.44524">
        <ele>325.5</ele>
        <time>2020-06-29T19:34:34Z</time>
      </trkpt>
      <trkpt lat="48.70873" lon="5.44524">
        <ele>325.5</ele>
        <time>2020-06-29T19:34:35Z</time>
      </trkpt>
      <trkpt lat="48.70872" lon="5.44523">
        <ele>325.5</ele>
        <time>2020-06-29T19:34:36Z</time>
      </trkpt>
      <trkpt lat="48.70871" lon="5.44522">
        <ele>325.5</ele>
        <time>2020-06-29T19:34:37Z</time>
      </trkpt>
      <trkpt lat="48.70871" lon="5.44522">
        <ele>325.5</ele>
        <time>2020-06-29T19:34:38Z</time>
      </trkpt>
      <trkpt lat="48.7087" lon="5.44521">
        <ele>325.5</ele>
        <time>2020-06-29T19:34:39Z</time>
      </trkpt>
      <trkpt lat="48.70868" lon="5.44518">
        <ele>325.5</ele>
        <time>2020-06-29T19:34:40Z</time>
      </trkpt>
      <trkpt lat="48.70867" lon="5.44517">
        <ele>325.5</ele>
        <time>2020-06-29T19:34:41Z</time>
      </trkpt>
      <trkpt lat="48.70867" lon="5.44517">
        <ele>325.5</ele>
        <time>2020-06-29T19:34:42Z</time>
      </trkpt>
      <trkpt lat="48.70865" lon="5.44516">
        <ele>325.5</ele>
        <time>2020-06-29T19:34:43Z</time>
      </trkpt>
      <trkpt lat="48.70865" lon="5.44516">
        <ele>325.5</ele>
        <time>2020-06-29T19:34:44Z</time>
      </trkpt>
      <trkpt lat="48.70864" lon="5.44516">
        <ele>325.5</ele>
        <time>2020-06-29T19:34:45Z</time>
      </trkpt>
      <trkpt lat="48.70864" lon="5.44516">
        <ele>325.5</ele>
        <time>2020-06-29T19:34:46Z</time>
      </trkpt>
      <trkpt lat="48.70864" lon="5.44515">
        <ele>325.5</ele>
        <time>2020-06-29T19:34:47Z</time>
      </trkpt>
      <trkpt lat="48.70863" lon="5.44515">
        <ele>325.5</ele>
        <time>2020-06-29T19:34:48Z</time>
      </trkpt>
      <trkpt lat="48.70863" lon="5.44516">
        <ele>325.5</ele>
        <time>2020-06-29T19:34:49Z</time>
      </trkpt>
      <trkpt lat="48.70863" lon="5.44515">
        <ele>325.5</ele>
        <time>2020-06-29T19:34:50Z</time>
      </trkpt>
      <trkpt lat="48.70863" lon="5.44515">
        <ele>325.5</ele>
        <time>2020-06-29T19:34:51Z</time>
      </trkpt>
      <trkpt lat="48.70862" lon="5.44515">
        <ele>325.5</ele>
        <time>2020-06-29T19:34:52Z</time>
      </trkpt>
      <trkpt lat="48.70862" lon="5.44515">
        <ele>325.5</ele>
        <time>2020-06-29T19:34:53Z</time>
      </trkpt>
      <trkpt lat="48.70862" lon="5.44515">
        <ele>325.5</ele>
        <time>2020-06-29T19:34:54Z</time>
      </trkpt>
      <trkpt lat="48.70863" lon="5.44515">
        <ele>325.5</ele>
        <time>2020-06-29T19:34:55Z</time>
      </trkpt>
      <trkpt lat="48.70856" lon="5.44515">
        <ele>325.6</ele>
        <time>2020-06-29T19:36:26Z</time>
      </trkpt>
      <trkpt lat="48.70854" lon="5.44514">
        <ele>325.6</ele>
        <time>2020-06-29T19:36:27Z</time>
      </trkpt>
      <trkpt lat="48.70853" lon="5.44513">
        <ele>325.6</ele>
        <time>2020-06-29T19:36:28Z</time>
      </trkpt>
      <trkpt lat="48.70851" lon="5.44514">
        <ele>325.6</ele>
        <time>2020-06-29T19:36:29Z</time>
      </trkpt>
      <trkpt lat="48.7085" lon="5.44514">
        <ele>325.6</ele>
        <time>2020-06-29T19:36:30Z</time>
      </trkpt>
      <trkpt lat="48.7085" lon="5.44512">
        <ele>325.6</ele>
        <time>2020-06-29T19:36:31Z</time>
      </trkpt>
      <trkpt lat="48.70849" lon="5.44511">
        <ele>325.6</ele>
        <time>2020-06-29T19:36:32Z</time>
      </trkpt>
      <trkpt lat="48.70848" lon="5.4451">
        <ele>325.6</ele>
        <time>2020-06-29T19:36:33Z</time>
      </trkpt>
      <trkpt lat="48.70848" lon="5.44508">
        <ele>325.6</ele>
        <time>2020-06-29T19:36:34Z</time>
      </trkpt>
      <trkpt lat="48.70847" lon="5.44508">
        <ele>325.7</ele>
        <time>2020-06-29T19:36:35Z</time>
      </trkpt>
      <trkpt lat="48.70846" lon="5.44508">
        <ele>325.7</ele>
        <time>2020-06-29T19:36:36Z</time>
      </trkpt>
      <trkpt lat="48.70845" lon="5.44508">
        <ele>325.7</ele>
        <time>2020-06-29T19:36:37Z</time>
      </trkpt>
      <trkpt lat="48.70843" lon="5.44508">
        <ele>325.7</ele>
        <time>2020-06-29T19:36:38Z</time>
      </trkpt>
      <trkpt lat="48.70842" lon="5.44508">
        <ele>325.7</ele>
        <time>2020-06-29T19:36:39Z</time>
      </trkpt>
      <trkpt lat="48.70842" lon="5.44507">
        <ele>325.7</ele>
        <time>2020-06-29T19:36:40Z</time>
      </trkpt>
      <trkpt lat="48.70841" lon="5.44507">
        <ele>325.7</ele>
        <time>2020-06-29T19:36:41Z</time>
      </trkpt>
      <trkpt lat="48.7084" lon="5.44506">
        <ele>325.7</ele>
        <time>2020-06-29T19:36:42Z</time>
      </trkpt>
      <trkpt lat="48.70839" lon="5.44505">
        <ele>325.7</ele>
        <time>2020-06-29T19:36:43Z</time>
      </trkpt>
      <trkpt lat="48.70838" lon="5.44503">
        <ele>325.7</ele>
        <time>2020-06-29T19:36:44Z</time>
      </trkpt>
      <trkpt lat="48.70837" lon="5.44503">
        <ele>325.7</ele>
        <time>2020-06-29T19:36:45Z</time>
      </trkpt>
      <trkpt lat="48.70836" lon="5.44502">
        <ele>325.7</ele>
        <time>2020-06-29T19:36:46Z</time>
      </trkpt>
      <trkpt lat="48.70835" lon="5.44502">
        <ele>325.7</ele>
        <time>2020-06-29T19:36:47Z</time>
      </trkpt>
      <trkpt lat="48.70835" lon="5.445">
        <ele>325.8</ele>
        <time>2020-06-29T19:36:48Z</time>
      </trkpt>
      <trkpt lat="48.70835" lon="5.445">
        <ele>325.8</ele>
        <time>2020-06-29T19:36:49Z</time>
      </trkpt>
      <trkpt lat="48.70834" lon="5.44498">
        <ele>325.8</ele>
        <time>2020-06-29T19:36:50Z</time>
      </trkpt>
      <trkpt lat="48.70833" lon="5.44497">
        <ele>325.8</ele>
        <time>2020-06-29T19:36:51Z</time>
      </trkpt>
      <trkpt lat="48.70832" lon="5.44496">
        <ele>325.8</ele>
        <time>2020-06-29T19:36:52Z</time>
      </trkpt>
      <trkpt lat="48.70831" lon="5.44495">
        <ele>325.8</ele>
        <time>2020-06-29T19:36:53Z</time>
      </trkpt>
      <trkpt lat="48.7083" lon="5.44494">
        <ele>325.8</ele>
        <time>2020-06-29T19:36:54Z</time>
      </trkpt>
      <trkpt lat="48.70829" lon="5.44493">
        <ele>325.8</ele>
        <time>2020-06-29T19:36:55Z</time>
      </trkpt>
      <trkpt lat="48.70828" lon="5.44492">
        <ele>325.8</ele>
        <time>2020-06-29T19:36:56Z</time>
      </trkpt>
      <trkpt lat="48.70828" lon="5.44491">
        <ele>325.8</ele>
        <time>2020-06-29T19:36:57Z</time>
      </trkpt>
      <trkpt lat="48.70827" lon="5.44489">
        <ele>325.9</ele>
        <time>2020-06-29T19:36:58Z</time>
      </trkpt>
      <trkpt lat="48.70826" lon="5.44489">
        <ele>325.9</ele>
        <time>2020-06-29T19:36:59Z</time>
      </trkpt>
      <trkpt lat="48.70824" lon="5.44488">
        <ele>325.9</ele>
        <time>2020-06-29T19:37:00Z</time>
      </trkpt>
      <trkpt lat="48.70823" lon="5.44487">
        <ele>325.9</ele>
        <time>2020-06-29T19:37:01Z</time>
      </trkpt>
      <trkpt lat="48.70822" lon="5.44486">
        <ele>325.9</ele>
        <time>2020-06-29T19:37:02Z</time>
      </trkpt>
      <trkpt lat="48.70822" lon="5.44486">
        <ele>325.9</ele>
        <time>2020-06-29T19:37:03Z</time>
      </trkpt>
      <trkpt lat="48.70822" lon="5.44485">
        <ele>325.9</ele>
        <time>2020-06-29T19:37:04Z</time>
      </trkpt>
      <trkpt lat="48.70822" lon="5.44484">
        <ele>325.9</ele>
        <time>2020-06-29T19:37:05Z</time>
      </trkpt>
      <trkpt lat="48.70822" lon="5.44484">
        <ele>325.9</ele>
        <time>2020-06-29T19:37:06Z</time>
      </trkpt>
      <trkpt lat="48.70822" lon="5.44485">
        <ele>325.9</ele>
        <time>2020-06-29T19:37:07Z</time>
      </trkpt>
      <trkpt lat="48.70822" lon="5.44485">
        <ele>325.9</ele>
        <time>2020-06-29T19:37:08Z</time>
      </trkpt>
      <trkpt lat="48.70821" lon="5.44484">
        <ele>325.9</ele>
        <time>2020-06-29T19:37:09Z</time>
      </trkpt>
      <trkpt lat="48.70821" lon="5.44483">
        <ele>325.9</ele>
        <time>2020-06-29T19:37:10Z</time>
      </trkpt>
      <trkpt lat="48.7082" lon="5.44483">
        <ele>325.9</ele>
        <time>2020-06-29T19:37:11Z</time>
      </trkpt>
      <trkpt lat="48.70819" lon="5.44483">
        <ele>326</ele>
        <time>2020-06-29T19:37:12Z</time>
      </trkpt>
      <trkpt lat="48.70817" lon="5.44483">
        <ele>326</ele>
        <time>2020-06-29T19:37:13Z</time>
      </trkpt>
      <trkpt lat="48.70815" lon="5.44483">
        <ele>326</ele>
        <time>2020-06-29T19:37:14Z</time>
      </trkpt>
      <trkpt lat="48.70814" lon="5.44483">
        <ele>326</ele>
        <time>2020-06-29T19:37:15Z</time>
      </trkpt>
      <trkpt lat="48.70813" lon="5.44484">
        <ele>326</ele>
        <time>2020-06-29T19:37:16Z</time>
      </trkpt>
      <trkpt lat="48.7081" lon="5.44483">
        <ele>326</ele>
        <time>2020-06-29T19:37:17Z</time>
      </trkpt>
      <trkpt lat="48.70809" lon="5.44483">
        <ele>326</ele>
        <time>2020-06-29T19:37:18Z</time>
      </trkpt>
      <trkpt lat="48.70808" lon="5.44481">
        <ele>326.1</ele>
        <time>2020-06-29T19:37:19Z</time>
      </trkpt>
      <trkpt lat="48.70807" lon="5.44481">
        <ele>326.1</ele>
        <time>2020-06-29T19:37:20Z</time>
      </trkpt>
      <trkpt lat="48.70806" lon="5.44479">
        <ele>326.1</ele>
        <time>2020-06-29T19:37:21Z</time>
      </trkpt>
      <trkpt lat="48.70805" lon="5.44479">
        <ele>326.1</ele>
        <time>2020-06-29T19:37:22Z</time>
      </trkpt>
      <trkpt lat="48.70805" lon="5.44478">
        <ele>326.1</ele>
        <time>2020-06-29T19:37:23Z</time>
      </trkpt>
      <trkpt lat="48.70806" lon="5.44479">
        <ele>326.1</ele>
        <time>2020-06-29T19:37:24Z</time>
      </trkpt>
      <trkpt lat="48.70806" lon="5.44479">
        <ele>326.1</ele>
        <time>2020-06-29T19:37:25Z</time>
      </trkpt>
      <trkpt lat="48.70806" lon="5.44479">
        <ele>326.1</ele>
        <time>2020-06-29T19:37:26Z</time>
      </trkpt>
      <trkpt lat="48.70806" lon="5.44481">
        <ele>326.1</ele>
        <time>2020-06-29T19:37:27Z</time>
      </trkpt>
      <trkpt lat="48.70807" lon="5.44481">
        <ele>326.1</ele>
        <time>2020-06-29T19:37:28Z</time>
      </trkpt>
      <trkpt lat="48.70807" lon="5.4448">
        <ele>326.1</ele>
        <time>2020-06-29T19:37:29Z</time>
      </trkpt>
      <trkpt lat="48.70808" lon="5.4448">
        <ele>326.1</ele>
        <time>2020-06-29T19:37:30Z</time>
      </trkpt>
      <trkpt lat="48.70808" lon="5.4448">
        <ele>326.1</ele>
        <time>2020-06-29T19:37:31Z</time>
      </trkpt>
      <trkpt lat="48.70809" lon="5.44479">
        <ele>326.1</ele>
        <time>2020-06-29T19:37:32Z</time>
      </trkpt>
      <trkpt lat="48.70809" lon="5.44479">
        <ele>326.1</ele>
        <time>2020-06-29T19:37:33Z</time>
      </trkpt>
      <trkpt lat="48.70809" lon="5.44478">
        <ele>326.1</ele>
        <time>2020-06-29T19:37:34Z</time>
      </trkpt>
      <trkpt lat="48.7081" lon="5.44478">
        <ele>326.1</ele>
        <time>2020-06-29T19:37:35Z</time>
      </trkpt>
      <trkpt lat="48.7081" lon="5.44478">
        <ele>326.1</ele>
        <time>2020-06-29T19:37:36Z</time>
      </trkpt>
      <trkpt lat="48.70811" lon="5.44477">
        <ele>326.2</ele>
        <time>2020-06-29T19:37:37Z</time>
      </trkpt>
      <trkpt lat="48.70811" lon="5.44477">
        <ele>326.2</ele>
        <time>2020-06-29T19:37:38Z</time>
      </trkpt>
      <trkpt lat="48.70811" lon="5.44476">
        <ele>326.2</ele>
        <time>2020-06-29T19:37:39Z</time>
      </trkpt>
      <trkpt lat="48.70812" lon="5.44476">
        <ele>326.2</ele>
        <time>2020-06-29T19:37:40Z</time>
      </trkpt>
      <trkpt lat="48.70812" lon="5.44476">
        <ele>326.2</ele>
        <time>2020-06-29T19:37:41Z</time>
      </trkpt>
      <trkpt lat="48.70815" lon="5.44484">
        <ele>326.2</ele>
        <time>2020-06-29T19:38:08Z</time>
      </trkpt>
      <trkpt lat="48.70813" lon="5.44484">
        <ele>326.3</ele>
        <time>2020-06-29T19:38:09Z</time>
      </trkpt>
      <trkpt lat="48.70812" lon="5.44484">
        <ele>326.3</ele>
        <time>2020-06-29T19:38:10Z</time>
      </trkpt>
      <trkpt lat="48.70811" lon="5.44484">
        <ele>326.3</ele>
        <time>2020-06-29T19:38:11Z</time>
      </trkpt>
      <trkpt lat="48.7081" lon="5.44482">
        <ele>326.3</ele>
        <time>2020-06-29T19:38:12Z</time>
      </trkpt>
      <trkpt lat="48.70809" lon="5.44481">
        <ele>326.3</ele>
        <time>2020-06-29T19:38:13Z</time>
      </trkpt>
      <trkpt lat="48.70808" lon="5.44479">
        <ele>326.3</ele>
        <time>2020-06-29T19:38:14Z</time>
      </trkpt>
      <trkpt lat="48.70805" lon="5.44477">
        <ele>326.3</ele>
        <time>2020-06-29T19:38:15Z</time>
      </trkpt>
      <trkpt lat="48.70804" lon="5.44476">
        <ele>326.4</ele>
        <time>2020-06-29T19:38:16Z</time>
      </trkpt>
      <trkpt lat="48.70801" lon="5.44474">
        <ele>326.4</ele>
        <time>2020-06-29T19:38:17Z</time>
      </trkpt>
      <trkpt lat="48.708" lon="5.44473">
        <ele>326.4</ele>
        <time>2020-06-29T19:38:18Z</time>
      </trkpt>
      <trkpt lat="48.70797" lon="5.44472">
        <ele>326.4</ele>
        <time>2020-06-29T19:38:19Z</time>
      </trkpt>
      <trkpt lat="48.70796" lon="5.44471">
        <ele>326.4</ele>
        <time>2020-06-29T19:38:20Z</time>
      </trkpt>
      <trkpt lat="48.70793" lon="5.44469">
        <ele>326.5</ele>
        <time>2020-06-29T19:38:21Z</time>
      </trkpt>
      <trkpt lat="48.70791" lon="5.44468">
        <ele>326.5</ele>
        <time>2020-06-29T19:38:22Z</time>
      </trkpt>
      <trkpt lat="48.70788" lon="5.44465">
        <ele>326.5</ele>
        <time>2020-06-29T19:38:23Z</time>
      </trkpt>
      <trkpt lat="48.70787" lon="5.44464">
        <ele>326.5</ele>
        <time>2020-06-29T19:38:24Z</time>
      </trkpt>
      <trkpt lat="48.70784" lon="5.44461">
        <ele>326.6</ele>
        <time>2020-06-29T19:38:25Z</time>
      </trkpt>
      <trkpt lat="48.70782" lon="5.4446">
        <ele>326.6</ele>
        <time>2020-06-29T19:38:26Z</time>
      </trkpt>
      <trkpt lat="48.70779" lon="5.44458">
        <ele>326.6</ele>
        <time>2020-06-29T19:38:27Z</time>
      </trkpt>
      <trkpt lat="48.70778" lon="5.44457">
        <ele>326.6</ele>
        <time>2020-06-29T19:38:28Z</time>
      </trkpt>
      <trkpt lat="48.70775" lon="5.44454">
        <ele>326.7</ele>
        <time>2020-06-29T19:38:29Z</time>
      </trkpt>
      <trkpt lat="48.70774" lon="5.44453">
        <ele>326.7</ele>
        <time>2020-06-29T19:38:30Z</time>
      </trkpt>
      <trkpt lat="48.70772" lon="5.44452">
        <ele>326.7</ele>
        <time>2020-06-29T19:38:31Z</time>
      </trkpt>
      <trkpt lat="48.70771" lon="5.44451">
        <ele>326.7</ele>
        <time>2020-06-29T19:38:32Z</time>
      </trkpt>
      <trkpt lat="48.70769" lon="5.4445">
        <ele>326.7</ele>
        <time>2020-06-29T19:38:33Z</time>
      </trkpt>
      <trkpt lat="48.70768" lon="5.4445">
        <ele>326.8</ele>
        <time>2020-06-29T19:38:34Z</time>
      </trkpt>
      <trkpt lat="48.70766" lon="5.44449">
        <ele>326.8</ele>
        <time>2020-06-29T19:38:35Z</time>
      </trkpt>
      <trkpt lat="48.70765" lon="5.44448">
        <ele>326.8</ele>
        <time>2020-06-29T19:38:36Z</time>
      </trkpt>
      <trkpt lat="48.70764" lon="5.44448">
        <ele>326.8</ele>
        <time>2020-06-29T19:38:37Z</time>
      </trkpt>
      <trkpt lat="48.70763" lon="5.44447">
        <ele>326.8</ele>
        <time>2020-06-29T19:38:38Z</time>
      </trkpt>
      <trkpt lat="48.70762" lon="5.44447">
        <ele>326.8</ele>
        <time>2020-06-29T19:38:39Z</time>
      </trkpt>
      <trkpt lat="48.7076" lon="5.44447">
        <ele>326.8</ele>
        <time>2020-06-29T19:38:40Z</time>
      </trkpt>
      <trkpt lat="48.70759" lon="5.44448">
        <ele>326.8</ele>
        <time>2020-06-29T19:38:41Z</time>
      </trkpt>
      <trkpt lat="48.70758" lon="5.44447">
        <ele>326.9</ele>
        <time>2020-06-29T19:38:42Z</time>
      </trkpt>
      <trkpt lat="48.70757" lon="5.44447">
        <ele>326.9</ele>
        <time>2020-06-29T19:38:43Z</time>
      </trkpt>
      <trkpt lat="48.70756" lon="5.44446">
        <ele>326.9</ele>
        <time>2020-06-29T19:38:44Z</time>
      </trkpt>
      <trkpt lat="48.70754" lon="5.44445">
        <ele>326.9</ele>
        <time>2020-06-29T19:38:45Z</time>
      </trkpt>
      <trkpt lat="48.70753" lon="5.44444">
        <ele>326.9</ele>
        <time>2020-06-29T19:38:46Z</time>
      </trkpt>
      <trkpt lat="48.70752" lon="5.44444">
        <ele>326.9</ele>
        <time>2020-06-29T19:38:47Z</time>
      </trkpt>
      <trkpt lat="48.70751" lon="5.44444">
        <ele>326.9</ele>
        <time>2020-06-29T19:38:48Z</time>
      </trkpt>
      <trkpt lat="48.7075" lon="5.44443">
        <ele>327</ele>
        <time>2020-06-29T19:38:49Z</time>
      </trkpt>
      <trkpt lat="48.7075" lon="5.44442">
        <ele>327</ele>
        <time>2020-06-29T19:38:50Z</time>
      </trkpt>
      <trkpt lat="48.70748" lon="5.44441">
        <ele>327</ele>
        <time>2020-06-29T19:38:51Z</time>
      </trkpt>
      <trkpt lat="48.70746" lon="5.4444">
        <ele>327</ele>
        <time>2020-06-29T19:38:52Z</time>
      </trkpt>
      <trkpt lat="48.70745" lon="5.4444">
        <ele>327</ele>
        <time>2020-06-29T19:38:53Z</time>
      </trkpt>
      <trkpt lat="48.70745" lon="5.44439">
        <ele>327</ele>
        <time>2020-06-29T19:38:54Z</time>
      </trkpt>
      <trkpt lat="48.70743" lon="5.44437">
        <ele>327</ele>
        <time>2020-06-29T19:38:55Z</time>
      </trkpt>
      <trkpt lat="48.70743" lon="5.44436">
        <ele>327.1</ele>
        <time>2020-06-29T19:38:56Z</time>
      </trkpt>
      <trkpt lat="48.70742" lon="5.44435">
        <ele>327.1</ele>
        <time>2020-06-29T19:38:57Z</time>
      </trkpt>
      <trkpt lat="48.70742" lon="5.44432">
        <ele>327.1</ele>
        <time>2020-06-29T19:38:58Z</time>
      </trkpt>
      <trkpt lat="48.70742" lon="5.4443">
        <ele>327.1</ele>
        <time>2020-06-29T19:38:59Z</time>
      </trkpt>
      <trkpt lat="48.70741" lon="5.44428">
        <ele>327.1</ele>
        <time>2020-06-29T19:39:00Z</time>
      </trkpt>
      <trkpt lat="48.70741" lon="5.44428">
        <ele>327.1</ele>
        <time>2020-06-29T19:39:01Z</time>
      </trkpt>
      <trkpt lat="48.7074" lon="5.44428">
        <ele>327.1</ele>
        <time>2020-06-29T19:39:02Z</time>
      </trkpt>
      <trkpt lat="48.7074" lon="5.44425">
        <ele>327.1</ele>
        <time>2020-06-29T19:39:03Z</time>
      </trkpt>
      <trkpt lat="48.70739" lon="5.44425">
        <ele>327.2</ele>
        <time>2020-06-29T19:39:04Z</time>
      </trkpt>
      <trkpt lat="48.70739" lon="5.44425">
        <ele>327.2</ele>
        <time>2020-06-29T19:39:05Z</time>
      </trkpt>
      <trkpt lat="48.70739" lon="5.44425">
        <ele>327.2</ele>
        <time>2020-06-29T19:39:06Z</time>
      </trkpt>
      <trkpt lat="48.70739" lon="5.44424">
        <ele>327.2</ele>
        <time>2020-06-29T19:39:07Z</time>
      </trkpt>
      <trkpt lat="48.7074" lon="5.44423">
        <ele>327.2</ele>
        <time>2020-06-29T19:39:08Z</time>
      </trkpt>
      <trkpt lat="48.7074" lon="5.44423">
        <ele>327.2</ele>
        <time>2020-06-29T19:39:09Z</time>
      </trkpt>
      <trkpt lat="48.7074" lon="5.44422">
        <ele>327.2</ele>
        <time>2020-06-29T19:39:10Z</time>
      </trkpt>
      <trkpt lat="48.70741" lon="5.44422">
        <ele>327.2</ele>
        <time>2020-06-29T19:39:11Z</time>
      </trkpt>
      <trkpt lat="48.7074" lon="5.44422">
        <ele>327.2</ele>
        <time>2020-06-29T19:39:12Z</time>
      </trkpt>
      <trkpt lat="48.70741" lon="5.44421">
        <ele>327.2</ele>
        <time>2020-06-29T19:39:13Z</time>
      </trkpt>
      <trkpt lat="48.70741" lon="5.4442">
        <ele>327.2</ele>
        <time>2020-06-29T19:39:14Z</time>
      </trkpt>
      <trkpt lat="48.70741" lon="5.4442">
        <ele>327.2</ele>
        <time>2020-06-29T19:39:15Z</time>
      </trkpt>
      <trkpt lat="48.70741" lon="5.4442">
        <ele>327.2</ele>
        <time>2020-06-29T19:39:16Z</time>
      </trkpt>
      <trkpt lat="48.70741" lon="5.4442">
        <ele>327.2</ele>
        <time>2020-06-29T19:39:17Z</time>
      </trkpt>
      <trkpt lat="48.70741" lon="5.4442">
        <ele>327.2</ele>
        <time>2020-06-29T19:39:18Z</time>
      </trkpt>
      <trkpt lat="48.70741" lon="5.4442">
        <ele>327.2</ele>
        <time>2020-06-29T19:39:19Z</time>
      </trkpt>
      <trkpt lat="48.70741" lon="5.4442">
        <ele>327.2</ele>
        <time>2020-06-29T19:39:20Z</time>
      </trkpt>
      <trkpt lat="48.70741" lon="5.4442">
        <ele>327.2</ele>
        <time>2020-06-29T19:39:21Z</time>
      </trkpt>
      <trkpt lat="48.70741" lon="5.4442">
        <ele>327.2</ele>
        <time>2020-06-29T19:39:22Z</time>
      </trkpt>
      <trkpt lat="48.70741" lon="5.4442">
        <ele>327.2</ele>
        <time>2020-06-29T19:39:23Z</time>
      </trkpt>
      <trkpt lat="48.70741" lon="5.4442">
        <ele>327.2</ele>
        <time>2020-06-29T19:39:24Z</time>
      </trkpt>
      <trkpt lat="48.70741" lon="5.4442">
        <ele>327.2</ele>
        <time>2020-06-29T19:39:25Z</time>
      </trkpt>
      <trkpt lat="48.70734" lon="5.44425">
        <ele>327.3</ele>
        <time>2020-06-29T19:42:04Z</time>
      </trkpt>
      <trkpt lat="48.70733" lon="5.44427">
        <ele>327.3</ele>
        <time>2020-06-29T19:42:05Z</time>
      </trkpt>
      <trkpt lat="48.70732" lon="5.44429">
        <ele>327.4</ele>
        <time>2020-06-29T19:42:06Z</time>
      </trkpt>
      <trkpt lat="48.70731" lon="5.44431">
        <ele>327.4</ele>
        <time>2020-06-29T19:42:07Z</time>
      </trkpt>
      <trkpt lat="48.70731" lon="5.44432">
        <ele>327.4</ele>
        <time>2020-06-29T19:42:08Z</time>
      </trkpt>
      <trkpt lat="48.7073" lon="5.44432">
        <ele>327.4</ele>
        <time>2020-06-29T19:42:09Z</time>
      </trkpt>
      <trkpt lat="48.70731" lon="5.44431">
        <ele>327.4</ele>
        <time>2020-06-29T19:42:10Z</time>
      </trkpt>
      <trkpt lat="48.7073" lon="5.44431">
        <ele>327.4</ele>
        <time>2020-06-29T19:42:11Z</time>
      </trkpt>
      <trkpt lat="48.7073" lon="5.44433">
        <ele>327.4</ele>
        <time>2020-06-29T19:42:12Z</time>
      </trkpt>
      <trkpt lat="48.7073" lon="5.44433">
        <ele>327.4</ele>
        <time>2020-06-29T19:42:13Z</time>
      </trkpt>
      <trkpt lat="48.70731" lon="5.44435">
        <ele>327.4</ele>
        <time>2020-06-29T19:42:14Z</time>
      </trkpt>
      <trkpt lat="48.70734" lon="5.44439">
        <ele>327.5</ele>
        <time>2020-06-29T19:42:15Z</time>
      </trkpt>
      <trkpt lat="48.70737" lon="5.44441">
        <ele>327.5</ele>
        <time>2020-06-29T19:42:16Z</time>
      </trkpt>
      <trkpt lat="48.70738" lon="5.44442">
        <ele>327.6</ele>
        <time>2020-06-29T19:42:17Z</time>
      </trkpt>
      <trkpt lat="48.7074" lon="5.44442">
        <ele>327.6</ele>
        <time>2020-06-29T19:42:18Z</time>
      </trkpt>
      <trkpt lat="48.7074" lon="5.44442">
        <ele>327.6</ele>
        <time>2020-06-29T19:42:19Z</time>
      </trkpt>
      <trkpt lat="48.7074" lon="5.44442">
        <ele>327.6</ele>
        <time>2020-06-29T19:42:20Z</time>
      </trkpt>
      <trkpt lat="48.7074" lon="5.44442">
        <ele>327.6</ele>
        <time>2020-06-29T19:42:21Z</time>
      </trkpt>
      <trkpt lat="48.70741" lon="5.44442">
        <ele>327.6</ele>
        <time>2020-06-29T19:42:22Z</time>
      </trkpt>
      <trkpt lat="48.70741" lon="5.44441">
        <ele>327.6</ele>
        <time>2020-06-29T19:42:23Z</time>
      </trkpt>
      <trkpt lat="48.70742" lon="5.44441">
        <ele>327.6</ele>
        <time>2020-06-29T19:42:24Z</time>
      </trkpt>
      <trkpt lat="48.70741" lon="5.4444">
        <ele>327.6</ele>
        <time>2020-06-29T19:42:25Z</time>
      </trkpt>
      <trkpt lat="48.70741" lon="5.44439">
        <ele>327.7</ele>
        <time>2020-06-29T19:42:26Z</time>
      </trkpt>
      <trkpt lat="48.70742" lon="5.4444">
        <ele>327.7</ele>
        <time>2020-06-29T19:42:27Z</time>
      </trkpt>
      <trkpt lat="48.70742" lon="5.44441">
        <ele>327.7</ele>
        <time>2020-06-29T19:42:28Z</time>
      </trkpt>
      <trkpt lat="48.70743" lon="5.4444">
        <ele>327.7</ele>
        <time>2020-06-29T19:42:29Z</time>
      </trkpt>
      <trkpt lat="48.70743" lon="5.44441">
        <ele>327.7</ele>
        <time>2020-06-29T19:42:30Z</time>
      </trkpt>
      <trkpt lat="48.70743" lon="5.44442">
        <ele>327.7</ele>
        <time>2020-06-29T19:42:31Z</time>
      </trkpt>
      <trkpt lat="48.70742" lon="5.44443">
        <ele>327.7</ele>
        <time>2020-06-29T19:42:32Z</time>
      </trkpt>
      <trkpt lat="48.70742" lon="5.44444">
        <ele>327.7</ele>
        <time>2020-06-29T19:42:33Z</time>
      </trkpt>
      <trkpt lat="48.70742" lon="5.44445">
        <ele>327.7</ele>
        <time>2020-06-29T19:42:34Z</time>
      </trkpt>
      <trkpt lat="48.70741" lon="5.44446">
        <ele>327.8</ele>
        <time>2020-06-29T19:42:35Z</time>
      </trkpt>
      <trkpt lat="48.70739" lon="5.4445">
        <ele>327.8</ele>
        <time>2020-06-29T19:42:36Z</time>
      </trkpt>
      <trkpt lat="48.70738" lon="5.44452">
        <ele>327.8</ele>
        <time>2020-06-29T19:42:37Z</time>
      </trkpt>
      <trkpt lat="48.70738" lon="5.44453">
        <ele>327.8</ele>
        <time>2020-06-29T19:42:38Z</time>
      </trkpt>
      <trkpt lat="48.70738" lon="5.44453">
        <ele>327.8</ele>
        <time>2020-06-29T19:42:39Z</time>
      </trkpt>
      <trkpt lat="48.70738" lon="5.44453">
        <ele>327.8</ele>
        <time>2020-06-29T19:42:40Z</time>
      </trkpt>
      <trkpt lat="48.70738" lon="5.44454">
        <ele>327.9</ele>
        <time>2020-06-29T19:42:41Z</time>
      </trkpt>
      <trkpt lat="48.70738" lon="5.44453">
        <ele>327.9</ele>
        <time>2020-06-29T19:42:42Z</time>
      </trkpt>
      <trkpt lat="48.70738" lon="5.44453">
        <ele>327.9</ele>
        <time>2020-06-29T19:42:43Z</time>
      </trkpt>
      <trkpt lat="48.70738" lon="5.44453">
        <ele>327.9</ele>
        <time>2020-06-29T19:42:44Z</time>
      </trkpt>
      <trkpt lat="48.70737" lon="5.44453">
        <ele>327.9</ele>
        <time>2020-06-29T19:42:45Z</time>
      </trkpt>
      <trkpt lat="48.70738" lon="5.44452">
        <ele>327.9</ele>
        <time>2020-06-29T19:42:46Z</time>
      </trkpt>
      <trkpt lat="48.70737" lon="5.44453">
        <ele>327.9</ele>
        <time>2020-06-29T19:42:47Z</time>
      </trkpt>
      <trkpt lat="48.70737" lon="5.44453">
        <ele>327.9</ele>
        <time>2020-06-29T19:42:48Z</time>
      </trkpt>
      <trkpt lat="48.70737" lon="5.44453">
        <ele>327.9</ele>
        <time>2020-06-29T19:42:49Z</time>
      </trkpt>
      <trkpt lat="48.70736" lon="5.44454">
        <ele>327.9</ele>
        <time>2020-06-29T19:42:50Z</time>
      </trkpt>
      <trkpt lat="48.70735" lon="5.44454">
        <ele>328</ele>
        <time>2020-06-29T19:42:51Z</time>
      </trkpt>
      <trkpt lat="48.70734" lon="5.44456">
        <ele>328</ele>
        <time>2020-06-29T19:42:52Z</time>
      </trkpt>
      <trkpt lat="48.70733" lon="5.44456">
        <ele>328</ele>
        <time>2020-06-29T19:42:53Z</time>
      </trkpt>
      <trkpt lat="48.70733" lon="5.44456">
        <ele>328</ele>
        <time>2020-06-29T19:42:54Z</time>
      </trkpt>
      <trkpt lat="48.70733" lon="5.44457">
        <ele>328</ele>
        <time>2020-06-29T19:42:55Z</time>
      </trkpt>
      <trkpt lat="48.70733" lon="5.44457">
        <ele>328</ele>
        <time>2020-06-29T19:42:56Z</time>
      </trkpt>
      <trkpt lat="48.70733" lon="5.44458">
        <ele>328</ele>
        <time>2020-06-29T19:42:57Z</time>
      </trkpt>
      <trkpt lat="48.70733" lon="5.44459">
        <ele>328</ele>
        <time>2020-06-29T19:42:58Z</time>
      </trkpt>
      <trkpt lat="48.70733" lon="5.4446">
        <ele>328.1</ele>
        <time>2020-06-29T19:42:59Z</time>
      </trkpt>
      <trkpt lat="48.70733" lon="5.4446">
        <ele>328.1</ele>
        <time>2020-06-29T19:43:00Z</time>
      </trkpt>
      <trkpt lat="48.70733" lon="5.44461">
        <ele>328.1</ele>
        <time>2020-06-29T19:43:01Z</time>
      </trkpt>
      <trkpt lat="48.70733" lon="5.44462">
        <ele>328.1</ele>
        <time>2020-06-29T19:43:02Z</time>
      </trkpt>
      <trkpt lat="48.70734" lon="5.44462">
        <ele>328.1</ele>
        <time>2020-06-29T19:43:03Z</time>
      </trkpt>
      <trkpt lat="48.70733" lon="5.44461">
        <ele>328.1</ele>
        <time>2020-06-29T19:43:04Z</time>
      </trkpt>
      <trkpt lat="48.70733" lon="5.44463">
        <ele>328.1</ele>
        <time>2020-06-29T19:43:05Z</time>
      </trkpt>
      <trkpt lat="48.70733" lon="5.44462">
        <ele>328.1</ele>
        <time>2020-06-29T19:43:06Z</time>
      </trkpt>
      <trkpt lat="48.70732" lon="5.44463">
        <ele>328.2</ele>
        <time>2020-06-29T19:43:07Z</time>
      </trkpt>
      <trkpt lat="48.70731" lon="5.44464">
        <ele>328.2</ele>
        <time>2020-06-29T19:43:08Z</time>
      </trkpt>
      <trkpt lat="48.70731" lon="5.44462">
        <ele>328.2</ele>
        <time>2020-06-29T19:43:09Z</time>
      </trkpt>
      <trkpt lat="48.70732" lon="5.44461">
        <ele>328.2</ele>
        <time>2020-06-29T19:43:10Z</time>
      </trkpt>
      <trkpt lat="48.70731" lon="5.44462">
        <ele>328.2</ele>
        <time>2020-06-29T19:43:11Z</time>
      </trkpt>
      <trkpt lat="48.70731" lon="5.44462">
        <ele>328.2</ele>
        <time>2020-06-29T19:43:12Z</time>
      </trkpt>
      <trkpt lat="48.7073" lon="5.44463">
        <ele>328.2</ele>
        <time>2020-06-29T19:43:13Z</time>
      </trkpt>
      <trkpt lat="48.70727" lon="5.44463">
        <ele>328.3</ele>
        <time>2020-06-29T19:43:14Z</time>
      </trkpt>
      <trkpt lat="48.70726" lon="5.44464">
        <ele>328.3</ele>
        <time>2020-06-29T19:43:15Z</time>
      </trkpt>
      <trkpt lat="48.70725" lon="5.44465">
        <ele>328.4</ele>
        <time>2020-06-29T19:43:16Z</time>
      </trkpt>
      <trkpt lat="48.70723" lon="5.44464">
        <ele>328.4</ele>
        <time>2020-06-29T19:43:17Z</time>
      </trkpt>
      <trkpt lat="48.7072" lon="5.44463">
        <ele>328.5</ele>
        <time>2020-06-29T19:43:18Z</time>
      </trkpt>
      <trkpt lat="48.70719" lon="5.44463">
        <ele>328.5</ele>
        <time>2020-06-29T19:43:19Z</time>
      </trkpt>
      <trkpt lat="48.70716" lon="5.44463">
        <ele>328.5</ele>
        <time>2020-06-29T19:43:20Z</time>
      </trkpt>
      <trkpt lat="48.70715" lon="5.44463">
        <ele>328.6</ele>
        <time>2020-06-29T19:43:21Z</time>
      </trkpt>
      <trkpt lat="48.70713" lon="5.44464">
        <ele>328.6</ele>
        <time>2020-06-29T19:43:22Z</time>
      </trkpt>
      <trkpt lat="48.70712" lon="5.44465">
        <ele>328.6</ele>
        <time>2020-06-29T19:43:23Z</time>
      </trkpt>
      <trkpt lat="48.70713" lon="5.44464">
        <ele>328.6</ele>
        <time>2020-06-29T19:43:24Z</time>
      </trkpt>
      <trkpt lat="48.70714" lon="5.44462">
        <ele>328.7</ele>
        <time>2020-06-29T19:43:25Z</time>
      </trkpt>
      <trkpt lat="48.70715" lon="5.4446">
        <ele>328.7</ele>
        <time>2020-06-29T19:43:26Z</time>
      </trkpt>
      <trkpt lat="48.70718" lon="5.44454">
        <ele>328.8</ele>
        <time>2020-06-29T19:43:27Z</time>
      </trkpt>
      <trkpt lat="48.70721" lon="5.44451">
        <ele>328.8</ele>
        <time>2020-06-29T19:43:28Z</time>
      </trkpt>
      <trkpt lat="48.70724" lon="5.44449">
        <ele>328.9</ele>
        <time>2020-06-29T19:43:29Z</time>
      </trkpt>
      <trkpt lat="48.70725" lon="5.44448">
        <ele>328.9</ele>
        <time>2020-06-29T19:43:30Z</time>
      </trkpt>
      <trkpt lat="48.70725" lon="5.44447">
        <ele>328.9</ele>
        <time>2020-06-29T19:43:31Z</time>
      </trkpt>
      <trkpt lat="48.70725" lon="5.44445">
        <ele>328.9</ele>
        <time>2020-06-29T19:43:32Z</time>
      </trkpt>
      <trkpt lat="48.70725" lon="5.44444">
        <ele>328.9</ele>
        <time>2020-06-29T19:43:33Z</time>
      </trkpt>
      <trkpt lat="48.70726" lon="5.44444">
        <ele>328.9</ele>
        <time>2020-06-29T19:43:34Z</time>
      </trkpt>
      <trkpt lat="48.70726" lon="5.44444">
        <ele>328.9</ele>
        <time>2020-06-29T19:43:35Z</time>
      </trkpt>
      <trkpt lat="48.70726" lon="5.44443">
        <ele>328.9</ele>
        <time>2020-06-29T19:43:36Z</time>
      </trkpt>
      <trkpt lat="48.70726" lon="5.44443">
        <ele>328.9</ele>
        <time>2020-06-29T19:43:37Z</time>
      </trkpt>
      <trkpt lat="48.70726" lon="5.44441">
        <ele>328.9</ele>
        <time>2020-06-29T19:43:38Z</time>
      </trkpt>
      <trkpt lat="48.70727" lon="5.4444">
        <ele>329</ele>
        <time>2020-06-29T19:43:39Z</time>
      </trkpt>
      <trkpt lat="48.70727" lon="5.44438">
        <ele>329</ele>
        <time>2020-06-29T19:43:40Z</time>
      </trkpt>
      <trkpt lat="48.70727" lon="5.44437">
        <ele>329</ele>
        <time>2020-06-29T19:43:41Z</time>
      </trkpt>
      <trkpt lat="48.70727" lon="5.44436">
        <ele>329</ele>
        <time>2020-06-29T19:43:42Z</time>
      </trkpt>
      <trkpt lat="48.70727" lon="5.44434">
        <ele>329</ele>
        <time>2020-06-29T19:43:43Z</time>
      </trkpt>
      <trkpt lat="48.70727" lon="5.44433">
        <ele>329</ele>
        <time>2020-06-29T19:43:44Z</time>
      </trkpt>
      <trkpt lat="48.70726" lon="5.44434">
        <ele>329</ele>
        <time>2020-06-29T19:43:45Z</time>
      </trkpt>
      <trkpt lat="48.70725" lon="5.44433">
        <ele>329</ele>
        <time>2020-06-29T19:43:46Z</time>
      </trkpt>
      <trkpt lat="48.70725" lon="5.44431">
        <ele>329.1</ele>
        <time>2020-06-29T19:43:47Z</time>
      </trkpt>
      <trkpt lat="48.70725" lon="5.4443">
        <ele>329.1</ele>
        <time>2020-06-29T19:43:48Z</time>
      </trkpt>
      <trkpt lat="48.70725" lon="5.44431">
        <ele>329.1</ele>
        <time>2020-06-29T19:43:49Z</time>
      </trkpt>
      <trkpt lat="48.70725" lon="5.44432">
        <ele>329.1</ele>
        <time>2020-06-29T19:43:50Z</time>
      </trkpt>
      <trkpt lat="48.70725" lon="5.44432">
        <ele>329.1</ele>
        <time>2020-06-29T19:43:51Z</time>
      </trkpt>
      <trkpt lat="48.70725" lon="5.44431">
        <ele>329.1</ele>
        <time>2020-06-29T19:43:52Z</time>
      </trkpt>
      <trkpt lat="48.70725" lon="5.44431">
        <ele>329.1</ele>
        <time>2020-06-29T19:43:53Z</time>
      </trkpt>
      <trkpt lat="48.70725" lon="5.4443">
        <ele>329.1</ele>
        <time>2020-06-29T19:43:54Z</time>
      </trkpt>
      <trkpt lat="48.70725" lon="5.4443">
        <ele>329.1</ele>
        <time>2020-06-29T19:43:55Z</time>
      </trkpt>
      <trkpt lat="48.70726" lon="5.4443">
        <ele>329.1</ele>
        <time>2020-06-29T19:43:56Z</time>
      </trkpt>
      <trkpt lat="48.70726" lon="5.44429">
        <ele>329.1</ele>
        <time>2020-06-29T19:43:57Z</time>
      </trkpt>
      <trkpt lat="48.70727" lon="5.44427">
        <ele>329.2</ele>
        <time>2020-06-29T19:43:58Z</time>
      </trkpt>
      <trkpt lat="48.70727" lon="5.44426">
        <ele>329.2</ele>
        <time>2020-06-29T19:43:59Z</time>
      </trkpt>
      <trkpt lat="48.70728" lon="5.44426">
        <ele>329.2</ele>
        <time>2020-06-29T19:44:00Z</time>
      </trkpt>
      <trkpt lat="48.70729" lon="5.44426">
        <ele>329.2</ele>
        <time>2020-06-29T19:44:01Z</time>
      </trkpt>
      <trkpt lat="48.7073" lon="5.44426">
        <ele>329.2</ele>
        <time>2020-06-29T19:44:02Z</time>
      </trkpt>
      <trkpt lat="48.7073" lon="5.44426">
        <ele>329.2</ele>
        <time>2020-06-29T19:44:03Z</time>
      </trkpt>
      <trkpt lat="48.7073" lon="5.44427">
        <ele>329.2</ele>
        <time>2020-06-29T19:44:04Z</time>
      </trkpt>
      <trkpt lat="48.7073" lon="5.44428">
        <ele>329.2</ele>
        <time>2020-06-29T19:44:05Z</time>
      </trkpt>
      <trkpt lat="48.7073" lon="5.4443">
        <ele>329.2</ele>
        <time>2020-06-29T19:44:06Z</time>
      </trkpt>
      <trkpt lat="48.7073" lon="5.44431">
        <ele>329.3</ele>
        <time>2020-06-29T19:44:07Z</time>
      </trkpt>
      <trkpt lat="48.7073" lon="5.44431">
        <ele>329.3</ele>
        <time>2020-06-29T19:44:08Z</time>
      </trkpt>
      <trkpt lat="48.7073" lon="5.44432">
        <ele>329.3</ele>
        <time>2020-06-29T19:44:09Z</time>
      </trkpt>
      <trkpt lat="48.70731" lon="5.44432">
        <ele>329.3</ele>
        <time>2020-06-29T19:44:10Z</time>
      </trkpt>
      <trkpt lat="48.70731" lon="5.44432">
        <ele>329.3</ele>
        <time>2020-06-29T19:44:11Z</time>
      </trkpt>
      <trkpt lat="48.70732" lon="5.44432">
        <ele>329.3</ele>
        <time>2020-06-29T19:44:12Z</time>
      </trkpt>
      <trkpt lat="48.70732" lon="5.44433">
        <ele>329.3</ele>
        <time>2020-06-29T19:44:13Z</time>
      </trkpt>
      <trkpt lat="48.70732" lon="5.44433">
        <ele>329.3</ele>
        <time>2020-06-29T19:44:14Z</time>
      </trkpt>
      <trkpt lat="48.70732" lon="5.44433">
        <ele>329.3</ele>
        <time>2020-06-29T19:44:15Z</time>
      </trkpt>
      <trkpt lat="48.70732" lon="5.44433">
        <ele>329.3</ele>
        <time>2020-06-29T19:44:16Z</time>
      </trkpt>
      <trkpt lat="48.70733" lon="5.44433">
        <ele>329.3</ele>
        <time>2020-06-29T19:44:17Z</time>
      </trkpt>
      <trkpt lat="48.70734" lon="5.44433">
        <ele>329.3</ele>
        <time>2020-06-29T19:44:18Z</time>
      </trkpt>
      <trkpt lat="48.70734" lon="5.44434">
        <ele>329.3</ele>
        <time>2020-06-29T19:44:19Z</time>
      </trkpt>
      <trkpt lat="48.70735" lon="5.44435">
        <ele>329.4</ele>
        <time>2020-06-29T19:44:20Z</time>
      </trkpt>
      <trkpt lat="48.70735" lon="5.44437">
        <ele>329.4</ele>
        <time>2020-06-29T19:44:21Z</time>
      </trkpt>
      <trkpt lat="48.70736" lon="5.44438">
        <ele>329.4</ele>
        <time>2020-06-29T19:44:22Z</time>
      </trkpt>
      <trkpt lat="48.70736" lon="5.44439">
        <ele>329.4</ele>
        <time>2020-06-29T19:44:23Z</time>
      </trkpt>
      <trkpt lat="48.70737" lon="5.4444">
        <ele>329.4</ele>
        <time>2020-06-29T19:44:24Z</time>
      </trkpt>
      <trkpt lat="48.70737" lon="5.44441">
        <ele>329.4</ele>
        <time>2020-06-29T19:44:25Z</time>
      </trkpt>
      <trkpt lat="48.70738" lon="5.44442">
        <ele>329.4</ele>
        <time>2020-06-29T19:44:26Z</time>
      </trkpt>
      <trkpt lat="48.70738" lon="5.44443">
        <ele>329.5</ele>
        <time>2020-06-29T19:44:54Z</time>
      </trkpt>
      <trkpt lat="48.70739" lon="5.44444">
        <ele>329.5</ele>
        <time>2020-06-29T19:44:55Z</time>
      </trkpt>
      <trkpt lat="48.70739" lon="5.44445">
        <ele>329.5</ele>
        <time>2020-06-29T19:44:56Z</time>
      </trkpt>
      <trkpt lat="48.7074" lon="5.44446">
        <ele>329.6</ele>
        <time>2020-06-29T19:44:57Z</time>
      </trkpt>
      <trkpt lat="48.70739" lon="5.44446">
        <ele>329.6</ele>
        <time>2020-06-29T19:44:58Z</time>
      </trkpt>
      <trkpt lat="48.70739" lon="5.44447">
        <ele>329.6</ele>
        <time>2020-06-29T19:44:59Z</time>
      </trkpt>
      <trkpt lat="48.7074" lon="5.44447">
        <ele>329.6</ele>
        <time>2020-06-29T19:45:00Z</time>
      </trkpt>
      <trkpt lat="48.7074" lon="5.44447">
        <ele>329.6</ele>
        <time>2020-06-29T19:45:01Z</time>
      </trkpt>
      <trkpt lat="48.7074" lon="5.44448">
        <ele>329.7</ele>
        <time>2020-06-29T19:45:02Z</time>
      </trkpt>
      <trkpt lat="48.7074" lon="5.44449">
        <ele>329.7</ele>
        <time>2020-06-29T19:45:03Z</time>
      </trkpt>
      <trkpt lat="48.70741" lon="5.44449">
        <ele>329.8</ele>
        <time>2020-06-29T19:45:04Z</time>
      </trkpt>
      <trkpt lat="48.70741" lon="5.4445">
        <ele>329.8</ele>
        <time>2020-06-29T19:45:05Z</time>
      </trkpt>
      <trkpt lat="48.70742" lon="5.4445">
        <ele>329.8</ele>
        <time>2020-06-29T19:45:06Z</time>
      </trkpt>
      <trkpt lat="48.70742" lon="5.44449">
        <ele>329.8</ele>
        <time>2020-06-29T19:45:07Z</time>
      </trkpt>
      <trkpt lat="48.70742" lon="5.4445">
        <ele>329.9</ele>
        <time>2020-06-29T19:45:08Z</time>
      </trkpt>
      <trkpt lat="48.70742" lon="5.44452">
        <ele>329.9</ele>
        <time>2020-06-29T19:45:09Z</time>
      </trkpt>
      <trkpt lat="48.70741" lon="5.44453">
        <ele>329.9</ele>
        <time>2020-06-29T19:45:10Z</time>
      </trkpt>
      <trkpt lat="48.70741" lon="5.44453">
        <ele>329.9</ele>
        <time>2020-06-29T19:45:11Z</time>
      </trkpt>
      <trkpt lat="48.70741" lon="5.44454">
        <ele>330</ele>
        <time>2020-06-29T19:45:12Z</time>
      </trkpt>
      <trkpt lat="48.70741" lon="5.44455">
        <ele>330</ele>
        <time>2020-06-29T19:45:13Z</time>
      </trkpt>
      <trkpt lat="48.70741" lon="5.44456">
        <ele>330.1</ele>
        <time>2020-06-29T19:45:14Z</time>
      </trkpt>
      <trkpt lat="48.7074" lon="5.44456">
        <ele>330.1</ele>
        <time>2020-06-29T19:45:15Z</time>
      </trkpt>
      <trkpt lat="48.7074" lon="5.44457">
        <ele>330.1</ele>
        <time>2020-06-29T19:45:16Z</time>
      </trkpt>
      <trkpt lat="48.70739" lon="5.44458">
        <ele>330.1</ele>
        <time>2020-06-29T19:45:17Z</time>
      </trkpt>
      <trkpt lat="48.70738" lon="5.44459">
        <ele>330.1</ele>
        <time>2020-06-29T19:45:18Z</time>
      </trkpt>
      <trkpt lat="48.70736" lon="5.44458">
        <ele>330.2</ele>
        <time>2020-06-29T19:45:19Z</time>
      </trkpt>
      <trkpt lat="48.70736" lon="5.44457">
        <ele>330.2</ele>
        <time>2020-06-29T19:45:20Z</time>
      </trkpt>
      <trkpt lat="48.70735" lon="5.44456">
        <ele>330.3</ele>
        <time>2020-06-29T19:45:21Z</time>
      </trkpt>
      <trkpt lat="48.70735" lon="5.44455">
        <ele>330.3</ele>
        <time>2020-06-29T19:45:22Z</time>
      </trkpt>
      <trkpt lat="48.70736" lon="5.44454">
        <ele>330.3</ele>
        <time>2020-06-29T19:45:23Z</time>
      </trkpt>
      <trkpt lat="48.70736" lon="5.44453">
        <ele>330.3</ele>
        <time>2020-06-29T19:45:24Z</time>
      </trkpt>
      <trkpt lat="48.70735" lon="5.44452">
        <ele>330.3</ele>
        <time>2020-06-29T19:45:25Z</time>
      </trkpt>
      <trkpt lat="48.70736" lon="5.44451">
        <ele>330.4</ele>
        <time>2020-06-29T19:45:26Z</time>
      </trkpt>
      <trkpt lat="48.70735" lon="5.4445">
        <ele>330.5</ele>
        <time>2020-06-29T19:45:27Z</time>
      </trkpt>
      <trkpt lat="48.70736" lon="5.44449">
        <ele>330.5</ele>
        <time>2020-06-29T19:45:28Z</time>
      </trkpt>
      <trkpt lat="48.70735" lon="5.44448">
        <ele>330.5</ele>
        <time>2020-06-29T19:45:29Z</time>
      </trkpt>
      <trkpt lat="48.70735" lon="5.44447">
        <ele>330.5</ele>
        <time>2020-06-29T19:45:30Z</time>
      </trkpt>
      <trkpt lat="48.70735" lon="5.44447">
        <ele>330.5</ele>
        <time>2020-06-29T19:45:31Z</time>
      </trkpt>
      <trkpt lat="48.70735" lon="5.44446">
        <ele>330.5</ele>
        <time>2020-06-29T19:45:32Z</time>
      </trkpt>
      <trkpt lat="48.70734" lon="5.44445">
        <ele>330.6</ele>
        <time>2020-06-29T19:45:33Z</time>
      </trkpt>
      <trkpt lat="48.70733" lon="5.44442">
        <ele>330.6</ele>
        <time>2020-06-29T19:45:35Z</time>
      </trkpt>
      <trkpt lat="48.70733" lon="5.44441">
        <ele>330.7</ele>
        <time>2020-06-29T19:45:36Z</time>
      </trkpt>
      <trkpt lat="48.70733" lon="5.4444">
        <ele>330.7</ele>
        <time>2020-06-29T19:45:37Z</time>
      </trkpt>
      <trkpt lat="48.70733" lon="5.44439">
        <ele>330.7</ele>
        <time>2020-06-29T19:45:38Z</time>
      </trkpt>
      <trkpt lat="48.70732" lon="5.44438">
        <ele>330.7</ele>
        <time>2020-06-29T19:45:39Z</time>
      </trkpt>
      <trkpt lat="48.70732" lon="5.44438">
        <ele>330.7</ele>
        <time>2020-06-29T19:45:40Z</time>
      </trkpt>
      <trkpt lat="48.70732" lon="5.44437">
        <ele>330.7</ele>
        <time>2020-06-29T19:45:41Z</time>
      </trkpt>
      <trkpt lat="48.70732" lon="5.44436">
        <ele>330.8</ele>
        <time>2020-06-29T19:45:42Z</time>
      </trkpt>
      <trkpt lat="48.70733" lon="5.44435">
        <ele>330.8</ele>
        <time>2020-06-29T19:45:43Z</time>
      </trkpt>
      <trkpt lat="48.70732" lon="5.44434">
        <ele>330.8</ele>
        <time>2020-06-29T19:45:44Z</time>
      </trkpt>
      <trkpt lat="48.70732" lon="5.44433">
        <ele>330.9</ele>
        <time>2020-06-29T19:45:45Z</time>
      </trkpt>
      <trkpt lat="48.70732" lon="5.44432">
        <ele>330.9</ele>
        <time>2020-06-29T19:45:46Z</time>
      </trkpt>
      <trkpt lat="48.70732" lon="5.44432">
        <ele>330.9</ele>
        <time>2020-06-29T19:45:47Z</time>
      </trkpt>
      <trkpt lat="48.70733" lon="5.44433">
        <ele>330.9</ele>
        <time>2020-06-29T19:45:48Z</time>
      </trkpt>
      <trkpt lat="48.70734" lon="5.44433">
        <ele>330.9</ele>
        <time>2020-06-29T19:45:49Z</time>
      </trkpt>
      <trkpt lat="48.70735" lon="5.44433">
        <ele>330.9</ele>
        <time>2020-06-29T19:45:50Z</time>
      </trkpt>
      <trkpt lat="48.70735" lon="5.44433">
        <ele>330.9</ele>
        <time>2020-06-29T19:45:51Z</time>
      </trkpt>
      <trkpt lat="48.70735" lon="5.44434">
        <ele>331</ele>
        <time>2020-06-29T19:45:52Z</time>
      </trkpt>
      <trkpt lat="48.70735" lon="5.44433">
        <ele>331</ele>
        <time>2020-06-29T19:45:53Z</time>
      </trkpt>
      <trkpt lat="48.70735" lon="5.44433">
        <ele>331</ele>
        <time>2020-06-29T19:45:54Z</time>
      </trkpt>
      <trkpt lat="48.70735" lon="5.44433">
        <ele>331</ele>
        <time>2020-06-29T19:45:55Z</time>
      </trkpt>
      <trkpt lat="48.70735" lon="5.44433">
        <ele>331.1</ele>
        <time>2020-06-29T19:45:56Z</time>
      </trkpt>
      <trkpt lat="48.70736" lon="5.44434">
        <ele>331.1</ele>
        <time>2020-06-29T19:45:57Z</time>
      </trkpt>
      <trkpt lat="48.70736" lon="5.44433">
        <ele>331.1</ele>
        <time>2020-06-29T19:45:58Z</time>
      </trkpt>
      <trkpt lat="48.70736" lon="5.44434">
        <ele>331.1</ele>
        <time>2020-06-29T19:45:59Z</time>
      </trkpt>
      <trkpt lat="48.70736" lon="5.44435">
        <ele>331.2</ele>
        <time>2020-06-29T19:46:00Z</time>
      </trkpt>
      <trkpt lat="48.70736" lon="5.44436">
        <ele>331.2</ele>
        <time>2020-06-29T19:46:01Z</time>
      </trkpt>
      <trkpt lat="48.70736" lon="5.44437">
        <ele>331.2</ele>
        <time>2020-06-29T19:46:02Z</time>
      </trkpt>
      <trkpt lat="48.70736" lon="5.44436">
        <ele>331.2</ele>
        <time>2020-06-29T19:46:03Z</time>
      </trkpt>
      <trkpt lat="48.70737" lon="5.44437">
        <ele>331.2</ele>
        <time>2020-06-29T19:46:04Z</time>
      </trkpt>
      <trkpt lat="48.70737" lon="5.44437">
        <ele>331.3</ele>
        <time>2020-06-29T19:46:05Z</time>
      </trkpt>
      <trkpt lat="48.70737" lon="5.44438">
        <ele>331.3</ele>
        <time>2020-06-29T19:46:06Z</time>
      </trkpt>
      <trkpt lat="48.70737" lon="5.44438">
        <ele>331.3</ele>
        <time>2020-06-29T19:46:07Z</time>
      </trkpt>
      <trkpt lat="48.70737" lon="5.44438">
        <ele>331.3</ele>
        <time>2020-06-29T19:46:08Z</time>
      </trkpt>
      <trkpt lat="48.70737" lon="5.44438">
        <ele>331.3</ele>
        <time>2020-06-29T19:46:09Z</time>
      </trkpt>
      <trkpt lat="48.70737" lon="5.44438">
        <ele>331.3</ele>
        <time>2020-06-29T19:46:10Z</time>
      </trkpt>
      <trkpt lat="48.70736" lon="5.44438">
        <ele>331.4</ele>
        <time>2020-06-29T19:46:11Z</time>
      </trkpt>
      <trkpt lat="48.70736" lon="5.44439">
        <ele>331.4</ele>
        <time>2020-06-29T19:46:12Z</time>
      </trkpt>
      <trkpt lat="48.70736" lon="5.4444">
        <ele>331.4</ele>
        <time>2020-06-29T19:46:13Z</time>
      </trkpt>
      <trkpt lat="48.70736" lon="5.4444">
        <ele>331.4</ele>
        <time>2020-06-29T19:46:14Z</time>
      </trkpt>
      <trkpt lat="48.70735" lon="5.44441">
        <ele>331.4</ele>
        <time>2020-06-29T19:46:15Z</time>
      </trkpt>
      <trkpt lat="48.70735" lon="5.44442">
        <ele>331.4</ele>
        <time>2020-06-29T19:46:16Z</time>
      </trkpt>
      <trkpt lat="48.70734" lon="5.44442">
        <ele>331.4</ele>
        <time>2020-06-29T19:46:17Z</time>
      </trkpt>
      <trkpt lat="48.70734" lon="5.44444">
        <ele>331.5</ele>
        <time>2020-06-29T19:46:18Z</time>
      </trkpt>
      <trkpt lat="48.70734" lon="5.44444">
        <ele>331.5</ele>
        <time>2020-06-29T19:46:19Z</time>
      </trkpt>
      <trkpt lat="48.70733" lon="5.44445">
        <ele>331.5</ele>
        <time>2020-06-29T19:46:20Z</time>
      </trkpt>
      <trkpt lat="48.70732" lon="5.44445">
        <ele>331.5</ele>
        <time>2020-06-29T19:46:21Z</time>
      </trkpt>
      <trkpt lat="48.70732" lon="5.44445">
        <ele>331.5</ele>
        <time>2020-06-29T19:46:22Z</time>
      </trkpt>
      <trkpt lat="48.70731" lon="5.44444">
        <ele>331.5</ele>
        <time>2020-06-29T19:46:23Z</time>
      </trkpt>
      <trkpt lat="48.70731" lon="5.44444">
        <ele>331.6</ele>
        <time>2020-06-29T19:46:24Z</time>
      </trkpt>
      <trkpt lat="48.70731" lon="5.44444">
        <ele>331.6</ele>
        <time>2020-06-29T19:46:25Z</time>
      </trkpt>
      <trkpt lat="48.7073" lon="5.44443">
        <ele>331.6</ele>
        <time>2020-06-29T19:46:26Z</time>
      </trkpt>
      <trkpt lat="48.70731" lon="5.44443">
        <ele>331.6</ele>
        <time>2020-06-29T19:46:27Z</time>
      </trkpt>
      <trkpt lat="48.70731" lon="5.44443">
        <ele>331.6</ele>
        <time>2020-06-29T19:46:28Z</time>
      </trkpt>
      <trkpt lat="48.70731" lon="5.44443">
        <ele>331.6</ele>
        <time>2020-06-29T19:46:29Z</time>
      </trkpt>
      <trkpt lat="48.70731" lon="5.44442">
        <ele>331.6</ele>
        <time>2020-06-29T19:46:30Z</time>
      </trkpt>
      <trkpt lat="48.70731" lon="5.44442">
        <ele>331.7</ele>
        <time>2020-06-29T19:46:31Z</time>
      </trkpt>
      <trkpt lat="48.70731" lon="5.44442">
        <ele>331.7</ele>
        <time>2020-06-29T19:46:32Z</time>
      </trkpt>
      <trkpt lat="48.70731" lon="5.44444">
        <ele>331.7</ele>
        <time>2020-06-29T19:46:33Z</time>
      </trkpt>
      <trkpt lat="48.70731" lon="5.44443">
        <ele>331.7</ele>
        <time>2020-06-29T19:46:34Z</time>
      </trkpt>
      <trkpt lat="48.70731" lon="5.44444">
        <ele>331.7</ele>
        <time>2020-06-29T19:46:35Z</time>
      </trkpt>
      <trkpt lat="48.70731" lon="5.44444">
        <ele>331.7</ele>
        <time>2020-06-29T19:46:36Z</time>
      </trkpt>
      <trkpt lat="48.7073" lon="5.44444">
        <ele>331.7</ele>
        <time>2020-06-29T19:46:37Z</time>
      </trkpt>
      <trkpt lat="48.7073" lon="5.44443">
        <ele>331.7</ele>
        <time>2020-06-29T19:46:38Z</time>
      </trkpt>
      <trkpt lat="48.7073" lon="5.44443">
        <ele>331.7</ele>
        <time>2020-06-29T19:46:39Z</time>
      </trkpt>
      <trkpt lat="48.7073" lon="5.44443">
        <ele>331.7</ele>
        <time>2020-06-29T19:46:40Z</time>
      </trkpt>
      <trkpt lat="48.7073" lon="5.44443">
        <ele>331.7</ele>
        <time>2020-06-29T19:46:41Z</time>
      </trkpt>
      <trkpt lat="48.7073" lon="5.44443">
        <ele>331.7</ele>
        <time>2020-06-29T19:46:42Z</time>
      </trkpt>
      <trkpt lat="48.7073" lon="5.44443">
        <ele>331.7</ele>
        <time>2020-06-29T19:46:43Z</time>
      </trkpt>
      <trkpt lat="48.7073" lon="5.44444">
        <ele>331.7</ele>
        <time>2020-06-29T19:46:44Z</time>
      </trkpt>
      <trkpt lat="48.7073" lon="5.44444">
        <ele>331.8</ele>
        <time>2020-06-29T19:46:45Z</time>
      </trkpt>
      <trkpt lat="48.70731" lon="5.44445">
        <ele>331.8</ele>
        <time>2020-06-29T19:46:46Z</time>
      </trkpt>
      <trkpt lat="48.7073" lon="5.44445">
        <ele>331.8</ele>
        <time>2020-06-29T19:46:47Z</time>
      </trkpt>
      <trkpt lat="48.70729" lon="5.44444">
        <ele>331.8</ele>
        <time>2020-06-29T19:46:48Z</time>
      </trkpt>
      <trkpt lat="48.70729" lon="5.44444">
        <ele>331.8</ele>
        <time>2020-06-29T19:46:49Z</time>
      </trkpt>
      <trkpt lat="48.70729" lon="5.44444">
        <ele>331.8</ele>
        <time>2020-06-29T19:46:50Z</time>
      </trkpt>
      <trkpt lat="48.70729" lon="5.44444">
        <ele>331.8</ele>
        <time>2020-06-29T19:46:51Z</time>
      </trkpt>
      <trkpt lat="48.70729" lon="5.44443">
        <ele>331.8</ele>
        <time>2020-06-29T19:46:52Z</time>
      </trkpt>
      <trkpt lat="48.70729" lon="5.44443">
        <ele>331.8</ele>
        <time>2020-06-29T19:46:53Z</time>
      </trkpt>
      <trkpt lat="48.70729" lon="5.44442">
        <ele>331.8</ele>
        <time>2020-06-29T19:46:54Z</time>
      </trkpt>
      <trkpt lat="48.70728" lon="5.44441">
        <ele>331.8</ele>
        <time>2020-06-29T19:46:55Z</time>
      </trkpt>
      <trkpt lat="48.70727" lon="5.44441">
        <ele>331.8</ele>
        <time>2020-06-29T19:46:56Z</time>
      </trkpt>
      <trkpt lat="48.70727" lon="5.44441">
        <ele>331.8</ele>
        <time>2020-06-29T19:46:57Z</time>
      </trkpt>
      <trkpt lat="48.70727" lon="5.4444">
        <ele>331.8</ele>
        <time>2020-06-29T19:46:58Z</time>
      </trkpt>
      <trkpt lat="48.70726" lon="5.4444">
        <ele>331.8</ele>
        <time>2020-06-29T19:46:59Z</time>
      </trkpt>
      <trkpt lat="48.70726" lon="5.44439">
        <ele>331.8</ele>
        <time>2020-06-29T19:47:00Z</time>
      </trkpt>
      <trkpt lat="48.70726" lon="5.44438">
        <ele>331.8</ele>
        <time>2020-06-29T19:47:01Z</time>
      </trkpt>
      <trkpt lat="48.70726" lon="5.44437">
        <ele>331.8</ele>
        <time>2020-06-29T19:47:02Z</time>
      </trkpt>
      <trkpt lat="48.70725" lon="5.44436">
        <ele>331.8</ele>
        <time>2020-06-29T19:47:03Z</time>
      </trkpt>
      <trkpt lat="48.70725" lon="5.44438">
        <ele>331.8</ele>
        <time>2020-06-29T19:47:04Z</time>
      </trkpt>
      <trkpt lat="48.70724" lon="5.44438">
        <ele>331.8</ele>
        <time>2020-06-29T19:47:05Z</time>
      </trkpt>
      <trkpt lat="48.70724" lon="5.44438">
        <ele>331.8</ele>
        <time>2020-06-29T19:47:06Z</time>
      </trkpt>
      <trkpt lat="48.70724" lon="5.44439">
        <ele>331.8</ele>
        <time>2020-06-29T19:47:07Z</time>
      </trkpt>
      <trkpt lat="48.70725" lon="5.44439">
        <ele>331.8</ele>
        <time>2020-06-29T19:47:08Z</time>
      </trkpt>
      <trkpt lat="48.70725" lon="5.4444">
        <ele>331.8</ele>
        <time>2020-06-29T19:47:09Z</time>
      </trkpt>
      <trkpt lat="48.70726" lon="5.44441">
        <ele>331.8</ele>
        <time>2020-06-29T19:47:10Z</time>
      </trkpt>
      <trkpt lat="48.70726" lon="5.44442">
        <ele>331.8</ele>
        <time>2020-06-29T19:47:11Z</time>
      </trkpt>
      <trkpt lat="48.70726" lon="5.44443">
        <ele>331.8</ele>
        <time>2020-06-29T19:47:12Z</time>
      </trkpt>
      <trkpt lat="48.70727" lon="5.44445">
        <ele>331.8</ele>
        <time>2020-06-29T19:47:13Z</time>
      </trkpt>
      <trkpt lat="48.70728" lon="5.44446">
        <ele>331.9</ele>
        <time>2020-06-29T19:47:14Z</time>
      </trkpt>
      <trkpt lat="48.70729" lon="5.44446">
        <ele>331.9</ele>
        <time>2020-06-29T19:47:15Z</time>
      </trkpt>
      <trkpt lat="48.7073" lon="5.44446">
        <ele>331.9</ele>
        <time>2020-06-29T19:47:16Z</time>
      </trkpt>
      <trkpt lat="48.70731" lon="5.44446">
        <ele>331.9</ele>
        <time>2020-06-29T19:47:17Z</time>
      </trkpt>
      <trkpt lat="48.70732" lon="5.44446">
        <ele>331.9</ele>
        <time>2020-06-29T19:47:18Z</time>
      </trkpt>
      <trkpt lat="48.7073" lon="5.44448">
        <ele>331.9</ele>
        <time>2020-06-29T19:47:19Z</time>
      </trkpt>
      <trkpt lat="48.70728" lon="5.44449">
        <ele>331.9</ele>
        <time>2020-06-29T19:47:41Z</time>
      </trkpt>
      <trkpt lat="48.70727" lon="5.4445">
        <ele>331.9</ele>
        <time>2020-06-29T19:47:42Z</time>
      </trkpt>
      <trkpt lat="48.70725" lon="5.44451">
        <ele>331.9</ele>
        <time>2020-06-29T19:47:43Z</time>
      </trkpt>
      <trkpt lat="48.70724" lon="5.4445">
        <ele>331.9</ele>
        <time>2020-06-29T19:47:44Z</time>
      </trkpt>
      <trkpt lat="48.70724" lon="5.4445">
        <ele>331.9</ele>
        <time>2020-06-29T19:47:45Z</time>
      </trkpt>
      <trkpt lat="48.70724" lon="5.44449">
        <ele>331.9</ele>
        <time>2020-06-29T19:47:46Z</time>
      </trkpt>
      <trkpt lat="48.70724" lon="5.44448">
        <ele>331.9</ele>
        <time>2020-06-29T19:47:47Z</time>
      </trkpt>
      <trkpt lat="48.70723" lon="5.44449">
        <ele>331.9</ele>
        <time>2020-06-29T19:47:48Z</time>
      </trkpt>
      <trkpt lat="48.70723" lon="5.44449">
        <ele>331.9</ele>
        <time>2020-06-29T19:47:49Z</time>
      </trkpt>
      <trkpt lat="48.70723" lon="5.44449">
        <ele>331.9</ele>
        <time>2020-06-29T19:47:50Z</time>
      </trkpt>
      <trkpt lat="48.70722" lon="5.4445">
        <ele>331.9</ele>
        <time>2020-06-29T19:47:51Z</time>
      </trkpt>
      <trkpt lat="48.70723" lon="5.44449">
        <ele>331.9</ele>
        <time>2020-06-29T19:47:52Z</time>
      </trkpt>
      <trkpt lat="48.70723" lon="5.44448">
        <ele>331.9</ele>
        <time>2020-06-29T19:47:53Z</time>
      </trkpt>
      <trkpt lat="48.70724" lon="5.44447">
        <ele>332</ele>
        <time>2020-06-29T19:47:54Z</time>
      </trkpt>
      <trkpt lat="48.70724" lon="5.44447">
        <ele>332</ele>
        <time>2020-06-29T19:47:55Z</time>
      </trkpt>
      <trkpt lat="48.70724" lon="5.44446">
        <ele>332</ele>
        <time>2020-06-29T19:47:56Z</time>
      </trkpt>
      <trkpt lat="48.70725" lon="5.44446">
        <ele>332</ele>
        <time>2020-06-29T19:47:57Z</time>
      </trkpt>
      <trkpt lat="48.70726" lon="5.44443">
        <ele>332</ele>
        <time>2020-06-29T19:47:58Z</time>
      </trkpt>
      <trkpt lat="48.70727" lon="5.44442">
        <ele>332</ele>
        <time>2020-06-29T19:47:59Z</time>
      </trkpt>
      <trkpt lat="48.70728" lon="5.44441">
        <ele>332</ele>
        <time>2020-06-29T19:48:00Z</time>
      </trkpt>
      <trkpt lat="48.70727" lon="5.44442">
        <ele>332</ele>
        <time>2020-06-29T19:48:01Z</time>
      </trkpt>
      <trkpt lat="48.70727" lon="5.44442">
        <ele>332</ele>
        <time>2020-06-29T19:48:02Z</time>
      </trkpt>
      <trkpt lat="48.70727" lon="5.44442">
        <ele>332</ele>
        <time>2020-06-29T19:48:03Z</time>
      </trkpt>
      <trkpt lat="48.70728" lon="5.4444">
        <ele>332</ele>
        <time>2020-06-29T19:48:04Z</time>
      </trkpt>
      <trkpt lat="48.70728" lon="5.44438">
        <ele>332</ele>
        <time>2020-06-29T19:48:05Z</time>
      </trkpt>
      <trkpt lat="48.70728" lon="5.44437">
        <ele>332</ele>
        <time>2020-06-29T19:48:06Z</time>
      </trkpt>
      <trkpt lat="48.70729" lon="5.44436">
        <ele>332</ele>
        <time>2020-06-29T19:48:07Z</time>
      </trkpt>
      <trkpt lat="48.70729" lon="5.44434">
        <ele>332</ele>
        <time>2020-06-29T19:48:08Z</time>
      </trkpt>
      <trkpt lat="48.7073" lon="5.44434">
        <ele>332</ele>
        <time>2020-06-29T19:48:09Z</time>
      </trkpt>
      <trkpt lat="48.7073" lon="5.44433">
        <ele>332</ele>
        <time>2020-06-29T19:48:10Z</time>
      </trkpt>
      <trkpt lat="48.7073" lon="5.44432">
        <ele>332</ele>
        <time>2020-06-29T19:48:11Z</time>
      </trkpt>
      <trkpt lat="48.70731" lon="5.44432">
        <ele>332</ele>
        <time>2020-06-29T19:48:12Z</time>
      </trkpt>
      <trkpt lat="48.7073" lon="5.44431">
        <ele>332</ele>
        <time>2020-06-29T19:48:13Z</time>
      </trkpt>
      <trkpt lat="48.7074" lon="5.44425">
        <ele>332.1</ele>
        <time>2020-06-29T19:50:33Z</time>
      </trkpt>
      <trkpt lat="48.70742" lon="5.44426">
        <ele>332.1</ele>
        <time>2020-06-29T19:50:34Z</time>
      </trkpt>
      <trkpt lat="48.70742" lon="5.44425">
        <ele>332.1</ele>
        <time>2020-06-29T19:50:35Z</time>
      </trkpt>
      <trkpt lat="48.70743" lon="5.44425">
        <ele>332.1</ele>
        <time>2020-06-29T19:50:36Z</time>
      </trkpt>
      <trkpt lat="48.70744" lon="5.44424">
        <ele>332.1</ele>
        <time>2020-06-29T19:50:37Z</time>
      </trkpt>
      <trkpt lat="48.70744" lon="5.44423">
        <ele>332.1</ele>
        <time>2020-06-29T19:50:38Z</time>
      </trkpt>
      <trkpt lat="48.70745" lon="5.44424">
        <ele>332.1</ele>
        <time>2020-06-29T19:50:39Z</time>
      </trkpt>
      <trkpt lat="48.70745" lon="5.44424">
        <ele>332.1</ele>
        <time>2020-06-29T19:50:40Z</time>
      </trkpt>
      <trkpt lat="48.70746" lon="5.44424">
        <ele>332.1</ele>
        <time>2020-06-29T19:50:41Z</time>
      </trkpt>
      <trkpt lat="48.70746" lon="5.44425">
        <ele>332.1</ele>
        <time>2020-06-29T19:50:42Z</time>
      </trkpt>
      <trkpt lat="48.70746" lon="5.44425">
        <ele>332.1</ele>
        <time>2020-06-29T19:50:43Z</time>
      </trkpt>
      <trkpt lat="48.70746" lon="5.44424">
        <ele>332.1</ele>
        <time>2020-06-29T19:50:44Z</time>
      </trkpt>
      <trkpt lat="48.70746" lon="5.44424">
        <ele>332.1</ele>
        <time>2020-06-29T19:50:45Z</time>
      </trkpt>
      <trkpt lat="48.70745" lon="5.44424">
        <ele>332.1</ele>
        <time>2020-06-29T19:50:46Z</time>
      </trkpt>
      <trkpt lat="48.70746" lon="5.44425">
        <ele>332.1</ele>
        <time>2020-06-29T19:50:47Z</time>
      </trkpt>
      <trkpt lat="48.70747" lon="5.44425">
        <ele>332.1</ele>
        <time>2020-06-29T19:50:48Z</time>
      </trkpt>
      <trkpt lat="48.70746" lon="5.44425">
        <ele>332.1</ele>
        <time>2020-06-29T19:50:49Z</time>
      </trkpt>
      <trkpt lat="48.70747" lon="5.44425">
        <ele>332.1</ele>
        <time>2020-06-29T19:50:50Z</time>
      </trkpt>
      <trkpt lat="48.70746" lon="5.44425">
        <ele>332.1</ele>
        <time>2020-06-29T19:50:51Z</time>
      </trkpt>
      <trkpt lat="48.70746" lon="5.44426">
        <ele>332.1</ele>
        <time>2020-06-29T19:50:52Z</time>
      </trkpt>
      <trkpt lat="48.70746" lon="5.44426">
        <ele>332.1</ele>
        <time>2020-06-29T19:50:53Z</time>
      </trkpt>
      <trkpt lat="48.70746" lon="5.44428">
        <ele>332.2</ele>
        <time>2020-06-29T19:50:54Z</time>
      </trkpt>
      <trkpt lat="48.70747" lon="5.44428">
        <ele>332.2</ele>
        <time>2020-06-29T19:50:55Z</time>
      </trkpt>
      <trkpt lat="48.70747" lon="5.44431">
        <ele>332.2</ele>
        <time>2020-06-29T19:50:56Z</time>
      </trkpt>
      <trkpt lat="48.70748" lon="5.44433">
        <ele>332.2</ele>
        <time>2020-06-29T19:50:57Z</time>
      </trkpt>
      <trkpt lat="48.70748" lon="5.44434">
        <ele>332.2</ele>
        <time>2020-06-29T19:50:58Z</time>
      </trkpt>
      <trkpt lat="48.70749" lon="5.44437">
        <ele>332.2</ele>
        <time>2020-06-29T19:50:59Z</time>
      </trkpt>
      <trkpt lat="48.70749" lon="5.44438">
        <ele>332.2</ele>
        <time>2020-06-29T19:51:00Z</time>
      </trkpt>
      <trkpt lat="48.70749" lon="5.44438">
        <ele>332.2</ele>
        <time>2020-06-29T19:51:01Z</time>
      </trkpt>
      <trkpt lat="48.70749" lon="5.44438">
        <ele>332.2</ele>
        <time>2020-06-29T19:51:02Z</time>
      </trkpt>
      <trkpt lat="48.70749" lon="5.44438">
        <ele>332.2</ele>
        <time>2020-06-29T19:51:03Z</time>
      </trkpt>
      <trkpt lat="48.70749" lon="5.44438">
        <ele>332.2</ele>
        <time>2020-06-29T19:51:04Z</time>
      </trkpt>
      <trkpt lat="48.7075" lon="5.44441">
        <ele>332.2</ele>
        <time>2020-06-29T19:51:05Z</time>
      </trkpt>
      <trkpt lat="48.70749" lon="5.44441">
        <ele>332.2</ele>
        <time>2020-06-29T19:51:06Z</time>
      </trkpt>
      <trkpt lat="48.70749" lon="5.44442">
        <ele>332.2</ele>
        <time>2020-06-29T19:51:07Z</time>
      </trkpt>
      <trkpt lat="48.70749" lon="5.44443">
        <ele>332.2</ele>
        <time>2020-06-29T19:51:08Z</time>
      </trkpt>
      <trkpt lat="48.7075" lon="5.44445">
        <ele>332.2</ele>
        <time>2020-06-29T19:51:09Z</time>
      </trkpt>
      <trkpt lat="48.7075" lon="5.44446">
        <ele>332.2</ele>
        <time>2020-06-29T19:51:10Z</time>
      </trkpt>
      <trkpt lat="48.7075" lon="5.44447">
        <ele>332.2</ele>
        <time>2020-06-29T19:51:11Z</time>
      </trkpt>
      <trkpt lat="48.7075" lon="5.44448">
        <ele>332.2</ele>
        <time>2020-06-29T19:51:12Z</time>
      </trkpt>
      <trkpt lat="48.7075" lon="5.44448">
        <ele>332.2</ele>
        <time>2020-06-29T19:51:13Z</time>
      </trkpt>
      <trkpt lat="48.7075" lon="5.44449">
        <ele>332.2</ele>
        <time>2020-06-29T19:51:14Z</time>
      </trkpt>
      <trkpt lat="48.7075" lon="5.44449">
        <ele>332.2</ele>
        <time>2020-06-29T19:51:15Z</time>
      </trkpt>
      <trkpt lat="48.7075" lon="5.4445">
        <ele>332.2</ele>
        <time>2020-06-29T19:51:16Z</time>
      </trkpt>
      <trkpt lat="48.70749" lon="5.44451">
        <ele>332.2</ele>
        <time>2020-06-29T19:51:17Z</time>
      </trkpt>
      <trkpt lat="48.70749" lon="5.44454">
        <ele>332.3</ele>
        <time>2020-06-29T19:51:18Z</time>
      </trkpt>
      <trkpt lat="48.70748" lon="5.44456">
        <ele>332.3</ele>
        <time>2020-06-29T19:51:19Z</time>
      </trkpt>
      <trkpt lat="48.70748" lon="5.44457">
        <ele>332.3</ele>
        <time>2020-06-29T19:51:20Z</time>
      </trkpt>
      <trkpt lat="48.70748" lon="5.44457">
        <ele>332.3</ele>
        <time>2020-06-29T19:51:21Z</time>
      </trkpt>
      <trkpt lat="48.70748" lon="5.44457">
        <ele>332.3</ele>
        <time>2020-06-29T19:51:22Z</time>
      </trkpt>
      <trkpt lat="48.70748" lon="5.44457">
        <ele>332.3</ele>
        <time>2020-06-29T19:51:23Z</time>
      </trkpt>
      <trkpt lat="48.70748" lon="5.44463">
        <ele>332.3</ele>
        <time>2020-06-29T19:51:29Z</time>
      </trkpt>
      <trkpt lat="48.70748" lon="5.44463">
        <ele>332.3</ele>
        <time>2020-06-29T19:51:30Z</time>
      </trkpt>
      <trkpt lat="48.70748" lon="5.44464">
        <ele>332.3</ele>
        <time>2020-06-29T19:51:31Z</time>
      </trkpt>
      <trkpt lat="48.70748" lon="5.44464">
        <ele>332.3</ele>
        <time>2020-06-29T19:51:32Z</time>
      </trkpt>
      <trkpt lat="48.70748" lon="5.44464">
        <ele>332.3</ele>
        <time>2020-06-29T19:51:33Z</time>
      </trkpt>
      <trkpt lat="48.70747" lon="5.44464">
        <ele>332.3</ele>
        <time>2020-06-29T19:51:34Z</time>
      </trkpt>
      <trkpt lat="48.70746" lon="5.44463">
        <ele>332.3</ele>
        <time>2020-06-29T19:51:35Z</time>
      </trkpt>
      <trkpt lat="48.70745" lon="5.44461">
        <ele>332.3</ele>
        <time>2020-06-29T19:51:36Z</time>
      </trkpt>
      <trkpt lat="48.70745" lon="5.44461">
        <ele>332.3</ele>
        <time>2020-06-29T19:51:37Z</time>
      </trkpt>
      <trkpt lat="48.70744" lon="5.4446">
        <ele>332.3</ele>
        <time>2020-06-29T19:51:38Z</time>
      </trkpt>
      <trkpt lat="48.70745" lon="5.44461">
        <ele>332.3</ele>
        <time>2020-06-29T19:51:39Z</time>
      </trkpt>
      <trkpt lat="48.70745" lon="5.44461">
        <ele>332.3</ele>
        <time>2020-06-29T19:51:40Z</time>
      </trkpt>
      <trkpt lat="48.70745" lon="5.44461">
        <ele>332.3</ele>
        <time>2020-06-29T19:51:41Z</time>
      </trkpt>
      <trkpt lat="48.70745" lon="5.44461">
        <ele>332.3</ele>
        <time>2020-06-29T19:51:42Z</time>
      </trkpt>
      <trkpt lat="48.70745" lon="5.4446">
        <ele>332.3</ele>
        <time>2020-06-29T19:51:43Z</time>
      </trkpt>
      <trkpt lat="48.70745" lon="5.4446">
        <ele>332.3</ele>
        <time>2020-06-29T19:51:44Z</time>
      </trkpt>
      <trkpt lat="48.70744" lon="5.44459">
        <ele>332.3</ele>
        <time>2020-06-29T19:51:45Z</time>
      </trkpt>
      <trkpt lat="48.70744" lon="5.44458">
        <ele>332.3</ele>
        <time>2020-06-29T19:51:46Z</time>
      </trkpt>
      <trkpt lat="48.70743" lon="5.44458">
        <ele>332.3</ele>
        <time>2020-06-29T19:51:47Z</time>
      </trkpt>
      <trkpt lat="48.70744" lon="5.44458">
        <ele>332.3</ele>
        <time>2020-06-29T19:51:48Z</time>
      </trkpt>
      <trkpt lat="48.70744" lon="5.44458">
        <ele>332.4</ele>
        <time>2020-06-29T19:51:49Z</time>
      </trkpt>
      <trkpt lat="48.70744" lon="5.44458">
        <ele>332.4</ele>
        <time>2020-06-29T19:51:50Z</time>
      </trkpt>
      <trkpt lat="48.70744" lon="5.44457">
        <ele>332.4</ele>
        <time>2020-06-29T19:51:51Z</time>
      </trkpt>
      <trkpt lat="48.70745" lon="5.44457">
        <ele>332.4</ele>
        <time>2020-06-29T19:51:52Z</time>
      </trkpt>
      <trkpt lat="48.70745" lon="5.44457">
        <ele>332.4</ele>
        <time>2020-06-29T19:51:53Z</time>
      </trkpt>
      <trkpt lat="48.70745" lon="5.44457">
        <ele>332.4</ele>
        <time>2020-06-29T19:51:54Z</time>
      </trkpt>
      <trkpt lat="48.70745" lon="5.44456">
        <ele>332.4</ele>
        <time>2020-06-29T19:51:55Z</time>
      </trkpt>
      <trkpt lat="48.70746" lon="5.44456">
        <ele>332.4</ele>
        <time>2020-06-29T19:51:56Z</time>
      </trkpt>
      <trkpt lat="48.70746" lon="5.44456">
        <ele>332.4</ele>
        <time>2020-06-29T19:51:57Z</time>
      </trkpt>
      <trkpt lat="48.70746" lon="5.44454">
        <ele>332.4</ele>
        <time>2020-06-29T19:51:58Z</time>
      </trkpt>
      <trkpt lat="48.70747" lon="5.44454">
        <ele>332.4</ele>
        <time>2020-06-29T19:51:59Z</time>
      </trkpt>
      <trkpt lat="48.70747" lon="5.44453">
        <ele>332.4</ele>
        <time>2020-06-29T19:52:00Z</time>
      </trkpt>
      <trkpt lat="48.70748" lon="5.44451">
        <ele>332.4</ele>
        <time>2020-06-29T19:52:01Z</time>
      </trkpt>
      <trkpt lat="48.70747" lon="5.4445">
        <ele>332.4</ele>
        <time>2020-06-29T19:52:02Z</time>
      </trkpt>
      <trkpt lat="48.70747" lon="5.44449">
        <ele>332.4</ele>
        <time>2020-06-29T19:52:03Z</time>
      </trkpt>
      <trkpt lat="48.70747" lon="5.44449">
        <ele>332.4</ele>
        <time>2020-06-29T19:52:04Z</time>
      </trkpt>
      <trkpt lat="48.70747" lon="5.44449">
        <ele>332.4</ele>
        <time>2020-06-29T19:52:05Z</time>
      </trkpt>
      <trkpt lat="48.70747" lon="5.4445">
        <ele>332.4</ele>
        <time>2020-06-29T19:52:06Z</time>
      </trkpt>
      <trkpt lat="48.70747" lon="5.44449">
        <ele>332.4</ele>
        <time>2020-06-29T19:52:07Z</time>
      </trkpt>
      <trkpt lat="48.70747" lon="5.44449">
        <ele>332.4</ele>
        <time>2020-06-29T19:52:08Z</time>
      </trkpt>
      <trkpt lat="48.70747" lon="5.44449">
        <ele>332.4</ele>
        <time>2020-06-29T19:52:09Z</time>
      </trkpt>
      <trkpt lat="48.70747" lon="5.44449">
        <ele>332.4</ele>
        <time>2020-06-29T19:52:10Z</time>
      </trkpt>
      <trkpt lat="48.70748" lon="5.44449">
        <ele>332.4</ele>
        <time>2020-06-29T19:52:11Z</time>
      </trkpt>
      <trkpt lat="48.70748" lon="5.44449">
        <ele>332.4</ele>
        <time>2020-06-29T19:52:12Z</time>
      </trkpt>
      <trkpt lat="48.70748" lon="5.44448">
        <ele>332.4</ele>
        <time>2020-06-29T19:52:13Z</time>
      </trkpt>
      <trkpt lat="48.70748" lon="5.44448">
        <ele>332.4</ele>
        <time>2020-06-29T19:52:14Z</time>
      </trkpt>
      <trkpt lat="48.70748" lon="5.44448">
        <ele>332.4</ele>
        <time>2020-06-29T19:52:15Z</time>
      </trkpt>
      <trkpt lat="48.70748" lon="5.44448">
        <ele>332.4</ele>
        <time>2020-06-29T19:52:16Z</time>
      </trkpt>
      <trkpt lat="48.70748" lon="5.44449">
        <ele>332.4</ele>
        <time>2020-06-29T19:52:17Z</time>
      </trkpt>
      <trkpt lat="48.70748" lon="5.44449">
        <ele>332.4</ele>
        <time>2020-06-29T19:52:18Z</time>
      </trkpt>
      <trkpt lat="48.7074" lon="5.44446">
        <ele>332.5</ele>
        <time>2020-06-29T19:55:42Z</time>
      </trkpt>
      <trkpt lat="48.70739" lon="5.44446">
        <ele>332.5</ele>
        <time>2020-06-29T19:55:43Z</time>
      </trkpt>
      <trkpt lat="48.7074" lon="5.44446">
        <ele>332.5</ele>
        <time>2020-06-29T19:55:44Z</time>
      </trkpt>
      <trkpt lat="48.7074" lon="5.44446">
        <ele>332.5</ele>
        <time>2020-06-29T19:55:45Z</time>
      </trkpt>
      <trkpt lat="48.7074" lon="5.44446">
        <ele>332.5</ele>
        <time>2020-06-29T19:55:46Z</time>
      </trkpt>
      <trkpt lat="48.7074" lon="5.44446">
        <ele>332.5</ele>
        <time>2020-06-29T19:55:47Z</time>
      </trkpt>
      <trkpt lat="48.7074" lon="5.44446">
        <ele>332.5</ele>
        <time>2020-06-29T19:55:48Z</time>
      </trkpt>
      <trkpt lat="48.70741" lon="5.44446">
        <ele>332.5</ele>
        <time>2020-06-29T19:55:49Z</time>
      </trkpt>
      <trkpt lat="48.70741" lon="5.44446">
        <ele>332.5</ele>
        <time>2020-06-29T19:55:50Z</time>
      </trkpt>
      <trkpt lat="48.70741" lon="5.44445">
        <ele>332.5</ele>
        <time>2020-06-29T19:55:51Z</time>
      </trkpt>
      <trkpt lat="48.70741" lon="5.44445">
        <ele>332.5</ele>
        <time>2020-06-29T19:55:52Z</time>
      </trkpt>
      <trkpt lat="48.70741" lon="5.44444">
        <ele>332.5</ele>
        <time>2020-06-29T19:55:53Z</time>
      </trkpt>
      <trkpt lat="48.70741" lon="5.44444">
        <ele>332.5</ele>
        <time>2020-06-29T19:55:54Z</time>
      </trkpt>
      <trkpt lat="48.70742" lon="5.44444">
        <ele>332.5</ele>
        <time>2020-06-29T19:55:55Z</time>
      </trkpt>
      <trkpt lat="48.70742" lon="5.44436">
        <ele>332.5</ele>
        <time>2020-06-29T19:56:06Z</time>
      </trkpt>
      <trkpt lat="48.70742" lon="5.44435">
        <ele>332.5</ele>
        <time>2020-06-29T19:56:07Z</time>
      </trkpt>
      <trkpt lat="48.70743" lon="5.44434">
        <ele>332.5</ele>
        <time>2020-06-29T19:56:08Z</time>
      </trkpt>
      <trkpt lat="48.70743" lon="5.44433">
        <ele>332.5</ele>
        <time>2020-06-29T19:56:09Z</time>
      </trkpt>
      <trkpt lat="48.70743" lon="5.44432">
        <ele>332.5</ele>
        <time>2020-06-29T19:56:10Z</time>
      </trkpt>
      <trkpt lat="48.70743" lon="5.44431">
        <ele>332.5</ele>
        <time>2020-06-29T19:56:11Z</time>
      </trkpt>
      <trkpt lat="48.70743" lon="5.44431">
        <ele>332.5</ele>
        <time>2020-06-29T19:56:12Z</time>
      </trkpt>
      <trkpt lat="48.70743" lon="5.44431">
        <ele>332.5</ele>
        <time>2020-06-29T19:56:13Z</time>
      </trkpt>
      <trkpt lat="48.70743" lon="5.44431">
        <ele>332.5</ele>
        <time>2020-06-29T19:56:14Z</time>
      </trkpt>
      <trkpt lat="48.70743" lon="5.4443">
        <ele>332.5</ele>
        <time>2020-06-29T19:56:15Z</time>
      </trkpt>
      <trkpt lat="48.70743" lon="5.4443">
        <ele>332.5</ele>
        <time>2020-06-29T19:56:16Z</time>
      </trkpt>
      <trkpt lat="48.70743" lon="5.44429">
        <ele>332.5</ele>
        <time>2020-06-29T19:56:17Z</time>
      </trkpt>
      <trkpt lat="48.70742" lon="5.44428">
        <ele>332.5</ele>
        <time>2020-06-29T19:56:18Z</time>
      </trkpt>
      <trkpt lat="48.70742" lon="5.44428">
        <ele>332.5</ele>
        <time>2020-06-29T19:56:19Z</time>
      </trkpt>
      <trkpt lat="48.70743" lon="5.44428">
        <ele>332.5</ele>
        <time>2020-06-29T19:56:20Z</time>
      </trkpt>
      <trkpt lat="48.70743" lon="5.44428">
        <ele>332.5</ele>
        <time>2020-06-29T19:56:21Z</time>
      </trkpt>
      <trkpt lat="48.70743" lon="5.44428">
        <ele>332.5</ele>
        <time>2020-06-29T19:56:22Z</time>
      </trkpt>
      <trkpt lat="48.70744" lon="5.44428">
        <ele>332.5</ele>
        <time>2020-06-29T19:56:23Z</time>
      </trkpt>
      <trkpt lat="48.70744" lon="5.44427">
        <ele>332.6</ele>
        <time>2020-06-29T19:56:24Z</time>
      </trkpt>
      <trkpt lat="48.70745" lon="5.44427">
        <ele>332.6</ele>
        <time>2020-06-29T19:56:25Z</time>
      </trkpt>
      <trkpt lat="48.70745" lon="5.44427">
        <ele>332.6</ele>
        <time>2020-06-29T19:56:26Z</time>
      </trkpt>
      <trkpt lat="48.70746" lon="5.44427">
        <ele>332.6</ele>
        <time>2020-06-29T19:56:27Z</time>
      </trkpt>
      <trkpt lat="48.70746" lon="5.44427">
        <ele>332.6</ele>
        <time>2020-06-29T19:56:28Z</time>
      </trkpt>
      <trkpt lat="48.70747" lon="5.44427">
        <ele>332.6</ele>
        <time>2020-06-29T19:56:29Z</time>
      </trkpt>
      <trkpt lat="48.70747" lon="5.44427">
        <ele>332.6</ele>
        <time>2020-06-29T19:57:11Z</time>
      </trkpt>
      <trkpt lat="48.70747" lon="5.44427">
        <ele>332.6</ele>
        <time>2020-06-29T19:57:12Z</time>
      </trkpt>
      <trkpt lat="48.70748" lon="5.44427">
        <ele>332.6</ele>
        <time>2020-06-29T19:57:13Z</time>
      </trkpt>
      <trkpt lat="48.70748" lon="5.44427">
        <ele>332.6</ele>
        <time>2020-06-29T19:57:14Z</time>
      </trkpt>
      <trkpt lat="48.7075" lon="5.44425">
        <ele>332.6</ele>
        <time>2020-06-29T19:57:15Z</time>
      </trkpt>
      <trkpt lat="48.70751" lon="5.44424">
        <ele>332.6</ele>
        <time>2020-06-29T19:57:16Z</time>
      </trkpt>
      <trkpt lat="48.70752" lon="5.44423">
        <ele>332.6</ele>
        <time>2020-06-29T19:57:17Z</time>
      </trkpt>
      <trkpt lat="48.70754" lon="5.44422">
        <ele>332.6</ele>
        <time>2020-06-29T19:57:18Z</time>
      </trkpt>
      <trkpt lat="48.70755" lon="5.44421">
        <ele>332.6</ele>
        <time>2020-06-29T19:57:19Z</time>
      </trkpt>
      <trkpt lat="48.70755" lon="5.44421">
        <ele>332.6</ele>
        <time>2020-06-29T19:57:20Z</time>
      </trkpt>
      <trkpt lat="48.70756" lon="5.4442">
        <ele>332.6</ele>
        <time>2020-06-29T19:57:21Z</time>
      </trkpt>
      <trkpt lat="48.70758" lon="5.44416">
        <ele>332.6</ele>
        <time>2020-06-29T19:57:22Z</time>
      </trkpt>
      <trkpt lat="48.70759" lon="5.44415">
        <ele>332.6</ele>
        <time>2020-06-29T19:57:23Z</time>
      </trkpt>
      <trkpt lat="48.70761" lon="5.44414">
        <ele>332.7</ele>
        <time>2020-06-29T19:57:24Z</time>
      </trkpt>
      <trkpt lat="48.70762" lon="5.44413">
        <ele>332.7</ele>
        <time>2020-06-29T19:57:25Z</time>
      </trkpt>
      <trkpt lat="48.70762" lon="5.44414">
        <ele>332.7</ele>
        <time>2020-06-29T19:57:26Z</time>
      </trkpt>
      <trkpt lat="48.70762" lon="5.44413">
        <ele>332.7</ele>
        <time>2020-06-29T19:57:27Z</time>
      </trkpt>
      <trkpt lat="48.70762" lon="5.44414">
        <ele>332.7</ele>
        <time>2020-06-29T19:57:28Z</time>
      </trkpt>
      <trkpt lat="48.70763" lon="5.44413">
        <ele>332.7</ele>
        <time>2020-06-29T19:57:29Z</time>
      </trkpt>
      <trkpt lat="48.70764" lon="5.44413">
        <ele>332.7</ele>
        <time>2020-06-29T19:57:30Z</time>
      </trkpt>
      <trkpt lat="48.70765" lon="5.44412">
        <ele>332.7</ele>
        <time>2020-06-29T19:57:31Z</time>
      </trkpt>
      <trkpt lat="48.70765" lon="5.44412">
        <ele>332.7</ele>
        <time>2020-06-29T19:57:32Z</time>
      </trkpt>
      <trkpt lat="48.70766" lon="5.44411">
        <ele>332.7</ele>
        <time>2020-06-29T19:57:33Z</time>
      </trkpt>
      <trkpt lat="48.70766" lon="5.44411">
        <ele>332.7</ele>
        <time>2020-06-29T19:57:34Z</time>
      </trkpt>
      <trkpt lat="48.70766" lon="5.4441">
        <ele>332.7</ele>
        <time>2020-06-29T19:57:35Z</time>
      </trkpt>
      <trkpt lat="48.70767" lon="5.44408">
        <ele>332.7</ele>
        <time>2020-06-29T19:57:36Z</time>
      </trkpt>
      <trkpt lat="48.70767" lon="5.44409">
        <ele>332.7</ele>
        <time>2020-06-29T19:57:37Z</time>
      </trkpt>
      <trkpt lat="48.70767" lon="5.44407">
        <ele>332.7</ele>
        <time>2020-06-29T19:57:38Z</time>
      </trkpt>
      <trkpt lat="48.70768" lon="5.44406">
        <ele>332.7</ele>
        <time>2020-06-29T19:57:39Z</time>
      </trkpt>
      <trkpt lat="48.70768" lon="5.44405">
        <ele>332.7</ele>
        <time>2020-06-29T19:57:40Z</time>
      </trkpt>
      <trkpt lat="48.70768" lon="5.44403">
        <ele>332.7</ele>
        <time>2020-06-29T19:57:41Z</time>
      </trkpt>
      <trkpt lat="48.70768" lon="5.44402">
        <ele>332.7</ele>
        <time>2020-06-29T19:57:42Z</time>
      </trkpt>
      <trkpt lat="48.70769" lon="5.444">
        <ele>332.7</ele>
        <time>2020-06-29T19:57:43Z</time>
      </trkpt>
      <trkpt lat="48.7077" lon="5.44398">
        <ele>332.7</ele>
        <time>2020-06-29T19:57:44Z</time>
      </trkpt>
      <trkpt lat="48.7077" lon="5.44397">
        <ele>332.7</ele>
        <time>2020-06-29T19:57:45Z</time>
      </trkpt>
      <trkpt lat="48.70771" lon="5.44397">
        <ele>332.7</ele>
        <time>2020-06-29T19:57:46Z</time>
      </trkpt>
      <trkpt lat="48.70771" lon="5.44395">
        <ele>332.8</ele>
        <time>2020-06-29T19:57:47Z</time>
      </trkpt>
      <trkpt lat="48.70772" lon="5.44394">
        <ele>332.8</ele>
        <time>2020-06-29T19:57:48Z</time>
      </trkpt>
      <trkpt lat="48.70772" lon="5.44393">
        <ele>332.8</ele>
        <time>2020-06-29T19:57:49Z</time>
      </trkpt>
      <trkpt lat="48.70772" lon="5.44392">
        <ele>332.8</ele>
        <time>2020-06-29T19:57:50Z</time>
      </trkpt>
      <trkpt lat="48.70773" lon="5.44391">
        <ele>332.8</ele>
        <time>2020-06-29T19:57:51Z</time>
      </trkpt>
      <trkpt lat="48.70774" lon="5.44388">
        <ele>332.8</ele>
        <time>2020-06-29T19:57:52Z</time>
      </trkpt>
      <trkpt lat="48.70775" lon="5.44387">
        <ele>332.8</ele>
        <time>2020-06-29T19:57:53Z</time>
      </trkpt>
      <trkpt lat="48.70775" lon="5.44386">
        <ele>332.8</ele>
        <time>2020-06-29T19:57:54Z</time>
      </trkpt>
      <trkpt lat="48.70777" lon="5.44383">
        <ele>332.8</ele>
        <time>2020-06-29T19:57:55Z</time>
      </trkpt>
      <trkpt lat="48.70777" lon="5.44382">
        <ele>332.8</ele>
        <time>2020-06-29T19:57:56Z</time>
      </trkpt>
      <trkpt lat="48.70778" lon="5.44381">
        <ele>332.8</ele>
        <time>2020-06-29T19:57:57Z</time>
      </trkpt>
      <trkpt lat="48.7078" lon="5.44377">
        <ele>332.8</ele>
        <time>2020-06-29T19:57:58Z</time>
      </trkpt>
      <trkpt lat="48.70781" lon="5.44376">
        <ele>332.8</ele>
        <time>2020-06-29T19:57:59Z</time>
      </trkpt>
      <trkpt lat="48.70782" lon="5.44374">
        <ele>332.8</ele>
        <time>2020-06-29T19:58:00Z</time>
      </trkpt>
      <trkpt lat="48.70783" lon="5.44372">
        <ele>332.9</ele>
        <time>2020-06-29T19:58:01Z</time>
      </trkpt>
      <trkpt lat="48.70783" lon="5.44371">
        <ele>332.9</ele>
        <time>2020-06-29T19:58:02Z</time>
      </trkpt>
      <trkpt lat="48.70784" lon="5.44369">
        <ele>332.9</ele>
        <time>2020-06-29T19:58:03Z</time>
      </trkpt>
      <trkpt lat="48.70784" lon="5.44366">
        <ele>332.9</ele>
        <time>2020-06-29T19:58:04Z</time>
      </trkpt>
      <trkpt lat="48.70784" lon="5.44364">
        <ele>332.9</ele>
        <time>2020-06-29T19:58:05Z</time>
      </trkpt>
      <trkpt lat="48.70785" lon="5.44363">
        <ele>332.9</ele>
        <time>2020-06-29T19:58:06Z</time>
      </trkpt>
      <trkpt lat="48.70785" lon="5.44362">
        <ele>332.9</ele>
        <time>2020-06-29T19:58:07Z</time>
      </trkpt>
      <trkpt lat="48.70786" lon="5.4436">
        <ele>332.9</ele>
        <time>2020-06-29T19:58:08Z</time>
      </trkpt>
      <trkpt lat="48.70786" lon="5.44357">
        <ele>332.9</ele>
        <time>2020-06-29T19:58:09Z</time>
      </trkpt>
      <trkpt lat="48.70786" lon="5.44356">
        <ele>332.9</ele>
        <time>2020-06-29T19:58:10Z</time>
      </trkpt>
      <trkpt lat="48.70786" lon="5.44354">
        <ele>332.9</ele>
        <time>2020-06-29T19:58:11Z</time>
      </trkpt>
      <trkpt lat="48.70786" lon="5.44354">
        <ele>332.9</ele>
        <time>2020-06-29T19:58:12Z</time>
      </trkpt>
      <trkpt lat="48.70787" lon="5.44353">
        <ele>332.9</ele>
        <time>2020-06-29T19:58:13Z</time>
      </trkpt>
      <trkpt lat="48.70787" lon="5.44353">
        <ele>332.9</ele>
        <time>2020-06-29T19:58:14Z</time>
      </trkpt>
      <trkpt lat="48.70787" lon="5.44351">
        <ele>332.9</ele>
        <time>2020-06-29T19:58:15Z</time>
      </trkpt>
      <trkpt lat="48.70787" lon="5.44351">
        <ele>332.9</ele>
        <time>2020-06-29T19:58:16Z</time>
      </trkpt>
      <trkpt lat="48.70786" lon="5.44351">
        <ele>332.9</ele>
        <time>2020-06-29T19:58:17Z</time>
      </trkpt>
      <trkpt lat="48.70786" lon="5.4435">
        <ele>332.9</ele>
        <time>2020-06-29T19:58:18Z</time>
      </trkpt>
      <trkpt lat="48.70786" lon="5.44349">
        <ele>332.9</ele>
        <time>2020-06-29T19:58:19Z</time>
      </trkpt>
      <trkpt lat="48.70786" lon="5.44348">
        <ele>332.9</ele>
        <time>2020-06-29T19:58:20Z</time>
      </trkpt>
      <trkpt lat="48.70785" lon="5.44347">
        <ele>332.9</ele>
        <time>2020-06-29T19:58:21Z</time>
      </trkpt>
      <trkpt lat="48.70785" lon="5.44347">
        <ele>333</ele>
        <time>2020-06-29T19:58:22Z</time>
      </trkpt>
      <trkpt lat="48.70784" lon="5.44347">
        <ele>333</ele>
        <time>2020-06-29T19:58:23Z</time>
      </trkpt>
      <trkpt lat="48.70784" lon="5.44347">
        <ele>333</ele>
        <time>2020-06-29T19:58:24Z</time>
      </trkpt>
      <trkpt lat="48.70784" lon="5.44347">
        <ele>333</ele>
        <time>2020-06-29T19:58:25Z</time>
      </trkpt>
      <trkpt lat="48.70783" lon="5.44346">
        <ele>333</ele>
        <time>2020-06-29T19:58:26Z</time>
      </trkpt>
      <trkpt lat="48.70783" lon="5.44346">
        <ele>333</ele>
        <time>2020-06-29T19:58:27Z</time>
      </trkpt>
      <trkpt lat="48.70783" lon="5.44345">
        <ele>333</ele>
        <time>2020-06-29T19:58:28Z</time>
      </trkpt>
      <trkpt lat="48.70782" lon="5.44344">
        <ele>333</ele>
        <time>2020-06-29T19:58:29Z</time>
      </trkpt>
      <trkpt lat="48.70782" lon="5.44343">
        <ele>333</ele>
        <time>2020-06-29T19:58:30Z</time>
      </trkpt>
      <trkpt lat="48.70782" lon="5.44343">
        <ele>333</ele>
        <time>2020-06-29T19:58:31Z</time>
      </trkpt>
      <trkpt lat="48.70782" lon="5.44343">
        <ele>333</ele>
        <time>2020-06-29T19:58:32Z</time>
      </trkpt>
      <trkpt lat="48.70782" lon="5.44343">
        <ele>333</ele>
        <time>2020-06-29T19:58:33Z</time>
      </trkpt>
      <trkpt lat="48.70782" lon="5.44343">
        <ele>333</ele>
        <time>2020-06-29T19:58:34Z</time>
      </trkpt>
      <trkpt lat="48.70782" lon="5.44343">
        <ele>333</ele>
        <time>2020-06-29T19:58:35Z</time>
      </trkpt>
      <trkpt lat="48.70782" lon="5.44343">
        <ele>333</ele>
        <time>2020-06-29T19:58:36Z</time>
      </trkpt>
      <trkpt lat="48.70781" lon="5.44343">
        <ele>333</ele>
        <time>2020-06-29T19:58:37Z</time>
      </trkpt>
      <trkpt lat="48.70781" lon="5.44343">
        <ele>333</ele>
        <time>2020-06-29T19:58:38Z</time>
      </trkpt>
      <trkpt lat="48.70779" lon="5.44342">
        <ele>333</ele>
        <time>2020-06-29T19:58:39Z</time>
      </trkpt>
      <trkpt lat="48.70779" lon="5.44341">
        <ele>333</ele>
        <time>2020-06-29T19:58:40Z</time>
      </trkpt>
      <trkpt lat="48.70778" lon="5.44341">
        <ele>333</ele>
        <time>2020-06-29T19:58:41Z</time>
      </trkpt>
      <trkpt lat="48.70778" lon="5.44341">
        <ele>333</ele>
        <time>2020-06-29T19:58:42Z</time>
      </trkpt>
      <trkpt lat="48.70778" lon="5.44341">
        <ele>333</ele>
        <time>2020-06-29T19:58:43Z</time>
      </trkpt>
      <trkpt lat="48.70778" lon="5.44341">
        <ele>333</ele>
        <time>2020-06-29T19:58:44Z</time>
      </trkpt>
      <trkpt lat="48.70778" lon="5.44341">
        <ele>333</ele>
        <time>2020-06-29T19:58:45Z</time>
      </trkpt>
      <trkpt lat="48.70778" lon="5.4434">
        <ele>333</ele>
        <time>2020-06-29T19:58:46Z</time>
      </trkpt>
      <trkpt lat="48.70777" lon="5.44341">
        <ele>333</ele>
        <time>2020-06-29T19:58:47Z</time>
      </trkpt>
      <trkpt lat="48.70777" lon="5.44342">
        <ele>333</ele>
        <time>2020-06-29T19:58:48Z</time>
      </trkpt>
      <trkpt lat="48.70776" lon="5.44343">
        <ele>333</ele>
        <time>2020-06-29T19:58:49Z</time>
      </trkpt>
      <trkpt lat="48.70775" lon="5.44344">
        <ele>333</ele>
        <time>2020-06-29T19:58:50Z</time>
      </trkpt>
      <trkpt lat="48.70775" lon="5.44344">
        <ele>333</ele>
        <time>2020-06-29T19:58:51Z</time>
      </trkpt>
      <trkpt lat="48.70774" lon="5.44344">
        <ele>333</ele>
        <time>2020-06-29T19:58:52Z</time>
      </trkpt>
      <trkpt lat="48.70775" lon="5.44345">
        <ele>333</ele>
        <time>2020-06-29T19:58:53Z</time>
      </trkpt>
      <trkpt lat="48.70775" lon="5.44345">
        <ele>333</ele>
        <time>2020-06-29T19:58:54Z</time>
      </trkpt>
      <trkpt lat="48.70775" lon="5.44345">
        <ele>333</ele>
        <time>2020-06-29T19:58:55Z</time>
      </trkpt>
      <trkpt lat="48.70775" lon="5.44345">
        <ele>333</ele>
        <time>2020-06-29T19:58:56Z</time>
      </trkpt>
      <trkpt lat="48.70775" lon="5.44345">
        <ele>333</ele>
        <time>2020-06-29T19:58:57Z</time>
      </trkpt>
      <trkpt lat="48.70775" lon="5.44345">
        <ele>333</ele>
        <time>2020-06-29T19:58:58Z</time>
      </trkpt>
      <trkpt lat="48.70775" lon="5.44345">
        <ele>333</ele>
        <time>2020-06-29T19:58:59Z</time>
      </trkpt>
      <trkpt lat="48.70775" lon="5.44345">
        <ele>333</ele>
        <time>2020-06-29T19:59:00Z</time>
      </trkpt>
      <trkpt lat="48.70775" lon="5.44345">
        <ele>333</ele>
        <time>2020-06-29T19:59:01Z</time>
      </trkpt>
      <trkpt lat="48.70774" lon="5.44345">
        <ele>333</ele>
        <time>2020-06-29T19:59:02Z</time>
      </trkpt>
      <trkpt lat="48.70773" lon="5.44344">
        <ele>333</ele>
        <time>2020-06-29T19:59:03Z</time>
      </trkpt>
      <trkpt lat="48.70773" lon="5.44345">
        <ele>333</ele>
        <time>2020-06-29T19:59:04Z</time>
      </trkpt>
      <trkpt lat="48.70767" lon="5.44335">
        <ele>333.1</ele>
        <time>2020-06-29T20:02:24Z</time>
      </trkpt>
      <trkpt lat="48.70768" lon="5.44334">
        <ele>333.1</ele>
        <time>2020-06-29T20:02:25Z</time>
      </trkpt>
      <trkpt lat="48.70768" lon="5.44334">
        <ele>333.1</ele>
        <time>2020-06-29T20:02:26Z</time>
      </trkpt>
      <trkpt lat="48.70769" lon="5.44332">
        <ele>333.1</ele>
        <time>2020-06-29T20:02:27Z</time>
      </trkpt>
      <trkpt lat="48.70769" lon="5.4433">
        <ele>333.1</ele>
        <time>2020-06-29T20:02:28Z</time>
      </trkpt>
      <trkpt lat="48.70769" lon="5.44329">
        <ele>333.1</ele>
        <time>2020-06-29T20:02:29Z</time>
      </trkpt>
      <trkpt lat="48.70769" lon="5.44329">
        <ele>333.1</ele>
        <time>2020-06-29T20:02:30Z</time>
      </trkpt>
      <trkpt lat="48.70769" lon="5.44328">
        <ele>333.1</ele>
        <time>2020-06-29T20:02:31Z</time>
      </trkpt>
      <trkpt lat="48.70769" lon="5.44327">
        <ele>333.1</ele>
        <time>2020-06-29T20:02:32Z</time>
      </trkpt>
      <trkpt lat="48.70769" lon="5.44326">
        <ele>333.1</ele>
        <time>2020-06-29T20:02:33Z</time>
      </trkpt>
      <trkpt lat="48.70769" lon="5.44326">
        <ele>333.1</ele>
        <time>2020-06-29T20:02:34Z</time>
      </trkpt>
      <trkpt lat="48.70769" lon="5.44326">
        <ele>333.1</ele>
        <time>2020-06-29T20:02:35Z</time>
      </trkpt>
      <trkpt lat="48.70769" lon="5.44327">
        <ele>333.1</ele>
        <time>2020-06-29T20:02:36Z</time>
      </trkpt>
      <trkpt lat="48.70769" lon="5.44328">
        <ele>333.1</ele>
        <time>2020-06-29T20:02:37Z</time>
      </trkpt>
      <trkpt lat="48.7077" lon="5.44329">
        <ele>333.1</ele>
        <time>2020-06-29T20:02:38Z</time>
      </trkpt>
      <trkpt lat="48.7077" lon="5.44329">
        <ele>333.1</ele>
        <time>2020-06-29T20:02:39Z</time>
      </trkpt>
      <trkpt lat="48.7077" lon="5.4433">
        <ele>333.1</ele>
        <time>2020-06-29T20:02:40Z</time>
      </trkpt>
      <trkpt lat="48.7077" lon="5.44331">
        <ele>333.1</ele>
        <time>2020-06-29T20:02:41Z</time>
      </trkpt>
      <trkpt lat="48.70771" lon="5.44332">
        <ele>333.1</ele>
        <time>2020-06-29T20:02:42Z</time>
      </trkpt>
      <trkpt lat="48.7077" lon="5.44333">
        <ele>333.1</ele>
        <time>2020-06-29T20:02:43Z</time>
      </trkpt>
      <trkpt lat="48.7077" lon="5.44333">
        <ele>333.1</ele>
        <time>2020-06-29T20:02:44Z</time>
      </trkpt>
      <trkpt lat="48.70769" lon="5.44332">
        <ele>333.1</ele>
        <time>2020-06-29T20:02:45Z</time>
      </trkpt>
      <trkpt lat="48.70769" lon="5.44332">
        <ele>333.1</ele>
        <time>2020-06-29T20:02:46Z</time>
      </trkpt>
      <trkpt lat="48.70768" lon="5.44343">
        <ele>333.2</ele>
        <time>2020-06-29T20:07:39Z</time>
      </trkpt>
      <trkpt lat="48.70768" lon="5.44343">
        <ele>333.2</ele>
        <time>2020-06-29T20:07:40Z</time>
      </trkpt>
      <trkpt lat="48.70768" lon="5.44343">
        <ele>333.2</ele>
        <time>2020-06-29T20:07:41Z</time>
      </trkpt>
      <trkpt lat="48.70768" lon="5.44343">
        <ele>333.2</ele>
        <time>2020-06-29T20:07:42Z</time>
      </trkpt>
      <trkpt lat="48.70769" lon="5.44343">
        <ele>333.2</ele>
        <time>2020-06-29T20:07:43Z</time>
      </trkpt>
      <trkpt lat="48.70769" lon="5.44343">
        <ele>333.2</ele>
        <time>2020-06-29T20:07:44Z</time>
      </trkpt>
      <trkpt lat="48.70769" lon="5.44343">
        <ele>333.2</ele>
        <time>2020-06-29T20:07:45Z</time>
      </trkpt>
      <trkpt lat="48.70769" lon="5.44343">
        <ele>333.2</ele>
        <time>2020-06-29T20:07:46Z</time>
      </trkpt>
      <trkpt lat="48.70769" lon="5.44342">
        <ele>333.2</ele>
        <time>2020-06-29T20:07:47Z</time>
      </trkpt>
      <trkpt lat="48.70769" lon="5.44342">
        <ele>333.2</ele>
        <time>2020-06-29T20:07:48Z</time>
      </trkpt>
      <trkpt lat="48.70769" lon="5.4434">
        <ele>333.2</ele>
        <time>2020-06-29T20:07:49Z</time>
      </trkpt>
      <trkpt lat="48.70769" lon="5.4434">
        <ele>333.2</ele>
        <time>2020-06-29T20:07:50Z</time>
      </trkpt>
      <trkpt lat="48.7077" lon="5.44339">
        <ele>333.2</ele>
        <time>2020-06-29T20:07:51Z</time>
      </trkpt>
      <trkpt lat="48.7077" lon="5.44339">
        <ele>333.2</ele>
        <time>2020-06-29T20:07:52Z</time>
      </trkpt>
      <trkpt lat="48.7077" lon="5.44339">
        <ele>333.2</ele>
        <time>2020-06-29T20:07:53Z</time>
      </trkpt>
      <trkpt lat="48.7077" lon="5.44339">
        <ele>333.2</ele>
        <time>2020-06-29T20:07:54Z</time>
      </trkpt>
      <trkpt lat="48.7077" lon="5.44339">
        <ele>333.2</ele>
        <time>2020-06-29T20:07:55Z</time>
      </trkpt>
      <trkpt lat="48.7077" lon="5.4434">
        <ele>333.2</ele>
        <time>2020-06-29T20:07:56Z</time>
      </trkpt>
      <trkpt lat="48.7077" lon="5.4434">
        <ele>333.2</ele>
        <time>2020-06-29T20:07:57Z</time>
      </trkpt>
      <trkpt lat="48.7077" lon="5.44341">
        <ele>333.2</ele>
        <time>2020-06-29T20:07:58Z</time>
      </trkpt>
      <trkpt lat="48.70769" lon="5.44341">
        <ele>333.2</ele>
        <time>2020-06-29T20:07:59Z</time>
      </trkpt>
      <trkpt lat="48.70769" lon="5.44341">
        <ele>333.2</ele>
        <time>2020-06-29T20:08:00Z</time>
      </trkpt>
      <trkpt lat="48.70769" lon="5.44341">
        <ele>333.2</ele>
        <time>2020-06-29T20:08:01Z</time>
      </trkpt>
      <trkpt lat="48.70769" lon="5.4434">
        <ele>333.2</ele>
        <time>2020-06-29T20:08:02Z</time>
      </trkpt>
      <trkpt lat="48.70769" lon="5.4434">
        <ele>333.2</ele>
        <time>2020-06-29T20:08:03Z</time>
      </trkpt>
      <trkpt lat="48.70769" lon="5.44339">
        <ele>333.2</ele>
        <time>2020-06-29T20:08:04Z</time>
      </trkpt>
      <trkpt lat="48.70769" lon="5.4434">
        <ele>333.2</ele>
        <time>2020-06-29T20:08:05Z</time>
      </trkpt>
      <trkpt lat="48.70769" lon="5.4434">
        <ele>333.2</ele>
        <time>2020-06-29T20:08:06Z</time>
      </trkpt>
      <trkpt lat="48.70769" lon="5.4434">
        <ele>333.2</ele>
        <time>2020-06-29T20:08:07Z</time>
      </trkpt>
      <trkpt lat="48.7077" lon="5.44339">
        <ele>333.2</ele>
        <time>2020-06-29T20:08:08Z</time>
      </trkpt>
      <trkpt lat="48.7077" lon="5.44338">
        <ele>333.2</ele>
        <time>2020-06-29T20:08:09Z</time>
      </trkpt>
      <trkpt lat="48.7077" lon="5.44338">
        <ele>333.2</ele>
        <time>2020-06-29T20:08:10Z</time>
      </trkpt>
      <trkpt lat="48.7077" lon="5.44339">
        <ele>333.2</ele>
        <time>2020-06-29T20:08:11Z</time>
      </trkpt>
      <trkpt lat="48.70769" lon="5.44339">
        <ele>333.2</ele>
        <time>2020-06-29T20:08:12Z</time>
      </trkpt>
      <trkpt lat="48.70769" lon="5.44339">
        <ele>333.2</ele>
        <time>2020-06-29T20:08:13Z</time>
      </trkpt>
      <trkpt lat="48.7077" lon="5.4434">
        <ele>333.2</ele>
        <time>2020-06-29T20:08:14Z</time>
      </trkpt>
      <trkpt lat="48.70769" lon="5.44341">
        <ele>333.2</ele>
        <time>2020-06-29T20:08:15Z</time>
      </trkpt>
      <trkpt lat="48.70769" lon="5.44341">
        <ele>333.2</ele>
        <time>2020-06-29T20:08:16Z</time>
      </trkpt>
      <trkpt lat="48.70769" lon="5.44342">
        <ele>333.2</ele>
        <time>2020-06-29T20:08:17Z</time>
      </trkpt>
      <trkpt lat="48.70769" lon="5.44342">
        <ele>333.2</ele>
        <time>2020-06-29T20:08:18Z</time>
      </trkpt>
      <trkpt lat="48.70769" lon="5.44342">
        <ele>333.2</ele>
        <time>2020-06-29T20:08:19Z</time>
      </trkpt>
      <trkpt lat="48.7077" lon="5.44343">
        <ele>333.3</ele>
        <time>2020-06-29T20:09:06Z</time>
      </trkpt>
      <trkpt lat="48.70771" lon="5.44343">
        <ele>333.3</ele>
        <time>2020-06-29T20:09:07Z</time>
      </trkpt>
      <trkpt lat="48.70772" lon="5.44344">
        <ele>333.3</ele>
        <time>2020-06-29T20:09:08Z</time>
      </trkpt>
      <trkpt lat="48.70773" lon="5.44344">
        <ele>333.3</ele>
        <time>2020-06-29T20:09:09Z</time>
      </trkpt>
      <trkpt lat="48.70774" lon="5.44345">
        <ele>333.3</ele>
        <time>2020-06-29T20:09:10Z</time>
      </trkpt>
      <trkpt lat="48.70774" lon="5.44346">
        <ele>333.3</ele>
        <time>2020-06-29T20:09:11Z</time>
      </trkpt>
      <trkpt lat="48.70775" lon="5.44346">
        <ele>333.3</ele>
        <time>2020-06-29T20:09:12Z</time>
      </trkpt>
      <trkpt lat="48.70776" lon="5.44346">
        <ele>333.3</ele>
        <time>2020-06-29T20:09:13Z</time>
      </trkpt>
      <trkpt lat="48.70778" lon="5.44346">
        <ele>333.3</ele>
        <time>2020-06-29T20:09:14Z</time>
      </trkpt>
      <trkpt lat="48.70778" lon="5.44346">
        <ele>333.3</ele>
        <time>2020-06-29T20:09:15Z</time>
      </trkpt>
      <trkpt lat="48.70778" lon="5.44346">
        <ele>333.3</ele>
        <time>2020-06-29T20:09:16Z</time>
      </trkpt>
      <trkpt lat="48.70779" lon="5.44346">
        <ele>333.3</ele>
        <time>2020-06-29T20:09:17Z</time>
      </trkpt>
      <trkpt lat="48.70779" lon="5.44346">
        <ele>333.3</ele>
        <time>2020-06-29T20:09:18Z</time>
      </trkpt>
      <trkpt lat="48.70779" lon="5.44346">
        <ele>333.3</ele>
        <time>2020-06-29T20:09:19Z</time>
      </trkpt>
      <trkpt lat="48.7078" lon="5.44346">
        <ele>333.3</ele>
        <time>2020-06-29T20:09:20Z</time>
      </trkpt>
      <trkpt lat="48.7078" lon="5.44346">
        <ele>333.3</ele>
        <time>2020-06-29T20:09:21Z</time>
      </trkpt>
      <trkpt lat="48.7078" lon="5.44346">
        <ele>333.3</ele>
        <time>2020-06-29T20:09:22Z</time>
      </trkpt>
      <trkpt lat="48.70779" lon="5.44347">
        <ele>333.3</ele>
        <time>2020-06-29T20:09:23Z</time>
      </trkpt>
      <trkpt lat="48.70779" lon="5.44347">
        <ele>333.3</ele>
        <time>2020-06-29T20:09:24Z</time>
      </trkpt>
      <trkpt lat="48.70779" lon="5.44346">
        <ele>333.3</ele>
        <time>2020-06-29T20:09:25Z</time>
      </trkpt>
      <trkpt lat="48.70779" lon="5.44346">
        <ele>333.3</ele>
        <time>2020-06-29T20:09:26Z</time>
      </trkpt>
      <trkpt lat="48.70779" lon="5.44346">
        <ele>333.3</ele>
        <time>2020-06-29T20:09:27Z</time>
      </trkpt>
      <trkpt lat="48.7078" lon="5.44346">
        <ele>333.3</ele>
        <time>2020-06-29T20:09:28Z</time>
      </trkpt>
      <trkpt lat="48.70779" lon="5.44346">
        <ele>333.3</ele>
        <time>2020-06-29T20:09:29Z</time>
      </trkpt>
      <trkpt lat="48.70779" lon="5.44346">
        <ele>333.3</ele>
        <time>2020-06-29T20:09:30Z</time>
      </trkpt>
      <trkpt lat="48.70779" lon="5.44347">
        <ele>333.3</ele>
        <time>2020-06-29T20:09:31Z</time>
      </trkpt>
      <trkpt lat="48.70779" lon="5.44347">
        <ele>333.3</ele>
        <time>2020-06-29T20:09:32Z</time>
      </trkpt>
      <trkpt lat="48.70779" lon="5.44347">
        <ele>333.3</ele>
        <time>2020-06-29T20:09:33Z</time>
      </trkpt>
      <trkpt lat="48.70779" lon="5.44347">
        <ele>333.3</ele>
        <time>2020-06-29T20:09:34Z</time>
      </trkpt>
      <trkpt lat="48.70779" lon="5.44348">
        <ele>333.3</ele>
        <time>2020-06-29T20:09:35Z</time>
      </trkpt>
      <trkpt lat="48.70779" lon="5.44348">
        <ele>333.3</ele>
        <time>2020-06-29T20:09:36Z</time>
      </trkpt>
      <trkpt lat="48.70779" lon="5.44348">
        <ele>333.3</ele>
        <time>2020-06-29T20:09:37Z</time>
      </trkpt>
      <trkpt lat="48.7078" lon="5.44348">
        <ele>333.3</ele>
        <time>2020-06-29T20:09:38Z</time>
      </trkpt>
      <trkpt lat="48.70779" lon="5.44348">
        <ele>333.3</ele>
        <time>2020-06-29T20:09:39Z</time>
      </trkpt>
      <trkpt lat="48.70778" lon="5.44348">
        <ele>333.3</ele>
        <time>2020-06-29T20:09:40Z</time>
      </trkpt>
      <trkpt lat="48.70777" lon="5.44348">
        <ele>333.3</ele>
        <time>2020-06-29T20:09:41Z</time>
      </trkpt>
      <trkpt lat="48.70776" lon="5.44348">
        <ele>333.3</ele>
        <time>2020-06-29T20:09:42Z</time>
      </trkpt>
      <trkpt lat="48.70777" lon="5.44348">
        <ele>333.3</ele>
        <time>2020-06-29T20:09:43Z</time>
      </trkpt>
      <trkpt lat="48.70776" lon="5.44348">
        <ele>333.4</ele>
        <time>2020-06-29T20:09:44Z</time>
      </trkpt>
      <trkpt lat="48.70775" lon="5.44348">
        <ele>333.4</ele>
        <time>2020-06-29T20:09:45Z</time>
      </trkpt>
      <trkpt lat="48.70775" lon="5.44347">
        <ele>333.4</ele>
        <time>2020-06-29T20:09:46Z</time>
      </trkpt>
      <trkpt lat="48.70774" lon="5.44346">
        <ele>333.4</ele>
        <time>2020-06-29T20:09:47Z</time>
      </trkpt>
      <trkpt lat="48.70773" lon="5.44346">
        <ele>333.4</ele>
        <time>2020-06-29T20:09:48Z</time>
      </trkpt>
      <trkpt lat="48.70773" lon="5.44345">
        <ele>333.4</ele>
        <time>2020-06-29T20:09:49Z</time>
      </trkpt>
      <trkpt lat="48.70773" lon="5.44345">
        <ele>333.4</ele>
        <time>2020-06-29T20:09:50Z</time>
      </trkpt>
      <trkpt lat="48.70772" lon="5.44345">
        <ele>333.4</ele>
        <time>2020-06-29T20:09:51Z</time>
      </trkpt>
      <trkpt lat="48.70773" lon="5.44343">
        <ele>333.4</ele>
        <time>2020-06-29T20:09:52Z</time>
      </trkpt>
      <trkpt lat="48.70772" lon="5.44343">
        <ele>333.4</ele>
        <time>2020-06-29T20:09:53Z</time>
      </trkpt>
      <trkpt lat="48.70772" lon="5.44343">
        <ele>333.4</ele>
        <time>2020-06-29T20:09:54Z</time>
      </trkpt>
      <trkpt lat="48.70772" lon="5.44343">
        <ele>333.4</ele>
        <time>2020-06-29T20:09:55Z</time>
      </trkpt>
      <trkpt lat="48.70772" lon="5.44343">
        <ele>333.4</ele>
        <time>2020-06-29T20:09:56Z</time>
      </trkpt>
      <trkpt lat="48.70771" lon="5.44343">
        <ele>333.4</ele>
        <time>2020-06-29T20:09:57Z</time>
      </trkpt>
      <trkpt lat="48.70771" lon="5.44343">
        <ele>333.4</ele>
        <time>2020-06-29T20:09:58Z</time>
      </trkpt>
      <trkpt lat="48.70771" lon="5.44343">
        <ele>333.4</ele>
        <time>2020-06-29T20:09:59Z</time>
      </trkpt>
      <trkpt lat="48.70771" lon="5.44342">
        <ele>333.4</ele>
        <time>2020-06-29T20:10:00Z</time>
      </trkpt>
      <trkpt lat="48.70771" lon="5.44342">
        <ele>333.4</ele>
        <time>2020-06-29T20:10:01Z</time>
      </trkpt>
      <trkpt lat="48.70771" lon="5.44342">
        <ele>333.4</ele>
        <time>2020-06-29T20:10:02Z</time>
      </trkpt>
      <trkpt lat="48.70771" lon="5.44342">
        <ele>333.4</ele>
        <time>2020-06-29T20:10:03Z</time>
      </trkpt>
      <trkpt lat="48.70771" lon="5.44342">
        <ele>333.4</ele>
        <time>2020-06-29T20:10:04Z</time>
      </trkpt>
      <trkpt lat="48.70771" lon="5.44341">
        <ele>333.4</ele>
        <time>2020-06-29T20:10:05Z</time>
      </trkpt>
      <trkpt lat="48.70772" lon="5.44341">
        <ele>333.4</ele>
        <time>2020-06-29T20:10:06Z</time>
      </trkpt>
      <trkpt lat="48.70771" lon="5.44342">
        <ele>333.4</ele>
        <time>2020-06-29T20:10:07Z</time>
      </trkpt>
      <trkpt lat="48.70771" lon="5.44343">
        <ele>333.4</ele>
        <time>2020-06-29T20:10:08Z</time>
      </trkpt>
      <trkpt lat="48.70771" lon="5.44344">
        <ele>333.4</ele>
        <time>2020-06-29T20:10:09Z</time>
      </trkpt>
      <trkpt lat="48.70771" lon="5.44344">
        <ele>333.4</ele>
        <time>2020-06-29T20:10:10Z</time>
      </trkpt>
      <trkpt lat="48.70771" lon="5.44345">
        <ele>333.4</ele>
        <time>2020-06-29T20:10:11Z</time>
      </trkpt>
      <trkpt lat="48.7077" lon="5.44345">
        <ele>333.4</ele>
        <time>2020-06-29T20:10:12Z</time>
      </trkpt>
      <trkpt lat="48.7077" lon="5.44345">
        <ele>333.4</ele>
        <time>2020-06-29T20:10:13Z</time>
      </trkpt>
      <trkpt lat="48.7077" lon="5.44345">
        <ele>333.4</ele>
        <time>2020-06-29T20:10:14Z</time>
      </trkpt>
      <trkpt lat="48.7077" lon="5.44345">
        <ele>333.4</ele>
        <time>2020-06-29T20:10:15Z</time>
      </trkpt>
      <trkpt lat="48.70775" lon="5.44341">
        <ele>333.4</ele>
        <time>2020-06-29T20:10:57Z</time>
      </trkpt>
      <trkpt lat="48.70773" lon="5.44342">
        <ele>333.4</ele>
        <time>2020-06-29T20:10:58Z</time>
      </trkpt>
      <trkpt lat="48.70771" lon="5.44342">
        <ele>333.5</ele>
        <time>2020-06-29T20:10:59Z</time>
      </trkpt>
      <trkpt lat="48.7077" lon="5.44342">
        <ele>333.5</ele>
        <time>2020-06-29T20:11:00Z</time>
      </trkpt>
      <trkpt lat="48.7077" lon="5.44342">
        <ele>333.5</ele>
        <time>2020-06-29T20:11:01Z</time>
      </trkpt>
      <trkpt lat="48.70769" lon="5.44342">
        <ele>333.5</ele>
        <time>2020-06-29T20:11:02Z</time>
      </trkpt>
      <trkpt lat="48.70767" lon="5.44342">
        <ele>333.5</ele>
        <time>2020-06-29T20:11:03Z</time>
      </trkpt>
      <trkpt lat="48.70766" lon="5.44342">
        <ele>333.5</ele>
        <time>2020-06-29T20:11:04Z</time>
      </trkpt>
      <trkpt lat="48.70764" lon="5.44342">
        <ele>333.5</ele>
        <time>2020-06-29T20:11:05Z</time>
      </trkpt>
      <trkpt lat="48.70762" lon="5.44343">
        <ele>333.5</ele>
        <time>2020-06-29T20:11:06Z</time>
      </trkpt>
      <trkpt lat="48.7076" lon="5.44343">
        <ele>333.5</ele>
        <time>2020-06-29T20:11:07Z</time>
      </trkpt>
      <trkpt lat="48.70759" lon="5.44343">
        <ele>333.5</ele>
        <time>2020-06-29T20:11:08Z</time>
      </trkpt>
      <trkpt lat="48.70757" lon="5.44342">
        <ele>333.5</ele>
        <time>2020-06-29T20:11:09Z</time>
      </trkpt>
      <trkpt lat="48.70754" lon="5.44341">
        <ele>333.5</ele>
        <time>2020-06-29T20:11:10Z</time>
      </trkpt>
      <trkpt lat="48.70753" lon="5.44341">
        <ele>333.6</ele>
        <time>2020-06-29T20:11:11Z</time>
      </trkpt>
      <trkpt lat="48.70749" lon="5.4434">
        <ele>333.6</ele>
        <time>2020-06-29T20:11:12Z</time>
      </trkpt>
      <trkpt lat="48.70748" lon="5.4434">
        <ele>333.6</ele>
        <time>2020-06-29T20:11:13Z</time>
      </trkpt>
      <trkpt lat="48.70745" lon="5.44339">
        <ele>333.6</ele>
        <time>2020-06-29T20:11:14Z</time>
      </trkpt>
      <trkpt lat="48.70744" lon="5.44339">
        <ele>333.6</ele>
        <time>2020-06-29T20:11:15Z</time>
      </trkpt>
      <trkpt lat="48.70741" lon="5.44337">
        <ele>333.6</ele>
        <time>2020-06-29T20:11:16Z</time>
      </trkpt>
      <trkpt lat="48.70737" lon="5.44336">
        <ele>333.6</ele>
        <time>2020-06-29T20:11:17Z</time>
      </trkpt>
      <trkpt lat="48.70736" lon="5.44335">
        <ele>333.6</ele>
        <time>2020-06-29T20:11:18Z</time>
      </trkpt>
      <trkpt lat="48.70732" lon="5.44334">
        <ele>333.7</ele>
        <time>2020-06-29T20:11:19Z</time>
      </trkpt>
      <trkpt lat="48.70731" lon="5.44333">
        <ele>333.7</ele>
        <time>2020-06-29T20:11:20Z</time>
      </trkpt>
      <trkpt lat="48.70728" lon="5.44332">
        <ele>333.7</ele>
        <time>2020-06-29T20:11:21Z</time>
      </trkpt>
      <trkpt lat="48.70727" lon="5.44332">
        <ele>333.7</ele>
        <time>2020-06-29T20:11:22Z</time>
      </trkpt>
      <trkpt lat="48.70726" lon="5.44332">
        <ele>333.7</ele>
        <time>2020-06-29T20:11:23Z</time>
      </trkpt>
      <trkpt lat="48.70725" lon="5.44331">
        <ele>333.7</ele>
        <time>2020-06-29T20:11:24Z</time>
      </trkpt>
      <trkpt lat="48.70724" lon="5.44332">
        <ele>333.7</ele>
        <time>2020-06-29T20:11:25Z</time>
      </trkpt>
      <trkpt lat="48.70724" lon="5.44331">
        <ele>333.7</ele>
        <time>2020-06-29T20:11:26Z</time>
      </trkpt>
      <trkpt lat="48.70723" lon="5.4433">
        <ele>333.7</ele>
        <time>2020-06-29T20:11:27Z</time>
      </trkpt>
      <trkpt lat="48.70723" lon="5.4433">
        <ele>333.7</ele>
        <time>2020-06-29T20:11:28Z</time>
      </trkpt>
      <trkpt lat="48.70723" lon="5.44329">
        <ele>333.7</ele>
        <time>2020-06-29T20:11:29Z</time>
      </trkpt>
      <trkpt lat="48.70723" lon="5.44329">
        <ele>333.7</ele>
        <time>2020-06-29T20:11:30Z</time>
      </trkpt>
      <trkpt lat="48.70723" lon="5.44328">
        <ele>333.7</ele>
        <time>2020-06-29T20:11:31Z</time>
      </trkpt>
      <trkpt lat="48.70723" lon="5.44327">
        <ele>333.7</ele>
        <time>2020-06-29T20:11:32Z</time>
      </trkpt>
      <trkpt lat="48.70724" lon="5.44326">
        <ele>333.7</ele>
        <time>2020-06-29T20:11:33Z</time>
      </trkpt>
      <trkpt lat="48.70724" lon="5.44325">
        <ele>333.7</ele>
        <time>2020-06-29T20:11:34Z</time>
      </trkpt>
      <trkpt lat="48.70725" lon="5.44323">
        <ele>333.7</ele>
        <time>2020-06-29T20:11:35Z</time>
      </trkpt>
      <trkpt lat="48.70725" lon="5.44323">
        <ele>333.7</ele>
        <time>2020-06-29T20:11:36Z</time>
      </trkpt>
      <trkpt lat="48.70726" lon="5.44322">
        <ele>333.7</ele>
        <time>2020-06-29T20:11:37Z</time>
      </trkpt>
      <trkpt lat="48.70725" lon="5.44322">
        <ele>333.7</ele>
        <time>2020-06-29T20:11:38Z</time>
      </trkpt>
      <trkpt lat="48.70725" lon="5.44322">
        <ele>333.7</ele>
        <time>2020-06-29T20:11:39Z</time>
      </trkpt>
      <trkpt lat="48.70725" lon="5.44322">
        <ele>333.7</ele>
        <time>2020-06-29T20:11:40Z</time>
      </trkpt>
      <trkpt lat="48.70724" lon="5.44322">
        <ele>333.8</ele>
        <time>2020-06-29T20:11:41Z</time>
      </trkpt>
      <trkpt lat="48.70723" lon="5.44322">
        <ele>333.8</ele>
        <time>2020-06-29T20:11:42Z</time>
      </trkpt>
      <trkpt lat="48.70722" lon="5.44322">
        <ele>333.8</ele>
        <time>2020-06-29T20:11:43Z</time>
      </trkpt>
      <trkpt lat="48.70722" lon="5.44323">
        <ele>333.8</ele>
        <time>2020-06-29T20:11:44Z</time>
      </trkpt>
      <trkpt lat="48.70722" lon="5.44323">
        <ele>333.8</ele>
        <time>2020-06-29T20:11:45Z</time>
      </trkpt>
      <trkpt lat="48.70722" lon="5.44322">
        <ele>333.8</ele>
        <time>2020-06-29T20:11:46Z</time>
      </trkpt>
      <trkpt lat="48.70721" lon="5.4432">
        <ele>333.8</ele>
        <time>2020-06-29T20:11:47Z</time>
      </trkpt>
      <trkpt lat="48.70721" lon="5.44321">
        <ele>333.8</ele>
        <time>2020-06-29T20:11:48Z</time>
      </trkpt>
      <trkpt lat="48.7072" lon="5.44321">
        <ele>333.8</ele>
        <time>2020-06-29T20:11:49Z</time>
      </trkpt>
      <trkpt lat="48.70721" lon="5.44322">
        <ele>333.8</ele>
        <time>2020-06-29T20:11:50Z</time>
      </trkpt>
      <trkpt lat="48.70721" lon="5.44322">
        <ele>333.8</ele>
        <time>2020-06-29T20:11:51Z</time>
      </trkpt>
      <trkpt lat="48.70721" lon="5.44322">
        <ele>333.8</ele>
        <time>2020-06-29T20:11:52Z</time>
      </trkpt>
      <trkpt lat="48.70721" lon="5.44322">
        <ele>333.8</ele>
        <time>2020-06-29T20:11:53Z</time>
      </trkpt>
      <trkpt lat="48.7072" lon="5.44322">
        <ele>333.8</ele>
        <time>2020-06-29T20:11:54Z</time>
      </trkpt>
      <trkpt lat="48.70721" lon="5.44323">
        <ele>333.8</ele>
        <time>2020-06-29T20:11:55Z</time>
      </trkpt>
      <trkpt lat="48.70721" lon="5.44324">
        <ele>333.8</ele>
        <time>2020-06-29T20:11:56Z</time>
      </trkpt>
      <trkpt lat="48.70721" lon="5.44323">
        <ele>333.8</ele>
        <time>2020-06-29T20:11:57Z</time>
      </trkpt>
      <trkpt lat="48.70721" lon="5.44323">
        <ele>333.8</ele>
        <time>2020-06-29T20:11:58Z</time>
      </trkpt>
      <trkpt lat="48.70721" lon="5.44322">
        <ele>333.8</ele>
        <time>2020-06-29T20:11:59Z</time>
      </trkpt>
      <trkpt lat="48.70721" lon="5.44322">
        <ele>333.8</ele>
        <time>2020-06-29T20:12:00Z</time>
      </trkpt>
      <trkpt lat="48.70721" lon="5.44321">
        <ele>333.8</ele>
        <time>2020-06-29T20:12:01Z</time>
      </trkpt>
      <trkpt lat="48.70721" lon="5.4432">
        <ele>333.8</ele>
        <time>2020-06-29T20:12:02Z</time>
      </trkpt>
      <trkpt lat="48.70722" lon="5.44319">
        <ele>333.8</ele>
        <time>2020-06-29T20:12:03Z</time>
      </trkpt>
      <trkpt lat="48.70722" lon="5.44318">
        <ele>333.8</ele>
        <time>2020-06-29T20:12:04Z</time>
      </trkpt>
      <trkpt lat="48.70723" lon="5.44318">
        <ele>333.8</ele>
        <time>2020-06-29T20:12:05Z</time>
      </trkpt>
      <trkpt lat="48.70723" lon="5.44319">
        <ele>333.8</ele>
        <time>2020-06-29T20:12:06Z</time>
      </trkpt>
      <trkpt lat="48.70723" lon="5.4432">
        <ele>333.8</ele>
        <time>2020-06-29T20:12:07Z</time>
      </trkpt>
      <trkpt lat="48.70723" lon="5.4432">
        <ele>333.8</ele>
        <time>2020-06-29T20:12:08Z</time>
      </trkpt>
      <trkpt lat="48.70723" lon="5.4432">
        <ele>333.8</ele>
        <time>2020-06-29T20:12:09Z</time>
      </trkpt>
      <trkpt lat="48.70722" lon="5.4432">
        <ele>333.8</ele>
        <time>2020-06-29T20:12:10Z</time>
      </trkpt>
      <trkpt lat="48.70723" lon="5.44319">
        <ele>333.8</ele>
        <time>2020-06-29T20:12:11Z</time>
      </trkpt>
      <trkpt lat="48.70723" lon="5.44319">
        <ele>333.8</ele>
        <time>2020-06-29T20:12:12Z</time>
      </trkpt>
      <trkpt lat="48.70723" lon="5.44318">
        <ele>333.8</ele>
        <time>2020-06-29T20:12:13Z</time>
      </trkpt>
      <trkpt lat="48.70723" lon="5.44317">
        <ele>333.8</ele>
        <time>2020-06-29T20:12:14Z</time>
      </trkpt>
      <trkpt lat="48.70723" lon="5.44316">
        <ele>333.8</ele>
        <time>2020-06-29T20:12:15Z</time>
      </trkpt>
      <trkpt lat="48.70723" lon="5.44314">
        <ele>333.8</ele>
        <time>2020-06-29T20:12:16Z</time>
      </trkpt>
      <trkpt lat="48.70723" lon="5.44313">
        <ele>333.9</ele>
        <time>2020-06-29T20:12:17Z</time>
      </trkpt>
      <trkpt lat="48.70723" lon="5.44312">
        <ele>333.9</ele>
        <time>2020-06-29T20:12:18Z</time>
      </trkpt>
      <trkpt lat="48.70723" lon="5.44311">
        <ele>333.9</ele>
        <time>2020-06-29T20:12:19Z</time>
      </trkpt>
      <trkpt lat="48.70723" lon="5.44311">
        <ele>333.9</ele>
        <time>2020-06-29T20:12:20Z</time>
      </trkpt>
      <trkpt lat="48.70723" lon="5.4431">
        <ele>333.9</ele>
        <time>2020-06-29T20:12:21Z</time>
      </trkpt>
      <trkpt lat="48.70723" lon="5.4431">
        <ele>333.8</ele>
        <time>2020-06-29T20:12:22Z</time>
      </trkpt>
      <trkpt lat="48.70724" lon="5.44309">
        <ele>333.8</ele>
        <time>2020-06-29T20:12:23Z</time>
      </trkpt>
      <trkpt lat="48.70724" lon="5.44308">
        <ele>333.8</ele>
        <time>2020-06-29T20:12:24Z</time>
      </trkpt>
      <trkpt lat="48.70724" lon="5.44307">
        <ele>333.8</ele>
        <time>2020-06-29T20:12:25Z</time>
      </trkpt>
      <trkpt lat="48.70724" lon="5.44307">
        <ele>333.8</ele>
        <time>2020-06-29T20:12:26Z</time>
      </trkpt>
      <trkpt lat="48.70722" lon="5.44307">
        <ele>333.8</ele>
        <time>2020-06-29T20:12:38Z</time>
      </trkpt>
      <trkpt lat="48.70722" lon="5.44307">
        <ele>333.8</ele>
        <time>2020-06-29T20:12:39Z</time>
      </trkpt>
      <trkpt lat="48.70722" lon="5.44308">
        <ele>333.8</ele>
        <time>2020-06-29T20:12:40Z</time>
      </trkpt>
      <trkpt lat="48.70722" lon="5.44308">
        <ele>333.8</ele>
        <time>2020-06-29T20:12:41Z</time>
      </trkpt>
      <trkpt lat="48.70721" lon="5.44308">
        <ele>333.8</ele>
        <time>2020-06-29T20:12:42Z</time>
      </trkpt>
      <trkpt lat="48.70722" lon="5.44308">
        <ele>333.8</ele>
        <time>2020-06-29T20:12:43Z</time>
      </trkpt>
      <trkpt lat="48.70721" lon="5.44309">
        <ele>333.8</ele>
        <time>2020-06-29T20:12:44Z</time>
      </trkpt>
      <trkpt lat="48.70721" lon="5.44309">
        <ele>333.8</ele>
        <time>2020-06-29T20:12:45Z</time>
      </trkpt>
      <trkpt lat="48.70721" lon="5.44309">
        <ele>333.8</ele>
        <time>2020-06-29T20:12:46Z</time>
      </trkpt>
      <trkpt lat="48.70721" lon="5.4431">
        <ele>333.8</ele>
        <time>2020-06-29T20:12:47Z</time>
      </trkpt>
      <trkpt lat="48.70721" lon="5.4431">
        <ele>333.8</ele>
        <time>2020-06-29T20:12:48Z</time>
      </trkpt>
      <trkpt lat="48.70721" lon="5.44309">
        <ele>333.7</ele>
        <time>2020-06-29T20:12:49Z</time>
      </trkpt>
      <trkpt lat="48.70721" lon="5.44309">
        <ele>333.7</ele>
        <time>2020-06-29T20:12:50Z</time>
      </trkpt>
      <trkpt lat="48.70721" lon="5.44309">
        <ele>333.7</ele>
        <time>2020-06-29T20:12:51Z</time>
      </trkpt>
      <trkpt lat="48.70726" lon="5.44315">
        <ele>333.7</ele>
        <time>2020-06-29T20:13:38Z</time>
      </trkpt>
      <trkpt lat="48.70727" lon="5.44315">
        <ele>333.7</ele>
        <time>2020-06-29T20:13:39Z</time>
      </trkpt>
      <trkpt lat="48.70727" lon="5.44315">
        <ele>333.7</ele>
        <time>2020-06-29T20:13:40Z</time>
      </trkpt>
      <trkpt lat="48.70728" lon="5.44315">
        <ele>333.6</ele>
        <time>2020-06-29T20:13:41Z</time>
      </trkpt>
      <trkpt lat="48.70729" lon="5.44316">
        <ele>333.6</ele>
        <time>2020-06-29T20:13:42Z</time>
      </trkpt>
      <trkpt lat="48.70729" lon="5.44318">
        <ele>333.6</ele>
        <time>2020-06-29T20:13:43Z</time>
      </trkpt>
      <trkpt lat="48.7073" lon="5.44319">
        <ele>333.6</ele>
        <time>2020-06-29T20:13:44Z</time>
      </trkpt>
      <trkpt lat="48.7073" lon="5.44321">
        <ele>333.6</ele>
        <time>2020-06-29T20:13:45Z</time>
      </trkpt>
      <trkpt lat="48.7073" lon="5.44322">
        <ele>333.6</ele>
        <time>2020-06-29T20:13:46Z</time>
      </trkpt>
      <trkpt lat="48.7073" lon="5.44323">
        <ele>333.6</ele>
        <time>2020-06-29T20:13:47Z</time>
      </trkpt>
      <trkpt lat="48.7073" lon="5.44326">
        <ele>333.6</ele>
        <time>2020-06-29T20:13:48Z</time>
      </trkpt>
      <trkpt lat="48.70731" lon="5.44328">
        <ele>333.5</ele>
        <time>2020-06-29T20:13:49Z</time>
      </trkpt>
      <trkpt lat="48.70732" lon="5.44329">
        <ele>333.5</ele>
        <time>2020-06-29T20:13:50Z</time>
      </trkpt>
      <trkpt lat="48.70733" lon="5.4433">
        <ele>333.5</ele>
        <time>2020-06-29T20:13:51Z</time>
      </trkpt>
      <trkpt lat="48.70734" lon="5.44331">
        <ele>333.5</ele>
        <time>2020-06-29T20:13:52Z</time>
      </trkpt>
      <trkpt lat="48.70735" lon="5.44332">
        <ele>333.5</ele>
        <time>2020-06-29T20:13:53Z</time>
      </trkpt>
      <trkpt lat="48.70736" lon="5.44333">
        <ele>333.5</ele>
        <time>2020-06-29T20:13:54Z</time>
      </trkpt>
      <trkpt lat="48.70737" lon="5.44334">
        <ele>333.5</ele>
        <time>2020-06-29T20:13:55Z</time>
      </trkpt>
      <trkpt lat="48.70737" lon="5.44332">
        <ele>333.5</ele>
        <time>2020-06-29T20:13:56Z</time>
      </trkpt>
      <trkpt lat="48.70737" lon="5.44332">
        <ele>333.5</ele>
        <time>2020-06-29T20:13:57Z</time>
      </trkpt>
      <trkpt lat="48.70737" lon="5.44332">
        <ele>333.5</ele>
        <time>2020-06-29T20:13:58Z</time>
      </trkpt>
      <trkpt lat="48.70737" lon="5.44332">
        <ele>333.5</ele>
        <time>2020-06-29T20:13:59Z</time>
      </trkpt>
      <trkpt lat="48.70738" lon="5.44333">
        <ele>333.4</ele>
        <time>2020-06-29T20:14:00Z</time>
      </trkpt>
      <trkpt lat="48.70739" lon="5.44334">
        <ele>333.4</ele>
        <time>2020-06-29T20:14:01Z</time>
      </trkpt>
      <trkpt lat="48.70739" lon="5.44335">
        <ele>333.4</ele>
        <time>2020-06-29T20:14:02Z</time>
      </trkpt>
      <trkpt lat="48.7074" lon="5.44336">
        <ele>333.4</ele>
        <time>2020-06-29T20:14:03Z</time>
      </trkpt>
      <trkpt lat="48.70741" lon="5.44337">
        <ele>333.4</ele>
        <time>2020-06-29T20:14:04Z</time>
      </trkpt>
      <trkpt lat="48.70743" lon="5.44338">
        <ele>333.4</ele>
        <time>2020-06-29T20:14:05Z</time>
      </trkpt>
      <trkpt lat="48.70743" lon="5.44338">
        <ele>333.4</ele>
        <time>2020-06-29T20:14:06Z</time>
      </trkpt>
      <trkpt lat="48.70744" lon="5.44338">
        <ele>333.4</ele>
        <time>2020-06-29T20:14:07Z</time>
      </trkpt>
      <trkpt lat="48.70745" lon="5.44337">
        <ele>333.3</ele>
        <time>2020-06-29T20:14:08Z</time>
      </trkpt>
      <trkpt lat="48.70746" lon="5.44335">
        <ele>333.3</ele>
        <time>2020-06-29T20:14:09Z</time>
      </trkpt>
      <trkpt lat="48.70747" lon="5.44334">
        <ele>333.3</ele>
        <time>2020-06-29T20:14:10Z</time>
      </trkpt>
      <trkpt lat="48.70748" lon="5.44334">
        <ele>333.3</ele>
        <time>2020-06-29T20:14:11Z</time>
      </trkpt>
      <trkpt lat="48.70749" lon="5.44334">
        <ele>333.3</ele>
        <time>2020-06-29T20:14:12Z</time>
      </trkpt>
      <trkpt lat="48.70749" lon="5.44334">
        <ele>333.3</ele>
        <time>2020-06-29T20:14:13Z</time>
      </trkpt>
      <trkpt lat="48.7075" lon="5.44333">
        <ele>333.3</ele>
        <time>2020-06-29T20:14:14Z</time>
      </trkpt>
      <trkpt lat="48.7075" lon="5.44333">
        <ele>333.3</ele>
        <time>2020-06-29T20:14:15Z</time>
      </trkpt>
      <trkpt lat="48.7075" lon="5.44333">
        <ele>333.3</ele>
        <time>2020-06-29T20:14:16Z</time>
      </trkpt>
      <trkpt lat="48.7075" lon="5.44334">
        <ele>333.3</ele>
        <time>2020-06-29T20:14:17Z</time>
      </trkpt>
      <trkpt lat="48.7075" lon="5.44334">
        <ele>333.3</ele>
        <time>2020-06-29T20:14:18Z</time>
      </trkpt>
      <trkpt lat="48.7075" lon="5.44334">
        <ele>333.3</ele>
        <time>2020-06-29T20:14:19Z</time>
      </trkpt>
      <trkpt lat="48.70749" lon="5.44334">
        <ele>333.3</ele>
        <time>2020-06-29T20:14:20Z</time>
      </trkpt>
      <trkpt lat="48.70749" lon="5.44334">
        <ele>333.3</ele>
        <time>2020-06-29T20:14:21Z</time>
      </trkpt>
      <trkpt lat="48.70749" lon="5.44334">
        <ele>333.3</ele>
        <time>2020-06-29T20:14:22Z</time>
      </trkpt>
      <trkpt lat="48.70749" lon="5.44334">
        <ele>333.3</ele>
        <time>2020-06-29T20:14:23Z</time>
      </trkpt>
      <trkpt lat="48.70749" lon="5.44334">
        <ele>333.3</ele>
        <time>2020-06-29T20:14:24Z</time>
      </trkpt>
      <trkpt lat="48.70749" lon="5.44334">
        <ele>333.3</ele>
        <time>2020-06-29T20:14:25Z</time>
      </trkpt>
      <trkpt lat="48.70749" lon="5.44334">
        <ele>333.3</ele>
        <time>2020-06-29T20:14:26Z</time>
      </trkpt>
      <trkpt lat="48.70749" lon="5.44334">
        <ele>333.3</ele>
        <time>2020-06-29T20:14:27Z</time>
      </trkpt>
      <trkpt lat="48.70748" lon="5.44334">
        <ele>333.3</ele>
        <time>2020-06-29T20:14:28Z</time>
      </trkpt>
      <trkpt lat="48.70748" lon="5.44334">
        <ele>333.3</ele>
        <time>2020-06-29T20:14:29Z</time>
      </trkpt>
      <trkpt lat="48.70748" lon="5.44335">
        <ele>333.3</ele>
        <time>2020-06-29T20:14:30Z</time>
      </trkpt>
      <trkpt lat="48.70748" lon="5.44335">
        <ele>333.3</ele>
        <time>2020-06-29T20:14:31Z</time>
      </trkpt>
      <trkpt lat="48.70748" lon="5.44335">
        <ele>333.3</ele>
        <time>2020-06-29T20:14:32Z</time>
      </trkpt>
      <trkpt lat="48.70748" lon="5.44335">
        <ele>333.3</ele>
        <time>2020-06-29T20:14:33Z</time>
      </trkpt>
      <trkpt lat="48.70748" lon="5.44335">
        <ele>333.3</ele>
        <time>2020-06-29T20:14:34Z</time>
      </trkpt>
      <trkpt lat="48.70747" lon="5.44335">
        <ele>333.3</ele>
        <time>2020-06-29T20:14:35Z</time>
      </trkpt>
      <trkpt lat="48.70747" lon="5.44335">
        <ele>333.2</ele>
        <time>2020-06-29T20:14:36Z</time>
      </trkpt>
      <trkpt lat="48.70747" lon="5.44335">
        <ele>333.2</ele>
        <time>2020-06-29T20:14:37Z</time>
      </trkpt>
      <trkpt lat="48.70747" lon="5.44335">
        <ele>333.2</ele>
        <time>2020-06-29T20:14:38Z</time>
      </trkpt>
      <trkpt lat="48.70747" lon="5.44335">
        <ele>333.2</ele>
        <time>2020-06-29T20:14:39Z</time>
      </trkpt>
      <trkpt lat="48.70747" lon="5.44335">
        <ele>333.2</ele>
        <time>2020-06-29T20:14:40Z</time>
      </trkpt>
      <trkpt lat="48.70746" lon="5.44337">
        <ele>333.2</ele>
        <time>2020-06-29T20:14:41Z</time>
      </trkpt>
      <trkpt lat="48.70746" lon="5.44338">
        <ele>333.2</ele>
        <time>2020-06-29T20:14:42Z</time>
      </trkpt>
      <trkpt lat="48.70746" lon="5.44338">
        <ele>333.2</ele>
        <time>2020-06-29T20:14:43Z</time>
      </trkpt>
      <trkpt lat="48.70746" lon="5.44339">
        <ele>333.2</ele>
        <time>2020-06-29T20:14:44Z</time>
      </trkpt>
      <trkpt lat="48.70745" lon="5.44339">
        <ele>333.2</ele>
        <time>2020-06-29T20:14:45Z</time>
      </trkpt>
      <trkpt lat="48.70745" lon="5.4434">
        <ele>333.2</ele>
        <time>2020-06-29T20:14:46Z</time>
      </trkpt>
      <trkpt lat="48.70745" lon="5.44341">
        <ele>333.2</ele>
        <time>2020-06-29T20:14:47Z</time>
      </trkpt>
      <trkpt lat="48.70745" lon="5.44342">
        <ele>333.2</ele>
        <time>2020-06-29T20:14:48Z</time>
      </trkpt>
      <trkpt lat="48.70745" lon="5.44342">
        <ele>333.2</ele>
        <time>2020-06-29T20:14:49Z</time>
      </trkpt>
      <trkpt lat="48.70744" lon="5.44342">
        <ele>333.2</ele>
        <time>2020-06-29T20:14:50Z</time>
      </trkpt>
      <trkpt lat="48.70744" lon="5.44343">
        <ele>333.2</ele>
        <time>2020-06-29T20:14:51Z</time>
      </trkpt>
      <trkpt lat="48.70744" lon="5.44344">
        <ele>333.2</ele>
        <time>2020-06-29T20:14:52Z</time>
      </trkpt>
      <trkpt lat="48.70743" lon="5.44344">
        <ele>333.2</ele>
        <time>2020-06-29T20:14:53Z</time>
      </trkpt>
      <trkpt lat="48.70756" lon="5.4435">
        <ele>333</ele>
        <time>2020-06-29T20:16:48Z</time>
      </trkpt>
      <trkpt lat="48.70755" lon="5.44353">
        <ele>333</ele>
        <time>2020-06-29T20:16:49Z</time>
      </trkpt>
      <trkpt lat="48.70755" lon="5.44354">
        <ele>333</ele>
        <time>2020-06-29T20:16:50Z</time>
      </trkpt>
      <trkpt lat="48.70754" lon="5.44355">
        <ele>333</ele>
        <time>2020-06-29T20:16:51Z</time>
      </trkpt>
      <trkpt lat="48.70754" lon="5.44356">
        <ele>333</ele>
        <time>2020-06-29T20:16:52Z</time>
      </trkpt>
      <trkpt lat="48.70754" lon="5.44357">
        <ele>333</ele>
        <time>2020-06-29T20:16:53Z</time>
      </trkpt>
      <trkpt lat="48.70754" lon="5.44359">
        <ele>332.9</ele>
        <time>2020-06-29T20:16:54Z</time>
      </trkpt>
      <trkpt lat="48.70754" lon="5.4436">
        <ele>332.9</ele>
        <time>2020-06-29T20:16:55Z</time>
      </trkpt>
      <trkpt lat="48.70754" lon="5.44362">
        <ele>332.9</ele>
        <time>2020-06-29T20:16:56Z</time>
      </trkpt>
      <trkpt lat="48.70754" lon="5.44363">
        <ele>332.9</ele>
        <time>2020-06-29T20:16:57Z</time>
      </trkpt>
      <trkpt lat="48.70753" lon="5.44364">
        <ele>332.9</ele>
        <time>2020-06-29T20:16:58Z</time>
      </trkpt>
      <trkpt lat="48.70752" lon="5.44367">
        <ele>332.9</ele>
        <time>2020-06-29T20:16:59Z</time>
      </trkpt>
      <trkpt lat="48.70752" lon="5.44368">
        <ele>332.9</ele>
        <time>2020-06-29T20:17:00Z</time>
      </trkpt>
      <trkpt lat="48.70752" lon="5.44369">
        <ele>332.9</ele>
        <time>2020-06-29T20:17:01Z</time>
      </trkpt>
      <trkpt lat="48.70751" lon="5.44372">
        <ele>332.8</ele>
        <time>2020-06-29T20:17:02Z</time>
      </trkpt>
      <trkpt lat="48.70751" lon="5.44373">
        <ele>332.8</ele>
        <time>2020-06-29T20:17:03Z</time>
      </trkpt>
      <trkpt lat="48.70751" lon="5.44374">
        <ele>332.8</ele>
        <time>2020-06-29T20:17:04Z</time>
      </trkpt>
      <trkpt lat="48.70751" lon="5.44376">
        <ele>332.8</ele>
        <time>2020-06-29T20:17:05Z</time>
      </trkpt>
      <trkpt lat="48.7075" lon="5.44378">
        <ele>332.8</ele>
        <time>2020-06-29T20:17:06Z</time>
      </trkpt>
      <trkpt lat="48.7075" lon="5.44379">
        <ele>332.8</ele>
        <time>2020-06-29T20:17:07Z</time>
      </trkpt>
      <trkpt lat="48.7075" lon="5.4438">
        <ele>332.8</ele>
        <time>2020-06-29T20:17:08Z</time>
      </trkpt>
      <trkpt lat="48.70751" lon="5.44382">
        <ele>332.8</ele>
        <time>2020-06-29T20:17:09Z</time>
      </trkpt>
      <trkpt lat="48.70751" lon="5.44383">
        <ele>332.8</ele>
        <time>2020-06-29T20:17:10Z</time>
      </trkpt>
      <trkpt lat="48.70751" lon="5.44384">
        <ele>332.7</ele>
        <time>2020-06-29T20:17:11Z</time>
      </trkpt>
      <trkpt lat="48.70751" lon="5.44386">
        <ele>332.7</ele>
        <time>2020-06-29T20:17:12Z</time>
      </trkpt>
      <trkpt lat="48.70751" lon="5.44387">
        <ele>332.7</ele>
        <time>2020-06-29T20:17:13Z</time>
      </trkpt>
      <trkpt lat="48.70751" lon="5.44388">
        <ele>332.7</ele>
        <time>2020-06-29T20:17:14Z</time>
      </trkpt>
      <trkpt lat="48.70751" lon="5.44388">
        <ele>332.7</ele>
        <time>2020-06-29T20:17:15Z</time>
      </trkpt>
      <trkpt lat="48.70751" lon="5.44388">
        <ele>332.7</ele>
        <time>2020-06-29T20:17:16Z</time>
      </trkpt>
      <trkpt lat="48.70751" lon="5.44387">
        <ele>332.7</ele>
        <time>2020-06-29T20:17:17Z</time>
      </trkpt>
      <trkpt lat="48.70751" lon="5.44387">
        <ele>332.7</ele>
        <time>2020-06-29T20:17:18Z</time>
      </trkpt>
      <trkpt lat="48.70751" lon="5.44387">
        <ele>332.7</ele>
        <time>2020-06-29T20:17:19Z</time>
      </trkpt>
      <trkpt lat="48.70751" lon="5.44388">
        <ele>332.7</ele>
        <time>2020-06-29T20:17:20Z</time>
      </trkpt>
      <trkpt lat="48.70751" lon="5.44388">
        <ele>332.7</ele>
        <time>2020-06-29T20:17:21Z</time>
      </trkpt>
      <trkpt lat="48.70751" lon="5.44388">
        <ele>332.7</ele>
        <time>2020-06-29T20:17:22Z</time>
      </trkpt>
      <trkpt lat="48.70751" lon="5.44388">
        <ele>332.7</ele>
        <time>2020-06-29T20:17:23Z</time>
      </trkpt>
      <trkpt lat="48.70751" lon="5.44388">
        <ele>332.7</ele>
        <time>2020-06-29T20:17:24Z</time>
      </trkpt>
      <trkpt lat="48.70751" lon="5.44389">
        <ele>332.7</ele>
        <time>2020-06-29T20:17:25Z</time>
      </trkpt>
      <trkpt lat="48.70754" lon="5.44391">
        <ele>332.6</ele>
        <time>2020-06-29T20:17:31Z</time>
      </trkpt>
      <trkpt lat="48.70755" lon="5.44392">
        <ele>332.6</ele>
        <time>2020-06-29T20:17:32Z</time>
      </trkpt>
      <trkpt lat="48.70755" lon="5.44393">
        <ele>332.6</ele>
        <time>2020-06-29T20:17:33Z</time>
      </trkpt>
      <trkpt lat="48.70755" lon="5.44393">
        <ele>332.6</ele>
        <time>2020-06-29T20:17:34Z</time>
      </trkpt>
      <trkpt lat="48.70755" lon="5.44393">
        <ele>332.6</ele>
        <time>2020-06-29T20:17:35Z</time>
      </trkpt>
      <trkpt lat="48.70756" lon="5.44394">
        <ele>332.6</ele>
        <time>2020-06-29T20:17:36Z</time>
      </trkpt>
      <trkpt lat="48.70755" lon="5.44395">
        <ele>332.6</ele>
        <time>2020-06-29T20:17:37Z</time>
      </trkpt>
      <trkpt lat="48.70755" lon="5.44396">
        <ele>332.6</ele>
        <time>2020-06-29T20:17:38Z</time>
      </trkpt>
      <trkpt lat="48.70755" lon="5.44397">
        <ele>332.6</ele>
        <time>2020-06-29T20:17:39Z</time>
      </trkpt>
      <trkpt lat="48.70755" lon="5.44397">
        <ele>332.6</ele>
        <time>2020-06-29T20:17:40Z</time>
      </trkpt>
      <trkpt lat="48.70755" lon="5.44399">
        <ele>332.6</ele>
        <time>2020-06-29T20:17:41Z</time>
      </trkpt>
      <trkpt lat="48.70755" lon="5.44399">
        <ele>332.6</ele>
        <time>2020-06-29T20:17:42Z</time>
      </trkpt>
      <trkpt lat="48.70755" lon="5.44401">
        <ele>332.6</ele>
        <time>2020-06-29T20:17:43Z</time>
      </trkpt>
      <trkpt lat="48.70755" lon="5.44402">
        <ele>332.5</ele>
        <time>2020-06-29T20:17:44Z</time>
      </trkpt>
      <trkpt lat="48.70754" lon="5.44403">
        <ele>332.5</ele>
        <time>2020-06-29T20:17:45Z</time>
      </trkpt>
      <trkpt lat="48.70753" lon="5.44407">
        <ele>332.5</ele>
        <time>2020-06-29T20:17:46Z</time>
      </trkpt>
      <trkpt lat="48.70752" lon="5.44408">
        <ele>332.5</ele>
        <time>2020-06-29T20:17:47Z</time>
      </trkpt>
      <trkpt lat="48.70752" lon="5.4441">
        <ele>332.5</ele>
        <time>2020-06-29T20:17:48Z</time>
      </trkpt>
      <trkpt lat="48.70752" lon="5.44412">
        <ele>332.4</ele>
        <time>2020-06-29T20:17:49Z</time>
      </trkpt>
      <trkpt lat="48.70753" lon="5.44414">
        <ele>332.4</ele>
        <time>2020-06-29T20:17:50Z</time>
      </trkpt>
      <trkpt lat="48.70753" lon="5.44416">
        <ele>332.4</ele>
        <time>2020-06-29T20:17:51Z</time>
      </trkpt>
      <trkpt lat="48.70753" lon="5.44418">
        <ele>332.4</ele>
        <time>2020-06-29T20:17:52Z</time>
      </trkpt>
      <trkpt lat="48.70753" lon="5.44418">
        <ele>332.4</ele>
        <time>2020-06-29T20:17:53Z</time>
      </trkpt>
      <trkpt lat="48.70754" lon="5.44419">
        <ele>332.4</ele>
        <time>2020-06-29T20:17:54Z</time>
      </trkpt>
      <trkpt lat="48.70754" lon="5.4442">
        <ele>332.4</ele>
        <time>2020-06-29T20:17:55Z</time>
      </trkpt>
      <trkpt lat="48.70755" lon="5.44421">
        <ele>332.4</ele>
        <time>2020-06-29T20:17:56Z</time>
      </trkpt>
      <trkpt lat="48.70755" lon="5.44421">
        <ele>332.4</ele>
        <time>2020-06-29T20:17:57Z</time>
      </trkpt>
      <trkpt lat="48.70755" lon="5.4442">
        <ele>332.4</ele>
        <time>2020-06-29T20:17:58Z</time>
      </trkpt>
      <trkpt lat="48.70755" lon="5.44423">
        <ele>332.3</ele>
        <time>2020-06-29T20:17:59Z</time>
      </trkpt>
      <trkpt lat="48.70755" lon="5.44425">
        <ele>332.3</ele>
        <time>2020-06-29T20:18:00Z</time>
      </trkpt>
      <trkpt lat="48.70754" lon="5.44427">
        <ele>332.3</ele>
        <time>2020-06-29T20:18:01Z</time>
      </trkpt>
      <trkpt lat="48.70754" lon="5.44427">
        <ele>332.3</ele>
        <time>2020-06-29T20:18:02Z</time>
      </trkpt>
      <trkpt lat="48.70755" lon="5.44429">
        <ele>332.3</ele>
        <time>2020-06-29T20:18:03Z</time>
      </trkpt>
      <trkpt lat="48.70757" lon="5.4443">
        <ele>332.3</ele>
        <time>2020-06-29T20:18:04Z</time>
      </trkpt>
      <trkpt lat="48.70758" lon="5.44431">
        <ele>332.2</ele>
        <time>2020-06-29T20:18:05Z</time>
      </trkpt>
      <trkpt lat="48.70759" lon="5.44432">
        <ele>332.2</ele>
        <time>2020-06-29T20:18:06Z</time>
      </trkpt>
      <trkpt lat="48.70759" lon="5.44433">
        <ele>332.2</ele>
        <time>2020-06-29T20:18:07Z</time>
      </trkpt>
      <trkpt lat="48.70759" lon="5.44433">
        <ele>332.2</ele>
        <time>2020-06-29T20:18:08Z</time>
      </trkpt>
      <trkpt lat="48.70759" lon="5.44433">
        <ele>332.2</ele>
        <time>2020-06-29T20:18:09Z</time>
      </trkpt>
      <trkpt lat="48.7076" lon="5.44433">
        <ele>332.2</ele>
        <time>2020-06-29T20:18:10Z</time>
      </trkpt>
      <trkpt lat="48.7076" lon="5.44433">
        <ele>332.2</ele>
        <time>2020-06-29T20:18:11Z</time>
      </trkpt>
      <trkpt lat="48.70761" lon="5.44432">
        <ele>332.2</ele>
        <time>2020-06-29T20:18:12Z</time>
      </trkpt>
      <trkpt lat="48.70762" lon="5.44432">
        <ele>332.2</ele>
        <time>2020-06-29T20:18:13Z</time>
      </trkpt>
      <trkpt lat="48.70763" lon="5.44432">
        <ele>332.2</ele>
        <time>2020-06-29T20:18:14Z</time>
      </trkpt>
      <trkpt lat="48.70764" lon="5.44433">
        <ele>332.2</ele>
        <time>2020-06-29T20:18:15Z</time>
      </trkpt>
      <trkpt lat="48.70764" lon="5.44435">
        <ele>332.1</ele>
        <time>2020-06-29T20:18:16Z</time>
      </trkpt>
      <trkpt lat="48.70764" lon="5.44436">
        <ele>332.1</ele>
        <time>2020-06-29T20:18:17Z</time>
      </trkpt>
      <trkpt lat="48.70763" lon="5.44436">
        <ele>332.1</ele>
        <time>2020-06-29T20:18:18Z</time>
      </trkpt>
      <trkpt lat="48.70763" lon="5.44436">
        <ele>332.1</ele>
        <time>2020-06-29T20:18:19Z</time>
      </trkpt>
      <trkpt lat="48.70763" lon="5.44435">
        <ele>332.1</ele>
        <time>2020-06-29T20:18:20Z</time>
      </trkpt>
      <trkpt lat="48.70763" lon="5.44436">
        <ele>332.1</ele>
        <time>2020-06-29T20:18:21Z</time>
      </trkpt>
      <trkpt lat="48.70763" lon="5.44436">
        <ele>332.1</ele>
        <time>2020-06-29T20:18:22Z</time>
      </trkpt>
      <trkpt lat="48.70762" lon="5.44435">
        <ele>332.1</ele>
        <time>2020-06-29T20:18:23Z</time>
      </trkpt>
      <trkpt lat="48.70763" lon="5.44435">
        <ele>332.1</ele>
        <time>2020-06-29T20:18:24Z</time>
      </trkpt>
      <trkpt lat="48.70763" lon="5.44435">
        <ele>332.1</ele>
        <time>2020-06-29T20:18:25Z</time>
      </trkpt>
      <trkpt lat="48.70764" lon="5.44435">
        <ele>332.1</ele>
        <time>2020-06-29T20:18:26Z</time>
      </trkpt>
      <trkpt lat="48.70765" lon="5.44434">
        <ele>332.1</ele>
        <time>2020-06-29T20:18:27Z</time>
      </trkpt>
      <trkpt lat="48.70767" lon="5.44434">
        <ele>332</ele>
        <time>2020-06-29T20:18:28Z</time>
      </trkpt>
      <trkpt lat="48.70768" lon="5.44433">
        <ele>332</ele>
        <time>2020-06-29T20:18:29Z</time>
      </trkpt>
      <trkpt lat="48.70768" lon="5.44433">
        <ele>332</ele>
        <time>2020-06-29T20:18:30Z</time>
      </trkpt>
      <trkpt lat="48.70769" lon="5.44432">
        <ele>332</ele>
        <time>2020-06-29T20:18:31Z</time>
      </trkpt>
      <trkpt lat="48.70769" lon="5.44432">
        <ele>332</ele>
        <time>2020-06-29T20:18:32Z</time>
      </trkpt>
      <trkpt lat="48.70769" lon="5.44432">
        <ele>332</ele>
        <time>2020-06-29T20:18:33Z</time>
      </trkpt>
      <trkpt lat="48.70769" lon="5.44431">
        <ele>332</ele>
        <time>2020-06-29T20:18:34Z</time>
      </trkpt>
      <trkpt lat="48.70768" lon="5.44431">
        <ele>332</ele>
        <time>2020-06-29T20:18:35Z</time>
      </trkpt>
      <trkpt lat="48.70768" lon="5.44431">
        <ele>332</ele>
        <time>2020-06-29T20:18:36Z</time>
      </trkpt>
      <trkpt lat="48.70767" lon="5.44431">
        <ele>332</ele>
        <time>2020-06-29T20:18:37Z</time>
      </trkpt>
      <trkpt lat="48.70767" lon="5.44431">
        <ele>332</ele>
        <time>2020-06-29T20:18:38Z</time>
      </trkpt>
      <trkpt lat="48.70768" lon="5.44431">
        <ele>332</ele>
        <time>2020-06-29T20:18:39Z</time>
      </trkpt>
      <trkpt lat="48.70768" lon="5.4443">
        <ele>332</ele>
        <time>2020-06-29T20:18:40Z</time>
      </trkpt>
      <trkpt lat="48.70767" lon="5.4443">
        <ele>332</ele>
        <time>2020-06-29T20:18:41Z</time>
      </trkpt>
      <trkpt lat="48.70767" lon="5.4443">
        <ele>332</ele>
        <time>2020-06-29T20:18:42Z</time>
      </trkpt>
      <trkpt lat="48.70768" lon="5.4443">
        <ele>332</ele>
        <time>2020-06-29T20:18:43Z</time>
      </trkpt>
      <trkpt lat="48.70769" lon="5.44429">
        <ele>331.9</ele>
        <time>2020-06-29T20:18:44Z</time>
      </trkpt>
      <trkpt lat="48.70771" lon="5.44428">
        <ele>331.9</ele>
        <time>2020-06-29T20:18:45Z</time>
      </trkpt>
      <trkpt lat="48.70775" lon="5.44428">
        <ele>331.9</ele>
        <time>2020-06-29T20:18:46Z</time>
      </trkpt>
      <trkpt lat="48.70775" lon="5.44427">
        <ele>331.9</ele>
        <time>2020-06-29T20:18:47Z</time>
      </trkpt>
      <trkpt lat="48.70777" lon="5.44427">
        <ele>331.8</ele>
        <time>2020-06-29T20:18:48Z</time>
      </trkpt>
      <trkpt lat="48.70779" lon="5.44427">
        <ele>331.8</ele>
        <time>2020-06-29T20:18:49Z</time>
      </trkpt>
      <trkpt lat="48.7078" lon="5.44427">
        <ele>331.8</ele>
        <time>2020-06-29T20:18:50Z</time>
      </trkpt>
      <trkpt lat="48.70781" lon="5.44427">
        <ele>331.8</ele>
        <time>2020-06-29T20:18:51Z</time>
      </trkpt>
      <trkpt lat="48.70782" lon="5.44426">
        <ele>331.8</ele>
        <time>2020-06-29T20:18:52Z</time>
      </trkpt>
      <trkpt lat="48.70783" lon="5.44426">
        <ele>331.8</ele>
        <time>2020-06-29T20:18:53Z</time>
      </trkpt>
      <trkpt lat="48.70784" lon="5.44426">
        <ele>331.8</ele>
        <time>2020-06-29T20:18:54Z</time>
      </trkpt>
      <trkpt lat="48.70785" lon="5.44426">
        <ele>331.7</ele>
        <time>2020-06-29T20:18:55Z</time>
      </trkpt>
      <trkpt lat="48.70786" lon="5.44428">
        <ele>331.7</ele>
        <time>2020-06-29T20:18:56Z</time>
      </trkpt>
      <trkpt lat="48.70786" lon="5.44429">
        <ele>331.7</ele>
        <time>2020-06-29T20:18:57Z</time>
      </trkpt>
      <trkpt lat="48.70787" lon="5.4443">
        <ele>331.7</ele>
        <time>2020-06-29T20:18:58Z</time>
      </trkpt>
      <trkpt lat="48.70787" lon="5.44431">
        <ele>331.7</ele>
        <time>2020-06-29T20:18:59Z</time>
      </trkpt>
      <trkpt lat="48.70787" lon="5.44433">
        <ele>331.7</ele>
        <time>2020-06-29T20:19:00Z</time>
      </trkpt>
      <trkpt lat="48.70787" lon="5.44434">
        <ele>331.7</ele>
        <time>2020-06-29T20:19:01Z</time>
      </trkpt>
      <trkpt lat="48.70787" lon="5.44435">
        <ele>331.7</ele>
        <time>2020-06-29T20:19:02Z</time>
      </trkpt>
      <trkpt lat="48.70787" lon="5.44435">
        <ele>331.7</ele>
        <time>2020-06-29T20:19:03Z</time>
      </trkpt>
      <trkpt lat="48.70787" lon="5.44435">
        <ele>331.7</ele>
        <time>2020-06-29T20:19:04Z</time>
      </trkpt>
      <trkpt lat="48.70787" lon="5.44435">
        <ele>331.7</ele>
        <time>2020-06-29T20:19:05Z</time>
      </trkpt>
      <trkpt lat="48.70787" lon="5.44436">
        <ele>331.6</ele>
        <time>2020-06-29T20:19:06Z</time>
      </trkpt>
      <trkpt lat="48.70788" lon="5.44436">
        <ele>331.6</ele>
        <time>2020-06-29T20:19:07Z</time>
      </trkpt>
      <trkpt lat="48.70788" lon="5.44437">
        <ele>331.6</ele>
        <time>2020-06-29T20:19:08Z</time>
      </trkpt>
      <trkpt lat="48.70789" lon="5.44436">
        <ele>331.6</ele>
        <time>2020-06-29T20:19:09Z</time>
      </trkpt>
      <trkpt lat="48.70789" lon="5.44436">
        <ele>331.6</ele>
        <time>2020-06-29T20:19:10Z</time>
      </trkpt>
      <trkpt lat="48.7079" lon="5.44437">
        <ele>331.6</ele>
        <time>2020-06-29T20:19:11Z</time>
      </trkpt>
      <trkpt lat="48.70787" lon="5.44432">
        <ele>331.6</ele>
        <time>2020-06-29T20:19:12Z</time>
      </trkpt>
      <trkpt lat="48.70787" lon="5.44432">
        <ele>331.6</ele>
        <time>2020-06-29T20:19:13Z</time>
      </trkpt>
      <trkpt lat="48.70787" lon="5.44431">
        <ele>331.5</ele>
        <time>2020-06-29T20:19:14Z</time>
      </trkpt>
      <trkpt lat="48.70787" lon="5.44431">
        <ele>331.5</ele>
        <time>2020-06-29T20:19:15Z</time>
      </trkpt>
      <trkpt lat="48.70787" lon="5.44431">
        <ele>331.5</ele>
        <time>2020-06-29T20:19:16Z</time>
      </trkpt>
      <trkpt lat="48.70787" lon="5.44431">
        <ele>331.5</ele>
        <time>2020-06-29T20:19:17Z</time>
      </trkpt>
      <trkpt lat="48.70786" lon="5.44429">
        <ele>331.5</ele>
        <time>2020-06-29T20:19:18Z</time>
      </trkpt>
      <trkpt lat="48.70784" lon="5.44426">
        <ele>331.5</ele>
        <time>2020-06-29T20:19:19Z</time>
      </trkpt>
      <trkpt lat="48.70783" lon="5.44425">
        <ele>331.5</ele>
        <time>2020-06-29T20:19:20Z</time>
      </trkpt>
      <trkpt lat="48.70782" lon="5.44423">
        <ele>331.5</ele>
        <time>2020-06-29T20:19:21Z</time>
      </trkpt>
      <trkpt lat="48.7078" lon="5.44419">
        <ele>331.4</ele>
        <time>2020-06-29T20:19:22Z</time>
      </trkpt>
      <trkpt lat="48.70779" lon="5.44417">
        <ele>331.4</ele>
        <time>2020-06-29T20:19:23Z</time>
      </trkpt>
      <trkpt lat="48.70779" lon="5.44415">
        <ele>331.4</ele>
        <time>2020-06-29T20:19:24Z</time>
      </trkpt>
      <trkpt lat="48.70778" lon="5.44412">
        <ele>331.4</ele>
        <time>2020-06-29T20:19:25Z</time>
      </trkpt>
      <trkpt lat="48.70757" lon="5.44408">
        <ele>331.1</ele>
        <time>2020-06-29T20:20:43Z</time>
      </trkpt>
      <trkpt lat="48.70757" lon="5.44409">
        <ele>331.1</ele>
        <time>2020-06-29T20:20:44Z</time>
      </trkpt>
      <trkpt lat="48.70756" lon="5.44409">
        <ele>331.1</ele>
        <time>2020-06-29T20:20:45Z</time>
      </trkpt>
      <trkpt lat="48.70757" lon="5.44408">
        <ele>331.1</ele>
        <time>2020-06-29T20:20:46Z</time>
      </trkpt>
      <trkpt lat="48.70756" lon="5.44407">
        <ele>331.1</ele>
        <time>2020-06-29T20:20:47Z</time>
      </trkpt>
      <trkpt lat="48.70756" lon="5.44407">
        <ele>331.1</ele>
        <time>2020-06-29T20:20:48Z</time>
      </trkpt>
      <trkpt lat="48.70756" lon="5.44406">
        <ele>331.1</ele>
        <time>2020-06-29T20:20:49Z</time>
      </trkpt>
      <trkpt lat="48.70757" lon="5.44406">
        <ele>331.1</ele>
        <time>2020-06-29T20:20:50Z</time>
      </trkpt>
      <trkpt lat="48.70757" lon="5.44407">
        <ele>331.1</ele>
        <time>2020-06-29T20:20:51Z</time>
      </trkpt>
      <trkpt lat="48.70758" lon="5.44407">
        <ele>331.1</ele>
        <time>2020-06-29T20:20:52Z</time>
      </trkpt>
      <trkpt lat="48.70758" lon="5.44408">
        <ele>331.1</ele>
        <time>2020-06-29T20:20:53Z</time>
      </trkpt>
      <trkpt lat="48.70759" lon="5.44409">
        <ele>331.1</ele>
        <time>2020-06-29T20:20:54Z</time>
      </trkpt>
      <trkpt lat="48.70759" lon="5.44411">
        <ele>331</ele>
        <time>2020-06-29T20:20:55Z</time>
      </trkpt>
      <trkpt lat="48.7076" lon="5.44413">
        <ele>331</ele>
        <time>2020-06-29T20:20:56Z</time>
      </trkpt>
      <trkpt lat="48.70761" lon="5.44414">
        <ele>331</ele>
        <time>2020-06-29T20:20:57Z</time>
      </trkpt>
      <trkpt lat="48.70761" lon="5.44415">
        <ele>331</ele>
        <time>2020-06-29T20:20:58Z</time>
      </trkpt>
      <trkpt lat="48.70762" lon="5.44415">
        <ele>331</ele>
        <time>2020-06-29T20:20:59Z</time>
      </trkpt>
      <trkpt lat="48.70762" lon="5.44417">
        <ele>331</ele>
        <time>2020-06-29T20:21:00Z</time>
      </trkpt>
      <trkpt lat="48.70763" lon="5.44419">
        <ele>331</ele>
        <time>2020-06-29T20:21:01Z</time>
      </trkpt>
      <trkpt lat="48.70764" lon="5.4442">
        <ele>330.9</ele>
        <time>2020-06-29T20:21:02Z</time>
      </trkpt>
      <trkpt lat="48.70765" lon="5.44421">
        <ele>330.9</ele>
        <time>2020-06-29T20:21:03Z</time>
      </trkpt>
      <trkpt lat="48.70766" lon="5.44422">
        <ele>330.9</ele>
        <time>2020-06-29T20:21:04Z</time>
      </trkpt>
      <trkpt lat="48.70767" lon="5.44424">
        <ele>330.9</ele>
        <time>2020-06-29T20:21:05Z</time>
      </trkpt>
      <trkpt lat="48.70768" lon="5.44425">
        <ele>330.9</ele>
        <time>2020-06-29T20:21:06Z</time>
      </trkpt>
      <trkpt lat="48.70769" lon="5.44426">
        <ele>330.9</ele>
        <time>2020-06-29T20:21:07Z</time>
      </trkpt>
      <trkpt lat="48.7077" lon="5.44428">
        <ele>330.8</ele>
        <time>2020-06-29T20:21:08Z</time>
      </trkpt>
      <trkpt lat="48.70771" lon="5.4443">
        <ele>330.8</ele>
        <time>2020-06-29T20:21:09Z</time>
      </trkpt>
      <trkpt lat="48.70771" lon="5.44431">
        <ele>330.8</ele>
        <time>2020-06-29T20:21:10Z</time>
      </trkpt>
      <trkpt lat="48.70772" lon="5.44432">
        <ele>330.8</ele>
        <time>2020-06-29T20:21:11Z</time>
      </trkpt>
      <trkpt lat="48.70772" lon="5.44433">
        <ele>330.8</ele>
        <time>2020-06-29T20:21:12Z</time>
      </trkpt>
      <trkpt lat="48.70773" lon="5.44434">
        <ele>330.8</ele>
        <time>2020-06-29T20:21:13Z</time>
      </trkpt>
      <trkpt lat="48.70773" lon="5.44435">
        <ele>330.8</ele>
        <time>2020-06-29T20:21:14Z</time>
      </trkpt>
      <trkpt lat="48.70773" lon="5.44435">
        <ele>330.7</ele>
        <time>2020-06-29T20:21:15Z</time>
      </trkpt>
      <trkpt lat="48.70774" lon="5.44436">
        <ele>330.7</ele>
        <time>2020-06-29T20:21:16Z</time>
      </trkpt>
      <trkpt lat="48.70774" lon="5.44437">
        <ele>330.7</ele>
        <time>2020-06-29T20:21:17Z</time>
      </trkpt>
      <trkpt lat="48.70774" lon="5.44437">
        <ele>330.7</ele>
        <time>2020-06-29T20:21:18Z</time>
      </trkpt>
      <trkpt lat="48.70774" lon="5.44438">
        <ele>330.7</ele>
        <time>2020-06-29T20:21:19Z</time>
      </trkpt>
      <trkpt lat="48.70774" lon="5.44438">
        <ele>330.7</ele>
        <time>2020-06-29T20:21:20Z</time>
      </trkpt>
      <trkpt lat="48.70773" lon="5.44439">
        <ele>330.7</ele>
        <time>2020-06-29T20:21:21Z</time>
      </trkpt>
      <trkpt lat="48.70773" lon="5.44439">
        <ele>330.7</ele>
        <time>2020-06-29T20:21:22Z</time>
      </trkpt>
      <trkpt lat="48.70773" lon="5.4444">
        <ele>330.7</ele>
        <time>2020-06-29T20:21:23Z</time>
      </trkpt>
      <trkpt lat="48.70774" lon="5.44439">
        <ele>330.7</ele>
        <time>2020-06-29T20:21:24Z</time>
      </trkpt>
      <trkpt lat="48.70774" lon="5.44438">
        <ele>330.7</ele>
        <time>2020-06-29T20:21:25Z</time>
      </trkpt>
      <trkpt lat="48.70774" lon="5.44437">
        <ele>330.7</ele>
        <time>2020-06-29T20:21:26Z</time>
      </trkpt>
      <trkpt lat="48.70774" lon="5.44438">
        <ele>330.7</ele>
        <time>2020-06-29T20:21:27Z</time>
      </trkpt>
      <trkpt lat="48.70775" lon="5.44439">
        <ele>330.7</ele>
        <time>2020-06-29T20:21:28Z</time>
      </trkpt>
      <trkpt lat="48.70776" lon="5.4444">
        <ele>330.6</ele>
        <time>2020-06-29T20:21:29Z</time>
      </trkpt>
      <trkpt lat="48.70776" lon="5.44441">
        <ele>330.6</ele>
        <time>2020-06-29T20:21:30Z</time>
      </trkpt>
      <trkpt lat="48.70776" lon="5.44441">
        <ele>330.6</ele>
        <time>2020-06-29T20:21:31Z</time>
      </trkpt>
      <trkpt lat="48.70776" lon="5.44441">
        <ele>330.6</ele>
        <time>2020-06-29T20:21:32Z</time>
      </trkpt>
      <trkpt lat="48.70776" lon="5.44441">
        <ele>330.6</ele>
        <time>2020-06-29T20:21:33Z</time>
      </trkpt>
      <trkpt lat="48.70776" lon="5.44441">
        <ele>330.6</ele>
        <time>2020-06-29T20:21:34Z</time>
      </trkpt>
      <trkpt lat="48.70776" lon="5.44441">
        <ele>330.6</ele>
        <time>2020-06-29T20:21:35Z</time>
      </trkpt>
      <trkpt lat="48.70776" lon="5.44441">
        <ele>330.6</ele>
        <time>2020-06-29T20:21:36Z</time>
      </trkpt>
      <trkpt lat="48.70776" lon="5.44441">
        <ele>330.6</ele>
        <time>2020-06-29T20:21:37Z</time>
      </trkpt>
      <trkpt lat="48.70776" lon="5.44441">
        <ele>330.6</ele>
        <time>2020-06-29T20:21:38Z</time>
      </trkpt>
      <trkpt lat="48.70776" lon="5.44441">
        <ele>330.6</ele>
        <time>2020-06-29T20:21:39Z</time>
      </trkpt>
      <trkpt lat="48.70776" lon="5.44441">
        <ele>330.6</ele>
        <time>2020-06-29T20:21:40Z</time>
      </trkpt>
      <trkpt lat="48.70776" lon="5.44441">
        <ele>330.6</ele>
        <time>2020-06-29T20:21:41Z</time>
      </trkpt>
      <trkpt lat="48.70783" lon="5.4444">
        <ele>330.5</ele>
        <time>2020-06-29T20:23:41Z</time>
      </trkpt>
      <trkpt lat="48.70783" lon="5.44439">
        <ele>330.5</ele>
        <time>2020-06-29T20:23:42Z</time>
      </trkpt>
      <trkpt lat="48.70783" lon="5.44439">
        <ele>330.5</ele>
        <time>2020-06-29T20:23:43Z</time>
      </trkpt>
      <trkpt lat="48.70784" lon="5.44438">
        <ele>330.5</ele>
        <time>2020-06-29T20:23:44Z</time>
      </trkpt>
      <trkpt lat="48.70784" lon="5.44437">
        <ele>330.5</ele>
        <time>2020-06-29T20:23:45Z</time>
      </trkpt>
      <trkpt lat="48.70785" lon="5.44436">
        <ele>330.5</ele>
        <time>2020-06-29T20:23:46Z</time>
      </trkpt>
      <trkpt lat="48.70785" lon="5.44436">
        <ele>330.5</ele>
        <time>2020-06-29T20:23:47Z</time>
      </trkpt>
      <trkpt lat="48.70785" lon="5.44435">
        <ele>330.5</ele>
        <time>2020-06-29T20:23:48Z</time>
      </trkpt>
      <trkpt lat="48.70785" lon="5.44435">
        <ele>330.5</ele>
        <time>2020-06-29T20:23:49Z</time>
      </trkpt>
      <trkpt lat="48.70785" lon="5.44434">
        <ele>330.5</ele>
        <time>2020-06-29T20:23:50Z</time>
      </trkpt>
      <trkpt lat="48.70785" lon="5.44434">
        <ele>330.5</ele>
        <time>2020-06-29T20:23:51Z</time>
      </trkpt>
      <trkpt lat="48.70784" lon="5.44434">
        <ele>330.5</ele>
        <time>2020-06-29T20:23:52Z</time>
      </trkpt>
      <trkpt lat="48.70784" lon="5.44434">
        <ele>330.5</ele>
        <time>2020-06-29T20:23:53Z</time>
      </trkpt>
      <trkpt lat="48.70784" lon="5.44434">
        <ele>330.5</ele>
        <time>2020-06-29T20:23:54Z</time>
      </trkpt>
      <trkpt lat="48.70784" lon="5.44434">
        <ele>330.5</ele>
        <time>2020-06-29T20:23:55Z</time>
      </trkpt>
      <trkpt lat="48.70783" lon="5.44433">
        <ele>330.4</ele>
        <time>2020-06-29T20:23:56Z</time>
      </trkpt>
      <trkpt lat="48.70783" lon="5.44433">
        <ele>330.4</ele>
        <time>2020-06-29T20:23:57Z</time>
      </trkpt>
      <trkpt lat="48.70782" lon="5.44433">
        <ele>330.4</ele>
        <time>2020-06-29T20:23:58Z</time>
      </trkpt>
      <trkpt lat="48.70782" lon="5.44432">
        <ele>330.4</ele>
        <time>2020-06-29T20:23:59Z</time>
      </trkpt>
      <trkpt lat="48.70783" lon="5.44432">
        <ele>330.4</ele>
        <time>2020-06-29T20:24:00Z</time>
      </trkpt>
      <trkpt lat="48.70783" lon="5.44431">
        <ele>330.4</ele>
        <time>2020-06-29T20:24:01Z</time>
      </trkpt>
      <trkpt lat="48.70782" lon="5.44432">
        <ele>330.4</ele>
        <time>2020-06-29T20:24:02Z</time>
      </trkpt>
      <trkpt lat="48.70782" lon="5.44432">
        <ele>330.4</ele>
        <time>2020-06-29T20:24:03Z</time>
      </trkpt>
      <trkpt lat="48.70781" lon="5.44432">
        <ele>330.4</ele>
        <time>2020-06-29T20:24:04Z</time>
      </trkpt>
      <trkpt lat="48.7078" lon="5.44433">
        <ele>330.4</ele>
        <time>2020-06-29T20:24:05Z</time>
      </trkpt>
      <trkpt lat="48.70779" lon="5.44433">
        <ele>330.4</ele>
        <time>2020-06-29T20:24:06Z</time>
      </trkpt>
      <trkpt lat="48.70779" lon="5.44433">
        <ele>330.4</ele>
        <time>2020-06-29T20:24:07Z</time>
      </trkpt>
      <trkpt lat="48.70778" lon="5.44433">
        <ele>330.4</ele>
        <time>2020-06-29T20:24:08Z</time>
      </trkpt>
      <trkpt lat="48.70778" lon="5.44433">
        <ele>330.4</ele>
        <time>2020-06-29T20:24:09Z</time>
      </trkpt>
      <trkpt lat="48.70778" lon="5.44433">
        <ele>330.4</ele>
        <time>2020-06-29T20:24:10Z</time>
      </trkpt>
      <trkpt lat="48.70777" lon="5.44433">
        <ele>330.4</ele>
        <time>2020-06-29T20:24:11Z</time>
      </trkpt>
      <trkpt lat="48.70777" lon="5.44434">
        <ele>330.4</ele>
        <time>2020-06-29T20:24:12Z</time>
      </trkpt>
      <trkpt lat="48.70777" lon="5.44434">
        <ele>330.4</ele>
        <time>2020-06-29T20:24:13Z</time>
      </trkpt>
      <trkpt lat="48.70776" lon="5.44434">
        <ele>330.4</ele>
        <time>2020-06-29T20:24:14Z</time>
      </trkpt>
      <trkpt lat="48.70775" lon="5.44435">
        <ele>330.5</ele>
        <time>2020-06-29T20:24:15Z</time>
      </trkpt>
      <trkpt lat="48.70774" lon="5.44435">
        <ele>330.5</ele>
        <time>2020-06-29T20:24:16Z</time>
      </trkpt>
      <trkpt lat="48.70774" lon="5.44436">
        <ele>330.5</ele>
        <time>2020-06-29T20:24:17Z</time>
      </trkpt>
      <trkpt lat="48.70774" lon="5.44436">
        <ele>330.5</ele>
        <time>2020-06-29T20:24:18Z</time>
      </trkpt>
      <trkpt lat="48.70774" lon="5.44436">
        <ele>330.5</ele>
        <time>2020-06-29T20:24:19Z</time>
      </trkpt>
      <trkpt lat="48.70773" lon="5.44437">
        <ele>330.5</ele>
        <time>2020-06-29T20:24:20Z</time>
      </trkpt>
      <trkpt lat="48.70773" lon="5.44437">
        <ele>330.5</ele>
        <time>2020-06-29T20:24:21Z</time>
      </trkpt>
      <trkpt lat="48.70773" lon="5.44438">
        <ele>330.5</ele>
        <time>2020-06-29T20:24:22Z</time>
      </trkpt>
      <trkpt lat="48.70773" lon="5.44438">
        <ele>330.5</ele>
        <time>2020-06-29T20:24:23Z</time>
      </trkpt>
      <trkpt lat="48.70773" lon="5.44438">
        <ele>330.5</ele>
        <time>2020-06-29T20:24:24Z</time>
      </trkpt>
      <trkpt lat="48.70772" lon="5.44438">
        <ele>330.5</ele>
        <time>2020-06-29T20:24:25Z</time>
      </trkpt>
      <trkpt lat="48.70772" lon="5.44439">
        <ele>330.5</ele>
        <time>2020-06-29T20:24:26Z</time>
      </trkpt>
      <trkpt lat="48.70772" lon="5.44439">
        <ele>330.5</ele>
        <time>2020-06-29T20:24:27Z</time>
      </trkpt>
      <trkpt lat="48.70771" lon="5.44439">
        <ele>330.5</ele>
        <time>2020-06-29T20:24:28Z</time>
      </trkpt>
      <trkpt lat="48.70771" lon="5.44439">
        <ele>330.5</ele>
        <time>2020-06-29T20:24:29Z</time>
      </trkpt>
      <trkpt lat="48.70771" lon="5.44439">
        <ele>330.5</ele>
        <time>2020-06-29T20:24:30Z</time>
      </trkpt>
      <trkpt lat="48.70771" lon="5.4444">
        <ele>330.5</ele>
        <time>2020-06-29T20:24:31Z</time>
      </trkpt>
      <trkpt lat="48.7077" lon="5.4444">
        <ele>330.5</ele>
        <time>2020-06-29T20:24:32Z</time>
      </trkpt>
      <trkpt lat="48.7077" lon="5.4444">
        <ele>330.5</ele>
        <time>2020-06-29T20:24:33Z</time>
      </trkpt>
      <trkpt lat="48.7077" lon="5.4444">
        <ele>330.5</ele>
        <time>2020-06-29T20:24:34Z</time>
      </trkpt>
      <trkpt lat="48.70769" lon="5.44441">
        <ele>330.5</ele>
        <time>2020-06-29T20:24:35Z</time>
      </trkpt>
      <trkpt lat="48.70769" lon="5.44441">
        <ele>330.5</ele>
        <time>2020-06-29T20:24:36Z</time>
      </trkpt>
      <trkpt lat="48.70769" lon="5.44441">
        <ele>330.5</ele>
        <time>2020-06-29T20:24:37Z</time>
      </trkpt>
      <trkpt lat="48.70769" lon="5.44442">
        <ele>330.5</ele>
        <time>2020-06-29T20:24:38Z</time>
      </trkpt>
      <trkpt lat="48.70769" lon="5.44443">
        <ele>330.5</ele>
        <time>2020-06-29T20:24:39Z</time>
      </trkpt>
      <trkpt lat="48.70768" lon="5.44443">
        <ele>330.5</ele>
        <time>2020-06-29T20:24:40Z</time>
      </trkpt>
      <trkpt lat="48.70768" lon="5.44444">
        <ele>330.5</ele>
        <time>2020-06-29T20:24:41Z</time>
      </trkpt>
      <trkpt lat="48.70769" lon="5.44444">
        <ele>330.5</ele>
        <time>2020-06-29T20:24:42Z</time>
      </trkpt>
      <trkpt lat="48.70769" lon="5.44444">
        <ele>330.6</ele>
        <time>2020-06-29T20:24:43Z</time>
      </trkpt>
      <trkpt lat="48.7077" lon="5.44444">
        <ele>330.6</ele>
        <time>2020-06-29T20:24:44Z</time>
      </trkpt>
      <trkpt lat="48.7077" lon="5.44444">
        <ele>330.6</ele>
        <time>2020-06-29T20:24:45Z</time>
      </trkpt>
      <trkpt lat="48.7077" lon="5.44444">
        <ele>330.6</ele>
        <time>2020-06-29T20:24:46Z</time>
      </trkpt>
      <trkpt lat="48.7077" lon="5.44444">
        <ele>330.6</ele>
        <time>2020-06-29T20:24:47Z</time>
      </trkpt>
      <trkpt lat="48.70769" lon="5.44443">
        <ele>330.6</ele>
        <time>2020-06-29T20:24:48Z</time>
      </trkpt>
      <trkpt lat="48.70769" lon="5.44443">
        <ele>330.6</ele>
        <time>2020-06-29T20:24:49Z</time>
      </trkpt>
      <trkpt lat="48.70769" lon="5.44443">
        <ele>330.6</ele>
        <time>2020-06-29T20:24:50Z</time>
      </trkpt>
      <trkpt lat="48.70769" lon="5.44442">
        <ele>330.6</ele>
        <time>2020-06-29T20:24:51Z</time>
      </trkpt>
      <trkpt lat="48.70768" lon="5.44441">
        <ele>330.6</ele>
        <time>2020-06-29T20:24:52Z</time>
      </trkpt>
      <trkpt lat="48.70768" lon="5.4444">
        <ele>330.6</ele>
        <time>2020-06-29T20:24:53Z</time>
      </trkpt>
      <trkpt lat="48.70768" lon="5.4444">
        <ele>330.6</ele>
        <time>2020-06-29T20:24:54Z</time>
      </trkpt>
      <trkpt lat="48.70768" lon="5.44441">
        <ele>330.6</ele>
        <time>2020-06-29T20:24:55Z</time>
      </trkpt>
      <trkpt lat="48.70769" lon="5.44441">
        <ele>330.6</ele>
        <time>2020-06-29T20:24:56Z</time>
      </trkpt>
      <trkpt lat="48.70769" lon="5.44441">
        <ele>330.6</ele>
        <time>2020-06-29T20:24:57Z</time>
      </trkpt>
      <trkpt lat="48.7077" lon="5.44441">
        <ele>330.6</ele>
        <time>2020-06-29T20:24:58Z</time>
      </trkpt>
      <trkpt lat="48.70771" lon="5.44441">
        <ele>330.6</ele>
        <time>2020-06-29T20:24:59Z</time>
      </trkpt>
      <trkpt lat="48.70772" lon="5.44441">
        <ele>330.6</ele>
        <time>2020-06-29T20:25:00Z</time>
      </trkpt>
      <trkpt lat="48.70772" lon="5.4444">
        <ele>330.6</ele>
        <time>2020-06-29T20:25:01Z</time>
      </trkpt>
      <trkpt lat="48.70772" lon="5.44439">
        <ele>330.6</ele>
        <time>2020-06-29T20:25:02Z</time>
      </trkpt>
      <trkpt lat="48.70771" lon="5.44438">
        <ele>330.6</ele>
        <time>2020-06-29T20:25:03Z</time>
      </trkpt>
      <trkpt lat="48.70771" lon="5.44437">
        <ele>330.7</ele>
        <time>2020-06-29T20:25:04Z</time>
      </trkpt>
      <trkpt lat="48.70771" lon="5.44437">
        <ele>330.7</ele>
        <time>2020-06-29T20:25:05Z</time>
      </trkpt>
      <trkpt lat="48.70771" lon="5.44436">
        <ele>330.7</ele>
        <time>2020-06-29T20:25:06Z</time>
      </trkpt>
      <trkpt lat="48.70769" lon="5.44435">
        <ele>330.7</ele>
        <time>2020-06-29T20:25:07Z</time>
      </trkpt>
      <trkpt lat="48.70769" lon="5.44434">
        <ele>330.7</ele>
        <time>2020-06-29T20:25:08Z</time>
      </trkpt>
      <trkpt lat="48.70768" lon="5.44434">
        <ele>330.7</ele>
        <time>2020-06-29T20:25:09Z</time>
      </trkpt>
      <trkpt lat="48.70768" lon="5.44434">
        <ele>330.7</ele>
        <time>2020-06-29T20:25:10Z</time>
      </trkpt>
      <trkpt lat="48.70767" lon="5.44434">
        <ele>330.7</ele>
        <time>2020-06-29T20:25:11Z</time>
      </trkpt>
      <trkpt lat="48.70767" lon="5.44434">
        <ele>330.7</ele>
        <time>2020-06-29T20:25:12Z</time>
      </trkpt>
      <trkpt lat="48.70762" lon="5.44414">
        <ele>330.8</ele>
        <time>2020-06-29T20:30:04Z</time>
      </trkpt>
      <trkpt lat="48.70761" lon="5.44413">
        <ele>330.8</ele>
        <time>2020-06-29T20:30:05Z</time>
      </trkpt>
      <trkpt lat="48.70761" lon="5.44414">
        <ele>330.8</ele>
        <time>2020-06-29T20:30:06Z</time>
      </trkpt>
      <trkpt lat="48.70761" lon="5.44413">
        <ele>330.8</ele>
        <time>2020-06-29T20:30:07Z</time>
      </trkpt>
      <trkpt lat="48.7076" lon="5.44413">
        <ele>330.8</ele>
        <time>2020-06-29T20:30:08Z</time>
      </trkpt>
      <trkpt lat="48.7076" lon="5.44412">
        <ele>330.8</ele>
        <time>2020-06-29T20:30:09Z</time>
      </trkpt>
      <trkpt lat="48.7076" lon="5.44412">
        <ele>330.8</ele>
        <time>2020-06-29T20:30:10Z</time>
      </trkpt>
      <trkpt lat="48.70759" lon="5.44411">
        <ele>330.8</ele>
        <time>2020-06-29T20:30:11Z</time>
      </trkpt>
      <trkpt lat="48.70759" lon="5.4441">
        <ele>330.8</ele>
        <time>2020-06-29T20:30:12Z</time>
      </trkpt>
      <trkpt lat="48.70758" lon="5.44409">
        <ele>330.9</ele>
        <time>2020-06-29T20:30:13Z</time>
      </trkpt>
      <trkpt lat="48.70758" lon="5.44409">
        <ele>330.9</ele>
        <time>2020-06-29T20:30:14Z</time>
      </trkpt>
      <trkpt lat="48.70758" lon="5.44408">
        <ele>330.9</ele>
        <time>2020-06-29T20:30:15Z</time>
      </trkpt>
      <trkpt lat="48.70758" lon="5.44407">
        <ele>330.9</ele>
        <time>2020-06-29T20:30:16Z</time>
      </trkpt>
      <trkpt lat="48.70757" lon="5.44406">
        <ele>330.9</ele>
        <time>2020-06-29T20:30:17Z</time>
      </trkpt>
      <trkpt lat="48.70757" lon="5.44406">
        <ele>330.9</ele>
        <time>2020-06-29T20:30:18Z</time>
      </trkpt>
      <trkpt lat="48.70757" lon="5.44405">
        <ele>330.9</ele>
        <time>2020-06-29T20:30:19Z</time>
      </trkpt>
      <trkpt lat="48.70756" lon="5.44404">
        <ele>330.9</ele>
        <time>2020-06-29T20:30:20Z</time>
      </trkpt>
      <trkpt lat="48.70756" lon="5.44403">
        <ele>330.9</ele>
        <time>2020-06-29T20:30:21Z</time>
      </trkpt>
      <trkpt lat="48.70756" lon="5.44403">
        <ele>330.9</ele>
        <time>2020-06-29T20:30:22Z</time>
      </trkpt>
      <trkpt lat="48.70756" lon="5.44402">
        <ele>330.9</ele>
        <time>2020-06-29T20:30:23Z</time>
      </trkpt>
      <trkpt lat="48.70755" lon="5.44401">
        <ele>330.9</ele>
        <time>2020-06-29T20:30:24Z</time>
      </trkpt>
      <trkpt lat="48.70755" lon="5.444">
        <ele>330.9</ele>
        <time>2020-06-29T20:30:25Z</time>
      </trkpt>
      <trkpt lat="48.70755" lon="5.444">
        <ele>330.9</ele>
        <time>2020-06-29T20:30:26Z</time>
      </trkpt>
      <trkpt lat="48.70755" lon="5.44399">
        <ele>330.9</ele>
        <time>2020-06-29T20:30:27Z</time>
      </trkpt>
      <trkpt lat="48.70754" lon="5.44398">
        <ele>330.9</ele>
        <time>2020-06-29T20:30:28Z</time>
      </trkpt>
      <trkpt lat="48.70754" lon="5.44397">
        <ele>330.9</ele>
        <time>2020-06-29T20:33:07Z</time>
      </trkpt>
      <trkpt lat="48.70754" lon="5.44397">
        <ele>330.9</ele>
        <time>2020-06-29T20:33:08Z</time>
      </trkpt>
      <trkpt lat="48.70753" lon="5.44396">
        <ele>330.9</ele>
        <time>2020-06-29T20:33:09Z</time>
      </trkpt>
      <trkpt lat="48.70753" lon="5.44394">
        <ele>331</ele>
        <time>2020-06-29T20:33:10Z</time>
      </trkpt>
      <trkpt lat="48.70752" lon="5.44393">
        <ele>331</ele>
        <time>2020-06-29T20:33:11Z</time>
      </trkpt>
      <trkpt lat="48.70752" lon="5.44393">
        <ele>331</ele>
        <time>2020-06-29T20:33:12Z</time>
      </trkpt>
      <trkpt lat="48.70752" lon="5.44393">
        <ele>331</ele>
        <time>2020-06-29T20:33:13Z</time>
      </trkpt>
      <trkpt lat="48.70752" lon="5.44392">
        <ele>331</ele>
        <time>2020-06-29T20:33:14Z</time>
      </trkpt>
      <trkpt lat="48.70752" lon="5.44392">
        <ele>331</ele>
        <time>2020-06-29T20:33:15Z</time>
      </trkpt>
      <trkpt lat="48.70752" lon="5.44392">
        <ele>331</ele>
        <time>2020-06-29T20:33:16Z</time>
      </trkpt>
      <trkpt lat="48.70752" lon="5.44392">
        <ele>331</ele>
        <time>2020-06-29T20:33:17Z</time>
      </trkpt>
      <trkpt lat="48.70752" lon="5.44392">
        <ele>331</ele>
        <time>2020-06-29T20:33:18Z</time>
      </trkpt>
      <trkpt lat="48.70752" lon="5.44392">
        <ele>331</ele>
        <time>2020-06-29T20:33:19Z</time>
      </trkpt>
      <trkpt lat="48.70752" lon="5.44392">
        <ele>331</ele>
        <time>2020-06-29T20:33:20Z</time>
      </trkpt>
      <trkpt lat="48.70752" lon="5.44392">
        <ele>331</ele>
        <time>2020-06-29T20:33:21Z</time>
      </trkpt>
      <trkpt lat="48.70757" lon="5.44405">
        <ele>331</ele>
        <time>2020-06-29T20:33:59Z</time>
      </trkpt>
      <trkpt lat="48.70758" lon="5.44408">
        <ele>331.1</ele>
        <time>2020-06-29T20:34:00Z</time>
      </trkpt>
      <trkpt lat="48.70759" lon="5.44412">
        <ele>331.1</ele>
        <time>2020-06-29T20:34:01Z</time>
      </trkpt>
      <trkpt lat="48.70759" lon="5.44413">
        <ele>331.1</ele>
        <time>2020-06-29T20:34:02Z</time>
      </trkpt>
      <trkpt lat="48.7076" lon="5.44415">
        <ele>331.1</ele>
        <time>2020-06-29T20:34:03Z</time>
      </trkpt>
      <trkpt lat="48.7076" lon="5.44417">
        <ele>331.1</ele>
        <time>2020-06-29T20:34:04Z</time>
      </trkpt>
      <trkpt lat="48.7076" lon="5.44418">
        <ele>331.1</ele>
        <time>2020-06-29T20:34:05Z</time>
      </trkpt>
      <trkpt lat="48.7076" lon="5.44418">
        <ele>331.1</ele>
        <time>2020-06-29T20:34:06Z</time>
      </trkpt>
      <trkpt lat="48.7076" lon="5.44419">
        <ele>331.1</ele>
        <time>2020-06-29T20:34:07Z</time>
      </trkpt>
      <trkpt lat="48.70761" lon="5.44419">
        <ele>331.1</ele>
        <time>2020-06-29T20:34:08Z</time>
      </trkpt>
      <trkpt lat="48.7076" lon="5.44419">
        <ele>331.1</ele>
        <time>2020-06-29T20:34:09Z</time>
      </trkpt>
      <trkpt lat="48.7076" lon="5.44419">
        <ele>331.1</ele>
        <time>2020-06-29T20:34:10Z</time>
      </trkpt>
      <trkpt lat="48.7076" lon="5.44419">
        <ele>331.1</ele>
        <time>2020-06-29T20:34:11Z</time>
      </trkpt>
      <trkpt lat="48.7076" lon="5.44418">
        <ele>331.1</ele>
        <time>2020-06-29T20:34:12Z</time>
      </trkpt>
      <trkpt lat="48.7076" lon="5.44419">
        <ele>331.1</ele>
        <time>2020-06-29T20:34:13Z</time>
      </trkpt>
      <trkpt lat="48.7076" lon="5.44419">
        <ele>331.1</ele>
        <time>2020-06-29T20:34:14Z</time>
      </trkpt>
      <trkpt lat="48.7076" lon="5.44419">
        <ele>331.1</ele>
        <time>2020-06-29T20:34:15Z</time>
      </trkpt>
      <trkpt lat="48.7076" lon="5.44419">
        <ele>331.1</ele>
        <time>2020-06-29T20:34:16Z</time>
      </trkpt>
      <trkpt lat="48.7076" lon="5.44419">
        <ele>331.1</ele>
        <time>2020-06-29T20:34:17Z</time>
      </trkpt>
      <trkpt lat="48.7076" lon="5.44419">
        <ele>331.1</ele>
        <time>2020-06-29T20:34:18Z</time>
      </trkpt>
      <trkpt lat="48.7076" lon="5.44418">
        <ele>331.1</ele>
        <time>2020-06-29T20:34:19Z</time>
      </trkpt>
      <trkpt lat="48.70761" lon="5.44418">
        <ele>331.1</ele>
        <time>2020-06-29T20:34:20Z</time>
      </trkpt>
      <trkpt lat="48.70761" lon="5.44418">
        <ele>331.1</ele>
        <time>2020-06-29T20:34:21Z</time>
      </trkpt>
      <trkpt lat="48.70761" lon="5.44418">
        <ele>331.1</ele>
        <time>2020-06-29T20:34:22Z</time>
      </trkpt>
      <trkpt lat="48.70761" lon="5.44418">
        <ele>331.1</ele>
        <time>2020-06-29T20:34:23Z</time>
      </trkpt>
      <trkpt lat="48.70761" lon="5.44418">
        <ele>331.1</ele>
        <time>2020-06-29T20:34:24Z</time>
      </trkpt>
      <trkpt lat="48.70761" lon="5.44418">
        <ele>331.1</ele>
        <time>2020-06-29T20:34:25Z</time>
      </trkpt>
      <trkpt lat="48.70761" lon="5.44417">
        <ele>331.2</ele>
        <time>2020-06-29T20:34:26Z</time>
      </trkpt>
      <trkpt lat="48.70761" lon="5.44417">
        <ele>331.2</ele>
        <time>2020-06-29T20:34:27Z</time>
      </trkpt>
      <trkpt lat="48.70761" lon="5.44417">
        <ele>331.2</ele>
        <time>2020-06-29T20:34:28Z</time>
      </trkpt>
      <trkpt lat="48.70761" lon="5.44417">
        <ele>331.2</ele>
        <time>2020-06-29T20:34:29Z</time>
      </trkpt>
      <trkpt lat="48.70761" lon="5.44417">
        <ele>331.2</ele>
        <time>2020-06-29T20:34:30Z</time>
      </trkpt>
      <trkpt lat="48.7076" lon="5.44416">
        <ele>331.2</ele>
        <time>2020-06-29T20:34:31Z</time>
      </trkpt>
      <trkpt lat="48.70761" lon="5.44415">
        <ele>331.2</ele>
        <time>2020-06-29T20:34:32Z</time>
      </trkpt>
      <trkpt lat="48.7076" lon="5.44411">
        <ele>331.2</ele>
        <time>2020-06-29T20:37:04Z</time>
      </trkpt>
      <trkpt lat="48.7076" lon="5.44411">
        <ele>331.2</ele>
        <time>2020-06-29T20:37:05Z</time>
      </trkpt>
      <trkpt lat="48.7076" lon="5.44411">
        <ele>331.2</ele>
        <time>2020-06-29T20:37:06Z</time>
      </trkpt>
      <trkpt lat="48.7076" lon="5.4441">
        <ele>331.2</ele>
        <time>2020-06-29T20:37:07Z</time>
      </trkpt>
      <trkpt lat="48.70759" lon="5.4441">
        <ele>331.2</ele>
        <time>2020-06-29T20:37:08Z</time>
      </trkpt>
      <trkpt lat="48.70759" lon="5.4441">
        <ele>331.2</ele>
        <time>2020-06-29T20:37:09Z</time>
      </trkpt>
      <trkpt lat="48.70759" lon="5.4441">
        <ele>331.2</ele>
        <time>2020-06-29T20:37:10Z</time>
      </trkpt>
      <trkpt lat="48.70759" lon="5.44409">
        <ele>331.2</ele>
        <time>2020-06-29T20:37:11Z</time>
      </trkpt>
      <trkpt lat="48.70759" lon="5.44409">
        <ele>331.2</ele>
        <time>2020-06-29T20:37:12Z</time>
      </trkpt>
      <trkpt lat="48.70759" lon="5.44409">
        <ele>331.2</ele>
        <time>2020-06-29T20:37:13Z</time>
      </trkpt>
      <trkpt lat="48.70759" lon="5.44409">
        <ele>331.2</ele>
        <time>2020-06-29T20:37:14Z</time>
      </trkpt>
      <trkpt lat="48.70758" lon="5.44409">
        <ele>331.2</ele>
        <time>2020-06-29T20:37:15Z</time>
      </trkpt>
      <trkpt lat="48.70758" lon="5.4441">
        <ele>331.2</ele>
        <time>2020-06-29T20:37:16Z</time>
      </trkpt>
      <trkpt lat="48.70759" lon="5.4441">
        <ele>331.2</ele>
        <time>2020-06-29T20:37:17Z</time>
      </trkpt>
      <trkpt lat="48.70755" lon="5.44406">
        <ele>331.2</ele>
        <time>2020-06-29T20:41:17Z</time>
      </trkpt>
      <trkpt lat="48.70755" lon="5.44406">
        <ele>331.2</ele>
        <time>2020-06-29T20:41:18Z</time>
      </trkpt>
      <trkpt lat="48.70755" lon="5.44405">
        <ele>331.3</ele>
        <time>2020-06-29T20:41:19Z</time>
      </trkpt>
      <trkpt lat="48.70755" lon="5.44404">
        <ele>331.3</ele>
        <time>2020-06-29T20:41:20Z</time>
      </trkpt>
      <trkpt lat="48.70755" lon="5.44403">
        <ele>331.3</ele>
        <time>2020-06-29T20:41:21Z</time>
      </trkpt>
      <trkpt lat="48.70755" lon="5.44402">
        <ele>331.3</ele>
        <time>2020-06-29T20:41:22Z</time>
      </trkpt>
      <trkpt lat="48.70755" lon="5.44402">
        <ele>331.3</ele>
        <time>2020-06-29T20:41:23Z</time>
      </trkpt>
      <trkpt lat="48.70756" lon="5.444">
        <ele>331.3</ele>
        <time>2020-06-29T20:41:24Z</time>
      </trkpt>
      <trkpt lat="48.70756" lon="5.44399">
        <ele>331.3</ele>
        <time>2020-06-29T20:41:25Z</time>
      </trkpt>
      <trkpt lat="48.70756" lon="5.44398">
        <ele>331.3</ele>
        <time>2020-06-29T20:41:26Z</time>
      </trkpt>
      <trkpt lat="48.70756" lon="5.44398">
        <ele>331.3</ele>
        <time>2020-06-29T20:41:27Z</time>
      </trkpt>
      <trkpt lat="48.70756" lon="5.44398">
        <ele>331.3</ele>
        <time>2020-06-29T20:41:28Z</time>
      </trkpt>
      <trkpt lat="48.70757" lon="5.44398">
        <ele>331.3</ele>
        <time>2020-06-29T20:41:29Z</time>
      </trkpt>
      <trkpt lat="48.70757" lon="5.44399">
        <ele>331.3</ele>
        <time>2020-06-29T20:41:30Z</time>
      </trkpt>
      <trkpt lat="48.70758" lon="5.44398">
        <ele>331.3</ele>
        <time>2020-06-29T20:41:31Z</time>
      </trkpt>
      <trkpt lat="48.70758" lon="5.44397">
        <ele>331.3</ele>
        <time>2020-06-29T20:41:32Z</time>
      </trkpt>
      <trkpt lat="48.7076" lon="5.44396">
        <ele>331.3</ele>
        <time>2020-06-29T20:41:33Z</time>
      </trkpt>
      <trkpt lat="48.7076" lon="5.44395">
        <ele>331.3</ele>
        <time>2020-06-29T20:41:34Z</time>
      </trkpt>
      <trkpt lat="48.7076" lon="5.44394">
        <ele>331.3</ele>
        <time>2020-06-29T20:41:35Z</time>
      </trkpt>
      <trkpt lat="48.7076" lon="5.44393">
        <ele>331.3</ele>
        <time>2020-06-29T20:41:36Z</time>
      </trkpt>
      <trkpt lat="48.7076" lon="5.44393">
        <ele>331.3</ele>
        <time>2020-06-29T20:41:37Z</time>
      </trkpt>
      <trkpt lat="48.7076" lon="5.44392">
        <ele>331.3</ele>
        <time>2020-06-29T20:41:38Z</time>
      </trkpt>
      <trkpt lat="48.7076" lon="5.44391">
        <ele>331.3</ele>
        <time>2020-06-29T20:41:39Z</time>
      </trkpt>
      <trkpt lat="48.7076" lon="5.4439">
        <ele>331.3</ele>
        <time>2020-06-29T20:41:40Z</time>
      </trkpt>
      <trkpt lat="48.7076" lon="5.44389">
        <ele>331.4</ele>
        <time>2020-06-29T20:41:41Z</time>
      </trkpt>
      <trkpt lat="48.70759" lon="5.44388">
        <ele>331.4</ele>
        <time>2020-06-29T20:41:42Z</time>
      </trkpt>
      <trkpt lat="48.70759" lon="5.44386">
        <ele>331.4</ele>
        <time>2020-06-29T20:41:43Z</time>
      </trkpt>
      <trkpt lat="48.70759" lon="5.44385">
        <ele>331.4</ele>
        <time>2020-06-29T20:41:44Z</time>
      </trkpt>
      <trkpt lat="48.70759" lon="5.44384">
        <ele>331.4</ele>
        <time>2020-06-29T20:41:45Z</time>
      </trkpt>
      <trkpt lat="48.70759" lon="5.4438">
        <ele>331.4</ele>
        <time>2020-06-29T20:41:46Z</time>
      </trkpt>
      <trkpt lat="48.70759" lon="5.44379">
        <ele>331.4</ele>
        <time>2020-06-29T20:41:47Z</time>
      </trkpt>
      <trkpt lat="48.70759" lon="5.44377">
        <ele>331.4</ele>
        <time>2020-06-29T20:41:48Z</time>
      </trkpt>
      <trkpt lat="48.7076" lon="5.44375">
        <ele>331.4</ele>
        <time>2020-06-29T20:41:49Z</time>
      </trkpt>
      <trkpt lat="48.7076" lon="5.44374">
        <ele>331.4</ele>
        <time>2020-06-29T20:41:50Z</time>
      </trkpt>
      <trkpt lat="48.7076" lon="5.44372">
        <ele>331.4</ele>
        <time>2020-06-29T20:41:51Z</time>
      </trkpt>
      <trkpt lat="48.70761" lon="5.44369">
        <ele>331.4</ele>
        <time>2020-06-29T20:41:52Z</time>
      </trkpt>
      <trkpt lat="48.70761" lon="5.44368">
        <ele>331.5</ele>
        <time>2020-06-29T20:41:53Z</time>
      </trkpt>
      <trkpt lat="48.70761" lon="5.44366">
        <ele>331.5</ele>
        <time>2020-06-29T20:41:54Z</time>
      </trkpt>
      <trkpt lat="48.70762" lon="5.44364">
        <ele>331.5</ele>
        <time>2020-06-29T20:41:55Z</time>
      </trkpt>
      <trkpt lat="48.70762" lon="5.44363">
        <ele>331.5</ele>
        <time>2020-06-29T20:41:56Z</time>
      </trkpt>
      <trkpt lat="48.70763" lon="5.44362">
        <ele>331.5</ele>
        <time>2020-06-29T20:41:57Z</time>
      </trkpt>
      <trkpt lat="48.70763" lon="5.44361">
        <ele>331.5</ele>
        <time>2020-06-29T20:41:58Z</time>
      </trkpt>
      <trkpt lat="48.70764" lon="5.44359">
        <ele>331.5</ele>
        <time>2020-06-29T20:41:59Z</time>
      </trkpt>
      <trkpt lat="48.70765" lon="5.44358">
        <ele>331.5</ele>
        <time>2020-06-29T20:42:00Z</time>
      </trkpt>
      <trkpt lat="48.70765" lon="5.44356">
        <ele>331.5</ele>
        <time>2020-06-29T20:42:01Z</time>
      </trkpt>
      <trkpt lat="48.70766" lon="5.44355">
        <ele>331.5</ele>
        <time>2020-06-29T20:42:02Z</time>
      </trkpt>
      <trkpt lat="48.70766" lon="5.44353">
        <ele>331.5</ele>
        <time>2020-06-29T20:42:03Z</time>
      </trkpt>
      <trkpt lat="48.70767" lon="5.44352">
        <ele>331.5</ele>
        <time>2020-06-29T20:42:04Z</time>
      </trkpt>
      <trkpt lat="48.70767" lon="5.44351">
        <ele>331.5</ele>
        <time>2020-06-29T20:42:05Z</time>
      </trkpt>
      <trkpt lat="48.70767" lon="5.4435">
        <ele>331.5</ele>
        <time>2020-06-29T20:42:06Z</time>
      </trkpt>
      <trkpt lat="48.70767" lon="5.4435">
        <ele>331.5</ele>
        <time>2020-06-29T20:42:07Z</time>
      </trkpt>
      <trkpt lat="48.70767" lon="5.4435">
        <ele>331.5</ele>
        <time>2020-06-29T20:42:08Z</time>
      </trkpt>
      <trkpt lat="48.70768" lon="5.44349">
        <ele>331.6</ele>
        <time>2020-06-29T20:42:09Z</time>
      </trkpt>
      <trkpt lat="48.70769" lon="5.44348">
        <ele>331.6</ele>
        <time>2020-06-29T20:42:10Z</time>
      </trkpt>
      <trkpt lat="48.70769" lon="5.44348">
        <ele>331.6</ele>
        <time>2020-06-29T20:42:11Z</time>
      </trkpt>
      <trkpt lat="48.70769" lon="5.44348">
        <ele>331.6</ele>
        <time>2020-06-29T20:42:12Z</time>
      </trkpt>
      <trkpt lat="48.70769" lon="5.44348">
        <ele>331.6</ele>
        <time>2020-06-29T20:42:13Z</time>
      </trkpt>
      <trkpt lat="48.70769" lon="5.44348">
        <ele>331.6</ele>
        <time>2020-06-29T20:42:14Z</time>
      </trkpt>
      <trkpt lat="48.7077" lon="5.44347">
        <ele>331.6</ele>
        <time>2020-06-29T20:42:15Z</time>
      </trkpt>
      <trkpt lat="48.7077" lon="5.44346">
        <ele>331.6</ele>
        <time>2020-06-29T20:42:16Z</time>
      </trkpt>
      <trkpt lat="48.7077" lon="5.44346">
        <ele>331.6</ele>
        <time>2020-06-29T20:42:17Z</time>
      </trkpt>
      <trkpt lat="48.7077" lon="5.44346">
        <ele>331.6</ele>
        <time>2020-06-29T20:42:18Z</time>
      </trkpt>
      <trkpt lat="48.7077" lon="5.44346">
        <ele>331.6</ele>
        <time>2020-06-29T20:42:19Z</time>
      </trkpt>
      <trkpt lat="48.7077" lon="5.44345">
        <ele>331.6</ele>
        <time>2020-06-29T20:42:20Z</time>
      </trkpt>
      <trkpt lat="48.7077" lon="5.44345">
        <ele>331.6</ele>
        <time>2020-06-29T20:42:21Z</time>
      </trkpt>
      <trkpt lat="48.7077" lon="5.44345">
        <ele>331.6</ele>
        <time>2020-06-29T20:42:22Z</time>
      </trkpt>
      <trkpt lat="48.7077" lon="5.44345">
        <ele>331.6</ele>
        <time>2020-06-29T20:42:23Z</time>
      </trkpt>
      <trkpt lat="48.7077" lon="5.44345">
        <ele>331.6</ele>
        <time>2020-06-29T20:42:24Z</time>
      </trkpt>
      <trkpt lat="48.7077" lon="5.44344">
        <ele>331.6</ele>
        <time>2020-06-29T20:42:25Z</time>
      </trkpt>
      <trkpt lat="48.7077" lon="5.44343">
        <ele>331.6</ele>
        <time>2020-06-29T20:42:26Z</time>
      </trkpt>
      <trkpt lat="48.70772" lon="5.44342">
        <ele>331.6</ele>
        <time>2020-06-29T20:45:23Z</time>
      </trkpt>
      <trkpt lat="48.70773" lon="5.44341">
        <ele>331.6</ele>
        <time>2020-06-29T20:45:24Z</time>
      </trkpt>
      <trkpt lat="48.70773" lon="5.4434">
        <ele>331.6</ele>
        <time>2020-06-29T20:45:25Z</time>
      </trkpt>
      <trkpt lat="48.70774" lon="5.44341">
        <ele>331.6</ele>
        <time>2020-06-29T20:45:26Z</time>
      </trkpt>
      <trkpt lat="48.70774" lon="5.44342">
        <ele>331.6</ele>
        <time>2020-06-29T20:45:27Z</time>
      </trkpt>
      <trkpt lat="48.70774" lon="5.44341">
        <ele>331.6</ele>
        <time>2020-06-29T20:45:28Z</time>
      </trkpt>
      <trkpt lat="48.70774" lon="5.44342">
        <ele>331.6</ele>
        <time>2020-06-29T20:45:29Z</time>
      </trkpt>
      <trkpt lat="48.70774" lon="5.44342">
        <ele>331.6</ele>
        <time>2020-06-29T20:45:30Z</time>
      </trkpt>
      <trkpt lat="48.70774" lon="5.44343">
        <ele>331.6</ele>
        <time>2020-06-29T20:45:31Z</time>
      </trkpt>
      <trkpt lat="48.70774" lon="5.44343">
        <ele>331.6</ele>
        <time>2020-06-29T20:45:32Z</time>
      </trkpt>
      <trkpt lat="48.70775" lon="5.44344">
        <ele>331.6</ele>
        <time>2020-06-29T20:45:33Z</time>
      </trkpt>
      <trkpt lat="48.70775" lon="5.44344">
        <ele>331.6</ele>
        <time>2020-06-29T20:45:34Z</time>
      </trkpt>
      <trkpt lat="48.70775" lon="5.44344">
        <ele>331.6</ele>
        <time>2020-06-29T20:45:35Z</time>
      </trkpt>
      <trkpt lat="48.70774" lon="5.44345">
        <ele>331.7</ele>
        <time>2020-06-29T20:45:36Z</time>
      </trkpt>
      <trkpt lat="48.70774" lon="5.44345">
        <ele>331.7</ele>
        <time>2020-06-29T20:45:37Z</time>
      </trkpt>
      <trkpt lat="48.70774" lon="5.44345">
        <ele>331.7</ele>
        <time>2020-06-29T20:45:38Z</time>
      </trkpt>
      <trkpt lat="48.70774" lon="5.44345">
        <ele>331.7</ele>
        <time>2020-06-29T20:45:39Z</time>
      </trkpt>
      <trkpt lat="48.70774" lon="5.44345">
        <ele>331.7</ele>
        <time>2020-06-29T20:45:40Z</time>
      </trkpt>
      <trkpt lat="48.70774" lon="5.44344">
        <ele>331.7</ele>
        <time>2020-06-29T20:45:41Z</time>
      </trkpt>
    </trkseg>
  </trk>
</gpx>